﻿<?xml version="1.0" encoding="utf-8"?><gpx version="1.1" creator="izvne.com" xmlns="http://www.topografix.com/GPX/1/1"><trk><name>iceland-overview</name><trkseg><trkpt lat="64.13791657" lon="-21.93491173"><ele>89.3</ele><time>2012-07-18T09:41:00.0000000+00:00</time></trkpt><trkpt lat="64.13801575" lon="-21.9347477"><ele>89.2</ele><time>2012-07-18T09:41:05.0000000+00:00</time></trkpt><trkpt lat="64.13804627" lon="-21.93474388"><ele>89.2</ele><time>2012-07-18T09:41:10.0000000+00:00</time></trkpt><trkpt lat="64.13805389" lon="-21.93475533"><ele>89.2</ele><time>2012-07-18T09:41:15.0000000+00:00</time></trkpt><trkpt lat="64.13808441" lon="-21.93468094"><ele>89.2</ele><time>2012-07-18T09:41:20.0000000+00:00</time></trkpt><trkpt lat="64.13799286" lon="-21.93479538"><ele>89.3</ele><time>2012-07-18T09:41:25.0000000+00:00</time></trkpt><trkpt lat="64.13792419" lon="-21.93486214"><ele>89.3</ele><time>2012-07-18T09:41:30.0000000+00:00</time></trkpt><trkpt lat="64.13787842" lon="-21.93492127"><ele>89.3</ele><time>2012-07-18T09:41:35.0000000+00:00</time></trkpt><trkpt lat="64.13786316" lon="-21.93493843"><ele>88.9</ele><time>2012-07-18T09:41:40.0000000+00:00</time></trkpt><trkpt lat="64.13785553" lon="-21.93494034"><ele>88.9</ele><time>2012-07-18T09:41:45.0000000+00:00</time></trkpt><trkpt lat="64.13785553" lon="-21.93495178"><ele>89.1</ele><time>2012-07-18T09:41:50.0000000+00:00</time></trkpt><trkpt lat="64.1378479" lon="-21.93496704"><ele>89.2</ele><time>2012-07-18T09:41:55.0000000+00:00</time></trkpt><trkpt lat="64.13784027" lon="-21.93496513"><ele>89.1</ele><time>2012-07-18T09:42:00.0000000+00:00</time></trkpt><trkpt lat="64.13783264" lon="-21.93496704"><ele>89.0</ele><time>2012-07-18T09:42:05.0000000+00:00</time></trkpt><trkpt lat="64.13782501" lon="-21.93496513"><ele>88.9</ele><time>2012-07-18T09:42:10.0000000+00:00</time></trkpt><trkpt lat="64.13780212" lon="-21.93480492"><ele>83.5</ele><time>2012-07-18T09:42:15.0000000+00:00</time></trkpt><trkpt lat="64.13774872" lon="-21.93483162"><ele>82.8</ele><time>2012-07-18T09:42:20.0000000+00:00</time></trkpt><trkpt lat="64.13771057" lon="-21.93490219"><ele>81.5</ele><time>2012-07-18T09:42:25.0000000+00:00</time></trkpt><trkpt lat="64.13764191" lon="-21.93498802"><ele>78.5</ele><time>2012-07-18T09:42:30.0000000+00:00</time></trkpt><trkpt lat="64.13762665" lon="-21.93511391"><ele>75.3</ele><time>2012-07-18T09:42:35.0000000+00:00</time></trkpt><trkpt lat="64.13768005" lon="-21.93523598"><ele>69.4</ele><time>2012-07-18T09:42:40.0000000+00:00</time></trkpt><trkpt lat="64.13760376" lon="-21.93525314"><ele>65.1</ele><time>2012-07-18T09:42:45.0000000+00:00</time></trkpt><trkpt lat="64.13758087" lon="-21.93507767"><ele>65.2</ele><time>2012-07-18T09:42:50.0000000+00:00</time></trkpt><trkpt lat="64.13751221" lon="-21.93509293"><ele>59.0</ele><time>2012-07-18T09:42:55.0000000+00:00</time></trkpt><trkpt lat="64.13749695" lon="-21.93512154"><ele>58.0</ele><time>2012-07-18T09:43:00.0000000+00:00</time></trkpt><trkpt lat="64.13750458" lon="-21.93511772"><ele>58.1</ele><time>2012-07-18T09:43:05.0000000+00:00</time></trkpt><trkpt lat="64.13748169" lon="-21.93512917"><ele>57.6</ele><time>2012-07-18T09:43:10.0000000+00:00</time></trkpt><trkpt lat="64.1374588" lon="-21.93517876"><ele>56.1</ele><time>2012-07-18T09:43:15.0000000+00:00</time></trkpt><trkpt lat="64.13742828" lon="-21.93524551"><ele>55.6</ele><time>2012-07-18T09:43:20.0000000+00:00</time></trkpt><trkpt lat="64.13744354" lon="-21.93516159"><ele>52.5</ele><time>2012-07-18T09:43:25.0000000+00:00</time></trkpt><trkpt lat="64.1374588" lon="-21.93514633"><ele>52.4</ele><time>2012-07-18T09:43:30.0000000+00:00</time></trkpt><trkpt lat="64.13746643" lon="-21.9351368"><ele>52.1</ele><time>2012-07-18T09:43:35.0000000+00:00</time></trkpt><trkpt lat="64.13768768" lon="-21.93476868"><ele>25.1</ele><time>2012-07-18T09:43:40.0000000+00:00</time></trkpt><trkpt lat="64.13768768" lon="-21.93476868"><ele>25.3</ele><time>2012-07-18T09:43:45.0000000+00:00</time></trkpt><trkpt lat="64.13768768" lon="-21.93476677"><ele>25.3</ele><time>2012-07-18T09:43:50.0000000+00:00</time></trkpt><trkpt lat="64.13770294" lon="-21.93475151"><ele>26.0</ele><time>2012-07-18T09:43:55.0000000+00:00</time></trkpt><trkpt lat="64.13769531" lon="-21.93471718"><ele>27.4</ele><time>2012-07-18T09:44:00.0000000+00:00</time></trkpt><trkpt lat="64.13768768" lon="-21.93470383"><ele>28.9</ele><time>2012-07-18T09:44:05.0000000+00:00</time></trkpt><trkpt lat="64.13768768" lon="-21.93469429"><ele>29.4</ele><time>2012-07-18T09:44:10.0000000+00:00</time></trkpt><trkpt lat="64.13768005" lon="-21.93469429"><ele>29.9</ele><time>2012-07-18T09:44:15.0000000+00:00</time></trkpt><trkpt lat="64.13768005" lon="-21.93469048"><ele>30.5</ele><time>2012-07-18T09:44:20.0000000+00:00</time></trkpt><trkpt lat="64.13769531" lon="-21.93467522"><ele>30.5</ele><time>2012-07-18T09:44:25.0000000+00:00</time></trkpt><trkpt lat="64.1377182" lon="-21.93463516"><ele>30.7</ele><time>2012-07-18T09:44:30.0000000+00:00</time></trkpt><trkpt lat="64.13772583" lon="-21.93461037"><ele>31.4</ele><time>2012-07-18T09:44:35.0000000+00:00</time></trkpt><trkpt lat="64.13770294" lon="-21.93458176"><ele>30.1</ele><time>2012-07-18T09:44:40.0000000+00:00</time></trkpt><trkpt lat="64.13771057" lon="-21.93457222"><ele>30.3</ele><time>2012-07-18T09:44:45.0000000+00:00</time></trkpt><trkpt lat="64.1377182" lon="-21.93456841"><ele>30.7</ele><time>2012-07-18T09:44:50.0000000+00:00</time></trkpt><trkpt lat="64.1377182" lon="-21.93456459"><ele>31.0</ele><time>2012-07-18T09:44:55.0000000+00:00</time></trkpt><trkpt lat="64.1377182" lon="-21.9345665"><ele>31.3</ele><time>2012-07-18T09:45:00.0000000+00:00</time></trkpt><trkpt lat="64.13771057" lon="-21.93457222"><ele>31.5</ele><time>2012-07-18T09:45:05.0000000+00:00</time></trkpt><trkpt lat="64.13771057" lon="-21.93457604"><ele>31.7</ele><time>2012-07-18T09:45:10.0000000+00:00</time></trkpt><trkpt lat="64.13771057" lon="-21.93457794"><ele>31.9</ele><time>2012-07-18T09:45:15.0000000+00:00</time></trkpt><trkpt lat="64.13771057" lon="-21.93456841"><ele>32.1</ele><time>2012-07-18T09:45:20.0000000+00:00</time></trkpt><trkpt lat="64.1377182" lon="-21.93455887"><ele>32.2</ele><time>2012-07-18T09:45:25.0000000+00:00</time></trkpt><trkpt lat="64.13772583" lon="-21.9345398"><ele>32.3</ele><time>2012-07-18T09:45:30.0000000+00:00</time></trkpt><trkpt lat="64.13772583" lon="-21.93453026"><ele>32.4</ele><time>2012-07-18T09:45:35.0000000+00:00</time></trkpt><trkpt lat="64.13772583" lon="-21.93453598"><ele>32.4</ele><time>2012-07-18T09:45:40.0000000+00:00</time></trkpt><trkpt lat="64.13772583" lon="-21.9345417"><ele>32.3</ele><time>2012-07-18T09:45:45.0000000+00:00</time></trkpt><trkpt lat="64.13769531" lon="-21.93455124"><ele>30.5</ele><time>2012-07-18T09:45:50.0000000+00:00</time></trkpt><trkpt lat="64.13768768" lon="-21.93455696"><ele>30.4</ele><time>2012-07-18T09:45:55.0000000+00:00</time></trkpt><trkpt lat="64.13768005" lon="-21.93456268"><ele>30.3</ele><time>2012-07-18T09:46:00.0000000+00:00</time></trkpt><trkpt lat="64.13767242" lon="-21.93457794"><ele>30.2</ele><time>2012-07-18T09:46:05.0000000+00:00</time></trkpt><trkpt lat="64.13764191" lon="-21.93464851"><ele>29.1</ele><time>2012-07-18T09:46:10.0000000+00:00</time></trkpt><trkpt lat="64.13759613" lon="-21.93471146"><ele>28.5</ele><time>2012-07-18T09:46:15.0000000+00:00</time></trkpt><trkpt lat="64.13755798" lon="-21.93478966"><ele>27.0</ele><time>2012-07-18T09:46:20.0000000+00:00</time></trkpt><trkpt lat="64.13752747" lon="-21.93483734"><ele>25.8</ele><time>2012-07-18T09:46:25.0000000+00:00</time></trkpt><trkpt lat="64.13751984" lon="-21.9348793"><ele>25.4</ele><time>2012-07-18T09:46:30.0000000+00:00</time></trkpt><trkpt lat="64.13751221" lon="-21.93488693"><ele>24.5</ele><time>2012-07-18T09:46:35.0000000+00:00</time></trkpt><trkpt lat="64.13750458" lon="-21.93484497"><ele>23.2</ele><time>2012-07-18T09:46:40.0000000+00:00</time></trkpt><trkpt lat="64.13749695" lon="-21.93482399"><ele>22.4</ele><time>2012-07-18T09:46:45.0000000+00:00</time></trkpt><trkpt lat="64.13751984" lon="-21.93478966"><ele>22.6</ele><time>2012-07-18T09:46:50.0000000+00:00</time></trkpt><trkpt lat="64.13751984" lon="-21.93478966"><ele>22.2</ele><time>2012-07-18T09:46:55.0000000+00:00</time></trkpt><trkpt lat="64.13751984" lon="-21.93478203"><ele>21.8</ele><time>2012-07-18T09:47:00.0000000+00:00</time></trkpt><trkpt lat="64.13752747" lon="-21.93477058"><ele>21.4</ele><time>2012-07-18T09:47:05.0000000+00:00</time></trkpt><trkpt lat="64.13754273" lon="-21.93475914"><ele>20.9</ele><time>2012-07-18T09:47:10.0000000+00:00</time></trkpt><trkpt lat="64.13758087" lon="-21.93476105"><ele>20.2</ele><time>2012-07-18T09:47:15.0000000+00:00</time></trkpt><trkpt lat="64.13761139" lon="-21.93471527"><ele>19.3</ele><time>2012-07-18T09:47:20.0000000+00:00</time></trkpt><trkpt lat="64.13762665" lon="-21.93471527"><ele>18.9</ele><time>2012-07-18T09:47:25.0000000+00:00</time></trkpt><trkpt lat="64.13763428" lon="-21.93470764"><ele>18.4</ele><time>2012-07-18T09:47:30.0000000+00:00</time></trkpt><trkpt lat="64.13764191" lon="-21.9346962"><ele>17.7</ele><time>2012-07-18T09:47:35.0000000+00:00</time></trkpt><trkpt lat="64.13764191" lon="-21.93468285"><ele>17.1</ele><time>2012-07-18T09:47:40.0000000+00:00</time></trkpt><trkpt lat="64.13764191" lon="-21.93467903"><ele>16.4</ele><time>2012-07-18T09:47:45.0000000+00:00</time></trkpt><trkpt lat="64.13764191" lon="-21.9346714"><ele>15.7</ele><time>2012-07-18T09:47:50.0000000+00:00</time></trkpt><trkpt lat="64.13764191" lon="-21.93466377"><ele>14.9</ele><time>2012-07-18T09:47:55.0000000+00:00</time></trkpt><trkpt lat="64.13764191" lon="-21.93465424"><ele>14.2</ele><time>2012-07-18T09:48:00.0000000+00:00</time></trkpt><trkpt lat="64.13764191" lon="-21.9346447"><ele>13.4</ele><time>2012-07-18T09:48:05.0000000+00:00</time></trkpt><trkpt lat="64.13764191" lon="-21.93464279"><ele>12.7</ele><time>2012-07-18T09:48:10.0000000+00:00</time></trkpt><trkpt lat="64.13763428" lon="-21.93464851"><ele>11.9</ele><time>2012-07-18T09:48:15.0000000+00:00</time></trkpt><trkpt lat="64.13762665" lon="-21.93464851"><ele>11.0</ele><time>2012-07-18T09:48:20.0000000+00:00</time></trkpt><trkpt lat="64.13763428" lon="-21.93462944"><ele>10.1</ele><time>2012-07-18T09:48:25.0000000+00:00</time></trkpt><trkpt lat="64.13762665" lon="-21.93462753"><ele>9.3</ele><time>2012-07-18T09:48:30.0000000+00:00</time></trkpt><trkpt lat="64.13763428" lon="-21.93462181"><ele>8.6</ele><time>2012-07-18T09:48:35.0000000+00:00</time></trkpt><trkpt lat="64.13763428" lon="-21.93461609"><ele>8.0</ele><time>2012-07-18T09:48:40.0000000+00:00</time></trkpt><trkpt lat="64.13764954" lon="-21.93461227"><ele>7.7</ele><time>2012-07-18T09:48:45.0000000+00:00</time></trkpt><trkpt lat="64.13765717" lon="-21.93464279"><ele>8.1</ele><time>2012-07-18T09:48:50.0000000+00:00</time></trkpt><trkpt lat="64.13765717" lon="-21.93463326"><ele>7.7</ele><time>2012-07-18T09:48:55.0000000+00:00</time></trkpt><trkpt lat="64.13765717" lon="-21.93463326"><ele>7.3</ele><time>2012-07-18T09:49:00.0000000+00:00</time></trkpt><trkpt lat="64.13765717" lon="-21.93463326"><ele>7.0</ele><time>2012-07-18T09:49:05.0000000+00:00</time></trkpt><trkpt lat="64.13765717" lon="-21.93462944"><ele>6.8</ele><time>2012-07-18T09:49:10.0000000+00:00</time></trkpt><trkpt lat="64.13765717" lon="-21.93463135"><ele>6.7</ele><time>2012-07-18T09:49:15.0000000+00:00</time></trkpt><trkpt lat="64.13765717" lon="-21.93462944"><ele>6.6</ele><time>2012-07-18T09:49:20.0000000+00:00</time></trkpt><trkpt lat="64.13764954" lon="-21.93462944"><ele>6.5</ele><time>2012-07-18T09:49:25.0000000+00:00</time></trkpt><trkpt lat="64.13765717" lon="-21.93462563"><ele>6.5</ele><time>2012-07-18T09:49:30.0000000+00:00</time></trkpt><trkpt lat="64.13765717" lon="-21.93462181"><ele>6.5</ele><time>2012-07-18T09:49:35.0000000+00:00</time></trkpt><trkpt lat="64.13765717" lon="-21.93462372"><ele>6.5</ele><time>2012-07-18T09:49:40.0000000+00:00</time></trkpt><trkpt lat="64.13765717" lon="-21.93462563"><ele>6.7</ele><time>2012-07-18T09:49:45.0000000+00:00</time></trkpt><trkpt lat="64.13765717" lon="-21.93462372"><ele>6.8</ele><time>2012-07-18T09:49:50.0000000+00:00</time></trkpt><trkpt lat="64.13765717" lon="-21.93462372"><ele>7.0</ele><time>2012-07-18T09:49:55.0000000+00:00</time></trkpt><trkpt lat="64.13765717" lon="-21.93462753"><ele>7.1</ele><time>2012-07-18T09:50:00.0000000+00:00</time></trkpt><trkpt lat="64.1376648" lon="-21.93462563"><ele>7.2</ele><time>2012-07-18T09:50:05.0000000+00:00</time></trkpt><trkpt lat="64.1376648" lon="-21.93462372"><ele>7.3</ele><time>2012-07-18T09:50:10.0000000+00:00</time></trkpt><trkpt lat="64.13767242" lon="-21.93463135"><ele>7.3</ele><time>2012-07-18T09:50:15.0000000+00:00</time></trkpt><trkpt lat="64.13768005" lon="-21.93463898"><ele>7.1</ele><time>2012-07-18T09:50:20.0000000+00:00</time></trkpt><trkpt lat="64.13768005" lon="-21.93463326"><ele>7.6</ele><time>2012-07-18T09:50:25.0000000+00:00</time></trkpt><trkpt lat="64.13768005" lon="-21.93462753"><ele>7.7</ele><time>2012-07-18T09:50:30.0000000+00:00</time></trkpt><trkpt lat="64.13768005" lon="-21.93462372"><ele>7.8</ele><time>2012-07-18T09:50:35.0000000+00:00</time></trkpt><trkpt lat="64.13768005" lon="-21.93462753"><ele>7.9</ele><time>2012-07-18T09:50:40.0000000+00:00</time></trkpt><trkpt lat="64.13767242" lon="-21.93463516"><ele>8.0</ele><time>2012-07-18T09:50:45.0000000+00:00</time></trkpt><trkpt lat="64.1376648" lon="-21.93463707"><ele>8.1</ele><time>2012-07-18T09:50:50.0000000+00:00</time></trkpt><trkpt lat="64.1376648" lon="-21.93463707"><ele>8.3</ele><time>2012-07-18T09:50:55.0000000+00:00</time></trkpt><trkpt lat="64.13767242" lon="-21.93463707"><ele>8.5</ele><time>2012-07-18T09:51:00.0000000+00:00</time></trkpt><trkpt lat="64.1376648" lon="-21.93463516"><ele>8.7</ele><time>2012-07-18T09:51:05.0000000+00:00</time></trkpt><trkpt lat="64.1376648" lon="-21.93462181"><ele>9.2</ele><time>2012-07-18T09:51:10.0000000+00:00</time></trkpt><trkpt lat="64.13767242" lon="-21.9346199"><ele>9.8</ele><time>2012-07-18T09:51:15.0000000+00:00</time></trkpt><trkpt lat="64.13769531" lon="-21.93460655"><ele>11.3</ele><time>2012-07-18T09:51:20.0000000+00:00</time></trkpt><trkpt lat="64.13768768" lon="-21.93461227"><ele>11.5</ele><time>2012-07-18T09:51:25.0000000+00:00</time></trkpt><trkpt lat="64.13767242" lon="-21.93461609"><ele>11.8</ele><time>2012-07-18T09:51:30.0000000+00:00</time></trkpt><trkpt lat="64.1376648" lon="-21.9346199"><ele>12.0</ele><time>2012-07-18T09:51:35.0000000+00:00</time></trkpt><trkpt lat="64.1376648" lon="-21.93462753"><ele>12.3</ele><time>2012-07-18T09:51:40.0000000+00:00</time></trkpt><trkpt lat="64.1376648" lon="-21.93463898"><ele>12.5</ele><time>2012-07-18T09:51:45.0000000+00:00</time></trkpt><trkpt lat="64.1376648" lon="-21.9346447"><ele>12.8</ele><time>2012-07-18T09:51:50.0000000+00:00</time></trkpt><trkpt lat="64.13767242" lon="-21.9346447"><ele>13.0</ele><time>2012-07-18T09:51:55.0000000+00:00</time></trkpt><trkpt lat="64.13767242" lon="-21.93463707"><ele>13.3</ele><time>2012-07-18T09:52:00.0000000+00:00</time></trkpt><trkpt lat="64.13768005" lon="-21.93462181"><ele>13.6</ele><time>2012-07-18T09:52:05.0000000+00:00</time></trkpt><trkpt lat="64.13768768" lon="-21.93461418"><ele>13.9</ele><time>2012-07-18T09:52:10.0000000+00:00</time></trkpt><trkpt lat="64.13768768" lon="-21.93461609"><ele>14.3</ele><time>2012-07-18T09:52:15.0000000+00:00</time></trkpt><trkpt lat="64.13768768" lon="-21.93461609"><ele>14.6</ele><time>2012-07-18T09:52:20.0000000+00:00</time></trkpt><trkpt lat="64.13769531" lon="-21.93461418"><ele>15.0</ele><time>2012-07-18T09:52:25.0000000+00:00</time></trkpt><trkpt lat="64.13769531" lon="-21.93461609"><ele>15.4</ele><time>2012-07-18T09:52:30.0000000+00:00</time></trkpt><trkpt lat="64.13769531" lon="-21.93461418"><ele>15.8</ele><time>2012-07-18T09:52:35.0000000+00:00</time></trkpt><trkpt lat="64.13770294" lon="-21.93460655"><ele>16.2</ele><time>2012-07-18T09:52:40.0000000+00:00</time></trkpt><trkpt lat="64.13771057" lon="-21.93460083"><ele>16.6</ele><time>2012-07-18T09:52:45.0000000+00:00</time></trkpt><trkpt lat="64.1377182" lon="-21.93459129"><ele>17.0</ele><time>2012-07-18T09:52:50.0000000+00:00</time></trkpt><trkpt lat="64.1377182" lon="-21.93459129"><ele>17.4</ele><time>2012-07-18T09:52:55.0000000+00:00</time></trkpt><trkpt lat="64.1377182" lon="-21.93459702"><ele>17.7</ele><time>2012-07-18T09:53:00.0000000+00:00</time></trkpt><trkpt lat="64.13771057" lon="-21.93459892"><ele>18.0</ele><time>2012-07-18T09:53:05.0000000+00:00</time></trkpt><trkpt lat="64.13771057" lon="-21.93459892"><ele>18.3</ele><time>2012-07-18T09:53:10.0000000+00:00</time></trkpt><trkpt lat="64.13770294" lon="-21.93460083"><ele>18.6</ele><time>2012-07-18T09:53:15.0000000+00:00</time></trkpt><trkpt lat="64.13770294" lon="-21.93460655"><ele>18.8</ele><time>2012-07-18T09:53:20.0000000+00:00</time></trkpt><trkpt lat="64.13769531" lon="-21.93461609"><ele>19.0</ele><time>2012-07-18T09:53:25.0000000+00:00</time></trkpt><trkpt lat="64.1376648" lon="-21.93465233"><ele>19.1</ele><time>2012-07-18T09:53:30.0000000+00:00</time></trkpt><trkpt lat="64.13764954" lon="-21.93469429"><ele>19.1</ele><time>2012-07-18T09:53:35.0000000+00:00</time></trkpt><trkpt lat="64.13764954" lon="-21.93473625"><ele>19.3</ele><time>2012-07-18T09:53:40.0000000+00:00</time></trkpt><trkpt lat="64.13764954" lon="-21.93471909"><ele>19.5</ele><time>2012-07-18T09:53:45.0000000+00:00</time></trkpt><trkpt lat="64.13764954" lon="-21.9347229"><ele>19.7</ele><time>2012-07-18T09:53:50.0000000+00:00</time></trkpt><trkpt lat="64.13764191" lon="-21.9347229"><ele>19.9</ele><time>2012-07-18T09:53:55.0000000+00:00</time></trkpt><trkpt lat="64.13764191" lon="-21.93472672"><ele>20.1</ele><time>2012-07-18T09:54:00.0000000+00:00</time></trkpt><trkpt lat="64.13764954" lon="-21.93473053"><ele>20.2</ele><time>2012-07-18T09:54:05.0000000+00:00</time></trkpt><trkpt lat="64.13765717" lon="-21.93473625"><ele>20.4</ele><time>2012-07-18T09:54:10.0000000+00:00</time></trkpt><trkpt lat="64.13768005" lon="-21.93473816"><ele>20.5</ele><time>2012-07-18T09:54:15.0000000+00:00</time></trkpt><trkpt lat="64.13770294" lon="-21.93473434"><ele>21.3</ele><time>2012-07-18T09:54:20.0000000+00:00</time></trkpt><trkpt lat="64.13769531" lon="-21.93474007"><ele>21.6</ele><time>2012-07-18T09:54:25.0000000+00:00</time></trkpt><trkpt lat="64.13771057" lon="-21.93472862"><ele>21.8</ele><time>2012-07-18T09:54:30.0000000+00:00</time></trkpt><trkpt lat="64.1377182" lon="-21.93471909"><ele>21.9</ele><time>2012-07-18T09:54:35.0000000+00:00</time></trkpt><trkpt lat="64.13772583" lon="-21.93471146"><ele>22.1</ele><time>2012-07-18T09:54:40.0000000+00:00</time></trkpt><trkpt lat="64.13774872" lon="-21.93464851"><ele>22.6</ele><time>2012-07-18T09:54:45.0000000+00:00</time></trkpt><trkpt lat="64.13777161" lon="-21.93460846"><ele>23.4</ele><time>2012-07-18T09:54:50.0000000+00:00</time></trkpt><trkpt lat="64.13776398" lon="-21.93454742"><ele>23.3</ele><time>2012-07-18T09:54:55.0000000+00:00</time></trkpt><trkpt lat="64.13778687" lon="-21.9345665"><ele>23.2</ele><time>2012-07-18T09:55:00.0000000+00:00</time></trkpt><trkpt lat="64.1377945" lon="-21.93458176"><ele>23.1</ele><time>2012-07-18T09:55:05.0000000+00:00</time></trkpt><trkpt lat="64.1377945" lon="-21.93457604"><ele>23.1</ele><time>2012-07-18T09:55:10.0000000+00:00</time></trkpt><trkpt lat="64.13778687" lon="-21.93458366"><ele>23.0</ele><time>2012-07-18T09:55:15.0000000+00:00</time></trkpt><trkpt lat="64.13759613" lon="-21.93458176"><ele>20.2</ele><time>2012-07-18T09:55:20.0000000+00:00</time></trkpt><trkpt lat="64.13759613" lon="-21.93454933"><ele>17.2</ele><time>2012-07-18T09:55:25.0000000+00:00</time></trkpt><trkpt lat="64.13759613" lon="-21.93458366"><ele>16.0</ele><time>2012-07-18T09:55:30.0000000+00:00</time></trkpt><trkpt lat="64.13759613" lon="-21.93458366"><ele>15.7</ele><time>2012-07-18T09:55:35.0000000+00:00</time></trkpt><trkpt lat="64.13759613" lon="-21.93458557"><ele>15.4</ele><time>2012-07-18T09:55:40.0000000+00:00</time></trkpt><trkpt lat="64.13759613" lon="-21.93459129"><ele>15.1</ele><time>2012-07-18T09:55:45.0000000+00:00</time></trkpt><trkpt lat="64.13760376" lon="-21.93458939"><ele>14.7</ele><time>2012-07-18T09:55:50.0000000+00:00</time></trkpt><trkpt lat="64.13760376" lon="-21.93458939"><ele>14.4</ele><time>2012-07-18T09:55:55.0000000+00:00</time></trkpt><trkpt lat="64.13760376" lon="-21.93459129"><ele>14.1</ele><time>2012-07-18T09:56:00.0000000+00:00</time></trkpt><trkpt lat="64.13760376" lon="-21.93459892"><ele>13.8</ele><time>2012-07-18T09:56:05.0000000+00:00</time></trkpt><trkpt lat="64.13760376" lon="-21.93461037"><ele>13.4</ele><time>2012-07-18T09:56:10.0000000+00:00</time></trkpt><trkpt lat="64.13760376" lon="-21.93462181"><ele>13.0</ele><time>2012-07-18T09:56:15.0000000+00:00</time></trkpt><trkpt lat="64.13759613" lon="-21.93462181"><ele>12.6</ele><time>2012-07-18T09:56:20.0000000+00:00</time></trkpt><trkpt lat="64.13759613" lon="-21.93462181"><ele>12.3</ele><time>2012-07-18T09:56:25.0000000+00:00</time></trkpt><trkpt lat="64.13760376" lon="-21.9346199"><ele>11.9</ele><time>2012-07-18T09:56:30.0000000+00:00</time></trkpt><trkpt lat="64.13760376" lon="-21.93461609"><ele>11.5</ele><time>2012-07-18T09:56:35.0000000+00:00</time></trkpt><trkpt lat="64.13761139" lon="-21.934618"><ele>11.1</ele><time>2012-07-18T09:56:40.0000000+00:00</time></trkpt><trkpt lat="64.13761902" lon="-21.93462753"><ele>10.8</ele><time>2012-07-18T09:56:45.0000000+00:00</time></trkpt><trkpt lat="64.13761902" lon="-21.93464661"><ele>10.4</ele><time>2012-07-18T09:56:50.0000000+00:00</time></trkpt><trkpt lat="64.13762665" lon="-21.9346695"><ele>10.0</ele><time>2012-07-18T09:56:55.0000000+00:00</time></trkpt><trkpt lat="64.13765717" lon="-21.93465614"><ele>9.3</ele><time>2012-07-18T09:57:00.0000000+00:00</time></trkpt><trkpt lat="64.13768768" lon="-21.93463516"><ele>8.5</ele><time>2012-07-18T09:57:05.0000000+00:00</time></trkpt><trkpt lat="64.13771057" lon="-21.93464851"><ele>8.0</ele><time>2012-07-18T09:57:10.0000000+00:00</time></trkpt><trkpt lat="64.13771057" lon="-21.93465042"><ele>6.8</ele><time>2012-07-18T09:57:15.0000000+00:00</time></trkpt><trkpt lat="64.1377182" lon="-21.93464088"><ele>6.2</ele><time>2012-07-18T09:57:20.0000000+00:00</time></trkpt><trkpt lat="64.13774872" lon="-21.93453026"><ele>5.6</ele><time>2012-07-18T09:57:25.0000000+00:00</time></trkpt><trkpt lat="64.13777161" lon="-21.93448067"><ele>4.8</ele><time>2012-07-18T09:57:30.0000000+00:00</time></trkpt><trkpt lat="64.13777161" lon="-21.93447495"><ele>3.9</ele><time>2012-07-18T09:57:35.0000000+00:00</time></trkpt><trkpt lat="64.13777161" lon="-21.93446541"><ele>3.3</ele><time>2012-07-18T09:57:40.0000000+00:00</time></trkpt><trkpt lat="64.13776398" lon="-21.93445778"><ele>2.7</ele><time>2012-07-18T09:57:45.0000000+00:00</time></trkpt><trkpt lat="64.13774872" lon="-21.93445587"><ele>2.2</ele><time>2012-07-18T09:57:50.0000000+00:00</time></trkpt><trkpt lat="64.13772583" lon="-21.93449783"><ele>1.2</ele><time>2012-07-18T09:57:55.0000000+00:00</time></trkpt><trkpt lat="64.13768768" lon="-21.93456078"><ele>0.8</ele><time>2012-07-18T09:58:00.0000000+00:00</time></trkpt><trkpt lat="64.1376648" lon="-21.93456078"><ele>0.6</ele><time>2012-07-18T09:58:05.0000000+00:00</time></trkpt><trkpt lat="64.13762665" lon="-21.93460083"><ele>-0.0</ele><time>2012-07-18T09:58:10.0000000+00:00</time></trkpt><trkpt lat="64.13759613" lon="-21.93462372"><ele>-1.1</ele><time>2012-07-18T09:58:15.0000000+00:00</time></trkpt><trkpt lat="64.13759613" lon="-21.93460274"><ele>-1.8</ele><time>2012-07-18T09:58:20.0000000+00:00</time></trkpt><trkpt lat="64.13757324" lon="-21.93460274"><ele>-2.7</ele><time>2012-07-18T09:58:25.0000000+00:00</time></trkpt><trkpt lat="64.13758087" lon="-21.93461227"><ele>-3.0</ele><time>2012-07-18T09:58:30.0000000+00:00</time></trkpt><trkpt lat="64.13756561" lon="-21.93465996"><ele>-3.5</ele><time>2012-07-18T09:58:35.0000000+00:00</time></trkpt><trkpt lat="64.13755035" lon="-21.93463135"><ele>-3.7</ele><time>2012-07-18T09:58:40.0000000+00:00</time></trkpt><trkpt lat="64.1375351" lon="-21.93464851"><ele>-4.3</ele><time>2012-07-18T09:58:45.0000000+00:00</time></trkpt><trkpt lat="64.13754273" lon="-21.93463707"><ele>-4.6</ele><time>2012-07-18T09:58:50.0000000+00:00</time></trkpt><trkpt lat="64.1375351" lon="-21.93464851"><ele>-5.2</ele><time>2012-07-18T09:58:55.0000000+00:00</time></trkpt><trkpt lat="64.1375351" lon="-21.93464851"><ele>-5.9</ele><time>2012-07-18T09:59:00.0000000+00:00</time></trkpt><trkpt lat="64.13752747" lon="-21.9346447"><ele>-6.5</ele><time>2012-07-18T09:59:05.0000000+00:00</time></trkpt><trkpt lat="64.13751984" lon="-21.93464661"><ele>-7.2</ele><time>2012-07-18T09:59:10.0000000+00:00</time></trkpt><trkpt lat="64.13751221" lon="-21.93465424"><ele>-7.8</ele><time>2012-07-18T09:59:15.0000000+00:00</time></trkpt><trkpt lat="64.13749695" lon="-21.93465614"><ele>-8.4</ele><time>2012-07-18T09:59:20.0000000+00:00</time></trkpt><trkpt lat="64.13752747" lon="-21.93461609"><ele>-7.9</ele><time>2012-07-18T09:59:25.0000000+00:00</time></trkpt><trkpt lat="64.13752747" lon="-21.93461418"><ele>-7.9</ele><time>2012-07-18T09:59:30.0000000+00:00</time></trkpt><trkpt lat="64.13752747" lon="-21.93461227"><ele>-8.5</ele><time>2012-07-18T09:59:35.0000000+00:00</time></trkpt><trkpt lat="64.1375351" lon="-21.93461227"><ele>-9.1</ele><time>2012-07-18T09:59:40.0000000+00:00</time></trkpt><trkpt lat="64.1375351" lon="-21.93461227"><ele>-9.7</ele><time>2012-07-18T09:59:45.0000000+00:00</time></trkpt><trkpt lat="64.1375351" lon="-21.93460846"><ele>-10.2</ele><time>2012-07-18T09:59:50.0000000+00:00</time></trkpt><trkpt lat="64.1375351" lon="-21.93460655"><ele>-10.7</ele><time>2012-07-18T09:59:55.0000000+00:00</time></trkpt><trkpt lat="64.13754273" lon="-21.93460846"><ele>-11.2</ele><time>2012-07-18T10:00:00.0000000+00:00</time></trkpt><trkpt lat="64.13754273" lon="-21.93461227"><ele>-11.7</ele><time>2012-07-18T10:00:05.0000000+00:00</time></trkpt><trkpt lat="64.13754273" lon="-21.93460274"><ele>-12.1</ele><time>2012-07-18T10:00:10.0000000+00:00</time></trkpt><trkpt lat="64.13751221" lon="-21.93457604"><ele>-12.8</ele><time>2012-07-18T10:00:15.0000000+00:00</time></trkpt><trkpt lat="64.13748932" lon="-21.93458748"><ele>-15.8</ele><time>2012-07-18T10:00:20.0000000+00:00</time></trkpt><trkpt lat="64.13751984" lon="-21.93460274"><ele>-12.8</ele><time>2012-07-18T10:00:25.0000000+00:00</time></trkpt><trkpt lat="64.13755035" lon="-21.93463135"><ele>-12.7</ele><time>2012-07-18T10:00:30.0000000+00:00</time></trkpt><trkpt lat="64.13761139" lon="-21.93477821"><ele>-13.8</ele><time>2012-07-18T10:00:35.0000000+00:00</time></trkpt><trkpt lat="64.1377182" lon="-21.93500137"><ele>-13.8</ele><time>2012-07-18T10:00:40.0000000+00:00</time></trkpt><trkpt lat="64.13786316" lon="-21.93511581"><ele>-10.9</ele><time>2012-07-18T10:00:45.0000000+00:00</time></trkpt><trkpt lat="64.13800812" lon="-21.93528366"><ele>-7.0</ele><time>2012-07-18T10:00:50.0000000+00:00</time></trkpt><trkpt lat="64.13809204" lon="-21.93564987"><ele>-4.6</ele><time>2012-07-18T10:00:55.0000000+00:00</time></trkpt><trkpt lat="64.13817596" lon="-21.93605423"><ele>-4.3</ele><time>2012-07-18T10:01:00.0000000+00:00</time></trkpt><trkpt lat="64.13825989" lon="-21.9364872"><ele>-4.8</ele><time>2012-07-18T10:01:05.0000000+00:00</time></trkpt><trkpt lat="64.13842011" lon="-21.93662262"><ele>-6.5</ele><time>2012-07-18T10:01:10.0000000+00:00</time></trkpt><trkpt lat="64.13853455" lon="-21.9364872"><ele>-5.2</ele><time>2012-07-18T10:01:15.0000000+00:00</time></trkpt><trkpt lat="64.13861084" lon="-21.9364357"><ele>-4.9</ele><time>2012-07-18T10:01:20.0000000+00:00</time></trkpt><trkpt lat="64.13865662" lon="-21.93643189"><ele>-4.2</ele><time>2012-07-18T10:01:25.0000000+00:00</time></trkpt><trkpt lat="64.13864899" lon="-21.93643951"><ele>-4.4</ele><time>2012-07-18T10:01:30.0000000+00:00</time></trkpt><trkpt lat="64.13866425" lon="-21.93645287"><ele>-3.7</ele><time>2012-07-18T10:01:35.0000000+00:00</time></trkpt><trkpt lat="64.13870239" lon="-21.93654823"><ele>-2.3</ele><time>2012-07-18T10:01:40.0000000+00:00</time></trkpt><trkpt lat="64.13872528" lon="-21.93665123"><ele>-0.4</ele><time>2012-07-18T10:01:45.0000000+00:00</time></trkpt><trkpt lat="64.13877869" lon="-21.93679237"><ele>0.3</ele><time>2012-07-18T10:01:50.0000000+00:00</time></trkpt><trkpt lat="64.13878632" lon="-21.93679047"><ele>0.8</ele><time>2012-07-18T10:01:55.0000000+00:00</time></trkpt><trkpt lat="64.13878632" lon="-21.93679047"><ele>0.8</ele><time>2012-07-18T10:02:00.0000000+00:00</time></trkpt><trkpt lat="64.13878632" lon="-21.93679047"><ele>0.8</ele><time>2012-07-18T10:02:05.0000000+00:00</time></trkpt><trkpt lat="64.13878632" lon="-21.93679047"><ele>0.8</ele><time>2012-07-18T10:02:10.0000000+00:00</time></trkpt><trkpt lat="64.13878632" lon="-21.93679047"><ele>0.8</ele><time>2012-07-18T10:02:15.0000000+00:00</time></trkpt><trkpt lat="64.13878632" lon="-21.93679047"><ele>0.8</ele><time>2012-07-18T10:02:20.0000000+00:00</time></trkpt><trkpt lat="64.13878632" lon="-21.93679047"><ele>0.8</ele><time>2012-07-18T10:02:25.0000000+00:00</time></trkpt><trkpt lat="64.13878632" lon="-21.93679047"><ele>0.8</ele><time>2012-07-18T10:02:30.0000000+00:00</time></trkpt><trkpt lat="64.13878632" lon="-21.93679619"><ele>0.8</ele><time>2012-07-18T10:02:35.0000000+00:00</time></trkpt><trkpt lat="64.13878632" lon="-21.9368"><ele>0.6</ele><time>2012-07-18T10:02:40.0000000+00:00</time></trkpt><trkpt lat="64.13878632" lon="-21.93680191"><ele>0.6</ele><time>2012-07-18T10:02:45.0000000+00:00</time></trkpt><trkpt lat="64.13880158" lon="-21.9368763"><ele>1.4</ele><time>2012-07-18T10:02:50.0000000+00:00</time></trkpt><trkpt lat="64.13886261" lon="-21.93716431"><ele>3.6</ele><time>2012-07-18T10:02:55.0000000+00:00</time></trkpt><trkpt lat="64.13890076" lon="-21.93746948"><ele>4.9</ele><time>2012-07-18T10:03:00.0000000+00:00</time></trkpt><trkpt lat="64.1389389" lon="-21.93772507"><ele>5.3</ele><time>2012-07-18T10:03:05.0000000+00:00</time></trkpt><trkpt lat="64.13897705" lon="-21.93794632"><ele>6.3</ele><time>2012-07-18T10:03:10.0000000+00:00</time></trkpt><trkpt lat="64.1390152" lon="-21.9382019"><ele>7.5</ele><time>2012-07-18T10:03:15.0000000+00:00</time></trkpt><trkpt lat="64.13904572" lon="-21.93845558"><ele>8.7</ele><time>2012-07-18T10:03:20.0000000+00:00</time></trkpt><trkpt lat="64.13908386" lon="-21.93870354"><ele>9.7</ele><time>2012-07-18T10:03:25.0000000+00:00</time></trkpt><trkpt lat="64.13910675" lon="-21.93897438"><ele>9.8</ele><time>2012-07-18T10:03:30.0000000+00:00</time></trkpt><trkpt lat="64.13913727" lon="-21.93933678"><ele>10.0</ele><time>2012-07-18T10:03:35.0000000+00:00</time></trkpt><trkpt lat="64.13917542" lon="-21.93973732"><ele>10.1</ele><time>2012-07-18T10:03:40.0000000+00:00</time></trkpt><trkpt lat="64.1392746" lon="-21.94000053"><ele>10.0</ele><time>2012-07-18T10:03:45.0000000+00:00</time></trkpt><trkpt lat="64.13943481" lon="-21.9403038"><ele>9.1</ele><time>2012-07-18T10:03:50.0000000+00:00</time></trkpt><trkpt lat="64.13960266" lon="-21.94070053"><ele>7.3</ele><time>2012-07-18T10:03:55.0000000+00:00</time></trkpt><trkpt lat="64.13983917" lon="-21.9411068"><ele>5.4</ele><time>2012-07-18T10:04:00.0000000+00:00</time></trkpt><trkpt lat="64.14012909" lon="-21.9414978"><ele>4.2</ele><time>2012-07-18T10:04:05.0000000+00:00</time></trkpt><trkpt lat="64.1404419" lon="-21.94176102"><ele>3.6</ele><time>2012-07-18T10:04:10.0000000+00:00</time></trkpt><trkpt lat="64.14072418" lon="-21.94184876"><ele>4.0</ele><time>2012-07-18T10:04:15.0000000+00:00</time></trkpt><trkpt lat="64.14096069" lon="-21.94172287"><ele>4.1</ele><time>2012-07-18T10:04:20.0000000+00:00</time></trkpt><trkpt lat="64.14118958" lon="-21.94154739"><ele>4.5</ele><time>2012-07-18T10:04:25.0000000+00:00</time></trkpt><trkpt lat="64.14139557" lon="-21.94131851"><ele>4.8</ele><time>2012-07-18T10:04:30.0000000+00:00</time></trkpt><trkpt lat="64.14160156" lon="-21.94113159"><ele>5.3</ele><time>2012-07-18T10:04:35.0000000+00:00</time></trkpt><trkpt lat="64.1417923" lon="-21.94094086"><ele>6.1</ele><time>2012-07-18T10:04:40.0000000+00:00</time></trkpt><trkpt lat="64.14196014" lon="-21.94082642"><ele>7.2</ele><time>2012-07-18T10:04:45.0000000+00:00</time></trkpt><trkpt lat="64.1420517" lon="-21.94078255"><ele>7.1</ele><time>2012-07-18T10:04:50.0000000+00:00</time></trkpt><trkpt lat="64.1420517" lon="-21.9407692"><ele>7.0</ele><time>2012-07-18T10:04:55.0000000+00:00</time></trkpt><trkpt lat="64.1420517" lon="-21.9407692"><ele>6.9</ele><time>2012-07-18T10:05:00.0000000+00:00</time></trkpt><trkpt lat="64.1420517" lon="-21.94076729"><ele>6.9</ele><time>2012-07-18T10:05:05.0000000+00:00</time></trkpt><trkpt lat="64.1420517" lon="-21.94076729"><ele>6.9</ele><time>2012-07-18T10:05:10.0000000+00:00</time></trkpt><trkpt lat="64.14205933" lon="-21.94076729"><ele>6.7</ele><time>2012-07-18T10:05:15.0000000+00:00</time></trkpt><trkpt lat="64.14205933" lon="-21.94076538"><ele>6.6</ele><time>2012-07-18T10:05:20.0000000+00:00</time></trkpt><trkpt lat="64.14208221" lon="-21.94076538"><ele>6.5</ele><time>2012-07-18T10:05:25.0000000+00:00</time></trkpt><trkpt lat="64.14217377" lon="-21.94075775"><ele>7.0</ele><time>2012-07-18T10:05:30.0000000+00:00</time></trkpt><trkpt lat="64.14231873" lon="-21.94073677"><ele>7.2</ele><time>2012-07-18T10:05:35.0000000+00:00</time></trkpt><trkpt lat="64.14247894" lon="-21.94067574"><ele>6.8</ele><time>2012-07-18T10:05:40.0000000+00:00</time></trkpt><trkpt lat="64.14260864" lon="-21.9405632"><ele>4.8</ele><time>2012-07-18T10:05:45.0000000+00:00</time></trkpt><trkpt lat="64.14274597" lon="-21.94050598"><ele>3.8</ele><time>2012-07-18T10:05:50.0000000+00:00</time></trkpt><trkpt lat="64.1428299" lon="-21.94046974"><ele>4.1</ele><time>2012-07-18T10:05:55.0000000+00:00</time></trkpt><trkpt lat="64.14292908" lon="-21.94045258"><ele>4.3</ele><time>2012-07-18T10:06:00.0000000+00:00</time></trkpt><trkpt lat="64.14302063" lon="-21.94040871"><ele>4.4</ele><time>2012-07-18T10:06:05.0000000+00:00</time></trkpt><trkpt lat="64.14315796" lon="-21.94035912"><ele>4.8</ele><time>2012-07-18T10:06:10.0000000+00:00</time></trkpt><trkpt lat="64.14329529" lon="-21.9403019"><ele>5.0</ele><time>2012-07-18T10:06:15.0000000+00:00</time></trkpt><trkpt lat="64.14344788" lon="-21.94023895"><ele>5.8</ele><time>2012-07-18T10:06:20.0000000+00:00</time></trkpt><trkpt lat="64.14360809" lon="-21.94015694"><ele>6.5</ele><time>2012-07-18T10:06:25.0000000+00:00</time></trkpt><trkpt lat="64.14378357" lon="-21.94008637"><ele>6.8</ele><time>2012-07-18T10:06:30.0000000+00:00</time></trkpt><trkpt lat="64.14393616" lon="-21.94000816"><ele>7.6</ele><time>2012-07-18T10:06:35.0000000+00:00</time></trkpt><trkpt lat="64.14407349" lon="-21.9399395"><ele>8.0</ele><time>2012-07-18T10:06:40.0000000+00:00</time></trkpt><trkpt lat="64.14422607" lon="-21.93988419"><ele>8.2</ele><time>2012-07-18T10:06:45.0000000+00:00</time></trkpt><trkpt lat="64.14439392" lon="-21.9398098"><ele>8.9</ele><time>2012-07-18T10:06:50.0000000+00:00</time></trkpt><trkpt lat="64.14456177" lon="-21.93973732"><ele>10.2</ele><time>2012-07-18T10:06:55.0000000+00:00</time></trkpt><trkpt lat="64.14472961" lon="-21.93967056"><ele>11.4</ele><time>2012-07-18T10:07:00.0000000+00:00</time></trkpt><trkpt lat="64.14487457" lon="-21.93960381"><ele>11.7</ele><time>2012-07-18T10:07:05.0000000+00:00</time></trkpt><trkpt lat="64.14499664" lon="-21.93955231"><ele>11.6</ele><time>2012-07-18T10:07:10.0000000+00:00</time></trkpt><trkpt lat="64.14513397" lon="-21.93948746"><ele>12.0</ele><time>2012-07-18T10:07:15.0000000+00:00</time></trkpt><trkpt lat="64.14527893" lon="-21.9394474"><ele>12.3</ele><time>2012-07-18T10:07:20.0000000+00:00</time></trkpt><trkpt lat="64.14539337" lon="-21.93947029"><ele>11.8</ele><time>2012-07-18T10:07:25.0000000+00:00</time></trkpt><trkpt lat="64.14546967" lon="-21.93942261"><ele>12.9</ele><time>2012-07-18T10:07:30.0000000+00:00</time></trkpt><trkpt lat="64.14546204" lon="-21.93943214"><ele>13.0</ele><time>2012-07-18T10:07:35.0000000+00:00</time></trkpt><trkpt lat="64.14546204" lon="-21.93943214"><ele>13.1</ele><time>2012-07-18T10:07:40.0000000+00:00</time></trkpt><trkpt lat="64.14546204" lon="-21.93943214"><ele>13.1</ele><time>2012-07-18T10:07:45.0000000+00:00</time></trkpt><trkpt lat="64.14546204" lon="-21.93943214"><ele>13.2</ele><time>2012-07-18T10:07:50.0000000+00:00</time></trkpt><trkpt lat="64.14546204" lon="-21.93943214"><ele>13.2</ele><time>2012-07-18T10:07:55.0000000+00:00</time></trkpt><trkpt lat="64.14546204" lon="-21.93943214"><ele>13.2</ele><time>2012-07-18T10:08:00.0000000+00:00</time></trkpt><trkpt lat="64.14546204" lon="-21.93943214"><ele>13.2</ele><time>2012-07-18T10:08:05.0000000+00:00</time></trkpt><trkpt lat="64.14546204" lon="-21.93943214"><ele>13.2</ele><time>2012-07-18T10:08:10.0000000+00:00</time></trkpt><trkpt lat="64.14546204" lon="-21.93943214"><ele>13.1</ele><time>2012-07-18T10:08:15.0000000+00:00</time></trkpt><trkpt lat="64.14546204" lon="-21.93943214"><ele>13.1</ele><time>2012-07-18T10:08:20.0000000+00:00</time></trkpt><trkpt lat="64.14546204" lon="-21.93943214"><ele>13.1</ele><time>2012-07-18T10:08:25.0000000+00:00</time></trkpt><trkpt lat="64.14546204" lon="-21.93943214"><ele>13.1</ele><time>2012-07-18T10:08:30.0000000+00:00</time></trkpt><trkpt lat="64.14546967" lon="-21.93943024"><ele>12.9</ele><time>2012-07-18T10:08:35.0000000+00:00</time></trkpt><trkpt lat="64.14546967" lon="-21.93943024"><ele>12.9</ele><time>2012-07-18T10:08:40.0000000+00:00</time></trkpt><trkpt lat="64.14546967" lon="-21.93943024"><ele>12.9</ele><time>2012-07-18T10:08:45.0000000+00:00</time></trkpt><trkpt lat="64.14546967" lon="-21.93943024"><ele>12.9</ele><time>2012-07-18T10:08:50.0000000+00:00</time></trkpt><trkpt lat="64.1454773" lon="-21.93942833"><ele>13.0</ele><time>2012-07-18T10:08:55.0000000+00:00</time></trkpt><trkpt lat="64.14551544" lon="-21.93940544"><ele>13.1</ele><time>2012-07-18T10:09:00.0000000+00:00</time></trkpt><trkpt lat="64.14557648" lon="-21.93927193"><ele>11.0</ele><time>2012-07-18T10:09:05.0000000+00:00</time></trkpt><trkpt lat="64.14566803" lon="-21.93912506"><ele>9.2</ele><time>2012-07-18T10:09:10.0000000+00:00</time></trkpt><trkpt lat="64.14575958" lon="-21.93893814"><ele>8.4</ele><time>2012-07-18T10:09:15.0000000+00:00</time></trkpt><trkpt lat="64.14585114" lon="-21.93878365"><ele>9.3</ele><time>2012-07-18T10:09:20.0000000+00:00</time></trkpt><trkpt lat="64.14594269" lon="-21.93866348"><ele>9.5</ele><time>2012-07-18T10:09:25.0000000+00:00</time></trkpt><trkpt lat="64.14604187" lon="-21.93848419"><ele>8.7</ele><time>2012-07-18T10:09:30.0000000+00:00</time></trkpt><trkpt lat="64.14614868" lon="-21.93831825"><ele>9.3</ele><time>2012-07-18T10:09:35.0000000+00:00</time></trkpt><trkpt lat="64.14625549" lon="-21.93816567"><ele>8.4</ele><time>2012-07-18T10:09:40.0000000+00:00</time></trkpt><trkpt lat="64.14633179" lon="-21.93805313"><ele>7.1</ele><time>2012-07-18T10:09:45.0000000+00:00</time></trkpt><trkpt lat="64.14642334" lon="-21.93788528"><ele>6.0</ele><time>2012-07-18T10:09:50.0000000+00:00</time></trkpt><trkpt lat="64.14653778" lon="-21.93768311"><ele>5.4</ele><time>2012-07-18T10:09:55.0000000+00:00</time></trkpt><trkpt lat="64.14665985" lon="-21.93748665"><ele>5.4</ele><time>2012-07-18T10:10:00.0000000+00:00</time></trkpt><trkpt lat="64.14674377" lon="-21.93730354"><ele>2.2</ele><time>2012-07-18T10:10:05.0000000+00:00</time></trkpt><trkpt lat="64.14683533" lon="-21.93718529"><ele>1.9</ele><time>2012-07-18T10:10:10.0000000+00:00</time></trkpt><trkpt lat="64.14693451" lon="-21.93703079"><ele>1.5</ele><time>2012-07-18T10:10:15.0000000+00:00</time></trkpt><trkpt lat="64.14704132" lon="-21.93683624"><ele>2.9</ele><time>2012-07-18T10:10:20.0000000+00:00</time></trkpt><trkpt lat="64.14714813" lon="-21.93667221"><ele>3.3</ele><time>2012-07-18T10:10:25.0000000+00:00</time></trkpt><trkpt lat="64.14722443" lon="-21.93651009"><ele>4.4</ele><time>2012-07-18T10:10:30.0000000+00:00</time></trkpt><trkpt lat="64.14730072" lon="-21.93645668"><ele>4.5</ele><time>2012-07-18T10:10:35.0000000+00:00</time></trkpt><trkpt lat="64.14735413" lon="-21.93635368"><ele>5.0</ele><time>2012-07-18T10:10:40.0000000+00:00</time></trkpt><trkpt lat="64.14743042" lon="-21.93621826"><ele>5.0</ele><time>2012-07-18T10:10:45.0000000+00:00</time></trkpt><trkpt lat="64.14749908" lon="-21.93606758"><ele>4.7</ele><time>2012-07-18T10:10:50.0000000+00:00</time></trkpt><trkpt lat="64.14759064" lon="-21.93600464"><ele>4.6</ele><time>2012-07-18T10:10:55.0000000+00:00</time></trkpt><trkpt lat="64.1476593" lon="-21.9359417"><ele>5.3</ele><time>2012-07-18T10:11:00.0000000+00:00</time></trkpt><trkpt lat="64.14772797" lon="-21.93590164"><ele>5.9</ele><time>2012-07-18T10:11:05.0000000+00:00</time></trkpt><trkpt lat="64.14772034" lon="-21.9358139"><ele>6.5</ele><time>2012-07-18T10:11:10.0000000+00:00</time></trkpt><trkpt lat="64.14772034" lon="-21.93580055"><ele>6.6</ele><time>2012-07-18T10:11:15.0000000+00:00</time></trkpt><trkpt lat="64.14772034" lon="-21.93580055"><ele>6.6</ele><time>2012-07-18T10:11:20.0000000+00:00</time></trkpt><trkpt lat="64.14772034" lon="-21.93580055"><ele>6.6</ele><time>2012-07-18T10:11:25.0000000+00:00</time></trkpt><trkpt lat="64.14772034" lon="-21.93578911"><ele>6.6</ele><time>2012-07-18T10:11:30.0000000+00:00</time></trkpt><trkpt lat="64.14777374" lon="-21.93576622"><ele>6.8</ele><time>2012-07-18T10:11:35.0000000+00:00</time></trkpt><trkpt lat="64.14781189" lon="-21.93581581"><ele>5.3</ele><time>2012-07-18T10:11:40.0000000+00:00</time></trkpt><trkpt lat="64.14781189" lon="-21.93583107"><ele>5.1</ele><time>2012-07-18T10:11:45.0000000+00:00</time></trkpt><trkpt lat="64.14781189" lon="-21.93583107"><ele>5.1</ele><time>2012-07-18T10:11:50.0000000+00:00</time></trkpt><trkpt lat="64.14781189" lon="-21.93583298"><ele>5.2</ele><time>2012-07-18T10:11:55.0000000+00:00</time></trkpt><trkpt lat="64.14781189" lon="-21.93583298"><ele>5.1</ele><time>2012-07-18T10:12:00.0000000+00:00</time></trkpt><trkpt lat="64.14781189" lon="-21.93583298"><ele>5.1</ele><time>2012-07-18T10:12:05.0000000+00:00</time></trkpt><trkpt lat="64.14781189" lon="-21.93583489"><ele>5.1</ele><time>2012-07-18T10:12:10.0000000+00:00</time></trkpt><trkpt lat="64.14781189" lon="-21.93583489"><ele>5.1</ele><time>2012-07-18T10:12:15.0000000+00:00</time></trkpt><trkpt lat="64.14781189" lon="-21.93589211"><ele>5.3</ele><time>2012-07-18T10:12:20.0000000+00:00</time></trkpt><trkpt lat="64.14781189" lon="-21.9358902"><ele>5.2</ele><time>2012-07-18T10:12:25.0000000+00:00</time></trkpt><trkpt lat="64.14781189" lon="-21.93589973"><ele>5.2</ele><time>2012-07-18T10:12:30.0000000+00:00</time></trkpt><trkpt lat="64.147789" lon="-21.93592453"><ele>4.8</ele><time>2012-07-18T10:12:35.0000000+00:00</time></trkpt><trkpt lat="64.14772797" lon="-21.93595314"><ele>4.6</ele><time>2012-07-18T10:12:40.0000000+00:00</time></trkpt><trkpt lat="64.14768982" lon="-21.93601036"><ele>4.3</ele><time>2012-07-18T10:12:45.0000000+00:00</time></trkpt><trkpt lat="64.14768982" lon="-21.93601608"><ele>4.0</ele><time>2012-07-18T10:12:50.0000000+00:00</time></trkpt><trkpt lat="64.14768219" lon="-21.93597221"><ele>3.8</ele><time>2012-07-18T10:12:55.0000000+00:00</time></trkpt><trkpt lat="64.14775085" lon="-21.93588638"><ele>4.0</ele><time>2012-07-18T10:13:00.0000000+00:00</time></trkpt><trkpt lat="64.14782715" lon="-21.93585396"><ele>3.9</ele><time>2012-07-18T10:13:05.0000000+00:00</time></trkpt><trkpt lat="64.14788818" lon="-21.93606949"><ele>1.9</ele><time>2012-07-18T10:13:10.0000000+00:00</time></trkpt><trkpt lat="64.14794922" lon="-21.9362793"><ele>1.1</ele><time>2012-07-18T10:13:15.0000000+00:00</time></trkpt><trkpt lat="64.14795685" lon="-21.93652153"><ele>2.8</ele><time>2012-07-18T10:13:20.0000000+00:00</time></trkpt><trkpt lat="64.14794922" lon="-21.93666077"><ele>3.8</ele><time>2012-07-18T10:13:25.0000000+00:00</time></trkpt><trkpt lat="64.147995" lon="-21.93661308"><ele>5.4</ele><time>2012-07-18T10:13:30.0000000+00:00</time></trkpt><trkpt lat="64.14805603" lon="-21.93675041"><ele>5.6</ele><time>2012-07-18T10:13:35.0000000+00:00</time></trkpt><trkpt lat="64.1480484" lon="-21.93672562"><ele>4.9</ele><time>2012-07-18T10:13:40.0000000+00:00</time></trkpt><trkpt lat="64.14805603" lon="-21.93672943"><ele>5.1</ele><time>2012-07-18T10:13:45.0000000+00:00</time></trkpt><trkpt lat="64.14805603" lon="-21.93673134"><ele>5.1</ele><time>2012-07-18T10:13:50.0000000+00:00</time></trkpt><trkpt lat="64.14807892" lon="-21.93678284"><ele>4.6</ele><time>2012-07-18T10:13:55.0000000+00:00</time></trkpt><trkpt lat="64.14811707" lon="-21.93697739"><ele>2.6</ele><time>2012-07-18T10:14:00.0000000+00:00</time></trkpt><trkpt lat="64.1481781" lon="-21.93722343"><ele>1.1</ele><time>2012-07-18T10:14:05.0000000+00:00</time></trkpt><trkpt lat="64.14824677" lon="-21.93753433"><ele>5.1</ele><time>2012-07-18T10:14:10.0000000+00:00</time></trkpt><trkpt lat="64.14826965" lon="-21.93780136"><ele>4.3</ele><time>2012-07-18T10:14:15.0000000+00:00</time></trkpt><trkpt lat="64.14824677" lon="-21.93800736"><ele>4.4</ele><time>2012-07-18T10:14:20.0000000+00:00</time></trkpt><trkpt lat="64.14822388" lon="-21.93805313"><ele>3.7</ele><time>2012-07-18T10:14:25.0000000+00:00</time></trkpt><trkpt lat="64.14821625" lon="-21.93817711"><ele>3.3</ele><time>2012-07-18T10:14:30.0000000+00:00</time></trkpt><trkpt lat="64.14826202" lon="-21.93827438"><ele>3.2</ele><time>2012-07-18T10:14:35.0000000+00:00</time></trkpt><trkpt lat="64.14829254" lon="-21.9383831"><ele>3.3</ele><time>2012-07-18T10:14:40.0000000+00:00</time></trkpt><trkpt lat="64.14830017" lon="-21.93838692"><ele>3.6</ele><time>2012-07-18T10:14:45.0000000+00:00</time></trkpt><trkpt lat="64.14831543" lon="-21.93839264"><ele>3.7</ele><time>2012-07-18T10:14:50.0000000+00:00</time></trkpt><trkpt lat="64.14831543" lon="-21.93839073"><ele>4.0</ele><time>2012-07-18T10:14:55.0000000+00:00</time></trkpt><trkpt lat="64.14831543" lon="-21.93838882"><ele>4.4</ele><time>2012-07-18T10:15:00.0000000+00:00</time></trkpt><trkpt lat="64.14832306" lon="-21.93838882"><ele>4.8</ele><time>2012-07-18T10:15:05.0000000+00:00</time></trkpt><trkpt lat="64.14832306" lon="-21.93838692"><ele>5.3</ele><time>2012-07-18T10:15:10.0000000+00:00</time></trkpt><trkpt lat="64.14832306" lon="-21.9383831"><ele>5.8</ele><time>2012-07-18T10:15:15.0000000+00:00</time></trkpt><trkpt lat="64.14833069" lon="-21.93837738"><ele>6.6</ele><time>2012-07-18T10:15:20.0000000+00:00</time></trkpt><trkpt lat="64.14832306" lon="-21.93837547"><ele>7.5</ele><time>2012-07-18T10:15:25.0000000+00:00</time></trkpt><trkpt lat="64.14832306" lon="-21.93835068"><ele>9.5</ele><time>2012-07-18T10:15:30.0000000+00:00</time></trkpt><trkpt lat="64.14836121" lon="-21.93820953"><ele>16.3</ele><time>2012-07-18T10:15:35.0000000+00:00</time></trkpt><trkpt lat="64.14829254" lon="-21.93791771"><ele>16.5</ele><time>2012-07-18T10:15:40.0000000+00:00</time></trkpt><trkpt lat="64.1481781" lon="-21.93791771"><ele>14.9</ele><time>2012-07-18T10:15:45.0000000+00:00</time></trkpt><trkpt lat="64.14810181" lon="-21.93795776"><ele>13.2</ele><time>2012-07-18T10:15:50.0000000+00:00</time></trkpt><trkpt lat="64.14807129" lon="-21.93800926"><ele>12.9</ele><time>2012-07-18T10:15:55.0000000+00:00</time></trkpt><trkpt lat="64.14808655" lon="-21.93802834"><ele>13.0</ele><time>2012-07-18T10:16:00.0000000+00:00</time></trkpt><trkpt lat="64.14808655" lon="-21.93802834"><ele>13.0</ele><time>2012-07-18T10:16:05.0000000+00:00</time></trkpt><trkpt lat="64.14808655" lon="-21.93802834"><ele>12.9</ele><time>2012-07-18T10:16:10.0000000+00:00</time></trkpt><trkpt lat="64.14808655" lon="-21.93802834"><ele>12.9</ele><time>2012-07-18T10:16:15.0000000+00:00</time></trkpt><trkpt lat="64.14807129" lon="-21.93807793"><ele>11.1</ele><time>2012-07-18T10:16:20.0000000+00:00</time></trkpt><trkpt lat="64.14807129" lon="-21.93807983"><ele>11.1</ele><time>2012-07-18T10:16:25.0000000+00:00</time></trkpt><trkpt lat="64.14807129" lon="-21.93807983"><ele>11.0</ele><time>2012-07-18T10:16:30.0000000+00:00</time></trkpt><trkpt lat="64.14807129" lon="-21.93808174"><ele>11.0</ele><time>2012-07-18T10:16:35.0000000+00:00</time></trkpt><trkpt lat="64.14807129" lon="-21.93808174"><ele>11.0</ele><time>2012-07-18T10:16:40.0000000+00:00</time></trkpt><trkpt lat="64.14807129" lon="-21.93808174"><ele>10.9</ele><time>2012-07-18T10:16:45.0000000+00:00</time></trkpt><trkpt lat="64.14807129" lon="-21.93808365"><ele>10.9</ele><time>2012-07-18T10:16:50.0000000+00:00</time></trkpt><trkpt lat="64.14807129" lon="-21.93808365"><ele>10.9</ele><time>2012-07-18T10:16:55.0000000+00:00</time></trkpt><trkpt lat="64.14807129" lon="-21.93808365"><ele>10.9</ele><time>2012-07-18T10:17:00.0000000+00:00</time></trkpt><trkpt lat="64.1480484" lon="-21.9382515"><ele>9.3</ele><time>2012-07-18T10:17:05.0000000+00:00</time></trkpt><trkpt lat="64.14798737" lon="-21.93832016"><ele>10.2</ele><time>2012-07-18T10:17:10.0000000+00:00</time></trkpt><trkpt lat="64.14789581" lon="-21.93835449"><ele>11.1</ele><time>2012-07-18T10:17:15.0000000+00:00</time></trkpt><trkpt lat="64.14776611" lon="-21.93843079"><ele>11.3</ele><time>2012-07-18T10:17:20.0000000+00:00</time></trkpt><trkpt lat="64.14768219" lon="-21.9385376"><ele>9.8</ele><time>2012-07-18T10:17:25.0000000+00:00</time></trkpt><trkpt lat="64.14767456" lon="-21.93858147"><ele>8.4</ele><time>2012-07-18T10:17:30.0000000+00:00</time></trkpt><trkpt lat="64.14766693" lon="-21.93863487"><ele>8.6</ele><time>2012-07-18T10:17:35.0000000+00:00</time></trkpt><trkpt lat="64.1476593" lon="-21.93865395"><ele>8.8</ele><time>2012-07-18T10:17:40.0000000+00:00</time></trkpt><trkpt lat="64.14765167" lon="-21.93866348"><ele>8.8</ele><time>2012-07-18T10:17:45.0000000+00:00</time></trkpt><trkpt lat="64.14765167" lon="-21.93866539"><ele>8.7</ele><time>2012-07-18T10:17:50.0000000+00:00</time></trkpt><trkpt lat="64.14759064" lon="-21.93863297"><ele>9.3</ele><time>2012-07-18T10:17:55.0000000+00:00</time></trkpt><trkpt lat="64.14757538" lon="-21.93862724"><ele>10.7</ele><time>2012-07-18T10:18:00.0000000+00:00</time></trkpt><trkpt lat="64.14753723" lon="-21.93860436"><ele>12.3</ele><time>2012-07-18T10:18:05.0000000+00:00</time></trkpt><trkpt lat="64.14749908" lon="-21.93835259"><ele>14.8</ele><time>2012-07-18T10:18:10.0000000+00:00</time></trkpt><trkpt lat="64.14745331" lon="-21.93806267"><ele>14.4</ele><time>2012-07-18T10:18:15.0000000+00:00</time></trkpt><trkpt lat="64.14740753" lon="-21.9378376"><ele>14.9</ele><time>2012-07-18T10:18:20.0000000+00:00</time></trkpt><trkpt lat="64.14743042" lon="-21.93748665"><ele>14.8</ele><time>2012-07-18T10:18:25.0000000+00:00</time></trkpt><trkpt lat="64.14737701" lon="-21.93723488"><ele>16.6</ele><time>2012-07-18T10:18:30.0000000+00:00</time></trkpt><trkpt lat="64.14736939" lon="-21.93699455"><ele>16.2</ele><time>2012-07-18T10:18:35.0000000+00:00</time></trkpt><trkpt lat="64.14731598" lon="-21.936903"><ele>19.3</ele><time>2012-07-18T10:18:40.0000000+00:00</time></trkpt><trkpt lat="64.1472702" lon="-21.93681335"><ele>22.0</ele><time>2012-07-18T10:18:45.0000000+00:00</time></trkpt><trkpt lat="64.14723206" lon="-21.93675232"><ele>19.5</ele><time>2012-07-18T10:18:50.0000000+00:00</time></trkpt><trkpt lat="64.14720154" lon="-21.93671989"><ele>18.1</ele><time>2012-07-18T10:18:55.0000000+00:00</time></trkpt><trkpt lat="64.14720154" lon="-21.93672371"><ele>18.0</ele><time>2012-07-18T10:19:00.0000000+00:00</time></trkpt><trkpt lat="64.14716339" lon="-21.93683052"><ele>16.5</ele><time>2012-07-18T10:19:05.0000000+00:00</time></trkpt><trkpt lat="64.14716339" lon="-21.93683434"><ele>16.6</ele><time>2012-07-18T10:19:10.0000000+00:00</time></trkpt><trkpt lat="64.14716339" lon="-21.93683624"><ele>16.6</ele><time>2012-07-18T10:19:15.0000000+00:00</time></trkpt><trkpt lat="64.14716339" lon="-21.93683624"><ele>16.6</ele><time>2012-07-18T10:19:20.0000000+00:00</time></trkpt><trkpt lat="64.14716339" lon="-21.93683815"><ele>16.6</ele><time>2012-07-18T10:19:25.0000000+00:00</time></trkpt><trkpt lat="64.14716339" lon="-21.93683815"><ele>16.5</ele><time>2012-07-18T10:19:30.0000000+00:00</time></trkpt><trkpt lat="64.14712524" lon="-21.93672943"><ele>14.5</ele><time>2012-07-18T10:19:35.0000000+00:00</time></trkpt><trkpt lat="64.14707947" lon="-21.93653679"><ele>13.3</ele><time>2012-07-18T10:19:40.0000000+00:00</time></trkpt><trkpt lat="64.14705658" lon="-21.93637657"><ele>12.9</ele><time>2012-07-18T10:19:45.0000000+00:00</time></trkpt><trkpt lat="64.14705658" lon="-21.93626595"><ele>13.5</ele><time>2012-07-18T10:19:50.0000000+00:00</time></trkpt><trkpt lat="64.14704132" lon="-21.93612671"><ele>13.4</ele><time>2012-07-18T10:19:55.0000000+00:00</time></trkpt><trkpt lat="64.14701843" lon="-21.93597412"><ele>13.6</ele><time>2012-07-18T10:20:00.0000000+00:00</time></trkpt><trkpt lat="64.14699554" lon="-21.93582344"><ele>13.5</ele><time>2012-07-18T10:20:05.0000000+00:00</time></trkpt><trkpt lat="64.14697266" lon="-21.93566132"><ele>14.1</ele><time>2012-07-18T10:20:10.0000000+00:00</time></trkpt><trkpt lat="64.1469574" lon="-21.93548775"><ele>14.1</ele><time>2012-07-18T10:20:15.0000000+00:00</time></trkpt><trkpt lat="64.14691925" lon="-21.93531799"><ele>15.0</ele><time>2012-07-18T10:20:20.0000000+00:00</time></trkpt><trkpt lat="64.14689636" lon="-21.93512726"><ele>16.1</ele><time>2012-07-18T10:20:25.0000000+00:00</time></trkpt><trkpt lat="64.1468811" lon="-21.9349823"><ele>17.4</ele><time>2012-07-18T10:20:30.0000000+00:00</time></trkpt><trkpt lat="64.14684296" lon="-21.93488121"><ele>19.0</ele><time>2012-07-18T10:20:35.0000000+00:00</time></trkpt><trkpt lat="64.1468277" lon="-21.93472481"><ele>20.8</ele><time>2012-07-18T10:20:40.0000000+00:00</time></trkpt><trkpt lat="64.14679718" lon="-21.93456268"><ele>23.7</ele><time>2012-07-18T10:20:45.0000000+00:00</time></trkpt><trkpt lat="64.14674377" lon="-21.93450737"><ele>26.1</ele><time>2012-07-18T10:20:50.0000000+00:00</time></trkpt><trkpt lat="64.14680481" lon="-21.93431473"><ele>32.0</ele><time>2012-07-18T10:20:55.0000000+00:00</time></trkpt><trkpt lat="64.14679718" lon="-21.93412209"><ele>35.3</ele><time>2012-07-18T10:21:00.0000000+00:00</time></trkpt><trkpt lat="64.14677429" lon="-21.9339695"><ele>36.6</ele><time>2012-07-18T10:21:05.0000000+00:00</time></trkpt><trkpt lat="64.14676666" lon="-21.93384171"><ele>36.9</ele><time>2012-07-18T10:21:10.0000000+00:00</time></trkpt><trkpt lat="64.14667511" lon="-21.93374825"><ele>34.5</ele><time>2012-07-18T10:21:15.0000000+00:00</time></trkpt><trkpt lat="64.14662933" lon="-21.93372726"><ele>34.0</ele><time>2012-07-18T10:21:20.0000000+00:00</time></trkpt><trkpt lat="64.14662933" lon="-21.93371773"><ele>34.4</ele><time>2012-07-18T10:21:25.0000000+00:00</time></trkpt><trkpt lat="64.14662933" lon="-21.93372345"><ele>34.7</ele><time>2012-07-18T10:21:30.0000000+00:00</time></trkpt><trkpt lat="64.14662933" lon="-21.93372536"><ele>34.8</ele><time>2012-07-18T10:21:35.0000000+00:00</time></trkpt><trkpt lat="64.14662933" lon="-21.93372726"><ele>34.9</ele><time>2012-07-18T10:21:40.0000000+00:00</time></trkpt><trkpt lat="64.14662933" lon="-21.93372726"><ele>34.8</ele><time>2012-07-18T10:21:45.0000000+00:00</time></trkpt><trkpt lat="64.14662933" lon="-21.93372726"><ele>34.8</ele><time>2012-07-18T10:21:50.0000000+00:00</time></trkpt><trkpt lat="64.14662933" lon="-21.93372726"><ele>34.8</ele><time>2012-07-18T10:21:55.0000000+00:00</time></trkpt><trkpt lat="64.14662933" lon="-21.93372726"><ele>34.7</ele><time>2012-07-18T10:22:00.0000000+00:00</time></trkpt><trkpt lat="64.14662933" lon="-21.93372726"><ele>34.7</ele><time>2012-07-18T10:22:05.0000000+00:00</time></trkpt><trkpt lat="64.14663696" lon="-21.93368721"><ele>34.7</ele><time>2012-07-18T10:22:10.0000000+00:00</time></trkpt><trkpt lat="64.14669037" lon="-21.93367958"><ele>33.3</ele><time>2012-07-18T10:22:15.0000000+00:00</time></trkpt><trkpt lat="64.14669037" lon="-21.93368149"><ele>33.2</ele><time>2012-07-18T10:22:20.0000000+00:00</time></trkpt><trkpt lat="64.14669037" lon="-21.9336834"><ele>33.3</ele><time>2012-07-18T10:22:25.0000000+00:00</time></trkpt><trkpt lat="64.14669037" lon="-21.93368149"><ele>32.8</ele><time>2012-07-18T10:22:30.0000000+00:00</time></trkpt><trkpt lat="64.14673615" lon="-21.93375969"><ele>29.8</ele><time>2012-07-18T10:22:35.0000000+00:00</time></trkpt><trkpt lat="64.14677429" lon="-21.93397903"><ele>27.7</ele><time>2012-07-18T10:22:40.0000000+00:00</time></trkpt><trkpt lat="64.14678192" lon="-21.93408394"><ele>27.5</ele><time>2012-07-18T10:22:45.0000000+00:00</time></trkpt><trkpt lat="64.14677429" lon="-21.93409348"><ele>27.8</ele><time>2012-07-18T10:22:50.0000000+00:00</time></trkpt><trkpt lat="64.14677429" lon="-21.93409157"><ele>28.2</ele><time>2012-07-18T10:22:55.0000000+00:00</time></trkpt><trkpt lat="64.14677429" lon="-21.93409538"><ele>28.4</ele><time>2012-07-18T10:23:00.0000000+00:00</time></trkpt><trkpt lat="64.14677429" lon="-21.93409538"><ele>28.4</ele><time>2012-07-18T10:23:05.0000000+00:00</time></trkpt><trkpt lat="64.14676666" lon="-21.93410492"><ele>28.4</ele><time>2012-07-18T10:23:10.0000000+00:00</time></trkpt><trkpt lat="64.14675903" lon="-21.93410111"><ele>28.4</ele><time>2012-07-18T10:23:15.0000000+00:00</time></trkpt><trkpt lat="64.14675903" lon="-21.93409729"><ele>28.4</ele><time>2012-07-18T10:23:20.0000000+00:00</time></trkpt><trkpt lat="64.1467514" lon="-21.93410301"><ele>28.5</ele><time>2012-07-18T10:23:25.0000000+00:00</time></trkpt><trkpt lat="64.1467514" lon="-21.93410111"><ele>28.5</ele><time>2012-07-18T10:23:30.0000000+00:00</time></trkpt><trkpt lat="64.1467514" lon="-21.93410111"><ele>28.6</ele><time>2012-07-18T10:23:35.0000000+00:00</time></trkpt><trkpt lat="64.1467514" lon="-21.93410111"><ele>28.7</ele><time>2012-07-18T10:23:40.0000000+00:00</time></trkpt><trkpt lat="64.1467514" lon="-21.93410111"><ele>28.7</ele><time>2012-07-18T10:23:45.0000000+00:00</time></trkpt><trkpt lat="64.1467514" lon="-21.93410683"><ele>28.7</ele><time>2012-07-18T10:23:50.0000000+00:00</time></trkpt><trkpt lat="64.14675903" lon="-21.9340992"><ele>28.6</ele><time>2012-07-18T10:23:55.0000000+00:00</time></trkpt><trkpt lat="64.1467514" lon="-21.93409538"><ele>28.6</ele><time>2012-07-18T10:24:00.0000000+00:00</time></trkpt><trkpt lat="64.14672852" lon="-21.93411064"><ele>28.6</ele><time>2012-07-18T10:24:05.0000000+00:00</time></trkpt><trkpt lat="64.14670563" lon="-21.93416023"><ele>28.6</ele><time>2012-07-18T10:24:10.0000000+00:00</time></trkpt><trkpt lat="64.14669037" lon="-21.93419075"><ele>28.8</ele><time>2012-07-18T10:24:15.0000000+00:00</time></trkpt><trkpt lat="64.14668274" lon="-21.93426704"><ele>29.2</ele><time>2012-07-18T10:24:20.0000000+00:00</time></trkpt><trkpt lat="64.14667511" lon="-21.93427086"><ele>29.4</ele><time>2012-07-18T10:24:25.0000000+00:00</time></trkpt><trkpt lat="64.14667511" lon="-21.93426895"><ele>29.4</ele><time>2012-07-18T10:24:30.0000000+00:00</time></trkpt><trkpt lat="64.14667511" lon="-21.93427849"><ele>29.6</ele><time>2012-07-18T10:24:35.0000000+00:00</time></trkpt><trkpt lat="64.14665985" lon="-21.93424797"><ele>29.9</ele><time>2012-07-18T10:24:40.0000000+00:00</time></trkpt><trkpt lat="64.14665222" lon="-21.93426323"><ele>30.1</ele><time>2012-07-18T10:24:45.0000000+00:00</time></trkpt><trkpt lat="64.14664459" lon="-21.93427277"><ele>30.2</ele><time>2012-07-18T10:24:50.0000000+00:00</time></trkpt><trkpt lat="64.14663696" lon="-21.93427849"><ele>30.3</ele><time>2012-07-18T10:24:55.0000000+00:00</time></trkpt><trkpt lat="64.14662933" lon="-21.9342823"><ele>30.4</ele><time>2012-07-18T10:25:00.0000000+00:00</time></trkpt><trkpt lat="64.14662933" lon="-21.9342823"><ele>30.4</ele><time>2012-07-18T10:25:05.0000000+00:00</time></trkpt><trkpt lat="64.1466217" lon="-21.93428612"><ele>30.5</ele><time>2012-07-18T10:25:10.0000000+00:00</time></trkpt><trkpt lat="64.1466217" lon="-21.93428993"><ele>30.6</ele><time>2012-07-18T10:25:15.0000000+00:00</time></trkpt><trkpt lat="64.1466217" lon="-21.93428993"><ele>30.7</ele><time>2012-07-18T10:25:20.0000000+00:00</time></trkpt><trkpt lat="64.14661408" lon="-21.93428612"><ele>30.8</ele><time>2012-07-18T10:25:25.0000000+00:00</time></trkpt><trkpt lat="64.14661408" lon="-21.93427658"><ele>30.9</ele><time>2012-07-18T10:25:30.0000000+00:00</time></trkpt><trkpt lat="64.14661408" lon="-21.93425942"><ele>31.0</ele><time>2012-07-18T10:25:35.0000000+00:00</time></trkpt><trkpt lat="64.14661408" lon="-21.93424225"><ele>31.2</ele><time>2012-07-18T10:25:40.0000000+00:00</time></trkpt><trkpt lat="64.14661408" lon="-21.93422699"><ele>31.3</ele><time>2012-07-18T10:25:45.0000000+00:00</time></trkpt><trkpt lat="64.14661408" lon="-21.93421745"><ele>31.4</ele><time>2012-07-18T10:25:50.0000000+00:00</time></trkpt><trkpt lat="64.1466217" lon="-21.93420792"><ele>31.5</ele><time>2012-07-18T10:25:55.0000000+00:00</time></trkpt><trkpt lat="64.14662933" lon="-21.93420029"><ele>31.6</ele><time>2012-07-18T10:26:00.0000000+00:00</time></trkpt><trkpt lat="64.14662933" lon="-21.93420219"><ele>31.8</ele><time>2012-07-18T10:26:05.0000000+00:00</time></trkpt><trkpt lat="64.14663696" lon="-21.93420601"><ele>31.9</ele><time>2012-07-18T10:26:10.0000000+00:00</time></trkpt><trkpt lat="64.14672089" lon="-21.93421555"><ele>33.0</ele><time>2012-07-18T10:26:15.0000000+00:00</time></trkpt><trkpt lat="64.14669037" lon="-21.93421173"><ele>29.3</ele><time>2012-07-18T10:26:20.0000000+00:00</time></trkpt><trkpt lat="64.14666748" lon="-21.93421555"><ele>30.6</ele><time>2012-07-18T10:26:25.0000000+00:00</time></trkpt><trkpt lat="64.14663696" lon="-21.93409538"><ele>30.7</ele><time>2012-07-18T10:26:30.0000000+00:00</time></trkpt><trkpt lat="64.14658356" lon="-21.93387985"><ele>34.7</ele><time>2012-07-18T10:26:35.0000000+00:00</time></trkpt><trkpt lat="64.1465683" lon="-21.9336586"><ele>35.8</ele><time>2012-07-18T10:26:40.0000000+00:00</time></trkpt><trkpt lat="64.14653015" lon="-21.93357277"><ele>35.6</ele><time>2012-07-18T10:26:45.0000000+00:00</time></trkpt><trkpt lat="64.14649963" lon="-21.93349838"><ele>35.6</ele><time>2012-07-18T10:26:50.0000000+00:00</time></trkpt><trkpt lat="64.14648438" lon="-21.93340111"><ele>35.8</ele><time>2012-07-18T10:26:55.0000000+00:00</time></trkpt><trkpt lat="64.14643097" lon="-21.93334007"><ele>36.5</ele><time>2012-07-18T10:27:00.0000000+00:00</time></trkpt><trkpt lat="64.14639282" lon="-21.93319511"><ele>37.1</ele><time>2012-07-18T10:27:05.0000000+00:00</time></trkpt><trkpt lat="64.14634705" lon="-21.93307877"><ele>37.5</ele><time>2012-07-18T10:27:10.0000000+00:00</time></trkpt><trkpt lat="64.1463089" lon="-21.93294525"><ele>38.4</ele><time>2012-07-18T10:27:15.0000000+00:00</time></trkpt><trkpt lat="64.14627075" lon="-21.93280602"><ele>40.1</ele><time>2012-07-18T10:27:20.0000000+00:00</time></trkpt><trkpt lat="64.14626312" lon="-21.93268967"><ele>42.6</ele><time>2012-07-18T10:27:25.0000000+00:00</time></trkpt><trkpt lat="64.14627075" lon="-21.93247032"><ele>43.7</ele><time>2012-07-18T10:27:30.0000000+00:00</time></trkpt><trkpt lat="64.14622498" lon="-21.93235779"><ele>44.5</ele><time>2012-07-18T10:27:35.0000000+00:00</time></trkpt><trkpt lat="64.14623261" lon="-21.93234253"><ele>45.0</ele><time>2012-07-18T10:27:40.0000000+00:00</time></trkpt><trkpt lat="64.14622498" lon="-21.93233681"><ele>45.1</ele><time>2012-07-18T10:27:45.0000000+00:00</time></trkpt><trkpt lat="64.14623261" lon="-21.93233109"><ele>44.7</ele><time>2012-07-18T10:27:50.0000000+00:00</time></trkpt><trkpt lat="64.14622498" lon="-21.93232918"><ele>44.8</ele><time>2012-07-18T10:27:55.0000000+00:00</time></trkpt><trkpt lat="64.14623261" lon="-21.93233299"><ele>44.7</ele><time>2012-07-18T10:28:00.0000000+00:00</time></trkpt><trkpt lat="64.14625549" lon="-21.9324646"><ele>43.6</ele><time>2012-07-18T10:28:05.0000000+00:00</time></trkpt><trkpt lat="64.14628601" lon="-21.93263626"><ele>43.3</ele><time>2012-07-18T10:28:10.0000000+00:00</time></trkpt><trkpt lat="64.14635468" lon="-21.93277741"><ele>42.4</ele><time>2012-07-18T10:28:15.0000000+00:00</time></trkpt><trkpt lat="64.14640045" lon="-21.93282318"><ele>41.2</ele><time>2012-07-18T10:28:20.0000000+00:00</time></trkpt><trkpt lat="64.14638519" lon="-21.932827"><ele>43.2</ele><time>2012-07-18T10:28:25.0000000+00:00</time></trkpt><trkpt lat="64.14633179" lon="-21.93264961"><ele>45.6</ele><time>2012-07-18T10:28:30.0000000+00:00</time></trkpt><trkpt lat="64.14624023" lon="-21.93240929"><ele>44.8</ele><time>2012-07-18T10:28:35.0000000+00:00</time></trkpt><trkpt lat="64.14617157" lon="-21.93217468"><ele>46.5</ele><time>2012-07-18T10:28:40.0000000+00:00</time></trkpt><trkpt lat="64.14615631" lon="-21.93195725"><ele>46.7</ele><time>2012-07-18T10:28:45.0000000+00:00</time></trkpt><trkpt lat="64.14614105" lon="-21.93171883"><ele>46.9</ele><time>2012-07-18T10:28:50.0000000+00:00</time></trkpt><trkpt lat="64.14614105" lon="-21.93154526"><ele>43.6</ele><time>2012-07-18T10:28:55.0000000+00:00</time></trkpt><trkpt lat="64.14613342" lon="-21.93148613"><ele>41.3</ele><time>2012-07-18T10:29:00.0000000+00:00</time></trkpt><trkpt lat="64.14613342" lon="-21.9315052"><ele>40.3</ele><time>2012-07-18T10:29:05.0000000+00:00</time></trkpt><trkpt lat="64.14612579" lon="-21.93148232"><ele>39.9</ele><time>2012-07-18T10:29:10.0000000+00:00</time></trkpt><trkpt lat="64.14614105" lon="-21.93146896"><ele>40.1</ele><time>2012-07-18T10:29:15.0000000+00:00</time></trkpt><trkpt lat="64.14613342" lon="-21.93142891"><ele>39.8</ele><time>2012-07-18T10:29:20.0000000+00:00</time></trkpt><trkpt lat="64.14613342" lon="-21.9314251"><ele>39.8</ele><time>2012-07-18T10:29:25.0000000+00:00</time></trkpt><trkpt lat="64.14611054" lon="-21.93141747"><ele>38.4</ele><time>2012-07-18T10:29:30.0000000+00:00</time></trkpt><trkpt lat="64.14611054" lon="-21.93137169"><ele>36.2</ele><time>2012-07-18T10:29:35.0000000+00:00</time></trkpt><trkpt lat="64.14615631" lon="-21.93127251"><ele>33.0</ele><time>2012-07-18T10:29:40.0000000+00:00</time></trkpt><trkpt lat="64.14616394" lon="-21.93126679"><ele>33.0</ele><time>2012-07-18T10:29:45.0000000+00:00</time></trkpt><trkpt lat="64.14616394" lon="-21.9312706"><ele>33.0</ele><time>2012-07-18T10:29:50.0000000+00:00</time></trkpt><trkpt lat="64.14616394" lon="-21.93126869"><ele>33.1</ele><time>2012-07-18T10:29:55.0000000+00:00</time></trkpt><trkpt lat="64.14617157" lon="-21.93126869"><ele>33.1</ele><time>2012-07-18T10:30:00.0000000+00:00</time></trkpt><trkpt lat="64.14617157" lon="-21.93126869"><ele>33.2</ele><time>2012-07-18T10:30:05.0000000+00:00</time></trkpt><trkpt lat="64.14617157" lon="-21.93126869"><ele>33.2</ele><time>2012-07-18T10:30:10.0000000+00:00</time></trkpt><trkpt lat="64.14617157" lon="-21.93126869"><ele>33.1</ele><time>2012-07-18T10:30:15.0000000+00:00</time></trkpt><trkpt lat="64.14617157" lon="-21.93126869"><ele>33.1</ele><time>2012-07-18T10:30:20.0000000+00:00</time></trkpt><trkpt lat="64.14617157" lon="-21.93126679"><ele>33.1</ele><time>2012-07-18T10:30:25.0000000+00:00</time></trkpt><trkpt lat="64.14617157" lon="-21.93126679"><ele>33.1</ele><time>2012-07-18T10:30:30.0000000+00:00</time></trkpt><trkpt lat="64.14617157" lon="-21.93126679"><ele>33.1</ele><time>2012-07-18T10:30:35.0000000+00:00</time></trkpt><trkpt lat="64.14617157" lon="-21.93126679"><ele>33.1</ele><time>2012-07-18T10:30:40.0000000+00:00</time></trkpt><trkpt lat="64.14617157" lon="-21.93126869"><ele>33.1</ele><time>2012-07-18T10:30:45.0000000+00:00</time></trkpt><trkpt lat="64.14617157" lon="-21.93126679"><ele>33.1</ele><time>2012-07-18T10:30:50.0000000+00:00</time></trkpt><trkpt lat="64.14617157" lon="-21.93126679"><ele>33.1</ele><time>2012-07-18T10:30:55.0000000+00:00</time></trkpt><trkpt lat="64.14617157" lon="-21.93126679"><ele>33.1</ele><time>2012-07-18T10:31:00.0000000+00:00</time></trkpt><trkpt lat="64.14617157" lon="-21.93126679"><ele>33.1</ele><time>2012-07-18T10:31:05.0000000+00:00</time></trkpt><trkpt lat="64.14617157" lon="-21.93126488"><ele>33.1</ele><time>2012-07-18T10:31:10.0000000+00:00</time></trkpt><trkpt lat="64.14617157" lon="-21.93126488"><ele>33.1</ele><time>2012-07-18T10:31:15.0000000+00:00</time></trkpt><trkpt lat="64.14617157" lon="-21.93126488"><ele>33.2</ele><time>2012-07-18T10:31:20.0000000+00:00</time></trkpt><trkpt lat="64.14617157" lon="-21.93126297"><ele>33.2</ele><time>2012-07-18T10:31:25.0000000+00:00</time></trkpt><trkpt lat="64.14617157" lon="-21.93126297"><ele>33.2</ele><time>2012-07-18T10:31:30.0000000+00:00</time></trkpt><trkpt lat="64.14617157" lon="-21.93126106"><ele>33.2</ele><time>2012-07-18T10:31:35.0000000+00:00</time></trkpt><trkpt lat="64.14617157" lon="-21.93125916"><ele>33.2</ele><time>2012-07-18T10:31:40.0000000+00:00</time></trkpt><trkpt lat="64.14617157" lon="-21.93125916"><ele>33.2</ele><time>2012-07-18T10:31:45.0000000+00:00</time></trkpt><trkpt lat="64.14617157" lon="-21.93125916"><ele>33.2</ele><time>2012-07-18T10:31:50.0000000+00:00</time></trkpt><trkpt lat="64.14617157" lon="-21.93125725"><ele>33.2</ele><time>2012-07-18T10:31:55.0000000+00:00</time></trkpt><trkpt lat="64.14617157" lon="-21.93125534"><ele>33.2</ele><time>2012-07-18T10:32:00.0000000+00:00</time></trkpt><trkpt lat="64.14617157" lon="-21.93125534"><ele>33.2</ele><time>2012-07-18T10:32:05.0000000+00:00</time></trkpt><trkpt lat="64.14617157" lon="-21.93125343"><ele>33.2</ele><time>2012-07-18T10:32:10.0000000+00:00</time></trkpt><trkpt lat="64.14617157" lon="-21.93125153"><ele>33.2</ele><time>2012-07-18T10:32:15.0000000+00:00</time></trkpt><trkpt lat="64.14617157" lon="-21.93125153"><ele>33.2</ele><time>2012-07-18T10:32:20.0000000+00:00</time></trkpt><trkpt lat="64.14617157" lon="-21.93124962"><ele>33.1</ele><time>2012-07-18T10:32:25.0000000+00:00</time></trkpt><trkpt lat="64.14617157" lon="-21.93124771"><ele>33.1</ele><time>2012-07-18T10:32:30.0000000+00:00</time></trkpt><trkpt lat="64.14617157" lon="-21.9312458"><ele>33.1</ele><time>2012-07-18T10:32:35.0000000+00:00</time></trkpt><trkpt lat="64.14617157" lon="-21.9312439"><ele>33.1</ele><time>2012-07-18T10:32:40.0000000+00:00</time></trkpt><trkpt lat="64.14617157" lon="-21.93124199"><ele>33.1</ele><time>2012-07-18T10:32:45.0000000+00:00</time></trkpt><trkpt lat="64.14617157" lon="-21.93124008"><ele>33.1</ele><time>2012-07-18T10:32:50.0000000+00:00</time></trkpt><trkpt lat="64.14616394" lon="-21.93123817"><ele>33.0</ele><time>2012-07-18T10:32:55.0000000+00:00</time></trkpt><trkpt lat="64.14616394" lon="-21.93123627"><ele>33.0</ele><time>2012-07-18T10:33:00.0000000+00:00</time></trkpt><trkpt lat="64.14616394" lon="-21.93123627"><ele>33.0</ele><time>2012-07-18T10:33:05.0000000+00:00</time></trkpt><trkpt lat="64.14616394" lon="-21.93123436"><ele>32.9</ele><time>2012-07-18T10:33:10.0000000+00:00</time></trkpt><trkpt lat="64.14616394" lon="-21.93123436"><ele>32.9</ele><time>2012-07-18T10:33:15.0000000+00:00</time></trkpt><trkpt lat="64.14617157" lon="-21.93123436"><ele>32.9</ele><time>2012-07-18T10:33:20.0000000+00:00</time></trkpt><trkpt lat="64.14617157" lon="-21.93123436"><ele>32.8</ele><time>2012-07-18T10:33:25.0000000+00:00</time></trkpt><trkpt lat="64.14617157" lon="-21.93123436"><ele>32.8</ele><time>2012-07-18T10:33:30.0000000+00:00</time></trkpt><trkpt lat="64.14617157" lon="-21.93123436"><ele>32.8</ele><time>2012-07-18T10:33:35.0000000+00:00</time></trkpt><trkpt lat="64.14617157" lon="-21.93123436"><ele>32.7</ele><time>2012-07-18T10:33:40.0000000+00:00</time></trkpt><trkpt lat="64.14617157" lon="-21.93123627"><ele>32.8</ele><time>2012-07-18T10:33:45.0000000+00:00</time></trkpt><trkpt lat="64.14617157" lon="-21.93123817"><ele>32.8</ele><time>2012-07-18T10:33:50.0000000+00:00</time></trkpt><trkpt lat="64.14617157" lon="-21.93124008"><ele>32.8</ele><time>2012-07-18T10:33:55.0000000+00:00</time></trkpt><trkpt lat="64.14617157" lon="-21.93124008"><ele>32.8</ele><time>2012-07-18T10:34:00.0000000+00:00</time></trkpt><trkpt lat="64.14617157" lon="-21.93124008"><ele>32.8</ele><time>2012-07-18T10:34:05.0000000+00:00</time></trkpt><trkpt lat="64.14617157" lon="-21.93124008"><ele>32.8</ele><time>2012-07-18T10:34:10.0000000+00:00</time></trkpt><trkpt lat="64.14617157" lon="-21.93124008"><ele>32.8</ele><time>2012-07-18T10:34:15.0000000+00:00</time></trkpt><trkpt lat="64.14617157" lon="-21.93124008"><ele>32.8</ele><time>2012-07-18T10:34:20.0000000+00:00</time></trkpt><trkpt lat="64.14617157" lon="-21.93124008"><ele>32.8</ele><time>2012-07-18T10:34:25.0000000+00:00</time></trkpt><trkpt lat="64.14617157" lon="-21.93124008"><ele>32.8</ele><time>2012-07-18T10:34:30.0000000+00:00</time></trkpt><trkpt lat="64.14617157" lon="-21.93124008"><ele>32.8</ele><time>2012-07-18T10:34:35.0000000+00:00</time></trkpt><trkpt lat="64.14617157" lon="-21.93124008"><ele>32.8</ele><time>2012-07-18T10:34:40.0000000+00:00</time></trkpt><trkpt lat="64.14617157" lon="-21.93124199"><ele>32.8</ele><time>2012-07-18T10:34:45.0000000+00:00</time></trkpt><trkpt lat="64.14617157" lon="-21.93124199"><ele>32.8</ele><time>2012-07-18T10:34:50.0000000+00:00</time></trkpt><trkpt lat="64.14617157" lon="-21.93124199"><ele>32.7</ele><time>2012-07-18T10:34:55.0000000+00:00</time></trkpt><trkpt lat="64.14617157" lon="-21.93124199"><ele>32.7</ele><time>2012-07-18T10:35:00.0000000+00:00</time></trkpt><trkpt lat="64.14617157" lon="-21.93124199"><ele>32.7</ele><time>2012-07-18T10:35:05.0000000+00:00</time></trkpt><trkpt lat="64.14617157" lon="-21.93124199"><ele>32.7</ele><time>2012-07-18T10:35:10.0000000+00:00</time></trkpt><trkpt lat="64.14617157" lon="-21.93124199"><ele>32.6</ele><time>2012-07-18T10:35:15.0000000+00:00</time></trkpt><trkpt lat="64.14617157" lon="-21.93124199"><ele>32.6</ele><time>2012-07-18T10:35:20.0000000+00:00</time></trkpt><trkpt lat="64.14617157" lon="-21.93124008"><ele>32.6</ele><time>2012-07-18T10:35:25.0000000+00:00</time></trkpt><trkpt lat="64.14617157" lon="-21.93124008"><ele>32.6</ele><time>2012-07-18T10:35:30.0000000+00:00</time></trkpt><trkpt lat="64.14617157" lon="-21.93124008"><ele>32.6</ele><time>2012-07-18T10:35:35.0000000+00:00</time></trkpt><trkpt lat="64.14617157" lon="-21.93124008"><ele>32.6</ele><time>2012-07-18T10:35:40.0000000+00:00</time></trkpt><trkpt lat="64.14617157" lon="-21.93124008"><ele>32.5</ele><time>2012-07-18T10:35:45.0000000+00:00</time></trkpt><trkpt lat="64.14617157" lon="-21.93123817"><ele>32.5</ele><time>2012-07-18T10:35:50.0000000+00:00</time></trkpt><trkpt lat="64.14617157" lon="-21.93123817"><ele>32.5</ele><time>2012-07-18T10:35:55.0000000+00:00</time></trkpt><trkpt lat="64.14617157" lon="-21.93123817"><ele>32.5</ele><time>2012-07-18T10:36:00.0000000+00:00</time></trkpt><trkpt lat="64.14617157" lon="-21.93123817"><ele>32.5</ele><time>2012-07-18T10:36:05.0000000+00:00</time></trkpt><trkpt lat="64.14617157" lon="-21.93123817"><ele>32.6</ele><time>2012-07-18T10:36:10.0000000+00:00</time></trkpt><trkpt lat="64.14617157" lon="-21.93123817"><ele>32.6</ele><time>2012-07-18T10:36:15.0000000+00:00</time></trkpt><trkpt lat="64.14617157" lon="-21.93123245"><ele>32.4</ele><time>2012-07-18T10:36:20.0000000+00:00</time></trkpt><trkpt lat="64.14617157" lon="-21.93123055"><ele>32.3</ele><time>2012-07-18T10:36:25.0000000+00:00</time></trkpt><trkpt lat="64.14617157" lon="-21.93123436"><ele>32.4</ele><time>2012-07-18T10:36:30.0000000+00:00</time></trkpt><trkpt lat="64.14617157" lon="-21.93123245"><ele>32.4</ele><time>2012-07-18T10:36:35.0000000+00:00</time></trkpt><trkpt lat="64.14617157" lon="-21.93123055"><ele>32.2</ele><time>2012-07-18T10:36:40.0000000+00:00</time></trkpt><trkpt lat="64.14614868" lon="-21.93124962"><ele>32.1</ele><time>2012-07-18T10:36:45.0000000+00:00</time></trkpt><trkpt lat="64.14614868" lon="-21.93127441"><ele>32.4</ele><time>2012-07-18T10:36:50.0000000+00:00</time></trkpt><trkpt lat="64.14616394" lon="-21.93132019"><ele>33.6</ele><time>2012-07-18T10:36:55.0000000+00:00</time></trkpt><trkpt lat="64.1461792" lon="-21.93156815"><ele>34.6</ele><time>2012-07-18T10:37:00.0000000+00:00</time></trkpt><trkpt lat="64.14624786" lon="-21.93185806"><ele>34.0</ele><time>2012-07-18T10:37:05.0000000+00:00</time></trkpt><trkpt lat="64.1463089" lon="-21.93225288"><ele>35.5</ele><time>2012-07-18T10:37:10.0000000+00:00</time></trkpt><trkpt lat="64.14636993" lon="-21.93260384"><ele>34.8</ele><time>2012-07-18T10:37:15.0000000+00:00</time></trkpt><trkpt lat="64.1464386" lon="-21.93293381"><ele>36.5</ele><time>2012-07-18T10:37:20.0000000+00:00</time></trkpt><trkpt lat="64.14650726" lon="-21.93327332"><ele>35.3</ele><time>2012-07-18T10:37:25.0000000+00:00</time></trkpt><trkpt lat="64.14655304" lon="-21.93351555"><ele>36.0</ele><time>2012-07-18T10:37:30.0000000+00:00</time></trkpt><trkpt lat="64.14666748" lon="-21.93366051"><ele>31.6</ele><time>2012-07-18T10:37:35.0000000+00:00</time></trkpt><trkpt lat="64.14675903" lon="-21.93413734"><ele>34.4</ele><time>2012-07-18T10:37:40.0000000+00:00</time></trkpt><trkpt lat="64.14680481" lon="-21.93447495"><ele>37.2</ele><time>2012-07-18T10:37:45.0000000+00:00</time></trkpt><trkpt lat="64.14683533" lon="-21.93474007"><ele>37.9</ele><time>2012-07-18T10:37:50.0000000+00:00</time></trkpt><trkpt lat="64.14694214" lon="-21.93502617"><ele>38.6</ele><time>2012-07-18T10:37:55.0000000+00:00</time></trkpt><trkpt lat="64.14707184" lon="-21.93545342"><ele>37.5</ele><time>2012-07-18T10:38:00.0000000+00:00</time></trkpt><trkpt lat="64.14715576" lon="-21.93582916"><ele>34.2</ele><time>2012-07-18T10:38:05.0000000+00:00</time></trkpt><trkpt lat="64.14722443" lon="-21.93599701"><ele>25.7</ele><time>2012-07-18T10:38:10.0000000+00:00</time></trkpt><trkpt lat="64.14728546" lon="-21.93603134"><ele>23.4</ele><time>2012-07-18T10:38:15.0000000+00:00</time></trkpt><trkpt lat="64.1473465" lon="-21.93623924"><ele>24.2</ele><time>2012-07-18T10:38:20.0000000+00:00</time></trkpt><trkpt lat="64.14738464" lon="-21.93649101"><ele>21.0</ele><time>2012-07-18T10:38:25.0000000+00:00</time></trkpt><trkpt lat="64.14739227" lon="-21.93684197"><ele>18.2</ele><time>2012-07-18T10:38:30.0000000+00:00</time></trkpt><trkpt lat="64.14743042" lon="-21.93714714"><ele>18.6</ele><time>2012-07-18T10:38:35.0000000+00:00</time></trkpt><trkpt lat="64.1474762" lon="-21.93737793"><ele>18.7</ele><time>2012-07-18T10:38:40.0000000+00:00</time></trkpt><trkpt lat="64.1475296" lon="-21.93767929"><ele>21.2</ele><time>2012-07-18T10:38:45.0000000+00:00</time></trkpt><trkpt lat="64.14758301" lon="-21.93795586"><ele>21.6</ele><time>2012-07-18T10:38:50.0000000+00:00</time></trkpt><trkpt lat="64.14762878" lon="-21.93824768"><ele>22.0</ele><time>2012-07-18T10:38:55.0000000+00:00</time></trkpt><trkpt lat="64.14763641" lon="-21.93829727"><ele>21.6</ele><time>2012-07-18T10:39:00.0000000+00:00</time></trkpt><trkpt lat="64.14763641" lon="-21.93830109"><ele>21.8</ele><time>2012-07-18T10:39:05.0000000+00:00</time></trkpt><trkpt lat="64.14762878" lon="-21.93831253"><ele>22.0</ele><time>2012-07-18T10:39:10.0000000+00:00</time></trkpt><trkpt lat="64.14762878" lon="-21.93831635"><ele>22.2</ele><time>2012-07-18T10:39:15.0000000+00:00</time></trkpt><trkpt lat="64.14762878" lon="-21.93831635"><ele>22.4</ele><time>2012-07-18T10:39:20.0000000+00:00</time></trkpt><trkpt lat="64.14762878" lon="-21.93832016"><ele>22.5</ele><time>2012-07-18T10:39:25.0000000+00:00</time></trkpt><trkpt lat="64.14764404" lon="-21.93846703"><ele>22.8</ele><time>2012-07-18T10:39:30.0000000+00:00</time></trkpt><trkpt lat="64.14770508" lon="-21.9387207"><ele>22.9</ele><time>2012-07-18T10:39:35.0000000+00:00</time></trkpt><trkpt lat="64.14775085" lon="-21.93900681"><ele>24.2</ele><time>2012-07-18T10:39:40.0000000+00:00</time></trkpt><trkpt lat="64.14778137" lon="-21.93933106"><ele>25.5</ele><time>2012-07-18T10:39:45.0000000+00:00</time></trkpt><trkpt lat="64.14780426" lon="-21.93963814"><ele>27.0</ele><time>2012-07-18T10:39:50.0000000+00:00</time></trkpt><trkpt lat="64.14783478" lon="-21.94002342"><ele>30.2</ele><time>2012-07-18T10:39:55.0000000+00:00</time></trkpt><trkpt lat="64.14783478" lon="-21.94028664"><ele>32.5</ele><time>2012-07-18T10:40:00.0000000+00:00</time></trkpt><trkpt lat="64.14788818" lon="-21.94054604"><ele>34.4</ele><time>2012-07-18T10:40:05.0000000+00:00</time></trkpt><trkpt lat="64.14794159" lon="-21.94083023"><ele>35.0</ele><time>2012-07-18T10:40:10.0000000+00:00</time></trkpt><trkpt lat="64.14794159" lon="-21.9409256"><ele>34.0</ele><time>2012-07-18T10:40:15.0000000+00:00</time></trkpt><trkpt lat="64.14803314" lon="-21.94095612"><ele>31.4</ele><time>2012-07-18T10:40:20.0000000+00:00</time></trkpt><trkpt lat="64.14813232" lon="-21.94084168"><ele>30.5</ele><time>2012-07-18T10:40:25.0000000+00:00</time></trkpt><trkpt lat="64.14823151" lon="-21.94073868"><ele>28.5</ele><time>2012-07-18T10:40:30.0000000+00:00</time></trkpt><trkpt lat="64.14829254" lon="-21.94089317"><ele>30.0</ele><time>2012-07-18T10:40:35.0000000+00:00</time></trkpt><trkpt lat="64.14833069" lon="-21.94120598"><ele>34.7</ele><time>2012-07-18T10:40:40.0000000+00:00</time></trkpt><trkpt lat="64.14839935" lon="-21.94133377"><ele>31.6</ele><time>2012-07-18T10:40:45.0000000+00:00</time></trkpt><trkpt lat="64.14850617" lon="-21.94135857"><ele>23.8</ele><time>2012-07-18T10:40:50.0000000+00:00</time></trkpt><trkpt lat="64.14859009" lon="-21.94141579"><ele>21.0</ele><time>2012-07-18T10:40:55.0000000+00:00</time></trkpt><trkpt lat="64.14867401" lon="-21.94151497"><ele>19.7</ele><time>2012-07-18T10:41:00.0000000+00:00</time></trkpt><trkpt lat="64.14875031" lon="-21.94163322"><ele>19.0</ele><time>2012-07-18T10:41:05.0000000+00:00</time></trkpt><trkpt lat="64.14883423" lon="-21.94169045"><ele>17.5</ele><time>2012-07-18T10:41:10.0000000+00:00</time></trkpt><trkpt lat="64.14891815" lon="-21.94171524"><ele>16.7</ele><time>2012-07-18T10:41:15.0000000+00:00</time></trkpt><trkpt lat="64.14902496" lon="-21.94158936"><ele>16.3</ele><time>2012-07-18T10:41:20.0000000+00:00</time></trkpt><trkpt lat="64.14910889" lon="-21.94142723"><ele>18.7</ele><time>2012-07-18T10:41:25.0000000+00:00</time></trkpt><trkpt lat="64.14917755" lon="-21.94137764"><ele>16.6</ele><time>2012-07-18T10:41:30.0000000+00:00</time></trkpt><trkpt lat="64.1492691" lon="-21.94158745"><ele>16.5</ele><time>2012-07-18T10:41:35.0000000+00:00</time></trkpt><trkpt lat="64.14939117" lon="-21.94183159"><ele>13.8</ele><time>2012-07-18T10:41:40.0000000+00:00</time></trkpt><trkpt lat="64.1494751" lon="-21.94179726"><ele>12.1</ele><time>2012-07-18T10:41:45.0000000+00:00</time></trkpt><trkpt lat="64.14959717" lon="-21.94181633"><ele>20.1</ele><time>2012-07-18T10:41:50.0000000+00:00</time></trkpt><trkpt lat="64.14974213" lon="-21.94204712"><ele>26.6</ele><time>2012-07-18T10:41:55.0000000+00:00</time></trkpt><trkpt lat="64.14988709" lon="-21.94233704"><ele>30.8</ele><time>2012-07-18T10:42:00.0000000+00:00</time></trkpt><trkpt lat="64.15003204" lon="-21.94245911"><ele>42.5</ele><time>2012-07-18T10:42:05.0000000+00:00</time></trkpt><trkpt lat="64.15003204" lon="-21.94248581"><ele>43.2</ele><time>2012-07-18T10:42:10.0000000+00:00</time></trkpt><trkpt lat="64.15003204" lon="-21.94248772"><ele>43.6</ele><time>2012-07-18T10:42:15.0000000+00:00</time></trkpt><trkpt lat="64.15003204" lon="-21.94248581"><ele>43.7</ele><time>2012-07-18T10:42:20.0000000+00:00</time></trkpt><trkpt lat="64.15003204" lon="-21.94248581"><ele>43.7</ele><time>2012-07-18T10:42:25.0000000+00:00</time></trkpt><trkpt lat="64.15002441" lon="-21.94248581"><ele>43.6</ele><time>2012-07-18T10:42:30.0000000+00:00</time></trkpt><trkpt lat="64.15003204" lon="-21.94248581"><ele>43.4</ele><time>2012-07-18T10:42:35.0000000+00:00</time></trkpt><trkpt lat="64.15002441" lon="-21.94248772"><ele>43.3</ele><time>2012-07-18T10:42:40.0000000+00:00</time></trkpt><trkpt lat="64.15002441" lon="-21.94248962"><ele>43.3</ele><time>2012-07-18T10:42:45.0000000+00:00</time></trkpt><trkpt lat="64.15003204" lon="-21.94248962"><ele>43.1</ele><time>2012-07-18T10:42:50.0000000+00:00</time></trkpt><trkpt lat="64.15003204" lon="-21.94248962"><ele>43.0</ele><time>2012-07-18T10:42:55.0000000+00:00</time></trkpt><trkpt lat="64.15003204" lon="-21.94249153"><ele>43.0</ele><time>2012-07-18T10:43:00.0000000+00:00</time></trkpt><trkpt lat="64.1501236" lon="-21.94246864"><ele>39.1</ele><time>2012-07-18T10:43:05.0000000+00:00</time></trkpt><trkpt lat="64.15029907" lon="-21.94265747"><ele>33.3</ele><time>2012-07-18T10:43:10.0000000+00:00</time></trkpt><trkpt lat="64.15039825" lon="-21.94301605"><ele>33.1</ele><time>2012-07-18T10:43:15.0000000+00:00</time></trkpt><trkpt lat="64.15054321" lon="-21.94328117"><ele>34.3</ele><time>2012-07-18T10:43:20.0000000+00:00</time></trkpt><trkpt lat="64.15067291" lon="-21.94356346"><ele>34.0</ele><time>2012-07-18T10:43:25.0000000+00:00</time></trkpt><trkpt lat="64.15076447" lon="-21.94400597"><ele>32.0</ele><time>2012-07-18T10:43:30.0000000+00:00</time></trkpt><trkpt lat="64.15084076" lon="-21.94446373"><ele>30.9</ele><time>2012-07-18T10:43:35.0000000+00:00</time></trkpt><trkpt lat="64.15086365" lon="-21.94492531"><ele>32.5</ele><time>2012-07-18T10:43:40.0000000+00:00</time></trkpt><trkpt lat="64.15087891" lon="-21.94537926"><ele>28.6</ele><time>2012-07-18T10:43:45.0000000+00:00</time></trkpt><trkpt lat="64.15088654" lon="-21.94581032"><ele>25.2</ele><time>2012-07-18T10:43:50.0000000+00:00</time></trkpt><trkpt lat="64.15093994" lon="-21.94626427"><ele>24.1</ele><time>2012-07-18T10:43:55.0000000+00:00</time></trkpt><trkpt lat="64.15100861" lon="-21.94672966"><ele>24.2</ele><time>2012-07-18T10:44:00.0000000+00:00</time></trkpt><trkpt lat="64.15109253" lon="-21.94718552"><ele>24.9</ele><time>2012-07-18T10:44:05.0000000+00:00</time></trkpt><trkpt lat="64.15117645" lon="-21.94763565"><ele>26.3</ele><time>2012-07-18T10:44:10.0000000+00:00</time></trkpt><trkpt lat="64.15129852" lon="-21.94805908"><ele>27.1</ele><time>2012-07-18T10:44:15.0000000+00:00</time></trkpt><trkpt lat="64.15146637" lon="-21.94845772"><ele>22.1</ele><time>2012-07-18T10:44:20.0000000+00:00</time></trkpt><trkpt lat="64.15161896" lon="-21.94881249"><ele>21.0</ele><time>2012-07-18T10:44:25.0000000+00:00</time></trkpt><trkpt lat="64.15177155" lon="-21.94920921"><ele>21.0</ele><time>2012-07-18T10:44:30.0000000+00:00</time></trkpt><trkpt lat="64.15193176" lon="-21.94962692"><ele>21.4</ele><time>2012-07-18T10:44:35.0000000+00:00</time></trkpt><trkpt lat="64.15206909" lon="-21.95009232"><ele>22.3</ele><time>2012-07-18T10:44:40.0000000+00:00</time></trkpt><trkpt lat="64.15219116" lon="-21.95049858"><ele>23.7</ele><time>2012-07-18T10:44:45.0000000+00:00</time></trkpt><trkpt lat="64.15229034" lon="-21.9508667"><ele>24.5</ele><time>2012-07-18T10:44:50.0000000+00:00</time></trkpt><trkpt lat="64.1523819" lon="-21.95122337"><ele>24.7</ele><time>2012-07-18T10:44:55.0000000+00:00</time></trkpt><trkpt lat="64.15247345" lon="-21.95162201"><ele>24.8</ele><time>2012-07-18T10:45:00.0000000+00:00</time></trkpt><trkpt lat="64.15261841" lon="-21.95200157"><ele>24.4</ele><time>2012-07-18T10:45:05.0000000+00:00</time></trkpt><trkpt lat="64.15275574" lon="-21.95223808"><ele>22.4</ele><time>2012-07-18T10:45:10.0000000+00:00</time></trkpt><trkpt lat="64.15280914" lon="-21.95227432"><ele>18.5</ele><time>2012-07-18T10:45:15.0000000+00:00</time></trkpt><trkpt lat="64.15297699" lon="-21.95221901"><ele>16.3</ele><time>2012-07-18T10:45:20.0000000+00:00</time></trkpt><trkpt lat="64.15313721" lon="-21.95241356"><ele>15.6</ele><time>2012-07-18T10:45:25.0000000+00:00</time></trkpt><trkpt lat="64.15332031" lon="-21.95253182"><ele>14.2</ele><time>2012-07-18T10:45:30.0000000+00:00</time></trkpt><trkpt lat="64.15353394" lon="-21.95247078"><ele>13.2</ele><time>2012-07-18T10:45:35.0000000+00:00</time></trkpt><trkpt lat="64.15371704" lon="-21.95222473"><ele>12.0</ele><time>2012-07-18T10:45:40.0000000+00:00</time></trkpt><trkpt lat="64.15385437" lon="-21.9518528"><ele>12.2</ele><time>2012-07-18T10:45:45.0000000+00:00</time></trkpt><trkpt lat="64.15396118" lon="-21.95151901"><ele>12.0</ele><time>2012-07-18T10:45:50.0000000+00:00</time></trkpt><trkpt lat="64.15411377" lon="-21.95153427"><ele>11.5</ele><time>2012-07-18T10:45:55.0000000+00:00</time></trkpt><trkpt lat="64.15419006" lon="-21.95187187"><ele>12.1</ele><time>2012-07-18T10:46:00.0000000+00:00</time></trkpt><trkpt lat="64.15415192" lon="-21.95210648"><ele>12.1</ele><time>2012-07-18T10:46:05.0000000+00:00</time></trkpt><trkpt lat="64.15416718" lon="-21.95213699"><ele>10.6</ele><time>2012-07-18T10:46:10.0000000+00:00</time></trkpt><trkpt lat="64.15412903" lon="-21.95226669"><ele>8.4</ele><time>2012-07-18T10:46:15.0000000+00:00</time></trkpt><trkpt lat="64.15410614" lon="-21.95244026"><ele>6.1</ele><time>2012-07-18T10:46:20.0000000+00:00</time></trkpt><trkpt lat="64.15409851" lon="-21.95262337"><ele>3.3</ele><time>2012-07-18T10:46:25.0000000+00:00</time></trkpt><trkpt lat="64.15415192" lon="-21.95271301"><ele>1.8</ele><time>2012-07-18T10:46:30.0000000+00:00</time></trkpt><trkpt lat="64.15415955" lon="-21.95270348"><ele>1.2</ele><time>2012-07-18T10:46:35.0000000+00:00</time></trkpt><trkpt lat="64.15419006" lon="-21.95271683"><ele>-0.0</ele><time>2012-07-18T10:46:40.0000000+00:00</time></trkpt><trkpt lat="64.15417481" lon="-21.95274353"><ele>0.2</ele><time>2012-07-18T10:46:45.0000000+00:00</time></trkpt><trkpt lat="64.15416718" lon="-21.95275879"><ele>0.1</ele><time>2012-07-18T10:46:50.0000000+00:00</time></trkpt><trkpt lat="64.15416718" lon="-21.95277977"><ele>-0.1</ele><time>2012-07-18T10:46:55.0000000+00:00</time></trkpt><trkpt lat="64.15416718" lon="-21.95277977"><ele>-0.3</ele><time>2012-07-18T10:47:00.0000000+00:00</time></trkpt><trkpt lat="64.15416718" lon="-21.95277977"><ele>-0.4</ele><time>2012-07-18T10:47:05.0000000+00:00</time></trkpt><trkpt lat="64.15416718" lon="-21.95277977"><ele>-0.3</ele><time>2012-07-18T10:47:10.0000000+00:00</time></trkpt><trkpt lat="64.15416718" lon="-21.95277977"><ele>-0.3</ele><time>2012-07-18T10:47:15.0000000+00:00</time></trkpt><trkpt lat="64.15416718" lon="-21.95277977"><ele>-0.3</ele><time>2012-07-18T10:47:20.0000000+00:00</time></trkpt><trkpt lat="64.15416718" lon="-21.95277977"><ele>-0.3</ele><time>2012-07-18T10:47:25.0000000+00:00</time></trkpt><trkpt lat="64.15416718" lon="-21.95277977"><ele>-0.3</ele><time>2012-07-18T10:47:30.0000000+00:00</time></trkpt><trkpt lat="64.15416718" lon="-21.95277977"><ele>-0.3</ele><time>2012-07-18T10:47:35.0000000+00:00</time></trkpt><trkpt lat="64.15416718" lon="-21.95277977"><ele>-0.3</ele><time>2012-07-18T10:47:40.0000000+00:00</time></trkpt><trkpt lat="64.15416718" lon="-21.95278168"><ele>-0.3</ele><time>2012-07-18T10:47:45.0000000+00:00</time></trkpt><trkpt lat="64.15416718" lon="-21.95278168"><ele>-0.3</ele><time>2012-07-18T10:47:50.0000000+00:00</time></trkpt><trkpt lat="64.15416718" lon="-21.95278168"><ele>-0.3</ele><time>2012-07-18T10:47:55.0000000+00:00</time></trkpt><trkpt lat="64.15416718" lon="-21.95278359"><ele>-0.2</ele><time>2012-07-18T10:48:00.0000000+00:00</time></trkpt><trkpt lat="64.15416718" lon="-21.95278359"><ele>-0.2</ele><time>2012-07-18T10:48:05.0000000+00:00</time></trkpt><trkpt lat="64.15416718" lon="-21.95278549"><ele>-0.2</ele><time>2012-07-18T10:48:10.0000000+00:00</time></trkpt><trkpt lat="64.15416718" lon="-21.95278549"><ele>-0.2</ele><time>2012-07-18T10:48:15.0000000+00:00</time></trkpt><trkpt lat="64.15416718" lon="-21.95278549"><ele>-0.2</ele><time>2012-07-18T10:48:20.0000000+00:00</time></trkpt><trkpt lat="64.15416718" lon="-21.9527874"><ele>-0.1</ele><time>2012-07-18T10:48:25.0000000+00:00</time></trkpt><trkpt lat="64.15416718" lon="-21.9527874"><ele>-0.1</ele><time>2012-07-18T10:48:30.0000000+00:00</time></trkpt><trkpt lat="64.15416718" lon="-21.9527874"><ele>-0.1</ele><time>2012-07-18T10:48:35.0000000+00:00</time></trkpt><trkpt lat="64.15416718" lon="-21.9527874"><ele>-0.1</ele><time>2012-07-18T10:48:40.0000000+00:00</time></trkpt><trkpt lat="64.15415955" lon="-21.9527874"><ele>-0.1</ele><time>2012-07-18T10:48:45.0000000+00:00</time></trkpt><trkpt lat="64.15415955" lon="-21.95278931"><ele>-0.1</ele><time>2012-07-18T10:48:50.0000000+00:00</time></trkpt><trkpt lat="64.15415955" lon="-21.95278931"><ele>-0.1</ele><time>2012-07-18T10:48:55.0000000+00:00</time></trkpt><trkpt lat="64.15415955" lon="-21.95278931"><ele>-0.1</ele><time>2012-07-18T10:49:00.0000000+00:00</time></trkpt><trkpt lat="64.15415955" lon="-21.95278931"><ele>-0.1</ele><time>2012-07-18T10:49:05.0000000+00:00</time></trkpt><trkpt lat="64.15415955" lon="-21.95278931"><ele>-0.1</ele><time>2012-07-18T10:49:10.0000000+00:00</time></trkpt><trkpt lat="64.15415955" lon="-21.95278931"><ele>-0.1</ele><time>2012-07-18T10:49:15.0000000+00:00</time></trkpt><trkpt lat="64.15415955" lon="-21.95278931"><ele>-0.1</ele><time>2012-07-18T10:49:20.0000000+00:00</time></trkpt><trkpt lat="64.15415955" lon="-21.95279121"><ele>-0.1</ele><time>2012-07-18T10:49:25.0000000+00:00</time></trkpt><trkpt lat="64.15415955" lon="-21.95279121"><ele>-0.0</ele><time>2012-07-18T10:49:30.0000000+00:00</time></trkpt><trkpt lat="64.15415955" lon="-21.95279121"><ele>-0.0</ele><time>2012-07-18T10:49:35.0000000+00:00</time></trkpt><trkpt lat="64.15415955" lon="-21.95279121"><ele>-0.0</ele><time>2012-07-18T10:49:40.0000000+00:00</time></trkpt><trkpt lat="64.15415955" lon="-21.95279121"><ele>-0.0</ele><time>2012-07-18T10:49:45.0000000+00:00</time></trkpt><trkpt lat="64.15415955" lon="-21.95279121"><ele>-0.0</ele><time>2012-07-18T10:49:50.0000000+00:00</time></trkpt><trkpt lat="64.15415955" lon="-21.95279121"><ele>-0.0</ele><time>2012-07-18T10:49:55.0000000+00:00</time></trkpt><trkpt lat="64.15415955" lon="-21.95279121"><ele>-0.0</ele><time>2012-07-18T10:50:00.0000000+00:00</time></trkpt><trkpt lat="64.15415955" lon="-21.95278931"><ele>-0.0</ele><time>2012-07-18T10:50:05.0000000+00:00</time></trkpt><trkpt lat="64.15415955" lon="-21.95278931"><ele>-0.0</ele><time>2012-07-18T10:50:10.0000000+00:00</time></trkpt><trkpt lat="64.15415955" lon="-21.95278931"><ele>-0.0</ele><time>2012-07-18T10:50:15.0000000+00:00</time></trkpt><trkpt lat="64.15415955" lon="-21.95278931"><ele>-0.0</ele><time>2012-07-18T10:50:20.0000000+00:00</time></trkpt><trkpt lat="64.15415955" lon="-21.95278931"><ele>-0.0</ele><time>2012-07-18T10:50:25.0000000+00:00</time></trkpt><trkpt lat="64.15415955" lon="-21.95278931"><ele>-0.0</ele><time>2012-07-18T10:50:30.0000000+00:00</time></trkpt><trkpt lat="64.15415955" lon="-21.95278931"><ele>0.0</ele><time>2012-07-18T10:50:35.0000000+00:00</time></trkpt><trkpt lat="64.15415955" lon="-21.95278931"><ele>0.0</ele><time>2012-07-18T10:50:40.0000000+00:00</time></trkpt><trkpt lat="64.15415955" lon="-21.95278931"><ele>0.0</ele><time>2012-07-18T10:50:45.0000000+00:00</time></trkpt><trkpt lat="64.15415955" lon="-21.95278931"><ele>0.1</ele><time>2012-07-18T10:50:50.0000000+00:00</time></trkpt><trkpt lat="64.15415955" lon="-21.95278931"><ele>0.1</ele><time>2012-07-18T10:50:55.0000000+00:00</time></trkpt><trkpt lat="64.15415955" lon="-21.95278931"><ele>0.1</ele><time>2012-07-18T10:51:00.0000000+00:00</time></trkpt><trkpt lat="64.15415955" lon="-21.95278931"><ele>0.1</ele><time>2012-07-18T10:51:05.0000000+00:00</time></trkpt><trkpt lat="64.15415955" lon="-21.95278931"><ele>0.1</ele><time>2012-07-18T10:51:10.0000000+00:00</time></trkpt><trkpt lat="64.15415955" lon="-21.95278931"><ele>0.1</ele><time>2012-07-18T10:51:15.0000000+00:00</time></trkpt><trkpt lat="64.15415955" lon="-21.95278931"><ele>0.1</ele><time>2012-07-18T10:51:20.0000000+00:00</time></trkpt><trkpt lat="64.15415955" lon="-21.95279121"><ele>0.2</ele><time>2012-07-18T10:51:25.0000000+00:00</time></trkpt><trkpt lat="64.15415955" lon="-21.95279121"><ele>0.2</ele><time>2012-07-18T10:51:30.0000000+00:00</time></trkpt><trkpt lat="64.15415955" lon="-21.95278931"><ele>0.2</ele><time>2012-07-18T10:51:35.0000000+00:00</time></trkpt><trkpt lat="64.15415955" lon="-21.95278931"><ele>0.2</ele><time>2012-07-18T10:51:40.0000000+00:00</time></trkpt><trkpt lat="64.15415955" lon="-21.95278931"><ele>0.2</ele><time>2012-07-18T10:51:45.0000000+00:00</time></trkpt><trkpt lat="64.15415955" lon="-21.95278931"><ele>0.2</ele><time>2012-07-18T10:51:50.0000000+00:00</time></trkpt><trkpt lat="64.15415955" lon="-21.95279121"><ele>0.2</ele><time>2012-07-18T10:51:55.0000000+00:00</time></trkpt><trkpt lat="64.15415955" lon="-21.95279121"><ele>0.2</ele><time>2012-07-18T10:52:00.0000000+00:00</time></trkpt><trkpt lat="64.15415955" lon="-21.95279121"><ele>0.3</ele><time>2012-07-18T10:52:05.0000000+00:00</time></trkpt><trkpt lat="64.15415955" lon="-21.95279121"><ele>0.3</ele><time>2012-07-18T10:52:10.0000000+00:00</time></trkpt><trkpt lat="64.15415955" lon="-21.95279121"><ele>0.3</ele><time>2012-07-18T10:52:15.0000000+00:00</time></trkpt><trkpt lat="64.15415955" lon="-21.95279121"><ele>0.3</ele><time>2012-07-18T10:52:20.0000000+00:00</time></trkpt><trkpt lat="64.15415955" lon="-21.95279312"><ele>0.4</ele><time>2012-07-18T10:52:25.0000000+00:00</time></trkpt><trkpt lat="64.15415955" lon="-21.95279312"><ele>0.4</ele><time>2012-07-18T10:52:30.0000000+00:00</time></trkpt><trkpt lat="64.15415955" lon="-21.95279312"><ele>0.4</ele><time>2012-07-18T10:52:35.0000000+00:00</time></trkpt><trkpt lat="64.15415955" lon="-21.95279503"><ele>0.4</ele><time>2012-07-18T10:52:40.0000000+00:00</time></trkpt><trkpt lat="64.15415955" lon="-21.95279503"><ele>0.5</ele><time>2012-07-18T10:52:45.0000000+00:00</time></trkpt><trkpt lat="64.15415955" lon="-21.95279503"><ele>0.5</ele><time>2012-07-18T10:52:50.0000000+00:00</time></trkpt><trkpt lat="64.15415955" lon="-21.95279694"><ele>0.5</ele><time>2012-07-18T10:52:55.0000000+00:00</time></trkpt><trkpt lat="64.15415955" lon="-21.95279694"><ele>0.5</ele><time>2012-07-18T10:53:00.0000000+00:00</time></trkpt><trkpt lat="64.15415955" lon="-21.95279694"><ele>0.5</ele><time>2012-07-18T10:53:05.0000000+00:00</time></trkpt><trkpt lat="64.15415955" lon="-21.95279694"><ele>0.5</ele><time>2012-07-18T10:53:10.0000000+00:00</time></trkpt><trkpt lat="64.15415955" lon="-21.95279884"><ele>0.5</ele><time>2012-07-18T10:53:15.0000000+00:00</time></trkpt><trkpt lat="64.15415955" lon="-21.95280266"><ele>0.5</ele><time>2012-07-18T10:53:20.0000000+00:00</time></trkpt><trkpt lat="64.15415955" lon="-21.95280457"><ele>0.5</ele><time>2012-07-18T10:53:25.0000000+00:00</time></trkpt><trkpt lat="64.15415955" lon="-21.95280457"><ele>0.5</ele><time>2012-07-18T10:53:30.0000000+00:00</time></trkpt><trkpt lat="64.15415955" lon="-21.95280457"><ele>0.5</ele><time>2012-07-18T10:53:35.0000000+00:00</time></trkpt><trkpt lat="64.15415955" lon="-21.95280647"><ele>0.5</ele><time>2012-07-18T10:53:40.0000000+00:00</time></trkpt><trkpt lat="64.15415955" lon="-21.95280647"><ele>0.5</ele><time>2012-07-18T10:53:45.0000000+00:00</time></trkpt><trkpt lat="64.15415955" lon="-21.95280647"><ele>0.5</ele><time>2012-07-18T10:53:50.0000000+00:00</time></trkpt><trkpt lat="64.15415955" lon="-21.95280647"><ele>0.5</ele><time>2012-07-18T10:53:55.0000000+00:00</time></trkpt><trkpt lat="64.15415955" lon="-21.95280647"><ele>0.5</ele><time>2012-07-18T10:54:00.0000000+00:00</time></trkpt><trkpt lat="64.15415955" lon="-21.95280647"><ele>0.5</ele><time>2012-07-18T10:54:05.0000000+00:00</time></trkpt><trkpt lat="64.15415955" lon="-21.95280647"><ele>0.5</ele><time>2012-07-18T10:54:10.0000000+00:00</time></trkpt><trkpt lat="64.15415955" lon="-21.95280647"><ele>0.4</ele><time>2012-07-18T10:54:15.0000000+00:00</time></trkpt><trkpt lat="64.15415955" lon="-21.95280647"><ele>0.4</ele><time>2012-07-18T10:54:20.0000000+00:00</time></trkpt><trkpt lat="64.15415955" lon="-21.95280647"><ele>0.4</ele><time>2012-07-18T10:54:25.0000000+00:00</time></trkpt><trkpt lat="64.15415955" lon="-21.95280647"><ele>0.4</ele><time>2012-07-18T10:54:30.0000000+00:00</time></trkpt><trkpt lat="64.15415955" lon="-21.95280647"><ele>0.4</ele><time>2012-07-18T10:54:35.0000000+00:00</time></trkpt><trkpt lat="64.15415955" lon="-21.95280647"><ele>0.4</ele><time>2012-07-18T10:54:40.0000000+00:00</time></trkpt><trkpt lat="64.15415955" lon="-21.95280647"><ele>0.3</ele><time>2012-07-18T10:54:45.0000000+00:00</time></trkpt><trkpt lat="64.15415955" lon="-21.95280647"><ele>0.3</ele><time>2012-07-18T10:54:50.0000000+00:00</time></trkpt><trkpt lat="64.15415955" lon="-21.95280647"><ele>0.3</ele><time>2012-07-18T10:54:55.0000000+00:00</time></trkpt><trkpt lat="64.15415955" lon="-21.95280647"><ele>0.3</ele><time>2012-07-18T10:55:00.0000000+00:00</time></trkpt><trkpt lat="64.15415955" lon="-21.95280647"><ele>0.3</ele><time>2012-07-18T10:55:05.0000000+00:00</time></trkpt><trkpt lat="64.15415955" lon="-21.95280647"><ele>0.3</ele><time>2012-07-18T10:55:10.0000000+00:00</time></trkpt><trkpt lat="64.15415955" lon="-21.95280457"><ele>0.2</ele><time>2012-07-18T10:55:15.0000000+00:00</time></trkpt><trkpt lat="64.15415955" lon="-21.95280457"><ele>0.2</ele><time>2012-07-18T10:55:20.0000000+00:00</time></trkpt><trkpt lat="64.15415955" lon="-21.95280457"><ele>0.2</ele><time>2012-07-18T10:55:25.0000000+00:00</time></trkpt><trkpt lat="64.15415955" lon="-21.95280457"><ele>0.2</ele><time>2012-07-18T10:55:30.0000000+00:00</time></trkpt><trkpt lat="64.15415955" lon="-21.95280457"><ele>0.2</ele><time>2012-07-18T10:55:35.0000000+00:00</time></trkpt><trkpt lat="64.15415955" lon="-21.95280457"><ele>0.2</ele><time>2012-07-18T10:55:40.0000000+00:00</time></trkpt><trkpt lat="64.15415955" lon="-21.95280457"><ele>0.2</ele><time>2012-07-18T10:55:45.0000000+00:00</time></trkpt><trkpt lat="64.15415955" lon="-21.95280647"><ele>0.2</ele><time>2012-07-18T10:55:50.0000000+00:00</time></trkpt><trkpt lat="64.15415955" lon="-21.95280647"><ele>0.3</ele><time>2012-07-18T10:55:55.0000000+00:00</time></trkpt><trkpt lat="64.15415955" lon="-21.95280647"><ele>0.3</ele><time>2012-07-18T10:56:00.0000000+00:00</time></trkpt><trkpt lat="64.15415955" lon="-21.95280647"><ele>0.3</ele><time>2012-07-18T10:56:05.0000000+00:00</time></trkpt><trkpt lat="64.15415955" lon="-21.95280838"><ele>0.3</ele><time>2012-07-18T10:56:10.0000000+00:00</time></trkpt><trkpt lat="64.15415955" lon="-21.95280838"><ele>0.3</ele><time>2012-07-18T10:56:15.0000000+00:00</time></trkpt><trkpt lat="64.15415955" lon="-21.95280838"><ele>0.4</ele><time>2012-07-18T10:56:20.0000000+00:00</time></trkpt><trkpt lat="64.15415955" lon="-21.95280838"><ele>0.4</ele><time>2012-07-18T10:56:25.0000000+00:00</time></trkpt><trkpt lat="64.15415955" lon="-21.95281029"><ele>0.4</ele><time>2012-07-18T10:56:30.0000000+00:00</time></trkpt><trkpt lat="64.15415955" lon="-21.95281029"><ele>0.4</ele><time>2012-07-18T10:56:35.0000000+00:00</time></trkpt><trkpt lat="64.15415955" lon="-21.95281029"><ele>0.4</ele><time>2012-07-18T10:56:40.0000000+00:00</time></trkpt><trkpt lat="64.15415955" lon="-21.95281029"><ele>0.4</ele><time>2012-07-18T10:56:45.0000000+00:00</time></trkpt><trkpt lat="64.15415955" lon="-21.9528122"><ele>0.4</ele><time>2012-07-18T10:56:50.0000000+00:00</time></trkpt><trkpt lat="64.15415955" lon="-21.9528141"><ele>0.3</ele><time>2012-07-18T10:56:55.0000000+00:00</time></trkpt><trkpt lat="64.15415955" lon="-21.9528141"><ele>0.3</ele><time>2012-07-18T10:57:00.0000000+00:00</time></trkpt><trkpt lat="64.15415955" lon="-21.95281601"><ele>0.4</ele><time>2012-07-18T10:57:05.0000000+00:00</time></trkpt><trkpt lat="64.15415955" lon="-21.95281982"><ele>0.4</ele><time>2012-07-18T10:57:10.0000000+00:00</time></trkpt><trkpt lat="64.15415192" lon="-21.95282173"><ele>0.5</ele><time>2012-07-18T10:57:15.0000000+00:00</time></trkpt><trkpt lat="64.15415192" lon="-21.95282173"><ele>0.6</ele><time>2012-07-18T10:57:20.0000000+00:00</time></trkpt><trkpt lat="64.15415192" lon="-21.95282173"><ele>0.6</ele><time>2012-07-18T10:57:25.0000000+00:00</time></trkpt><trkpt lat="64.15415192" lon="-21.95282173"><ele>0.6</ele><time>2012-07-18T10:57:30.0000000+00:00</time></trkpt><trkpt lat="64.15415192" lon="-21.95282173"><ele>0.6</ele><time>2012-07-18T10:57:35.0000000+00:00</time></trkpt><trkpt lat="64.15415192" lon="-21.95282173"><ele>0.6</ele><time>2012-07-18T10:57:40.0000000+00:00</time></trkpt><trkpt lat="64.15415192" lon="-21.95282173"><ele>0.5</ele><time>2012-07-18T10:57:45.0000000+00:00</time></trkpt><trkpt lat="64.15415192" lon="-21.95282364"><ele>0.5</ele><time>2012-07-18T10:57:50.0000000+00:00</time></trkpt><trkpt lat="64.15415192" lon="-21.95282364"><ele>0.5</ele><time>2012-07-18T10:57:55.0000000+00:00</time></trkpt><trkpt lat="64.15415192" lon="-21.95282364"><ele>0.5</ele><time>2012-07-18T10:58:00.0000000+00:00</time></trkpt><trkpt lat="64.15415192" lon="-21.95282364"><ele>0.5</ele><time>2012-07-18T10:58:05.0000000+00:00</time></trkpt><trkpt lat="64.15415192" lon="-21.95282364"><ele>0.4</ele><time>2012-07-18T10:58:10.0000000+00:00</time></trkpt><trkpt lat="64.15415192" lon="-21.95282364"><ele>0.4</ele><time>2012-07-18T10:58:15.0000000+00:00</time></trkpt><trkpt lat="64.15415192" lon="-21.95282555"><ele>0.4</ele><time>2012-07-18T10:58:20.0000000+00:00</time></trkpt><trkpt lat="64.15415192" lon="-21.95282555"><ele>0.4</ele><time>2012-07-18T10:58:25.0000000+00:00</time></trkpt><trkpt lat="64.15415192" lon="-21.95282555"><ele>0.4</ele><time>2012-07-18T10:58:30.0000000+00:00</time></trkpt><trkpt lat="64.15415192" lon="-21.95282555"><ele>0.4</ele><time>2012-07-18T10:58:35.0000000+00:00</time></trkpt><trkpt lat="64.15415192" lon="-21.95282555"><ele>0.4</ele><time>2012-07-18T10:58:40.0000000+00:00</time></trkpt><trkpt lat="64.15415192" lon="-21.95282555"><ele>0.4</ele><time>2012-07-18T10:58:45.0000000+00:00</time></trkpt><trkpt lat="64.15415192" lon="-21.95282555"><ele>0.5</ele><time>2012-07-18T10:58:50.0000000+00:00</time></trkpt><trkpt lat="64.15415192" lon="-21.95282555"><ele>0.5</ele><time>2012-07-18T10:58:55.0000000+00:00</time></trkpt><trkpt lat="64.15415192" lon="-21.95282555"><ele>0.5</ele><time>2012-07-18T10:59:00.0000000+00:00</time></trkpt><trkpt lat="64.15415192" lon="-21.95282555"><ele>0.5</ele><time>2012-07-18T10:59:05.0000000+00:00</time></trkpt><trkpt lat="64.15415192" lon="-21.95282745"><ele>0.5</ele><time>2012-07-18T10:59:10.0000000+00:00</time></trkpt><trkpt lat="64.15415192" lon="-21.95282745"><ele>0.5</ele><time>2012-07-18T10:59:15.0000000+00:00</time></trkpt><trkpt lat="64.15415192" lon="-21.95282745"><ele>0.5</ele><time>2012-07-18T10:59:20.0000000+00:00</time></trkpt><trkpt lat="64.15415192" lon="-21.95282745"><ele>0.5</ele><time>2012-07-18T10:59:25.0000000+00:00</time></trkpt><trkpt lat="64.15415192" lon="-21.95282745"><ele>0.5</ele><time>2012-07-18T10:59:30.0000000+00:00</time></trkpt><trkpt lat="64.15415192" lon="-21.95282745"><ele>0.5</ele><time>2012-07-18T10:59:35.0000000+00:00</time></trkpt><trkpt lat="64.15415192" lon="-21.95282745"><ele>0.5</ele><time>2012-07-18T10:59:40.0000000+00:00</time></trkpt><trkpt lat="64.15415192" lon="-21.95282745"><ele>0.5</ele><time>2012-07-18T10:59:45.0000000+00:00</time></trkpt><trkpt lat="64.15415192" lon="-21.95282745"><ele>0.5</ele><time>2012-07-18T10:59:50.0000000+00:00</time></trkpt><trkpt lat="64.15415192" lon="-21.95282936"><ele>0.5</ele><time>2012-07-18T10:59:55.0000000+00:00</time></trkpt><trkpt lat="64.15414429" lon="-21.95282173"><ele>0.5</ele><time>2012-07-18T11:00:00.0000000+00:00</time></trkpt><trkpt lat="64.15414429" lon="-21.9528141"><ele>-0.5</ele><time>2012-07-18T11:00:05.0000000+00:00</time></trkpt><trkpt lat="64.15414429" lon="-21.9528141"><ele>-0.6</ele><time>2012-07-18T11:00:10.0000000+00:00</time></trkpt><trkpt lat="64.15414429" lon="-21.95279884"><ele>-0.6</ele><time>2012-07-18T11:00:15.0000000+00:00</time></trkpt><trkpt lat="64.15415192" lon="-21.95278931"><ele>-0.8</ele><time>2012-07-18T11:00:20.0000000+00:00</time></trkpt><trkpt lat="64.15415192" lon="-21.95278359"><ele>-0.8</ele><time>2012-07-18T11:00:25.0000000+00:00</time></trkpt><trkpt lat="64.15414429" lon="-21.95278549"><ele>-1.0</ele><time>2012-07-18T11:00:30.0000000+00:00</time></trkpt><trkpt lat="64.15413666" lon="-21.95278931"><ele>-1.0</ele><time>2012-07-18T11:00:35.0000000+00:00</time></trkpt><trkpt lat="64.15412903" lon="-21.95279694"><ele>-1.0</ele><time>2012-07-18T11:00:40.0000000+00:00</time></trkpt><trkpt lat="64.15412903" lon="-21.95281982"><ele>-1.1</ele><time>2012-07-18T11:00:45.0000000+00:00</time></trkpt><trkpt lat="64.1541214" lon="-21.95284462"><ele>-1.1</ele><time>2012-07-18T11:00:50.0000000+00:00</time></trkpt><trkpt lat="64.15411377" lon="-21.95286179"><ele>-1.2</ele><time>2012-07-18T11:00:55.0000000+00:00</time></trkpt><trkpt lat="64.15411377" lon="-21.95287514"><ele>-1.2</ele><time>2012-07-18T11:01:00.0000000+00:00</time></trkpt><trkpt lat="64.15409851" lon="-21.95288277"><ele>-1.3</ele><time>2012-07-18T11:01:05.0000000+00:00</time></trkpt><trkpt lat="64.15409088" lon="-21.95288658"><ele>-1.3</ele><time>2012-07-18T11:01:10.0000000+00:00</time></trkpt><trkpt lat="64.15406036" lon="-21.95290566"><ele>-1.2</ele><time>2012-07-18T11:01:15.0000000+00:00</time></trkpt><trkpt lat="64.15402985" lon="-21.95294952"><ele>-1.0</ele><time>2012-07-18T11:01:20.0000000+00:00</time></trkpt><trkpt lat="64.15400696" lon="-21.95296288"><ele>-0.8</ele><time>2012-07-18T11:01:25.0000000+00:00</time></trkpt><trkpt lat="64.15399933" lon="-21.95293999"><ele>-0.6</ele><time>2012-07-18T11:01:30.0000000+00:00</time></trkpt><trkpt lat="64.1539917" lon="-21.95293808"><ele>-0.6</ele><time>2012-07-18T11:01:35.0000000+00:00</time></trkpt><trkpt lat="64.15398407" lon="-21.95293427"><ele>-0.6</ele><time>2012-07-18T11:01:40.0000000+00:00</time></trkpt><trkpt lat="64.15398407" lon="-21.95293236"><ele>-0.6</ele><time>2012-07-18T11:01:45.0000000+00:00</time></trkpt><trkpt lat="64.15398407" lon="-21.95293045"><ele>-0.6</ele><time>2012-07-18T11:01:50.0000000+00:00</time></trkpt><trkpt lat="64.1539917" lon="-21.95292664"><ele>-0.7</ele><time>2012-07-18T11:01:55.0000000+00:00</time></trkpt><trkpt lat="64.15401459" lon="-21.9528923"><ele>-1.1</ele><time>2012-07-18T11:02:00.0000000+00:00</time></trkpt><trkpt lat="64.15402985" lon="-21.95284462"><ele>-1.4</ele><time>2012-07-18T11:02:05.0000000+00:00</time></trkpt><trkpt lat="64.15406036" lon="-21.95283318"><ele>-1.1</ele><time>2012-07-18T11:02:10.0000000+00:00</time></trkpt><trkpt lat="64.15406799" lon="-21.95284462"><ele>-0.8</ele><time>2012-07-18T11:02:15.0000000+00:00</time></trkpt><trkpt lat="64.15406799" lon="-21.95284462"><ele>-0.8</ele><time>2012-07-18T11:02:20.0000000+00:00</time></trkpt><trkpt lat="64.15406799" lon="-21.95284462"><ele>-0.8</ele><time>2012-07-18T11:02:25.0000000+00:00</time></trkpt><trkpt lat="64.15407562" lon="-21.95285034"><ele>-0.8</ele><time>2012-07-18T11:02:30.0000000+00:00</time></trkpt><trkpt lat="64.15408325" lon="-21.95285416"><ele>-0.8</ele><time>2012-07-18T11:02:35.0000000+00:00</time></trkpt><trkpt lat="64.15408325" lon="-21.95285416"><ele>-0.9</ele><time>2012-07-18T11:02:40.0000000+00:00</time></trkpt><trkpt lat="64.15408325" lon="-21.95285416"><ele>-0.9</ele><time>2012-07-18T11:02:45.0000000+00:00</time></trkpt><trkpt lat="64.15408325" lon="-21.95285606"><ele>-1.0</ele><time>2012-07-18T11:02:50.0000000+00:00</time></trkpt><trkpt lat="64.15408325" lon="-21.95285606"><ele>-0.9</ele><time>2012-07-18T11:02:55.0000000+00:00</time></trkpt><trkpt lat="64.15408325" lon="-21.95285606"><ele>-0.9</ele><time>2012-07-18T11:03:00.0000000+00:00</time></trkpt><trkpt lat="64.15408325" lon="-21.95285606"><ele>-0.9</ele><time>2012-07-18T11:03:05.0000000+00:00</time></trkpt><trkpt lat="64.15408325" lon="-21.95285606"><ele>-0.9</ele><time>2012-07-18T11:03:10.0000000+00:00</time></trkpt><trkpt lat="64.15408325" lon="-21.95285606"><ele>-0.9</ele><time>2012-07-18T11:03:15.0000000+00:00</time></trkpt><trkpt lat="64.15408325" lon="-21.95285606"><ele>-0.9</ele><time>2012-07-18T11:03:20.0000000+00:00</time></trkpt><trkpt lat="64.15408325" lon="-21.95285606"><ele>-0.9</ele><time>2012-07-18T11:03:25.0000000+00:00</time></trkpt><trkpt lat="64.15408325" lon="-21.95285606"><ele>-0.9</ele><time>2012-07-18T11:03:30.0000000+00:00</time></trkpt><trkpt lat="64.15408325" lon="-21.95285606"><ele>-0.9</ele><time>2012-07-18T11:03:35.0000000+00:00</time></trkpt><trkpt lat="64.15408325" lon="-21.95285797"><ele>-0.9</ele><time>2012-07-18T11:03:40.0000000+00:00</time></trkpt><trkpt lat="64.15408325" lon="-21.95285797"><ele>-0.9</ele><time>2012-07-18T11:03:45.0000000+00:00</time></trkpt><trkpt lat="64.15408325" lon="-21.95285797"><ele>-0.9</ele><time>2012-07-18T11:03:50.0000000+00:00</time></trkpt><trkpt lat="64.15408325" lon="-21.95285988"><ele>-0.9</ele><time>2012-07-18T11:03:55.0000000+00:00</time></trkpt><trkpt lat="64.15409088" lon="-21.95286369"><ele>-0.9</ele><time>2012-07-18T11:04:00.0000000+00:00</time></trkpt><trkpt lat="64.15409088" lon="-21.95286751"><ele>-0.8</ele><time>2012-07-18T11:04:05.0000000+00:00</time></trkpt><trkpt lat="64.15409088" lon="-21.95286942"><ele>-0.8</ele><time>2012-07-18T11:04:10.0000000+00:00</time></trkpt><trkpt lat="64.15409088" lon="-21.95286942"><ele>-0.8</ele><time>2012-07-18T11:04:15.0000000+00:00</time></trkpt><trkpt lat="64.15409088" lon="-21.95286942"><ele>-0.8</ele><time>2012-07-18T11:04:20.0000000+00:00</time></trkpt><trkpt lat="64.15409088" lon="-21.95287132"><ele>-0.7</ele><time>2012-07-18T11:04:25.0000000+00:00</time></trkpt><trkpt lat="64.15409088" lon="-21.95287132"><ele>-0.7</ele><time>2012-07-18T11:04:30.0000000+00:00</time></trkpt><trkpt lat="64.15409088" lon="-21.95287132"><ele>-0.7</ele><time>2012-07-18T11:04:35.0000000+00:00</time></trkpt><trkpt lat="64.15409088" lon="-21.95287323"><ele>-0.7</ele><time>2012-07-18T11:04:40.0000000+00:00</time></trkpt><trkpt lat="64.15409088" lon="-21.95287323"><ele>-0.7</ele><time>2012-07-18T11:04:45.0000000+00:00</time></trkpt><trkpt lat="64.15409088" lon="-21.95287323"><ele>-0.7</ele><time>2012-07-18T11:04:50.0000000+00:00</time></trkpt><trkpt lat="64.15409088" lon="-21.95287323"><ele>-0.7</ele><time>2012-07-18T11:04:55.0000000+00:00</time></trkpt><trkpt lat="64.15409088" lon="-21.95287323"><ele>-0.7</ele><time>2012-07-18T11:05:00.0000000+00:00</time></trkpt><trkpt lat="64.15409088" lon="-21.95287514"><ele>-0.7</ele><time>2012-07-18T11:05:05.0000000+00:00</time></trkpt><trkpt lat="64.15409088" lon="-21.95287705"><ele>-0.6</ele><time>2012-07-18T11:05:10.0000000+00:00</time></trkpt><trkpt lat="64.15409088" lon="-21.95287895"><ele>-0.5</ele><time>2012-07-18T11:05:15.0000000+00:00</time></trkpt><trkpt lat="64.15408325" lon="-21.95288277"><ele>-0.4</ele><time>2012-07-18T11:05:20.0000000+00:00</time></trkpt><trkpt lat="64.15408325" lon="-21.95288467"><ele>-0.3</ele><time>2012-07-18T11:05:25.0000000+00:00</time></trkpt><trkpt lat="64.15408325" lon="-21.95288658"><ele>-0.2</ele><time>2012-07-18T11:05:30.0000000+00:00</time></trkpt><trkpt lat="64.15408325" lon="-21.95288849"><ele>-0.1</ele><time>2012-07-18T11:05:35.0000000+00:00</time></trkpt><trkpt lat="64.15408325" lon="-21.9528904"><ele>0.0</ele><time>2012-07-18T11:05:40.0000000+00:00</time></trkpt><trkpt lat="64.15409088" lon="-21.95289421"><ele>0.1</ele><time>2012-07-18T11:05:45.0000000+00:00</time></trkpt><trkpt lat="64.15409851" lon="-21.95289803"><ele>0.3</ele><time>2012-07-18T11:05:50.0000000+00:00</time></trkpt><trkpt lat="64.15409851" lon="-21.95290375"><ele>0.4</ele><time>2012-07-18T11:05:55.0000000+00:00</time></trkpt><trkpt lat="64.15409851" lon="-21.95291138"><ele>0.6</ele><time>2012-07-18T11:06:00.0000000+00:00</time></trkpt><trkpt lat="64.15410614" lon="-21.95291901"><ele>0.8</ele><time>2012-07-18T11:06:05.0000000+00:00</time></trkpt><trkpt lat="64.15410614" lon="-21.95293045"><ele>1.1</ele><time>2012-07-18T11:06:10.0000000+00:00</time></trkpt><trkpt lat="64.15411377" lon="-21.95293617"><ele>1.3</ele><time>2012-07-18T11:06:15.0000000+00:00</time></trkpt><trkpt lat="64.15411377" lon="-21.9529438"><ele>1.5</ele><time>2012-07-18T11:06:20.0000000+00:00</time></trkpt><trkpt lat="64.15411377" lon="-21.95294762"><ele>1.7</ele><time>2012-07-18T11:06:25.0000000+00:00</time></trkpt><trkpt lat="64.15411377" lon="-21.95294952"><ele>1.8</ele><time>2012-07-18T11:06:30.0000000+00:00</time></trkpt><trkpt lat="64.15411377" lon="-21.95295143"><ele>1.9</ele><time>2012-07-18T11:06:35.0000000+00:00</time></trkpt><trkpt lat="64.15411377" lon="-21.95295334"><ele>2.0</ele><time>2012-07-18T11:06:40.0000000+00:00</time></trkpt><trkpt lat="64.15410614" lon="-21.95295143"><ele>2.0</ele><time>2012-07-18T11:06:45.0000000+00:00</time></trkpt><trkpt lat="64.15410614" lon="-21.95294952"><ele>2.0</ele><time>2012-07-18T11:06:50.0000000+00:00</time></trkpt><trkpt lat="64.15410614" lon="-21.95294952"><ele>2.0</ele><time>2012-07-18T11:06:55.0000000+00:00</time></trkpt><trkpt lat="64.15410614" lon="-21.95294952"><ele>2.0</ele><time>2012-07-18T11:07:00.0000000+00:00</time></trkpt><trkpt lat="64.15410614" lon="-21.95294952"><ele>2.0</ele><time>2012-07-18T11:07:05.0000000+00:00</time></trkpt><trkpt lat="64.15410614" lon="-21.95294952"><ele>2.0</ele><time>2012-07-18T11:07:10.0000000+00:00</time></trkpt><trkpt lat="64.15410614" lon="-21.95294952"><ele>2.0</ele><time>2012-07-18T11:07:15.0000000+00:00</time></trkpt><trkpt lat="64.15410614" lon="-21.95294952"><ele>2.0</ele><time>2012-07-18T11:07:20.0000000+00:00</time></trkpt><trkpt lat="64.15410614" lon="-21.95294952"><ele>2.0</ele><time>2012-07-18T11:07:25.0000000+00:00</time></trkpt><trkpt lat="64.15410614" lon="-21.95294952"><ele>2.0</ele><time>2012-07-18T11:07:30.0000000+00:00</time></trkpt><trkpt lat="64.15410614" lon="-21.95294952"><ele>2.0</ele><time>2012-07-18T11:07:35.0000000+00:00</time></trkpt><trkpt lat="64.15410614" lon="-21.95294952"><ele>2.0</ele><time>2012-07-18T11:07:40.0000000+00:00</time></trkpt><trkpt lat="64.15410614" lon="-21.95294952"><ele>2.0</ele><time>2012-07-18T11:07:45.0000000+00:00</time></trkpt><trkpt lat="64.15410614" lon="-21.95294762"><ele>2.0</ele><time>2012-07-18T11:07:50.0000000+00:00</time></trkpt><trkpt lat="64.15410614" lon="-21.95294952"><ele>2.0</ele><time>2012-07-18T11:07:55.0000000+00:00</time></trkpt><trkpt lat="64.15410614" lon="-21.95294762"><ele>2.0</ele><time>2012-07-18T11:08:00.0000000+00:00</time></trkpt><trkpt lat="64.15409851" lon="-21.95294952"><ele>2.0</ele><time>2012-07-18T11:08:05.0000000+00:00</time></trkpt><trkpt lat="64.15409851" lon="-21.95294762"><ele>2.0</ele><time>2012-07-18T11:08:10.0000000+00:00</time></trkpt><trkpt lat="64.15409851" lon="-21.95294762"><ele>1.9</ele><time>2012-07-18T11:08:15.0000000+00:00</time></trkpt><trkpt lat="64.15409851" lon="-21.95294952"><ele>1.9</ele><time>2012-07-18T11:08:20.0000000+00:00</time></trkpt><trkpt lat="64.15409851" lon="-21.95294952"><ele>1.9</ele><time>2012-07-18T11:08:25.0000000+00:00</time></trkpt><trkpt lat="64.15409851" lon="-21.95294952"><ele>1.9</ele><time>2012-07-18T11:08:30.0000000+00:00</time></trkpt><trkpt lat="64.15409851" lon="-21.95294952"><ele>1.9</ele><time>2012-07-18T11:08:35.0000000+00:00</time></trkpt><trkpt lat="64.15409851" lon="-21.95294952"><ele>1.9</ele><time>2012-07-18T11:08:40.0000000+00:00</time></trkpt><trkpt lat="64.15409851" lon="-21.95294762"><ele>1.9</ele><time>2012-07-18T11:08:45.0000000+00:00</time></trkpt><trkpt lat="64.15409851" lon="-21.95294762"><ele>1.9</ele><time>2012-07-18T11:08:50.0000000+00:00</time></trkpt><trkpt lat="64.15409851" lon="-21.95294762"><ele>1.9</ele><time>2012-07-18T11:08:55.0000000+00:00</time></trkpt><trkpt lat="64.15409851" lon="-21.95294762"><ele>1.9</ele><time>2012-07-18T11:09:00.0000000+00:00</time></trkpt><trkpt lat="64.15409851" lon="-21.95294762"><ele>1.9</ele><time>2012-07-18T11:09:05.0000000+00:00</time></trkpt><trkpt lat="64.15409851" lon="-21.95294762"><ele>1.9</ele><time>2012-07-18T11:09:10.0000000+00:00</time></trkpt><trkpt lat="64.15409851" lon="-21.95294762"><ele>1.9</ele><time>2012-07-18T11:09:15.0000000+00:00</time></trkpt><trkpt lat="64.15409851" lon="-21.95294762"><ele>1.9</ele><time>2012-07-18T11:09:20.0000000+00:00</time></trkpt><trkpt lat="64.15409851" lon="-21.95294762"><ele>1.9</ele><time>2012-07-18T11:09:25.0000000+00:00</time></trkpt><trkpt lat="64.15409851" lon="-21.95294762"><ele>1.9</ele><time>2012-07-18T11:09:30.0000000+00:00</time></trkpt><trkpt lat="64.15409851" lon="-21.95294762"><ele>1.9</ele><time>2012-07-18T11:09:35.0000000+00:00</time></trkpt><trkpt lat="64.15409851" lon="-21.95294762"><ele>1.9</ele><time>2012-07-18T11:09:40.0000000+00:00</time></trkpt><trkpt lat="64.15409851" lon="-21.95294762"><ele>1.9</ele><time>2012-07-18T11:09:45.0000000+00:00</time></trkpt><trkpt lat="64.15409851" lon="-21.95294762"><ele>1.9</ele><time>2012-07-18T11:09:50.0000000+00:00</time></trkpt><trkpt lat="64.15409851" lon="-21.95294762"><ele>1.9</ele><time>2012-07-18T11:09:55.0000000+00:00</time></trkpt><trkpt lat="64.15409851" lon="-21.95294762"><ele>1.9</ele><time>2012-07-18T11:10:00.0000000+00:00</time></trkpt><trkpt lat="64.15409851" lon="-21.95294762"><ele>1.9</ele><time>2012-07-18T11:10:05.0000000+00:00</time></trkpt><trkpt lat="64.15409851" lon="-21.95294762"><ele>1.9</ele><time>2012-07-18T11:10:10.0000000+00:00</time></trkpt><trkpt lat="64.15409851" lon="-21.95294571"><ele>1.9</ele><time>2012-07-18T11:10:15.0000000+00:00</time></trkpt><trkpt lat="64.15409851" lon="-21.95294571"><ele>1.9</ele><time>2012-07-18T11:10:20.0000000+00:00</time></trkpt><trkpt lat="64.15409851" lon="-21.95294571"><ele>1.9</ele><time>2012-07-18T11:10:25.0000000+00:00</time></trkpt><trkpt lat="64.15409851" lon="-21.95294571"><ele>1.9</ele><time>2012-07-18T11:10:30.0000000+00:00</time></trkpt><trkpt lat="64.15409851" lon="-21.95294571"><ele>1.9</ele><time>2012-07-18T11:10:35.0000000+00:00</time></trkpt><trkpt lat="64.15409851" lon="-21.95294571"><ele>1.8</ele><time>2012-07-18T11:10:40.0000000+00:00</time></trkpt><trkpt lat="64.15409851" lon="-21.9529438"><ele>1.6</ele><time>2012-07-18T11:10:45.0000000+00:00</time></trkpt><trkpt lat="64.15409851" lon="-21.9529438"><ele>1.5</ele><time>2012-07-18T11:10:50.0000000+00:00</time></trkpt><trkpt lat="64.15409851" lon="-21.9529419"><ele>1.5</ele><time>2012-07-18T11:10:55.0000000+00:00</time></trkpt><trkpt lat="64.15409851" lon="-21.9529419"><ele>1.4</ele><time>2012-07-18T11:11:00.0000000+00:00</time></trkpt><trkpt lat="64.15409851" lon="-21.9529419"><ele>1.3</ele><time>2012-07-18T11:11:05.0000000+00:00</time></trkpt><trkpt lat="64.15409851" lon="-21.9529419"><ele>1.3</ele><time>2012-07-18T11:11:10.0000000+00:00</time></trkpt><trkpt lat="64.15409851" lon="-21.9529419"><ele>1.2</ele><time>2012-07-18T11:11:15.0000000+00:00</time></trkpt><trkpt lat="64.15409851" lon="-21.95293999"><ele>1.2</ele><time>2012-07-18T11:11:20.0000000+00:00</time></trkpt><trkpt lat="64.15409851" lon="-21.95293999"><ele>1.1</ele><time>2012-07-18T11:11:25.0000000+00:00</time></trkpt><trkpt lat="64.15409851" lon="-21.95293999"><ele>1.1</ele><time>2012-07-18T11:11:30.0000000+00:00</time></trkpt><trkpt lat="64.15409851" lon="-21.95293999"><ele>1.1</ele><time>2012-07-18T11:11:35.0000000+00:00</time></trkpt><trkpt lat="64.15409851" lon="-21.9529419"><ele>1.1</ele><time>2012-07-18T11:11:40.0000000+00:00</time></trkpt><trkpt lat="64.15409851" lon="-21.9529419"><ele>1.1</ele><time>2012-07-18T11:11:45.0000000+00:00</time></trkpt><trkpt lat="64.15409851" lon="-21.9529419"><ele>1.1</ele><time>2012-07-18T11:11:50.0000000+00:00</time></trkpt><trkpt lat="64.15409851" lon="-21.9529419"><ele>1.1</ele><time>2012-07-18T11:11:55.0000000+00:00</time></trkpt><trkpt lat="64.15409851" lon="-21.9529438"><ele>1.1</ele><time>2012-07-18T11:12:00.0000000+00:00</time></trkpt><trkpt lat="64.15409851" lon="-21.95294571"><ele>1.1</ele><time>2012-07-18T11:12:05.0000000+00:00</time></trkpt><trkpt lat="64.15409851" lon="-21.95294571"><ele>1.0</ele><time>2012-07-18T11:12:10.0000000+00:00</time></trkpt><trkpt lat="64.15409851" lon="-21.95294571"><ele>1.0</ele><time>2012-07-18T11:12:15.0000000+00:00</time></trkpt><trkpt lat="64.15409851" lon="-21.95294762"><ele>1.0</ele><time>2012-07-18T11:12:20.0000000+00:00</time></trkpt><trkpt lat="64.15409851" lon="-21.95294762"><ele>1.0</ele><time>2012-07-18T11:12:25.0000000+00:00</time></trkpt><trkpt lat="64.15409851" lon="-21.95294762"><ele>1.0</ele><time>2012-07-18T11:12:30.0000000+00:00</time></trkpt><trkpt lat="64.15409851" lon="-21.95294762"><ele>1.0</ele><time>2012-07-18T11:12:35.0000000+00:00</time></trkpt><trkpt lat="64.15409851" lon="-21.95294952"><ele>1.0</ele><time>2012-07-18T11:12:40.0000000+00:00</time></trkpt><trkpt lat="64.15409851" lon="-21.95294952"><ele>1.1</ele><time>2012-07-18T11:12:45.0000000+00:00</time></trkpt><trkpt lat="64.15409851" lon="-21.95294952"><ele>1.1</ele><time>2012-07-18T11:12:50.0000000+00:00</time></trkpt><trkpt lat="64.15409851" lon="-21.95294952"><ele>1.1</ele><time>2012-07-18T11:12:55.0000000+00:00</time></trkpt><trkpt lat="64.15409851" lon="-21.95294952"><ele>1.1</ele><time>2012-07-18T11:13:00.0000000+00:00</time></trkpt><trkpt lat="64.15409851" lon="-21.95295525"><ele>1.1</ele><time>2012-07-18T11:13:05.0000000+00:00</time></trkpt><trkpt lat="64.15409851" lon="-21.9529686"><ele>1.1</ele><time>2012-07-18T11:13:10.0000000+00:00</time></trkpt><trkpt lat="64.15409088" lon="-21.95298767"><ele>1.2</ele><time>2012-07-18T11:13:15.0000000+00:00</time></trkpt><trkpt lat="64.15409088" lon="-21.95300674"><ele>1.2</ele><time>2012-07-18T11:13:20.0000000+00:00</time></trkpt><trkpt lat="64.15409088" lon="-21.95302582"><ele>1.1</ele><time>2012-07-18T11:13:25.0000000+00:00</time></trkpt><trkpt lat="64.15408325" lon="-21.95303726"><ele>0.9</ele><time>2012-07-18T11:13:30.0000000+00:00</time></trkpt><trkpt lat="64.15408325" lon="-21.95304108"><ele>0.7</ele><time>2012-07-18T11:13:35.0000000+00:00</time></trkpt><trkpt lat="64.15407562" lon="-21.95303726"><ele>0.5</ele><time>2012-07-18T11:13:40.0000000+00:00</time></trkpt><trkpt lat="64.15406799" lon="-21.95303536"><ele>0.4</ele><time>2012-07-18T11:13:45.0000000+00:00</time></trkpt><trkpt lat="64.15406036" lon="-21.95302963"><ele>0.4</ele><time>2012-07-18T11:13:50.0000000+00:00</time></trkpt><trkpt lat="64.15405273" lon="-21.95302773"><ele>0.6</ele><time>2012-07-18T11:13:55.0000000+00:00</time></trkpt><trkpt lat="64.15404511" lon="-21.9530201"><ele>1.0</ele><time>2012-07-18T11:14:00.0000000+00:00</time></trkpt><trkpt lat="64.15403748" lon="-21.95301437"><ele>1.7</ele><time>2012-07-18T11:14:05.0000000+00:00</time></trkpt><trkpt lat="64.15402985" lon="-21.95301056"><ele>2.4</ele><time>2012-07-18T11:14:10.0000000+00:00</time></trkpt><trkpt lat="64.15402985" lon="-21.95301247"><ele>3.4</ele><time>2012-07-18T11:14:15.0000000+00:00</time></trkpt><trkpt lat="64.15403748" lon="-21.953022"><ele>4.5</ele><time>2012-07-18T11:14:20.0000000+00:00</time></trkpt><trkpt lat="64.15404511" lon="-21.95302582"><ele>5.7</ele><time>2012-07-18T11:14:25.0000000+00:00</time></trkpt><trkpt lat="64.15406036" lon="-21.95302582"><ele>7.1</ele><time>2012-07-18T11:14:30.0000000+00:00</time></trkpt><trkpt lat="64.15406799" lon="-21.95302773"><ele>8.7</ele><time>2012-07-18T11:14:35.0000000+00:00</time></trkpt><trkpt lat="64.15406799" lon="-21.95303154"><ele>10.3</ele><time>2012-07-18T11:14:40.0000000+00:00</time></trkpt><trkpt lat="64.15406036" lon="-21.95303536"><ele>12.0</ele><time>2012-07-18T11:14:45.0000000+00:00</time></trkpt><trkpt lat="64.15406036" lon="-21.95303726"><ele>13.8</ele><time>2012-07-18T11:14:50.0000000+00:00</time></trkpt><trkpt lat="64.15406036" lon="-21.95304298"><ele>15.9</ele><time>2012-07-18T11:14:55.0000000+00:00</time></trkpt><trkpt lat="64.15405273" lon="-21.95305061"><ele>17.9</ele><time>2012-07-18T11:15:00.0000000+00:00</time></trkpt><trkpt lat="64.15404511" lon="-21.95305061"><ele>19.9</ele><time>2012-07-18T11:15:05.0000000+00:00</time></trkpt><trkpt lat="64.15404511" lon="-21.95305443"><ele>21.2</ele><time>2012-07-18T11:15:10.0000000+00:00</time></trkpt><trkpt lat="64.15405273" lon="-21.95305443"><ele>22.4</ele><time>2012-07-18T11:15:15.0000000+00:00</time></trkpt><trkpt lat="64.15405273" lon="-21.95305252"><ele>23.6</ele><time>2012-07-18T11:15:20.0000000+00:00</time></trkpt><trkpt lat="64.15404511" lon="-21.95303726"><ele>25.0</ele><time>2012-07-18T11:15:25.0000000+00:00</time></trkpt><trkpt lat="64.15404511" lon="-21.95302582"><ele>26.4</ele><time>2012-07-18T11:15:30.0000000+00:00</time></trkpt><trkpt lat="64.15403748" lon="-21.95300484"><ele>27.8</ele><time>2012-07-18T11:15:35.0000000+00:00</time></trkpt><trkpt lat="64.15403748" lon="-21.95291328"><ele>28.9</ele><time>2012-07-18T11:15:40.0000000+00:00</time></trkpt><trkpt lat="64.15403748" lon="-21.95282555"><ele>29.8</ele><time>2012-07-18T11:15:45.0000000+00:00</time></trkpt><trkpt lat="64.15402985" lon="-21.95279884"><ele>30.5</ele><time>2012-07-18T11:15:50.0000000+00:00</time></trkpt><trkpt lat="64.15402985" lon="-21.95278549"><ele>31.7</ele><time>2012-07-18T11:15:55.0000000+00:00</time></trkpt><trkpt lat="64.15402985" lon="-21.95277977"><ele>32.9</ele><time>2012-07-18T11:16:00.0000000+00:00</time></trkpt><trkpt lat="64.15402222" lon="-21.95278931"><ele>34.1</ele><time>2012-07-18T11:16:05.0000000+00:00</time></trkpt><trkpt lat="64.15401459" lon="-21.95282364"><ele>34.7</ele><time>2012-07-18T11:16:10.0000000+00:00</time></trkpt><trkpt lat="64.15401459" lon="-21.95285988"><ele>33.6</ele><time>2012-07-18T11:16:15.0000000+00:00</time></trkpt><trkpt lat="64.15402222" lon="-21.95287895"><ele>33.9</ele><time>2012-07-18T11:16:20.0000000+00:00</time></trkpt><trkpt lat="64.15402222" lon="-21.95293427"><ele>34.1</ele><time>2012-07-18T11:16:25.0000000+00:00</time></trkpt><trkpt lat="64.15402222" lon="-21.95293427"><ele>35.1</ele><time>2012-07-18T11:16:30.0000000+00:00</time></trkpt><trkpt lat="64.15401459" lon="-21.95294571"><ele>35.9</ele><time>2012-07-18T11:16:35.0000000+00:00</time></trkpt><trkpt lat="64.15401459" lon="-21.95295906"><ele>36.8</ele><time>2012-07-18T11:16:40.0000000+00:00</time></trkpt><trkpt lat="64.15400696" lon="-21.95297051"><ele>37.7</ele><time>2012-07-18T11:16:45.0000000+00:00</time></trkpt><trkpt lat="64.15400696" lon="-21.95298004"><ele>38.4</ele><time>2012-07-18T11:16:50.0000000+00:00</time></trkpt><trkpt lat="64.15400696" lon="-21.95297241"><ele>39.1</ele><time>2012-07-18T11:16:55.0000000+00:00</time></trkpt><trkpt lat="64.15400696" lon="-21.95295143"><ele>39.7</ele><time>2012-07-18T11:17:00.0000000+00:00</time></trkpt><trkpt lat="64.15400696" lon="-21.95293045"><ele>40.3</ele><time>2012-07-18T11:17:05.0000000+00:00</time></trkpt><trkpt lat="64.15400696" lon="-21.95291519"><ele>40.9</ele><time>2012-07-18T11:17:10.0000000+00:00</time></trkpt><trkpt lat="64.15400696" lon="-21.95291328"><ele>41.5</ele><time>2012-07-18T11:17:15.0000000+00:00</time></trkpt><trkpt lat="64.15400696" lon="-21.95292282"><ele>42.0</ele><time>2012-07-18T11:17:20.0000000+00:00</time></trkpt><trkpt lat="64.15400696" lon="-21.95293999"><ele>42.4</ele><time>2012-07-18T11:17:25.0000000+00:00</time></trkpt><trkpt lat="64.15399933" lon="-21.95300865"><ele>43.2</ele><time>2012-07-18T11:17:30.0000000+00:00</time></trkpt><trkpt lat="64.15398407" lon="-21.95309067"><ele>44.7</ele><time>2012-07-18T11:17:35.0000000+00:00</time></trkpt><trkpt lat="64.15397644" lon="-21.95315933"><ele>46.2</ele><time>2012-07-18T11:17:40.0000000+00:00</time></trkpt><trkpt lat="64.15397644" lon="-21.95324135"><ele>47.3</ele><time>2012-07-18T11:17:45.0000000+00:00</time></trkpt><trkpt lat="64.15397644" lon="-21.9532814"><ele>48.6</ele><time>2012-07-18T11:17:50.0000000+00:00</time></trkpt><trkpt lat="64.15397644" lon="-21.95330238"><ele>49.3</ele><time>2012-07-18T11:17:55.0000000+00:00</time></trkpt><trkpt lat="64.15397644" lon="-21.95332336"><ele>49.8</ele><time>2012-07-18T11:18:00.0000000+00:00</time></trkpt><trkpt lat="64.15398407" lon="-21.9533329"><ele>50.3</ele><time>2012-07-18T11:18:05.0000000+00:00</time></trkpt><trkpt lat="64.15398407" lon="-21.95333672"><ele>50.7</ele><time>2012-07-18T11:18:10.0000000+00:00</time></trkpt><trkpt lat="64.15397644" lon="-21.95334244"><ele>51.1</ele><time>2012-07-18T11:18:15.0000000+00:00</time></trkpt><trkpt lat="64.15397644" lon="-21.95334625"><ele>51.4</ele><time>2012-07-18T11:18:20.0000000+00:00</time></trkpt><trkpt lat="64.15397644" lon="-21.95335388"><ele>51.6</ele><time>2012-07-18T11:18:25.0000000+00:00</time></trkpt><trkpt lat="64.15397644" lon="-21.95336342"><ele>51.6</ele><time>2012-07-18T11:18:30.0000000+00:00</time></trkpt><trkpt lat="64.15396881" lon="-21.95336723"><ele>51.7</ele><time>2012-07-18T11:18:35.0000000+00:00</time></trkpt><trkpt lat="64.15396881" lon="-21.95336723"><ele>51.7</ele><time>2012-07-18T11:18:40.0000000+00:00</time></trkpt><trkpt lat="64.15396881" lon="-21.95336914"><ele>51.8</ele><time>2012-07-18T11:18:45.0000000+00:00</time></trkpt><trkpt lat="64.15396881" lon="-21.95336914"><ele>51.8</ele><time>2012-07-18T11:18:50.0000000+00:00</time></trkpt><trkpt lat="64.15396881" lon="-21.95336914"><ele>51.8</ele><time>2012-07-18T11:18:55.0000000+00:00</time></trkpt><trkpt lat="64.15397644" lon="-21.95336914"><ele>51.8</ele><time>2012-07-18T11:19:00.0000000+00:00</time></trkpt><trkpt lat="64.15397644" lon="-21.95336914"><ele>51.9</ele><time>2012-07-18T11:19:05.0000000+00:00</time></trkpt><trkpt lat="64.15397644" lon="-21.95336914"><ele>51.9</ele><time>2012-07-18T11:19:10.0000000+00:00</time></trkpt><trkpt lat="64.15397644" lon="-21.95337105"><ele>51.9</ele><time>2012-07-18T11:19:15.0000000+00:00</time></trkpt><trkpt lat="64.15397644" lon="-21.95337105"><ele>51.9</ele><time>2012-07-18T11:19:20.0000000+00:00</time></trkpt><trkpt lat="64.15397644" lon="-21.95337105"><ele>51.9</ele><time>2012-07-18T11:19:25.0000000+00:00</time></trkpt><trkpt lat="64.15397644" lon="-21.95337105"><ele>51.9</ele><time>2012-07-18T11:19:30.0000000+00:00</time></trkpt><trkpt lat="64.15397644" lon="-21.95337296"><ele>51.9</ele><time>2012-07-18T11:19:35.0000000+00:00</time></trkpt><trkpt lat="64.15397644" lon="-21.95337296"><ele>52.0</ele><time>2012-07-18T11:19:40.0000000+00:00</time></trkpt><trkpt lat="64.15397644" lon="-21.95337486"><ele>52.0</ele><time>2012-07-18T11:19:45.0000000+00:00</time></trkpt><trkpt lat="64.15397644" lon="-21.95337677"><ele>52.0</ele><time>2012-07-18T11:19:50.0000000+00:00</time></trkpt><trkpt lat="64.15397644" lon="-21.95337677"><ele>52.0</ele><time>2012-07-18T11:19:55.0000000+00:00</time></trkpt><trkpt lat="64.15397644" lon="-21.95337868"><ele>52.0</ele><time>2012-07-18T11:20:00.0000000+00:00</time></trkpt><trkpt lat="64.15397644" lon="-21.95337868"><ele>52.0</ele><time>2012-07-18T11:20:05.0000000+00:00</time></trkpt><trkpt lat="64.15397644" lon="-21.95337868"><ele>52.0</ele><time>2012-07-18T11:20:10.0000000+00:00</time></trkpt><trkpt lat="64.15397644" lon="-21.95338059"><ele>52.0</ele><time>2012-07-18T11:20:15.0000000+00:00</time></trkpt><trkpt lat="64.15397644" lon="-21.95338249"><ele>52.0</ele><time>2012-07-18T11:20:20.0000000+00:00</time></trkpt><trkpt lat="64.15397644" lon="-21.95338249"><ele>52.0</ele><time>2012-07-18T11:20:25.0000000+00:00</time></trkpt><trkpt lat="64.15397644" lon="-21.9533844"><ele>51.9</ele><time>2012-07-18T11:20:30.0000000+00:00</time></trkpt><trkpt lat="64.15397644" lon="-21.9533844"><ele>51.9</ele><time>2012-07-18T11:20:35.0000000+00:00</time></trkpt><trkpt lat="64.15397644" lon="-21.95338249"><ele>51.8</ele><time>2012-07-18T11:20:40.0000000+00:00</time></trkpt><trkpt lat="64.15397644" lon="-21.9533844"><ele>51.8</ele><time>2012-07-18T11:20:45.0000000+00:00</time></trkpt><trkpt lat="64.15397644" lon="-21.9533844"><ele>51.7</ele><time>2012-07-18T11:20:50.0000000+00:00</time></trkpt><trkpt lat="64.15397644" lon="-21.9533844"><ele>51.7</ele><time>2012-07-18T11:20:55.0000000+00:00</time></trkpt><trkpt lat="64.15397644" lon="-21.9533844"><ele>51.6</ele><time>2012-07-18T11:21:00.0000000+00:00</time></trkpt><trkpt lat="64.15397644" lon="-21.9533844"><ele>51.5</ele><time>2012-07-18T11:21:05.0000000+00:00</time></trkpt><trkpt lat="64.15397644" lon="-21.9533844"><ele>51.5</ele><time>2012-07-18T11:21:10.0000000+00:00</time></trkpt><trkpt lat="64.15397644" lon="-21.9533844"><ele>51.4</ele><time>2012-07-18T11:21:15.0000000+00:00</time></trkpt><trkpt lat="64.15397644" lon="-21.9533844"><ele>51.4</ele><time>2012-07-18T11:21:20.0000000+00:00</time></trkpt><trkpt lat="64.15397644" lon="-21.9533844"><ele>51.4</ele><time>2012-07-18T11:21:25.0000000+00:00</time></trkpt><trkpt lat="64.15397644" lon="-21.9533844"><ele>51.4</ele><time>2012-07-18T11:21:30.0000000+00:00</time></trkpt><trkpt lat="64.15397644" lon="-21.9533844"><ele>51.3</ele><time>2012-07-18T11:21:35.0000000+00:00</time></trkpt><trkpt lat="64.15397644" lon="-21.9533844"><ele>51.3</ele><time>2012-07-18T11:21:40.0000000+00:00</time></trkpt><trkpt lat="64.15397644" lon="-21.9533844"><ele>51.3</ele><time>2012-07-18T11:21:45.0000000+00:00</time></trkpt><trkpt lat="64.15397644" lon="-21.95338631"><ele>51.3</ele><time>2012-07-18T11:21:50.0000000+00:00</time></trkpt><trkpt lat="64.15397644" lon="-21.95338631"><ele>51.3</ele><time>2012-07-18T11:21:55.0000000+00:00</time></trkpt><trkpt lat="64.15397644" lon="-21.95338631"><ele>51.3</ele><time>2012-07-18T11:22:00.0000000+00:00</time></trkpt><trkpt lat="64.15397644" lon="-21.95338631"><ele>51.3</ele><time>2012-07-18T11:22:05.0000000+00:00</time></trkpt><trkpt lat="64.15397644" lon="-21.9533844"><ele>51.2</ele><time>2012-07-18T11:22:10.0000000+00:00</time></trkpt><trkpt lat="64.15397644" lon="-21.9533844"><ele>51.2</ele><time>2012-07-18T11:22:15.0000000+00:00</time></trkpt><trkpt lat="64.15397644" lon="-21.9533844"><ele>51.1</ele><time>2012-07-18T11:22:20.0000000+00:00</time></trkpt><trkpt lat="64.15397644" lon="-21.9533844"><ele>51.1</ele><time>2012-07-18T11:22:25.0000000+00:00</time></trkpt><trkpt lat="64.15397644" lon="-21.9533844"><ele>51.0</ele><time>2012-07-18T11:22:30.0000000+00:00</time></trkpt><trkpt lat="64.15397644" lon="-21.9533844"><ele>51.0</ele><time>2012-07-18T11:22:35.0000000+00:00</time></trkpt><trkpt lat="64.15397644" lon="-21.95338631"><ele>50.9</ele><time>2012-07-18T11:22:40.0000000+00:00</time></trkpt><trkpt lat="64.15396881" lon="-21.95339394"><ele>50.6</ele><time>2012-07-18T11:22:45.0000000+00:00</time></trkpt><trkpt lat="64.15396881" lon="-21.9534092"><ele>50.1</ele><time>2012-07-18T11:22:50.0000000+00:00</time></trkpt><trkpt lat="64.15396118" lon="-21.95342827"><ele>49.4</ele><time>2012-07-18T11:22:55.0000000+00:00</time></trkpt><trkpt lat="64.15396881" lon="-21.95343399"><ele>48.7</ele><time>2012-07-18T11:23:00.0000000+00:00</time></trkpt><trkpt lat="64.15397644" lon="-21.95343971"><ele>47.8</ele><time>2012-07-18T11:23:05.0000000+00:00</time></trkpt><trkpt lat="64.15398407" lon="-21.95344734"><ele>46.9</ele><time>2012-07-18T11:23:10.0000000+00:00</time></trkpt><trkpt lat="64.1539917" lon="-21.95345497"><ele>46.0</ele><time>2012-07-18T11:23:15.0000000+00:00</time></trkpt><trkpt lat="64.15399933" lon="-21.95345879"><ele>45.1</ele><time>2012-07-18T11:23:20.0000000+00:00</time></trkpt><trkpt lat="64.15399933" lon="-21.95345688"><ele>44.2</ele><time>2012-07-18T11:23:25.0000000+00:00</time></trkpt><trkpt lat="64.15400696" lon="-21.95344925"><ele>43.4</ele><time>2012-07-18T11:23:30.0000000+00:00</time></trkpt><trkpt lat="64.15400696" lon="-21.9534359"><ele>42.5</ele><time>2012-07-18T11:23:35.0000000+00:00</time></trkpt><trkpt lat="64.15400696" lon="-21.95341873"><ele>41.8</ele><time>2012-07-18T11:23:40.0000000+00:00</time></trkpt><trkpt lat="64.15400696" lon="-21.95339966"><ele>41.2</ele><time>2012-07-18T11:23:45.0000000+00:00</time></trkpt><trkpt lat="64.15399933" lon="-21.95337868"><ele>40.7</ele><time>2012-07-18T11:23:50.0000000+00:00</time></trkpt><trkpt lat="64.1539917" lon="-21.9533577"><ele>40.3</ele><time>2012-07-18T11:23:55.0000000+00:00</time></trkpt><trkpt lat="64.15397644" lon="-21.95332336"><ele>39.4</ele><time>2012-07-18T11:24:00.0000000+00:00</time></trkpt><trkpt lat="64.15397644" lon="-21.95329285"><ele>37.9</ele><time>2012-07-18T11:24:05.0000000+00:00</time></trkpt><trkpt lat="64.15397644" lon="-21.95327759"><ele>37.2</ele><time>2012-07-18T11:24:10.0000000+00:00</time></trkpt><trkpt lat="64.15397644" lon="-21.95327187"><ele>36.7</ele><time>2012-07-18T11:24:15.0000000+00:00</time></trkpt><trkpt lat="64.15398407" lon="-21.95326424"><ele>36.2</ele><time>2012-07-18T11:24:20.0000000+00:00</time></trkpt><trkpt lat="64.15397644" lon="-21.9532547"><ele>35.8</ele><time>2012-07-18T11:24:25.0000000+00:00</time></trkpt><trkpt lat="64.15397644" lon="-21.95324707"><ele>35.3</ele><time>2012-07-18T11:24:30.0000000+00:00</time></trkpt><trkpt lat="64.15397644" lon="-21.95323753"><ele>34.8</ele><time>2012-07-18T11:24:35.0000000+00:00</time></trkpt><trkpt lat="64.15396881" lon="-21.95323181"><ele>34.3</ele><time>2012-07-18T11:24:40.0000000+00:00</time></trkpt><trkpt lat="64.15396881" lon="-21.9532299"><ele>33.8</ele><time>2012-07-18T11:24:45.0000000+00:00</time></trkpt><trkpt lat="64.15396881" lon="-21.953228"><ele>33.4</ele><time>2012-07-18T11:24:50.0000000+00:00</time></trkpt><trkpt lat="64.15396118" lon="-21.953228"><ele>32.9</ele><time>2012-07-18T11:24:55.0000000+00:00</time></trkpt><trkpt lat="64.15396118" lon="-21.9532299"><ele>32.4</ele><time>2012-07-18T11:25:00.0000000+00:00</time></trkpt><trkpt lat="64.15395355" lon="-21.95323181"><ele>31.9</ele><time>2012-07-18T11:25:05.0000000+00:00</time></trkpt><trkpt lat="64.15395355" lon="-21.95323944"><ele>31.5</ele><time>2012-07-18T11:25:10.0000000+00:00</time></trkpt><trkpt lat="64.15394592" lon="-21.95324516"><ele>31.0</ele><time>2012-07-18T11:25:15.0000000+00:00</time></trkpt><trkpt lat="64.15394592" lon="-21.95324516"><ele>30.6</ele><time>2012-07-18T11:25:20.0000000+00:00</time></trkpt><trkpt lat="64.15394592" lon="-21.95324516"><ele>30.1</ele><time>2012-07-18T11:25:25.0000000+00:00</time></trkpt><trkpt lat="64.15393829" lon="-21.95324707"><ele>29.7</ele><time>2012-07-18T11:25:30.0000000+00:00</time></trkpt><trkpt lat="64.15393829" lon="-21.95324898"><ele>29.3</ele><time>2012-07-18T11:25:35.0000000+00:00</time></trkpt><trkpt lat="64.15393829" lon="-21.95325089"><ele>28.9</ele><time>2012-07-18T11:25:40.0000000+00:00</time></trkpt><trkpt lat="64.15393066" lon="-21.9532547"><ele>28.5</ele><time>2012-07-18T11:25:45.0000000+00:00</time></trkpt><trkpt lat="64.15393066" lon="-21.95325851"><ele>28.1</ele><time>2012-07-18T11:25:50.0000000+00:00</time></trkpt><trkpt lat="64.15393066" lon="-21.95325851"><ele>27.7</ele><time>2012-07-18T11:25:55.0000000+00:00</time></trkpt><trkpt lat="64.15392304" lon="-21.95325661"><ele>27.3</ele><time>2012-07-18T11:26:00.0000000+00:00</time></trkpt><trkpt lat="64.15392304" lon="-21.95325851"><ele>27.0</ele><time>2012-07-18T11:26:05.0000000+00:00</time></trkpt><trkpt lat="64.15392304" lon="-21.95326042"><ele>26.6</ele><time>2012-07-18T11:26:10.0000000+00:00</time></trkpt><trkpt lat="64.15392304" lon="-21.95326233"><ele>26.3</ele><time>2012-07-18T11:26:15.0000000+00:00</time></trkpt><trkpt lat="64.15392304" lon="-21.95326614"><ele>25.9</ele><time>2012-07-18T11:26:20.0000000+00:00</time></trkpt><trkpt lat="64.15392304" lon="-21.95326424"><ele>25.6</ele><time>2012-07-18T11:26:25.0000000+00:00</time></trkpt><trkpt lat="64.15392304" lon="-21.95325851"><ele>25.3</ele><time>2012-07-18T11:26:30.0000000+00:00</time></trkpt><trkpt lat="64.15392304" lon="-21.95325089"><ele>25.0</ele><time>2012-07-18T11:26:35.0000000+00:00</time></trkpt><trkpt lat="64.15392304" lon="-21.95325279"><ele>24.7</ele><time>2012-07-18T11:26:40.0000000+00:00</time></trkpt><trkpt lat="64.15392304" lon="-21.95325279"><ele>24.5</ele><time>2012-07-18T11:26:45.0000000+00:00</time></trkpt><trkpt lat="64.15392304" lon="-21.9532547"><ele>24.3</ele><time>2012-07-18T11:26:50.0000000+00:00</time></trkpt><trkpt lat="64.15392304" lon="-21.9532547"><ele>24.2</ele><time>2012-07-18T11:26:55.0000000+00:00</time></trkpt><trkpt lat="64.15392304" lon="-21.9532547"><ele>24.1</ele><time>2012-07-18T11:27:00.0000000+00:00</time></trkpt><trkpt lat="64.15392304" lon="-21.9532547"><ele>24.0</ele><time>2012-07-18T11:27:05.0000000+00:00</time></trkpt><trkpt lat="64.15393066" lon="-21.95325661"><ele>23.9</ele><time>2012-07-18T11:27:10.0000000+00:00</time></trkpt><trkpt lat="64.15394592" lon="-21.95325851"><ele>23.7</ele><time>2012-07-18T11:27:15.0000000+00:00</time></trkpt><trkpt lat="64.15400696" lon="-21.9532299"><ele>23.0</ele><time>2012-07-18T11:27:20.0000000+00:00</time></trkpt><trkpt lat="64.1539917" lon="-21.95326042"><ele>22.9</ele><time>2012-07-18T11:27:25.0000000+00:00</time></trkpt><trkpt lat="64.1539917" lon="-21.95324707"><ele>22.6</ele><time>2012-07-18T11:27:30.0000000+00:00</time></trkpt><trkpt lat="64.1539917" lon="-21.95324707"><ele>22.4</ele><time>2012-07-18T11:27:35.0000000+00:00</time></trkpt><trkpt lat="64.1539917" lon="-21.95324898"><ele>22.2</ele><time>2012-07-18T11:27:40.0000000+00:00</time></trkpt><trkpt lat="64.15398407" lon="-21.95324707"><ele>21.9</ele><time>2012-07-18T11:27:45.0000000+00:00</time></trkpt><trkpt lat="64.15398407" lon="-21.9532547"><ele>21.6</ele><time>2012-07-18T11:27:50.0000000+00:00</time></trkpt><trkpt lat="64.15398407" lon="-21.95326042"><ele>21.2</ele><time>2012-07-18T11:27:55.0000000+00:00</time></trkpt><trkpt lat="64.15398407" lon="-21.95326233"><ele>20.8</ele><time>2012-07-18T11:28:00.0000000+00:00</time></trkpt><trkpt lat="64.15397644" lon="-21.95326042"><ele>20.3</ele><time>2012-07-18T11:28:05.0000000+00:00</time></trkpt><trkpt lat="64.15397644" lon="-21.95325851"><ele>19.8</ele><time>2012-07-18T11:28:10.0000000+00:00</time></trkpt><trkpt lat="64.15398407" lon="-21.95324516"><ele>19.3</ele><time>2012-07-18T11:28:15.0000000+00:00</time></trkpt><trkpt lat="64.1539917" lon="-21.95323181"><ele>18.7</ele><time>2012-07-18T11:28:20.0000000+00:00</time></trkpt><trkpt lat="64.15399933" lon="-21.95322228"><ele>18.1</ele><time>2012-07-18T11:28:25.0000000+00:00</time></trkpt><trkpt lat="64.15400696" lon="-21.95321465"><ele>17.5</ele><time>2012-07-18T11:28:30.0000000+00:00</time></trkpt><trkpt lat="64.15400696" lon="-21.95320511"><ele>17.0</ele><time>2012-07-18T11:28:35.0000000+00:00</time></trkpt><trkpt lat="64.15400696" lon="-21.95319748"><ele>16.5</ele><time>2012-07-18T11:28:40.0000000+00:00</time></trkpt><trkpt lat="64.15400696" lon="-21.95319939"><ele>16.0</ele><time>2012-07-18T11:28:45.0000000+00:00</time></trkpt><trkpt lat="64.15399933" lon="-21.95320129"><ele>15.6</ele><time>2012-07-18T11:28:50.0000000+00:00</time></trkpt><trkpt lat="64.15399933" lon="-21.9532032"><ele>15.1</ele><time>2012-07-18T11:28:55.0000000+00:00</time></trkpt><trkpt lat="64.15399933" lon="-21.95319748"><ele>14.7</ele><time>2012-07-18T11:29:00.0000000+00:00</time></trkpt><trkpt lat="64.15399933" lon="-21.95319557"><ele>14.2</ele><time>2012-07-18T11:29:05.0000000+00:00</time></trkpt><trkpt lat="64.15399933" lon="-21.95319367"><ele>13.9</ele><time>2012-07-18T11:29:10.0000000+00:00</time></trkpt><trkpt lat="64.1539917" lon="-21.95319176"><ele>13.5</ele><time>2012-07-18T11:29:15.0000000+00:00</time></trkpt><trkpt lat="64.15398407" lon="-21.95318985"><ele>13.1</ele><time>2012-07-18T11:29:20.0000000+00:00</time></trkpt><trkpt lat="64.15397644" lon="-21.95318222"><ele>12.4</ele><time>2012-07-18T11:29:25.0000000+00:00</time></trkpt><trkpt lat="64.15399933" lon="-21.95317078"><ele>13.4</ele><time>2012-07-18T11:29:30.0000000+00:00</time></trkpt><trkpt lat="64.15399933" lon="-21.95318031"><ele>13.1</ele><time>2012-07-18T11:29:35.0000000+00:00</time></trkpt><trkpt lat="64.15399933" lon="-21.95318413"><ele>12.8</ele><time>2012-07-18T11:29:40.0000000+00:00</time></trkpt><trkpt lat="64.15399933" lon="-21.95318222"><ele>12.8</ele><time>2012-07-18T11:29:45.0000000+00:00</time></trkpt><trkpt lat="64.15399933" lon="-21.95318222"><ele>12.8</ele><time>2012-07-18T11:29:50.0000000+00:00</time></trkpt><trkpt lat="64.15398407" lon="-21.95313072"><ele>12.6</ele><time>2012-07-18T11:29:55.0000000+00:00</time></trkpt><trkpt lat="64.15390778" lon="-21.95290375"><ele>10.6</ele><time>2012-07-18T11:30:00.0000000+00:00</time></trkpt><trkpt lat="64.15380859" lon="-21.95272255"><ele>10.6</ele><time>2012-07-18T11:30:05.0000000+00:00</time></trkpt><trkpt lat="64.15376282" lon="-21.95271111"><ele>9.2</ele><time>2012-07-18T11:30:10.0000000+00:00</time></trkpt><trkpt lat="64.15373993" lon="-21.95269585"><ele>8.3</ele><time>2012-07-18T11:30:15.0000000+00:00</time></trkpt><trkpt lat="64.15366364" lon="-21.95270729"><ele>8.0</ele><time>2012-07-18T11:30:20.0000000+00:00</time></trkpt><trkpt lat="64.15354157" lon="-21.95287705"><ele>7.4</ele><time>2012-07-18T11:30:25.0000000+00:00</time></trkpt><trkpt lat="64.15341187" lon="-21.9529686"><ele>6.4</ele><time>2012-07-18T11:30:30.0000000+00:00</time></trkpt><trkpt lat="64.15326691" lon="-21.9529686"><ele>6.9</ele><time>2012-07-18T11:30:35.0000000+00:00</time></trkpt><trkpt lat="64.15313721" lon="-21.95300102"><ele>6.5</ele><time>2012-07-18T11:30:40.0000000+00:00</time></trkpt><trkpt lat="64.15301514" lon="-21.95318794"><ele>6.1</ele><time>2012-07-18T11:30:45.0000000+00:00</time></trkpt><trkpt lat="64.15284729" lon="-21.95321274"><ele>5.1</ele><time>2012-07-18T11:30:50.0000000+00:00</time></trkpt><trkpt lat="64.15270996" lon="-21.95295906"><ele>4.8</ele><time>2012-07-18T11:30:55.0000000+00:00</time></trkpt><trkpt lat="64.1526413" lon="-21.9525547"><ele>4.2</ele><time>2012-07-18T11:31:00.0000000+00:00</time></trkpt><trkpt lat="64.15251923" lon="-21.95224953"><ele>4.3</ele><time>2012-07-18T11:31:05.0000000+00:00</time></trkpt><trkpt lat="64.15242767" lon="-21.95195007"><ele>5.3</ele><time>2012-07-18T11:31:10.0000000+00:00</time></trkpt><trkpt lat="64.15235901" lon="-21.9516983"><ele>7.0</ele><time>2012-07-18T11:31:15.0000000+00:00</time></trkpt><trkpt lat="64.15228272" lon="-21.95144653"><ele>8.7</ele><time>2012-07-18T11:31:20.0000000+00:00</time></trkpt><trkpt lat="64.15221405" lon="-21.95115852"><ele>9.3</ele><time>2012-07-18T11:31:25.0000000+00:00</time></trkpt><trkpt lat="64.15215302" lon="-21.95084572"><ele>12.4</ele><time>2012-07-18T11:31:30.0000000+00:00</time></trkpt><trkpt lat="64.15206146" lon="-21.95046616"><ele>13.3</ele><time>2012-07-18T11:31:35.0000000+00:00</time></trkpt><trkpt lat="64.15196991" lon="-21.95021439"><ele>15.3</ele><time>2012-07-18T11:31:40.0000000+00:00</time></trkpt><trkpt lat="64.15187836" lon="-21.94987679"><ele>15.4</ele><time>2012-07-18T11:31:45.0000000+00:00</time></trkpt><trkpt lat="64.15174866" lon="-21.94952202"><ele>14.8</ele><time>2012-07-18T11:31:50.0000000+00:00</time></trkpt><trkpt lat="64.15161896" lon="-21.94917679"><ele>13.5</ele><time>2012-07-18T11:31:55.0000000+00:00</time></trkpt><trkpt lat="64.15151215" lon="-21.94886017"><ele>12.9</ele><time>2012-07-18T11:32:00.0000000+00:00</time></trkpt><trkpt lat="64.15139771" lon="-21.94856453"><ele>11.8</ele><time>2012-07-18T11:32:05.0000000+00:00</time></trkpt><trkpt lat="64.15129089" lon="-21.94825172"><ele>11.0</ele><time>2012-07-18T11:32:10.0000000+00:00</time></trkpt><trkpt lat="64.15118408" lon="-21.94798088"><ele>13.4</ele><time>2012-07-18T11:32:15.0000000+00:00</time></trkpt><trkpt lat="64.15113068" lon="-21.94775963"><ele>15.3</ele><time>2012-07-18T11:32:20.0000000+00:00</time></trkpt><trkpt lat="64.15106964" lon="-21.94746018"><ele>15.9</ele><time>2012-07-18T11:32:25.0000000+00:00</time></trkpt><trkpt lat="64.15101624" lon="-21.94704437"><ele>18.9</ele><time>2012-07-18T11:32:30.0000000+00:00</time></trkpt><trkpt lat="64.15094757" lon="-21.94669151"><ele>20.5</ele><time>2012-07-18T11:32:35.0000000+00:00</time></trkpt><trkpt lat="64.15090179" lon="-21.94634247"><ele>23.0</ele><time>2012-07-18T11:32:40.0000000+00:00</time></trkpt><trkpt lat="64.15086365" lon="-21.945961"><ele>24.1</ele><time>2012-07-18T11:32:45.0000000+00:00</time></trkpt><trkpt lat="64.15083313" lon="-21.94573021"><ele>24.9</ele><time>2012-07-18T11:32:50.0000000+00:00</time></trkpt><trkpt lat="64.15081024" lon="-21.94571495"><ele>24.5</ele><time>2012-07-18T11:32:55.0000000+00:00</time></trkpt><trkpt lat="64.15080261" lon="-21.94571877"><ele>24.7</ele><time>2012-07-18T11:33:00.0000000+00:00</time></trkpt><trkpt lat="64.15078735" lon="-21.94561958"><ele>24.5</ele><time>2012-07-18T11:33:05.0000000+00:00</time></trkpt><trkpt lat="64.15079498" lon="-21.9452877"><ele>22.7</ele><time>2012-07-18T11:33:10.0000000+00:00</time></trkpt><trkpt lat="64.15074158" lon="-21.94475937"><ele>17.4</ele><time>2012-07-18T11:33:15.0000000+00:00</time></trkpt><trkpt lat="64.15067291" lon="-21.94424439"><ele>14.5</ele><time>2012-07-18T11:33:20.0000000+00:00</time></trkpt><trkpt lat="64.15053558" lon="-21.94384384"><ele>12.4</ele><time>2012-07-18T11:33:25.0000000+00:00</time></trkpt><trkpt lat="64.15041351" lon="-21.94351196"><ele>13.3</ele><time>2012-07-18T11:33:30.0000000+00:00</time></trkpt><trkpt lat="64.15027618" lon="-21.94323349"><ele>15.2</ele><time>2012-07-18T11:33:35.0000000+00:00</time></trkpt><trkpt lat="64.15014648" lon="-21.94308853"><ele>17.4</ele><time>2012-07-18T11:33:40.0000000+00:00</time></trkpt><trkpt lat="64.15005493" lon="-21.94306564"><ele>16.7</ele><time>2012-07-18T11:33:45.0000000+00:00</time></trkpt><trkpt lat="64.14996338" lon="-21.94301224"><ele>15.7</ele><time>2012-07-18T11:33:50.0000000+00:00</time></trkpt><trkpt lat="64.1499176" lon="-21.94288635"><ele>18.2</ele><time>2012-07-18T11:33:55.0000000+00:00</time></trkpt><trkpt lat="64.14983368" lon="-21.94275093"><ele>20.2</ele><time>2012-07-18T11:34:00.0000000+00:00</time></trkpt><trkpt lat="64.14971161" lon="-21.94262314"><ele>20.5</ele><time>2012-07-18T11:34:05.0000000+00:00</time></trkpt><trkpt lat="64.14964294" lon="-21.94237709"><ele>21.2</ele><time>2012-07-18T11:34:10.0000000+00:00</time></trkpt><trkpt lat="64.14954376" lon="-21.94221687"><ele>21.8</ele><time>2012-07-18T11:34:15.0000000+00:00</time></trkpt><trkpt lat="64.14942169" lon="-21.94207382"><ele>23.5</ele><time>2012-07-18T11:34:20.0000000+00:00</time></trkpt><trkpt lat="64.14929962" lon="-21.94184494"><ele>27.5</ele><time>2012-07-18T11:34:25.0000000+00:00</time></trkpt><trkpt lat="64.14922333" lon="-21.94172096"><ele>30.1</ele><time>2012-07-18T11:34:30.0000000+00:00</time></trkpt><trkpt lat="64.14914703" lon="-21.94156647"><ele>28.9</ele><time>2012-07-18T11:34:35.0000000+00:00</time></trkpt><trkpt lat="64.14909363" lon="-21.94129181"><ele>28.7</ele><time>2012-07-18T11:34:40.0000000+00:00</time></trkpt><trkpt lat="64.14903259" lon="-21.94114494"><ele>27.3</ele><time>2012-07-18T11:34:45.0000000+00:00</time></trkpt><trkpt lat="64.14904022" lon="-21.94104385"><ele>25.6</ele><time>2012-07-18T11:34:50.0000000+00:00</time></trkpt><trkpt lat="64.14904022" lon="-21.94101143"><ele>24.5</ele><time>2012-07-18T11:34:55.0000000+00:00</time></trkpt><trkpt lat="64.14898682" lon="-21.94093132"><ele>22.5</ele><time>2012-07-18T11:35:00.0000000+00:00</time></trkpt><trkpt lat="64.14898682" lon="-21.94095993"><ele>22.7</ele><time>2012-07-18T11:35:05.0000000+00:00</time></trkpt><trkpt lat="64.14899445" lon="-21.9410038"><ele>22.8</ele><time>2012-07-18T11:35:10.0000000+00:00</time></trkpt><trkpt lat="64.14905548" lon="-21.94111824"><ele>23.4</ele><time>2012-07-18T11:35:15.0000000+00:00</time></trkpt><trkpt lat="64.14909363" lon="-21.94133377"><ele>27.0</ele><time>2012-07-18T11:35:20.0000000+00:00</time></trkpt><trkpt lat="64.14904022" lon="-21.94137383"><ele>33.1</ele><time>2012-07-18T11:35:25.0000000+00:00</time></trkpt><trkpt lat="64.14899445" lon="-21.9414444"><ele>38.5</ele><time>2012-07-18T11:35:30.0000000+00:00</time></trkpt><trkpt lat="64.14890289" lon="-21.9414463"><ele>40.7</ele><time>2012-07-18T11:35:35.0000000+00:00</time></trkpt><trkpt lat="64.14883423" lon="-21.94145012"><ele>40.0</ele><time>2012-07-18T11:35:40.0000000+00:00</time></trkpt><trkpt lat="64.14877319" lon="-21.94130516"><ele>41.0</ele><time>2012-07-18T11:35:45.0000000+00:00</time></trkpt><trkpt lat="64.14871216" lon="-21.94134712"><ele>40.4</ele><time>2012-07-18T11:35:50.0000000+00:00</time></trkpt><trkpt lat="64.14866638" lon="-21.94143868"><ele>39.0</ele><time>2012-07-18T11:35:55.0000000+00:00</time></trkpt><trkpt lat="64.14866638" lon="-21.9414463"><ele>39.2</ele><time>2012-07-18T11:36:00.0000000+00:00</time></trkpt><trkpt lat="64.14865112" lon="-21.9414196"><ele>39.1</ele><time>2012-07-18T11:36:05.0000000+00:00</time></trkpt><trkpt lat="64.14862061" lon="-21.94138718"><ele>37.0</ele><time>2012-07-18T11:36:10.0000000+00:00</time></trkpt><trkpt lat="64.14860535" lon="-21.94136047"><ele>36.3</ele><time>2012-07-18T11:36:15.0000000+00:00</time></trkpt><trkpt lat="64.14860535" lon="-21.94135475"><ele>36.3</ele><time>2012-07-18T11:36:20.0000000+00:00</time></trkpt><trkpt lat="64.14861298" lon="-21.94135475"><ele>36.4</ele><time>2012-07-18T11:36:25.0000000+00:00</time></trkpt><trkpt lat="64.14861298" lon="-21.94136429"><ele>36.4</ele><time>2012-07-18T11:36:30.0000000+00:00</time></trkpt><trkpt lat="64.14862061" lon="-21.94136429"><ele>36.4</ele><time>2012-07-18T11:36:35.0000000+00:00</time></trkpt><trkpt lat="64.14858246" lon="-21.94131851"><ele>35.5</ele><time>2012-07-18T11:36:40.0000000+00:00</time></trkpt><trkpt lat="64.14852905" lon="-21.94126129"><ele>32.5</ele><time>2012-07-18T11:36:45.0000000+00:00</time></trkpt><trkpt lat="64.14846802" lon="-21.94125748"><ele>29.4</ele><time>2012-07-18T11:36:50.0000000+00:00</time></trkpt><trkpt lat="64.1484375" lon="-21.94119835"><ele>28.1</ele><time>2012-07-18T11:36:55.0000000+00:00</time></trkpt><trkpt lat="64.1484375" lon="-21.94119072"><ele>27.0</ele><time>2012-07-18T11:37:00.0000000+00:00</time></trkpt><trkpt lat="64.1484375" lon="-21.94118881"><ele>26.9</ele><time>2012-07-18T11:37:05.0000000+00:00</time></trkpt><trkpt lat="64.1484375" lon="-21.94119072"><ele>26.8</ele><time>2012-07-18T11:37:10.0000000+00:00</time></trkpt><trkpt lat="64.1484375" lon="-21.94119072"><ele>26.8</ele><time>2012-07-18T11:37:15.0000000+00:00</time></trkpt><trkpt lat="64.1484375" lon="-21.94118881"><ele>26.8</ele><time>2012-07-18T11:37:20.0000000+00:00</time></trkpt><trkpt lat="64.1484375" lon="-21.94118881"><ele>26.9</ele><time>2012-07-18T11:37:25.0000000+00:00</time></trkpt><trkpt lat="64.1484375" lon="-21.94118691"><ele>26.9</ele><time>2012-07-18T11:37:30.0000000+00:00</time></trkpt><trkpt lat="64.1484375" lon="-21.94118691"><ele>27.0</ele><time>2012-07-18T11:37:35.0000000+00:00</time></trkpt><trkpt lat="64.1484375" lon="-21.941185"><ele>27.0</ele><time>2012-07-18T11:37:40.0000000+00:00</time></trkpt><trkpt lat="64.1484375" lon="-21.941185"><ele>27.0</ele><time>2012-07-18T11:37:45.0000000+00:00</time></trkpt><trkpt lat="64.1484375" lon="-21.941185"><ele>27.1</ele><time>2012-07-18T11:37:50.0000000+00:00</time></trkpt><trkpt lat="64.1484375" lon="-21.941185"><ele>27.1</ele><time>2012-07-18T11:37:55.0000000+00:00</time></trkpt><trkpt lat="64.14844513" lon="-21.94117928"><ele>27.3</ele><time>2012-07-18T11:38:00.0000000+00:00</time></trkpt><trkpt lat="64.14844513" lon="-21.94116402"><ele>27.5</ele><time>2012-07-18T11:38:05.0000000+00:00</time></trkpt><trkpt lat="64.14844513" lon="-21.94114113"><ele>27.9</ele><time>2012-07-18T11:38:10.0000000+00:00</time></trkpt><trkpt lat="64.14839935" lon="-21.94110489"><ele>28.7</ele><time>2012-07-18T11:38:15.0000000+00:00</time></trkpt><trkpt lat="64.14834595" lon="-21.94096947"><ele>27.2</ele><time>2012-07-18T11:38:20.0000000+00:00</time></trkpt><trkpt lat="64.14831543" lon="-21.94088745"><ele>23.9</ele><time>2012-07-18T11:38:25.0000000+00:00</time></trkpt><trkpt lat="64.14828491" lon="-21.94068337"><ele>22.5</ele><time>2012-07-18T11:38:30.0000000+00:00</time></trkpt><trkpt lat="64.14831543" lon="-21.94039917"><ele>21.4</ele><time>2012-07-18T11:38:35.0000000+00:00</time></trkpt><trkpt lat="64.14836884" lon="-21.94028473"><ele>22.0</ele><time>2012-07-18T11:38:40.0000000+00:00</time></trkpt><trkpt lat="64.14840698" lon="-21.94023132"><ele>22.9</ele><time>2012-07-18T11:38:45.0000000+00:00</time></trkpt><trkpt lat="64.14846039" lon="-21.94018173"><ele>23.2</ele><time>2012-07-18T11:38:50.0000000+00:00</time></trkpt><trkpt lat="64.1485672" lon="-21.94008064"><ele>22.2</ele><time>2012-07-18T11:38:55.0000000+00:00</time></trkpt><trkpt lat="64.14859772" lon="-21.93994522"><ele>8.7</ele><time>2012-07-18T11:39:00.0000000+00:00</time></trkpt><trkpt lat="64.14858246" lon="-21.94005013"><ele>5.3</ele><time>2012-07-18T11:39:05.0000000+00:00</time></trkpt><trkpt lat="64.14855957" lon="-21.94023895"><ele>2.2</ele><time>2012-07-18T11:39:10.0000000+00:00</time></trkpt><trkpt lat="64.14857483" lon="-21.94044876"><ele>2.2</ele><time>2012-07-18T11:39:15.0000000+00:00</time></trkpt><trkpt lat="64.14862824" lon="-21.94055939"><ele>5.6</ele><time>2012-07-18T11:39:20.0000000+00:00</time></trkpt><trkpt lat="64.14870453" lon="-21.94067383"><ele>5.3</ele><time>2012-07-18T11:39:25.0000000+00:00</time></trkpt><trkpt lat="64.1488266" lon="-21.94079971"><ele>3.8</ele><time>2012-07-18T11:39:30.0000000+00:00</time></trkpt><trkpt lat="64.14884949" lon="-21.94081497"><ele>4.9</ele><time>2012-07-18T11:39:35.0000000+00:00</time></trkpt><trkpt lat="64.14888763" lon="-21.94082642"><ele>3.9</ele><time>2012-07-18T11:39:40.0000000+00:00</time></trkpt><trkpt lat="64.14894104" lon="-21.94089699"><ele>2.9</ele><time>2012-07-18T11:39:45.0000000+00:00</time></trkpt><trkpt lat="64.1489563" lon="-21.94093704"><ele>2.1</ele><time>2012-07-18T11:39:50.0000000+00:00</time></trkpt><trkpt lat="64.14896393" lon="-21.94096756"><ele>1.2</ele><time>2012-07-18T11:39:55.0000000+00:00</time></trkpt><trkpt lat="64.14897156" lon="-21.94096756"><ele>1.1</ele><time>2012-07-18T11:40:00.0000000+00:00</time></trkpt><trkpt lat="64.14897156" lon="-21.94096756"><ele>1.0</ele><time>2012-07-18T11:40:05.0000000+00:00</time></trkpt><trkpt lat="64.14897156" lon="-21.94096756"><ele>0.9</ele><time>2012-07-18T11:40:10.0000000+00:00</time></trkpt><trkpt lat="64.14897156" lon="-21.94096375"><ele>0.9</ele><time>2012-07-18T11:40:15.0000000+00:00</time></trkpt><trkpt lat="64.14897156" lon="-21.94096947"><ele>0.8</ele><time>2012-07-18T11:40:20.0000000+00:00</time></trkpt><trkpt lat="64.14894867" lon="-21.94099808"><ele>0.9</ele><time>2012-07-18T11:40:25.0000000+00:00</time></trkpt><trkpt lat="64.14888763" lon="-21.94110107"><ele>2.9</ele><time>2012-07-18T11:40:30.0000000+00:00</time></trkpt><trkpt lat="64.14881897" lon="-21.94124413"><ele>4.4</ele><time>2012-07-18T11:40:35.0000000+00:00</time></trkpt><trkpt lat="64.14876556" lon="-21.94143105"><ele>4.4</ele><time>2012-07-18T11:40:40.0000000+00:00</time></trkpt><trkpt lat="64.14868164" lon="-21.94123459"><ele>5.8</ele><time>2012-07-18T11:40:45.0000000+00:00</time></trkpt><trkpt lat="64.14858246" lon="-21.94107819"><ele>1.4</ele><time>2012-07-18T11:40:50.0000000+00:00</time></trkpt><trkpt lat="64.14847565" lon="-21.94102669"><ele>6.6</ele><time>2012-07-18T11:40:55.0000000+00:00</time></trkpt><trkpt lat="64.14841461" lon="-21.9411602"><ele>10.5</ele><time>2012-07-18T11:41:00.0000000+00:00</time></trkpt><trkpt lat="64.14833832" lon="-21.94109345"><ele>10.8</ele><time>2012-07-18T11:41:05.0000000+00:00</time></trkpt><trkpt lat="64.14831543" lon="-21.94105148"><ele>11.1</ele><time>2012-07-18T11:41:10.0000000+00:00</time></trkpt><trkpt lat="64.14827728" lon="-21.94108963"><ele>11.9</ele><time>2012-07-18T11:41:15.0000000+00:00</time></trkpt><trkpt lat="64.14823151" lon="-21.9411602"><ele>10.1</ele><time>2012-07-18T11:41:20.0000000+00:00</time></trkpt><trkpt lat="64.14821625" lon="-21.94119835"><ele>9.1</ele><time>2012-07-18T11:41:25.0000000+00:00</time></trkpt><trkpt lat="64.14820862" lon="-21.94125748"><ele>8.8</ele><time>2012-07-18T11:41:30.0000000+00:00</time></trkpt><trkpt lat="64.14819336" lon="-21.94129753"><ele>10.1</ele><time>2012-07-18T11:41:35.0000000+00:00</time></trkpt><trkpt lat="64.14819336" lon="-21.94129753"><ele>10.0</ele><time>2012-07-18T11:41:40.0000000+00:00</time></trkpt><trkpt lat="64.14819336" lon="-21.94129753"><ele>10.0</ele><time>2012-07-18T11:41:45.0000000+00:00</time></trkpt><trkpt lat="64.14819336" lon="-21.94129753"><ele>10.0</ele><time>2012-07-18T11:41:50.0000000+00:00</time></trkpt><trkpt lat="64.14819336" lon="-21.94129562"><ele>10.0</ele><time>2012-07-18T11:41:55.0000000+00:00</time></trkpt><trkpt lat="64.14819336" lon="-21.94129562"><ele>10.0</ele><time>2012-07-18T11:42:00.0000000+00:00</time></trkpt><trkpt lat="64.14819336" lon="-21.94129562"><ele>10.0</ele><time>2012-07-18T11:42:05.0000000+00:00</time></trkpt><trkpt lat="64.14819336" lon="-21.94129562"><ele>10.1</ele><time>2012-07-18T11:42:10.0000000+00:00</time></trkpt><trkpt lat="64.14819336" lon="-21.94129562"><ele>10.1</ele><time>2012-07-18T11:42:15.0000000+00:00</time></trkpt><trkpt lat="64.14819336" lon="-21.94129753"><ele>10.1</ele><time>2012-07-18T11:42:20.0000000+00:00</time></trkpt><trkpt lat="64.14819336" lon="-21.94129753"><ele>10.1</ele><time>2012-07-18T11:42:25.0000000+00:00</time></trkpt><trkpt lat="64.14819336" lon="-21.94129753"><ele>10.2</ele><time>2012-07-18T11:42:30.0000000+00:00</time></trkpt><trkpt lat="64.14819336" lon="-21.94129944"><ele>10.2</ele><time>2012-07-18T11:42:35.0000000+00:00</time></trkpt><trkpt lat="64.14819336" lon="-21.94129944"><ele>10.3</ele><time>2012-07-18T11:42:40.0000000+00:00</time></trkpt><trkpt lat="64.14819336" lon="-21.94130325"><ele>10.4</ele><time>2012-07-18T11:42:45.0000000+00:00</time></trkpt><trkpt lat="64.14819336" lon="-21.94130325"><ele>10.4</ele><time>2012-07-18T11:42:50.0000000+00:00</time></trkpt><trkpt lat="64.14819336" lon="-21.94130325"><ele>10.5</ele><time>2012-07-18T11:42:55.0000000+00:00</time></trkpt><trkpt lat="64.14819336" lon="-21.94130325"><ele>10.5</ele><time>2012-07-18T11:43:00.0000000+00:00</time></trkpt><trkpt lat="64.14819336" lon="-21.94130325"><ele>10.5</ele><time>2012-07-18T11:43:05.0000000+00:00</time></trkpt><trkpt lat="64.14819336" lon="-21.94130325"><ele>10.5</ele><time>2012-07-18T11:43:10.0000000+00:00</time></trkpt><trkpt lat="64.14819336" lon="-21.94130325"><ele>10.5</ele><time>2012-07-18T11:43:15.0000000+00:00</time></trkpt><trkpt lat="64.14819336" lon="-21.94130325"><ele>10.6</ele><time>2012-07-18T11:43:20.0000000+00:00</time></trkpt><trkpt lat="64.14819336" lon="-21.94130325"><ele>10.6</ele><time>2012-07-18T11:43:25.0000000+00:00</time></trkpt><trkpt lat="64.14819336" lon="-21.94130325"><ele>10.7</ele><time>2012-07-18T11:43:30.0000000+00:00</time></trkpt><trkpt lat="64.14819336" lon="-21.94130325"><ele>10.7</ele><time>2012-07-18T11:43:35.0000000+00:00</time></trkpt><trkpt lat="64.14819336" lon="-21.94130325"><ele>10.8</ele><time>2012-07-18T11:43:40.0000000+00:00</time></trkpt><trkpt lat="64.14819336" lon="-21.94130135"><ele>10.9</ele><time>2012-07-18T11:43:45.0000000+00:00</time></trkpt><trkpt lat="64.14819336" lon="-21.94129944"><ele>10.9</ele><time>2012-07-18T11:43:50.0000000+00:00</time></trkpt><trkpt lat="64.14819336" lon="-21.94129562"><ele>11.0</ele><time>2012-07-18T11:43:55.0000000+00:00</time></trkpt><trkpt lat="64.14819336" lon="-21.94129562"><ele>11.0</ele><time>2012-07-18T11:44:00.0000000+00:00</time></trkpt><trkpt lat="64.14819336" lon="-21.94129372"><ele>11.1</ele><time>2012-07-18T11:44:05.0000000+00:00</time></trkpt><trkpt lat="64.14819336" lon="-21.94129562"><ele>11.2</ele><time>2012-07-18T11:44:10.0000000+00:00</time></trkpt><trkpt lat="64.14819336" lon="-21.94129562"><ele>11.2</ele><time>2012-07-18T11:44:15.0000000+00:00</time></trkpt><trkpt lat="64.14819336" lon="-21.94129562"><ele>11.3</ele><time>2012-07-18T11:44:20.0000000+00:00</time></trkpt><trkpt lat="64.14819336" lon="-21.94129562"><ele>11.4</ele><time>2012-07-18T11:44:25.0000000+00:00</time></trkpt><trkpt lat="64.14819336" lon="-21.94129562"><ele>11.4</ele><time>2012-07-18T11:44:30.0000000+00:00</time></trkpt><trkpt lat="64.14819336" lon="-21.94129562"><ele>11.5</ele><time>2012-07-18T11:44:35.0000000+00:00</time></trkpt><trkpt lat="64.14819336" lon="-21.94129562"><ele>11.6</ele><time>2012-07-18T11:44:40.0000000+00:00</time></trkpt><trkpt lat="64.14820099" lon="-21.94129562"><ele>11.7</ele><time>2012-07-18T11:44:45.0000000+00:00</time></trkpt><trkpt lat="64.14820099" lon="-21.94129562"><ele>11.7</ele><time>2012-07-18T11:44:50.0000000+00:00</time></trkpt><trkpt lat="64.14820099" lon="-21.94129562"><ele>11.8</ele><time>2012-07-18T11:44:55.0000000+00:00</time></trkpt><trkpt lat="64.14820099" lon="-21.94129372"><ele>11.8</ele><time>2012-07-18T11:45:00.0000000+00:00</time></trkpt><trkpt lat="64.14820099" lon="-21.94129372"><ele>11.8</ele><time>2012-07-18T11:45:05.0000000+00:00</time></trkpt><trkpt lat="64.14820099" lon="-21.94129372"><ele>11.9</ele><time>2012-07-18T11:45:10.0000000+00:00</time></trkpt><trkpt lat="64.14820099" lon="-21.94129372"><ele>11.9</ele><time>2012-07-18T11:45:15.0000000+00:00</time></trkpt><trkpt lat="64.14820099" lon="-21.94129372"><ele>11.9</ele><time>2012-07-18T11:45:20.0000000+00:00</time></trkpt><trkpt lat="64.14820099" lon="-21.94129372"><ele>12.0</ele><time>2012-07-18T11:45:25.0000000+00:00</time></trkpt><trkpt lat="64.14820099" lon="-21.94129372"><ele>12.0</ele><time>2012-07-18T11:45:30.0000000+00:00</time></trkpt><trkpt lat="64.14820099" lon="-21.94129562"><ele>12.0</ele><time>2012-07-18T11:45:35.0000000+00:00</time></trkpt><trkpt lat="64.14820099" lon="-21.94129372"><ele>12.1</ele><time>2012-07-18T11:45:40.0000000+00:00</time></trkpt><trkpt lat="64.14820099" lon="-21.94129372"><ele>12.1</ele><time>2012-07-18T11:45:45.0000000+00:00</time></trkpt><trkpt lat="64.14820099" lon="-21.94129372"><ele>12.2</ele><time>2012-07-18T11:45:50.0000000+00:00</time></trkpt><trkpt lat="64.14820099" lon="-21.94129372"><ele>12.2</ele><time>2012-07-18T11:45:55.0000000+00:00</time></trkpt><trkpt lat="64.14820099" lon="-21.94129181"><ele>12.3</ele><time>2012-07-18T11:46:00.0000000+00:00</time></trkpt><trkpt lat="64.14820099" lon="-21.94129181"><ele>12.3</ele><time>2012-07-18T11:46:05.0000000+00:00</time></trkpt><trkpt lat="64.14820099" lon="-21.94129181"><ele>12.4</ele><time>2012-07-18T11:46:10.0000000+00:00</time></trkpt><trkpt lat="64.14820099" lon="-21.94129181"><ele>12.4</ele><time>2012-07-18T11:46:15.0000000+00:00</time></trkpt><trkpt lat="64.14820099" lon="-21.94129181"><ele>12.5</ele><time>2012-07-18T11:46:20.0000000+00:00</time></trkpt><trkpt lat="64.14820099" lon="-21.94129181"><ele>12.8</ele><time>2012-07-18T11:46:25.0000000+00:00</time></trkpt><trkpt lat="64.14820099" lon="-21.94129181"><ele>13.0</ele><time>2012-07-18T11:46:30.0000000+00:00</time></trkpt><trkpt lat="64.14820099" lon="-21.94129181"><ele>13.1</ele><time>2012-07-18T11:46:35.0000000+00:00</time></trkpt><trkpt lat="64.14820099" lon="-21.94129181"><ele>13.2</ele><time>2012-07-18T11:46:40.0000000+00:00</time></trkpt><trkpt lat="64.14820862" lon="-21.94129181"><ele>13.2</ele><time>2012-07-18T11:46:45.0000000+00:00</time></trkpt><trkpt lat="64.14820862" lon="-21.9412899"><ele>13.3</ele><time>2012-07-18T11:46:50.0000000+00:00</time></trkpt><trkpt lat="64.14820862" lon="-21.9412899"><ele>13.3</ele><time>2012-07-18T11:46:55.0000000+00:00</time></trkpt><trkpt lat="64.14820862" lon="-21.9412899"><ele>13.4</ele><time>2012-07-18T11:47:00.0000000+00:00</time></trkpt><trkpt lat="64.14820862" lon="-21.94129181"><ele>13.4</ele><time>2012-07-18T11:47:05.0000000+00:00</time></trkpt><trkpt lat="64.14820862" lon="-21.94129181"><ele>13.5</ele><time>2012-07-18T11:47:10.0000000+00:00</time></trkpt><trkpt lat="64.14820862" lon="-21.94129181"><ele>13.5</ele><time>2012-07-18T11:47:15.0000000+00:00</time></trkpt><trkpt lat="64.14820862" lon="-21.94129181"><ele>13.6</ele><time>2012-07-18T11:47:20.0000000+00:00</time></trkpt><trkpt lat="64.14820862" lon="-21.94129181"><ele>13.7</ele><time>2012-07-18T11:47:25.0000000+00:00</time></trkpt><trkpt lat="64.14820862" lon="-21.94129181"><ele>13.7</ele><time>2012-07-18T11:47:30.0000000+00:00</time></trkpt><trkpt lat="64.14820862" lon="-21.9412899"><ele>14.0</ele><time>2012-07-18T11:47:35.0000000+00:00</time></trkpt><trkpt lat="64.14820862" lon="-21.9412899"><ele>14.1</ele><time>2012-07-18T11:47:40.0000000+00:00</time></trkpt><trkpt lat="64.14820862" lon="-21.94128799"><ele>14.2</ele><time>2012-07-18T11:47:45.0000000+00:00</time></trkpt><trkpt lat="64.14820862" lon="-21.94128799"><ele>14.3</ele><time>2012-07-18T11:47:50.0000000+00:00</time></trkpt><trkpt lat="64.14820862" lon="-21.94128609"><ele>14.3</ele><time>2012-07-18T11:47:55.0000000+00:00</time></trkpt><trkpt lat="64.14820862" lon="-21.94128609"><ele>14.4</ele><time>2012-07-18T11:48:00.0000000+00:00</time></trkpt><trkpt lat="64.14820862" lon="-21.94128609"><ele>14.4</ele><time>2012-07-18T11:48:05.0000000+00:00</time></trkpt><trkpt lat="64.14820862" lon="-21.94128609"><ele>14.5</ele><time>2012-07-18T11:48:10.0000000+00:00</time></trkpt><trkpt lat="64.14820862" lon="-21.94128609"><ele>14.5</ele><time>2012-07-18T11:48:15.0000000+00:00</time></trkpt><trkpt lat="64.14820862" lon="-21.94128609"><ele>14.5</ele><time>2012-07-18T11:48:20.0000000+00:00</time></trkpt><trkpt lat="64.14820862" lon="-21.94128799"><ele>14.6</ele><time>2012-07-18T11:48:25.0000000+00:00</time></trkpt><trkpt lat="64.14820862" lon="-21.94128609"><ele>14.6</ele><time>2012-07-18T11:48:30.0000000+00:00</time></trkpt><trkpt lat="64.14820862" lon="-21.94128609"><ele>14.7</ele><time>2012-07-18T11:48:35.0000000+00:00</time></trkpt><trkpt lat="64.14820862" lon="-21.94128609"><ele>14.8</ele><time>2012-07-18T11:48:40.0000000+00:00</time></trkpt><trkpt lat="64.14820862" lon="-21.94128609"><ele>14.9</ele><time>2012-07-18T11:48:45.0000000+00:00</time></trkpt><trkpt lat="64.14820862" lon="-21.94128609"><ele>15.0</ele><time>2012-07-18T11:48:50.0000000+00:00</time></trkpt><trkpt lat="64.14820862" lon="-21.94128609"><ele>15.0</ele><time>2012-07-18T11:48:55.0000000+00:00</time></trkpt><trkpt lat="64.14820862" lon="-21.94128609"><ele>15.0</ele><time>2012-07-18T11:49:00.0000000+00:00</time></trkpt><trkpt lat="64.14820862" lon="-21.94128609"><ele>15.0</ele><time>2012-07-18T11:49:05.0000000+00:00</time></trkpt><trkpt lat="64.14820862" lon="-21.94128799"><ele>15.1</ele><time>2012-07-18T11:49:10.0000000+00:00</time></trkpt><trkpt lat="64.14821625" lon="-21.94129181"><ele>15.2</ele><time>2012-07-18T11:49:15.0000000+00:00</time></trkpt><trkpt lat="64.14821625" lon="-21.94129944"><ele>15.4</ele><time>2012-07-18T11:49:20.0000000+00:00</time></trkpt><trkpt lat="64.14821625" lon="-21.94130325"><ele>15.7</ele><time>2012-07-18T11:49:25.0000000+00:00</time></trkpt><trkpt lat="64.14821625" lon="-21.94130135"><ele>15.8</ele><time>2012-07-18T11:49:30.0000000+00:00</time></trkpt><trkpt lat="64.14821625" lon="-21.94130135"><ele>15.9</ele><time>2012-07-18T11:49:35.0000000+00:00</time></trkpt><trkpt lat="64.14821625" lon="-21.94130135"><ele>15.9</ele><time>2012-07-18T11:49:40.0000000+00:00</time></trkpt><trkpt lat="64.14821625" lon="-21.94130135"><ele>15.9</ele><time>2012-07-18T11:49:45.0000000+00:00</time></trkpt><trkpt lat="64.14821625" lon="-21.94130325"><ele>15.9</ele><time>2012-07-18T11:49:50.0000000+00:00</time></trkpt><trkpt lat="64.14821625" lon="-21.94130325"><ele>16.0</ele><time>2012-07-18T11:49:55.0000000+00:00</time></trkpt><trkpt lat="64.14821625" lon="-21.94130325"><ele>16.0</ele><time>2012-07-18T11:50:00.0000000+00:00</time></trkpt><trkpt lat="64.14821625" lon="-21.94130325"><ele>16.1</ele><time>2012-07-18T11:50:05.0000000+00:00</time></trkpt><trkpt lat="64.14821625" lon="-21.94130325"><ele>16.1</ele><time>2012-07-18T11:50:10.0000000+00:00</time></trkpt><trkpt lat="64.14821625" lon="-21.94130135"><ele>16.2</ele><time>2012-07-18T11:50:15.0000000+00:00</time></trkpt><trkpt lat="64.14821625" lon="-21.94130135"><ele>16.3</ele><time>2012-07-18T11:50:20.0000000+00:00</time></trkpt><trkpt lat="64.14821625" lon="-21.94130135"><ele>16.4</ele><time>2012-07-18T11:50:25.0000000+00:00</time></trkpt><trkpt lat="64.14821625" lon="-21.94130135"><ele>16.4</ele><time>2012-07-18T11:50:30.0000000+00:00</time></trkpt><trkpt lat="64.14821625" lon="-21.94129944"><ele>16.5</ele><time>2012-07-18T11:50:35.0000000+00:00</time></trkpt><trkpt lat="64.14821625" lon="-21.94129562"><ele>16.7</ele><time>2012-07-18T11:50:40.0000000+00:00</time></trkpt><trkpt lat="64.14822388" lon="-21.94128609"><ele>16.8</ele><time>2012-07-18T11:50:45.0000000+00:00</time></trkpt><trkpt lat="64.14822388" lon="-21.94128227"><ele>17.0</ele><time>2012-07-18T11:50:50.0000000+00:00</time></trkpt><trkpt lat="64.14822388" lon="-21.94127846"><ele>17.2</ele><time>2012-07-18T11:50:55.0000000+00:00</time></trkpt><trkpt lat="64.14822388" lon="-21.94127464"><ele>17.4</ele><time>2012-07-18T11:51:00.0000000+00:00</time></trkpt><trkpt lat="64.14823151" lon="-21.94127083"><ele>17.6</ele><time>2012-07-18T11:51:05.0000000+00:00</time></trkpt><trkpt lat="64.14823151" lon="-21.94127083"><ele>17.7</ele><time>2012-07-18T11:51:10.0000000+00:00</time></trkpt><trkpt lat="64.14823151" lon="-21.94127083"><ele>17.7</ele><time>2012-07-18T11:51:15.0000000+00:00</time></trkpt><trkpt lat="64.14823151" lon="-21.94127083"><ele>17.8</ele><time>2012-07-18T11:51:20.0000000+00:00</time></trkpt><trkpt lat="64.14823151" lon="-21.94127083"><ele>17.9</ele><time>2012-07-18T11:51:25.0000000+00:00</time></trkpt><trkpt lat="64.14823151" lon="-21.94127083"><ele>17.9</ele><time>2012-07-18T11:51:30.0000000+00:00</time></trkpt><trkpt lat="64.14823151" lon="-21.94127083"><ele>18.0</ele><time>2012-07-18T11:51:35.0000000+00:00</time></trkpt><trkpt lat="64.14823151" lon="-21.94126892"><ele>18.0</ele><time>2012-07-18T11:51:40.0000000+00:00</time></trkpt><trkpt lat="64.14823151" lon="-21.94127083"><ele>18.1</ele><time>2012-07-18T11:51:45.0000000+00:00</time></trkpt><trkpt lat="64.14823151" lon="-21.94127083"><ele>18.2</ele><time>2012-07-18T11:51:50.0000000+00:00</time></trkpt><trkpt lat="64.14823151" lon="-21.94127083"><ele>18.3</ele><time>2012-07-18T11:51:55.0000000+00:00</time></trkpt><trkpt lat="64.14823151" lon="-21.94126892"><ele>18.4</ele><time>2012-07-18T11:52:00.0000000+00:00</time></trkpt><trkpt lat="64.14823151" lon="-21.94126892"><ele>18.4</ele><time>2012-07-18T11:52:05.0000000+00:00</time></trkpt><trkpt lat="64.14823151" lon="-21.94126701"><ele>18.5</ele><time>2012-07-18T11:52:10.0000000+00:00</time></trkpt><trkpt lat="64.14823151" lon="-21.94126701"><ele>18.5</ele><time>2012-07-18T11:52:15.0000000+00:00</time></trkpt><trkpt lat="64.14823151" lon="-21.94126701"><ele>18.5</ele><time>2012-07-18T11:52:20.0000000+00:00</time></trkpt><trkpt lat="64.14823151" lon="-21.94126892"><ele>18.6</ele><time>2012-07-18T11:52:25.0000000+00:00</time></trkpt><trkpt lat="64.14823151" lon="-21.94127083"><ele>18.7</ele><time>2012-07-18T11:52:30.0000000+00:00</time></trkpt><trkpt lat="64.14823151" lon="-21.94127083"><ele>18.8</ele><time>2012-07-18T11:52:35.0000000+00:00</time></trkpt><trkpt lat="64.14823151" lon="-21.94127083"><ele>18.9</ele><time>2012-07-18T11:52:40.0000000+00:00</time></trkpt><trkpt lat="64.14823151" lon="-21.94127083"><ele>18.9</ele><time>2012-07-18T11:52:45.0000000+00:00</time></trkpt><trkpt lat="64.14823151" lon="-21.94127083"><ele>19.0</ele><time>2012-07-18T11:52:50.0000000+00:00</time></trkpt><trkpt lat="64.14823151" lon="-21.94127083"><ele>19.0</ele><time>2012-07-18T11:52:55.0000000+00:00</time></trkpt><trkpt lat="64.14823151" lon="-21.94127083"><ele>19.1</ele><time>2012-07-18T11:53:00.0000000+00:00</time></trkpt><trkpt lat="64.14823151" lon="-21.94127083"><ele>19.1</ele><time>2012-07-18T11:53:05.0000000+00:00</time></trkpt><trkpt lat="64.14823151" lon="-21.94127083"><ele>19.1</ele><time>2012-07-18T11:53:10.0000000+00:00</time></trkpt><trkpt lat="64.14823151" lon="-21.94127083"><ele>19.1</ele><time>2012-07-18T11:53:15.0000000+00:00</time></trkpt><trkpt lat="64.14823151" lon="-21.94127083"><ele>19.2</ele><time>2012-07-18T11:53:20.0000000+00:00</time></trkpt><trkpt lat="64.14823151" lon="-21.94127083"><ele>19.3</ele><time>2012-07-18T11:53:25.0000000+00:00</time></trkpt><trkpt lat="64.14823151" lon="-21.94127083"><ele>19.3</ele><time>2012-07-18T11:53:30.0000000+00:00</time></trkpt><trkpt lat="64.14823151" lon="-21.94127083"><ele>19.4</ele><time>2012-07-18T11:53:35.0000000+00:00</time></trkpt><trkpt lat="64.14823151" lon="-21.94127083"><ele>19.4</ele><time>2012-07-18T11:53:40.0000000+00:00</time></trkpt><trkpt lat="64.14823151" lon="-21.94127083"><ele>19.5</ele><time>2012-07-18T11:53:45.0000000+00:00</time></trkpt><trkpt lat="64.14823151" lon="-21.94127083"><ele>19.5</ele><time>2012-07-18T11:53:50.0000000+00:00</time></trkpt><trkpt lat="64.14823151" lon="-21.94126892"><ele>19.5</ele><time>2012-07-18T11:53:55.0000000+00:00</time></trkpt><trkpt lat="64.14823151" lon="-21.94126892"><ele>19.5</ele><time>2012-07-18T11:54:00.0000000+00:00</time></trkpt><trkpt lat="64.14823151" lon="-21.94127083"><ele>19.6</ele><time>2012-07-18T11:54:05.0000000+00:00</time></trkpt><trkpt lat="64.14823151" lon="-21.94127083"><ele>19.6</ele><time>2012-07-18T11:54:10.0000000+00:00</time></trkpt><trkpt lat="64.14823151" lon="-21.94127083"><ele>19.7</ele><time>2012-07-18T11:54:15.0000000+00:00</time></trkpt><trkpt lat="64.14823151" lon="-21.94127083"><ele>19.7</ele><time>2012-07-18T11:54:20.0000000+00:00</time></trkpt><trkpt lat="64.14823914" lon="-21.94127083"><ele>19.7</ele><time>2012-07-18T11:54:25.0000000+00:00</time></trkpt><trkpt lat="64.14823914" lon="-21.94127083"><ele>19.8</ele><time>2012-07-18T11:54:30.0000000+00:00</time></trkpt><trkpt lat="64.14823914" lon="-21.94127083"><ele>19.8</ele><time>2012-07-18T11:54:35.0000000+00:00</time></trkpt><trkpt lat="64.14823914" lon="-21.94127083"><ele>19.9</ele><time>2012-07-18T11:54:40.0000000+00:00</time></trkpt><trkpt lat="64.14823914" lon="-21.94127083"><ele>19.9</ele><time>2012-07-18T11:54:45.0000000+00:00</time></trkpt><trkpt lat="64.14823914" lon="-21.94127083"><ele>19.9</ele><time>2012-07-18T11:54:50.0000000+00:00</time></trkpt><trkpt lat="64.14823914" lon="-21.94127083"><ele>20.0</ele><time>2012-07-18T11:54:55.0000000+00:00</time></trkpt><trkpt lat="64.14822388" lon="-21.94133186"><ele>23.2</ele><time>2012-07-18T11:55:00.0000000+00:00</time></trkpt><trkpt lat="64.14819336" lon="-21.9413414"><ele>23.3</ele><time>2012-07-18T11:55:05.0000000+00:00</time></trkpt><trkpt lat="64.1481781" lon="-21.9413681"><ele>24.0</ele><time>2012-07-18T11:55:10.0000000+00:00</time></trkpt><trkpt lat="64.14809418" lon="-21.94151878"><ele>23.6</ele><time>2012-07-18T11:55:15.0000000+00:00</time></trkpt><trkpt lat="64.14803314" lon="-21.94156838"><ele>20.8</ele><time>2012-07-18T11:55:20.0000000+00:00</time></trkpt><trkpt lat="64.14803314" lon="-21.94157791"><ele>22.0</ele><time>2012-07-18T11:55:25.0000000+00:00</time></trkpt><trkpt lat="64.14800263" lon="-21.94158936"><ele>23.9</ele><time>2012-07-18T11:55:30.0000000+00:00</time></trkpt><trkpt lat="64.14793396" lon="-21.94163704"><ele>28.4</ele><time>2012-07-18T11:55:35.0000000+00:00</time></trkpt><trkpt lat="64.1478653" lon="-21.94169807"><ele>32.3</ele><time>2012-07-18T11:55:40.0000000+00:00</time></trkpt><trkpt lat="64.1478653" lon="-21.941679"><ele>33.4</ele><time>2012-07-18T11:55:45.0000000+00:00</time></trkpt><trkpt lat="64.14787293" lon="-21.94167328"><ele>35.0</ele><time>2012-07-18T11:55:50.0000000+00:00</time></trkpt><trkpt lat="64.14788055" lon="-21.94162369"><ele>38.2</ele><time>2012-07-18T11:55:55.0000000+00:00</time></trkpt><trkpt lat="64.14782715" lon="-21.94148064"><ele>41.4</ele><time>2012-07-18T11:56:00.0000000+00:00</time></trkpt><trkpt lat="64.14775848" lon="-21.94127464"><ele>45.7</ele><time>2012-07-18T11:56:05.0000000+00:00</time></trkpt><trkpt lat="64.14765167" lon="-21.94103241"><ele>48.7</ele><time>2012-07-18T11:56:10.0000000+00:00</time></trkpt><trkpt lat="64.1475296" lon="-21.94085121"><ele>50.9</ele><time>2012-07-18T11:56:15.0000000+00:00</time></trkpt><trkpt lat="64.1473999" lon="-21.9406147"><ele>50.4</ele><time>2012-07-18T11:56:20.0000000+00:00</time></trkpt><trkpt lat="64.14727783" lon="-21.94056892"><ele>46.8</ele><time>2012-07-18T11:56:25.0000000+00:00</time></trkpt><trkpt lat="64.14719391" lon="-21.94044685"><ele>45.2</ele><time>2012-07-18T11:56:30.0000000+00:00</time></trkpt><trkpt lat="64.14711762" lon="-21.9402504"><ele>43.0</ele><time>2012-07-18T11:56:35.0000000+00:00</time></trkpt><trkpt lat="64.14704895" lon="-21.9400444"><ele>45.5</ele><time>2012-07-18T11:56:40.0000000+00:00</time></trkpt><trkpt lat="64.14694977" lon="-21.93980408"><ele>38.6</ele><time>2012-07-18T11:56:45.0000000+00:00</time></trkpt><trkpt lat="64.14685822" lon="-21.93964005"><ele>30.6</ele><time>2012-07-18T11:56:50.0000000+00:00</time></trkpt><trkpt lat="64.14680481" lon="-21.93948746"><ele>29.3</ele><time>2012-07-18T11:56:55.0000000+00:00</time></trkpt><trkpt lat="64.14675903" lon="-21.93927574"><ele>28.9</ele><time>2012-07-18T11:57:00.0000000+00:00</time></trkpt><trkpt lat="64.14667511" lon="-21.93908501"><ele>28.1</ele><time>2012-07-18T11:57:05.0000000+00:00</time></trkpt><trkpt lat="64.14665985" lon="-21.93909264"><ele>27.5</ele><time>2012-07-18T11:57:10.0000000+00:00</time></trkpt><trkpt lat="64.14662933" lon="-21.93910599"><ele>27.6</ele><time>2012-07-18T11:57:15.0000000+00:00</time></trkpt><trkpt lat="64.14651489" lon="-21.9389534"><ele>26.4</ele><time>2012-07-18T11:57:20.0000000+00:00</time></trkpt><trkpt lat="64.14645386" lon="-21.93868446"><ele>25.0</ele><time>2012-07-18T11:57:25.0000000+00:00</time></trkpt><trkpt lat="64.14643097" lon="-21.93839264"><ele>22.4</ele><time>2012-07-18T11:57:30.0000000+00:00</time></trkpt><trkpt lat="64.14637756" lon="-21.93813515"><ele>21.6</ele><time>2012-07-18T11:57:35.0000000+00:00</time></trkpt><trkpt lat="64.14637756" lon="-21.93800736"><ele>21.4</ele><time>2012-07-18T11:57:40.0000000+00:00</time></trkpt><trkpt lat="64.14637756" lon="-21.93800545"><ele>22.5</ele><time>2012-07-18T11:57:45.0000000+00:00</time></trkpt><trkpt lat="64.14637756" lon="-21.93800354"><ele>22.5</ele><time>2012-07-18T11:57:50.0000000+00:00</time></trkpt><trkpt lat="64.14637756" lon="-21.93800163"><ele>22.5</ele><time>2012-07-18T11:57:55.0000000+00:00</time></trkpt><trkpt lat="64.14637756" lon="-21.93800163"><ele>22.6</ele><time>2012-07-18T11:58:00.0000000+00:00</time></trkpt><trkpt lat="64.14637756" lon="-21.93799973"><ele>22.6</ele><time>2012-07-18T11:58:05.0000000+00:00</time></trkpt><trkpt lat="64.14637756" lon="-21.93799973"><ele>22.6</ele><time>2012-07-18T11:58:10.0000000+00:00</time></trkpt><trkpt lat="64.14637756" lon="-21.93799782"><ele>22.6</ele><time>2012-07-18T11:58:15.0000000+00:00</time></trkpt><trkpt lat="64.14637756" lon="-21.937994"><ele>22.8</ele><time>2012-07-18T11:58:20.0000000+00:00</time></trkpt><trkpt lat="64.14637756" lon="-21.9379921"><ele>22.8</ele><time>2012-07-18T11:58:25.0000000+00:00</time></trkpt><trkpt lat="64.14637756" lon="-21.93798637"><ele>23.0</ele><time>2012-07-18T11:58:30.0000000+00:00</time></trkpt><trkpt lat="64.14633942" lon="-21.93797875"><ele>23.0</ele><time>2012-07-18T11:58:35.0000000+00:00</time></trkpt><trkpt lat="64.14629364" lon="-21.93804741"><ele>26.1</ele><time>2012-07-18T11:58:40.0000000+00:00</time></trkpt><trkpt lat="64.1461792" lon="-21.93823624"><ele>27.6</ele><time>2012-07-18T11:58:45.0000000+00:00</time></trkpt><trkpt lat="64.14601898" lon="-21.93848801"><ele>23.4</ele><time>2012-07-18T11:58:50.0000000+00:00</time></trkpt><trkpt lat="64.14585877" lon="-21.93880272"><ele>16.1</ele><time>2012-07-18T11:58:55.0000000+00:00</time></trkpt><trkpt lat="64.14571381" lon="-21.93904305"><ele>16.7</ele><time>2012-07-18T11:59:00.0000000+00:00</time></trkpt><trkpt lat="64.14557648" lon="-21.93932152"><ele>14.9</ele><time>2012-07-18T11:59:05.0000000+00:00</time></trkpt><trkpt lat="64.14532471" lon="-21.93939972"><ele>10.2</ele><time>2012-07-18T11:59:10.0000000+00:00</time></trkpt><trkpt lat="64.14507294" lon="-21.93949509"><ele>4.1</ele><time>2012-07-18T11:59:15.0000000+00:00</time></trkpt><trkpt lat="64.14485169" lon="-21.93959808"><ele>1.4</ele><time>2012-07-18T11:59:20.0000000+00:00</time></trkpt><trkpt lat="64.1446228" lon="-21.93967629"><ele>0.4</ele><time>2012-07-18T11:59:25.0000000+00:00</time></trkpt><trkpt lat="64.14441681" lon="-21.93976021"><ele>-0.1</ele><time>2012-07-18T11:59:30.0000000+00:00</time></trkpt><trkpt lat="64.14422607" lon="-21.93983269"><ele>-1.3</ele><time>2012-07-18T11:59:35.0000000+00:00</time></trkpt><trkpt lat="64.14403534" lon="-21.93989372"><ele>-1.1</ele><time>2012-07-18T11:59:40.0000000+00:00</time></trkpt><trkpt lat="64.14382935" lon="-21.93998718"><ele>-2.2</ele><time>2012-07-18T11:59:45.0000000+00:00</time></trkpt><trkpt lat="64.14364624" lon="-21.94007111"><ele>-4.4</ele><time>2012-07-18T11:59:50.0000000+00:00</time></trkpt><trkpt lat="64.14345551" lon="-21.94016457"><ele>-4.5</ele><time>2012-07-18T11:59:55.0000000+00:00</time></trkpt><trkpt lat="64.14326477" lon="-21.94026566"><ele>-4.5</ele><time>2012-07-18T12:00:00.0000000+00:00</time></trkpt><trkpt lat="64.14308929" lon="-21.94033623"><ele>-3.1</ele><time>2012-07-18T12:00:05.0000000+00:00</time></trkpt><trkpt lat="64.14292908" lon="-21.94038391"><ele>-2.2</ele><time>2012-07-18T12:00:10.0000000+00:00</time></trkpt><trkpt lat="64.14279175" lon="-21.94037247"><ele>0.3</ele><time>2012-07-18T12:00:15.0000000+00:00</time></trkpt><trkpt lat="64.14265442" lon="-21.94027519"><ele>0.8</ele><time>2012-07-18T12:00:20.0000000+00:00</time></trkpt><trkpt lat="64.14251709" lon="-21.94018745"><ele>1.4</ele><time>2012-07-18T12:00:25.0000000+00:00</time></trkpt><trkpt lat="64.14237213" lon="-21.94005203"><ele>3.6</ele><time>2012-07-18T12:00:30.0000000+00:00</time></trkpt><trkpt lat="64.14222717" lon="-21.93990517"><ele>6.3</ele><time>2012-07-18T12:00:35.0000000+00:00</time></trkpt><trkpt lat="64.1420517" lon="-21.93973923"><ele>7.3</ele><time>2012-07-18T12:00:40.0000000+00:00</time></trkpt><trkpt lat="64.14187622" lon="-21.93959808"><ele>10.2</ele><time>2012-07-18T12:00:45.0000000+00:00</time></trkpt><trkpt lat="64.14169312" lon="-21.93948174"><ele>11.4</ele><time>2012-07-18T12:00:50.0000000+00:00</time></trkpt><trkpt lat="64.14151001" lon="-21.93940926"><ele>9.5</ele><time>2012-07-18T12:00:55.0000000+00:00</time></trkpt><trkpt lat="64.1413269" lon="-21.93929291"><ele>8.2</ele><time>2012-07-18T12:01:00.0000000+00:00</time></trkpt><trkpt lat="64.14115143" lon="-21.93915558"><ele>8.1</ele><time>2012-07-18T12:01:05.0000000+00:00</time></trkpt><trkpt lat="64.14099884" lon="-21.9390316"><ele>6.2</ele><time>2012-07-18T12:01:10.0000000+00:00</time></trkpt><trkpt lat="64.14084625" lon="-21.9388752"><ele>5.9</ele><time>2012-07-18T12:01:15.0000000+00:00</time></trkpt><trkpt lat="64.14070129" lon="-21.93875122"><ele>7.1</ele><time>2012-07-18T12:01:20.0000000+00:00</time></trkpt><trkpt lat="64.14060211" lon="-21.93868065"><ele>10.7</ele><time>2012-07-18T12:01:25.0000000+00:00</time></trkpt><trkpt lat="64.1404419" lon="-21.93854141"><ele>11.7</ele><time>2012-07-18T12:01:30.0000000+00:00</time></trkpt><trkpt lat="64.14027405" lon="-21.93841744"><ele>12.2</ele><time>2012-07-18T12:01:35.0000000+00:00</time></trkpt><trkpt lat="64.14011383" lon="-21.93831253"><ele>12.3</ele><time>2012-07-18T12:01:40.0000000+00:00</time></trkpt><trkpt lat="64.13998413" lon="-21.9382019"><ele>12.6</ele><time>2012-07-18T12:01:45.0000000+00:00</time></trkpt><trkpt lat="64.13991547" lon="-21.93810272"><ele>13.6</ele><time>2012-07-18T12:01:50.0000000+00:00</time></trkpt><trkpt lat="64.13982391" lon="-21.93803215"><ele>15.0</ele><time>2012-07-18T12:01:55.0000000+00:00</time></trkpt><trkpt lat="64.13975525" lon="-21.93811417"><ele>15.0</ele><time>2012-07-18T12:02:00.0000000+00:00</time></trkpt><trkpt lat="64.13964081" lon="-21.93822098"><ele>11.5</ele><time>2012-07-18T12:02:05.0000000+00:00</time></trkpt><trkpt lat="64.13962555" lon="-21.93823624"><ele>12.0</ele><time>2012-07-18T12:02:10.0000000+00:00</time></trkpt><trkpt lat="64.13962555" lon="-21.93823624"><ele>12.1</ele><time>2012-07-18T12:02:15.0000000+00:00</time></trkpt><trkpt lat="64.13961029" lon="-21.93822861"><ele>12.2</ele><time>2012-07-18T12:02:20.0000000+00:00</time></trkpt><trkpt lat="64.13949585" lon="-21.93799019"><ele>10.9</ele><time>2012-07-18T12:02:25.0000000+00:00</time></trkpt><trkpt lat="64.13933563" lon="-21.93776512"><ele>8.3</ele><time>2012-07-18T12:02:30.0000000+00:00</time></trkpt><trkpt lat="64.13918304" lon="-21.93759728"><ele>7.5</ele><time>2012-07-18T12:02:35.0000000+00:00</time></trkpt><trkpt lat="64.13905335" lon="-21.93738365"><ele>9.1</ele><time>2012-07-18T12:02:40.0000000+00:00</time></trkpt><trkpt lat="64.13895416" lon="-21.9370842"><ele>8.9</ele><time>2012-07-18T12:02:45.0000000+00:00</time></trkpt><trkpt lat="64.13885498" lon="-21.93674278"><ele>6.9</ele><time>2012-07-18T12:02:50.0000000+00:00</time></trkpt><trkpt lat="64.13877106" lon="-21.9364605"><ele>6.3</ele><time>2012-07-18T12:02:55.0000000+00:00</time></trkpt><trkpt lat="64.13870239" lon="-21.936203"><ele>5.6</ele><time>2012-07-18T12:03:00.0000000+00:00</time></trkpt><trkpt lat="64.13865662" lon="-21.93588638"><ele>4.5</ele><time>2012-07-18T12:03:05.0000000+00:00</time></trkpt><trkpt lat="64.13861847" lon="-21.93562508"><ele>4.1</ele><time>2012-07-18T12:03:10.0000000+00:00</time></trkpt><trkpt lat="64.13858795" lon="-21.93540573"><ele>4.0</ele><time>2012-07-18T12:03:15.0000000+00:00</time></trkpt><trkpt lat="64.13854981" lon="-21.93514633"><ele>3.4</ele><time>2012-07-18T12:03:20.0000000+00:00</time></trkpt><trkpt lat="64.13850403" lon="-21.93489456"><ele>3.4</ele><time>2012-07-18T12:03:25.0000000+00:00</time></trkpt><trkpt lat="64.13846588" lon="-21.93466568"><ele>4.7</ele><time>2012-07-18T12:03:30.0000000+00:00</time></trkpt><trkpt lat="64.13842011" lon="-21.93437767"><ele>4.9</ele><time>2012-07-18T12:03:35.0000000+00:00</time></trkpt><trkpt lat="64.13838196" lon="-21.93410683"><ele>4.9</ele><time>2012-07-18T12:03:40.0000000+00:00</time></trkpt><trkpt lat="64.13834381" lon="-21.93384743"><ele>5.2</ele><time>2012-07-18T12:03:45.0000000+00:00</time></trkpt><trkpt lat="64.13831329" lon="-21.93359947"><ele>5.2</ele><time>2012-07-18T12:03:50.0000000+00:00</time></trkpt><trkpt lat="64.13829041" lon="-21.93330765"><ele>5.3</ele><time>2012-07-18T12:03:55.0000000+00:00</time></trkpt><trkpt lat="64.13824463" lon="-21.93299675"><ele>5.5</ele><time>2012-07-18T12:04:00.0000000+00:00</time></trkpt><trkpt lat="64.13818359" lon="-21.93276215"><ele>8.4</ele><time>2012-07-18T12:04:05.0000000+00:00</time></trkpt><trkpt lat="64.13813782" lon="-21.93248367"><ele>8.2</ele><time>2012-07-18T12:04:10.0000000+00:00</time></trkpt><trkpt lat="64.13809204" lon="-21.93220329"><ele>8.7</ele><time>2012-07-18T12:04:15.0000000+00:00</time></trkpt><trkpt lat="64.13804627" lon="-21.9319458"><ele>8.7</ele><time>2012-07-18T12:04:20.0000000+00:00</time></trkpt><trkpt lat="64.13800812" lon="-21.93165207"><ele>9.2</ele><time>2012-07-18T12:04:25.0000000+00:00</time></trkpt><trkpt lat="64.13796234" lon="-21.93139076"><ele>9.6</ele><time>2012-07-18T12:04:30.0000000+00:00</time></trkpt><trkpt lat="64.13792419" lon="-21.93112373"><ele>9.7</ele><time>2012-07-18T12:04:35.0000000+00:00</time></trkpt><trkpt lat="64.13787842" lon="-21.93083763"><ele>9.3</ele><time>2012-07-18T12:04:40.0000000+00:00</time></trkpt><trkpt lat="64.13784027" lon="-21.9305439"><ele>8.9</ele><time>2012-07-18T12:04:45.0000000+00:00</time></trkpt><trkpt lat="64.1377945" lon="-21.93025589"><ele>9.4</ele><time>2012-07-18T12:04:50.0000000+00:00</time></trkpt><trkpt lat="64.13774872" lon="-21.92992973"><ele>9.4</ele><time>2012-07-18T12:04:55.0000000+00:00</time></trkpt><trkpt lat="64.13769531" lon="-21.92960167"><ele>9.5</ele><time>2012-07-18T12:05:00.0000000+00:00</time></trkpt><trkpt lat="64.13764191" lon="-21.92924881"><ele>9.3</ele><time>2012-07-18T12:05:05.0000000+00:00</time></trkpt><trkpt lat="64.13758087" lon="-21.92892456"><ele>9.1</ele><time>2012-07-18T12:05:10.0000000+00:00</time></trkpt><trkpt lat="64.13752747" lon="-21.92859268"><ele>9.5</ele><time>2012-07-18T12:05:15.0000000+00:00</time></trkpt><trkpt lat="64.13748169" lon="-21.92823982"><ele>9.7</ele><time>2012-07-18T12:05:20.0000000+00:00</time></trkpt><trkpt lat="64.13743591" lon="-21.92788124"><ele>9.8</ele><time>2012-07-18T12:05:25.0000000+00:00</time></trkpt><trkpt lat="64.13739777" lon="-21.92751885"><ele>9.9</ele><time>2012-07-18T12:05:30.0000000+00:00</time></trkpt><trkpt lat="64.13735199" lon="-21.92729759"><ele>10.3</ele><time>2012-07-18T12:05:35.0000000+00:00</time></trkpt><trkpt lat="64.13735199" lon="-21.92731476"><ele>10.6</ele><time>2012-07-18T12:05:40.0000000+00:00</time></trkpt><trkpt lat="64.13735199" lon="-21.92731476"><ele>10.8</ele><time>2012-07-18T12:05:45.0000000+00:00</time></trkpt><trkpt lat="64.13735199" lon="-21.92731476"><ele>10.9</ele><time>2012-07-18T12:05:50.0000000+00:00</time></trkpt><trkpt lat="64.13735199" lon="-21.92731094"><ele>10.9</ele><time>2012-07-18T12:05:55.0000000+00:00</time></trkpt><trkpt lat="64.13735199" lon="-21.92731094"><ele>10.9</ele><time>2012-07-18T12:06:00.0000000+00:00</time></trkpt><trkpt lat="64.13735199" lon="-21.92731094"><ele>10.9</ele><time>2012-07-18T12:06:05.0000000+00:00</time></trkpt><trkpt lat="64.13735199" lon="-21.92731094"><ele>10.8</ele><time>2012-07-18T12:06:10.0000000+00:00</time></trkpt><trkpt lat="64.13735199" lon="-21.92731285"><ele>10.8</ele><time>2012-07-18T12:06:15.0000000+00:00</time></trkpt><trkpt lat="64.13735199" lon="-21.92731285"><ele>10.8</ele><time>2012-07-18T12:06:20.0000000+00:00</time></trkpt><trkpt lat="64.13735199" lon="-21.92731285"><ele>10.8</ele><time>2012-07-18T12:06:25.0000000+00:00</time></trkpt><trkpt lat="64.13735199" lon="-21.92731285"><ele>10.8</ele><time>2012-07-18T12:06:30.0000000+00:00</time></trkpt><trkpt lat="64.13735199" lon="-21.92731285"><ele>10.8</ele><time>2012-07-18T12:06:35.0000000+00:00</time></trkpt><trkpt lat="64.13735199" lon="-21.92731285"><ele>10.8</ele><time>2012-07-18T12:06:40.0000000+00:00</time></trkpt><trkpt lat="64.13735199" lon="-21.92731285"><ele>10.8</ele><time>2012-07-18T12:06:45.0000000+00:00</time></trkpt><trkpt lat="64.13735199" lon="-21.92731094"><ele>10.8</ele><time>2012-07-18T12:06:50.0000000+00:00</time></trkpt><trkpt lat="64.13735199" lon="-21.92731094"><ele>10.8</ele><time>2012-07-18T12:06:55.0000000+00:00</time></trkpt><trkpt lat="64.13735199" lon="-21.92731094"><ele>10.8</ele><time>2012-07-18T12:07:00.0000000+00:00</time></trkpt><trkpt lat="64.13735199" lon="-21.92731094"><ele>10.8</ele><time>2012-07-18T12:07:05.0000000+00:00</time></trkpt><trkpt lat="64.13735199" lon="-21.92731094"><ele>10.8</ele><time>2012-07-18T12:07:10.0000000+00:00</time></trkpt><trkpt lat="64.13735199" lon="-21.92731094"><ele>10.8</ele><time>2012-07-18T12:07:15.0000000+00:00</time></trkpt><trkpt lat="64.13735199" lon="-21.92728233"><ele>11.1</ele><time>2012-07-18T12:07:20.0000000+00:00</time></trkpt><trkpt lat="64.13733673" lon="-21.92724609"><ele>11.5</ele><time>2012-07-18T12:07:25.0000000+00:00</time></trkpt><trkpt lat="64.13729858" lon="-21.92703056"><ele>11.9</ele><time>2012-07-18T12:07:30.0000000+00:00</time></trkpt><trkpt lat="64.13726044" lon="-21.92675781"><ele>12.1</ele><time>2012-07-18T12:07:35.0000000+00:00</time></trkpt><trkpt lat="64.13722229" lon="-21.92648315"><ele>12.4</ele><time>2012-07-18T12:07:40.0000000+00:00</time></trkpt><trkpt lat="64.13717651" lon="-21.92621231"><ele>12.5</ele><time>2012-07-18T12:07:45.0000000+00:00</time></trkpt><trkpt lat="64.13711548" lon="-21.92590332"><ele>12.6</ele><time>2012-07-18T12:07:50.0000000+00:00</time></trkpt><trkpt lat="64.13705444" lon="-21.92556953"><ele>12.8</ele><time>2012-07-18T12:07:55.0000000+00:00</time></trkpt><trkpt lat="64.13699341" lon="-21.92522812"><ele>13.0</ele><time>2012-07-18T12:08:00.0000000+00:00</time></trkpt><trkpt lat="64.13693237" lon="-21.92488098"><ele>13.5</ele><time>2012-07-18T12:08:05.0000000+00:00</time></trkpt><trkpt lat="64.13687897" lon="-21.92455673"><ele>14.0</ele><time>2012-07-18T12:08:10.0000000+00:00</time></trkpt><trkpt lat="64.13683319" lon="-21.92424965"><ele>14.6</ele><time>2012-07-18T12:08:15.0000000+00:00</time></trkpt><trkpt lat="64.13678742" lon="-21.92395783"><ele>15.2</ele><time>2012-07-18T12:08:20.0000000+00:00</time></trkpt><trkpt lat="64.13676453" lon="-21.92375374"><ele>15.7</ele><time>2012-07-18T12:08:25.0000000+00:00</time></trkpt><trkpt lat="64.13674164" lon="-21.92366791"><ele>15.4</ele><time>2012-07-18T12:08:30.0000000+00:00</time></trkpt><trkpt lat="64.1366806" lon="-21.92368126"><ele>15.9</ele><time>2012-07-18T12:08:35.0000000+00:00</time></trkpt><trkpt lat="64.13660431" lon="-21.92364121"><ele>16.8</ele><time>2012-07-18T12:08:40.0000000+00:00</time></trkpt><trkpt lat="64.1365509" lon="-21.92365646"><ele>19.8</ele><time>2012-07-18T12:08:45.0000000+00:00</time></trkpt><trkpt lat="64.1365509" lon="-21.923666"><ele>20.1</ele><time>2012-07-18T12:08:50.0000000+00:00</time></trkpt><trkpt lat="64.1365509" lon="-21.92365074"><ele>20.4</ele><time>2012-07-18T12:08:55.0000000+00:00</time></trkpt><trkpt lat="64.13654327" lon="-21.92364883"><ele>20.4</ele><time>2012-07-18T12:09:00.0000000+00:00</time></trkpt><trkpt lat="64.13654327" lon="-21.92365074"><ele>20.4</ele><time>2012-07-18T12:09:05.0000000+00:00</time></trkpt><trkpt lat="64.13654327" lon="-21.92365074"><ele>20.4</ele><time>2012-07-18T12:09:10.0000000+00:00</time></trkpt><trkpt lat="64.13654327" lon="-21.92365074"><ele>20.4</ele><time>2012-07-18T12:09:15.0000000+00:00</time></trkpt><trkpt lat="64.13654327" lon="-21.92365074"><ele>20.4</ele><time>2012-07-18T12:09:20.0000000+00:00</time></trkpt><trkpt lat="64.13654327" lon="-21.92365074"><ele>20.5</ele><time>2012-07-18T12:09:25.0000000+00:00</time></trkpt><trkpt lat="64.13654327" lon="-21.92365074"><ele>20.5</ele><time>2012-07-18T12:09:30.0000000+00:00</time></trkpt><trkpt lat="64.13642883" lon="-21.92370796"><ele>21.0</ele><time>2012-07-18T12:09:35.0000000+00:00</time></trkpt><trkpt lat="64.13624573" lon="-21.92373276"><ele>20.5</ele><time>2012-07-18T12:09:40.0000000+00:00</time></trkpt><trkpt lat="64.13604736" lon="-21.92376518"><ele>21.4</ele><time>2012-07-18T12:09:45.0000000+00:00</time></trkpt><trkpt lat="64.13582611" lon="-21.92378616"><ele>20.2</ele><time>2012-07-18T12:09:50.0000000+00:00</time></trkpt><trkpt lat="64.13560486" lon="-21.9237442"><ele>18.8</ele><time>2012-07-18T12:09:55.0000000+00:00</time></trkpt><trkpt lat="64.13540649" lon="-21.92373657"><ele>17.9</ele><time>2012-07-18T12:10:00.0000000+00:00</time></trkpt><trkpt lat="64.13520813" lon="-21.92387962"><ele>16.4</ele><time>2012-07-18T12:10:05.0000000+00:00</time></trkpt><trkpt lat="64.13517761" lon="-21.92446899"><ele>15.5</ele><time>2012-07-18T12:10:10.0000000+00:00</time></trkpt><trkpt lat="64.13542938" lon="-21.92465019"><ele>14.5</ele><time>2012-07-18T12:10:15.0000000+00:00</time></trkpt><trkpt lat="64.13568878" lon="-21.92432594"><ele>16.4</ele><time>2012-07-18T12:10:20.0000000+00:00</time></trkpt><trkpt lat="64.13576508" lon="-21.92391968"><ele>18.9</ele><time>2012-07-18T12:10:25.0000000+00:00</time></trkpt><trkpt lat="64.13578796" lon="-21.92360306"><ele>20.2</ele><time>2012-07-18T12:10:30.0000000+00:00</time></trkpt><trkpt lat="64.13579559" lon="-21.92334938"><ele>20.7</ele><time>2012-07-18T12:10:35.0000000+00:00</time></trkpt><trkpt lat="64.13580322" lon="-21.92311859"><ele>20.7</ele><time>2012-07-18T12:10:40.0000000+00:00</time></trkpt><trkpt lat="64.13576508" lon="-21.92292023"><ele>20.7</ele><time>2012-07-18T12:10:45.0000000+00:00</time></trkpt><trkpt lat="64.13572693" lon="-21.92274284"><ele>17.9</ele><time>2012-07-18T12:10:50.0000000+00:00</time></trkpt><trkpt lat="64.13568878" lon="-21.92259979"><ele>16.0</ele><time>2012-07-18T12:10:55.0000000+00:00</time></trkpt><trkpt lat="64.13563538" lon="-21.92241669"><ele>19.4</ele><time>2012-07-18T12:11:00.0000000+00:00</time></trkpt><trkpt lat="64.13558197" lon="-21.92216492"><ele>19.9</ele><time>2012-07-18T12:11:05.0000000+00:00</time></trkpt><trkpt lat="64.13552094" lon="-21.92189598"><ele>18.3</ele><time>2012-07-18T12:11:10.0000000+00:00</time></trkpt><trkpt lat="64.13552094" lon="-21.92159843"><ele>20.0</ele><time>2012-07-18T12:11:15.0000000+00:00</time></trkpt><trkpt lat="64.13557434" lon="-21.92127419"><ele>22.3</ele><time>2012-07-18T12:11:20.0000000+00:00</time></trkpt><trkpt lat="64.13560486" lon="-21.92098236"><ele>24.7</ele><time>2012-07-18T12:11:25.0000000+00:00</time></trkpt><trkpt lat="64.13569641" lon="-21.92060471"><ele>24.9</ele><time>2012-07-18T12:11:30.0000000+00:00</time></trkpt><trkpt lat="64.13581848" lon="-21.92020989"><ele>22.6</ele><time>2012-07-18T12:11:35.0000000+00:00</time></trkpt><trkpt lat="64.13594055" lon="-21.91979218"><ele>22.5</ele><time>2012-07-18T12:11:40.0000000+00:00</time></trkpt><trkpt lat="64.13603973" lon="-21.91935539"><ele>23.5</ele><time>2012-07-18T12:11:45.0000000+00:00</time></trkpt><trkpt lat="64.13607025" lon="-21.91893387"><ele>21.5</ele><time>2012-07-18T12:11:50.0000000+00:00</time></trkpt><trkpt lat="64.13600159" lon="-21.91853905"><ele>22.3</ele><time>2012-07-18T12:11:55.0000000+00:00</time></trkpt><trkpt lat="64.13594055" lon="-21.9181385"><ele>18.7</ele><time>2012-07-18T12:12:00.0000000+00:00</time></trkpt><trkpt lat="64.13588715" lon="-21.91775703"><ele>17.5</ele><time>2012-07-18T12:12:05.0000000+00:00</time></trkpt><trkpt lat="64.13582611" lon="-21.91737747"><ele>16.2</ele><time>2012-07-18T12:12:10.0000000+00:00</time></trkpt><trkpt lat="64.13576508" lon="-21.9169941"><ele>12.8</ele><time>2012-07-18T12:12:15.0000000+00:00</time></trkpt><trkpt lat="64.13571167" lon="-21.91668129"><ele>9.9</ele><time>2012-07-18T12:12:20.0000000+00:00</time></trkpt><trkpt lat="64.13566589" lon="-21.91641045"><ele>8.5</ele><time>2012-07-18T12:12:25.0000000+00:00</time></trkpt><trkpt lat="64.13560486" lon="-21.91602325"><ele>7.5</ele><time>2012-07-18T12:12:30.0000000+00:00</time></trkpt><trkpt lat="64.13554382" lon="-21.9156189"><ele>6.5</ele><time>2012-07-18T12:12:35.0000000+00:00</time></trkpt><trkpt lat="64.13548279" lon="-21.91520119"><ele>6.5</ele><time>2012-07-18T12:12:40.0000000+00:00</time></trkpt><trkpt lat="64.13542175" lon="-21.91481781"><ele>4.5</ele><time>2012-07-18T12:12:45.0000000+00:00</time></trkpt><trkpt lat="64.13536072" lon="-21.91449165"><ele>3.3</ele><time>2012-07-18T12:12:50.0000000+00:00</time></trkpt><trkpt lat="64.1353302" lon="-21.91420746"><ele>4.1</ele><time>2012-07-18T12:12:55.0000000+00:00</time></trkpt><trkpt lat="64.13531494" lon="-21.91409302"><ele>6.3</ele><time>2012-07-18T12:13:00.0000000+00:00</time></trkpt><trkpt lat="64.13530731" lon="-21.91409683"><ele>6.4</ele><time>2012-07-18T12:13:05.0000000+00:00</time></trkpt><trkpt lat="64.13529205" lon="-21.9138794"><ele>7.3</ele><time>2012-07-18T12:13:10.0000000+00:00</time></trkpt><trkpt lat="64.13525391" lon="-21.91355324"><ele>8.0</ele><time>2012-07-18T12:13:15.0000000+00:00</time></trkpt><trkpt lat="64.1352005" lon="-21.91321182"><ele>8.6</ele><time>2012-07-18T12:13:20.0000000+00:00</time></trkpt><trkpt lat="64.1351471" lon="-21.9128418"><ele>10.4</ele><time>2012-07-18T12:13:25.0000000+00:00</time></trkpt><trkpt lat="64.13508606" lon="-21.91246033"><ele>11.3</ele><time>2012-07-18T12:13:30.0000000+00:00</time></trkpt><trkpt lat="64.13502502" lon="-21.91207504"><ele>11.8</ele><time>2012-07-18T12:13:35.0000000+00:00</time></trkpt><trkpt lat="64.13498688" lon="-21.91172791"><ele>12.5</ele><time>2012-07-18T12:13:40.0000000+00:00</time></trkpt><trkpt lat="64.13494873" lon="-21.9114418"><ele>17.4</ele><time>2012-07-18T12:13:45.0000000+00:00</time></trkpt><trkpt lat="64.13489533" lon="-21.91113091"><ele>17.7</ele><time>2012-07-18T12:13:50.0000000+00:00</time></trkpt><trkpt lat="64.13485718" lon="-21.91088867"><ele>17.8</ele><time>2012-07-18T12:13:55.0000000+00:00</time></trkpt><trkpt lat="64.13484955" lon="-21.91081619"><ele>19.0</ele><time>2012-07-18T12:14:00.0000000+00:00</time></trkpt><trkpt lat="64.13484955" lon="-21.91082001"><ele>18.8</ele><time>2012-07-18T12:14:05.0000000+00:00</time></trkpt><trkpt lat="64.13484955" lon="-21.91082382"><ele>18.8</ele><time>2012-07-18T12:14:10.0000000+00:00</time></trkpt><trkpt lat="64.13484955" lon="-21.91082382"><ele>18.9</ele><time>2012-07-18T12:14:15.0000000+00:00</time></trkpt><trkpt lat="64.13484955" lon="-21.91082192"><ele>18.9</ele><time>2012-07-18T12:14:20.0000000+00:00</time></trkpt><trkpt lat="64.13484955" lon="-21.91082192"><ele>18.9</ele><time>2012-07-18T12:14:25.0000000+00:00</time></trkpt><trkpt lat="64.13485718" lon="-21.91082001"><ele>19.0</ele><time>2012-07-18T12:14:30.0000000+00:00</time></trkpt><trkpt lat="64.13485718" lon="-21.91082001"><ele>19.0</ele><time>2012-07-18T12:14:35.0000000+00:00</time></trkpt><trkpt lat="64.13485718" lon="-21.91082001"><ele>19.0</ele><time>2012-07-18T12:14:40.0000000+00:00</time></trkpt><trkpt lat="64.13485718" lon="-21.9108181"><ele>19.1</ele><time>2012-07-18T12:14:45.0000000+00:00</time></trkpt><trkpt lat="64.13485718" lon="-21.9108181"><ele>19.1</ele><time>2012-07-18T12:14:50.0000000+00:00</time></trkpt><trkpt lat="64.13483429" lon="-21.91067123"><ele>19.3</ele><time>2012-07-18T12:14:55.0000000+00:00</time></trkpt><trkpt lat="64.13478851" lon="-21.9104023"><ele>19.9</ele><time>2012-07-18T12:15:00.0000000+00:00</time></trkpt><trkpt lat="64.134758" lon="-21.91010094"><ele>20.9</ele><time>2012-07-18T12:15:05.0000000+00:00</time></trkpt><trkpt lat="64.13471222" lon="-21.90979004"><ele>21.7</ele><time>2012-07-18T12:15:10.0000000+00:00</time></trkpt><trkpt lat="64.13465881" lon="-21.90947533"><ele>22.1</ele><time>2012-07-18T12:15:15.0000000+00:00</time></trkpt><trkpt lat="64.13459778" lon="-21.90912437"><ele>22.8</ele><time>2012-07-18T12:15:20.0000000+00:00</time></trkpt><trkpt lat="64.13454437" lon="-21.90877342"><ele>24.3</ele><time>2012-07-18T12:15:25.0000000+00:00</time></trkpt><trkpt lat="64.13448334" lon="-21.90841866"><ele>24.7</ele><time>2012-07-18T12:15:30.0000000+00:00</time></trkpt><trkpt lat="64.1344223" lon="-21.90805817"><ele>24.4</ele><time>2012-07-18T12:15:35.0000000+00:00</time></trkpt><trkpt lat="64.1343689" lon="-21.9077034"><ele>25.7</ele><time>2012-07-18T12:15:40.0000000+00:00</time></trkpt><trkpt lat="64.13431549" lon="-21.9073391"><ele>25.6</ele><time>2012-07-18T12:15:45.0000000+00:00</time></trkpt><trkpt lat="64.13425446" lon="-21.90698242"><ele>26.1</ele><time>2012-07-18T12:15:50.0000000+00:00</time></trkpt><trkpt lat="64.13420868" lon="-21.90664291"><ele>26.5</ele><time>2012-07-18T12:15:55.0000000+00:00</time></trkpt><trkpt lat="64.13414002" lon="-21.90641403"><ele>32.3</ele><time>2012-07-18T12:16:00.0000000+00:00</time></trkpt><trkpt lat="64.13410187" lon="-21.90609741"><ele>32.5</ele><time>2012-07-18T12:16:05.0000000+00:00</time></trkpt><trkpt lat="64.13406372" lon="-21.90587235"><ele>30.3</ele><time>2012-07-18T12:16:10.0000000+00:00</time></trkpt><trkpt lat="64.1340332" lon="-21.90558434"><ele>32.4</ele><time>2012-07-18T12:16:15.0000000+00:00</time></trkpt><trkpt lat="64.1339798" lon="-21.90529442"><ele>33.7</ele><time>2012-07-18T12:16:20.0000000+00:00</time></trkpt><trkpt lat="64.13394165" lon="-21.90504646"><ele>34.8</ele><time>2012-07-18T12:16:25.0000000+00:00</time></trkpt><trkpt lat="64.13391113" lon="-21.90481567"><ele>34.1</ele><time>2012-07-18T12:16:30.0000000+00:00</time></trkpt><trkpt lat="64.13387299" lon="-21.90458679"><ele>34.0</ele><time>2012-07-18T12:16:35.0000000+00:00</time></trkpt><trkpt lat="64.13382721" lon="-21.90434837"><ele>34.6</ele><time>2012-07-18T12:16:40.0000000+00:00</time></trkpt><trkpt lat="64.13380432" lon="-21.90409279"><ele>34.6</ele><time>2012-07-18T12:16:45.0000000+00:00</time></trkpt><trkpt lat="64.13376617" lon="-21.9038353"><ele>35.4</ele><time>2012-07-18T12:16:50.0000000+00:00</time></trkpt><trkpt lat="64.1337204" lon="-21.9036274"><ele>35.9</ele><time>2012-07-18T12:16:55.0000000+00:00</time></trkpt><trkpt lat="64.13368988" lon="-21.90345383"><ele>35.2</ele><time>2012-07-18T12:17:00.0000000+00:00</time></trkpt><trkpt lat="64.13365173" lon="-21.90323067"><ele>34.3</ele><time>2012-07-18T12:17:05.0000000+00:00</time></trkpt><trkpt lat="64.13362885" lon="-21.90305901"><ele>34.0</ele><time>2012-07-18T12:17:10.0000000+00:00</time></trkpt><trkpt lat="64.13360596" lon="-21.90292168"><ele>33.5</ele><time>2012-07-18T12:17:15.0000000+00:00</time></trkpt><trkpt lat="64.13355255" lon="-21.90268898"><ele>31.2</ele><time>2012-07-18T12:17:20.0000000+00:00</time></trkpt><trkpt lat="64.13350678" lon="-21.90236473"><ele>30.9</ele><time>2012-07-18T12:17:25.0000000+00:00</time></trkpt><trkpt lat="64.13345337" lon="-21.90206909"><ele>30.8</ele><time>2012-07-18T12:17:30.0000000+00:00</time></trkpt><trkpt lat="64.13339233" lon="-21.90177536"><ele>30.2</ele><time>2012-07-18T12:17:35.0000000+00:00</time></trkpt><trkpt lat="64.13334656" lon="-21.90145683"><ele>30.4</ele><time>2012-07-18T12:17:40.0000000+00:00</time></trkpt><trkpt lat="64.13327789" lon="-21.90112114"><ele>27.3</ele><time>2012-07-18T12:17:45.0000000+00:00</time></trkpt><trkpt lat="64.13320923" lon="-21.90071487"><ele>28.4</ele><time>2012-07-18T12:17:50.0000000+00:00</time></trkpt><trkpt lat="64.13315582" lon="-21.90029144"><ele>30.6</ele><time>2012-07-18T12:17:55.0000000+00:00</time></trkpt><trkpt lat="64.13310242" lon="-21.89988709"><ele>30.1</ele><time>2012-07-18T12:18:00.0000000+00:00</time></trkpt><trkpt lat="64.13304901" lon="-21.89949226"><ele>32.8</ele><time>2012-07-18T12:18:05.0000000+00:00</time></trkpt><trkpt lat="64.13299561" lon="-21.89909935"><ele>36.0</ele><time>2012-07-18T12:18:10.0000000+00:00</time></trkpt><trkpt lat="64.13291168" lon="-21.89883614"><ele>30.5</ele><time>2012-07-18T12:18:15.0000000+00:00</time></trkpt><trkpt lat="64.13290405" lon="-21.89860725"><ele>30.7</ele><time>2012-07-18T12:18:20.0000000+00:00</time></trkpt><trkpt lat="64.13286591" lon="-21.89837456"><ele>29.6</ele><time>2012-07-18T12:18:25.0000000+00:00</time></trkpt><trkpt lat="64.13288879" lon="-21.89823151"><ele>32.6</ele><time>2012-07-18T12:18:30.0000000+00:00</time></trkpt><trkpt lat="64.13283539" lon="-21.89793015"><ele>32.2</ele><time>2012-07-18T12:18:35.0000000+00:00</time></trkpt><trkpt lat="64.13278961" lon="-21.89770889"><ele>33.0</ele><time>2012-07-18T12:18:40.0000000+00:00</time></trkpt><trkpt lat="64.13272858" lon="-21.89736939"><ele>33.5</ele><time>2012-07-18T12:18:45.0000000+00:00</time></trkpt><trkpt lat="64.13267517" lon="-21.89699745"><ele>32.0</ele><time>2012-07-18T12:18:50.0000000+00:00</time></trkpt><trkpt lat="64.13261414" lon="-21.89664078"><ele>31.0</ele><time>2012-07-18T12:18:55.0000000+00:00</time></trkpt><trkpt lat="64.13260651" lon="-21.89633942"><ele>33.2</ele><time>2012-07-18T12:19:00.0000000+00:00</time></trkpt><trkpt lat="64.13259125" lon="-21.89606857"><ele>33.8</ele><time>2012-07-18T12:19:05.0000000+00:00</time></trkpt><trkpt lat="64.13253784" lon="-21.89574051"><ele>31.8</ele><time>2012-07-18T12:19:10.0000000+00:00</time></trkpt><trkpt lat="64.13247681" lon="-21.89536858"><ele>31.3</ele><time>2012-07-18T12:19:15.0000000+00:00</time></trkpt><trkpt lat="64.1324234" lon="-21.89497948"><ele>32.8</ele><time>2012-07-18T12:19:20.0000000+00:00</time></trkpt><trkpt lat="64.13235474" lon="-21.89463806"><ele>31.8</ele><time>2012-07-18T12:19:25.0000000+00:00</time></trkpt><trkpt lat="64.13227081" lon="-21.89435577"><ele>32.9</ele><time>2012-07-18T12:19:30.0000000+00:00</time></trkpt><trkpt lat="64.13220215" lon="-21.89402962"><ele>32.9</ele><time>2012-07-18T12:19:35.0000000+00:00</time></trkpt><trkpt lat="64.13214111" lon="-21.89364052"><ele>33.2</ele><time>2012-07-18T12:19:40.0000000+00:00</time></trkpt><trkpt lat="64.13206482" lon="-21.89325714"><ele>30.5</ele><time>2012-07-18T12:19:45.0000000+00:00</time></trkpt><trkpt lat="64.13200378" lon="-21.89284706"><ele>30.5</ele><time>2012-07-18T12:19:50.0000000+00:00</time></trkpt><trkpt lat="64.13195801" lon="-21.8923893"><ele>30.9</ele><time>2012-07-18T12:19:55.0000000+00:00</time></trkpt><trkpt lat="64.1319046" lon="-21.8920002"><ele>31.0</ele><time>2012-07-18T12:20:00.0000000+00:00</time></trkpt><trkpt lat="64.1318512" lon="-21.891716"><ele>31.3</ele><time>2012-07-18T12:20:05.0000000+00:00</time></trkpt><trkpt lat="64.13179779" lon="-21.89165497"><ele>30.6</ele><time>2012-07-18T12:20:10.0000000+00:00</time></trkpt><trkpt lat="64.13180542" lon="-21.8916626"><ele>30.1</ele><time>2012-07-18T12:20:15.0000000+00:00</time></trkpt><trkpt lat="64.13178253" lon="-21.89162636"><ele>28.6</ele><time>2012-07-18T12:20:20.0000000+00:00</time></trkpt><trkpt lat="64.13171387" lon="-21.89156151"><ele>28.9</ele><time>2012-07-18T12:20:25.0000000+00:00</time></trkpt><trkpt lat="64.13174439" lon="-21.89139175"><ele>30.2</ele><time>2012-07-18T12:20:30.0000000+00:00</time></trkpt><trkpt lat="64.13176727" lon="-21.89115334"><ele>30.8</ele><time>2012-07-18T12:20:35.0000000+00:00</time></trkpt><trkpt lat="64.13175201" lon="-21.89090538"><ele>31.2</ele><time>2012-07-18T12:20:40.0000000+00:00</time></trkpt><trkpt lat="64.13173676" lon="-21.8906498"><ele>30.9</ele><time>2012-07-18T12:20:45.0000000+00:00</time></trkpt><trkpt lat="64.13169861" lon="-21.8904419"><ele>29.1</ele><time>2012-07-18T12:20:50.0000000+00:00</time></trkpt><trkpt lat="64.1316452" lon="-21.89020538"><ele>30.0</ele><time>2012-07-18T12:20:55.0000000+00:00</time></trkpt><trkpt lat="64.13156891" lon="-21.89003754"><ele>31.4</ele><time>2012-07-18T12:21:00.0000000+00:00</time></trkpt><trkpt lat="64.13149262" lon="-21.88986969"><ele>34.7</ele><time>2012-07-18T12:21:05.0000000+00:00</time></trkpt><trkpt lat="64.13141632" lon="-21.88977051"><ele>41.1</ele><time>2012-07-18T12:21:10.0000000+00:00</time></trkpt><trkpt lat="64.13135529" lon="-21.88952828"><ele>41.1</ele><time>2012-07-18T12:21:15.0000000+00:00</time></trkpt><trkpt lat="64.1313324" lon="-21.88926888"><ele>41.6</ele><time>2012-07-18T12:21:20.0000000+00:00</time></trkpt><trkpt lat="64.13130951" lon="-21.88900757"><ele>44.2</ele><time>2012-07-18T12:21:25.0000000+00:00</time></trkpt><trkpt lat="64.13129425" lon="-21.8886776"><ele>49.4</ele><time>2012-07-18T12:21:30.0000000+00:00</time></trkpt><trkpt lat="64.13124847" lon="-21.88841629"><ele>47.7</ele><time>2012-07-18T12:21:35.0000000+00:00</time></trkpt><trkpt lat="64.13121033" lon="-21.88817596"><ele>46.5</ele><time>2012-07-18T12:21:40.0000000+00:00</time></trkpt><trkpt lat="64.13116455" lon="-21.88792419"><ele>46.0</ele><time>2012-07-18T12:21:45.0000000+00:00</time></trkpt><trkpt lat="64.13111877" lon="-21.88770104"><ele>47.0</ele><time>2012-07-18T12:21:50.0000000+00:00</time></trkpt><trkpt lat="64.13109589" lon="-21.88743019"><ele>47.8</ele><time>2012-07-18T12:21:55.0000000+00:00</time></trkpt><trkpt lat="64.13104248" lon="-21.88717842"><ele>48.1</ele><time>2012-07-18T12:22:00.0000000+00:00</time></trkpt><trkpt lat="64.1309967" lon="-21.88692665"><ele>47.9</ele><time>2012-07-18T12:22:05.0000000+00:00</time></trkpt><trkpt lat="64.13095856" lon="-21.88667679"><ele>48.6</ele><time>2012-07-18T12:22:10.0000000+00:00</time></trkpt><trkpt lat="64.1309433" lon="-21.88640213"><ele>51.9</ele><time>2012-07-18T12:22:15.0000000+00:00</time></trkpt><trkpt lat="64.13089752" lon="-21.88617134"><ele>51.5</ele><time>2012-07-18T12:22:20.0000000+00:00</time></trkpt><trkpt lat="64.13082886" lon="-21.88593483"><ele>50.5</ele><time>2012-07-18T12:22:25.0000000+00:00</time></trkpt><trkpt lat="64.13077545" lon="-21.8856411"><ele>50.9</ele><time>2012-07-18T12:22:30.0000000+00:00</time></trkpt><trkpt lat="64.13076019" lon="-21.88532829"><ele>53.3</ele><time>2012-07-18T12:22:35.0000000+00:00</time></trkpt><trkpt lat="64.13072205" lon="-21.88499641"><ele>54.3</ele><time>2012-07-18T12:22:40.0000000+00:00</time></trkpt><trkpt lat="64.13070679" lon="-21.88474274"><ele>55.0</ele><time>2012-07-18T12:22:45.0000000+00:00</time></trkpt><trkpt lat="64.13075256" lon="-21.88446045"><ele>54.5</ele><time>2012-07-18T12:22:50.0000000+00:00</time></trkpt><trkpt lat="64.13080597" lon="-21.88422012"><ele>54.8</ele><time>2012-07-18T12:22:55.0000000+00:00</time></trkpt><trkpt lat="64.13078308" lon="-21.88416863"><ele>53.6</ele><time>2012-07-18T12:23:00.0000000+00:00</time></trkpt><trkpt lat="64.13078308" lon="-21.88417053"><ele>53.6</ele><time>2012-07-18T12:23:05.0000000+00:00</time></trkpt><trkpt lat="64.13078308" lon="-21.88417053"><ele>53.5</ele><time>2012-07-18T12:23:10.0000000+00:00</time></trkpt><trkpt lat="64.13078308" lon="-21.88417053"><ele>53.4</ele><time>2012-07-18T12:23:15.0000000+00:00</time></trkpt><trkpt lat="64.13078308" lon="-21.88417244"><ele>53.4</ele><time>2012-07-18T12:23:20.0000000+00:00</time></trkpt><trkpt lat="64.13078308" lon="-21.88417244"><ele>53.3</ele><time>2012-07-18T12:23:25.0000000+00:00</time></trkpt><trkpt lat="64.13078308" lon="-21.88417053"><ele>53.3</ele><time>2012-07-18T12:23:30.0000000+00:00</time></trkpt><trkpt lat="64.13078308" lon="-21.88417244"><ele>53.3</ele><time>2012-07-18T12:23:35.0000000+00:00</time></trkpt><trkpt lat="64.13078308" lon="-21.88417244"><ele>53.3</ele><time>2012-07-18T12:23:40.0000000+00:00</time></trkpt><trkpt lat="64.13078308" lon="-21.88417244"><ele>53.3</ele><time>2012-07-18T12:23:45.0000000+00:00</time></trkpt><trkpt lat="64.13078308" lon="-21.88417244"><ele>53.2</ele><time>2012-07-18T12:23:50.0000000+00:00</time></trkpt><trkpt lat="64.13078308" lon="-21.88417244"><ele>53.2</ele><time>2012-07-18T12:23:55.0000000+00:00</time></trkpt><trkpt lat="64.13078308" lon="-21.88417244"><ele>53.2</ele><time>2012-07-18T12:24:00.0000000+00:00</time></trkpt><trkpt lat="64.13078308" lon="-21.88417244"><ele>53.2</ele><time>2012-07-18T12:24:05.0000000+00:00</time></trkpt><trkpt lat="64.13078308" lon="-21.88417244"><ele>53.1</ele><time>2012-07-18T12:24:10.0000000+00:00</time></trkpt><trkpt lat="64.13078308" lon="-21.88417053"><ele>53.1</ele><time>2012-07-18T12:24:15.0000000+00:00</time></trkpt><trkpt lat="64.13078308" lon="-21.88417053"><ele>53.1</ele><time>2012-07-18T12:24:20.0000000+00:00</time></trkpt><trkpt lat="64.13078308" lon="-21.88417053"><ele>53.0</ele><time>2012-07-18T12:24:25.0000000+00:00</time></trkpt><trkpt lat="64.13078308" lon="-21.88417053"><ele>53.0</ele><time>2012-07-18T12:24:30.0000000+00:00</time></trkpt><trkpt lat="64.13078308" lon="-21.88417053"><ele>53.0</ele><time>2012-07-18T12:24:35.0000000+00:00</time></trkpt><trkpt lat="64.13078308" lon="-21.88417053"><ele>53.0</ele><time>2012-07-18T12:24:40.0000000+00:00</time></trkpt><trkpt lat="64.13075256" lon="-21.88399887"><ele>52.2</ele><time>2012-07-18T12:24:45.0000000+00:00</time></trkpt><trkpt lat="64.13071442" lon="-21.88373947"><ele>51.2</ele><time>2012-07-18T12:24:50.0000000+00:00</time></trkpt><trkpt lat="64.13067627" lon="-21.88350868"><ele>50.4</ele><time>2012-07-18T12:24:55.0000000+00:00</time></trkpt><trkpt lat="64.13056946" lon="-21.8833828"><ele>50.6</ele><time>2012-07-18T12:25:00.0000000+00:00</time></trkpt><trkpt lat="64.13046265" lon="-21.88322449"><ele>50.7</ele><time>2012-07-18T12:25:05.0000000+00:00</time></trkpt><trkpt lat="64.13034821" lon="-21.88299942"><ele>50.9</ele><time>2012-07-18T12:25:10.0000000+00:00</time></trkpt><trkpt lat="64.13024139" lon="-21.8827877"><ele>50.9</ele><time>2012-07-18T12:25:15.0000000+00:00</time></trkpt><trkpt lat="64.13018036" lon="-21.88246918"><ele>49.0</ele><time>2012-07-18T12:25:20.0000000+00:00</time></trkpt><trkpt lat="64.13015747" lon="-21.88212204"><ele>48.1</ele><time>2012-07-18T12:25:25.0000000+00:00</time></trkpt><trkpt lat="64.13013458" lon="-21.88171578"><ele>47.2</ele><time>2012-07-18T12:25:30.0000000+00:00</time></trkpt><trkpt lat="64.13008118" lon="-21.88127518"><ele>46.3</ele><time>2012-07-18T12:25:35.0000000+00:00</time></trkpt><trkpt lat="64.13002777" lon="-21.88081932"><ele>46.7</ele><time>2012-07-18T12:25:40.0000000+00:00</time></trkpt><trkpt lat="64.12995148" lon="-21.88033676"><ele>46.6</ele><time>2012-07-18T12:25:45.0000000+00:00</time></trkpt><trkpt lat="64.12988281" lon="-21.87980461"><ele>46.0</ele><time>2012-07-18T12:25:50.0000000+00:00</time></trkpt><trkpt lat="64.12979889" lon="-21.87921333"><ele>44.5</ele><time>2012-07-18T12:25:55.0000000+00:00</time></trkpt><trkpt lat="64.12968445" lon="-21.87857437"><ele>42.5</ele><time>2012-07-18T12:26:00.0000000+00:00</time></trkpt><trkpt lat="64.12958527" lon="-21.87783814"><ele>41.4</ele><time>2012-07-18T12:26:05.0000000+00:00</time></trkpt><trkpt lat="64.12956238" lon="-21.87696457"><ele>38.3</ele><time>2012-07-18T12:26:10.0000000+00:00</time></trkpt><trkpt lat="64.12939453" lon="-21.87631607"><ele>35.2</ele><time>2012-07-18T12:26:15.0000000+00:00</time></trkpt><trkpt lat="64.12937164" lon="-21.87600517"><ele>32.2</ele><time>2012-07-18T12:26:20.0000000+00:00</time></trkpt><trkpt lat="64.12941742" lon="-21.87585259"><ele>32.3</ele><time>2012-07-18T12:26:25.0000000+00:00</time></trkpt><trkpt lat="64.12937927" lon="-21.87564278"><ele>32.5</ele><time>2012-07-18T12:26:30.0000000+00:00</time></trkpt><trkpt lat="64.12934113" lon="-21.87530518"><ele>32.8</ele><time>2012-07-18T12:26:35.0000000+00:00</time></trkpt><trkpt lat="64.1292572" lon="-21.87516975"><ele>34.1</ele><time>2012-07-18T12:26:40.0000000+00:00</time></trkpt><trkpt lat="64.12924194" lon="-21.87518311"><ele>35.4</ele><time>2012-07-18T12:26:45.0000000+00:00</time></trkpt><trkpt lat="64.12924194" lon="-21.8751812"><ele>36.4</ele><time>2012-07-18T12:26:50.0000000+00:00</time></trkpt><trkpt lat="64.12924194" lon="-21.8751812"><ele>36.5</ele><time>2012-07-18T12:26:55.0000000+00:00</time></trkpt><trkpt lat="64.12924194" lon="-21.8751812"><ele>36.4</ele><time>2012-07-18T12:27:00.0000000+00:00</time></trkpt><trkpt lat="64.12924194" lon="-21.8751812"><ele>36.4</ele><time>2012-07-18T12:27:05.0000000+00:00</time></trkpt><trkpt lat="64.12924194" lon="-21.8751812"><ele>36.4</ele><time>2012-07-18T12:27:10.0000000+00:00</time></trkpt><trkpt lat="64.12924194" lon="-21.87517357"><ele>36.4</ele><time>2012-07-18T12:27:15.0000000+00:00</time></trkpt><trkpt lat="64.12924194" lon="-21.87517357"><ele>36.4</ele><time>2012-07-18T12:27:20.0000000+00:00</time></trkpt><trkpt lat="64.12924194" lon="-21.87517548"><ele>36.4</ele><time>2012-07-18T12:27:25.0000000+00:00</time></trkpt><trkpt lat="64.12924194" lon="-21.87515259"><ele>36.4</ele><time>2012-07-18T12:27:30.0000000+00:00</time></trkpt><trkpt lat="64.12921906" lon="-21.87510681"><ele>35.7</ele><time>2012-07-18T12:27:35.0000000+00:00</time></trkpt><trkpt lat="64.12923431" lon="-21.87514305"><ele>35.3</ele><time>2012-07-18T12:27:40.0000000+00:00</time></trkpt><trkpt lat="64.12923431" lon="-21.87513924"><ele>35.5</ele><time>2012-07-18T12:27:45.0000000+00:00</time></trkpt><trkpt lat="64.12924957" lon="-21.87516975"><ele>35.7</ele><time>2012-07-18T12:27:50.0000000+00:00</time></trkpt><trkpt lat="64.12932587" lon="-21.87527275"><ele>35.0</ele><time>2012-07-18T12:27:55.0000000+00:00</time></trkpt><trkpt lat="64.12936401" lon="-21.87551498"><ele>35.2</ele><time>2012-07-18T12:28:00.0000000+00:00</time></trkpt><trkpt lat="64.12940216" lon="-21.87575722"><ele>39.8</ele><time>2012-07-18T12:28:05.0000000+00:00</time></trkpt><trkpt lat="64.12940216" lon="-21.87599564"><ele>40.3</ele><time>2012-07-18T12:28:10.0000000+00:00</time></trkpt><trkpt lat="64.12929535" lon="-21.8761158"><ele>41.1</ele><time>2012-07-18T12:28:15.0000000+00:00</time></trkpt><trkpt lat="64.12918854" lon="-21.87617302"><ele>41.4</ele><time>2012-07-18T12:28:20.0000000+00:00</time></trkpt><trkpt lat="64.12913513" lon="-21.87620735"><ele>41.3</ele><time>2012-07-18T12:28:25.0000000+00:00</time></trkpt><trkpt lat="64.12908173" lon="-21.87620926"><ele>41.1</ele><time>2012-07-18T12:28:30.0000000+00:00</time></trkpt><trkpt lat="64.12902069" lon="-21.87627602"><ele>42.5</ele><time>2012-07-18T12:28:35.0000000+00:00</time></trkpt><trkpt lat="64.12898254" lon="-21.87631989"><ele>43.7</ele><time>2012-07-18T12:28:40.0000000+00:00</time></trkpt><trkpt lat="64.12895203" lon="-21.87633324"><ele>43.2</ele><time>2012-07-18T12:28:45.0000000+00:00</time></trkpt><trkpt lat="64.1289444" lon="-21.87628365"><ele>43.9</ele><time>2012-07-18T12:28:50.0000000+00:00</time></trkpt><trkpt lat="64.12892151" lon="-21.87626839"><ele>45.0</ele><time>2012-07-18T12:28:55.0000000+00:00</time></trkpt><trkpt lat="64.12892151" lon="-21.8762455"><ele>46.3</ele><time>2012-07-18T12:29:00.0000000+00:00</time></trkpt><trkpt lat="64.12892151" lon="-21.8762207"><ele>47.2</ele><time>2012-07-18T12:29:05.0000000+00:00</time></trkpt><trkpt lat="64.12892151" lon="-21.87620163"><ele>47.8</ele><time>2012-07-18T12:29:10.0000000+00:00</time></trkpt><trkpt lat="64.12892914" lon="-21.87617874"><ele>48.6</ele><time>2012-07-18T12:29:15.0000000+00:00</time></trkpt><trkpt lat="64.12892914" lon="-21.87614822"><ele>49.4</ele><time>2012-07-18T12:29:20.0000000+00:00</time></trkpt><trkpt lat="64.12892914" lon="-21.87612152"><ele>50.2</ele><time>2012-07-18T12:29:25.0000000+00:00</time></trkpt><trkpt lat="64.12892914" lon="-21.87609673"><ele>50.9</ele><time>2012-07-18T12:29:30.0000000+00:00</time></trkpt><trkpt lat="64.12892914" lon="-21.87607002"><ele>51.6</ele><time>2012-07-18T12:29:35.0000000+00:00</time></trkpt><trkpt lat="64.12893677" lon="-21.87604332"><ele>52.5</ele><time>2012-07-18T12:29:40.0000000+00:00</time></trkpt><trkpt lat="64.12893677" lon="-21.87600136"><ele>53.6</ele><time>2012-07-18T12:29:45.0000000+00:00</time></trkpt><trkpt lat="64.12893677" lon="-21.87598038"><ele>54.4</ele><time>2012-07-18T12:29:50.0000000+00:00</time></trkpt><trkpt lat="64.12893677" lon="-21.87596321"><ele>55.2</ele><time>2012-07-18T12:29:55.0000000+00:00</time></trkpt><trkpt lat="64.12893677" lon="-21.87593651"><ele>55.8</ele><time>2012-07-18T12:30:00.0000000+00:00</time></trkpt><trkpt lat="64.12893677" lon="-21.87591171"><ele>56.5</ele><time>2012-07-18T12:30:05.0000000+00:00</time></trkpt><trkpt lat="64.12893677" lon="-21.87588882"><ele>57.1</ele><time>2012-07-18T12:30:10.0000000+00:00</time></trkpt><trkpt lat="64.12893677" lon="-21.87586784"><ele>57.6</ele><time>2012-07-18T12:30:15.0000000+00:00</time></trkpt><trkpt lat="64.1289444" lon="-21.87585259"><ele>58.1</ele><time>2012-07-18T12:30:20.0000000+00:00</time></trkpt><trkpt lat="64.1289444" lon="-21.87583542"><ele>58.5</ele><time>2012-07-18T12:30:25.0000000+00:00</time></trkpt><trkpt lat="64.1289444" lon="-21.87582398"><ele>58.9</ele><time>2012-07-18T12:30:30.0000000+00:00</time></trkpt><trkpt lat="64.1289444" lon="-21.87581253"><ele>59.2</ele><time>2012-07-18T12:30:35.0000000+00:00</time></trkpt><trkpt lat="64.1289444" lon="-21.87580109"><ele>59.4</ele><time>2012-07-18T12:30:40.0000000+00:00</time></trkpt><trkpt lat="64.1289444" lon="-21.87579346"><ele>59.7</ele><time>2012-07-18T12:30:45.0000000+00:00</time></trkpt><trkpt lat="64.1289444" lon="-21.87579155"><ele>59.9</ele><time>2012-07-18T12:30:50.0000000+00:00</time></trkpt><trkpt lat="64.1289444" lon="-21.87579155"><ele>60.0</ele><time>2012-07-18T12:30:55.0000000+00:00</time></trkpt><trkpt lat="64.1289444" lon="-21.87579155"><ele>60.0</ele><time>2012-07-18T12:31:00.0000000+00:00</time></trkpt><trkpt lat="64.1289444" lon="-21.87579155"><ele>60.0</ele><time>2012-07-18T12:31:05.0000000+00:00</time></trkpt><trkpt lat="64.1289444" lon="-21.87579155"><ele>60.0</ele><time>2012-07-18T12:31:10.0000000+00:00</time></trkpt><trkpt lat="64.1289444" lon="-21.87579155"><ele>60.0</ele><time>2012-07-18T12:31:15.0000000+00:00</time></trkpt><trkpt lat="64.1289444" lon="-21.87578964"><ele>60.1</ele><time>2012-07-18T12:31:20.0000000+00:00</time></trkpt><trkpt lat="64.1289444" lon="-21.87578964"><ele>60.1</ele><time>2012-07-18T12:31:25.0000000+00:00</time></trkpt><trkpt lat="64.1289444" lon="-21.87578964"><ele>60.1</ele><time>2012-07-18T12:31:30.0000000+00:00</time></trkpt><trkpt lat="64.1289444" lon="-21.87578964"><ele>60.1</ele><time>2012-07-18T12:31:35.0000000+00:00</time></trkpt><trkpt lat="64.1289444" lon="-21.87578964"><ele>60.1</ele><time>2012-07-18T12:31:40.0000000+00:00</time></trkpt><trkpt lat="64.1289444" lon="-21.87578964"><ele>60.1</ele><time>2012-07-18T12:31:45.0000000+00:00</time></trkpt><trkpt lat="64.1289444" lon="-21.87578774"><ele>60.1</ele><time>2012-07-18T12:31:50.0000000+00:00</time></trkpt><trkpt lat="64.1289444" lon="-21.87578583"><ele>60.1</ele><time>2012-07-18T12:31:55.0000000+00:00</time></trkpt><trkpt lat="64.1289444" lon="-21.87578774"><ele>60.0</ele><time>2012-07-18T12:32:00.0000000+00:00</time></trkpt><trkpt lat="64.1289444" lon="-21.87579346"><ele>59.8</ele><time>2012-07-18T12:32:05.0000000+00:00</time></trkpt><trkpt lat="64.1289444" lon="-21.87580109"><ele>59.5</ele><time>2012-07-18T12:32:10.0000000+00:00</time></trkpt><trkpt lat="64.1289444" lon="-21.87581253"><ele>59.3</ele><time>2012-07-18T12:32:15.0000000+00:00</time></trkpt><trkpt lat="64.1289444" lon="-21.87582207"><ele>59.0</ele><time>2012-07-18T12:32:20.0000000+00:00</time></trkpt><trkpt lat="64.1289444" lon="-21.87583351"><ele>58.8</ele><time>2012-07-18T12:32:25.0000000+00:00</time></trkpt><trkpt lat="64.1289444" lon="-21.87584686"><ele>58.6</ele><time>2012-07-18T12:32:30.0000000+00:00</time></trkpt><trkpt lat="64.1289444" lon="-21.87586594"><ele>58.4</ele><time>2012-07-18T12:32:35.0000000+00:00</time></trkpt><trkpt lat="64.12895203" lon="-21.87589264"><ele>58.1</ele><time>2012-07-18T12:32:40.0000000+00:00</time></trkpt><trkpt lat="64.1289444" lon="-21.87598229"><ele>56.4</ele><time>2012-07-18T12:32:45.0000000+00:00</time></trkpt><trkpt lat="64.12893677" lon="-21.87609482"><ele>54.4</ele><time>2012-07-18T12:32:50.0000000+00:00</time></trkpt><trkpt lat="64.12893677" lon="-21.87614441"><ele>53.7</ele><time>2012-07-18T12:32:55.0000000+00:00</time></trkpt><trkpt lat="64.12893677" lon="-21.87621689"><ele>53.1</ele><time>2012-07-18T12:33:00.0000000+00:00</time></trkpt><trkpt lat="64.1289444" lon="-21.87626648"><ele>52.7</ele><time>2012-07-18T12:33:05.0000000+00:00</time></trkpt><trkpt lat="64.12893677" lon="-21.87629318"><ele>51.6</ele><time>2012-07-18T12:33:10.0000000+00:00</time></trkpt><trkpt lat="64.12892914" lon="-21.87631607"><ele>50.8</ele><time>2012-07-18T12:33:15.0000000+00:00</time></trkpt><trkpt lat="64.12893677" lon="-21.87636566"><ele>50.1</ele><time>2012-07-18T12:33:20.0000000+00:00</time></trkpt><trkpt lat="64.12893677" lon="-21.87640762"><ele>49.3</ele><time>2012-07-18T12:33:25.0000000+00:00</time></trkpt><trkpt lat="64.12892151" lon="-21.87643051"><ele>47.9</ele><time>2012-07-18T12:33:30.0000000+00:00</time></trkpt><trkpt lat="64.12892151" lon="-21.87643051"><ele>47.2</ele><time>2012-07-18T12:33:35.0000000+00:00</time></trkpt><trkpt lat="64.12891388" lon="-21.87645149"><ele>46.4</ele><time>2012-07-18T12:33:40.0000000+00:00</time></trkpt><trkpt lat="64.12891388" lon="-21.87647247"><ele>45.7</ele><time>2012-07-18T12:33:45.0000000+00:00</time></trkpt><trkpt lat="64.12891388" lon="-21.87648583"><ele>44.9</ele><time>2012-07-18T12:33:50.0000000+00:00</time></trkpt><trkpt lat="64.12891388" lon="-21.87648773"><ele>44.2</ele><time>2012-07-18T12:33:55.0000000+00:00</time></trkpt><trkpt lat="64.12891388" lon="-21.87649155"><ele>43.5</ele><time>2012-07-18T12:34:00.0000000+00:00</time></trkpt><trkpt lat="64.12890625" lon="-21.87649536"><ele>42.8</ele><time>2012-07-18T12:34:05.0000000+00:00</time></trkpt><trkpt lat="64.12890625" lon="-21.87649536"><ele>42.1</ele><time>2012-07-18T12:34:10.0000000+00:00</time></trkpt><trkpt lat="64.12890625" lon="-21.87649918"><ele>41.5</ele><time>2012-07-18T12:34:15.0000000+00:00</time></trkpt><trkpt lat="64.12890625" lon="-21.87650299"><ele>40.9</ele><time>2012-07-18T12:34:20.0000000+00:00</time></trkpt><trkpt lat="64.12890625" lon="-21.87651062"><ele>40.4</ele><time>2012-07-18T12:34:25.0000000+00:00</time></trkpt><trkpt lat="64.12890625" lon="-21.87652206"><ele>39.9</ele><time>2012-07-18T12:34:30.0000000+00:00</time></trkpt><trkpt lat="64.12889862" lon="-21.87652969"><ele>39.4</ele><time>2012-07-18T12:34:35.0000000+00:00</time></trkpt><trkpt lat="64.12889862" lon="-21.87652779"><ele>39.0</ele><time>2012-07-18T12:34:40.0000000+00:00</time></trkpt><trkpt lat="64.12889862" lon="-21.87652016"><ele>38.7</ele><time>2012-07-18T12:34:45.0000000+00:00</time></trkpt><trkpt lat="64.12889099" lon="-21.87651444"><ele>38.3</ele><time>2012-07-18T12:34:50.0000000+00:00</time></trkpt><trkpt lat="64.12889099" lon="-21.87649918"><ele>37.9</ele><time>2012-07-18T12:34:55.0000000+00:00</time></trkpt><trkpt lat="64.12888336" lon="-21.87643051"><ele>38.1</ele><time>2012-07-18T12:35:00.0000000+00:00</time></trkpt><trkpt lat="64.12887573" lon="-21.87631416"><ele>39.8</ele><time>2012-07-18T12:35:05.0000000+00:00</time></trkpt><trkpt lat="64.12887573" lon="-21.87620354"><ele>41.6</ele><time>2012-07-18T12:35:10.0000000+00:00</time></trkpt><trkpt lat="64.12887573" lon="-21.87611961"><ele>43.3</ele><time>2012-07-18T12:35:15.0000000+00:00</time></trkpt><trkpt lat="64.12887573" lon="-21.87611771"><ele>44.0</ele><time>2012-07-18T12:35:20.0000000+00:00</time></trkpt><trkpt lat="64.12887573" lon="-21.87609673"><ele>44.9</ele><time>2012-07-18T12:35:25.0000000+00:00</time></trkpt><trkpt lat="64.1288681" lon="-21.87609482"><ele>45.0</ele><time>2012-07-18T12:35:30.0000000+00:00</time></trkpt><trkpt lat="64.12886047" lon="-21.87609863"><ele>45.1</ele><time>2012-07-18T12:35:35.0000000+00:00</time></trkpt><trkpt lat="64.12886047" lon="-21.87610054"><ele>45.2</ele><time>2012-07-18T12:35:40.0000000+00:00</time></trkpt><trkpt lat="64.12886047" lon="-21.87611771"><ele>45.4</ele><time>2012-07-18T12:35:45.0000000+00:00</time></trkpt><trkpt lat="64.12886047" lon="-21.87613487"><ele>45.5</ele><time>2012-07-18T12:35:50.0000000+00:00</time></trkpt><trkpt lat="64.12886047" lon="-21.87614822"><ele>45.7</ele><time>2012-07-18T12:35:55.0000000+00:00</time></trkpt><trkpt lat="64.12885284" lon="-21.8761425"><ele>45.9</ele><time>2012-07-18T12:36:00.0000000+00:00</time></trkpt><trkpt lat="64.12885284" lon="-21.87611771"><ele>46.0</ele><time>2012-07-18T12:36:05.0000000+00:00</time></trkpt><trkpt lat="64.12884522" lon="-21.87607956"><ele>45.5</ele><time>2012-07-18T12:36:10.0000000+00:00</time></trkpt><trkpt lat="64.12882996" lon="-21.87603951"><ele>44.3</ele><time>2012-07-18T12:36:15.0000000+00:00</time></trkpt><trkpt lat="64.12882996" lon="-21.87595367"><ele>45.0</ele><time>2012-07-18T12:36:20.0000000+00:00</time></trkpt><trkpt lat="64.12882996" lon="-21.87587738"><ele>46.1</ele><time>2012-07-18T12:36:25.0000000+00:00</time></trkpt><trkpt lat="64.12882996" lon="-21.87587929"><ele>46.4</ele><time>2012-07-18T12:36:30.0000000+00:00</time></trkpt><trkpt lat="64.12882996" lon="-21.87588692"><ele>46.6</ele><time>2012-07-18T12:36:35.0000000+00:00</time></trkpt><trkpt lat="64.12884522" lon="-21.8759346"><ele>47.6</ele><time>2012-07-18T12:36:40.0000000+00:00</time></trkpt><trkpt lat="64.12885284" lon="-21.8759613"><ele>48.4</ele><time>2012-07-18T12:36:45.0000000+00:00</time></trkpt><trkpt lat="64.12886047" lon="-21.87597656"><ele>48.8</ele><time>2012-07-18T12:36:50.0000000+00:00</time></trkpt><trkpt lat="64.12886047" lon="-21.87597466"><ele>49.1</ele><time>2012-07-18T12:36:55.0000000+00:00</time></trkpt><trkpt lat="64.1288681" lon="-21.87597466"><ele>49.2</ele><time>2012-07-18T12:37:00.0000000+00:00</time></trkpt><trkpt lat="64.1288681" lon="-21.87597084"><ele>49.3</ele><time>2012-07-18T12:37:05.0000000+00:00</time></trkpt><trkpt lat="64.12886047" lon="-21.87596893"><ele>49.3</ele><time>2012-07-18T12:37:10.0000000+00:00</time></trkpt><trkpt lat="64.12886047" lon="-21.87596893"><ele>49.3</ele><time>2012-07-18T12:37:15.0000000+00:00</time></trkpt><trkpt lat="64.12886047" lon="-21.87596893"><ele>49.3</ele><time>2012-07-18T12:37:20.0000000+00:00</time></trkpt><trkpt lat="64.12886047" lon="-21.87596893"><ele>49.3</ele><time>2012-07-18T12:37:25.0000000+00:00</time></trkpt><trkpt lat="64.12886047" lon="-21.87596703"><ele>49.3</ele><time>2012-07-18T12:37:30.0000000+00:00</time></trkpt><trkpt lat="64.12886047" lon="-21.87596703"><ele>49.3</ele><time>2012-07-18T12:37:35.0000000+00:00</time></trkpt><trkpt lat="64.12886047" lon="-21.87596703"><ele>49.3</ele><time>2012-07-18T12:37:40.0000000+00:00</time></trkpt><trkpt lat="64.12886047" lon="-21.87596512"><ele>49.3</ele><time>2012-07-18T12:37:45.0000000+00:00</time></trkpt><trkpt lat="64.12886047" lon="-21.87596512"><ele>49.3</ele><time>2012-07-18T12:37:50.0000000+00:00</time></trkpt><trkpt lat="64.12886047" lon="-21.87596703"><ele>49.4</ele><time>2012-07-18T12:37:55.0000000+00:00</time></trkpt><trkpt lat="64.12886047" lon="-21.87596703"><ele>49.4</ele><time>2012-07-18T12:38:00.0000000+00:00</time></trkpt><trkpt lat="64.12886047" lon="-21.87596893"><ele>49.4</ele><time>2012-07-18T12:38:05.0000000+00:00</time></trkpt><trkpt lat="64.12886047" lon="-21.87596893"><ele>49.4</ele><time>2012-07-18T12:38:10.0000000+00:00</time></trkpt><trkpt lat="64.12886047" lon="-21.87597084"><ele>49.4</ele><time>2012-07-18T12:38:15.0000000+00:00</time></trkpt><trkpt lat="64.12886047" lon="-21.87597084"><ele>49.4</ele><time>2012-07-18T12:38:20.0000000+00:00</time></trkpt><trkpt lat="64.12886047" lon="-21.87597275"><ele>49.3</ele><time>2012-07-18T12:38:25.0000000+00:00</time></trkpt><trkpt lat="64.12886047" lon="-21.87597656"><ele>49.3</ele><time>2012-07-18T12:38:30.0000000+00:00</time></trkpt><trkpt lat="64.12886047" lon="-21.87598038"><ele>49.3</ele><time>2012-07-18T12:38:35.0000000+00:00</time></trkpt><trkpt lat="64.12886047" lon="-21.87598229"><ele>49.3</ele><time>2012-07-18T12:38:40.0000000+00:00</time></trkpt><trkpt lat="64.12886047" lon="-21.8759861"><ele>49.3</ele><time>2012-07-18T12:38:45.0000000+00:00</time></trkpt><trkpt lat="64.12886047" lon="-21.8759861"><ele>49.3</ele><time>2012-07-18T12:38:50.0000000+00:00</time></trkpt><trkpt lat="64.12886047" lon="-21.87598801"><ele>49.3</ele><time>2012-07-18T12:38:55.0000000+00:00</time></trkpt><trkpt lat="64.12886047" lon="-21.87598801"><ele>49.3</ele><time>2012-07-18T12:39:00.0000000+00:00</time></trkpt><trkpt lat="64.1288681" lon="-21.87598801"><ele>49.3</ele><time>2012-07-18T12:39:05.0000000+00:00</time></trkpt><trkpt lat="64.1288681" lon="-21.87598991"><ele>49.4</ele><time>2012-07-18T12:39:10.0000000+00:00</time></trkpt><trkpt lat="64.1288681" lon="-21.87599182"><ele>49.4</ele><time>2012-07-18T12:39:15.0000000+00:00</time></trkpt><trkpt lat="64.1288681" lon="-21.87599564"><ele>49.4</ele><time>2012-07-18T12:39:20.0000000+00:00</time></trkpt><trkpt lat="64.1288681" lon="-21.87599754"><ele>49.4</ele><time>2012-07-18T12:39:25.0000000+00:00</time></trkpt><trkpt lat="64.1288681" lon="-21.87599945"><ele>49.3</ele><time>2012-07-18T12:39:30.0000000+00:00</time></trkpt><trkpt lat="64.1288681" lon="-21.87600136"><ele>49.3</ele><time>2012-07-18T12:39:35.0000000+00:00</time></trkpt><trkpt lat="64.1288681" lon="-21.87600136"><ele>49.3</ele><time>2012-07-18T12:39:40.0000000+00:00</time></trkpt><trkpt lat="64.1288681" lon="-21.87600517"><ele>49.3</ele><time>2012-07-18T12:39:45.0000000+00:00</time></trkpt><trkpt lat="64.1288681" lon="-21.87600708"><ele>49.3</ele><time>2012-07-18T12:39:50.0000000+00:00</time></trkpt><trkpt lat="64.1288681" lon="-21.87600899"><ele>49.3</ele><time>2012-07-18T12:39:55.0000000+00:00</time></trkpt><trkpt lat="64.1288681" lon="-21.8760109"><ele>49.3</ele><time>2012-07-18T12:40:00.0000000+00:00</time></trkpt><trkpt lat="64.1288681" lon="-21.8760128"><ele>49.3</ele><time>2012-07-18T12:40:05.0000000+00:00</time></trkpt><trkpt lat="64.1288681" lon="-21.87601471"><ele>49.3</ele><time>2012-07-18T12:40:10.0000000+00:00</time></trkpt><trkpt lat="64.1288681" lon="-21.87601852"><ele>49.3</ele><time>2012-07-18T12:40:15.0000000+00:00</time></trkpt><trkpt lat="64.1288681" lon="-21.87601852"><ele>49.3</ele><time>2012-07-18T12:40:20.0000000+00:00</time></trkpt><trkpt lat="64.1288681" lon="-21.87602043"><ele>49.3</ele><time>2012-07-18T12:40:25.0000000+00:00</time></trkpt><trkpt lat="64.1288681" lon="-21.87602043"><ele>49.3</ele><time>2012-07-18T12:40:30.0000000+00:00</time></trkpt><trkpt lat="64.1288681" lon="-21.87602425"><ele>49.4</ele><time>2012-07-18T12:40:35.0000000+00:00</time></trkpt><trkpt lat="64.1288681" lon="-21.87603569"><ele>49.5</ele><time>2012-07-18T12:40:40.0000000+00:00</time></trkpt><trkpt lat="64.12887573" lon="-21.87605667"><ele>49.7</ele><time>2012-07-18T12:40:45.0000000+00:00</time></trkpt><trkpt lat="64.12887573" lon="-21.87608337"><ele>50.0</ele><time>2012-07-18T12:40:50.0000000+00:00</time></trkpt><trkpt lat="64.12888336" lon="-21.87616348"><ele>50.0</ele><time>2012-07-18T12:40:55.0000000+00:00</time></trkpt><trkpt lat="64.12889099" lon="-21.87621498"><ele>50.3</ele><time>2012-07-18T12:41:00.0000000+00:00</time></trkpt><trkpt lat="64.12889099" lon="-21.87623406"><ele>50.8</ele><time>2012-07-18T12:41:05.0000000+00:00</time></trkpt><trkpt lat="64.12889862" lon="-21.87625313"><ele>50.9</ele><time>2012-07-18T12:41:10.0000000+00:00</time></trkpt><trkpt lat="64.12889862" lon="-21.87624931"><ele>50.9</ele><time>2012-07-18T12:41:15.0000000+00:00</time></trkpt><trkpt lat="64.12889099" lon="-21.87623215"><ele>50.7</ele><time>2012-07-18T12:41:20.0000000+00:00</time></trkpt><trkpt lat="64.12889099" lon="-21.87621498"><ele>50.4</ele><time>2012-07-18T12:41:25.0000000+00:00</time></trkpt><trkpt lat="64.12888336" lon="-21.87619972"><ele>49.9</ele><time>2012-07-18T12:41:30.0000000+00:00</time></trkpt><trkpt lat="64.12887573" lon="-21.87618637"><ele>49.3</ele><time>2012-07-18T12:41:35.0000000+00:00</time></trkpt><trkpt lat="64.12887573" lon="-21.87618446"><ele>48.7</ele><time>2012-07-18T12:41:40.0000000+00:00</time></trkpt><trkpt lat="64.1288681" lon="-21.87618256"><ele>48.0</ele><time>2012-07-18T12:41:45.0000000+00:00</time></trkpt><trkpt lat="64.12886047" lon="-21.87619019"><ele>47.4</ele><time>2012-07-18T12:41:50.0000000+00:00</time></trkpt><trkpt lat="64.12886047" lon="-21.8762188"><ele>47.0</ele><time>2012-07-18T12:41:55.0000000+00:00</time></trkpt><trkpt lat="64.12888336" lon="-21.87635994"><ele>47.9</ele><time>2012-07-18T12:42:00.0000000+00:00</time></trkpt><trkpt lat="64.12889862" lon="-21.87643433"><ele>49.0</ele><time>2012-07-18T12:42:05.0000000+00:00</time></trkpt><trkpt lat="64.12888336" lon="-21.87640572"><ele>46.4</ele><time>2012-07-18T12:42:10.0000000+00:00</time></trkpt><trkpt lat="64.12888336" lon="-21.87641716"><ele>46.4</ele><time>2012-07-18T12:42:15.0000000+00:00</time></trkpt><trkpt lat="64.12888336" lon="-21.87641716"><ele>46.3</ele><time>2012-07-18T12:42:20.0000000+00:00</time></trkpt><trkpt lat="64.12888336" lon="-21.87641335"><ele>46.4</ele><time>2012-07-18T12:42:25.0000000+00:00</time></trkpt><trkpt lat="64.12888336" lon="-21.87640762"><ele>46.5</ele><time>2012-07-18T12:42:30.0000000+00:00</time></trkpt><trkpt lat="64.12889099" lon="-21.87639809"><ele>46.5</ele><time>2012-07-18T12:42:35.0000000+00:00</time></trkpt><trkpt lat="64.12888336" lon="-21.87638283"><ele>46.1</ele><time>2012-07-18T12:42:40.0000000+00:00</time></trkpt><trkpt lat="64.12887573" lon="-21.8763752"><ele>45.6</ele><time>2012-07-18T12:42:45.0000000+00:00</time></trkpt><trkpt lat="64.12887573" lon="-21.87637329"><ele>45.5</ele><time>2012-07-18T12:42:50.0000000+00:00</time></trkpt><trkpt lat="64.12887573" lon="-21.87637329"><ele>45.3</ele><time>2012-07-18T12:42:55.0000000+00:00</time></trkpt><trkpt lat="64.12887573" lon="-21.87637329"><ele>45.3</ele><time>2012-07-18T12:43:00.0000000+00:00</time></trkpt><trkpt lat="64.12887573" lon="-21.87637138"><ele>45.3</ele><time>2012-07-18T12:43:05.0000000+00:00</time></trkpt><trkpt lat="64.12887573" lon="-21.87637138"><ele>45.3</ele><time>2012-07-18T12:43:10.0000000+00:00</time></trkpt><trkpt lat="64.12887573" lon="-21.87636948"><ele>45.3</ele><time>2012-07-18T12:43:15.0000000+00:00</time></trkpt><trkpt lat="64.12887573" lon="-21.87636757"><ele>45.3</ele><time>2012-07-18T12:43:20.0000000+00:00</time></trkpt><trkpt lat="64.1289978" lon="-21.87623596"><ele>44.5</ele><time>2012-07-18T12:43:25.0000000+00:00</time></trkpt><trkpt lat="64.12914276" lon="-21.87616348"><ele>43.3</ele><time>2012-07-18T12:43:30.0000000+00:00</time></trkpt><trkpt lat="64.12924957" lon="-21.87612343"><ele>40.7</ele><time>2012-07-18T12:43:35.0000000+00:00</time></trkpt><trkpt lat="64.12932587" lon="-21.87605667"><ele>39.3</ele><time>2012-07-18T12:43:40.0000000+00:00</time></trkpt><trkpt lat="64.12937927" lon="-21.87592316"><ele>36.6</ele><time>2012-07-18T12:43:45.0000000+00:00</time></trkpt><trkpt lat="64.12937927" lon="-21.87584686"><ele>35.1</ele><time>2012-07-18T12:43:50.0000000+00:00</time></trkpt><trkpt lat="64.12937927" lon="-21.87584496"><ele>35.0</ele><time>2012-07-18T12:43:55.0000000+00:00</time></trkpt><trkpt lat="64.12937927" lon="-21.87584114"><ele>35.0</ele><time>2012-07-18T12:44:00.0000000+00:00</time></trkpt><trkpt lat="64.12937927" lon="-21.87584114"><ele>35.1</ele><time>2012-07-18T12:44:05.0000000+00:00</time></trkpt><trkpt lat="64.12937927" lon="-21.87584114"><ele>35.1</ele><time>2012-07-18T12:44:10.0000000+00:00</time></trkpt><trkpt lat="64.12937927" lon="-21.87584114"><ele>35.1</ele><time>2012-07-18T12:44:15.0000000+00:00</time></trkpt><trkpt lat="64.12937927" lon="-21.87584114"><ele>35.1</ele><time>2012-07-18T12:44:20.0000000+00:00</time></trkpt><trkpt lat="64.12937927" lon="-21.87584305"><ele>35.1</ele><time>2012-07-18T12:44:25.0000000+00:00</time></trkpt><trkpt lat="64.12937927" lon="-21.87584305"><ele>35.1</ele><time>2012-07-18T12:44:30.0000000+00:00</time></trkpt><trkpt lat="64.12937927" lon="-21.87584305"><ele>35.1</ele><time>2012-07-18T12:44:35.0000000+00:00</time></trkpt><trkpt lat="64.12934876" lon="-21.87569428"><ele>34.5</ele><time>2012-07-18T12:44:40.0000000+00:00</time></trkpt><trkpt lat="64.12929535" lon="-21.87535095"><ele>33.9</ele><time>2012-07-18T12:44:45.0000000+00:00</time></trkpt><trkpt lat="64.12919617" lon="-21.87505722"><ele>34.0</ele><time>2012-07-18T12:44:50.0000000+00:00</time></trkpt><trkpt lat="64.12915039" lon="-21.87467194"><ele>33.1</ele><time>2012-07-18T12:44:55.0000000+00:00</time></trkpt><trkpt lat="64.12908173" lon="-21.87424088"><ele>32.5</ele><time>2012-07-18T12:45:00.0000000+00:00</time></trkpt><trkpt lat="64.12899017" lon="-21.87378311"><ele>31.2</ele><time>2012-07-18T12:45:05.0000000+00:00</time></trkpt><trkpt lat="64.12890625" lon="-21.87330246"><ele>30.4</ele><time>2012-07-18T12:45:10.0000000+00:00</time></trkpt><trkpt lat="64.12880707" lon="-21.87280846"><ele>29.0</ele><time>2012-07-18T12:45:15.0000000+00:00</time></trkpt><trkpt lat="64.12870026" lon="-21.87234497"><ele>27.4</ele><time>2012-07-18T12:45:20.0000000+00:00</time></trkpt><trkpt lat="64.1286087" lon="-21.87193489"><ele>27.1</ele><time>2012-07-18T12:45:25.0000000+00:00</time></trkpt><trkpt lat="64.12858582" lon="-21.87142563"><ele>26.2</ele><time>2012-07-18T12:45:30.0000000+00:00</time></trkpt><trkpt lat="64.12850189" lon="-21.87091637"><ele>25.9</ele><time>2012-07-18T12:45:35.0000000+00:00</time></trkpt><trkpt lat="64.12844086" lon="-21.87044716"><ele>25.1</ele><time>2012-07-18T12:45:40.0000000+00:00</time></trkpt><trkpt lat="64.12844849" lon="-21.87020111"><ele>24.8</ele><time>2012-07-18T12:45:45.0000000+00:00</time></trkpt><trkpt lat="64.12844849" lon="-21.86998558"><ele>24.2</ele><time>2012-07-18T12:45:50.0000000+00:00</time></trkpt><trkpt lat="64.12840271" lon="-21.86967087"><ele>24.2</ele><time>2012-07-18T12:45:55.0000000+00:00</time></trkpt><trkpt lat="64.12833405" lon="-21.86924553"><ele>23.5</ele><time>2012-07-18T12:46:00.0000000+00:00</time></trkpt><trkpt lat="64.12825012" lon="-21.86878014"><ele>24.4</ele><time>2012-07-18T12:46:05.0000000+00:00</time></trkpt><trkpt lat="64.12815857" lon="-21.86829186"><ele>24.5</ele><time>2012-07-18T12:46:10.0000000+00:00</time></trkpt><trkpt lat="64.12808991" lon="-21.86776161"><ele>25.7</ele><time>2012-07-18T12:46:15.0000000+00:00</time></trkpt><trkpt lat="64.12800598" lon="-21.86722755"><ele>26.2</ele><time>2012-07-18T12:46:20.0000000+00:00</time></trkpt><trkpt lat="64.12791443" lon="-21.86668587"><ele>26.4</ele><time>2012-07-18T12:46:25.0000000+00:00</time></trkpt><trkpt lat="64.12782288" lon="-21.86613274"><ele>26.5</ele><time>2012-07-18T12:46:30.0000000+00:00</time></trkpt><trkpt lat="64.12773895" lon="-21.86560059"><ele>26.5</ele><time>2012-07-18T12:46:35.0000000+00:00</time></trkpt><trkpt lat="64.1276474" lon="-21.86512947"><ele>26.2</ele><time>2012-07-18T12:46:40.0000000+00:00</time></trkpt><trkpt lat="64.12756348" lon="-21.86457443"><ele>26.1</ele><time>2012-07-18T12:46:45.0000000+00:00</time></trkpt><trkpt lat="64.12747192" lon="-21.86403847"><ele>27.8</ele><time>2012-07-18T12:46:50.0000000+00:00</time></trkpt><trkpt lat="64.12738037" lon="-21.86348915"><ele>28.0</ele><time>2012-07-18T12:46:55.0000000+00:00</time></trkpt><trkpt lat="64.12725067" lon="-21.86297035"><ele>26.8</ele><time>2012-07-18T12:47:00.0000000+00:00</time></trkpt><trkpt lat="64.12715912" lon="-21.86237145"><ele>26.7</ele><time>2012-07-18T12:47:05.0000000+00:00</time></trkpt><trkpt lat="64.12705994" lon="-21.8617897"><ele>27.2</ele><time>2012-07-18T12:47:10.0000000+00:00</time></trkpt><trkpt lat="64.12696838" lon="-21.86119652"><ele>27.6</ele><time>2012-07-18T12:47:15.0000000+00:00</time></trkpt><trkpt lat="64.1268692" lon="-21.86060143"><ele>27.6</ele><time>2012-07-18T12:47:20.0000000+00:00</time></trkpt><trkpt lat="64.12676239" lon="-21.86000633"><ele>26.8</ele><time>2012-07-18T12:47:25.0000000+00:00</time></trkpt><trkpt lat="64.12667847" lon="-21.85938263"><ele>28.1</ele><time>2012-07-18T12:47:30.0000000+00:00</time></trkpt><trkpt lat="64.12658691" lon="-21.8587532"><ele>28.0</ele><time>2012-07-18T12:47:35.0000000+00:00</time></trkpt><trkpt lat="64.12649536" lon="-21.85816765"><ele>28.4</ele><time>2012-07-18T12:47:40.0000000+00:00</time></trkpt><trkpt lat="64.12639618" lon="-21.857584"><ele>27.4</ele><time>2012-07-18T12:47:45.0000000+00:00</time></trkpt><trkpt lat="64.126297" lon="-21.85703468"><ele>26.1</ele><time>2012-07-18T12:47:50.0000000+00:00</time></trkpt><trkpt lat="64.12619782" lon="-21.85642052"><ele>25.8</ele><time>2012-07-18T12:47:55.0000000+00:00</time></trkpt><trkpt lat="64.12608337" lon="-21.8557663"><ele>25.6</ele><time>2012-07-18T12:48:00.0000000+00:00</time></trkpt><trkpt lat="64.12597656" lon="-21.85513115"><ele>25.0</ele><time>2012-07-18T12:48:05.0000000+00:00</time></trkpt><trkpt lat="64.12587738" lon="-21.85447311"><ele>25.2</ele><time>2012-07-18T12:48:10.0000000+00:00</time></trkpt><trkpt lat="64.12576294" lon="-21.8537941"><ele>25.4</ele><time>2012-07-18T12:48:15.0000000+00:00</time></trkpt><trkpt lat="64.1256485" lon="-21.85311699"><ele>25.1</ele><time>2012-07-18T12:48:20.0000000+00:00</time></trkpt><trkpt lat="64.12553406" lon="-21.85243416"><ele>24.5</ele><time>2012-07-18T12:48:25.0000000+00:00</time></trkpt><trkpt lat="64.12542725" lon="-21.85175324"><ele>24.2</ele><time>2012-07-18T12:48:30.0000000+00:00</time></trkpt><trkpt lat="64.12532044" lon="-21.8510685"><ele>25.2</ele><time>2012-07-18T12:48:35.0000000+00:00</time></trkpt><trkpt lat="64.12522125" lon="-21.85038757"><ele>26.2</ele><time>2012-07-18T12:48:40.0000000+00:00</time></trkpt><trkpt lat="64.12510681" lon="-21.84975815"><ele>24.0</ele><time>2012-07-18T12:48:45.0000000+00:00</time></trkpt><trkpt lat="64.12499237" lon="-21.84909248"><ele>22.2</ele><time>2012-07-18T12:48:50.0000000+00:00</time></trkpt><trkpt lat="64.12488556" lon="-21.84840393"><ele>20.4</ele><time>2012-07-18T12:48:55.0000000+00:00</time></trkpt><trkpt lat="64.12477112" lon="-21.84774017"><ele>18.1</ele><time>2012-07-18T12:49:00.0000000+00:00</time></trkpt><trkpt lat="64.12467957" lon="-21.84707832"><ele>16.8</ele><time>2012-07-18T12:49:05.0000000+00:00</time></trkpt><trkpt lat="64.12459564" lon="-21.84636307"><ele>16.7</ele><time>2012-07-18T12:49:10.0000000+00:00</time></trkpt><trkpt lat="64.12451172" lon="-21.8456192"><ele>17.5</ele><time>2012-07-18T12:49:15.0000000+00:00</time></trkpt><trkpt lat="64.12443543" lon="-21.84487915"><ele>16.4</ele><time>2012-07-18T12:49:20.0000000+00:00</time></trkpt><trkpt lat="64.1243515" lon="-21.84415436"><ele>15.8</ele><time>2012-07-18T12:49:25.0000000+00:00</time></trkpt><trkpt lat="64.12429047" lon="-21.84342766"><ele>15.6</ele><time>2012-07-18T12:49:30.0000000+00:00</time></trkpt><trkpt lat="64.1242218" lon="-21.84272766"><ele>15.6</ele><time>2012-07-18T12:49:35.0000000+00:00</time></trkpt><trkpt lat="64.12417603" lon="-21.84210014"><ele>16.1</ele><time>2012-07-18T12:49:40.0000000+00:00</time></trkpt><trkpt lat="64.12412262" lon="-21.84153557"><ele>16.1</ele><time>2012-07-18T12:49:45.0000000+00:00</time></trkpt><trkpt lat="64.12408447" lon="-21.84100914"><ele>16.1</ele><time>2012-07-18T12:49:50.0000000+00:00</time></trkpt><trkpt lat="64.12405396" lon="-21.8404789"><ele>17.7</ele><time>2012-07-18T12:49:55.0000000+00:00</time></trkpt><trkpt lat="64.12401581" lon="-21.83995056"><ele>18.8</ele><time>2012-07-18T12:50:00.0000000+00:00</time></trkpt><trkpt lat="64.12398529" lon="-21.83943558"><ele>19.2</ele><time>2012-07-18T12:50:05.0000000+00:00</time></trkpt><trkpt lat="64.12395477" lon="-21.83895302"><ele>19.9</ele><time>2012-07-18T12:50:10.0000000+00:00</time></trkpt><trkpt lat="64.12392426" lon="-21.83852196"><ele>19.9</ele><time>2012-07-18T12:50:15.0000000+00:00</time></trkpt><trkpt lat="64.12390137" lon="-21.83806801"><ele>21.2</ele><time>2012-07-18T12:50:20.0000000+00:00</time></trkpt><trkpt lat="64.12388611" lon="-21.83767891"><ele>22.3</ele><time>2012-07-18T12:50:25.0000000+00:00</time></trkpt><trkpt lat="64.12387085" lon="-21.83738136"><ele>22.4</ele><time>2012-07-18T12:50:30.0000000+00:00</time></trkpt><trkpt lat="64.12385559" lon="-21.83711624"><ele>23.1</ele><time>2012-07-18T12:50:35.0000000+00:00</time></trkpt><trkpt lat="64.1238327" lon="-21.83683968"><ele>22.8</ele><time>2012-07-18T12:50:40.0000000+00:00</time></trkpt><trkpt lat="64.1238327" lon="-21.8365593"><ele>24.3</ele><time>2012-07-18T12:50:45.0000000+00:00</time></trkpt><trkpt lat="64.12382507" lon="-21.83625412"><ele>25.7</ele><time>2012-07-18T12:50:50.0000000+00:00</time></trkpt><trkpt lat="64.12381744" lon="-21.83595848"><ele>26.7</ele><time>2012-07-18T12:50:55.0000000+00:00</time></trkpt><trkpt lat="64.12381744" lon="-21.83566475"><ele>28.8</ele><time>2012-07-18T12:51:00.0000000+00:00</time></trkpt><trkpt lat="64.12381744" lon="-21.83535957"><ele>30.4</ele><time>2012-07-18T12:51:05.0000000+00:00</time></trkpt><trkpt lat="64.12380981" lon="-21.83507347"><ele>31.8</ele><time>2012-07-18T12:51:10.0000000+00:00</time></trkpt><trkpt lat="64.12380219" lon="-21.83479118"><ele>32.9</ele><time>2012-07-18T12:51:15.0000000+00:00</time></trkpt><trkpt lat="64.12374878" lon="-21.83451271"><ele>33.5</ele><time>2012-07-18T12:51:20.0000000+00:00</time></trkpt><trkpt lat="64.12374878" lon="-21.83423233"><ele>34.3</ele><time>2012-07-18T12:51:25.0000000+00:00</time></trkpt><trkpt lat="64.12375641" lon="-21.83396339"><ele>35.3</ele><time>2012-07-18T12:51:30.0000000+00:00</time></trkpt><trkpt lat="64.12375641" lon="-21.83366203"><ele>37.2</ele><time>2012-07-18T12:51:35.0000000+00:00</time></trkpt><trkpt lat="64.12375641" lon="-21.83337212"><ele>37.5</ele><time>2012-07-18T12:51:40.0000000+00:00</time></trkpt><trkpt lat="64.12375641" lon="-21.83308792"><ele>38.8</ele><time>2012-07-18T12:51:45.0000000+00:00</time></trkpt><trkpt lat="64.12374115" lon="-21.832798"><ele>38.0</ele><time>2012-07-18T12:51:50.0000000+00:00</time></trkpt><trkpt lat="64.12374878" lon="-21.83250046"><ele>39.2</ele><time>2012-07-18T12:51:55.0000000+00:00</time></trkpt><trkpt lat="64.12374878" lon="-21.83222199"><ele>41.2</ele><time>2012-07-18T12:52:00.0000000+00:00</time></trkpt><trkpt lat="64.12374878" lon="-21.83194923"><ele>41.9</ele><time>2012-07-18T12:52:05.0000000+00:00</time></trkpt><trkpt lat="64.12374115" lon="-21.83167267"><ele>41.8</ele><time>2012-07-18T12:52:10.0000000+00:00</time></trkpt><trkpt lat="64.12374115" lon="-21.83142471"><ele>41.3</ele><time>2012-07-18T12:52:15.0000000+00:00</time></trkpt><trkpt lat="64.12372589" lon="-21.83131409"><ele>40.6</ele><time>2012-07-18T12:52:20.0000000+00:00</time></trkpt><trkpt lat="64.12372589" lon="-21.83129311"><ele>40.7</ele><time>2012-07-18T12:52:25.0000000+00:00</time></trkpt><trkpt lat="64.12372589" lon="-21.83129311"><ele>40.7</ele><time>2012-07-18T12:52:30.0000000+00:00</time></trkpt><trkpt lat="64.12372589" lon="-21.83129311"><ele>40.7</ele><time>2012-07-18T12:52:35.0000000+00:00</time></trkpt><trkpt lat="64.12372589" lon="-21.83129311"><ele>40.7</ele><time>2012-07-18T12:52:40.0000000+00:00</time></trkpt><trkpt lat="64.12372589" lon="-21.83128738"><ele>40.6</ele><time>2012-07-18T12:52:45.0000000+00:00</time></trkpt><trkpt lat="64.12372589" lon="-21.8312664"><ele>40.6</ele><time>2012-07-18T12:52:50.0000000+00:00</time></trkpt><trkpt lat="64.12372589" lon="-21.8312664"><ele>40.5</ele><time>2012-07-18T12:52:55.0000000+00:00</time></trkpt><trkpt lat="64.12372589" lon="-21.8312664"><ele>40.4</ele><time>2012-07-18T12:53:00.0000000+00:00</time></trkpt><trkpt lat="64.12372589" lon="-21.8312664"><ele>40.4</ele><time>2012-07-18T12:53:05.0000000+00:00</time></trkpt><trkpt lat="64.12375641" lon="-21.83104897"><ele>40.2</ele><time>2012-07-18T12:53:10.0000000+00:00</time></trkpt><trkpt lat="64.12376404" lon="-21.83071518"><ele>41.5</ele><time>2012-07-18T12:53:15.0000000+00:00</time></trkpt><trkpt lat="64.12376404" lon="-21.83037376"><ele>43.1</ele><time>2012-07-18T12:53:20.0000000+00:00</time></trkpt><trkpt lat="64.12377167" lon="-21.83004952"><ele>44.2</ele><time>2012-07-18T12:53:25.0000000+00:00</time></trkpt><trkpt lat="64.1237793" lon="-21.82972527"><ele>45.0</ele><time>2012-07-18T12:53:30.0000000+00:00</time></trkpt><trkpt lat="64.12378693" lon="-21.82940292"><ele>45.1</ele><time>2012-07-18T12:53:35.0000000+00:00</time></trkpt><trkpt lat="64.1237793" lon="-21.82904816"><ele>45.4</ele><time>2012-07-18T12:53:40.0000000+00:00</time></trkpt><trkpt lat="64.12379456" lon="-21.8286705"><ele>46.8</ele><time>2012-07-18T12:53:45.0000000+00:00</time></trkpt><trkpt lat="64.12380981" lon="-21.82829666"><ele>48.1</ele><time>2012-07-18T12:53:50.0000000+00:00</time></trkpt><trkpt lat="64.12382507" lon="-21.82793808"><ele>48.7</ele><time>2012-07-18T12:53:55.0000000+00:00</time></trkpt><trkpt lat="64.12382507" lon="-21.82755661"><ele>48.8</ele><time>2012-07-18T12:54:00.0000000+00:00</time></trkpt><trkpt lat="64.1238327" lon="-21.82715225"><ele>49.6</ele><time>2012-07-18T12:54:05.0000000+00:00</time></trkpt><trkpt lat="64.12384033" lon="-21.82674217"><ele>50.2</ele><time>2012-07-18T12:54:10.0000000+00:00</time></trkpt><trkpt lat="64.1238327" lon="-21.8263607"><ele>50.0</ele><time>2012-07-18T12:54:15.0000000+00:00</time></trkpt><trkpt lat="64.1238327" lon="-21.82597923"><ele>49.9</ele><time>2012-07-18T12:54:20.0000000+00:00</time></trkpt><trkpt lat="64.12384796" lon="-21.8255558"><ele>50.8</ele><time>2012-07-18T12:54:25.0000000+00:00</time></trkpt><trkpt lat="64.12385559" lon="-21.82513809"><ele>51.1</ele><time>2012-07-18T12:54:30.0000000+00:00</time></trkpt><trkpt lat="64.12385559" lon="-21.82471848"><ele>52.8</ele><time>2012-07-18T12:54:35.0000000+00:00</time></trkpt><trkpt lat="64.12384796" lon="-21.82431793"><ele>53.8</ele><time>2012-07-18T12:54:40.0000000+00:00</time></trkpt><trkpt lat="64.12384796" lon="-21.82391548"><ele>53.8</ele><time>2012-07-18T12:54:45.0000000+00:00</time></trkpt><trkpt lat="64.12387085" lon="-21.82348061"><ele>54.7</ele><time>2012-07-18T12:54:50.0000000+00:00</time></trkpt><trkpt lat="64.12388611" lon="-21.82304955"><ele>55.3</ele><time>2012-07-18T12:54:55.0000000+00:00</time></trkpt><trkpt lat="64.12387085" lon="-21.82262039"><ele>54.9</ele><time>2012-07-18T12:55:00.0000000+00:00</time></trkpt><trkpt lat="64.12387848" lon="-21.82220268"><ele>54.6</ele><time>2012-07-18T12:55:05.0000000+00:00</time></trkpt><trkpt lat="64.12388611" lon="-21.82182312"><ele>56.2</ele><time>2012-07-18T12:55:10.0000000+00:00</time></trkpt><trkpt lat="64.12387848" lon="-21.82145882"><ele>55.7</ele><time>2012-07-18T12:55:15.0000000+00:00</time></trkpt><trkpt lat="64.12387085" lon="-21.82107925"><ele>56.0</ele><time>2012-07-18T12:55:20.0000000+00:00</time></trkpt><trkpt lat="64.12387848" lon="-21.82068825"><ele>57.3</ele><time>2012-07-18T12:55:25.0000000+00:00</time></trkpt><trkpt lat="64.12388611" lon="-21.82029152"><ele>58.0</ele><time>2012-07-18T12:55:30.0000000+00:00</time></trkpt><trkpt lat="64.12390137" lon="-21.81987763"><ele>58.4</ele><time>2012-07-18T12:55:35.0000000+00:00</time></trkpt><trkpt lat="64.12392426" lon="-21.8194294"><ele>59.3</ele><time>2012-07-18T12:55:40.0000000+00:00</time></trkpt><trkpt lat="64.12392426" lon="-21.81899834"><ele>58.4</ele><time>2012-07-18T12:55:45.0000000+00:00</time></trkpt><trkpt lat="64.12393189" lon="-21.81855583"><ele>58.8</ele><time>2012-07-18T12:55:50.0000000+00:00</time></trkpt><trkpt lat="64.12393951" lon="-21.81809616"><ele>59.4</ele><time>2012-07-18T12:55:55.0000000+00:00</time></trkpt><trkpt lat="64.12393189" lon="-21.81762886"><ele>60.1</ele><time>2012-07-18T12:56:00.0000000+00:00</time></trkpt><trkpt lat="64.12394714" lon="-21.81721497"><ele>60.9</ele><time>2012-07-18T12:56:05.0000000+00:00</time></trkpt><trkpt lat="64.12398529" lon="-21.81669617"><ele>60.0</ele><time>2012-07-18T12:56:10.0000000+00:00</time></trkpt><trkpt lat="64.12400055" lon="-21.81611252"><ele>60.2</ele><time>2012-07-18T12:56:15.0000000+00:00</time></trkpt><trkpt lat="64.12400818" lon="-21.81555557"><ele>60.8</ele><time>2012-07-18T12:56:20.0000000+00:00</time></trkpt><trkpt lat="64.12400055" lon="-21.8150177"><ele>58.9</ele><time>2012-07-18T12:56:25.0000000+00:00</time></trkpt><trkpt lat="64.12400818" lon="-21.81447792"><ele>58.8</ele><time>2012-07-18T12:56:30.0000000+00:00</time></trkpt><trkpt lat="64.12402344" lon="-21.81391525"><ele>59.9</ele><time>2012-07-18T12:56:35.0000000+00:00</time></trkpt><trkpt lat="64.12404633" lon="-21.81333351"><ele>62.6</ele><time>2012-07-18T12:56:40.0000000+00:00</time></trkpt><trkpt lat="64.12406921" lon="-21.81275368"><ele>64.2</ele><time>2012-07-18T12:56:45.0000000+00:00</time></trkpt><trkpt lat="64.12408447" lon="-21.81218529"><ele>65.8</ele><time>2012-07-18T12:56:50.0000000+00:00</time></trkpt><trkpt lat="64.12410736" lon="-21.81160355"><ele>67.7</ele><time>2012-07-18T12:56:55.0000000+00:00</time></trkpt><trkpt lat="64.12408447" lon="-21.81103325"><ele>68.9</ele><time>2012-07-18T12:57:00.0000000+00:00</time></trkpt><trkpt lat="64.12405396" lon="-21.81063652"><ele>67.7</ele><time>2012-07-18T12:57:05.0000000+00:00</time></trkpt><trkpt lat="64.12407684" lon="-21.81028748"><ele>70.9</ele><time>2012-07-18T12:57:10.0000000+00:00</time></trkpt><trkpt lat="64.12408447" lon="-21.80990982"><ele>67.8</ele><time>2012-07-18T12:57:15.0000000+00:00</time></trkpt><trkpt lat="64.1240921" lon="-21.80933571"><ele>67.0</ele><time>2012-07-18T12:57:20.0000000+00:00</time></trkpt><trkpt lat="64.1240921" lon="-21.8087368"><ele>65.4</ele><time>2012-07-18T12:57:25.0000000+00:00</time></trkpt><trkpt lat="64.1240921" lon="-21.80815888"><ele>63.1</ele><time>2012-07-18T12:57:30.0000000+00:00</time></trkpt><trkpt lat="64.12410736" lon="-21.8075943"><ele>63.8</ele><time>2012-07-18T12:57:35.0000000+00:00</time></trkpt><trkpt lat="64.12413025" lon="-21.80699921"><ele>64.4</ele><time>2012-07-18T12:57:40.0000000+00:00</time></trkpt><trkpt lat="64.12413025" lon="-21.80638886"><ele>63.3</ele><time>2012-07-18T12:57:45.0000000+00:00</time></trkpt><trkpt lat="64.12413788" lon="-21.80579376"><ele>61.5</ele><time>2012-07-18T12:57:50.0000000+00:00</time></trkpt><trkpt lat="64.12415314" lon="-21.80523682"><ele>61.5</ele><time>2012-07-18T12:57:55.0000000+00:00</time></trkpt><trkpt lat="64.12416077" lon="-21.80469132"><ele>61.3</ele><time>2012-07-18T12:58:00.0000000+00:00</time></trkpt><trkpt lat="64.1241684" lon="-21.804142"><ele>62.0</ele><time>2012-07-18T12:58:05.0000000+00:00</time></trkpt><trkpt lat="64.12418366" lon="-21.80355835"><ele>62.0</ele><time>2012-07-18T12:58:10.0000000+00:00</time></trkpt><trkpt lat="64.12417603" lon="-21.80296707"><ele>60.1</ele><time>2012-07-18T12:58:15.0000000+00:00</time></trkpt><trkpt lat="64.12418366" lon="-21.80236626"><ele>58.4</ele><time>2012-07-18T12:58:20.0000000+00:00</time></trkpt><trkpt lat="64.12419128" lon="-21.80179024"><ele>57.2</ele><time>2012-07-18T12:58:25.0000000+00:00</time></trkpt><trkpt lat="64.12420654" lon="-21.8012352"><ele>56.7</ele><time>2012-07-18T12:58:30.0000000+00:00</time></trkpt><trkpt lat="64.1242218" lon="-21.80068588"><ele>56.5</ele><time>2012-07-18T12:58:35.0000000+00:00</time></trkpt><trkpt lat="64.12421417" lon="-21.80016899"><ele>54.2</ele><time>2012-07-18T12:58:40.0000000+00:00</time></trkpt><trkpt lat="64.12421417" lon="-21.79958725"><ele>52.4</ele><time>2012-07-18T12:58:45.0000000+00:00</time></trkpt><trkpt lat="64.12421417" lon="-21.79896736"><ele>50.4</ele><time>2012-07-18T12:58:50.0000000+00:00</time></trkpt><trkpt lat="64.1242218" lon="-21.79836273"><ele>48.9</ele><time>2012-07-18T12:58:55.0000000+00:00</time></trkpt><trkpt lat="64.12422943" lon="-21.79777527"><ele>48.3</ele><time>2012-07-18T12:59:00.0000000+00:00</time></trkpt><trkpt lat="64.12423706" lon="-21.79714966"><ele>47.4</ele><time>2012-07-18T12:59:05.0000000+00:00</time></trkpt><trkpt lat="64.12424469" lon="-21.79657555"><ele>46.0</ele><time>2012-07-18T12:59:10.0000000+00:00</time></trkpt><trkpt lat="64.12424469" lon="-21.79603386"><ele>44.9</ele><time>2012-07-18T12:59:15.0000000+00:00</time></trkpt><trkpt lat="64.12425995" lon="-21.79553032"><ele>44.2</ele><time>2012-07-18T12:59:20.0000000+00:00</time></trkpt><trkpt lat="64.12425995" lon="-21.79507065"><ele>43.1</ele><time>2012-07-18T12:59:25.0000000+00:00</time></trkpt><trkpt lat="64.12426758" lon="-21.79462051"><ele>42.3</ele><time>2012-07-18T12:59:30.0000000+00:00</time></trkpt><trkpt lat="64.12427521" lon="-21.79420471"><ele>41.8</ele><time>2012-07-18T12:59:35.0000000+00:00</time></trkpt><trkpt lat="64.12427521" lon="-21.79382324"><ele>41.3</ele><time>2012-07-18T12:59:40.0000000+00:00</time></trkpt><trkpt lat="64.12428284" lon="-21.79343033"><ele>41.0</ele><time>2012-07-18T12:59:45.0000000+00:00</time></trkpt><trkpt lat="64.1242981" lon="-21.79295921"><ele>41.7</ele><time>2012-07-18T12:59:50.0000000+00:00</time></trkpt><trkpt lat="64.12430573" lon="-21.79244232"><ele>41.9</ele><time>2012-07-18T12:59:55.0000000+00:00</time></trkpt><trkpt lat="64.12432861" lon="-21.79188538"><ele>42.6</ele><time>2012-07-18T13:00:00.0000000+00:00</time></trkpt><trkpt lat="64.12432861" lon="-21.79131889"><ele>42.5</ele><time>2012-07-18T13:00:05.0000000+00:00</time></trkpt><trkpt lat="64.1243515" lon="-21.79074097"><ele>42.4</ele><time>2012-07-18T13:00:10.0000000+00:00</time></trkpt><trkpt lat="64.12438202" lon="-21.79019165"><ele>42.4</ele><time>2012-07-18T13:00:15.0000000+00:00</time></trkpt><trkpt lat="64.12441254" lon="-21.78963852"><ele>42.2</ele><time>2012-07-18T13:00:20.0000000+00:00</time></trkpt><trkpt lat="64.12445068" lon="-21.78904533"><ele>41.9</ele><time>2012-07-18T13:00:25.0000000+00:00</time></trkpt><trkpt lat="64.12450409" lon="-21.7884407"><ele>41.4</ele><time>2012-07-18T13:00:30.0000000+00:00</time></trkpt><trkpt lat="64.1245575" lon="-21.78781891"><ele>42.3</ele><time>2012-07-18T13:00:35.0000000+00:00</time></trkpt><trkpt lat="64.12461853" lon="-21.78724861"><ele>42.5</ele><time>2012-07-18T13:00:40.0000000+00:00</time></trkpt><trkpt lat="64.12467957" lon="-21.78664208"><ele>42.2</ele><time>2012-07-18T13:00:45.0000000+00:00</time></trkpt><trkpt lat="64.12475586" lon="-21.7860508"><ele>43.0</ele><time>2012-07-18T13:00:50.0000000+00:00</time></trkpt><trkpt lat="64.12483215" lon="-21.78547287"><ele>44.0</ele><time>2012-07-18T13:00:55.0000000+00:00</time></trkpt><trkpt lat="64.12491608" lon="-21.78491211"><ele>44.8</ele><time>2012-07-18T13:01:00.0000000+00:00</time></trkpt><trkpt lat="64.12499237" lon="-21.78441048"><ele>45.1</ele><time>2012-07-18T13:01:05.0000000+00:00</time></trkpt><trkpt lat="64.12507629" lon="-21.78390312"><ele>47.1</ele><time>2012-07-18T13:01:10.0000000+00:00</time></trkpt><trkpt lat="64.12517548" lon="-21.78339386"><ele>47.4</ele><time>2012-07-18T13:01:15.0000000+00:00</time></trkpt><trkpt lat="64.12527466" lon="-21.78285599"><ele>46.4</ele><time>2012-07-18T13:01:20.0000000+00:00</time></trkpt><trkpt lat="64.1253891" lon="-21.78234863"><ele>47.1</ele><time>2012-07-18T13:01:25.0000000+00:00</time></trkpt><trkpt lat="64.12549591" lon="-21.78184509"><ele>45.8</ele><time>2012-07-18T13:01:30.0000000+00:00</time></trkpt><trkpt lat="64.12561035" lon="-21.78132439"><ele>45.1</ele><time>2012-07-18T13:01:35.0000000+00:00</time></trkpt><trkpt lat="64.12574005" lon="-21.78081513"><ele>45.6</ele><time>2012-07-18T13:01:40.0000000+00:00</time></trkpt><trkpt lat="64.12586975" lon="-21.78031921"><ele>43.9</ele><time>2012-07-18T13:01:45.0000000+00:00</time></trkpt><trkpt lat="64.12599945" lon="-21.77983856"><ele>41.8</ele><time>2012-07-18T13:01:50.0000000+00:00</time></trkpt><trkpt lat="64.12612152" lon="-21.77936745"><ele>37.7</ele><time>2012-07-18T13:01:55.0000000+00:00</time></trkpt><trkpt lat="64.12625122" lon="-21.77890205"><ele>38.2</ele><time>2012-07-18T13:02:00.0000000+00:00</time></trkpt><trkpt lat="64.12638855" lon="-21.77845764"><ele>37.2</ele><time>2012-07-18T13:02:05.0000000+00:00</time></trkpt><trkpt lat="64.12652588" lon="-21.77804756"><ele>37.2</ele><time>2012-07-18T13:02:10.0000000+00:00</time></trkpt><trkpt lat="64.12666321" lon="-21.77765083"><ele>35.8</ele><time>2012-07-18T13:02:15.0000000+00:00</time></trkpt><trkpt lat="64.12680054" lon="-21.77725983"><ele>35.3</ele><time>2012-07-18T13:02:20.0000000+00:00</time></trkpt><trkpt lat="64.12693787" lon="-21.77688026"><ele>35.4</ele><time>2012-07-18T13:02:25.0000000+00:00</time></trkpt><trkpt lat="64.12706757" lon="-21.77651787"><ele>36.5</ele><time>2012-07-18T13:02:30.0000000+00:00</time></trkpt><trkpt lat="64.12719727" lon="-21.7761879"><ele>37.1</ele><time>2012-07-18T13:02:35.0000000+00:00</time></trkpt><trkpt lat="64.12731171" lon="-21.77588844"><ele>37.0</ele><time>2012-07-18T13:02:40.0000000+00:00</time></trkpt><trkpt lat="64.12744141" lon="-21.7755394"><ele>38.1</ele><time>2012-07-18T13:02:45.0000000+00:00</time></trkpt><trkpt lat="64.12757111" lon="-21.77519798"><ele>38.7</ele><time>2012-07-18T13:02:50.0000000+00:00</time></trkpt><trkpt lat="64.12770844" lon="-21.77484703"><ele>39.2</ele><time>2012-07-18T13:02:55.0000000+00:00</time></trkpt><trkpt lat="64.12784576" lon="-21.77448082"><ele>39.4</ele><time>2012-07-18T13:03:00.0000000+00:00</time></trkpt><trkpt lat="64.12798309" lon="-21.77412987"><ele>40.0</ele><time>2012-07-18T13:03:05.0000000+00:00</time></trkpt><trkpt lat="64.12807465" lon="-21.77381706"><ele>40.8</ele><time>2012-07-18T13:03:10.0000000+00:00</time></trkpt><trkpt lat="64.12817383" lon="-21.77355385"><ele>41.9</ele><time>2012-07-18T13:03:15.0000000+00:00</time></trkpt><trkpt lat="64.12828064" lon="-21.7732563"><ele>41.8</ele><time>2012-07-18T13:03:20.0000000+00:00</time></trkpt><trkpt lat="64.12840271" lon="-21.77293968"><ele>41.7</ele><time>2012-07-18T13:03:25.0000000+00:00</time></trkpt><trkpt lat="64.12853241" lon="-21.77262688"><ele>41.9</ele><time>2012-07-18T13:03:30.0000000+00:00</time></trkpt><trkpt lat="64.12865448" lon="-21.77231026"><ele>41.8</ele><time>2012-07-18T13:03:35.0000000+00:00</time></trkpt><trkpt lat="64.12877655" lon="-21.77199936"><ele>41.9</ele><time>2012-07-18T13:03:40.0000000+00:00</time></trkpt><trkpt lat="64.12891388" lon="-21.77166748"><ele>41.4</ele><time>2012-07-18T13:03:45.0000000+00:00</time></trkpt><trkpt lat="64.12901306" lon="-21.77135277"><ele>41.8</ele><time>2012-07-18T13:03:50.0000000+00:00</time></trkpt><trkpt lat="64.1291275" lon="-21.77105331"><ele>42.1</ele><time>2012-07-18T13:03:55.0000000+00:00</time></trkpt><trkpt lat="64.12924957" lon="-21.77076912"><ele>41.3</ele><time>2012-07-18T13:04:00.0000000+00:00</time></trkpt><trkpt lat="64.12935638" lon="-21.77047539"><ele>41.6</ele><time>2012-07-18T13:04:05.0000000+00:00</time></trkpt><trkpt lat="64.12947083" lon="-21.77017021"><ele>41.1</ele><time>2012-07-18T13:04:10.0000000+00:00</time></trkpt><trkpt lat="64.12960815" lon="-21.76984787"><ele>40.9</ele><time>2012-07-18T13:04:15.0000000+00:00</time></trkpt><trkpt lat="64.12973023" lon="-21.76949501"><ele>42.0</ele><time>2012-07-18T13:04:20.0000000+00:00</time></trkpt><trkpt lat="64.12985992" lon="-21.7691555"><ele>42.9</ele><time>2012-07-18T13:04:25.0000000+00:00</time></trkpt><trkpt lat="64.129982" lon="-21.76884079"><ele>43.3</ele><time>2012-07-18T13:04:30.0000000+00:00</time></trkpt><trkpt lat="64.13008881" lon="-21.76853561"><ele>42.7</ele><time>2012-07-18T13:04:35.0000000+00:00</time></trkpt><trkpt lat="64.13020325" lon="-21.76824951"><ele>42.6</ele><time>2012-07-18T13:04:40.0000000+00:00</time></trkpt><trkpt lat="64.13031769" lon="-21.76804161"><ele>44.6</ele><time>2012-07-18T13:04:45.0000000+00:00</time></trkpt><trkpt lat="64.13040161" lon="-21.76780891"><ele>45.3</ele><time>2012-07-18T13:04:50.0000000+00:00</time></trkpt><trkpt lat="64.13050079" lon="-21.76752091"><ele>46.9</ele><time>2012-07-18T13:04:55.0000000+00:00</time></trkpt><trkpt lat="64.13062286" lon="-21.76722145"><ele>47.9</ele><time>2012-07-18T13:05:00.0000000+00:00</time></trkpt><trkpt lat="64.13073731" lon="-21.76690292"><ele>49.2</ele><time>2012-07-18T13:05:05.0000000+00:00</time></trkpt><trkpt lat="64.130867" lon="-21.76660347"><ele>48.5</ele><time>2012-07-18T13:05:10.0000000+00:00</time></trkpt><trkpt lat="64.13100433" lon="-21.76629067"><ele>47.6</ele><time>2012-07-18T13:05:15.0000000+00:00</time></trkpt><trkpt lat="64.13113403" lon="-21.76599121"><ele>46.0</ele><time>2012-07-18T13:05:20.0000000+00:00</time></trkpt><trkpt lat="64.13127136" lon="-21.76568413"><ele>47.3</ele><time>2012-07-18T13:05:25.0000000+00:00</time></trkpt><trkpt lat="64.13140869" lon="-21.76538277"><ele>47.8</ele><time>2012-07-18T13:05:30.0000000+00:00</time></trkpt><trkpt lat="64.13153076" lon="-21.7651577"><ele>48.9</ele><time>2012-07-18T13:05:35.0000000+00:00</time></trkpt><trkpt lat="64.1316452" lon="-21.764925"><ele>51.6</ele><time>2012-07-18T13:05:40.0000000+00:00</time></trkpt><trkpt lat="64.13179779" lon="-21.76466751"><ele>51.2</ele><time>2012-07-18T13:05:45.0000000+00:00</time></trkpt><trkpt lat="64.13194275" lon="-21.76442337"><ele>50.5</ele><time>2012-07-18T13:05:50.0000000+00:00</time></trkpt><trkpt lat="64.13204193" lon="-21.76423454"><ele>49.9</ele><time>2012-07-18T13:05:55.0000000+00:00</time></trkpt><trkpt lat="64.13211823" lon="-21.76409721"><ele>48.3</ele><time>2012-07-18T13:06:00.0000000+00:00</time></trkpt><trkpt lat="64.13220215" lon="-21.76397514"><ele>46.1</ele><time>2012-07-18T13:06:05.0000000+00:00</time></trkpt><trkpt lat="64.13227081" lon="-21.7638855"><ele>47.7</ele><time>2012-07-18T13:06:10.0000000+00:00</time></trkpt><trkpt lat="64.13232422" lon="-21.76379013"><ele>48.2</ele><time>2012-07-18T13:06:15.0000000+00:00</time></trkpt><trkpt lat="64.13238525" lon="-21.76366234"><ele>50.5</ele><time>2012-07-18T13:06:20.0000000+00:00</time></trkpt><trkpt lat="64.1324234" lon="-21.76356506"><ele>52.8</ele><time>2012-07-18T13:06:25.0000000+00:00</time></trkpt><trkpt lat="64.13244629" lon="-21.76353073"><ele>54.2</ele><time>2012-07-18T13:06:30.0000000+00:00</time></trkpt><trkpt lat="64.13246918" lon="-21.76351357"><ele>55.4</ele><time>2012-07-18T13:06:35.0000000+00:00</time></trkpt><trkpt lat="64.13247681" lon="-21.76349068"><ele>56.4</ele><time>2012-07-18T13:06:40.0000000+00:00</time></trkpt><trkpt lat="64.13248444" lon="-21.76346397"><ele>56.9</ele><time>2012-07-18T13:06:45.0000000+00:00</time></trkpt><trkpt lat="64.13248444" lon="-21.7634449"><ele>57.2</ele><time>2012-07-18T13:06:50.0000000+00:00</time></trkpt><trkpt lat="64.13247681" lon="-21.76342773"><ele>57.3</ele><time>2012-07-18T13:06:55.0000000+00:00</time></trkpt><trkpt lat="64.13247681" lon="-21.76341438"><ele>57.4</ele><time>2012-07-18T13:07:00.0000000+00:00</time></trkpt><trkpt lat="64.13247681" lon="-21.76340485"><ele>57.4</ele><time>2012-07-18T13:07:05.0000000+00:00</time></trkpt><trkpt lat="64.13247681" lon="-21.76340103"><ele>57.4</ele><time>2012-07-18T13:07:10.0000000+00:00</time></trkpt><trkpt lat="64.13247681" lon="-21.7633915"><ele>57.4</ele><time>2012-07-18T13:07:15.0000000+00:00</time></trkpt><trkpt lat="64.13246918" lon="-21.76338196"><ele>57.4</ele><time>2012-07-18T13:07:20.0000000+00:00</time></trkpt><trkpt lat="64.13246918" lon="-21.76337051"><ele>57.4</ele><time>2012-07-18T13:07:25.0000000+00:00</time></trkpt><trkpt lat="64.13246918" lon="-21.76337051"><ele>57.4</ele><time>2012-07-18T13:07:30.0000000+00:00</time></trkpt><trkpt lat="64.13247681" lon="-21.76337814"><ele>57.4</ele><time>2012-07-18T13:07:35.0000000+00:00</time></trkpt><trkpt lat="64.13248444" lon="-21.76338387"><ele>57.4</ele><time>2012-07-18T13:07:40.0000000+00:00</time></trkpt><trkpt lat="64.13247681" lon="-21.76338005"><ele>57.4</ele><time>2012-07-18T13:07:45.0000000+00:00</time></trkpt><trkpt lat="64.13247681" lon="-21.76340294"><ele>57.3</ele><time>2012-07-18T13:07:50.0000000+00:00</time></trkpt><trkpt lat="64.13246155" lon="-21.76342964"><ele>57.2</ele><time>2012-07-18T13:07:55.0000000+00:00</time></trkpt><trkpt lat="64.13245392" lon="-21.76346397"><ele>57.1</ele><time>2012-07-18T13:08:00.0000000+00:00</time></trkpt><trkpt lat="64.13245392" lon="-21.76347542"><ele>56.9</ele><time>2012-07-18T13:08:05.0000000+00:00</time></trkpt><trkpt lat="64.13246155" lon="-21.76347351"><ele>56.9</ele><time>2012-07-18T13:08:10.0000000+00:00</time></trkpt><trkpt lat="64.1324997" lon="-21.76347351"><ele>56.7</ele><time>2012-07-18T13:08:15.0000000+00:00</time></trkpt><trkpt lat="64.13253021" lon="-21.76349258"><ele>56.8</ele><time>2012-07-18T13:08:20.0000000+00:00</time></trkpt><trkpt lat="64.13253784" lon="-21.76348686"><ele>56.9</ele><time>2012-07-18T13:08:25.0000000+00:00</time></trkpt><trkpt lat="64.13254547" lon="-21.76348114"><ele>56.9</ele><time>2012-07-18T13:08:30.0000000+00:00</time></trkpt><trkpt lat="64.1325531" lon="-21.76347733"><ele>57.0</ele><time>2012-07-18T13:08:35.0000000+00:00</time></trkpt><trkpt lat="64.1325531" lon="-21.76347542"><ele>57.1</ele><time>2012-07-18T13:08:40.0000000+00:00</time></trkpt><trkpt lat="64.1325531" lon="-21.76347351"><ele>57.2</ele><time>2012-07-18T13:08:45.0000000+00:00</time></trkpt><trkpt lat="64.13256836" lon="-21.76343155"><ele>56.1</ele><time>2012-07-18T13:08:50.0000000+00:00</time></trkpt><trkpt lat="64.13257599" lon="-21.7633934"><ele>53.4</ele><time>2012-07-18T13:08:55.0000000+00:00</time></trkpt><trkpt lat="64.13270569" lon="-21.76335716"><ele>51.2</ele><time>2012-07-18T13:09:00.0000000+00:00</time></trkpt><trkpt lat="64.13283539" lon="-21.76316834"><ele>50.5</ele><time>2012-07-18T13:09:05.0000000+00:00</time></trkpt><trkpt lat="64.13298035" lon="-21.76295662"><ele>49.9</ele><time>2012-07-18T13:09:10.0000000+00:00</time></trkpt><trkpt lat="64.13314819" lon="-21.76273155"><ele>49.0</ele><time>2012-07-18T13:09:15.0000000+00:00</time></trkpt><trkpt lat="64.13332367" lon="-21.76254082"><ele>48.8</ele><time>2012-07-18T13:09:20.0000000+00:00</time></trkpt><trkpt lat="64.1335144" lon="-21.76233101"><ele>48.9</ele><time>2012-07-18T13:09:25.0000000+00:00</time></trkpt><trkpt lat="64.13370514" lon="-21.76213265"><ele>49.5</ele><time>2012-07-18T13:09:30.0000000+00:00</time></trkpt><trkpt lat="64.1339035" lon="-21.76191139"><ele>49.2</ele><time>2012-07-18T13:09:35.0000000+00:00</time></trkpt><trkpt lat="64.13413239" lon="-21.76167679"><ele>49.3</ele><time>2012-07-18T13:09:40.0000000+00:00</time></trkpt><trkpt lat="64.13435364" lon="-21.76144218"><ele>49.2</ele><time>2012-07-18T13:09:45.0000000+00:00</time></trkpt><trkpt lat="64.13459778" lon="-21.76121521"><ele>49.2</ele><time>2012-07-18T13:09:50.0000000+00:00</time></trkpt><trkpt lat="64.13483429" lon="-21.76099968"><ele>49.0</ele><time>2012-07-18T13:09:55.0000000+00:00</time></trkpt><trkpt lat="64.13507843" lon="-21.7607708"><ele>49.1</ele><time>2012-07-18T13:10:00.0000000+00:00</time></trkpt><trkpt lat="64.13532257" lon="-21.76055718"><ele>49.1</ele><time>2012-07-18T13:10:05.0000000+00:00</time></trkpt><trkpt lat="64.13557434" lon="-21.76034546"><ele>49.2</ele><time>2012-07-18T13:10:10.0000000+00:00</time></trkpt><trkpt lat="64.13581848" lon="-21.7601471"><ele>48.9</ele><time>2012-07-18T13:10:15.0000000+00:00</time></trkpt><trkpt lat="64.13597107" lon="-21.75989723"><ele>48.5</ele><time>2012-07-18T13:10:20.0000000+00:00</time></trkpt><trkpt lat="64.13600159" lon="-21.75972366"><ele>47.2</ele><time>2012-07-18T13:10:25.0000000+00:00</time></trkpt><trkpt lat="64.13600159" lon="-21.75951195"><ele>47.1</ele><time>2012-07-18T13:10:30.0000000+00:00</time></trkpt><trkpt lat="64.13605499" lon="-21.75933838"><ele>47.7</ele><time>2012-07-18T13:10:35.0000000+00:00</time></trkpt><trkpt lat="64.13616943" lon="-21.75928688"><ele>48.0</ele><time>2012-07-18T13:10:40.0000000+00:00</time></trkpt><trkpt lat="64.13632202" lon="-21.75920677"><ele>49.3</ele><time>2012-07-18T13:10:45.0000000+00:00</time></trkpt><trkpt lat="64.1364975" lon="-21.75912476"><ele>49.5</ele><time>2012-07-18T13:10:50.0000000+00:00</time></trkpt><trkpt lat="64.13667297" lon="-21.75900269"><ele>50.5</ele><time>2012-07-18T13:10:55.0000000+00:00</time></trkpt><trkpt lat="64.13685608" lon="-21.75888825"><ele>51.3</ele><time>2012-07-18T13:11:00.0000000+00:00</time></trkpt><trkpt lat="64.13703919" lon="-21.75878143"><ele>53.3</ele><time>2012-07-18T13:11:05.0000000+00:00</time></trkpt><trkpt lat="64.13724518" lon="-21.7586689"><ele>51.8</ele><time>2012-07-18T13:11:10.0000000+00:00</time></trkpt><trkpt lat="64.13745117" lon="-21.7585392"><ele>52.6</ele><time>2012-07-18T13:11:15.0000000+00:00</time></trkpt><trkpt lat="64.13767242" lon="-21.75839424"><ele>55.8</ele><time>2012-07-18T13:11:20.0000000+00:00</time></trkpt><trkpt lat="64.13789368" lon="-21.75825691"><ele>55.4</ele><time>2012-07-18T13:11:25.0000000+00:00</time></trkpt><trkpt lat="64.13809967" lon="-21.75810242"><ele>56.6</ele><time>2012-07-18T13:11:30.0000000+00:00</time></trkpt><trkpt lat="64.13829804" lon="-21.75796318"><ele>57.0</ele><time>2012-07-18T13:11:35.0000000+00:00</time></trkpt><trkpt lat="64.13847351" lon="-21.75788498"><ele>53.5</ele><time>2012-07-18T13:11:40.0000000+00:00</time></trkpt><trkpt lat="64.1386261" lon="-21.75778961"><ele>54.4</ele><time>2012-07-18T13:11:45.0000000+00:00</time></trkpt><trkpt lat="64.13872528" lon="-21.75764275"><ele>56.1</ele><time>2012-07-18T13:11:50.0000000+00:00</time></trkpt><trkpt lat="64.13886261" lon="-21.75750732"><ele>56.9</ele><time>2012-07-18T13:11:55.0000000+00:00</time></trkpt><trkpt lat="64.13902283" lon="-21.75737381"><ele>55.8</ele><time>2012-07-18T13:12:00.0000000+00:00</time></trkpt><trkpt lat="64.13917542" lon="-21.75728607"><ele>53.7</ele><time>2012-07-18T13:12:05.0000000+00:00</time></trkpt><trkpt lat="64.13935852" lon="-21.75720024"><ele>51.8</ele><time>2012-07-18T13:12:10.0000000+00:00</time></trkpt><trkpt lat="64.139534" lon="-21.75715447"><ele>50.6</ele><time>2012-07-18T13:12:15.0000000+00:00</time></trkpt><trkpt lat="64.13972473" lon="-21.75707817"><ele>50.4</ele><time>2012-07-18T13:12:20.0000000+00:00</time></trkpt><trkpt lat="64.13995361" lon="-21.75702667"><ele>49.8</ele><time>2012-07-18T13:12:25.0000000+00:00</time></trkpt><trkpt lat="64.14019013" lon="-21.75689507"><ele>49.1</ele><time>2012-07-18T13:12:30.0000000+00:00</time></trkpt><trkpt lat="64.14038849" lon="-21.75673103"><ele>50.1</ele><time>2012-07-18T13:12:35.0000000+00:00</time></trkpt><trkpt lat="64.14054108" lon="-21.75656128"><ele>50.3</ele><time>2012-07-18T13:12:40.0000000+00:00</time></trkpt><trkpt lat="64.14065552" lon="-21.7564106"><ele>52.1</ele><time>2012-07-18T13:12:45.0000000+00:00</time></trkpt><trkpt lat="64.14073944" lon="-21.75626564"><ele>52.9</ele><time>2012-07-18T13:12:50.0000000+00:00</time></trkpt><trkpt lat="64.14080048" lon="-21.75612259"><ele>54.1</ele><time>2012-07-18T13:12:55.0000000+00:00</time></trkpt><trkpt lat="64.14086914" lon="-21.75598717"><ele>54.5</ele><time>2012-07-18T13:13:00.0000000+00:00</time></trkpt><trkpt lat="64.14093781" lon="-21.75585365"><ele>54.8</ele><time>2012-07-18T13:13:05.0000000+00:00</time></trkpt><trkpt lat="64.14096069" lon="-21.75581932"><ele>54.3</ele><time>2012-07-18T13:13:10.0000000+00:00</time></trkpt><trkpt lat="64.14096069" lon="-21.75581932"><ele>54.4</ele><time>2012-07-18T13:13:15.0000000+00:00</time></trkpt><trkpt lat="64.14096069" lon="-21.75582123"><ele>54.4</ele><time>2012-07-18T13:13:20.0000000+00:00</time></trkpt><trkpt lat="64.14100647" lon="-21.7557621"><ele>54.5</ele><time>2012-07-18T13:13:25.0000000+00:00</time></trkpt><trkpt lat="64.14106751" lon="-21.755579"><ele>53.7</ele><time>2012-07-18T13:13:30.0000000+00:00</time></trkpt><trkpt lat="64.14113617" lon="-21.75534821"><ele>52.7</ele><time>2012-07-18T13:13:35.0000000+00:00</time></trkpt><trkpt lat="64.14118195" lon="-21.75514603"><ele>53.1</ele><time>2012-07-18T13:13:40.0000000+00:00</time></trkpt><trkpt lat="64.14122009" lon="-21.75496101"><ele>54.0</ele><time>2012-07-18T13:13:45.0000000+00:00</time></trkpt><trkpt lat="64.14126587" lon="-21.75479317"><ele>56.3</ele><time>2012-07-18T13:13:50.0000000+00:00</time></trkpt><trkpt lat="64.14130402" lon="-21.75460243"><ele>57.3</ele><time>2012-07-18T13:13:55.0000000+00:00</time></trkpt><trkpt lat="64.14134216" lon="-21.75440598"><ele>59.7</ele><time>2012-07-18T13:14:00.0000000+00:00</time></trkpt><trkpt lat="64.14139557" lon="-21.75420189"><ele>62.2</ele><time>2012-07-18T13:14:05.0000000+00:00</time></trkpt><trkpt lat="64.14144898" lon="-21.7540226"><ele>65.8</ele><time>2012-07-18T13:14:10.0000000+00:00</time></trkpt><trkpt lat="64.14150238" lon="-21.75383759"><ele>66.2</ele><time>2012-07-18T13:14:15.0000000+00:00</time></trkpt><trkpt lat="64.14155579" lon="-21.75362587"><ele>66.9</ele><time>2012-07-18T13:14:20.0000000+00:00</time></trkpt><trkpt lat="64.14161682" lon="-21.75344467"><ele>67.0</ele><time>2012-07-18T13:14:25.0000000+00:00</time></trkpt><trkpt lat="64.14167786" lon="-21.75323868"><ele>65.7</ele><time>2012-07-18T13:14:30.0000000+00:00</time></trkpt><trkpt lat="64.14174652" lon="-21.75302315"><ele>66.1</ele><time>2012-07-18T13:14:35.0000000+00:00</time></trkpt><trkpt lat="64.1417923" lon="-21.752882"><ele>64.7</ele><time>2012-07-18T13:14:40.0000000+00:00</time></trkpt><trkpt lat="64.1418457" lon="-21.7526989"><ele>63.9</ele><time>2012-07-18T13:14:45.0000000+00:00</time></trkpt><trkpt lat="64.14189148" lon="-21.75244331"><ele>64.5</ele><time>2012-07-18T13:14:50.0000000+00:00</time></trkpt><trkpt lat="64.14187622" lon="-21.75214577"><ele>64.1</ele><time>2012-07-18T13:14:55.0000000+00:00</time></trkpt><trkpt lat="64.14186859" lon="-21.75185776"><ele>62.7</ele><time>2012-07-18T13:15:00.0000000+00:00</time></trkpt><trkpt lat="64.14198303" lon="-21.75169182"><ele>62.9</ele><time>2012-07-18T13:15:05.0000000+00:00</time></trkpt><trkpt lat="64.14214325" lon="-21.75166702"><ele>62.9</ele><time>2012-07-18T13:15:10.0000000+00:00</time></trkpt><trkpt lat="64.14228821" lon="-21.75160027"><ele>63.2</ele><time>2012-07-18T13:15:15.0000000+00:00</time></trkpt><trkpt lat="64.14234924" lon="-21.75140572"><ele>62.3</ele><time>2012-07-18T13:15:20.0000000+00:00</time></trkpt><trkpt lat="64.14242554" lon="-21.75119209"><ele>62.9</ele><time>2012-07-18T13:15:25.0000000+00:00</time></trkpt><trkpt lat="64.14248657" lon="-21.75097084"><ele>63.1</ele><time>2012-07-18T13:15:30.0000000+00:00</time></trkpt><trkpt lat="64.14253998" lon="-21.75074959"><ele>61.8</ele><time>2012-07-18T13:15:35.0000000+00:00</time></trkpt><trkpt lat="64.14258575" lon="-21.75051689"><ele>61.3</ele><time>2012-07-18T13:15:40.0000000+00:00</time></trkpt><trkpt lat="64.14263916" lon="-21.75028992"><ele>62.4</ele><time>2012-07-18T13:15:45.0000000+00:00</time></trkpt><trkpt lat="64.14267731" lon="-21.75009346"><ele>64.0</ele><time>2012-07-18T13:15:50.0000000+00:00</time></trkpt><trkpt lat="64.1427536" lon="-21.75005341"><ele>63.1</ele><time>2012-07-18T13:15:55.0000000+00:00</time></trkpt><trkpt lat="64.14282227" lon="-21.74997902"><ele>62.4</ele><time>2012-07-18T13:16:00.0000000+00:00</time></trkpt><trkpt lat="64.14289093" lon="-21.74980927"><ele>61.2</ele><time>2012-07-18T13:16:05.0000000+00:00</time></trkpt><trkpt lat="64.14295197" lon="-21.74959755"><ele>63.0</ele><time>2012-07-18T13:16:10.0000000+00:00</time></trkpt><trkpt lat="64.14300537" lon="-21.74934578"><ele>63.9</ele><time>2012-07-18T13:16:15.0000000+00:00</time></trkpt><trkpt lat="64.14306641" lon="-21.74910355"><ele>66.7</ele><time>2012-07-18T13:16:20.0000000+00:00</time></trkpt><trkpt lat="64.14313507" lon="-21.74891472"><ele>67.6</ele><time>2012-07-18T13:16:25.0000000+00:00</time></trkpt><trkpt lat="64.14321137" lon="-21.74874306"><ele>67.3</ele><time>2012-07-18T13:16:30.0000000+00:00</time></trkpt><trkpt lat="64.14331055" lon="-21.74858284"><ele>68.6</ele><time>2012-07-18T13:16:35.0000000+00:00</time></trkpt><trkpt lat="64.14341736" lon="-21.74845886"><ele>69.0</ele><time>2012-07-18T13:16:40.0000000+00:00</time></trkpt><trkpt lat="64.1435318" lon="-21.74841881"><ele>68.7</ele><time>2012-07-18T13:16:45.0000000+00:00</time></trkpt><trkpt lat="64.14363098" lon="-21.74852943"><ele>67.1</ele><time>2012-07-18T13:16:50.0000000+00:00</time></trkpt><trkpt lat="64.14372253" lon="-21.74882317"><ele>64.8</ele><time>2012-07-18T13:16:55.0000000+00:00</time></trkpt><trkpt lat="64.14382172" lon="-21.74916267"><ele>62.0</ele><time>2012-07-18T13:17:00.0000000+00:00</time></trkpt><trkpt lat="64.14390564" lon="-21.74936104"><ele>60.2</ele><time>2012-07-18T13:17:05.0000000+00:00</time></trkpt><trkpt lat="64.14400482" lon="-21.74944305"><ele>61.4</ele><time>2012-07-18T13:17:10.0000000+00:00</time></trkpt><trkpt lat="64.14408875" lon="-21.74947548"><ele>61.5</ele><time>2012-07-18T13:17:15.0000000+00:00</time></trkpt><trkpt lat="64.14408875" lon="-21.7494812"><ele>61.7</ele><time>2012-07-18T13:17:20.0000000+00:00</time></trkpt><trkpt lat="64.14408875" lon="-21.74947929"><ele>61.7</ele><time>2012-07-18T13:17:25.0000000+00:00</time></trkpt><trkpt lat="64.14408875" lon="-21.74948502"><ele>61.8</ele><time>2012-07-18T13:17:30.0000000+00:00</time></trkpt><trkpt lat="64.14408875" lon="-21.74948311"><ele>61.8</ele><time>2012-07-18T13:17:35.0000000+00:00</time></trkpt><trkpt lat="64.14408875" lon="-21.74948311"><ele>61.8</ele><time>2012-07-18T13:17:40.0000000+00:00</time></trkpt><trkpt lat="64.14408875" lon="-21.74948311"><ele>61.8</ele><time>2012-07-18T13:17:45.0000000+00:00</time></trkpt><trkpt lat="64.14408875" lon="-21.74948311"><ele>61.9</ele><time>2012-07-18T13:17:50.0000000+00:00</time></trkpt><trkpt lat="64.14408875" lon="-21.74948311"><ele>61.8</ele><time>2012-07-18T13:17:55.0000000+00:00</time></trkpt><trkpt lat="64.14408875" lon="-21.7494812"><ele>60.9</ele><time>2012-07-18T13:18:00.0000000+00:00</time></trkpt><trkpt lat="64.14408112" lon="-21.74945831"><ele>61.4</ele><time>2012-07-18T13:18:05.0000000+00:00</time></trkpt><trkpt lat="64.14408112" lon="-21.74945259"><ele>61.4</ele><time>2012-07-18T13:18:10.0000000+00:00</time></trkpt><trkpt lat="64.14408112" lon="-21.74944878"><ele>60.7</ele><time>2012-07-18T13:18:15.0000000+00:00</time></trkpt><trkpt lat="64.14407349" lon="-21.74946022"><ele>61.5</ele><time>2012-07-18T13:18:20.0000000+00:00</time></trkpt><trkpt lat="64.14406586" lon="-21.74946022"><ele>61.2</ele><time>2012-07-18T13:18:25.0000000+00:00</time></trkpt><trkpt lat="64.14406586" lon="-21.74946213"><ele>60.4</ele><time>2012-07-18T13:18:30.0000000+00:00</time></trkpt><trkpt lat="64.14407349" lon="-21.7494545"><ele>61.1</ele><time>2012-07-18T13:18:35.0000000+00:00</time></trkpt><trkpt lat="64.14414978" lon="-21.74946022"><ele>61.5</ele><time>2012-07-18T13:18:40.0000000+00:00</time></trkpt><trkpt lat="64.14435577" lon="-21.74951553"><ele>58.1</ele><time>2012-07-18T13:18:45.0000000+00:00</time></trkpt><trkpt lat="64.14460754" lon="-21.749897"><ele>56.4</ele><time>2012-07-18T13:18:50.0000000+00:00</time></trkpt><trkpt lat="64.14481354" lon="-21.75029564"><ele>55.3</ele><time>2012-07-18T13:18:55.0000000+00:00</time></trkpt><trkpt lat="64.14498901" lon="-21.75055122"><ele>56.5</ele><time>2012-07-18T13:19:00.0000000+00:00</time></trkpt><trkpt lat="64.14513397" lon="-21.75063133"><ele>56.9</ele><time>2012-07-18T13:19:05.0000000+00:00</time></trkpt><trkpt lat="64.14524841" lon="-21.7506485"><ele>56.7</ele><time>2012-07-18T13:19:10.0000000+00:00</time></trkpt><trkpt lat="64.14533234" lon="-21.75062561"><ele>58.8</ele><time>2012-07-18T13:19:15.0000000+00:00</time></trkpt><trkpt lat="64.14533234" lon="-21.75061226"><ele>58.5</ele><time>2012-07-18T13:19:20.0000000+00:00</time></trkpt><trkpt lat="64.14533234" lon="-21.75061417"><ele>58.5</ele><time>2012-07-18T13:19:25.0000000+00:00</time></trkpt><trkpt lat="64.14533234" lon="-21.75061417"><ele>58.6</ele><time>2012-07-18T13:19:30.0000000+00:00</time></trkpt><trkpt lat="64.14533234" lon="-21.75061417"><ele>58.6</ele><time>2012-07-18T13:19:35.0000000+00:00</time></trkpt><trkpt lat="64.14533997" lon="-21.75058174"><ele>58.9</ele><time>2012-07-18T13:19:40.0000000+00:00</time></trkpt><trkpt lat="64.14537811" lon="-21.75050736"><ele>59.1</ele><time>2012-07-18T13:19:45.0000000+00:00</time></trkpt><trkpt lat="64.14537811" lon="-21.75051117"><ele>59.3</ele><time>2012-07-18T13:19:50.0000000+00:00</time></trkpt><trkpt lat="64.14537811" lon="-21.75050926"><ele>59.3</ele><time>2012-07-18T13:19:55.0000000+00:00</time></trkpt><trkpt lat="64.14537811" lon="-21.75050163"><ele>59.5</ele><time>2012-07-18T13:20:00.0000000+00:00</time></trkpt><trkpt lat="64.14544678" lon="-21.75037003"><ele>59.7</ele><time>2012-07-18T13:20:05.0000000+00:00</time></trkpt><trkpt lat="64.14546967" lon="-21.75030518"><ele>59.1</ele><time>2012-07-18T13:20:10.0000000+00:00</time></trkpt><trkpt lat="64.14551544" lon="-21.75020027"><ele>58.8</ele><time>2012-07-18T13:20:15.0000000+00:00</time></trkpt><trkpt lat="64.14562988" lon="-21.74996758"><ele>58.1</ele><time>2012-07-18T13:20:20.0000000+00:00</time></trkpt><trkpt lat="64.14577484" lon="-21.74967957"><ele>57.2</ele><time>2012-07-18T13:20:25.0000000+00:00</time></trkpt><trkpt lat="64.1459198" lon="-21.74936867"><ele>56.3</ele><time>2012-07-18T13:20:30.0000000+00:00</time></trkpt><trkpt lat="64.1460495" lon="-21.74911881"><ele>55.4</ele><time>2012-07-18T13:20:35.0000000+00:00</time></trkpt><trkpt lat="64.14619446" lon="-21.74884415"><ele>54.7</ele><time>2012-07-18T13:20:40.0000000+00:00</time></trkpt><trkpt lat="64.14636231" lon="-21.74851608"><ele>53.2</ele><time>2012-07-18T13:20:45.0000000+00:00</time></trkpt><trkpt lat="64.14655304" lon="-21.74814987"><ele>52.0</ele><time>2012-07-18T13:20:50.0000000+00:00</time></trkpt><trkpt lat="64.146698" lon="-21.74787521"><ele>51.3</ele><time>2012-07-18T13:20:55.0000000+00:00</time></trkpt><trkpt lat="64.1467514" lon="-21.74777985"><ele>51.3</ele><time>2012-07-18T13:21:00.0000000+00:00</time></trkpt><trkpt lat="64.14678192" lon="-21.74773216"><ele>51.1</ele><time>2012-07-18T13:21:05.0000000+00:00</time></trkpt><trkpt lat="64.14681244" lon="-21.74767494"><ele>51.0</ele><time>2012-07-18T13:21:10.0000000+00:00</time></trkpt><trkpt lat="64.14692688" lon="-21.74744797"><ele>51.1</ele><time>2012-07-18T13:21:15.0000000+00:00</time></trkpt><trkpt lat="64.14707184" lon="-21.74717522"><ele>51.1</ele><time>2012-07-18T13:21:20.0000000+00:00</time></trkpt><trkpt lat="64.14720154" lon="-21.74691391"><ele>50.7</ele><time>2012-07-18T13:21:25.0000000+00:00</time></trkpt><trkpt lat="64.14730835" lon="-21.74669266"><ele>51.1</ele><time>2012-07-18T13:21:30.0000000+00:00</time></trkpt><trkpt lat="64.14739227" lon="-21.74653626"><ele>52.0</ele><time>2012-07-18T13:21:35.0000000+00:00</time></trkpt><trkpt lat="64.1474762" lon="-21.74634171"><ele>53.0</ele><time>2012-07-18T13:21:40.0000000+00:00</time></trkpt><trkpt lat="64.1476059" lon="-21.74606133"><ele>53.1</ele><time>2012-07-18T13:21:45.0000000+00:00</time></trkpt><trkpt lat="64.14774323" lon="-21.74577332"><ele>53.7</ele><time>2012-07-18T13:21:50.0000000+00:00</time></trkpt><trkpt lat="64.14788818" lon="-21.74548721"><ele>54.3</ele><time>2012-07-18T13:21:55.0000000+00:00</time></trkpt><trkpt lat="64.14801788" lon="-21.74523735"><ele>54.4</ele><time>2012-07-18T13:22:00.0000000+00:00</time></trkpt><trkpt lat="64.14806366" lon="-21.74516869"><ele>54.3</ele><time>2012-07-18T13:22:05.0000000+00:00</time></trkpt><trkpt lat="64.14807129" lon="-21.74514961"><ele>54.2</ele><time>2012-07-18T13:22:10.0000000+00:00</time></trkpt><trkpt lat="64.14810181" lon="-21.74508286"><ele>54.3</ele><time>2012-07-18T13:22:15.0000000+00:00</time></trkpt><trkpt lat="64.14818573" lon="-21.74493218"><ele>54.9</ele><time>2012-07-18T13:22:20.0000000+00:00</time></trkpt><trkpt lat="64.1483078" lon="-21.74467659"><ele>55.0</ele><time>2012-07-18T13:22:25.0000000+00:00</time></trkpt><trkpt lat="64.14841461" lon="-21.7444706"><ele>55.5</ele><time>2012-07-18T13:22:30.0000000+00:00</time></trkpt><trkpt lat="64.14849091" lon="-21.74431992"><ele>55.8</ele><time>2012-07-18T13:22:35.0000000+00:00</time></trkpt><trkpt lat="64.14855957" lon="-21.74412346"><ele>56.8</ele><time>2012-07-18T13:22:40.0000000+00:00</time></trkpt><trkpt lat="64.14859009" lon="-21.74404335"><ele>57.6</ele><time>2012-07-18T13:22:45.0000000+00:00</time></trkpt><trkpt lat="64.14863586" lon="-21.74392891"><ele>57.9</ele><time>2012-07-18T13:22:50.0000000+00:00</time></trkpt><trkpt lat="64.14876556" lon="-21.74372101"><ele>57.3</ele><time>2012-07-18T13:22:55.0000000+00:00</time></trkpt><trkpt lat="64.14891815" lon="-21.74353981"><ele>57.1</ele><time>2012-07-18T13:23:00.0000000+00:00</time></trkpt><trkpt lat="64.14909363" lon="-21.74332428"><ele>56.1</ele><time>2012-07-18T13:23:05.0000000+00:00</time></trkpt><trkpt lat="64.14924622" lon="-21.74310112"><ele>56.2</ele><time>2012-07-18T13:23:10.0000000+00:00</time></trkpt><trkpt lat="64.14938355" lon="-21.74289322"><ele>56.1</ele><time>2012-07-18T13:23:15.0000000+00:00</time></trkpt><trkpt lat="64.14950562" lon="-21.74272919"><ele>56.2</ele><time>2012-07-18T13:23:20.0000000+00:00</time></trkpt><trkpt lat="64.14961243" lon="-21.74258804"><ele>55.4</ele><time>2012-07-18T13:23:25.0000000+00:00</time></trkpt><trkpt lat="64.14976502" lon="-21.74234963"><ele>55.0</ele><time>2012-07-18T13:23:30.0000000+00:00</time></trkpt><trkpt lat="64.14994049" lon="-21.74207687"><ele>54.7</ele><time>2012-07-18T13:23:35.0000000+00:00</time></trkpt><trkpt lat="64.15010834" lon="-21.74180603"><ele>54.7</ele><time>2012-07-18T13:23:40.0000000+00:00</time></trkpt><trkpt lat="64.15024567" lon="-21.74160576"><ele>54.9</ele><time>2012-07-18T13:23:45.0000000+00:00</time></trkpt><trkpt lat="64.15033722" lon="-21.74146271"><ele>54.6</ele><time>2012-07-18T13:23:50.0000000+00:00</time></trkpt><trkpt lat="64.15046692" lon="-21.74123192"><ele>54.5</ele><time>2012-07-18T13:23:55.0000000+00:00</time></trkpt><trkpt lat="64.15063477" lon="-21.74097824"><ele>54.5</ele><time>2012-07-18T13:24:00.0000000+00:00</time></trkpt><trkpt lat="64.15080261" lon="-21.74072075"><ele>54.6</ele><time>2012-07-18T13:24:05.0000000+00:00</time></trkpt><trkpt lat="64.15092468" lon="-21.74048996"><ele>54.6</ele><time>2012-07-18T13:24:10.0000000+00:00</time></trkpt><trkpt lat="64.15100861" lon="-21.74034691"><ele>54.6</ele><time>2012-07-18T13:24:15.0000000+00:00</time></trkpt><trkpt lat="64.15113068" lon="-21.74016762"><ele>54.9</ele><time>2012-07-18T13:24:20.0000000+00:00</time></trkpt><trkpt lat="64.15125275" lon="-21.73999786"><ele>54.9</ele><time>2012-07-18T13:24:25.0000000+00:00</time></trkpt><trkpt lat="64.15140533" lon="-21.73980522"><ele>53.6</ele><time>2012-07-18T13:24:30.0000000+00:00</time></trkpt><trkpt lat="64.15155792" lon="-21.73955154"><ele>53.8</ele><time>2012-07-18T13:24:35.0000000+00:00</time></trkpt><trkpt lat="64.15171814" lon="-21.73931503"><ele>53.6</ele><time>2012-07-18T13:24:40.0000000+00:00</time></trkpt><trkpt lat="64.1517868" lon="-21.73920059"><ele>53.2</ele><time>2012-07-18T13:24:45.0000000+00:00</time></trkpt><trkpt lat="64.15183258" lon="-21.73916245"><ele>52.7</ele><time>2012-07-18T13:24:50.0000000+00:00</time></trkpt><trkpt lat="64.15183258" lon="-21.73916435"><ele>52.6</ele><time>2012-07-18T13:24:55.0000000+00:00</time></trkpt><trkpt lat="64.15182495" lon="-21.73916435"><ele>52.6</ele><time>2012-07-18T13:25:00.0000000+00:00</time></trkpt><trkpt lat="64.15182495" lon="-21.73916435"><ele>52.6</ele><time>2012-07-18T13:25:05.0000000+00:00</time></trkpt><trkpt lat="64.15182495" lon="-21.73916817"><ele>52.6</ele><time>2012-07-18T13:25:10.0000000+00:00</time></trkpt><trkpt lat="64.15185547" lon="-21.73913193"><ele>53.0</ele><time>2012-07-18T13:25:15.0000000+00:00</time></trkpt><trkpt lat="64.15192413" lon="-21.73902512"><ele>53.2</ele><time>2012-07-18T13:25:20.0000000+00:00</time></trkpt><trkpt lat="64.1519928" lon="-21.73890114"><ele>53.4</ele><time>2012-07-18T13:25:25.0000000+00:00</time></trkpt><trkpt lat="64.15206909" lon="-21.73876381"><ele>54.0</ele><time>2012-07-18T13:25:30.0000000+00:00</time></trkpt><trkpt lat="64.15220642" lon="-21.73855209"><ele>54.1</ele><time>2012-07-18T13:25:35.0000000+00:00</time></trkpt><trkpt lat="64.15233612" lon="-21.73832703"><ele>54.5</ele><time>2012-07-18T13:25:40.0000000+00:00</time></trkpt><trkpt lat="64.15244293" lon="-21.73817062"><ele>54.6</ele><time>2012-07-18T13:25:45.0000000+00:00</time></trkpt><trkpt lat="64.15254211" lon="-21.73802185"><ele>54.6</ele><time>2012-07-18T13:25:50.0000000+00:00</time></trkpt><trkpt lat="64.15267181" lon="-21.73781014"><ele>54.6</ele><time>2012-07-18T13:25:55.0000000+00:00</time></trkpt><trkpt lat="64.15281677" lon="-21.7375679"><ele>54.6</ele><time>2012-07-18T13:26:00.0000000+00:00</time></trkpt><trkpt lat="64.15298462" lon="-21.7373333"><ele>54.2</ele><time>2012-07-18T13:26:05.0000000+00:00</time></trkpt><trkpt lat="64.15313721" lon="-21.73708344"><ele>54.2</ele><time>2012-07-18T13:26:10.0000000+00:00</time></trkpt><trkpt lat="64.15326691" lon="-21.73689652"><ele>54.6</ele><time>2012-07-18T13:26:15.0000000+00:00</time></trkpt><trkpt lat="64.15335083" lon="-21.73673058"><ele>56.0</ele><time>2012-07-18T13:26:20.0000000+00:00</time></trkpt><trkpt lat="64.1534195" lon="-21.73663139"><ele>57.2</ele><time>2012-07-18T13:26:25.0000000+00:00</time></trkpt><trkpt lat="64.15348053" lon="-21.73654747"><ele>56.2</ele><time>2012-07-18T13:26:30.0000000+00:00</time></trkpt><trkpt lat="64.15357971" lon="-21.73640823"><ele>56.3</ele><time>2012-07-18T13:26:35.0000000+00:00</time></trkpt><trkpt lat="64.15371704" lon="-21.73617363"><ele>55.9</ele><time>2012-07-18T13:26:40.0000000+00:00</time></trkpt><trkpt lat="64.15383911" lon="-21.73591995"><ele>56.3</ele><time>2012-07-18T13:26:45.0000000+00:00</time></trkpt><trkpt lat="64.15391541" lon="-21.73574257"><ele>57.2</ele><time>2012-07-18T13:26:50.0000000+00:00</time></trkpt><trkpt lat="64.15406036" lon="-21.73553467"><ele>56.7</ele><time>2012-07-18T13:26:55.0000000+00:00</time></trkpt><trkpt lat="64.15420532" lon="-21.73527336"><ele>56.7</ele><time>2012-07-18T13:27:00.0000000+00:00</time></trkpt><trkpt lat="64.15431976" lon="-21.7350769"><ele>56.7</ele><time>2012-07-18T13:27:05.0000000+00:00</time></trkpt><trkpt lat="64.15445709" lon="-21.73482513"><ele>56.5</ele><time>2012-07-18T13:27:10.0000000+00:00</time></trkpt><trkpt lat="64.15460205" lon="-21.73453713"><ele>56.4</ele><time>2012-07-18T13:27:15.0000000+00:00</time></trkpt><trkpt lat="64.15473175" lon="-21.73424339"><ele>56.3</ele><time>2012-07-18T13:27:20.0000000+00:00</time></trkpt><trkpt lat="64.15483856" lon="-21.73390579"><ele>56.6</ele><time>2012-07-18T13:27:25.0000000+00:00</time></trkpt><trkpt lat="64.15499878" lon="-21.73359108"><ele>56.6</ele><time>2012-07-18T13:27:30.0000000+00:00</time></trkpt><trkpt lat="64.15517426" lon="-21.73331833"><ele>56.3</ele><time>2012-07-18T13:27:35.0000000+00:00</time></trkpt><trkpt lat="64.1553421" lon="-21.73299599"><ele>56.3</ele><time>2012-07-18T13:27:40.0000000+00:00</time></trkpt><trkpt lat="64.15549469" lon="-21.73266792"><ele>56.9</ele><time>2012-07-18T13:27:45.0000000+00:00</time></trkpt><trkpt lat="64.15563965" lon="-21.73231697"><ele>57.0</ele><time>2012-07-18T13:27:50.0000000+00:00</time></trkpt><trkpt lat="64.15579224" lon="-21.73196411"><ele>57.7</ele><time>2012-07-18T13:27:55.0000000+00:00</time></trkpt><trkpt lat="64.1559372" lon="-21.73158836"><ele>57.4</ele><time>2012-07-18T13:28:00.0000000+00:00</time></trkpt><trkpt lat="64.15609741" lon="-21.73115921"><ele>57.5</ele><time>2012-07-18T13:28:05.0000000+00:00</time></trkpt><trkpt lat="64.15625" lon="-21.73071671"><ele>57.2</ele><time>2012-07-18T13:28:10.0000000+00:00</time></trkpt><trkpt lat="64.15641022" lon="-21.73025131"><ele>56.6</ele><time>2012-07-18T13:28:15.0000000+00:00</time></trkpt><trkpt lat="64.15655518" lon="-21.72984505"><ele>56.3</ele><time>2012-07-18T13:28:20.0000000+00:00</time></trkpt><trkpt lat="64.15669251" lon="-21.72940445"><ele>55.2</ele><time>2012-07-18T13:28:25.0000000+00:00</time></trkpt><trkpt lat="64.15680695" lon="-21.72890663"><ele>54.2</ele><time>2012-07-18T13:28:30.0000000+00:00</time></trkpt><trkpt lat="64.15697479" lon="-21.72844887"><ele>53.1</ele><time>2012-07-18T13:28:35.0000000+00:00</time></trkpt><trkpt lat="64.15720367" lon="-21.72798157"><ele>51.4</ele><time>2012-07-18T13:28:40.0000000+00:00</time></trkpt><trkpt lat="64.1574173" lon="-21.72749138"><ele>50.7</ele><time>2012-07-18T13:28:45.0000000+00:00</time></trkpt><trkpt lat="64.15758514" lon="-21.72702408"><ele>49.9</ele><time>2012-07-18T13:28:50.0000000+00:00</time></trkpt><trkpt lat="64.15774536" lon="-21.72658539"><ele>49.9</ele><time>2012-07-18T13:28:55.0000000+00:00</time></trkpt><trkpt lat="64.15790558" lon="-21.72614479"><ele>50.0</ele><time>2012-07-18T13:29:00.0000000+00:00</time></trkpt><trkpt lat="64.15805817" lon="-21.72569084"><ele>50.1</ele><time>2012-07-18T13:29:05.0000000+00:00</time></trkpt><trkpt lat="64.1581955" lon="-21.72530365"><ele>50.0</ele><time>2012-07-18T13:29:10.0000000+00:00</time></trkpt><trkpt lat="64.15829468" lon="-21.72495461"><ele>50.1</ele><time>2012-07-18T13:29:15.0000000+00:00</time></trkpt><trkpt lat="64.15834808" lon="-21.72467995"><ele>50.4</ele><time>2012-07-18T13:29:20.0000000+00:00</time></trkpt><trkpt lat="64.15835571" lon="-21.72440147"><ele>50.5</ele><time>2012-07-18T13:29:25.0000000+00:00</time></trkpt><trkpt lat="64.15837097" lon="-21.72426033"><ele>50.6</ele><time>2012-07-18T13:29:30.0000000+00:00</time></trkpt><trkpt lat="64.15840912" lon="-21.7242012"><ele>50.9</ele><time>2012-07-18T13:29:35.0000000+00:00</time></trkpt><trkpt lat="64.1584549" lon="-21.72408295"><ele>51.4</ele><time>2012-07-18T13:29:40.0000000+00:00</time></trkpt><trkpt lat="64.15853119" lon="-21.72383499"><ele>51.5</ele><time>2012-07-18T13:29:45.0000000+00:00</time></trkpt><trkpt lat="64.15854645" lon="-21.72375488"><ele>51.4</ele><time>2012-07-18T13:29:50.0000000+00:00</time></trkpt><trkpt lat="64.15854645" lon="-21.72374916"><ele>50.6</ele><time>2012-07-18T13:29:55.0000000+00:00</time></trkpt><trkpt lat="64.15854645" lon="-21.72375298"><ele>50.3</ele><time>2012-07-18T13:30:00.0000000+00:00</time></trkpt><trkpt lat="64.15854645" lon="-21.72375107"><ele>50.3</ele><time>2012-07-18T13:30:05.0000000+00:00</time></trkpt><trkpt lat="64.15854645" lon="-21.72375107"><ele>50.4</ele><time>2012-07-18T13:30:10.0000000+00:00</time></trkpt><trkpt lat="64.15854645" lon="-21.72375107"><ele>50.5</ele><time>2012-07-18T13:30:15.0000000+00:00</time></trkpt><trkpt lat="64.15854645" lon="-21.72375107"><ele>50.5</ele><time>2012-07-18T13:30:20.0000000+00:00</time></trkpt><trkpt lat="64.15854645" lon="-21.72375107"><ele>50.5</ele><time>2012-07-18T13:30:25.0000000+00:00</time></trkpt><trkpt lat="64.15854645" lon="-21.72375107"><ele>50.5</ele><time>2012-07-18T13:30:30.0000000+00:00</time></trkpt><trkpt lat="64.15854645" lon="-21.72375107"><ele>50.5</ele><time>2012-07-18T13:30:35.0000000+00:00</time></trkpt><trkpt lat="64.15854645" lon="-21.72375107"><ele>50.5</ele><time>2012-07-18T13:30:40.0000000+00:00</time></trkpt><trkpt lat="64.15854645" lon="-21.72375107"><ele>50.5</ele><time>2012-07-18T13:30:45.0000000+00:00</time></trkpt><trkpt lat="64.15854645" lon="-21.72375107"><ele>50.5</ele><time>2012-07-18T13:30:50.0000000+00:00</time></trkpt><trkpt lat="64.15854645" lon="-21.72375298"><ele>50.5</ele><time>2012-07-18T13:30:55.0000000+00:00</time></trkpt><trkpt lat="64.15854645" lon="-21.72375298"><ele>50.5</ele><time>2012-07-18T13:31:00.0000000+00:00</time></trkpt><trkpt lat="64.15854645" lon="-21.72375298"><ele>50.5</ele><time>2012-07-18T13:31:05.0000000+00:00</time></trkpt><trkpt lat="64.15854645" lon="-21.72375298"><ele>50.6</ele><time>2012-07-18T13:31:10.0000000+00:00</time></trkpt><trkpt lat="64.15854645" lon="-21.72375298"><ele>50.6</ele><time>2012-07-18T13:31:15.0000000+00:00</time></trkpt><trkpt lat="64.15854645" lon="-21.72375298"><ele>50.6</ele><time>2012-07-18T13:31:20.0000000+00:00</time></trkpt><trkpt lat="64.15854645" lon="-21.72375488"><ele>50.6</ele><time>2012-07-18T13:31:25.0000000+00:00</time></trkpt><trkpt lat="64.15854645" lon="-21.72375488"><ele>50.6</ele><time>2012-07-18T13:31:30.0000000+00:00</time></trkpt><trkpt lat="64.15854645" lon="-21.72375488"><ele>50.6</ele><time>2012-07-18T13:31:35.0000000+00:00</time></trkpt><trkpt lat="64.15854645" lon="-21.72375488"><ele>50.6</ele><time>2012-07-18T13:31:40.0000000+00:00</time></trkpt><trkpt lat="64.15854645" lon="-21.72375488"><ele>50.6</ele><time>2012-07-18T13:31:45.0000000+00:00</time></trkpt><trkpt lat="64.15854645" lon="-21.72375679"><ele>50.6</ele><time>2012-07-18T13:31:50.0000000+00:00</time></trkpt><trkpt lat="64.15854645" lon="-21.72375679"><ele>50.6</ele><time>2012-07-18T13:31:55.0000000+00:00</time></trkpt><trkpt lat="64.15854645" lon="-21.72375679"><ele>50.6</ele><time>2012-07-18T13:32:00.0000000+00:00</time></trkpt><trkpt lat="64.15854645" lon="-21.72375679"><ele>50.6</ele><time>2012-07-18T13:32:05.0000000+00:00</time></trkpt><trkpt lat="64.15854645" lon="-21.72375679"><ele>50.6</ele><time>2012-07-18T13:32:10.0000000+00:00</time></trkpt><trkpt lat="64.15854645" lon="-21.72375679"><ele>50.7</ele><time>2012-07-18T13:32:15.0000000+00:00</time></trkpt><trkpt lat="64.15855408" lon="-21.72374535"><ele>50.7</ele><time>2012-07-18T13:32:20.0000000+00:00</time></trkpt><trkpt lat="64.15864563" lon="-21.72362328"><ele>50.5</ele><time>2012-07-18T13:32:25.0000000+00:00</time></trkpt><trkpt lat="64.15879822" lon="-21.72344971"><ele>50.1</ele><time>2012-07-18T13:32:30.0000000+00:00</time></trkpt><trkpt lat="64.15894318" lon="-21.72327805"><ele>50.3</ele><time>2012-07-18T13:32:35.0000000+00:00</time></trkpt><trkpt lat="64.15908051" lon="-21.72309494"><ele>50.2</ele><time>2012-07-18T13:32:40.0000000+00:00</time></trkpt><trkpt lat="64.15918732" lon="-21.7228241"><ele>50.5</ele><time>2012-07-18T13:32:45.0000000+00:00</time></trkpt><trkpt lat="64.15927887" lon="-21.72257805"><ele>50.6</ele><time>2012-07-18T13:32:50.0000000+00:00</time></trkpt><trkpt lat="64.15935516" lon="-21.72230911"><ele>50.1</ele><time>2012-07-18T13:32:55.0000000+00:00</time></trkpt><trkpt lat="64.15940857" lon="-21.72212219"><ele>50.3</ele><time>2012-07-18T13:33:00.0000000+00:00</time></trkpt><trkpt lat="64.15945435" lon="-21.72200966"><ele>50.8</ele><time>2012-07-18T13:33:05.0000000+00:00</time></trkpt><trkpt lat="64.15953827" lon="-21.72181511"><ele>51.7</ele><time>2012-07-18T13:33:10.0000000+00:00</time></trkpt><trkpt lat="64.15966034" lon="-21.72149468"><ele>51.5</ele><time>2012-07-18T13:33:15.0000000+00:00</time></trkpt><trkpt lat="64.15975952" lon="-21.72117996"><ele>51.5</ele><time>2012-07-18T13:33:20.0000000+00:00</time></trkpt><trkpt lat="64.15986633" lon="-21.72088051"><ele>51.6</ele><time>2012-07-18T13:33:25.0000000+00:00</time></trkpt><trkpt lat="64.15998077" lon="-21.72057915"><ele>51.6</ele><time>2012-07-18T13:33:30.0000000+00:00</time></trkpt><trkpt lat="64.16007996" lon="-21.72022438"><ele>50.9</ele><time>2012-07-18T13:33:35.0000000+00:00</time></trkpt><trkpt lat="64.16027832" lon="-21.71996498"><ele>50.5</ele><time>2012-07-18T13:33:40.0000000+00:00</time></trkpt><trkpt lat="64.16038513" lon="-21.71987915"><ele>51.1</ele><time>2012-07-18T13:33:45.0000000+00:00</time></trkpt><trkpt lat="64.16048431" lon="-21.71969986"><ele>52.3</ele><time>2012-07-18T13:33:50.0000000+00:00</time></trkpt><trkpt lat="64.16055298" lon="-21.71956825"><ele>52.9</ele><time>2012-07-18T13:33:55.0000000+00:00</time></trkpt><trkpt lat="64.16062164" lon="-21.71949005"><ele>54.2</ele><time>2012-07-18T13:34:00.0000000+00:00</time></trkpt><trkpt lat="64.16072083" lon="-21.71938133"><ele>54.2</ele><time>2012-07-18T13:34:05.0000000+00:00</time></trkpt><trkpt lat="64.16086578" lon="-21.71923447"><ele>53.4</ele><time>2012-07-18T13:34:10.0000000+00:00</time></trkpt><trkpt lat="64.16101837" lon="-21.7190609"><ele>53.2</ele><time>2012-07-18T13:34:15.0000000+00:00</time></trkpt><trkpt lat="64.1611557" lon="-21.71892548"><ele>53.1</ele><time>2012-07-18T13:34:20.0000000+00:00</time></trkpt><trkpt lat="64.16127777" lon="-21.71879387"><ele>53.5</ele><time>2012-07-18T13:34:25.0000000+00:00</time></trkpt><trkpt lat="64.1614151" lon="-21.71864128"><ele>53.6</ele><time>2012-07-18T13:34:30.0000000+00:00</time></trkpt><trkpt lat="64.16156006" lon="-21.71848869"><ele>53.4</ele><time>2012-07-18T13:34:35.0000000+00:00</time></trkpt><trkpt lat="64.16170502" lon="-21.71834183"><ele>53.5</ele><time>2012-07-18T13:34:40.0000000+00:00</time></trkpt><trkpt lat="64.16181183" lon="-21.71825218"><ele>53.2</ele><time>2012-07-18T13:34:45.0000000+00:00</time></trkpt><trkpt lat="64.1619339" lon="-21.71812439"><ele>53.2</ele><time>2012-07-18T13:34:50.0000000+00:00</time></trkpt><trkpt lat="64.16203308" lon="-21.7180233"><ele>53.7</ele><time>2012-07-18T13:34:55.0000000+00:00</time></trkpt><trkpt lat="64.16214752" lon="-21.71791077"><ele>53.7</ele><time>2012-07-18T13:35:00.0000000+00:00</time></trkpt><trkpt lat="64.16225433" lon="-21.71777535"><ele>54.5</ele><time>2012-07-18T13:35:05.0000000+00:00</time></trkpt><trkpt lat="64.16236115" lon="-21.71764183"><ele>54.7</ele><time>2012-07-18T13:35:10.0000000+00:00</time></trkpt><trkpt lat="64.16246796" lon="-21.71752358"><ele>55.0</ele><time>2012-07-18T13:35:15.0000000+00:00</time></trkpt><trkpt lat="64.16255188" lon="-21.7174263"><ele>55.8</ele><time>2012-07-18T13:35:20.0000000+00:00</time></trkpt><trkpt lat="64.1626358" lon="-21.71733284"><ele>57.3</ele><time>2012-07-18T13:35:25.0000000+00:00</time></trkpt><trkpt lat="64.16273499" lon="-21.7172184"><ele>58.1</ele><time>2012-07-18T13:35:30.0000000+00:00</time></trkpt><trkpt lat="64.1628418" lon="-21.71709251"><ele>58.8</ele><time>2012-07-18T13:35:35.0000000+00:00</time></trkpt><trkpt lat="64.16293335" lon="-21.71691704"><ele>59.4</ele><time>2012-07-18T13:35:40.0000000+00:00</time></trkpt><trkpt lat="64.16304779" lon="-21.71673775"><ele>60.5</ele><time>2012-07-18T13:35:45.0000000+00:00</time></trkpt><trkpt lat="64.1631546" lon="-21.71652985"><ele>61.0</ele><time>2012-07-18T13:35:50.0000000+00:00</time></trkpt><trkpt lat="64.16326904" lon="-21.71632195"><ele>61.5</ele><time>2012-07-18T13:35:55.0000000+00:00</time></trkpt><trkpt lat="64.1633606" lon="-21.71612358"><ele>62.0</ele><time>2012-07-18T13:36:00.0000000+00:00</time></trkpt><trkpt lat="64.16345215" lon="-21.71591377"><ele>62.5</ele><time>2012-07-18T13:36:05.0000000+00:00</time></trkpt><trkpt lat="64.16353607" lon="-21.71567726"><ele>62.6</ele><time>2012-07-18T13:36:10.0000000+00:00</time></trkpt><trkpt lat="64.16361237" lon="-21.71539497"><ele>62.4</ele><time>2012-07-18T13:36:15.0000000+00:00</time></trkpt><trkpt lat="64.16368866" lon="-21.71512032"><ele>63.0</ele><time>2012-07-18T13:36:20.0000000+00:00</time></trkpt><trkpt lat="64.16376495" lon="-21.71483612"><ele>63.1</ele><time>2012-07-18T13:36:25.0000000+00:00</time></trkpt><trkpt lat="64.16384888" lon="-21.71454811"><ele>64.0</ele><time>2012-07-18T13:36:30.0000000+00:00</time></trkpt><trkpt lat="64.16394806" lon="-21.71431732"><ele>64.6</ele><time>2012-07-18T13:36:35.0000000+00:00</time></trkpt><trkpt lat="64.16405487" lon="-21.71403694"><ele>64.2</ele><time>2012-07-18T13:36:40.0000000+00:00</time></trkpt><trkpt lat="64.16413879" lon="-21.71372414"><ele>64.5</ele><time>2012-07-18T13:36:45.0000000+00:00</time></trkpt><trkpt lat="64.16423798" lon="-21.71340752"><ele>65.0</ele><time>2012-07-18T13:36:50.0000000+00:00</time></trkpt><trkpt lat="64.16431427" lon="-21.7131176"><ele>65.6</ele><time>2012-07-18T13:36:55.0000000+00:00</time></trkpt><trkpt lat="64.16439819" lon="-21.71282578"><ele>66.0</ele><time>2012-07-18T13:37:00.0000000+00:00</time></trkpt><trkpt lat="64.16448212" lon="-21.71250725"><ele>66.3</ele><time>2012-07-18T13:37:05.0000000+00:00</time></trkpt><trkpt lat="64.16457367" lon="-21.71215439"><ele>66.4</ele><time>2012-07-18T13:37:10.0000000+00:00</time></trkpt><trkpt lat="64.16464233" lon="-21.7117939"><ele>66.3</ele><time>2012-07-18T13:37:15.0000000+00:00</time></trkpt><trkpt lat="64.164711" lon="-21.71143723"><ele>66.3</ele><time>2012-07-18T13:37:20.0000000+00:00</time></trkpt><trkpt lat="64.1647644" lon="-21.71103096"><ele>66.3</ele><time>2012-07-18T13:37:25.0000000+00:00</time></trkpt><trkpt lat="64.16481018" lon="-21.71066856"><ele>66.0</ele><time>2012-07-18T13:37:30.0000000+00:00</time></trkpt><trkpt lat="64.1648407" lon="-21.71039009"><ele>65.9</ele><time>2012-07-18T13:37:35.0000000+00:00</time></trkpt><trkpt lat="64.16486359" lon="-21.71008492"><ele>65.4</ele><time>2012-07-18T13:37:40.0000000+00:00</time></trkpt><trkpt lat="64.16486359" lon="-21.70962334"><ele>64.3</ele><time>2012-07-18T13:37:45.0000000+00:00</time></trkpt><trkpt lat="64.1648407" lon="-21.70928383"><ele>64.0</ele><time>2012-07-18T13:37:50.0000000+00:00</time></trkpt><trkpt lat="64.16480255" lon="-21.70892906"><ele>62.4</ele><time>2012-07-18T13:37:55.0000000+00:00</time></trkpt><trkpt lat="64.1647644" lon="-21.70850182"><ele>60.1</ele><time>2012-07-18T13:38:00.0000000+00:00</time></trkpt><trkpt lat="64.1647644" lon="-21.70804024"><ele>58.5</ele><time>2012-07-18T13:38:05.0000000+00:00</time></trkpt><trkpt lat="64.16492462" lon="-21.70772934"><ele>57.0</ele><time>2012-07-18T13:38:10.0000000+00:00</time></trkpt><trkpt lat="64.16506958" lon="-21.70740891"><ele>55.7</ele><time>2012-07-18T13:38:15.0000000+00:00</time></trkpt><trkpt lat="64.16516876" lon="-21.7073822"><ele>55.5</ele><time>2012-07-18T13:38:20.0000000+00:00</time></trkpt><trkpt lat="64.16526794" lon="-21.7071228"><ele>56.8</ele><time>2012-07-18T13:38:25.0000000+00:00</time></trkpt><trkpt lat="64.1654129" lon="-21.70681191"><ele>57.3</ele><time>2012-07-18T13:38:30.0000000+00:00</time></trkpt><trkpt lat="64.16551209" lon="-21.70662117"><ele>57.9</ele><time>2012-07-18T13:38:35.0000000+00:00</time></trkpt><trkpt lat="64.1656189" lon="-21.70648766"><ele>59.0</ele><time>2012-07-18T13:38:40.0000000+00:00</time></trkpt><trkpt lat="64.16569519" lon="-21.70648384"><ele>60.7</ele><time>2012-07-18T13:38:45.0000000+00:00</time></trkpt><trkpt lat="64.16577148" lon="-21.70661545"><ele>61.5</ele><time>2012-07-18T13:38:50.0000000+00:00</time></trkpt><trkpt lat="64.16578674" lon="-21.7069397"><ele>60.7</ele><time>2012-07-18T13:38:55.0000000+00:00</time></trkpt><trkpt lat="64.16577911" lon="-21.70719338"><ele>60.7</ele><time>2012-07-18T13:39:00.0000000+00:00</time></trkpt><trkpt lat="64.16580963" lon="-21.70727539"><ele>61.9</ele><time>2012-07-18T13:39:05.0000000+00:00</time></trkpt><trkpt lat="64.16580963" lon="-21.70726585"><ele>62.2</ele><time>2012-07-18T13:39:10.0000000+00:00</time></trkpt><trkpt lat="64.16580963" lon="-21.70726204"><ele>62.3</ele><time>2012-07-18T13:39:15.0000000+00:00</time></trkpt><trkpt lat="64.16580963" lon="-21.70725822"><ele>62.4</ele><time>2012-07-18T13:39:20.0000000+00:00</time></trkpt><trkpt lat="64.16580963" lon="-21.70725822"><ele>62.4</ele><time>2012-07-18T13:39:25.0000000+00:00</time></trkpt><trkpt lat="64.16580963" lon="-21.70725632"><ele>62.4</ele><time>2012-07-18T13:39:30.0000000+00:00</time></trkpt><trkpt lat="64.16580963" lon="-21.70725441"><ele>62.4</ele><time>2012-07-18T13:39:35.0000000+00:00</time></trkpt><trkpt lat="64.16580963" lon="-21.7072525"><ele>62.3</ele><time>2012-07-18T13:39:40.0000000+00:00</time></trkpt><trkpt lat="64.165802" lon="-21.70724869"><ele>62.0</ele><time>2012-07-18T13:39:45.0000000+00:00</time></trkpt><trkpt lat="64.165802" lon="-21.70724106"><ele>61.5</ele><time>2012-07-18T13:39:50.0000000+00:00</time></trkpt><trkpt lat="64.16579437" lon="-21.70723152"><ele>60.7</ele><time>2012-07-18T13:39:55.0000000+00:00</time></trkpt><trkpt lat="64.16579437" lon="-21.70722199"><ele>59.6</ele><time>2012-07-18T13:40:00.0000000+00:00</time></trkpt><trkpt lat="64.16578674" lon="-21.70721245"><ele>58.3</ele><time>2012-07-18T13:40:05.0000000+00:00</time></trkpt><trkpt lat="64.16577911" lon="-21.70720482"><ele>56.7</ele><time>2012-07-18T13:40:10.0000000+00:00</time></trkpt><trkpt lat="64.16577148" lon="-21.70719719"><ele>55.0</ele><time>2012-07-18T13:40:15.0000000+00:00</time></trkpt><trkpt lat="64.16576386" lon="-21.70718765"><ele>53.0</ele><time>2012-07-18T13:40:20.0000000+00:00</time></trkpt><trkpt lat="64.16576386" lon="-21.70718575"><ele>52.0</ele><time>2012-07-18T13:40:25.0000000+00:00</time></trkpt><trkpt lat="64.16576386" lon="-21.70718384"><ele>51.7</ele><time>2012-07-18T13:40:30.0000000+00:00</time></trkpt><trkpt lat="64.16576386" lon="-21.70718384"><ele>51.6</ele><time>2012-07-18T13:40:35.0000000+00:00</time></trkpt><trkpt lat="64.16576386" lon="-21.70718193"><ele>51.5</ele><time>2012-07-18T13:40:40.0000000+00:00</time></trkpt><trkpt lat="64.16576386" lon="-21.70718193"><ele>51.5</ele><time>2012-07-18T13:40:45.0000000+00:00</time></trkpt><trkpt lat="64.16576386" lon="-21.70718002"><ele>51.5</ele><time>2012-07-18T13:40:50.0000000+00:00</time></trkpt><trkpt lat="64.16576386" lon="-21.70717812"><ele>51.6</ele><time>2012-07-18T13:40:55.0000000+00:00</time></trkpt><trkpt lat="64.16576386" lon="-21.70717621"><ele>51.6</ele><time>2012-07-18T13:41:00.0000000+00:00</time></trkpt><trkpt lat="64.16576386" lon="-21.70717621"><ele>51.6</ele><time>2012-07-18T13:41:05.0000000+00:00</time></trkpt><trkpt lat="64.16576386" lon="-21.70717621"><ele>51.7</ele><time>2012-07-18T13:41:10.0000000+00:00</time></trkpt><trkpt lat="64.16576386" lon="-21.70717621"><ele>51.7</ele><time>2012-07-18T13:41:15.0000000+00:00</time></trkpt><trkpt lat="64.16576386" lon="-21.70717621"><ele>51.7</ele><time>2012-07-18T13:41:20.0000000+00:00</time></trkpt><trkpt lat="64.16576386" lon="-21.70717621"><ele>51.7</ele><time>2012-07-18T13:41:25.0000000+00:00</time></trkpt><trkpt lat="64.16576386" lon="-21.70717621"><ele>51.7</ele><time>2012-07-18T13:41:30.0000000+00:00</time></trkpt><trkpt lat="64.16576386" lon="-21.70717621"><ele>51.7</ele><time>2012-07-18T13:41:35.0000000+00:00</time></trkpt><trkpt lat="64.16576386" lon="-21.70717621"><ele>51.8</ele><time>2012-07-18T13:41:40.0000000+00:00</time></trkpt><trkpt lat="64.16576386" lon="-21.70717812"><ele>51.8</ele><time>2012-07-18T13:41:45.0000000+00:00</time></trkpt><trkpt lat="64.16577148" lon="-21.70718193"><ele>51.8</ele><time>2012-07-18T13:41:50.0000000+00:00</time></trkpt><trkpt lat="64.16575623" lon="-21.70714188"><ele>51.1</ele><time>2012-07-18T13:41:55.0000000+00:00</time></trkpt><trkpt lat="64.16574097" lon="-21.70715714"><ele>50.4</ele><time>2012-07-18T13:42:00.0000000+00:00</time></trkpt><trkpt lat="64.16572571" lon="-21.70713425"><ele>49.7</ele><time>2012-07-18T13:42:05.0000000+00:00</time></trkpt><trkpt lat="64.16571808" lon="-21.70711517"><ele>48.9</ele><time>2012-07-18T13:42:10.0000000+00:00</time></trkpt><trkpt lat="64.16571045" lon="-21.70711708"><ele>48.3</ele><time>2012-07-18T13:42:15.0000000+00:00</time></trkpt><trkpt lat="64.16571045" lon="-21.70711708"><ele>47.8</ele><time>2012-07-18T13:42:20.0000000+00:00</time></trkpt><trkpt lat="64.16571045" lon="-21.70711327"><ele>47.2</ele><time>2012-07-18T13:42:25.0000000+00:00</time></trkpt><trkpt lat="64.16571045" lon="-21.70711517"><ele>46.6</ele><time>2012-07-18T13:42:30.0000000+00:00</time></trkpt><trkpt lat="64.16571045" lon="-21.70711327"><ele>46.0</ele><time>2012-07-18T13:42:35.0000000+00:00</time></trkpt><trkpt lat="64.16570282" lon="-21.70710373"><ele>45.4</ele><time>2012-07-18T13:42:40.0000000+00:00</time></trkpt><trkpt lat="64.16570282" lon="-21.70706368"><ele>45.9</ele><time>2012-07-18T13:42:45.0000000+00:00</time></trkpt><trkpt lat="64.16571808" lon="-21.70691872"><ele>47.1</ele><time>2012-07-18T13:42:50.0000000+00:00</time></trkpt><trkpt lat="64.16569519" lon="-21.70672798"><ele>47.8</ele><time>2012-07-18T13:42:55.0000000+00:00</time></trkpt><trkpt lat="64.16572571" lon="-21.70658684"><ele>51.2</ele><time>2012-07-18T13:43:00.0000000+00:00</time></trkpt><trkpt lat="64.16571045" lon="-21.70654869"><ele>51.9</ele><time>2012-07-18T13:43:05.0000000+00:00</time></trkpt><trkpt lat="64.16569519" lon="-21.70648766"><ele>52.3</ele><time>2012-07-18T13:43:10.0000000+00:00</time></trkpt><trkpt lat="64.16562653" lon="-21.70640183"><ele>52.6</ele><time>2012-07-18T13:43:15.0000000+00:00</time></trkpt><trkpt lat="64.16552734" lon="-21.70635796"><ele>53.6</ele><time>2012-07-18T13:43:20.0000000+00:00</time></trkpt><trkpt lat="64.16542053" lon="-21.7063427"><ele>55.1</ele><time>2012-07-18T13:43:25.0000000+00:00</time></trkpt><trkpt lat="64.16533661" lon="-21.70633316"><ele>56.0</ele><time>2012-07-18T13:43:30.0000000+00:00</time></trkpt><trkpt lat="64.16522217" lon="-21.70637131"><ele>56.4</ele><time>2012-07-18T13:43:35.0000000+00:00</time></trkpt><trkpt lat="64.16508484" lon="-21.70662689"><ele>57.4</ele><time>2012-07-18T13:43:40.0000000+00:00</time></trkpt><trkpt lat="64.16493225" lon="-21.70689201"><ele>58.0</ele><time>2012-07-18T13:43:45.0000000+00:00</time></trkpt><trkpt lat="64.16474152" lon="-21.70679855"><ele>59.1</ele><time>2012-07-18T13:43:50.0000000+00:00</time></trkpt><trkpt lat="64.16464233" lon="-21.70651245"><ele>58.3</ele><time>2012-07-18T13:43:55.0000000+00:00</time></trkpt><trkpt lat="64.16462708" lon="-21.70624924"><ele>57.9</ele><time>2012-07-18T13:44:00.0000000+00:00</time></trkpt><trkpt lat="64.16464996" lon="-21.7059803"><ele>58.0</ele><time>2012-07-18T13:44:05.0000000+00:00</time></trkpt><trkpt lat="64.16465759" lon="-21.70564461"><ele>56.0</ele><time>2012-07-18T13:44:10.0000000+00:00</time></trkpt><trkpt lat="64.16464233" lon="-21.7052803"><ele>55.5</ele><time>2012-07-18T13:44:15.0000000+00:00</time></trkpt><trkpt lat="64.16462708" lon="-21.70502853"><ele>55.2</ele><time>2012-07-18T13:44:20.0000000+00:00</time></trkpt><trkpt lat="64.16462708" lon="-21.7048378"><ele>55.7</ele><time>2012-07-18T13:44:25.0000000+00:00</time></trkpt><trkpt lat="64.16461182" lon="-21.70468712"><ele>56.7</ele><time>2012-07-18T13:44:30.0000000+00:00</time></trkpt><trkpt lat="64.16459656" lon="-21.70448113"><ele>56.3</ele><time>2012-07-18T13:44:35.0000000+00:00</time></trkpt><trkpt lat="64.16459656" lon="-21.70425224"><ele>56.4</ele><time>2012-07-18T13:44:40.0000000+00:00</time></trkpt><trkpt lat="64.16458893" lon="-21.70405579"><ele>56.2</ele><time>2012-07-18T13:44:45.0000000+00:00</time></trkpt><trkpt lat="64.1645813" lon="-21.70387459"><ele>55.7</ele><time>2012-07-18T13:44:50.0000000+00:00</time></trkpt><trkpt lat="64.16455841" lon="-21.70368767"><ele>55.7</ele><time>2012-07-18T13:44:55.0000000+00:00</time></trkpt><trkpt lat="64.16454315" lon="-21.70346451"><ele>56.0</ele><time>2012-07-18T13:45:00.0000000+00:00</time></trkpt><trkpt lat="64.16453552" lon="-21.70324326"><ele>55.9</ele><time>2012-07-18T13:45:05.0000000+00:00</time></trkpt><trkpt lat="64.16452789" lon="-21.70304489"><ele>55.5</ele><time>2012-07-18T13:45:10.0000000+00:00</time></trkpt><trkpt lat="64.16452026" lon="-21.70280075"><ele>56.3</ele><time>2012-07-18T13:45:15.0000000+00:00</time></trkpt><trkpt lat="64.16451263" lon="-21.70248222"><ele>56.1</ele><time>2012-07-18T13:45:20.0000000+00:00</time></trkpt><trkpt lat="64.16449738" lon="-21.70217896"><ele>56.3</ele><time>2012-07-18T13:45:25.0000000+00:00</time></trkpt><trkpt lat="64.16448975" lon="-21.70185852"><ele>55.6</ele><time>2012-07-18T13:45:30.0000000+00:00</time></trkpt><trkpt lat="64.16445923" lon="-21.70150757"><ele>54.7</ele><time>2012-07-18T13:45:35.0000000+00:00</time></trkpt><trkpt lat="64.1644516" lon="-21.70111275"><ele>54.0</ele><time>2012-07-18T13:45:40.0000000+00:00</time></trkpt><trkpt lat="64.16443634" lon="-21.70070076"><ele>53.8</ele><time>2012-07-18T13:45:45.0000000+00:00</time></trkpt><trkpt lat="64.16442871" lon="-21.70023727"><ele>52.7</ele><time>2012-07-18T13:45:50.0000000+00:00</time></trkpt><trkpt lat="64.16441345" lon="-21.6996994"><ele>51.6</ele><time>2012-07-18T13:45:55.0000000+00:00</time></trkpt><trkpt lat="64.16441345" lon="-21.69906235"><ele>50.1</ele><time>2012-07-18T13:46:00.0000000+00:00</time></trkpt><trkpt lat="64.16442871" lon="-21.69833946"><ele>48.4</ele><time>2012-07-18T13:46:05.0000000+00:00</time></trkpt><trkpt lat="64.16447449" lon="-21.69754601"><ele>46.2</ele><time>2012-07-18T13:46:10.0000000+00:00</time></trkpt><trkpt lat="64.16453552" lon="-21.69669914"><ele>44.1</ele><time>2012-07-18T13:46:15.0000000+00:00</time></trkpt><trkpt lat="64.16462708" lon="-21.69584274"><ele>40.5</ele><time>2012-07-18T13:46:20.0000000+00:00</time></trkpt><trkpt lat="64.1647644" lon="-21.6950264"><ele>37.4</ele><time>2012-07-18T13:46:25.0000000+00:00</time></trkpt><trkpt lat="64.16493225" lon="-21.69430542"><ele>38.1</ele><time>2012-07-18T13:46:30.0000000+00:00</time></trkpt><trkpt lat="64.16514587" lon="-21.69368553"><ele>41.5</ele><time>2012-07-18T13:46:35.0000000+00:00</time></trkpt><trkpt lat="64.16530609" lon="-21.69303894"><ele>41.9</ele><time>2012-07-18T13:46:40.0000000+00:00</time></trkpt><trkpt lat="64.16550446" lon="-21.69255447"><ele>42.1</ele><time>2012-07-18T13:46:45.0000000+00:00</time></trkpt><trkpt lat="64.16575623" lon="-21.69220161"><ele>41.7</ele><time>2012-07-18T13:46:50.0000000+00:00</time></trkpt><trkpt lat="64.16602325" lon="-21.69184113"><ele>41.0</ele><time>2012-07-18T13:46:55.0000000+00:00</time></trkpt><trkpt lat="64.16630554" lon="-21.69147492"><ele>41.0</ele><time>2012-07-18T13:47:00.0000000+00:00</time></trkpt><trkpt lat="64.16659546" lon="-21.69098663"><ele>39.3</ele><time>2012-07-18T13:47:05.0000000+00:00</time></trkpt><trkpt lat="64.16690064" lon="-21.69034004"><ele>37.0</ele><time>2012-07-18T13:47:10.0000000+00:00</time></trkpt><trkpt lat="64.16718292" lon="-21.68951798"><ele>34.6</ele><time>2012-07-18T13:47:15.0000000+00:00</time></trkpt><trkpt lat="64.1674118" lon="-21.68849945"><ele>31.8</ele><time>2012-07-18T13:47:20.0000000+00:00</time></trkpt><trkpt lat="64.16754913" lon="-21.68735886"><ele>28.0</ele><time>2012-07-18T13:47:25.0000000+00:00</time></trkpt><trkpt lat="64.16759491" lon="-21.68614769"><ele>25.8</ele><time>2012-07-18T13:47:30.0000000+00:00</time></trkpt><trkpt lat="64.16764832" lon="-21.68505478"><ele>24.2</ele><time>2012-07-18T13:47:35.0000000+00:00</time></trkpt><trkpt lat="64.16776276" lon="-21.68425751"><ele>24.0</ele><time>2012-07-18T13:47:40.0000000+00:00</time></trkpt><trkpt lat="64.16777039" lon="-21.6835804"><ele>21.9</ele><time>2012-07-18T13:47:45.0000000+00:00</time></trkpt><trkpt lat="64.16765595" lon="-21.68309784"><ele>20.9</ele><time>2012-07-18T13:47:50.0000000+00:00</time></trkpt><trkpt lat="64.16755676" lon="-21.68280411"><ele>20.0</ele><time>2012-07-18T13:47:55.0000000+00:00</time></trkpt><trkpt lat="64.16750336" lon="-21.68263817"><ele>19.0</ele><time>2012-07-18T13:48:00.0000000+00:00</time></trkpt><trkpt lat="64.16753388" lon="-21.68250656"><ele>19.6</ele><time>2012-07-18T13:48:05.0000000+00:00</time></trkpt><trkpt lat="64.16764832" lon="-21.68280983"><ele>18.0</ele><time>2012-07-18T13:48:10.0000000+00:00</time></trkpt><trkpt lat="64.16777039" lon="-21.68310928"><ele>18.2</ele><time>2012-07-18T13:48:15.0000000+00:00</time></trkpt><trkpt lat="64.16779327" lon="-21.68316269"><ele>18.6</ele><time>2012-07-18T13:48:20.0000000+00:00</time></trkpt><trkpt lat="64.16780853" lon="-21.68312264"><ele>18.9</ele><time>2012-07-18T13:48:25.0000000+00:00</time></trkpt><trkpt lat="64.16775513" lon="-21.68296433"><ele>19.5</ele><time>2012-07-18T13:48:30.0000000+00:00</time></trkpt><trkpt lat="64.16781616" lon="-21.68278694"><ele>20.4</ele><time>2012-07-18T13:48:35.0000000+00:00</time></trkpt><trkpt lat="64.16792297" lon="-21.68269348"><ele>21.4</ele><time>2012-07-18T13:48:40.0000000+00:00</time></trkpt><trkpt lat="64.16799164" lon="-21.68261147"><ele>22.2</ele><time>2012-07-18T13:48:45.0000000+00:00</time></trkpt><trkpt lat="64.16804504" lon="-21.68252373"><ele>23.2</ele><time>2012-07-18T13:48:50.0000000+00:00</time></trkpt><trkpt lat="64.16812897" lon="-21.68237877"><ele>24.4</ele><time>2012-07-18T13:48:55.0000000+00:00</time></trkpt><trkpt lat="64.16822815" lon="-21.68221092"><ele>25.9</ele><time>2012-07-18T13:49:00.0000000+00:00</time></trkpt><trkpt lat="64.16834259" lon="-21.68198013"><ele>26.9</ele><time>2012-07-18T13:49:05.0000000+00:00</time></trkpt><trkpt lat="64.16842651" lon="-21.68180466"><ele>28.2</ele><time>2012-07-18T13:49:10.0000000+00:00</time></trkpt><trkpt lat="64.16849518" lon="-21.6816864"><ele>28.9</ele><time>2012-07-18T13:49:15.0000000+00:00</time></trkpt><trkpt lat="64.16857147" lon="-21.68155479"><ele>28.9</ele><time>2012-07-18T13:49:20.0000000+00:00</time></trkpt><trkpt lat="64.16867065" lon="-21.68140984"><ele>28.2</ele><time>2012-07-18T13:49:25.0000000+00:00</time></trkpt><trkpt lat="64.16877747" lon="-21.68124771"><ele>28.7</ele><time>2012-07-18T13:49:30.0000000+00:00</time></trkpt><trkpt lat="64.16880798" lon="-21.68118668"><ele>28.3</ele><time>2012-07-18T13:49:35.0000000+00:00</time></trkpt><trkpt lat="64.16880798" lon="-21.68117333"><ele>28.1</ele><time>2012-07-18T13:49:40.0000000+00:00</time></trkpt><trkpt lat="64.16880798" lon="-21.68117142"><ele>28.1</ele><time>2012-07-18T13:49:45.0000000+00:00</time></trkpt><trkpt lat="64.16880798" lon="-21.68116951"><ele>28.0</ele><time>2012-07-18T13:49:50.0000000+00:00</time></trkpt><trkpt lat="64.16880798" lon="-21.68116951"><ele>28.0</ele><time>2012-07-18T13:49:55.0000000+00:00</time></trkpt><trkpt lat="64.16880798" lon="-21.68116951"><ele>28.0</ele><time>2012-07-18T13:50:00.0000000+00:00</time></trkpt><trkpt lat="64.16881561" lon="-21.68116951"><ele>28.0</ele><time>2012-07-18T13:50:05.0000000+00:00</time></trkpt><trkpt lat="64.16881561" lon="-21.68116951"><ele>28.0</ele><time>2012-07-18T13:50:10.0000000+00:00</time></trkpt><trkpt lat="64.16881561" lon="-21.68116951"><ele>28.0</ele><time>2012-07-18T13:50:15.0000000+00:00</time></trkpt><trkpt lat="64.16881561" lon="-21.68116951"><ele>28.0</ele><time>2012-07-18T13:50:20.0000000+00:00</time></trkpt><trkpt lat="64.16881561" lon="-21.68116951"><ele>28.0</ele><time>2012-07-18T13:50:25.0000000+00:00</time></trkpt><trkpt lat="64.16881561" lon="-21.68117142"><ele>27.9</ele><time>2012-07-18T13:50:30.0000000+00:00</time></trkpt><trkpt lat="64.16881561" lon="-21.68117142"><ele>27.9</ele><time>2012-07-18T13:50:35.0000000+00:00</time></trkpt><trkpt lat="64.16881561" lon="-21.68117142"><ele>27.9</ele><time>2012-07-18T13:50:40.0000000+00:00</time></trkpt><trkpt lat="64.16881561" lon="-21.68117142"><ele>27.9</ele><time>2012-07-18T13:50:45.0000000+00:00</time></trkpt><trkpt lat="64.16881561" lon="-21.68117142"><ele>27.9</ele><time>2012-07-18T13:50:50.0000000+00:00</time></trkpt><trkpt lat="64.16881561" lon="-21.68117142"><ele>27.9</ele><time>2012-07-18T13:50:55.0000000+00:00</time></trkpt><trkpt lat="64.16881561" lon="-21.68117333"><ele>27.9</ele><time>2012-07-18T13:51:00.0000000+00:00</time></trkpt><trkpt lat="64.16881561" lon="-21.68117333"><ele>27.9</ele><time>2012-07-18T13:51:05.0000000+00:00</time></trkpt><trkpt lat="64.16881561" lon="-21.68117142"><ele>27.9</ele><time>2012-07-18T13:51:10.0000000+00:00</time></trkpt><trkpt lat="64.16887665" lon="-21.68108559"><ele>27.2</ele><time>2012-07-18T13:51:15.0000000+00:00</time></trkpt><trkpt lat="64.16894531" lon="-21.68094635"><ele>26.8</ele><time>2012-07-18T13:51:20.0000000+00:00</time></trkpt><trkpt lat="64.16902924" lon="-21.68083382"><ele>27.1</ele><time>2012-07-18T13:51:25.0000000+00:00</time></trkpt><trkpt lat="64.16910553" lon="-21.68070793"><ele>29.1</ele><time>2012-07-18T13:51:30.0000000+00:00</time></trkpt><trkpt lat="64.16919708" lon="-21.68056488"><ele>30.3</ele><time>2012-07-18T13:51:35.0000000+00:00</time></trkpt><trkpt lat="64.16925049" lon="-21.68047714"><ele>31.8</ele><time>2012-07-18T13:51:40.0000000+00:00</time></trkpt><trkpt lat="64.16931152" lon="-21.68041229"><ele>33.0</ele><time>2012-07-18T13:51:45.0000000+00:00</time></trkpt><trkpt lat="64.16939545" lon="-21.68029213"><ele>34.1</ele><time>2012-07-18T13:51:50.0000000+00:00</time></trkpt><trkpt lat="64.169487" lon="-21.6801548"><ele>35.5</ele><time>2012-07-18T13:51:55.0000000+00:00</time></trkpt><trkpt lat="64.16956329" lon="-21.68002319"><ele>36.2</ele><time>2012-07-18T13:52:00.0000000+00:00</time></trkpt><trkpt lat="64.16963196" lon="-21.67990112"><ele>36.8</ele><time>2012-07-18T13:52:05.0000000+00:00</time></trkpt><trkpt lat="64.16970062" lon="-21.6798172"><ele>37.3</ele><time>2012-07-18T13:52:10.0000000+00:00</time></trkpt><trkpt lat="64.16975403" lon="-21.67971611"><ele>37.4</ele><time>2012-07-18T13:52:15.0000000+00:00</time></trkpt><trkpt lat="64.16981506" lon="-21.67962074"><ele>38.0</ele><time>2012-07-18T13:52:20.0000000+00:00</time></trkpt><trkpt lat="64.16986847" lon="-21.67953682"><ele>37.3</ele><time>2012-07-18T13:52:25.0000000+00:00</time></trkpt><trkpt lat="64.16993713" lon="-21.67944145"><ele>37.6</ele><time>2012-07-18T13:52:30.0000000+00:00</time></trkpt><trkpt lat="64.16999817" lon="-21.67933464"><ele>37.7</ele><time>2012-07-18T13:52:35.0000000+00:00</time></trkpt><trkpt lat="64.17008209" lon="-21.67929077"><ele>39.7</ele><time>2012-07-18T13:52:40.0000000+00:00</time></trkpt><trkpt lat="64.17017365" lon="-21.67915535"><ele>39.2</ele><time>2012-07-18T13:52:45.0000000+00:00</time></trkpt><trkpt lat="64.17025757" lon="-21.67902374"><ele>39.5</ele><time>2012-07-18T13:52:50.0000000+00:00</time></trkpt><trkpt lat="64.17036438" lon="-21.67886925"><ele>39.4</ele><time>2012-07-18T13:52:55.0000000+00:00</time></trkpt><trkpt lat="64.1704483" lon="-21.67869759"><ele>39.3</ele><time>2012-07-18T13:53:00.0000000+00:00</time></trkpt><trkpt lat="64.17051697" lon="-21.67856979"><ele>40.0</ele><time>2012-07-18T13:53:05.0000000+00:00</time></trkpt><trkpt lat="64.17060852" lon="-21.67843247"><ele>40.6</ele><time>2012-07-18T13:53:10.0000000+00:00</time></trkpt><trkpt lat="64.1707077" lon="-21.67828369"><ele>41.6</ele><time>2012-07-18T13:53:15.0000000+00:00</time></trkpt><trkpt lat="64.170784" lon="-21.67817497"><ele>42.0</ele><time>2012-07-18T13:53:20.0000000+00:00</time></trkpt><trkpt lat="64.17089081" lon="-21.67806625"><ele>42.1</ele><time>2012-07-18T13:53:25.0000000+00:00</time></trkpt><trkpt lat="64.17101288" lon="-21.67790794"><ele>42.3</ele><time>2012-07-18T13:53:30.0000000+00:00</time></trkpt><trkpt lat="64.17110443" lon="-21.67776489"><ele>42.6</ele><time>2012-07-18T13:53:35.0000000+00:00</time></trkpt><trkpt lat="64.1711731" lon="-21.67764664"><ele>42.4</ele><time>2012-07-18T13:53:40.0000000+00:00</time></trkpt><trkpt lat="64.17127228" lon="-21.6775322"><ele>44.3</ele><time>2012-07-18T13:53:45.0000000+00:00</time></trkpt><trkpt lat="64.17134857" lon="-21.67742157"><ele>46.5</ele><time>2012-07-18T13:53:50.0000000+00:00</time></trkpt><trkpt lat="64.17144013" lon="-21.67730331"><ele>48.6</ele><time>2012-07-18T13:53:55.0000000+00:00</time></trkpt><trkpt lat="64.17153931" lon="-21.67714691"><ele>49.1</ele><time>2012-07-18T13:54:00.0000000+00:00</time></trkpt><trkpt lat="64.17164612" lon="-21.67699623"><ele>46.8</ele><time>2012-07-18T13:54:05.0000000+00:00</time></trkpt><trkpt lat="64.1717453" lon="-21.67686653"><ele>46.2</ele><time>2012-07-18T13:54:10.0000000+00:00</time></trkpt><trkpt lat="64.17182922" lon="-21.67681122"><ele>46.4</ele><time>2012-07-18T13:54:15.0000000+00:00</time></trkpt><trkpt lat="64.17195892" lon="-21.67670441"><ele>47.8</ele><time>2012-07-18T13:54:20.0000000+00:00</time></trkpt><trkpt lat="64.17209625" lon="-21.67659378"><ele>48.3</ele><time>2012-07-18T13:54:25.0000000+00:00</time></trkpt><trkpt lat="64.17221832" lon="-21.67650986"><ele>48.7</ele><time>2012-07-18T13:54:30.0000000+00:00</time></trkpt><trkpt lat="64.17233276" lon="-21.67646027"><ele>50.3</ele><time>2012-07-18T13:54:35.0000000+00:00</time></trkpt><trkpt lat="64.17246246" lon="-21.67637444"><ele>50.7</ele><time>2012-07-18T13:54:40.0000000+00:00</time></trkpt><trkpt lat="64.17260742" lon="-21.67628288"><ele>49.2</ele><time>2012-07-18T13:54:45.0000000+00:00</time></trkpt><trkpt lat="64.17276001" lon="-21.67617416"><ele>49.0</ele><time>2012-07-18T13:54:50.0000000+00:00</time></trkpt><trkpt lat="64.1729126" lon="-21.67607307"><ele>47.5</ele><time>2012-07-18T13:54:55.0000000+00:00</time></trkpt><trkpt lat="64.17304993" lon="-21.67605019"><ele>50.0</ele><time>2012-07-18T13:55:00.0000000+00:00</time></trkpt><trkpt lat="64.17320252" lon="-21.67602158"><ele>53.0</ele><time>2012-07-18T13:55:05.0000000+00:00</time></trkpt><trkpt lat="64.17337799" lon="-21.67597771"><ele>54.7</ele><time>2012-07-18T13:55:10.0000000+00:00</time></trkpt><trkpt lat="64.17351532" lon="-21.67593193"><ele>51.8</ele><time>2012-07-18T13:55:15.0000000+00:00</time></trkpt><trkpt lat="64.17367554" lon="-21.67590141"><ele>51.8</ele><time>2012-07-18T13:55:20.0000000+00:00</time></trkpt><trkpt lat="64.17384338" lon="-21.67588043"><ele>51.3</ele><time>2012-07-18T13:55:25.0000000+00:00</time></trkpt><trkpt lat="64.17399597" lon="-21.67585564"><ele>50.4</ele><time>2012-07-18T13:55:30.0000000+00:00</time></trkpt><trkpt lat="64.17412567" lon="-21.67585373"><ele>50.1</ele><time>2012-07-18T13:55:35.0000000+00:00</time></trkpt><trkpt lat="64.17425537" lon="-21.67585182"><ele>50.5</ele><time>2012-07-18T13:55:40.0000000+00:00</time></trkpt><trkpt lat="64.17438507" lon="-21.67588425"><ele>50.4</ele><time>2012-07-18T13:55:45.0000000+00:00</time></trkpt><trkpt lat="64.17450714" lon="-21.67590332"><ele>50.5</ele><time>2012-07-18T13:55:50.0000000+00:00</time></trkpt><trkpt lat="64.17462158" lon="-21.67591858"><ele>50.8</ele><time>2012-07-18T13:55:55.0000000+00:00</time></trkpt><trkpt lat="64.17472839" lon="-21.67591476"><ele>51.5</ele><time>2012-07-18T13:56:00.0000000+00:00</time></trkpt><trkpt lat="64.17482758" lon="-21.67593193"><ele>50.5</ele><time>2012-07-18T13:56:05.0000000+00:00</time></trkpt><trkpt lat="64.17495728" lon="-21.67595863"><ele>50.0</ele><time>2012-07-18T13:56:10.0000000+00:00</time></trkpt><trkpt lat="64.1750946" lon="-21.67596436"><ele>49.7</ele><time>2012-07-18T13:56:15.0000000+00:00</time></trkpt><trkpt lat="64.17523193" lon="-21.67593002"><ele>48.3</ele><time>2012-07-18T13:56:20.0000000+00:00</time></trkpt><trkpt lat="64.17539978" lon="-21.67583847"><ele>49.4</ele><time>2012-07-18T13:56:25.0000000+00:00</time></trkpt><trkpt lat="64.17556763" lon="-21.67573738"><ele>50.9</ele><time>2012-07-18T13:56:30.0000000+00:00</time></trkpt><trkpt lat="64.17573547" lon="-21.67564583"><ele>50.2</ele><time>2012-07-18T13:56:35.0000000+00:00</time></trkpt><trkpt lat="64.17590332" lon="-21.67556381"><ele>49.9</ele><time>2012-07-18T13:56:40.0000000+00:00</time></trkpt><trkpt lat="64.17606354" lon="-21.67547035"><ele>52.6</ele><time>2012-07-18T13:56:45.0000000+00:00</time></trkpt><trkpt lat="64.17616272" lon="-21.67531586"><ele>53.8</ele><time>2012-07-18T13:56:50.0000000+00:00</time></trkpt><trkpt lat="64.1762085" lon="-21.67518234"><ele>53.5</ele><time>2012-07-18T13:56:55.0000000+00:00</time></trkpt><trkpt lat="64.1762085" lon="-21.6751709"><ele>53.4</ele><time>2012-07-18T13:57:00.0000000+00:00</time></trkpt><trkpt lat="64.1762085" lon="-21.6751709"><ele>53.4</ele><time>2012-07-18T13:57:05.0000000+00:00</time></trkpt><trkpt lat="64.1762085" lon="-21.6751709"><ele>53.5</ele><time>2012-07-18T13:57:10.0000000+00:00</time></trkpt><trkpt lat="64.1762085" lon="-21.67517853"><ele>53.4</ele><time>2012-07-18T13:57:15.0000000+00:00</time></trkpt><trkpt lat="64.17621613" lon="-21.67518997"><ele>53.4</ele><time>2012-07-18T13:57:20.0000000+00:00</time></trkpt><trkpt lat="64.17621613" lon="-21.67519569"><ele>52.9</ele><time>2012-07-18T13:57:25.0000000+00:00</time></trkpt><trkpt lat="64.1762085" lon="-21.67519188"><ele>52.8</ele><time>2012-07-18T13:57:30.0000000+00:00</time></trkpt><trkpt lat="64.1762085" lon="-21.67519951"><ele>52.6</ele><time>2012-07-18T13:57:35.0000000+00:00</time></trkpt><trkpt lat="64.1762085" lon="-21.67519951"><ele>52.4</ele><time>2012-07-18T13:57:40.0000000+00:00</time></trkpt><trkpt lat="64.17621613" lon="-21.67518425"><ele>52.6</ele><time>2012-07-18T13:57:45.0000000+00:00</time></trkpt><trkpt lat="64.1762085" lon="-21.67518997"><ele>52.1</ele><time>2012-07-18T13:57:50.0000000+00:00</time></trkpt><trkpt lat="64.1762085" lon="-21.67519188"><ele>52.5</ele><time>2012-07-18T13:57:55.0000000+00:00</time></trkpt><trkpt lat="64.1762085" lon="-21.67519188"><ele>52.5</ele><time>2012-07-18T13:58:00.0000000+00:00</time></trkpt><trkpt lat="64.1762085" lon="-21.67519188"><ele>52.5</ele><time>2012-07-18T13:58:05.0000000+00:00</time></trkpt><trkpt lat="64.1762085" lon="-21.67519188"><ele>52.5</ele><time>2012-07-18T13:58:10.0000000+00:00</time></trkpt><trkpt lat="64.1762085" lon="-21.67519188"><ele>52.4</ele><time>2012-07-18T13:58:15.0000000+00:00</time></trkpt><trkpt lat="64.1762085" lon="-21.67519188"><ele>52.4</ele><time>2012-07-18T13:58:20.0000000+00:00</time></trkpt><trkpt lat="64.1762085" lon="-21.67519188"><ele>52.4</ele><time>2012-07-18T13:58:25.0000000+00:00</time></trkpt><trkpt lat="64.1762085" lon="-21.67519188"><ele>52.4</ele><time>2012-07-18T13:58:30.0000000+00:00</time></trkpt><trkpt lat="64.1762085" lon="-21.67519188"><ele>52.4</ele><time>2012-07-18T13:58:35.0000000+00:00</time></trkpt><trkpt lat="64.1762085" lon="-21.67519188"><ele>52.4</ele><time>2012-07-18T13:58:40.0000000+00:00</time></trkpt><trkpt lat="64.1762085" lon="-21.67519188"><ele>52.4</ele><time>2012-07-18T13:58:45.0000000+00:00</time></trkpt><trkpt lat="64.1762085" lon="-21.67519188"><ele>52.4</ele><time>2012-07-18T13:58:50.0000000+00:00</time></trkpt><trkpt lat="64.1762085" lon="-21.67519188"><ele>52.4</ele><time>2012-07-18T13:58:55.0000000+00:00</time></trkpt><trkpt lat="64.1762085" lon="-21.67519188"><ele>52.3</ele><time>2012-07-18T13:59:00.0000000+00:00</time></trkpt><trkpt lat="64.1762085" lon="-21.67519188"><ele>52.3</ele><time>2012-07-18T13:59:05.0000000+00:00</time></trkpt><trkpt lat="64.1762085" lon="-21.67519188"><ele>52.3</ele><time>2012-07-18T13:59:10.0000000+00:00</time></trkpt><trkpt lat="64.1762085" lon="-21.67519188"><ele>52.3</ele><time>2012-07-18T13:59:15.0000000+00:00</time></trkpt><trkpt lat="64.1762085" lon="-21.67519188"><ele>52.3</ele><time>2012-07-18T13:59:20.0000000+00:00</time></trkpt><trkpt lat="64.1762085" lon="-21.67519188"><ele>52.3</ele><time>2012-07-18T13:59:25.0000000+00:00</time></trkpt><trkpt lat="64.1762085" lon="-21.67519188"><ele>52.3</ele><time>2012-07-18T13:59:30.0000000+00:00</time></trkpt><trkpt lat="64.1762085" lon="-21.67518997"><ele>52.3</ele><time>2012-07-18T13:59:35.0000000+00:00</time></trkpt><trkpt lat="64.17627716" lon="-21.67508316"><ele>52.7</ele><time>2012-07-18T13:59:40.0000000+00:00</time></trkpt><trkpt lat="64.17636108" lon="-21.6749363"><ele>52.3</ele><time>2012-07-18T13:59:45.0000000+00:00</time></trkpt><trkpt lat="64.1764679" lon="-21.67476463"><ele>52.1</ele><time>2012-07-18T13:59:50.0000000+00:00</time></trkpt><trkpt lat="64.17658997" lon="-21.67459297"><ele>52.6</ele><time>2012-07-18T13:59:55.0000000+00:00</time></trkpt><trkpt lat="64.17669678" lon="-21.67445374"><ele>52.2</ele><time>2012-07-18T14:00:00.0000000+00:00</time></trkpt><trkpt lat="64.17682648" lon="-21.67429352"><ele>52.7</ele><time>2012-07-18T14:00:05.0000000+00:00</time></trkpt><trkpt lat="64.17696381" lon="-21.67411041"><ele>53.1</ele><time>2012-07-18T14:00:10.0000000+00:00</time></trkpt><trkpt lat="64.17708588" lon="-21.67396164"><ele>53.3</ele><time>2012-07-18T14:00:15.0000000+00:00</time></trkpt><trkpt lat="64.17718506" lon="-21.67385674"><ele>52.2</ele><time>2012-07-18T14:00:20.0000000+00:00</time></trkpt><trkpt lat="64.17729187" lon="-21.67369461"><ele>50.4</ele><time>2012-07-18T14:00:25.0000000+00:00</time></trkpt><trkpt lat="64.17739868" lon="-21.6735611"><ele>50.3</ele><time>2012-07-18T14:00:30.0000000+00:00</time></trkpt><trkpt lat="64.17745972" lon="-21.67349815"><ele>51.7</ele><time>2012-07-18T14:00:35.0000000+00:00</time></trkpt><trkpt lat="64.17753601" lon="-21.67337418"><ele>52.2</ele><time>2012-07-18T14:00:40.0000000+00:00</time></trkpt><trkpt lat="64.17760468" lon="-21.67321777"><ele>53.2</ele><time>2012-07-18T14:00:45.0000000+00:00</time></trkpt><trkpt lat="64.17768097" lon="-21.67301559"><ele>53.6</ele><time>2012-07-18T14:00:50.0000000+00:00</time></trkpt><trkpt lat="64.177742" lon="-21.67281723"><ele>55.6</ele><time>2012-07-18T14:00:55.0000000+00:00</time></trkpt><trkpt lat="64.17780304" lon="-21.67258835"><ele>55.3</ele><time>2012-07-18T14:01:00.0000000+00:00</time></trkpt><trkpt lat="64.17787933" lon="-21.67235375"><ele>55.7</ele><time>2012-07-18T14:01:05.0000000+00:00</time></trkpt><trkpt lat="64.17795563" lon="-21.67211533"><ele>56.2</ele><time>2012-07-18T14:01:10.0000000+00:00</time></trkpt><trkpt lat="64.17803192" lon="-21.67182732"><ele>57.9</ele><time>2012-07-18T14:01:15.0000000+00:00</time></trkpt><trkpt lat="64.17810059" lon="-21.67146492"><ele>56.9</ele><time>2012-07-18T14:01:20.0000000+00:00</time></trkpt><trkpt lat="64.17811585" lon="-21.67115784"><ele>57.9</ele><time>2012-07-18T14:01:25.0000000+00:00</time></trkpt><trkpt lat="64.17813873" lon="-21.67080689"><ele>57.8</ele><time>2012-07-18T14:01:30.0000000+00:00</time></trkpt><trkpt lat="64.17813873" lon="-21.67049789"><ele>56.2</ele><time>2012-07-18T14:01:35.0000000+00:00</time></trkpt><trkpt lat="64.17814636" lon="-21.67028046"><ele>55.1</ele><time>2012-07-18T14:01:40.0000000+00:00</time></trkpt><trkpt lat="64.17814636" lon="-21.66997337"><ele>54.9</ele><time>2012-07-18T14:01:45.0000000+00:00</time></trkpt><trkpt lat="64.17816162" lon="-21.66960335"><ele>56.0</ele><time>2012-07-18T14:01:50.0000000+00:00</time></trkpt><trkpt lat="64.17817688" lon="-21.66937065"><ele>56.4</ele><time>2012-07-18T14:01:55.0000000+00:00</time></trkpt><trkpt lat="64.17819977" lon="-21.66911888"><ele>56.0</ele><time>2012-07-18T14:02:00.0000000+00:00</time></trkpt><trkpt lat="64.17823029" lon="-21.66897011"><ele>58.2</ele><time>2012-07-18T14:02:05.0000000+00:00</time></trkpt><trkpt lat="64.17825317" lon="-21.66877556"><ele>57.5</ele><time>2012-07-18T14:02:10.0000000+00:00</time></trkpt><trkpt lat="64.17826843" lon="-21.66871834"><ele>57.7</ele><time>2012-07-18T14:02:15.0000000+00:00</time></trkpt><trkpt lat="64.17826843" lon="-21.66871834"><ele>57.8</ele><time>2012-07-18T14:02:20.0000000+00:00</time></trkpt><trkpt lat="64.1782608" lon="-21.66867256"><ele>58.7</ele><time>2012-07-18T14:02:25.0000000+00:00</time></trkpt><trkpt lat="64.1782608" lon="-21.66866684"><ele>59.2</ele><time>2012-07-18T14:02:30.0000000+00:00</time></trkpt><trkpt lat="64.1782608" lon="-21.66866684"><ele>59.2</ele><time>2012-07-18T14:02:35.0000000+00:00</time></trkpt><trkpt lat="64.1782608" lon="-21.66866875"><ele>59.2</ele><time>2012-07-18T14:02:40.0000000+00:00</time></trkpt><trkpt lat="64.1782608" lon="-21.66866875"><ele>59.3</ele><time>2012-07-18T14:02:45.0000000+00:00</time></trkpt><trkpt lat="64.1782608" lon="-21.66866303"><ele>59.5</ele><time>2012-07-18T14:02:50.0000000+00:00</time></trkpt><trkpt lat="64.17825317" lon="-21.6686306"><ele>60.2</ele><time>2012-07-18T14:02:55.0000000+00:00</time></trkpt><trkpt lat="64.17826843" lon="-21.66859245"><ele>60.7</ele><time>2012-07-18T14:03:00.0000000+00:00</time></trkpt><trkpt lat="64.17826843" lon="-21.66859436"><ele>60.9</ele><time>2012-07-18T14:03:05.0000000+00:00</time></trkpt><trkpt lat="64.17826843" lon="-21.66859627"><ele>60.9</ele><time>2012-07-18T14:03:10.0000000+00:00</time></trkpt><trkpt lat="64.17829895" lon="-21.66858292"><ele>60.7</ele><time>2012-07-18T14:03:15.0000000+00:00</time></trkpt><trkpt lat="64.17828369" lon="-21.66872406"><ele>59.9</ele><time>2012-07-18T14:03:20.0000000+00:00</time></trkpt><trkpt lat="64.17821503" lon="-21.66895294"><ele>59.1</ele><time>2012-07-18T14:03:25.0000000+00:00</time></trkpt><trkpt lat="64.17812347" lon="-21.66903877"><ele>59.6</ele><time>2012-07-18T14:03:30.0000000+00:00</time></trkpt><trkpt lat="64.17801666" lon="-21.66905975"><ele>59.9</ele><time>2012-07-18T14:03:35.0000000+00:00</time></trkpt><trkpt lat="64.177948" lon="-21.66910744"><ele>61.2</ele><time>2012-07-18T14:03:40.0000000+00:00</time></trkpt><trkpt lat="64.17788696" lon="-21.66910553"><ele>61.9</ele><time>2012-07-18T14:03:45.0000000+00:00</time></trkpt><trkpt lat="64.17783356" lon="-21.66909409"><ele>63.2</ele><time>2012-07-18T14:03:50.0000000+00:00</time></trkpt><trkpt lat="64.17777252" lon="-21.66909599"><ele>63.3</ele><time>2012-07-18T14:03:55.0000000+00:00</time></trkpt><trkpt lat="64.17773438" lon="-21.66912079"><ele>63.4</ele><time>2012-07-18T14:04:00.0000000+00:00</time></trkpt><trkpt lat="64.17769623" lon="-21.6691494"><ele>64.1</ele><time>2012-07-18T14:04:05.0000000+00:00</time></trkpt><trkpt lat="64.17764282" lon="-21.66909218"><ele>65.2</ele><time>2012-07-18T14:04:10.0000000+00:00</time></trkpt><trkpt lat="64.17757416" lon="-21.66912079"><ele>65.8</ele><time>2012-07-18T14:04:15.0000000+00:00</time></trkpt><trkpt lat="64.17749786" lon="-21.66910934"><ele>67.2</ele><time>2012-07-18T14:04:20.0000000+00:00</time></trkpt><trkpt lat="64.17742157" lon="-21.66911316"><ele>68.0</ele><time>2012-07-18T14:04:25.0000000+00:00</time></trkpt><trkpt lat="64.17733765" lon="-21.66910553"><ele>69.0</ele><time>2012-07-18T14:04:30.0000000+00:00</time></trkpt><trkpt lat="64.17727661" lon="-21.66910362"><ele>69.9</ele><time>2012-07-18T14:04:35.0000000+00:00</time></trkpt><trkpt lat="64.17722321" lon="-21.66909027"><ele>70.6</ele><time>2012-07-18T14:04:40.0000000+00:00</time></trkpt><trkpt lat="64.17714691" lon="-21.66908836"><ele>71.0</ele><time>2012-07-18T14:04:45.0000000+00:00</time></trkpt><trkpt lat="64.17710114" lon="-21.66905975"><ele>71.1</ele><time>2012-07-18T14:04:50.0000000+00:00</time></trkpt><trkpt lat="64.17705536" lon="-21.6690197"><ele>70.8</ele><time>2012-07-18T14:04:55.0000000+00:00</time></trkpt><trkpt lat="64.17697144" lon="-21.66896629"><ele>71.2</ele><time>2012-07-18T14:05:00.0000000+00:00</time></trkpt><trkpt lat="64.17688751" lon="-21.66887665"><ele>71.7</ele><time>2012-07-18T14:05:05.0000000+00:00</time></trkpt><trkpt lat="64.17681122" lon="-21.66880226"><ele>72.1</ele><time>2012-07-18T14:05:10.0000000+00:00</time></trkpt><trkpt lat="64.17671967" lon="-21.66869927"><ele>71.7</ele><time>2012-07-18T14:05:15.0000000+00:00</time></trkpt><trkpt lat="64.17663574" lon="-21.66858864"><ele>71.6</ele><time>2012-07-18T14:05:20.0000000+00:00</time></trkpt><trkpt lat="64.17655182" lon="-21.66847801"><ele>72.8</ele><time>2012-07-18T14:05:25.0000000+00:00</time></trkpt><trkpt lat="64.1764679" lon="-21.6683979"><ele>74.3</ele><time>2012-07-18T14:05:30.0000000+00:00</time></trkpt><trkpt lat="64.1763916" lon="-21.66829872"><ele>74.4</ele><time>2012-07-18T14:05:35.0000000+00:00</time></trkpt><trkpt lat="64.17631531" lon="-21.66821671"><ele>75.6</ele><time>2012-07-18T14:05:40.0000000+00:00</time></trkpt><trkpt lat="64.17624664" lon="-21.66812325"><ele>77.7</ele><time>2012-07-18T14:05:45.0000000+00:00</time></trkpt><trkpt lat="64.17618561" lon="-21.66802597"><ele>80.0</ele><time>2012-07-18T14:05:50.0000000+00:00</time></trkpt><trkpt lat="64.17610931" lon="-21.66793633"><ele>81.1</ele><time>2012-07-18T14:05:55.0000000+00:00</time></trkpt><trkpt lat="64.17604065" lon="-21.66784859"><ele>82.6</ele><time>2012-07-18T14:06:00.0000000+00:00</time></trkpt><trkpt lat="64.17597199" lon="-21.66775131"><ele>84.2</ele><time>2012-07-18T14:06:05.0000000+00:00</time></trkpt><trkpt lat="64.17591095" lon="-21.66771507"><ele>85.3</ele><time>2012-07-18T14:06:10.0000000+00:00</time></trkpt><trkpt lat="64.17585754" lon="-21.6676712"><ele>85.5</ele><time>2012-07-18T14:06:15.0000000+00:00</time></trkpt><trkpt lat="64.17579651" lon="-21.66764069"><ele>86.6</ele><time>2012-07-18T14:06:20.0000000+00:00</time></trkpt><trkpt lat="64.17575073" lon="-21.66761208"><ele>86.6</ele><time>2012-07-18T14:06:25.0000000+00:00</time></trkpt><trkpt lat="64.17572784" lon="-21.66757202"><ele>87.0</ele><time>2012-07-18T14:06:30.0000000+00:00</time></trkpt><trkpt lat="64.17572784" lon="-21.66757584"><ele>86.9</ele><time>2012-07-18T14:06:35.0000000+00:00</time></trkpt><trkpt lat="64.17572784" lon="-21.66757774"><ele>86.9</ele><time>2012-07-18T14:06:40.0000000+00:00</time></trkpt><trkpt lat="64.17572784" lon="-21.66757774"><ele>86.9</ele><time>2012-07-18T14:06:45.0000000+00:00</time></trkpt><trkpt lat="64.17572784" lon="-21.66757774"><ele>86.9</ele><time>2012-07-18T14:06:50.0000000+00:00</time></trkpt><trkpt lat="64.17572784" lon="-21.66757774"><ele>86.9</ele><time>2012-07-18T14:06:55.0000000+00:00</time></trkpt><trkpt lat="64.17572784" lon="-21.66757774"><ele>86.9</ele><time>2012-07-18T14:07:00.0000000+00:00</time></trkpt><trkpt lat="64.17572784" lon="-21.66757774"><ele>86.9</ele><time>2012-07-18T14:07:05.0000000+00:00</time></trkpt><trkpt lat="64.17571259" lon="-21.66750717"><ele>87.4</ele><time>2012-07-18T14:07:10.0000000+00:00</time></trkpt><trkpt lat="64.17572022" lon="-21.66730881"><ele>86.7</ele><time>2012-07-18T14:07:15.0000000+00:00</time></trkpt><trkpt lat="64.17576599" lon="-21.66710663"><ele>89.3</ele><time>2012-07-18T14:07:20.0000000+00:00</time></trkpt><trkpt lat="64.1758194" lon="-21.66688919"><ele>89.2</ele><time>2012-07-18T14:07:25.0000000+00:00</time></trkpt><trkpt lat="64.1758728" lon="-21.66667748"><ele>89.7</ele><time>2012-07-18T14:07:30.0000000+00:00</time></trkpt><trkpt lat="64.17591095" lon="-21.66657829"><ele>89.0</ele><time>2012-07-18T14:07:35.0000000+00:00</time></trkpt><trkpt lat="64.17591095" lon="-21.66658974"><ele>88.3</ele><time>2012-07-18T14:07:40.0000000+00:00</time></trkpt><trkpt lat="64.17590332" lon="-21.66659737"><ele>88.0</ele><time>2012-07-18T14:07:45.0000000+00:00</time></trkpt><trkpt lat="64.17590332" lon="-21.66660118"><ele>87.3</ele><time>2012-07-18T14:07:50.0000000+00:00</time></trkpt><trkpt lat="64.17588043" lon="-21.66667748"><ele>85.9</ele><time>2012-07-18T14:07:55.0000000+00:00</time></trkpt><trkpt lat="64.17583466" lon="-21.66688538"><ele>84.2</ele><time>2012-07-18T14:08:00.0000000+00:00</time></trkpt><trkpt lat="64.17579651" lon="-21.66706848"><ele>84.1</ele><time>2012-07-18T14:08:05.0000000+00:00</time></trkpt><trkpt lat="64.17575836" lon="-21.66726685"><ele>83.3</ele><time>2012-07-18T14:08:10.0000000+00:00</time></trkpt><trkpt lat="64.1756897" lon="-21.66747856"><ele>82.6</ele><time>2012-07-18T14:08:15.0000000+00:00</time></trkpt><trkpt lat="64.17559052" lon="-21.66761208"><ele>81.4</ele><time>2012-07-18T14:08:20.0000000+00:00</time></trkpt><trkpt lat="64.17546082" lon="-21.667696"><ele>80.0</ele><time>2012-07-18T14:08:25.0000000+00:00</time></trkpt><trkpt lat="64.17533112" lon="-21.66779518"><ele>80.2</ele><time>2012-07-18T14:08:30.0000000+00:00</time></trkpt><trkpt lat="64.17520142" lon="-21.66788292"><ele>81.3</ele><time>2012-07-18T14:08:35.0000000+00:00</time></trkpt><trkpt lat="64.17505646" lon="-21.66797257"><ele>82.4</ele><time>2012-07-18T14:08:40.0000000+00:00</time></trkpt><trkpt lat="64.17494202" lon="-21.66807938"><ele>82.2</ele><time>2012-07-18T14:08:45.0000000+00:00</time></trkpt><trkpt lat="64.17479706" lon="-21.66816139"><ele>79.4</ele><time>2012-07-18T14:08:50.0000000+00:00</time></trkpt><trkpt lat="64.17456818" lon="-21.66833115"><ele>77.5</ele><time>2012-07-18T14:08:55.0000000+00:00</time></trkpt><trkpt lat="64.17427826" lon="-21.6685791"><ele>75.5</ele><time>2012-07-18T14:09:00.0000000+00:00</time></trkpt><trkpt lat="64.1740036" lon="-21.66884232"><ele>73.9</ele><time>2012-07-18T14:09:05.0000000+00:00</time></trkpt><trkpt lat="64.17377472" lon="-21.66901588"><ele>75.5</ele><time>2012-07-18T14:09:10.0000000+00:00</time></trkpt><trkpt lat="64.17360687" lon="-21.66922951"><ele>75.4</ele><time>2012-07-18T14:09:15.0000000+00:00</time></trkpt><trkpt lat="64.17345429" lon="-21.66951942"><ele>75.6</ele><time>2012-07-18T14:09:20.0000000+00:00</time></trkpt><trkpt lat="64.1733017" lon="-21.66986847"><ele>73.4</ele><time>2012-07-18T14:09:25.0000000+00:00</time></trkpt><trkpt lat="64.17316437" lon="-21.67025757"><ele>72.3</ele><time>2012-07-18T14:09:30.0000000+00:00</time></trkpt><trkpt lat="64.17301178" lon="-21.67063522"><ele>70.9</ele><time>2012-07-18T14:09:35.0000000+00:00</time></trkpt><trkpt lat="64.17286682" lon="-21.67090607"><ele>68.2</ele><time>2012-07-18T14:09:40.0000000+00:00</time></trkpt><trkpt lat="64.1727066" lon="-21.67116737"><ele>67.7</ele><time>2012-07-18T14:09:45.0000000+00:00</time></trkpt><trkpt lat="64.17255402" lon="-21.6713047"><ele>66.7</ele><time>2012-07-18T14:09:50.0000000+00:00</time></trkpt><trkpt lat="64.17240143" lon="-21.67141533"><ele>66.1</ele><time>2012-07-18T14:09:55.0000000+00:00</time></trkpt><trkpt lat="64.17229462" lon="-21.67150307"><ele>67.4</ele><time>2012-07-18T14:10:00.0000000+00:00</time></trkpt><trkpt lat="64.17218018" lon="-21.6715889"><ele>68.6</ele><time>2012-07-18T14:10:05.0000000+00:00</time></trkpt><trkpt lat="64.17205048" lon="-21.67170143"><ele>69.4</ele><time>2012-07-18T14:10:10.0000000+00:00</time></trkpt><trkpt lat="64.17192841" lon="-21.67179298"><ele>69.6</ele><time>2012-07-18T14:10:15.0000000+00:00</time></trkpt><trkpt lat="64.17178345" lon="-21.67189789"><ele>68.8</ele><time>2012-07-18T14:10:20.0000000+00:00</time></trkpt><trkpt lat="64.17153931" lon="-21.67207527"><ele>66.9</ele><time>2012-07-18T14:10:25.0000000+00:00</time></trkpt><trkpt lat="64.1713028" lon="-21.67221451"><ele>65.2</ele><time>2012-07-18T14:10:30.0000000+00:00</time></trkpt><trkpt lat="64.1711731" lon="-21.67205238"><ele>64.4</ele><time>2012-07-18T14:10:35.0000000+00:00</time></trkpt><trkpt lat="64.17113495" lon="-21.67174149"><ele>65.2</ele><time>2012-07-18T14:10:40.0000000+00:00</time></trkpt><trkpt lat="64.1710968" lon="-21.67147827"><ele>64.8</ele><time>2012-07-18T14:10:45.0000000+00:00</time></trkpt><trkpt lat="64.17107391" lon="-21.67118073"><ele>65.7</ele><time>2012-07-18T14:10:50.0000000+00:00</time></trkpt><trkpt lat="64.1710434" lon="-21.67085075"><ele>65.1</ele><time>2012-07-18T14:10:55.0000000+00:00</time></trkpt><trkpt lat="64.17100525" lon="-21.67056084"><ele>64.0</ele><time>2012-07-18T14:11:00.0000000+00:00</time></trkpt><trkpt lat="64.17098236" lon="-21.67032814"><ele>64.8</ele><time>2012-07-18T14:11:05.0000000+00:00</time></trkpt><trkpt lat="64.17095184" lon="-21.67008972"><ele>64.7</ele><time>2012-07-18T14:11:10.0000000+00:00</time></trkpt><trkpt lat="64.17092896" lon="-21.66991043"><ele>66.5</ele><time>2012-07-18T14:11:15.0000000+00:00</time></trkpt><trkpt lat="64.17090607" lon="-21.66974449"><ele>69.0</ele><time>2012-07-18T14:11:20.0000000+00:00</time></trkpt><trkpt lat="64.17087555" lon="-21.66954422"><ele>70.8</ele><time>2012-07-18T14:11:25.0000000+00:00</time></trkpt><trkpt lat="64.17084503" lon="-21.66938973"><ele>70.5</ele><time>2012-07-18T14:11:30.0000000+00:00</time></trkpt><trkpt lat="64.17081451" lon="-21.6692009"><ele>69.9</ele><time>2012-07-18T14:11:35.0000000+00:00</time></trkpt><trkpt lat="64.17077637" lon="-21.66897774"><ele>69.0</ele><time>2012-07-18T14:11:40.0000000+00:00</time></trkpt><trkpt lat="64.17074585" lon="-21.66875458"><ele>69.9</ele><time>2012-07-18T14:11:45.0000000+00:00</time></trkpt><trkpt lat="64.17068481" lon="-21.6683979"><ele>70.3</ele><time>2012-07-18T14:11:50.0000000+00:00</time></trkpt><trkpt lat="64.17063141" lon="-21.66809464"><ele>71.2</ele><time>2012-07-18T14:11:55.0000000+00:00</time></trkpt><trkpt lat="64.17055512" lon="-21.66777039"><ele>71.7</ele><time>2012-07-18T14:12:00.0000000+00:00</time></trkpt><trkpt lat="64.17050934" lon="-21.66744995"><ele>70.8</ele><time>2012-07-18T14:12:05.0000000+00:00</time></trkpt><trkpt lat="64.17044067" lon="-21.66710281"><ele>73.0</ele><time>2012-07-18T14:12:10.0000000+00:00</time></trkpt><trkpt lat="64.17041016" lon="-21.66670227"><ele>75.4</ele><time>2012-07-18T14:12:15.0000000+00:00</time></trkpt><trkpt lat="64.17041779" lon="-21.66641998"><ele>79.2</ele><time>2012-07-18T14:12:20.0000000+00:00</time></trkpt><trkpt lat="64.17044067" lon="-21.66611862"><ele>78.0</ele><time>2012-07-18T14:12:25.0000000+00:00</time></trkpt><trkpt lat="64.1704483" lon="-21.66588974"><ele>78.5</ele><time>2012-07-18T14:12:30.0000000+00:00</time></trkpt><trkpt lat="64.17041016" lon="-21.66568756"><ele>81.8</ele><time>2012-07-18T14:12:35.0000000+00:00</time></trkpt><trkpt lat="64.17036438" lon="-21.66546631"><ele>82.4</ele><time>2012-07-18T14:12:40.0000000+00:00</time></trkpt><trkpt lat="64.17032623" lon="-21.66522026"><ele>82.0</ele><time>2012-07-18T14:12:45.0000000+00:00</time></trkpt><trkpt lat="64.17033386" lon="-21.66494751"><ele>83.1</ele><time>2012-07-18T14:12:50.0000000+00:00</time></trkpt><trkpt lat="64.17030335" lon="-21.66466904"><ele>82.5</ele><time>2012-07-18T14:12:55.0000000+00:00</time></trkpt><trkpt lat="64.17027283" lon="-21.66436768"><ele>79.1</ele><time>2012-07-18T14:13:00.0000000+00:00</time></trkpt><trkpt lat="64.17023468" lon="-21.66409493"><ele>76.3</ele><time>2012-07-18T14:13:05.0000000+00:00</time></trkpt><trkpt lat="64.17018127" lon="-21.66378021"><ele>74.1</ele><time>2012-07-18T14:13:10.0000000+00:00</time></trkpt><trkpt lat="64.17012787" lon="-21.66348076"><ele>73.0</ele><time>2012-07-18T14:13:15.0000000+00:00</time></trkpt><trkpt lat="64.17008209" lon="-21.66324997"><ele>71.0</ele><time>2012-07-18T14:13:20.0000000+00:00</time></trkpt><trkpt lat="64.17003632" lon="-21.6629982"><ele>74.5</ele><time>2012-07-18T14:13:25.0000000+00:00</time></trkpt><trkpt lat="64.16998291" lon="-21.66274452"><ele>77.0</ele><time>2012-07-18T14:13:30.0000000+00:00</time></trkpt><trkpt lat="64.16995239" lon="-21.66256142"><ele>79.8</ele><time>2012-07-18T14:13:35.0000000+00:00</time></trkpt><trkpt lat="64.16990662" lon="-21.66228104"><ele>82.5</ele><time>2012-07-18T14:13:40.0000000+00:00</time></trkpt><trkpt lat="64.16985321" lon="-21.66199303"><ele>83.4</ele><time>2012-07-18T14:13:45.0000000+00:00</time></trkpt><trkpt lat="64.16983032" lon="-21.66179085"><ele>83.0</ele><time>2012-07-18T14:13:50.0000000+00:00</time></trkpt><trkpt lat="64.16977692" lon="-21.66155434"><ele>83.0</ele><time>2012-07-18T14:13:55.0000000+00:00</time></trkpt><trkpt lat="64.16976166" lon="-21.66124344"><ele>82.7</ele><time>2012-07-18T14:14:00.0000000+00:00</time></trkpt><trkpt lat="64.16975403" lon="-21.66092682"><ele>85.9</ele><time>2012-07-18T14:14:05.0000000+00:00</time></trkpt><trkpt lat="64.16973114" lon="-21.66064835"><ele>85.4</ele><time>2012-07-18T14:14:10.0000000+00:00</time></trkpt><trkpt lat="64.16970062" lon="-21.66039658"><ele>88.7</ele><time>2012-07-18T14:14:15.0000000+00:00</time></trkpt><trkpt lat="64.16963196" lon="-21.6601696"><ele>89.3</ele><time>2012-07-18T14:14:20.0000000+00:00</time></trkpt><trkpt lat="64.16958618" lon="-21.65991592"><ele>89.8</ele><time>2012-07-18T14:14:25.0000000+00:00</time></trkpt><trkpt lat="64.16956329" lon="-21.65974236"><ele>89.6</ele><time>2012-07-18T14:14:30.0000000+00:00</time></trkpt><trkpt lat="64.16954041" lon="-21.65960312"><ele>90.6</ele><time>2012-07-18T14:14:35.0000000+00:00</time></trkpt><trkpt lat="64.16952515" lon="-21.65940476"><ele>92.3</ele><time>2012-07-18T14:14:40.0000000+00:00</time></trkpt><trkpt lat="64.169487" lon="-21.65922928"><ele>94.5</ele><time>2012-07-18T14:14:45.0000000+00:00</time></trkpt><trkpt lat="64.16944122" lon="-21.65901947"><ele>95.7</ele><time>2012-07-18T14:14:50.0000000+00:00</time></trkpt><trkpt lat="64.16943359" lon="-21.65888786"><ele>95.8</ele><time>2012-07-18T14:14:55.0000000+00:00</time></trkpt><trkpt lat="64.16942596" lon="-21.65871811"><ele>94.8</ele><time>2012-07-18T14:15:00.0000000+00:00</time></trkpt><trkpt lat="64.16938019" lon="-21.65851402"><ele>94.8</ele><time>2012-07-18T14:15:05.0000000+00:00</time></trkpt><trkpt lat="64.16936493" lon="-21.65829086"><ele>96.1</ele><time>2012-07-18T14:15:10.0000000+00:00</time></trkpt><trkpt lat="64.16931915" lon="-21.65802574"><ele>97.0</ele><time>2012-07-18T14:15:15.0000000+00:00</time></trkpt><trkpt lat="64.16928864" lon="-21.65776253"><ele>97.9</ele><time>2012-07-18T14:15:20.0000000+00:00</time></trkpt><trkpt lat="64.16925049" lon="-21.65754509"><ele>97.5</ele><time>2012-07-18T14:15:25.0000000+00:00</time></trkpt><trkpt lat="64.16920471" lon="-21.65729332"><ele>96.8</ele><time>2012-07-18T14:15:30.0000000+00:00</time></trkpt><trkpt lat="64.16917419" lon="-21.65709686"><ele>95.0</ele><time>2012-07-18T14:15:35.0000000+00:00</time></trkpt><trkpt lat="64.16915131" lon="-21.65691185"><ele>93.8</ele><time>2012-07-18T14:15:40.0000000+00:00</time></trkpt><trkpt lat="64.16913605" lon="-21.65675736"><ele>96.1</ele><time>2012-07-18T14:15:45.0000000+00:00</time></trkpt><trkpt lat="64.16912079" lon="-21.65662575"><ele>97.9</ele><time>2012-07-18T14:15:50.0000000+00:00</time></trkpt><trkpt lat="64.16912079" lon="-21.65650559"><ele>100.3</ele><time>2012-07-18T14:15:55.0000000+00:00</time></trkpt><trkpt lat="64.1690979" lon="-21.6563015"><ele>100.4</ele><time>2012-07-18T14:16:00.0000000+00:00</time></trkpt><trkpt lat="64.16906738" lon="-21.65604782"><ele>99.9</ele><time>2012-07-18T14:16:05.0000000+00:00</time></trkpt><trkpt lat="64.16903687" lon="-21.65581322"><ele>101.7</ele><time>2012-07-18T14:16:10.0000000+00:00</time></trkpt><trkpt lat="64.16900635" lon="-21.6556263"><ele>103.4</ele><time>2012-07-18T14:16:15.0000000+00:00</time></trkpt><trkpt lat="64.16896057" lon="-21.65552521"><ele>103.5</ele><time>2012-07-18T14:16:20.0000000+00:00</time></trkpt><trkpt lat="64.16894531" lon="-21.65550995"><ele>103.1</ele><time>2012-07-18T14:16:25.0000000+00:00</time></trkpt><trkpt lat="64.16894531" lon="-21.65553093"><ele>102.5</ele><time>2012-07-18T14:16:30.0000000+00:00</time></trkpt><trkpt lat="64.16894531" lon="-21.65553093"><ele>102.6</ele><time>2012-07-18T14:16:35.0000000+00:00</time></trkpt><trkpt lat="64.16894531" lon="-21.65552902"><ele>102.6</ele><time>2012-07-18T14:16:40.0000000+00:00</time></trkpt><trkpt lat="64.16894531" lon="-21.65552902"><ele>102.6</ele><time>2012-07-18T14:16:45.0000000+00:00</time></trkpt><trkpt lat="64.16894531" lon="-21.65552902"><ele>102.6</ele><time>2012-07-18T14:16:50.0000000+00:00</time></trkpt><trkpt lat="64.16894531" lon="-21.65552902"><ele>102.6</ele><time>2012-07-18T14:16:55.0000000+00:00</time></trkpt><trkpt lat="64.16894531" lon="-21.65552902"><ele>102.6</ele><time>2012-07-18T14:17:00.0000000+00:00</time></trkpt><trkpt lat="64.16894531" lon="-21.65552902"><ele>102.6</ele><time>2012-07-18T14:17:05.0000000+00:00</time></trkpt><trkpt lat="64.16894531" lon="-21.65552712"><ele>102.6</ele><time>2012-07-18T14:17:10.0000000+00:00</time></trkpt><trkpt lat="64.16894531" lon="-21.65552712"><ele>102.6</ele><time>2012-07-18T14:17:15.0000000+00:00</time></trkpt><trkpt lat="64.16894531" lon="-21.65552712"><ele>102.6</ele><time>2012-07-18T14:17:20.0000000+00:00</time></trkpt><trkpt lat="64.16894531" lon="-21.65552712"><ele>102.6</ele><time>2012-07-18T14:17:25.0000000+00:00</time></trkpt><trkpt lat="64.16894531" lon="-21.65552712"><ele>102.6</ele><time>2012-07-18T14:17:30.0000000+00:00</time></trkpt><trkpt lat="64.16894531" lon="-21.65552712"><ele>102.6</ele><time>2012-07-18T14:17:35.0000000+00:00</time></trkpt><trkpt lat="64.16894531" lon="-21.65552521"><ele>102.6</ele><time>2012-07-18T14:17:40.0000000+00:00</time></trkpt><trkpt lat="64.16894531" lon="-21.65552521"><ele>102.6</ele><time>2012-07-18T14:17:45.0000000+00:00</time></trkpt><trkpt lat="64.16894531" lon="-21.65552521"><ele>102.6</ele><time>2012-07-18T14:17:50.0000000+00:00</time></trkpt><trkpt lat="64.16894531" lon="-21.65552521"><ele>102.6</ele><time>2012-07-18T14:17:55.0000000+00:00</time></trkpt><trkpt lat="64.16894531" lon="-21.65552521"><ele>102.6</ele><time>2012-07-18T14:18:00.0000000+00:00</time></trkpt><trkpt lat="64.16894531" lon="-21.65552521"><ele>102.6</ele><time>2012-07-18T14:18:05.0000000+00:00</time></trkpt><trkpt lat="64.16894531" lon="-21.65552521"><ele>102.6</ele><time>2012-07-18T14:18:10.0000000+00:00</time></trkpt><trkpt lat="64.16894531" lon="-21.65552521"><ele>102.6</ele><time>2012-07-18T14:18:15.0000000+00:00</time></trkpt><trkpt lat="64.16894531" lon="-21.65552521"><ele>102.5</ele><time>2012-07-18T14:18:20.0000000+00:00</time></trkpt><trkpt lat="64.16894531" lon="-21.65552521"><ele>102.5</ele><time>2012-07-18T14:18:25.0000000+00:00</time></trkpt><trkpt lat="64.16894531" lon="-21.65552521"><ele>102.5</ele><time>2012-07-18T14:18:30.0000000+00:00</time></trkpt><trkpt lat="64.16894531" lon="-21.65552521"><ele>102.5</ele><time>2012-07-18T14:18:35.0000000+00:00</time></trkpt><trkpt lat="64.16894531" lon="-21.65552521"><ele>102.5</ele><time>2012-07-18T14:18:40.0000000+00:00</time></trkpt><trkpt lat="64.16894531" lon="-21.65552521"><ele>102.5</ele><time>2012-07-18T14:18:45.0000000+00:00</time></trkpt><trkpt lat="64.16894531" lon="-21.65552521"><ele>102.5</ele><time>2012-07-18T14:18:50.0000000+00:00</time></trkpt><trkpt lat="64.16894531" lon="-21.65552521"><ele>102.5</ele><time>2012-07-18T14:18:55.0000000+00:00</time></trkpt><trkpt lat="64.16896057" lon="-21.65547562"><ele>102.5</ele><time>2012-07-18T14:19:00.0000000+00:00</time></trkpt><trkpt lat="64.16899109" lon="-21.65543366"><ele>102.9</ele><time>2012-07-18T14:19:05.0000000+00:00</time></trkpt><trkpt lat="64.16900635" lon="-21.65544319"><ele>103.5</ele><time>2012-07-18T14:19:10.0000000+00:00</time></trkpt><trkpt lat="64.16900635" lon="-21.65545845"><ele>103.3</ele><time>2012-07-18T14:19:15.0000000+00:00</time></trkpt><trkpt lat="64.16899872" lon="-21.6554718"><ele>103.5</ele><time>2012-07-18T14:19:20.0000000+00:00</time></trkpt><trkpt lat="64.16899872" lon="-21.65548134"><ele>103.5</ele><time>2012-07-18T14:19:25.0000000+00:00</time></trkpt><trkpt lat="64.16899872" lon="-21.65548325"><ele>103.6</ele><time>2012-07-18T14:19:30.0000000+00:00</time></trkpt><trkpt lat="64.16899109" lon="-21.65547943"><ele>103.6</ele><time>2012-07-18T14:19:35.0000000+00:00</time></trkpt><trkpt lat="64.16899109" lon="-21.65546799"><ele>103.6</ele><time>2012-07-18T14:19:40.0000000+00:00</time></trkpt><trkpt lat="64.16899109" lon="-21.65545464"><ele>103.5</ele><time>2012-07-18T14:19:45.0000000+00:00</time></trkpt><trkpt lat="64.16899109" lon="-21.65543556"><ele>103.5</ele><time>2012-07-18T14:19:50.0000000+00:00</time></trkpt><trkpt lat="64.16899872" lon="-21.65542984"><ele>103.5</ele><time>2012-07-18T14:19:55.0000000+00:00</time></trkpt><trkpt lat="64.16899872" lon="-21.65542984"><ele>103.5</ele><time>2012-07-18T14:20:00.0000000+00:00</time></trkpt><trkpt lat="64.16899872" lon="-21.65543175"><ele>103.5</ele><time>2012-07-18T14:20:05.0000000+00:00</time></trkpt><trkpt lat="64.16899872" lon="-21.65543747"><ele>103.4</ele><time>2012-07-18T14:20:10.0000000+00:00</time></trkpt><trkpt lat="64.16899872" lon="-21.65543747"><ele>103.4</ele><time>2012-07-18T14:20:15.0000000+00:00</time></trkpt><trkpt lat="64.16899872" lon="-21.65544128"><ele>103.4</ele><time>2012-07-18T14:20:20.0000000+00:00</time></trkpt><trkpt lat="64.16899872" lon="-21.6554451"><ele>103.4</ele><time>2012-07-18T14:20:25.0000000+00:00</time></trkpt><trkpt lat="64.16899109" lon="-21.65544701"><ele>103.4</ele><time>2012-07-18T14:20:30.0000000+00:00</time></trkpt><trkpt lat="64.16899109" lon="-21.65544701"><ele>103.4</ele><time>2012-07-18T14:20:35.0000000+00:00</time></trkpt><trkpt lat="64.16899109" lon="-21.65545845"><ele>103.3</ele><time>2012-07-18T14:20:40.0000000+00:00</time></trkpt><trkpt lat="64.16899109" lon="-21.65546989"><ele>103.3</ele><time>2012-07-18T14:20:45.0000000+00:00</time></trkpt><trkpt lat="64.16897583" lon="-21.65545654"><ele>103.4</ele><time>2012-07-18T14:20:50.0000000+00:00</time></trkpt><trkpt lat="64.1689682" lon="-21.65545654"><ele>103.3</ele><time>2012-07-18T14:20:55.0000000+00:00</time></trkpt><trkpt lat="64.1689682" lon="-21.65545464"><ele>103.4</ele><time>2012-07-18T14:21:00.0000000+00:00</time></trkpt><trkpt lat="64.1689682" lon="-21.65546036"><ele>103.4</ele><time>2012-07-18T14:21:05.0000000+00:00</time></trkpt><trkpt lat="64.1689682" lon="-21.65545082"><ele>103.9</ele><time>2012-07-18T14:21:10.0000000+00:00</time></trkpt><trkpt lat="64.1689682" lon="-21.65542793"><ele>103.9</ele><time>2012-07-18T14:21:15.0000000+00:00</time></trkpt><trkpt lat="64.1689682" lon="-21.65542221"><ele>104.8</ele><time>2012-07-18T14:21:20.0000000+00:00</time></trkpt><trkpt lat="64.16897583" lon="-21.65537453"><ele>105.2</ele><time>2012-07-18T14:21:25.0000000+00:00</time></trkpt><trkpt lat="64.16898346" lon="-21.65536881"><ele>105.2</ele><time>2012-07-18T14:21:30.0000000+00:00</time></trkpt><trkpt lat="64.16899872" lon="-21.65540505"><ele>105.1</ele><time>2012-07-18T14:21:35.0000000+00:00</time></trkpt><trkpt lat="64.16899109" lon="-21.65541077"><ele>104.7</ele><time>2012-07-18T14:21:40.0000000+00:00</time></trkpt><trkpt lat="64.1689682" lon="-21.65536499"><ele>104.3</ele><time>2012-07-18T14:21:45.0000000+00:00</time></trkpt><trkpt lat="64.16896057" lon="-21.65530777"><ele>103.8</ele><time>2012-07-18T14:21:50.0000000+00:00</time></trkpt><trkpt lat="64.16895294" lon="-21.6552105"><ele>104.3</ele><time>2012-07-18T14:21:55.0000000+00:00</time></trkpt><trkpt lat="64.16894531" lon="-21.65511131"><ele>103.8</ele><time>2012-07-18T14:22:00.0000000+00:00</time></trkpt><trkpt lat="64.16893768" lon="-21.65501785"><ele>103.2</ele><time>2012-07-18T14:22:05.0000000+00:00</time></trkpt><trkpt lat="64.16893005" lon="-21.65498734"><ele>103.2</ele><time>2012-07-18T14:22:10.0000000+00:00</time></trkpt><trkpt lat="64.16892242" lon="-21.65496063"><ele>102.8</ele><time>2012-07-18T14:22:15.0000000+00:00</time></trkpt><trkpt lat="64.16892242" lon="-21.65497398"><ele>102.6</ele><time>2012-07-18T14:22:20.0000000+00:00</time></trkpt><trkpt lat="64.16892242" lon="-21.65494156"><ele>103.0</ele><time>2012-07-18T14:22:25.0000000+00:00</time></trkpt><trkpt lat="64.16893005" lon="-21.65477371"><ele>103.3</ele><time>2012-07-18T14:22:30.0000000+00:00</time></trkpt><trkpt lat="64.16893005" lon="-21.65458489"><ele>102.8</ele><time>2012-07-18T14:22:35.0000000+00:00</time></trkpt><trkpt lat="64.16890717" lon="-21.65444183"><ele>102.0</ele><time>2012-07-18T14:22:40.0000000+00:00</time></trkpt><trkpt lat="64.16890717" lon="-21.65429306"><ele>102.1</ele><time>2012-07-18T14:22:45.0000000+00:00</time></trkpt><trkpt lat="64.16889954" lon="-21.65413094"><ele>102.9</ele><time>2012-07-18T14:22:50.0000000+00:00</time></trkpt><trkpt lat="64.16890717" lon="-21.65398407"><ele>104.3</ele><time>2012-07-18T14:22:55.0000000+00:00</time></trkpt><trkpt lat="64.16889954" lon="-21.65385437"><ele>104.6</ele><time>2012-07-18T14:23:00.0000000+00:00</time></trkpt><trkpt lat="64.16889954" lon="-21.65373421"><ele>105.2</ele><time>2012-07-18T14:23:05.0000000+00:00</time></trkpt><trkpt lat="64.16889954" lon="-21.65370178"><ele>105.1</ele><time>2012-07-18T14:23:10.0000000+00:00</time></trkpt><trkpt lat="64.16889954" lon="-21.6537075"><ele>105.0</ele><time>2012-07-18T14:23:15.0000000+00:00</time></trkpt><trkpt lat="64.16889954" lon="-21.6537056"><ele>104.9</ele><time>2012-07-18T14:23:20.0000000+00:00</time></trkpt><trkpt lat="64.16889954" lon="-21.65370941"><ele>105.1</ele><time>2012-07-18T14:23:25.0000000+00:00</time></trkpt><trkpt lat="64.16889954" lon="-21.65370941"><ele>105.1</ele><time>2012-07-18T14:23:30.0000000+00:00</time></trkpt><trkpt lat="64.16889954" lon="-21.65368652"><ele>105.4</ele><time>2012-07-18T14:23:35.0000000+00:00</time></trkpt><trkpt lat="64.1689148" lon="-21.65370941"><ele>105.7</ele><time>2012-07-18T14:23:40.0000000+00:00</time></trkpt><trkpt lat="64.1689148" lon="-21.65371132"><ele>105.8</ele><time>2012-07-18T14:23:45.0000000+00:00</time></trkpt><trkpt lat="64.16897583" lon="-21.65371323"><ele>106.2</ele><time>2012-07-18T14:23:50.0000000+00:00</time></trkpt><trkpt lat="64.16902924" lon="-21.65371895"><ele>107.4</ele><time>2012-07-18T14:23:55.0000000+00:00</time></trkpt><trkpt lat="64.16905212" lon="-21.65371132"><ele>107.2</ele><time>2012-07-18T14:24:00.0000000+00:00</time></trkpt><trkpt lat="64.16909027" lon="-21.6537056"><ele>107.6</ele><time>2012-07-18T14:24:05.0000000+00:00</time></trkpt><trkpt lat="64.16912842" lon="-21.65372086"><ele>108.9</ele><time>2012-07-18T14:24:10.0000000+00:00</time></trkpt><trkpt lat="64.16915894" lon="-21.65376663"><ele>111.1</ele><time>2012-07-18T14:24:15.0000000+00:00</time></trkpt><trkpt lat="64.16919708" lon="-21.65383339"><ele>113.3</ele><time>2012-07-18T14:24:20.0000000+00:00</time></trkpt><trkpt lat="64.1692276" lon="-21.65386963"><ele>114.8</ele><time>2012-07-18T14:24:25.0000000+00:00</time></trkpt><trkpt lat="64.16925049" lon="-21.6538887"><ele>115.7</ele><time>2012-07-18T14:24:30.0000000+00:00</time></trkpt><trkpt lat="64.16927338" lon="-21.65392113"><ele>117.0</ele><time>2012-07-18T14:24:35.0000000+00:00</time></trkpt><trkpt lat="64.16931152" lon="-21.65394402"><ele>118.1</ele><time>2012-07-18T14:24:40.0000000+00:00</time></trkpt><trkpt lat="64.16933441" lon="-21.65399742"><ele>120.1</ele><time>2012-07-18T14:24:45.0000000+00:00</time></trkpt><trkpt lat="64.16938019" lon="-21.65403938"><ele>121.1</ele><time>2012-07-18T14:24:50.0000000+00:00</time></trkpt><trkpt lat="64.16940308" lon="-21.65404511"><ele>121.8</ele><time>2012-07-18T14:24:55.0000000+00:00</time></trkpt><trkpt lat="64.16942596" lon="-21.65402603"><ele>122.7</ele><time>2012-07-18T14:25:00.0000000+00:00</time></trkpt><trkpt lat="64.16947174" lon="-21.65404129"><ele>123.0</ele><time>2012-07-18T14:25:05.0000000+00:00</time></trkpt><trkpt lat="64.16950989" lon="-21.65411949"><ele>124.5</ele><time>2012-07-18T14:25:10.0000000+00:00</time></trkpt><trkpt lat="64.16954041" lon="-21.65415001"><ele>125.0</ele><time>2012-07-18T14:25:15.0000000+00:00</time></trkpt><trkpt lat="64.16957092" lon="-21.65420532"><ele>125.5</ele><time>2012-07-18T14:25:20.0000000+00:00</time></trkpt><trkpt lat="64.16959381" lon="-21.65422058"><ele>127.0</ele><time>2012-07-18T14:25:25.0000000+00:00</time></trkpt><trkpt lat="64.16962433" lon="-21.65426445"><ele>127.1</ele><time>2012-07-18T14:25:30.0000000+00:00</time></trkpt><trkpt lat="64.16967011" lon="-21.6543045"><ele>126.4</ele><time>2012-07-18T14:25:35.0000000+00:00</time></trkpt><trkpt lat="64.16970825" lon="-21.65432167"><ele>125.3</ele><time>2012-07-18T14:25:40.0000000+00:00</time></trkpt><trkpt lat="64.16973877" lon="-21.65436745"><ele>125.2</ele><time>2012-07-18T14:25:45.0000000+00:00</time></trkpt><trkpt lat="64.16977692" lon="-21.65443039"><ele>125.9</ele><time>2012-07-18T14:25:50.0000000+00:00</time></trkpt><trkpt lat="64.16980743" lon="-21.6544838"><ele>126.9</ele><time>2012-07-18T14:25:55.0000000+00:00</time></trkpt><trkpt lat="64.16983795" lon="-21.65455818"><ele>128.8</ele><time>2012-07-18T14:26:00.0000000+00:00</time></trkpt><trkpt lat="64.16988373" lon="-21.65462303"><ele>130.5</ele><time>2012-07-18T14:26:05.0000000+00:00</time></trkpt><trkpt lat="64.16991425" lon="-21.65465164"><ele>131.7</ele><time>2012-07-18T14:26:10.0000000+00:00</time></trkpt><trkpt lat="64.1699295" lon="-21.65464973"><ele>132.5</ele><time>2012-07-18T14:26:15.0000000+00:00</time></trkpt><trkpt lat="64.16994476" lon="-21.65466309"><ele>132.9</ele><time>2012-07-18T14:26:20.0000000+00:00</time></trkpt><trkpt lat="64.16998291" lon="-21.65467453"><ele>133.4</ele><time>2012-07-18T14:26:25.0000000+00:00</time></trkpt><trkpt lat="64.17002106" lon="-21.65472794"><ele>133.9</ele><time>2012-07-18T14:26:30.0000000+00:00</time></trkpt><trkpt lat="64.17004395" lon="-21.6547966"><ele>135.7</ele><time>2012-07-18T14:26:35.0000000+00:00</time></trkpt><trkpt lat="64.1700592" lon="-21.65479851"><ele>135.9</ele><time>2012-07-18T14:26:40.0000000+00:00</time></trkpt><trkpt lat="64.17008209" lon="-21.65480232"><ele>136.7</ele><time>2012-07-18T14:26:45.0000000+00:00</time></trkpt><trkpt lat="64.17011261" lon="-21.6548233"><ele>137.8</ele><time>2012-07-18T14:26:50.0000000+00:00</time></trkpt><trkpt lat="64.1701355" lon="-21.65481186"><ele>138.6</ele><time>2012-07-18T14:26:55.0000000+00:00</time></trkpt><trkpt lat="64.17017365" lon="-21.65484428"><ele>139.4</ele><time>2012-07-18T14:27:00.0000000+00:00</time></trkpt><trkpt lat="64.17021942" lon="-21.65490913"><ele>140.3</ele><time>2012-07-18T14:27:05.0000000+00:00</time></trkpt><trkpt lat="64.17025757" lon="-21.65496445"><ele>141.3</ele><time>2012-07-18T14:27:10.0000000+00:00</time></trkpt><trkpt lat="64.17028809" lon="-21.65502739"><ele>142.1</ele><time>2012-07-18T14:27:15.0000000+00:00</time></trkpt><trkpt lat="64.17033386" lon="-21.6550827"><ele>142.4</ele><time>2012-07-18T14:27:20.0000000+00:00</time></trkpt><trkpt lat="64.17037964" lon="-21.65513992"><ele>145.0</ele><time>2012-07-18T14:27:25.0000000+00:00</time></trkpt><trkpt lat="64.17041779" lon="-21.65514183"><ele>145.3</ele><time>2012-07-18T14:27:30.0000000+00:00</time></trkpt><trkpt lat="64.17045593" lon="-21.65514565"><ele>146.3</ele><time>2012-07-18T14:27:35.0000000+00:00</time></trkpt><trkpt lat="64.17048645" lon="-21.65520668"><ele>146.5</ele><time>2012-07-18T14:27:40.0000000+00:00</time></trkpt><trkpt lat="64.17050171" lon="-21.65525055"><ele>148.3</ele><time>2012-07-18T14:27:45.0000000+00:00</time></trkpt><trkpt lat="64.17053223" lon="-21.65532875"><ele>149.4</ele><time>2012-07-18T14:27:50.0000000+00:00</time></trkpt><trkpt lat="64.17053986" lon="-21.65533638"><ele>149.8</ele><time>2012-07-18T14:27:55.0000000+00:00</time></trkpt><trkpt lat="64.17056274" lon="-21.65537643"><ele>150.9</ele><time>2012-07-18T14:28:00.0000000+00:00</time></trkpt><trkpt lat="64.17058563" lon="-21.65537071"><ele>151.9</ele><time>2012-07-18T14:28:05.0000000+00:00</time></trkpt><trkpt lat="64.17061615" lon="-21.65534973"><ele>152.6</ele><time>2012-07-18T14:28:10.0000000+00:00</time></trkpt><trkpt lat="64.1706543" lon="-21.65537262"><ele>153.4</ele><time>2012-07-18T14:28:15.0000000+00:00</time></trkpt><trkpt lat="64.17068481" lon="-21.65536118"><ele>154.4</ele><time>2012-07-18T14:28:20.0000000+00:00</time></trkpt><trkpt lat="64.17072296" lon="-21.65538979"><ele>155.2</ele><time>2012-07-18T14:28:25.0000000+00:00</time></trkpt><trkpt lat="64.17076111" lon="-21.65544319"><ele>155.7</ele><time>2012-07-18T14:28:30.0000000+00:00</time></trkpt><trkpt lat="64.17082214" lon="-21.65552902"><ele>157.4</ele><time>2012-07-18T14:28:35.0000000+00:00</time></trkpt><trkpt lat="64.1708374" lon="-21.65553856"><ele>158.3</ele><time>2012-07-18T14:28:40.0000000+00:00</time></trkpt><trkpt lat="64.17086029" lon="-21.6555481"><ele>159.0</ele><time>2012-07-18T14:28:45.0000000+00:00</time></trkpt><trkpt lat="64.17089844" lon="-21.65554237"><ele>160.5</ele><time>2012-07-18T14:28:50.0000000+00:00</time></trkpt><trkpt lat="64.17094421" lon="-21.65549851"><ele>160.6</ele><time>2012-07-18T14:28:55.0000000+00:00</time></trkpt><trkpt lat="64.17099762" lon="-21.65548134"><ele>161.1</ele><time>2012-07-18T14:29:00.0000000+00:00</time></trkpt><trkpt lat="64.17105103" lon="-21.65547943"><ele>162.9</ele><time>2012-07-18T14:29:05.0000000+00:00</time></trkpt><trkpt lat="64.17110443" lon="-21.65545273"><ele>163.6</ele><time>2012-07-18T14:29:10.0000000+00:00</time></trkpt><trkpt lat="64.17115021" lon="-21.65541458"><ele>164.9</ele><time>2012-07-18T14:29:15.0000000+00:00</time></trkpt><trkpt lat="64.17118835" lon="-21.65540314"><ele>166.7</ele><time>2012-07-18T14:29:20.0000000+00:00</time></trkpt><trkpt lat="64.1712265" lon="-21.65537834"><ele>167.1</ele><time>2012-07-18T14:29:25.0000000+00:00</time></trkpt><trkpt lat="64.17125702" lon="-21.65538025"><ele>167.4</ele><time>2012-07-18T14:29:30.0000000+00:00</time></trkpt><trkpt lat="64.17129517" lon="-21.65544128"><ele>167.9</ele><time>2012-07-18T14:29:35.0000000+00:00</time></trkpt><trkpt lat="64.17132568" lon="-21.65545082"><ele>167.9</ele><time>2012-07-18T14:29:40.0000000+00:00</time></trkpt><trkpt lat="64.17137146" lon="-21.65547371"><ele>169.2</ele><time>2012-07-18T14:29:45.0000000+00:00</time></trkpt><trkpt lat="64.17140198" lon="-21.65549469"><ele>170.6</ele><time>2012-07-18T14:29:50.0000000+00:00</time></trkpt><trkpt lat="64.17144013" lon="-21.65551758"><ele>172.1</ele><time>2012-07-18T14:29:55.0000000+00:00</time></trkpt><trkpt lat="64.17147827" lon="-21.65553856"><ele>173.6</ele><time>2012-07-18T14:30:00.0000000+00:00</time></trkpt><trkpt lat="64.17150879" lon="-21.65554619"><ele>175.1</ele><time>2012-07-18T14:30:05.0000000+00:00</time></trkpt><trkpt lat="64.17153931" lon="-21.65553474"><ele>176.7</ele><time>2012-07-18T14:30:10.0000000+00:00</time></trkpt><trkpt lat="64.17157745" lon="-21.6555233"><ele>178.3</ele><time>2012-07-18T14:30:15.0000000+00:00</time></trkpt><trkpt lat="64.17160797" lon="-21.65552139"><ele>180.0</ele><time>2012-07-18T14:30:20.0000000+00:00</time></trkpt><trkpt lat="64.17163849" lon="-21.65555763"><ele>181.5</ele><time>2012-07-18T14:30:25.0000000+00:00</time></trkpt><trkpt lat="64.17167664" lon="-21.65559387"><ele>182.9</ele><time>2012-07-18T14:30:30.0000000+00:00</time></trkpt><trkpt lat="64.17169952" lon="-21.65559387"><ele>184.6</ele><time>2012-07-18T14:30:35.0000000+00:00</time></trkpt><trkpt lat="64.17171478" lon="-21.65561867"><ele>185.3</ele><time>2012-07-18T14:30:40.0000000+00:00</time></trkpt><trkpt lat="64.1717453" lon="-21.65565109"><ele>186.6</ele><time>2012-07-18T14:30:45.0000000+00:00</time></trkpt><trkpt lat="64.17177582" lon="-21.65563583"><ele>187.8</ele><time>2012-07-18T14:30:50.0000000+00:00</time></trkpt><trkpt lat="64.17180634" lon="-21.6556282"><ele>188.7</ele><time>2012-07-18T14:30:55.0000000+00:00</time></trkpt><trkpt lat="64.17184448" lon="-21.65559578"><ele>190.5</ele><time>2012-07-18T14:31:00.0000000+00:00</time></trkpt><trkpt lat="64.17188263" lon="-21.65556908"><ele>192.0</ele><time>2012-07-18T14:31:05.0000000+00:00</time></trkpt><trkpt lat="64.17192841" lon="-21.65558815"><ele>193.3</ele><time>2012-07-18T14:31:10.0000000+00:00</time></trkpt><trkpt lat="64.17198944" lon="-21.65559959"><ele>194.6</ele><time>2012-07-18T14:31:15.0000000+00:00</time></trkpt><trkpt lat="64.17203522" lon="-21.65555191"><ele>195.6</ele><time>2012-07-18T14:31:20.0000000+00:00</time></trkpt><trkpt lat="64.17209625" lon="-21.65552521"><ele>196.4</ele><time>2012-07-18T14:31:25.0000000+00:00</time></trkpt><trkpt lat="64.1721344" lon="-21.65545654"><ele>196.7</ele><time>2012-07-18T14:31:30.0000000+00:00</time></trkpt><trkpt lat="64.17217255" lon="-21.65535355"><ele>196.6</ele><time>2012-07-18T14:31:35.0000000+00:00</time></trkpt><trkpt lat="64.17222595" lon="-21.65525627"><ele>196.6</ele><time>2012-07-18T14:31:40.0000000+00:00</time></trkpt><trkpt lat="64.17227173" lon="-21.65515137"><ele>196.8</ele><time>2012-07-18T14:31:45.0000000+00:00</time></trkpt><trkpt lat="64.17231751" lon="-21.65506172"><ele>197.0</ele><time>2012-07-18T14:31:50.0000000+00:00</time></trkpt><trkpt lat="64.17237091" lon="-21.65498543"><ele>197.3</ele><time>2012-07-18T14:31:55.0000000+00:00</time></trkpt><trkpt lat="64.17243195" lon="-21.65489578"><ele>197.7</ele><time>2012-07-18T14:32:00.0000000+00:00</time></trkpt><trkpt lat="64.17248535" lon="-21.65481949"><ele>197.8</ele><time>2012-07-18T14:32:05.0000000+00:00</time></trkpt><trkpt lat="64.17256165" lon="-21.65472984"><ele>197.9</ele><time>2012-07-18T14:32:10.0000000+00:00</time></trkpt><trkpt lat="64.17258453" lon="-21.65469551"><ele>197.0</ele><time>2012-07-18T14:32:15.0000000+00:00</time></trkpt><trkpt lat="64.17260742" lon="-21.65464973"><ele>196.1</ele><time>2012-07-18T14:32:20.0000000+00:00</time></trkpt><trkpt lat="64.1726532" lon="-21.65460396"><ele>195.8</ele><time>2012-07-18T14:32:25.0000000+00:00</time></trkpt><trkpt lat="64.1727066" lon="-21.65456009"><ele>196.4</ele><time>2012-07-18T14:32:30.0000000+00:00</time></trkpt><trkpt lat="64.17275238" lon="-21.65452766"><ele>196.5</ele><time>2012-07-18T14:32:35.0000000+00:00</time></trkpt><trkpt lat="64.17276001" lon="-21.65450859"><ele>196.9</ele><time>2012-07-18T14:32:40.0000000+00:00</time></trkpt><trkpt lat="64.17276001" lon="-21.65449905"><ele>196.7</ele><time>2012-07-18T14:32:45.0000000+00:00</time></trkpt><trkpt lat="64.17276001" lon="-21.65452194"><ele>196.5</ele><time>2012-07-18T14:32:50.0000000+00:00</time></trkpt><trkpt lat="64.17275238" lon="-21.65459633"><ele>196.4</ele><time>2012-07-18T14:32:55.0000000+00:00</time></trkpt><trkpt lat="64.1727829" lon="-21.65468407"><ele>195.8</ele><time>2012-07-18T14:33:00.0000000+00:00</time></trkpt><trkpt lat="64.17282867" lon="-21.65479088"><ele>195.5</ele><time>2012-07-18T14:33:05.0000000+00:00</time></trkpt><trkpt lat="64.17286682" lon="-21.65486908"><ele>196.2</ele><time>2012-07-18T14:33:10.0000000+00:00</time></trkpt><trkpt lat="64.17290497" lon="-21.65490532"><ele>196.3</ele><time>2012-07-18T14:33:15.0000000+00:00</time></trkpt><trkpt lat="64.17288971" lon="-21.65486527"><ele>195.9</ele><time>2012-07-18T14:33:20.0000000+00:00</time></trkpt><trkpt lat="64.1729126" lon="-21.65477371"><ele>195.4</ele><time>2012-07-18T14:33:25.0000000+00:00</time></trkpt><trkpt lat="64.17293549" lon="-21.65467835"><ele>195.2</ele><time>2012-07-18T14:33:30.0000000+00:00</time></trkpt><trkpt lat="64.17298126" lon="-21.6545372"><ele>194.9</ele><time>2012-07-18T14:33:35.0000000+00:00</time></trkpt><trkpt lat="64.17298889" lon="-21.65441704"><ele>193.7</ele><time>2012-07-18T14:33:40.0000000+00:00</time></trkpt><trkpt lat="64.17301178" lon="-21.65433693"><ele>193.4</ele><time>2012-07-18T14:33:45.0000000+00:00</time></trkpt><trkpt lat="64.17304993" lon="-21.65425491"><ele>194.3</ele><time>2012-07-18T14:33:50.0000000+00:00</time></trkpt><trkpt lat="64.17310333" lon="-21.65418243"><ele>195.4</ele><time>2012-07-18T14:33:55.0000000+00:00</time></trkpt><trkpt lat="64.17314911" lon="-21.65409851"><ele>196.4</ele><time>2012-07-18T14:34:00.0000000+00:00</time></trkpt><trkpt lat="64.173172" lon="-21.65398598"><ele>197.9</ele><time>2012-07-18T14:34:05.0000000+00:00</time></trkpt><trkpt lat="64.17321777" lon="-21.65390778"><ele>200.1</ele><time>2012-07-18T14:34:10.0000000+00:00</time></trkpt><trkpt lat="64.17327881" lon="-21.65387154"><ele>201.5</ele><time>2012-07-18T14:34:15.0000000+00:00</time></trkpt><trkpt lat="64.17330933" lon="-21.65378952"><ele>203.0</ele><time>2012-07-18T14:34:20.0000000+00:00</time></trkpt><trkpt lat="64.17333984" lon="-21.65378189"><ele>203.7</ele><time>2012-07-18T14:34:25.0000000+00:00</time></trkpt><trkpt lat="64.1733551" lon="-21.65374565"><ele>203.1</ele><time>2012-07-18T14:34:30.0000000+00:00</time></trkpt><trkpt lat="64.17336273" lon="-21.6537323"><ele>202.6</ele><time>2012-07-18T14:34:35.0000000+00:00</time></trkpt><trkpt lat="64.17336273" lon="-21.65373612"><ele>202.6</ele><time>2012-07-18T14:34:40.0000000+00:00</time></trkpt><trkpt lat="64.17336273" lon="-21.65372849"><ele>202.4</ele><time>2012-07-18T14:34:45.0000000+00:00</time></trkpt><trkpt lat="64.17336273" lon="-21.65372849"><ele>202.3</ele><time>2012-07-18T14:34:50.0000000+00:00</time></trkpt><trkpt lat="64.17336273" lon="-21.65372849"><ele>202.3</ele><time>2012-07-18T14:34:55.0000000+00:00</time></trkpt><trkpt lat="64.17336273" lon="-21.65372849"><ele>202.3</ele><time>2012-07-18T14:35:00.0000000+00:00</time></trkpt><trkpt lat="64.17336273" lon="-21.65373039"><ele>202.3</ele><time>2012-07-18T14:35:05.0000000+00:00</time></trkpt><trkpt lat="64.17336273" lon="-21.65373039"><ele>202.3</ele><time>2012-07-18T14:35:10.0000000+00:00</time></trkpt><trkpt lat="64.17336273" lon="-21.65373039"><ele>202.3</ele><time>2012-07-18T14:35:15.0000000+00:00</time></trkpt><trkpt lat="64.17333984" lon="-21.65376091"><ele>202.4</ele><time>2012-07-18T14:35:20.0000000+00:00</time></trkpt><trkpt lat="64.1733017" lon="-21.65382767"><ele>202.2</ele><time>2012-07-18T14:35:25.0000000+00:00</time></trkpt><trkpt lat="64.17325592" lon="-21.65386009"><ele>202.1</ele><time>2012-07-18T14:35:30.0000000+00:00</time></trkpt><trkpt lat="64.1732254" lon="-21.65389442"><ele>203.3</ele><time>2012-07-18T14:35:35.0000000+00:00</time></trkpt><trkpt lat="64.17323303" lon="-21.65389252"><ele>203.1</ele><time>2012-07-18T14:35:40.0000000+00:00</time></trkpt><trkpt lat="64.17323303" lon="-21.65388489"><ele>203.1</ele><time>2012-07-18T14:35:45.0000000+00:00</time></trkpt><trkpt lat="64.173172" lon="-21.65392494"><ele>202.3</ele><time>2012-07-18T14:35:50.0000000+00:00</time></trkpt><trkpt lat="64.173172" lon="-21.65393257"><ele>202.3</ele><time>2012-07-18T14:35:55.0000000+00:00</time></trkpt><trkpt lat="64.173172" lon="-21.65392876"><ele>202.4</ele><time>2012-07-18T14:36:00.0000000+00:00</time></trkpt><trkpt lat="64.17313385" lon="-21.65394402"><ele>202.0</ele><time>2012-07-18T14:36:05.0000000+00:00</time></trkpt><trkpt lat="64.17308807" lon="-21.65402031"><ele>202.0</ele><time>2012-07-18T14:36:10.0000000+00:00</time></trkpt><trkpt lat="64.1730423" lon="-21.65407753"><ele>201.8</ele><time>2012-07-18T14:36:15.0000000+00:00</time></trkpt><trkpt lat="64.17299652" lon="-21.65413284"><ele>201.5</ele><time>2012-07-18T14:36:20.0000000+00:00</time></trkpt><trkpt lat="64.17295075" lon="-21.65421486"><ele>201.3</ele><time>2012-07-18T14:36:25.0000000+00:00</time></trkpt><trkpt lat="64.17289734" lon="-21.65426064"><ele>199.5</ele><time>2012-07-18T14:36:30.0000000+00:00</time></trkpt><trkpt lat="64.17285919" lon="-21.65432358"><ele>198.1</ele><time>2012-07-18T14:36:35.0000000+00:00</time></trkpt><trkpt lat="64.17282105" lon="-21.65435791"><ele>196.7</ele><time>2012-07-18T14:36:40.0000000+00:00</time></trkpt><trkpt lat="64.17279053" lon="-21.65442658"><ele>196.6</ele><time>2012-07-18T14:36:45.0000000+00:00</time></trkpt><trkpt lat="64.17275238" lon="-21.65448761"><ele>196.3</ele><time>2012-07-18T14:36:50.0000000+00:00</time></trkpt><trkpt lat="64.17272949" lon="-21.65453911"><ele>197.0</ele><time>2012-07-18T14:36:55.0000000+00:00</time></trkpt><trkpt lat="64.17267609" lon="-21.65455818"><ele>195.4</ele><time>2012-07-18T14:37:00.0000000+00:00</time></trkpt><trkpt lat="64.17264557" lon="-21.65460777"><ele>194.8</ele><time>2012-07-18T14:37:05.0000000+00:00</time></trkpt><trkpt lat="64.17261505" lon="-21.65467835"><ele>194.0</ele><time>2012-07-18T14:37:10.0000000+00:00</time></trkpt><trkpt lat="64.1725769" lon="-21.65477753"><ele>193.7</ele><time>2012-07-18T14:37:15.0000000+00:00</time></trkpt><trkpt lat="64.17253876" lon="-21.65487671"><ele>193.1</ele><time>2012-07-18T14:37:20.0000000+00:00</time></trkpt><trkpt lat="64.17250061" lon="-21.65499687"><ele>192.2</ele><time>2012-07-18T14:37:25.0000000+00:00</time></trkpt><trkpt lat="64.17247009" lon="-21.65511131"><ele>191.6</ele><time>2012-07-18T14:37:30.0000000+00:00</time></trkpt><trkpt lat="64.17245483" lon="-21.65523911"><ele>190.8</ele><time>2012-07-18T14:37:35.0000000+00:00</time></trkpt><trkpt lat="64.17241669" lon="-21.6553669"><ele>190.2</ele><time>2012-07-18T14:37:40.0000000+00:00</time></trkpt><trkpt lat="64.1723938" lon="-21.65549469"><ele>189.6</ele><time>2012-07-18T14:37:45.0000000+00:00</time></trkpt><trkpt lat="64.17236328" lon="-21.65558624"><ele>189.4</ele><time>2012-07-18T14:37:50.0000000+00:00</time></trkpt><trkpt lat="64.17230225" lon="-21.65563965"><ele>188.8</ele><time>2012-07-18T14:37:55.0000000+00:00</time></trkpt><trkpt lat="64.17227936" lon="-21.65573502"><ele>189.8</ele><time>2012-07-18T14:38:00.0000000+00:00</time></trkpt><trkpt lat="64.17224121" lon="-21.6557579"><ele>189.8</ele><time>2012-07-18T14:38:05.0000000+00:00</time></trkpt><trkpt lat="64.17218018" lon="-21.65576935"><ele>190.8</ele><time>2012-07-18T14:38:10.0000000+00:00</time></trkpt><trkpt lat="64.17212677" lon="-21.65574455"><ele>191.7</ele><time>2012-07-18T14:38:15.0000000+00:00</time></trkpt><trkpt lat="64.17206574" lon="-21.6557312"><ele>193.5</ele><time>2012-07-18T14:38:20.0000000+00:00</time></trkpt><trkpt lat="64.17199707" lon="-21.65575218"><ele>193.8</ele><time>2012-07-18T14:38:25.0000000+00:00</time></trkpt><trkpt lat="64.17195129" lon="-21.65581322"><ele>194.1</ele><time>2012-07-18T14:38:30.0000000+00:00</time></trkpt><trkpt lat="64.17189026" lon="-21.65587425"><ele>192.9</ele><time>2012-07-18T14:38:35.0000000+00:00</time></trkpt><trkpt lat="64.17183685" lon="-21.65592003"><ele>191.8</ele><time>2012-07-18T14:38:40.0000000+00:00</time></trkpt><trkpt lat="64.17179108" lon="-21.65597534"><ele>191.1</ele><time>2012-07-18T14:38:45.0000000+00:00</time></trkpt><trkpt lat="64.17176056" lon="-21.65602112"><ele>190.4</ele><time>2012-07-18T14:38:50.0000000+00:00</time></trkpt><trkpt lat="64.17170715" lon="-21.6560688"><ele>189.3</ele><time>2012-07-18T14:38:55.0000000+00:00</time></trkpt><trkpt lat="64.17163849" lon="-21.65612221"><ele>187.6</ele><time>2012-07-18T14:39:00.0000000+00:00</time></trkpt><trkpt lat="64.17159271" lon="-21.65615082"><ele>187.1</ele><time>2012-07-18T14:39:05.0000000+00:00</time></trkpt><trkpt lat="64.17156982" lon="-21.65616608"><ele>185.7</ele><time>2012-07-18T14:39:10.0000000+00:00</time></trkpt><trkpt lat="64.17151642" lon="-21.6561451"><ele>185.2</ele><time>2012-07-18T14:39:15.0000000+00:00</time></trkpt><trkpt lat="64.1714859" lon="-21.65619278"><ele>183.4</ele><time>2012-07-18T14:39:20.0000000+00:00</time></trkpt><trkpt lat="64.17145538" lon="-21.65618134"><ele>183.3</ele><time>2012-07-18T14:39:25.0000000+00:00</time></trkpt><trkpt lat="64.17141724" lon="-21.65619087"><ele>182.0</ele><time>2012-07-18T14:39:30.0000000+00:00</time></trkpt><trkpt lat="64.17137146" lon="-21.65620041"><ele>181.5</ele><time>2012-07-18T14:39:35.0000000+00:00</time></trkpt><trkpt lat="64.17133331" lon="-21.65623283"><ele>180.4</ele><time>2012-07-18T14:39:40.0000000+00:00</time></trkpt><trkpt lat="64.17133331" lon="-21.65624809"><ele>179.3</ele><time>2012-07-18T14:39:45.0000000+00:00</time></trkpt><trkpt lat="64.17131043" lon="-21.65625382"><ele>179.0</ele><time>2012-07-18T14:39:50.0000000+00:00</time></trkpt><trkpt lat="64.17129517" lon="-21.65625572"><ele>178.0</ele><time>2012-07-18T14:39:55.0000000+00:00</time></trkpt><trkpt lat="64.17128754" lon="-21.65625"><ele>176.7</ele><time>2012-07-18T14:40:00.0000000+00:00</time></trkpt><trkpt lat="64.17126465" lon="-21.65625"><ele>176.1</ele><time>2012-07-18T14:40:05.0000000+00:00</time></trkpt><trkpt lat="64.17123413" lon="-21.65623283"><ele>176.8</ele><time>2012-07-18T14:40:10.0000000+00:00</time></trkpt><trkpt lat="64.17121887" lon="-21.65622139"><ele>177.7</ele><time>2012-07-18T14:40:15.0000000+00:00</time></trkpt><trkpt lat="64.17121124" lon="-21.65622902"><ele>178.1</ele><time>2012-07-18T14:40:20.0000000+00:00</time></trkpt><trkpt lat="64.17121124" lon="-21.65630341"><ele>178.5</ele><time>2012-07-18T14:40:25.0000000+00:00</time></trkpt><trkpt lat="64.17120361" lon="-21.65631294"><ele>178.0</ele><time>2012-07-18T14:40:30.0000000+00:00</time></trkpt><trkpt lat="64.17119598" lon="-21.65621185"><ele>177.4</ele><time>2012-07-18T14:40:35.0000000+00:00</time></trkpt><trkpt lat="64.17118073" lon="-21.65611076"><ele>176.0</ele><time>2012-07-18T14:40:40.0000000+00:00</time></trkpt><trkpt lat="64.17118073" lon="-21.65600967"><ele>175.5</ele><time>2012-07-18T14:40:45.0000000+00:00</time></trkpt><trkpt lat="64.17115784" lon="-21.65595055"><ele>174.4</ele><time>2012-07-18T14:40:50.0000000+00:00</time></trkpt><trkpt lat="64.17115784" lon="-21.65588951"><ele>173.6</ele><time>2012-07-18T14:40:55.0000000+00:00</time></trkpt><trkpt lat="64.17114258" lon="-21.65586472"><ele>172.6</ele><time>2012-07-18T14:41:00.0000000+00:00</time></trkpt><trkpt lat="64.17112732" lon="-21.65581894"><ele>171.2</ele><time>2012-07-18T14:41:05.0000000+00:00</time></trkpt><trkpt lat="64.17110443" lon="-21.65575981"><ele>170.2</ele><time>2012-07-18T14:41:10.0000000+00:00</time></trkpt><trkpt lat="64.17107391" lon="-21.65572929"><ele>169.2</ele><time>2012-07-18T14:41:15.0000000+00:00</time></trkpt><trkpt lat="64.17105103" lon="-21.65571976"><ele>168.2</ele><time>2012-07-18T14:41:20.0000000+00:00</time></trkpt><trkpt lat="64.17101288" lon="-21.65565682"><ele>167.5</ele><time>2012-07-18T14:41:25.0000000+00:00</time></trkpt><trkpt lat="64.17097473" lon="-21.65557098"><ele>166.6</ele><time>2012-07-18T14:41:30.0000000+00:00</time></trkpt><trkpt lat="64.17093658" lon="-21.65550232"><ele>165.5</ele><time>2012-07-18T14:41:35.0000000+00:00</time></trkpt><trkpt lat="64.17088318" lon="-21.6554184"><ele>165.1</ele><time>2012-07-18T14:41:40.0000000+00:00</time></trkpt><trkpt lat="64.17086029" lon="-21.65533447"><ele>165.1</ele><time>2012-07-18T14:41:45.0000000+00:00</time></trkpt><trkpt lat="64.17082214" lon="-21.65530396"><ele>165.4</ele><time>2012-07-18T14:41:50.0000000+00:00</time></trkpt><trkpt lat="64.17079926" lon="-21.65527725"><ele>164.1</ele><time>2012-07-18T14:41:55.0000000+00:00</time></trkpt><trkpt lat="64.17077637" lon="-21.65524483"><ele>164.1</ele><time>2012-07-18T14:42:00.0000000+00:00</time></trkpt><trkpt lat="64.17075348" lon="-21.65522194"><ele>163.4</ele><time>2012-07-18T14:42:05.0000000+00:00</time></trkpt><trkpt lat="64.17072296" lon="-21.65520477"><ele>161.7</ele><time>2012-07-18T14:42:10.0000000+00:00</time></trkpt><trkpt lat="64.1707077" lon="-21.65515328"><ele>160.6</ele><time>2012-07-18T14:42:15.0000000+00:00</time></trkpt><trkpt lat="64.17068481" lon="-21.65511513"><ele>160.1</ele><time>2012-07-18T14:42:20.0000000+00:00</time></trkpt><trkpt lat="64.17066193" lon="-21.65510178"><ele>159.2</ele><time>2012-07-18T14:42:25.0000000+00:00</time></trkpt><trkpt lat="64.17064667" lon="-21.65508461"><ele>158.7</ele><time>2012-07-18T14:42:30.0000000+00:00</time></trkpt><trkpt lat="64.17062378" lon="-21.65504074"><ele>158.1</ele><time>2012-07-18T14:42:35.0000000+00:00</time></trkpt><trkpt lat="64.17061615" lon="-21.65504074"><ele>157.5</ele><time>2012-07-18T14:42:40.0000000+00:00</time></trkpt><trkpt lat="64.17060852" lon="-21.65502739"><ele>157.2</ele><time>2012-07-18T14:42:45.0000000+00:00</time></trkpt><trkpt lat="64.17060852" lon="-21.65497971"><ele>157.1</ele><time>2012-07-18T14:42:50.0000000+00:00</time></trkpt><trkpt lat="64.17060852" lon="-21.65493012"><ele>156.3</ele><time>2012-07-18T14:42:55.0000000+00:00</time></trkpt><trkpt lat="64.17059326" lon="-21.65483475"><ele>155.4</ele><time>2012-07-18T14:43:00.0000000+00:00</time></trkpt><trkpt lat="64.17058563" lon="-21.65473557"><ele>154.7</ele><time>2012-07-18T14:43:05.0000000+00:00</time></trkpt><trkpt lat="64.17058563" lon="-21.65466499"><ele>154.0</ele><time>2012-07-18T14:43:10.0000000+00:00</time></trkpt><trkpt lat="64.17055512" lon="-21.65464592"><ele>152.7</ele><time>2012-07-18T14:43:15.0000000+00:00</time></trkpt><trkpt lat="64.17050934" lon="-21.65465736"><ele>151.5</ele><time>2012-07-18T14:43:20.0000000+00:00</time></trkpt><trkpt lat="64.17045593" lon="-21.65466309"><ele>150.2</ele><time>2012-07-18T14:43:25.0000000+00:00</time></trkpt><trkpt lat="64.17040253" lon="-21.65468597"><ele>149.0</ele><time>2012-07-18T14:43:30.0000000+00:00</time></trkpt><trkpt lat="64.17034912" lon="-21.65475845"><ele>147.8</ele><time>2012-07-18T14:43:35.0000000+00:00</time></trkpt><trkpt lat="64.1703186" lon="-21.65477562"><ele>147.6</ele><time>2012-07-18T14:43:40.0000000+00:00</time></trkpt><trkpt lat="64.17027283" lon="-21.65477562"><ele>146.7</ele><time>2012-07-18T14:43:45.0000000+00:00</time></trkpt><trkpt lat="64.17021942" lon="-21.6548214"><ele>146.3</ele><time>2012-07-18T14:43:50.0000000+00:00</time></trkpt><trkpt lat="64.17016602" lon="-21.65481758"><ele>145.8</ele><time>2012-07-18T14:43:55.0000000+00:00</time></trkpt><trkpt lat="64.17016602" lon="-21.65481949"><ele>146.0</ele><time>2012-07-18T14:44:00.0000000+00:00</time></trkpt><trkpt lat="64.17017365" lon="-21.65481758"><ele>145.9</ele><time>2012-07-18T14:44:05.0000000+00:00</time></trkpt><trkpt lat="64.17017365" lon="-21.65481949"><ele>145.3</ele><time>2012-07-18T14:44:10.0000000+00:00</time></trkpt><trkpt lat="64.17017365" lon="-21.65481949"><ele>144.8</ele><time>2012-07-18T14:44:15.0000000+00:00</time></trkpt><trkpt lat="64.17016602" lon="-21.65481949"><ele>144.3</ele><time>2012-07-18T14:44:20.0000000+00:00</time></trkpt><trkpt lat="64.17016602" lon="-21.6548214"><ele>143.9</ele><time>2012-07-18T14:44:25.0000000+00:00</time></trkpt><trkpt lat="64.17016602" lon="-21.6548214"><ele>143.8</ele><time>2012-07-18T14:44:30.0000000+00:00</time></trkpt><trkpt lat="64.17016602" lon="-21.6548214"><ele>143.8</ele><time>2012-07-18T14:44:35.0000000+00:00</time></trkpt><trkpt lat="64.17016602" lon="-21.6548214"><ele>143.8</ele><time>2012-07-18T14:44:40.0000000+00:00</time></trkpt><trkpt lat="64.17016602" lon="-21.65481377"><ele>144.0</ele><time>2012-07-18T14:44:45.0000000+00:00</time></trkpt><trkpt lat="64.1701355" lon="-21.65482521"><ele>144.9</ele><time>2012-07-18T14:44:50.0000000+00:00</time></trkpt><trkpt lat="64.17010498" lon="-21.65483856"><ele>144.9</ele><time>2012-07-18T14:44:55.0000000+00:00</time></trkpt><trkpt lat="64.17006683" lon="-21.65483475"><ele>144.9</ele><time>2012-07-18T14:45:00.0000000+00:00</time></trkpt><trkpt lat="64.17004395" lon="-21.65484428"><ele>144.6</ele><time>2012-07-18T14:45:05.0000000+00:00</time></trkpt><trkpt lat="64.17002106" lon="-21.65486908"><ele>143.6</ele><time>2012-07-18T14:45:10.0000000+00:00</time></trkpt><trkpt lat="64.16998291" lon="-21.65488815"><ele>143.0</ele><time>2012-07-18T14:45:15.0000000+00:00</time></trkpt><trkpt lat="64.16996002" lon="-21.65490723"><ele>142.1</ele><time>2012-07-18T14:45:20.0000000+00:00</time></trkpt><trkpt lat="64.1699295" lon="-21.65492249"><ele>141.4</ele><time>2012-07-18T14:45:25.0000000+00:00</time></trkpt><trkpt lat="64.16989899" lon="-21.65492249"><ele>140.8</ele><time>2012-07-18T14:45:30.0000000+00:00</time></trkpt><trkpt lat="64.16986084" lon="-21.65494156"><ele>139.9</ele><time>2012-07-18T14:45:35.0000000+00:00</time></trkpt><trkpt lat="64.16983032" lon="-21.65491295"><ele>139.6</ele><time>2012-07-18T14:45:40.0000000+00:00</time></trkpt><trkpt lat="64.16979981" lon="-21.65489197"><ele>138.9</ele><time>2012-07-18T14:45:45.0000000+00:00</time></trkpt><trkpt lat="64.16976929" lon="-21.65491295"><ele>138.5</ele><time>2012-07-18T14:45:50.0000000+00:00</time></trkpt><trkpt lat="64.16973877" lon="-21.65492821"><ele>138.0</ele><time>2012-07-18T14:45:55.0000000+00:00</time></trkpt><trkpt lat="64.16970825" lon="-21.65491676"><ele>137.7</ele><time>2012-07-18T14:46:00.0000000+00:00</time></trkpt><trkpt lat="64.16967773" lon="-21.65490151"><ele>137.1</ele><time>2012-07-18T14:46:05.0000000+00:00</time></trkpt><trkpt lat="64.16964722" lon="-21.65490151"><ele>135.8</ele><time>2012-07-18T14:46:10.0000000+00:00</time></trkpt><trkpt lat="64.1696167" lon="-21.6548748"><ele>135.0</ele><time>2012-07-18T14:46:15.0000000+00:00</time></trkpt><trkpt lat="64.16958618" lon="-21.65486145"><ele>134.0</ele><time>2012-07-18T14:46:20.0000000+00:00</time></trkpt><trkpt lat="64.16957092" lon="-21.65482712"><ele>133.3</ele><time>2012-07-18T14:46:25.0000000+00:00</time></trkpt><trkpt lat="64.16954041" lon="-21.65481377"><ele>132.6</ele><time>2012-07-18T14:46:30.0000000+00:00</time></trkpt><trkpt lat="64.16950989" lon="-21.65479851"><ele>131.8</ele><time>2012-07-18T14:46:35.0000000+00:00</time></trkpt><trkpt lat="64.16947174" lon="-21.65478706"><ele>131.1</ele><time>2012-07-18T14:46:40.0000000+00:00</time></trkpt><trkpt lat="64.16944122" lon="-21.65476418"><ele>130.5</ele><time>2012-07-18T14:46:45.0000000+00:00</time></trkpt><trkpt lat="64.16940308" lon="-21.65472984"><ele>130.1</ele><time>2012-07-18T14:46:50.0000000+00:00</time></trkpt><trkpt lat="64.16937256" lon="-21.65471649"><ele>129.8</ele><time>2012-07-18T14:46:55.0000000+00:00</time></trkpt><trkpt lat="64.16934204" lon="-21.65472221"><ele>129.4</ele><time>2012-07-18T14:47:00.0000000+00:00</time></trkpt><trkpt lat="64.16931915" lon="-21.65471649"><ele>128.2</ele><time>2012-07-18T14:47:05.0000000+00:00</time></trkpt><trkpt lat="64.16929627" lon="-21.65467644"><ele>126.3</ele><time>2012-07-18T14:47:10.0000000+00:00</time></trkpt><trkpt lat="64.16926575" lon="-21.65465927"><ele>125.0</ele><time>2012-07-18T14:47:15.0000000+00:00</time></trkpt><trkpt lat="64.16923523" lon="-21.65466309"><ele>124.4</ele><time>2012-07-18T14:47:20.0000000+00:00</time></trkpt><trkpt lat="64.16920471" lon="-21.65465927"><ele>123.0</ele><time>2012-07-18T14:47:25.0000000+00:00</time></trkpt><trkpt lat="64.16917419" lon="-21.65461159"><ele>121.8</ele><time>2012-07-18T14:47:30.0000000+00:00</time></trkpt><trkpt lat="64.16912079" lon="-21.65461159"><ele>119.8</ele><time>2012-07-18T14:47:35.0000000+00:00</time></trkpt><trkpt lat="64.1690979" lon="-21.65466881"><ele>118.5</ele><time>2012-07-18T14:47:40.0000000+00:00</time></trkpt><trkpt lat="64.16907501" lon="-21.65469551"><ele>117.4</ele><time>2012-07-18T14:47:45.0000000+00:00</time></trkpt><trkpt lat="64.16905212" lon="-21.65465546"><ele>115.8</ele><time>2012-07-18T14:47:50.0000000+00:00</time></trkpt><trkpt lat="64.16905212" lon="-21.65476036"><ele>114.5</ele><time>2012-07-18T14:47:55.0000000+00:00</time></trkpt><trkpt lat="64.16902924" lon="-21.65483666"><ele>114.2</ele><time>2012-07-18T14:48:00.0000000+00:00</time></trkpt><trkpt lat="64.16900635" lon="-21.65489197"><ele>113.3</ele><time>2012-07-18T14:48:05.0000000+00:00</time></trkpt><trkpt lat="64.16899872" lon="-21.65479469"><ele>112.7</ele><time>2012-07-18T14:48:10.0000000+00:00</time></trkpt><trkpt lat="64.16898346" lon="-21.65469933"><ele>112.0</ele><time>2012-07-18T14:48:15.0000000+00:00</time></trkpt><trkpt lat="64.16896057" lon="-21.6547451"><ele>111.2</ele><time>2012-07-18T14:48:20.0000000+00:00</time></trkpt><trkpt lat="64.16897583" lon="-21.65482712"><ele>110.6</ele><time>2012-07-18T14:48:25.0000000+00:00</time></trkpt><trkpt lat="64.16897583" lon="-21.65494156"><ele>109.4</ele><time>2012-07-18T14:48:30.0000000+00:00</time></trkpt><trkpt lat="64.16896057" lon="-21.65498924"><ele>109.1</ele><time>2012-07-18T14:48:35.0000000+00:00</time></trkpt><trkpt lat="64.16896057" lon="-21.65498543"><ele>108.9</ele><time>2012-07-18T14:48:40.0000000+00:00</time></trkpt><trkpt lat="64.16895294" lon="-21.65498161"><ele>108.7</ele><time>2012-07-18T14:48:45.0000000+00:00</time></trkpt><trkpt lat="64.16895294" lon="-21.65498352"><ele>108.6</ele><time>2012-07-18T14:48:50.0000000+00:00</time></trkpt><trkpt lat="64.16895294" lon="-21.65498352"><ele>108.6</ele><time>2012-07-18T14:48:55.0000000+00:00</time></trkpt><trkpt lat="64.16895294" lon="-21.65498352"><ele>108.6</ele><time>2012-07-18T14:49:00.0000000+00:00</time></trkpt><trkpt lat="64.16895294" lon="-21.65498352"><ele>108.7</ele><time>2012-07-18T14:49:05.0000000+00:00</time></trkpt><trkpt lat="64.16895294" lon="-21.65498352"><ele>108.7</ele><time>2012-07-18T14:49:10.0000000+00:00</time></trkpt><trkpt lat="64.16895294" lon="-21.65498352"><ele>108.7</ele><time>2012-07-18T14:49:15.0000000+00:00</time></trkpt><trkpt lat="64.16895294" lon="-21.65498352"><ele>108.7</ele><time>2012-07-18T14:49:20.0000000+00:00</time></trkpt><trkpt lat="64.16895294" lon="-21.65498352"><ele>108.7</ele><time>2012-07-18T14:49:25.0000000+00:00</time></trkpt><trkpt lat="64.16895294" lon="-21.65498352"><ele>108.7</ele><time>2012-07-18T14:49:30.0000000+00:00</time></trkpt><trkpt lat="64.16895294" lon="-21.65498352"><ele>108.7</ele><time>2012-07-18T14:49:35.0000000+00:00</time></trkpt><trkpt lat="64.16895294" lon="-21.65498543"><ele>108.7</ele><time>2012-07-18T14:49:40.0000000+00:00</time></trkpt><trkpt lat="64.1689682" lon="-21.65500832"><ele>108.8</ele><time>2012-07-18T14:49:45.0000000+00:00</time></trkpt><trkpt lat="64.1689682" lon="-21.65503883"><ele>108.5</ele><time>2012-07-18T14:49:50.0000000+00:00</time></trkpt><trkpt lat="64.1689682" lon="-21.65504265"><ele>108.5</ele><time>2012-07-18T14:49:55.0000000+00:00</time></trkpt><trkpt lat="64.1689682" lon="-21.65505028"><ele>108.3</ele><time>2012-07-18T14:50:00.0000000+00:00</time></trkpt><trkpt lat="64.16899872" lon="-21.65524292"><ele>107.3</ele><time>2012-07-18T14:50:05.0000000+00:00</time></trkpt><trkpt lat="64.16901398" lon="-21.65549469"><ele>106.5</ele><time>2012-07-18T14:50:10.0000000+00:00</time></trkpt><trkpt lat="64.16900635" lon="-21.65555191"><ele>106.1</ele><time>2012-07-18T14:50:15.0000000+00:00</time></trkpt><trkpt lat="64.16900635" lon="-21.65556145"><ele>105.8</ele><time>2012-07-18T14:50:20.0000000+00:00</time></trkpt><trkpt lat="64.16900635" lon="-21.65556145"><ele>105.8</ele><time>2012-07-18T14:50:25.0000000+00:00</time></trkpt><trkpt lat="64.16900635" lon="-21.65556145"><ele>105.8</ele><time>2012-07-18T14:50:30.0000000+00:00</time></trkpt><trkpt lat="64.16900635" lon="-21.65556145"><ele>105.8</ele><time>2012-07-18T14:50:35.0000000+00:00</time></trkpt><trkpt lat="64.16900635" lon="-21.65556145"><ele>105.8</ele><time>2012-07-18T14:50:40.0000000+00:00</time></trkpt><trkpt lat="64.16900635" lon="-21.65556145"><ele>105.8</ele><time>2012-07-18T14:50:45.0000000+00:00</time></trkpt><trkpt lat="64.1689148" lon="-21.65548706"><ele>105.8</ele><time>2012-07-18T14:50:50.0000000+00:00</time></trkpt><trkpt lat="64.16881561" lon="-21.65546799"><ele>105.1</ele><time>2012-07-18T14:50:55.0000000+00:00</time></trkpt><trkpt lat="64.16873169" lon="-21.65545082"><ele>105.1</ele><time>2012-07-18T14:51:00.0000000+00:00</time></trkpt><trkpt lat="64.16869354" lon="-21.65546417"><ele>104.5</ele><time>2012-07-18T14:51:05.0000000+00:00</time></trkpt><trkpt lat="64.16873169" lon="-21.65551376"><ele>104.3</ele><time>2012-07-18T14:51:10.0000000+00:00</time></trkpt><trkpt lat="64.16877747" lon="-21.65547562"><ele>104.6</ele><time>2012-07-18T14:51:15.0000000+00:00</time></trkpt><trkpt lat="64.16884613" lon="-21.65548515"><ele>105.1</ele><time>2012-07-18T14:51:20.0000000+00:00</time></trkpt><trkpt lat="64.16892242" lon="-21.65549469"><ele>108.3</ele><time>2012-07-18T14:51:25.0000000+00:00</time></trkpt><trkpt lat="64.16897583" lon="-21.65557289"><ele>109.6</ele><time>2012-07-18T14:51:30.0000000+00:00</time></trkpt><trkpt lat="64.16902161" lon="-21.65564156"><ele>110.9</ele><time>2012-07-18T14:51:35.0000000+00:00</time></trkpt><trkpt lat="64.16906738" lon="-21.6557827"><ele>108.9</ele><time>2012-07-18T14:51:40.0000000+00:00</time></trkpt><trkpt lat="64.1690979" lon="-21.65600777"><ele>107.0</ele><time>2012-07-18T14:51:45.0000000+00:00</time></trkpt><trkpt lat="64.16913605" lon="-21.6563549"><ele>106.0</ele><time>2012-07-18T14:51:50.0000000+00:00</time></trkpt><trkpt lat="64.16915894" lon="-21.65672875"><ele>104.0</ele><time>2012-07-18T14:51:55.0000000+00:00</time></trkpt><trkpt lat="64.16919708" lon="-21.65719223"><ele>101.1</ele><time>2012-07-18T14:52:00.0000000+00:00</time></trkpt><trkpt lat="64.16921234" lon="-21.65744019"><ele>100.3</ele><time>2012-07-18T14:52:05.0000000+00:00</time></trkpt><trkpt lat="64.16921997" lon="-21.65746307"><ele>99.3</ele><time>2012-07-18T14:52:10.0000000+00:00</time></trkpt><trkpt lat="64.16921997" lon="-21.65746307"><ele>99.4</ele><time>2012-07-18T14:52:15.0000000+00:00</time></trkpt><trkpt lat="64.16921997" lon="-21.65746689"><ele>99.5</ele><time>2012-07-18T14:52:20.0000000+00:00</time></trkpt><trkpt lat="64.16921997" lon="-21.6574688"><ele>99.5</ele><time>2012-07-18T14:52:25.0000000+00:00</time></trkpt><trkpt lat="64.16921997" lon="-21.6574707"><ele>99.5</ele><time>2012-07-18T14:52:30.0000000+00:00</time></trkpt><trkpt lat="64.16921997" lon="-21.65747643"><ele>99.5</ele><time>2012-07-18T14:52:35.0000000+00:00</time></trkpt><trkpt lat="64.1692276" lon="-21.65747452"><ele>99.4</ele><time>2012-07-18T14:52:40.0000000+00:00</time></trkpt><trkpt lat="64.16921997" lon="-21.65747261"><ele>99.5</ele><time>2012-07-18T14:52:45.0000000+00:00</time></trkpt><trkpt lat="64.1692276" lon="-21.6574707"><ele>99.5</ele><time>2012-07-18T14:52:50.0000000+00:00</time></trkpt><trkpt lat="64.1692276" lon="-21.6574707"><ele>99.5</ele><time>2012-07-18T14:52:55.0000000+00:00</time></trkpt><trkpt lat="64.1692276" lon="-21.6574707"><ele>99.5</ele><time>2012-07-18T14:53:00.0000000+00:00</time></trkpt><trkpt lat="64.1692276" lon="-21.6574707"><ele>99.5</ele><time>2012-07-18T14:53:05.0000000+00:00</time></trkpt><trkpt lat="64.1692276" lon="-21.65748978"><ele>99.5</ele><time>2012-07-18T14:53:10.0000000+00:00</time></trkpt><trkpt lat="64.16925812" lon="-21.65773583"><ele>98.8</ele><time>2012-07-18T14:53:15.0000000+00:00</time></trkpt><trkpt lat="64.16931152" lon="-21.65800858"><ele>98.4</ele><time>2012-07-18T14:53:20.0000000+00:00</time></trkpt><trkpt lat="64.16936493" lon="-21.65838051"><ele>97.3</ele><time>2012-07-18T14:53:25.0000000+00:00</time></trkpt><trkpt lat="64.16941834" lon="-21.65874863"><ele>96.5</ele><time>2012-07-18T14:53:30.0000000+00:00</time></trkpt><trkpt lat="64.16945648" lon="-21.65911293"><ele>94.8</ele><time>2012-07-18T14:53:35.0000000+00:00</time></trkpt><trkpt lat="64.16955566" lon="-21.65964317"><ele>92.7</ele><time>2012-07-18T14:53:40.0000000+00:00</time></trkpt><trkpt lat="64.16956329" lon="-21.6599083"><ele>90.7</ele><time>2012-07-18T14:53:45.0000000+00:00</time></trkpt><trkpt lat="64.16960144" lon="-21.66010857"><ele>89.2</ele><time>2012-07-18T14:53:50.0000000+00:00</time></trkpt><trkpt lat="64.16966248" lon="-21.66028404"><ele>88.4</ele><time>2012-07-18T14:53:55.0000000+00:00</time></trkpt><trkpt lat="64.16972351" lon="-21.66062546"><ele>87.2</ele><time>2012-07-18T14:54:00.0000000+00:00</time></trkpt><trkpt lat="64.1697464" lon="-21.66105652"><ele>85.8</ele><time>2012-07-18T14:54:05.0000000+00:00</time></trkpt><trkpt lat="64.16978455" lon="-21.66148377"><ele>84.9</ele><time>2012-07-18T14:54:10.0000000+00:00</time></trkpt><trkpt lat="64.16983032" lon="-21.66193199"><ele>83.8</ele><time>2012-07-18T14:54:15.0000000+00:00</time></trkpt><trkpt lat="64.16993713" lon="-21.66249085"><ele>82.5</ele><time>2012-07-18T14:54:20.0000000+00:00</time></trkpt><trkpt lat="64.17008209" lon="-21.66320229"><ele>80.9</ele><time>2012-07-18T14:54:25.0000000+00:00</time></trkpt><trkpt lat="64.1701889" lon="-21.66392708"><ele>79.2</ele><time>2012-07-18T14:54:30.0000000+00:00</time></trkpt><trkpt lat="64.17027283" lon="-21.66452789"><ele>78.0</ele><time>2012-07-18T14:54:35.0000000+00:00</time></trkpt><trkpt lat="64.17030335" lon="-21.66501808"><ele>77.2</ele><time>2012-07-18T14:54:40.0000000+00:00</time></trkpt><trkpt lat="64.17035675" lon="-21.66559029"><ele>77.3</ele><time>2012-07-18T14:54:45.0000000+00:00</time></trkpt><trkpt lat="64.17043304" lon="-21.66611862"><ele>75.7</ele><time>2012-07-18T14:54:50.0000000+00:00</time></trkpt><trkpt lat="64.1703949" lon="-21.6668148"><ele>72.3</ele><time>2012-07-18T14:54:55.0000000+00:00</time></trkpt><trkpt lat="64.17047882" lon="-21.66746521"><ele>72.2</ele><time>2012-07-18T14:55:00.0000000+00:00</time></trkpt><trkpt lat="64.17058563" lon="-21.66796875"><ele>72.4</ele><time>2012-07-18T14:55:05.0000000+00:00</time></trkpt><trkpt lat="64.17067719" lon="-21.66856766"><ele>73.1</ele><time>2012-07-18T14:55:10.0000000+00:00</time></trkpt><trkpt lat="64.17074585" lon="-21.66899109"><ele>73.9</ele><time>2012-07-18T14:55:15.0000000+00:00</time></trkpt><trkpt lat="64.17079926" lon="-21.66933823"><ele>74.6</ele><time>2012-07-18T14:55:20.0000000+00:00</time></trkpt><trkpt lat="64.17084503" lon="-21.66959572"><ele>74.2</ele><time>2012-07-18T14:55:25.0000000+00:00</time></trkpt><trkpt lat="64.17093658" lon="-21.67004013"><ele>73.1</ele><time>2012-07-18T14:55:30.0000000+00:00</time></trkpt><trkpt lat="64.17103577" lon="-21.67070389"><ele>70.4</ele><time>2012-07-18T14:55:35.0000000+00:00</time></trkpt><trkpt lat="64.1710968" lon="-21.67137909"><ele>67.7</ele><time>2012-07-18T14:55:40.0000000+00:00</time></trkpt><trkpt lat="64.17115021" lon="-21.67193794"><ele>66.7</ele><time>2012-07-18T14:55:45.0000000+00:00</time></trkpt><trkpt lat="64.17119598" lon="-21.67234802"><ele>65.4</ele><time>2012-07-18T14:55:50.0000000+00:00</time></trkpt><trkpt lat="64.17125702" lon="-21.67243767"><ele>67.6</ele><time>2012-07-18T14:55:55.0000000+00:00</time></trkpt><trkpt lat="64.17132568" lon="-21.6723423"><ele>69.8</ele><time>2012-07-18T14:56:00.0000000+00:00</time></trkpt><trkpt lat="64.17138672" lon="-21.67226791"><ele>71.1</ele><time>2012-07-18T14:56:05.0000000+00:00</time></trkpt><trkpt lat="64.17146301" lon="-21.67217445"><ele>73.8</ele><time>2012-07-18T14:56:10.0000000+00:00</time></trkpt><trkpt lat="64.17153931" lon="-21.67212677"><ele>76.3</ele><time>2012-07-18T14:56:15.0000000+00:00</time></trkpt><trkpt lat="64.1716156" lon="-21.67207527"><ele>78.9</ele><time>2012-07-18T14:56:20.0000000+00:00</time></trkpt><trkpt lat="64.17169952" lon="-21.67201424"><ele>80.3</ele><time>2012-07-18T14:56:25.0000000+00:00</time></trkpt><trkpt lat="64.17180634" lon="-21.67194557"><ele>81.9</ele><time>2012-07-18T14:56:30.0000000+00:00</time></trkpt><trkpt lat="64.17192841" lon="-21.67187309"><ele>83.8</ele><time>2012-07-18T14:56:35.0000000+00:00</time></trkpt><trkpt lat="64.17201996" lon="-21.67180443"><ele>84.5</ele><time>2012-07-18T14:56:40.0000000+00:00</time></trkpt><trkpt lat="64.17214203" lon="-21.67175102"><ele>85.0</ele><time>2012-07-18T14:56:45.0000000+00:00</time></trkpt><trkpt lat="64.17227173" lon="-21.67162323"><ele>84.6</ele><time>2012-07-18T14:56:50.0000000+00:00</time></trkpt><trkpt lat="64.17241669" lon="-21.67148972"><ele>85.2</ele><time>2012-07-18T14:56:55.0000000+00:00</time></trkpt><trkpt lat="64.17256928" lon="-21.67131615"><ele>85.7</ele><time>2012-07-18T14:57:00.0000000+00:00</time></trkpt><trkpt lat="64.1727066" lon="-21.67113495"><ele>85.1</ele><time>2012-07-18T14:57:05.0000000+00:00</time></trkpt><trkpt lat="64.17284393" lon="-21.67093468"><ele>84.8</ele><time>2012-07-18T14:57:10.0000000+00:00</time></trkpt><trkpt lat="64.17298126" lon="-21.67064285"><ele>86.6</ele><time>2012-07-18T14:57:15.0000000+00:00</time></trkpt><trkpt lat="64.17310333" lon="-21.67035866"><ele>88.6</ele><time>2012-07-18T14:57:20.0000000+00:00</time></trkpt><trkpt lat="64.17324066" lon="-21.67007637"><ele>89.7</ele><time>2012-07-18T14:57:25.0000000+00:00</time></trkpt><trkpt lat="64.1733551" lon="-21.66980934"><ele>89.9</ele><time>2012-07-18T14:57:30.0000000+00:00</time></trkpt><trkpt lat="64.17346191" lon="-21.6695385"><ele>88.4</ele><time>2012-07-18T14:57:35.0000000+00:00</time></trkpt><trkpt lat="64.1735611" lon="-21.6693306"><ele>88.0</ele><time>2012-07-18T14:57:40.0000000+00:00</time></trkpt><trkpt lat="64.17364502" lon="-21.66916084"><ele>87.3</ele><time>2012-07-18T14:57:45.0000000+00:00</time></trkpt><trkpt lat="64.17377472" lon="-21.6690445"><ele>87.9</ele><time>2012-07-18T14:57:50.0000000+00:00</time></trkpt><trkpt lat="64.17391968" lon="-21.66889572"><ele>87.7</ele><time>2012-07-18T14:57:55.0000000+00:00</time></trkpt><trkpt lat="64.17406464" lon="-21.66872597"><ele>87.2</ele><time>2012-07-18T14:58:00.0000000+00:00</time></trkpt><trkpt lat="64.17421722" lon="-21.66862106"><ele>88.4</ele><time>2012-07-18T14:58:05.0000000+00:00</time></trkpt><trkpt lat="64.17433167" lon="-21.66851807"><ele>89.3</ele><time>2012-07-18T14:58:10.0000000+00:00</time></trkpt><trkpt lat="64.17444611" lon="-21.66843605"><ele>88.3</ele><time>2012-07-18T14:58:15.0000000+00:00</time></trkpt><trkpt lat="64.17456055" lon="-21.66837883"><ele>87.9</ele><time>2012-07-18T14:58:20.0000000+00:00</time></trkpt><trkpt lat="64.17472076" lon="-21.66828728"><ele>91.7</ele><time>2012-07-18T14:58:25.0000000+00:00</time></trkpt><trkpt lat="64.17485046" lon="-21.66817856"><ele>94.5</ele><time>2012-07-18T14:58:30.0000000+00:00</time></trkpt><trkpt lat="64.17497253" lon="-21.66806603"><ele>94.9</ele><time>2012-07-18T14:58:35.0000000+00:00</time></trkpt><trkpt lat="64.17510986" lon="-21.66797066"><ele>95.6</ele><time>2012-07-18T14:58:40.0000000+00:00</time></trkpt><trkpt lat="64.17523956" lon="-21.66782761"><ele>96.4</ele><time>2012-07-18T14:58:45.0000000+00:00</time></trkpt><trkpt lat="64.17539978" lon="-21.66769409"><ele>96.1</ele><time>2012-07-18T14:58:50.0000000+00:00</time></trkpt><trkpt lat="64.17557526" lon="-21.66760063"><ele>96.8</ele><time>2012-07-18T14:58:55.0000000+00:00</time></trkpt><trkpt lat="64.17575836" lon="-21.66754723"><ele>97.9</ele><time>2012-07-18T14:59:00.0000000+00:00</time></trkpt><trkpt lat="64.17591095" lon="-21.66757393"><ele>98.8</ele><time>2012-07-18T14:59:05.0000000+00:00</time></trkpt><trkpt lat="64.17598724" lon="-21.66768074"><ele>96.4</ele><time>2012-07-18T14:59:10.0000000+00:00</time></trkpt><trkpt lat="64.1760025" lon="-21.66769791"><ele>96.6</ele><time>2012-07-18T14:59:15.0000000+00:00</time></trkpt><trkpt lat="64.1760025" lon="-21.66769791"><ele>96.7</ele><time>2012-07-18T14:59:20.0000000+00:00</time></trkpt><trkpt lat="64.1760025" lon="-21.66769791"><ele>96.6</ele><time>2012-07-18T14:59:25.0000000+00:00</time></trkpt><trkpt lat="64.1760025" lon="-21.667696"><ele>96.6</ele><time>2012-07-18T14:59:30.0000000+00:00</time></trkpt><trkpt lat="64.1760025" lon="-21.667696"><ele>96.6</ele><time>2012-07-18T14:59:35.0000000+00:00</time></trkpt><trkpt lat="64.1760025" lon="-21.667696"><ele>96.5</ele><time>2012-07-18T14:59:40.0000000+00:00</time></trkpt><trkpt lat="64.1760025" lon="-21.667696"><ele>96.6</ele><time>2012-07-18T14:59:45.0000000+00:00</time></trkpt><trkpt lat="64.1760025" lon="-21.66769791"><ele>96.6</ele><time>2012-07-18T14:59:50.0000000+00:00</time></trkpt><trkpt lat="64.1760025" lon="-21.66769791"><ele>96.5</ele><time>2012-07-18T14:59:55.0000000+00:00</time></trkpt><trkpt lat="64.1760025" lon="-21.66769791"><ele>96.5</ele><time>2012-07-18T15:00:00.0000000+00:00</time></trkpt><trkpt lat="64.1760025" lon="-21.66769791"><ele>96.5</ele><time>2012-07-18T15:00:05.0000000+00:00</time></trkpt><trkpt lat="64.1760025" lon="-21.66769791"><ele>96.5</ele><time>2012-07-18T15:00:10.0000000+00:00</time></trkpt><trkpt lat="64.17602539" lon="-21.66774559"><ele>96.0</ele><time>2012-07-18T15:00:15.0000000+00:00</time></trkpt><trkpt lat="64.17617798" lon="-21.66791916"><ele>94.3</ele><time>2012-07-18T15:00:20.0000000+00:00</time></trkpt><trkpt lat="64.17646027" lon="-21.66829872"><ele>91.3</ele><time>2012-07-18T15:00:25.0000000+00:00</time></trkpt><trkpt lat="64.17677307" lon="-21.66868591"><ele>87.2</ele><time>2012-07-18T15:00:30.0000000+00:00</time></trkpt><trkpt lat="64.17709351" lon="-21.66900253"><ele>84.4</ele><time>2012-07-18T15:00:35.0000000+00:00</time></trkpt><trkpt lat="64.17733765" lon="-21.66917038"><ele>81.0</ele><time>2012-07-18T15:00:40.0000000+00:00</time></trkpt><trkpt lat="64.17754364" lon="-21.66921806"><ele>78.5</ele><time>2012-07-18T15:00:45.0000000+00:00</time></trkpt><trkpt lat="64.17773438" lon="-21.66919136"><ele>77.1</ele><time>2012-07-18T15:00:50.0000000+00:00</time></trkpt><trkpt lat="64.17797089" lon="-21.66915512"><ele>74.1</ele><time>2012-07-18T15:00:55.0000000+00:00</time></trkpt><trkpt lat="64.17819214" lon="-21.66911316"><ele>71.8</ele><time>2012-07-18T15:01:00.0000000+00:00</time></trkpt><trkpt lat="64.17831421" lon="-21.66885948"><ele>70.0</ele><time>2012-07-18T15:01:05.0000000+00:00</time></trkpt><trkpt lat="64.17835236" lon="-21.66861343"><ele>69.9</ele><time>2012-07-18T15:01:10.0000000+00:00</time></trkpt><trkpt lat="64.17839813" lon="-21.66835785"><ele>69.4</ele><time>2012-07-18T15:01:15.0000000+00:00</time></trkpt><trkpt lat="64.17840576" lon="-21.66833115"><ele>69.2</ele><time>2012-07-18T15:01:20.0000000+00:00</time></trkpt><trkpt lat="64.17840576" lon="-21.66832924"><ele>69.2</ele><time>2012-07-18T15:01:25.0000000+00:00</time></trkpt><trkpt lat="64.17840576" lon="-21.66832161"><ele>69.2</ele><time>2012-07-18T15:01:30.0000000+00:00</time></trkpt><trkpt lat="64.17842865" lon="-21.66809082"><ele>68.7</ele><time>2012-07-18T15:01:35.0000000+00:00</time></trkpt><trkpt lat="64.1784668" lon="-21.66767311"><ele>67.8</ele><time>2012-07-18T15:01:40.0000000+00:00</time></trkpt><trkpt lat="64.17849731" lon="-21.66715431"><ele>65.2</ele><time>2012-07-18T15:01:45.0000000+00:00</time></trkpt><trkpt lat="64.17853546" lon="-21.66660309"><ele>64.6</ele><time>2012-07-18T15:01:50.0000000+00:00</time></trkpt><trkpt lat="64.17856598" lon="-21.66607857"><ele>63.7</ele><time>2012-07-18T15:01:55.0000000+00:00</time></trkpt><trkpt lat="64.17860413" lon="-21.66558838"><ele>62.7</ele><time>2012-07-18T15:02:00.0000000+00:00</time></trkpt><trkpt lat="64.17864227" lon="-21.66506004"><ele>62.1</ele><time>2012-07-18T15:02:05.0000000+00:00</time></trkpt><trkpt lat="64.17868805" lon="-21.66456986"><ele>62.3</ele><time>2012-07-18T15:02:10.0000000+00:00</time></trkpt><trkpt lat="64.17873383" lon="-21.66414261"><ele>62.9</ele><time>2012-07-18T15:02:15.0000000+00:00</time></trkpt><trkpt lat="64.17878723" lon="-21.66367722"><ele>63.7</ele><time>2012-07-18T15:02:20.0000000+00:00</time></trkpt><trkpt lat="64.17884064" lon="-21.66312981"><ele>64.3</ele><time>2012-07-18T15:02:25.0000000+00:00</time></trkpt><trkpt lat="64.17889404" lon="-21.66254425"><ele>64.0</ele><time>2012-07-18T15:02:30.0000000+00:00</time></trkpt><trkpt lat="64.17896271" lon="-21.66190338"><ele>64.8</ele><time>2012-07-18T15:02:35.0000000+00:00</time></trkpt><trkpt lat="64.17901611" lon="-21.66135216"><ele>65.0</ele><time>2012-07-18T15:02:40.0000000+00:00</time></trkpt><trkpt lat="64.17906189" lon="-21.66090775"><ele>65.5</ele><time>2012-07-18T15:02:45.0000000+00:00</time></trkpt><trkpt lat="64.17910767" lon="-21.66047669"><ele>64.7</ele><time>2012-07-18T15:02:50.0000000+00:00</time></trkpt><trkpt lat="64.17914581" lon="-21.66004562"><ele>64.8</ele><time>2012-07-18T15:02:55.0000000+00:00</time></trkpt><trkpt lat="64.17918396" lon="-21.65963364"><ele>64.6</ele><time>2012-07-18T15:03:00.0000000+00:00</time></trkpt><trkpt lat="64.17921448" lon="-21.65924645"><ele>64.5</ele><time>2012-07-18T15:03:05.0000000+00:00</time></trkpt><trkpt lat="64.179245" lon="-21.65888786"><ele>64.5</ele><time>2012-07-18T15:03:10.0000000+00:00</time></trkpt><trkpt lat="64.17929077" lon="-21.65846634"><ele>64.9</ele><time>2012-07-18T15:03:15.0000000+00:00</time></trkpt><trkpt lat="64.17932129" lon="-21.65803909"><ele>64.8</ele><time>2012-07-18T15:03:20.0000000+00:00</time></trkpt><trkpt lat="64.1793747" lon="-21.65760231"><ele>65.4</ele><time>2012-07-18T15:03:25.0000000+00:00</time></trkpt><trkpt lat="64.17942047" lon="-21.65715981"><ele>66.0</ele><time>2012-07-18T15:03:30.0000000+00:00</time></trkpt><trkpt lat="64.17945862" lon="-21.65678024"><ele>66.2</ele><time>2012-07-18T15:03:35.0000000+00:00</time></trkpt><trkpt lat="64.17948151" lon="-21.6564064"><ele>65.8</ele><time>2012-07-18T15:03:40.0000000+00:00</time></trkpt><trkpt lat="64.17951202" lon="-21.65602684"><ele>65.1</ele><time>2012-07-18T15:03:45.0000000+00:00</time></trkpt><trkpt lat="64.17954254" lon="-21.65563202"><ele>63.8</ele><time>2012-07-18T15:03:50.0000000+00:00</time></trkpt><trkpt lat="64.17956543" lon="-21.65528679"><ele>63.1</ele><time>2012-07-18T15:03:55.0000000+00:00</time></trkpt><trkpt lat="64.17957306" lon="-21.65517616"><ele>63.4</ele><time>2012-07-18T15:04:00.0000000+00:00</time></trkpt><trkpt lat="64.17957306" lon="-21.65517235"><ele>63.4</ele><time>2012-07-18T15:04:05.0000000+00:00</time></trkpt><trkpt lat="64.17957306" lon="-21.65517044"><ele>63.5</ele><time>2012-07-18T15:04:10.0000000+00:00</time></trkpt><trkpt lat="64.17956543" lon="-21.65517044"><ele>63.5</ele><time>2012-07-18T15:04:15.0000000+00:00</time></trkpt><trkpt lat="64.17956543" lon="-21.65517235"><ele>63.4</ele><time>2012-07-18T15:04:20.0000000+00:00</time></trkpt><trkpt lat="64.17957306" lon="-21.65517426"><ele>63.3</ele><time>2012-07-18T15:04:25.0000000+00:00</time></trkpt><trkpt lat="64.17956543" lon="-21.65518189"><ele>63.0</ele><time>2012-07-18T15:04:30.0000000+00:00</time></trkpt><trkpt lat="64.17956543" lon="-21.6551857"><ele>62.8</ele><time>2012-07-18T15:04:35.0000000+00:00</time></trkpt><trkpt lat="64.17956543" lon="-21.6551857"><ele>62.8</ele><time>2012-07-18T15:04:40.0000000+00:00</time></trkpt><trkpt lat="64.17956543" lon="-21.6551857"><ele>62.8</ele><time>2012-07-18T15:04:45.0000000+00:00</time></trkpt><trkpt lat="64.17956543" lon="-21.6551857"><ele>62.8</ele><time>2012-07-18T15:04:50.0000000+00:00</time></trkpt><trkpt lat="64.17956543" lon="-21.6551857"><ele>62.8</ele><time>2012-07-18T15:04:55.0000000+00:00</time></trkpt><trkpt lat="64.17956543" lon="-21.6551857"><ele>62.8</ele><time>2012-07-18T15:05:00.0000000+00:00</time></trkpt><trkpt lat="64.17956543" lon="-21.6551857"><ele>62.8</ele><time>2012-07-18T15:05:05.0000000+00:00</time></trkpt><trkpt lat="64.17956543" lon="-21.6551857"><ele>62.8</ele><time>2012-07-18T15:05:10.0000000+00:00</time></trkpt><trkpt lat="64.17956543" lon="-21.6551857"><ele>62.7</ele><time>2012-07-18T15:05:15.0000000+00:00</time></trkpt><trkpt lat="64.17956543" lon="-21.6551857"><ele>62.7</ele><time>2012-07-18T15:05:20.0000000+00:00</time></trkpt><trkpt lat="64.17956543" lon="-21.65518379"><ele>62.8</ele><time>2012-07-18T15:05:25.0000000+00:00</time></trkpt><trkpt lat="64.17956543" lon="-21.65518379"><ele>62.7</ele><time>2012-07-18T15:05:30.0000000+00:00</time></trkpt><trkpt lat="64.17956543" lon="-21.65516853"><ele>62.7</ele><time>2012-07-18T15:05:35.0000000+00:00</time></trkpt><trkpt lat="64.17957306" lon="-21.65499878"><ele>61.7</ele><time>2012-07-18T15:05:40.0000000+00:00</time></trkpt><trkpt lat="64.17958832" lon="-21.6547451"><ele>60.8</ele><time>2012-07-18T15:05:45.0000000+00:00</time></trkpt><trkpt lat="64.17960358" lon="-21.65444946"><ele>60.4</ele><time>2012-07-18T15:05:50.0000000+00:00</time></trkpt><trkpt lat="64.17961121" lon="-21.65406799"><ele>59.7</ele><time>2012-07-18T15:05:55.0000000+00:00</time></trkpt><trkpt lat="64.17961884" lon="-21.65361977"><ele>59.1</ele><time>2012-07-18T15:06:00.0000000+00:00</time></trkpt><trkpt lat="64.17962647" lon="-21.65314484"><ele>58.7</ele><time>2012-07-18T15:06:05.0000000+00:00</time></trkpt><trkpt lat="64.17963409" lon="-21.65280342"><ele>59.8</ele><time>2012-07-18T15:06:10.0000000+00:00</time></trkpt><trkpt lat="64.17963409" lon="-21.65249443"><ele>61.2</ele><time>2012-07-18T15:06:15.0000000+00:00</time></trkpt><trkpt lat="64.17964172" lon="-21.65216637"><ele>61.7</ele><time>2012-07-18T15:06:20.0000000+00:00</time></trkpt><trkpt lat="64.17966461" lon="-21.65173149"><ele>59.6</ele><time>2012-07-18T15:06:25.0000000+00:00</time></trkpt><trkpt lat="64.17967987" lon="-21.65126419"><ele>58.3</ele><time>2012-07-18T15:06:30.0000000+00:00</time></trkpt><trkpt lat="64.1796875" lon="-21.65073013"><ele>56.5</ele><time>2012-07-18T15:06:35.0000000+00:00</time></trkpt><trkpt lat="64.17969513" lon="-21.6502285"><ele>55.4</ele><time>2012-07-18T15:06:40.0000000+00:00</time></trkpt><trkpt lat="64.1796875" lon="-21.64972687"><ele>54.5</ele><time>2012-07-18T15:06:45.0000000+00:00</time></trkpt><trkpt lat="64.17970276" lon="-21.64912224"><ele>53.3</ele><time>2012-07-18T15:06:50.0000000+00:00</time></trkpt><trkpt lat="64.17975617" lon="-21.64840317"><ele>51.9</ele><time>2012-07-18T15:06:55.0000000+00:00</time></trkpt><trkpt lat="64.17978668" lon="-21.64753151"><ele>50.1</ele><time>2012-07-18T15:07:00.0000000+00:00</time></trkpt><trkpt lat="64.17980957" lon="-21.64663696"><ele>47.0</ele><time>2012-07-18T15:07:05.0000000+00:00</time></trkpt><trkpt lat="64.17984009" lon="-21.6459198"><ele>45.5</ele><time>2012-07-18T15:07:10.0000000+00:00</time></trkpt><trkpt lat="64.17984009" lon="-21.64549828"><ele>43.4</ele><time>2012-07-18T15:07:15.0000000+00:00</time></trkpt><trkpt lat="64.17985535" lon="-21.64520454"><ele>44.9</ele><time>2012-07-18T15:07:20.0000000+00:00</time></trkpt><trkpt lat="64.17986298" lon="-21.64491081"><ele>46.3</ele><time>2012-07-18T15:07:25.0000000+00:00</time></trkpt><trkpt lat="64.17984009" lon="-21.64439201"><ele>44.8</ele><time>2012-07-18T15:07:30.0000000+00:00</time></trkpt><trkpt lat="64.17987824" lon="-21.64413834"><ele>45.8</ele><time>2012-07-18T15:07:35.0000000+00:00</time></trkpt><trkpt lat="64.17988586" lon="-21.64413261"><ele>45.8</ele><time>2012-07-18T15:07:40.0000000+00:00</time></trkpt><trkpt lat="64.17988586" lon="-21.64413261"><ele>46.0</ele><time>2012-07-18T15:07:45.0000000+00:00</time></trkpt><trkpt lat="64.17988586" lon="-21.64413071"><ele>46.1</ele><time>2012-07-18T15:07:50.0000000+00:00</time></trkpt><trkpt lat="64.17988586" lon="-21.64413071"><ele>46.1</ele><time>2012-07-18T15:07:55.0000000+00:00</time></trkpt><trkpt lat="64.17988586" lon="-21.64413071"><ele>46.0</ele><time>2012-07-18T15:08:00.0000000+00:00</time></trkpt><trkpt lat="64.17988586" lon="-21.6441288"><ele>46.1</ele><time>2012-07-18T15:08:05.0000000+00:00</time></trkpt><trkpt lat="64.17988586" lon="-21.64413261"><ele>46.1</ele><time>2012-07-18T15:08:10.0000000+00:00</time></trkpt><trkpt lat="64.17988586" lon="-21.64413261"><ele>46.1</ele><time>2012-07-18T15:08:15.0000000+00:00</time></trkpt><trkpt lat="64.17990875" lon="-21.64404297"><ele>45.7</ele><time>2012-07-18T15:08:20.0000000+00:00</time></trkpt><trkpt lat="64.17995453" lon="-21.64387512"><ele>45.6</ele><time>2012-07-18T15:08:25.0000000+00:00</time></trkpt><trkpt lat="64.17995453" lon="-21.64387894"><ele>46.0</ele><time>2012-07-18T15:08:30.0000000+00:00</time></trkpt><trkpt lat="64.17996216" lon="-21.64387894"><ele>46.2</ele><time>2012-07-18T15:08:35.0000000+00:00</time></trkpt><trkpt lat="64.17996216" lon="-21.64387894"><ele>46.3</ele><time>2012-07-18T15:08:40.0000000+00:00</time></trkpt><trkpt lat="64.17996216" lon="-21.64387894"><ele>46.3</ele><time>2012-07-18T15:08:45.0000000+00:00</time></trkpt><trkpt lat="64.17996216" lon="-21.64387894"><ele>46.3</ele><time>2012-07-18T15:08:50.0000000+00:00</time></trkpt><trkpt lat="64.17996216" lon="-21.64387894"><ele>46.3</ele><time>2012-07-18T15:08:55.0000000+00:00</time></trkpt><trkpt lat="64.17996216" lon="-21.64387894"><ele>46.3</ele><time>2012-07-18T15:09:00.0000000+00:00</time></trkpt><trkpt lat="64.17995453" lon="-21.64388084"><ele>46.3</ele><time>2012-07-18T15:09:05.0000000+00:00</time></trkpt><trkpt lat="64.17995453" lon="-21.64387131"><ele>46.1</ele><time>2012-07-18T15:09:10.0000000+00:00</time></trkpt><trkpt lat="64.17996216" lon="-21.64386368"><ele>46.0</ele><time>2012-07-18T15:09:15.0000000+00:00</time></trkpt><trkpt lat="64.17995453" lon="-21.6438694"><ele>45.5</ele><time>2012-07-18T15:09:20.0000000+00:00</time></trkpt><trkpt lat="64.17995453" lon="-21.6438694"><ele>45.3</ele><time>2012-07-18T15:09:25.0000000+00:00</time></trkpt><trkpt lat="64.17995453" lon="-21.64387131"><ele>45.3</ele><time>2012-07-18T15:09:30.0000000+00:00</time></trkpt><trkpt lat="64.17995453" lon="-21.64387131"><ele>45.3</ele><time>2012-07-18T15:09:35.0000000+00:00</time></trkpt><trkpt lat="64.17995453" lon="-21.64387131"><ele>45.3</ele><time>2012-07-18T15:09:40.0000000+00:00</time></trkpt><trkpt lat="64.17995453" lon="-21.64387131"><ele>45.3</ele><time>2012-07-18T15:09:45.0000000+00:00</time></trkpt><trkpt lat="64.17996979" lon="-21.64378548"><ele>46.0</ele><time>2012-07-18T15:09:50.0000000+00:00</time></trkpt><trkpt lat="64.17998505" lon="-21.64365959"><ele>45.1</ele><time>2012-07-18T15:09:55.0000000+00:00</time></trkpt><trkpt lat="64.18000794" lon="-21.64347076"><ele>44.5</ele><time>2012-07-18T15:10:00.0000000+00:00</time></trkpt><trkpt lat="64.18003082" lon="-21.64319611"><ele>44.2</ele><time>2012-07-18T15:10:05.0000000+00:00</time></trkpt><trkpt lat="64.18006897" lon="-21.64287567"><ele>43.9</ele><time>2012-07-18T15:10:10.0000000+00:00</time></trkpt><trkpt lat="64.18011475" lon="-21.64253426"><ele>43.8</ele><time>2012-07-18T15:10:15.0000000+00:00</time></trkpt><trkpt lat="64.18016052" lon="-21.64216042"><ele>43.8</ele><time>2012-07-18T15:10:20.0000000+00:00</time></trkpt><trkpt lat="64.18017578" lon="-21.64174461"><ele>42.7</ele><time>2012-07-18T15:10:25.0000000+00:00</time></trkpt><trkpt lat="64.18017578" lon="-21.64144516"><ele>43.6</ele><time>2012-07-18T15:10:30.0000000+00:00</time></trkpt><trkpt lat="64.18018341" lon="-21.64120102"><ele>43.9</ele><time>2012-07-18T15:10:35.0000000+00:00</time></trkpt><trkpt lat="64.18018341" lon="-21.6409893"><ele>43.3</ele><time>2012-07-18T15:10:40.0000000+00:00</time></trkpt><trkpt lat="64.18018341" lon="-21.64068985"><ele>44.6</ele><time>2012-07-18T15:10:45.0000000+00:00</time></trkpt><trkpt lat="64.18019104" lon="-21.64038658"><ele>44.9</ele><time>2012-07-18T15:10:50.0000000+00:00</time></trkpt><trkpt lat="64.18019867" lon="-21.64005852"><ele>45.1</ele><time>2012-07-18T15:10:55.0000000+00:00</time></trkpt><trkpt lat="64.18019867" lon="-21.63977242"><ele>44.7</ele><time>2012-07-18T15:11:00.0000000+00:00</time></trkpt><trkpt lat="64.1802063" lon="-21.63948822"><ele>44.6</ele><time>2012-07-18T15:11:05.0000000+00:00</time></trkpt><trkpt lat="64.18021393" lon="-21.63917732"><ele>45.1</ele><time>2012-07-18T15:11:10.0000000+00:00</time></trkpt><trkpt lat="64.18022156" lon="-21.6388607"><ele>45.1</ele><time>2012-07-18T15:11:15.0000000+00:00</time></trkpt><trkpt lat="64.18022156" lon="-21.63852501"><ele>44.7</ele><time>2012-07-18T15:11:20.0000000+00:00</time></trkpt><trkpt lat="64.18022156" lon="-21.63814545"><ele>45.1</ele><time>2012-07-18T15:11:25.0000000+00:00</time></trkpt><trkpt lat="64.18022919" lon="-21.63767052"><ele>45.3</ele><time>2012-07-18T15:11:30.0000000+00:00</time></trkpt><trkpt lat="64.18023682" lon="-21.6371994"><ele>45.1</ele><time>2012-07-18T15:11:35.0000000+00:00</time></trkpt><trkpt lat="64.18025208" lon="-21.63682365"><ele>45.1</ele><time>2012-07-18T15:11:40.0000000+00:00</time></trkpt><trkpt lat="64.18026733" lon="-21.63638306"><ele>46.6</ele><time>2012-07-18T15:11:45.0000000+00:00</time></trkpt><trkpt lat="64.18027496" lon="-21.63586807"><ele>46.5</ele><time>2012-07-18T15:11:50.0000000+00:00</time></trkpt><trkpt lat="64.18028259" lon="-21.63528633"><ele>46.2</ele><time>2012-07-18T15:11:55.0000000+00:00</time></trkpt><trkpt lat="64.18029022" lon="-21.63469505"><ele>45.9</ele><time>2012-07-18T15:12:00.0000000+00:00</time></trkpt><trkpt lat="64.18029022" lon="-21.63412666"><ele>46.2</ele><time>2012-07-18T15:12:05.0000000+00:00</time></trkpt><trkpt lat="64.18030548" lon="-21.63354874"><ele>46.8</ele><time>2012-07-18T15:12:10.0000000+00:00</time></trkpt><trkpt lat="64.18031311" lon="-21.63297272"><ele>47.1</ele><time>2012-07-18T15:12:15.0000000+00:00</time></trkpt><trkpt lat="64.18032837" lon="-21.63236237"><ele>48.3</ele><time>2012-07-18T15:12:20.0000000+00:00</time></trkpt><trkpt lat="64.180336" lon="-21.63186646"><ele>48.6</ele><time>2012-07-18T15:12:25.0000000+00:00</time></trkpt><trkpt lat="64.18035126" lon="-21.63133621"><ele>49.3</ele><time>2012-07-18T15:12:30.0000000+00:00</time></trkpt><trkpt lat="64.18035889" lon="-21.63076782"><ele>49.6</ele><time>2012-07-18T15:12:35.0000000+00:00</time></trkpt><trkpt lat="64.18036652" lon="-21.63027763"><ele>50.1</ele><time>2012-07-18T15:12:40.0000000+00:00</time></trkpt><trkpt lat="64.18036652" lon="-21.62983131"><ele>50.3</ele><time>2012-07-18T15:12:45.0000000+00:00</time></trkpt><trkpt lat="64.18038178" lon="-21.62931442"><ele>50.6</ele><time>2012-07-18T15:12:50.0000000+00:00</time></trkpt><trkpt lat="64.1803894" lon="-21.62882423"><ele>50.2</ele><time>2012-07-18T15:12:55.0000000+00:00</time></trkpt><trkpt lat="64.18039703" lon="-21.62841415"><ele>49.9</ele><time>2012-07-18T15:13:00.0000000+00:00</time></trkpt><trkpt lat="64.18040466" lon="-21.62800598"><ele>49.4</ele><time>2012-07-18T15:13:05.0000000+00:00</time></trkpt><trkpt lat="64.18040466" lon="-21.6276226"><ele>49.1</ele><time>2012-07-18T15:13:10.0000000+00:00</time></trkpt><trkpt lat="64.18041229" lon="-21.62718391"><ele>49.8</ele><time>2012-07-18T15:13:15.0000000+00:00</time></trkpt><trkpt lat="64.18041229" lon="-21.62677383"><ele>49.6</ele><time>2012-07-18T15:13:20.0000000+00:00</time></trkpt><trkpt lat="64.18041229" lon="-21.62628365"><ele>49.2</ele><time>2012-07-18T15:13:25.0000000+00:00</time></trkpt><trkpt lat="64.18041992" lon="-21.62581635"><ele>48.4</ele><time>2012-07-18T15:13:30.0000000+00:00</time></trkpt><trkpt lat="64.18042755" lon="-21.62531281"><ele>48.3</ele><time>2012-07-18T15:13:35.0000000+00:00</time></trkpt><trkpt lat="64.18043518" lon="-21.62479591"><ele>48.3</ele><time>2012-07-18T15:13:40.0000000+00:00</time></trkpt><trkpt lat="64.18043518" lon="-21.62427521"><ele>47.6</ele><time>2012-07-18T15:13:45.0000000+00:00</time></trkpt><trkpt lat="64.18044281" lon="-21.6237278"><ele>47.7</ele><time>2012-07-18T15:13:50.0000000+00:00</time></trkpt><trkpt lat="64.18045807" lon="-21.62320137"><ele>48.3</ele><time>2012-07-18T15:13:55.0000000+00:00</time></trkpt><trkpt lat="64.18045807" lon="-21.62275887"><ele>48.6</ele><time>2012-07-18T15:14:00.0000000+00:00</time></trkpt><trkpt lat="64.1804657" lon="-21.62227821"><ele>49.7</ele><time>2012-07-18T15:14:05.0000000+00:00</time></trkpt><trkpt lat="64.18047333" lon="-21.62176514"><ele>49.5</ele><time>2012-07-18T15:14:10.0000000+00:00</time></trkpt><trkpt lat="64.18048096" lon="-21.62124634"><ele>48.9</ele><time>2012-07-18T15:14:15.0000000+00:00</time></trkpt><trkpt lat="64.18048096" lon="-21.62067604"><ele>48.7</ele><time>2012-07-18T15:14:20.0000000+00:00</time></trkpt><trkpt lat="64.18048096" lon="-21.62020111"><ele>49.2</ele><time>2012-07-18T15:14:25.0000000+00:00</time></trkpt><trkpt lat="64.18048859" lon="-21.61973763"><ele>49.7</ele><time>2012-07-18T15:14:30.0000000+00:00</time></trkpt><trkpt lat="64.18050385" lon="-21.6192379"><ele>51.0</ele><time>2012-07-18T15:14:35.0000000+00:00</time></trkpt><trkpt lat="64.1805191" lon="-21.61870575"><ele>51.1</ele><time>2012-07-18T15:14:40.0000000+00:00</time></trkpt><trkpt lat="64.1805191" lon="-21.6182003"><ele>50.7</ele><time>2012-07-18T15:14:45.0000000+00:00</time></trkpt><trkpt lat="64.18052673" lon="-21.61772728"><ele>50.7</ele><time>2012-07-18T15:14:50.0000000+00:00</time></trkpt><trkpt lat="64.18052673" lon="-21.61719513"><ele>50.6</ele><time>2012-07-18T15:14:55.0000000+00:00</time></trkpt><trkpt lat="64.18052673" lon="-21.61667442"><ele>49.9</ele><time>2012-07-18T15:15:00.0000000+00:00</time></trkpt><trkpt lat="64.18054199" lon="-21.6160965"><ele>49.9</ele><time>2012-07-18T15:15:05.0000000+00:00</time></trkpt><trkpt lat="64.18055725" lon="-21.61552048"><ele>50.0</ele><time>2012-07-18T15:15:10.0000000+00:00</time></trkpt><trkpt lat="64.18056488" lon="-21.61503029"><ele>49.8</ele><time>2012-07-18T15:15:15.0000000+00:00</time></trkpt><trkpt lat="64.18057251" lon="-21.61458969"><ele>50.7</ele><time>2012-07-18T15:15:20.0000000+00:00</time></trkpt><trkpt lat="64.18058014" lon="-21.61415291"><ele>50.8</ele><time>2012-07-18T15:15:25.0000000+00:00</time></trkpt><trkpt lat="64.18058777" lon="-21.61369515"><ele>51.1</ele><time>2012-07-18T15:15:30.0000000+00:00</time></trkpt><trkpt lat="64.1805954" lon="-21.61320496"><ele>50.8</ele><time>2012-07-18T15:15:35.0000000+00:00</time></trkpt><trkpt lat="64.18060303" lon="-21.61270332"><ele>50.5</ele><time>2012-07-18T15:15:40.0000000+00:00</time></trkpt><trkpt lat="64.18061066" lon="-21.61217308"><ele>50.2</ele><time>2012-07-18T15:15:45.0000000+00:00</time></trkpt><trkpt lat="64.18062592" lon="-21.61164665"><ele>49.8</ele><time>2012-07-18T15:15:50.0000000+00:00</time></trkpt><trkpt lat="64.18063355" lon="-21.61123085"><ele>50.3</ele><time>2012-07-18T15:15:55.0000000+00:00</time></trkpt><trkpt lat="64.18064117" lon="-21.61077499"><ele>49.8</ele><time>2012-07-18T15:16:00.0000000+00:00</time></trkpt><trkpt lat="64.18064117" lon="-21.6102581"><ele>49.5</ele><time>2012-07-18T15:16:05.0000000+00:00</time></trkpt><trkpt lat="64.18066406" lon="-21.60971832"><ele>49.0</ele><time>2012-07-18T15:16:10.0000000+00:00</time></trkpt><trkpt lat="64.18067169" lon="-21.60924149"><ele>49.5</ele><time>2012-07-18T15:16:15.0000000+00:00</time></trkpt><trkpt lat="64.18067169" lon="-21.6088028"><ele>49.4</ele><time>2012-07-18T15:16:20.0000000+00:00</time></trkpt><trkpt lat="64.18068695" lon="-21.60838699"><ele>49.4</ele><time>2012-07-18T15:16:25.0000000+00:00</time></trkpt><trkpt lat="64.18069458" lon="-21.60804367"><ele>49.2</ele><time>2012-07-18T15:16:30.0000000+00:00</time></trkpt><trkpt lat="64.18070221" lon="-21.60775757"><ele>50.4</ele><time>2012-07-18T15:16:35.0000000+00:00</time></trkpt><trkpt lat="64.18070221" lon="-21.60738754"><ele>52.2</ele><time>2012-07-18T15:16:40.0000000+00:00</time></trkpt><trkpt lat="64.18071747" lon="-21.60702515"><ele>52.6</ele><time>2012-07-18T15:16:45.0000000+00:00</time></trkpt><trkpt lat="64.1807251" lon="-21.60661316"><ele>53.3</ele><time>2012-07-18T15:16:50.0000000+00:00</time></trkpt><trkpt lat="64.1807251" lon="-21.60618401"><ele>53.4</ele><time>2012-07-18T15:16:55.0000000+00:00</time></trkpt><trkpt lat="64.18073273" lon="-21.60579872"><ele>53.1</ele><time>2012-07-18T15:17:00.0000000+00:00</time></trkpt><trkpt lat="64.1807251" lon="-21.60549355"><ele>52.4</ele><time>2012-07-18T15:17:05.0000000+00:00</time></trkpt><trkpt lat="64.18074036" lon="-21.60523224"><ele>51.7</ele><time>2012-07-18T15:17:10.0000000+00:00</time></trkpt><trkpt lat="64.18074799" lon="-21.60489082"><ele>51.8</ele><time>2012-07-18T15:17:15.0000000+00:00</time></trkpt><trkpt lat="64.18074799" lon="-21.60454369"><ele>52.1</ele><time>2012-07-18T15:17:20.0000000+00:00</time></trkpt><trkpt lat="64.18075562" lon="-21.60424423"><ele>52.1</ele><time>2012-07-18T15:17:25.0000000+00:00</time></trkpt><trkpt lat="64.18076325" lon="-21.60400963"><ele>52.4</ele><time>2012-07-18T15:17:30.0000000+00:00</time></trkpt><trkpt lat="64.18076325" lon="-21.60370445"><ele>52.7</ele><time>2012-07-18T15:17:35.0000000+00:00</time></trkpt><trkpt lat="64.18076325" lon="-21.60347748"><ele>53.0</ele><time>2012-07-18T15:17:40.0000000+00:00</time></trkpt><trkpt lat="64.18077087" lon="-21.60321808"><ele>52.9</ele><time>2012-07-18T15:17:45.0000000+00:00</time></trkpt><trkpt lat="64.18076325" lon="-21.60294533"><ele>52.5</ele><time>2012-07-18T15:17:50.0000000+00:00</time></trkpt><trkpt lat="64.1807785" lon="-21.60267448"><ele>52.4</ele><time>2012-07-18T15:17:55.0000000+00:00</time></trkpt><trkpt lat="64.1807785" lon="-21.60240364"><ele>51.9</ele><time>2012-07-18T15:18:00.0000000+00:00</time></trkpt><trkpt lat="64.1807785" lon="-21.6020813"><ele>51.7</ele><time>2012-07-18T15:18:05.0000000+00:00</time></trkpt><trkpt lat="64.18078613" lon="-21.60172272"><ele>52.2</ele><time>2012-07-18T15:18:10.0000000+00:00</time></trkpt><trkpt lat="64.18079376" lon="-21.60147667"><ele>51.8</ele><time>2012-07-18T15:18:15.0000000+00:00</time></trkpt><trkpt lat="64.18079376" lon="-21.60119057"><ele>51.7</ele><time>2012-07-18T15:18:20.0000000+00:00</time></trkpt><trkpt lat="64.18079376" lon="-21.60083389"><ele>52.1</ele><time>2012-07-18T15:18:25.0000000+00:00</time></trkpt><trkpt lat="64.18079376" lon="-21.60044479"><ele>52.4</ele><time>2012-07-18T15:18:30.0000000+00:00</time></trkpt><trkpt lat="64.18078613" lon="-21.60000992"><ele>53.4</ele><time>2012-07-18T15:18:35.0000000+00:00</time></trkpt><trkpt lat="64.18079376" lon="-21.5995636"><ele>53.2</ele><time>2012-07-18T15:18:40.0000000+00:00</time></trkpt><trkpt lat="64.18078613" lon="-21.59908485"><ele>54.0</ele><time>2012-07-18T15:18:45.0000000+00:00</time></trkpt><trkpt lat="64.1807785" lon="-21.59859657"><ele>54.3</ele><time>2012-07-18T15:18:50.0000000+00:00</time></trkpt><trkpt lat="64.18076325" lon="-21.59809113"><ele>54.6</ele><time>2012-07-18T15:18:55.0000000+00:00</time></trkpt><trkpt lat="64.18074036" lon="-21.5975914"><ele>54.2</ele><time>2012-07-18T15:19:00.0000000+00:00</time></trkpt><trkpt lat="64.18070984" lon="-21.59705925"><ele>54.1</ele><time>2012-07-18T15:19:05.0000000+00:00</time></trkpt><trkpt lat="64.18067169" lon="-21.59653282"><ele>55.1</ele><time>2012-07-18T15:19:10.0000000+00:00</time></trkpt><trkpt lat="64.18065643" lon="-21.5960331"><ele>55.7</ele><time>2012-07-18T15:19:15.0000000+00:00</time></trkpt><trkpt lat="64.18062592" lon="-21.59556961"><ele>56.2</ele><time>2012-07-18T15:19:20.0000000+00:00</time></trkpt><trkpt lat="64.18060303" lon="-21.59520149"><ele>57.2</ele><time>2012-07-18T15:19:25.0000000+00:00</time></trkpt><trkpt lat="64.18058777" lon="-21.59483528"><ele>57.9</ele><time>2012-07-18T15:19:30.0000000+00:00</time></trkpt><trkpt lat="64.18055725" lon="-21.59442329"><ele>58.3</ele><time>2012-07-18T15:19:35.0000000+00:00</time></trkpt><trkpt lat="64.18054199" lon="-21.59409142"><ele>59.1</ele><time>2012-07-18T15:19:40.0000000+00:00</time></trkpt><trkpt lat="64.18053436" lon="-21.59381294"><ele>60.0</ele><time>2012-07-18T15:19:45.0000000+00:00</time></trkpt><trkpt lat="64.1805191" lon="-21.5935173"><ele>60.9</ele><time>2012-07-18T15:19:50.0000000+00:00</time></trkpt><trkpt lat="64.18049622" lon="-21.59323692"><ele>61.7</ele><time>2012-07-18T15:19:55.0000000+00:00</time></trkpt><trkpt lat="64.18048096" lon="-21.59297943"><ele>62.7</ele><time>2012-07-18T15:20:00.0000000+00:00</time></trkpt><trkpt lat="64.18047333" lon="-21.5927105"><ele>63.7</ele><time>2012-07-18T15:20:05.0000000+00:00</time></trkpt><trkpt lat="64.18045807" lon="-21.59241295"><ele>64.6</ele><time>2012-07-18T15:20:10.0000000+00:00</time></trkpt><trkpt lat="64.18045807" lon="-21.59210968"><ele>65.5</ele><time>2012-07-18T15:20:15.0000000+00:00</time></trkpt><trkpt lat="64.18045807" lon="-21.5917778"><ele>66.4</ele><time>2012-07-18T15:20:20.0000000+00:00</time></trkpt><trkpt lat="64.18045044" lon="-21.5915432"><ele>66.8</ele><time>2012-07-18T15:20:25.0000000+00:00</time></trkpt><trkpt lat="64.18044281" lon="-21.59129143"><ele>66.9</ele><time>2012-07-18T15:20:30.0000000+00:00</time></trkpt><trkpt lat="64.18044281" lon="-21.59103775"><ele>67.8</ele><time>2012-07-18T15:20:35.0000000+00:00</time></trkpt><trkpt lat="64.18045044" lon="-21.59087753"><ele>67.6</ele><time>2012-07-18T15:20:40.0000000+00:00</time></trkpt><trkpt lat="64.18043518" lon="-21.59080124"><ele>67.8</ele><time>2012-07-18T15:20:45.0000000+00:00</time></trkpt><trkpt lat="64.18044281" lon="-21.59078407"><ele>67.9</ele><time>2012-07-18T15:20:50.0000000+00:00</time></trkpt><trkpt lat="64.18045807" lon="-21.59072304"><ele>67.0</ele><time>2012-07-18T15:20:55.0000000+00:00</time></trkpt><trkpt lat="64.18048096" lon="-21.59055901"><ele>65.5</ele><time>2012-07-18T15:21:00.0000000+00:00</time></trkpt><trkpt lat="64.18048859" lon="-21.59025383"><ele>65.5</ele><time>2012-07-18T15:21:05.0000000+00:00</time></trkpt><trkpt lat="64.18049622" lon="-21.58991623"><ele>65.0</ele><time>2012-07-18T15:21:10.0000000+00:00</time></trkpt><trkpt lat="64.18050385" lon="-21.58953095"><ele>64.6</ele><time>2012-07-18T15:21:15.0000000+00:00</time></trkpt><trkpt lat="64.18052673" lon="-21.58911324"><ele>64.4</ele><time>2012-07-18T15:21:20.0000000+00:00</time></trkpt><trkpt lat="64.18054199" lon="-21.58874512"><ele>64.6</ele><time>2012-07-18T15:21:25.0000000+00:00</time></trkpt><trkpt lat="64.18056488" lon="-21.58833313"><ele>65.2</ele><time>2012-07-18T15:21:30.0000000+00:00</time></trkpt><trkpt lat="64.1805954" lon="-21.58794594"><ele>65.5</ele><time>2012-07-18T15:21:35.0000000+00:00</time></trkpt><trkpt lat="64.18062592" lon="-21.58758736"><ele>66.9</ele><time>2012-07-18T15:21:40.0000000+00:00</time></trkpt><trkpt lat="64.18065643" lon="-21.58725166"><ele>67.8</ele><time>2012-07-18T15:21:45.0000000+00:00</time></trkpt><trkpt lat="64.18069458" lon="-21.58694267"><ele>68.6</ele><time>2012-07-18T15:21:50.0000000+00:00</time></trkpt><trkpt lat="64.1807251" lon="-21.5866375"><ele>69.4</ele><time>2012-07-18T15:21:55.0000000+00:00</time></trkpt><trkpt lat="64.18075562" lon="-21.58634567"><ele>70.4</ele><time>2012-07-18T15:22:00.0000000+00:00</time></trkpt><trkpt lat="64.18079376" lon="-21.5860424"><ele>70.9</ele><time>2012-07-18T15:22:05.0000000+00:00</time></trkpt><trkpt lat="64.18083954" lon="-21.58575058"><ele>71.7</ele><time>2012-07-18T15:22:10.0000000+00:00</time></trkpt><trkpt lat="64.18087769" lon="-21.58547211"><ele>72.9</ele><time>2012-07-18T15:22:15.0000000+00:00</time></trkpt><trkpt lat="64.18092346" lon="-21.58519173"><ele>73.6</ele><time>2012-07-18T15:22:20.0000000+00:00</time></trkpt><trkpt lat="64.18096924" lon="-21.58490181"><ele>74.7</ele><time>2012-07-18T15:22:25.0000000+00:00</time></trkpt><trkpt lat="64.18102264" lon="-21.58461571"><ele>75.9</ele><time>2012-07-18T15:22:30.0000000+00:00</time></trkpt><trkpt lat="64.18106842" lon="-21.58436012"><ele>76.6</ele><time>2012-07-18T15:22:35.0000000+00:00</time></trkpt><trkpt lat="64.1811142" lon="-21.58408165"><ele>77.0</ele><time>2012-07-18T15:22:40.0000000+00:00</time></trkpt><trkpt lat="64.18114471" lon="-21.58388138"><ele>76.9</ele><time>2012-07-18T15:22:45.0000000+00:00</time></trkpt><trkpt lat="64.1811676" lon="-21.5837307"><ele>77.3</ele><time>2012-07-18T15:22:50.0000000+00:00</time></trkpt><trkpt lat="64.18121338" lon="-21.58350372"><ele>77.5</ele><time>2012-07-18T15:22:55.0000000+00:00</time></trkpt><trkpt lat="64.18126679" lon="-21.58325577"><ele>77.8</ele><time>2012-07-18T15:23:00.0000000+00:00</time></trkpt><trkpt lat="64.1812439" lon="-21.58298683"><ele>78.2</ele><time>2012-07-18T15:23:05.0000000+00:00</time></trkpt><trkpt lat="64.18117523" lon="-21.58315277"><ele>78.1</ele><time>2012-07-18T15:23:10.0000000+00:00</time></trkpt><trkpt lat="64.18113709" lon="-21.58322907"><ele>77.9</ele><time>2012-07-18T15:23:15.0000000+00:00</time></trkpt><trkpt lat="64.18113709" lon="-21.58322907"><ele>78.0</ele><time>2012-07-18T15:23:20.0000000+00:00</time></trkpt><trkpt lat="64.18113709" lon="-21.58323288"><ele>78.0</ele><time>2012-07-18T15:23:25.0000000+00:00</time></trkpt><trkpt lat="64.18113709" lon="-21.58323288"><ele>78.0</ele><time>2012-07-18T15:23:30.0000000+00:00</time></trkpt><trkpt lat="64.18113709" lon="-21.58323479"><ele>78.1</ele><time>2012-07-18T15:23:35.0000000+00:00</time></trkpt><trkpt lat="64.18112946" lon="-21.58327675"><ele>78.0</ele><time>2012-07-18T15:23:40.0000000+00:00</time></trkpt><trkpt lat="64.1811676" lon="-21.58333588"><ele>77.7</ele><time>2012-07-18T15:23:45.0000000+00:00</time></trkpt><trkpt lat="64.1811676" lon="-21.58333015"><ele>77.3</ele><time>2012-07-18T15:23:50.0000000+00:00</time></trkpt><trkpt lat="64.18117523" lon="-21.58333015"><ele>77.1</ele><time>2012-07-18T15:23:55.0000000+00:00</time></trkpt><trkpt lat="64.18117523" lon="-21.58333015"><ele>77.1</ele><time>2012-07-18T15:24:00.0000000+00:00</time></trkpt><trkpt lat="64.18117523" lon="-21.58333015"><ele>77.1</ele><time>2012-07-18T15:24:05.0000000+00:00</time></trkpt><trkpt lat="64.18117523" lon="-21.58333206"><ele>77.1</ele><time>2012-07-18T15:24:10.0000000+00:00</time></trkpt><trkpt lat="64.18117523" lon="-21.58333778"><ele>77.3</ele><time>2012-07-18T15:24:15.0000000+00:00</time></trkpt><trkpt lat="64.18119049" lon="-21.58330345"><ele>78.0</ele><time>2012-07-18T15:24:20.0000000+00:00</time></trkpt><trkpt lat="64.18115234" lon="-21.58326912"><ele>76.3</ele><time>2012-07-18T15:24:25.0000000+00:00</time></trkpt><trkpt lat="64.18113709" lon="-21.58322716"><ele>76.0</ele><time>2012-07-18T15:24:30.0000000+00:00</time></trkpt><trkpt lat="64.18113709" lon="-21.58322716"><ele>75.7</ele><time>2012-07-18T15:24:35.0000000+00:00</time></trkpt><trkpt lat="64.18112946" lon="-21.58322716"><ele>75.6</ele><time>2012-07-18T15:24:40.0000000+00:00</time></trkpt><trkpt lat="64.18112946" lon="-21.58322525"><ele>75.7</ele><time>2012-07-18T15:24:45.0000000+00:00</time></trkpt><trkpt lat="64.18112946" lon="-21.58322525"><ele>75.7</ele><time>2012-07-18T15:24:50.0000000+00:00</time></trkpt><trkpt lat="64.18112946" lon="-21.58322525"><ele>75.7</ele><time>2012-07-18T15:24:55.0000000+00:00</time></trkpt><trkpt lat="64.18112946" lon="-21.58322525"><ele>75.7</ele><time>2012-07-18T15:25:00.0000000+00:00</time></trkpt><trkpt lat="64.18112946" lon="-21.58322525"><ele>75.7</ele><time>2012-07-18T15:25:05.0000000+00:00</time></trkpt><trkpt lat="64.18112946" lon="-21.58322525"><ele>75.7</ele><time>2012-07-18T15:25:10.0000000+00:00</time></trkpt><trkpt lat="64.18112946" lon="-21.58322525"><ele>75.7</ele><time>2012-07-18T15:25:15.0000000+00:00</time></trkpt><trkpt lat="64.18112946" lon="-21.58322525"><ele>75.7</ele><time>2012-07-18T15:25:20.0000000+00:00</time></trkpt><trkpt lat="64.18112946" lon="-21.58322716"><ele>75.6</ele><time>2012-07-18T15:25:25.0000000+00:00</time></trkpt><trkpt lat="64.18112946" lon="-21.58322716"><ele>75.6</ele><time>2012-07-18T15:25:30.0000000+00:00</time></trkpt><trkpt lat="64.18112946" lon="-21.58322716"><ele>75.6</ele><time>2012-07-18T15:25:35.0000000+00:00</time></trkpt><trkpt lat="64.18112946" lon="-21.58322716"><ele>75.6</ele><time>2012-07-18T15:25:40.0000000+00:00</time></trkpt><trkpt lat="64.18112946" lon="-21.58322716"><ele>75.6</ele><time>2012-07-18T15:25:45.0000000+00:00</time></trkpt><trkpt lat="64.18112946" lon="-21.58322716"><ele>75.6</ele><time>2012-07-18T15:25:50.0000000+00:00</time></trkpt><trkpt lat="64.18112946" lon="-21.58322716"><ele>75.5</ele><time>2012-07-18T15:25:55.0000000+00:00</time></trkpt><trkpt lat="64.18112946" lon="-21.58322716"><ele>75.5</ele><time>2012-07-18T15:26:00.0000000+00:00</time></trkpt><trkpt lat="64.18112946" lon="-21.58322716"><ele>75.5</ele><time>2012-07-18T15:26:05.0000000+00:00</time></trkpt><trkpt lat="64.18112946" lon="-21.58322716"><ele>75.5</ele><time>2012-07-18T15:26:10.0000000+00:00</time></trkpt><trkpt lat="64.18112946" lon="-21.58322716"><ele>75.5</ele><time>2012-07-18T15:26:15.0000000+00:00</time></trkpt><trkpt lat="64.18112946" lon="-21.58322716"><ele>75.6</ele><time>2012-07-18T15:26:20.0000000+00:00</time></trkpt><trkpt lat="64.18112946" lon="-21.58322716"><ele>75.6</ele><time>2012-07-18T15:26:25.0000000+00:00</time></trkpt><trkpt lat="64.18112946" lon="-21.58322716"><ele>75.6</ele><time>2012-07-18T15:26:30.0000000+00:00</time></trkpt><trkpt lat="64.18112946" lon="-21.58322716"><ele>75.6</ele><time>2012-07-18T15:26:35.0000000+00:00</time></trkpt><trkpt lat="64.18112946" lon="-21.58322716"><ele>75.6</ele><time>2012-07-18T15:26:40.0000000+00:00</time></trkpt><trkpt lat="64.18112946" lon="-21.58322716"><ele>75.6</ele><time>2012-07-18T15:26:45.0000000+00:00</time></trkpt><trkpt lat="64.18112946" lon="-21.58322716"><ele>75.6</ele><time>2012-07-18T15:26:50.0000000+00:00</time></trkpt><trkpt lat="64.18112946" lon="-21.58322716"><ele>75.6</ele><time>2012-07-18T15:26:55.0000000+00:00</time></trkpt><trkpt lat="64.18112946" lon="-21.58322716"><ele>75.6</ele><time>2012-07-18T15:27:00.0000000+00:00</time></trkpt><trkpt lat="64.18112946" lon="-21.58322716"><ele>75.6</ele><time>2012-07-18T15:27:05.0000000+00:00</time></trkpt><trkpt lat="64.18112946" lon="-21.58322716"><ele>75.6</ele><time>2012-07-18T15:27:10.0000000+00:00</time></trkpt><trkpt lat="64.18112946" lon="-21.58322716"><ele>75.6</ele><time>2012-07-18T15:27:15.0000000+00:00</time></trkpt><trkpt lat="64.18112946" lon="-21.58322716"><ele>75.6</ele><time>2012-07-18T15:27:20.0000000+00:00</time></trkpt><trkpt lat="64.18112946" lon="-21.58322716"><ele>75.6</ele><time>2012-07-18T15:27:25.0000000+00:00</time></trkpt><trkpt lat="64.18112946" lon="-21.58322525"><ele>75.7</ele><time>2012-07-18T15:27:30.0000000+00:00</time></trkpt><trkpt lat="64.18112946" lon="-21.58322716"><ele>75.7</ele><time>2012-07-18T15:27:35.0000000+00:00</time></trkpt><trkpt lat="64.18112946" lon="-21.58322716"><ele>75.7</ele><time>2012-07-18T15:27:40.0000000+00:00</time></trkpt><trkpt lat="64.18112946" lon="-21.58322716"><ele>75.6</ele><time>2012-07-18T15:27:45.0000000+00:00</time></trkpt><trkpt lat="64.18112946" lon="-21.58322716"><ele>75.6</ele><time>2012-07-18T15:27:50.0000000+00:00</time></trkpt><trkpt lat="64.18112946" lon="-21.58322716"><ele>75.7</ele><time>2012-07-18T15:27:55.0000000+00:00</time></trkpt><trkpt lat="64.18112946" lon="-21.58322716"><ele>75.7</ele><time>2012-07-18T15:28:00.0000000+00:00</time></trkpt><trkpt lat="64.18112946" lon="-21.58322716"><ele>75.7</ele><time>2012-07-18T15:28:05.0000000+00:00</time></trkpt><trkpt lat="64.18113709" lon="-21.58320427"><ele>75.9</ele><time>2012-07-18T15:28:10.0000000+00:00</time></trkpt><trkpt lat="64.18118286" lon="-21.58305359"><ele>77.2</ele><time>2012-07-18T15:28:15.0000000+00:00</time></trkpt><trkpt lat="64.18122101" lon="-21.58288193"><ele>78.5</ele><time>2012-07-18T15:28:20.0000000+00:00</time></trkpt><trkpt lat="64.18125153" lon="-21.58281899"><ele>78.1</ele><time>2012-07-18T15:28:25.0000000+00:00</time></trkpt><trkpt lat="64.18123627" lon="-21.58268166"><ele>77.6</ele><time>2012-07-18T15:28:30.0000000+00:00</time></trkpt><trkpt lat="64.1811676" lon="-21.58235741"><ele>79.4</ele><time>2012-07-18T15:28:35.0000000+00:00</time></trkpt><trkpt lat="64.18112183" lon="-21.58215332"><ele>80.5</ele><time>2012-07-18T15:28:40.0000000+00:00</time></trkpt><trkpt lat="64.18107605" lon="-21.58210945"><ele>80.9</ele><time>2012-07-18T15:28:45.0000000+00:00</time></trkpt><trkpt lat="64.18112183" lon="-21.58216476"><ele>80.6</ele><time>2012-07-18T15:28:50.0000000+00:00</time></trkpt><trkpt lat="64.18119049" lon="-21.58249092"><ele>79.1</ele><time>2012-07-18T15:28:55.0000000+00:00</time></trkpt><trkpt lat="64.18126679" lon="-21.58276939"><ele>78.2</ele><time>2012-07-18T15:29:00.0000000+00:00</time></trkpt><trkpt lat="64.18126679" lon="-21.58275223"><ele>77.7</ele><time>2012-07-18T15:29:05.0000000+00:00</time></trkpt><trkpt lat="64.18126679" lon="-21.58275604"><ele>77.8</ele><time>2012-07-18T15:29:10.0000000+00:00</time></trkpt><trkpt lat="64.18127441" lon="-21.5827713"><ele>77.9</ele><time>2012-07-18T15:29:15.0000000+00:00</time></trkpt><trkpt lat="64.18128967" lon="-21.58286667"><ele>78.3</ele><time>2012-07-18T15:29:20.0000000+00:00</time></trkpt><trkpt lat="64.18133545" lon="-21.58292198"><ele>77.6</ele><time>2012-07-18T15:29:25.0000000+00:00</time></trkpt><trkpt lat="64.1813736" lon="-21.58276177"><ele>77.4</ele><time>2012-07-18T15:29:30.0000000+00:00</time></trkpt><trkpt lat="64.18140411" lon="-21.58256912"><ele>77.4</ele><time>2012-07-18T15:29:35.0000000+00:00</time></trkpt><trkpt lat="64.18143463" lon="-21.58239365"><ele>77.5</ele><time>2012-07-18T15:29:40.0000000+00:00</time></trkpt><trkpt lat="64.18146515" lon="-21.58223152"><ele>78.1</ele><time>2012-07-18T15:29:45.0000000+00:00</time></trkpt><trkpt lat="64.1815033" lon="-21.58210945"><ele>78.8</ele><time>2012-07-18T15:29:50.0000000+00:00</time></trkpt><trkpt lat="64.18153381" lon="-21.5819397"><ele>79.3</ele><time>2012-07-18T15:29:55.0000000+00:00</time></trkpt><trkpt lat="64.1815567" lon="-21.58179092"><ele>80.6</ele><time>2012-07-18T15:30:00.0000000+00:00</time></trkpt><trkpt lat="64.18159485" lon="-21.58159828"><ele>82.8</ele><time>2012-07-18T15:30:05.0000000+00:00</time></trkpt><trkpt lat="64.18161774" lon="-21.58149338"><ele>83.5</ele><time>2012-07-18T15:30:10.0000000+00:00</time></trkpt><trkpt lat="64.18164825" lon="-21.58136177"><ele>84.5</ele><time>2012-07-18T15:30:15.0000000+00:00</time></trkpt><trkpt lat="64.18167877" lon="-21.58118057"><ele>85.3</ele><time>2012-07-18T15:30:20.0000000+00:00</time></trkpt><trkpt lat="64.18170929" lon="-21.58105469"><ele>85.9</ele><time>2012-07-18T15:30:25.0000000+00:00</time></trkpt><trkpt lat="64.18173218" lon="-21.58092499"><ele>86.3</ele><time>2012-07-18T15:30:30.0000000+00:00</time></trkpt><trkpt lat="64.18175507" lon="-21.58075333"><ele>86.6</ele><time>2012-07-18T15:30:35.0000000+00:00</time></trkpt><trkpt lat="64.18178558" lon="-21.580616"><ele>87.0</ele><time>2012-07-18T15:30:40.0000000+00:00</time></trkpt><trkpt lat="64.18180847" lon="-21.58045006"><ele>87.3</ele><time>2012-07-18T15:30:45.0000000+00:00</time></trkpt><trkpt lat="64.18183899" lon="-21.58029366"><ele>87.9</ele><time>2012-07-18T15:30:50.0000000+00:00</time></trkpt><trkpt lat="64.18186188" lon="-21.58011818"><ele>88.1</ele><time>2012-07-18T15:30:55.0000000+00:00</time></trkpt><trkpt lat="64.18188477" lon="-21.579916"><ele>88.4</ele><time>2012-07-18T15:31:00.0000000+00:00</time></trkpt><trkpt lat="64.18191528" lon="-21.57966995"><ele>89.1</ele><time>2012-07-18T15:31:05.0000000+00:00</time></trkpt><trkpt lat="64.1819458" lon="-21.57941055"><ele>90.2</ele><time>2012-07-18T15:31:10.0000000+00:00</time></trkpt><trkpt lat="64.18198395" lon="-21.57913399"><ele>91.1</ele><time>2012-07-18T15:31:15.0000000+00:00</time></trkpt><trkpt lat="64.1820221" lon="-21.57885742"><ele>91.8</ele><time>2012-07-18T15:31:20.0000000+00:00</time></trkpt><trkpt lat="64.18205261" lon="-21.57857323"><ele>92.5</ele><time>2012-07-18T15:31:25.0000000+00:00</time></trkpt><trkpt lat="64.18209076" lon="-21.57825279"><ele>93.3</ele><time>2012-07-18T15:31:30.0000000+00:00</time></trkpt><trkpt lat="64.18211365" lon="-21.57801056"><ele>93.8</ele><time>2012-07-18T15:31:35.0000000+00:00</time></trkpt><trkpt lat="64.18214417" lon="-21.57768822"><ele>94.9</ele><time>2012-07-18T15:31:40.0000000+00:00</time></trkpt><trkpt lat="64.18216705" lon="-21.57736397"><ele>95.8</ele><time>2012-07-18T15:31:45.0000000+00:00</time></trkpt><trkpt lat="64.18219757" lon="-21.57702255"><ele>96.9</ele><time>2012-07-18T15:31:50.0000000+00:00</time></trkpt><trkpt lat="64.18222046" lon="-21.57668877"><ele>97.0</ele><time>2012-07-18T15:31:55.0000000+00:00</time></trkpt><trkpt lat="64.18225098" lon="-21.5763607"><ele>97.7</ele><time>2012-07-18T15:32:00.0000000+00:00</time></trkpt><trkpt lat="64.18228149" lon="-21.57603073"><ele>98.5</ele><time>2012-07-18T15:32:05.0000000+00:00</time></trkpt><trkpt lat="64.18231201" lon="-21.57568359"><ele>99.4</ele><time>2012-07-18T15:32:10.0000000+00:00</time></trkpt><trkpt lat="64.1823349" lon="-21.57546997"><ele>99.1</ele><time>2012-07-18T15:32:15.0000000+00:00</time></trkpt><trkpt lat="64.18234253" lon="-21.57535362"><ele>99.1</ele><time>2012-07-18T15:32:20.0000000+00:00</time></trkpt><trkpt lat="64.18237305" lon="-21.57508469"><ele>99.3</ele><time>2012-07-18T15:32:25.0000000+00:00</time></trkpt><trkpt lat="64.18241119" lon="-21.57476234"><ele>99.9</ele><time>2012-07-18T15:32:30.0000000+00:00</time></trkpt><trkpt lat="64.18244934" lon="-21.57444763"><ele>100.7</ele><time>2012-07-18T15:32:35.0000000+00:00</time></trkpt><trkpt lat="64.18247986" lon="-21.57413101"><ele>101.0</ele><time>2012-07-18T15:32:40.0000000+00:00</time></trkpt><trkpt lat="64.18252564" lon="-21.57380867"><ele>101.5</ele><time>2012-07-18T15:32:45.0000000+00:00</time></trkpt><trkpt lat="64.18257141" lon="-21.57348251"><ele>101.4</ele><time>2012-07-18T15:32:50.0000000+00:00</time></trkpt><trkpt lat="64.18261719" lon="-21.57313538"><ele>101.4</ele><time>2012-07-18T15:32:55.0000000+00:00</time></trkpt><trkpt lat="64.18267059" lon="-21.57278442"><ele>101.4</ele><time>2012-07-18T15:33:00.0000000+00:00</time></trkpt><trkpt lat="64.18270874" lon="-21.5725193"><ele>101.4</ele><time>2012-07-18T15:33:05.0000000+00:00</time></trkpt><trkpt lat="64.18277741" lon="-21.57222939"><ele>102.5</ele><time>2012-07-18T15:33:10.0000000+00:00</time></trkpt><trkpt lat="64.18282318" lon="-21.57188988"><ele>102.9</ele><time>2012-07-18T15:33:15.0000000+00:00</time></trkpt><trkpt lat="64.18289185" lon="-21.5715332"><ele>103.5</ele><time>2012-07-18T15:33:20.0000000+00:00</time></trkpt><trkpt lat="64.18296051" lon="-21.57116509"><ele>103.8</ele><time>2012-07-18T15:33:25.0000000+00:00</time></trkpt><trkpt lat="64.18302918" lon="-21.570858"><ele>104.3</ele><time>2012-07-18T15:33:30.0000000+00:00</time></trkpt><trkpt lat="64.1831131" lon="-21.57049561"><ele>104.5</ele><time>2012-07-18T15:33:35.0000000+00:00</time></trkpt><trkpt lat="64.18319702" lon="-21.57013893"><ele>104.9</ele><time>2012-07-18T15:33:40.0000000+00:00</time></trkpt><trkpt lat="64.18327332" lon="-21.56982994"><ele>104.9</ele><time>2012-07-18T15:33:45.0000000+00:00</time></trkpt><trkpt lat="64.18335724" lon="-21.56948853"><ele>105.3</ele><time>2012-07-18T15:33:50.0000000+00:00</time></trkpt><trkpt lat="64.18345642" lon="-21.56912613"><ele>105.7</ele><time>2012-07-18T15:33:55.0000000+00:00</time></trkpt><trkpt lat="64.18354797" lon="-21.56880188"><ele>106.0</ele><time>2012-07-18T15:34:00.0000000+00:00</time></trkpt><trkpt lat="64.18363953" lon="-21.56848145"><ele>106.5</ele><time>2012-07-18T15:34:05.0000000+00:00</time></trkpt><trkpt lat="64.18373108" lon="-21.56811905"><ele>107.0</ele><time>2012-07-18T15:34:10.0000000+00:00</time></trkpt><trkpt lat="64.18380737" lon="-21.56782913"><ele>107.4</ele><time>2012-07-18T15:34:15.0000000+00:00</time></trkpt><trkpt lat="64.1838913" lon="-21.56750488"><ele>107.5</ele><time>2012-07-18T15:34:20.0000000+00:00</time></trkpt><trkpt lat="64.18399048" lon="-21.56715393"><ele>107.3</ele><time>2012-07-18T15:34:25.0000000+00:00</time></trkpt><trkpt lat="64.18408203" lon="-21.56681824"><ele>107.9</ele><time>2012-07-18T15:34:30.0000000+00:00</time></trkpt><trkpt lat="64.18417358" lon="-21.56645966"><ele>107.9</ele><time>2012-07-18T15:34:35.0000000+00:00</time></trkpt><trkpt lat="64.18426514" lon="-21.56610489"><ele>108.1</ele><time>2012-07-18T15:34:40.0000000+00:00</time></trkpt><trkpt lat="64.1843338" lon="-21.56581688"><ele>108.6</ele><time>2012-07-18T15:34:45.0000000+00:00</time></trkpt><trkpt lat="64.18438721" lon="-21.56561279"><ele>109.0</ele><time>2012-07-18T15:34:50.0000000+00:00</time></trkpt><trkpt lat="64.18445587" lon="-21.56533241"><ele>108.9</ele><time>2012-07-18T15:34:55.0000000+00:00</time></trkpt><trkpt lat="64.18453217" lon="-21.56501198"><ele>108.8</ele><time>2012-07-18T15:35:00.0000000+00:00</time></trkpt><trkpt lat="64.18460083" lon="-21.56468582"><ele>108.9</ele><time>2012-07-18T15:35:05.0000000+00:00</time></trkpt><trkpt lat="64.1846695" lon="-21.56436729"><ele>109.3</ele><time>2012-07-18T15:35:10.0000000+00:00</time></trkpt><trkpt lat="64.18473053" lon="-21.56405067"><ele>109.6</ele><time>2012-07-18T15:35:15.0000000+00:00</time></trkpt><trkpt lat="64.18479157" lon="-21.56373978"><ele>109.8</ele><time>2012-07-18T15:35:20.0000000+00:00</time></trkpt><trkpt lat="64.1848526" lon="-21.56342506"><ele>110.2</ele><time>2012-07-18T15:35:25.0000000+00:00</time></trkpt><trkpt lat="64.18491364" lon="-21.56309891"><ele>110.9</ele><time>2012-07-18T15:35:30.0000000+00:00</time></trkpt><trkpt lat="64.18495941" lon="-21.56280518"><ele>111.1</ele><time>2012-07-18T15:35:35.0000000+00:00</time></trkpt><trkpt lat="64.1849823" lon="-21.5626812"><ele>111.2</ele><time>2012-07-18T15:35:40.0000000+00:00</time></trkpt><trkpt lat="64.18501282" lon="-21.56253815"><ele>111.1</ele><time>2012-07-18T15:35:45.0000000+00:00</time></trkpt><trkpt lat="64.18504334" lon="-21.56229973"><ele>111.1</ele><time>2012-07-18T15:35:50.0000000+00:00</time></trkpt><trkpt lat="64.18508148" lon="-21.56202126"><ele>111.2</ele><time>2012-07-18T15:35:55.0000000+00:00</time></trkpt><trkpt lat="64.18511963" lon="-21.56170845"><ele>111.3</ele><time>2012-07-18T15:36:00.0000000+00:00</time></trkpt><trkpt lat="64.18516541" lon="-21.56140518"><ele>111.8</ele><time>2012-07-18T15:36:05.0000000+00:00</time></trkpt><trkpt lat="64.18519592" lon="-21.561203"><ele>112.1</ele><time>2012-07-18T15:36:10.0000000+00:00</time></trkpt><trkpt lat="64.18521881" lon="-21.56097794"><ele>112.8</ele><time>2012-07-18T15:36:15.0000000+00:00</time></trkpt><trkpt lat="64.18524933" lon="-21.56074333"><ele>113.5</ele><time>2012-07-18T15:36:20.0000000+00:00</time></trkpt><trkpt lat="64.18527222" lon="-21.56050491"><ele>114.1</ele><time>2012-07-18T15:36:25.0000000+00:00</time></trkpt><trkpt lat="64.18530273" lon="-21.56025314"><ele>115.0</ele><time>2012-07-18T15:36:30.0000000+00:00</time></trkpt><trkpt lat="64.18532562" lon="-21.55997467"><ele>115.4</ele><time>2012-07-18T15:36:35.0000000+00:00</time></trkpt><trkpt lat="64.18534088" lon="-21.55970383"><ele>116.2</ele><time>2012-07-18T15:36:40.0000000+00:00</time></trkpt><trkpt lat="64.1853714" lon="-21.55943108"><ele>116.8</ele><time>2012-07-18T15:36:45.0000000+00:00</time></trkpt><trkpt lat="64.18538666" lon="-21.55915451"><ele>117.1</ele><time>2012-07-18T15:36:50.0000000+00:00</time></trkpt><trkpt lat="64.18541718" lon="-21.55887413"><ele>117.3</ele><time>2012-07-18T15:36:55.0000000+00:00</time></trkpt><trkpt lat="64.18543243" lon="-21.55861282"><ele>117.6</ele><time>2012-07-18T15:37:00.0000000+00:00</time></trkpt><trkpt lat="64.18544769" lon="-21.55843544"><ele>117.8</ele><time>2012-07-18T15:37:05.0000000+00:00</time></trkpt><trkpt lat="64.18547058" lon="-21.55828476"><ele>117.2</ele><time>2012-07-18T15:37:10.0000000+00:00</time></trkpt><trkpt lat="64.18547821" lon="-21.55807686"><ele>117.8</ele><time>2012-07-18T15:37:15.0000000+00:00</time></trkpt><trkpt lat="64.18548584" lon="-21.55789375"><ele>118.2</ele><time>2012-07-18T15:37:20.0000000+00:00</time></trkpt><trkpt lat="64.1855011" lon="-21.55771828"><ele>118.8</ele><time>2012-07-18T15:37:25.0000000+00:00</time></trkpt><trkpt lat="64.18550873" lon="-21.55752754"><ele>119.2</ele><time>2012-07-18T15:37:30.0000000+00:00</time></trkpt><trkpt lat="64.18552399" lon="-21.55730057"><ele>119.8</ele><time>2012-07-18T15:37:35.0000000+00:00</time></trkpt><trkpt lat="64.18553925" lon="-21.55707359"><ele>120.4</ele><time>2012-07-18T15:37:40.0000000+00:00</time></trkpt><trkpt lat="64.18554688" lon="-21.55682945"><ele>121.0</ele><time>2012-07-18T15:37:45.0000000+00:00</time></trkpt><trkpt lat="64.18556213" lon="-21.55658913"><ele>121.8</ele><time>2012-07-18T15:37:50.0000000+00:00</time></trkpt><trkpt lat="64.18558502" lon="-21.5563221"><ele>122.5</ele><time>2012-07-18T15:37:55.0000000+00:00</time></trkpt><trkpt lat="64.18560791" lon="-21.5560379"><ele>123.2</ele><time>2012-07-18T15:38:00.0000000+00:00</time></trkpt><trkpt lat="64.1856308" lon="-21.5557518"><ele>123.7</ele><time>2012-07-18T15:38:05.0000000+00:00</time></trkpt><trkpt lat="64.18564606" lon="-21.55545044"><ele>124.1</ele><time>2012-07-18T15:38:10.0000000+00:00</time></trkpt><trkpt lat="64.18566895" lon="-21.55516625"><ele>124.5</ele><time>2012-07-18T15:38:15.0000000+00:00</time></trkpt><trkpt lat="64.1856842" lon="-21.55489159"><ele>125.1</ele><time>2012-07-18T15:38:20.0000000+00:00</time></trkpt><trkpt lat="64.18570709" lon="-21.55460739"><ele>125.6</ele><time>2012-07-18T15:38:25.0000000+00:00</time></trkpt><trkpt lat="64.18572235" lon="-21.55436707"><ele>126.1</ele><time>2012-07-18T15:38:30.0000000+00:00</time></trkpt><trkpt lat="64.18572998" lon="-21.55413437"><ele>126.5</ele><time>2012-07-18T15:38:35.0000000+00:00</time></trkpt><trkpt lat="64.18572998" lon="-21.55410767"><ele>126.1</ele><time>2012-07-18T15:38:40.0000000+00:00</time></trkpt><trkpt lat="64.18572998" lon="-21.5541172"><ele>125.9</ele><time>2012-07-18T15:38:45.0000000+00:00</time></trkpt><trkpt lat="64.18572998" lon="-21.55412102"><ele>125.8</ele><time>2012-07-18T15:38:50.0000000+00:00</time></trkpt><trkpt lat="64.18572998" lon="-21.55412293"><ele>125.7</ele><time>2012-07-18T15:38:55.0000000+00:00</time></trkpt><trkpt lat="64.18572998" lon="-21.55412293"><ele>125.7</ele><time>2012-07-18T15:39:00.0000000+00:00</time></trkpt><trkpt lat="64.18572998" lon="-21.55412102"><ele>125.8</ele><time>2012-07-18T15:39:05.0000000+00:00</time></trkpt><trkpt lat="64.18572998" lon="-21.55411911"><ele>125.9</ele><time>2012-07-18T15:39:10.0000000+00:00</time></trkpt><trkpt lat="64.18573761" lon="-21.55409622"><ele>125.5</ele><time>2012-07-18T15:39:15.0000000+00:00</time></trkpt><trkpt lat="64.18572998" lon="-21.55409622"><ele>124.8</ele><time>2012-07-18T15:39:20.0000000+00:00</time></trkpt><trkpt lat="64.18573761" lon="-21.55409432"><ele>124.8</ele><time>2012-07-18T15:39:25.0000000+00:00</time></trkpt><trkpt lat="64.18574524" lon="-21.55405998"><ele>124.8</ele><time>2012-07-18T15:39:30.0000000+00:00</time></trkpt><trkpt lat="64.18575287" lon="-21.55387878"><ele>125.6</ele><time>2012-07-18T15:39:35.0000000+00:00</time></trkpt><trkpt lat="64.18577576" lon="-21.5536499"><ele>126.5</ele><time>2012-07-18T15:39:40.0000000+00:00</time></trkpt><trkpt lat="64.18579865" lon="-21.5533886"><ele>127.7</ele><time>2012-07-18T15:39:45.0000000+00:00</time></trkpt><trkpt lat="64.18582153" lon="-21.55311775"><ele>128.8</ele><time>2012-07-18T15:39:50.0000000+00:00</time></trkpt><trkpt lat="64.18584442" lon="-21.55284309"><ele>130.0</ele><time>2012-07-18T15:39:55.0000000+00:00</time></trkpt><trkpt lat="64.18586731" lon="-21.55254746"><ele>131.0</ele><time>2012-07-18T15:40:00.0000000+00:00</time></trkpt><trkpt lat="64.18588257" lon="-21.55226135"><ele>131.8</ele><time>2012-07-18T15:40:05.0000000+00:00</time></trkpt><trkpt lat="64.18589783" lon="-21.55197525"><ele>132.5</ele><time>2012-07-18T15:40:10.0000000+00:00</time></trkpt><trkpt lat="64.18592072" lon="-21.55168533"><ele>133.6</ele><time>2012-07-18T15:40:15.0000000+00:00</time></trkpt><trkpt lat="64.1859436" lon="-21.55138779"><ele>134.7</ele><time>2012-07-18T15:40:20.0000000+00:00</time></trkpt><trkpt lat="64.18595886" lon="-21.55108261"><ele>135.6</ele><time>2012-07-18T15:40:25.0000000+00:00</time></trkpt><trkpt lat="64.18598175" lon="-21.55079269"><ele>136.2</ele><time>2012-07-18T15:40:30.0000000+00:00</time></trkpt><trkpt lat="64.18599701" lon="-21.55053139"><ele>136.6</ele><time>2012-07-18T15:40:35.0000000+00:00</time></trkpt><trkpt lat="64.18601227" lon="-21.5502491"><ele>137.5</ele><time>2012-07-18T15:40:40.0000000+00:00</time></trkpt><trkpt lat="64.18603516" lon="-21.54994774"><ele>138.0</ele><time>2012-07-18T15:40:45.0000000+00:00</time></trkpt><trkpt lat="64.18605804" lon="-21.5496788"><ele>138.7</ele><time>2012-07-18T15:40:50.0000000+00:00</time></trkpt><trkpt lat="64.18608093" lon="-21.54938507"><ele>139.1</ele><time>2012-07-18T15:40:55.0000000+00:00</time></trkpt><trkpt lat="64.18611145" lon="-21.54907417"><ele>139.6</ele><time>2012-07-18T15:41:00.0000000+00:00</time></trkpt><trkpt lat="64.18613434" lon="-21.54877091"><ele>140.1</ele><time>2012-07-18T15:41:05.0000000+00:00</time></trkpt><trkpt lat="64.18615723" lon="-21.5484581"><ele>140.3</ele><time>2012-07-18T15:41:10.0000000+00:00</time></trkpt><trkpt lat="64.18618774" lon="-21.54816246"><ele>141.1</ele><time>2012-07-18T15:41:15.0000000+00:00</time></trkpt><trkpt lat="64.18621826" lon="-21.54786491"><ele>141.6</ele><time>2012-07-18T15:41:20.0000000+00:00</time></trkpt><trkpt lat="64.18624878" lon="-21.54757118"><ele>142.1</ele><time>2012-07-18T15:41:25.0000000+00:00</time></trkpt><trkpt lat="64.18628693" lon="-21.54728508"><ele>142.6</ele><time>2012-07-18T15:41:30.0000000+00:00</time></trkpt><trkpt lat="64.18631744" lon="-21.54700661"><ele>143.0</ele><time>2012-07-18T15:41:35.0000000+00:00</time></trkpt><trkpt lat="64.18634033" lon="-21.54681397"><ele>143.6</ele><time>2012-07-18T15:41:40.0000000+00:00</time></trkpt><trkpt lat="64.18636322" lon="-21.54663467"><ele>143.7</ele><time>2012-07-18T15:41:45.0000000+00:00</time></trkpt><trkpt lat="64.18640137" lon="-21.54638863"><ele>143.7</ele><time>2012-07-18T15:41:50.0000000+00:00</time></trkpt><trkpt lat="64.18643189" lon="-21.54613876"><ele>144.3</ele><time>2012-07-18T15:41:55.0000000+00:00</time></trkpt><trkpt lat="64.18647766" lon="-21.5458889"><ele>145.2</ele><time>2012-07-18T15:42:00.0000000+00:00</time></trkpt><trkpt lat="64.18651581" lon="-21.54562759"><ele>145.7</ele><time>2012-07-18T15:42:05.0000000+00:00</time></trkpt><trkpt lat="64.18656158" lon="-21.54537582"><ele>145.8</ele><time>2012-07-18T15:42:10.0000000+00:00</time></trkpt><trkpt lat="64.18661499" lon="-21.5451355"><ele>146.5</ele><time>2012-07-18T15:42:15.0000000+00:00</time></trkpt><trkpt lat="64.1866684" lon="-21.54486656"><ele>147.1</ele><time>2012-07-18T15:42:20.0000000+00:00</time></trkpt><trkpt lat="64.18669891" lon="-21.54469872"><ele>148.2</ele><time>2012-07-18T15:42:25.0000000+00:00</time></trkpt><trkpt lat="64.18673706" lon="-21.54452133"><ele>149.4</ele><time>2012-07-18T15:42:30.0000000+00:00</time></trkpt><trkpt lat="64.18679047" lon="-21.54431534"><ele>149.4</ele><time>2012-07-18T15:42:35.0000000+00:00</time></trkpt><trkpt lat="64.18684387" lon="-21.54408073"><ele>150.0</ele><time>2012-07-18T15:42:40.0000000+00:00</time></trkpt><trkpt lat="64.18688965" lon="-21.54385376"><ele>150.2</ele><time>2012-07-18T15:42:45.0000000+00:00</time></trkpt><trkpt lat="64.18695068" lon="-21.5436306"><ele>148.7</ele><time>2012-07-18T15:42:50.0000000+00:00</time></trkpt><trkpt lat="64.18701172" lon="-21.54337883"><ele>148.3</ele><time>2012-07-18T15:42:55.0000000+00:00</time></trkpt><trkpt lat="64.18706513" lon="-21.54315186"><ele>149.8</ele><time>2012-07-18T15:43:00.0000000+00:00</time></trkpt><trkpt lat="64.18712616" lon="-21.54292679"><ele>150.1</ele><time>2012-07-18T15:43:05.0000000+00:00</time></trkpt><trkpt lat="64.18719482" lon="-21.54268837"><ele>150.7</ele><time>2012-07-18T15:43:10.0000000+00:00</time></trkpt><trkpt lat="64.18724823" lon="-21.54249954"><ele>150.6</ele><time>2012-07-18T15:43:15.0000000+00:00</time></trkpt><trkpt lat="64.18728638" lon="-21.54239082"><ele>150.6</ele><time>2012-07-18T15:43:20.0000000+00:00</time></trkpt><trkpt lat="64.1873169" lon="-21.54221916"><ele>152.0</ele><time>2012-07-18T15:43:25.0000000+00:00</time></trkpt><trkpt lat="64.1873703" lon="-21.54202843"><ele>153.9</ele><time>2012-07-18T15:43:30.0000000+00:00</time></trkpt><trkpt lat="64.18742371" lon="-21.54183388"><ele>155.9</ele><time>2012-07-18T15:43:35.0000000+00:00</time></trkpt><trkpt lat="64.18746948" lon="-21.54163551"><ele>155.4</ele><time>2012-07-18T15:43:40.0000000+00:00</time></trkpt><trkpt lat="64.18751526" lon="-21.54148293"><ele>156.3</ele><time>2012-07-18T15:43:45.0000000+00:00</time></trkpt><trkpt lat="64.18756104" lon="-21.54132271"><ele>157.3</ele><time>2012-07-18T15:43:50.0000000+00:00</time></trkpt><trkpt lat="64.18759155" lon="-21.54120064"><ele>157.8</ele><time>2012-07-18T15:43:55.0000000+00:00</time></trkpt><trkpt lat="64.18763733" lon="-21.54099274"><ele>157.5</ele><time>2012-07-18T15:44:00.0000000+00:00</time></trkpt><trkpt lat="64.18770599" lon="-21.54076576"><ele>158.0</ele><time>2012-07-18T15:44:05.0000000+00:00</time></trkpt><trkpt lat="64.18776703" lon="-21.54054451"><ele>159.1</ele><time>2012-07-18T15:44:10.0000000+00:00</time></trkpt><trkpt lat="64.18782806" lon="-21.54032135"><ele>159.7</ele><time>2012-07-18T15:44:15.0000000+00:00</time></trkpt><trkpt lat="64.18787384" lon="-21.54009819"><ele>161.4</ele><time>2012-07-18T15:44:20.0000000+00:00</time></trkpt><trkpt lat="64.18790436" lon="-21.54001427"><ele>161.8</ele><time>2012-07-18T15:44:25.0000000+00:00</time></trkpt><trkpt lat="64.18795013" lon="-21.53982735"><ele>162.8</ele><time>2012-07-18T15:44:30.0000000+00:00</time></trkpt><trkpt lat="64.18801117" lon="-21.53959274"><ele>163.9</ele><time>2012-07-18T15:44:35.0000000+00:00</time></trkpt><trkpt lat="64.18804932" lon="-21.53944206"><ele>164.3</ele><time>2012-07-18T15:44:40.0000000+00:00</time></trkpt><trkpt lat="64.18810272" lon="-21.53924179"><ele>165.4</ele><time>2012-07-18T15:44:45.0000000+00:00</time></trkpt><trkpt lat="64.18816376" lon="-21.53902245"><ele>165.9</ele><time>2012-07-18T15:44:50.0000000+00:00</time></trkpt><trkpt lat="64.18822479" lon="-21.53879356"><ele>167.1</ele><time>2012-07-18T15:44:55.0000000+00:00</time></trkpt><trkpt lat="64.18828583" lon="-21.53858757"><ele>168.5</ele><time>2012-07-18T15:45:00.0000000+00:00</time></trkpt><trkpt lat="64.18832398" lon="-21.53845024"><ele>169.7</ele><time>2012-07-18T15:45:05.0000000+00:00</time></trkpt><trkpt lat="64.18836975" lon="-21.53826332"><ele>171.3</ele><time>2012-07-18T15:45:10.0000000+00:00</time></trkpt><trkpt lat="64.18843842" lon="-21.53804207"><ele>171.4</ele><time>2012-07-18T15:45:15.0000000+00:00</time></trkpt><trkpt lat="64.18850708" lon="-21.53779984"><ele>171.7</ele><time>2012-07-18T15:45:20.0000000+00:00</time></trkpt><trkpt lat="64.18856812" lon="-21.5375309"><ele>172.4</ele><time>2012-07-18T15:45:25.0000000+00:00</time></trkpt><trkpt lat="64.18864441" lon="-21.53725433"><ele>173.9</ele><time>2012-07-18T15:45:30.0000000+00:00</time></trkpt><trkpt lat="64.18871307" lon="-21.5370121"><ele>175.3</ele><time>2012-07-18T15:45:35.0000000+00:00</time></trkpt><trkpt lat="64.18878937" lon="-21.53674126"><ele>176.0</ele><time>2012-07-18T15:45:40.0000000+00:00</time></trkpt><trkpt lat="64.18887329" lon="-21.53644753"><ele>175.9</ele><time>2012-07-18T15:45:45.0000000+00:00</time></trkpt><trkpt lat="64.18891907" lon="-21.53626633"><ele>176.5</ele><time>2012-07-18T15:45:50.0000000+00:00</time></trkpt><trkpt lat="64.1889801" lon="-21.53605652"><ele>176.3</ele><time>2012-07-18T15:45:55.0000000+00:00</time></trkpt><trkpt lat="64.18902588" lon="-21.53591538"><ele>176.2</ele><time>2012-07-18T15:46:00.0000000+00:00</time></trkpt><trkpt lat="64.18906403" lon="-21.53578186"><ele>175.5</ele><time>2012-07-18T15:46:05.0000000+00:00</time></trkpt><trkpt lat="64.1891098" lon="-21.53560448"><ele>175.6</ele><time>2012-07-18T15:46:10.0000000+00:00</time></trkpt><trkpt lat="64.18917084" lon="-21.53535461"><ele>176.8</ele><time>2012-07-18T15:46:15.0000000+00:00</time></trkpt><trkpt lat="64.1892395" lon="-21.53513145"><ele>177.7</ele><time>2012-07-18T15:46:20.0000000+00:00</time></trkpt><trkpt lat="64.18929291" lon="-21.53494453"><ele>178.6</ele><time>2012-07-18T15:46:25.0000000+00:00</time></trkpt><trkpt lat="64.18936157" lon="-21.53468704"><ele>178.6</ele><time>2012-07-18T15:46:30.0000000+00:00</time></trkpt><trkpt lat="64.18943787" lon="-21.53441048"><ele>176.6</ele><time>2012-07-18T15:46:35.0000000+00:00</time></trkpt><trkpt lat="64.18949127" lon="-21.53421021"><ele>177.2</ele><time>2012-07-18T15:46:40.0000000+00:00</time></trkpt><trkpt lat="64.18956757" lon="-21.53394318"><ele>177.6</ele><time>2012-07-18T15:46:45.0000000+00:00</time></trkpt><trkpt lat="64.18963623" lon="-21.5336895"><ele>178.1</ele><time>2012-07-18T15:46:50.0000000+00:00</time></trkpt><trkpt lat="64.18971252" lon="-21.5334053"><ele>178.7</ele><time>2012-07-18T15:46:55.0000000+00:00</time></trkpt><trkpt lat="64.18978882" lon="-21.53310585"><ele>179.5</ele><time>2012-07-18T15:47:00.0000000+00:00</time></trkpt><trkpt lat="64.18987274" lon="-21.53278923"><ele>179.5</ele><time>2012-07-18T15:47:05.0000000+00:00</time></trkpt><trkpt lat="64.18996429" lon="-21.53246117"><ele>180.0</ele><time>2012-07-18T15:47:10.0000000+00:00</time></trkpt><trkpt lat="64.19005585" lon="-21.53211594"><ele>180.4</ele><time>2012-07-18T15:47:15.0000000+00:00</time></trkpt><trkpt lat="64.19012451" lon="-21.53182983"><ele>180.6</ele><time>2012-07-18T15:47:20.0000000+00:00</time></trkpt><trkpt lat="64.19021606" lon="-21.5315342"><ele>180.4</ele><time>2012-07-18T15:47:25.0000000+00:00</time></trkpt><trkpt lat="64.19028473" lon="-21.53125763"><ele>180.2</ele><time>2012-07-18T15:47:30.0000000+00:00</time></trkpt><trkpt lat="64.19037628" lon="-21.53094101"><ele>180.3</ele><time>2012-07-18T15:47:35.0000000+00:00</time></trkpt><trkpt lat="64.19046021" lon="-21.53064156"><ele>180.4</ele><time>2012-07-18T15:47:40.0000000+00:00</time></trkpt><trkpt lat="64.19052887" lon="-21.53038979"><ele>180.8</ele><time>2012-07-18T15:47:45.0000000+00:00</time></trkpt><trkpt lat="64.19061279" lon="-21.53007889"><ele>181.3</ele><time>2012-07-18T15:47:50.0000000+00:00</time></trkpt><trkpt lat="64.19071198" lon="-21.52971077"><ele>181.0</ele><time>2012-07-18T15:47:55.0000000+00:00</time></trkpt><trkpt lat="64.19081879" lon="-21.52932358"><ele>180.8</ele><time>2012-07-18T15:48:00.0000000+00:00</time></trkpt><trkpt lat="64.19091797" lon="-21.52893448"><ele>180.6</ele><time>2012-07-18T15:48:05.0000000+00:00</time></trkpt><trkpt lat="64.19100952" lon="-21.52860832"><ele>180.5</ele><time>2012-07-18T15:48:10.0000000+00:00</time></trkpt><trkpt lat="64.19109345" lon="-21.52828026"><ele>181.0</ele><time>2012-07-18T15:48:15.0000000+00:00</time></trkpt><trkpt lat="64.19119263" lon="-21.52794266"><ele>180.2</ele><time>2012-07-18T15:48:20.0000000+00:00</time></trkpt><trkpt lat="64.19127655" lon="-21.52762604"><ele>180.2</ele><time>2012-07-18T15:48:25.0000000+00:00</time></trkpt><trkpt lat="64.1913681" lon="-21.52728081"><ele>180.2</ele><time>2012-07-18T15:48:30.0000000+00:00</time></trkpt><trkpt lat="64.19145203" lon="-21.52694511"><ele>180.9</ele><time>2012-07-18T15:48:35.0000000+00:00</time></trkpt><trkpt lat="64.19154358" lon="-21.52662087"><ele>181.1</ele><time>2012-07-18T15:48:40.0000000+00:00</time></trkpt><trkpt lat="64.1916275" lon="-21.52631569"><ele>182.0</ele><time>2012-07-18T15:48:45.0000000+00:00</time></trkpt><trkpt lat="64.19171143" lon="-21.52602768"><ele>182.1</ele><time>2012-07-18T15:48:50.0000000+00:00</time></trkpt><trkpt lat="64.19174957" lon="-21.52585793"><ele>182.7</ele><time>2012-07-18T15:48:55.0000000+00:00</time></trkpt><trkpt lat="64.19181061" lon="-21.52566528"><ele>183.5</ele><time>2012-07-18T15:49:00.0000000+00:00</time></trkpt><trkpt lat="64.19184876" lon="-21.5254631"><ele>184.4</ele><time>2012-07-18T15:49:05.0000000+00:00</time></trkpt><trkpt lat="64.19191742" lon="-21.52524376"><ele>184.9</ele><time>2012-07-18T15:49:10.0000000+00:00</time></trkpt><trkpt lat="64.19197846" lon="-21.52500153"><ele>185.5</ele><time>2012-07-18T15:49:15.0000000+00:00</time></trkpt><trkpt lat="64.19202423" lon="-21.52477074"><ele>185.5</ele><time>2012-07-18T15:49:20.0000000+00:00</time></trkpt><trkpt lat="64.1920929" lon="-21.52458"><ele>187.6</ele><time>2012-07-18T15:49:25.0000000+00:00</time></trkpt><trkpt lat="64.19215393" lon="-21.52435303"><ele>188.2</ele><time>2012-07-18T15:49:30.0000000+00:00</time></trkpt><trkpt lat="64.1922226" lon="-21.52410317"><ele>189.6</ele><time>2012-07-18T15:49:35.0000000+00:00</time></trkpt><trkpt lat="64.19229889" lon="-21.52382088"><ele>189.7</ele><time>2012-07-18T15:49:40.0000000+00:00</time></trkpt><trkpt lat="64.19237518" lon="-21.52355194"><ele>190.7</ele><time>2012-07-18T15:49:45.0000000+00:00</time></trkpt><trkpt lat="64.19243622" lon="-21.52334213"><ele>191.0</ele><time>2012-07-18T15:49:50.0000000+00:00</time></trkpt><trkpt lat="64.192482" lon="-21.52316284"><ele>192.1</ele><time>2012-07-18T15:49:55.0000000+00:00</time></trkpt><trkpt lat="64.19252777" lon="-21.522995"><ele>192.7</ele><time>2012-07-18T15:50:00.0000000+00:00</time></trkpt><trkpt lat="64.19258118" lon="-21.52280426"><ele>193.3</ele><time>2012-07-18T15:50:05.0000000+00:00</time></trkpt><trkpt lat="64.19261932" lon="-21.52267456"><ele>194.0</ele><time>2012-07-18T15:50:10.0000000+00:00</time></trkpt><trkpt lat="64.19265747" lon="-21.52254295"><ele>194.6</ele><time>2012-07-18T15:50:15.0000000+00:00</time></trkpt><trkpt lat="64.19271088" lon="-21.52238083"><ele>195.4</ele><time>2012-07-18T15:50:20.0000000+00:00</time></trkpt><trkpt lat="64.19274139" lon="-21.52225876"><ele>195.7</ele><time>2012-07-18T15:50:25.0000000+00:00</time></trkpt><trkpt lat="64.19276428" lon="-21.52214241"><ele>195.6</ele><time>2012-07-18T15:50:30.0000000+00:00</time></trkpt><trkpt lat="64.1927948" lon="-21.52202606"><ele>196.0</ele><time>2012-07-18T15:50:35.0000000+00:00</time></trkpt><trkpt lat="64.19283295" lon="-21.52188873"><ele>196.4</ele><time>2012-07-18T15:50:40.0000000+00:00</time></trkpt><trkpt lat="64.19287872" lon="-21.5217514"><ele>197.2</ele><time>2012-07-18T15:50:45.0000000+00:00</time></trkpt><trkpt lat="64.19291687" lon="-21.52156639"><ele>198.1</ele><time>2012-07-18T15:50:50.0000000+00:00</time></trkpt><trkpt lat="64.19295502" lon="-21.52139664"><ele>199.0</ele><time>2012-07-18T15:50:55.0000000+00:00</time></trkpt><trkpt lat="64.19299316" lon="-21.52126885"><ele>200.1</ele><time>2012-07-18T15:51:00.0000000+00:00</time></trkpt><trkpt lat="64.19303894" lon="-21.52116394"><ele>200.1</ele><time>2012-07-18T15:51:05.0000000+00:00</time></trkpt><trkpt lat="64.19307709" lon="-21.52104569"><ele>199.6</ele><time>2012-07-18T15:51:10.0000000+00:00</time></trkpt><trkpt lat="64.19311523" lon="-21.52090073"><ele>200.5</ele><time>2012-07-18T15:51:15.0000000+00:00</time></trkpt><trkpt lat="64.19314575" lon="-21.52073288"><ele>200.7</ele><time>2012-07-18T15:51:20.0000000+00:00</time></trkpt><trkpt lat="64.19319153" lon="-21.52053452"><ele>201.3</ele><time>2012-07-18T15:51:25.0000000+00:00</time></trkpt><trkpt lat="64.19326019" lon="-21.52032471"><ele>201.7</ele><time>2012-07-18T15:51:30.0000000+00:00</time></trkpt><trkpt lat="64.19332123" lon="-21.5200901"><ele>202.5</ele><time>2012-07-18T15:51:35.0000000+00:00</time></trkpt><trkpt lat="64.19338989" lon="-21.51984787"><ele>203.7</ele><time>2012-07-18T15:51:40.0000000+00:00</time></trkpt><trkpt lat="64.19345856" lon="-21.51957893"><ele>204.5</ele><time>2012-07-18T15:51:45.0000000+00:00</time></trkpt><trkpt lat="64.19353485" lon="-21.51929855"><ele>205.8</ele><time>2012-07-18T15:51:50.0000000+00:00</time></trkpt><trkpt lat="64.19361115" lon="-21.51904869"><ele>206.5</ele><time>2012-07-18T15:51:55.0000000+00:00</time></trkpt><trkpt lat="64.19367981" lon="-21.51878738"><ele>207.2</ele><time>2012-07-18T15:52:00.0000000+00:00</time></trkpt><trkpt lat="64.19374847" lon="-21.51853943"><ele>207.5</ele><time>2012-07-18T15:52:05.0000000+00:00</time></trkpt><trkpt lat="64.19382477" lon="-21.51825905"><ele>208.2</ele><time>2012-07-18T15:52:10.0000000+00:00</time></trkpt><trkpt lat="64.19387817" lon="-21.51803589"><ele>209.3</ele><time>2012-07-18T15:52:15.0000000+00:00</time></trkpt><trkpt lat="64.19394684" lon="-21.51779938"><ele>209.7</ele><time>2012-07-18T15:52:20.0000000+00:00</time></trkpt><trkpt lat="64.1940155" lon="-21.51751137"><ele>210.3</ele><time>2012-07-18T15:52:25.0000000+00:00</time></trkpt><trkpt lat="64.19408417" lon="-21.51728821"><ele>210.9</ele><time>2012-07-18T15:52:30.0000000+00:00</time></trkpt><trkpt lat="64.19416046" lon="-21.51698303"><ele>211.6</ele><time>2012-07-18T15:52:35.0000000+00:00</time></trkpt><trkpt lat="64.19424439" lon="-21.5166893"><ele>212.1</ele><time>2012-07-18T15:52:40.0000000+00:00</time></trkpt><trkpt lat="64.19434357" lon="-21.51635552"><ele>212.8</ele><time>2012-07-18T15:52:45.0000000+00:00</time></trkpt><trkpt lat="64.19441986" lon="-21.51604843"><ele>213.3</ele><time>2012-07-18T15:52:50.0000000+00:00</time></trkpt><trkpt lat="64.19448853" lon="-21.51582146"><ele>213.9</ele><time>2012-07-18T15:52:55.0000000+00:00</time></trkpt><trkpt lat="64.19457245" lon="-21.51551056"><ele>214.3</ele><time>2012-07-18T15:53:00.0000000+00:00</time></trkpt><trkpt lat="64.19467163" lon="-21.51514244"><ele>214.9</ele><time>2012-07-18T15:53:05.0000000+00:00</time></trkpt><trkpt lat="64.19475555" lon="-21.51483536"><ele>215.0</ele><time>2012-07-18T15:53:10.0000000+00:00</time></trkpt><trkpt lat="64.19484711" lon="-21.51447868"><ele>215.5</ele><time>2012-07-18T15:53:15.0000000+00:00</time></trkpt><trkpt lat="64.19493103" lon="-21.51420593"><ele>215.7</ele><time>2012-07-18T15:53:20.0000000+00:00</time></trkpt><trkpt lat="64.19499207" lon="-21.51392937"><ele>215.8</ele><time>2012-07-18T15:53:25.0000000+00:00</time></trkpt><trkpt lat="64.19506836" lon="-21.51361847"><ele>216.0</ele><time>2012-07-18T15:53:30.0000000+00:00</time></trkpt><trkpt lat="64.19516754" lon="-21.51329041"><ele>215.4</ele><time>2012-07-18T15:53:35.0000000+00:00</time></trkpt><trkpt lat="64.19524384" lon="-21.51294518"><ele>215.6</ele><time>2012-07-18T15:53:40.0000000+00:00</time></trkpt><trkpt lat="64.19533539" lon="-21.51258469"><ele>215.8</ele><time>2012-07-18T15:53:45.0000000+00:00</time></trkpt><trkpt lat="64.19541168" lon="-21.51222229"><ele>216.8</ele><time>2012-07-18T15:53:50.0000000+00:00</time></trkpt><trkpt lat="64.19550324" lon="-21.51184464"><ele>216.5</ele><time>2012-07-18T15:53:55.0000000+00:00</time></trkpt><trkpt lat="64.1955719" lon="-21.51144981"><ele>216.9</ele><time>2012-07-18T15:54:00.0000000+00:00</time></trkpt><trkpt lat="64.19564819" lon="-21.51105118"><ele>219.0</ele><time>2012-07-18T15:54:05.0000000+00:00</time></trkpt><trkpt lat="64.19571686" lon="-21.51062203"><ele>218.9</ele><time>2012-07-18T15:54:10.0000000+00:00</time></trkpt><trkpt lat="64.19578552" lon="-21.51018333"><ele>219.5</ele><time>2012-07-18T15:54:15.0000000+00:00</time></trkpt><trkpt lat="64.19585419" lon="-21.50971794"><ele>218.5</ele><time>2012-07-18T15:54:20.0000000+00:00</time></trkpt><trkpt lat="64.19591522" lon="-21.50924492"><ele>217.7</ele><time>2012-07-18T15:54:25.0000000+00:00</time></trkpt><trkpt lat="64.19597626" lon="-21.50884056"><ele>217.6</ele><time>2012-07-18T15:54:30.0000000+00:00</time></trkpt><trkpt lat="64.19603729" lon="-21.50847626"><ele>218.3</ele><time>2012-07-18T15:54:35.0000000+00:00</time></trkpt><trkpt lat="64.19608307" lon="-21.50814056"><ele>218.6</ele><time>2012-07-18T15:54:40.0000000+00:00</time></trkpt><trkpt lat="64.19612122" lon="-21.50774765"><ele>217.2</ele><time>2012-07-18T15:54:45.0000000+00:00</time></trkpt><trkpt lat="64.19616699" lon="-21.50728798"><ele>216.3</ele><time>2012-07-18T15:54:50.0000000+00:00</time></trkpt><trkpt lat="64.19621277" lon="-21.50678253"><ele>215.8</ele><time>2012-07-18T15:54:55.0000000+00:00</time></trkpt><trkpt lat="64.19625855" lon="-21.50624085"><ele>215.4</ele><time>2012-07-18T15:55:00.0000000+00:00</time></trkpt><trkpt lat="64.19630432" lon="-21.50564003"><ele>215.8</ele><time>2012-07-18T15:55:05.0000000+00:00</time></trkpt><trkpt lat="64.19635773" lon="-21.50506783"><ele>214.7</ele><time>2012-07-18T15:55:10.0000000+00:00</time></trkpt><trkpt lat="64.19641113" lon="-21.50452805"><ele>215.2</ele><time>2012-07-18T15:55:15.0000000+00:00</time></trkpt><trkpt lat="64.19646454" lon="-21.50394821"><ele>215.6</ele><time>2012-07-18T15:55:20.0000000+00:00</time></trkpt><trkpt lat="64.19651794" lon="-21.50340462"><ele>216.4</ele><time>2012-07-18T15:55:25.0000000+00:00</time></trkpt><trkpt lat="64.19657898" lon="-21.50283051"><ele>216.8</ele><time>2012-07-18T15:55:30.0000000+00:00</time></trkpt><trkpt lat="64.19662476" lon="-21.50224495"><ele>215.1</ele><time>2012-07-18T15:55:35.0000000+00:00</time></trkpt><trkpt lat="64.19670105" lon="-21.50163078"><ele>215.5</ele><time>2012-07-18T15:55:40.0000000+00:00</time></trkpt><trkpt lat="64.19677734" lon="-21.50100517"><ele>213.7</ele><time>2012-07-18T15:55:45.0000000+00:00</time></trkpt><trkpt lat="64.19687653" lon="-21.50038719"><ele>211.5</ele><time>2012-07-18T15:55:50.0000000+00:00</time></trkpt><trkpt lat="64.19697571" lon="-21.49975205"><ele>211.4</ele><time>2012-07-18T15:55:55.0000000+00:00</time></trkpt><trkpt lat="64.19711304" lon="-21.49906921"><ele>213.6</ele><time>2012-07-18T15:56:00.0000000+00:00</time></trkpt><trkpt lat="64.197258" lon="-21.4984169"><ele>211.1</ele><time>2012-07-18T15:56:05.0000000+00:00</time></trkpt><trkpt lat="64.19739533" lon="-21.49775887"><ele>209.3</ele><time>2012-07-18T15:56:10.0000000+00:00</time></trkpt><trkpt lat="64.19755554" lon="-21.49713516"><ele>208.0</ele><time>2012-07-18T15:56:15.0000000+00:00</time></trkpt><trkpt lat="64.19771576" lon="-21.4964962"><ele>207.1</ele><time>2012-07-18T15:56:20.0000000+00:00</time></trkpt><trkpt lat="64.19789124" lon="-21.49586105"><ele>205.1</ele><time>2012-07-18T15:56:25.0000000+00:00</time></trkpt><trkpt lat="64.19807434" lon="-21.495224"><ele>204.5</ele><time>2012-07-18T15:56:30.0000000+00:00</time></trkpt><trkpt lat="64.19826508" lon="-21.49458885"><ele>203.0</ele><time>2012-07-18T15:56:35.0000000+00:00</time></trkpt><trkpt lat="64.19843292" lon="-21.49397659"><ele>201.0</ele><time>2012-07-18T15:56:40.0000000+00:00</time></trkpt><trkpt lat="64.19861603" lon="-21.49333"><ele>201.0</ele><time>2012-07-18T15:56:45.0000000+00:00</time></trkpt><trkpt lat="64.19880676" lon="-21.49264908"><ele>201.7</ele><time>2012-07-18T15:56:50.0000000+00:00</time></trkpt><trkpt lat="64.19898224" lon="-21.49202538"><ele>201.9</ele><time>2012-07-18T15:56:55.0000000+00:00</time></trkpt><trkpt lat="64.19916534" lon="-21.49142265"><ele>201.8</ele><time>2012-07-18T15:57:00.0000000+00:00</time></trkpt><trkpt lat="64.1993103" lon="-21.49085045"><ele>201.9</ele><time>2012-07-18T15:57:05.0000000+00:00</time></trkpt><trkpt lat="64.19947052" lon="-21.49024391"><ele>203.8</ele><time>2012-07-18T15:57:10.0000000+00:00</time></trkpt><trkpt lat="64.19963837" lon="-21.48965454"><ele>202.0</ele><time>2012-07-18T15:57:15.0000000+00:00</time></trkpt><trkpt lat="64.19980621" lon="-21.48908043"><ele>200.6</ele><time>2012-07-18T15:57:20.0000000+00:00</time></trkpt><trkpt lat="64.1999588" lon="-21.48851013"><ele>199.4</ele><time>2012-07-18T15:57:25.0000000+00:00</time></trkpt><trkpt lat="64.20010376" lon="-21.48790932"><ele>195.9</ele><time>2012-07-18T15:57:30.0000000+00:00</time></trkpt><trkpt lat="64.20027924" lon="-21.48734474"><ele>199.9</ele><time>2012-07-18T15:57:35.0000000+00:00</time></trkpt><trkpt lat="64.20043945" lon="-21.48682594"><ele>202.9</ele><time>2012-07-18T15:57:40.0000000+00:00</time></trkpt><trkpt lat="64.20057678" lon="-21.4862442"><ele>203.5</ele><time>2012-07-18T15:57:45.0000000+00:00</time></trkpt><trkpt lat="64.20070648" lon="-21.48565865"><ele>202.4</ele><time>2012-07-18T15:57:50.0000000+00:00</time></trkpt><trkpt lat="64.20082855" lon="-21.48506355"><ele>202.3</ele><time>2012-07-18T15:57:55.0000000+00:00</time></trkpt><trkpt lat="64.20093536" lon="-21.48444939"><ele>202.8</ele><time>2012-07-18T15:58:00.0000000+00:00</time></trkpt><trkpt lat="64.20104218" lon="-21.48383713"><ele>202.3</ele><time>2012-07-18T15:58:05.0000000+00:00</time></trkpt><trkpt lat="64.2011261" lon="-21.4832058"><ele>202.7</ele><time>2012-07-18T15:58:10.0000000+00:00</time></trkpt><trkpt lat="64.20121765" lon="-21.48256683"><ele>202.5</ele><time>2012-07-18T15:58:15.0000000+00:00</time></trkpt><trkpt lat="64.20128632" lon="-21.48191261"><ele>202.4</ele><time>2012-07-18T15:58:20.0000000+00:00</time></trkpt><trkpt lat="64.20134735" lon="-21.4812603"><ele>202.2</ele><time>2012-07-18T15:58:25.0000000+00:00</time></trkpt><trkpt lat="64.20140076" lon="-21.48060036"><ele>202.1</ele><time>2012-07-18T15:58:30.0000000+00:00</time></trkpt><trkpt lat="64.20144653" lon="-21.47993469"><ele>202.2</ele><time>2012-07-18T15:58:35.0000000+00:00</time></trkpt><trkpt lat="64.20148468" lon="-21.47933006"><ele>201.6</ele><time>2012-07-18T15:58:40.0000000+00:00</time></trkpt><trkpt lat="64.2015152" lon="-21.47872543"><ele>202.7</ele><time>2012-07-18T15:58:45.0000000+00:00</time></trkpt><trkpt lat="64.20153809" lon="-21.47816086"><ele>205.2</ele><time>2012-07-18T15:58:50.0000000+00:00</time></trkpt><trkpt lat="64.20155335" lon="-21.47762871"><ele>204.6</ele><time>2012-07-18T15:58:55.0000000+00:00</time></trkpt><trkpt lat="64.2015686" lon="-21.47709084"><ele>205.0</ele><time>2012-07-18T15:59:00.0000000+00:00</time></trkpt><trkpt lat="64.20159149" lon="-21.47652626"><ele>204.9</ele><time>2012-07-18T15:59:05.0000000+00:00</time></trkpt><trkpt lat="64.20160675" lon="-21.47597694"><ele>205.2</ele><time>2012-07-18T15:59:10.0000000+00:00</time></trkpt><trkpt lat="64.20162964" lon="-21.47543144"><ele>203.8</ele><time>2012-07-18T15:59:15.0000000+00:00</time></trkpt><trkpt lat="64.20165253" lon="-21.474926"><ele>204.0</ele><time>2012-07-18T15:59:20.0000000+00:00</time></trkpt><trkpt lat="64.20167542" lon="-21.47444344"><ele>204.7</ele><time>2012-07-18T15:59:25.0000000+00:00</time></trkpt><trkpt lat="64.2016983" lon="-21.47398377"><ele>205.7</ele><time>2012-07-18T15:59:30.0000000+00:00</time></trkpt><trkpt lat="64.20171356" lon="-21.4735508"><ele>205.8</ele><time>2012-07-18T15:59:35.0000000+00:00</time></trkpt><trkpt lat="64.20172882" lon="-21.47310066"><ele>207.7</ele><time>2012-07-18T15:59:40.0000000+00:00</time></trkpt><trkpt lat="64.20174408" lon="-21.47270393"><ele>209.8</ele><time>2012-07-18T15:59:45.0000000+00:00</time></trkpt><trkpt lat="64.20175934" lon="-21.47229195"><ele>209.9</ele><time>2012-07-18T15:59:50.0000000+00:00</time></trkpt><trkpt lat="64.20178223" lon="-21.47184753"><ele>212.2</ele><time>2012-07-18T15:59:55.0000000+00:00</time></trkpt><trkpt lat="64.20180512" lon="-21.47146034"><ele>212.8</ele><time>2012-07-18T16:00:00.0000000+00:00</time></trkpt><trkpt lat="64.20183563" lon="-21.47110748"><ele>213.7</ele><time>2012-07-18T16:00:05.0000000+00:00</time></trkpt><trkpt lat="64.20185852" lon="-21.47082138"><ele>214.0</ele><time>2012-07-18T16:00:10.0000000+00:00</time></trkpt><trkpt lat="64.20188141" lon="-21.47060585"><ele>213.2</ele><time>2012-07-18T16:00:15.0000000+00:00</time></trkpt><trkpt lat="64.20191193" lon="-21.47032356"><ele>213.3</ele><time>2012-07-18T16:00:20.0000000+00:00</time></trkpt><trkpt lat="64.2019577" lon="-21.47005653"><ele>214.8</ele><time>2012-07-18T16:00:25.0000000+00:00</time></trkpt><trkpt lat="64.20200348" lon="-21.46972656"><ele>213.8</ele><time>2012-07-18T16:00:30.0000000+00:00</time></trkpt><trkpt lat="64.20205689" lon="-21.46935654"><ele>215.0</ele><time>2012-07-18T16:00:35.0000000+00:00</time></trkpt><trkpt lat="64.20209503" lon="-21.46904564"><ele>216.0</ele><time>2012-07-18T16:00:40.0000000+00:00</time></trkpt><trkpt lat="64.20214844" lon="-21.46874809"><ele>216.7</ele><time>2012-07-18T16:00:45.0000000+00:00</time></trkpt><trkpt lat="64.20219421" lon="-21.46850014"><ele>217.9</ele><time>2012-07-18T16:00:50.0000000+00:00</time></trkpt><trkpt lat="64.20223236" lon="-21.46832657"><ele>218.2</ele><time>2012-07-18T16:00:55.0000000+00:00</time></trkpt><trkpt lat="64.20226288" lon="-21.46814346"><ele>216.8</ele><time>2012-07-18T16:01:00.0000000+00:00</time></trkpt><trkpt lat="64.20230103" lon="-21.46788979"><ele>217.9</ele><time>2012-07-18T16:01:05.0000000+00:00</time></trkpt><trkpt lat="64.2023468" lon="-21.46767616"><ele>218.3</ele><time>2012-07-18T16:01:10.0000000+00:00</time></trkpt><trkpt lat="64.20237732" lon="-21.46746445"><ele>220.0</ele><time>2012-07-18T16:01:15.0000000+00:00</time></trkpt><trkpt lat="64.2024231" lon="-21.46720886"><ele>221.5</ele><time>2012-07-18T16:01:20.0000000+00:00</time></trkpt><trkpt lat="64.20248413" lon="-21.46695709"><ele>220.1</ele><time>2012-07-18T16:01:25.0000000+00:00</time></trkpt><trkpt lat="64.20254517" lon="-21.46670723"><ele>219.7</ele><time>2012-07-18T16:01:30.0000000+00:00</time></trkpt><trkpt lat="64.20259857" lon="-21.46643829"><ele>220.4</ele><time>2012-07-18T16:01:35.0000000+00:00</time></trkpt><trkpt lat="64.20265961" lon="-21.46619034"><ele>221.5</ele><time>2012-07-18T16:01:40.0000000+00:00</time></trkpt><trkpt lat="64.20272064" lon="-21.4659214"><ele>221.3</ele><time>2012-07-18T16:01:45.0000000+00:00</time></trkpt><trkpt lat="64.20278168" lon="-21.46569634"><ele>222.1</ele><time>2012-07-18T16:01:50.0000000+00:00</time></trkpt><trkpt lat="64.20282745" lon="-21.4655323"><ele>223.4</ele><time>2012-07-18T16:01:55.0000000+00:00</time></trkpt><trkpt lat="64.20289612" lon="-21.46525383"><ele>224.4</ele><time>2012-07-18T16:02:00.0000000+00:00</time></trkpt><trkpt lat="64.20298004" lon="-21.46499634"><ele>225.1</ele><time>2012-07-18T16:02:05.0000000+00:00</time></trkpt><trkpt lat="64.20305634" lon="-21.46474838"><ele>226.0</ele><time>2012-07-18T16:02:10.0000000+00:00</time></trkpt><trkpt lat="64.20308685" lon="-21.46466827"><ele>225.4</ele><time>2012-07-18T16:02:15.0000000+00:00</time></trkpt><trkpt lat="64.203125" lon="-21.46455193"><ele>225.6</ele><time>2012-07-18T16:02:20.0000000+00:00</time></trkpt><trkpt lat="64.20318604" lon="-21.46436882"><ele>225.6</ele><time>2012-07-18T16:02:25.0000000+00:00</time></trkpt><trkpt lat="64.20326233" lon="-21.46413994"><ele>226.7</ele><time>2012-07-18T16:02:30.0000000+00:00</time></trkpt><trkpt lat="64.20335388" lon="-21.46391296"><ele>227.0</ele><time>2012-07-18T16:02:35.0000000+00:00</time></trkpt><trkpt lat="64.20344544" lon="-21.46367645"><ele>227.8</ele><time>2012-07-18T16:02:40.0000000+00:00</time></trkpt><trkpt lat="64.20353699" lon="-21.46343422"><ele>228.5</ele><time>2012-07-18T16:02:45.0000000+00:00</time></trkpt><trkpt lat="64.2036438" lon="-21.46319389"><ele>228.0</ele><time>2012-07-18T16:02:50.0000000+00:00</time></trkpt><trkpt lat="64.20374298" lon="-21.46293831"><ele>228.4</ele><time>2012-07-18T16:02:55.0000000+00:00</time></trkpt><trkpt lat="64.20383453" lon="-21.46273613"><ele>232.3</ele><time>2012-07-18T16:03:00.0000000+00:00</time></trkpt><trkpt lat="64.20394135" lon="-21.46249008"><ele>232.6</ele><time>2012-07-18T16:03:05.0000000+00:00</time></trkpt><trkpt lat="64.20405579" lon="-21.46222878"><ele>231.1</ele><time>2012-07-18T16:03:10.0000000+00:00</time></trkpt><trkpt lat="64.20417023" lon="-21.46196365"><ele>231.7</ele><time>2012-07-18T16:03:15.0000000+00:00</time></trkpt><trkpt lat="64.20428467" lon="-21.4617157"><ele>232.5</ele><time>2012-07-18T16:03:20.0000000+00:00</time></trkpt><trkpt lat="64.20438385" lon="-21.46145058"><ele>231.3</ele><time>2012-07-18T16:03:25.0000000+00:00</time></trkpt><trkpt lat="64.20448303" lon="-21.46124268"><ele>231.2</ele><time>2012-07-18T16:03:30.0000000+00:00</time></trkpt><trkpt lat="64.20458221" lon="-21.46099091"><ele>232.4</ele><time>2012-07-18T16:03:35.0000000+00:00</time></trkpt><trkpt lat="64.20470429" lon="-21.46067619"><ele>233.0</ele><time>2012-07-18T16:03:40.0000000+00:00</time></trkpt><trkpt lat="64.20478821" lon="-21.46043587"><ele>233.8</ele><time>2012-07-18T16:03:45.0000000+00:00</time></trkpt><trkpt lat="64.20483398" lon="-21.460289"><ele>234.2</ele><time>2012-07-18T16:03:50.0000000+00:00</time></trkpt><trkpt lat="64.20491028" lon="-21.46010208"><ele>234.4</ele><time>2012-07-18T16:03:55.0000000+00:00</time></trkpt><trkpt lat="64.20500183" lon="-21.45981216"><ele>234.8</ele><time>2012-07-18T16:04:00.0000000+00:00</time></trkpt><trkpt lat="64.20510864" lon="-21.45952606"><ele>235.3</ele><time>2012-07-18T16:04:05.0000000+00:00</time></trkpt><trkpt lat="64.20520783" lon="-21.45922089"><ele>236.1</ele><time>2012-07-18T16:04:10.0000000+00:00</time></trkpt><trkpt lat="64.20529938" lon="-21.45889854"><ele>236.6</ele><time>2012-07-18T16:04:15.0000000+00:00</time></trkpt><trkpt lat="64.20539093" lon="-21.45862198"><ele>236.5</ele><time>2012-07-18T16:04:20.0000000+00:00</time></trkpt><trkpt lat="64.2054596" lon="-21.4583683"><ele>237.3</ele><time>2012-07-18T16:04:25.0000000+00:00</time></trkpt><trkpt lat="64.20553589" lon="-21.45811272"><ele>238.0</ele><time>2012-07-18T16:04:30.0000000+00:00</time></trkpt><trkpt lat="64.20561218" lon="-21.45783615"><ele>237.5</ele><time>2012-07-18T16:04:35.0000000+00:00</time></trkpt><trkpt lat="64.20565796" lon="-21.45762825"><ele>238.0</ele><time>2012-07-18T16:04:40.0000000+00:00</time></trkpt><trkpt lat="64.20571899" lon="-21.45739746"><ele>238.6</ele><time>2012-07-18T16:04:45.0000000+00:00</time></trkpt><trkpt lat="64.20579529" lon="-21.45710754"><ele>238.4</ele><time>2012-07-18T16:04:50.0000000+00:00</time></trkpt><trkpt lat="64.20587158" lon="-21.45677376"><ele>239.1</ele><time>2012-07-18T16:04:55.0000000+00:00</time></trkpt><trkpt lat="64.20594788" lon="-21.45642281"><ele>241.2</ele><time>2012-07-18T16:05:00.0000000+00:00</time></trkpt><trkpt lat="64.20602417" lon="-21.45605087"><ele>241.9</ele><time>2012-07-18T16:05:05.0000000+00:00</time></trkpt><trkpt lat="64.20608521" lon="-21.45577622"><ele>240.6</ele><time>2012-07-18T16:05:10.0000000+00:00</time></trkpt><trkpt lat="64.20611572" lon="-21.45559883"><ele>240.2</ele><time>2012-07-18T16:05:15.0000000+00:00</time></trkpt><trkpt lat="64.20613861" lon="-21.45550728"><ele>241.1</ele><time>2012-07-18T16:05:20.0000000+00:00</time></trkpt><trkpt lat="64.20617676" lon="-21.45527268"><ele>242.0</ele><time>2012-07-18T16:05:25.0000000+00:00</time></trkpt><trkpt lat="64.20623779" lon="-21.454916"><ele>240.6</ele><time>2012-07-18T16:05:30.0000000+00:00</time></trkpt><trkpt lat="64.20631409" lon="-21.45451164"><ele>241.3</ele><time>2012-07-18T16:05:35.0000000+00:00</time></trkpt><trkpt lat="64.20638275" lon="-21.45412445"><ele>242.0</ele><time>2012-07-18T16:05:40.0000000+00:00</time></trkpt><trkpt lat="64.20644379" lon="-21.45373535"><ele>241.9</ele><time>2012-07-18T16:05:45.0000000+00:00</time></trkpt><trkpt lat="64.20651245" lon="-21.45331574"><ele>241.4</ele><time>2012-07-18T16:05:50.0000000+00:00</time></trkpt><trkpt lat="64.20658112" lon="-21.45287514"><ele>240.9</ele><time>2012-07-18T16:05:55.0000000+00:00</time></trkpt><trkpt lat="64.20664215" lon="-21.45244598"><ele>240.8</ele><time>2012-07-18T16:06:00.0000000+00:00</time></trkpt><trkpt lat="64.20670319" lon="-21.45205498"><ele>241.2</ele><time>2012-07-18T16:06:05.0000000+00:00</time></trkpt><trkpt lat="64.20675659" lon="-21.45163345"><ele>240.9</ele><time>2012-07-18T16:06:10.0000000+00:00</time></trkpt><trkpt lat="64.20682526" lon="-21.45121956"><ele>239.8</ele><time>2012-07-18T16:06:15.0000000+00:00</time></trkpt><trkpt lat="64.20687866" lon="-21.45077133"><ele>239.5</ele><time>2012-07-18T16:06:20.0000000+00:00</time></trkpt><trkpt lat="64.2069397" lon="-21.45035172"><ele>239.8</ele><time>2012-07-18T16:06:25.0000000+00:00</time></trkpt><trkpt lat="64.2069931" lon="-21.44995117"><ele>241.4</ele><time>2012-07-18T16:06:30.0000000+00:00</time></trkpt><trkpt lat="64.20705414" lon="-21.44952583"><ele>241.2</ele><time>2012-07-18T16:06:35.0000000+00:00</time></trkpt><trkpt lat="64.20711517" lon="-21.44911575"><ele>241.0</ele><time>2012-07-18T16:06:40.0000000+00:00</time></trkpt><trkpt lat="64.20716858" lon="-21.44874764"><ele>242.7</ele><time>2012-07-18T16:06:45.0000000+00:00</time></trkpt><trkpt lat="64.20722199" lon="-21.44836617"><ele>241.7</ele><time>2012-07-18T16:06:50.0000000+00:00</time></trkpt><trkpt lat="64.20726776" lon="-21.44804955"><ele>241.6</ele><time>2012-07-18T16:06:55.0000000+00:00</time></trkpt><trkpt lat="64.20732117" lon="-21.44768524"><ele>242.3</ele><time>2012-07-18T16:07:00.0000000+00:00</time></trkpt><trkpt lat="64.2073822" lon="-21.44729614"><ele>242.3</ele><time>2012-07-18T16:07:05.0000000+00:00</time></trkpt><trkpt lat="64.20745087" lon="-21.44684792"><ele>243.4</ele><time>2012-07-18T16:07:10.0000000+00:00</time></trkpt><trkpt lat="64.20752716" lon="-21.44633102"><ele>242.6</ele><time>2012-07-18T16:07:15.0000000+00:00</time></trkpt><trkpt lat="64.20760346" lon="-21.44579315"><ele>242.5</ele><time>2012-07-18T16:07:20.0000000+00:00</time></trkpt><trkpt lat="64.20767212" lon="-21.44530678"><ele>242.8</ele><time>2012-07-18T16:07:25.0000000+00:00</time></trkpt><trkpt lat="64.20774078" lon="-21.44478607"><ele>243.3</ele><time>2012-07-18T16:07:30.0000000+00:00</time></trkpt><trkpt lat="64.20780182" lon="-21.44430733"><ele>243.4</ele><time>2012-07-18T16:07:35.0000000+00:00</time></trkpt><trkpt lat="64.20787811" lon="-21.44383049"><ele>243.7</ele><time>2012-07-18T16:07:40.0000000+00:00</time></trkpt><trkpt lat="64.20793915" lon="-21.44338608"><ele>243.1</ele><time>2012-07-18T16:07:45.0000000+00:00</time></trkpt><trkpt lat="64.20799255" lon="-21.44293785"><ele>243.4</ele><time>2012-07-18T16:07:50.0000000+00:00</time></trkpt><trkpt lat="64.20806122" lon="-21.44250488"><ele>243.9</ele><time>2012-07-18T16:07:55.0000000+00:00</time></trkpt><trkpt lat="64.20812225" lon="-21.44206047"><ele>244.2</ele><time>2012-07-18T16:08:00.0000000+00:00</time></trkpt><trkpt lat="64.20819092" lon="-21.44164467"><ele>244.8</ele><time>2012-07-18T16:08:05.0000000+00:00</time></trkpt><trkpt lat="64.20825958" lon="-21.44120407"><ele>245.1</ele><time>2012-07-18T16:08:10.0000000+00:00</time></trkpt><trkpt lat="64.20832062" lon="-21.4407711"><ele>245.8</ele><time>2012-07-18T16:08:15.0000000+00:00</time></trkpt><trkpt lat="64.20838165" lon="-21.4403553"><ele>247.6</ele><time>2012-07-18T16:08:20.0000000+00:00</time></trkpt><trkpt lat="64.20843506" lon="-21.43998337"><ele>249.3</ele><time>2012-07-18T16:08:25.0000000+00:00</time></trkpt><trkpt lat="64.20848846" lon="-21.43955803"><ele>246.8</ele><time>2012-07-18T16:08:30.0000000+00:00</time></trkpt><trkpt lat="64.20855713" lon="-21.43912315"><ele>244.7</ele><time>2012-07-18T16:08:35.0000000+00:00</time></trkpt><trkpt lat="64.20862579" lon="-21.43862343"><ele>246.7</ele><time>2012-07-18T16:08:40.0000000+00:00</time></trkpt><trkpt lat="64.20869446" lon="-21.43811226"><ele>245.9</ele><time>2012-07-18T16:08:45.0000000+00:00</time></trkpt><trkpt lat="64.20876312" lon="-21.43761253"><ele>246.3</ele><time>2012-07-18T16:08:50.0000000+00:00</time></trkpt><trkpt lat="64.20882416" lon="-21.43706894"><ele>244.2</ele><time>2012-07-18T16:08:55.0000000+00:00</time></trkpt><trkpt lat="64.20888519" lon="-21.43652916"><ele>244.5</ele><time>2012-07-18T16:09:00.0000000+00:00</time></trkpt><trkpt lat="64.20892334" lon="-21.43606186"><ele>243.7</ele><time>2012-07-18T16:09:05.0000000+00:00</time></trkpt><trkpt lat="64.20895386" lon="-21.43563652"><ele>244.8</ele><time>2012-07-18T16:09:10.0000000+00:00</time></trkpt><trkpt lat="64.20898438" lon="-21.43523789"><ele>244.8</ele><time>2012-07-18T16:09:15.0000000+00:00</time></trkpt><trkpt lat="64.20901489" lon="-21.43485642"><ele>244.0</ele><time>2012-07-18T16:09:20.0000000+00:00</time></trkpt><trkpt lat="64.20903778" lon="-21.43444634"><ele>243.3</ele><time>2012-07-18T16:09:25.0000000+00:00</time></trkpt><trkpt lat="64.20906067" lon="-21.43403435"><ele>241.6</ele><time>2012-07-18T16:09:30.0000000+00:00</time></trkpt><trkpt lat="64.20909882" lon="-21.43354797"><ele>240.9</ele><time>2012-07-18T16:09:35.0000000+00:00</time></trkpt><trkpt lat="64.20914459" lon="-21.4330349"><ele>242.7</ele><time>2012-07-18T16:09:40.0000000+00:00</time></trkpt><trkpt lat="64.20919037" lon="-21.43257332"><ele>245.1</ele><time>2012-07-18T16:09:45.0000000+00:00</time></trkpt><trkpt lat="64.20922089" lon="-21.43212128"><ele>247.2</ele><time>2012-07-18T16:09:50.0000000+00:00</time></trkpt><trkpt lat="64.2092514" lon="-21.43171692"><ele>248.1</ele><time>2012-07-18T16:09:55.0000000+00:00</time></trkpt><trkpt lat="64.20927429" lon="-21.43131065"><ele>247.7</ele><time>2012-07-18T16:10:00.0000000+00:00</time></trkpt><trkpt lat="64.20931244" lon="-21.43091965"><ele>247.5</ele><time>2012-07-18T16:10:05.0000000+00:00</time></trkpt><trkpt lat="64.20935059" lon="-21.43042564"><ele>245.9</ele><time>2012-07-18T16:10:10.0000000+00:00</time></trkpt><trkpt lat="64.2093811" lon="-21.4299221"><ele>244.4</ele><time>2012-07-18T16:10:15.0000000+00:00</time></trkpt><trkpt lat="64.20941925" lon="-21.42942047"><ele>243.1</ele><time>2012-07-18T16:10:20.0000000+00:00</time></trkpt><trkpt lat="64.2094574" lon="-21.42893028"><ele>242.9</ele><time>2012-07-18T16:10:25.0000000+00:00</time></trkpt><trkpt lat="64.20948792" lon="-21.42835045"><ele>240.8</ele><time>2012-07-18T16:10:30.0000000+00:00</time></trkpt><trkpt lat="64.20952606" lon="-21.42777443"><ele>237.7</ele><time>2012-07-18T16:10:35.0000000+00:00</time></trkpt><trkpt lat="64.20957184" lon="-21.42716408"><ele>235.5</ele><time>2012-07-18T16:10:40.0000000+00:00</time></trkpt><trkpt lat="64.20960999" lon="-21.42648697"><ele>235.3</ele><time>2012-07-18T16:10:45.0000000+00:00</time></trkpt><trkpt lat="64.20965576" lon="-21.4257679"><ele>236.3</ele><time>2012-07-18T16:10:50.0000000+00:00</time></trkpt><trkpt lat="64.20968628" lon="-21.42499733"><ele>236.7</ele><time>2012-07-18T16:10:55.0000000+00:00</time></trkpt><trkpt lat="64.20969391" lon="-21.42416"><ele>237.4</ele><time>2012-07-18T16:11:00.0000000+00:00</time></trkpt><trkpt lat="64.20967865" lon="-21.42328262"><ele>236.0</ele><time>2012-07-18T16:11:05.0000000+00:00</time></trkpt><trkpt lat="64.20963287" lon="-21.42243195"><ele>235.4</ele><time>2012-07-18T16:11:10.0000000+00:00</time></trkpt><trkpt lat="64.20957947" lon="-21.42167282"><ele>235.1</ele><time>2012-07-18T16:11:15.0000000+00:00</time></trkpt><trkpt lat="64.20951843" lon="-21.42102051"><ele>232.8</ele><time>2012-07-18T16:11:20.0000000+00:00</time></trkpt><trkpt lat="64.2094574" lon="-21.42045403"><ele>232.4</ele><time>2012-07-18T16:11:25.0000000+00:00</time></trkpt><trkpt lat="64.20938873" lon="-21.41990662"><ele>234.1</ele><time>2012-07-18T16:11:30.0000000+00:00</time></trkpt><trkpt lat="64.20931244" lon="-21.41937256"><ele>235.0</ele><time>2012-07-18T16:11:35.0000000+00:00</time></trkpt><trkpt lat="64.20922852" lon="-21.41885567"><ele>237.7</ele><time>2012-07-18T16:11:40.0000000+00:00</time></trkpt><trkpt lat="64.2091217" lon="-21.41832352"><ele>237.6</ele><time>2012-07-18T16:11:45.0000000+00:00</time></trkpt><trkpt lat="64.20899963" lon="-21.417799"><ele>238.9</ele><time>2012-07-18T16:11:50.0000000+00:00</time></trkpt><trkpt lat="64.20890808" lon="-21.41740227"><ele>238.2</ele><time>2012-07-18T16:11:55.0000000+00:00</time></trkpt><trkpt lat="64.20883942" lon="-21.41709518"><ele>239.7</ele><time>2012-07-18T16:12:00.0000000+00:00</time></trkpt><trkpt lat="64.20877838" lon="-21.41680908"><ele>240.6</ele><time>2012-07-18T16:12:05.0000000+00:00</time></trkpt><trkpt lat="64.20870209" lon="-21.41651726"><ele>242.2</ele><time>2012-07-18T16:12:10.0000000+00:00</time></trkpt><trkpt lat="64.20863342" lon="-21.41630554"><ele>240.3</ele><time>2012-07-18T16:12:15.0000000+00:00</time></trkpt><trkpt lat="64.20858765" lon="-21.41613388"><ele>239.8</ele><time>2012-07-18T16:12:20.0000000+00:00</time></trkpt><trkpt lat="64.20854187" lon="-21.41596031"><ele>239.2</ele><time>2012-07-18T16:12:25.0000000+00:00</time></trkpt><trkpt lat="64.20848846" lon="-21.41580772"><ele>237.0</ele><time>2012-07-18T16:12:30.0000000+00:00</time></trkpt><trkpt lat="64.20845032" lon="-21.41564941"><ele>236.4</ele><time>2012-07-18T16:12:35.0000000+00:00</time></trkpt><trkpt lat="64.20841217" lon="-21.41550636"><ele>236.6</ele><time>2012-07-18T16:12:40.0000000+00:00</time></trkpt><trkpt lat="64.20837402" lon="-21.41536331"><ele>237.0</ele><time>2012-07-18T16:12:45.0000000+00:00</time></trkpt><trkpt lat="64.20834351" lon="-21.41524124"><ele>237.3</ele><time>2012-07-18T16:12:50.0000000+00:00</time></trkpt><trkpt lat="64.20830536" lon="-21.41512299"><ele>236.3</ele><time>2012-07-18T16:12:55.0000000+00:00</time></trkpt><trkpt lat="64.20826721" lon="-21.41498947"><ele>238.0</ele><time>2012-07-18T16:13:00.0000000+00:00</time></trkpt><trkpt lat="64.20822144" lon="-21.41485405"><ele>239.3</ele><time>2012-07-18T16:13:05.0000000+00:00</time></trkpt><trkpt lat="64.20817566" lon="-21.41469955"><ele>239.5</ele><time>2012-07-18T16:13:10.0000000+00:00</time></trkpt><trkpt lat="64.20812225" lon="-21.4145298"><ele>238.4</ele><time>2012-07-18T16:13:15.0000000+00:00</time></trkpt><trkpt lat="64.20809937" lon="-21.41446495"><ele>239.9</ele><time>2012-07-18T16:13:20.0000000+00:00</time></trkpt><trkpt lat="64.20809174" lon="-21.41437912"><ele>240.3</ele><time>2012-07-18T16:13:25.0000000+00:00</time></trkpt><trkpt lat="64.2080307" lon="-21.41414261"><ele>239.3</ele><time>2012-07-18T16:13:30.0000000+00:00</time></trkpt><trkpt lat="64.20795441" lon="-21.41390991"><ele>240.2</ele><time>2012-07-18T16:13:35.0000000+00:00</time></trkpt><trkpt lat="64.207901" lon="-21.4137497"><ele>239.3</ele><time>2012-07-18T16:13:40.0000000+00:00</time></trkpt><trkpt lat="64.20785523" lon="-21.41360092"><ele>238.1</ele><time>2012-07-18T16:13:45.0000000+00:00</time></trkpt><trkpt lat="64.20781708" lon="-21.41344833"><ele>238.8</ele><time>2012-07-18T16:13:50.0000000+00:00</time></trkpt><trkpt lat="64.20778656" lon="-21.41334152"><ele>240.3</ele><time>2012-07-18T16:13:55.0000000+00:00</time></trkpt><trkpt lat="64.20775604" lon="-21.41320992"><ele>241.8</ele><time>2012-07-18T16:14:00.0000000+00:00</time></trkpt><trkpt lat="64.2077179" lon="-21.4130497"><ele>242.9</ele><time>2012-07-18T16:14:05.0000000+00:00</time></trkpt><trkpt lat="64.20765686" lon="-21.41289711"><ele>243.7</ele><time>2012-07-18T16:14:10.0000000+00:00</time></trkpt><trkpt lat="64.20760346" lon="-21.41265678"><ele>243.7</ele><time>2012-07-18T16:14:15.0000000+00:00</time></trkpt><trkpt lat="64.20751953" lon="-21.41240311"><ele>242.9</ele><time>2012-07-18T16:14:20.0000000+00:00</time></trkpt><trkpt lat="64.20745087" lon="-21.4121933"><ele>244.2</ele><time>2012-07-18T16:14:25.0000000+00:00</time></trkpt><trkpt lat="64.20740509" lon="-21.41204262"><ele>244.3</ele><time>2012-07-18T16:14:30.0000000+00:00</time></trkpt><trkpt lat="64.20737457" lon="-21.41189957"><ele>244.6</ele><time>2012-07-18T16:14:35.0000000+00:00</time></trkpt><trkpt lat="64.2073288" lon="-21.41172218"><ele>244.6</ele><time>2012-07-18T16:14:40.0000000+00:00</time></trkpt><trkpt lat="64.20728302" lon="-21.41156006"><ele>243.6</ele><time>2012-07-18T16:14:45.0000000+00:00</time></trkpt><trkpt lat="64.20722961" lon="-21.4113884"><ele>243.8</ele><time>2012-07-18T16:14:50.0000000+00:00</time></trkpt><trkpt lat="64.20718384" lon="-21.41122055"><ele>244.9</ele><time>2012-07-18T16:14:55.0000000+00:00</time></trkpt><trkpt lat="64.20713806" lon="-21.41106224"><ele>247.2</ele><time>2012-07-18T16:15:00.0000000+00:00</time></trkpt><trkpt lat="64.20711517" lon="-21.41098404"><ele>246.7</ele><time>2012-07-18T16:15:05.0000000+00:00</time></trkpt><trkpt lat="64.20709229" lon="-21.41088104"><ele>247.5</ele><time>2012-07-18T16:15:10.0000000+00:00</time></trkpt><trkpt lat="64.2070694" lon="-21.41074753"><ele>249.7</ele><time>2012-07-18T16:15:15.0000000+00:00</time></trkpt><trkpt lat="64.20701599" lon="-21.41059494"><ele>251.3</ele><time>2012-07-18T16:15:20.0000000+00:00</time></trkpt><trkpt lat="64.20694733" lon="-21.41038895"><ele>251.3</ele><time>2012-07-18T16:15:25.0000000+00:00</time></trkpt><trkpt lat="64.20688629" lon="-21.41017914"><ele>251.8</ele><time>2012-07-18T16:15:30.0000000+00:00</time></trkpt><trkpt lat="64.20684052" lon="-21.40997505"><ele>252.0</ele><time>2012-07-18T16:15:35.0000000+00:00</time></trkpt><trkpt lat="64.20678711" lon="-21.40975761"><ele>252.4</ele><time>2012-07-18T16:15:40.0000000+00:00</time></trkpt><trkpt lat="64.20672607" lon="-21.40953445"><ele>254.5</ele><time>2012-07-18T16:15:45.0000000+00:00</time></trkpt><trkpt lat="64.20664978" lon="-21.40922546"><ele>253.9</ele><time>2012-07-18T16:15:50.0000000+00:00</time></trkpt><trkpt lat="64.20658112" lon="-21.40892601"><ele>253.8</ele><time>2012-07-18T16:15:55.0000000+00:00</time></trkpt><trkpt lat="64.20652771" lon="-21.40867996"><ele>254.6</ele><time>2012-07-18T16:16:00.0000000+00:00</time></trkpt><trkpt lat="64.20648193" lon="-21.40842056"><ele>254.1</ele><time>2012-07-18T16:16:05.0000000+00:00</time></trkpt><trkpt lat="64.20641327" lon="-21.40807343"><ele>254.6</ele><time>2012-07-18T16:16:10.0000000+00:00</time></trkpt><trkpt lat="64.20635223" lon="-21.40772057"><ele>256.0</ele><time>2012-07-18T16:16:15.0000000+00:00</time></trkpt><trkpt lat="64.20630646" lon="-21.40735245"><ele>255.8</ele><time>2012-07-18T16:16:20.0000000+00:00</time></trkpt><trkpt lat="64.20623779" lon="-21.40688133"><ele>254.9</ele><time>2012-07-18T16:16:25.0000000+00:00</time></trkpt><trkpt lat="64.20617676" lon="-21.40639305"><ele>253.9</ele><time>2012-07-18T16:16:30.0000000+00:00</time></trkpt><trkpt lat="64.20610809" lon="-21.40588188"><ele>253.4</ele><time>2012-07-18T16:16:35.0000000+00:00</time></trkpt><trkpt lat="64.2060318" lon="-21.40532303"><ele>252.6</ele><time>2012-07-18T16:16:40.0000000+00:00</time></trkpt><trkpt lat="64.20595551" lon="-21.40470886"><ele>251.1</ele><time>2012-07-18T16:16:45.0000000+00:00</time></trkpt><trkpt lat="64.20588684" lon="-21.40415955"><ele>250.0</ele><time>2012-07-18T16:16:50.0000000+00:00</time></trkpt><trkpt lat="64.20581818" lon="-21.40368652"><ele>249.8</ele><time>2012-07-18T16:16:55.0000000+00:00</time></trkpt><trkpt lat="64.20576477" lon="-21.40317917"><ele>248.0</ele><time>2012-07-18T16:17:00.0000000+00:00</time></trkpt><trkpt lat="64.20572662" lon="-21.40272522"><ele>247.3</ele><time>2012-07-18T16:17:05.0000000+00:00</time></trkpt><trkpt lat="64.20568848" lon="-21.40228462"><ele>247.0</ele><time>2012-07-18T16:17:10.0000000+00:00</time></trkpt><trkpt lat="64.20566559" lon="-21.40177345"><ele>247.4</ele><time>2012-07-18T16:17:15.0000000+00:00</time></trkpt><trkpt lat="64.2056427" lon="-21.40124321"><ele>246.8</ele><time>2012-07-18T16:17:20.0000000+00:00</time></trkpt><trkpt lat="64.20562744" lon="-21.40071487"><ele>246.1</ele><time>2012-07-18T16:17:25.0000000+00:00</time></trkpt><trkpt lat="64.20561981" lon="-21.40019417"><ele>245.5</ele><time>2012-07-18T16:17:30.0000000+00:00</time></trkpt><trkpt lat="64.20563507" lon="-21.39970398"><ele>245.3</ele><time>2012-07-18T16:17:35.0000000+00:00</time></trkpt><trkpt lat="64.20565033" lon="-21.39921761"><ele>244.2</ele><time>2012-07-18T16:17:40.0000000+00:00</time></trkpt><trkpt lat="64.20567322" lon="-21.39877129"><ele>243.4</ele><time>2012-07-18T16:17:45.0000000+00:00</time></trkpt><trkpt lat="64.20569611" lon="-21.39833832"><ele>244.0</ele><time>2012-07-18T16:17:50.0000000+00:00</time></trkpt><trkpt lat="64.20571899" lon="-21.39792061"><ele>243.3</ele><time>2012-07-18T16:17:55.0000000+00:00</time></trkpt><trkpt lat="64.20575714" lon="-21.39749146"><ele>243.5</ele><time>2012-07-18T16:18:00.0000000+00:00</time></trkpt><trkpt lat="64.20579529" lon="-21.3970871"><ele>245.1</ele><time>2012-07-18T16:18:05.0000000+00:00</time></trkpt><trkpt lat="64.20582581" lon="-21.39671135"><ele>245.0</ele><time>2012-07-18T16:18:10.0000000+00:00</time></trkpt><trkpt lat="64.20585632" lon="-21.39635658"><ele>245.9</ele><time>2012-07-18T16:18:15.0000000+00:00</time></trkpt><trkpt lat="64.20587921" lon="-21.3959465"><ele>246.6</ele><time>2012-07-18T16:18:20.0000000+00:00</time></trkpt><trkpt lat="64.2059021" lon="-21.39548111"><ele>245.7</ele><time>2012-07-18T16:18:25.0000000+00:00</time></trkpt><trkpt lat="64.20594788" lon="-21.39496994"><ele>244.3</ele><time>2012-07-18T16:18:30.0000000+00:00</time></trkpt><trkpt lat="64.20597839" lon="-21.3944397"><ele>244.0</ele><time>2012-07-18T16:18:35.0000000+00:00</time></trkpt><trkpt lat="64.20602417" lon="-21.39386368"><ele>243.2</ele><time>2012-07-18T16:18:40.0000000+00:00</time></trkpt><trkpt lat="64.20606995" lon="-21.39326668"><ele>243.0</ele><time>2012-07-18T16:18:45.0000000+00:00</time></trkpt><trkpt lat="64.20613861" lon="-21.39266014"><ele>243.7</ele><time>2012-07-18T16:18:50.0000000+00:00</time></trkpt><trkpt lat="64.20622253" lon="-21.39207459"><ele>244.8</ele><time>2012-07-18T16:18:55.0000000+00:00</time></trkpt><trkpt lat="64.20629883" lon="-21.39147377"><ele>243.3</ele><time>2012-07-18T16:19:00.0000000+00:00</time></trkpt><trkpt lat="64.20639038" lon="-21.39096069"><ele>244.5</ele><time>2012-07-18T16:19:05.0000000+00:00</time></trkpt><trkpt lat="64.2064743" lon="-21.39053726"><ele>248.2</ele><time>2012-07-18T16:19:10.0000000+00:00</time></trkpt><trkpt lat="64.20653534" lon="-21.39017296"><ele>250.5</ele><time>2012-07-18T16:19:15.0000000+00:00</time></trkpt><trkpt lat="64.20661163" lon="-21.38982201"><ele>250.9</ele><time>2012-07-18T16:19:20.0000000+00:00</time></trkpt><trkpt lat="64.20668793" lon="-21.38940811"><ele>249.8</ele><time>2012-07-18T16:19:25.0000000+00:00</time></trkpt><trkpt lat="64.20677185" lon="-21.38902855"><ele>249.8</ele><time>2012-07-18T16:19:30.0000000+00:00</time></trkpt><trkpt lat="64.20684052" lon="-21.38866425"><ele>251.3</ele><time>2012-07-18T16:19:35.0000000+00:00</time></trkpt><trkpt lat="64.20690918" lon="-21.38832283"><ele>252.4</ele><time>2012-07-18T16:19:40.0000000+00:00</time></trkpt><trkpt lat="64.20698547" lon="-21.38794518"><ele>251.3</ele><time>2012-07-18T16:19:45.0000000+00:00</time></trkpt><trkpt lat="64.20706177" lon="-21.38757706"><ele>251.5</ele><time>2012-07-18T16:19:50.0000000+00:00</time></trkpt><trkpt lat="64.20713806" lon="-21.3871975"><ele>250.8</ele><time>2012-07-18T16:19:55.0000000+00:00</time></trkpt><trkpt lat="64.2071991" lon="-21.38687706"><ele>247.6</ele><time>2012-07-18T16:20:00.0000000+00:00</time></trkpt><trkpt lat="64.20727539" lon="-21.38652229"><ele>245.8</ele><time>2012-07-18T16:20:05.0000000+00:00</time></trkpt><trkpt lat="64.20735169" lon="-21.38619232"><ele>245.6</ele><time>2012-07-18T16:20:10.0000000+00:00</time></trkpt><trkpt lat="64.20741272" lon="-21.38588715"><ele>245.5</ele><time>2012-07-18T16:20:15.0000000+00:00</time></trkpt><trkpt lat="64.20748138" lon="-21.38555908"><ele>248.1</ele><time>2012-07-18T16:20:20.0000000+00:00</time></trkpt><trkpt lat="64.20755005" lon="-21.38519859"><ele>247.8</ele><time>2012-07-18T16:20:25.0000000+00:00</time></trkpt><trkpt lat="64.2076416" lon="-21.38481331"><ele>249.9</ele><time>2012-07-18T16:20:30.0000000+00:00</time></trkpt><trkpt lat="64.20773315" lon="-21.3843689"><ele>249.8</ele><time>2012-07-18T16:20:35.0000000+00:00</time></trkpt><trkpt lat="64.20783997" lon="-21.3839016"><ele>251.4</ele><time>2012-07-18T16:20:40.0000000+00:00</time></trkpt><trkpt lat="64.20795441" lon="-21.38347435"><ele>254.1</ele><time>2012-07-18T16:20:45.0000000+00:00</time></trkpt><trkpt lat="64.20805359" lon="-21.38307381"><ele>253.1</ele><time>2012-07-18T16:20:50.0000000+00:00</time></trkpt><trkpt lat="64.20815277" lon="-21.38270378"><ele>252.5</ele><time>2012-07-18T16:20:55.0000000+00:00</time></trkpt><trkpt lat="64.20827484" lon="-21.38233566"><ele>254.2</ele><time>2012-07-18T16:21:00.0000000+00:00</time></trkpt><trkpt lat="64.20838165" lon="-21.3819809"><ele>257.6</ele><time>2012-07-18T16:21:05.0000000+00:00</time></trkpt><trkpt lat="64.20850372" lon="-21.38159943"><ele>258.0</ele><time>2012-07-18T16:21:10.0000000+00:00</time></trkpt><trkpt lat="64.20862579" lon="-21.38120842"><ele>256.8</ele><time>2012-07-18T16:21:15.0000000+00:00</time></trkpt><trkpt lat="64.20874786" lon="-21.38083077"><ele>256.0</ele><time>2012-07-18T16:21:20.0000000+00:00</time></trkpt><trkpt lat="64.20885468" lon="-21.38051033"><ele>257.3</ele><time>2012-07-18T16:21:25.0000000+00:00</time></trkpt><trkpt lat="64.20897675" lon="-21.3801136"><ele>256.9</ele><time>2012-07-18T16:21:30.0000000+00:00</time></trkpt><trkpt lat="64.20908356" lon="-21.37977982"><ele>257.8</ele><time>2012-07-18T16:21:35.0000000+00:00</time></trkpt><trkpt lat="64.20916748" lon="-21.37948799"><ele>259.0</ele><time>2012-07-18T16:21:40.0000000+00:00</time></trkpt><trkpt lat="64.20922852" lon="-21.37922478"><ele>255.7</ele><time>2012-07-18T16:21:45.0000000+00:00</time></trkpt><trkpt lat="64.20931244" lon="-21.37888527"><ele>254.6</ele><time>2012-07-18T16:21:50.0000000+00:00</time></trkpt><trkpt lat="64.20941162" lon="-21.37849808"><ele>256.2</ele><time>2012-07-18T16:21:55.0000000+00:00</time></trkpt><trkpt lat="64.2095108" lon="-21.37811089"><ele>253.8</ele><time>2012-07-18T16:22:00.0000000+00:00</time></trkpt><trkpt lat="64.20962524" lon="-21.37763023"><ele>255.3</ele><time>2012-07-18T16:22:05.0000000+00:00</time></trkpt><trkpt lat="64.20973969" lon="-21.37713623"><ele>256.2</ele><time>2012-07-18T16:22:10.0000000+00:00</time></trkpt><trkpt lat="64.20985413" lon="-21.37659645"><ele>258.3</ele><time>2012-07-18T16:22:15.0000000+00:00</time></trkpt><trkpt lat="64.2099762" lon="-21.37603188"><ele>258.2</ele><time>2012-07-18T16:22:20.0000000+00:00</time></trkpt><trkpt lat="64.2101059" lon="-21.37545776"><ele>261.7</ele><time>2012-07-18T16:22:25.0000000+00:00</time></trkpt><trkpt lat="64.2102356" lon="-21.37490654"><ele>261.8</ele><time>2012-07-18T16:22:30.0000000+00:00</time></trkpt><trkpt lat="64.21034241" lon="-21.37439728"><ele>261.4</ele><time>2012-07-18T16:22:35.0000000+00:00</time></trkpt><trkpt lat="64.21045685" lon="-21.37390328"><ele>263.4</ele><time>2012-07-18T16:22:40.0000000+00:00</time></trkpt><trkpt lat="64.21057892" lon="-21.37336159"><ele>263.5</ele><time>2012-07-18T16:22:45.0000000+00:00</time></trkpt><trkpt lat="64.21070862" lon="-21.37278938"><ele>264.2</ele><time>2012-07-18T16:22:50.0000000+00:00</time></trkpt><trkpt lat="64.21081543" lon="-21.37226868"><ele>264.3</ele><time>2012-07-18T16:22:55.0000000+00:00</time></trkpt><trkpt lat="64.21092224" lon="-21.37175942"><ele>264.9</ele><time>2012-07-18T16:23:00.0000000+00:00</time></trkpt><trkpt lat="64.21104431" lon="-21.37122726"><ele>265.6</ele><time>2012-07-18T16:23:05.0000000+00:00</time></trkpt><trkpt lat="64.21115875" lon="-21.3706913"><ele>265.5</ele><time>2012-07-18T16:23:10.0000000+00:00</time></trkpt><trkpt lat="64.21128082" lon="-21.37016106"><ele>265.6</ele><time>2012-07-18T16:23:15.0000000+00:00</time></trkpt><trkpt lat="64.21140289" lon="-21.36960602"><ele>264.8</ele><time>2012-07-18T16:23:20.0000000+00:00</time></trkpt><trkpt lat="64.21152496" lon="-21.36901856"><ele>264.6</ele><time>2012-07-18T16:23:25.0000000+00:00</time></trkpt><trkpt lat="64.21164703" lon="-21.36846352"><ele>264.2</ele><time>2012-07-18T16:23:30.0000000+00:00</time></trkpt><trkpt lat="64.21176148" lon="-21.36792183"><ele>264.3</ele><time>2012-07-18T16:23:35.0000000+00:00</time></trkpt><trkpt lat="64.21188355" lon="-21.3673687"><ele>263.3</ele><time>2012-07-18T16:23:40.0000000+00:00</time></trkpt><trkpt lat="64.21199799" lon="-21.36682892"><ele>263.2</ele><time>2012-07-18T16:23:45.0000000+00:00</time></trkpt><trkpt lat="64.21212006" lon="-21.3662529"><ele>263.0</ele><time>2012-07-18T16:23:50.0000000+00:00</time></trkpt><trkpt lat="64.21224976" lon="-21.36569023"><ele>263.7</ele><time>2012-07-18T16:23:55.0000000+00:00</time></trkpt><trkpt lat="64.21237183" lon="-21.36514473"><ele>264.3</ele><time>2012-07-18T16:24:00.0000000+00:00</time></trkpt><trkpt lat="64.21248627" lon="-21.36458206"><ele>263.7</ele><time>2012-07-18T16:24:05.0000000+00:00</time></trkpt><trkpt lat="64.21261597" lon="-21.36404419"><ele>263.5</ele><time>2012-07-18T16:24:10.0000000+00:00</time></trkpt><trkpt lat="64.21273041" lon="-21.36351776"><ele>263.5</ele><time>2012-07-18T16:24:15.0000000+00:00</time></trkpt><trkpt lat="64.21283722" lon="-21.36300087"><ele>263.6</ele><time>2012-07-18T16:24:20.0000000+00:00</time></trkpt><trkpt lat="64.2129364" lon="-21.36250687"><ele>262.2</ele><time>2012-07-18T16:24:25.0000000+00:00</time></trkpt><trkpt lat="64.21302795" lon="-21.36204147"><ele>262.7</ele><time>2012-07-18T16:24:30.0000000+00:00</time></trkpt><trkpt lat="64.21311951" lon="-21.36161232"><ele>263.9</ele><time>2012-07-18T16:24:35.0000000+00:00</time></trkpt><trkpt lat="64.21320343" lon="-21.36116219"><ele>264.2</ele><time>2012-07-18T16:24:40.0000000+00:00</time></trkpt><trkpt lat="64.21328735" lon="-21.36070252"><ele>264.3</ele><time>2012-07-18T16:24:45.0000000+00:00</time></trkpt><trkpt lat="64.21335602" lon="-21.36019898"><ele>263.3</ele><time>2012-07-18T16:24:50.0000000+00:00</time></trkpt><trkpt lat="64.21343231" lon="-21.35967064"><ele>263.0</ele><time>2012-07-18T16:24:55.0000000+00:00</time></trkpt><trkpt lat="64.21350098" lon="-21.35908699"><ele>262.8</ele><time>2012-07-18T16:25:00.0000000+00:00</time></trkpt><trkpt lat="64.21356964" lon="-21.35847282"><ele>261.0</ele><time>2012-07-18T16:25:05.0000000+00:00</time></trkpt><trkpt lat="64.21363068" lon="-21.3578434"><ele>260.1</ele><time>2012-07-18T16:25:10.0000000+00:00</time></trkpt><trkpt lat="64.21369934" lon="-21.35720635"><ele>260.0</ele><time>2012-07-18T16:25:15.0000000+00:00</time></trkpt><trkpt lat="64.21376038" lon="-21.35658073"><ele>259.7</ele><time>2012-07-18T16:25:20.0000000+00:00</time></trkpt><trkpt lat="64.21382904" lon="-21.35597611"><ele>259.4</ele><time>2012-07-18T16:25:25.0000000+00:00</time></trkpt><trkpt lat="64.21388245" lon="-21.35536194"><ele>258.6</ele><time>2012-07-18T16:25:30.0000000+00:00</time></trkpt><trkpt lat="64.21394348" lon="-21.35474968"><ele>258.6</ele><time>2012-07-18T16:25:35.0000000+00:00</time></trkpt><trkpt lat="64.21399689" lon="-21.35417366"><ele>258.9</ele><time>2012-07-18T16:25:40.0000000+00:00</time></trkpt><trkpt lat="64.21404266" lon="-21.35363579"><ele>258.6</ele><time>2012-07-18T16:25:45.0000000+00:00</time></trkpt><trkpt lat="64.21409607" lon="-21.35310555"><ele>260.7</ele><time>2012-07-18T16:25:50.0000000+00:00</time></trkpt><trkpt lat="64.21414185" lon="-21.35258865"><ele>262.2</ele><time>2012-07-18T16:25:55.0000000+00:00</time></trkpt><trkpt lat="64.21417999" lon="-21.35207939"><ele>263.9</ele><time>2012-07-18T16:26:00.0000000+00:00</time></trkpt><trkpt lat="64.21422577" lon="-21.35157204"><ele>265.0</ele><time>2012-07-18T16:26:05.0000000+00:00</time></trkpt><trkpt lat="64.21427918" lon="-21.35105515"><ele>265.5</ele><time>2012-07-18T16:26:10.0000000+00:00</time></trkpt><trkpt lat="64.21434021" lon="-21.35052109"><ele>266.1</ele><time>2012-07-18T16:26:15.0000000+00:00</time></trkpt><trkpt lat="64.21438599" lon="-21.3501091"><ele>264.7</ele><time>2012-07-18T16:26:20.0000000+00:00</time></trkpt><trkpt lat="64.21442413" lon="-21.34967041"><ele>264.3</ele><time>2012-07-18T16:26:25.0000000+00:00</time></trkpt><trkpt lat="64.21446228" lon="-21.34916306"><ele>261.4</ele><time>2012-07-18T16:26:30.0000000+00:00</time></trkpt><trkpt lat="64.21448517" lon="-21.34872437"><ele>262.5</ele><time>2012-07-18T16:26:35.0000000+00:00</time></trkpt><trkpt lat="64.21452332" lon="-21.34827805"><ele>264.0</ele><time>2012-07-18T16:26:40.0000000+00:00</time></trkpt><trkpt lat="64.21456146" lon="-21.34779739"><ele>263.8</ele><time>2012-07-18T16:26:45.0000000+00:00</time></trkpt><trkpt lat="64.21459198" lon="-21.34740067"><ele>267.1</ele><time>2012-07-18T16:26:50.0000000+00:00</time></trkpt><trkpt lat="64.21461487" lon="-21.34690285"><ele>267.5</ele><time>2012-07-18T16:26:55.0000000+00:00</time></trkpt><trkpt lat="64.21463776" lon="-21.34639549"><ele>268.6</ele><time>2012-07-18T16:27:00.0000000+00:00</time></trkpt><trkpt lat="64.21463776" lon="-21.34587288"><ele>268.1</ele><time>2012-07-18T16:27:05.0000000+00:00</time></trkpt><trkpt lat="64.2146225" lon="-21.34536171"><ele>265.1</ele><time>2012-07-18T16:27:10.0000000+00:00</time></trkpt><trkpt lat="64.21459961" lon="-21.34490013"><ele>266.0</ele><time>2012-07-18T16:27:15.0000000+00:00</time></trkpt><trkpt lat="64.21456146" lon="-21.34443283"><ele>265.3</ele><time>2012-07-18T16:27:20.0000000+00:00</time></trkpt><trkpt lat="64.21453095" lon="-21.34392929"><ele>266.3</ele><time>2012-07-18T16:27:25.0000000+00:00</time></trkpt><trkpt lat="64.21446991" lon="-21.34337235"><ele>265.6</ele><time>2012-07-18T16:27:30.0000000+00:00</time></trkpt><trkpt lat="64.21437836" lon="-21.34275818"><ele>264.5</ele><time>2012-07-18T16:27:35.0000000+00:00</time></trkpt><trkpt lat="64.21425629" lon="-21.34207344"><ele>262.6</ele><time>2012-07-18T16:27:40.0000000+00:00</time></trkpt><trkpt lat="64.21409607" lon="-21.34128571"><ele>260.4</ele><time>2012-07-18T16:27:45.0000000+00:00</time></trkpt><trkpt lat="64.21390533" lon="-21.34041596"><ele>255.7</ele><time>2012-07-18T16:27:50.0000000+00:00</time></trkpt><trkpt lat="64.21369934" lon="-21.3395195"><ele>251.2</ele><time>2012-07-18T16:27:55.0000000+00:00</time></trkpt><trkpt lat="64.21350098" lon="-21.33865738"><ele>250.4</ele><time>2012-07-18T16:28:00.0000000+00:00</time></trkpt><trkpt lat="64.21329498" lon="-21.33781815"><ele>249.4</ele><time>2012-07-18T16:28:05.0000000+00:00</time></trkpt><trkpt lat="64.21312714" lon="-21.33693886"><ele>247.6</ele><time>2012-07-18T16:28:10.0000000+00:00</time></trkpt><trkpt lat="64.21298981" lon="-21.33605576"><ele>246.8</ele><time>2012-07-18T16:28:15.0000000+00:00</time></trkpt><trkpt lat="64.21286011" lon="-21.33520508"><ele>246.7</ele><time>2012-07-18T16:28:20.0000000+00:00</time></trkpt><trkpt lat="64.21276093" lon="-21.33444405"><ele>245.0</ele><time>2012-07-18T16:28:25.0000000+00:00</time></trkpt><trkpt lat="64.21269226" lon="-21.33372116"><ele>247.2</ele><time>2012-07-18T16:28:30.0000000+00:00</time></trkpt><trkpt lat="64.21260834" lon="-21.33300018"><ele>246.8</ele><time>2012-07-18T16:28:35.0000000+00:00</time></trkpt><trkpt lat="64.21253204" lon="-21.3323288"><ele>246.5</ele><time>2012-07-18T16:28:40.0000000+00:00</time></trkpt><trkpt lat="64.21245575" lon="-21.3316536"><ele>245.0</ele><time>2012-07-18T16:28:45.0000000+00:00</time></trkpt><trkpt lat="64.2123642" lon="-21.33094406"><ele>244.0</ele><time>2012-07-18T16:28:50.0000000+00:00</time></trkpt><trkpt lat="64.21228027" lon="-21.33020401"><ele>243.6</ele><time>2012-07-18T16:28:55.0000000+00:00</time></trkpt><trkpt lat="64.21218872" lon="-21.32942963"><ele>242.7</ele><time>2012-07-18T16:29:00.0000000+00:00</time></trkpt><trkpt lat="64.21208954" lon="-21.32863617"><ele>242.1</ele><time>2012-07-18T16:29:05.0000000+00:00</time></trkpt><trkpt lat="64.21199036" lon="-21.32781982"><ele>241.2</ele><time>2012-07-18T16:29:10.0000000+00:00</time></trkpt><trkpt lat="64.2118988" lon="-21.32703209"><ele>241.8</ele><time>2012-07-18T16:29:15.0000000+00:00</time></trkpt><trkpt lat="64.21181488" lon="-21.32621765"><ele>241.8</ele><time>2012-07-18T16:29:20.0000000+00:00</time></trkpt><trkpt lat="64.2117157" lon="-21.32538605"><ele>242.5</ele><time>2012-07-18T16:29:25.0000000+00:00</time></trkpt><trkpt lat="64.21160889" lon="-21.32456017"><ele>241.2</ele><time>2012-07-18T16:29:30.0000000+00:00</time></trkpt><trkpt lat="64.21149445" lon="-21.32374382"><ele>239.2</ele><time>2012-07-18T16:29:35.0000000+00:00</time></trkpt><trkpt lat="64.21139526" lon="-21.32294655"><ele>238.0</ele><time>2012-07-18T16:29:40.0000000+00:00</time></trkpt><trkpt lat="64.21128082" lon="-21.32213783"><ele>237.9</ele><time>2012-07-18T16:29:45.0000000+00:00</time></trkpt><trkpt lat="64.21117401" lon="-21.32135773"><ele>236.7</ele><time>2012-07-18T16:29:50.0000000+00:00</time></trkpt><trkpt lat="64.21103668" lon="-21.32057762"><ele>236.6</ele><time>2012-07-18T16:29:55.0000000+00:00</time></trkpt><trkpt lat="64.21089172" lon="-21.31979752"><ele>235.7</ele><time>2012-07-18T16:30:00.0000000+00:00</time></trkpt><trkpt lat="64.21072388" lon="-21.3190136"><ele>235.0</ele><time>2012-07-18T16:30:05.0000000+00:00</time></trkpt><trkpt lat="64.21055603" lon="-21.31824493"><ele>234.8</ele><time>2012-07-18T16:30:10.0000000+00:00</time></trkpt><trkpt lat="64.21038055" lon="-21.31749535"><ele>234.3</ele><time>2012-07-18T16:30:15.0000000+00:00</time></trkpt><trkpt lat="64.21020508" lon="-21.31674385"><ele>233.6</ele><time>2012-07-18T16:30:20.0000000+00:00</time></trkpt><trkpt lat="64.21004486" lon="-21.31602478"><ele>232.2</ele><time>2012-07-18T16:30:25.0000000+00:00</time></trkpt><trkpt lat="64.20990753" lon="-21.31528854"><ele>232.1</ele><time>2012-07-18T16:30:30.0000000+00:00</time></trkpt><trkpt lat="64.20978546" lon="-21.31452751"><ele>231.9</ele><time>2012-07-18T16:30:35.0000000+00:00</time></trkpt><trkpt lat="64.20968628" lon="-21.31374359"><ele>231.5</ele><time>2012-07-18T16:30:40.0000000+00:00</time></trkpt><trkpt lat="64.20962524" lon="-21.31290245"><ele>232.2</ele><time>2012-07-18T16:30:45.0000000+00:00</time></trkpt><trkpt lat="64.20959473" lon="-21.31203651"><ele>232.0</ele><time>2012-07-18T16:30:50.0000000+00:00</time></trkpt><trkpt lat="64.20959473" lon="-21.31119728"><ele>231.3</ele><time>2012-07-18T16:30:55.0000000+00:00</time></trkpt><trkpt lat="64.20963287" lon="-21.3103981"><ele>231.8</ele><time>2012-07-18T16:31:00.0000000+00:00</time></trkpt><trkpt lat="64.20965576" lon="-21.30953026"><ele>231.5</ele><time>2012-07-18T16:31:05.0000000+00:00</time></trkpt><trkpt lat="64.20968628" lon="-21.30866814"><ele>232.4</ele><time>2012-07-18T16:31:10.0000000+00:00</time></trkpt><trkpt lat="64.20968628" lon="-21.30784226"><ele>232.2</ele><time>2012-07-18T16:31:15.0000000+00:00</time></trkpt><trkpt lat="64.20967102" lon="-21.30701828"><ele>229.6</ele><time>2012-07-18T16:31:20.0000000+00:00</time></trkpt><trkpt lat="64.20962524" lon="-21.30623627"><ele>228.9</ele><time>2012-07-18T16:31:25.0000000+00:00</time></trkpt><trkpt lat="64.20957184" lon="-21.30549431"><ele>230.2</ele><time>2012-07-18T16:31:30.0000000+00:00</time></trkpt><trkpt lat="64.20950317" lon="-21.30475998"><ele>229.7</ele><time>2012-07-18T16:31:35.0000000+00:00</time></trkpt><trkpt lat="64.20943451" lon="-21.30403709"><ele>230.7</ele><time>2012-07-18T16:31:40.0000000+00:00</time></trkpt><trkpt lat="64.20936585" lon="-21.30331993"><ele>231.1</ele><time>2012-07-18T16:31:45.0000000+00:00</time></trkpt><trkpt lat="64.20929718" lon="-21.30259132"><ele>231.6</ele><time>2012-07-18T16:31:50.0000000+00:00</time></trkpt><trkpt lat="64.20923615" lon="-21.30194855"><ele>231.4</ele><time>2012-07-18T16:31:55.0000000+00:00</time></trkpt><trkpt lat="64.20918274" lon="-21.30129433"><ele>231.0</ele><time>2012-07-18T16:32:00.0000000+00:00</time></trkpt><trkpt lat="64.20915222" lon="-21.30061531"><ele>231.2</ele><time>2012-07-18T16:32:05.0000000+00:00</time></trkpt><trkpt lat="64.20913696" lon="-21.29992294"><ele>232.2</ele><time>2012-07-18T16:32:10.0000000+00:00</time></trkpt><trkpt lat="64.20914459" lon="-21.29918671"><ele>232.7</ele><time>2012-07-18T16:32:15.0000000+00:00</time></trkpt><trkpt lat="64.20914459" lon="-21.29841614"><ele>231.8</ele><time>2012-07-18T16:32:20.0000000+00:00</time></trkpt><trkpt lat="64.20915985" lon="-21.29758644"><ele>231.6</ele><time>2012-07-18T16:32:25.0000000+00:00</time></trkpt><trkpt lat="64.20918274" lon="-21.29680252"><ele>230.7</ele><time>2012-07-18T16:32:30.0000000+00:00</time></trkpt><trkpt lat="64.20921326" lon="-21.29603386"><ele>230.1</ele><time>2012-07-18T16:32:35.0000000+00:00</time></trkpt><trkpt lat="64.2092514" lon="-21.29527283"><ele>230.6</ele><time>2012-07-18T16:32:40.0000000+00:00</time></trkpt><trkpt lat="64.20928192" lon="-21.29454422"><ele>231.0</ele><time>2012-07-18T16:32:45.0000000+00:00</time></trkpt><trkpt lat="64.20930481" lon="-21.29382134"><ele>231.5</ele><time>2012-07-18T16:32:50.0000000+00:00</time></trkpt><trkpt lat="64.20933533" lon="-21.29309845"><ele>231.1</ele><time>2012-07-18T16:32:55.0000000+00:00</time></trkpt><trkpt lat="64.20935059" lon="-21.29237366"><ele>228.3</ele><time>2012-07-18T16:33:00.0000000+00:00</time></trkpt><trkpt lat="64.2093811" lon="-21.29157639"><ele>225.9</ele><time>2012-07-18T16:33:05.0000000+00:00</time></trkpt><trkpt lat="64.20940399" lon="-21.2907486"><ele>222.7</ele><time>2012-07-18T16:33:10.0000000+00:00</time></trkpt><trkpt lat="64.20943451" lon="-21.28990173"><ele>221.6</ele><time>2012-07-18T16:33:15.0000000+00:00</time></trkpt><trkpt lat="64.20947266" lon="-21.28913307"><ele>225.2</ele><time>2012-07-18T16:33:20.0000000+00:00</time></trkpt><trkpt lat="64.20951843" lon="-21.28845406"><ele>228.7</ele><time>2012-07-18T16:33:25.0000000+00:00</time></trkpt><trkpt lat="64.20954895" lon="-21.28790093"><ele>226.9</ele><time>2012-07-18T16:33:30.0000000+00:00</time></trkpt><trkpt lat="64.20960236" lon="-21.28736496"><ele>225.5</ele><time>2012-07-18T16:33:35.0000000+00:00</time></trkpt><trkpt lat="64.20965576" lon="-21.28686142"><ele>225.6</ele><time>2012-07-18T16:33:40.0000000+00:00</time></trkpt><trkpt lat="64.20970917" lon="-21.28642082"><ele>224.3</ele><time>2012-07-18T16:33:45.0000000+00:00</time></trkpt><trkpt lat="64.20975494" lon="-21.28601456"><ele>224.0</ele><time>2012-07-18T16:33:50.0000000+00:00</time></trkpt><trkpt lat="64.20982361" lon="-21.2855835"><ele>223.5</ele><time>2012-07-18T16:33:55.0000000+00:00</time></trkpt><trkpt lat="64.20989227" lon="-21.28508759"><ele>223.3</ele><time>2012-07-18T16:34:00.0000000+00:00</time></trkpt><trkpt lat="64.20996857" lon="-21.28450775"><ele>221.6</ele><time>2012-07-18T16:34:05.0000000+00:00</time></trkpt><trkpt lat="64.21006012" lon="-21.28386879"><ele>221.1</ele><time>2012-07-18T16:34:10.0000000+00:00</time></trkpt><trkpt lat="64.21011353" lon="-21.2832737"><ele>221.2</ele><time>2012-07-18T16:34:15.0000000+00:00</time></trkpt><trkpt lat="64.21016693" lon="-21.28274918"><ele>222.4</ele><time>2012-07-18T16:34:20.0000000+00:00</time></trkpt><trkpt lat="64.21018982" lon="-21.28216171"><ele>221.8</ele><time>2012-07-18T16:34:25.0000000+00:00</time></trkpt><trkpt lat="64.21020508" lon="-21.28161049"><ele>221.1</ele><time>2012-07-18T16:34:30.0000000+00:00</time></trkpt><trkpt lat="64.21018219" lon="-21.28102875"><ele>220.2</ele><time>2012-07-18T16:34:35.0000000+00:00</time></trkpt><trkpt lat="64.21015167" lon="-21.28040886"><ele>221.1</ele><time>2012-07-18T16:34:40.0000000+00:00</time></trkpt><trkpt lat="64.21009827" lon="-21.27977562"><ele>219.9</ele><time>2012-07-18T16:34:45.0000000+00:00</time></trkpt><trkpt lat="64.21001434" lon="-21.27914238"><ele>219.2</ele><time>2012-07-18T16:34:50.0000000+00:00</time></trkpt><trkpt lat="64.20992279" lon="-21.27849388"><ele>218.2</ele><time>2012-07-18T16:34:55.0000000+00:00</time></trkpt><trkpt lat="64.20983124" lon="-21.27785111"><ele>218.2</ele><time>2012-07-18T16:35:00.0000000+00:00</time></trkpt><trkpt lat="64.20973969" lon="-21.2772007"><ele>217.2</ele><time>2012-07-18T16:35:05.0000000+00:00</time></trkpt><trkpt lat="64.20964813" lon="-21.27655983"><ele>217.6</ele><time>2012-07-18T16:35:10.0000000+00:00</time></trkpt><trkpt lat="64.20957184" lon="-21.27591705"><ele>218.0</ele><time>2012-07-18T16:35:15.0000000+00:00</time></trkpt><trkpt lat="64.20951843" lon="-21.27525902"><ele>219.2</ele><time>2012-07-18T16:35:20.0000000+00:00</time></trkpt><trkpt lat="64.20947266" lon="-21.27456474"><ele>220.5</ele><time>2012-07-18T16:35:25.0000000+00:00</time></trkpt><trkpt lat="64.20943451" lon="-21.27384949"><ele>221.3</ele><time>2012-07-18T16:35:30.0000000+00:00</time></trkpt><trkpt lat="64.20942688" lon="-21.27310371"><ele>222.0</ele><time>2012-07-18T16:35:35.0000000+00:00</time></trkpt><trkpt lat="64.20943451" lon="-21.27229691"><ele>220.0</ele><time>2012-07-18T16:35:40.0000000+00:00</time></trkpt><trkpt lat="64.20947266" lon="-21.27147102"><ele>220.4</ele><time>2012-07-18T16:35:45.0000000+00:00</time></trkpt><trkpt lat="64.20953369" lon="-21.27060318"><ele>219.4</ele><time>2012-07-18T16:35:50.0000000+00:00</time></trkpt><trkpt lat="64.20962524" lon="-21.26967621"><ele>218.4</ele><time>2012-07-18T16:35:55.0000000+00:00</time></trkpt><trkpt lat="64.20974731" lon="-21.26875496"><ele>214.0</ele><time>2012-07-18T16:36:00.0000000+00:00</time></trkpt><trkpt lat="64.20989227" lon="-21.26787758"><ele>212.0</ele><time>2012-07-18T16:36:05.0000000+00:00</time></trkpt><trkpt lat="64.21003723" lon="-21.26704979"><ele>211.5</ele><time>2012-07-18T16:36:10.0000000+00:00</time></trkpt><trkpt lat="64.21016693" lon="-21.26629448"><ele>211.0</ele><time>2012-07-18T16:36:15.0000000+00:00</time></trkpt><trkpt lat="64.21028137" lon="-21.26558113"><ele>211.4</ele><time>2012-07-18T16:36:20.0000000+00:00</time></trkpt><trkpt lat="64.21041107" lon="-21.26488876"><ele>212.3</ele><time>2012-07-18T16:36:25.0000000+00:00</time></trkpt><trkpt lat="64.21052551" lon="-21.26421356"><ele>214.3</ele><time>2012-07-18T16:36:30.0000000+00:00</time></trkpt><trkpt lat="64.21064758" lon="-21.26353455"><ele>214.9</ele><time>2012-07-18T16:36:35.0000000+00:00</time></trkpt><trkpt lat="64.21076965" lon="-21.26284409"><ele>215.9</ele><time>2012-07-18T16:36:40.0000000+00:00</time></trkpt><trkpt lat="64.21087647" lon="-21.26220703"><ele>214.8</ele><time>2012-07-18T16:36:45.0000000+00:00</time></trkpt><trkpt lat="64.21099854" lon="-21.26162529"><ele>213.9</ele><time>2012-07-18T16:36:50.0000000+00:00</time></trkpt><trkpt lat="64.21110535" lon="-21.26104736"><ele>212.1</ele><time>2012-07-18T16:36:55.0000000+00:00</time></trkpt><trkpt lat="64.21104431" lon="-21.26047516"><ele>210.4</ele><time>2012-07-18T16:37:00.0000000+00:00</time></trkpt><trkpt lat="64.21105194" lon="-21.26026344"><ele>210.5</ele><time>2012-07-18T16:37:05.0000000+00:00</time></trkpt><trkpt lat="64.21105194" lon="-21.26027679"><ele>211.1</ele><time>2012-07-18T16:37:10.0000000+00:00</time></trkpt><trkpt lat="64.21104431" lon="-21.26028442"><ele>211.1</ele><time>2012-07-18T16:37:15.0000000+00:00</time></trkpt><trkpt lat="64.21105194" lon="-21.26026344"><ele>211.1</ele><time>2012-07-18T16:37:20.0000000+00:00</time></trkpt><trkpt lat="64.21105957" lon="-21.26019478"><ele>211.1</ele><time>2012-07-18T16:37:25.0000000+00:00</time></trkpt><trkpt lat="64.21105957" lon="-21.26019096"><ele>211.3</ele><time>2012-07-18T16:37:30.0000000+00:00</time></trkpt><trkpt lat="64.21108246" lon="-21.26011848"><ele>211.1</ele><time>2012-07-18T16:37:35.0000000+00:00</time></trkpt><trkpt lat="64.21108246" lon="-21.26006508"><ele>209.5</ele><time>2012-07-18T16:37:40.0000000+00:00</time></trkpt><trkpt lat="64.2110672" lon="-21.2601223"><ele>207.8</ele><time>2012-07-18T16:37:45.0000000+00:00</time></trkpt><trkpt lat="64.21107483" lon="-21.26020432"><ele>207.9</ele><time>2012-07-18T16:37:50.0000000+00:00</time></trkpt><trkpt lat="64.2110672" lon="-21.26029015"><ele>206.8</ele><time>2012-07-18T16:37:55.0000000+00:00</time></trkpt><trkpt lat="64.21105957" lon="-21.26028252"><ele>206.6</ele><time>2012-07-18T16:38:00.0000000+00:00</time></trkpt><trkpt lat="64.21105194" lon="-21.26026154"><ele>206.5</ele><time>2012-07-18T16:38:05.0000000+00:00</time></trkpt><trkpt lat="64.21103668" lon="-21.26020813"><ele>206.0</ele><time>2012-07-18T16:38:10.0000000+00:00</time></trkpt><trkpt lat="64.21099854" lon="-21.26011848"><ele>205.1</ele><time>2012-07-18T16:38:15.0000000+00:00</time></trkpt><trkpt lat="64.21099091" lon="-21.26011086"><ele>204.7</ele><time>2012-07-18T16:38:20.0000000+00:00</time></trkpt><trkpt lat="64.21095276" lon="-21.26005936"><ele>204.2</ele><time>2012-07-18T16:38:25.0000000+00:00</time></trkpt><trkpt lat="64.21091461" lon="-21.26002502"><ele>203.1</ele><time>2012-07-18T16:38:30.0000000+00:00</time></trkpt><trkpt lat="64.21086884" lon="-21.26003647"><ele>203.0</ele><time>2012-07-18T16:38:35.0000000+00:00</time></trkpt><trkpt lat="64.21086884" lon="-21.26002121"><ele>202.8</ele><time>2012-07-18T16:38:40.0000000+00:00</time></trkpt><trkpt lat="64.21086121" lon="-21.2600193"><ele>202.8</ele><time>2012-07-18T16:38:45.0000000+00:00</time></trkpt><trkpt lat="64.21082306" lon="-21.26003265"><ele>201.3</ele><time>2012-07-18T16:38:50.0000000+00:00</time></trkpt><trkpt lat="64.21081543" lon="-21.26006126"><ele>200.5</ele><time>2012-07-18T16:38:55.0000000+00:00</time></trkpt><trkpt lat="64.21082306" lon="-21.26005173"><ele>200.6</ele><time>2012-07-18T16:39:00.0000000+00:00</time></trkpt><trkpt lat="64.21081543" lon="-21.26005936"><ele>200.6</ele><time>2012-07-18T16:39:05.0000000+00:00</time></trkpt><trkpt lat="64.21081543" lon="-21.26004791"><ele>201.2</ele><time>2012-07-18T16:39:10.0000000+00:00</time></trkpt><trkpt lat="64.21081543" lon="-21.26004601"><ele>201.1</ele><time>2012-07-18T16:39:15.0000000+00:00</time></trkpt><trkpt lat="64.21081543" lon="-21.2600441"><ele>201.1</ele><time>2012-07-18T16:39:20.0000000+00:00</time></trkpt><trkpt lat="64.21081543" lon="-21.2600441"><ele>201.1</ele><time>2012-07-18T16:39:25.0000000+00:00</time></trkpt><trkpt lat="64.21081543" lon="-21.2600441"><ele>201.1</ele><time>2012-07-18T16:39:30.0000000+00:00</time></trkpt><trkpt lat="64.21081543" lon="-21.2600441"><ele>201.1</ele><time>2012-07-18T16:39:35.0000000+00:00</time></trkpt><trkpt lat="64.21081543" lon="-21.2600441"><ele>201.1</ele><time>2012-07-18T16:39:40.0000000+00:00</time></trkpt><trkpt lat="64.21082306" lon="-21.26002502"><ele>200.9</ele><time>2012-07-18T16:39:45.0000000+00:00</time></trkpt><trkpt lat="64.21085358" lon="-21.25998879"><ele>200.7</ele><time>2012-07-18T16:39:50.0000000+00:00</time></trkpt><trkpt lat="64.21087647" lon="-21.25993347"><ele>200.8</ele><time>2012-07-18T16:39:55.0000000+00:00</time></trkpt><trkpt lat="64.21088409" lon="-21.25992394"><ele>200.5</ele><time>2012-07-18T16:40:00.0000000+00:00</time></trkpt><trkpt lat="64.21092224" lon="-21.26001549"><ele>201.7</ele><time>2012-07-18T16:40:05.0000000+00:00</time></trkpt><trkpt lat="64.21097565" lon="-21.26010895"><ele>203.1</ele><time>2012-07-18T16:40:10.0000000+00:00</time></trkpt><trkpt lat="64.21102142" lon="-21.26021004"><ele>204.9</ele><time>2012-07-18T16:40:15.0000000+00:00</time></trkpt><trkpt lat="64.21102905" lon="-21.26027107"><ele>204.7</ele><time>2012-07-18T16:40:20.0000000+00:00</time></trkpt><trkpt lat="64.21103668" lon="-21.26029778"><ele>204.0</ele><time>2012-07-18T16:40:25.0000000+00:00</time></trkpt><trkpt lat="64.21102905" lon="-21.26030731"><ele>203.8</ele><time>2012-07-18T16:40:30.0000000+00:00</time></trkpt><trkpt lat="64.21102905" lon="-21.26030922"><ele>203.7</ele><time>2012-07-18T16:40:35.0000000+00:00</time></trkpt><trkpt lat="64.21104431" lon="-21.26030731"><ele>202.5</ele><time>2012-07-18T16:40:40.0000000+00:00</time></trkpt><trkpt lat="64.21105194" lon="-21.2602787"><ele>201.3</ele><time>2012-07-18T16:40:45.0000000+00:00</time></trkpt><trkpt lat="64.21105194" lon="-21.26030541"><ele>200.4</ele><time>2012-07-18T16:40:50.0000000+00:00</time></trkpt><trkpt lat="64.21105194" lon="-21.2603302"><ele>200.3</ele><time>2012-07-18T16:40:55.0000000+00:00</time></trkpt><trkpt lat="64.21105194" lon="-21.26032257"><ele>200.1</ele><time>2012-07-18T16:41:00.0000000+00:00</time></trkpt><trkpt lat="64.21105194" lon="-21.26032257"><ele>200.0</ele><time>2012-07-18T16:41:05.0000000+00:00</time></trkpt><trkpt lat="64.21104431" lon="-21.26032066"><ele>199.9</ele><time>2012-07-18T16:41:10.0000000+00:00</time></trkpt><trkpt lat="64.21105194" lon="-21.26032066"><ele>199.8</ele><time>2012-07-18T16:41:15.0000000+00:00</time></trkpt><trkpt lat="64.21105194" lon="-21.26032066"><ele>199.8</ele><time>2012-07-18T16:41:20.0000000+00:00</time></trkpt><trkpt lat="64.21105194" lon="-21.26031876"><ele>199.9</ele><time>2012-07-18T16:41:25.0000000+00:00</time></trkpt><trkpt lat="64.21105194" lon="-21.26031876"><ele>199.9</ele><time>2012-07-18T16:41:30.0000000+00:00</time></trkpt><trkpt lat="64.21105194" lon="-21.26031876"><ele>199.9</ele><time>2012-07-18T16:41:35.0000000+00:00</time></trkpt><trkpt lat="64.21104431" lon="-21.26032066"><ele>199.9</ele><time>2012-07-18T16:41:40.0000000+00:00</time></trkpt><trkpt lat="64.21104431" lon="-21.26032066"><ele>199.9</ele><time>2012-07-18T16:41:45.0000000+00:00</time></trkpt><trkpt lat="64.21104431" lon="-21.26032066"><ele>199.9</ele><time>2012-07-18T16:41:50.0000000+00:00</time></trkpt><trkpt lat="64.21104431" lon="-21.26032066"><ele>199.9</ele><time>2012-07-18T16:41:55.0000000+00:00</time></trkpt><trkpt lat="64.21104431" lon="-21.26031685"><ele>200.0</ele><time>2012-07-18T16:42:00.0000000+00:00</time></trkpt><trkpt lat="64.21105194" lon="-21.26029587"><ele>201.1</ele><time>2012-07-18T16:42:05.0000000+00:00</time></trkpt><trkpt lat="64.21103668" lon="-21.26024056"><ele>201.1</ele><time>2012-07-18T16:42:10.0000000+00:00</time></trkpt><trkpt lat="64.21101379" lon="-21.2602005"><ele>201.2</ele><time>2012-07-18T16:42:15.0000000+00:00</time></trkpt><trkpt lat="64.21097565" lon="-21.260149"><ele>201.2</ele><time>2012-07-18T16:42:20.0000000+00:00</time></trkpt><trkpt lat="64.21092987" lon="-21.26007843"><ele>201.2</ele><time>2012-07-18T16:42:25.0000000+00:00</time></trkpt><trkpt lat="64.21088409" lon="-21.26001549"><ele>200.7</ele><time>2012-07-18T16:42:30.0000000+00:00</time></trkpt><trkpt lat="64.21086884" lon="-21.2599926"><ele>200.5</ele><time>2012-07-18T16:42:35.0000000+00:00</time></trkpt><trkpt lat="64.21086884" lon="-21.26000404"><ele>201.0</ele><time>2012-07-18T16:42:40.0000000+00:00</time></trkpt><trkpt lat="64.21086884" lon="-21.26000786"><ele>201.0</ele><time>2012-07-18T16:42:45.0000000+00:00</time></trkpt><trkpt lat="64.21086884" lon="-21.26000786"><ele>201.1</ele><time>2012-07-18T16:42:50.0000000+00:00</time></trkpt><trkpt lat="64.21086884" lon="-21.26000786"><ele>201.1</ele><time>2012-07-18T16:42:55.0000000+00:00</time></trkpt><trkpt lat="64.21086884" lon="-21.26000786"><ele>201.1</ele><time>2012-07-18T16:43:00.0000000+00:00</time></trkpt><trkpt lat="64.21086884" lon="-21.26000786"><ele>201.1</ele><time>2012-07-18T16:43:05.0000000+00:00</time></trkpt><trkpt lat="64.21086884" lon="-21.26000977"><ele>201.1</ele><time>2012-07-18T16:43:10.0000000+00:00</time></trkpt><trkpt lat="64.21086884" lon="-21.26000977"><ele>201.1</ele><time>2012-07-18T16:43:15.0000000+00:00</time></trkpt><trkpt lat="64.21086884" lon="-21.26000977"><ele>201.1</ele><time>2012-07-18T16:43:20.0000000+00:00</time></trkpt><trkpt lat="64.21086884" lon="-21.26000786"><ele>201.1</ele><time>2012-07-18T16:43:25.0000000+00:00</time></trkpt><trkpt lat="64.21086884" lon="-21.26000786"><ele>201.1</ele><time>2012-07-18T16:43:30.0000000+00:00</time></trkpt><trkpt lat="64.21086884" lon="-21.26000595"><ele>201.1</ele><time>2012-07-18T16:43:35.0000000+00:00</time></trkpt><trkpt lat="64.21086884" lon="-21.26000595"><ele>201.1</ele><time>2012-07-18T16:43:40.0000000+00:00</time></trkpt><trkpt lat="64.21086884" lon="-21.26000595"><ele>201.1</ele><time>2012-07-18T16:43:45.0000000+00:00</time></trkpt><trkpt lat="64.21086884" lon="-21.26000595"><ele>201.1</ele><time>2012-07-18T16:43:50.0000000+00:00</time></trkpt><trkpt lat="64.21086884" lon="-21.26000595"><ele>201.1</ele><time>2012-07-18T16:43:55.0000000+00:00</time></trkpt><trkpt lat="64.21086884" lon="-21.26000595"><ele>201.1</ele><time>2012-07-18T16:44:00.0000000+00:00</time></trkpt><trkpt lat="64.21086884" lon="-21.26000595"><ele>201.1</ele><time>2012-07-18T16:44:05.0000000+00:00</time></trkpt><trkpt lat="64.21086884" lon="-21.26000595"><ele>201.1</ele><time>2012-07-18T16:44:10.0000000+00:00</time></trkpt><trkpt lat="64.21086884" lon="-21.26000404"><ele>201.1</ele><time>2012-07-18T16:44:15.0000000+00:00</time></trkpt><trkpt lat="64.21086884" lon="-21.26000595"><ele>201.1</ele><time>2012-07-18T16:44:20.0000000+00:00</time></trkpt><trkpt lat="64.21086884" lon="-21.26000595"><ele>201.2</ele><time>2012-07-18T16:44:25.0000000+00:00</time></trkpt><trkpt lat="64.21086884" lon="-21.26000595"><ele>201.2</ele><time>2012-07-18T16:44:30.0000000+00:00</time></trkpt><trkpt lat="64.21086884" lon="-21.26000404"><ele>201.2</ele><time>2012-07-18T16:44:35.0000000+00:00</time></trkpt><trkpt lat="64.21089935" lon="-21.26007271"><ele>201.3</ele><time>2012-07-18T16:44:40.0000000+00:00</time></trkpt><trkpt lat="64.21089935" lon="-21.26007271"><ele>201.3</ele><time>2012-07-18T16:44:45.0000000+00:00</time></trkpt><trkpt lat="64.2109375" lon="-21.26014328"><ele>201.2</ele><time>2012-07-18T16:44:50.0000000+00:00</time></trkpt><trkpt lat="64.21098328" lon="-21.26022148"><ele>200.5</ele><time>2012-07-18T16:44:55.0000000+00:00</time></trkpt><trkpt lat="64.21101379" lon="-21.26024628"><ele>200.5</ele><time>2012-07-18T16:45:00.0000000+00:00</time></trkpt><trkpt lat="64.21102142" lon="-21.26026726"><ele>200.6</ele><time>2012-07-18T16:45:05.0000000+00:00</time></trkpt><trkpt lat="64.21103668" lon="-21.260252"><ele>201.5</ele><time>2012-07-18T16:45:10.0000000+00:00</time></trkpt><trkpt lat="64.21103668" lon="-21.26024818"><ele>201.4</ele><time>2012-07-18T16:45:15.0000000+00:00</time></trkpt><trkpt lat="64.21102905" lon="-21.26025009"><ele>201.3</ele><time>2012-07-18T16:45:20.0000000+00:00</time></trkpt><trkpt lat="64.21102905" lon="-21.260252"><ele>201.3</ele><time>2012-07-18T16:45:25.0000000+00:00</time></trkpt><trkpt lat="64.21102905" lon="-21.26025009"><ele>201.4</ele><time>2012-07-18T16:45:30.0000000+00:00</time></trkpt><trkpt lat="64.21102905" lon="-21.26025009"><ele>201.4</ele><time>2012-07-18T16:45:35.0000000+00:00</time></trkpt><trkpt lat="64.21102905" lon="-21.26025009"><ele>201.4</ele><time>2012-07-18T16:45:40.0000000+00:00</time></trkpt><trkpt lat="64.21102905" lon="-21.260252"><ele>201.4</ele><time>2012-07-18T16:45:45.0000000+00:00</time></trkpt><trkpt lat="64.21102905" lon="-21.260252"><ele>201.4</ele><time>2012-07-18T16:45:50.0000000+00:00</time></trkpt><trkpt lat="64.21104431" lon="-21.26026344"><ele>202.0</ele><time>2012-07-18T16:45:55.0000000+00:00</time></trkpt><trkpt lat="64.21105194" lon="-21.26027489"><ele>202.7</ele><time>2012-07-18T16:46:00.0000000+00:00</time></trkpt><trkpt lat="64.2110672" lon="-21.26029968"><ele>203.0</ele><time>2012-07-18T16:46:05.0000000+00:00</time></trkpt><trkpt lat="64.21109009" lon="-21.26029587"><ele>203.0</ele><time>2012-07-18T16:46:10.0000000+00:00</time></trkpt><trkpt lat="64.21112061" lon="-21.26017189"><ele>202.6</ele><time>2012-07-18T16:46:15.0000000+00:00</time></trkpt><trkpt lat="64.21118927" lon="-21.26002121"><ele>203.5</ele><time>2012-07-18T16:46:20.0000000+00:00</time></trkpt><trkpt lat="64.21128082" lon="-21.25998116"><ele>203.5</ele><time>2012-07-18T16:46:25.0000000+00:00</time></trkpt><trkpt lat="64.21139526" lon="-21.25979996"><ele>206.7</ele><time>2012-07-18T16:46:30.0000000+00:00</time></trkpt><trkpt lat="64.21148682" lon="-21.25935745"><ele>205.3</ele><time>2012-07-18T16:46:35.0000000+00:00</time></trkpt><trkpt lat="64.21162415" lon="-21.25871468"><ele>203.1</ele><time>2012-07-18T16:46:40.0000000+00:00</time></trkpt><trkpt lat="64.21182251" lon="-21.25788689"><ele>200.0</ele><time>2012-07-18T16:46:45.0000000+00:00</time></trkpt><trkpt lat="64.21205902" lon="-21.25689507"><ele>196.5</ele><time>2012-07-18T16:46:50.0000000+00:00</time></trkpt><trkpt lat="64.21230316" lon="-21.25595474"><ele>194.7</ele><time>2012-07-18T16:46:55.0000000+00:00</time></trkpt><trkpt lat="64.21252441" lon="-21.25514793"><ele>193.1</ele><time>2012-07-18T16:47:00.0000000+00:00</time></trkpt><trkpt lat="64.21273804" lon="-21.25439644"><ele>191.5</ele><time>2012-07-18T16:47:05.0000000+00:00</time></trkpt><trkpt lat="64.21295166" lon="-21.2536602"><ele>193.3</ele><time>2012-07-18T16:47:10.0000000+00:00</time></trkpt><trkpt lat="64.21318054" lon="-21.25299072"><ele>195.0</ele><time>2012-07-18T16:47:15.0000000+00:00</time></trkpt><trkpt lat="64.21339417" lon="-21.25235176"><ele>197.2</ele><time>2012-07-18T16:47:20.0000000+00:00</time></trkpt><trkpt lat="64.21359253" lon="-21.2517376"><ele>196.6</ele><time>2012-07-18T16:47:25.0000000+00:00</time></trkpt><trkpt lat="64.21382141" lon="-21.25116348"><ele>197.6</ele><time>2012-07-18T16:47:30.0000000+00:00</time></trkpt><trkpt lat="64.21402741" lon="-21.25058174"><ele>196.4</ele><time>2012-07-18T16:47:35.0000000+00:00</time></trkpt><trkpt lat="64.21425629" lon="-21.24991417"><ele>194.6</ele><time>2012-07-18T16:47:40.0000000+00:00</time></trkpt><trkpt lat="64.21450806" lon="-21.24915886"><ele>192.6</ele><time>2012-07-18T16:47:45.0000000+00:00</time></trkpt><trkpt lat="64.21479034" lon="-21.2483387"><ele>189.2</ele><time>2012-07-18T16:47:50.0000000+00:00</time></trkpt><trkpt lat="64.21511078" lon="-21.24746323"><ele>186.5</ele><time>2012-07-18T16:47:55.0000000+00:00</time></trkpt><trkpt lat="64.21540833" lon="-21.24658585"><ele>185.2</ele><time>2012-07-18T16:48:00.0000000+00:00</time></trkpt><trkpt lat="64.21567535" lon="-21.24581337"><ele>182.8</ele><time>2012-07-18T16:48:05.0000000+00:00</time></trkpt><trkpt lat="64.21593475" lon="-21.24508476"><ele>182.1</ele><time>2012-07-18T16:48:10.0000000+00:00</time></trkpt><trkpt lat="64.21617127" lon="-21.24437141"><ele>179.5</ele><time>2012-07-18T16:48:15.0000000+00:00</time></trkpt><trkpt lat="64.21641541" lon="-21.24367905"><ele>178.0</ele><time>2012-07-18T16:48:20.0000000+00:00</time></trkpt><trkpt lat="64.21667481" lon="-21.24295425"><ele>177.0</ele><time>2012-07-18T16:48:25.0000000+00:00</time></trkpt><trkpt lat="64.2169342" lon="-21.2421875"><ele>173.1</ele><time>2012-07-18T16:48:30.0000000+00:00</time></trkpt><trkpt lat="64.2171936" lon="-21.24142075"><ele>168.6</ele><time>2012-07-18T16:48:35.0000000+00:00</time></trkpt><trkpt lat="64.21747589" lon="-21.24065971"><ele>169.8</ele><time>2012-07-18T16:48:40.0000000+00:00</time></trkpt><trkpt lat="64.21774292" lon="-21.23988152"><ele>169.0</ele><time>2012-07-18T16:48:45.0000000+00:00</time></trkpt><trkpt lat="64.21799469" lon="-21.239151"><ele>170.9</ele><time>2012-07-18T16:48:50.0000000+00:00</time></trkpt><trkpt lat="64.21823883" lon="-21.2384758"><ele>170.7</ele><time>2012-07-18T16:48:55.0000000+00:00</time></trkpt><trkpt lat="64.21846008" lon="-21.23781586"><ele>170.8</ele><time>2012-07-18T16:49:00.0000000+00:00</time></trkpt><trkpt lat="64.21866608" lon="-21.23720169"><ele>169.9</ele><time>2012-07-18T16:49:05.0000000+00:00</time></trkpt><trkpt lat="64.21884918" lon="-21.23665237"><ele>169.8</ele><time>2012-07-18T16:49:10.0000000+00:00</time></trkpt><trkpt lat="64.21901703" lon="-21.23612595"><ele>169.6</ele><time>2012-07-18T16:49:15.0000000+00:00</time></trkpt><trkpt lat="64.21919251" lon="-21.23558426"><ele>171.4</ele><time>2012-07-18T16:49:20.0000000+00:00</time></trkpt><trkpt lat="64.21936798" lon="-21.23504448"><ele>171.3</ele><time>2012-07-18T16:49:25.0000000+00:00</time></trkpt><trkpt lat="64.21952057" lon="-21.23450851"><ele>168.3</ele><time>2012-07-18T16:49:30.0000000+00:00</time></trkpt><trkpt lat="64.21968079" lon="-21.23398399"><ele>165.6</ele><time>2012-07-18T16:49:35.0000000+00:00</time></trkpt><trkpt lat="64.219841" lon="-21.23344231"><ele>161.7</ele><time>2012-07-18T16:49:40.0000000+00:00</time></trkpt><trkpt lat="64.22001648" lon="-21.23283196"><ele>163.6</ele><time>2012-07-18T16:49:45.0000000+00:00</time></trkpt><trkpt lat="64.22019196" lon="-21.23219681"><ele>162.6</ele><time>2012-07-18T16:49:50.0000000+00:00</time></trkpt><trkpt lat="64.22037506" lon="-21.23157311"><ele>161.4</ele><time>2012-07-18T16:49:55.0000000+00:00</time></trkpt><trkpt lat="64.22052765" lon="-21.23100472"><ele>160.8</ele><time>2012-07-18T16:50:00.0000000+00:00</time></trkpt><trkpt lat="64.22071075" lon="-21.23036957"><ele>161.5</ele><time>2012-07-18T16:50:05.0000000+00:00</time></trkpt><trkpt lat="64.22091675" lon="-21.22964859"><ele>160.5</ele><time>2012-07-18T16:50:10.0000000+00:00</time></trkpt><trkpt lat="64.221138" lon="-21.22889137"><ele>161.3</ele><time>2012-07-18T16:50:15.0000000+00:00</time></trkpt><trkpt lat="64.22135162" lon="-21.22811317"><ele>160.7</ele><time>2012-07-18T16:50:20.0000000+00:00</time></trkpt><trkpt lat="64.22157288" lon="-21.2273159"><ele>159.2</ele><time>2012-07-18T16:50:25.0000000+00:00</time></trkpt><trkpt lat="64.22180176" lon="-21.22652054"><ele>158.8</ele><time>2012-07-18T16:50:30.0000000+00:00</time></trkpt><trkpt lat="64.22201538" lon="-21.22573471"><ele>155.6</ele><time>2012-07-18T16:50:35.0000000+00:00</time></trkpt><trkpt lat="64.22224426" lon="-21.22493553"><ele>154.8</ele><time>2012-07-18T16:50:40.0000000+00:00</time></trkpt><trkpt lat="64.22246552" lon="-21.22412872"><ele>154.6</ele><time>2012-07-18T16:50:45.0000000+00:00</time></trkpt><trkpt lat="64.22268677" lon="-21.22332764"><ele>153.6</ele><time>2012-07-18T16:50:50.0000000+00:00</time></trkpt><trkpt lat="64.22289276" lon="-21.22252083"><ele>152.1</ele><time>2012-07-18T16:50:55.0000000+00:00</time></trkpt><trkpt lat="64.22306061" lon="-21.22167969"><ele>150.9</ele><time>2012-07-18T16:51:00.0000000+00:00</time></trkpt><trkpt lat="64.22319794" lon="-21.22076416"><ele>149.2</ele><time>2012-07-18T16:51:05.0000000+00:00</time></trkpt><trkpt lat="64.22330475" lon="-21.21986008"><ele>148.7</ele><time>2012-07-18T16:51:10.0000000+00:00</time></trkpt><trkpt lat="64.22340393" lon="-21.21899986"><ele>148.5</ele><time>2012-07-18T16:51:15.0000000+00:00</time></trkpt><trkpt lat="64.22349548" lon="-21.21815872"><ele>147.2</ele><time>2012-07-18T16:51:20.0000000+00:00</time></trkpt><trkpt lat="64.22360992" lon="-21.21729088"><ele>147.0</ele><time>2012-07-18T16:51:25.0000000+00:00</time></trkpt><trkpt lat="64.22376251" lon="-21.21641159"><ele>149.7</ele><time>2012-07-18T16:51:30.0000000+00:00</time></trkpt><trkpt lat="64.22396851" lon="-21.21555901"><ele>150.5</ele><time>2012-07-18T16:51:35.0000000+00:00</time></trkpt><trkpt lat="64.22422791" lon="-21.21472359"><ele>147.3</ele><time>2012-07-18T16:51:40.0000000+00:00</time></trkpt><trkpt lat="64.22454071" lon="-21.21390343"><ele>144.2</ele><time>2012-07-18T16:51:45.0000000+00:00</time></trkpt><trkpt lat="64.22486877" lon="-21.21311569"><ele>142.0</ele><time>2012-07-18T16:51:50.0000000+00:00</time></trkpt><trkpt lat="64.22520447" lon="-21.21236801"><ele>137.2</ele><time>2012-07-18T16:51:55.0000000+00:00</time></trkpt><trkpt lat="64.22550964" lon="-21.21167755"><ele>135.3</ele><time>2012-07-18T16:52:00.0000000+00:00</time></trkpt><trkpt lat="64.2257843" lon="-21.21103478"><ele>135.2</ele><time>2012-07-18T16:52:05.0000000+00:00</time></trkpt><trkpt lat="64.22603607" lon="-21.21046829"><ele>137.0</ele><time>2012-07-18T16:52:10.0000000+00:00</time></trkpt><trkpt lat="64.22627258" lon="-21.20990753"><ele>137.4</ele><time>2012-07-18T16:52:15.0000000+00:00</time></trkpt><trkpt lat="64.22650909" lon="-21.20934105"><ele>138.0</ele><time>2012-07-18T16:52:20.0000000+00:00</time></trkpt><trkpt lat="64.22673798" lon="-21.20878601"><ele>137.4</ele><time>2012-07-18T16:52:25.0000000+00:00</time></trkpt><trkpt lat="64.2269516" lon="-21.20827293"><ele>136.9</ele><time>2012-07-18T16:52:30.0000000+00:00</time></trkpt><trkpt lat="64.22715759" lon="-21.20770454"><ele>135.3</ele><time>2012-07-18T16:52:35.0000000+00:00</time></trkpt><trkpt lat="64.22734833" lon="-21.20718765"><ele>135.0</ele><time>2012-07-18T16:52:40.0000000+00:00</time></trkpt><trkpt lat="64.22751617" lon="-21.20673752"><ele>134.5</ele><time>2012-07-18T16:52:45.0000000+00:00</time></trkpt><trkpt lat="64.22768402" lon="-21.20630455"><ele>134.4</ele><time>2012-07-18T16:52:50.0000000+00:00</time></trkpt><trkpt lat="64.22785187" lon="-21.20582199"><ele>134.0</ele><time>2012-07-18T16:52:55.0000000+00:00</time></trkpt><trkpt lat="64.22801971" lon="-21.20535088"><ele>135.4</ele><time>2012-07-18T16:53:00.0000000+00:00</time></trkpt><trkpt lat="64.22817993" lon="-21.20487976"><ele>133.7</ele><time>2012-07-18T16:53:05.0000000+00:00</time></trkpt><trkpt lat="64.22833252" lon="-21.20443153"><ele>134.1</ele><time>2012-07-18T16:53:10.0000000+00:00</time></trkpt><trkpt lat="64.22846222" lon="-21.20401955"><ele>132.7</ele><time>2012-07-18T16:53:15.0000000+00:00</time></trkpt><trkpt lat="64.22859955" lon="-21.20361519"><ele>136.3</ele><time>2012-07-18T16:53:20.0000000+00:00</time></trkpt><trkpt lat="64.22873688" lon="-21.20317841"><ele>137.4</ele><time>2012-07-18T16:53:25.0000000+00:00</time></trkpt><trkpt lat="64.22886658" lon="-21.20279884"><ele>139.1</ele><time>2012-07-18T16:53:30.0000000+00:00</time></trkpt><trkpt lat="64.22897339" lon="-21.202425"><ele>139.6</ele><time>2012-07-18T16:53:35.0000000+00:00</time></trkpt><trkpt lat="64.22911072" lon="-21.20199394"><ele>141.7</ele><time>2012-07-18T16:53:40.0000000+00:00</time></trkpt><trkpt lat="64.22927094" lon="-21.20153618"><ele>140.6</ele><time>2012-07-18T16:53:45.0000000+00:00</time></trkpt><trkpt lat="64.22942352" lon="-21.20105171"><ele>140.3</ele><time>2012-07-18T16:53:50.0000000+00:00</time></trkpt><trkpt lat="64.22956085" lon="-21.20068359"><ele>140.3</ele><time>2012-07-18T16:53:55.0000000+00:00</time></trkpt><trkpt lat="64.22969055" lon="-21.20031738"><ele>141.7</ele><time>2012-07-18T16:54:00.0000000+00:00</time></trkpt><trkpt lat="64.22984314" lon="-21.19994164"><ele>142.3</ele><time>2012-07-18T16:54:05.0000000+00:00</time></trkpt><trkpt lat="64.23001099" lon="-21.19955063"><ele>142.5</ele><time>2012-07-18T16:54:10.0000000+00:00</time></trkpt><trkpt lat="64.23019409" lon="-21.19918251"><ele>144.9</ele><time>2012-07-18T16:54:15.0000000+00:00</time></trkpt><trkpt lat="64.23040772" lon="-21.19883347"><ele>145.9</ele><time>2012-07-18T16:54:20.0000000+00:00</time></trkpt><trkpt lat="64.23062897" lon="-21.19854927"><ele>145.7</ele><time>2012-07-18T16:54:25.0000000+00:00</time></trkpt><trkpt lat="64.2308197" lon="-21.19837189"><ele>144.1</ele><time>2012-07-18T16:54:30.0000000+00:00</time></trkpt><trkpt lat="64.23103333" lon="-21.19819832"><ele>144.7</ele><time>2012-07-18T16:54:35.0000000+00:00</time></trkpt><trkpt lat="64.23126221" lon="-21.19804573"><ele>145.0</ele><time>2012-07-18T16:54:40.0000000+00:00</time></trkpt><trkpt lat="64.23150635" lon="-21.19792366"><ele>145.7</ele><time>2012-07-18T16:54:45.0000000+00:00</time></trkpt><trkpt lat="64.23175812" lon="-21.19782639"><ele>141.9</ele><time>2012-07-18T16:54:50.0000000+00:00</time></trkpt><trkpt lat="64.23200226" lon="-21.19775391"><ele>139.9</ele><time>2012-07-18T16:54:55.0000000+00:00</time></trkpt><trkpt lat="64.23222351" lon="-21.1976738"><ele>137.7</ele><time>2012-07-18T16:55:00.0000000+00:00</time></trkpt><trkpt lat="64.23246765" lon="-21.19755364"><ele>137.8</ele><time>2012-07-18T16:55:05.0000000+00:00</time></trkpt><trkpt lat="64.23271942" lon="-21.19739533"><ele>138.4</ele><time>2012-07-18T16:55:10.0000000+00:00</time></trkpt><trkpt lat="64.2329483" lon="-21.19720459"><ele>138.5</ele><time>2012-07-18T16:55:15.0000000+00:00</time></trkpt><trkpt lat="64.23316956" lon="-21.19698143"><ele>137.0</ele><time>2012-07-18T16:55:20.0000000+00:00</time></trkpt><trkpt lat="64.23336792" lon="-21.19672203"><ele>137.6</ele><time>2012-07-18T16:55:25.0000000+00:00</time></trkpt><trkpt lat="64.23356628" lon="-21.19643593"><ele>133.6</ele><time>2012-07-18T16:55:30.0000000+00:00</time></trkpt><trkpt lat="64.23374939" lon="-21.1961174"><ele>134.2</ele><time>2012-07-18T16:55:35.0000000+00:00</time></trkpt><trkpt lat="64.23395538" lon="-21.1957531"><ele>134.6</ele><time>2012-07-18T16:55:40.0000000+00:00</time></trkpt><trkpt lat="64.23416138" lon="-21.19537163"><ele>134.6</ele><time>2012-07-18T16:55:45.0000000+00:00</time></trkpt><trkpt lat="64.234375" lon="-21.19499016"><ele>135.1</ele><time>2012-07-18T16:55:50.0000000+00:00</time></trkpt><trkpt lat="64.23459625" lon="-21.19459343"><ele>134.8</ele><time>2012-07-18T16:55:55.0000000+00:00</time></trkpt><trkpt lat="64.23480988" lon="-21.19420815"><ele>134.9</ele><time>2012-07-18T16:56:00.0000000+00:00</time></trkpt><trkpt lat="64.2350235" lon="-21.19383049"><ele>133.4</ele><time>2012-07-18T16:56:05.0000000+00:00</time></trkpt><trkpt lat="64.2352066" lon="-21.19350624"><ele>133.2</ele><time>2012-07-18T16:56:10.0000000+00:00</time></trkpt><trkpt lat="64.23535919" lon="-21.19323921"><ele>134.2</ele><time>2012-07-18T16:56:15.0000000+00:00</time></trkpt><trkpt lat="64.2355423" lon="-21.19291687"><ele>131.5</ele><time>2012-07-18T16:56:20.0000000+00:00</time></trkpt><trkpt lat="64.23575592" lon="-21.19259453"><ele>133.9</ele><time>2012-07-18T16:56:25.0000000+00:00</time></trkpt><trkpt lat="64.23599243" lon="-21.19225884"><ele>134.8</ele><time>2012-07-18T16:56:30.0000000+00:00</time></trkpt><trkpt lat="64.23623657" lon="-21.19194031"><ele>135.3</ele><time>2012-07-18T16:56:35.0000000+00:00</time></trkpt><trkpt lat="64.23647308" lon="-21.19166184"><ele>138.1</ele><time>2012-07-18T16:56:40.0000000+00:00</time></trkpt><trkpt lat="64.23671722" lon="-21.19141007"><ele>137.6</ele><time>2012-07-18T16:56:45.0000000+00:00</time></trkpt><trkpt lat="64.23696137" lon="-21.19115639"><ele>136.8</ele><time>2012-07-18T16:56:50.0000000+00:00</time></trkpt><trkpt lat="64.23721314" lon="-21.19086266"><ele>146.3</ele><time>2012-07-18T16:56:55.0000000+00:00</time></trkpt><trkpt lat="64.23745728" lon="-21.19059753"><ele>139.0</ele><time>2012-07-18T16:57:00.0000000+00:00</time></trkpt><trkpt lat="64.23768616" lon="-21.19029427"><ele>138.9</ele><time>2012-07-18T16:57:05.0000000+00:00</time></trkpt><trkpt lat="64.23789215" lon="-21.18995476"><ele>138.4</ele><time>2012-07-18T16:57:10.0000000+00:00</time></trkpt><trkpt lat="64.23809815" lon="-21.18954468"><ele>137.3</ele><time>2012-07-18T16:57:15.0000000+00:00</time></trkpt><trkpt lat="64.23831177" lon="-21.1890583"><ele>135.3</ele><time>2012-07-18T16:57:20.0000000+00:00</time></trkpt><trkpt lat="64.23854828" lon="-21.18849373"><ele>132.5</ele><time>2012-07-18T16:57:25.0000000+00:00</time></trkpt><trkpt lat="64.23883057" lon="-21.18790436"><ele>129.9</ele><time>2012-07-18T16:57:30.0000000+00:00</time></trkpt><trkpt lat="64.23917389" lon="-21.18733406"><ele>126.5</ele><time>2012-07-18T16:57:35.0000000+00:00</time></trkpt><trkpt lat="64.23958588" lon="-21.18688965"><ele>119.3</ele><time>2012-07-18T16:57:40.0000000+00:00</time></trkpt><trkpt lat="64.24002075" lon="-21.18658829"><ele>117.8</ele><time>2012-07-18T16:57:45.0000000+00:00</time></trkpt><trkpt lat="64.24043274" lon="-21.18637848"><ele>116.9</ele><time>2012-07-18T16:57:50.0000000+00:00</time></trkpt><trkpt lat="64.24080658" lon="-21.18622017"><ele>115.4</ele><time>2012-07-18T16:57:55.0000000+00:00</time></trkpt><trkpt lat="64.24111939" lon="-21.18600655"><ele>116.0</ele><time>2012-07-18T16:58:00.0000000+00:00</time></trkpt><trkpt lat="64.24138641" lon="-21.18579102"><ele>116.1</ele><time>2012-07-18T16:58:05.0000000+00:00</time></trkpt><trkpt lat="64.24166107" lon="-21.1855526"><ele>113.3</ele><time>2012-07-18T16:58:10.0000000+00:00</time></trkpt><trkpt lat="64.24190521" lon="-21.18528175"><ele>109.9</ele><time>2012-07-18T16:58:15.0000000+00:00</time></trkpt><trkpt lat="64.24209595" lon="-21.18502808"><ele>113.8</ele><time>2012-07-18T16:58:20.0000000+00:00</time></trkpt><trkpt lat="64.24224854" lon="-21.18480682"><ele>114.2</ele><time>2012-07-18T16:58:25.0000000+00:00</time></trkpt><trkpt lat="64.24237824" lon="-21.18460655"><ele>114.7</ele><time>2012-07-18T16:58:30.0000000+00:00</time></trkpt><trkpt lat="64.24251556" lon="-21.18438911"><ele>116.7</ele><time>2012-07-18T16:58:35.0000000+00:00</time></trkpt><trkpt lat="64.24265289" lon="-21.18411446"><ele>116.8</ele><time>2012-07-18T16:58:40.0000000+00:00</time></trkpt><trkpt lat="64.24280548" lon="-21.18381119"><ele>118.6</ele><time>2012-07-18T16:58:45.0000000+00:00</time></trkpt><trkpt lat="64.24295807" lon="-21.18346977"><ele>117.7</ele><time>2012-07-18T16:58:50.0000000+00:00</time></trkpt><trkpt lat="64.2430954" lon="-21.18311119"><ele>118.3</ele><time>2012-07-18T16:58:55.0000000+00:00</time></trkpt><trkpt lat="64.2432251" lon="-21.18278313"><ele>118.2</ele><time>2012-07-18T16:59:00.0000000+00:00</time></trkpt><trkpt lat="64.2433548" lon="-21.18241119"><ele>117.9</ele><time>2012-07-18T16:59:05.0000000+00:00</time></trkpt><trkpt lat="64.2434845" lon="-21.18198586"><ele>117.7</ele><time>2012-07-18T16:59:10.0000000+00:00</time></trkpt><trkpt lat="64.24360657" lon="-21.18150139"><ele>117.9</ele><time>2012-07-18T16:59:15.0000000+00:00</time></trkpt><trkpt lat="64.2437439" lon="-21.18100357"><ele>118.1</ele><time>2012-07-18T16:59:20.0000000+00:00</time></trkpt><trkpt lat="64.24385071" lon="-21.18048477"><ele>115.7</ele><time>2012-07-18T16:59:25.0000000+00:00</time></trkpt><trkpt lat="64.24398041" lon="-21.17995834"><ele>116.2</ele><time>2012-07-18T16:59:30.0000000+00:00</time></trkpt><trkpt lat="64.24411011" lon="-21.17939758"><ele>116.7</ele><time>2012-07-18T16:59:35.0000000+00:00</time></trkpt><trkpt lat="64.24423981" lon="-21.17884064"><ele>116.6</ele><time>2012-07-18T16:59:40.0000000+00:00</time></trkpt><trkpt lat="64.24436951" lon="-21.17828369"><ele>116.5</ele><time>2012-07-18T16:59:45.0000000+00:00</time></trkpt><trkpt lat="64.24449921" lon="-21.17772102"><ele>116.1</ele><time>2012-07-18T16:59:50.0000000+00:00</time></trkpt><trkpt lat="64.24462891" lon="-21.17716217"><ele>116.3</ele><time>2012-07-18T16:59:55.0000000+00:00</time></trkpt><trkpt lat="64.24475861" lon="-21.17661285"><ele>116.7</ele><time>2012-07-18T17:00:00.0000000+00:00</time></trkpt><trkpt lat="64.24489594" lon="-21.17604446"><ele>116.9</ele><time>2012-07-18T17:00:05.0000000+00:00</time></trkpt><trkpt lat="64.24502564" lon="-21.17547035"><ele>116.9</ele><time>2012-07-18T17:00:10.0000000+00:00</time></trkpt><trkpt lat="64.24516296" lon="-21.17489815"><ele>116.5</ele><time>2012-07-18T17:00:15.0000000+00:00</time></trkpt><trkpt lat="64.24528503" lon="-21.17434502"><ele>114.1</ele><time>2012-07-18T17:00:20.0000000+00:00</time></trkpt><trkpt lat="64.24542236" lon="-21.17380142"><ele>113.7</ele><time>2012-07-18T17:00:25.0000000+00:00</time></trkpt><trkpt lat="64.24555969" lon="-21.17325783"><ele>114.5</ele><time>2012-07-18T17:00:30.0000000+00:00</time></trkpt><trkpt lat="64.2456665" lon="-21.17269135"><ele>116.8</ele><time>2012-07-18T17:00:35.0000000+00:00</time></trkpt><trkpt lat="64.2457962" lon="-21.17212296"><ele>116.8</ele><time>2012-07-18T17:00:40.0000000+00:00</time></trkpt><trkpt lat="64.24591065" lon="-21.17160416"><ele>117.1</ele><time>2012-07-18T17:00:45.0000000+00:00</time></trkpt><trkpt lat="64.24602509" lon="-21.17111206"><ele>118.1</ele><time>2012-07-18T17:00:50.0000000+00:00</time></trkpt><trkpt lat="64.24613953" lon="-21.17064667"><ele>119.6</ele><time>2012-07-18T17:00:55.0000000+00:00</time></trkpt><trkpt lat="64.24623108" lon="-21.17026138"><ele>121.1</ele><time>2012-07-18T17:01:00.0000000+00:00</time></trkpt><trkpt lat="64.24632263" lon="-21.16987419"><ele>122.6</ele><time>2012-07-18T17:01:05.0000000+00:00</time></trkpt><trkpt lat="64.24642181" lon="-21.16945648"><ele>122.3</ele><time>2012-07-18T17:01:10.0000000+00:00</time></trkpt><trkpt lat="64.24652863" lon="-21.16903496"><ele>121.7</ele><time>2012-07-18T17:01:15.0000000+00:00</time></trkpt><trkpt lat="64.24664307" lon="-21.1686058"><ele>120.9</ele><time>2012-07-18T17:01:20.0000000+00:00</time></trkpt><trkpt lat="64.24674988" lon="-21.1681881"><ele>121.3</ele><time>2012-07-18T17:01:25.0000000+00:00</time></trkpt><trkpt lat="64.24685669" lon="-21.16773796"><ele>120.6</ele><time>2012-07-18T17:01:30.0000000+00:00</time></trkpt><trkpt lat="64.24697113" lon="-21.16730309"><ele>127.0</ele><time>2012-07-18T17:01:35.0000000+00:00</time></trkpt><trkpt lat="64.2470932" lon="-21.16685867"><ele>128.3</ele><time>2012-07-18T17:01:40.0000000+00:00</time></trkpt><trkpt lat="64.24720764" lon="-21.166399"><ele>127.0</ele><time>2012-07-18T17:01:45.0000000+00:00</time></trkpt><trkpt lat="64.24733734" lon="-21.16594124"><ele>126.5</ele><time>2012-07-18T17:01:50.0000000+00:00</time></trkpt><trkpt lat="64.24746704" lon="-21.16549873"><ele>126.5</ele><time>2012-07-18T17:01:55.0000000+00:00</time></trkpt><trkpt lat="64.24759674" lon="-21.16505432"><ele>127.6</ele><time>2012-07-18T17:02:00.0000000+00:00</time></trkpt><trkpt lat="64.24773407" lon="-21.16461945"><ele>128.3</ele><time>2012-07-18T17:02:05.0000000+00:00</time></trkpt><trkpt lat="64.2478714" lon="-21.16420364"><ele>127.8</ele><time>2012-07-18T17:02:10.0000000+00:00</time></trkpt><trkpt lat="64.24800873" lon="-21.16377449"><ele>126.6</ele><time>2012-07-18T17:02:15.0000000+00:00</time></trkpt><trkpt lat="64.24815369" lon="-21.16334915"><ele>128.1</ele><time>2012-07-18T17:02:20.0000000+00:00</time></trkpt><trkpt lat="64.24830627" lon="-21.16294861"><ele>128.2</ele><time>2012-07-18T17:02:25.0000000+00:00</time></trkpt><trkpt lat="64.24846649" lon="-21.16256142"><ele>129.1</ele><time>2012-07-18T17:02:30.0000000+00:00</time></trkpt><trkpt lat="64.24861908" lon="-21.16222763"><ele>123.4</ele><time>2012-07-18T17:02:35.0000000+00:00</time></trkpt><trkpt lat="64.24873352" lon="-21.16196251"><ele>124.5</ele><time>2012-07-18T17:02:40.0000000+00:00</time></trkpt><trkpt lat="64.24884033" lon="-21.16174316"><ele>127.0</ele><time>2012-07-18T17:02:45.0000000+00:00</time></trkpt><trkpt lat="64.24897003" lon="-21.16148377"><ele>129.5</ele><time>2012-07-18T17:02:50.0000000+00:00</time></trkpt><trkpt lat="64.24912262" lon="-21.16121292"><ele>129.6</ele><time>2012-07-18T17:02:55.0000000+00:00</time></trkpt><trkpt lat="64.24927521" lon="-21.1608963"><ele>129.0</ele><time>2012-07-18T17:03:00.0000000+00:00</time></trkpt><trkpt lat="64.24943543" lon="-21.16054916"><ele>128.8</ele><time>2012-07-18T17:03:05.0000000+00:00</time></trkpt><trkpt lat="64.24960327" lon="-21.16020584"><ele>128.9</ele><time>2012-07-18T17:03:10.0000000+00:00</time></trkpt><trkpt lat="64.24975586" lon="-21.15982246"><ele>129.0</ele><time>2012-07-18T17:03:15.0000000+00:00</time></trkpt><trkpt lat="64.24991608" lon="-21.15943909"><ele>128.7</ele><time>2012-07-18T17:03:20.0000000+00:00</time></trkpt><trkpt lat="64.25006867" lon="-21.1590519"><ele>129.8</ele><time>2012-07-18T17:03:25.0000000+00:00</time></trkpt><trkpt lat="64.25020599" lon="-21.15864182"><ele>129.7</ele><time>2012-07-18T17:03:30.0000000+00:00</time></trkpt><trkpt lat="64.25034332" lon="-21.15823174"><ele>129.2</ele><time>2012-07-18T17:03:35.0000000+00:00</time></trkpt><trkpt lat="64.25048828" lon="-21.15781212"><ele>129.3</ele><time>2012-07-18T17:03:40.0000000+00:00</time></trkpt><trkpt lat="64.25062561" lon="-21.15740585"><ele>129.5</ele><time>2012-07-18T17:03:45.0000000+00:00</time></trkpt><trkpt lat="64.25077057" lon="-21.15698052"><ele>129.3</ele><time>2012-07-18T17:03:50.0000000+00:00</time></trkpt><trkpt lat="64.25091553" lon="-21.15655136"><ele>129.4</ele><time>2012-07-18T17:03:55.0000000+00:00</time></trkpt><trkpt lat="64.25106812" lon="-21.15612793"><ele>129.6</ele><time>2012-07-18T17:04:00.0000000+00:00</time></trkpt><trkpt lat="64.2512207" lon="-21.15570068"><ele>129.5</ele><time>2012-07-18T17:04:05.0000000+00:00</time></trkpt><trkpt lat="64.25137329" lon="-21.15526199"><ele>129.5</ele><time>2012-07-18T17:04:10.0000000+00:00</time></trkpt><trkpt lat="64.25151825" lon="-21.15483284"><ele>129.9</ele><time>2012-07-18T17:04:15.0000000+00:00</time></trkpt><trkpt lat="64.25167084" lon="-21.15440559"><ele>130.5</ele><time>2012-07-18T17:04:20.0000000+00:00</time></trkpt><trkpt lat="64.25182343" lon="-21.153965"><ele>130.9</ele><time>2012-07-18T17:04:25.0000000+00:00</time></trkpt><trkpt lat="64.25198364" lon="-21.15351868"><ele>133.3</ele><time>2012-07-18T17:04:30.0000000+00:00</time></trkpt><trkpt lat="64.2521286" lon="-21.15307999"><ele>133.1</ele><time>2012-07-18T17:04:35.0000000+00:00</time></trkpt><trkpt lat="64.2522583" lon="-21.15261459"><ele>132.6</ele><time>2012-07-18T17:04:40.0000000+00:00</time></trkpt><trkpt lat="64.25237274" lon="-21.1521492"><ele>132.4</ele><time>2012-07-18T17:04:45.0000000+00:00</time></trkpt><trkpt lat="64.25248718" lon="-21.15165329"><ele>132.3</ele><time>2012-07-18T17:04:50.0000000+00:00</time></trkpt><trkpt lat="64.25260162" lon="-21.15115929"><ele>132.6</ele><time>2012-07-18T17:04:55.0000000+00:00</time></trkpt><trkpt lat="64.25270081" lon="-21.15069199"><ele>132.9</ele><time>2012-07-18T17:05:00.0000000+00:00</time></trkpt><trkpt lat="64.25278473" lon="-21.15024185"><ele>133.2</ele><time>2012-07-18T17:05:05.0000000+00:00</time></trkpt><trkpt lat="64.25287628" lon="-21.14980507"><ele>133.4</ele><time>2012-07-18T17:05:10.0000000+00:00</time></trkpt><trkpt lat="64.25296783" lon="-21.14937401"><ele>133.2</ele><time>2012-07-18T17:05:15.0000000+00:00</time></trkpt><trkpt lat="64.25306702" lon="-21.14893532"><ele>133.4</ele><time>2012-07-18T17:05:20.0000000+00:00</time></trkpt><trkpt lat="64.2531662" lon="-21.14850235"><ele>133.8</ele><time>2012-07-18T17:05:25.0000000+00:00</time></trkpt><trkpt lat="64.25328064" lon="-21.1480732"><ele>133.9</ele><time>2012-07-18T17:05:30.0000000+00:00</time></trkpt><trkpt lat="64.25339508" lon="-21.14765358"><ele>134.0</ele><time>2012-07-18T17:05:35.0000000+00:00</time></trkpt><trkpt lat="64.25349426" lon="-21.14731789"><ele>134.0</ele><time>2012-07-18T17:05:40.0000000+00:00</time></trkpt><trkpt lat="64.25354767" lon="-21.14702988"><ele>133.7</ele><time>2012-07-18T17:05:45.0000000+00:00</time></trkpt><trkpt lat="64.25362396" lon="-21.14674568"><ele>133.3</ele><time>2012-07-18T17:05:50.0000000+00:00</time></trkpt><trkpt lat="64.253685" lon="-21.14648056"><ele>133.2</ele><time>2012-07-18T17:05:55.0000000+00:00</time></trkpt><trkpt lat="64.25369263" lon="-21.1463871"><ele>130.5</ele><time>2012-07-18T17:06:00.0000000+00:00</time></trkpt><trkpt lat="64.25369263" lon="-21.14637756"><ele>130.6</ele><time>2012-07-18T17:06:05.0000000+00:00</time></trkpt><trkpt lat="64.25369263" lon="-21.14637947"><ele>130.5</ele><time>2012-07-18T17:06:10.0000000+00:00</time></trkpt><trkpt lat="64.25369263" lon="-21.14637947"><ele>130.5</ele><time>2012-07-18T17:06:15.0000000+00:00</time></trkpt><trkpt lat="64.25369263" lon="-21.14637947"><ele>130.6</ele><time>2012-07-18T17:06:20.0000000+00:00</time></trkpt><trkpt lat="64.25369263" lon="-21.14637756"><ele>130.6</ele><time>2012-07-18T17:06:25.0000000+00:00</time></trkpt><trkpt lat="64.25369263" lon="-21.14637756"><ele>130.6</ele><time>2012-07-18T17:06:30.0000000+00:00</time></trkpt><trkpt lat="64.25369263" lon="-21.14637756"><ele>130.6</ele><time>2012-07-18T17:06:35.0000000+00:00</time></trkpt><trkpt lat="64.25369263" lon="-21.14637756"><ele>130.6</ele><time>2012-07-18T17:06:40.0000000+00:00</time></trkpt><trkpt lat="64.25369263" lon="-21.14637756"><ele>130.6</ele><time>2012-07-18T17:06:45.0000000+00:00</time></trkpt><trkpt lat="64.25369263" lon="-21.14637756"><ele>130.6</ele><time>2012-07-18T17:06:50.0000000+00:00</time></trkpt><trkpt lat="64.25369263" lon="-21.14637566"><ele>130.6</ele><time>2012-07-18T17:06:55.0000000+00:00</time></trkpt><trkpt lat="64.25369263" lon="-21.14637566"><ele>130.6</ele><time>2012-07-18T17:07:00.0000000+00:00</time></trkpt><trkpt lat="64.25369263" lon="-21.14637566"><ele>130.6</ele><time>2012-07-18T17:07:05.0000000+00:00</time></trkpt><trkpt lat="64.25369263" lon="-21.14637566"><ele>130.6</ele><time>2012-07-18T17:07:10.0000000+00:00</time></trkpt><trkpt lat="64.25369263" lon="-21.14637566"><ele>130.6</ele><time>2012-07-18T17:07:15.0000000+00:00</time></trkpt><trkpt lat="64.25371552" lon="-21.14639282"><ele>130.1</ele><time>2012-07-18T17:07:20.0000000+00:00</time></trkpt><trkpt lat="64.25379181" lon="-21.14632607"><ele>130.6</ele><time>2012-07-18T17:07:25.0000000+00:00</time></trkpt><trkpt lat="64.2538681" lon="-21.14624023"><ele>129.9</ele><time>2012-07-18T17:07:30.0000000+00:00</time></trkpt><trkpt lat="64.25392914" lon="-21.14612198"><ele>129.5</ele><time>2012-07-18T17:07:35.0000000+00:00</time></trkpt><trkpt lat="64.25397492" lon="-21.1459713"><ele>130.2</ele><time>2012-07-18T17:07:40.0000000+00:00</time></trkpt><trkpt lat="64.25404358" lon="-21.14579582"><ele>130.3</ele><time>2012-07-18T17:07:45.0000000+00:00</time></trkpt><trkpt lat="64.2541275" lon="-21.14556503"><ele>131.0</ele><time>2012-07-18T17:07:50.0000000+00:00</time></trkpt><trkpt lat="64.2542038" lon="-21.14535523"><ele>132.0</ele><time>2012-07-18T17:07:55.0000000+00:00</time></trkpt><trkpt lat="64.25428772" lon="-21.14514542"><ele>132.3</ele><time>2012-07-18T17:08:00.0000000+00:00</time></trkpt><trkpt lat="64.25437927" lon="-21.14488411"><ele>131.1</ele><time>2012-07-18T17:08:05.0000000+00:00</time></trkpt><trkpt lat="64.25449371" lon="-21.1445961"><ele>133.5</ele><time>2012-07-18T17:08:10.0000000+00:00</time></trkpt><trkpt lat="64.25460815" lon="-21.14430237"><ele>135.5</ele><time>2012-07-18T17:08:15.0000000+00:00</time></trkpt><trkpt lat="64.25469208" lon="-21.14410019"><ele>135.8</ele><time>2012-07-18T17:08:20.0000000+00:00</time></trkpt><trkpt lat="64.254776" lon="-21.14385414"><ele>136.2</ele><time>2012-07-18T17:08:25.0000000+00:00</time></trkpt><trkpt lat="64.25486755" lon="-21.14356804"><ele>135.6</ele><time>2012-07-18T17:08:30.0000000+00:00</time></trkpt><trkpt lat="64.25498962" lon="-21.14320946"><ele>138.2</ele><time>2012-07-18T17:08:35.0000000+00:00</time></trkpt><trkpt lat="64.25513458" lon="-21.14286041"><ele>138.0</ele><time>2012-07-18T17:08:40.0000000+00:00</time></trkpt><trkpt lat="64.25527954" lon="-21.14252472"><ele>138.1</ele><time>2012-07-18T17:08:45.0000000+00:00</time></trkpt><trkpt lat="64.25541687" lon="-21.14217567"><ele>138.0</ele><time>2012-07-18T17:08:50.0000000+00:00</time></trkpt><trkpt lat="64.25557709" lon="-21.14181519"><ele>136.8</ele><time>2012-07-18T17:08:55.0000000+00:00</time></trkpt><trkpt lat="64.25572968" lon="-21.1415081"><ele>135.7</ele><time>2012-07-18T17:09:00.0000000+00:00</time></trkpt><trkpt lat="64.25591278" lon="-21.14112282"><ele>135.4</ele><time>2012-07-18T17:09:05.0000000+00:00</time></trkpt><trkpt lat="64.25611877" lon="-21.14071846"><ele>135.3</ele><time>2012-07-18T17:09:10.0000000+00:00</time></trkpt><trkpt lat="64.25634003" lon="-21.14033318"><ele>136.9</ele><time>2012-07-18T17:09:15.0000000+00:00</time></trkpt><trkpt lat="64.25656128" lon="-21.13999176"><ele>137.0</ele><time>2012-07-18T17:09:20.0000000+00:00</time></trkpt><trkpt lat="64.2567749" lon="-21.1396904"><ele>137.4</ele><time>2012-07-18T17:09:25.0000000+00:00</time></trkpt><trkpt lat="64.25701141" lon="-21.13935471"><ele>138.2</ele><time>2012-07-18T17:09:30.0000000+00:00</time></trkpt><trkpt lat="64.25722504" lon="-21.13909531"><ele>139.2</ele><time>2012-07-18T17:09:35.0000000+00:00</time></trkpt><trkpt lat="64.25743866" lon="-21.13886833"><ele>137.8</ele><time>2012-07-18T17:09:40.0000000+00:00</time></trkpt><trkpt lat="64.25763702" lon="-21.13864708"><ele>134.6</ele><time>2012-07-18T17:09:45.0000000+00:00</time></trkpt><trkpt lat="64.25782776" lon="-21.13848686"><ele>135.0</ele><time>2012-07-18T17:09:50.0000000+00:00</time></trkpt><trkpt lat="64.25801849" lon="-21.13829041"><ele>134.9</ele><time>2012-07-18T17:09:55.0000000+00:00</time></trkpt><trkpt lat="64.25822449" lon="-21.13810349"><ele>134.5</ele><time>2012-07-18T17:10:00.0000000+00:00</time></trkpt><trkpt lat="64.25842285" lon="-21.13791847"><ele>133.7</ele><time>2012-07-18T17:10:05.0000000+00:00</time></trkpt><trkpt lat="64.25857544" lon="-21.13773727"><ele>132.7</ele><time>2012-07-18T17:10:10.0000000+00:00</time></trkpt><trkpt lat="64.25876617" lon="-21.13754463"><ele>133.2</ele><time>2012-07-18T17:10:15.0000000+00:00</time></trkpt><trkpt lat="64.25895691" lon="-21.13733292"><ele>132.9</ele><time>2012-07-18T17:10:20.0000000+00:00</time></trkpt><trkpt lat="64.25914764" lon="-21.13712502"><ele>130.9</ele><time>2012-07-18T17:10:25.0000000+00:00</time></trkpt><trkpt lat="64.25933838" lon="-21.13694572"><ele>132.6</ele><time>2012-07-18T17:10:30.0000000+00:00</time></trkpt><trkpt lat="64.25950623" lon="-21.13679123"><ele>133.5</ele><time>2012-07-18T17:10:35.0000000+00:00</time></trkpt><trkpt lat="64.2596817" lon="-21.1366272"><ele>133.0</ele><time>2012-07-18T17:10:40.0000000+00:00</time></trkpt><trkpt lat="64.25989533" lon="-21.13642502"><ele>132.8</ele><time>2012-07-18T17:10:45.0000000+00:00</time></trkpt><trkpt lat="64.26008606" lon="-21.13619041"><ele>132.0</ele><time>2012-07-18T17:10:50.0000000+00:00</time></trkpt><trkpt lat="64.26029968" lon="-21.1359787"><ele>132.8</ele><time>2012-07-18T17:10:55.0000000+00:00</time></trkpt><trkpt lat="64.26051331" lon="-21.13575554"><ele>132.6</ele><time>2012-07-18T17:11:00.0000000+00:00</time></trkpt><trkpt lat="64.26072693" lon="-21.13551331"><ele>132.1</ele><time>2012-07-18T17:11:05.0000000+00:00</time></trkpt><trkpt lat="64.26095581" lon="-21.13523865"><ele>133.3</ele><time>2012-07-18T17:11:10.0000000+00:00</time></trkpt><trkpt lat="64.26117706" lon="-21.13500214"><ele>134.5</ele><time>2012-07-18T17:11:15.0000000+00:00</time></trkpt><trkpt lat="64.26139832" lon="-21.13472366"><ele>137.4</ele><time>2012-07-18T17:11:20.0000000+00:00</time></trkpt><trkpt lat="64.26159668" lon="-21.13441658"><ele>137.7</ele><time>2012-07-18T17:11:25.0000000+00:00</time></trkpt><trkpt lat="64.26179504" lon="-21.13409615"><ele>135.5</ele><time>2012-07-18T17:11:30.0000000+00:00</time></trkpt><trkpt lat="64.26199341" lon="-21.13378334"><ele>134.7</ele><time>2012-07-18T17:11:35.0000000+00:00</time></trkpt><trkpt lat="64.26216126" lon="-21.13347817"><ele>136.5</ele><time>2012-07-18T17:11:40.0000000+00:00</time></trkpt><trkpt lat="64.26234436" lon="-21.13311958"><ele>137.1</ele><time>2012-07-18T17:11:45.0000000+00:00</time></trkpt><trkpt lat="64.26251984" lon="-21.13272858"><ele>137.7</ele><time>2012-07-18T17:11:50.0000000+00:00</time></trkpt><trkpt lat="64.26269531" lon="-21.13231659"><ele>137.4</ele><time>2012-07-18T17:11:55.0000000+00:00</time></trkpt><trkpt lat="64.26288605" lon="-21.13191032"><ele>137.8</ele><time>2012-07-18T17:12:00.0000000+00:00</time></trkpt><trkpt lat="64.26307678" lon="-21.13150597"><ele>139.1</ele><time>2012-07-18T17:12:05.0000000+00:00</time></trkpt><trkpt lat="64.26324463" lon="-21.13115501"><ele>138.7</ele><time>2012-07-18T17:12:10.0000000+00:00</time></trkpt><trkpt lat="64.26342773" lon="-21.13073158"><ele>138.9</ele><time>2012-07-18T17:12:15.0000000+00:00</time></trkpt><trkpt lat="64.26361084" lon="-21.13033867"><ele>140.4</ele><time>2012-07-18T17:12:20.0000000+00:00</time></trkpt><trkpt lat="64.26380158" lon="-21.12997437"><ele>141.6</ele><time>2012-07-18T17:12:25.0000000+00:00</time></trkpt><trkpt lat="64.26396942" lon="-21.1296463"><ele>141.6</ele><time>2012-07-18T17:12:30.0000000+00:00</time></trkpt><trkpt lat="64.26412201" lon="-21.12932777"><ele>140.3</ele><time>2012-07-18T17:12:35.0000000+00:00</time></trkpt><trkpt lat="64.26428223" lon="-21.12900162"><ele>137.4</ele><time>2012-07-18T17:12:40.0000000+00:00</time></trkpt><trkpt lat="64.26446533" lon="-21.12871361"><ele>136.3</ele><time>2012-07-18T17:12:45.0000000+00:00</time></trkpt><trkpt lat="64.26467133" lon="-21.12848282"><ele>136.0</ele><time>2012-07-18T17:12:50.0000000+00:00</time></trkpt><trkpt lat="64.26485443" lon="-21.12825394"><ele>138.4</ele><time>2012-07-18T17:12:55.0000000+00:00</time></trkpt><trkpt lat="64.26504517" lon="-21.12804604"><ele>135.7</ele><time>2012-07-18T17:13:00.0000000+00:00</time></trkpt><trkpt lat="64.26527405" lon="-21.12784576"><ele>137.1</ele><time>2012-07-18T17:13:05.0000000+00:00</time></trkpt><trkpt lat="64.26548004" lon="-21.12763214"><ele>137.1</ele><time>2012-07-18T17:13:10.0000000+00:00</time></trkpt><trkpt lat="64.26571655" lon="-21.12739945"><ele>136.5</ele><time>2012-07-18T17:13:15.0000000+00:00</time></trkpt><trkpt lat="64.26595306" lon="-21.12718201"><ele>137.5</ele><time>2012-07-18T17:13:20.0000000+00:00</time></trkpt><trkpt lat="64.26613617" lon="-21.12695503"><ele>137.9</ele><time>2012-07-18T17:13:25.0000000+00:00</time></trkpt><trkpt lat="64.26631928" lon="-21.12671089"><ele>137.9</ele><time>2012-07-18T17:13:30.0000000+00:00</time></trkpt><trkpt lat="64.26651001" lon="-21.12643242"><ele>136.6</ele><time>2012-07-18T17:13:35.0000000+00:00</time></trkpt><trkpt lat="64.26672363" lon="-21.12612152"><ele>137.2</ele><time>2012-07-18T17:13:40.0000000+00:00</time></trkpt><trkpt lat="64.26690674" lon="-21.12581825"><ele>138.7</ele><time>2012-07-18T17:13:45.0000000+00:00</time></trkpt><trkpt lat="64.2671051" lon="-21.12549591"><ele>138.8</ele><time>2012-07-18T17:13:50.0000000+00:00</time></trkpt><trkpt lat="64.26728058" lon="-21.12518692"><ele>140.0</ele><time>2012-07-18T17:13:55.0000000+00:00</time></trkpt><trkpt lat="64.26742554" lon="-21.12485504"><ele>140.7</ele><time>2012-07-18T17:14:00.0000000+00:00</time></trkpt><trkpt lat="64.2675705" lon="-21.12452889"><ele>140.7</ele><time>2012-07-18T17:14:05.0000000+00:00</time></trkpt><trkpt lat="64.26773071" lon="-21.12414932"><ele>140.7</ele><time>2012-07-18T17:14:10.0000000+00:00</time></trkpt><trkpt lat="64.26787567" lon="-21.12379074"><ele>140.8</ele><time>2012-07-18T17:14:15.0000000+00:00</time></trkpt><trkpt lat="64.26802063" lon="-21.12339211"><ele>141.3</ele><time>2012-07-18T17:14:20.0000000+00:00</time></trkpt><trkpt lat="64.26816559" lon="-21.12305832"><ele>140.7</ele><time>2012-07-18T17:14:25.0000000+00:00</time></trkpt><trkpt lat="64.26830292" lon="-21.12269974"><ele>140.5</ele><time>2012-07-18T17:14:30.0000000+00:00</time></trkpt><trkpt lat="64.26844788" lon="-21.12232018"><ele>142.3</ele><time>2012-07-18T17:14:35.0000000+00:00</time></trkpt><trkpt lat="64.26857758" lon="-21.12197495"><ele>140.4</ele><time>2012-07-18T17:14:40.0000000+00:00</time></trkpt><trkpt lat="64.26872253" lon="-21.12165642"><ele>142.6</ele><time>2012-07-18T17:14:45.0000000+00:00</time></trkpt><trkpt lat="64.26885223" lon="-21.12134361"><ele>144.2</ele><time>2012-07-18T17:14:50.0000000+00:00</time></trkpt><trkpt lat="64.26895905" lon="-21.1210556"><ele>144.3</ele><time>2012-07-18T17:14:55.0000000+00:00</time></trkpt><trkpt lat="64.26905823" lon="-21.12074471"><ele>142.1</ele><time>2012-07-18T17:15:00.0000000+00:00</time></trkpt><trkpt lat="64.2691803" lon="-21.12043762"><ele>142.4</ele><time>2012-07-18T17:15:05.0000000+00:00</time></trkpt><trkpt lat="64.26931" lon="-21.12015152"><ele>143.4</ele><time>2012-07-18T17:15:10.0000000+00:00</time></trkpt><trkpt lat="64.26940155" lon="-21.11989975"><ele>139.1</ele><time>2012-07-18T17:15:15.0000000+00:00</time></trkpt><trkpt lat="64.26951599" lon="-21.11957741"><ele>135.6</ele><time>2012-07-18T17:15:20.0000000+00:00</time></trkpt><trkpt lat="64.26963043" lon="-21.11924171"><ele>136.4</ele><time>2012-07-18T17:15:25.0000000+00:00</time></trkpt><trkpt lat="64.26974487" lon="-21.11894226"><ele>137.3</ele><time>2012-07-18T17:15:30.0000000+00:00</time></trkpt><trkpt lat="64.2698822" lon="-21.11863709"><ele>139.2</ele><time>2012-07-18T17:15:35.0000000+00:00</time></trkpt><trkpt lat="64.26998138" lon="-21.11837769"><ele>138.2</ele><time>2012-07-18T17:15:40.0000000+00:00</time></trkpt><trkpt lat="64.2700882" lon="-21.11810303"><ele>138.7</ele><time>2012-07-18T17:15:45.0000000+00:00</time></trkpt><trkpt lat="64.27022553" lon="-21.11779404"><ele>139.9</ele><time>2012-07-18T17:15:50.0000000+00:00</time></trkpt><trkpt lat="64.27035523" lon="-21.11746597"><ele>139.1</ele><time>2012-07-18T17:15:55.0000000+00:00</time></trkpt><trkpt lat="64.27048492" lon="-21.11714172"><ele>138.8</ele><time>2012-07-18T17:16:00.0000000+00:00</time></trkpt><trkpt lat="64.27065277" lon="-21.11675453"><ele>139.5</ele><time>2012-07-18T17:16:05.0000000+00:00</time></trkpt><trkpt lat="64.27080536" lon="-21.11643601"><ele>138.1</ele><time>2012-07-18T17:16:10.0000000+00:00</time></trkpt><trkpt lat="64.27095032" lon="-21.11613274"><ele>138.1</ele><time>2012-07-18T17:16:15.0000000+00:00</time></trkpt><trkpt lat="64.27109528" lon="-21.11581612"><ele>137.3</ele><time>2012-07-18T17:16:20.0000000+00:00</time></trkpt><trkpt lat="64.27124023" lon="-21.11550522"><ele>136.0</ele><time>2012-07-18T17:16:25.0000000+00:00</time></trkpt><trkpt lat="64.27142334" lon="-21.11515617"><ele>135.4</ele><time>2012-07-18T17:16:30.0000000+00:00</time></trkpt><trkpt lat="64.27162933" lon="-21.11474228"><ele>134.3</ele><time>2012-07-18T17:16:35.0000000+00:00</time></trkpt><trkpt lat="64.2718277" lon="-21.11433029"><ele>133.8</ele><time>2012-07-18T17:16:40.0000000+00:00</time></trkpt><trkpt lat="64.27201843" lon="-21.11394501"><ele>133.6</ele><time>2012-07-18T17:16:45.0000000+00:00</time></trkpt><trkpt lat="64.27220917" lon="-21.113554"><ele>133.3</ele><time>2012-07-18T17:16:50.0000000+00:00</time></trkpt><trkpt lat="64.2723999" lon="-21.11317062"><ele>134.5</ele><time>2012-07-18T17:16:55.0000000+00:00</time></trkpt><trkpt lat="64.27259827" lon="-21.11277008"><ele>136.7</ele><time>2012-07-18T17:17:00.0000000+00:00</time></trkpt><trkpt lat="64.27278137" lon="-21.11237335"><ele>136.3</ele><time>2012-07-18T17:17:05.0000000+00:00</time></trkpt><trkpt lat="64.27297974" lon="-21.11199951"><ele>137.6</ele><time>2012-07-18T17:17:10.0000000+00:00</time></trkpt><trkpt lat="64.27316284" lon="-21.11159515"><ele>138.3</ele><time>2012-07-18T17:17:15.0000000+00:00</time></trkpt><trkpt lat="64.27335358" lon="-21.1112175"><ele>138.3</ele><time>2012-07-18T17:17:20.0000000+00:00</time></trkpt><trkpt lat="64.27353668" lon="-21.11078835"><ele>138.2</ele><time>2012-07-18T17:17:25.0000000+00:00</time></trkpt><trkpt lat="64.27373505" lon="-21.11037064"><ele>138.7</ele><time>2012-07-18T17:17:30.0000000+00:00</time></trkpt><trkpt lat="64.27394104" lon="-21.109972"><ele>137.0</ele><time>2012-07-18T17:17:35.0000000+00:00</time></trkpt><trkpt lat="64.27412415" lon="-21.1095829"><ele>137.1</ele><time>2012-07-18T17:17:40.0000000+00:00</time></trkpt><trkpt lat="64.27429962" lon="-21.10922051"><ele>136.6</ele><time>2012-07-18T17:17:45.0000000+00:00</time></trkpt><trkpt lat="64.27448273" lon="-21.10885429"><ele>137.5</ele><time>2012-07-18T17:17:50.0000000+00:00</time></trkpt><trkpt lat="64.2746582" lon="-21.10849381"><ele>138.3</ele><time>2012-07-18T17:17:55.0000000+00:00</time></trkpt><trkpt lat="64.27481842" lon="-21.10811615"><ele>140.1</ele><time>2012-07-18T17:18:00.0000000+00:00</time></trkpt><trkpt lat="64.27497864" lon="-21.10777473"><ele>141.1</ele><time>2012-07-18T17:18:05.0000000+00:00</time></trkpt><trkpt lat="64.27514648" lon="-21.10745049"><ele>141.5</ele><time>2012-07-18T17:18:10.0000000+00:00</time></trkpt><trkpt lat="64.27529907" lon="-21.10710335"><ele>140.3</ele><time>2012-07-18T17:18:15.0000000+00:00</time></trkpt><trkpt lat="64.27546692" lon="-21.1067524"><ele>139.8</ele><time>2012-07-18T17:18:20.0000000+00:00</time></trkpt><trkpt lat="64.27562714" lon="-21.10643768"><ele>140.7</ele><time>2012-07-18T17:18:25.0000000+00:00</time></trkpt><trkpt lat="64.27577972" lon="-21.10608482"><ele>143.2</ele><time>2012-07-18T17:18:30.0000000+00:00</time></trkpt><trkpt lat="64.27593994" lon="-21.10576057"><ele>141.0</ele><time>2012-07-18T17:18:35.0000000+00:00</time></trkpt><trkpt lat="64.27610779" lon="-21.10541153"><ele>141.1</ele><time>2012-07-18T17:18:40.0000000+00:00</time></trkpt><trkpt lat="64.27627564" lon="-21.10499573"><ele>138.6</ele><time>2012-07-18T17:18:45.0000000+00:00</time></trkpt><trkpt lat="64.27644348" lon="-21.10459328"><ele>138.7</ele><time>2012-07-18T17:18:50.0000000+00:00</time></trkpt><trkpt lat="64.27661133" lon="-21.10421753"><ele>137.7</ele><time>2012-07-18T17:18:55.0000000+00:00</time></trkpt><trkpt lat="64.27679443" lon="-21.10377693"><ele>136.3</ele><time>2012-07-18T17:19:00.0000000+00:00</time></trkpt><trkpt lat="64.27697754" lon="-21.10331726"><ele>137.4</ele><time>2012-07-18T17:19:05.0000000+00:00</time></trkpt><trkpt lat="64.27716065" lon="-21.10282707"><ele>139.2</ele><time>2012-07-18T17:19:10.0000000+00:00</time></trkpt><trkpt lat="64.27731323" lon="-21.10234261"><ele>139.5</ele><time>2012-07-18T17:19:15.0000000+00:00</time></trkpt><trkpt lat="64.2774353" lon="-21.10189819"><ele>137.2</ele><time>2012-07-18T17:19:20.0000000+00:00</time></trkpt><trkpt lat="64.27754974" lon="-21.10147286"><ele>134.8</ele><time>2012-07-18T17:19:25.0000000+00:00</time></trkpt><trkpt lat="64.27767181" lon="-21.10102654"><ele>134.2</ele><time>2012-07-18T17:19:30.0000000+00:00</time></trkpt><trkpt lat="64.277771" lon="-21.10063744"><ele>132.5</ele><time>2012-07-18T17:19:35.0000000+00:00</time></trkpt><trkpt lat="64.27787781" lon="-21.10034752"><ele>134.3</ele><time>2012-07-18T17:19:40.0000000+00:00</time></trkpt><trkpt lat="64.27784729" lon="-21.10059929"><ele>133.4</ele><time>2012-07-18T17:19:45.0000000+00:00</time></trkpt><trkpt lat="64.27778626" lon="-21.10091209"><ele>132.3</ele><time>2012-07-18T17:19:50.0000000+00:00</time></trkpt><trkpt lat="64.27772522" lon="-21.1010952"><ele>132.7</ele><time>2012-07-18T17:19:55.0000000+00:00</time></trkpt><trkpt lat="64.27770233" lon="-21.10094261"><ele>132.4</ele><time>2012-07-18T17:20:00.0000000+00:00</time></trkpt><trkpt lat="64.27770233" lon="-21.10078239"><ele>132.1</ele><time>2012-07-18T17:20:05.0000000+00:00</time></trkpt><trkpt lat="64.27770233" lon="-21.10079384"><ele>132.0</ele><time>2012-07-18T17:20:10.0000000+00:00</time></trkpt><trkpt lat="64.2776947" lon="-21.10079956"><ele>132.0</ele><time>2012-07-18T17:20:15.0000000+00:00</time></trkpt><trkpt lat="64.2776947" lon="-21.10080528"><ele>131.9</ele><time>2012-07-18T17:20:20.0000000+00:00</time></trkpt><trkpt lat="64.2776947" lon="-21.10080528"><ele>131.8</ele><time>2012-07-18T17:20:25.0000000+00:00</time></trkpt><trkpt lat="64.2776947" lon="-21.10080528"><ele>131.9</ele><time>2012-07-18T17:20:30.0000000+00:00</time></trkpt><trkpt lat="64.2776947" lon="-21.10081101"><ele>132.0</ele><time>2012-07-18T17:20:35.0000000+00:00</time></trkpt><trkpt lat="64.2776947" lon="-21.1008091"><ele>132.0</ele><time>2012-07-18T17:20:40.0000000+00:00</time></trkpt><trkpt lat="64.2776947" lon="-21.10081101"><ele>132.0</ele><time>2012-07-18T17:20:45.0000000+00:00</time></trkpt><trkpt lat="64.2776947" lon="-21.10081101"><ele>132.0</ele><time>2012-07-18T17:20:50.0000000+00:00</time></trkpt><trkpt lat="64.2776947" lon="-21.10082054"><ele>131.9</ele><time>2012-07-18T17:20:55.0000000+00:00</time></trkpt><trkpt lat="64.27768707" lon="-21.10085869"><ele>131.2</ele><time>2012-07-18T17:21:00.0000000+00:00</time></trkpt><trkpt lat="64.27768707" lon="-21.1008606"><ele>130.8</ele><time>2012-07-18T17:21:05.0000000+00:00</time></trkpt><trkpt lat="64.27768707" lon="-21.10085678"><ele>130.6</ele><time>2012-07-18T17:21:10.0000000+00:00</time></trkpt><trkpt lat="64.27768707" lon="-21.10085869"><ele>130.6</ele><time>2012-07-18T17:21:15.0000000+00:00</time></trkpt><trkpt lat="64.27768707" lon="-21.1008606"><ele>130.7</ele><time>2012-07-18T17:21:20.0000000+00:00</time></trkpt><trkpt lat="64.27768707" lon="-21.1008606"><ele>130.7</ele><time>2012-07-18T17:21:25.0000000+00:00</time></trkpt><trkpt lat="64.27768707" lon="-21.1008606"><ele>130.4</ele><time>2012-07-18T17:21:30.0000000+00:00</time></trkpt><trkpt lat="64.27768707" lon="-21.10086441"><ele>130.3</ele><time>2012-07-18T17:21:35.0000000+00:00</time></trkpt><trkpt lat="64.27768707" lon="-21.10086823"><ele>130.3</ele><time>2012-07-18T17:21:40.0000000+00:00</time></trkpt><trkpt lat="64.2776947" lon="-21.10090447"><ele>130.4</ele><time>2012-07-18T17:21:45.0000000+00:00</time></trkpt><trkpt lat="64.27771759" lon="-21.10084724"><ele>130.9</ele><time>2012-07-18T17:21:50.0000000+00:00</time></trkpt><trkpt lat="64.27771759" lon="-21.10083199"><ele>131.4</ele><time>2012-07-18T17:21:55.0000000+00:00</time></trkpt><trkpt lat="64.27771759" lon="-21.10082626"><ele>131.5</ele><time>2012-07-18T17:22:00.0000000+00:00</time></trkpt><trkpt lat="64.27773285" lon="-21.10077286"><ele>132.0</ele><time>2012-07-18T17:22:05.0000000+00:00</time></trkpt><trkpt lat="64.27775574" lon="-21.1006279"><ele>132.2</ele><time>2012-07-18T17:22:10.0000000+00:00</time></trkpt><trkpt lat="64.27778626" lon="-21.10043716"><ele>132.0</ele><time>2012-07-18T17:22:15.0000000+00:00</time></trkpt><trkpt lat="64.27786255" lon="-21.10017586"><ele>132.6</ele><time>2012-07-18T17:22:20.0000000+00:00</time></trkpt><trkpt lat="64.27790833" lon="-21.09989548"><ele>132.2</ele><time>2012-07-18T17:22:25.0000000+00:00</time></trkpt><trkpt lat="64.27796936" lon="-21.0996666"><ele>133.0</ele><time>2012-07-18T17:22:30.0000000+00:00</time></trkpt><trkpt lat="64.27801514" lon="-21.09953308"><ele>134.2</ele><time>2012-07-18T17:22:35.0000000+00:00</time></trkpt><trkpt lat="64.27807617" lon="-21.0993042"><ele>133.8</ele><time>2012-07-18T17:22:40.0000000+00:00</time></trkpt><trkpt lat="64.2781601" lon="-21.09894943"><ele>133.4</ele><time>2012-07-18T17:22:45.0000000+00:00</time></trkpt><trkpt lat="64.27829742" lon="-21.09843445"><ele>131.7</ele><time>2012-07-18T17:22:50.0000000+00:00</time></trkpt><trkpt lat="64.27841187" lon="-21.09794617"><ele>129.7</ele><time>2012-07-18T17:22:55.0000000+00:00</time></trkpt><trkpt lat="64.27852631" lon="-21.09748459"><ele>127.5</ele><time>2012-07-18T17:23:00.0000000+00:00</time></trkpt><trkpt lat="64.27864075" lon="-21.09695244"><ele>125.1</ele><time>2012-07-18T17:23:05.0000000+00:00</time></trkpt><trkpt lat="64.27877808" lon="-21.09641838"><ele>124.3</ele><time>2012-07-18T17:23:10.0000000+00:00</time></trkpt><trkpt lat="64.27890015" lon="-21.09580612"><ele>122.9</ele><time>2012-07-18T17:23:15.0000000+00:00</time></trkpt><trkpt lat="64.27903748" lon="-21.09509468"><ele>120.8</ele><time>2012-07-18T17:23:20.0000000+00:00</time></trkpt><trkpt lat="64.27915955" lon="-21.09426308"><ele>118.3</ele><time>2012-07-18T17:23:25.0000000+00:00</time></trkpt><trkpt lat="64.27927399" lon="-21.09330368"><ele>116.6</ele><time>2012-07-18T17:23:30.0000000+00:00</time></trkpt><trkpt lat="64.2793045" lon="-21.09230423"><ele>114.7</ele><time>2012-07-18T17:23:35.0000000+00:00</time></trkpt><trkpt lat="64.27929688" lon="-21.09139442"><ele>112.1</ele><time>2012-07-18T17:23:40.0000000+00:00</time></trkpt><trkpt lat="64.27927399" lon="-21.09057808"><ele>111.4</ele><time>2012-07-18T17:23:45.0000000+00:00</time></trkpt><trkpt lat="64.27928162" lon="-21.08984947"><ele>112.7</ele><time>2012-07-18T17:23:50.0000000+00:00</time></trkpt><trkpt lat="64.27928925" lon="-21.089571"><ele>111.7</ele><time>2012-07-18T17:23:55.0000000+00:00</time></trkpt><trkpt lat="64.27929688" lon="-21.08939934"><ele>113.8</ele><time>2012-07-18T17:24:00.0000000+00:00</time></trkpt><trkpt lat="64.27941895" lon="-21.08922005"><ele>114.9</ele><time>2012-07-18T17:24:05.0000000+00:00</time></trkpt><trkpt lat="64.27954865" lon="-21.08898735"><ele>115.5</ele><time>2012-07-18T17:24:10.0000000+00:00</time></trkpt><trkpt lat="64.27962494" lon="-21.08862305"><ele>113.8</ele><time>2012-07-18T17:24:15.0000000+00:00</time></trkpt><trkpt lat="64.27963257" lon="-21.08822441"><ele>112.6</ele><time>2012-07-18T17:24:20.0000000+00:00</time></trkpt><trkpt lat="64.27972412" lon="-21.0880394"><ele>112.9</ele><time>2012-07-18T17:24:25.0000000+00:00</time></trkpt><trkpt lat="64.2797699" lon="-21.08797455"><ele>112.6</ele><time>2012-07-18T17:24:30.0000000+00:00</time></trkpt><trkpt lat="64.27976227" lon="-21.08795738"><ele>112.0</ele><time>2012-07-18T17:24:35.0000000+00:00</time></trkpt><trkpt lat="64.27979279" lon="-21.08786202"><ele>112.0</ele><time>2012-07-18T17:24:40.0000000+00:00</time></trkpt><trkpt lat="64.2798233" lon="-21.08783341"><ele>114.5</ele><time>2012-07-18T17:24:45.0000000+00:00</time></trkpt><trkpt lat="64.27983093" lon="-21.08784294"><ele>116.4</ele><time>2012-07-18T17:24:50.0000000+00:00</time></trkpt><trkpt lat="64.27984619" lon="-21.08782959"><ele>117.3</ele><time>2012-07-18T17:24:55.0000000+00:00</time></trkpt><trkpt lat="64.27984619" lon="-21.08782196"><ele>117.5</ele><time>2012-07-18T17:25:00.0000000+00:00</time></trkpt><trkpt lat="64.27985382" lon="-21.08781433"><ele>117.6</ele><time>2012-07-18T17:25:05.0000000+00:00</time></trkpt><trkpt lat="64.27985382" lon="-21.08780098"><ele>118.1</ele><time>2012-07-18T17:25:10.0000000+00:00</time></trkpt><trkpt lat="64.27985382" lon="-21.08780098"><ele>118.1</ele><time>2012-07-18T17:25:15.0000000+00:00</time></trkpt><trkpt lat="64.27985382" lon="-21.08775711"><ele>118.1</ele><time>2012-07-18T17:25:20.0000000+00:00</time></trkpt><trkpt lat="64.27986145" lon="-21.08775711"><ele>117.8</ele><time>2012-07-18T17:25:25.0000000+00:00</time></trkpt><trkpt lat="64.27986145" lon="-21.0877533"><ele>117.8</ele><time>2012-07-18T17:25:30.0000000+00:00</time></trkpt><trkpt lat="64.27983093" lon="-21.08787537"><ele>116.5</ele><time>2012-07-18T17:25:35.0000000+00:00</time></trkpt><trkpt lat="64.2798233" lon="-21.08795929"><ele>116.1</ele><time>2012-07-18T17:25:40.0000000+00:00</time></trkpt><trkpt lat="64.2798233" lon="-21.08797646"><ele>116.1</ele><time>2012-07-18T17:25:45.0000000+00:00</time></trkpt><trkpt lat="64.2798233" lon="-21.08799171"><ele>116.0</ele><time>2012-07-18T17:25:50.0000000+00:00</time></trkpt><trkpt lat="64.2798233" lon="-21.08800697"><ele>115.9</ele><time>2012-07-18T17:25:55.0000000+00:00</time></trkpt><trkpt lat="64.27983093" lon="-21.08802223"><ele>115.8</ele><time>2012-07-18T17:26:00.0000000+00:00</time></trkpt><trkpt lat="64.27983093" lon="-21.08802986"><ele>115.8</ele><time>2012-07-18T17:26:05.0000000+00:00</time></trkpt><trkpt lat="64.27978516" lon="-21.08813286"><ele>104.8</ele><time>2012-07-18T17:27:04.0000000+00:00</time></trkpt><trkpt lat="64.27976227" lon="-21.0881691"><ele>105.8</ele><time>2012-07-18T17:27:09.0000000+00:00</time></trkpt><trkpt lat="64.27976227" lon="-21.08817673"><ele>105.8</ele><time>2012-07-18T17:27:14.0000000+00:00</time></trkpt><trkpt lat="64.27976227" lon="-21.08818817"><ele>105.8</ele><time>2012-07-18T17:27:19.0000000+00:00</time></trkpt><trkpt lat="64.27976227" lon="-21.08819389"><ele>105.8</ele><time>2012-07-18T17:27:24.0000000+00:00</time></trkpt><trkpt lat="64.27978516" lon="-21.08815002"><ele>105.6</ele><time>2012-07-18T17:27:29.0000000+00:00</time></trkpt><trkpt lat="64.27979279" lon="-21.0881176"><ele>105.6</ele><time>2012-07-18T17:27:34.0000000+00:00</time></trkpt><trkpt lat="64.27985382" lon="-21.08804321"><ele>107.8</ele><time>2012-07-18T17:27:39.0000000+00:00</time></trkpt><trkpt lat="64.27983093" lon="-21.08797646"><ele>109.5</ele><time>2012-07-18T17:27:44.0000000+00:00</time></trkpt><trkpt lat="64.27983856" lon="-21.08787918"><ele>109.1</ele><time>2012-07-18T17:27:49.0000000+00:00</time></trkpt><trkpt lat="64.27986145" lon="-21.08768654"><ele>108.9</ele><time>2012-07-18T17:27:54.0000000+00:00</time></trkpt><trkpt lat="64.27987671" lon="-21.08751106"><ele>110.2</ele><time>2012-07-18T17:27:59.0000000+00:00</time></trkpt><trkpt lat="64.27990723" lon="-21.08735275"><ele>112.8</ele><time>2012-07-18T17:28:04.0000000+00:00</time></trkpt><trkpt lat="64.27990723" lon="-21.08725929"><ele>113.6</ele><time>2012-07-18T17:28:09.0000000+00:00</time></trkpt><trkpt lat="64.27991486" lon="-21.08721542"><ele>114.6</ele><time>2012-07-18T17:28:14.0000000+00:00</time></trkpt><trkpt lat="64.27993012" lon="-21.08715248"><ele>115.3</ele><time>2012-07-18T17:28:19.0000000+00:00</time></trkpt><trkpt lat="64.27993012" lon="-21.08713341"><ele>116.9</ele><time>2012-07-18T17:28:24.0000000+00:00</time></trkpt><trkpt lat="64.27993012" lon="-21.08713532"><ele>117.4</ele><time>2012-07-18T17:28:29.0000000+00:00</time></trkpt><trkpt lat="64.27992249" lon="-21.08713341"><ele>117.8</ele><time>2012-07-18T17:28:34.0000000+00:00</time></trkpt><trkpt lat="64.27993012" lon="-21.08713532"><ele>118.1</ele><time>2012-07-18T17:28:39.0000000+00:00</time></trkpt><trkpt lat="64.27993012" lon="-21.08713722"><ele>118.1</ele><time>2012-07-18T17:28:44.0000000+00:00</time></trkpt><trkpt lat="64.27993012" lon="-21.08713722"><ele>118.1</ele><time>2012-07-18T17:28:49.0000000+00:00</time></trkpt><trkpt lat="64.27993012" lon="-21.08713913"><ele>118.1</ele><time>2012-07-18T17:28:54.0000000+00:00</time></trkpt><trkpt lat="64.27993012" lon="-21.08713913"><ele>118.1</ele><time>2012-07-18T17:28:59.0000000+00:00</time></trkpt><trkpt lat="64.27993012" lon="-21.08714104"><ele>118.1</ele><time>2012-07-18T17:29:04.0000000+00:00</time></trkpt><trkpt lat="64.27993012" lon="-21.08714104"><ele>118.1</ele><time>2012-07-18T17:29:09.0000000+00:00</time></trkpt><trkpt lat="64.27993012" lon="-21.08714485"><ele>118.1</ele><time>2012-07-18T17:29:14.0000000+00:00</time></trkpt><trkpt lat="64.27993012" lon="-21.08715057"><ele>118.0</ele><time>2012-07-18T17:29:19.0000000+00:00</time></trkpt><trkpt lat="64.27993012" lon="-21.08715057"><ele>118.0</ele><time>2012-07-18T17:29:24.0000000+00:00</time></trkpt><trkpt lat="64.27993012" lon="-21.08715057"><ele>118.0</ele><time>2012-07-18T17:29:29.0000000+00:00</time></trkpt><trkpt lat="64.27993012" lon="-21.08715057"><ele>118.0</ele><time>2012-07-18T17:29:34.0000000+00:00</time></trkpt><trkpt lat="64.27993012" lon="-21.08715057"><ele>118.0</ele><time>2012-07-18T17:29:39.0000000+00:00</time></trkpt><trkpt lat="64.27993012" lon="-21.08714867"><ele>118.0</ele><time>2012-07-18T17:29:44.0000000+00:00</time></trkpt><trkpt lat="64.27993012" lon="-21.08714867"><ele>118.0</ele><time>2012-07-18T17:29:49.0000000+00:00</time></trkpt><trkpt lat="64.27993012" lon="-21.08714676"><ele>118.0</ele><time>2012-07-18T17:29:54.0000000+00:00</time></trkpt><trkpt lat="64.27993012" lon="-21.08714676"><ele>118.0</ele><time>2012-07-18T17:29:59.0000000+00:00</time></trkpt><trkpt lat="64.27993012" lon="-21.08714676"><ele>118.0</ele><time>2012-07-18T17:30:04.0000000+00:00</time></trkpt><trkpt lat="64.27993012" lon="-21.08714485"><ele>118.0</ele><time>2012-07-18T17:30:09.0000000+00:00</time></trkpt><trkpt lat="64.27993012" lon="-21.08714485"><ele>118.0</ele><time>2012-07-18T17:30:14.0000000+00:00</time></trkpt><trkpt lat="64.27993012" lon="-21.08714485"><ele>118.0</ele><time>2012-07-18T17:30:19.0000000+00:00</time></trkpt><trkpt lat="64.27993012" lon="-21.08714485"><ele>118.0</ele><time>2012-07-18T17:30:24.0000000+00:00</time></trkpt><trkpt lat="64.27993012" lon="-21.08714485"><ele>118.1</ele><time>2012-07-18T17:30:29.0000000+00:00</time></trkpt><trkpt lat="64.27993012" lon="-21.08714294"><ele>118.1</ele><time>2012-07-18T17:30:34.0000000+00:00</time></trkpt><trkpt lat="64.27993012" lon="-21.08714294"><ele>118.1</ele><time>2012-07-18T17:30:39.0000000+00:00</time></trkpt><trkpt lat="64.27993774" lon="-21.08714294"><ele>118.1</ele><time>2012-07-18T17:30:44.0000000+00:00</time></trkpt><trkpt lat="64.27993012" lon="-21.08714294"><ele>118.1</ele><time>2012-07-18T17:30:49.0000000+00:00</time></trkpt><trkpt lat="64.27993774" lon="-21.08714104"><ele>118.1</ele><time>2012-07-18T17:30:54.0000000+00:00</time></trkpt><trkpt lat="64.27992249" lon="-21.0873394"><ele>117.0</ele><time>2012-07-18T17:30:59.0000000+00:00</time></trkpt><trkpt lat="64.27991486" lon="-21.0876236"><ele>113.9</ele><time>2012-07-18T17:31:04.0000000+00:00</time></trkpt><trkpt lat="64.27989197" lon="-21.08777618"><ele>112.8</ele><time>2012-07-18T17:31:09.0000000+00:00</time></trkpt><trkpt lat="64.27990723" lon="-21.08786583"><ele>114.0</ele><time>2012-07-18T17:31:14.0000000+00:00</time></trkpt><trkpt lat="64.27989197" lon="-21.08787537"><ele>113.9</ele><time>2012-07-18T17:31:19.0000000+00:00</time></trkpt><trkpt lat="64.27988434" lon="-21.08772469"><ele>114.6</ele><time>2012-07-18T17:31:24.0000000+00:00</time></trkpt><trkpt lat="64.27990723" lon="-21.08748055"><ele>115.4</ele><time>2012-07-18T17:31:29.0000000+00:00</time></trkpt><trkpt lat="64.27991486" lon="-21.08732033"><ele>116.3</ele><time>2012-07-18T17:31:34.0000000+00:00</time></trkpt><trkpt lat="64.27992249" lon="-21.08716583"><ele>115.6</ele><time>2012-07-18T17:31:39.0000000+00:00</time></trkpt><trkpt lat="64.27993774" lon="-21.08711243"><ele>115.6</ele><time>2012-07-18T17:31:44.0000000+00:00</time></trkpt><trkpt lat="64.27993012" lon="-21.0871048"><ele>116.1</ele><time>2012-07-18T17:31:49.0000000+00:00</time></trkpt><trkpt lat="64.27993774" lon="-21.08710289"><ele>116.1</ele><time>2012-07-18T17:31:54.0000000+00:00</time></trkpt><trkpt lat="64.27993012" lon="-21.08713532"><ele>116.1</ele><time>2012-07-18T17:31:59.0000000+00:00</time></trkpt><trkpt lat="64.27993012" lon="-21.08714485"><ele>116.0</ele><time>2012-07-18T17:32:04.0000000+00:00</time></trkpt><trkpt lat="64.27993774" lon="-21.08715057"><ele>115.9</ele><time>2012-07-18T17:32:09.0000000+00:00</time></trkpt><trkpt lat="64.27993774" lon="-21.08715439"><ele>115.8</ele><time>2012-07-18T17:32:14.0000000+00:00</time></trkpt><trkpt lat="64.27993774" lon="-21.08714294"><ele>115.8</ele><time>2012-07-18T17:32:19.0000000+00:00</time></trkpt><trkpt lat="64.27993774" lon="-21.08713913"><ele>115.7</ele><time>2012-07-18T17:32:24.0000000+00:00</time></trkpt><trkpt lat="64.27993774" lon="-21.08713913"><ele>115.6</ele><time>2012-07-18T17:32:29.0000000+00:00</time></trkpt><trkpt lat="64.27993774" lon="-21.08713913"><ele>115.6</ele><time>2012-07-18T17:32:34.0000000+00:00</time></trkpt><trkpt lat="64.27993774" lon="-21.08713913"><ele>115.6</ele><time>2012-07-18T17:32:39.0000000+00:00</time></trkpt><trkpt lat="64.27993774" lon="-21.08713913"><ele>115.6</ele><time>2012-07-18T17:32:44.0000000+00:00</time></trkpt><trkpt lat="64.27993774" lon="-21.08713913"><ele>115.6</ele><time>2012-07-18T17:32:49.0000000+00:00</time></trkpt><trkpt lat="64.27993774" lon="-21.08713913"><ele>115.6</ele><time>2012-07-18T17:32:54.0000000+00:00</time></trkpt><trkpt lat="64.27993774" lon="-21.08713913"><ele>115.6</ele><time>2012-07-18T17:32:59.0000000+00:00</time></trkpt><trkpt lat="64.27993774" lon="-21.08713913"><ele>115.6</ele><time>2012-07-18T17:33:04.0000000+00:00</time></trkpt><trkpt lat="64.27993774" lon="-21.08713913"><ele>115.6</ele><time>2012-07-18T17:33:09.0000000+00:00</time></trkpt><trkpt lat="64.27993774" lon="-21.08713913"><ele>115.6</ele><time>2012-07-18T17:33:14.0000000+00:00</time></trkpt><trkpt lat="64.27993774" lon="-21.08713913"><ele>115.6</ele><time>2012-07-18T17:33:19.0000000+00:00</time></trkpt><trkpt lat="64.27993774" lon="-21.08713722"><ele>115.6</ele><time>2012-07-18T17:33:24.0000000+00:00</time></trkpt><trkpt lat="64.27993774" lon="-21.08713722"><ele>115.6</ele><time>2012-07-18T17:33:29.0000000+00:00</time></trkpt><trkpt lat="64.27993774" lon="-21.08713722"><ele>115.6</ele><time>2012-07-18T17:33:34.0000000+00:00</time></trkpt><trkpt lat="64.27993774" lon="-21.08713722"><ele>115.6</ele><time>2012-07-18T17:33:39.0000000+00:00</time></trkpt><trkpt lat="64.27993774" lon="-21.08713722"><ele>115.6</ele><time>2012-07-18T17:33:44.0000000+00:00</time></trkpt><trkpt lat="64.27993774" lon="-21.08713722"><ele>115.6</ele><time>2012-07-18T17:33:49.0000000+00:00</time></trkpt><trkpt lat="64.27993774" lon="-21.08713722"><ele>115.6</ele><time>2012-07-18T17:33:54.0000000+00:00</time></trkpt><trkpt lat="64.27993774" lon="-21.08713722"><ele>115.6</ele><time>2012-07-18T17:33:59.0000000+00:00</time></trkpt><trkpt lat="64.27993774" lon="-21.08713722"><ele>115.6</ele><time>2012-07-18T17:34:04.0000000+00:00</time></trkpt><trkpt lat="64.27993774" lon="-21.08713722"><ele>115.6</ele><time>2012-07-18T17:34:09.0000000+00:00</time></trkpt><trkpt lat="64.27993774" lon="-21.08713722"><ele>115.6</ele><time>2012-07-18T17:34:14.0000000+00:00</time></trkpt><trkpt lat="64.27993774" lon="-21.08713722"><ele>115.6</ele><time>2012-07-18T17:34:19.0000000+00:00</time></trkpt><trkpt lat="64.27993774" lon="-21.08713722"><ele>115.6</ele><time>2012-07-18T17:34:24.0000000+00:00</time></trkpt><trkpt lat="64.27993774" lon="-21.08713722"><ele>115.6</ele><time>2012-07-18T17:34:29.0000000+00:00</time></trkpt><trkpt lat="64.27993774" lon="-21.08713913"><ele>115.6</ele><time>2012-07-18T17:34:34.0000000+00:00</time></trkpt><trkpt lat="64.27993774" lon="-21.08713913"><ele>115.6</ele><time>2012-07-18T17:34:39.0000000+00:00</time></trkpt><trkpt lat="64.27993774" lon="-21.08713913"><ele>115.6</ele><time>2012-07-18T17:34:44.0000000+00:00</time></trkpt><trkpt lat="64.27993774" lon="-21.08713913"><ele>115.6</ele><time>2012-07-18T17:34:49.0000000+00:00</time></trkpt><trkpt lat="64.27993012" lon="-21.08711624"><ele>115.3</ele><time>2012-07-18T17:34:54.0000000+00:00</time></trkpt><trkpt lat="64.27992249" lon="-21.08712578"><ele>115.1</ele><time>2012-07-18T17:34:59.0000000+00:00</time></trkpt><trkpt lat="64.27991486" lon="-21.08712769"><ele>115.1</ele><time>2012-07-18T17:35:04.0000000+00:00</time></trkpt><trkpt lat="64.27990723" lon="-21.08712387"><ele>115.1</ele><time>2012-07-18T17:35:09.0000000+00:00</time></trkpt><trkpt lat="64.27991486" lon="-21.08711243"><ele>115.1</ele><time>2012-07-18T17:35:14.0000000+00:00</time></trkpt><trkpt lat="64.27991486" lon="-21.08710671"><ele>115.0</ele><time>2012-07-18T17:35:19.0000000+00:00</time></trkpt><trkpt lat="64.27993774" lon="-21.08712769"><ele>114.9</ele><time>2012-07-18T17:35:24.0000000+00:00</time></trkpt><trkpt lat="64.27993012" lon="-21.08713913"><ele>114.5</ele><time>2012-07-18T17:35:29.0000000+00:00</time></trkpt><trkpt lat="64.27990723" lon="-21.08718491"><ele>113.3</ele><time>2012-07-18T17:35:34.0000000+00:00</time></trkpt><trkpt lat="64.27991486" lon="-21.08725548"><ele>113.0</ele><time>2012-07-18T17:35:39.0000000+00:00</time></trkpt><trkpt lat="64.27991486" lon="-21.08726692"><ele>113.6</ele><time>2012-07-18T17:35:44.0000000+00:00</time></trkpt><trkpt lat="64.27992249" lon="-21.087286"><ele>114.4</ele><time>2012-07-18T17:35:49.0000000+00:00</time></trkpt><trkpt lat="64.27990723" lon="-21.08735275"><ele>114.7</ele><time>2012-07-18T17:35:54.0000000+00:00</time></trkpt><trkpt lat="64.2798996" lon="-21.08748436"><ele>114.3</ele><time>2012-07-18T17:35:59.0000000+00:00</time></trkpt><trkpt lat="64.27991486" lon="-21.08753777"><ele>111.0</ele><time>2012-07-18T17:36:04.0000000+00:00</time></trkpt><trkpt lat="64.2798996" lon="-21.08768272"><ele>111.0</ele><time>2012-07-18T17:36:09.0000000+00:00</time></trkpt><trkpt lat="64.27986145" lon="-21.08784676"><ele>110.9</ele><time>2012-07-18T17:36:14.0000000+00:00</time></trkpt><trkpt lat="64.27980042" lon="-21.08786202"><ele>110.7</ele><time>2012-07-18T17:36:19.0000000+00:00</time></trkpt><trkpt lat="64.27977753" lon="-21.08797073"><ele>110.2</ele><time>2012-07-18T17:36:24.0000000+00:00</time></trkpt><trkpt lat="64.27978516" lon="-21.0880661"><ele>110.8</ele><time>2012-07-18T17:36:29.0000000+00:00</time></trkpt><trkpt lat="64.27978516" lon="-21.08808327"><ele>112.7</ele><time>2012-07-18T17:36:34.0000000+00:00</time></trkpt><trkpt lat="64.27978516" lon="-21.08808708"><ele>113.6</ele><time>2012-07-18T17:36:39.0000000+00:00</time></trkpt><trkpt lat="64.27977753" lon="-21.0880928"><ele>114.3</ele><time>2012-07-18T17:36:44.0000000+00:00</time></trkpt><trkpt lat="64.27978516" lon="-21.08810234"><ele>114.9</ele><time>2012-07-18T17:36:49.0000000+00:00</time></trkpt><trkpt lat="64.27979279" lon="-21.08812332"><ele>115.5</ele><time>2012-07-18T17:36:54.0000000+00:00</time></trkpt><trkpt lat="64.27980042" lon="-21.08813667"><ele>116.2</ele><time>2012-07-18T17:36:59.0000000+00:00</time></trkpt><trkpt lat="64.27980042" lon="-21.0881424"><ele>116.8</ele><time>2012-07-18T17:37:04.0000000+00:00</time></trkpt><trkpt lat="64.27980804" lon="-21.08815384"><ele>117.4</ele><time>2012-07-18T17:37:09.0000000+00:00</time></trkpt><trkpt lat="64.27980804" lon="-21.0881691"><ele>118.0</ele><time>2012-07-18T17:37:14.0000000+00:00</time></trkpt><trkpt lat="64.27980804" lon="-21.08818436"><ele>118.6</ele><time>2012-07-18T17:37:19.0000000+00:00</time></trkpt><trkpt lat="64.27980042" lon="-21.08819771"><ele>119.2</ele><time>2012-07-18T17:37:24.0000000+00:00</time></trkpt><trkpt lat="64.27977753" lon="-21.08818817"><ele>119.8</ele><time>2012-07-18T17:37:29.0000000+00:00</time></trkpt><trkpt lat="64.27974701" lon="-21.08817864"><ele>120.4</ele><time>2012-07-18T17:37:34.0000000+00:00</time></trkpt><trkpt lat="64.27977753" lon="-21.08817291"><ele>121.0</ele><time>2012-07-18T17:37:39.0000000+00:00</time></trkpt><trkpt lat="64.27979279" lon="-21.08817864"><ele>121.6</ele><time>2012-07-18T17:37:44.0000000+00:00</time></trkpt><trkpt lat="64.27978516" lon="-21.08818054"><ele>122.2</ele><time>2012-07-18T17:37:49.0000000+00:00</time></trkpt><trkpt lat="64.27978516" lon="-21.08818817"><ele>122.8</ele><time>2012-07-18T17:37:54.0000000+00:00</time></trkpt><trkpt lat="64.27979279" lon="-21.08820343"><ele>123.4</ele><time>2012-07-18T17:37:59.0000000+00:00</time></trkpt><trkpt lat="64.27981567" lon="-21.08823013"><ele>124.0</ele><time>2012-07-18T17:38:04.0000000+00:00</time></trkpt><trkpt lat="64.27985382" lon="-21.08826256"><ele>124.5</ele><time>2012-07-18T17:38:09.0000000+00:00</time></trkpt><trkpt lat="64.27987671" lon="-21.08827972"><ele>125.0</ele><time>2012-07-18T17:38:14.0000000+00:00</time></trkpt><trkpt lat="64.27988434" lon="-21.08827782"><ele>125.6</ele><time>2012-07-18T17:38:19.0000000+00:00</time></trkpt><trkpt lat="64.27989197" lon="-21.08832169"><ele>126.1</ele><time>2012-07-18T17:38:24.0000000+00:00</time></trkpt><trkpt lat="64.27989197" lon="-21.0883522"><ele>126.6</ele><time>2012-07-18T17:38:29.0000000+00:00</time></trkpt><trkpt lat="64.27992249" lon="-21.08834457"><ele>127.2</ele><time>2012-07-18T17:38:34.0000000+00:00</time></trkpt><trkpt lat="64.27996826" lon="-21.08835602"><ele>124.9</ele><time>2012-07-18T17:38:39.0000000+00:00</time></trkpt><trkpt lat="64.28000641" lon="-21.0884037"><ele>122.6</ele><time>2012-07-18T17:38:44.0000000+00:00</time></trkpt><trkpt lat="64.27986145" lon="-21.0885601"><ele>118.3</ele><time>2012-07-18T17:40:03.0000000+00:00</time></trkpt><trkpt lat="64.27986145" lon="-21.08857727"><ele>117.9</ele><time>2012-07-18T17:40:08.0000000+00:00</time></trkpt><trkpt lat="64.27986908" lon="-21.08859062"><ele>117.9</ele><time>2012-07-18T17:40:13.0000000+00:00</time></trkpt><trkpt lat="64.27987671" lon="-21.08859825"><ele>117.9</ele><time>2012-07-18T17:40:18.0000000+00:00</time></trkpt><trkpt lat="64.27998352" lon="-21.08845139"><ele>117.5</ele><time>2012-07-18T17:40:23.0000000+00:00</time></trkpt><trkpt lat="64.27999878" lon="-21.08836365"><ele>117.0</ele><time>2012-07-18T17:40:28.0000000+00:00</time></trkpt><trkpt lat="64.27999878" lon="-21.08823013"><ele>117.1</ele><time>2012-07-18T17:40:33.0000000+00:00</time></trkpt><trkpt lat="64.28001404" lon="-21.0882206"><ele>117.3</ele><time>2012-07-18T17:40:38.0000000+00:00</time></trkpt><trkpt lat="64.28001404" lon="-21.08822441"><ele>117.3</ele><time>2012-07-18T17:40:43.0000000+00:00</time></trkpt><trkpt lat="64.28000641" lon="-21.08823204"><ele>117.2</ele><time>2012-07-18T17:40:48.0000000+00:00</time></trkpt><trkpt lat="64.27999878" lon="-21.0882473"><ele>117.2</ele><time>2012-07-18T17:40:53.0000000+00:00</time></trkpt><trkpt lat="64.27999115" lon="-21.08826256"><ele>117.2</ele><time>2012-07-18T17:40:58.0000000+00:00</time></trkpt><trkpt lat="64.27998352" lon="-21.08827972"><ele>117.2</ele><time>2012-07-18T17:41:03.0000000+00:00</time></trkpt><trkpt lat="64.279953" lon="-21.08831024"><ele>117.4</ele><time>2012-07-18T17:41:08.0000000+00:00</time></trkpt><trkpt lat="64.2798996" lon="-21.08827972"><ele>117.2</ele><time>2012-07-18T17:41:13.0000000+00:00</time></trkpt><trkpt lat="64.27986908" lon="-21.08829308"><ele>117.2</ele><time>2012-07-18T17:41:18.0000000+00:00</time></trkpt><trkpt lat="64.27983856" lon="-21.08830071"><ele>116.9</ele><time>2012-07-18T17:41:23.0000000+00:00</time></trkpt><trkpt lat="64.2798233" lon="-21.08826447"><ele>116.2</ele><time>2012-07-18T17:41:28.0000000+00:00</time></trkpt><trkpt lat="64.27980804" lon="-21.08823776"><ele>115.5</ele><time>2012-07-18T17:41:33.0000000+00:00</time></trkpt><trkpt lat="64.27980804" lon="-21.08825493"><ele>114.9</ele><time>2012-07-18T17:41:38.0000000+00:00</time></trkpt><trkpt lat="64.27980804" lon="-21.08831024"><ele>114.3</ele><time>2012-07-18T17:41:43.0000000+00:00</time></trkpt><trkpt lat="64.27979279" lon="-21.08833504"><ele>114.0</ele><time>2012-07-18T17:41:48.0000000+00:00</time></trkpt><trkpt lat="64.27980804" lon="-21.08830833"><ele>114.0</ele><time>2012-07-18T17:41:53.0000000+00:00</time></trkpt><trkpt lat="64.27980042" lon="-21.08831406"><ele>114.0</ele><time>2012-07-18T17:41:58.0000000+00:00</time></trkpt><trkpt lat="64.27980042" lon="-21.08831978"><ele>114.0</ele><time>2012-07-18T17:42:03.0000000+00:00</time></trkpt><trkpt lat="64.27980042" lon="-21.08831596"><ele>114.0</ele><time>2012-07-18T17:42:08.0000000+00:00</time></trkpt><trkpt lat="64.27980042" lon="-21.08830452"><ele>113.9</ele><time>2012-07-18T17:42:13.0000000+00:00</time></trkpt><trkpt lat="64.27984619" lon="-21.08825874"><ele>113.9</ele><time>2012-07-18T17:42:18.0000000+00:00</time></trkpt><trkpt lat="64.27993012" lon="-21.08819008"><ele>114.0</ele><time>2012-07-18T17:42:23.0000000+00:00</time></trkpt><trkpt lat="64.27999115" lon="-21.08813858"><ele>114.0</ele><time>2012-07-18T17:42:28.0000000+00:00</time></trkpt><trkpt lat="64.28000641" lon="-21.08815002"><ele>114.7</ele><time>2012-07-18T17:42:33.0000000+00:00</time></trkpt><trkpt lat="64.28003693" lon="-21.08808136"><ele>114.9</ele><time>2012-07-18T17:42:38.0000000+00:00</time></trkpt><trkpt lat="64.28002167" lon="-21.0880661"><ele>115.2</ele><time>2012-07-18T17:42:43.0000000+00:00</time></trkpt><trkpt lat="64.28002167" lon="-21.08805656"><ele>115.3</ele><time>2012-07-18T17:42:48.0000000+00:00</time></trkpt><trkpt lat="64.28000641" lon="-21.08805084"><ele>115.3</ele><time>2012-07-18T17:42:53.0000000+00:00</time></trkpt><trkpt lat="64.2796402" lon="-21.08735085"><ele>144.8</ele><time>2012-07-18T17:43:55.0000000+00:00</time></trkpt><trkpt lat="64.27967072" lon="-21.08750725"><ele>140.4</ele><time>2012-07-18T17:44:00.0000000+00:00</time></trkpt><trkpt lat="64.27980042" lon="-21.08780861"><ele>137.8</ele><time>2012-07-18T17:44:05.0000000+00:00</time></trkpt><trkpt lat="64.27984619" lon="-21.08783913"><ele>136.2</ele><time>2012-07-18T17:44:10.0000000+00:00</time></trkpt><trkpt lat="64.2798996" lon="-21.08782196"><ele>135.3</ele><time>2012-07-18T17:44:15.0000000+00:00</time></trkpt><trkpt lat="64.27988434" lon="-21.08794975"><ele>134.3</ele><time>2012-07-18T17:44:20.0000000+00:00</time></trkpt><trkpt lat="64.27988434" lon="-21.0880928"><ele>133.6</ele><time>2012-07-18T17:44:25.0000000+00:00</time></trkpt><trkpt lat="64.27994537" lon="-21.08815002"><ele>133.2</ele><time>2012-07-18T17:44:30.0000000+00:00</time></trkpt><trkpt lat="64.27996063" lon="-21.0882473"><ele>132.9</ele><time>2012-07-18T17:44:35.0000000+00:00</time></trkpt><trkpt lat="64.27996063" lon="-21.08815956"><ele>132.3</ele><time>2012-07-18T17:44:40.0000000+00:00</time></trkpt><trkpt lat="64.28000641" lon="-21.08801651"><ele>131.9</ele><time>2012-07-18T17:44:45.0000000+00:00</time></trkpt><trkpt lat="64.27999878" lon="-21.08793831"><ele>130.2</ele><time>2012-07-18T17:44:50.0000000+00:00</time></trkpt><trkpt lat="64.27998352" lon="-21.0879364"><ele>118.9</ele><time>2012-07-18T17:44:55.0000000+00:00</time></trkpt><trkpt lat="64.27997589" lon="-21.08795548"><ele>117.8</ele><time>2012-07-18T17:45:00.0000000+00:00</time></trkpt><trkpt lat="64.27997589" lon="-21.08797455"><ele>117.7</ele><time>2012-07-18T17:45:05.0000000+00:00</time></trkpt><trkpt lat="64.27991486" lon="-21.08804131"><ele>119.1</ele><time>2012-07-18T17:45:10.0000000+00:00</time></trkpt><trkpt lat="64.27984619" lon="-21.08813477"><ele>120.3</ele><time>2012-07-18T17:45:15.0000000+00:00</time></trkpt><trkpt lat="64.27980042" lon="-21.08820725"><ele>122.7</ele><time>2012-07-18T17:45:20.0000000+00:00</time></trkpt><trkpt lat="64.27978516" lon="-21.08821297"><ele>119.6</ele><time>2012-07-18T17:45:25.0000000+00:00</time></trkpt><trkpt lat="64.27978516" lon="-21.08820725"><ele>120.2</ele><time>2012-07-18T17:45:30.0000000+00:00</time></trkpt><trkpt lat="64.27978516" lon="-21.08820534"><ele>120.2</ele><time>2012-07-18T17:45:35.0000000+00:00</time></trkpt><trkpt lat="64.27978516" lon="-21.08820343"><ele>120.1</ele><time>2012-07-18T17:45:40.0000000+00:00</time></trkpt><trkpt lat="64.27978516" lon="-21.08820343"><ele>120.1</ele><time>2012-07-18T17:45:45.0000000+00:00</time></trkpt><trkpt lat="64.27978516" lon="-21.08820343"><ele>120.1</ele><time>2012-07-18T17:45:50.0000000+00:00</time></trkpt><trkpt lat="64.27978516" lon="-21.08820343"><ele>120.1</ele><time>2012-07-18T17:45:55.0000000+00:00</time></trkpt><trkpt lat="64.27978516" lon="-21.08820343"><ele>120.1</ele><time>2012-07-18T17:46:00.0000000+00:00</time></trkpt><trkpt lat="64.27978516" lon="-21.08819962"><ele>120.1</ele><time>2012-07-18T17:46:05.0000000+00:00</time></trkpt><trkpt lat="64.27983093" lon="-21.08812523"><ele>119.4</ele><time>2012-07-18T17:46:10.0000000+00:00</time></trkpt><trkpt lat="64.27983093" lon="-21.0879879"><ele>118.5</ele><time>2012-07-18T17:46:15.0000000+00:00</time></trkpt><trkpt lat="64.27983856" lon="-21.08782959"><ele>118.3</ele><time>2012-07-18T17:46:20.0000000+00:00</time></trkpt><trkpt lat="64.27983856" lon="-21.08770561"><ele>117.7</ele><time>2012-07-18T17:46:25.0000000+00:00</time></trkpt><trkpt lat="64.2798233" lon="-21.08756256"><ele>118.2</ele><time>2012-07-18T17:46:30.0000000+00:00</time></trkpt><trkpt lat="64.27983093" lon="-21.08743286"><ele>118.2</ele><time>2012-07-18T17:46:35.0000000+00:00</time></trkpt><trkpt lat="64.27987671" lon="-21.08719254"><ele>117.0</ele><time>2012-07-18T17:46:40.0000000+00:00</time></trkpt><trkpt lat="64.27990723" lon="-21.08712196"><ele>116.8</ele><time>2012-07-18T17:46:45.0000000+00:00</time></trkpt><trkpt lat="64.27993012" lon="-21.08710289"><ele>116.6</ele><time>2012-07-18T17:46:50.0000000+00:00</time></trkpt><trkpt lat="64.27996063" lon="-21.08714676"><ele>116.4</ele><time>2012-07-18T17:46:55.0000000+00:00</time></trkpt><trkpt lat="64.27996826" lon="-21.08715057"><ele>116.3</ele><time>2012-07-18T17:47:00.0000000+00:00</time></trkpt><trkpt lat="64.27996063" lon="-21.08714485"><ele>116.1</ele><time>2012-07-18T17:47:05.0000000+00:00</time></trkpt><trkpt lat="64.27996826" lon="-21.08712196"><ele>116.1</ele><time>2012-07-18T17:47:10.0000000+00:00</time></trkpt><trkpt lat="64.27994537" lon="-21.08706284"><ele>116.1</ele><time>2012-07-18T17:47:15.0000000+00:00</time></trkpt><trkpt lat="64.27993012" lon="-21.08701325"><ele>116.2</ele><time>2012-07-18T17:47:20.0000000+00:00</time></trkpt><trkpt lat="64.27992249" lon="-21.08698082"><ele>116.3</ele><time>2012-07-18T17:47:25.0000000+00:00</time></trkpt><trkpt lat="64.27992249" lon="-21.08697891"><ele>116.3</ele><time>2012-07-18T17:47:30.0000000+00:00</time></trkpt><trkpt lat="64.27992249" lon="-21.08696747"><ele>116.3</ele><time>2012-07-18T17:47:35.0000000+00:00</time></trkpt><trkpt lat="64.27993012" lon="-21.08695221"><ele>116.4</ele><time>2012-07-18T17:47:40.0000000+00:00</time></trkpt><trkpt lat="64.27994537" lon="-21.08684921"><ele>116.5</ele><time>2012-07-18T17:47:45.0000000+00:00</time></trkpt><trkpt lat="64.27996826" lon="-21.08684158"><ele>116.6</ele><time>2012-07-18T17:47:50.0000000+00:00</time></trkpt><trkpt lat="64.27998352" lon="-21.08687592"><ele>116.5</ele><time>2012-07-18T17:47:55.0000000+00:00</time></trkpt><trkpt lat="64.27997589" lon="-21.08691979"><ele>116.4</ele><time>2012-07-18T17:48:00.0000000+00:00</time></trkpt><trkpt lat="64.27997589" lon="-21.08693123"><ele>116.4</ele><time>2012-07-18T17:48:05.0000000+00:00</time></trkpt><trkpt lat="64.27997589" lon="-21.08694649"><ele>116.4</ele><time>2012-07-18T17:48:10.0000000+00:00</time></trkpt><trkpt lat="64.27999115" lon="-21.0869503"><ele>116.4</ele><time>2012-07-18T17:48:15.0000000+00:00</time></trkpt><trkpt lat="64.28001404" lon="-21.08695602"><ele>116.5</ele><time>2012-07-18T17:48:20.0000000+00:00</time></trkpt><trkpt lat="64.27999878" lon="-21.08694267"><ele>116.5</ele><time>2012-07-18T17:48:25.0000000+00:00</time></trkpt><trkpt lat="64.27997589" lon="-21.08695602"><ele>116.6</ele><time>2012-07-18T17:48:30.0000000+00:00</time></trkpt><trkpt lat="64.27996826" lon="-21.08697891"><ele>116.8</ele><time>2012-07-18T17:48:35.0000000+00:00</time></trkpt><trkpt lat="64.27996063" lon="-21.08699989"><ele>117.0</ele><time>2012-07-18T17:48:40.0000000+00:00</time></trkpt><trkpt lat="64.27996826" lon="-21.08698082"><ele>117.1</ele><time>2012-07-18T17:48:45.0000000+00:00</time></trkpt><trkpt lat="64.27996826" lon="-21.08698845"><ele>117.3</ele><time>2012-07-18T17:48:50.0000000+00:00</time></trkpt><trkpt lat="64.27996826" lon="-21.08700371"><ele>117.4</ele><time>2012-07-18T17:48:55.0000000+00:00</time></trkpt><trkpt lat="64.27996826" lon="-21.08701897"><ele>117.4</ele><time>2012-07-18T17:49:00.0000000+00:00</time></trkpt><trkpt lat="64.27996826" lon="-21.08700562"><ele>117.5</ele><time>2012-07-18T17:49:05.0000000+00:00</time></trkpt><trkpt lat="64.27996826" lon="-21.08700562"><ele>117.5</ele><time>2012-07-18T17:49:10.0000000+00:00</time></trkpt><trkpt lat="64.27996826" lon="-21.08700752"><ele>117.5</ele><time>2012-07-18T17:49:15.0000000+00:00</time></trkpt><trkpt lat="64.27996826" lon="-21.08700752"><ele>117.5</ele><time>2012-07-18T17:49:20.0000000+00:00</time></trkpt><trkpt lat="64.27996826" lon="-21.08700562"><ele>117.5</ele><time>2012-07-18T17:49:25.0000000+00:00</time></trkpt><trkpt lat="64.27996826" lon="-21.08700752"><ele>117.5</ele><time>2012-07-18T17:49:30.0000000+00:00</time></trkpt><trkpt lat="64.27996826" lon="-21.08700752"><ele>117.5</ele><time>2012-07-18T17:49:35.0000000+00:00</time></trkpt><trkpt lat="64.27996826" lon="-21.08700752"><ele>117.5</ele><time>2012-07-18T17:49:40.0000000+00:00</time></trkpt><trkpt lat="64.27996826" lon="-21.08700752"><ele>117.5</ele><time>2012-07-18T17:49:45.0000000+00:00</time></trkpt><trkpt lat="64.27996826" lon="-21.08700752"><ele>117.5</ele><time>2012-07-18T17:49:50.0000000+00:00</time></trkpt><trkpt lat="64.27996826" lon="-21.08700752"><ele>117.5</ele><time>2012-07-18T17:49:55.0000000+00:00</time></trkpt><trkpt lat="64.27996826" lon="-21.08700752"><ele>117.5</ele><time>2012-07-18T17:50:00.0000000+00:00</time></trkpt><trkpt lat="64.27996826" lon="-21.08700752"><ele>117.5</ele><time>2012-07-18T17:50:05.0000000+00:00</time></trkpt><trkpt lat="64.27996826" lon="-21.08700752"><ele>117.5</ele><time>2012-07-18T17:50:10.0000000+00:00</time></trkpt><trkpt lat="64.27996826" lon="-21.08700752"><ele>117.5</ele><time>2012-07-18T17:50:15.0000000+00:00</time></trkpt><trkpt lat="64.27996826" lon="-21.08700752"><ele>117.5</ele><time>2012-07-18T17:50:20.0000000+00:00</time></trkpt><trkpt lat="64.27996826" lon="-21.08700752"><ele>117.5</ele><time>2012-07-18T17:50:25.0000000+00:00</time></trkpt><trkpt lat="64.27996826" lon="-21.08700943"><ele>117.4</ele><time>2012-07-18T17:50:30.0000000+00:00</time></trkpt><trkpt lat="64.27996826" lon="-21.08700943"><ele>117.4</ele><time>2012-07-18T17:50:35.0000000+00:00</time></trkpt><trkpt lat="64.27996826" lon="-21.08701134"><ele>117.4</ele><time>2012-07-18T17:50:40.0000000+00:00</time></trkpt><trkpt lat="64.27996826" lon="-21.08701134"><ele>117.3</ele><time>2012-07-18T17:50:45.0000000+00:00</time></trkpt><trkpt lat="64.27996826" lon="-21.08701134"><ele>117.3</ele><time>2012-07-18T17:50:50.0000000+00:00</time></trkpt><trkpt lat="64.27996826" lon="-21.08701325"><ele>117.3</ele><time>2012-07-18T17:50:55.0000000+00:00</time></trkpt><trkpt lat="64.27996826" lon="-21.08701325"><ele>117.3</ele><time>2012-07-18T17:51:00.0000000+00:00</time></trkpt><trkpt lat="64.27996826" lon="-21.08701325"><ele>117.3</ele><time>2012-07-18T17:51:05.0000000+00:00</time></trkpt><trkpt lat="64.27996826" lon="-21.08701325"><ele>117.3</ele><time>2012-07-18T17:51:10.0000000+00:00</time></trkpt><trkpt lat="64.27996826" lon="-21.08701325"><ele>117.3</ele><time>2012-07-18T17:51:15.0000000+00:00</time></trkpt><trkpt lat="64.27996826" lon="-21.08701325"><ele>117.3</ele><time>2012-07-18T17:51:20.0000000+00:00</time></trkpt><trkpt lat="64.27996826" lon="-21.08701515"><ele>117.3</ele><time>2012-07-18T17:51:25.0000000+00:00</time></trkpt><trkpt lat="64.27996826" lon="-21.08701515"><ele>117.4</ele><time>2012-07-18T17:51:30.0000000+00:00</time></trkpt><trkpt lat="64.27996826" lon="-21.08701325"><ele>117.4</ele><time>2012-07-18T17:51:35.0000000+00:00</time></trkpt><trkpt lat="64.27996826" lon="-21.08701325"><ele>117.4</ele><time>2012-07-18T17:51:40.0000000+00:00</time></trkpt><trkpt lat="64.27996826" lon="-21.08701325"><ele>117.4</ele><time>2012-07-18T17:51:45.0000000+00:00</time></trkpt><trkpt lat="64.27996826" lon="-21.08701325"><ele>117.4</ele><time>2012-07-18T17:51:50.0000000+00:00</time></trkpt><trkpt lat="64.27996826" lon="-21.08701325"><ele>117.4</ele><time>2012-07-18T17:51:55.0000000+00:00</time></trkpt><trkpt lat="64.27996826" lon="-21.08701325"><ele>117.4</ele><time>2012-07-18T17:52:00.0000000+00:00</time></trkpt><trkpt lat="64.27996826" lon="-21.08701515"><ele>117.4</ele><time>2012-07-18T17:52:05.0000000+00:00</time></trkpt><trkpt lat="64.27996826" lon="-21.08701515"><ele>117.4</ele><time>2012-07-18T17:52:10.0000000+00:00</time></trkpt><trkpt lat="64.27996826" lon="-21.08701515"><ele>117.4</ele><time>2012-07-18T17:52:15.0000000+00:00</time></trkpt><trkpt lat="64.27996826" lon="-21.08701515"><ele>117.4</ele><time>2012-07-18T17:52:20.0000000+00:00</time></trkpt><trkpt lat="64.27996826" lon="-21.08701515"><ele>117.4</ele><time>2012-07-18T17:52:25.0000000+00:00</time></trkpt><trkpt lat="64.27996826" lon="-21.08701515"><ele>117.4</ele><time>2012-07-18T17:52:30.0000000+00:00</time></trkpt><trkpt lat="64.27996826" lon="-21.08701325"><ele>117.4</ele><time>2012-07-18T17:52:35.0000000+00:00</time></trkpt><trkpt lat="64.27996826" lon="-21.08701325"><ele>117.4</ele><time>2012-07-18T17:52:40.0000000+00:00</time></trkpt><trkpt lat="64.27996826" lon="-21.08701325"><ele>117.4</ele><time>2012-07-18T17:52:45.0000000+00:00</time></trkpt><trkpt lat="64.27996826" lon="-21.08701325"><ele>117.5</ele><time>2012-07-18T17:52:50.0000000+00:00</time></trkpt><trkpt lat="64.27996826" lon="-21.08701325"><ele>117.5</ele><time>2012-07-18T17:52:55.0000000+00:00</time></trkpt><trkpt lat="64.27996826" lon="-21.08701325"><ele>117.4</ele><time>2012-07-18T17:53:00.0000000+00:00</time></trkpt><trkpt lat="64.27996826" lon="-21.08701325"><ele>117.4</ele><time>2012-07-18T17:53:05.0000000+00:00</time></trkpt><trkpt lat="64.27996826" lon="-21.08701325"><ele>117.5</ele><time>2012-07-18T17:53:10.0000000+00:00</time></trkpt><trkpt lat="64.27996826" lon="-21.08701325"><ele>117.4</ele><time>2012-07-18T17:53:15.0000000+00:00</time></trkpt><trkpt lat="64.27996826" lon="-21.08701325"><ele>117.4</ele><time>2012-07-18T17:53:20.0000000+00:00</time></trkpt><trkpt lat="64.27996826" lon="-21.08701325"><ele>117.4</ele><time>2012-07-18T17:53:25.0000000+00:00</time></trkpt><trkpt lat="64.27996826" lon="-21.08701134"><ele>117.4</ele><time>2012-07-18T17:53:30.0000000+00:00</time></trkpt><trkpt lat="64.27996826" lon="-21.08701134"><ele>117.4</ele><time>2012-07-18T17:53:35.0000000+00:00</time></trkpt><trkpt lat="64.27996063" lon="-21.08701134"><ele>117.4</ele><time>2012-07-18T17:53:40.0000000+00:00</time></trkpt><trkpt lat="64.27996063" lon="-21.08700943"><ele>117.5</ele><time>2012-07-18T17:53:45.0000000+00:00</time></trkpt><trkpt lat="64.27996063" lon="-21.08700943"><ele>117.5</ele><time>2012-07-18T17:53:50.0000000+00:00</time></trkpt><trkpt lat="64.27996063" lon="-21.08701134"><ele>117.5</ele><time>2012-07-18T17:53:55.0000000+00:00</time></trkpt><trkpt lat="64.27996063" lon="-21.08701134"><ele>117.5</ele><time>2012-07-18T17:54:00.0000000+00:00</time></trkpt><trkpt lat="64.27996063" lon="-21.08701134"><ele>117.5</ele><time>2012-07-18T17:54:05.0000000+00:00</time></trkpt><trkpt lat="64.27996063" lon="-21.08700943"><ele>117.5</ele><time>2012-07-18T17:54:10.0000000+00:00</time></trkpt><trkpt lat="64.279953" lon="-21.08705902"><ele>117.4</ele><time>2012-07-18T17:54:15.0000000+00:00</time></trkpt><trkpt lat="64.27996063" lon="-21.08712006"><ele>116.6</ele><time>2012-07-18T17:54:20.0000000+00:00</time></trkpt><trkpt lat="64.279953" lon="-21.08711433"><ele>116.9</ele><time>2012-07-18T17:54:25.0000000+00:00</time></trkpt><trkpt lat="64.27994537" lon="-21.08712578"><ele>116.9</ele><time>2012-07-18T17:54:30.0000000+00:00</time></trkpt><trkpt lat="64.27994537" lon="-21.0871315"><ele>117.0</ele><time>2012-07-18T17:54:35.0000000+00:00</time></trkpt><trkpt lat="64.27994537" lon="-21.08712578"><ele>117.0</ele><time>2012-07-18T17:54:40.0000000+00:00</time></trkpt><trkpt lat="64.27996063" lon="-21.08710671"><ele>117.1</ele><time>2012-07-18T17:54:45.0000000+00:00</time></trkpt><trkpt lat="64.27997589" lon="-21.08704376"><ele>117.4</ele><time>2012-07-18T17:54:50.0000000+00:00</time></trkpt><trkpt lat="64.27997589" lon="-21.08702469"><ele>117.0</ele><time>2012-07-18T17:54:55.0000000+00:00</time></trkpt><trkpt lat="64.27998352" lon="-21.08701134"><ele>117.0</ele><time>2012-07-18T17:55:00.0000000+00:00</time></trkpt><trkpt lat="64.27998352" lon="-21.08699799"><ele>117.0</ele><time>2012-07-18T17:55:05.0000000+00:00</time></trkpt><trkpt lat="64.27999115" lon="-21.08699226"><ele>117.1</ele><time>2012-07-18T17:55:10.0000000+00:00</time></trkpt><trkpt lat="64.27999115" lon="-21.08698082"><ele>117.1</ele><time>2012-07-18T17:55:15.0000000+00:00</time></trkpt><trkpt lat="64.27999878" lon="-21.08697128"><ele>117.1</ele><time>2012-07-18T17:55:20.0000000+00:00</time></trkpt><trkpt lat="64.27999878" lon="-21.08696556"><ele>117.1</ele><time>2012-07-18T17:55:25.0000000+00:00</time></trkpt><trkpt lat="64.27999115" lon="-21.08695602"><ele>117.1</ele><time>2012-07-18T17:55:30.0000000+00:00</time></trkpt><trkpt lat="64.27996063" lon="-21.08698845"><ele>117.1</ele><time>2012-07-18T17:55:35.0000000+00:00</time></trkpt><trkpt lat="64.279953" lon="-21.08698845"><ele>117.2</ele><time>2012-07-18T17:55:40.0000000+00:00</time></trkpt><trkpt lat="64.27993774" lon="-21.08697128"><ele>117.1</ele><time>2012-07-18T17:55:45.0000000+00:00</time></trkpt><trkpt lat="64.27993012" lon="-21.08696365"><ele>117.0</ele><time>2012-07-18T17:55:50.0000000+00:00</time></trkpt><trkpt lat="64.27993012" lon="-21.08696747"><ele>117.0</ele><time>2012-07-18T17:55:55.0000000+00:00</time></trkpt><trkpt lat="64.27992249" lon="-21.08697319"><ele>116.9</ele><time>2012-07-18T17:56:00.0000000+00:00</time></trkpt><trkpt lat="64.27992249" lon="-21.0869751"><ele>116.8</ele><time>2012-07-18T17:56:05.0000000+00:00</time></trkpt><trkpt lat="64.27992249" lon="-21.08697701"><ele>116.8</ele><time>2012-07-18T17:56:10.0000000+00:00</time></trkpt><trkpt lat="64.27992249" lon="-21.08697891"><ele>116.8</ele><time>2012-07-18T17:56:15.0000000+00:00</time></trkpt><trkpt lat="64.27992249" lon="-21.08698082"><ele>116.8</ele><time>2012-07-18T17:56:20.0000000+00:00</time></trkpt><trkpt lat="64.27992249" lon="-21.08698082"><ele>116.8</ele><time>2012-07-18T17:56:25.0000000+00:00</time></trkpt><trkpt lat="64.27992249" lon="-21.08698082"><ele>116.8</ele><time>2012-07-18T17:56:30.0000000+00:00</time></trkpt><trkpt lat="64.27992249" lon="-21.08698082"><ele>116.8</ele><time>2012-07-18T17:56:35.0000000+00:00</time></trkpt><trkpt lat="64.27992249" lon="-21.08698082"><ele>116.8</ele><time>2012-07-18T17:56:40.0000000+00:00</time></trkpt><trkpt lat="64.27992249" lon="-21.08698082"><ele>116.8</ele><time>2012-07-18T17:56:45.0000000+00:00</time></trkpt><trkpt lat="64.27992249" lon="-21.08698082"><ele>116.8</ele><time>2012-07-18T17:56:50.0000000+00:00</time></trkpt><trkpt lat="64.27992249" lon="-21.08698082"><ele>116.8</ele><time>2012-07-18T17:56:55.0000000+00:00</time></trkpt><trkpt lat="64.27992249" lon="-21.08698082"><ele>116.8</ele><time>2012-07-18T17:57:00.0000000+00:00</time></trkpt><trkpt lat="64.27992249" lon="-21.08697891"><ele>116.8</ele><time>2012-07-18T17:57:05.0000000+00:00</time></trkpt><trkpt lat="64.27992249" lon="-21.08697701"><ele>116.8</ele><time>2012-07-18T17:57:10.0000000+00:00</time></trkpt><trkpt lat="64.27991486" lon="-21.08697701"><ele>116.8</ele><time>2012-07-18T17:57:15.0000000+00:00</time></trkpt><trkpt lat="64.27991486" lon="-21.0869751"><ele>116.8</ele><time>2012-07-18T17:57:20.0000000+00:00</time></trkpt><trkpt lat="64.27991486" lon="-21.0869751"><ele>116.8</ele><time>2012-07-18T17:57:25.0000000+00:00</time></trkpt><trkpt lat="64.27991486" lon="-21.0869751"><ele>116.8</ele><time>2012-07-18T17:57:30.0000000+00:00</time></trkpt><trkpt lat="64.27991486" lon="-21.0869751"><ele>116.8</ele><time>2012-07-18T17:57:35.0000000+00:00</time></trkpt><trkpt lat="64.27991486" lon="-21.0869751"><ele>116.8</ele><time>2012-07-18T17:57:40.0000000+00:00</time></trkpt><trkpt lat="64.2798996" lon="-21.08705139"><ele>116.8</ele><time>2012-07-18T17:57:45.0000000+00:00</time></trkpt><trkpt lat="64.27989197" lon="-21.08707809"><ele>116.6</ele><time>2012-07-18T17:57:50.0000000+00:00</time></trkpt><trkpt lat="64.27989197" lon="-21.08708382"><ele>116.6</ele><time>2012-07-18T17:57:55.0000000+00:00</time></trkpt><trkpt lat="64.2798996" lon="-21.08708382"><ele>116.5</ele><time>2012-07-18T17:58:00.0000000+00:00</time></trkpt><trkpt lat="64.2798996" lon="-21.08708763"><ele>116.5</ele><time>2012-07-18T17:58:05.0000000+00:00</time></trkpt><trkpt lat="64.2798996" lon="-21.08708191"><ele>116.5</ele><time>2012-07-18T17:58:10.0000000+00:00</time></trkpt><trkpt lat="64.27989197" lon="-21.08708763"><ele>116.4</ele><time>2012-07-18T17:58:15.0000000+00:00</time></trkpt><trkpt lat="64.27988434" lon="-21.08711815"><ele>116.4</ele><time>2012-07-18T17:58:20.0000000+00:00</time></trkpt><trkpt lat="64.27988434" lon="-21.08711815"><ele>116.4</ele><time>2012-07-18T17:58:25.0000000+00:00</time></trkpt><trkpt lat="64.27987671" lon="-21.08712387"><ele>116.4</ele><time>2012-07-18T17:58:30.0000000+00:00</time></trkpt><trkpt lat="64.27986908" lon="-21.08711624"><ele>116.4</ele><time>2012-07-18T17:58:35.0000000+00:00</time></trkpt><trkpt lat="64.27986908" lon="-21.08712578"><ele>116.4</ele><time>2012-07-18T17:58:40.0000000+00:00</time></trkpt><trkpt lat="64.27987671" lon="-21.08711433"><ele>116.4</ele><time>2012-07-18T17:58:45.0000000+00:00</time></trkpt><trkpt lat="64.27988434" lon="-21.08709908"><ele>116.3</ele><time>2012-07-18T17:58:50.0000000+00:00</time></trkpt><trkpt lat="64.27989197" lon="-21.08711815"><ele>116.4</ele><time>2012-07-18T17:58:55.0000000+00:00</time></trkpt><trkpt lat="64.27989197" lon="-21.0871315"><ele>116.2</ele><time>2012-07-18T17:59:00.0000000+00:00</time></trkpt><trkpt lat="64.27989197" lon="-21.08714294"><ele>116.1</ele><time>2012-07-18T17:59:05.0000000+00:00</time></trkpt><trkpt lat="64.27990723" lon="-21.08713532"><ele>116.0</ele><time>2012-07-18T17:59:10.0000000+00:00</time></trkpt><trkpt lat="64.27992249" lon="-21.0871315"><ele>116.3</ele><time>2012-07-18T17:59:15.0000000+00:00</time></trkpt><trkpt lat="64.27993012" lon="-21.08710671"><ele>116.1</ele><time>2012-07-18T17:59:20.0000000+00:00</time></trkpt><trkpt lat="64.27993774" lon="-21.08713913"><ele>115.9</ele><time>2012-07-18T17:59:25.0000000+00:00</time></trkpt><trkpt lat="64.27993774" lon="-21.08713913"><ele>115.9</ele><time>2012-07-18T17:59:30.0000000+00:00</time></trkpt><trkpt lat="64.27993774" lon="-21.08713722"><ele>116.0</ele><time>2012-07-18T17:59:35.0000000+00:00</time></trkpt><trkpt lat="64.27993774" lon="-21.08713913"><ele>116.0</ele><time>2012-07-18T17:59:40.0000000+00:00</time></trkpt><trkpt lat="64.27993774" lon="-21.08713722"><ele>116.1</ele><time>2012-07-18T17:59:45.0000000+00:00</time></trkpt><trkpt lat="64.27993774" lon="-21.0871315"><ele>116.7</ele><time>2012-07-18T17:59:50.0000000+00:00</time></trkpt><trkpt lat="64.27993774" lon="-21.08711815"><ele>116.3</ele><time>2012-07-18T17:59:55.0000000+00:00</time></trkpt><trkpt lat="64.27993012" lon="-21.08711052"><ele>116.4</ele><time>2012-07-18T18:00:00.0000000+00:00</time></trkpt><trkpt lat="64.27993774" lon="-21.08711052"><ele>116.4</ele><time>2012-07-18T18:00:05.0000000+00:00</time></trkpt><trkpt lat="64.27993774" lon="-21.08710289"><ele>116.5</ele><time>2012-07-18T18:00:10.0000000+00:00</time></trkpt><trkpt lat="64.27994537" lon="-21.08710098"><ele>116.5</ele><time>2012-07-18T18:00:15.0000000+00:00</time></trkpt><trkpt lat="64.27994537" lon="-21.08708382"><ele>116.2</ele><time>2012-07-18T18:00:20.0000000+00:00</time></trkpt><trkpt lat="64.27992249" lon="-21.08708954"><ele>117.3</ele><time>2012-07-18T18:00:25.0000000+00:00</time></trkpt><trkpt lat="64.27993012" lon="-21.08709908"><ele>117.1</ele><time>2012-07-18T18:00:30.0000000+00:00</time></trkpt><trkpt lat="64.27993012" lon="-21.08707809"><ele>117.1</ele><time>2012-07-18T18:00:35.0000000+00:00</time></trkpt><trkpt lat="64.27993012" lon="-21.08705902"><ele>117.1</ele><time>2012-07-18T18:00:40.0000000+00:00</time></trkpt><trkpt lat="64.27993012" lon="-21.08710289"><ele>117.1</ele><time>2012-07-18T18:00:45.0000000+00:00</time></trkpt><trkpt lat="64.27993012" lon="-21.08712196"><ele>117.1</ele><time>2012-07-18T18:00:50.0000000+00:00</time></trkpt><trkpt lat="64.27993774" lon="-21.08713532"><ele>117.1</ele><time>2012-07-18T18:00:55.0000000+00:00</time></trkpt><trkpt lat="64.27993012" lon="-21.08714676"><ele>117.1</ele><time>2012-07-18T18:01:00.0000000+00:00</time></trkpt><trkpt lat="64.27993012" lon="-21.0871563"><ele>117.2</ele><time>2012-07-18T18:01:05.0000000+00:00</time></trkpt><trkpt lat="64.27993012" lon="-21.08711243"><ele>117.7</ele><time>2012-07-18T18:01:10.0000000+00:00</time></trkpt><trkpt lat="64.27993012" lon="-21.08711624"><ele>117.7</ele><time>2012-07-18T18:01:15.0000000+00:00</time></trkpt><trkpt lat="64.27992249" lon="-21.08712196"><ele>117.7</ele><time>2012-07-18T18:01:20.0000000+00:00</time></trkpt><trkpt lat="64.27993012" lon="-21.08712387"><ele>117.7</ele><time>2012-07-18T18:01:25.0000000+00:00</time></trkpt><trkpt lat="64.27993012" lon="-21.08712387"><ele>117.7</ele><time>2012-07-18T18:01:30.0000000+00:00</time></trkpt><trkpt lat="64.27993774" lon="-21.0871315"><ele>117.6</ele><time>2012-07-18T18:01:35.0000000+00:00</time></trkpt><trkpt lat="64.27993012" lon="-21.0871582"><ele>117.6</ele><time>2012-07-18T18:01:40.0000000+00:00</time></trkpt><trkpt lat="64.279953" lon="-21.08711052"><ele>117.4</ele><time>2012-07-18T18:01:45.0000000+00:00</time></trkpt><trkpt lat="64.27993774" lon="-21.08711243"><ele>117.2</ele><time>2012-07-18T18:01:50.0000000+00:00</time></trkpt><trkpt lat="64.27993774" lon="-21.08710671"><ele>117.1</ele><time>2012-07-18T18:01:55.0000000+00:00</time></trkpt><trkpt lat="64.27993774" lon="-21.08710289"><ele>117.1</ele><time>2012-07-18T18:02:00.0000000+00:00</time></trkpt><trkpt lat="64.27994537" lon="-21.08710671"><ele>117.1</ele><time>2012-07-18T18:02:05.0000000+00:00</time></trkpt><trkpt lat="64.27993774" lon="-21.08709908"><ele>117.1</ele><time>2012-07-18T18:02:10.0000000+00:00</time></trkpt><trkpt lat="64.27993774" lon="-21.08710289"><ele>117.1</ele><time>2012-07-18T18:02:15.0000000+00:00</time></trkpt><trkpt lat="64.27993774" lon="-21.08710671"><ele>117.2</ele><time>2012-07-18T18:02:20.0000000+00:00</time></trkpt><trkpt lat="64.27993774" lon="-21.08711433"><ele>117.0</ele><time>2012-07-18T18:02:25.0000000+00:00</time></trkpt><trkpt lat="64.27992249" lon="-21.08711433"><ele>116.9</ele><time>2012-07-18T18:02:30.0000000+00:00</time></trkpt><trkpt lat="64.27992249" lon="-21.08711433"><ele>116.6</ele><time>2012-07-18T18:02:35.0000000+00:00</time></trkpt><trkpt lat="64.27993012" lon="-21.08711815"><ele>116.4</ele><time>2012-07-18T18:02:40.0000000+00:00</time></trkpt><trkpt lat="64.27993774" lon="-21.08712578"><ele>116.1</ele><time>2012-07-18T18:02:45.0000000+00:00</time></trkpt><trkpt lat="64.279953" lon="-21.08712578"><ele>115.8</ele><time>2012-07-18T18:02:50.0000000+00:00</time></trkpt><trkpt lat="64.27996063" lon="-21.08712578"><ele>115.6</ele><time>2012-07-18T18:02:55.0000000+00:00</time></trkpt><trkpt lat="64.27996063" lon="-21.08712578"><ele>115.3</ele><time>2012-07-18T18:03:00.0000000+00:00</time></trkpt><trkpt lat="64.27996826" lon="-21.08712578"><ele>115.1</ele><time>2012-07-18T18:03:05.0000000+00:00</time></trkpt><trkpt lat="64.27996063" lon="-21.08712387"><ele>114.8</ele><time>2012-07-18T18:03:10.0000000+00:00</time></trkpt><trkpt lat="64.27996063" lon="-21.08712196"><ele>114.6</ele><time>2012-07-18T18:03:15.0000000+00:00</time></trkpt><trkpt lat="64.27996063" lon="-21.08712196"><ele>114.3</ele><time>2012-07-18T18:03:20.0000000+00:00</time></trkpt><trkpt lat="64.27996063" lon="-21.08712387"><ele>114.1</ele><time>2012-07-18T18:03:25.0000000+00:00</time></trkpt><trkpt lat="64.27996063" lon="-21.08712387"><ele>114.0</ele><time>2012-07-18T18:03:30.0000000+00:00</time></trkpt><trkpt lat="64.27996063" lon="-21.08712387"><ele>114.0</ele><time>2012-07-18T18:03:35.0000000+00:00</time></trkpt><trkpt lat="64.27996063" lon="-21.08712578"><ele>114.0</ele><time>2012-07-18T18:03:40.0000000+00:00</time></trkpt><trkpt lat="64.27996063" lon="-21.08712578"><ele>114.0</ele><time>2012-07-18T18:03:45.0000000+00:00</time></trkpt><trkpt lat="64.27996063" lon="-21.08712387"><ele>114.0</ele><time>2012-07-18T18:03:50.0000000+00:00</time></trkpt><trkpt lat="64.27996063" lon="-21.08712387"><ele>114.0</ele><time>2012-07-18T18:03:55.0000000+00:00</time></trkpt><trkpt lat="64.27996063" lon="-21.08712387"><ele>114.0</ele><time>2012-07-18T18:04:00.0000000+00:00</time></trkpt><trkpt lat="64.27996063" lon="-21.08712196"><ele>114.0</ele><time>2012-07-18T18:04:05.0000000+00:00</time></trkpt><trkpt lat="64.27996063" lon="-21.08712196"><ele>114.0</ele><time>2012-07-18T18:04:10.0000000+00:00</time></trkpt><trkpt lat="64.27996063" lon="-21.08712196"><ele>114.0</ele><time>2012-07-18T18:04:15.0000000+00:00</time></trkpt><trkpt lat="64.27996063" lon="-21.08712196"><ele>114.0</ele><time>2012-07-18T18:04:20.0000000+00:00</time></trkpt><trkpt lat="64.27996063" lon="-21.08712006"><ele>114.0</ele><time>2012-07-18T18:04:25.0000000+00:00</time></trkpt><trkpt lat="64.27996063" lon="-21.08711815"><ele>114.0</ele><time>2012-07-18T18:04:30.0000000+00:00</time></trkpt><trkpt lat="64.27996063" lon="-21.08711815"><ele>114.0</ele><time>2012-07-18T18:04:35.0000000+00:00</time></trkpt><trkpt lat="64.27996063" lon="-21.08711815"><ele>114.0</ele><time>2012-07-18T18:04:40.0000000+00:00</time></trkpt><trkpt lat="64.27996063" lon="-21.08711815"><ele>114.0</ele><time>2012-07-18T18:04:45.0000000+00:00</time></trkpt><trkpt lat="64.27996063" lon="-21.08711433"><ele>114.0</ele><time>2012-07-18T18:04:50.0000000+00:00</time></trkpt><trkpt lat="64.27996063" lon="-21.08711243"><ele>114.0</ele><time>2012-07-18T18:04:55.0000000+00:00</time></trkpt><trkpt lat="64.27996063" lon="-21.08711243"><ele>114.0</ele><time>2012-07-18T18:05:00.0000000+00:00</time></trkpt><trkpt lat="64.27996063" lon="-21.08711052"><ele>114.0</ele><time>2012-07-18T18:05:05.0000000+00:00</time></trkpt><trkpt lat="64.27996063" lon="-21.08711052"><ele>114.0</ele><time>2012-07-18T18:05:10.0000000+00:00</time></trkpt><trkpt lat="64.27996063" lon="-21.08711052"><ele>114.1</ele><time>2012-07-18T18:05:15.0000000+00:00</time></trkpt><trkpt lat="64.27996063" lon="-21.08711052"><ele>114.1</ele><time>2012-07-18T18:05:20.0000000+00:00</time></trkpt><trkpt lat="64.27996063" lon="-21.08711052"><ele>114.1</ele><time>2012-07-18T18:05:25.0000000+00:00</time></trkpt><trkpt lat="64.27996063" lon="-21.08711052"><ele>114.1</ele><time>2012-07-18T18:05:30.0000000+00:00</time></trkpt><trkpt lat="64.27996063" lon="-21.08710861"><ele>114.1</ele><time>2012-07-18T18:05:35.0000000+00:00</time></trkpt><trkpt lat="64.27996063" lon="-21.08710671"><ele>114.0</ele><time>2012-07-18T18:05:40.0000000+00:00</time></trkpt><trkpt lat="64.27996063" lon="-21.08710861"><ele>114.1</ele><time>2012-07-18T18:05:45.0000000+00:00</time></trkpt><trkpt lat="64.27996063" lon="-21.08716393"><ele>114.1</ele><time>2012-07-18T18:05:50.0000000+00:00</time></trkpt><trkpt lat="64.27996826" lon="-21.08719826"><ele>114.2</ele><time>2012-07-18T18:05:55.0000000+00:00</time></trkpt><trkpt lat="64.27996826" lon="-21.08720017"><ele>114.2</ele><time>2012-07-18T18:06:00.0000000+00:00</time></trkpt><trkpt lat="64.27997589" lon="-21.08719635"><ele>114.2</ele><time>2012-07-18T18:06:05.0000000+00:00</time></trkpt><trkpt lat="64.27997589" lon="-21.08717728"><ele>114.2</ele><time>2012-07-18T18:06:10.0000000+00:00</time></trkpt><trkpt lat="64.27998352" lon="-21.08716583"><ele>114.2</ele><time>2012-07-18T18:06:15.0000000+00:00</time></trkpt><trkpt lat="64.27998352" lon="-21.08717728"><ele>114.2</ele><time>2012-07-18T18:06:20.0000000+00:00</time></trkpt><trkpt lat="64.27998352" lon="-21.08717537"><ele>114.2</ele><time>2012-07-18T18:06:25.0000000+00:00</time></trkpt><trkpt lat="64.27997589" lon="-21.08717156"><ele>114.2</ele><time>2012-07-18T18:06:30.0000000+00:00</time></trkpt><trkpt lat="64.27997589" lon="-21.08716011"><ele>114.2</ele><time>2012-07-18T18:06:35.0000000+00:00</time></trkpt><trkpt lat="64.27998352" lon="-21.08714676"><ele>114.2</ele><time>2012-07-18T18:06:40.0000000+00:00</time></trkpt><trkpt lat="64.27998352" lon="-21.08713913"><ele>114.2</ele><time>2012-07-18T18:06:45.0000000+00:00</time></trkpt><trkpt lat="64.27997589" lon="-21.08714485"><ele>114.1</ele><time>2012-07-18T18:06:50.0000000+00:00</time></trkpt><trkpt lat="64.27996826" lon="-21.08716011"><ele>114.1</ele><time>2012-07-18T18:06:55.0000000+00:00</time></trkpt><trkpt lat="64.27997589" lon="-21.08714294"><ele>114.1</ele><time>2012-07-18T18:07:00.0000000+00:00</time></trkpt><trkpt lat="64.27996826" lon="-21.08711052"><ele>114.2</ele><time>2012-07-18T18:07:05.0000000+00:00</time></trkpt><trkpt lat="64.27996826" lon="-21.08711815"><ele>114.2</ele><time>2012-07-18T18:07:10.0000000+00:00</time></trkpt><trkpt lat="64.27996826" lon="-21.08711243"><ele>114.2</ele><time>2012-07-18T18:07:15.0000000+00:00</time></trkpt><trkpt lat="64.27996826" lon="-21.08711815"><ele>114.2</ele><time>2012-07-18T18:07:20.0000000+00:00</time></trkpt><trkpt lat="64.27997589" lon="-21.08712769"><ele>114.2</ele><time>2012-07-18T18:07:25.0000000+00:00</time></trkpt><trkpt lat="64.27998352" lon="-21.08711624"><ele>114.2</ele><time>2012-07-18T18:07:30.0000000+00:00</time></trkpt><trkpt lat="64.27998352" lon="-21.08711815"><ele>114.2</ele><time>2012-07-18T18:07:35.0000000+00:00</time></trkpt><trkpt lat="64.27998352" lon="-21.08713722"><ele>114.2</ele><time>2012-07-18T18:07:40.0000000+00:00</time></trkpt><trkpt lat="64.27998352" lon="-21.08714676"><ele>114.2</ele><time>2012-07-18T18:07:45.0000000+00:00</time></trkpt><trkpt lat="64.27997589" lon="-21.0871315"><ele>114.2</ele><time>2012-07-18T18:07:50.0000000+00:00</time></trkpt><trkpt lat="64.27996826" lon="-21.08710861"><ele>114.2</ele><time>2012-07-18T18:07:55.0000000+00:00</time></trkpt><trkpt lat="64.27997589" lon="-21.08708763"><ele>114.2</ele><time>2012-07-18T18:08:00.0000000+00:00</time></trkpt><trkpt lat="64.27999115" lon="-21.08710289"><ele>114.2</ele><time>2012-07-18T18:08:05.0000000+00:00</time></trkpt><trkpt lat="64.28004456" lon="-21.08708191"><ele>114.2</ele><time>2012-07-18T18:08:10.0000000+00:00</time></trkpt><trkpt lat="64.28005981" lon="-21.08710861"><ele>114.1</ele><time>2012-07-18T18:08:15.0000000+00:00</time></trkpt><trkpt lat="64.28005981" lon="-21.08709335"><ele>114.1</ele><time>2012-07-18T18:08:20.0000000+00:00</time></trkpt><trkpt lat="64.28007507" lon="-21.08706474"><ele>114.2</ele><time>2012-07-18T18:08:25.0000000+00:00</time></trkpt><trkpt lat="64.28006744" lon="-21.08708763"><ele>113.8</ele><time>2012-07-18T18:08:30.0000000+00:00</time></trkpt><trkpt lat="64.28006744" lon="-21.08708382"><ele>113.8</ele><time>2012-07-18T18:08:35.0000000+00:00</time></trkpt><trkpt lat="64.28007507" lon="-21.08708763"><ele>113.8</ele><time>2012-07-18T18:08:40.0000000+00:00</time></trkpt><trkpt lat="64.28007507" lon="-21.08709335"><ele>113.8</ele><time>2012-07-18T18:08:45.0000000+00:00</time></trkpt><trkpt lat="64.28007507" lon="-21.0871048"><ele>113.8</ele><time>2012-07-18T18:08:50.0000000+00:00</time></trkpt><trkpt lat="64.28005981" lon="-21.08714676"><ele>113.8</ele><time>2012-07-18T18:08:55.0000000+00:00</time></trkpt><trkpt lat="64.28004456" lon="-21.08717156"><ele>113.8</ele><time>2012-07-18T18:09:00.0000000+00:00</time></trkpt><trkpt lat="64.28000641" lon="-21.08723831"><ele>113.8</ele><time>2012-07-18T18:09:05.0000000+00:00</time></trkpt><trkpt lat="64.279953" lon="-21.08729935"><ele>113.8</ele><time>2012-07-18T18:09:10.0000000+00:00</time></trkpt><trkpt lat="64.27990723" lon="-21.08735848"><ele>113.9</ele><time>2012-07-18T18:09:15.0000000+00:00</time></trkpt><trkpt lat="64.27990723" lon="-21.0873642"><ele>113.9</ele><time>2012-07-18T18:09:20.0000000+00:00</time></trkpt><trkpt lat="64.2798996" lon="-21.08734131"><ele>113.9</ele><time>2012-07-18T18:09:25.0000000+00:00</time></trkpt><trkpt lat="64.27990723" lon="-21.0873127"><ele>114.0</ele><time>2012-07-18T18:09:30.0000000+00:00</time></trkpt><trkpt lat="64.27990723" lon="-21.08730507"><ele>114.0</ele><time>2012-07-18T18:09:35.0000000+00:00</time></trkpt><trkpt lat="64.27990723" lon="-21.08729744"><ele>114.0</ele><time>2012-07-18T18:09:40.0000000+00:00</time></trkpt><trkpt lat="64.27990723" lon="-21.08728027"><ele>114.0</ele><time>2012-07-18T18:09:45.0000000+00:00</time></trkpt><trkpt lat="64.27993774" lon="-21.08727837"><ele>114.0</ele><time>2012-07-18T18:09:50.0000000+00:00</time></trkpt><trkpt lat="64.27993774" lon="-21.08726692"><ele>114.1</ele><time>2012-07-18T18:09:55.0000000+00:00</time></trkpt><trkpt lat="64.27992249" lon="-21.08727074"><ele>114.1</ele><time>2012-07-18T18:10:00.0000000+00:00</time></trkpt><trkpt lat="64.27991486" lon="-21.08721733"><ele>114.2</ele><time>2012-07-18T18:10:05.0000000+00:00</time></trkpt><trkpt lat="64.27990723" lon="-21.08715057"><ele>114.3</ele><time>2012-07-18T18:10:10.0000000+00:00</time></trkpt><trkpt lat="64.27990723" lon="-21.08711243"><ele>114.2</ele><time>2012-07-18T18:10:15.0000000+00:00</time></trkpt><trkpt lat="64.27990723" lon="-21.08709526"><ele>114.2</ele><time>2012-07-18T18:10:20.0000000+00:00</time></trkpt><trkpt lat="64.27990723" lon="-21.08707809"><ele>114.2</ele><time>2012-07-18T18:10:25.0000000+00:00</time></trkpt><trkpt lat="64.27991486" lon="-21.08712959"><ele>114.2</ele><time>2012-07-18T18:10:30.0000000+00:00</time></trkpt><trkpt lat="64.27990723" lon="-21.08708572"><ele>114.3</ele><time>2012-07-18T18:10:35.0000000+00:00</time></trkpt><trkpt lat="64.27993012" lon="-21.08691406"><ele>114.6</ele><time>2012-07-18T18:10:40.0000000+00:00</time></trkpt><trkpt lat="64.27993774" lon="-21.0868187"><ele>114.7</ele><time>2012-07-18T18:10:45.0000000+00:00</time></trkpt><trkpt lat="64.279953" lon="-21.08685875"><ele>114.8</ele><time>2012-07-18T18:10:50.0000000+00:00</time></trkpt><trkpt lat="64.27993774" lon="-21.08691216"><ele>114.6</ele><time>2012-07-18T18:10:55.0000000+00:00</time></trkpt><trkpt lat="64.27993774" lon="-21.08697891"><ele>114.6</ele><time>2012-07-18T18:11:00.0000000+00:00</time></trkpt><trkpt lat="64.27993012" lon="-21.08710289"><ele>114.4</ele><time>2012-07-18T18:11:05.0000000+00:00</time></trkpt><trkpt lat="64.27989197" lon="-21.08717728"><ele>114.4</ele><time>2012-07-18T18:11:10.0000000+00:00</time></trkpt><trkpt lat="64.27987671" lon="-21.08719063"><ele>114.3</ele><time>2012-07-18T18:11:15.0000000+00:00</time></trkpt><trkpt lat="64.27986908" lon="-21.08720017"><ele>114.3</ele><time>2012-07-18T18:11:20.0000000+00:00</time></trkpt><trkpt lat="64.27986908" lon="-21.08720589"><ele>114.3</ele><time>2012-07-18T18:11:25.0000000+00:00</time></trkpt><trkpt lat="64.27986908" lon="-21.08719063"><ele>114.3</ele><time>2012-07-18T18:11:30.0000000+00:00</time></trkpt><trkpt lat="64.27986908" lon="-21.08717346"><ele>114.3</ele><time>2012-07-18T18:11:35.0000000+00:00</time></trkpt><trkpt lat="64.27987671" lon="-21.08717156"><ele>114.0</ele><time>2012-07-18T18:11:40.0000000+00:00</time></trkpt><trkpt lat="64.27989197" lon="-21.08712769"><ele>113.9</ele><time>2012-07-18T18:11:45.0000000+00:00</time></trkpt><trkpt lat="64.2798996" lon="-21.08713532"><ele>114.1</ele><time>2012-07-18T18:11:50.0000000+00:00</time></trkpt><trkpt lat="64.27991486" lon="-21.08714294"><ele>114.2</ele><time>2012-07-18T18:11:55.0000000+00:00</time></trkpt><trkpt lat="64.27992249" lon="-21.08713722"><ele>114.2</ele><time>2012-07-18T18:12:00.0000000+00:00</time></trkpt><trkpt lat="64.27993774" lon="-21.08714485"><ele>114.3</ele><time>2012-07-18T18:12:05.0000000+00:00</time></trkpt><trkpt lat="64.27994537" lon="-21.0871315"><ele>114.3</ele><time>2012-07-18T18:12:10.0000000+00:00</time></trkpt><trkpt lat="64.27993774" lon="-21.08712387"><ele>114.3</ele><time>2012-07-18T18:12:15.0000000+00:00</time></trkpt><trkpt lat="64.27993774" lon="-21.08711243"><ele>114.3</ele><time>2012-07-18T18:12:20.0000000+00:00</time></trkpt><trkpt lat="64.27994537" lon="-21.08711243"><ele>114.3</ele><time>2012-07-18T18:12:25.0000000+00:00</time></trkpt><trkpt lat="64.27994537" lon="-21.08712196"><ele>114.3</ele><time>2012-07-18T18:12:30.0000000+00:00</time></trkpt><trkpt lat="64.27993774" lon="-21.08713722"><ele>114.1</ele><time>2012-07-18T18:12:35.0000000+00:00</time></trkpt></trkseg><trkseg><trkpt lat="64.27977753" lon="-21.08662987"><ele>89.5</ele><time>2012-07-19T12:01:36.0000000+00:00</time></trkpt><trkpt lat="64.27981567" lon="-21.08676338"><ele>89.5</ele><time>2012-07-19T12:01:41.0000000+00:00</time></trkpt><trkpt lat="64.27983093" lon="-21.08685112"><ele>89.5</ele><time>2012-07-19T12:01:46.0000000+00:00</time></trkpt><trkpt lat="64.27983856" lon="-21.08687401"><ele>89.5</ele><time>2012-07-19T12:01:51.0000000+00:00</time></trkpt><trkpt lat="64.27986908" lon="-21.08717728"><ele>91.4</ele><time>2012-07-19T12:01:56.0000000+00:00</time></trkpt><trkpt lat="64.27987671" lon="-21.08725166"><ele>92.7</ele><time>2012-07-19T12:02:01.0000000+00:00</time></trkpt><trkpt lat="64.27986908" lon="-21.08723831"><ele>92.7</ele><time>2012-07-19T12:02:06.0000000+00:00</time></trkpt><trkpt lat="64.27986145" lon="-21.0872345"><ele>92.7</ele><time>2012-07-19T12:02:11.0000000+00:00</time></trkpt><trkpt lat="64.27986145" lon="-21.08723259"><ele>92.8</ele><time>2012-07-19T12:02:16.0000000+00:00</time></trkpt><trkpt lat="64.27986145" lon="-21.08723068"><ele>92.8</ele><time>2012-07-19T12:02:21.0000000+00:00</time></trkpt><trkpt lat="64.27986908" lon="-21.08722115"><ele>94.9</ele><time>2012-07-19T12:02:26.0000000+00:00</time></trkpt><trkpt lat="64.27986908" lon="-21.08721733"><ele>94.9</ele><time>2012-07-19T12:02:31.0000000+00:00</time></trkpt><trkpt lat="64.27986908" lon="-21.08721924"><ele>94.9</ele><time>2012-07-19T12:02:36.0000000+00:00</time></trkpt><trkpt lat="64.27986908" lon="-21.08722496"><ele>95.0</ele><time>2012-07-19T12:02:41.0000000+00:00</time></trkpt><trkpt lat="64.27986908" lon="-21.08722496"><ele>95.0</ele><time>2012-07-19T12:02:46.0000000+00:00</time></trkpt><trkpt lat="64.27986908" lon="-21.08722687"><ele>95.0</ele><time>2012-07-19T12:02:51.0000000+00:00</time></trkpt><trkpt lat="64.27986908" lon="-21.08722687"><ele>95.0</ele><time>2012-07-19T12:02:56.0000000+00:00</time></trkpt><trkpt lat="64.27986908" lon="-21.08722496"><ele>95.0</ele><time>2012-07-19T12:03:01.0000000+00:00</time></trkpt><trkpt lat="64.27986908" lon="-21.08722496"><ele>95.0</ele><time>2012-07-19T12:03:06.0000000+00:00</time></trkpt><trkpt lat="64.27986908" lon="-21.08722496"><ele>95.0</ele><time>2012-07-19T12:03:11.0000000+00:00</time></trkpt><trkpt lat="64.27986908" lon="-21.08722496"><ele>95.0</ele><time>2012-07-19T12:03:16.0000000+00:00</time></trkpt><trkpt lat="64.27986908" lon="-21.08722305"><ele>94.9</ele><time>2012-07-19T12:03:21.0000000+00:00</time></trkpt><trkpt lat="64.27986908" lon="-21.08722496"><ele>94.9</ele><time>2012-07-19T12:03:26.0000000+00:00</time></trkpt><trkpt lat="64.27986908" lon="-21.08722496"><ele>94.9</ele><time>2012-07-19T12:03:31.0000000+00:00</time></trkpt><trkpt lat="64.27986908" lon="-21.08722687"><ele>94.9</ele><time>2012-07-19T12:03:36.0000000+00:00</time></trkpt><trkpt lat="64.27986908" lon="-21.08722687"><ele>94.9</ele><time>2012-07-19T12:03:41.0000000+00:00</time></trkpt><trkpt lat="64.27986908" lon="-21.08722687"><ele>94.9</ele><time>2012-07-19T12:03:46.0000000+00:00</time></trkpt><trkpt lat="64.27986908" lon="-21.08722878"><ele>94.9</ele><time>2012-07-19T12:03:51.0000000+00:00</time></trkpt><trkpt lat="64.27986908" lon="-21.08722878"><ele>95.0</ele><time>2012-07-19T12:03:56.0000000+00:00</time></trkpt><trkpt lat="64.27986908" lon="-21.08722878"><ele>95.1</ele><time>2012-07-19T12:04:01.0000000+00:00</time></trkpt><trkpt lat="64.27986908" lon="-21.08722878"><ele>95.1</ele><time>2012-07-19T12:04:06.0000000+00:00</time></trkpt><trkpt lat="64.27986908" lon="-21.08723068"><ele>95.2</ele><time>2012-07-19T12:04:11.0000000+00:00</time></trkpt><trkpt lat="64.27986908" lon="-21.08723068"><ele>95.2</ele><time>2012-07-19T12:04:16.0000000+00:00</time></trkpt><trkpt lat="64.27986908" lon="-21.08723068"><ele>95.3</ele><time>2012-07-19T12:04:21.0000000+00:00</time></trkpt><trkpt lat="64.27986908" lon="-21.08723068"><ele>95.3</ele><time>2012-07-19T12:04:26.0000000+00:00</time></trkpt><trkpt lat="64.27986908" lon="-21.08723259"><ele>95.3</ele><time>2012-07-19T12:04:31.0000000+00:00</time></trkpt><trkpt lat="64.27986908" lon="-21.08723259"><ele>95.3</ele><time>2012-07-19T12:04:36.0000000+00:00</time></trkpt><trkpt lat="64.27986908" lon="-21.08723259"><ele>95.4</ele><time>2012-07-19T12:04:41.0000000+00:00</time></trkpt><trkpt lat="64.27986908" lon="-21.08723259"><ele>95.4</ele><time>2012-07-19T12:04:46.0000000+00:00</time></trkpt><trkpt lat="64.27986908" lon="-21.08723259"><ele>95.4</ele><time>2012-07-19T12:04:51.0000000+00:00</time></trkpt><trkpt lat="64.27986908" lon="-21.08723259"><ele>95.4</ele><time>2012-07-19T12:04:56.0000000+00:00</time></trkpt><trkpt lat="64.27986908" lon="-21.08723259"><ele>95.5</ele><time>2012-07-19T12:05:01.0000000+00:00</time></trkpt><trkpt lat="64.27986908" lon="-21.08723259"><ele>95.5</ele><time>2012-07-19T12:05:06.0000000+00:00</time></trkpt><trkpt lat="64.27986908" lon="-21.08723259"><ele>95.5</ele><time>2012-07-19T12:05:11.0000000+00:00</time></trkpt><trkpt lat="64.27986908" lon="-21.08723259"><ele>95.6</ele><time>2012-07-19T12:05:16.0000000+00:00</time></trkpt><trkpt lat="64.27986908" lon="-21.0872345"><ele>95.6</ele><time>2012-07-19T12:05:21.0000000+00:00</time></trkpt><trkpt lat="64.27986908" lon="-21.0872345"><ele>95.6</ele><time>2012-07-19T12:05:26.0000000+00:00</time></trkpt><trkpt lat="64.27986908" lon="-21.0872345"><ele>95.6</ele><time>2012-07-19T12:05:31.0000000+00:00</time></trkpt><trkpt lat="64.27986908" lon="-21.0872345"><ele>95.7</ele><time>2012-07-19T12:05:36.0000000+00:00</time></trkpt><trkpt lat="64.27986908" lon="-21.0872364"><ele>95.7</ele><time>2012-07-19T12:05:41.0000000+00:00</time></trkpt><trkpt lat="64.27987671" lon="-21.0872364"><ele>95.7</ele><time>2012-07-19T12:05:46.0000000+00:00</time></trkpt><trkpt lat="64.27987671" lon="-21.0872364"><ele>95.8</ele><time>2012-07-19T12:05:51.0000000+00:00</time></trkpt><trkpt lat="64.27987671" lon="-21.0872364"><ele>95.8</ele><time>2012-07-19T12:05:56.0000000+00:00</time></trkpt><trkpt lat="64.27987671" lon="-21.0872364"><ele>95.8</ele><time>2012-07-19T12:06:01.0000000+00:00</time></trkpt><trkpt lat="64.27987671" lon="-21.0872364"><ele>95.8</ele><time>2012-07-19T12:06:06.0000000+00:00</time></trkpt><trkpt lat="64.27987671" lon="-21.08723831"><ele>95.9</ele><time>2012-07-19T12:06:11.0000000+00:00</time></trkpt><trkpt lat="64.27987671" lon="-21.08723831"><ele>95.9</ele><time>2012-07-19T12:06:16.0000000+00:00</time></trkpt><trkpt lat="64.27987671" lon="-21.08723831"><ele>95.9</ele><time>2012-07-19T12:06:21.0000000+00:00</time></trkpt><trkpt lat="64.27987671" lon="-21.08723831"><ele>95.9</ele><time>2012-07-19T12:06:26.0000000+00:00</time></trkpt><trkpt lat="64.27987671" lon="-21.08724022"><ele>95.9</ele><time>2012-07-19T12:06:31.0000000+00:00</time></trkpt><trkpt lat="64.27987671" lon="-21.08724022"><ele>96.0</ele><time>2012-07-19T12:06:36.0000000+00:00</time></trkpt><trkpt lat="64.27987671" lon="-21.08724022"><ele>96.0</ele><time>2012-07-19T12:06:41.0000000+00:00</time></trkpt><trkpt lat="64.27989197" lon="-21.08725929"><ele>97.1</ele><time>2012-07-19T12:06:46.0000000+00:00</time></trkpt><trkpt lat="64.27988434" lon="-21.08726502"><ele>97.1</ele><time>2012-07-19T12:06:51.0000000+00:00</time></trkpt><trkpt lat="64.27988434" lon="-21.08726502"><ele>97.2</ele><time>2012-07-19T12:06:56.0000000+00:00</time></trkpt><trkpt lat="64.27988434" lon="-21.08726502"><ele>97.3</ele><time>2012-07-19T12:07:01.0000000+00:00</time></trkpt><trkpt lat="64.27988434" lon="-21.08726502"><ele>97.3</ele><time>2012-07-19T12:07:06.0000000+00:00</time></trkpt><trkpt lat="64.27988434" lon="-21.08726502"><ele>97.4</ele><time>2012-07-19T12:07:11.0000000+00:00</time></trkpt><trkpt lat="64.27988434" lon="-21.08726502"><ele>97.4</ele><time>2012-07-19T12:07:16.0000000+00:00</time></trkpt><trkpt lat="64.27988434" lon="-21.08726502"><ele>97.5</ele><time>2012-07-19T12:07:21.0000000+00:00</time></trkpt><trkpt lat="64.27988434" lon="-21.08726692"><ele>97.5</ele><time>2012-07-19T12:07:26.0000000+00:00</time></trkpt><trkpt lat="64.27988434" lon="-21.08726692"><ele>97.5</ele><time>2012-07-19T12:07:31.0000000+00:00</time></trkpt><trkpt lat="64.27988434" lon="-21.08726692"><ele>97.6</ele><time>2012-07-19T12:07:36.0000000+00:00</time></trkpt><trkpt lat="64.27988434" lon="-21.08726692"><ele>97.6</ele><time>2012-07-19T12:07:41.0000000+00:00</time></trkpt><trkpt lat="64.27988434" lon="-21.08726692"><ele>97.6</ele><time>2012-07-19T12:07:46.0000000+00:00</time></trkpt><trkpt lat="64.27988434" lon="-21.08726692"><ele>97.6</ele><time>2012-07-19T12:07:51.0000000+00:00</time></trkpt><trkpt lat="64.27988434" lon="-21.08726883"><ele>97.7</ele><time>2012-07-19T12:07:56.0000000+00:00</time></trkpt><trkpt lat="64.27988434" lon="-21.08726883"><ele>97.7</ele><time>2012-07-19T12:08:01.0000000+00:00</time></trkpt><trkpt lat="64.27988434" lon="-21.08726883"><ele>97.7</ele><time>2012-07-19T12:08:06.0000000+00:00</time></trkpt><trkpt lat="64.27989197" lon="-21.08727455"><ele>97.6</ele><time>2012-07-19T12:08:11.0000000+00:00</time></trkpt><trkpt lat="64.27989197" lon="-21.08727455"><ele>97.6</ele><time>2012-07-19T12:08:16.0000000+00:00</time></trkpt><trkpt lat="64.27989197" lon="-21.08727455"><ele>97.6</ele><time>2012-07-19T12:08:21.0000000+00:00</time></trkpt><trkpt lat="64.27989197" lon="-21.08727455"><ele>97.6</ele><time>2012-07-19T12:08:26.0000000+00:00</time></trkpt><trkpt lat="64.27987671" lon="-21.08729935"><ele>98.8</ele><time>2012-07-19T12:08:31.0000000+00:00</time></trkpt><trkpt lat="64.27986908" lon="-21.08736038"><ele>100.9</ele><time>2012-07-19T12:08:36.0000000+00:00</time></trkpt><trkpt lat="64.27983093" lon="-21.08742333"><ele>103.6</ele><time>2012-07-19T12:08:41.0000000+00:00</time></trkpt><trkpt lat="64.27977753" lon="-21.08742333"><ele>106.4</ele><time>2012-07-19T12:08:46.0000000+00:00</time></trkpt><trkpt lat="64.27972412" lon="-21.08744049"><ele>108.2</ele><time>2012-07-19T12:08:51.0000000+00:00</time></trkpt><trkpt lat="64.27966309" lon="-21.08743668"><ele>109.7</ele><time>2012-07-19T12:08:56.0000000+00:00</time></trkpt><trkpt lat="64.27962494" lon="-21.08742142"><ele>110.7</ele><time>2012-07-19T12:09:01.0000000+00:00</time></trkpt><trkpt lat="64.27960205" lon="-21.08739471"><ele>111.2</ele><time>2012-07-19T12:09:06.0000000+00:00</time></trkpt><trkpt lat="64.27960205" lon="-21.0873909"><ele>111.8</ele><time>2012-07-19T12:09:11.0000000+00:00</time></trkpt><trkpt lat="64.27960205" lon="-21.0873909"><ele>111.9</ele><time>2012-07-19T12:09:16.0000000+00:00</time></trkpt><trkpt lat="64.27960205" lon="-21.08739281"><ele>111.9</ele><time>2012-07-19T12:09:21.0000000+00:00</time></trkpt><trkpt lat="64.27960205" lon="-21.08739281"><ele>111.9</ele><time>2012-07-19T12:09:26.0000000+00:00</time></trkpt><trkpt lat="64.27960205" lon="-21.08739281"><ele>111.9</ele><time>2012-07-19T12:09:31.0000000+00:00</time></trkpt><trkpt lat="64.27960205" lon="-21.08739471"><ele>111.9</ele><time>2012-07-19T12:09:36.0000000+00:00</time></trkpt><trkpt lat="64.27960205" lon="-21.08739471"><ele>111.9</ele><time>2012-07-19T12:09:41.0000000+00:00</time></trkpt><trkpt lat="64.27960205" lon="-21.08739471"><ele>111.9</ele><time>2012-07-19T12:09:46.0000000+00:00</time></trkpt><trkpt lat="64.27960205" lon="-21.08739471"><ele>111.9</ele><time>2012-07-19T12:09:51.0000000+00:00</time></trkpt><trkpt lat="64.27960205" lon="-21.08739471"><ele>112.0</ele><time>2012-07-19T12:09:56.0000000+00:00</time></trkpt><trkpt lat="64.27960205" lon="-21.08739471"><ele>112.0</ele><time>2012-07-19T12:10:01.0000000+00:00</time></trkpt><trkpt lat="64.27960205" lon="-21.08739471"><ele>112.0</ele><time>2012-07-19T12:10:06.0000000+00:00</time></trkpt><trkpt lat="64.27960205" lon="-21.08739471"><ele>112.0</ele><time>2012-07-19T12:10:11.0000000+00:00</time></trkpt><trkpt lat="64.27960205" lon="-21.08739471"><ele>112.0</ele><time>2012-07-19T12:10:16.0000000+00:00</time></trkpt><trkpt lat="64.27960205" lon="-21.08739471"><ele>112.0</ele><time>2012-07-19T12:10:21.0000000+00:00</time></trkpt><trkpt lat="64.27960205" lon="-21.08739662"><ele>112.0</ele><time>2012-07-19T12:10:26.0000000+00:00</time></trkpt><trkpt lat="64.27960205" lon="-21.08739662"><ele>112.0</ele><time>2012-07-19T12:10:31.0000000+00:00</time></trkpt><trkpt lat="64.27960205" lon="-21.08739662"><ele>112.0</ele><time>2012-07-19T12:10:36.0000000+00:00</time></trkpt><trkpt lat="64.27958679" lon="-21.08732987"><ele>112.4</ele><time>2012-07-19T12:10:41.0000000+00:00</time></trkpt><trkpt lat="64.27957916" lon="-21.08718491"><ele>112.5</ele><time>2012-07-19T12:10:46.0000000+00:00</time></trkpt><trkpt lat="64.27957153" lon="-21.08729553"><ele>112.3</ele><time>2012-07-19T12:10:51.0000000+00:00</time></trkpt><trkpt lat="64.27960968" lon="-21.087286"><ele>112.6</ele><time>2012-07-19T12:10:56.0000000+00:00</time></trkpt><trkpt lat="64.27955627" lon="-21.08719444"><ele>113.9</ele><time>2012-07-19T12:11:01.0000000+00:00</time></trkpt><trkpt lat="64.27951813" lon="-21.08712196"><ele>115.4</ele><time>2012-07-19T12:11:06.0000000+00:00</time></trkpt><trkpt lat="64.27951813" lon="-21.08712006"><ele>115.7</ele><time>2012-07-19T12:11:11.0000000+00:00</time></trkpt><trkpt lat="64.27951813" lon="-21.08712196"><ele>115.7</ele><time>2012-07-19T12:11:16.0000000+00:00</time></trkpt><trkpt lat="64.27951813" lon="-21.08712196"><ele>115.7</ele><time>2012-07-19T12:11:21.0000000+00:00</time></trkpt><trkpt lat="64.27951813" lon="-21.08712196"><ele>115.7</ele><time>2012-07-19T12:11:26.0000000+00:00</time></trkpt><trkpt lat="64.27951813" lon="-21.08712196"><ele>115.7</ele><time>2012-07-19T12:11:31.0000000+00:00</time></trkpt><trkpt lat="64.27951813" lon="-21.08712196"><ele>115.7</ele><time>2012-07-19T12:11:36.0000000+00:00</time></trkpt><trkpt lat="64.27951813" lon="-21.08712196"><ele>115.7</ele><time>2012-07-19T12:11:41.0000000+00:00</time></trkpt><trkpt lat="64.27951813" lon="-21.08712196"><ele>115.7</ele><time>2012-07-19T12:11:46.0000000+00:00</time></trkpt><trkpt lat="64.27951813" lon="-21.08712196"><ele>115.7</ele><time>2012-07-19T12:11:51.0000000+00:00</time></trkpt><trkpt lat="64.27951813" lon="-21.08712196"><ele>115.7</ele><time>2012-07-19T12:11:56.0000000+00:00</time></trkpt><trkpt lat="64.27951813" lon="-21.08712196"><ele>115.7</ele><time>2012-07-19T12:12:01.0000000+00:00</time></trkpt><trkpt lat="64.27951813" lon="-21.08712196"><ele>115.7</ele><time>2012-07-19T12:12:06.0000000+00:00</time></trkpt><trkpt lat="64.27951813" lon="-21.08712196"><ele>115.7</ele><time>2012-07-19T12:12:11.0000000+00:00</time></trkpt><trkpt lat="64.27951813" lon="-21.08712196"><ele>115.7</ele><time>2012-07-19T12:12:16.0000000+00:00</time></trkpt><trkpt lat="64.27951813" lon="-21.08712196"><ele>115.7</ele><time>2012-07-19T12:12:21.0000000+00:00</time></trkpt><trkpt lat="64.27951813" lon="-21.08712196"><ele>115.7</ele><time>2012-07-19T12:12:26.0000000+00:00</time></trkpt><trkpt lat="64.27951813" lon="-21.08712387"><ele>115.8</ele><time>2012-07-19T12:12:31.0000000+00:00</time></trkpt><trkpt lat="64.27951813" lon="-21.08712959"><ele>116.1</ele><time>2012-07-19T12:12:36.0000000+00:00</time></trkpt><trkpt lat="64.27951813" lon="-21.08712578"><ele>116.2</ele><time>2012-07-19T12:12:41.0000000+00:00</time></trkpt><trkpt lat="64.27951813" lon="-21.08712578"><ele>116.2</ele><time>2012-07-19T12:12:46.0000000+00:00</time></trkpt><trkpt lat="64.2795105" lon="-21.08713341"><ele>116.1</ele><time>2012-07-19T12:12:51.0000000+00:00</time></trkpt><trkpt lat="64.2795105" lon="-21.08714294"><ele>116.1</ele><time>2012-07-19T12:12:56.0000000+00:00</time></trkpt><trkpt lat="64.2795105" lon="-21.08714867"><ele>116.1</ele><time>2012-07-19T12:13:01.0000000+00:00</time></trkpt><trkpt lat="64.2795105" lon="-21.08715057"><ele>115.9</ele><time>2012-07-19T12:13:06.0000000+00:00</time></trkpt><trkpt lat="64.2795105" lon="-21.08716011"><ele>115.9</ele><time>2012-07-19T12:13:11.0000000+00:00</time></trkpt><trkpt lat="64.2795105" lon="-21.08716393"><ele>115.7</ele><time>2012-07-19T12:13:16.0000000+00:00</time></trkpt><trkpt lat="64.2795105" lon="-21.08716202"><ele>115.7</ele><time>2012-07-19T12:13:21.0000000+00:00</time></trkpt><trkpt lat="64.2795105" lon="-21.08716202"><ele>115.7</ele><time>2012-07-19T12:13:26.0000000+00:00</time></trkpt><trkpt lat="64.2795105" lon="-21.08716202"><ele>115.7</ele><time>2012-07-19T12:13:31.0000000+00:00</time></trkpt><trkpt lat="64.27949524" lon="-21.08713532"><ele>115.8</ele><time>2012-07-19T12:13:36.0000000+00:00</time></trkpt><trkpt lat="64.2794342" lon="-21.0870266"><ele>117.1</ele><time>2012-07-19T12:13:41.0000000+00:00</time></trkpt><trkpt lat="64.27939606" lon="-21.08693504"><ele>117.5</ele><time>2012-07-19T12:13:46.0000000+00:00</time></trkpt><trkpt lat="64.2793808" lon="-21.08682823"><ele>117.4</ele><time>2012-07-19T12:13:51.0000000+00:00</time></trkpt><trkpt lat="64.27936554" lon="-21.08670616"><ele>117.5</ele><time>2012-07-19T12:13:56.0000000+00:00</time></trkpt><trkpt lat="64.27932739" lon="-21.086586"><ele>118.2</ele><time>2012-07-19T12:14:01.0000000+00:00</time></trkpt><trkpt lat="64.27928925" lon="-21.08635712"><ele>118.1</ele><time>2012-07-19T12:14:06.0000000+00:00</time></trkpt><trkpt lat="64.27928162" lon="-21.08605194"><ele>117.7</ele><time>2012-07-19T12:14:11.0000000+00:00</time></trkpt><trkpt lat="64.27927399" lon="-21.08568192"><ele>116.8</ele><time>2012-07-19T12:14:16.0000000+00:00</time></trkpt><trkpt lat="64.27925873" lon="-21.08528709"><ele>115.9</ele><time>2012-07-19T12:14:21.0000000+00:00</time></trkpt><trkpt lat="64.27923584" lon="-21.084898"><ele>115.5</ele><time>2012-07-19T12:14:26.0000000+00:00</time></trkpt><trkpt lat="64.27920532" lon="-21.08449745"><ele>115.0</ele><time>2012-07-19T12:14:31.0000000+00:00</time></trkpt><trkpt lat="64.27916718" lon="-21.08409691"><ele>114.2</ele><time>2012-07-19T12:14:36.0000000+00:00</time></trkpt><trkpt lat="64.27912903" lon="-21.08376312"><ele>115.1</ele><time>2012-07-19T12:14:41.0000000+00:00</time></trkpt><trkpt lat="64.27909088" lon="-21.08349037"><ele>115.5</ele><time>2012-07-19T12:14:46.0000000+00:00</time></trkpt><trkpt lat="64.27903748" lon="-21.08315277"><ele>115.6</ele><time>2012-07-19T12:14:51.0000000+00:00</time></trkpt><trkpt lat="64.27897644" lon="-21.0827713"><ele>116.6</ele><time>2012-07-19T12:14:56.0000000+00:00</time></trkpt><trkpt lat="64.27890015" lon="-21.08240318"><ele>117.2</ele><time>2012-07-19T12:15:01.0000000+00:00</time></trkpt><trkpt lat="64.27883148" lon="-21.08206558"><ele>118.3</ele><time>2012-07-19T12:15:06.0000000+00:00</time></trkpt><trkpt lat="64.27874756" lon="-21.08172989"><ele>119.2</ele><time>2012-07-19T12:15:11.0000000+00:00</time></trkpt><trkpt lat="64.27867889" lon="-21.08141899"><ele>119.4</ele><time>2012-07-19T12:15:16.0000000+00:00</time></trkpt><trkpt lat="64.27862549" lon="-21.08115578"><ele>119.6</ele><time>2012-07-19T12:15:21.0000000+00:00</time></trkpt><trkpt lat="64.27856445" lon="-21.08096886"><ele>120.2</ele><time>2012-07-19T12:15:26.0000000+00:00</time></trkpt><trkpt lat="64.27850342" lon="-21.08070564"><ele>120.2</ele><time>2012-07-19T12:15:31.0000000+00:00</time></trkpt><trkpt lat="64.27845764" lon="-21.08047295"><ele>120.9</ele><time>2012-07-19T12:15:36.0000000+00:00</time></trkpt><trkpt lat="64.27839661" lon="-21.08027077"><ele>121.7</ele><time>2012-07-19T12:15:41.0000000+00:00</time></trkpt><trkpt lat="64.2783432" lon="-21.08001518"><ele>122.1</ele><time>2012-07-19T12:15:46.0000000+00:00</time></trkpt><trkpt lat="64.27827454" lon="-21.0797081"><ele>123.3</ele><time>2012-07-19T12:15:51.0000000+00:00</time></trkpt><trkpt lat="64.27819061" lon="-21.07938385"><ele>123.6</ele><time>2012-07-19T12:15:56.0000000+00:00</time></trkpt><trkpt lat="64.27810669" lon="-21.07901573"><ele>123.8</ele><time>2012-07-19T12:16:01.0000000+00:00</time></trkpt><trkpt lat="64.27801514" lon="-21.07863426"><ele>123.5</ele><time>2012-07-19T12:16:06.0000000+00:00</time></trkpt><trkpt lat="64.27792358" lon="-21.078228"><ele>123.6</ele><time>2012-07-19T12:16:11.0000000+00:00</time></trkpt><trkpt lat="64.2778244" lon="-21.07784843"><ele>123.8</ele><time>2012-07-19T12:16:16.0000000+00:00</time></trkpt><trkpt lat="64.27774048" lon="-21.07747841"><ele>123.7</ele><time>2012-07-19T12:16:21.0000000+00:00</time></trkpt><trkpt lat="64.27767181" lon="-21.07717323"><ele>123.7</ele><time>2012-07-19T12:16:26.0000000+00:00</time></trkpt><trkpt lat="64.27760315" lon="-21.07688522"><ele>123.7</ele><time>2012-07-19T12:16:31.0000000+00:00</time></trkpt><trkpt lat="64.27753449" lon="-21.0766182"><ele>123.5</ele><time>2012-07-19T12:16:36.0000000+00:00</time></trkpt><trkpt lat="64.27746582" lon="-21.07637215"><ele>123.1</ele><time>2012-07-19T12:16:41.0000000+00:00</time></trkpt><trkpt lat="64.27738953" lon="-21.07610893"><ele>123.3</ele><time>2012-07-19T12:16:46.0000000+00:00</time></trkpt><trkpt lat="64.27731323" lon="-21.07585907"><ele>123.5</ele><time>2012-07-19T12:16:51.0000000+00:00</time></trkpt><trkpt lat="64.2772522" lon="-21.07567978"><ele>123.7</ele><time>2012-07-19T12:16:56.0000000+00:00</time></trkpt><trkpt lat="64.2771225" lon="-21.07546425"><ele>124.7</ele><time>2012-07-19T12:17:01.0000000+00:00</time></trkpt><trkpt lat="64.2769928" lon="-21.07522965"><ele>124.3</ele><time>2012-07-19T12:17:06.0000000+00:00</time></trkpt><trkpt lat="64.27684021" lon="-21.07501411"><ele>123.0</ele><time>2012-07-19T12:17:11.0000000+00:00</time></trkpt><trkpt lat="64.27669525" lon="-21.07481575"><ele>122.4</ele><time>2012-07-19T12:17:16.0000000+00:00</time></trkpt><trkpt lat="64.27652741" lon="-21.07466316"><ele>122.1</ele><time>2012-07-19T12:17:21.0000000+00:00</time></trkpt><trkpt lat="64.2763443" lon="-21.07452202"><ele>122.7</ele><time>2012-07-19T12:17:26.0000000+00:00</time></trkpt><trkpt lat="64.27614594" lon="-21.0744133"><ele>125.0</ele><time>2012-07-19T12:17:31.0000000+00:00</time></trkpt><trkpt lat="64.27594757" lon="-21.07436752"><ele>127.4</ele><time>2012-07-19T12:17:36.0000000+00:00</time></trkpt><trkpt lat="64.27574921" lon="-21.07435799"><ele>129.1</ele><time>2012-07-19T12:17:41.0000000+00:00</time></trkpt><trkpt lat="64.27553558" lon="-21.07436943"><ele>130.7</ele><time>2012-07-19T12:17:46.0000000+00:00</time></trkpt><trkpt lat="64.27532959" lon="-21.07435989"><ele>131.3</ele><time>2012-07-19T12:17:51.0000000+00:00</time></trkpt><trkpt lat="64.27515411" lon="-21.07431412"><ele>129.6</ele><time>2012-07-19T12:17:56.0000000+00:00</time></trkpt><trkpt lat="64.27497864" lon="-21.07424355"><ele>129.2</ele><time>2012-07-19T12:18:01.0000000+00:00</time></trkpt><trkpt lat="64.2747879" lon="-21.07413483"><ele>129.4</ele><time>2012-07-19T12:18:06.0000000+00:00</time></trkpt><trkpt lat="64.27457428" lon="-21.07398605"><ele>127.0</ele><time>2012-07-19T12:18:11.0000000+00:00</time></trkpt><trkpt lat="64.27435303" lon="-21.07379723"><ele>124.1</ele><time>2012-07-19T12:18:16.0000000+00:00</time></trkpt><trkpt lat="64.27412415" lon="-21.07356834"><ele>122.8</ele><time>2012-07-19T12:18:21.0000000+00:00</time></trkpt><trkpt lat="64.27392578" lon="-21.07333374"><ele>122.1</ele><time>2012-07-19T12:18:26.0000000+00:00</time></trkpt><trkpt lat="64.27376556" lon="-21.07313156"><ele>121.0</ele><time>2012-07-19T12:18:31.0000000+00:00</time></trkpt><trkpt lat="64.27361298" lon="-21.07288551"><ele>121.4</ele><time>2012-07-19T12:18:36.0000000+00:00</time></trkpt><trkpt lat="64.27346039" lon="-21.0725975"><ele>122.1</ele><time>2012-07-19T12:18:41.0000000+00:00</time></trkpt><trkpt lat="64.27331543" lon="-21.07232094"><ele>123.4</ele><time>2012-07-19T12:18:46.0000000+00:00</time></trkpt><trkpt lat="64.2731781" lon="-21.07203293"><ele>124.5</ele><time>2012-07-19T12:18:51.0000000+00:00</time></trkpt><trkpt lat="64.27306366" lon="-21.07175636"><ele>124.5</ele><time>2012-07-19T12:18:56.0000000+00:00</time></trkpt><trkpt lat="64.27294159" lon="-21.07147789"><ele>125.3</ele><time>2012-07-19T12:19:01.0000000+00:00</time></trkpt><trkpt lat="64.27280426" lon="-21.07115173"><ele>126.5</ele><time>2012-07-19T12:19:06.0000000+00:00</time></trkpt><trkpt lat="64.2726593" lon="-21.07083321"><ele>126.9</ele><time>2012-07-19T12:19:11.0000000+00:00</time></trkpt><trkpt lat="64.2725296" lon="-21.07053375"><ele>127.8</ele><time>2012-07-19T12:19:16.0000000+00:00</time></trkpt><trkpt lat="64.27240753" lon="-21.07024574"><ele>128.6</ele><time>2012-07-19T12:19:21.0000000+00:00</time></trkpt><trkpt lat="64.27230072" lon="-21.07000732"><ele>128.5</ele><time>2012-07-19T12:19:26.0000000+00:00</time></trkpt><trkpt lat="64.27218628" lon="-21.06968498"><ele>129.5</ele><time>2012-07-19T12:19:31.0000000+00:00</time></trkpt><trkpt lat="64.27206421" lon="-21.0693512"><ele>130.4</ele><time>2012-07-19T12:19:36.0000000+00:00</time></trkpt><trkpt lat="64.27193451" lon="-21.06903458"><ele>131.9</ele><time>2012-07-19T12:19:41.0000000+00:00</time></trkpt><trkpt lat="64.27181244" lon="-21.0687027"><ele>132.7</ele><time>2012-07-19T12:19:46.0000000+00:00</time></trkpt><trkpt lat="64.27168274" lon="-21.06835556"><ele>133.1</ele><time>2012-07-19T12:19:51.0000000+00:00</time></trkpt><trkpt lat="64.27155304" lon="-21.06800079"><ele>133.4</ele><time>2012-07-19T12:19:56.0000000+00:00</time></trkpt><trkpt lat="64.27143097" lon="-21.06764031"><ele>133.4</ele><time>2012-07-19T12:20:01.0000000+00:00</time></trkpt><trkpt lat="64.27130127" lon="-21.06727791"><ele>133.2</ele><time>2012-07-19T12:20:06.0000000+00:00</time></trkpt><trkpt lat="64.27116394" lon="-21.06693077"><ele>133.5</ele><time>2012-07-19T12:20:11.0000000+00:00</time></trkpt><trkpt lat="64.27101135" lon="-21.06661415"><ele>133.4</ele><time>2012-07-19T12:20:16.0000000+00:00</time></trkpt><trkpt lat="64.27084351" lon="-21.06634712"><ele>132.6</ele><time>2012-07-19T12:20:21.0000000+00:00</time></trkpt><trkpt lat="64.2706604" lon="-21.06609535"><ele>133.5</ele><time>2012-07-19T12:20:26.0000000+00:00</time></trkpt><trkpt lat="64.27046967" lon="-21.06586838"><ele>133.5</ele><time>2012-07-19T12:20:31.0000000+00:00</time></trkpt><trkpt lat="64.27025604" lon="-21.06566048"><ele>132.9</ele><time>2012-07-19T12:20:36.0000000+00:00</time></trkpt><trkpt lat="64.27005005" lon="-21.06546974"><ele>133.0</ele><time>2012-07-19T12:20:41.0000000+00:00</time></trkpt><trkpt lat="64.26985169" lon="-21.06530762"><ele>133.8</ele><time>2012-07-19T12:20:46.0000000+00:00</time></trkpt><trkpt lat="64.26965332" lon="-21.06514549"><ele>134.2</ele><time>2012-07-19T12:20:51.0000000+00:00</time></trkpt><trkpt lat="64.26945496" lon="-21.06494713"><ele>134.6</ele><time>2012-07-19T12:20:56.0000000+00:00</time></trkpt><trkpt lat="64.26926422" lon="-21.06473732"><ele>134.8</ele><time>2012-07-19T12:21:01.0000000+00:00</time></trkpt><trkpt lat="64.26905823" lon="-21.0645256"><ele>134.2</ele><time>2012-07-19T12:21:06.0000000+00:00</time></trkpt><trkpt lat="64.2688446" lon="-21.06431961"><ele>134.4</ele><time>2012-07-19T12:21:11.0000000+00:00</time></trkpt><trkpt lat="64.26865387" lon="-21.06410599"><ele>134.7</ele><time>2012-07-19T12:21:16.0000000+00:00</time></trkpt><trkpt lat="64.26846314" lon="-21.06388283"><ele>134.6</ele><time>2012-07-19T12:21:21.0000000+00:00</time></trkpt><trkpt lat="64.26828003" lon="-21.06366539"><ele>133.9</ele><time>2012-07-19T12:21:26.0000000+00:00</time></trkpt><trkpt lat="64.26811218" lon="-21.06347656"><ele>133.3</ele><time>2012-07-19T12:21:31.0000000+00:00</time></trkpt><trkpt lat="64.26793671" lon="-21.06319618"><ele>133.0</ele><time>2012-07-19T12:21:36.0000000+00:00</time></trkpt><trkpt lat="64.26773834" lon="-21.06292343"><ele>131.9</ele><time>2012-07-19T12:21:41.0000000+00:00</time></trkpt><trkpt lat="64.26755524" lon="-21.06262398"><ele>132.4</ele><time>2012-07-19T12:21:46.0000000+00:00</time></trkpt><trkpt lat="64.26737213" lon="-21.06233025"><ele>131.6</ele><time>2012-07-19T12:21:51.0000000+00:00</time></trkpt><trkpt lat="64.26721191" lon="-21.06204605"><ele>131.6</ele><time>2012-07-19T12:21:56.0000000+00:00</time></trkpt><trkpt lat="64.2670517" lon="-21.06178665"><ele>131.1</ele><time>2012-07-19T12:22:01.0000000+00:00</time></trkpt><trkpt lat="64.26690674" lon="-21.06150627"><ele>130.2</ele><time>2012-07-19T12:22:06.0000000+00:00</time></trkpt><trkpt lat="64.26674652" lon="-21.06113815"><ele>129.8</ele><time>2012-07-19T12:22:11.0000000+00:00</time></trkpt><trkpt lat="64.26656342" lon="-21.06072617"><ele>129.9</ele><time>2012-07-19T12:22:16.0000000+00:00</time></trkpt><trkpt lat="64.26638031" lon="-21.06027985"><ele>129.1</ele><time>2012-07-19T12:22:21.0000000+00:00</time></trkpt><trkpt lat="64.26618958" lon="-21.05982208"><ele>129.2</ele><time>2012-07-19T12:22:26.0000000+00:00</time></trkpt><trkpt lat="64.26600647" lon="-21.05936813"><ele>128.8</ele><time>2012-07-19T12:22:31.0000000+00:00</time></trkpt><trkpt lat="64.26581574" lon="-21.05886841"><ele>128.4</ele><time>2012-07-19T12:22:36.0000000+00:00</time></trkpt><trkpt lat="64.26563263" lon="-21.05835342"><ele>127.2</ele><time>2012-07-19T12:22:41.0000000+00:00</time></trkpt><trkpt lat="64.26542664" lon="-21.05778885"><ele>126.3</ele><time>2012-07-19T12:22:46.0000000+00:00</time></trkpt><trkpt lat="64.2652359" lon="-21.05726433"><ele>125.6</ele><time>2012-07-19T12:22:51.0000000+00:00</time></trkpt><trkpt lat="64.26502991" lon="-21.05676651"><ele>125.6</ele><time>2012-07-19T12:22:56.0000000+00:00</time></trkpt><trkpt lat="64.26482391" lon="-21.05630684"><ele>125.6</ele><time>2012-07-19T12:23:01.0000000+00:00</time></trkpt><trkpt lat="64.26462555" lon="-21.05590439"><ele>124.4</ele><time>2012-07-19T12:23:06.0000000+00:00</time></trkpt><trkpt lat="64.2644043" lon="-21.05545044"><ele>123.8</ele><time>2012-07-19T12:23:11.0000000+00:00</time></trkpt><trkpt lat="64.26418304" lon="-21.05505371"><ele>122.6</ele><time>2012-07-19T12:23:16.0000000+00:00</time></trkpt><trkpt lat="64.26396179" lon="-21.05468941"><ele>121.9</ele><time>2012-07-19T12:23:21.0000000+00:00</time></trkpt><trkpt lat="64.26374817" lon="-21.05432892"><ele>122.2</ele><time>2012-07-19T12:23:26.0000000+00:00</time></trkpt><trkpt lat="64.26351929" lon="-21.05397415"><ele>121.5</ele><time>2012-07-19T12:23:31.0000000+00:00</time></trkpt><trkpt lat="64.26327515" lon="-21.05360222"><ele>120.5</ele><time>2012-07-19T12:23:36.0000000+00:00</time></trkpt><trkpt lat="64.26301575" lon="-21.05322838"><ele>119.3</ele><time>2012-07-19T12:23:41.0000000+00:00</time></trkpt><trkpt lat="64.26274872" lon="-21.05290031"><ele>119.1</ele><time>2012-07-19T12:23:46.0000000+00:00</time></trkpt><trkpt lat="64.26247406" lon="-21.05257416"><ele>118.9</ele><time>2012-07-19T12:23:51.0000000+00:00</time></trkpt><trkpt lat="64.2621994" lon="-21.05226898"><ele>118.7</ele><time>2012-07-19T12:23:56.0000000+00:00</time></trkpt><trkpt lat="64.26192474" lon="-21.05194664"><ele>118.1</ele><time>2012-07-19T12:24:01.0000000+00:00</time></trkpt><trkpt lat="64.26167297" lon="-21.05160713"><ele>119.0</ele><time>2012-07-19T12:24:06.0000000+00:00</time></trkpt><trkpt lat="64.26147461" lon="-21.05126"><ele>118.9</ele><time>2012-07-19T12:24:11.0000000+00:00</time></trkpt><trkpt lat="64.26129913" lon="-21.05093956"><ele>119.6</ele><time>2012-07-19T12:24:16.0000000+00:00</time></trkpt><trkpt lat="64.26114655" lon="-21.05057716"><ele>119.6</ele><time>2012-07-19T12:24:21.0000000+00:00</time></trkpt><trkpt lat="64.26098633" lon="-21.05019188"><ele>119.7</ele><time>2012-07-19T12:24:26.0000000+00:00</time></trkpt><trkpt lat="64.26083374" lon="-21.04976654"><ele>119.2</ele><time>2012-07-19T12:24:31.0000000+00:00</time></trkpt><trkpt lat="64.26068115" lon="-21.04932594"><ele>120.3</ele><time>2012-07-19T12:24:36.0000000+00:00</time></trkpt><trkpt lat="64.26056671" lon="-21.04892921"><ele>121.9</ele><time>2012-07-19T12:24:41.0000000+00:00</time></trkpt><trkpt lat="64.26048279" lon="-21.04859924"><ele>123.4</ele><time>2012-07-19T12:24:46.0000000+00:00</time></trkpt><trkpt lat="64.26042938" lon="-21.04832459"><ele>124.6</ele><time>2012-07-19T12:24:51.0000000+00:00</time></trkpt><trkpt lat="64.26037598" lon="-21.04802132"><ele>126.2</ele><time>2012-07-19T12:24:56.0000000+00:00</time></trkpt><trkpt lat="64.26032257" lon="-21.04769898"><ele>126.7</ele><time>2012-07-19T12:25:01.0000000+00:00</time></trkpt><trkpt lat="64.26026154" lon="-21.04734993"><ele>125.9</ele><time>2012-07-19T12:25:06.0000000+00:00</time></trkpt><trkpt lat="64.26018524" lon="-21.04698181"><ele>125.3</ele><time>2012-07-19T12:25:11.0000000+00:00</time></trkpt><trkpt lat="64.26012421" lon="-21.04657936"><ele>125.2</ele><time>2012-07-19T12:25:16.0000000+00:00</time></trkpt><trkpt lat="64.26007843" lon="-21.04612923"><ele>125.8</ele><time>2012-07-19T12:25:21.0000000+00:00</time></trkpt><trkpt lat="64.26004791" lon="-21.04569626"><ele>126.1</ele><time>2012-07-19T12:25:26.0000000+00:00</time></trkpt><trkpt lat="64.26002502" lon="-21.04525185"><ele>127.0</ele><time>2012-07-19T12:25:31.0000000+00:00</time></trkpt><trkpt lat="64.2600174" lon="-21.04483795"><ele>128.1</ele><time>2012-07-19T12:25:36.0000000+00:00</time></trkpt><trkpt lat="64.26002502" lon="-21.04444122"><ele>129.2</ele><time>2012-07-19T12:25:41.0000000+00:00</time></trkpt><trkpt lat="64.26003265" lon="-21.0440712"><ele>130.6</ele><time>2012-07-19T12:25:46.0000000+00:00</time></trkpt><trkpt lat="64.26004791" lon="-21.04372406"><ele>131.4</ele><time>2012-07-19T12:25:51.0000000+00:00</time></trkpt><trkpt lat="64.26006317" lon="-21.04336357"><ele>132.5</ele><time>2012-07-19T12:25:56.0000000+00:00</time></trkpt><trkpt lat="64.2600708" lon="-21.04298019"><ele>133.5</ele><time>2012-07-19T12:26:01.0000000+00:00</time></trkpt><trkpt lat="64.26007843" lon="-21.04261398"><ele>134.6</ele><time>2012-07-19T12:26:06.0000000+00:00</time></trkpt><trkpt lat="64.26008606" lon="-21.04225922"><ele>135.6</ele><time>2012-07-19T12:26:11.0000000+00:00</time></trkpt><trkpt lat="64.26009369" lon="-21.04190445"><ele>135.9</ele><time>2012-07-19T12:26:16.0000000+00:00</time></trkpt><trkpt lat="64.26010895" lon="-21.04155731"><ele>136.4</ele><time>2012-07-19T12:26:21.0000000+00:00</time></trkpt><trkpt lat="64.26011658" lon="-21.04120827"><ele>136.9</ele><time>2012-07-19T12:26:26.0000000+00:00</time></trkpt><trkpt lat="64.26012421" lon="-21.04089546"><ele>137.8</ele><time>2012-07-19T12:26:31.0000000+00:00</time></trkpt><trkpt lat="64.26012421" lon="-21.04061699"><ele>138.3</ele><time>2012-07-19T12:26:36.0000000+00:00</time></trkpt><trkpt lat="64.26010895" lon="-21.04035378"><ele>138.5</ele><time>2012-07-19T12:26:41.0000000+00:00</time></trkpt><trkpt lat="64.26011658" lon="-21.04021835"><ele>138.8</ele><time>2012-07-19T12:26:46.0000000+00:00</time></trkpt><trkpt lat="64.26010132" lon="-21.04006386"><ele>138.4</ele><time>2012-07-19T12:26:51.0000000+00:00</time></trkpt><trkpt lat="64.26009369" lon="-21.03985977"><ele>139.2</ele><time>2012-07-19T12:26:56.0000000+00:00</time></trkpt><trkpt lat="64.26006317" lon="-21.03962517"><ele>139.0</ele><time>2012-07-19T12:27:01.0000000+00:00</time></trkpt><trkpt lat="64.26003265" lon="-21.03935623"><ele>139.2</ele><time>2012-07-19T12:27:06.0000000+00:00</time></trkpt><trkpt lat="64.25999451" lon="-21.03910637"><ele>138.7</ele><time>2012-07-19T12:27:11.0000000+00:00</time></trkpt><trkpt lat="64.25994873" lon="-21.03885651"><ele>138.4</ele><time>2012-07-19T12:27:16.0000000+00:00</time></trkpt><trkpt lat="64.25990295" lon="-21.03860855"><ele>139.2</ele><time>2012-07-19T12:27:21.0000000+00:00</time></trkpt><trkpt lat="64.25984192" lon="-21.03832626"><ele>141.7</ele><time>2012-07-19T12:27:26.0000000+00:00</time></trkpt><trkpt lat="64.25978851" lon="-21.03811264"><ele>142.5</ele><time>2012-07-19T12:27:31.0000000+00:00</time></trkpt><trkpt lat="64.25971222" lon="-21.03791237"><ele>141.6</ele><time>2012-07-19T12:27:36.0000000+00:00</time></trkpt><trkpt lat="64.2596283" lon="-21.03769684"><ele>141.4</ele><time>2012-07-19T12:27:41.0000000+00:00</time></trkpt><trkpt lat="64.25954437" lon="-21.03750992"><ele>142.2</ele><time>2012-07-19T12:27:46.0000000+00:00</time></trkpt><trkpt lat="64.25944519" lon="-21.03731155"><ele>143.0</ele><time>2012-07-19T12:27:51.0000000+00:00</time></trkpt><trkpt lat="64.25935364" lon="-21.03715324"><ele>143.4</ele><time>2012-07-19T12:27:56.0000000+00:00</time></trkpt><trkpt lat="64.25926971" lon="-21.03704453"><ele>143.8</ele><time>2012-07-19T12:28:01.0000000+00:00</time></trkpt><trkpt lat="64.25917816" lon="-21.03692436"><ele>143.5</ele><time>2012-07-19T12:28:06.0000000+00:00</time></trkpt><trkpt lat="64.25912476" lon="-21.03685951"><ele>143.5</ele><time>2012-07-19T12:28:11.0000000+00:00</time></trkpt><trkpt lat="64.25904846" lon="-21.03676605"><ele>144.7</ele><time>2012-07-19T12:28:16.0000000+00:00</time></trkpt><trkpt lat="64.25894165" lon="-21.03664017"><ele>145.6</ele><time>2012-07-19T12:28:21.0000000+00:00</time></trkpt><trkpt lat="64.25885773" lon="-21.03647804"><ele>146.9</ele><time>2012-07-19T12:28:26.0000000+00:00</time></trkpt><trkpt lat="64.2587738" lon="-21.0362854"><ele>148.4</ele><time>2012-07-19T12:28:31.0000000+00:00</time></trkpt><trkpt lat="64.25868225" lon="-21.03610802"><ele>149.6</ele><time>2012-07-19T12:28:36.0000000+00:00</time></trkpt><trkpt lat="64.25859833" lon="-21.03590965"><ele>150.1</ele><time>2012-07-19T12:28:41.0000000+00:00</time></trkpt><trkpt lat="64.25852966" lon="-21.03571892"><ele>151.0</ele><time>2012-07-19T12:28:46.0000000+00:00</time></trkpt><trkpt lat="64.25849915" lon="-21.03563309"><ele>151.0</ele><time>2012-07-19T12:28:51.0000000+00:00</time></trkpt><trkpt lat="64.25849915" lon="-21.03564072"><ele>150.7</ele><time>2012-07-19T12:28:56.0000000+00:00</time></trkpt><trkpt lat="64.25849915" lon="-21.03563881"><ele>150.7</ele><time>2012-07-19T12:29:01.0000000+00:00</time></trkpt><trkpt lat="64.25849915" lon="-21.03563881"><ele>150.7</ele><time>2012-07-19T12:29:06.0000000+00:00</time></trkpt><trkpt lat="64.25849915" lon="-21.03563881"><ele>150.6</ele><time>2012-07-19T12:29:11.0000000+00:00</time></trkpt><trkpt lat="64.25849152" lon="-21.03562927"><ele>150.6</ele><time>2012-07-19T12:29:16.0000000+00:00</time></trkpt><trkpt lat="64.25849152" lon="-21.03562737"><ele>150.7</ele><time>2012-07-19T12:29:21.0000000+00:00</time></trkpt><trkpt lat="64.25849152" lon="-21.03562737"><ele>150.7</ele><time>2012-07-19T12:29:26.0000000+00:00</time></trkpt><trkpt lat="64.25849152" lon="-21.03562927"><ele>150.7</ele><time>2012-07-19T12:29:31.0000000+00:00</time></trkpt><trkpt lat="64.25849152" lon="-21.03562927"><ele>150.7</ele><time>2012-07-19T12:29:36.0000000+00:00</time></trkpt><trkpt lat="64.25849152" lon="-21.03562927"><ele>150.6</ele><time>2012-07-19T12:29:41.0000000+00:00</time></trkpt><trkpt lat="64.25849152" lon="-21.03562927"><ele>150.7</ele><time>2012-07-19T12:29:46.0000000+00:00</time></trkpt><trkpt lat="64.25849152" lon="-21.03563118"><ele>150.7</ele><time>2012-07-19T12:29:51.0000000+00:00</time></trkpt><trkpt lat="64.25849152" lon="-21.03563118"><ele>150.7</ele><time>2012-07-19T12:29:56.0000000+00:00</time></trkpt><trkpt lat="64.25849152" lon="-21.03563118"><ele>150.7</ele><time>2012-07-19T12:30:01.0000000+00:00</time></trkpt><trkpt lat="64.25849152" lon="-21.03562927"><ele>150.8</ele><time>2012-07-19T12:30:06.0000000+00:00</time></trkpt><trkpt lat="64.25849152" lon="-21.03562927"><ele>150.8</ele><time>2012-07-19T12:30:11.0000000+00:00</time></trkpt><trkpt lat="64.25848389" lon="-21.03562927"><ele>150.8</ele><time>2012-07-19T12:30:16.0000000+00:00</time></trkpt><trkpt lat="64.25848389" lon="-21.03562927"><ele>150.9</ele><time>2012-07-19T12:30:21.0000000+00:00</time></trkpt><trkpt lat="64.25848389" lon="-21.03562927"><ele>150.9</ele><time>2012-07-19T12:30:26.0000000+00:00</time></trkpt><trkpt lat="64.25848389" lon="-21.03562927"><ele>150.9</ele><time>2012-07-19T12:30:31.0000000+00:00</time></trkpt><trkpt lat="64.25848389" lon="-21.03561974"><ele>150.9</ele><time>2012-07-19T12:30:36.0000000+00:00</time></trkpt><trkpt lat="64.25844574" lon="-21.03546524"><ele>150.1</ele><time>2012-07-19T12:30:41.0000000+00:00</time></trkpt><trkpt lat="64.25839233" lon="-21.03522682"><ele>149.8</ele><time>2012-07-19T12:30:46.0000000+00:00</time></trkpt><trkpt lat="64.25833893" lon="-21.0349884"><ele>149.5</ele><time>2012-07-19T12:30:51.0000000+00:00</time></trkpt><trkpt lat="64.25828552" lon="-21.0346756"><ele>151.8</ele><time>2012-07-19T12:30:56.0000000+00:00</time></trkpt><trkpt lat="64.25822449" lon="-21.03434944"><ele>152.2</ele><time>2012-07-19T12:31:01.0000000+00:00</time></trkpt><trkpt lat="64.25817108" lon="-21.0339756"><ele>151.2</ele><time>2012-07-19T12:31:06.0000000+00:00</time></trkpt><trkpt lat="64.25813294" lon="-21.03352928"><ele>151.4</ele><time>2012-07-19T12:31:11.0000000+00:00</time></trkpt><trkpt lat="64.25813294" lon="-21.03311348"><ele>152.8</ele><time>2012-07-19T12:31:16.0000000+00:00</time></trkpt><trkpt lat="64.25813294" lon="-21.03268814"><ele>153.9</ele><time>2012-07-19T12:31:21.0000000+00:00</time></trkpt><trkpt lat="64.25815582" lon="-21.03225136"><ele>155.1</ele><time>2012-07-19T12:31:26.0000000+00:00</time></trkpt><trkpt lat="64.25815582" lon="-21.03180313"><ele>156.8</ele><time>2012-07-19T12:31:31.0000000+00:00</time></trkpt><trkpt lat="64.25813294" lon="-21.03137207"><ele>158.0</ele><time>2012-07-19T12:31:36.0000000+00:00</time></trkpt><trkpt lat="64.25811005" lon="-21.03112412"><ele>158.0</ele><time>2012-07-19T12:31:41.0000000+00:00</time></trkpt><trkpt lat="64.25807953" lon="-21.03090859"><ele>156.6</ele><time>2012-07-19T12:31:46.0000000+00:00</time></trkpt><trkpt lat="64.25805664" lon="-21.03071404"><ele>156.2</ele><time>2012-07-19T12:31:51.0000000+00:00</time></trkpt><trkpt lat="64.25803375" lon="-21.03057861"><ele>156.3</ele><time>2012-07-19T12:31:56.0000000+00:00</time></trkpt><trkpt lat="64.25797272" lon="-21.03034401"><ele>155.6</ele><time>2012-07-19T12:32:01.0000000+00:00</time></trkpt><trkpt lat="64.25789642" lon="-21.03003883"><ele>155.0</ele><time>2012-07-19T12:32:06.0000000+00:00</time></trkpt><trkpt lat="64.25780487" lon="-21.02970696"><ele>155.0</ele><time>2012-07-19T12:32:11.0000000+00:00</time></trkpt><trkpt lat="64.25772095" lon="-21.02949524"><ele>155.7</ele><time>2012-07-19T12:32:16.0000000+00:00</time></trkpt><trkpt lat="64.2576294" lon="-21.02928925"><ele>155.8</ele><time>2012-07-19T12:32:21.0000000+00:00</time></trkpt><trkpt lat="64.25750732" lon="-21.02905655"><ele>155.4</ele><time>2012-07-19T12:32:26.0000000+00:00</time></trkpt><trkpt lat="64.25737763" lon="-21.02885056"><ele>156.8</ele><time>2012-07-19T12:32:31.0000000+00:00</time></trkpt><trkpt lat="64.25722504" lon="-21.0286808"><ele>158.9</ele><time>2012-07-19T12:32:36.0000000+00:00</time></trkpt><trkpt lat="64.25707245" lon="-21.02855301"><ele>161.6</ele><time>2012-07-19T12:32:41.0000000+00:00</time></trkpt><trkpt lat="64.25693512" lon="-21.02844429"><ele>161.8</ele><time>2012-07-19T12:32:46.0000000+00:00</time></trkpt><trkpt lat="64.25678253" lon="-21.02836609"><ele>163.4</ele><time>2012-07-19T12:32:51.0000000+00:00</time></trkpt><trkpt lat="64.25659943" lon="-21.02825737"><ele>163.9</ele><time>2012-07-19T12:32:56.0000000+00:00</time></trkpt><trkpt lat="64.25637817" lon="-21.0281353"><ele>164.3</ele><time>2012-07-19T12:33:01.0000000+00:00</time></trkpt><trkpt lat="64.25611877" lon="-21.02800942"><ele>164.4</ele><time>2012-07-19T12:33:06.0000000+00:00</time></trkpt><trkpt lat="64.25587463" lon="-21.02789116"><ele>165.6</ele><time>2012-07-19T12:33:11.0000000+00:00</time></trkpt><trkpt lat="64.25563049" lon="-21.02777481"><ele>166.5</ele><time>2012-07-19T12:33:16.0000000+00:00</time></trkpt><trkpt lat="64.25543213" lon="-21.02768707"><ele>166.8</ele><time>2012-07-19T12:33:21.0000000+00:00</time></trkpt><trkpt lat="64.25523377" lon="-21.02759743"><ele>167.2</ele><time>2012-07-19T12:33:26.0000000+00:00</time></trkpt><trkpt lat="64.2551651" lon="-21.02756882"><ele>166.3</ele><time>2012-07-19T12:33:31.0000000+00:00</time></trkpt><trkpt lat="64.25508118" lon="-21.02749825"><ele>167.2</ele><time>2012-07-19T12:33:36.0000000+00:00</time></trkpt><trkpt lat="64.25491333" lon="-21.02741051"><ele>167.6</ele><time>2012-07-19T12:33:41.0000000+00:00</time></trkpt><trkpt lat="64.25471497" lon="-21.02728844"><ele>167.8</ele><time>2012-07-19T12:33:46.0000000+00:00</time></trkpt><trkpt lat="64.2546463" lon="-21.02723122"><ele>166.7</ele><time>2012-07-19T12:33:51.0000000+00:00</time></trkpt><trkpt lat="64.2546463" lon="-21.02722931"><ele>166.5</ele><time>2012-07-19T12:33:56.0000000+00:00</time></trkpt><trkpt lat="64.2546463" lon="-21.02722931"><ele>166.5</ele><time>2012-07-19T12:34:01.0000000+00:00</time></trkpt><trkpt lat="64.2546463" lon="-21.02722931"><ele>166.5</ele><time>2012-07-19T12:34:06.0000000+00:00</time></trkpt><trkpt lat="64.2546463" lon="-21.0272274"><ele>166.5</ele><time>2012-07-19T12:34:11.0000000+00:00</time></trkpt><trkpt lat="64.2546463" lon="-21.0272274"><ele>166.5</ele><time>2012-07-19T12:34:16.0000000+00:00</time></trkpt><trkpt lat="64.25457764" lon="-21.02716637"><ele>166.2</ele><time>2012-07-19T12:34:21.0000000+00:00</time></trkpt><trkpt lat="64.2545166" lon="-21.0270443"><ele>165.5</ele><time>2012-07-19T12:34:26.0000000+00:00</time></trkpt><trkpt lat="64.25466156" lon="-21.02713013"><ele>165.5</ele><time>2012-07-19T12:34:31.0000000+00:00</time></trkpt><trkpt lat="64.254776" lon="-21.02718735"><ele>165.5</ele><time>2012-07-19T12:34:36.0000000+00:00</time></trkpt><trkpt lat="64.25476074" lon="-21.0273037"><ele>166.1</ele><time>2012-07-19T12:34:41.0000000+00:00</time></trkpt><trkpt lat="64.25474548" lon="-21.02731514"><ele>165.7</ele><time>2012-07-19T12:34:46.0000000+00:00</time></trkpt><trkpt lat="64.25474548" lon="-21.02731514"><ele>165.7</ele><time>2012-07-19T12:34:51.0000000+00:00</time></trkpt><trkpt lat="64.25474548" lon="-21.02731514"><ele>165.8</ele><time>2012-07-19T12:34:56.0000000+00:00</time></trkpt><trkpt lat="64.25474548" lon="-21.02731514"><ele>165.8</ele><time>2012-07-19T12:35:01.0000000+00:00</time></trkpt><trkpt lat="64.25474548" lon="-21.02731323"><ele>165.7</ele><time>2012-07-19T12:35:06.0000000+00:00</time></trkpt><trkpt lat="64.25474548" lon="-21.02731323"><ele>165.7</ele><time>2012-07-19T12:35:11.0000000+00:00</time></trkpt><trkpt lat="64.25474548" lon="-21.02730942"><ele>165.6</ele><time>2012-07-19T12:35:16.0000000+00:00</time></trkpt><trkpt lat="64.25474548" lon="-21.02730942"><ele>165.6</ele><time>2012-07-19T12:35:21.0000000+00:00</time></trkpt><trkpt lat="64.25474548" lon="-21.02730942"><ele>165.6</ele><time>2012-07-19T12:35:26.0000000+00:00</time></trkpt><trkpt lat="64.25474548" lon="-21.02730942"><ele>165.6</ele><time>2012-07-19T12:35:31.0000000+00:00</time></trkpt><trkpt lat="64.25474548" lon="-21.02730942"><ele>165.6</ele><time>2012-07-19T12:35:36.0000000+00:00</time></trkpt><trkpt lat="64.25468445" lon="-21.02724838"><ele>165.6</ele><time>2012-07-19T12:35:41.0000000+00:00</time></trkpt><trkpt lat="64.25455475" lon="-21.02716446"><ele>165.2</ele><time>2012-07-19T12:35:46.0000000+00:00</time></trkpt><trkpt lat="64.2543869" lon="-21.02705574"><ele>164.7</ele><time>2012-07-19T12:35:51.0000000+00:00</time></trkpt><trkpt lat="64.25419617" lon="-21.02688789"><ele>164.6</ele><time>2012-07-19T12:35:56.0000000+00:00</time></trkpt><trkpt lat="64.25399017" lon="-21.02667427"><ele>164.4</ele><time>2012-07-19T12:36:01.0000000+00:00</time></trkpt><trkpt lat="64.25378418" lon="-21.0264492"><ele>163.9</ele><time>2012-07-19T12:36:06.0000000+00:00</time></trkpt><trkpt lat="64.25356293" lon="-21.0261898"><ele>163.5</ele><time>2012-07-19T12:36:11.0000000+00:00</time></trkpt><trkpt lat="64.25334168" lon="-21.02592087"><ele>162.9</ele><time>2012-07-19T12:36:16.0000000+00:00</time></trkpt><trkpt lat="64.25312805" lon="-21.02560234"><ele>162.6</ele><time>2012-07-19T12:36:21.0000000+00:00</time></trkpt><trkpt lat="64.25292206" lon="-21.02526283"><ele>162.4</ele><time>2012-07-19T12:36:26.0000000+00:00</time></trkpt><trkpt lat="64.25273132" lon="-21.02495194"><ele>162.0</ele><time>2012-07-19T12:36:31.0000000+00:00</time></trkpt><trkpt lat="64.25257111" lon="-21.0246048"><ele>161.9</ele><time>2012-07-19T12:36:36.0000000+00:00</time></trkpt><trkpt lat="64.25240326" lon="-21.02424812"><ele>161.7</ele><time>2012-07-19T12:36:41.0000000+00:00</time></trkpt><trkpt lat="64.25222015" lon="-21.02391052"><ele>160.7</ele><time>2012-07-19T12:36:46.0000000+00:00</time></trkpt><trkpt lat="64.25203705" lon="-21.0235672"><ele>159.8</ele><time>2012-07-19T12:36:51.0000000+00:00</time></trkpt><trkpt lat="64.2518692" lon="-21.02327156"><ele>160.3</ele><time>2012-07-19T12:36:56.0000000+00:00</time></trkpt><trkpt lat="64.25171661" lon="-21.02308655"><ele>161.5</ele><time>2012-07-19T12:37:01.0000000+00:00</time></trkpt><trkpt lat="64.25158691" lon="-21.02297783"><ele>163.3</ele><time>2012-07-19T12:37:06.0000000+00:00</time></trkpt><trkpt lat="64.25150299" lon="-21.02289391"><ele>165.4</ele><time>2012-07-19T12:37:11.0000000+00:00</time></trkpt><trkpt lat="64.25137329" lon="-21.02280998"><ele>167.5</ele><time>2012-07-19T12:37:16.0000000+00:00</time></trkpt><trkpt lat="64.25124359" lon="-21.02275276"><ele>168.7</ele><time>2012-07-19T12:37:21.0000000+00:00</time></trkpt><trkpt lat="64.25111389" lon="-21.02270126"><ele>170.6</ele><time>2012-07-19T12:37:26.0000000+00:00</time></trkpt><trkpt lat="64.2509613" lon="-21.02269745"><ele>172.2</ele><time>2012-07-19T12:37:31.0000000+00:00</time></trkpt><trkpt lat="64.25079346" lon="-21.02272224"><ele>173.9</ele><time>2012-07-19T12:37:36.0000000+00:00</time></trkpt><trkpt lat="64.25062561" lon="-21.02275848"><ele>175.1</ele><time>2012-07-19T12:37:41.0000000+00:00</time></trkpt><trkpt lat="64.25043488" lon="-21.02279472"><ele>175.6</ele><time>2012-07-19T12:37:46.0000000+00:00</time></trkpt><trkpt lat="64.25019074" lon="-21.02285576"><ele>174.3</ele><time>2012-07-19T12:37:51.0000000+00:00</time></trkpt><trkpt lat="64.24993134" lon="-21.02293968"><ele>175.2</ele><time>2012-07-19T12:37:56.0000000+00:00</time></trkpt><trkpt lat="64.24973297" lon="-21.0229969"><ele>177.6</ele><time>2012-07-19T12:38:01.0000000+00:00</time></trkpt><trkpt lat="64.24962616" lon="-21.0230217"><ele>177.3</ele><time>2012-07-19T12:38:06.0000000+00:00</time></trkpt><trkpt lat="64.24951935" lon="-21.0230484"><ele>178.0</ele><time>2012-07-19T12:38:11.0000000+00:00</time></trkpt><trkpt lat="64.2494278" lon="-21.0230751"><ele>179.2</ele><time>2012-07-19T12:38:16.0000000+00:00</time></trkpt><trkpt lat="64.24932098" lon="-21.02310371"><ele>178.6</ele><time>2012-07-19T12:38:21.0000000+00:00</time></trkpt><trkpt lat="64.24920654" lon="-21.02313042"><ele>176.5</ele><time>2012-07-19T12:38:26.0000000+00:00</time></trkpt><trkpt lat="64.24909973" lon="-21.02316475"><ele>178.2</ele><time>2012-07-19T12:38:31.0000000+00:00</time></trkpt><trkpt lat="64.24900055" lon="-21.02320671"><ele>178.7</ele><time>2012-07-19T12:38:36.0000000+00:00</time></trkpt><trkpt lat="64.24889374" lon="-21.02324486"><ele>179.6</ele><time>2012-07-19T12:38:41.0000000+00:00</time></trkpt><trkpt lat="64.24878693" lon="-21.02330017"><ele>181.1</ele><time>2012-07-19T12:38:46.0000000+00:00</time></trkpt><trkpt lat="64.24868012" lon="-21.02336884"><ele>182.8</ele><time>2012-07-19T12:38:51.0000000+00:00</time></trkpt><trkpt lat="64.24856567" lon="-21.0234375"><ele>183.9</ele><time>2012-07-19T12:38:56.0000000+00:00</time></trkpt><trkpt lat="64.2484436" lon="-21.02355003"><ele>184.7</ele><time>2012-07-19T12:39:01.0000000+00:00</time></trkpt><trkpt lat="64.2483139" lon="-21.02368355"><ele>186.0</ele><time>2012-07-19T12:39:06.0000000+00:00</time></trkpt><trkpt lat="64.24817658" lon="-21.02381516"><ele>186.9</ele><time>2012-07-19T12:39:11.0000000+00:00</time></trkpt><trkpt lat="64.24804688" lon="-21.02395058"><ele>188.7</ele><time>2012-07-19T12:39:16.0000000+00:00</time></trkpt><trkpt lat="64.24798584" lon="-21.02403259"><ele>189.4</ele><time>2012-07-19T12:39:21.0000000+00:00</time></trkpt><trkpt lat="64.24794006" lon="-21.02414322"><ele>187.8</ele><time>2012-07-19T12:39:26.0000000+00:00</time></trkpt><trkpt lat="64.24793243" lon="-21.02430725"><ele>187.7</ele><time>2012-07-19T12:39:31.0000000+00:00</time></trkpt><trkpt lat="64.24794006" lon="-21.0243988"><ele>186.7</ele><time>2012-07-19T12:39:36.0000000+00:00</time></trkpt><trkpt lat="64.24794006" lon="-21.02440262"><ele>186.4</ele><time>2012-07-19T12:39:41.0000000+00:00</time></trkpt><trkpt lat="64.24794006" lon="-21.02440262"><ele>186.4</ele><time>2012-07-19T12:39:46.0000000+00:00</time></trkpt><trkpt lat="64.24794006" lon="-21.02440453"><ele>186.4</ele><time>2012-07-19T12:39:51.0000000+00:00</time></trkpt><trkpt lat="64.24794006" lon="-21.02440453"><ele>186.4</ele><time>2012-07-19T12:39:56.0000000+00:00</time></trkpt><trkpt lat="64.24794006" lon="-21.02440453"><ele>186.3</ele><time>2012-07-19T12:40:01.0000000+00:00</time></trkpt><trkpt lat="64.24794006" lon="-21.02440453"><ele>186.3</ele><time>2012-07-19T12:40:06.0000000+00:00</time></trkpt><trkpt lat="64.24794006" lon="-21.02440453"><ele>186.3</ele><time>2012-07-19T12:40:11.0000000+00:00</time></trkpt><trkpt lat="64.24794006" lon="-21.02440643"><ele>186.3</ele><time>2012-07-19T12:40:16.0000000+00:00</time></trkpt><trkpt lat="64.24794006" lon="-21.02440643"><ele>186.2</ele><time>2012-07-19T12:40:21.0000000+00:00</time></trkpt><trkpt lat="64.24794006" lon="-21.02440643"><ele>186.2</ele><time>2012-07-19T12:40:26.0000000+00:00</time></trkpt><trkpt lat="64.24794006" lon="-21.02440643"><ele>186.2</ele><time>2012-07-19T12:40:31.0000000+00:00</time></trkpt><trkpt lat="64.24794006" lon="-21.02440643"><ele>186.1</ele><time>2012-07-19T12:40:36.0000000+00:00</time></trkpt><trkpt lat="64.24794006" lon="-21.02440643"><ele>186.1</ele><time>2012-07-19T12:40:41.0000000+00:00</time></trkpt><trkpt lat="64.24794006" lon="-21.02440643"><ele>186.1</ele><time>2012-07-19T12:40:46.0000000+00:00</time></trkpt><trkpt lat="64.24794006" lon="-21.02440643"><ele>186.1</ele><time>2012-07-19T12:40:51.0000000+00:00</time></trkpt><trkpt lat="64.24794006" lon="-21.02440834"><ele>186.1</ele><time>2012-07-19T12:40:56.0000000+00:00</time></trkpt><trkpt lat="64.24794006" lon="-21.02440834"><ele>186.0</ele><time>2012-07-19T12:41:01.0000000+00:00</time></trkpt><trkpt lat="64.24794006" lon="-21.02440834"><ele>186.0</ele><time>2012-07-19T12:41:06.0000000+00:00</time></trkpt><trkpt lat="64.24794006" lon="-21.02440834"><ele>186.0</ele><time>2012-07-19T12:41:11.0000000+00:00</time></trkpt><trkpt lat="64.24794006" lon="-21.02440834"><ele>186.0</ele><time>2012-07-19T12:41:16.0000000+00:00</time></trkpt><trkpt lat="64.24794006" lon="-21.02440834"><ele>186.0</ele><time>2012-07-19T12:41:21.0000000+00:00</time></trkpt><trkpt lat="64.24794006" lon="-21.02440834"><ele>186.0</ele><time>2012-07-19T12:41:26.0000000+00:00</time></trkpt><trkpt lat="64.24792481" lon="-21.02442169"><ele>186.0</ele><time>2012-07-19T12:41:31.0000000+00:00</time></trkpt><trkpt lat="64.24791718" lon="-21.02440262"><ele>186.0</ele><time>2012-07-19T12:41:36.0000000+00:00</time></trkpt><trkpt lat="64.24791718" lon="-21.02440262"><ele>185.9</ele><time>2012-07-19T12:41:41.0000000+00:00</time></trkpt><trkpt lat="64.24791718" lon="-21.02439499"><ele>186.0</ele><time>2012-07-19T12:41:46.0000000+00:00</time></trkpt><trkpt lat="64.24790955" lon="-21.02436829"><ele>186.1</ele><time>2012-07-19T12:41:51.0000000+00:00</time></trkpt><trkpt lat="64.24790192" lon="-21.0243187"><ele>186.0</ele><time>2012-07-19T12:41:56.0000000+00:00</time></trkpt><trkpt lat="64.24787903" lon="-21.0242672"><ele>186.2</ele><time>2012-07-19T12:42:01.0000000+00:00</time></trkpt><trkpt lat="64.2478714" lon="-21.02421951"><ele>186.7</ele><time>2012-07-19T12:42:06.0000000+00:00</time></trkpt><trkpt lat="64.24786377" lon="-21.02420998"><ele>187.1</ele><time>2012-07-19T12:42:11.0000000+00:00</time></trkpt><trkpt lat="64.24781036" lon="-21.02420998"><ele>187.6</ele><time>2012-07-19T12:42:16.0000000+00:00</time></trkpt><trkpt lat="64.24775696" lon="-21.02421379"><ele>187.0</ele><time>2012-07-19T12:42:21.0000000+00:00</time></trkpt><trkpt lat="64.24767304" lon="-21.02426148"><ele>186.5</ele><time>2012-07-19T12:42:26.0000000+00:00</time></trkpt><trkpt lat="64.24754334" lon="-21.02432442"><ele>186.0</ele><time>2012-07-19T12:42:31.0000000+00:00</time></trkpt><trkpt lat="64.24739075" lon="-21.02440071"><ele>185.3</ele><time>2012-07-19T12:42:36.0000000+00:00</time></trkpt><trkpt lat="64.24716187" lon="-21.02446556"><ele>183.9</ele><time>2012-07-19T12:42:41.0000000+00:00</time></trkpt><trkpt lat="64.24686432" lon="-21.02451134"><ele>182.1</ele><time>2012-07-19T12:42:46.0000000+00:00</time></trkpt><trkpt lat="64.24655914" lon="-21.02448654"><ele>181.7</ele><time>2012-07-19T12:42:51.0000000+00:00</time></trkpt><trkpt lat="64.24632263" lon="-21.02442932"><ele>182.1</ele><time>2012-07-19T12:42:56.0000000+00:00</time></trkpt><trkpt lat="64.24611664" lon="-21.02438927"><ele>182.7</ele><time>2012-07-19T12:43:01.0000000+00:00</time></trkpt><trkpt lat="64.24591827" lon="-21.02435303"><ele>183.7</ele><time>2012-07-19T12:43:06.0000000+00:00</time></trkpt><trkpt lat="64.24573517" lon="-21.02433014"><ele>184.5</ele><time>2012-07-19T12:43:11.0000000+00:00</time></trkpt><trkpt lat="64.2455368" lon="-21.02431488"><ele>185.1</ele><time>2012-07-19T12:43:16.0000000+00:00</time></trkpt><trkpt lat="64.24531555" lon="-21.02434349"><ele>185.0</ele><time>2012-07-19T12:43:21.0000000+00:00</time></trkpt><trkpt lat="64.24506378" lon="-21.02437782"><ele>183.8</ele><time>2012-07-19T12:43:26.0000000+00:00</time></trkpt><trkpt lat="64.24481964" lon="-21.02443886"><ele>183.2</ele><time>2012-07-19T12:43:31.0000000+00:00</time></trkpt><trkpt lat="64.24456024" lon="-21.02453423"><ele>183.1</ele><time>2012-07-19T12:43:36.0000000+00:00</time></trkpt><trkpt lat="64.24427033" lon="-21.02470589"><ele>182.3</ele><time>2012-07-19T12:43:41.0000000+00:00</time></trkpt><trkpt lat="64.24398804" lon="-21.02494431"><ele>181.8</ele><time>2012-07-19T12:43:46.0000000+00:00</time></trkpt><trkpt lat="64.24372101" lon="-21.02520371"><ele>182.5</ele><time>2012-07-19T12:43:51.0000000+00:00</time></trkpt><trkpt lat="64.24346161" lon="-21.02548981"><ele>182.4</ele><time>2012-07-19T12:43:56.0000000+00:00</time></trkpt><trkpt lat="64.24317932" lon="-21.02578926"><ele>182.4</ele><time>2012-07-19T12:44:01.0000000+00:00</time></trkpt><trkpt lat="64.24288178" lon="-21.02608872"><ele>181.6</ele><time>2012-07-19T12:44:06.0000000+00:00</time></trkpt><trkpt lat="64.24260712" lon="-21.0263691"><ele>181.4</ele><time>2012-07-19T12:44:11.0000000+00:00</time></trkpt><trkpt lat="64.24233246" lon="-21.02666473"><ele>180.9</ele><time>2012-07-19T12:44:16.0000000+00:00</time></trkpt><trkpt lat="64.24202728" lon="-21.02697563"><ele>180.2</ele><time>2012-07-19T12:44:21.0000000+00:00</time></trkpt><trkpt lat="64.24169159" lon="-21.02728462"><ele>178.4</ele><time>2012-07-19T12:44:26.0000000+00:00</time></trkpt><trkpt lat="64.24131012" lon="-21.02763939"><ele>176.5</ele><time>2012-07-19T12:44:31.0000000+00:00</time></trkpt><trkpt lat="64.24091339" lon="-21.02793694"><ele>175.0</ele><time>2012-07-19T12:44:36.0000000+00:00</time></trkpt><trkpt lat="64.24052429" lon="-21.02819443"><ele>173.5</ele><time>2012-07-19T12:44:41.0000000+00:00</time></trkpt><trkpt lat="64.24011993" lon="-21.0284195"><ele>171.3</ele><time>2012-07-19T12:44:46.0000000+00:00</time></trkpt><trkpt lat="64.23972321" lon="-21.02859497"><ele>170.2</ele><time>2012-07-19T12:44:51.0000000+00:00</time></trkpt><trkpt lat="64.239357" lon="-21.02873039"><ele>170.8</ele><time>2012-07-19T12:44:56.0000000+00:00</time></trkpt><trkpt lat="64.23907471" lon="-21.02882767"><ele>171.7</ele><time>2012-07-19T12:45:01.0000000+00:00</time></trkpt><trkpt lat="64.23886108" lon="-21.02888298"><ele>173.0</ele><time>2012-07-19T12:45:06.0000000+00:00</time></trkpt><trkpt lat="64.23867798" lon="-21.02892876"><ele>174.0</ele><time>2012-07-19T12:45:11.0000000+00:00</time></trkpt><trkpt lat="64.23851013" lon="-21.02895737"><ele>174.3</ele><time>2012-07-19T12:45:16.0000000+00:00</time></trkpt><trkpt lat="64.23832703" lon="-21.02899551"><ele>174.7</ele><time>2012-07-19T12:45:21.0000000+00:00</time></trkpt><trkpt lat="64.23813629" lon="-21.02901268"><ele>175.0</ele><time>2012-07-19T12:45:26.0000000+00:00</time></trkpt><trkpt lat="64.2379303" lon="-21.02902985"><ele>175.2</ele><time>2012-07-19T12:45:31.0000000+00:00</time></trkpt><trkpt lat="64.23773193" lon="-21.0290184"><ele>174.9</ele><time>2012-07-19T12:45:36.0000000+00:00</time></trkpt><trkpt lat="64.23752594" lon="-21.0289917"><ele>174.7</ele><time>2012-07-19T12:45:41.0000000+00:00</time></trkpt><trkpt lat="64.23731232" lon="-21.02895546"><ele>174.7</ele><time>2012-07-19T12:45:46.0000000+00:00</time></trkpt><trkpt lat="64.23709869" lon="-21.02889252"><ele>174.7</ele><time>2012-07-19T12:45:51.0000000+00:00</time></trkpt><trkpt lat="64.23686981" lon="-21.02881622"><ele>175.0</ele><time>2012-07-19T12:45:56.0000000+00:00</time></trkpt><trkpt lat="64.23662567" lon="-21.02873802"><ele>174.7</ele><time>2012-07-19T12:46:01.0000000+00:00</time></trkpt><trkpt lat="64.23635864" lon="-21.02863503"><ele>174.6</ele><time>2012-07-19T12:46:06.0000000+00:00</time></trkpt><trkpt lat="64.23608398" lon="-21.02861404"><ele>174.9</ele><time>2012-07-19T12:46:11.0000000+00:00</time></trkpt><trkpt lat="64.23580933" lon="-21.02865601"><ele>174.7</ele><time>2012-07-19T12:46:16.0000000+00:00</time></trkpt><trkpt lat="64.2355423" lon="-21.02872849"><ele>174.9</ele><time>2012-07-19T12:46:21.0000000+00:00</time></trkpt><trkpt lat="64.23529053" lon="-21.02881813"><ele>175.0</ele><time>2012-07-19T12:46:26.0000000+00:00</time></trkpt><trkpt lat="64.23505402" lon="-21.02893448"><ele>175.0</ele><time>2012-07-19T12:46:31.0000000+00:00</time></trkpt><trkpt lat="64.23483276" lon="-21.02908135"><ele>175.8</ele><time>2012-07-19T12:46:36.0000000+00:00</time></trkpt><trkpt lat="64.23460388" lon="-21.02926254"><ele>175.7</ele><time>2012-07-19T12:46:41.0000000+00:00</time></trkpt><trkpt lat="64.23434448" lon="-21.0294838"><ele>174.8</ele><time>2012-07-19T12:46:46.0000000+00:00</time></trkpt><trkpt lat="64.23405457" lon="-21.02971077"><ele>174.3</ele><time>2012-07-19T12:46:51.0000000+00:00</time></trkpt><trkpt lat="64.23376465" lon="-21.02998161"><ele>173.9</ele><time>2012-07-19T12:46:56.0000000+00:00</time></trkpt><trkpt lat="64.23348236" lon="-21.03028297"><ele>174.3</ele><time>2012-07-19T12:47:01.0000000+00:00</time></trkpt><trkpt lat="64.23325348" lon="-21.03064346"><ele>175.1</ele><time>2012-07-19T12:47:06.0000000+00:00</time></trkpt><trkpt lat="64.23301697" lon="-21.03112412"><ele>174.3</ele><time>2012-07-19T12:47:11.0000000+00:00</time></trkpt><trkpt lat="64.23280335" lon="-21.03168297"><ele>173.1</ele><time>2012-07-19T12:47:16.0000000+00:00</time></trkpt><trkpt lat="64.23264313" lon="-21.03227043"><ele>172.9</ele><time>2012-07-19T12:47:21.0000000+00:00</time></trkpt><trkpt lat="64.23251343" lon="-21.03289414"><ele>172.0</ele><time>2012-07-19T12:47:26.0000000+00:00</time></trkpt><trkpt lat="64.2324295" lon="-21.0335598"><ele>170.7</ele><time>2012-07-19T12:47:31.0000000+00:00</time></trkpt><trkpt lat="64.23238373" lon="-21.03424263"><ele>169.4</ele><time>2012-07-19T12:47:36.0000000+00:00</time></trkpt><trkpt lat="64.23238373" lon="-21.03506851"><ele>166.0</ele><time>2012-07-19T12:47:41.0000000+00:00</time></trkpt><trkpt lat="64.2323761" lon="-21.03611946"><ele>160.9</ele><time>2012-07-19T12:47:46.0000000+00:00</time></trkpt><trkpt lat="64.23228455" lon="-21.03727913"><ele>155.5</ele><time>2012-07-19T12:47:51.0000000+00:00</time></trkpt><trkpt lat="64.23207855" lon="-21.03848267"><ele>147.5</ele><time>2012-07-19T12:47:56.0000000+00:00</time></trkpt><trkpt lat="64.23180389" lon="-21.03964424"><ele>144.3</ele><time>2012-07-19T12:48:01.0000000+00:00</time></trkpt><trkpt lat="64.23156738" lon="-21.04062271"><ele>144.2</ele><time>2012-07-19T12:48:06.0000000+00:00</time></trkpt><trkpt lat="64.23137665" lon="-21.04143524"><ele>143.5</ele><time>2012-07-19T12:48:11.0000000+00:00</time></trkpt><trkpt lat="64.23123169" lon="-21.04220963"><ele>143.2</ele><time>2012-07-19T12:48:16.0000000+00:00</time></trkpt><trkpt lat="64.23112488" lon="-21.04295731"><ele>142.6</ele><time>2012-07-19T12:48:21.0000000+00:00</time></trkpt><trkpt lat="64.23104096" lon="-21.04371071"><ele>141.0</ele><time>2012-07-19T12:48:26.0000000+00:00</time></trkpt><trkpt lat="64.2309494" lon="-21.04449654"><ele>139.6</ele><time>2012-07-19T12:48:31.0000000+00:00</time></trkpt><trkpt lat="64.23085785" lon="-21.0453167"><ele>137.9</ele><time>2012-07-19T12:48:36.0000000+00:00</time></trkpt><trkpt lat="64.23075867" lon="-21.04612923"><ele>136.7</ele><time>2012-07-19T12:48:41.0000000+00:00</time></trkpt><trkpt lat="64.23065186" lon="-21.04697609"><ele>134.9</ele><time>2012-07-19T12:48:46.0000000+00:00</time></trkpt><trkpt lat="64.23055267" lon="-21.04783821"><ele>134.0</ele><time>2012-07-19T12:48:51.0000000+00:00</time></trkpt><trkpt lat="64.23043823" lon="-21.04859924"><ele>134.2</ele><time>2012-07-19T12:48:56.0000000+00:00</time></trkpt><trkpt lat="64.23030853" lon="-21.04922676"><ele>134.9</ele><time>2012-07-19T12:49:01.0000000+00:00</time></trkpt><trkpt lat="64.2301712" lon="-21.04970932"><ele>136.1</ele><time>2012-07-19T12:49:06.0000000+00:00</time></trkpt><trkpt lat="64.23003388" lon="-21.05011368"><ele>137.1</ele><time>2012-07-19T12:49:11.0000000+00:00</time></trkpt><trkpt lat="64.22988129" lon="-21.05044556"><ele>137.9</ele><time>2012-07-19T12:49:16.0000000+00:00</time></trkpt><trkpt lat="64.22975922" lon="-21.05072403"><ele>138.5</ele><time>2012-07-19T12:49:21.0000000+00:00</time></trkpt><trkpt lat="64.22960663" lon="-21.0510025"><ele>139.4</ele><time>2012-07-19T12:49:26.0000000+00:00</time></trkpt><trkpt lat="64.22943115" lon="-21.05127716"><ele>140.8</ele><time>2012-07-19T12:49:31.0000000+00:00</time></trkpt><trkpt lat="64.22924805" lon="-21.05150986"><ele>141.4</ele><time>2012-07-19T12:49:36.0000000+00:00</time></trkpt><trkpt lat="64.22911072" lon="-21.05166435"><ele>142.1</ele><time>2012-07-19T12:49:41.0000000+00:00</time></trkpt><trkpt lat="64.22901917" lon="-21.05175591"><ele>142.7</ele><time>2012-07-19T12:49:46.0000000+00:00</time></trkpt><trkpt lat="64.22888947" lon="-21.05185509"><ele>143.0</ele><time>2012-07-19T12:49:51.0000000+00:00</time></trkpt><trkpt lat="64.22874451" lon="-21.05192566"><ele>143.8</ele><time>2012-07-19T12:49:56.0000000+00:00</time></trkpt><trkpt lat="64.22856903" lon="-21.05199432"><ele>144.0</ele><time>2012-07-19T12:50:01.0000000+00:00</time></trkpt><trkpt lat="64.22835541" lon="-21.05205727"><ele>143.9</ele><time>2012-07-19T12:50:06.0000000+00:00</time></trkpt><trkpt lat="64.22813416" lon="-21.05212593"><ele>143.8</ele><time>2012-07-19T12:50:11.0000000+00:00</time></trkpt><trkpt lat="64.22789002" lon="-21.05220604"><ele>143.4</ele><time>2012-07-19T12:50:16.0000000+00:00</time></trkpt><trkpt lat="64.22764587" lon="-21.05228424"><ele>142.9</ele><time>2012-07-19T12:50:21.0000000+00:00</time></trkpt><trkpt lat="64.22742462" lon="-21.05236816"><ele>142.9</ele><time>2012-07-19T12:50:26.0000000+00:00</time></trkpt><trkpt lat="64.227211" lon="-21.0524292"><ele>143.1</ele><time>2012-07-19T12:50:31.0000000+00:00</time></trkpt><trkpt lat="64.22702026" lon="-21.05249405"><ele>143.6</ele><time>2012-07-19T12:50:36.0000000+00:00</time></trkpt><trkpt lat="64.2268219" lon="-21.05256271"><ele>144.2</ele><time>2012-07-19T12:50:41.0000000+00:00</time></trkpt><trkpt lat="64.22660828" lon="-21.0526619"><ele>145.0</ele><time>2012-07-19T12:50:46.0000000+00:00</time></trkpt><trkpt lat="64.22640991" lon="-21.05272102"><ele>145.4</ele><time>2012-07-19T12:50:51.0000000+00:00</time></trkpt><trkpt lat="64.22618103" lon="-21.05278587"><ele>145.6</ele><time>2012-07-19T12:50:56.0000000+00:00</time></trkpt><trkpt lat="64.22596741" lon="-21.05285835"><ele>145.8</ele><time>2012-07-19T12:51:01.0000000+00:00</time></trkpt><trkpt lat="64.22573853" lon="-21.05293655"><ele>145.8</ele><time>2012-07-19T12:51:06.0000000+00:00</time></trkpt><trkpt lat="64.22551727" lon="-21.05300522"><ele>145.5</ele><time>2012-07-19T12:51:11.0000000+00:00</time></trkpt><trkpt lat="64.22528839" lon="-21.05308342"><ele>145.3</ele><time>2012-07-19T12:51:16.0000000+00:00</time></trkpt><trkpt lat="64.22505188" lon="-21.0531559"><ele>145.0</ele><time>2012-07-19T12:51:21.0000000+00:00</time></trkpt><trkpt lat="64.22484589" lon="-21.05323219"><ele>144.7</ele><time>2012-07-19T12:51:26.0000000+00:00</time></trkpt><trkpt lat="64.22463226" lon="-21.05330658"><ele>144.1</ele><time>2012-07-19T12:51:31.0000000+00:00</time></trkpt><trkpt lat="64.22442627" lon="-21.05337906"><ele>144.0</ele><time>2012-07-19T12:51:36.0000000+00:00</time></trkpt><trkpt lat="64.22422791" lon="-21.05345535"><ele>143.8</ele><time>2012-07-19T12:51:41.0000000+00:00</time></trkpt><trkpt lat="64.22401428" lon="-21.05352974"><ele>143.8</ele><time>2012-07-19T12:51:46.0000000+00:00</time></trkpt><trkpt lat="64.22382355" lon="-21.05360413"><ele>144.0</ele><time>2012-07-19T12:51:51.0000000+00:00</time></trkpt><trkpt lat="64.22362518" lon="-21.05366516"><ele>143.6</ele><time>2012-07-19T12:51:56.0000000+00:00</time></trkpt><trkpt lat="64.22342682" lon="-21.05371857"><ele>144.4</ele><time>2012-07-19T12:52:01.0000000+00:00</time></trkpt><trkpt lat="64.22323608" lon="-21.0537777"><ele>144.3</ele><time>2012-07-19T12:52:06.0000000+00:00</time></trkpt><trkpt lat="64.22305298" lon="-21.05383492"><ele>144.9</ele><time>2012-07-19T12:52:11.0000000+00:00</time></trkpt><trkpt lat="64.2228775" lon="-21.05388451"><ele>145.9</ele><time>2012-07-19T12:52:16.0000000+00:00</time></trkpt><trkpt lat="64.22270203" lon="-21.05395889"><ele>145.9</ele><time>2012-07-19T12:52:21.0000000+00:00</time></trkpt><trkpt lat="64.22252655" lon="-21.05400848"><ele>146.3</ele><time>2012-07-19T12:52:26.0000000+00:00</time></trkpt><trkpt lat="64.2223587" lon="-21.05408287"><ele>146.7</ele><time>2012-07-19T12:52:31.0000000+00:00</time></trkpt><trkpt lat="64.22218323" lon="-21.05412483"><ele>147.5</ele><time>2012-07-19T12:52:36.0000000+00:00</time></trkpt><trkpt lat="64.22200012" lon="-21.05421639"><ele>146.4</ele><time>2012-07-19T12:52:41.0000000+00:00</time></trkpt><trkpt lat="64.22183228" lon="-21.05425453"><ele>146.7</ele><time>2012-07-19T12:52:46.0000000+00:00</time></trkpt><trkpt lat="64.22166443" lon="-21.05427361"><ele>146.7</ele><time>2012-07-19T12:52:51.0000000+00:00</time></trkpt><trkpt lat="64.22151184" lon="-21.05431366"><ele>145.6</ele><time>2012-07-19T12:52:56.0000000+00:00</time></trkpt><trkpt lat="64.22133637" lon="-21.05432892"><ele>145.1</ele><time>2012-07-19T12:53:01.0000000+00:00</time></trkpt><trkpt lat="64.22115326" lon="-21.0543499"><ele>144.5</ele><time>2012-07-19T12:53:06.0000000+00:00</time></trkpt><trkpt lat="64.22097015" lon="-21.05434418"><ele>144.5</ele><time>2012-07-19T12:53:11.0000000+00:00</time></trkpt><trkpt lat="64.22077942" lon="-21.05431557"><ele>144.1</ele><time>2012-07-19T12:53:16.0000000+00:00</time></trkpt><trkpt lat="64.22061157" lon="-21.05427361"><ele>143.9</ele><time>2012-07-19T12:53:21.0000000+00:00</time></trkpt><trkpt lat="64.22042847" lon="-21.05422974"><ele>143.9</ele><time>2012-07-19T12:53:26.0000000+00:00</time></trkpt><trkpt lat="64.22024536" lon="-21.05415344"><ele>144.0</ele><time>2012-07-19T12:53:31.0000000+00:00</time></trkpt><trkpt lat="64.22005463" lon="-21.05404472"><ele>144.3</ele><time>2012-07-19T12:53:36.0000000+00:00</time></trkpt><trkpt lat="64.21985626" lon="-21.05394363"><ele>144.4</ele><time>2012-07-19T12:53:41.0000000+00:00</time></trkpt><trkpt lat="64.21967316" lon="-21.05382538"><ele>145.2</ele><time>2012-07-19T12:53:46.0000000+00:00</time></trkpt><trkpt lat="64.21947479" lon="-21.05368805"><ele>145.4</ele><time>2012-07-19T12:53:51.0000000+00:00</time></trkpt><trkpt lat="64.21929932" lon="-21.05356598"><ele>145.5</ele><time>2012-07-19T12:53:56.0000000+00:00</time></trkpt><trkpt lat="64.21914673" lon="-21.05343437"><ele>145.8</ele><time>2012-07-19T12:54:01.0000000+00:00</time></trkpt><trkpt lat="64.2190094" lon="-21.05330467"><ele>146.6</ele><time>2012-07-19T12:54:06.0000000+00:00</time></trkpt><trkpt lat="64.21884918" lon="-21.05314827"><ele>147.1</ele><time>2012-07-19T12:54:11.0000000+00:00</time></trkpt><trkpt lat="64.21870422" lon="-21.05298996"><ele>147.9</ele><time>2012-07-19T12:54:16.0000000+00:00</time></trkpt><trkpt lat="64.21855164" lon="-21.05284882"><ele>149.2</ele><time>2012-07-19T12:54:21.0000000+00:00</time></trkpt><trkpt lat="64.21840668" lon="-21.05269051"><ele>149.9</ele><time>2012-07-19T12:54:26.0000000+00:00</time></trkpt><trkpt lat="64.21824646" lon="-21.05251694"><ele>150.4</ele><time>2012-07-19T12:54:31.0000000+00:00</time></trkpt><trkpt lat="64.21809387" lon="-21.05236816"><ele>150.9</ele><time>2012-07-19T12:54:36.0000000+00:00</time></trkpt><trkpt lat="64.21794128" lon="-21.05221176"><ele>151.1</ele><time>2012-07-19T12:54:41.0000000+00:00</time></trkpt><trkpt lat="64.2177887" lon="-21.05205727"><ele>151.4</ele><time>2012-07-19T12:54:46.0000000+00:00</time></trkpt><trkpt lat="64.21762085" lon="-21.05188561"><ele>151.7</ele><time>2012-07-19T12:54:51.0000000+00:00</time></trkpt><trkpt lat="64.21744537" lon="-21.05171394"><ele>152.2</ele><time>2012-07-19T12:54:56.0000000+00:00</time></trkpt><trkpt lat="64.21726227" lon="-21.05153847"><ele>152.5</ele><time>2012-07-19T12:55:01.0000000+00:00</time></trkpt><trkpt lat="64.21707153" lon="-21.05134201"><ele>152.9</ele><time>2012-07-19T12:55:06.0000000+00:00</time></trkpt><trkpt lat="64.2168808" lon="-21.05114555"><ele>153.0</ele><time>2012-07-19T12:55:11.0000000+00:00</time></trkpt><trkpt lat="64.21669006" lon="-21.05094338"><ele>152.9</ele><time>2012-07-19T12:55:16.0000000+00:00</time></trkpt><trkpt lat="64.21650696" lon="-21.05077171"><ele>153.3</ele><time>2012-07-19T12:55:21.0000000+00:00</time></trkpt><trkpt lat="64.21634674" lon="-21.05060768"><ele>153.8</ele><time>2012-07-19T12:55:26.0000000+00:00</time></trkpt><trkpt lat="64.21617889" lon="-21.05044937"><ele>154.5</ele><time>2012-07-19T12:55:31.0000000+00:00</time></trkpt><trkpt lat="64.21601105" lon="-21.05029678"><ele>154.5</ele><time>2012-07-19T12:55:36.0000000+00:00</time></trkpt><trkpt lat="64.21586609" lon="-21.05016136"><ele>154.5</ele><time>2012-07-19T12:55:41.0000000+00:00</time></trkpt><trkpt lat="64.21573639" lon="-21.05002403"><ele>155.1</ele><time>2012-07-19T12:55:46.0000000+00:00</time></trkpt><trkpt lat="64.21560669" lon="-21.0498867"><ele>155.6</ele><time>2012-07-19T12:55:51.0000000+00:00</time></trkpt><trkpt lat="64.21547699" lon="-21.049757"><ele>156.6</ele><time>2012-07-19T12:55:56.0000000+00:00</time></trkpt><trkpt lat="64.21534729" lon="-21.04962158"><ele>157.3</ele><time>2012-07-19T12:56:01.0000000+00:00</time></trkpt><trkpt lat="64.21522522" lon="-21.04950142"><ele>158.1</ele><time>2012-07-19T12:56:06.0000000+00:00</time></trkpt><trkpt lat="64.21511078" lon="-21.04937363"><ele>158.8</ele><time>2012-07-19T12:56:11.0000000+00:00</time></trkpt><trkpt lat="64.21498108" lon="-21.04924774"><ele>159.1</ele><time>2012-07-19T12:56:16.0000000+00:00</time></trkpt><trkpt lat="64.21485901" lon="-21.04912186"><ele>159.7</ele><time>2012-07-19T12:56:21.0000000+00:00</time></trkpt><trkpt lat="64.21472931" lon="-21.04899406"><ele>160.1</ele><time>2012-07-19T12:56:26.0000000+00:00</time></trkpt><trkpt lat="64.21459961" lon="-21.0488739"><ele>160.6</ele><time>2012-07-19T12:56:31.0000000+00:00</time></trkpt><trkpt lat="64.21446991" lon="-21.04873276"><ele>161.2</ele><time>2012-07-19T12:56:36.0000000+00:00</time></trkpt><trkpt lat="64.21434021" lon="-21.04858971"><ele>161.8</ele><time>2012-07-19T12:56:41.0000000+00:00</time></trkpt><trkpt lat="64.21421051" lon="-21.0484581"><ele>162.0</ele><time>2012-07-19T12:56:46.0000000+00:00</time></trkpt><trkpt lat="64.21408081" lon="-21.04832649"><ele>162.4</ele><time>2012-07-19T12:56:51.0000000+00:00</time></trkpt><trkpt lat="64.21398163" lon="-21.04821587"><ele>162.8</ele><time>2012-07-19T12:56:56.0000000+00:00</time></trkpt><trkpt lat="64.21385193" lon="-21.04810333"><ele>162.4</ele><time>2012-07-19T12:57:01.0000000+00:00</time></trkpt><trkpt lat="64.21369934" lon="-21.04796791"><ele>162.4</ele><time>2012-07-19T12:57:06.0000000+00:00</time></trkpt><trkpt lat="64.21355438" lon="-21.04782677"><ele>162.0</ele><time>2012-07-19T12:57:11.0000000+00:00</time></trkpt><trkpt lat="64.21341705" lon="-21.04769707"><ele>162.3</ele><time>2012-07-19T12:57:16.0000000+00:00</time></trkpt><trkpt lat="64.21326447" lon="-21.0475235"><ele>162.4</ele><time>2012-07-19T12:57:21.0000000+00:00</time></trkpt><trkpt lat="64.21310425" lon="-21.04738236"><ele>162.2</ele><time>2012-07-19T12:57:26.0000000+00:00</time></trkpt><trkpt lat="64.21295166" lon="-21.04725075"><ele>162.0</ele><time>2012-07-19T12:57:31.0000000+00:00</time></trkpt><trkpt lat="64.21279144" lon="-21.04709435"><ele>162.0</ele><time>2012-07-19T12:57:36.0000000+00:00</time></trkpt><trkpt lat="64.21263123" lon="-21.04693604"><ele>162.1</ele><time>2012-07-19T12:57:41.0000000+00:00</time></trkpt><trkpt lat="64.21247101" lon="-21.04676247"><ele>162.2</ele><time>2012-07-19T12:57:46.0000000+00:00</time></trkpt><trkpt lat="64.21229553" lon="-21.04659462"><ele>161.9</ele><time>2012-07-19T12:57:51.0000000+00:00</time></trkpt><trkpt lat="64.21211243" lon="-21.04640007"><ele>162.1</ele><time>2012-07-19T12:57:56.0000000+00:00</time></trkpt><trkpt lat="64.21193695" lon="-21.04621697"><ele>162.5</ele><time>2012-07-19T12:58:01.0000000+00:00</time></trkpt><trkpt lat="64.21175385" lon="-21.04602814"><ele>162.5</ele><time>2012-07-19T12:58:06.0000000+00:00</time></trkpt><trkpt lat="64.21156311" lon="-21.04582787"><ele>162.3</ele><time>2012-07-19T12:58:11.0000000+00:00</time></trkpt><trkpt lat="64.21137238" lon="-21.04565811"><ele>162.0</ele><time>2012-07-19T12:58:16.0000000+00:00</time></trkpt><trkpt lat="64.2111969" lon="-21.0454731"><ele>161.7</ele><time>2012-07-19T12:58:21.0000000+00:00</time></trkpt><trkpt lat="64.21099854" lon="-21.0452919"><ele>162.3</ele><time>2012-07-19T12:58:26.0000000+00:00</time></trkpt><trkpt lat="64.21083069" lon="-21.04512215"><ele>162.3</ele><time>2012-07-19T12:58:31.0000000+00:00</time></trkpt><trkpt lat="64.21064758" lon="-21.04493332"><ele>162.4</ele><time>2012-07-19T12:58:36.0000000+00:00</time></trkpt><trkpt lat="64.21045685" lon="-21.04474258"><ele>163.0</ele><time>2012-07-19T12:58:41.0000000+00:00</time></trkpt><trkpt lat="64.21026611" lon="-21.04455948"><ele>163.5</ele><time>2012-07-19T12:58:46.0000000+00:00</time></trkpt><trkpt lat="64.21012116" lon="-21.04439926"><ele>163.9</ele><time>2012-07-19T12:58:51.0000000+00:00</time></trkpt><trkpt lat="64.20996094" lon="-21.04424286"><ele>164.7</ele><time>2012-07-19T12:58:56.0000000+00:00</time></trkpt><trkpt lat="64.20980072" lon="-21.04408264"><ele>165.2</ele><time>2012-07-19T12:59:01.0000000+00:00</time></trkpt><trkpt lat="64.20963287" lon="-21.04392433"><ele>165.6</ele><time>2012-07-19T12:59:06.0000000+00:00</time></trkpt><trkpt lat="64.20948029" lon="-21.04376221"><ele>166.1</ele><time>2012-07-19T12:59:11.0000000+00:00</time></trkpt><trkpt lat="64.2093277" lon="-21.04360771"><ele>166.4</ele><time>2012-07-19T12:59:16.0000000+00:00</time></trkpt><trkpt lat="64.20918274" lon="-21.04344559"><ele>166.5</ele><time>2012-07-19T12:59:21.0000000+00:00</time></trkpt><trkpt lat="64.20902252" lon="-21.04327774"><ele>167.1</ele><time>2012-07-19T12:59:26.0000000+00:00</time></trkpt><trkpt lat="64.20886993" lon="-21.04314804"><ele>167.0</ele><time>2012-07-19T12:59:31.0000000+00:00</time></trkpt><trkpt lat="64.20873261" lon="-21.04301071"><ele>167.1</ele><time>2012-07-19T12:59:36.0000000+00:00</time></trkpt><trkpt lat="64.20858002" lon="-21.04286957"><ele>167.1</ele><time>2012-07-19T12:59:41.0000000+00:00</time></trkpt><trkpt lat="64.2084198" lon="-21.0427208"><ele>167.0</ele><time>2012-07-19T12:59:46.0000000+00:00</time></trkpt><trkpt lat="64.20827484" lon="-21.04257584"><ele>167.1</ele><time>2012-07-19T12:59:51.0000000+00:00</time></trkpt><trkpt lat="64.20811462" lon="-21.0424118"><ele>167.6</ele><time>2012-07-19T12:59:56.0000000+00:00</time></trkpt><trkpt lat="64.20796204" lon="-21.04225731"><ele>167.9</ele><time>2012-07-19T13:00:01.0000000+00:00</time></trkpt><trkpt lat="64.20781708" lon="-21.04211044"><ele>168.1</ele><time>2012-07-19T13:00:06.0000000+00:00</time></trkpt><trkpt lat="64.20767212" lon="-21.04198265"><ele>167.8</ele><time>2012-07-19T13:00:11.0000000+00:00</time></trkpt><trkpt lat="64.20752716" lon="-21.04183006"><ele>168.0</ele><time>2012-07-19T13:00:16.0000000+00:00</time></trkpt><trkpt lat="64.20738983" lon="-21.04166985"><ele>168.9</ele><time>2012-07-19T13:00:21.0000000+00:00</time></trkpt><trkpt lat="64.2072525" lon="-21.04155541"><ele>168.9</ele><time>2012-07-19T13:00:26.0000000+00:00</time></trkpt><trkpt lat="64.20713806" lon="-21.04143333"><ele>168.7</ele><time>2012-07-19T13:00:31.0000000+00:00</time></trkpt><trkpt lat="64.20701599" lon="-21.04131317"><ele>169.6</ele><time>2012-07-19T13:00:36.0000000+00:00</time></trkpt><trkpt lat="64.20689392" lon="-21.04115868"><ele>170.2</ele><time>2012-07-19T13:00:41.0000000+00:00</time></trkpt><trkpt lat="64.2067337" lon="-21.04100609"><ele>170.8</ele><time>2012-07-19T13:00:46.0000000+00:00</time></trkpt><trkpt lat="64.20661163" lon="-21.04088783"><ele>171.2</ele><time>2012-07-19T13:00:51.0000000+00:00</time></trkpt><trkpt lat="64.20648956" lon="-21.04076386"><ele>171.5</ele><time>2012-07-19T13:00:56.0000000+00:00</time></trkpt><trkpt lat="64.20636749" lon="-21.0406456"><ele>171.7</ele><time>2012-07-19T13:01:01.0000000+00:00</time></trkpt><trkpt lat="64.20623779" lon="-21.04053116"><ele>170.8</ele><time>2012-07-19T13:01:06.0000000+00:00</time></trkpt><trkpt lat="64.20610046" lon="-21.04036713"><ele>171.2</ele><time>2012-07-19T13:01:11.0000000+00:00</time></trkpt><trkpt lat="64.20595551" lon="-21.04024696"><ele>171.3</ele><time>2012-07-19T13:01:16.0000000+00:00</time></trkpt><trkpt lat="64.20581055" lon="-21.04010773"><ele>171.5</ele><time>2012-07-19T13:01:21.0000000+00:00</time></trkpt><trkpt lat="64.20565033" lon="-21.03998566"><ele>170.8</ele><time>2012-07-19T13:01:26.0000000+00:00</time></trkpt><trkpt lat="64.20550537" lon="-21.03983116"><ele>170.8</ele><time>2012-07-19T13:01:31.0000000+00:00</time></trkpt><trkpt lat="64.20536041" lon="-21.03964043"><ele>170.9</ele><time>2012-07-19T13:01:36.0000000+00:00</time></trkpt><trkpt lat="64.2052002" lon="-21.03945732"><ele>170.6</ele><time>2012-07-19T13:01:41.0000000+00:00</time></trkpt><trkpt lat="64.20507813" lon="-21.0392952"><ele>171.0</ele><time>2012-07-19T13:01:46.0000000+00:00</time></trkpt><trkpt lat="64.20494843" lon="-21.03918076"><ele>170.9</ele><time>2012-07-19T13:01:51.0000000+00:00</time></trkpt><trkpt lat="64.20480347" lon="-21.03898621"><ele>170.9</ele><time>2012-07-19T13:01:56.0000000+00:00</time></trkpt><trkpt lat="64.20463562" lon="-21.03876495"><ele>170.9</ele><time>2012-07-19T13:02:01.0000000+00:00</time></trkpt><trkpt lat="64.20445252" lon="-21.03854752"><ele>170.5</ele><time>2012-07-19T13:02:06.0000000+00:00</time></trkpt><trkpt lat="64.20425415" lon="-21.03829575"><ele>170.2</ele><time>2012-07-19T13:02:11.0000000+00:00</time></trkpt><trkpt lat="64.20404816" lon="-21.03800392"><ele>170.1</ele><time>2012-07-19T13:02:16.0000000+00:00</time></trkpt><trkpt lat="64.20381928" lon="-21.03769112"><ele>169.6</ele><time>2012-07-19T13:02:21.0000000+00:00</time></trkpt><trkpt lat="64.20358276" lon="-21.03739739"><ele>169.7</ele><time>2012-07-19T13:02:26.0000000+00:00</time></trkpt><trkpt lat="64.20335388" lon="-21.03708839"><ele>169.9</ele><time>2012-07-19T13:02:31.0000000+00:00</time></trkpt><trkpt lat="64.20313263" lon="-21.03680229"><ele>170.2</ele><time>2012-07-19T13:02:36.0000000+00:00</time></trkpt><trkpt lat="64.20292664" lon="-21.0365448"><ele>169.8</ele><time>2012-07-19T13:02:41.0000000+00:00</time></trkpt><trkpt lat="64.20274353" lon="-21.03629112"><ele>170.0</ele><time>2012-07-19T13:02:46.0000000+00:00</time></trkpt><trkpt lat="64.2025528" lon="-21.03604698"><ele>169.9</ele><time>2012-07-19T13:02:51.0000000+00:00</time></trkpt><trkpt lat="64.20236969" lon="-21.03579712"><ele>170.0</ele><time>2012-07-19T13:02:56.0000000+00:00</time></trkpt><trkpt lat="64.20218658" lon="-21.03555298"><ele>169.4</ele><time>2012-07-19T13:03:01.0000000+00:00</time></trkpt><trkpt lat="64.20198059" lon="-21.03528214"><ele>169.3</ele><time>2012-07-19T13:03:06.0000000+00:00</time></trkpt><trkpt lat="64.2017746" lon="-21.03499603"><ele>168.9</ele><time>2012-07-19T13:03:11.0000000+00:00</time></trkpt><trkpt lat="64.20154572" lon="-21.03470039"><ele>168.3</ele><time>2012-07-19T13:03:16.0000000+00:00</time></trkpt><trkpt lat="64.20131683" lon="-21.03440666"><ele>167.7</ele><time>2012-07-19T13:03:21.0000000+00:00</time></trkpt><trkpt lat="64.20108795" lon="-21.03410721"><ele>167.1</ele><time>2012-07-19T13:03:26.0000000+00:00</time></trkpt><trkpt lat="64.20085907" lon="-21.0338192"><ele>166.4</ele><time>2012-07-19T13:03:31.0000000+00:00</time></trkpt><trkpt lat="64.20063782" lon="-21.03352737"><ele>166.4</ele><time>2012-07-19T13:03:36.0000000+00:00</time></trkpt><trkpt lat="64.20043945" lon="-21.03325653"><ele>166.5</ele><time>2012-07-19T13:03:41.0000000+00:00</time></trkpt><trkpt lat="64.20027161" lon="-21.03302002"><ele>166.6</ele><time>2012-07-19T13:03:46.0000000+00:00</time></trkpt><trkpt lat="64.20009613" lon="-21.03279686"><ele>166.7</ele><time>2012-07-19T13:03:51.0000000+00:00</time></trkpt><trkpt lat="64.19994354" lon="-21.03258705"><ele>166.7</ele><time>2012-07-19T13:03:56.0000000+00:00</time></trkpt><trkpt lat="64.19976807" lon="-21.03236008"><ele>166.6</ele><time>2012-07-19T13:04:01.0000000+00:00</time></trkpt><trkpt lat="64.19957733" lon="-21.03209877"><ele>166.6</ele><time>2012-07-19T13:04:06.0000000+00:00</time></trkpt><trkpt lat="64.19937134" lon="-21.03183365"><ele>166.7</ele><time>2012-07-19T13:04:11.0000000+00:00</time></trkpt><trkpt lat="64.19919586" lon="-21.03158951"><ele>167.0</ele><time>2012-07-19T13:04:16.0000000+00:00</time></trkpt><trkpt lat="64.1990509" lon="-21.03139114"><ele>167.1</ele><time>2012-07-19T13:04:21.0000000+00:00</time></trkpt><trkpt lat="64.19891357" lon="-21.03118897"><ele>167.0</ele><time>2012-07-19T13:04:26.0000000+00:00</time></trkpt><trkpt lat="64.19876099" lon="-21.03095627"><ele>167.4</ele><time>2012-07-19T13:04:31.0000000+00:00</time></trkpt><trkpt lat="64.1986084" lon="-21.03073883"><ele>167.7</ele><time>2012-07-19T13:04:36.0000000+00:00</time></trkpt><trkpt lat="64.19848633" lon="-21.03053284"><ele>167.6</ele><time>2012-07-19T13:04:41.0000000+00:00</time></trkpt><trkpt lat="64.198349" lon="-21.03031731"><ele>167.9</ele><time>2012-07-19T13:04:46.0000000+00:00</time></trkpt><trkpt lat="64.19822693" lon="-21.03009033"><ele>168.4</ele><time>2012-07-19T13:04:51.0000000+00:00</time></trkpt><trkpt lat="64.19811249" lon="-21.02988625"><ele>168.0</ele><time>2012-07-19T13:04:56.0000000+00:00</time></trkpt><trkpt lat="64.19799042" lon="-21.02963448"><ele>168.0</ele><time>2012-07-19T13:05:01.0000000+00:00</time></trkpt><trkpt lat="64.19786072" lon="-21.02938271"><ele>168.3</ele><time>2012-07-19T13:05:06.0000000+00:00</time></trkpt><trkpt lat="64.19773102" lon="-21.0290966"><ele>168.7</ele><time>2012-07-19T13:05:11.0000000+00:00</time></trkpt><trkpt lat="64.19760132" lon="-21.0288353"><ele>169.0</ele><time>2012-07-19T13:05:16.0000000+00:00</time></trkpt><trkpt lat="64.19747925" lon="-21.02857971"><ele>168.9</ele><time>2012-07-19T13:05:21.0000000+00:00</time></trkpt><trkpt lat="64.19736481" lon="-21.02830887"><ele>168.8</ele><time>2012-07-19T13:05:26.0000000+00:00</time></trkpt><trkpt lat="64.19724274" lon="-21.02802658"><ele>168.6</ele><time>2012-07-19T13:05:31.0000000+00:00</time></trkpt><trkpt lat="64.19709778" lon="-21.02770042"><ele>168.3</ele><time>2012-07-19T13:05:36.0000000+00:00</time></trkpt><trkpt lat="64.19696808" lon="-21.02739716"><ele>168.0</ele><time>2012-07-19T13:05:41.0000000+00:00</time></trkpt><trkpt lat="64.19684601" lon="-21.02701187"><ele>167.3</ele><time>2012-07-19T13:05:46.0000000+00:00</time></trkpt><trkpt lat="64.19671631" lon="-21.0266571"><ele>166.9</ele><time>2012-07-19T13:05:51.0000000+00:00</time></trkpt><trkpt lat="64.19661713" lon="-21.02634621"><ele>166.6</ele><time>2012-07-19T13:05:56.0000000+00:00</time></trkpt><trkpt lat="64.19650269" lon="-21.02599526"><ele>166.1</ele><time>2012-07-19T13:06:01.0000000+00:00</time></trkpt><trkpt lat="64.19638062" lon="-21.02560997"><ele>165.7</ele><time>2012-07-19T13:06:06.0000000+00:00</time></trkpt><trkpt lat="64.19625092" lon="-21.02518082"><ele>165.1</ele><time>2012-07-19T13:06:11.0000000+00:00</time></trkpt><trkpt lat="64.19612885" lon="-21.02472687"><ele>164.4</ele><time>2012-07-19T13:06:16.0000000+00:00</time></trkpt><trkpt lat="64.19600678" lon="-21.02425385"><ele>164.1</ele><time>2012-07-19T13:06:21.0000000+00:00</time></trkpt><trkpt lat="64.19588471" lon="-21.02376747"><ele>162.9</ele><time>2012-07-19T13:06:26.0000000+00:00</time></trkpt><trkpt lat="64.19577026" lon="-21.02328491"><ele>162.5</ele><time>2012-07-19T13:06:31.0000000+00:00</time></trkpt><trkpt lat="64.19567108" lon="-21.02276421"><ele>160.4</ele><time>2012-07-19T13:06:36.0000000+00:00</time></trkpt><trkpt lat="64.19556427" lon="-21.02222824"><ele>160.1</ele><time>2012-07-19T13:06:41.0000000+00:00</time></trkpt><trkpt lat="64.19546509" lon="-21.02170754"><ele>160.2</ele><time>2012-07-19T13:06:46.0000000+00:00</time></trkpt><trkpt lat="64.19537354" lon="-21.02118874"><ele>159.1</ele><time>2012-07-19T13:06:51.0000000+00:00</time></trkpt><trkpt lat="64.19528961" lon="-21.02065086"><ele>158.4</ele><time>2012-07-19T13:06:56.0000000+00:00</time></trkpt><trkpt lat="64.19520569" lon="-21.02010727"><ele>159.3</ele><time>2012-07-19T13:07:01.0000000+00:00</time></trkpt><trkpt lat="64.1951294" lon="-21.01955605"><ele>159.1</ele><time>2012-07-19T13:07:06.0000000+00:00</time></trkpt><trkpt lat="64.19506073" lon="-21.01902771"><ele>156.7</ele><time>2012-07-19T13:07:11.0000000+00:00</time></trkpt><trkpt lat="64.19500732" lon="-21.01853561"><ele>155.1</ele><time>2012-07-19T13:07:16.0000000+00:00</time></trkpt><trkpt lat="64.19495392" lon="-21.01800919"><ele>153.3</ele><time>2012-07-19T13:07:21.0000000+00:00</time></trkpt><trkpt lat="64.19491577" lon="-21.01747513"><ele>152.4</ele><time>2012-07-19T13:07:26.0000000+00:00</time></trkpt><trkpt lat="64.19487763" lon="-21.01692963"><ele>150.6</ele><time>2012-07-19T13:07:31.0000000+00:00</time></trkpt><trkpt lat="64.19483948" lon="-21.01639748"><ele>149.2</ele><time>2012-07-19T13:07:36.0000000+00:00</time></trkpt><trkpt lat="64.19481659" lon="-21.01593971"><ele>148.9</ele><time>2012-07-19T13:07:41.0000000+00:00</time></trkpt><trkpt lat="64.19480896" lon="-21.0154438"><ele>150.2</ele><time>2012-07-19T13:07:46.0000000+00:00</time></trkpt><trkpt lat="64.19480133" lon="-21.01497841"><ele>152.7</ele><time>2012-07-19T13:07:51.0000000+00:00</time></trkpt><trkpt lat="64.19478607" lon="-21.01451683"><ele>153.0</ele><time>2012-07-19T13:07:56.0000000+00:00</time></trkpt><trkpt lat="64.1947937" lon="-21.01404381"><ele>151.9</ele><time>2012-07-19T13:08:01.0000000+00:00</time></trkpt><trkpt lat="64.1947937" lon="-21.01357079"><ele>153.0</ele><time>2012-07-19T13:08:06.0000000+00:00</time></trkpt><trkpt lat="64.1947937" lon="-21.01310158"><ele>153.9</ele><time>2012-07-19T13:08:11.0000000+00:00</time></trkpt><trkpt lat="64.19480133" lon="-21.0126133"><ele>153.8</ele><time>2012-07-19T13:08:16.0000000+00:00</time></trkpt><trkpt lat="64.19482422" lon="-21.01212311"><ele>155.5</ele><time>2012-07-19T13:08:21.0000000+00:00</time></trkpt><trkpt lat="64.19484711" lon="-21.01163864"><ele>155.0</ele><time>2012-07-19T13:08:26.0000000+00:00</time></trkpt><trkpt lat="64.19487" lon="-21.01118851"><ele>155.7</ele><time>2012-07-19T13:08:31.0000000+00:00</time></trkpt><trkpt lat="64.19489288" lon="-21.01073074"><ele>156.2</ele><time>2012-07-19T13:08:36.0000000+00:00</time></trkpt><trkpt lat="64.1949234" lon="-21.01025772"><ele>157.2</ele><time>2012-07-19T13:08:41.0000000+00:00</time></trkpt><trkpt lat="64.19494629" lon="-21.00985336"><ele>158.1</ele><time>2012-07-19T13:08:46.0000000+00:00</time></trkpt><trkpt lat="64.19496155" lon="-21.00951767"><ele>158.5</ele><time>2012-07-19T13:08:51.0000000+00:00</time></trkpt><trkpt lat="64.19499207" lon="-21.00915909"><ele>159.3</ele><time>2012-07-19T13:08:56.0000000+00:00</time></trkpt><trkpt lat="64.19500732" lon="-21.00880241"><ele>160.2</ele><time>2012-07-19T13:09:01.0000000+00:00</time></trkpt><trkpt lat="64.19503021" lon="-21.00849915"><ele>160.5</ele><time>2012-07-19T13:09:06.0000000+00:00</time></trkpt><trkpt lat="64.19504547" lon="-21.00822067"><ele>160.9</ele><time>2012-07-19T13:09:11.0000000+00:00</time></trkpt><trkpt lat="64.19506073" lon="-21.00794601"><ele>161.6</ele><time>2012-07-19T13:09:16.0000000+00:00</time></trkpt><trkpt lat="64.19507599" lon="-21.00775147"><ele>162.1</ele><time>2012-07-19T13:09:21.0000000+00:00</time></trkpt><trkpt lat="64.19508362" lon="-21.00761414"><ele>162.4</ele><time>2012-07-19T13:09:26.0000000+00:00</time></trkpt><trkpt lat="64.19509125" lon="-21.00741005"><ele>162.8</ele><time>2012-07-19T13:09:31.0000000+00:00</time></trkpt><trkpt lat="64.19510651" lon="-21.0071907"><ele>163.2</ele><time>2012-07-19T13:09:36.0000000+00:00</time></trkpt><trkpt lat="64.19512177" lon="-21.00695419"><ele>163.4</ele><time>2012-07-19T13:09:41.0000000+00:00</time></trkpt><trkpt lat="64.19513702" lon="-21.00671196"><ele>164.0</ele><time>2012-07-19T13:09:46.0000000+00:00</time></trkpt><trkpt lat="64.19515228" lon="-21.00641251"><ele>164.4</ele><time>2012-07-19T13:09:51.0000000+00:00</time></trkpt><trkpt lat="64.19516754" lon="-21.00613403"><ele>164.6</ele><time>2012-07-19T13:09:56.0000000+00:00</time></trkpt><trkpt lat="64.19519043" lon="-21.00583839"><ele>165.3</ele><time>2012-07-19T13:10:01.0000000+00:00</time></trkpt><trkpt lat="64.19520569" lon="-21.0055542"><ele>165.6</ele><time>2012-07-19T13:10:06.0000000+00:00</time></trkpt><trkpt lat="64.19522858" lon="-21.00525093"><ele>166.1</ele><time>2012-07-19T13:10:11.0000000+00:00</time></trkpt><trkpt lat="64.19524384" lon="-21.0049324"><ele>166.9</ele><time>2012-07-19T13:10:16.0000000+00:00</time></trkpt><trkpt lat="64.19526672" lon="-21.00463295"><ele>167.4</ele><time>2012-07-19T13:10:21.0000000+00:00</time></trkpt><trkpt lat="64.19528198" lon="-21.00432777"><ele>167.9</ele><time>2012-07-19T13:10:26.0000000+00:00</time></trkpt><trkpt lat="64.19529724" lon="-21.0039959"><ele>168.5</ele><time>2012-07-19T13:10:31.0000000+00:00</time></trkpt><trkpt lat="64.19532013" lon="-21.00367165"><ele>169.0</ele><time>2012-07-19T13:10:36.0000000+00:00</time></trkpt><trkpt lat="64.19535065" lon="-21.00333405"><ele>169.5</ele><time>2012-07-19T13:10:41.0000000+00:00</time></trkpt><trkpt lat="64.19536591" lon="-21.00300217"><ele>169.9</ele><time>2012-07-19T13:10:46.0000000+00:00</time></trkpt><trkpt lat="64.19538879" lon="-21.0026741"><ele>170.3</ele><time>2012-07-19T13:10:51.0000000+00:00</time></trkpt><trkpt lat="64.19541168" lon="-21.00231552"><ele>170.7</ele><time>2012-07-19T13:10:56.0000000+00:00</time></trkpt><trkpt lat="64.19543457" lon="-21.00194168"><ele>170.9</ele><time>2012-07-19T13:11:01.0000000+00:00</time></trkpt><trkpt lat="64.19545746" lon="-21.00154495"><ele>171.2</ele><time>2012-07-19T13:11:06.0000000+00:00</time></trkpt><trkpt lat="64.19548035" lon="-21.00115204"><ele>171.5</ele><time>2012-07-19T13:11:11.0000000+00:00</time></trkpt><trkpt lat="64.19551086" lon="-21.00073052"><ele>171.9</ele><time>2012-07-19T13:11:16.0000000+00:00</time></trkpt><trkpt lat="64.19552612" lon="-21.00035667"><ele>172.5</ele><time>2012-07-19T13:11:21.0000000+00:00</time></trkpt><trkpt lat="64.19554901" lon="-20.99996948"><ele>172.7</ele><time>2012-07-19T13:11:26.0000000+00:00</time></trkpt><trkpt lat="64.1955719" lon="-20.99958801"><ele>173.3</ele><time>2012-07-19T13:11:31.0000000+00:00</time></trkpt><trkpt lat="64.19559479" lon="-20.99921227"><ele>173.7</ele><time>2012-07-19T13:11:36.0000000+00:00</time></trkpt><trkpt lat="64.19562531" lon="-20.99881935"><ele>173.7</ele><time>2012-07-19T13:11:41.0000000+00:00</time></trkpt><trkpt lat="64.19564056" lon="-20.99843979"><ele>174.2</ele><time>2012-07-19T13:11:46.0000000+00:00</time></trkpt><trkpt lat="64.19566345" lon="-20.99806786"><ele>174.6</ele><time>2012-07-19T13:11:51.0000000+00:00</time></trkpt><trkpt lat="64.19569397" lon="-20.99767494"><ele>175.1</ele><time>2012-07-19T13:11:56.0000000+00:00</time></trkpt><trkpt lat="64.19571686" lon="-20.99726868"><ele>175.5</ele><time>2012-07-19T13:12:01.0000000+00:00</time></trkpt><trkpt lat="64.19573975" lon="-20.99687958"><ele>176.1</ele><time>2012-07-19T13:12:06.0000000+00:00</time></trkpt><trkpt lat="64.19576263" lon="-20.99653053"><ele>176.1</ele><time>2012-07-19T13:12:11.0000000+00:00</time></trkpt><trkpt lat="64.19578552" lon="-20.9961319"><ele>176.7</ele><time>2012-07-19T13:12:16.0000000+00:00</time></trkpt><trkpt lat="64.19580841" lon="-20.99571228"><ele>177.1</ele><time>2012-07-19T13:12:21.0000000+00:00</time></trkpt><trkpt lat="64.19583893" lon="-20.9952755"><ele>177.5</ele><time>2012-07-19T13:12:26.0000000+00:00</time></trkpt><trkpt lat="64.19586182" lon="-20.99481583"><ele>177.7</ele><time>2012-07-19T13:12:31.0000000+00:00</time></trkpt><trkpt lat="64.19588471" lon="-20.99433327"><ele>178.3</ele><time>2012-07-19T13:12:36.0000000+00:00</time></trkpt><trkpt lat="64.19590759" lon="-20.99384689"><ele>178.0</ele><time>2012-07-19T13:12:41.0000000+00:00</time></trkpt><trkpt lat="64.19593811" lon="-20.99337769"><ele>178.3</ele><time>2012-07-19T13:12:46.0000000+00:00</time></trkpt><trkpt lat="64.19596863" lon="-20.99291039"><ele>178.2</ele><time>2012-07-19T13:12:51.0000000+00:00</time></trkpt><trkpt lat="64.19599152" lon="-20.99244499"><ele>177.7</ele><time>2012-07-19T13:12:56.0000000+00:00</time></trkpt><trkpt lat="64.1960144" lon="-20.99199677"><ele>178.4</ele><time>2012-07-19T13:13:01.0000000+00:00</time></trkpt><trkpt lat="64.19603729" lon="-20.9915638"><ele>178.8</ele><time>2012-07-19T13:13:06.0000000+00:00</time></trkpt><trkpt lat="64.19606018" lon="-20.99113846"><ele>179.1</ele><time>2012-07-19T13:13:11.0000000+00:00</time></trkpt><trkpt lat="64.19606781" lon="-20.99070549"><ele>179.3</ele><time>2012-07-19T13:13:16.0000000+00:00</time></trkpt><trkpt lat="64.1960907" lon="-20.99026489"><ele>180.0</ele><time>2012-07-19T13:13:21.0000000+00:00</time></trkpt><trkpt lat="64.19610596" lon="-20.98983002"><ele>180.4</ele><time>2012-07-19T13:13:26.0000000+00:00</time></trkpt><trkpt lat="64.19612122" lon="-20.98939705"><ele>180.4</ele><time>2012-07-19T13:13:31.0000000+00:00</time></trkpt><trkpt lat="64.19613648" lon="-20.98896599"><ele>179.5</ele><time>2012-07-19T13:13:36.0000000+00:00</time></trkpt><trkpt lat="64.1961441" lon="-20.98854828"><ele>179.1</ele><time>2012-07-19T13:13:41.0000000+00:00</time></trkpt><trkpt lat="64.19615173" lon="-20.98812485"><ele>177.8</ele><time>2012-07-19T13:13:46.0000000+00:00</time></trkpt><trkpt lat="64.19615936" lon="-20.98769379"><ele>177.9</ele><time>2012-07-19T13:13:51.0000000+00:00</time></trkpt><trkpt lat="64.19617462" lon="-20.98726845"><ele>178.2</ele><time>2012-07-19T13:13:56.0000000+00:00</time></trkpt><trkpt lat="64.19617462" lon="-20.98682976"><ele>177.4</ele><time>2012-07-19T13:14:01.0000000+00:00</time></trkpt><trkpt lat="64.19617462" lon="-20.98637199"><ele>177.9</ele><time>2012-07-19T13:14:06.0000000+00:00</time></trkpt><trkpt lat="64.19618225" lon="-20.98591995"><ele>178.0</ele><time>2012-07-19T13:14:11.0000000+00:00</time></trkpt><trkpt lat="64.19618225" lon="-20.98548126"><ele>178.6</ele><time>2012-07-19T13:14:16.0000000+00:00</time></trkpt><trkpt lat="64.19618988" lon="-20.98503685"><ele>178.3</ele><time>2012-07-19T13:14:21.0000000+00:00</time></trkpt><trkpt lat="64.19618988" lon="-20.98461533"><ele>177.4</ele><time>2012-07-19T13:14:26.0000000+00:00</time></trkpt><trkpt lat="64.19618225" lon="-20.98417091"><ele>177.1</ele><time>2012-07-19T13:14:31.0000000+00:00</time></trkpt><trkpt lat="64.19617462" lon="-20.98376274"><ele>177.1</ele><time>2012-07-19T13:14:36.0000000+00:00</time></trkpt><trkpt lat="64.19617462" lon="-20.9833622"><ele>177.5</ele><time>2012-07-19T13:14:41.0000000+00:00</time></trkpt><trkpt lat="64.19615936" lon="-20.98293686"><ele>178.6</ele><time>2012-07-19T13:14:46.0000000+00:00</time></trkpt><trkpt lat="64.19615173" lon="-20.98256874"><ele>178.8</ele><time>2012-07-19T13:14:51.0000000+00:00</time></trkpt><trkpt lat="64.19615173" lon="-20.98217392"><ele>177.9</ele><time>2012-07-19T13:14:56.0000000+00:00</time></trkpt><trkpt lat="64.19613648" lon="-20.98177338"><ele>177.7</ele><time>2012-07-19T13:15:01.0000000+00:00</time></trkpt><trkpt lat="64.19612885" lon="-20.98135376"><ele>179.3</ele><time>2012-07-19T13:15:06.0000000+00:00</time></trkpt><trkpt lat="64.19612122" lon="-20.98096657"><ele>180.1</ele><time>2012-07-19T13:15:11.0000000+00:00</time></trkpt><trkpt lat="64.19610596" lon="-20.98060989"><ele>180.6</ele><time>2012-07-19T13:15:16.0000000+00:00</time></trkpt><trkpt lat="64.19609833" lon="-20.98031235"><ele>180.4</ele><time>2012-07-19T13:15:21.0000000+00:00</time></trkpt><trkpt lat="64.19606781" lon="-20.97999764"><ele>180.3</ele><time>2012-07-19T13:15:26.0000000+00:00</time></trkpt><trkpt lat="64.19605255" lon="-20.9796772"><ele>181.1</ele><time>2012-07-19T13:15:31.0000000+00:00</time></trkpt><trkpt lat="64.19606018" lon="-20.97941589"><ele>181.8</ele><time>2012-07-19T13:15:36.0000000+00:00</time></trkpt><trkpt lat="64.19604492" lon="-20.97905541"><ele>182.1</ele><time>2012-07-19T13:15:41.0000000+00:00</time></trkpt><trkpt lat="64.19602966" lon="-20.97868347"><ele>182.8</ele><time>2012-07-19T13:15:46.0000000+00:00</time></trkpt><trkpt lat="64.19600678" lon="-20.97833633"><ele>183.2</ele><time>2012-07-19T13:15:51.0000000+00:00</time></trkpt><trkpt lat="64.19599152" lon="-20.97800446"><ele>183.4</ele><time>2012-07-19T13:15:56.0000000+00:00</time></trkpt><trkpt lat="64.19597626" lon="-20.97765732"><ele>184.3</ele><time>2012-07-19T13:16:01.0000000+00:00</time></trkpt><trkpt lat="64.19594574" lon="-20.97736931"><ele>185.8</ele><time>2012-07-19T13:16:06.0000000+00:00</time></trkpt><trkpt lat="64.19592285" lon="-20.97703934"><ele>187.3</ele><time>2012-07-19T13:16:11.0000000+00:00</time></trkpt><trkpt lat="64.19590759" lon="-20.97670746"><ele>187.5</ele><time>2012-07-19T13:16:16.0000000+00:00</time></trkpt><trkpt lat="64.19588471" lon="-20.97636223"><ele>188.8</ele><time>2012-07-19T13:16:21.0000000+00:00</time></trkpt><trkpt lat="64.19586182" lon="-20.97603607"><ele>189.6</ele><time>2012-07-19T13:16:26.0000000+00:00</time></trkpt><trkpt lat="64.19584656" lon="-20.97572517"><ele>190.0</ele><time>2012-07-19T13:16:31.0000000+00:00</time></trkpt><trkpt lat="64.19582367" lon="-20.97547531"><ele>190.8</ele><time>2012-07-19T13:16:36.0000000+00:00</time></trkpt><trkpt lat="64.19580841" lon="-20.97524262"><ele>191.9</ele><time>2012-07-19T13:16:41.0000000+00:00</time></trkpt><trkpt lat="64.19579315" lon="-20.97494888"><ele>193.0</ele><time>2012-07-19T13:16:46.0000000+00:00</time></trkpt><trkpt lat="64.19576263" lon="-20.97464943"><ele>194.0</ele><time>2012-07-19T13:16:51.0000000+00:00</time></trkpt><trkpt lat="64.19573975" lon="-20.97435761"><ele>193.5</ele><time>2012-07-19T13:16:56.0000000+00:00</time></trkpt><trkpt lat="64.19571686" lon="-20.97406578"><ele>193.9</ele><time>2012-07-19T13:17:01.0000000+00:00</time></trkpt><trkpt lat="64.19569397" lon="-20.97376061"><ele>194.3</ele><time>2012-07-19T13:17:06.0000000+00:00</time></trkpt><trkpt lat="64.19567108" lon="-20.97345161"><ele>194.3</ele><time>2012-07-19T13:17:11.0000000+00:00</time></trkpt><trkpt lat="64.19564819" lon="-20.97316933"><ele>194.1</ele><time>2012-07-19T13:17:16.0000000+00:00</time></trkpt><trkpt lat="64.19561005" lon="-20.97286415"><ele>195.0</ele><time>2012-07-19T13:17:21.0000000+00:00</time></trkpt><trkpt lat="64.19559479" lon="-20.97256851"><ele>194.8</ele><time>2012-07-19T13:17:26.0000000+00:00</time></trkpt><trkpt lat="64.19556427" lon="-20.97226143"><ele>195.5</ele><time>2012-07-19T13:17:31.0000000+00:00</time></trkpt><trkpt lat="64.19553375" lon="-20.97194672"><ele>195.8</ele><time>2012-07-19T13:17:36.0000000+00:00</time></trkpt><trkpt lat="64.19549561" lon="-20.9716568"><ele>197.0</ele><time>2012-07-19T13:17:41.0000000+00:00</time></trkpt><trkpt lat="64.19547272" lon="-20.97132301"><ele>197.4</ele><time>2012-07-19T13:17:46.0000000+00:00</time></trkpt><trkpt lat="64.1954422" lon="-20.9710083"><ele>197.6</ele><time>2012-07-19T13:17:51.0000000+00:00</time></trkpt><trkpt lat="64.19541168" lon="-20.97070885"><ele>197.7</ele><time>2012-07-19T13:17:56.0000000+00:00</time></trkpt><trkpt lat="64.19536591" lon="-20.97037125"><ele>199.3</ele><time>2012-07-19T13:18:01.0000000+00:00</time></trkpt><trkpt lat="64.19533539" lon="-20.97003555"><ele>199.7</ele><time>2012-07-19T13:18:06.0000000+00:00</time></trkpt><trkpt lat="64.19529724" lon="-20.96965599"><ele>200.3</ele><time>2012-07-19T13:18:11.0000000+00:00</time></trkpt><trkpt lat="64.19525147" lon="-20.96929932"><ele>201.2</ele><time>2012-07-19T13:18:16.0000000+00:00</time></trkpt><trkpt lat="64.19520569" lon="-20.96891785"><ele>201.7</ele><time>2012-07-19T13:18:21.0000000+00:00</time></trkpt><trkpt lat="64.19515228" lon="-20.9685421"><ele>202.8</ele><time>2012-07-19T13:18:26.0000000+00:00</time></trkpt><trkpt lat="64.19510651" lon="-20.96813202"><ele>201.7</ele><time>2012-07-19T13:18:31.0000000+00:00</time></trkpt><trkpt lat="64.19506073" lon="-20.96769905"><ele>200.6</ele><time>2012-07-19T13:18:36.0000000+00:00</time></trkpt><trkpt lat="64.19501495" lon="-20.96725845"><ele>199.5</ele><time>2012-07-19T13:18:41.0000000+00:00</time></trkpt><trkpt lat="64.19495392" lon="-20.96682549"><ele>200.1</ele><time>2012-07-19T13:18:46.0000000+00:00</time></trkpt><trkpt lat="64.19490051" lon="-20.96638298"><ele>199.2</ele><time>2012-07-19T13:18:51.0000000+00:00</time></trkpt><trkpt lat="64.19483948" lon="-20.96594429"><ele>199.2</ele><time>2012-07-19T13:18:56.0000000+00:00</time></trkpt><trkpt lat="64.19478607" lon="-20.96547127"><ele>198.4</ele><time>2012-07-19T13:19:01.0000000+00:00</time></trkpt><trkpt lat="64.19471741" lon="-20.96498299"><ele>197.7</ele><time>2012-07-19T13:19:06.0000000+00:00</time></trkpt><trkpt lat="64.19464874" lon="-20.96446228"><ele>198.3</ele><time>2012-07-19T13:19:11.0000000+00:00</time></trkpt><trkpt lat="64.19459534" lon="-20.96396256"><ele>198.5</ele><time>2012-07-19T13:19:16.0000000+00:00</time></trkpt><trkpt lat="64.1945343" lon="-20.9634037"><ele>198.0</ele><time>2012-07-19T13:19:21.0000000+00:00</time></trkpt><trkpt lat="64.19446564" lon="-20.96282387"><ele>198.6</ele><time>2012-07-19T13:19:26.0000000+00:00</time></trkpt><trkpt lat="64.19439697" lon="-20.96224403"><ele>198.0</ele><time>2012-07-19T13:19:31.0000000+00:00</time></trkpt><trkpt lat="64.19434357" lon="-20.9617672"><ele>198.0</ele><time>2012-07-19T13:19:36.0000000+00:00</time></trkpt><trkpt lat="64.19429779" lon="-20.96134758"><ele>197.7</ele><time>2012-07-19T13:19:41.0000000+00:00</time></trkpt><trkpt lat="64.19424439" lon="-20.96089363"><ele>197.7</ele><time>2012-07-19T13:19:46.0000000+00:00</time></trkpt><trkpt lat="64.19417572" lon="-20.96043015"><ele>197.8</ele><time>2012-07-19T13:19:51.0000000+00:00</time></trkpt><trkpt lat="64.19413757" lon="-20.96005631"><ele>199.1</ele><time>2012-07-19T13:19:56.0000000+00:00</time></trkpt><trkpt lat="64.19408417" lon="-20.95966721"><ele>199.3</ele><time>2012-07-19T13:20:01.0000000+00:00</time></trkpt><trkpt lat="64.19402313" lon="-20.95921135"><ele>199.7</ele><time>2012-07-19T13:20:06.0000000+00:00</time></trkpt><trkpt lat="64.19397736" lon="-20.95871544"><ele>199.3</ele><time>2012-07-19T13:20:11.0000000+00:00</time></trkpt><trkpt lat="64.19390869" lon="-20.95823097"><ele>200.0</ele><time>2012-07-19T13:20:16.0000000+00:00</time></trkpt><trkpt lat="64.19384003" lon="-20.95774651"><ele>200.9</ele><time>2012-07-19T13:20:21.0000000+00:00</time></trkpt><trkpt lat="64.19378662" lon="-20.95724106"><ele>201.4</ele><time>2012-07-19T13:20:26.0000000+00:00</time></trkpt><trkpt lat="64.19372559" lon="-20.95671272"><ele>202.3</ele><time>2012-07-19T13:20:31.0000000+00:00</time></trkpt><trkpt lat="64.19365692" lon="-20.9561863"><ele>202.2</ele><time>2012-07-19T13:20:36.0000000+00:00</time></trkpt><trkpt lat="64.19360352" lon="-20.95569611"><ele>202.2</ele><time>2012-07-19T13:20:41.0000000+00:00</time></trkpt><trkpt lat="64.19355774" lon="-20.95529556"><ele>202.3</ele><time>2012-07-19T13:20:46.0000000+00:00</time></trkpt><trkpt lat="64.19350433" lon="-20.95489502"><ele>202.5</ele><time>2012-07-19T13:20:51.0000000+00:00</time></trkpt><trkpt lat="64.19345093" lon="-20.95450783"><ele>202.0</ele><time>2012-07-19T13:20:56.0000000+00:00</time></trkpt><trkpt lat="64.19340515" lon="-20.95415688"><ele>202.3</ele><time>2012-07-19T13:21:01.0000000+00:00</time></trkpt><trkpt lat="64.19335938" lon="-20.95379257"><ele>204.1</ele><time>2012-07-19T13:21:06.0000000+00:00</time></trkpt><trkpt lat="64.19329834" lon="-20.95334625"><ele>204.7</ele><time>2012-07-19T13:21:11.0000000+00:00</time></trkpt><trkpt lat="64.19324493" lon="-20.95286751"><ele>204.4</ele><time>2012-07-19T13:21:16.0000000+00:00</time></trkpt><trkpt lat="64.19319153" lon="-20.95239449"><ele>205.5</ele><time>2012-07-19T13:21:21.0000000+00:00</time></trkpt><trkpt lat="64.19313049" lon="-20.95191193"><ele>206.7</ele><time>2012-07-19T13:21:26.0000000+00:00</time></trkpt><trkpt lat="64.19307709" lon="-20.95147896"><ele>206.3</ele><time>2012-07-19T13:21:31.0000000+00:00</time></trkpt><trkpt lat="64.19303894" lon="-20.95103073"><ele>206.2</ele><time>2012-07-19T13:21:36.0000000+00:00</time></trkpt><trkpt lat="64.19298554" lon="-20.95059776"><ele>207.3</ele><time>2012-07-19T13:21:41.0000000+00:00</time></trkpt><trkpt lat="64.19293976" lon="-20.95015717"><ele>206.5</ele><time>2012-07-19T13:21:46.0000000+00:00</time></trkpt><trkpt lat="64.19284821" lon="-20.94991493"><ele>207.7</ele><time>2012-07-19T13:21:51.0000000+00:00</time></trkpt><trkpt lat="64.19269562" lon="-20.94994545"><ele>208.4</ele><time>2012-07-19T13:21:56.0000000+00:00</time></trkpt><trkpt lat="64.19256592" lon="-20.95023727"><ele>212.0</ele><time>2012-07-19T13:22:01.0000000+00:00</time></trkpt><trkpt lat="64.19252777" lon="-20.95063973"><ele>213.5</ele><time>2012-07-19T13:22:06.0000000+00:00</time></trkpt><trkpt lat="64.19248962" lon="-20.95100784"><ele>214.6</ele><time>2012-07-19T13:22:11.0000000+00:00</time></trkpt><trkpt lat="64.19243622" lon="-20.95121002"><ele>215.0</ele><time>2012-07-19T13:22:16.0000000+00:00</time></trkpt><trkpt lat="64.19239807" lon="-20.95135117"><ele>214.9</ele><time>2012-07-19T13:22:21.0000000+00:00</time></trkpt><trkpt lat="64.19239044" lon="-20.95134163"><ele>214.1</ele><time>2012-07-19T13:22:26.0000000+00:00</time></trkpt><trkpt lat="64.19237518" lon="-20.95133781"><ele>213.9</ele><time>2012-07-19T13:22:31.0000000+00:00</time></trkpt><trkpt lat="64.19237518" lon="-20.95134735"><ele>213.8</ele><time>2012-07-19T13:22:36.0000000+00:00</time></trkpt><trkpt lat="64.19237518" lon="-20.9513588"><ele>213.7</ele><time>2012-07-19T13:22:41.0000000+00:00</time></trkpt><trkpt lat="64.19237518" lon="-20.9513607"><ele>213.7</ele><time>2012-07-19T13:22:46.0000000+00:00</time></trkpt><trkpt lat="64.19237518" lon="-20.9513588"><ele>213.7</ele><time>2012-07-19T13:22:51.0000000+00:00</time></trkpt><trkpt lat="64.19238281" lon="-20.9513588"><ele>213.7</ele><time>2012-07-19T13:22:56.0000000+00:00</time></trkpt><trkpt lat="64.19238281" lon="-20.9513607"><ele>213.6</ele><time>2012-07-19T13:23:01.0000000+00:00</time></trkpt><trkpt lat="64.19238281" lon="-20.95134926"><ele>213.6</ele><time>2012-07-19T13:23:06.0000000+00:00</time></trkpt><trkpt lat="64.19239044" lon="-20.95134926"><ele>213.6</ele><time>2012-07-19T13:23:11.0000000+00:00</time></trkpt><trkpt lat="64.19239044" lon="-20.95136452"><ele>213.5</ele><time>2012-07-19T13:23:16.0000000+00:00</time></trkpt><trkpt lat="64.19239044" lon="-20.95136261"><ele>213.3</ele><time>2012-07-19T13:23:21.0000000+00:00</time></trkpt><trkpt lat="64.19239044" lon="-20.95134735"><ele>213.3</ele><time>2012-07-19T13:23:26.0000000+00:00</time></trkpt><trkpt lat="64.19239044" lon="-20.951334"><ele>213.2</ele><time>2012-07-19T13:23:31.0000000+00:00</time></trkpt><trkpt lat="64.19239044" lon="-20.95132065"><ele>213.2</ele><time>2012-07-19T13:23:36.0000000+00:00</time></trkpt><trkpt lat="64.19239044" lon="-20.95131874"><ele>213.3</ele><time>2012-07-19T13:23:41.0000000+00:00</time></trkpt><trkpt lat="64.19239044" lon="-20.95132256"><ele>213.3</ele><time>2012-07-19T13:23:46.0000000+00:00</time></trkpt><trkpt lat="64.19239807" lon="-20.95133019"><ele>213.2</ele><time>2012-07-19T13:23:51.0000000+00:00</time></trkpt><trkpt lat="64.19239807" lon="-20.95134354"><ele>213.2</ele><time>2012-07-19T13:23:56.0000000+00:00</time></trkpt><trkpt lat="64.19239807" lon="-20.95134544"><ele>213.1</ele><time>2012-07-19T13:24:01.0000000+00:00</time></trkpt><trkpt lat="64.1924057" lon="-20.95133781"><ele>213.1</ele><time>2012-07-19T13:24:06.0000000+00:00</time></trkpt><trkpt lat="64.1924057" lon="-20.951334"><ele>213.0</ele><time>2012-07-19T13:24:11.0000000+00:00</time></trkpt><trkpt lat="64.1924057" lon="-20.95132446"><ele>213.0</ele><time>2012-07-19T13:24:16.0000000+00:00</time></trkpt><trkpt lat="64.19241333" lon="-20.95131874"><ele>212.9</ele><time>2012-07-19T13:24:21.0000000+00:00</time></trkpt><trkpt lat="64.19241333" lon="-20.95131111"><ele>212.9</ele><time>2012-07-19T13:24:26.0000000+00:00</time></trkpt><trkpt lat="64.19242096" lon="-20.95131111"><ele>212.8</ele><time>2012-07-19T13:24:31.0000000+00:00</time></trkpt><trkpt lat="64.19242096" lon="-20.95131111"><ele>212.8</ele><time>2012-07-19T13:24:36.0000000+00:00</time></trkpt><trkpt lat="64.19242096" lon="-20.9513092"><ele>212.7</ele><time>2012-07-19T13:24:41.0000000+00:00</time></trkpt><trkpt lat="64.19242096" lon="-20.9513092"><ele>212.7</ele><time>2012-07-19T13:24:46.0000000+00:00</time></trkpt><trkpt lat="64.19242096" lon="-20.9513092"><ele>212.7</ele><time>2012-07-19T13:24:51.0000000+00:00</time></trkpt><trkpt lat="64.19242096" lon="-20.9513092"><ele>212.7</ele><time>2012-07-19T13:24:56.0000000+00:00</time></trkpt><trkpt lat="64.19242096" lon="-20.9513092"><ele>212.6</ele><time>2012-07-19T13:25:01.0000000+00:00</time></trkpt><trkpt lat="64.19242096" lon="-20.9513092"><ele>212.7</ele><time>2012-07-19T13:25:06.0000000+00:00</time></trkpt><trkpt lat="64.19242096" lon="-20.9513092"><ele>212.6</ele><time>2012-07-19T13:25:11.0000000+00:00</time></trkpt><trkpt lat="64.19242096" lon="-20.9513092"><ele>212.6</ele><time>2012-07-19T13:25:16.0000000+00:00</time></trkpt><trkpt lat="64.19242096" lon="-20.9513092"><ele>212.6</ele><time>2012-07-19T13:25:21.0000000+00:00</time></trkpt><trkpt lat="64.19242096" lon="-20.9513092"><ele>212.6</ele><time>2012-07-19T13:25:26.0000000+00:00</time></trkpt><trkpt lat="64.19242096" lon="-20.9513092"><ele>212.6</ele><time>2012-07-19T13:25:31.0000000+00:00</time></trkpt><trkpt lat="64.19242096" lon="-20.9513092"><ele>212.6</ele><time>2012-07-19T13:25:36.0000000+00:00</time></trkpt><trkpt lat="64.19242096" lon="-20.9513092"><ele>212.5</ele><time>2012-07-19T13:25:41.0000000+00:00</time></trkpt><trkpt lat="64.19242096" lon="-20.9513092"><ele>212.5</ele><time>2012-07-19T13:25:46.0000000+00:00</time></trkpt><trkpt lat="64.19242096" lon="-20.9513092"><ele>212.5</ele><time>2012-07-19T13:25:51.0000000+00:00</time></trkpt><trkpt lat="64.19242096" lon="-20.9513092"><ele>212.5</ele><time>2012-07-19T13:25:56.0000000+00:00</time></trkpt><trkpt lat="64.19242096" lon="-20.9513092"><ele>212.5</ele><time>2012-07-19T13:26:01.0000000+00:00</time></trkpt><trkpt lat="64.19242096" lon="-20.9513092"><ele>212.5</ele><time>2012-07-19T13:26:06.0000000+00:00</time></trkpt><trkpt lat="64.19242096" lon="-20.9513092"><ele>212.5</ele><time>2012-07-19T13:26:11.0000000+00:00</time></trkpt><trkpt lat="64.19242096" lon="-20.9513092"><ele>212.4</ele><time>2012-07-19T13:26:16.0000000+00:00</time></trkpt><trkpt lat="64.19242096" lon="-20.9513092"><ele>212.4</ele><time>2012-07-19T13:26:21.0000000+00:00</time></trkpt><trkpt lat="64.19241333" lon="-20.9513092"><ele>212.4</ele><time>2012-07-19T13:26:26.0000000+00:00</time></trkpt><trkpt lat="64.19241333" lon="-20.9513073"><ele>212.4</ele><time>2012-07-19T13:26:31.0000000+00:00</time></trkpt><trkpt lat="64.19241333" lon="-20.9513073"><ele>212.4</ele><time>2012-07-19T13:26:36.0000000+00:00</time></trkpt><trkpt lat="64.19241333" lon="-20.9513073"><ele>212.4</ele><time>2012-07-19T13:26:41.0000000+00:00</time></trkpt><trkpt lat="64.19241333" lon="-20.9513073"><ele>212.3</ele><time>2012-07-19T13:26:46.0000000+00:00</time></trkpt><trkpt lat="64.19241333" lon="-20.9513073"><ele>212.3</ele><time>2012-07-19T13:26:51.0000000+00:00</time></trkpt><trkpt lat="64.19241333" lon="-20.9513073"><ele>212.3</ele><time>2012-07-19T13:26:56.0000000+00:00</time></trkpt><trkpt lat="64.19241333" lon="-20.9513073"><ele>212.3</ele><time>2012-07-19T13:27:01.0000000+00:00</time></trkpt><trkpt lat="64.19241333" lon="-20.9513073"><ele>212.2</ele><time>2012-07-19T13:27:06.0000000+00:00</time></trkpt><trkpt lat="64.19241333" lon="-20.95130539"><ele>212.2</ele><time>2012-07-19T13:27:11.0000000+00:00</time></trkpt><trkpt lat="64.19241333" lon="-20.95130539"><ele>212.2</ele><time>2012-07-19T13:27:16.0000000+00:00</time></trkpt><trkpt lat="64.19241333" lon="-20.95130539"><ele>212.2</ele><time>2012-07-19T13:27:21.0000000+00:00</time></trkpt><trkpt lat="64.19241333" lon="-20.95130539"><ele>212.2</ele><time>2012-07-19T13:27:26.0000000+00:00</time></trkpt><trkpt lat="64.19241333" lon="-20.95130348"><ele>212.1</ele><time>2012-07-19T13:27:31.0000000+00:00</time></trkpt><trkpt lat="64.19241333" lon="-20.95130348"><ele>212.1</ele><time>2012-07-19T13:27:36.0000000+00:00</time></trkpt><trkpt lat="64.19241333" lon="-20.95130348"><ele>212.1</ele><time>2012-07-19T13:27:41.0000000+00:00</time></trkpt><trkpt lat="64.19241333" lon="-20.95130348"><ele>212.1</ele><time>2012-07-19T13:27:46.0000000+00:00</time></trkpt><trkpt lat="64.19241333" lon="-20.95130348"><ele>212.1</ele><time>2012-07-19T13:27:51.0000000+00:00</time></trkpt><trkpt lat="64.19241333" lon="-20.95130158"><ele>212.1</ele><time>2012-07-19T13:27:56.0000000+00:00</time></trkpt><trkpt lat="64.19241333" lon="-20.95130158"><ele>212.1</ele><time>2012-07-19T13:28:01.0000000+00:00</time></trkpt><trkpt lat="64.19241333" lon="-20.95130158"><ele>212.1</ele><time>2012-07-19T13:28:06.0000000+00:00</time></trkpt><trkpt lat="64.19241333" lon="-20.95130158"><ele>212.0</ele><time>2012-07-19T13:28:11.0000000+00:00</time></trkpt><trkpt lat="64.19241333" lon="-20.95130158"><ele>212.0</ele><time>2012-07-19T13:28:16.0000000+00:00</time></trkpt><trkpt lat="64.19241333" lon="-20.95130158"><ele>212.0</ele><time>2012-07-19T13:28:21.0000000+00:00</time></trkpt><trkpt lat="64.19241333" lon="-20.95130158"><ele>212.0</ele><time>2012-07-19T13:28:26.0000000+00:00</time></trkpt><trkpt lat="64.19241333" lon="-20.95130158"><ele>211.9</ele><time>2012-07-19T13:28:31.0000000+00:00</time></trkpt><trkpt lat="64.19241333" lon="-20.95130158"><ele>211.9</ele><time>2012-07-19T13:28:36.0000000+00:00</time></trkpt><trkpt lat="64.19241333" lon="-20.95129967"><ele>211.9</ele><time>2012-07-19T13:28:41.0000000+00:00</time></trkpt><trkpt lat="64.19241333" lon="-20.95129967"><ele>211.9</ele><time>2012-07-19T13:28:46.0000000+00:00</time></trkpt><trkpt lat="64.19241333" lon="-20.95129967"><ele>211.9</ele><time>2012-07-19T13:28:51.0000000+00:00</time></trkpt><trkpt lat="64.19241333" lon="-20.95129967"><ele>211.9</ele><time>2012-07-19T13:28:56.0000000+00:00</time></trkpt><trkpt lat="64.19241333" lon="-20.95129967"><ele>211.9</ele><time>2012-07-19T13:29:01.0000000+00:00</time></trkpt><trkpt lat="64.19241333" lon="-20.95129967"><ele>211.8</ele><time>2012-07-19T13:29:06.0000000+00:00</time></trkpt><trkpt lat="64.19241333" lon="-20.95129776"><ele>211.8</ele><time>2012-07-19T13:29:11.0000000+00:00</time></trkpt><trkpt lat="64.19241333" lon="-20.95129776"><ele>211.8</ele><time>2012-07-19T13:29:16.0000000+00:00</time></trkpt><trkpt lat="64.19241333" lon="-20.95129776"><ele>211.8</ele><time>2012-07-19T13:29:21.0000000+00:00</time></trkpt><trkpt lat="64.19241333" lon="-20.95129776"><ele>211.8</ele><time>2012-07-19T13:29:26.0000000+00:00</time></trkpt><trkpt lat="64.19241333" lon="-20.95129967"><ele>211.8</ele><time>2012-07-19T13:29:31.0000000+00:00</time></trkpt><trkpt lat="64.19241333" lon="-20.95129776"><ele>211.7</ele><time>2012-07-19T13:29:36.0000000+00:00</time></trkpt><trkpt lat="64.19241333" lon="-20.95129776"><ele>211.7</ele><time>2012-07-19T13:29:41.0000000+00:00</time></trkpt><trkpt lat="64.1924057" lon="-20.95129776"><ele>211.7</ele><time>2012-07-19T13:29:46.0000000+00:00</time></trkpt><trkpt lat="64.1924057" lon="-20.95129776"><ele>211.7</ele><time>2012-07-19T13:29:51.0000000+00:00</time></trkpt><trkpt lat="64.1924057" lon="-20.95129967"><ele>211.7</ele><time>2012-07-19T13:29:56.0000000+00:00</time></trkpt><trkpt lat="64.1924057" lon="-20.95129776"><ele>211.6</ele><time>2012-07-19T13:30:01.0000000+00:00</time></trkpt><trkpt lat="64.1924057" lon="-20.95129776"><ele>211.6</ele><time>2012-07-19T13:30:06.0000000+00:00</time></trkpt><trkpt lat="64.1924057" lon="-20.95129776"><ele>211.5</ele><time>2012-07-19T13:30:11.0000000+00:00</time></trkpt><trkpt lat="64.1924057" lon="-20.95129776"><ele>211.5</ele><time>2012-07-19T13:30:16.0000000+00:00</time></trkpt><trkpt lat="64.1924057" lon="-20.95129776"><ele>211.4</ele><time>2012-07-19T13:30:21.0000000+00:00</time></trkpt><trkpt lat="64.1924057" lon="-20.95129776"><ele>211.4</ele><time>2012-07-19T13:30:26.0000000+00:00</time></trkpt><trkpt lat="64.1924057" lon="-20.95129776"><ele>211.4</ele><time>2012-07-19T13:30:31.0000000+00:00</time></trkpt><trkpt lat="64.1924057" lon="-20.95129776"><ele>211.3</ele><time>2012-07-19T13:30:36.0000000+00:00</time></trkpt><trkpt lat="64.1924057" lon="-20.95129776"><ele>211.3</ele><time>2012-07-19T13:30:41.0000000+00:00</time></trkpt><trkpt lat="64.1924057" lon="-20.95129585"><ele>211.2</ele><time>2012-07-19T13:30:46.0000000+00:00</time></trkpt><trkpt lat="64.1924057" lon="-20.95129585"><ele>211.2</ele><time>2012-07-19T13:30:51.0000000+00:00</time></trkpt><trkpt lat="64.1924057" lon="-20.95129585"><ele>211.2</ele><time>2012-07-19T13:30:56.0000000+00:00</time></trkpt><trkpt lat="64.1924057" lon="-20.95129585"><ele>211.2</ele><time>2012-07-19T13:31:01.0000000+00:00</time></trkpt><trkpt lat="64.1924057" lon="-20.95129585"><ele>211.2</ele><time>2012-07-19T13:31:06.0000000+00:00</time></trkpt><trkpt lat="64.1924057" lon="-20.95129585"><ele>211.1</ele><time>2012-07-19T13:31:11.0000000+00:00</time></trkpt><trkpt lat="64.1924057" lon="-20.95129585"><ele>211.1</ele><time>2012-07-19T13:31:16.0000000+00:00</time></trkpt><trkpt lat="64.1924057" lon="-20.95129585"><ele>211.1</ele><time>2012-07-19T13:31:21.0000000+00:00</time></trkpt><trkpt lat="64.1924057" lon="-20.95129585"><ele>211.1</ele><time>2012-07-19T13:31:26.0000000+00:00</time></trkpt><trkpt lat="64.1924057" lon="-20.95129585"><ele>211.0</ele><time>2012-07-19T13:31:31.0000000+00:00</time></trkpt><trkpt lat="64.1924057" lon="-20.95129585"><ele>211.0</ele><time>2012-07-19T13:31:36.0000000+00:00</time></trkpt><trkpt lat="64.1924057" lon="-20.95129585"><ele>211.0</ele><time>2012-07-19T13:31:41.0000000+00:00</time></trkpt><trkpt lat="64.1924057" lon="-20.95129585"><ele>210.9</ele><time>2012-07-19T13:31:46.0000000+00:00</time></trkpt><trkpt lat="64.1924057" lon="-20.95129395"><ele>210.9</ele><time>2012-07-19T13:31:51.0000000+00:00</time></trkpt><trkpt lat="64.1924057" lon="-20.95129395"><ele>210.9</ele><time>2012-07-19T13:31:56.0000000+00:00</time></trkpt><trkpt lat="64.1924057" lon="-20.95129395"><ele>210.9</ele><time>2012-07-19T13:32:01.0000000+00:00</time></trkpt><trkpt lat="64.1924057" lon="-20.95129395"><ele>210.9</ele><time>2012-07-19T13:32:06.0000000+00:00</time></trkpt><trkpt lat="64.1924057" lon="-20.95129395"><ele>210.9</ele><time>2012-07-19T13:32:11.0000000+00:00</time></trkpt><trkpt lat="64.1924057" lon="-20.95129395"><ele>210.8</ele><time>2012-07-19T13:32:16.0000000+00:00</time></trkpt><trkpt lat="64.1924057" lon="-20.95129395"><ele>210.8</ele><time>2012-07-19T13:32:21.0000000+00:00</time></trkpt><trkpt lat="64.1924057" lon="-20.95129204"><ele>210.8</ele><time>2012-07-19T13:32:26.0000000+00:00</time></trkpt><trkpt lat="64.1924057" lon="-20.95129204"><ele>210.8</ele><time>2012-07-19T13:32:31.0000000+00:00</time></trkpt><trkpt lat="64.1924057" lon="-20.95129204"><ele>210.8</ele><time>2012-07-19T13:32:36.0000000+00:00</time></trkpt><trkpt lat="64.1924057" lon="-20.95129204"><ele>210.8</ele><time>2012-07-19T13:32:41.0000000+00:00</time></trkpt><trkpt lat="64.1924057" lon="-20.95129013"><ele>210.7</ele><time>2012-07-19T13:32:46.0000000+00:00</time></trkpt><trkpt lat="64.1924057" lon="-20.95129013"><ele>210.7</ele><time>2012-07-19T13:32:51.0000000+00:00</time></trkpt><trkpt lat="64.19239807" lon="-20.95129013"><ele>210.6</ele><time>2012-07-19T13:32:56.0000000+00:00</time></trkpt><trkpt lat="64.19239807" lon="-20.95129013"><ele>210.6</ele><time>2012-07-19T13:33:01.0000000+00:00</time></trkpt><trkpt lat="64.19239807" lon="-20.95129013"><ele>210.6</ele><time>2012-07-19T13:33:06.0000000+00:00</time></trkpt><trkpt lat="64.19239807" lon="-20.95129013"><ele>210.6</ele><time>2012-07-19T13:33:11.0000000+00:00</time></trkpt><trkpt lat="64.19239807" lon="-20.95128822"><ele>210.5</ele><time>2012-07-19T13:33:16.0000000+00:00</time></trkpt><trkpt lat="64.19239807" lon="-20.95128822"><ele>210.5</ele><time>2012-07-19T13:33:21.0000000+00:00</time></trkpt><trkpt lat="64.19239807" lon="-20.95128822"><ele>210.5</ele><time>2012-07-19T13:33:26.0000000+00:00</time></trkpt><trkpt lat="64.19239807" lon="-20.95128822"><ele>210.5</ele><time>2012-07-19T13:33:31.0000000+00:00</time></trkpt><trkpt lat="64.19239807" lon="-20.95128632"><ele>210.4</ele><time>2012-07-19T13:33:36.0000000+00:00</time></trkpt><trkpt lat="64.19239807" lon="-20.95128632"><ele>210.4</ele><time>2012-07-19T13:33:41.0000000+00:00</time></trkpt><trkpt lat="64.19239807" lon="-20.95128632"><ele>210.3</ele><time>2012-07-19T13:33:46.0000000+00:00</time></trkpt><trkpt lat="64.19239807" lon="-20.95128632"><ele>210.3</ele><time>2012-07-19T13:33:51.0000000+00:00</time></trkpt><trkpt lat="64.19239807" lon="-20.95128632"><ele>210.3</ele><time>2012-07-19T13:33:56.0000000+00:00</time></trkpt><trkpt lat="64.19239807" lon="-20.95128632"><ele>210.2</ele><time>2012-07-19T13:34:01.0000000+00:00</time></trkpt><trkpt lat="64.19239807" lon="-20.95128441"><ele>210.2</ele><time>2012-07-19T13:34:06.0000000+00:00</time></trkpt><trkpt lat="64.19239807" lon="-20.95128441"><ele>210.1</ele><time>2012-07-19T13:34:11.0000000+00:00</time></trkpt><trkpt lat="64.19239807" lon="-20.95128441"><ele>210.1</ele><time>2012-07-19T13:34:16.0000000+00:00</time></trkpt><trkpt lat="64.19239807" lon="-20.95128441"><ele>210.0</ele><time>2012-07-19T13:34:21.0000000+00:00</time></trkpt><trkpt lat="64.19239807" lon="-20.95128441"><ele>210.0</ele><time>2012-07-19T13:34:26.0000000+00:00</time></trkpt><trkpt lat="64.19239807" lon="-20.95128441"><ele>209.9</ele><time>2012-07-19T13:34:31.0000000+00:00</time></trkpt><trkpt lat="64.19239807" lon="-20.95128441"><ele>209.9</ele><time>2012-07-19T13:34:36.0000000+00:00</time></trkpt><trkpt lat="64.19239807" lon="-20.95128441"><ele>209.9</ele><time>2012-07-19T13:34:41.0000000+00:00</time></trkpt><trkpt lat="64.19239807" lon="-20.9512825"><ele>209.9</ele><time>2012-07-19T13:34:46.0000000+00:00</time></trkpt><trkpt lat="64.19239807" lon="-20.9512825"><ele>209.8</ele><time>2012-07-19T13:34:51.0000000+00:00</time></trkpt><trkpt lat="64.19239807" lon="-20.9512825"><ele>209.8</ele><time>2012-07-19T13:34:56.0000000+00:00</time></trkpt><trkpt lat="64.19239807" lon="-20.9512825"><ele>209.8</ele><time>2012-07-19T13:35:01.0000000+00:00</time></trkpt><trkpt lat="64.19239807" lon="-20.9512825"><ele>209.8</ele><time>2012-07-19T13:35:06.0000000+00:00</time></trkpt><trkpt lat="64.19239807" lon="-20.9512825"><ele>209.8</ele><time>2012-07-19T13:35:11.0000000+00:00</time></trkpt><trkpt lat="64.19239807" lon="-20.9512825"><ele>209.8</ele><time>2012-07-19T13:35:16.0000000+00:00</time></trkpt><trkpt lat="64.19239807" lon="-20.9512825"><ele>209.8</ele><time>2012-07-19T13:35:21.0000000+00:00</time></trkpt><trkpt lat="64.19239807" lon="-20.9512825"><ele>209.8</ele><time>2012-07-19T13:35:26.0000000+00:00</time></trkpt><trkpt lat="64.19239807" lon="-20.9512825"><ele>209.7</ele><time>2012-07-19T13:35:31.0000000+00:00</time></trkpt><trkpt lat="64.19239807" lon="-20.9512825"><ele>209.7</ele><time>2012-07-19T13:35:36.0000000+00:00</time></trkpt><trkpt lat="64.19239807" lon="-20.9512825"><ele>209.7</ele><time>2012-07-19T13:35:41.0000000+00:00</time></trkpt><trkpt lat="64.19239807" lon="-20.95128059"><ele>209.7</ele><time>2012-07-19T13:35:46.0000000+00:00</time></trkpt><trkpt lat="64.19239807" lon="-20.95128059"><ele>209.7</ele><time>2012-07-19T13:35:51.0000000+00:00</time></trkpt><trkpt lat="64.19239807" lon="-20.95128059"><ele>209.7</ele><time>2012-07-19T13:35:56.0000000+00:00</time></trkpt><trkpt lat="64.19239807" lon="-20.95128059"><ele>209.7</ele><time>2012-07-19T13:36:01.0000000+00:00</time></trkpt><trkpt lat="64.19239807" lon="-20.95128059"><ele>209.6</ele><time>2012-07-19T13:36:06.0000000+00:00</time></trkpt><trkpt lat="64.19239807" lon="-20.95128059"><ele>209.6</ele><time>2012-07-19T13:36:11.0000000+00:00</time></trkpt><trkpt lat="64.19239807" lon="-20.95128059"><ele>209.6</ele><time>2012-07-19T13:36:16.0000000+00:00</time></trkpt><trkpt lat="64.19239807" lon="-20.95128059"><ele>209.6</ele><time>2012-07-19T13:36:21.0000000+00:00</time></trkpt><trkpt lat="64.19239807" lon="-20.95128059"><ele>209.6</ele><time>2012-07-19T13:36:26.0000000+00:00</time></trkpt><trkpt lat="64.19239807" lon="-20.95128059"><ele>209.5</ele><time>2012-07-19T13:36:31.0000000+00:00</time></trkpt><trkpt lat="64.19239044" lon="-20.95128059"><ele>209.5</ele><time>2012-07-19T13:36:36.0000000+00:00</time></trkpt><trkpt lat="64.19239044" lon="-20.95128059"><ele>209.4</ele><time>2012-07-19T13:36:41.0000000+00:00</time></trkpt><trkpt lat="64.19239044" lon="-20.95128059"><ele>209.4</ele><time>2012-07-19T13:36:46.0000000+00:00</time></trkpt><trkpt lat="64.19239044" lon="-20.95128059"><ele>209.4</ele><time>2012-07-19T13:36:51.0000000+00:00</time></trkpt><trkpt lat="64.19239044" lon="-20.95128059"><ele>209.3</ele><time>2012-07-19T13:36:56.0000000+00:00</time></trkpt><trkpt lat="64.19239044" lon="-20.95127869"><ele>209.3</ele><time>2012-07-19T13:37:01.0000000+00:00</time></trkpt><trkpt lat="64.19239044" lon="-20.95127869"><ele>209.3</ele><time>2012-07-19T13:37:06.0000000+00:00</time></trkpt><trkpt lat="64.19239044" lon="-20.95127869"><ele>209.2</ele><time>2012-07-19T13:37:11.0000000+00:00</time></trkpt><trkpt lat="64.19239044" lon="-20.95127869"><ele>209.2</ele><time>2012-07-19T13:37:16.0000000+00:00</time></trkpt><trkpt lat="64.19239044" lon="-20.95127869"><ele>209.2</ele><time>2012-07-19T13:37:21.0000000+00:00</time></trkpt><trkpt lat="64.19239044" lon="-20.95127869"><ele>209.1</ele><time>2012-07-19T13:37:26.0000000+00:00</time></trkpt><trkpt lat="64.19239044" lon="-20.95127869"><ele>209.1</ele><time>2012-07-19T13:37:31.0000000+00:00</time></trkpt><trkpt lat="64.19239044" lon="-20.95127869"><ele>209.1</ele><time>2012-07-19T13:37:36.0000000+00:00</time></trkpt><trkpt lat="64.19239044" lon="-20.95127869"><ele>209.1</ele><time>2012-07-19T13:37:41.0000000+00:00</time></trkpt><trkpt lat="64.19239044" lon="-20.95127869"><ele>209.0</ele><time>2012-07-19T13:37:46.0000000+00:00</time></trkpt><trkpt lat="64.19239044" lon="-20.95127869"><ele>209.0</ele><time>2012-07-19T13:37:51.0000000+00:00</time></trkpt><trkpt lat="64.19239044" lon="-20.95127869"><ele>209.0</ele><time>2012-07-19T13:37:56.0000000+00:00</time></trkpt><trkpt lat="64.19239044" lon="-20.95127869"><ele>209.0</ele><time>2012-07-19T13:38:01.0000000+00:00</time></trkpt><trkpt lat="64.19239044" lon="-20.95127869"><ele>208.9</ele><time>2012-07-19T13:38:06.0000000+00:00</time></trkpt><trkpt lat="64.19239044" lon="-20.95127869"><ele>208.9</ele><time>2012-07-19T13:38:11.0000000+00:00</time></trkpt><trkpt lat="64.19239044" lon="-20.95127869"><ele>208.9</ele><time>2012-07-19T13:38:16.0000000+00:00</time></trkpt><trkpt lat="64.19239044" lon="-20.95127869"><ele>208.9</ele><time>2012-07-19T13:38:21.0000000+00:00</time></trkpt><trkpt lat="64.19239044" lon="-20.95127869"><ele>208.9</ele><time>2012-07-19T13:38:26.0000000+00:00</time></trkpt><trkpt lat="64.19239044" lon="-20.95127869"><ele>208.9</ele><time>2012-07-19T13:38:31.0000000+00:00</time></trkpt><trkpt lat="64.19239044" lon="-20.95127869"><ele>208.8</ele><time>2012-07-19T13:38:36.0000000+00:00</time></trkpt><trkpt lat="64.19239044" lon="-20.95127869"><ele>208.8</ele><time>2012-07-19T13:38:41.0000000+00:00</time></trkpt><trkpt lat="64.19239044" lon="-20.95127869"><ele>208.8</ele><time>2012-07-19T13:38:46.0000000+00:00</time></trkpt><trkpt lat="64.19239044" lon="-20.95128059"><ele>208.7</ele><time>2012-07-19T13:38:51.0000000+00:00</time></trkpt><trkpt lat="64.19239044" lon="-20.95128059"><ele>208.7</ele><time>2012-07-19T13:38:56.0000000+00:00</time></trkpt><trkpt lat="64.19239044" lon="-20.95128059"><ele>208.7</ele><time>2012-07-19T13:39:01.0000000+00:00</time></trkpt><trkpt lat="64.19239044" lon="-20.95128059"><ele>208.7</ele><time>2012-07-19T13:39:06.0000000+00:00</time></trkpt><trkpt lat="64.19239044" lon="-20.95128059"><ele>208.7</ele><time>2012-07-19T13:39:11.0000000+00:00</time></trkpt><trkpt lat="64.19239044" lon="-20.95128059"><ele>208.7</ele><time>2012-07-19T13:39:16.0000000+00:00</time></trkpt><trkpt lat="64.19239044" lon="-20.95128059"><ele>208.6</ele><time>2012-07-19T13:39:21.0000000+00:00</time></trkpt><trkpt lat="64.19239044" lon="-20.95128059"><ele>208.6</ele><time>2012-07-19T13:39:26.0000000+00:00</time></trkpt><trkpt lat="64.19239044" lon="-20.95128059"><ele>208.6</ele><time>2012-07-19T13:39:31.0000000+00:00</time></trkpt><trkpt lat="64.19239044" lon="-20.95128059"><ele>208.6</ele><time>2012-07-19T13:39:36.0000000+00:00</time></trkpt><trkpt lat="64.19239044" lon="-20.95128059"><ele>208.5</ele><time>2012-07-19T13:39:41.0000000+00:00</time></trkpt><trkpt lat="64.19239044" lon="-20.95128059"><ele>208.5</ele><time>2012-07-19T13:39:46.0000000+00:00</time></trkpt><trkpt lat="64.19239044" lon="-20.95128059"><ele>208.5</ele><time>2012-07-19T13:39:51.0000000+00:00</time></trkpt><trkpt lat="64.19239044" lon="-20.95128059"><ele>208.5</ele><time>2012-07-19T13:39:56.0000000+00:00</time></trkpt><trkpt lat="64.19239044" lon="-20.95128059"><ele>208.5</ele><time>2012-07-19T13:40:01.0000000+00:00</time></trkpt><trkpt lat="64.19239044" lon="-20.9512825"><ele>208.5</ele><time>2012-07-19T13:40:06.0000000+00:00</time></trkpt><trkpt lat="64.19239044" lon="-20.9512825"><ele>208.5</ele><time>2012-07-19T13:40:11.0000000+00:00</time></trkpt><trkpt lat="64.19239044" lon="-20.9512825"><ele>208.5</ele><time>2012-07-19T13:40:16.0000000+00:00</time></trkpt><trkpt lat="64.19239044" lon="-20.9512825"><ele>208.5</ele><time>2012-07-19T13:40:21.0000000+00:00</time></trkpt><trkpt lat="64.19239044" lon="-20.9512825"><ele>208.5</ele><time>2012-07-19T13:40:26.0000000+00:00</time></trkpt><trkpt lat="64.19239044" lon="-20.9512825"><ele>208.5</ele><time>2012-07-19T13:40:31.0000000+00:00</time></trkpt><trkpt lat="64.19239044" lon="-20.9512825"><ele>208.5</ele><time>2012-07-19T13:40:36.0000000+00:00</time></trkpt><trkpt lat="64.19239044" lon="-20.95128441"><ele>208.5</ele><time>2012-07-19T13:40:41.0000000+00:00</time></trkpt><trkpt lat="64.19239044" lon="-20.95128441"><ele>208.5</ele><time>2012-07-19T13:40:46.0000000+00:00</time></trkpt><trkpt lat="64.19239044" lon="-20.95128441"><ele>208.5</ele><time>2012-07-19T13:40:51.0000000+00:00</time></trkpt><trkpt lat="64.19239044" lon="-20.95128441"><ele>208.4</ele><time>2012-07-19T13:40:56.0000000+00:00</time></trkpt><trkpt lat="64.19239044" lon="-20.95128441"><ele>208.5</ele><time>2012-07-19T13:41:01.0000000+00:00</time></trkpt><trkpt lat="64.19239044" lon="-20.95128441"><ele>208.5</ele><time>2012-07-19T13:41:06.0000000+00:00</time></trkpt><trkpt lat="64.19239044" lon="-20.95128441"><ele>208.5</ele><time>2012-07-19T13:41:11.0000000+00:00</time></trkpt><trkpt lat="64.19239044" lon="-20.95128441"><ele>208.5</ele><time>2012-07-19T13:41:16.0000000+00:00</time></trkpt><trkpt lat="64.19239044" lon="-20.95128441"><ele>208.4</ele><time>2012-07-19T13:41:21.0000000+00:00</time></trkpt><trkpt lat="64.19239044" lon="-20.95128441"><ele>208.4</ele><time>2012-07-19T13:41:26.0000000+00:00</time></trkpt><trkpt lat="64.19239044" lon="-20.95128441"><ele>208.4</ele><time>2012-07-19T13:41:31.0000000+00:00</time></trkpt><trkpt lat="64.19239044" lon="-20.95128441"><ele>208.4</ele><time>2012-07-19T13:41:36.0000000+00:00</time></trkpt><trkpt lat="64.19239044" lon="-20.95128441"><ele>208.4</ele><time>2012-07-19T13:41:41.0000000+00:00</time></trkpt><trkpt lat="64.19239044" lon="-20.95128441"><ele>208.4</ele><time>2012-07-19T13:41:46.0000000+00:00</time></trkpt><trkpt lat="64.19239044" lon="-20.95128441"><ele>208.4</ele><time>2012-07-19T13:41:51.0000000+00:00</time></trkpt><trkpt lat="64.19239044" lon="-20.95128441"><ele>208.4</ele><time>2012-07-19T13:41:56.0000000+00:00</time></trkpt><trkpt lat="64.19239044" lon="-20.95128632"><ele>208.4</ele><time>2012-07-19T13:42:01.0000000+00:00</time></trkpt><trkpt lat="64.19239044" lon="-20.95128632"><ele>208.4</ele><time>2012-07-19T13:42:06.0000000+00:00</time></trkpt><trkpt lat="64.19239044" lon="-20.95128632"><ele>208.6</ele><time>2012-07-19T13:42:11.0000000+00:00</time></trkpt><trkpt lat="64.19239044" lon="-20.95128632"><ele>208.6</ele><time>2012-07-19T13:42:16.0000000+00:00</time></trkpt><trkpt lat="64.19239044" lon="-20.95128632"><ele>208.6</ele><time>2012-07-19T13:42:21.0000000+00:00</time></trkpt><trkpt lat="64.19239044" lon="-20.95128441"><ele>208.6</ele><time>2012-07-19T13:42:26.0000000+00:00</time></trkpt><trkpt lat="64.19239044" lon="-20.95128441"><ele>208.6</ele><time>2012-07-19T13:42:31.0000000+00:00</time></trkpt><trkpt lat="64.19239807" lon="-20.95128441"><ele>208.4</ele><time>2012-07-19T13:42:36.0000000+00:00</time></trkpt><trkpt lat="64.19243622" lon="-20.95124435"><ele>206.6</ele><time>2012-07-19T13:42:41.0000000+00:00</time></trkpt><trkpt lat="64.19243622" lon="-20.95112801"><ele>204.1</ele><time>2012-07-19T13:42:46.0000000+00:00</time></trkpt><trkpt lat="64.19245911" lon="-20.95098686"><ele>203.0</ele><time>2012-07-19T13:42:51.0000000+00:00</time></trkpt><trkpt lat="64.19247437" lon="-20.95088577"><ele>203.1</ele><time>2012-07-19T13:42:56.0000000+00:00</time></trkpt><trkpt lat="64.192482" lon="-20.95087242"><ele>203.1</ele><time>2012-07-19T13:43:01.0000000+00:00</time></trkpt><trkpt lat="64.19249725" lon="-20.95067406"><ele>203.0</ele><time>2012-07-19T13:43:06.0000000+00:00</time></trkpt><trkpt lat="64.19252777" lon="-20.95041466"><ele>203.3</ele><time>2012-07-19T13:43:11.0000000+00:00</time></trkpt><trkpt lat="64.19258881" lon="-20.95014954"><ele>202.7</ele><time>2012-07-19T13:43:16.0000000+00:00</time></trkpt><trkpt lat="64.19270325" lon="-20.94992447"><ele>202.4</ele><time>2012-07-19T13:43:21.0000000+00:00</time></trkpt><trkpt lat="64.19281006" lon="-20.94969368"><ele>202.2</ele><time>2012-07-19T13:43:26.0000000+00:00</time></trkpt><trkpt lat="64.19284821" lon="-20.94939995"><ele>202.5</ele><time>2012-07-19T13:43:31.0000000+00:00</time></trkpt><trkpt lat="64.19280243" lon="-20.94908714"><ele>202.6</ele><time>2012-07-19T13:43:36.0000000+00:00</time></trkpt><trkpt lat="64.19275665" lon="-20.94871712"><ele>202.7</ele><time>2012-07-19T13:43:41.0000000+00:00</time></trkpt><trkpt lat="64.19270325" lon="-20.9483223"><ele>202.0</ele><time>2012-07-19T13:43:46.0000000+00:00</time></trkpt><trkpt lat="64.19265747" lon="-20.9479351"><ele>201.2</ele><time>2012-07-19T13:43:51.0000000+00:00</time></trkpt><trkpt lat="64.19261169" lon="-20.94749069"><ele>200.5</ele><time>2012-07-19T13:43:56.0000000+00:00</time></trkpt><trkpt lat="64.19255829" lon="-20.94702148"><ele>199.1</ele><time>2012-07-19T13:44:01.0000000+00:00</time></trkpt><trkpt lat="64.19248962" lon="-20.94656944"><ele>199.8</ele><time>2012-07-19T13:44:06.0000000+00:00</time></trkpt><trkpt lat="64.19242859" lon="-20.94610786"><ele>201.3</ele><time>2012-07-19T13:44:11.0000000+00:00</time></trkpt><trkpt lat="64.19236755" lon="-20.94562531"><ele>202.6</ele><time>2012-07-19T13:44:16.0000000+00:00</time></trkpt><trkpt lat="64.19230652" lon="-20.94510651"><ele>202.7</ele><time>2012-07-19T13:44:21.0000000+00:00</time></trkpt><trkpt lat="64.19224548" lon="-20.94456673"><ele>200.9</ele><time>2012-07-19T13:44:26.0000000+00:00</time></trkpt><trkpt lat="64.19219208" lon="-20.94402504"><ele>200.3</ele><time>2012-07-19T13:44:31.0000000+00:00</time></trkpt><trkpt lat="64.1921463" lon="-20.94355393"><ele>202.2</ele><time>2012-07-19T13:44:36.0000000+00:00</time></trkpt><trkpt lat="64.1920929" lon="-20.94314766"><ele>202.3</ele><time>2012-07-19T13:44:41.0000000+00:00</time></trkpt><trkpt lat="64.19204712" lon="-20.94273377"><ele>203.5</ele><time>2012-07-19T13:44:46.0000000+00:00</time></trkpt><trkpt lat="64.19200897" lon="-20.94225121"><ele>204.3</ele><time>2012-07-19T13:44:51.0000000+00:00</time></trkpt><trkpt lat="64.1919632" lon="-20.94173241"><ele>204.3</ele><time>2012-07-19T13:44:56.0000000+00:00</time></trkpt><trkpt lat="64.19191742" lon="-20.94117165"><ele>203.1</ele><time>2012-07-19T13:45:01.0000000+00:00</time></trkpt><trkpt lat="64.19187927" lon="-20.94061279"><ele>204.6</ele><time>2012-07-19T13:45:06.0000000+00:00</time></trkpt><trkpt lat="64.19184113" lon="-20.94008064"><ele>206.1</ele><time>2012-07-19T13:45:11.0000000+00:00</time></trkpt><trkpt lat="64.19180298" lon="-20.93954086"><ele>205.1</ele><time>2012-07-19T13:45:16.0000000+00:00</time></trkpt><trkpt lat="64.19176483" lon="-20.93897629"><ele>205.6</ele><time>2012-07-19T13:45:21.0000000+00:00</time></trkpt><trkpt lat="64.19172669" lon="-20.93840027"><ele>206.4</ele><time>2012-07-19T13:45:26.0000000+00:00</time></trkpt><trkpt lat="64.19169617" lon="-20.93779945"><ele>206.3</ele><time>2012-07-19T13:45:31.0000000+00:00</time></trkpt><trkpt lat="64.19166565" lon="-20.93719292"><ele>206.5</ele><time>2012-07-19T13:45:36.0000000+00:00</time></trkpt><trkpt lat="64.19163513" lon="-20.93657875"><ele>206.4</ele><time>2012-07-19T13:45:41.0000000+00:00</time></trkpt><trkpt lat="64.19161224" lon="-20.93592072"><ele>205.0</ele><time>2012-07-19T13:45:46.0000000+00:00</time></trkpt><trkpt lat="64.19158936" lon="-20.93526459"><ele>203.3</ele><time>2012-07-19T13:45:51.0000000+00:00</time></trkpt><trkpt lat="64.19156647" lon="-20.9346695"><ele>203.4</ele><time>2012-07-19T13:45:56.0000000+00:00</time></trkpt><trkpt lat="64.19155121" lon="-20.93406105"><ele>202.9</ele><time>2012-07-19T13:46:01.0000000+00:00</time></trkpt><trkpt lat="64.19154358" lon="-20.93354034"><ele>203.0</ele><time>2012-07-19T13:46:06.0000000+00:00</time></trkpt><trkpt lat="64.19153595" lon="-20.93307304"><ele>203.9</ele><time>2012-07-19T13:46:11.0000000+00:00</time></trkpt><trkpt lat="64.19152832" lon="-20.93254852"><ele>204.2</ele><time>2012-07-19T13:46:16.0000000+00:00</time></trkpt><trkpt lat="64.19152832" lon="-20.93198586"><ele>204.8</ele><time>2012-07-19T13:46:21.0000000+00:00</time></trkpt><trkpt lat="64.19152832" lon="-20.93141365"><ele>205.0</ele><time>2012-07-19T13:46:26.0000000+00:00</time></trkpt><trkpt lat="64.19152832" lon="-20.93083572"><ele>205.6</ele><time>2012-07-19T13:46:31.0000000+00:00</time></trkpt><trkpt lat="64.19154358" lon="-20.93025398"><ele>205.8</ele><time>2012-07-19T13:46:36.0000000+00:00</time></trkpt><trkpt lat="64.19155121" lon="-20.92967606"><ele>207.3</ele><time>2012-07-19T13:46:41.0000000+00:00</time></trkpt><trkpt lat="64.19156647" lon="-20.92906952"><ele>206.2</ele><time>2012-07-19T13:46:46.0000000+00:00</time></trkpt><trkpt lat="64.19158173" lon="-20.92852783"><ele>207.0</ele><time>2012-07-19T13:46:51.0000000+00:00</time></trkpt><trkpt lat="64.19159699" lon="-20.92796326"><ele>207.4</ele><time>2012-07-19T13:46:56.0000000+00:00</time></trkpt><trkpt lat="64.19161987" lon="-20.92740631"><ele>207.6</ele><time>2012-07-19T13:47:01.0000000+00:00</time></trkpt><trkpt lat="64.19165039" lon="-20.92683792"><ele>208.4</ele><time>2012-07-19T13:47:06.0000000+00:00</time></trkpt><trkpt lat="64.19167328" lon="-20.92624855"><ele>208.1</ele><time>2012-07-19T13:47:11.0000000+00:00</time></trkpt><trkpt lat="64.1917038" lon="-20.92564011"><ele>208.1</ele><time>2012-07-19T13:47:16.0000000+00:00</time></trkpt><trkpt lat="64.19174194" lon="-20.9250145"><ele>208.5</ele><time>2012-07-19T13:47:21.0000000+00:00</time></trkpt><trkpt lat="64.19178009" lon="-20.92439842"><ele>208.7</ele><time>2012-07-19T13:47:26.0000000+00:00</time></trkpt><trkpt lat="64.19182587" lon="-20.92375755"><ele>209.3</ele><time>2012-07-19T13:47:31.0000000+00:00</time></trkpt><trkpt lat="64.19187164" lon="-20.92311478"><ele>209.0</ele><time>2012-07-19T13:47:36.0000000+00:00</time></trkpt><trkpt lat="64.19192505" lon="-20.9224987"><ele>209.3</ele><time>2012-07-19T13:47:41.0000000+00:00</time></trkpt><trkpt lat="64.19197846" lon="-20.92184067"><ele>209.4</ele><time>2012-07-19T13:47:46.0000000+00:00</time></trkpt><trkpt lat="64.19203949" lon="-20.92117119"><ele>209.7</ele><time>2012-07-19T13:47:51.0000000+00:00</time></trkpt><trkpt lat="64.19210815" lon="-20.92049217"><ele>209.7</ele><time>2012-07-19T13:47:56.0000000+00:00</time></trkpt><trkpt lat="64.19217682" lon="-20.91977692"><ele>209.5</ele><time>2012-07-19T13:48:01.0000000+00:00</time></trkpt><trkpt lat="64.19225311" lon="-20.91903687"><ele>209.0</ele><time>2012-07-19T13:48:06.0000000+00:00</time></trkpt><trkpt lat="64.19233704" lon="-20.91828346"><ele>208.6</ele><time>2012-07-19T13:48:11.0000000+00:00</time></trkpt><trkpt lat="64.19243622" lon="-20.91751862"><ele>207.9</ele><time>2012-07-19T13:48:16.0000000+00:00</time></trkpt><trkpt lat="64.1925354" lon="-20.91672134"><ele>207.1</ele><time>2012-07-19T13:48:21.0000000+00:00</time></trkpt><trkpt lat="64.19264984" lon="-20.91591072"><ele>206.2</ele><time>2012-07-19T13:48:26.0000000+00:00</time></trkpt><trkpt lat="64.19277191" lon="-20.91509438"><ele>205.5</ele><time>2012-07-19T13:48:31.0000000+00:00</time></trkpt><trkpt lat="64.19290161" lon="-20.91426277"><ele>205.2</ele><time>2012-07-19T13:48:36.0000000+00:00</time></trkpt><trkpt lat="64.19303131" lon="-20.91344643"><ele>204.8</ele><time>2012-07-19T13:48:41.0000000+00:00</time></trkpt><trkpt lat="64.19316864" lon="-20.9126606"><ele>204.6</ele><time>2012-07-19T13:48:46.0000000+00:00</time></trkpt><trkpt lat="64.19330597" lon="-20.91190529"><ele>204.3</ele><time>2012-07-19T13:48:51.0000000+00:00</time></trkpt><trkpt lat="64.1934433" lon="-20.9111557"><ele>204.1</ele><time>2012-07-19T13:48:56.0000000+00:00</time></trkpt><trkpt lat="64.19358063" lon="-20.91040993"><ele>203.7</ele><time>2012-07-19T13:49:01.0000000+00:00</time></trkpt><trkpt lat="64.19373322" lon="-20.90965462"><ele>203.1</ele><time>2012-07-19T13:49:06.0000000+00:00</time></trkpt><trkpt lat="64.19389343" lon="-20.90890694"><ele>202.2</ele><time>2012-07-19T13:49:11.0000000+00:00</time></trkpt><trkpt lat="64.19406128" lon="-20.908144"><ele>201.4</ele><time>2012-07-19T13:49:16.0000000+00:00</time></trkpt><trkpt lat="64.19422913" lon="-20.9073925"><ele>199.9</ele><time>2012-07-19T13:49:21.0000000+00:00</time></trkpt><trkpt lat="64.1944046" lon="-20.90660858"><ele>198.5</ele><time>2012-07-19T13:49:26.0000000+00:00</time></trkpt><trkpt lat="64.19458008" lon="-20.90578842"><ele>197.3</ele><time>2012-07-19T13:49:31.0000000+00:00</time></trkpt><trkpt lat="64.19475555" lon="-20.90497589"><ele>195.8</ele><time>2012-07-19T13:49:36.0000000+00:00</time></trkpt><trkpt lat="64.19493103" lon="-20.90413475"><ele>194.5</ele><time>2012-07-19T13:49:41.0000000+00:00</time></trkpt><trkpt lat="64.19509888" lon="-20.90327263"><ele>193.0</ele><time>2012-07-19T13:49:46.0000000+00:00</time></trkpt><trkpt lat="64.19525909" lon="-20.90239525"><ele>191.4</ele><time>2012-07-19T13:49:51.0000000+00:00</time></trkpt><trkpt lat="64.19541168" lon="-20.90151596"><ele>190.2</ele><time>2012-07-19T13:49:56.0000000+00:00</time></trkpt><trkpt lat="64.19556427" lon="-20.90063095"><ele>189.1</ele><time>2012-07-19T13:50:01.0000000+00:00</time></trkpt><trkpt lat="64.1957016" lon="-20.89976502"><ele>188.4</ele><time>2012-07-19T13:50:06.0000000+00:00</time></trkpt><trkpt lat="64.19583893" lon="-20.89890862"><ele>187.7</ele><time>2012-07-19T13:50:11.0000000+00:00</time></trkpt><trkpt lat="64.195961" lon="-20.89807129"><ele>187.6</ele><time>2012-07-19T13:50:16.0000000+00:00</time></trkpt><trkpt lat="64.19607544" lon="-20.89727402"><ele>187.5</ele><time>2012-07-19T13:50:21.0000000+00:00</time></trkpt><trkpt lat="64.19620514" lon="-20.89648628"><ele>188.2</ele><time>2012-07-19T13:50:26.0000000+00:00</time></trkpt><trkpt lat="64.19630432" lon="-20.89569664"><ele>187.9</ele><time>2012-07-19T13:50:31.0000000+00:00</time></trkpt><trkpt lat="64.1964035" lon="-20.89492035"><ele>187.7</ele><time>2012-07-19T13:50:36.0000000+00:00</time></trkpt><trkpt lat="64.19649506" lon="-20.8941555"><ele>187.6</ele><time>2012-07-19T13:50:41.0000000+00:00</time></trkpt><trkpt lat="64.19656372" lon="-20.89344597"><ele>187.2</ele><time>2012-07-19T13:50:46.0000000+00:00</time></trkpt><trkpt lat="64.19664002" lon="-20.89273071"><ele>187.1</ele><time>2012-07-19T13:50:51.0000000+00:00</time></trkpt><trkpt lat="64.19671631" lon="-20.89200592"><ele>186.7</ele><time>2012-07-19T13:50:56.0000000+00:00</time></trkpt><trkpt lat="64.1967926" lon="-20.89125061"><ele>186.3</ele><time>2012-07-19T13:51:01.0000000+00:00</time></trkpt><trkpt lat="64.1968689" lon="-20.8904686"><ele>186.4</ele><time>2012-07-19T13:51:06.0000000+00:00</time></trkpt><trkpt lat="64.19693756" lon="-20.88967323"><ele>185.8</ele><time>2012-07-19T13:51:11.0000000+00:00</time></trkpt><trkpt lat="64.19699097" lon="-20.88886833"><ele>185.2</ele><time>2012-07-19T13:51:16.0000000+00:00</time></trkpt><trkpt lat="64.197052" lon="-20.88808441"><ele>185.4</ele><time>2012-07-19T13:51:21.0000000+00:00</time></trkpt><trkpt lat="64.19709015" lon="-20.88734055"><ele>185.1</ele><time>2012-07-19T13:51:26.0000000+00:00</time></trkpt><trkpt lat="64.19713593" lon="-20.88664627"><ele>184.6</ele><time>2012-07-19T13:51:31.0000000+00:00</time></trkpt><trkpt lat="64.1971817" lon="-20.88598633"><ele>184.2</ele><time>2012-07-19T13:51:36.0000000+00:00</time></trkpt><trkpt lat="64.19721985" lon="-20.88534164"><ele>183.7</ele><time>2012-07-19T13:51:41.0000000+00:00</time></trkpt><trkpt lat="64.19726563" lon="-20.88463402"><ele>183.0</ele><time>2012-07-19T13:51:46.0000000+00:00</time></trkpt><trkpt lat="64.19731903" lon="-20.8839016"><ele>182.4</ele><time>2012-07-19T13:51:51.0000000+00:00</time></trkpt><trkpt lat="64.19738007" lon="-20.88313484"><ele>181.9</ele><time>2012-07-19T13:51:56.0000000+00:00</time></trkpt><trkpt lat="64.1974411" lon="-20.88237"><ele>181.3</ele><time>2012-07-19T13:52:01.0000000+00:00</time></trkpt><trkpt lat="64.19750214" lon="-20.88159752"><ele>180.7</ele><time>2012-07-19T13:52:06.0000000+00:00</time></trkpt><trkpt lat="64.19757843" lon="-20.88085938"><ele>180.5</ele><time>2012-07-19T13:52:11.0000000+00:00</time></trkpt><trkpt lat="64.19766235" lon="-20.88011169"><ele>180.4</ele><time>2012-07-19T13:52:16.0000000+00:00</time></trkpt><trkpt lat="64.19773102" lon="-20.87937355"><ele>180.1</ele><time>2012-07-19T13:52:21.0000000+00:00</time></trkpt><trkpt lat="64.19782257" lon="-20.8786335"><ele>180.0</ele><time>2012-07-19T13:52:26.0000000+00:00</time></trkpt><trkpt lat="64.19790649" lon="-20.87790871"><ele>179.7</ele><time>2012-07-19T13:52:31.0000000+00:00</time></trkpt><trkpt lat="64.19799042" lon="-20.87722206"><ele>179.4</ele><time>2012-07-19T13:52:36.0000000+00:00</time></trkpt><trkpt lat="64.19805908" lon="-20.87657356"><ele>178.6</ele><time>2012-07-19T13:52:41.0000000+00:00</time></trkpt><trkpt lat="64.19815064" lon="-20.87591553"><ele>178.6</ele><time>2012-07-19T13:52:46.0000000+00:00</time></trkpt><trkpt lat="64.19824219" lon="-20.87526512"><ele>178.9</ele><time>2012-07-19T13:52:51.0000000+00:00</time></trkpt><trkpt lat="64.19831848" lon="-20.87462425"><ele>178.7</ele><time>2012-07-19T13:52:56.0000000+00:00</time></trkpt><trkpt lat="64.19841003" lon="-20.87399483"><ele>179.0</ele><time>2012-07-19T13:53:01.0000000+00:00</time></trkpt><trkpt lat="64.19849396" lon="-20.87338066"><ele>179.2</ele><time>2012-07-19T13:53:06.0000000+00:00</time></trkpt><trkpt lat="64.19860077" lon="-20.87278366"><ele>180.4</ele><time>2012-07-19T13:53:11.0000000+00:00</time></trkpt><trkpt lat="64.19869232" lon="-20.87222481"><ele>180.8</ele><time>2012-07-19T13:53:16.0000000+00:00</time></trkpt><trkpt lat="64.19877625" lon="-20.87167931"><ele>180.9</ele><time>2012-07-19T13:53:21.0000000+00:00</time></trkpt><trkpt lat="64.19886017" lon="-20.8711338"><ele>181.1</ele><time>2012-07-19T13:53:26.0000000+00:00</time></trkpt><trkpt lat="64.19895172" lon="-20.87057495"><ele>181.3</ele><time>2012-07-19T13:53:31.0000000+00:00</time></trkpt><trkpt lat="64.19904327" lon="-20.87001038"><ele>181.4</ele><time>2012-07-19T13:53:36.0000000+00:00</time></trkpt><trkpt lat="64.1991272" lon="-20.86945725"><ele>181.6</ele><time>2012-07-19T13:53:41.0000000+00:00</time></trkpt><trkpt lat="64.19921112" lon="-20.86891556"><ele>182.3</ele><time>2012-07-19T13:53:46.0000000+00:00</time></trkpt><trkpt lat="64.19929504" lon="-20.86836815"><ele>182.6</ele><time>2012-07-19T13:53:51.0000000+00:00</time></trkpt><trkpt lat="64.19937897" lon="-20.86782265"><ele>183.1</ele><time>2012-07-19T13:53:56.0000000+00:00</time></trkpt><trkpt lat="64.19945526" lon="-20.86727142"><ele>183.4</ele><time>2012-07-19T13:54:01.0000000+00:00</time></trkpt><trkpt lat="64.19954681" lon="-20.86672401"><ele>184.5</ele><time>2012-07-19T13:54:06.0000000+00:00</time></trkpt><trkpt lat="64.19961548" lon="-20.86615372"><ele>184.9</ele><time>2012-07-19T13:54:11.0000000+00:00</time></trkpt><trkpt lat="64.19969177" lon="-20.8655777"><ele>185.8</ele><time>2012-07-19T13:54:16.0000000+00:00</time></trkpt><trkpt lat="64.19976044" lon="-20.8650589"><ele>186.8</ele><time>2012-07-19T13:54:21.0000000+00:00</time></trkpt><trkpt lat="64.19981384" lon="-20.86460304"><ele>187.2</ele><time>2012-07-19T13:54:26.0000000+00:00</time></trkpt><trkpt lat="64.19985199" lon="-20.86422157"><ele>188.0</ele><time>2012-07-19T13:54:31.0000000+00:00</time></trkpt><trkpt lat="64.19988251" lon="-20.86389351"><ele>188.3</ele><time>2012-07-19T13:54:36.0000000+00:00</time></trkpt><trkpt lat="64.19992065" lon="-20.86354637"><ele>188.6</ele><time>2012-07-19T13:54:41.0000000+00:00</time></trkpt><trkpt lat="64.19994354" lon="-20.86316299"><ele>188.9</ele><time>2012-07-19T13:54:46.0000000+00:00</time></trkpt><trkpt lat="64.19997406" lon="-20.86279297"><ele>189.0</ele><time>2012-07-19T13:54:51.0000000+00:00</time></trkpt><trkpt lat="64.20000458" lon="-20.86241531"><ele>189.3</ele><time>2012-07-19T13:54:56.0000000+00:00</time></trkpt><trkpt lat="64.2000351" lon="-20.86204529"><ele>189.5</ele><time>2012-07-19T13:55:01.0000000+00:00</time></trkpt><trkpt lat="64.20005798" lon="-20.86166191"><ele>189.8</ele><time>2012-07-19T13:55:06.0000000+00:00</time></trkpt><trkpt lat="64.20008087" lon="-20.86128807"><ele>189.7</ele><time>2012-07-19T13:55:11.0000000+00:00</time></trkpt><trkpt lat="64.20010376" lon="-20.86088944"><ele>189.8</ele><time>2012-07-19T13:55:16.0000000+00:00</time></trkpt><trkpt lat="64.20013428" lon="-20.86048317"><ele>189.8</ele><time>2012-07-19T13:55:21.0000000+00:00</time></trkpt><trkpt lat="64.20015717" lon="-20.8600502"><ele>190.3</ele><time>2012-07-19T13:55:26.0000000+00:00</time></trkpt><trkpt lat="64.20018768" lon="-20.85964584"><ele>190.5</ele><time>2012-07-19T13:55:31.0000000+00:00</time></trkpt><trkpt lat="64.20021057" lon="-20.85922623"><ele>191.1</ele><time>2012-07-19T13:55:36.0000000+00:00</time></trkpt><trkpt lat="64.20022583" lon="-20.85886955"><ele>191.2</ele><time>2012-07-19T13:55:41.0000000+00:00</time></trkpt><trkpt lat="64.2002182" lon="-20.85864449"><ele>191.2</ele><time>2012-07-19T13:55:46.0000000+00:00</time></trkpt><trkpt lat="64.20021057" lon="-20.85850716"><ele>191.0</ele><time>2012-07-19T13:55:51.0000000+00:00</time></trkpt><trkpt lat="64.20021057" lon="-20.85851479"><ele>191.5</ele><time>2012-07-19T13:55:56.0000000+00:00</time></trkpt><trkpt lat="64.20021057" lon="-20.85852051"><ele>191.0</ele><time>2012-07-19T13:56:01.0000000+00:00</time></trkpt><trkpt lat="64.20021057" lon="-20.85852242"><ele>190.5</ele><time>2012-07-19T13:56:06.0000000+00:00</time></trkpt><trkpt lat="64.20021057" lon="-20.85852242"><ele>190.5</ele><time>2012-07-19T13:56:11.0000000+00:00</time></trkpt><trkpt lat="64.20021057" lon="-20.85852242"><ele>190.5</ele><time>2012-07-19T13:56:16.0000000+00:00</time></trkpt><trkpt lat="64.20021057" lon="-20.85852242"><ele>190.4</ele><time>2012-07-19T13:56:21.0000000+00:00</time></trkpt><trkpt lat="64.20021057" lon="-20.85852242"><ele>190.4</ele><time>2012-07-19T13:56:26.0000000+00:00</time></trkpt><trkpt lat="64.20021057" lon="-20.85852242"><ele>190.4</ele><time>2012-07-19T13:56:31.0000000+00:00</time></trkpt><trkpt lat="64.20021057" lon="-20.85852242"><ele>190.4</ele><time>2012-07-19T13:56:36.0000000+00:00</time></trkpt><trkpt lat="64.20021057" lon="-20.85852242"><ele>190.4</ele><time>2012-07-19T13:56:41.0000000+00:00</time></trkpt><trkpt lat="64.20021057" lon="-20.85852242"><ele>190.4</ele><time>2012-07-19T13:56:46.0000000+00:00</time></trkpt><trkpt lat="64.20021057" lon="-20.85852242"><ele>190.4</ele><time>2012-07-19T13:56:51.0000000+00:00</time></trkpt><trkpt lat="64.20021057" lon="-20.85852242"><ele>190.4</ele><time>2012-07-19T13:56:56.0000000+00:00</time></trkpt><trkpt lat="64.20021057" lon="-20.85852242"><ele>190.4</ele><time>2012-07-19T13:57:01.0000000+00:00</time></trkpt><trkpt lat="64.20021057" lon="-20.85852242"><ele>190.4</ele><time>2012-07-19T13:57:06.0000000+00:00</time></trkpt><trkpt lat="64.20021057" lon="-20.85852242"><ele>190.4</ele><time>2012-07-19T13:57:11.0000000+00:00</time></trkpt><trkpt lat="64.20021057" lon="-20.85852242"><ele>190.4</ele><time>2012-07-19T13:57:16.0000000+00:00</time></trkpt><trkpt lat="64.20021057" lon="-20.85852242"><ele>190.4</ele><time>2012-07-19T13:57:21.0000000+00:00</time></trkpt><trkpt lat="64.20021057" lon="-20.85851669"><ele>190.5</ele><time>2012-07-19T13:57:26.0000000+00:00</time></trkpt><trkpt lat="64.20021057" lon="-20.85850906"><ele>190.5</ele><time>2012-07-19T13:57:31.0000000+00:00</time></trkpt><trkpt lat="64.20022583" lon="-20.85848236"><ele>190.6</ele><time>2012-07-19T13:57:36.0000000+00:00</time></trkpt><trkpt lat="64.20028687" lon="-20.8585186"><ele>190.7</ele><time>2012-07-19T13:57:41.0000000+00:00</time></trkpt><trkpt lat="64.20037079" lon="-20.85861778"><ele>190.4</ele><time>2012-07-19T13:57:46.0000000+00:00</time></trkpt><trkpt lat="64.20048523" lon="-20.85870171"><ele>189.6</ele><time>2012-07-19T13:57:51.0000000+00:00</time></trkpt><trkpt lat="64.20063019" lon="-20.8587513"><ele>189.4</ele><time>2012-07-19T13:57:56.0000000+00:00</time></trkpt><trkpt lat="64.20077515" lon="-20.8588028"><ele>188.1</ele><time>2012-07-19T13:58:01.0000000+00:00</time></trkpt><trkpt lat="64.20092773" lon="-20.85890198"><ele>186.8</ele><time>2012-07-19T13:58:06.0000000+00:00</time></trkpt><trkpt lat="64.20108795" lon="-20.85905075"><ele>186.9</ele><time>2012-07-19T13:58:11.0000000+00:00</time></trkpt><trkpt lat="64.20121002" lon="-20.85924912"><ele>186.4</ele><time>2012-07-19T13:58:16.0000000+00:00</time></trkpt><trkpt lat="64.20133209" lon="-20.85951996"><ele>186.0</ele><time>2012-07-19T13:58:21.0000000+00:00</time></trkpt><trkpt lat="64.20144653" lon="-20.85982513"><ele>187.5</ele><time>2012-07-19T13:58:26.0000000+00:00</time></trkpt><trkpt lat="64.20156097" lon="-20.86014938"><ele>188.9</ele><time>2012-07-19T13:58:31.0000000+00:00</time></trkpt><trkpt lat="64.20165253" lon="-20.86047936"><ele>188.0</ele><time>2012-07-19T13:58:36.0000000+00:00</time></trkpt><trkpt lat="64.20175934" lon="-20.86083221"><ele>183.3</ele><time>2012-07-19T13:58:41.0000000+00:00</time></trkpt><trkpt lat="64.20191193" lon="-20.86119652"><ele>187.4</ele><time>2012-07-19T13:58:46.0000000+00:00</time></trkpt><trkpt lat="64.20206451" lon="-20.86152649"><ele>190.1</ele><time>2012-07-19T13:58:51.0000000+00:00</time></trkpt><trkpt lat="64.20223236" lon="-20.86182594"><ele>193.1</ele><time>2012-07-19T13:58:56.0000000+00:00</time></trkpt><trkpt lat="64.20239258" lon="-20.86209869"><ele>193.8</ele><time>2012-07-19T13:59:01.0000000+00:00</time></trkpt><trkpt lat="64.20257568" lon="-20.86235809"><ele>194.3</ele><time>2012-07-19T13:59:06.0000000+00:00</time></trkpt><trkpt lat="64.20276642" lon="-20.86258316"><ele>194.0</ele><time>2012-07-19T13:59:11.0000000+00:00</time></trkpt><trkpt lat="64.20295715" lon="-20.86275291"><ele>192.8</ele><time>2012-07-19T13:59:16.0000000+00:00</time></trkpt><trkpt lat="64.20316315" lon="-20.86287689"><ele>191.7</ele><time>2012-07-19T13:59:21.0000000+00:00</time></trkpt><trkpt lat="64.20336914" lon="-20.86296272"><ele>190.8</ele><time>2012-07-19T13:59:26.0000000+00:00</time></trkpt><trkpt lat="64.20354462" lon="-20.86303711"><ele>190.1</ele><time>2012-07-19T13:59:31.0000000+00:00</time></trkpt><trkpt lat="64.20373535" lon="-20.86309624"><ele>189.2</ele><time>2012-07-19T13:59:36.0000000+00:00</time></trkpt><trkpt lat="64.20392609" lon="-20.86315155"><ele>188.6</ele><time>2012-07-19T13:59:41.0000000+00:00</time></trkpt><trkpt lat="64.20406342" lon="-20.8631897"><ele>187.5</ele><time>2012-07-19T13:59:46.0000000+00:00</time></trkpt><trkpt lat="64.204216" lon="-20.86325455"><ele>187.0</ele><time>2012-07-19T13:59:51.0000000+00:00</time></trkpt><trkpt lat="64.20436096" lon="-20.86334801"><ele>186.7</ele><time>2012-07-19T13:59:56.0000000+00:00</time></trkpt><trkpt lat="64.20449066" lon="-20.86341858"><ele>186.4</ele><time>2012-07-19T14:00:01.0000000+00:00</time></trkpt><trkpt lat="64.20457459" lon="-20.8634758"><ele>185.6</ele><time>2012-07-19T14:00:06.0000000+00:00</time></trkpt><trkpt lat="64.20458984" lon="-20.86349297"><ele>186.5</ele><time>2012-07-19T14:00:11.0000000+00:00</time></trkpt><trkpt lat="64.20463562" lon="-20.86356735"><ele>187.1</ele><time>2012-07-19T14:00:16.0000000+00:00</time></trkpt><trkpt lat="64.2047348" lon="-20.86366463"><ele>186.4</ele><time>2012-07-19T14:00:21.0000000+00:00</time></trkpt><trkpt lat="64.20483398" lon="-20.86379051"><ele>186.1</ele><time>2012-07-19T14:00:26.0000000+00:00</time></trkpt><trkpt lat="64.20495606" lon="-20.86394882"><ele>186.3</ele><time>2012-07-19T14:00:31.0000000+00:00</time></trkpt><trkpt lat="64.20511627" lon="-20.86410141"><ele>187.7</ele><time>2012-07-19T14:00:36.0000000+00:00</time></trkpt><trkpt lat="64.20528412" lon="-20.86426544"><ele>189.0</ele><time>2012-07-19T14:00:41.0000000+00:00</time></trkpt><trkpt lat="64.20542145" lon="-20.86444664"><ele>189.7</ele><time>2012-07-19T14:00:46.0000000+00:00</time></trkpt><trkpt lat="64.20555878" lon="-20.86460877"><ele>190.2</ele><time>2012-07-19T14:00:51.0000000+00:00</time></trkpt><trkpt lat="64.20568848" lon="-20.86479187"><ele>190.6</ele><time>2012-07-19T14:00:56.0000000+00:00</time></trkpt><trkpt lat="64.20584106" lon="-20.86493111"><ele>191.3</ele><time>2012-07-19T14:01:01.0000000+00:00</time></trkpt><trkpt lat="64.20599365" lon="-20.86507607"><ele>191.3</ele><time>2012-07-19T14:01:06.0000000+00:00</time></trkpt><trkpt lat="64.2061615" lon="-20.86520577"><ele>191.6</ele><time>2012-07-19T14:01:11.0000000+00:00</time></trkpt><trkpt lat="64.20631409" lon="-20.86530113"><ele>190.6</ele><time>2012-07-19T14:01:16.0000000+00:00</time></trkpt><trkpt lat="64.20648193" lon="-20.86537743"><ele>189.5</ele><time>2012-07-19T14:01:21.0000000+00:00</time></trkpt><trkpt lat="64.20666504" lon="-20.86543655"><ele>189.2</ele><time>2012-07-19T14:01:26.0000000+00:00</time></trkpt><trkpt lat="64.20684815" lon="-20.86546707"><ele>188.2</ele><time>2012-07-19T14:01:31.0000000+00:00</time></trkpt><trkpt lat="64.20704651" lon="-20.86546707"><ele>188.4</ele><time>2012-07-19T14:01:36.0000000+00:00</time></trkpt><trkpt lat="64.20724487" lon="-20.86543274"><ele>187.9</ele><time>2012-07-19T14:01:41.0000000+00:00</time></trkpt><trkpt lat="64.20743561" lon="-20.86534882"><ele>188.0</ele><time>2012-07-19T14:01:46.0000000+00:00</time></trkpt><trkpt lat="64.20762634" lon="-20.8652401"><ele>187.9</ele><time>2012-07-19T14:01:51.0000000+00:00</time></trkpt><trkpt lat="64.20782471" lon="-20.86507797"><ele>188.3</ele><time>2012-07-19T14:01:56.0000000+00:00</time></trkpt><trkpt lat="64.20802307" lon="-20.86488724"><ele>188.7</ele><time>2012-07-19T14:02:01.0000000+00:00</time></trkpt><trkpt lat="64.20821381" lon="-20.86467171"><ele>188.9</ele><time>2012-07-19T14:02:06.0000000+00:00</time></trkpt><trkpt lat="64.20838165" lon="-20.86443901"><ele>188.8</ele><time>2012-07-19T14:02:11.0000000+00:00</time></trkpt><trkpt lat="64.2085495" lon="-20.86416817"><ele>188.0</ele><time>2012-07-19T14:02:16.0000000+00:00</time></trkpt><trkpt lat="64.20870972" lon="-20.86384964"><ele>186.7</ele><time>2012-07-19T14:02:21.0000000+00:00</time></trkpt><trkpt lat="64.20886231" lon="-20.86352158"><ele>185.9</ele><time>2012-07-19T14:02:26.0000000+00:00</time></trkpt><trkpt lat="64.20900726" lon="-20.86320686"><ele>185.0</ele><time>2012-07-19T14:02:31.0000000+00:00</time></trkpt><trkpt lat="64.20914459" lon="-20.86289215"><ele>184.6</ele><time>2012-07-19T14:02:36.0000000+00:00</time></trkpt><trkpt lat="64.20928192" lon="-20.86254311"><ele>184.6</ele><time>2012-07-19T14:02:41.0000000+00:00</time></trkpt><trkpt lat="64.20944977" lon="-20.86217308"><ele>184.5</ele><time>2012-07-19T14:02:46.0000000+00:00</time></trkpt><trkpt lat="64.20961762" lon="-20.86182404"><ele>184.6</ele><time>2012-07-19T14:02:51.0000000+00:00</time></trkpt><trkpt lat="64.20979309" lon="-20.86151505"><ele>184.0</ele><time>2012-07-19T14:02:56.0000000+00:00</time></trkpt><trkpt lat="64.2099762" lon="-20.86124039"><ele>183.5</ele><time>2012-07-19T14:03:01.0000000+00:00</time></trkpt><trkpt lat="64.21018982" lon="-20.86097145"><ele>183.7</ele><time>2012-07-19T14:03:06.0000000+00:00</time></trkpt><trkpt lat="64.21043396" lon="-20.86072731"><ele>183.4</ele><time>2012-07-19T14:03:11.0000000+00:00</time></trkpt><trkpt lat="64.21066284" lon="-20.86052895"><ele>182.9</ele><time>2012-07-19T14:03:16.0000000+00:00</time></trkpt><trkpt lat="64.21086121" lon="-20.86039162"><ele>182.4</ele><time>2012-07-19T14:03:21.0000000+00:00</time></trkpt><trkpt lat="64.21109009" lon="-20.8602829"><ele>181.7</ele><time>2012-07-19T14:03:26.0000000+00:00</time></trkpt><trkpt lat="64.2113266" lon="-20.86021996"><ele>180.6</ele><time>2012-07-19T14:03:31.0000000+00:00</time></trkpt><trkpt lat="64.21156311" lon="-20.86019516"><ele>178.7</ele><time>2012-07-19T14:03:36.0000000+00:00</time></trkpt><trkpt lat="64.21177673" lon="-20.86020279"><ele>177.2</ele><time>2012-07-19T14:03:41.0000000+00:00</time></trkpt><trkpt lat="64.21202087" lon="-20.86023712"><ele>175.6</ele><time>2012-07-19T14:03:46.0000000+00:00</time></trkpt><trkpt lat="64.2122345" lon="-20.86030388"><ele>174.6</ele><time>2012-07-19T14:03:51.0000000+00:00</time></trkpt><trkpt lat="64.21244812" lon="-20.8604126"><ele>173.8</ele><time>2012-07-19T14:03:56.0000000+00:00</time></trkpt><trkpt lat="64.21266937" lon="-20.86060143"><ele>173.4</ele><time>2012-07-19T14:04:01.0000000+00:00</time></trkpt><trkpt lat="64.21289825" lon="-20.86079788"><ele>172.6</ele><time>2012-07-19T14:04:06.0000000+00:00</time></trkpt><trkpt lat="64.21310425" lon="-20.86104012"><ele>172.6</ele><time>2012-07-19T14:04:11.0000000+00:00</time></trkpt><trkpt lat="64.21331787" lon="-20.86133957"><ele>172.3</ele><time>2012-07-19T14:04:16.0000000+00:00</time></trkpt><trkpt lat="64.21351624" lon="-20.86162567"><ele>172.3</ele><time>2012-07-19T14:04:21.0000000+00:00</time></trkpt><trkpt lat="64.21369171" lon="-20.86193657"><ele>172.8</ele><time>2012-07-19T14:04:26.0000000+00:00</time></trkpt><trkpt lat="64.21379852" lon="-20.86219788"><ele>174.2</ele><time>2012-07-19T14:04:31.0000000+00:00</time></trkpt><trkpt lat="64.21385193" lon="-20.86245346"><ele>174.4</ele><time>2012-07-19T14:04:36.0000000+00:00</time></trkpt><trkpt lat="64.21391296" lon="-20.86277962"><ele>174.4</ele><time>2012-07-19T14:04:41.0000000+00:00</time></trkpt><trkpt lat="64.21393585" lon="-20.86315727"><ele>172.6</ele><time>2012-07-19T14:04:46.0000000+00:00</time></trkpt><trkpt lat="64.21396637" lon="-20.8636055"><ele>170.3</ele><time>2012-07-19T14:04:51.0000000+00:00</time></trkpt><trkpt lat="64.21398163" lon="-20.86401367"><ele>170.3</ele><time>2012-07-19T14:04:56.0000000+00:00</time></trkpt><trkpt lat="64.21395874" lon="-20.86419106"><ele>167.4</ele><time>2012-07-19T14:05:01.0000000+00:00</time></trkpt><trkpt lat="64.21395874" lon="-20.86418533"><ele>167.4</ele><time>2012-07-19T14:05:06.0000000+00:00</time></trkpt><trkpt lat="64.21396637" lon="-20.86421776"><ele>167.3</ele><time>2012-07-19T14:05:11.0000000+00:00</time></trkpt><trkpt lat="64.21400452" lon="-20.86445999"><ele>168.0</ele><time>2012-07-19T14:05:16.0000000+00:00</time></trkpt><trkpt lat="64.21403503" lon="-20.86479569"><ele>168.3</ele><time>2012-07-19T14:05:21.0000000+00:00</time></trkpt><trkpt lat="64.21405792" lon="-20.86522865"><ele>167.2</ele><time>2012-07-19T14:05:26.0000000+00:00</time></trkpt><trkpt lat="64.2141037" lon="-20.86564827"><ele>168.3</ele><time>2012-07-19T14:05:31.0000000+00:00</time></trkpt><trkpt lat="64.21412659" lon="-20.86604691"><ele>168.6</ele><time>2012-07-19T14:05:36.0000000+00:00</time></trkpt><trkpt lat="64.21416473" lon="-20.8664093"><ele>167.6</ele><time>2012-07-19T14:05:41.0000000+00:00</time></trkpt><trkpt lat="64.21417999" lon="-20.86684609"><ele>166.3</ele><time>2012-07-19T14:05:46.0000000+00:00</time></trkpt><trkpt lat="64.21420288" lon="-20.86726952"><ele>166.2</ele><time>2012-07-19T14:05:51.0000000+00:00</time></trkpt><trkpt lat="64.21421814" lon="-20.867733"><ele>164.6</ele><time>2012-07-19T14:05:56.0000000+00:00</time></trkpt><trkpt lat="64.21424103" lon="-20.8682251"><ele>167.0</ele><time>2012-07-19T14:06:01.0000000+00:00</time></trkpt><trkpt lat="64.21425629" lon="-20.86862183"><ele>165.1</ele><time>2012-07-19T14:06:06.0000000+00:00</time></trkpt><trkpt lat="64.21427155" lon="-20.86903763"><ele>167.5</ele><time>2012-07-19T14:06:11.0000000+00:00</time></trkpt><trkpt lat="64.21427155" lon="-20.8695221"><ele>169.4</ele><time>2012-07-19T14:06:16.0000000+00:00</time></trkpt><trkpt lat="64.21426392" lon="-20.86997795"><ele>169.2</ele><time>2012-07-19T14:06:21.0000000+00:00</time></trkpt><trkpt lat="64.21424103" lon="-20.87031937"><ele>169.3</ele><time>2012-07-19T14:06:26.0000000+00:00</time></trkpt><trkpt lat="64.21424103" lon="-20.87073708"><ele>170.5</ele><time>2012-07-19T14:06:31.0000000+00:00</time></trkpt><trkpt lat="64.2142334" lon="-20.87121964"><ele>169.3</ele><time>2012-07-19T14:06:36.0000000+00:00</time></trkpt><trkpt lat="64.2142334" lon="-20.87170601"><ele>168.4</ele><time>2012-07-19T14:06:41.0000000+00:00</time></trkpt><trkpt lat="64.21424103" lon="-20.87218094"><ele>169.3</ele><time>2012-07-19T14:06:46.0000000+00:00</time></trkpt><trkpt lat="64.21424866" lon="-20.87261772"><ele>169.4</ele><time>2012-07-19T14:06:51.0000000+00:00</time></trkpt><trkpt lat="64.21427155" lon="-20.87299728"><ele>168.9</ele><time>2012-07-19T14:06:56.0000000+00:00</time></trkpt><trkpt lat="64.2142868" lon="-20.87335777"><ele>171.1</ele><time>2012-07-19T14:07:01.0000000+00:00</time></trkpt><trkpt lat="64.21429443" lon="-20.87363052"><ele>170.0</ele><time>2012-07-19T14:07:06.0000000+00:00</time></trkpt><trkpt lat="64.2142868" lon="-20.87397194"><ele>168.2</ele><time>2012-07-19T14:07:11.0000000+00:00</time></trkpt><trkpt lat="64.21425629" lon="-20.87431526"><ele>165.2</ele><time>2012-07-19T14:07:16.0000000+00:00</time></trkpt><trkpt lat="64.2142334" lon="-20.87464714"><ele>162.8</ele><time>2012-07-19T14:07:21.0000000+00:00</time></trkpt><trkpt lat="64.21419525" lon="-20.87499619"><ele>162.7</ele><time>2012-07-19T14:07:26.0000000+00:00</time></trkpt><trkpt lat="64.21414185" lon="-20.87534905"><ele>161.5</ele><time>2012-07-19T14:07:31.0000000+00:00</time></trkpt><trkpt lat="64.21411133" lon="-20.87568474"><ele>161.5</ele><time>2012-07-19T14:07:36.0000000+00:00</time></trkpt><trkpt lat="64.21407318" lon="-20.87603378"><ele>163.0</ele><time>2012-07-19T14:07:41.0000000+00:00</time></trkpt><trkpt lat="64.21399689" lon="-20.87634468"><ele>160.9</ele><time>2012-07-19T14:07:46.0000000+00:00</time></trkpt><trkpt lat="64.21394348" lon="-20.87670517"><ele>159.1</ele><time>2012-07-19T14:07:51.0000000+00:00</time></trkpt><trkpt lat="64.21386719" lon="-20.87707329"><ele>155.9</ele><time>2012-07-19T14:07:56.0000000+00:00</time></trkpt><trkpt lat="64.21379852" lon="-20.87745667"><ele>157.4</ele><time>2012-07-19T14:08:01.0000000+00:00</time></trkpt><trkpt lat="64.21373749" lon="-20.87784576"><ele>157.8</ele><time>2012-07-19T14:08:06.0000000+00:00</time></trkpt><trkpt lat="64.21369171" lon="-20.87823868"><ele>158.9</ele><time>2012-07-19T14:08:11.0000000+00:00</time></trkpt><trkpt lat="64.21363068" lon="-20.87863159"><ele>160.0</ele><time>2012-07-19T14:08:16.0000000+00:00</time></trkpt><trkpt lat="64.2135849" lon="-20.87905121"><ele>161.2</ele><time>2012-07-19T14:08:21.0000000+00:00</time></trkpt><trkpt lat="64.21353149" lon="-20.87944031"><ele>161.1</ele><time>2012-07-19T14:08:26.0000000+00:00</time></trkpt><trkpt lat="64.21348572" lon="-20.87982559"><ele>162.8</ele><time>2012-07-19T14:08:31.0000000+00:00</time></trkpt><trkpt lat="64.21344757" lon="-20.88013649"><ele>162.5</ele><time>2012-07-19T14:08:36.0000000+00:00</time></trkpt><trkpt lat="64.21342468" lon="-20.88045692"><ele>162.1</ele><time>2012-07-19T14:08:41.0000000+00:00</time></trkpt><trkpt lat="64.21338654" lon="-20.88080406"><ele>163.5</ele><time>2012-07-19T14:08:46.0000000+00:00</time></trkpt><trkpt lat="64.21333313" lon="-20.88117981"><ele>165.8</ele><time>2012-07-19T14:08:51.0000000+00:00</time></trkpt><trkpt lat="64.21327972" lon="-20.88155174"><ele>167.5</ele><time>2012-07-19T14:08:56.0000000+00:00</time></trkpt><trkpt lat="64.21324158" lon="-20.88189316"><ele>170.6</ele><time>2012-07-19T14:09:01.0000000+00:00</time></trkpt><trkpt lat="64.21320343" lon="-20.88224983"><ele>173.4</ele><time>2012-07-19T14:09:06.0000000+00:00</time></trkpt><trkpt lat="64.21316528" lon="-20.88254929"><ele>174.7</ele><time>2012-07-19T14:09:11.0000000+00:00</time></trkpt><trkpt lat="64.21311951" lon="-20.88281441"><ele>177.1</ele><time>2012-07-19T14:09:16.0000000+00:00</time></trkpt><trkpt lat="64.21308136" lon="-20.88313675"><ele>178.3</ele><time>2012-07-19T14:09:21.0000000+00:00</time></trkpt><trkpt lat="64.21304321" lon="-20.8834095"><ele>179.7</ele><time>2012-07-19T14:09:26.0000000+00:00</time></trkpt><trkpt lat="64.21300507" lon="-20.88374329"><ele>178.7</ele><time>2012-07-19T14:09:31.0000000+00:00</time></trkpt><trkpt lat="64.21296692" lon="-20.88409233"><ele>178.7</ele><time>2012-07-19T14:09:36.0000000+00:00</time></trkpt><trkpt lat="64.21292114" lon="-20.88446617"><ele>178.0</ele><time>2012-07-19T14:09:41.0000000+00:00</time></trkpt><trkpt lat="64.21286774" lon="-20.88485527"><ele>178.4</ele><time>2012-07-19T14:09:46.0000000+00:00</time></trkpt><trkpt lat="64.21282959" lon="-20.88524437"><ele>178.5</ele><time>2012-07-19T14:09:51.0000000+00:00</time></trkpt><trkpt lat="64.21277618" lon="-20.88564682"><ele>178.5</ele><time>2012-07-19T14:09:56.0000000+00:00</time></trkpt><trkpt lat="64.21273041" lon="-20.88604355"><ele>178.5</ele><time>2012-07-19T14:10:01.0000000+00:00</time></trkpt><trkpt lat="64.212677" lon="-20.88644028"><ele>178.8</ele><time>2012-07-19T14:10:06.0000000+00:00</time></trkpt><trkpt lat="64.2126236" lon="-20.88682365"><ele>179.0</ele><time>2012-07-19T14:10:11.0000000+00:00</time></trkpt><trkpt lat="64.21258545" lon="-20.88707161"><ele>179.3</ele><time>2012-07-19T14:10:16.0000000+00:00</time></trkpt><trkpt lat="64.21256256" lon="-20.88721275"><ele>179.4</ele><time>2012-07-19T14:10:21.0000000+00:00</time></trkpt><trkpt lat="64.21257019" lon="-20.88733292"><ele>179.0</ele><time>2012-07-19T14:10:26.0000000+00:00</time></trkpt><trkpt lat="64.21257019" lon="-20.88731384"><ele>179.2</ele><time>2012-07-19T14:10:31.0000000+00:00</time></trkpt><trkpt lat="64.21257019" lon="-20.88731194"><ele>179.3</ele><time>2012-07-19T14:10:36.0000000+00:00</time></trkpt><trkpt lat="64.21257019" lon="-20.88731194"><ele>179.3</ele><time>2012-07-19T14:10:41.0000000+00:00</time></trkpt><trkpt lat="64.21257019" lon="-20.88731194"><ele>179.3</ele><time>2012-07-19T14:10:46.0000000+00:00</time></trkpt><trkpt lat="64.21257019" lon="-20.88731194"><ele>179.3</ele><time>2012-07-19T14:10:51.0000000+00:00</time></trkpt><trkpt lat="64.21257019" lon="-20.88731003"><ele>179.3</ele><time>2012-07-19T14:10:56.0000000+00:00</time></trkpt><trkpt lat="64.21257019" lon="-20.88731003"><ele>179.3</ele><time>2012-07-19T14:11:01.0000000+00:00</time></trkpt><trkpt lat="64.21257019" lon="-20.88731003"><ele>179.2</ele><time>2012-07-19T14:11:06.0000000+00:00</time></trkpt><trkpt lat="64.21257019" lon="-20.88731003"><ele>179.2</ele><time>2012-07-19T14:11:11.0000000+00:00</time></trkpt><trkpt lat="64.21257019" lon="-20.88731003"><ele>179.2</ele><time>2012-07-19T14:11:16.0000000+00:00</time></trkpt><trkpt lat="64.21257019" lon="-20.88731003"><ele>179.2</ele><time>2012-07-19T14:11:21.0000000+00:00</time></trkpt><trkpt lat="64.21257019" lon="-20.88730812"><ele>179.2</ele><time>2012-07-19T14:11:26.0000000+00:00</time></trkpt><trkpt lat="64.21257019" lon="-20.88730812"><ele>179.2</ele><time>2012-07-19T14:11:31.0000000+00:00</time></trkpt><trkpt lat="64.21257019" lon="-20.88730812"><ele>179.2</ele><time>2012-07-19T14:11:36.0000000+00:00</time></trkpt><trkpt lat="64.21257019" lon="-20.88730812"><ele>179.2</ele><time>2012-07-19T14:11:41.0000000+00:00</time></trkpt><trkpt lat="64.21257782" lon="-20.88732338"><ele>179.3</ele><time>2012-07-19T14:11:46.0000000+00:00</time></trkpt><trkpt lat="64.21263123" lon="-20.88741303"><ele>179.2</ele><time>2012-07-19T14:11:51.0000000+00:00</time></trkpt><trkpt lat="64.21269989" lon="-20.88743782"><ele>179.0</ele><time>2012-07-19T14:11:56.0000000+00:00</time></trkpt><trkpt lat="64.21279907" lon="-20.88748741"><ele>178.3</ele><time>2012-07-19T14:12:01.0000000+00:00</time></trkpt><trkpt lat="64.2129364" lon="-20.88754463"><ele>178.0</ele><time>2012-07-19T14:12:06.0000000+00:00</time></trkpt><trkpt lat="64.21309662" lon="-20.88762093"><ele>178.1</ele><time>2012-07-19T14:12:11.0000000+00:00</time></trkpt><trkpt lat="64.21325684" lon="-20.88768959"><ele>178.3</ele><time>2012-07-19T14:12:16.0000000+00:00</time></trkpt><trkpt lat="64.21340179" lon="-20.88771629"><ele>178.4</ele><time>2012-07-19T14:12:21.0000000+00:00</time></trkpt><trkpt lat="64.21354675" lon="-20.88768959"><ele>179.2</ele><time>2012-07-19T14:12:26.0000000+00:00</time></trkpt><trkpt lat="64.21367645" lon="-20.88764"><ele>179.7</ele><time>2012-07-19T14:12:31.0000000+00:00</time></trkpt><trkpt lat="64.21379852" lon="-20.88757515"><ele>180.0</ele><time>2012-07-19T14:12:36.0000000+00:00</time></trkpt><trkpt lat="64.21395111" lon="-20.88747025"><ele>180.8</ele><time>2012-07-19T14:12:41.0000000+00:00</time></trkpt><trkpt lat="64.21411133" lon="-20.88726997"><ele>180.6</ele><time>2012-07-19T14:12:46.0000000+00:00</time></trkpt><trkpt lat="64.21426392" lon="-20.88700104"><ele>180.6</ele><time>2012-07-19T14:12:51.0000000+00:00</time></trkpt><trkpt lat="64.21439362" lon="-20.88674545"><ele>180.8</ele><time>2012-07-19T14:12:56.0000000+00:00</time></trkpt><trkpt lat="64.21452332" lon="-20.88649368"><ele>180.4</ele><time>2012-07-19T14:13:01.0000000+00:00</time></trkpt><trkpt lat="64.21468353" lon="-20.88619232"><ele>180.4</ele><time>2012-07-19T14:13:06.0000000+00:00</time></trkpt><trkpt lat="64.21482086" lon="-20.88595963"><ele>180.5</ele><time>2012-07-19T14:13:11.0000000+00:00</time></trkpt><trkpt lat="64.21494293" lon="-20.88576508"><ele>181.1</ele><time>2012-07-19T14:13:16.0000000+00:00</time></trkpt><trkpt lat="64.21508789" lon="-20.88554955"><ele>181.4</ele><time>2012-07-19T14:13:21.0000000+00:00</time></trkpt><trkpt lat="64.21524048" lon="-20.88535309"><ele>181.4</ele><time>2012-07-19T14:13:26.0000000+00:00</time></trkpt><trkpt lat="64.21542358" lon="-20.88513374"><ele>182.7</ele><time>2012-07-19T14:13:31.0000000+00:00</time></trkpt><trkpt lat="64.2155838" lon="-20.88487816"><ele>183.5</ele><time>2012-07-19T14:13:36.0000000+00:00</time></trkpt><trkpt lat="64.21574402" lon="-20.88455772"><ele>185.4</ele><time>2012-07-19T14:13:41.0000000+00:00</time></trkpt><trkpt lat="64.2159195" lon="-20.88429642"><ele>184.8</ele><time>2012-07-19T14:13:46.0000000+00:00</time></trkpt><trkpt lat="64.21602631" lon="-20.88411331"><ele>183.0</ele><time>2012-07-19T14:13:51.0000000+00:00</time></trkpt><trkpt lat="64.21611023" lon="-20.88398361"><ele>182.1</ele><time>2012-07-19T14:13:56.0000000+00:00</time></trkpt><trkpt lat="64.21620941" lon="-20.88386345"><ele>182.6</ele><time>2012-07-19T14:14:01.0000000+00:00</time></trkpt><trkpt lat="64.21624756" lon="-20.88380814"><ele>181.7</ele><time>2012-07-19T14:14:06.0000000+00:00</time></trkpt><trkpt lat="64.21625519" lon="-20.88379479"><ele>181.1</ele><time>2012-07-19T14:14:11.0000000+00:00</time></trkpt><trkpt lat="64.21624756" lon="-20.88379669"><ele>180.9</ele><time>2012-07-19T14:14:16.0000000+00:00</time></trkpt><trkpt lat="64.21624756" lon="-20.88379669"><ele>180.8</ele><time>2012-07-19T14:14:21.0000000+00:00</time></trkpt><trkpt lat="64.21624756" lon="-20.88379669"><ele>180.8</ele><time>2012-07-19T14:14:26.0000000+00:00</time></trkpt><trkpt lat="64.21625519" lon="-20.88379288"><ele>180.8</ele><time>2012-07-19T14:14:31.0000000+00:00</time></trkpt><trkpt lat="64.21625519" lon="-20.88378716"><ele>180.8</ele><time>2012-07-19T14:14:36.0000000+00:00</time></trkpt><trkpt lat="64.21625519" lon="-20.88378716"><ele>180.8</ele><time>2012-07-19T14:14:41.0000000+00:00</time></trkpt><trkpt lat="64.21625519" lon="-20.88378906"><ele>180.7</ele><time>2012-07-19T14:14:46.0000000+00:00</time></trkpt><trkpt lat="64.21625519" lon="-20.88378716"><ele>180.7</ele><time>2012-07-19T14:14:51.0000000+00:00</time></trkpt><trkpt lat="64.21625519" lon="-20.88378716"><ele>180.7</ele><time>2012-07-19T14:14:56.0000000+00:00</time></trkpt><trkpt lat="64.21625519" lon="-20.88378716"><ele>180.7</ele><time>2012-07-19T14:15:01.0000000+00:00</time></trkpt><trkpt lat="64.21625519" lon="-20.88378716"><ele>180.7</ele><time>2012-07-19T14:15:06.0000000+00:00</time></trkpt><trkpt lat="64.21625519" lon="-20.88378906"><ele>180.7</ele><time>2012-07-19T14:15:11.0000000+00:00</time></trkpt><trkpt lat="64.21625519" lon="-20.88378716"><ele>180.7</ele><time>2012-07-19T14:15:16.0000000+00:00</time></trkpt><trkpt lat="64.21625519" lon="-20.88378906"><ele>180.6</ele><time>2012-07-19T14:15:21.0000000+00:00</time></trkpt><trkpt lat="64.21625519" lon="-20.88378906"><ele>180.6</ele><time>2012-07-19T14:15:26.0000000+00:00</time></trkpt><trkpt lat="64.21625519" lon="-20.88378906"><ele>180.6</ele><time>2012-07-19T14:15:31.0000000+00:00</time></trkpt><trkpt lat="64.21625519" lon="-20.88378906"><ele>180.6</ele><time>2012-07-19T14:15:36.0000000+00:00</time></trkpt><trkpt lat="64.21625519" lon="-20.88378906"><ele>180.6</ele><time>2012-07-19T14:15:41.0000000+00:00</time></trkpt><trkpt lat="64.21625519" lon="-20.88378906"><ele>180.5</ele><time>2012-07-19T14:15:46.0000000+00:00</time></trkpt><trkpt lat="64.21625519" lon="-20.88378906"><ele>180.5</ele><time>2012-07-19T14:15:51.0000000+00:00</time></trkpt><trkpt lat="64.21625519" lon="-20.88378906"><ele>180.5</ele><time>2012-07-19T14:15:56.0000000+00:00</time></trkpt><trkpt lat="64.21625519" lon="-20.88378906"><ele>180.5</ele><time>2012-07-19T14:16:01.0000000+00:00</time></trkpt><trkpt lat="64.21625519" lon="-20.88379097"><ele>180.5</ele><time>2012-07-19T14:16:06.0000000+00:00</time></trkpt><trkpt lat="64.21625519" lon="-20.88379097"><ele>180.4</ele><time>2012-07-19T14:16:11.0000000+00:00</time></trkpt><trkpt lat="64.21625519" lon="-20.88379097"><ele>180.4</ele><time>2012-07-19T14:16:16.0000000+00:00</time></trkpt><trkpt lat="64.21625519" lon="-20.88379097"><ele>180.4</ele><time>2012-07-19T14:16:21.0000000+00:00</time></trkpt><trkpt lat="64.21625519" lon="-20.88379097"><ele>180.4</ele><time>2012-07-19T14:16:26.0000000+00:00</time></trkpt><trkpt lat="64.21625519" lon="-20.88379097"><ele>180.4</ele><time>2012-07-19T14:16:31.0000000+00:00</time></trkpt><trkpt lat="64.21625519" lon="-20.88379097"><ele>180.4</ele><time>2012-07-19T14:16:36.0000000+00:00</time></trkpt><trkpt lat="64.21625519" lon="-20.88379097"><ele>180.3</ele><time>2012-07-19T14:16:41.0000000+00:00</time></trkpt><trkpt lat="64.21625519" lon="-20.88379097"><ele>180.3</ele><time>2012-07-19T14:16:46.0000000+00:00</time></trkpt><trkpt lat="64.21625519" lon="-20.88379097"><ele>180.3</ele><time>2012-07-19T14:16:51.0000000+00:00</time></trkpt><trkpt lat="64.21625519" lon="-20.88379097"><ele>180.3</ele><time>2012-07-19T14:16:56.0000000+00:00</time></trkpt><trkpt lat="64.21625519" lon="-20.88379097"><ele>180.3</ele><time>2012-07-19T14:17:01.0000000+00:00</time></trkpt><trkpt lat="64.21625519" lon="-20.88379097"><ele>180.3</ele><time>2012-07-19T14:17:06.0000000+00:00</time></trkpt><trkpt lat="64.21625519" lon="-20.88379097"><ele>180.2</ele><time>2012-07-19T14:17:11.0000000+00:00</time></trkpt><trkpt lat="64.21625519" lon="-20.88379288"><ele>180.2</ele><time>2012-07-19T14:17:16.0000000+00:00</time></trkpt><trkpt lat="64.21625519" lon="-20.88379288"><ele>180.2</ele><time>2012-07-19T14:17:21.0000000+00:00</time></trkpt><trkpt lat="64.21625519" lon="-20.88379288"><ele>180.2</ele><time>2012-07-19T14:17:26.0000000+00:00</time></trkpt><trkpt lat="64.21625519" lon="-20.88379288"><ele>180.1</ele><time>2012-07-19T14:17:31.0000000+00:00</time></trkpt><trkpt lat="64.21625519" lon="-20.88379288"><ele>180.1</ele><time>2012-07-19T14:17:36.0000000+00:00</time></trkpt><trkpt lat="64.21625519" lon="-20.88379288"><ele>180.1</ele><time>2012-07-19T14:17:41.0000000+00:00</time></trkpt><trkpt lat="64.21625519" lon="-20.88379479"><ele>180.1</ele><time>2012-07-19T14:17:46.0000000+00:00</time></trkpt><trkpt lat="64.21625519" lon="-20.88379479"><ele>180.1</ele><time>2012-07-19T14:17:51.0000000+00:00</time></trkpt><trkpt lat="64.21625519" lon="-20.88379479"><ele>180.0</ele><time>2012-07-19T14:17:56.0000000+00:00</time></trkpt><trkpt lat="64.21625519" lon="-20.88379669"><ele>180.0</ele><time>2012-07-19T14:18:01.0000000+00:00</time></trkpt><trkpt lat="64.21625519" lon="-20.88379669"><ele>180.0</ele><time>2012-07-19T14:18:06.0000000+00:00</time></trkpt><trkpt lat="64.21625519" lon="-20.88379669"><ele>179.9</ele><time>2012-07-19T14:18:11.0000000+00:00</time></trkpt><trkpt lat="64.21625519" lon="-20.8837986"><ele>179.9</ele><time>2012-07-19T14:18:16.0000000+00:00</time></trkpt><trkpt lat="64.21625519" lon="-20.8837986"><ele>179.9</ele><time>2012-07-19T14:18:21.0000000+00:00</time></trkpt><trkpt lat="64.21625519" lon="-20.88380051"><ele>179.9</ele><time>2012-07-19T14:18:26.0000000+00:00</time></trkpt><trkpt lat="64.21625519" lon="-20.88380051"><ele>179.8</ele><time>2012-07-19T14:18:31.0000000+00:00</time></trkpt><trkpt lat="64.21625519" lon="-20.88380051"><ele>179.8</ele><time>2012-07-19T14:18:36.0000000+00:00</time></trkpt><trkpt lat="64.21625519" lon="-20.88380241"><ele>179.8</ele><time>2012-07-19T14:18:41.0000000+00:00</time></trkpt><trkpt lat="64.21625519" lon="-20.8837986"><ele>180.1</ele><time>2012-07-19T14:18:46.0000000+00:00</time></trkpt><trkpt lat="64.21625519" lon="-20.88380814"><ele>180.5</ele><time>2012-07-19T14:18:51.0000000+00:00</time></trkpt><trkpt lat="64.21630859" lon="-20.88373756"><ele>180.9</ele><time>2012-07-19T14:18:56.0000000+00:00</time></trkpt><trkpt lat="64.21635437" lon="-20.88374329"><ele>181.5</ele><time>2012-07-19T14:19:01.0000000+00:00</time></trkpt><trkpt lat="64.21641541" lon="-20.88375855"><ele>182.4</ele><time>2012-07-19T14:19:06.0000000+00:00</time></trkpt><trkpt lat="64.21647644" lon="-20.88372803"><ele>182.6</ele><time>2012-07-19T14:19:11.0000000+00:00</time></trkpt><trkpt lat="64.21654511" lon="-20.88368607"><ele>183.1</ele><time>2012-07-19T14:19:16.0000000+00:00</time></trkpt><trkpt lat="64.21660614" lon="-20.88371658"><ele>184.1</ele><time>2012-07-19T14:19:21.0000000+00:00</time></trkpt><trkpt lat="64.21667481" lon="-20.88372803"><ele>186.2</ele><time>2012-07-19T14:19:26.0000000+00:00</time></trkpt><trkpt lat="64.21674347" lon="-20.88374901"><ele>187.1</ele><time>2012-07-19T14:19:31.0000000+00:00</time></trkpt><trkpt lat="64.21681213" lon="-20.8837471"><ele>188.4</ele><time>2012-07-19T14:19:36.0000000+00:00</time></trkpt><trkpt lat="64.2168808" lon="-20.88376045"><ele>189.8</ele><time>2012-07-19T14:19:41.0000000+00:00</time></trkpt><trkpt lat="64.21694946" lon="-20.8837738"><ele>191.9</ele><time>2012-07-19T14:19:46.0000000+00:00</time></trkpt><trkpt lat="64.21700287" lon="-20.88378334"><ele>193.1</ele><time>2012-07-19T14:19:51.0000000+00:00</time></trkpt><trkpt lat="64.2170639" lon="-20.88377571"><ele>194.6</ele><time>2012-07-19T14:19:56.0000000+00:00</time></trkpt><trkpt lat="64.21713257" lon="-20.88375664"><ele>195.4</ele><time>2012-07-19T14:20:01.0000000+00:00</time></trkpt><trkpt lat="64.21718597" lon="-20.88376045"><ele>195.3</ele><time>2012-07-19T14:20:06.0000000+00:00</time></trkpt><trkpt lat="64.21724701" lon="-20.88376999"><ele>196.8</ele><time>2012-07-19T14:20:11.0000000+00:00</time></trkpt><trkpt lat="64.21730804" lon="-20.88375282"><ele>197.7</ele><time>2012-07-19T14:20:16.0000000+00:00</time></trkpt><trkpt lat="64.21737671" lon="-20.88372231"><ele>198.5</ele><time>2012-07-19T14:20:21.0000000+00:00</time></trkpt><trkpt lat="64.21743012" lon="-20.88373947"><ele>198.6</ele><time>2012-07-19T14:20:26.0000000+00:00</time></trkpt><trkpt lat="64.21747589" lon="-20.88378716"><ele>200.5</ele><time>2012-07-19T14:20:31.0000000+00:00</time></trkpt><trkpt lat="64.21750641" lon="-20.88385582"><ele>203.5</ele><time>2012-07-19T14:20:36.0000000+00:00</time></trkpt><trkpt lat="64.21753693" lon="-20.88392639"><ele>203.1</ele><time>2012-07-19T14:20:41.0000000+00:00</time></trkpt><trkpt lat="64.21754456" lon="-20.88403511"><ele>203.8</ele><time>2012-07-19T14:20:46.0000000+00:00</time></trkpt><trkpt lat="64.21751404" lon="-20.88402748"><ele>205.1</ele><time>2012-07-19T14:20:51.0000000+00:00</time></trkpt><trkpt lat="64.21746826" lon="-20.88388062"><ele>206.3</ele><time>2012-07-19T14:20:56.0000000+00:00</time></trkpt><trkpt lat="64.21743774" lon="-20.88386536"><ele>205.2</ele><time>2012-07-19T14:21:01.0000000+00:00</time></trkpt><trkpt lat="64.217453" lon="-20.88389206"><ele>204.4</ele><time>2012-07-19T14:21:06.0000000+00:00</time></trkpt><trkpt lat="64.21749878" lon="-20.88390732"><ele>202.2</ele><time>2012-07-19T14:21:11.0000000+00:00</time></trkpt><trkpt lat="64.21754456" lon="-20.8839283"><ele>196.2</ele><time>2012-07-19T14:21:16.0000000+00:00</time></trkpt><trkpt lat="64.21756744" lon="-20.8839016"><ele>193.2</ele><time>2012-07-19T14:21:21.0000000+00:00</time></trkpt><trkpt lat="64.21761322" lon="-20.88385201"><ele>190.2</ele><time>2012-07-19T14:21:26.0000000+00:00</time></trkpt><trkpt lat="64.21767426" lon="-20.88374138"><ele>190.7</ele><time>2012-07-19T14:21:31.0000000+00:00</time></trkpt><trkpt lat="64.21772766" lon="-20.88368416"><ele>191.1</ele><time>2012-07-19T14:21:36.0000000+00:00</time></trkpt><trkpt lat="64.21778107" lon="-20.88368988"><ele>191.4</ele><time>2012-07-19T14:21:41.0000000+00:00</time></trkpt><trkpt lat="64.21781921" lon="-20.88374329"><ele>191.7</ele><time>2012-07-19T14:21:46.0000000+00:00</time></trkpt><trkpt lat="64.2178421" lon="-20.8838253"><ele>191.9</ele><time>2012-07-19T14:21:51.0000000+00:00</time></trkpt><trkpt lat="64.21786499" lon="-20.88390923"><ele>191.8</ele><time>2012-07-19T14:21:56.0000000+00:00</time></trkpt><trkpt lat="64.21788025" lon="-20.88393211"><ele>192.6</ele><time>2012-07-19T14:22:01.0000000+00:00</time></trkpt><trkpt lat="64.21788025" lon="-20.88393211"><ele>192.4</ele><time>2012-07-19T14:22:06.0000000+00:00</time></trkpt><trkpt lat="64.21791077" lon="-20.88395882"><ele>193.1</ele><time>2012-07-19T14:22:11.0000000+00:00</time></trkpt><trkpt lat="64.21794891" lon="-20.88404083"><ele>193.6</ele><time>2012-07-19T14:22:16.0000000+00:00</time></trkpt><trkpt lat="64.21799469" lon="-20.88413429"><ele>193.9</ele><time>2012-07-19T14:22:21.0000000+00:00</time></trkpt><trkpt lat="64.21803284" lon="-20.88422966"><ele>194.4</ele><time>2012-07-19T14:22:26.0000000+00:00</time></trkpt><trkpt lat="64.21806335" lon="-20.88425064"><ele>195.7</ele><time>2012-07-19T14:22:31.0000000+00:00</time></trkpt><trkpt lat="64.21806335" lon="-20.88425064"><ele>196.5</ele><time>2012-07-19T14:22:36.0000000+00:00</time></trkpt><trkpt lat="64.21809387" lon="-20.8843174"><ele>196.8</ele><time>2012-07-19T14:22:41.0000000+00:00</time></trkpt><trkpt lat="64.21813965" lon="-20.8844204"><ele>197.2</ele><time>2012-07-19T14:22:46.0000000+00:00</time></trkpt><trkpt lat="64.21816254" lon="-20.88450623"><ele>197.7</ele><time>2012-07-19T14:22:51.0000000+00:00</time></trkpt><trkpt lat="64.21815491" lon="-20.88452721"><ele>198.0</ele><time>2012-07-19T14:22:56.0000000+00:00</time></trkpt><trkpt lat="64.21813965" lon="-20.88453102"><ele>198.3</ele><time>2012-07-19T14:23:01.0000000+00:00</time></trkpt><trkpt lat="64.21813202" lon="-20.88453293"><ele>198.3</ele><time>2012-07-19T14:23:06.0000000+00:00</time></trkpt><trkpt lat="64.21813202" lon="-20.88453293"><ele>198.3</ele><time>2012-07-19T14:23:11.0000000+00:00</time></trkpt><trkpt lat="64.21813965" lon="-20.88453102"><ele>198.3</ele><time>2012-07-19T14:23:16.0000000+00:00</time></trkpt><trkpt lat="64.21813965" lon="-20.88453102"><ele>198.3</ele><time>2012-07-19T14:23:21.0000000+00:00</time></trkpt><trkpt lat="64.21814728" lon="-20.88452911"><ele>198.4</ele><time>2012-07-19T14:23:26.0000000+00:00</time></trkpt><trkpt lat="64.21814728" lon="-20.88452911"><ele>198.5</ele><time>2012-07-19T14:23:31.0000000+00:00</time></trkpt><trkpt lat="64.21814728" lon="-20.88453102"><ele>198.5</ele><time>2012-07-19T14:23:36.0000000+00:00</time></trkpt><trkpt lat="64.21814728" lon="-20.88453102"><ele>198.6</ele><time>2012-07-19T14:23:41.0000000+00:00</time></trkpt><trkpt lat="64.21815491" lon="-20.88452721"><ele>198.6</ele><time>2012-07-19T14:23:46.0000000+00:00</time></trkpt><trkpt lat="64.21814728" lon="-20.88448906"><ele>198.2</ele><time>2012-07-19T14:23:51.0000000+00:00</time></trkpt><trkpt lat="64.21813202" lon="-20.88437843"><ele>197.5</ele><time>2012-07-19T14:23:56.0000000+00:00</time></trkpt><trkpt lat="64.2181015" lon="-20.88429451"><ele>196.9</ele><time>2012-07-19T14:24:01.0000000+00:00</time></trkpt><trkpt lat="64.21807861" lon="-20.88420487"><ele>196.1</ele><time>2012-07-19T14:24:06.0000000+00:00</time></trkpt><trkpt lat="64.2180481" lon="-20.88414764"><ele>195.5</ele><time>2012-07-19T14:24:11.0000000+00:00</time></trkpt><trkpt lat="64.21801758" lon="-20.88409424"><ele>194.6</ele><time>2012-07-19T14:24:16.0000000+00:00</time></trkpt><trkpt lat="64.21797943" lon="-20.8840313"><ele>194.1</ele><time>2012-07-19T14:24:21.0000000+00:00</time></trkpt><trkpt lat="64.21795654" lon="-20.88398933"><ele>193.6</ele><time>2012-07-19T14:24:26.0000000+00:00</time></trkpt><trkpt lat="64.21794891" lon="-20.88400078"><ele>193.4</ele><time>2012-07-19T14:24:31.0000000+00:00</time></trkpt><trkpt lat="64.21794891" lon="-20.88400078"><ele>193.4</ele><time>2012-07-19T14:24:36.0000000+00:00</time></trkpt><trkpt lat="64.21794128" lon="-20.88397408"><ele>192.8</ele><time>2012-07-19T14:24:41.0000000+00:00</time></trkpt><trkpt lat="64.21793366" lon="-20.88393021"><ele>192.4</ele><time>2012-07-19T14:24:46.0000000+00:00</time></trkpt><trkpt lat="64.21793366" lon="-20.8839016"><ele>192.2</ele><time>2012-07-19T14:24:51.0000000+00:00</time></trkpt><trkpt lat="64.21793366" lon="-20.88389969"><ele>192.3</ele><time>2012-07-19T14:24:56.0000000+00:00</time></trkpt><trkpt lat="64.21793366" lon="-20.88389969"><ele>192.3</ele><time>2012-07-19T14:25:01.0000000+00:00</time></trkpt><trkpt lat="64.21793366" lon="-20.88389969"><ele>192.3</ele><time>2012-07-19T14:25:06.0000000+00:00</time></trkpt><trkpt lat="64.21793366" lon="-20.88389969"><ele>192.3</ele><time>2012-07-19T14:25:11.0000000+00:00</time></trkpt><trkpt lat="64.21793366" lon="-20.88389969"><ele>192.3</ele><time>2012-07-19T14:25:16.0000000+00:00</time></trkpt><trkpt lat="64.21793366" lon="-20.88389969"><ele>192.3</ele><time>2012-07-19T14:25:21.0000000+00:00</time></trkpt><trkpt lat="64.21793366" lon="-20.88389969"><ele>192.3</ele><time>2012-07-19T14:25:26.0000000+00:00</time></trkpt><trkpt lat="64.21793366" lon="-20.88389969"><ele>192.3</ele><time>2012-07-19T14:25:31.0000000+00:00</time></trkpt><trkpt lat="64.21793366" lon="-20.88389969"><ele>192.3</ele><time>2012-07-19T14:25:36.0000000+00:00</time></trkpt><trkpt lat="64.21793366" lon="-20.88389969"><ele>192.3</ele><time>2012-07-19T14:25:41.0000000+00:00</time></trkpt><trkpt lat="64.21792603" lon="-20.88389015"><ele>192.3</ele><time>2012-07-19T14:25:46.0000000+00:00</time></trkpt><trkpt lat="64.21789551" lon="-20.88385963"><ele>192.8</ele><time>2012-07-19T14:25:51.0000000+00:00</time></trkpt><trkpt lat="64.21788788" lon="-20.88384438"><ele>193.1</ele><time>2012-07-19T14:25:56.0000000+00:00</time></trkpt><trkpt lat="64.21788025" lon="-20.88379669"><ele>192.3</ele><time>2012-07-19T14:26:01.0000000+00:00</time></trkpt><trkpt lat="64.21786499" lon="-20.88376427"><ele>192.0</ele><time>2012-07-19T14:26:06.0000000+00:00</time></trkpt><trkpt lat="64.21786499" lon="-20.88376999"><ele>191.9</ele><time>2012-07-19T14:26:11.0000000+00:00</time></trkpt><trkpt lat="64.21785736" lon="-20.88375092"><ele>192.0</ele><time>2012-07-19T14:26:16.0000000+00:00</time></trkpt><trkpt lat="64.21782684" lon="-20.88369751"><ele>191.5</ele><time>2012-07-19T14:26:21.0000000+00:00</time></trkpt><trkpt lat="64.21778107" lon="-20.88366318"><ele>191.0</ele><time>2012-07-19T14:26:26.0000000+00:00</time></trkpt><trkpt lat="64.21774292" lon="-20.88366318"><ele>191.0</ele><time>2012-07-19T14:26:31.0000000+00:00</time></trkpt><trkpt lat="64.21769714" lon="-20.88367653"><ele>190.7</ele><time>2012-07-19T14:26:36.0000000+00:00</time></trkpt><trkpt lat="64.217659" lon="-20.88373375"><ele>190.6</ele><time>2012-07-19T14:26:41.0000000+00:00</time></trkpt><trkpt lat="64.21763611" lon="-20.88378143"><ele>190.8</ele><time>2012-07-19T14:26:46.0000000+00:00</time></trkpt><trkpt lat="64.21761322" lon="-20.8837986"><ele>190.9</ele><time>2012-07-19T14:26:51.0000000+00:00</time></trkpt><trkpt lat="64.21757507" lon="-20.88385773"><ele>191.0</ele><time>2012-07-19T14:26:56.0000000+00:00</time></trkpt><trkpt lat="64.21754456" lon="-20.88389778"><ele>191.1</ele><time>2012-07-19T14:27:01.0000000+00:00</time></trkpt><trkpt lat="64.2175293" lon="-20.88387299"><ele>190.3</ele><time>2012-07-19T14:27:06.0000000+00:00</time></trkpt><trkpt lat="64.21747589" lon="-20.88386345"><ele>189.8</ele><time>2012-07-19T14:27:11.0000000+00:00</time></trkpt><trkpt lat="64.21742249" lon="-20.8838768"><ele>189.4</ele><time>2012-07-19T14:27:16.0000000+00:00</time></trkpt><trkpt lat="64.21738434" lon="-20.8839016"><ele>188.9</ele><time>2012-07-19T14:27:21.0000000+00:00</time></trkpt><trkpt lat="64.21733856" lon="-20.88390541"><ele>188.2</ele><time>2012-07-19T14:27:26.0000000+00:00</time></trkpt><trkpt lat="64.21729279" lon="-20.88387299"><ele>186.6</ele><time>2012-07-19T14:27:31.0000000+00:00</time></trkpt><trkpt lat="64.21725464" lon="-20.8838253"><ele>186.3</ele><time>2012-07-19T14:27:36.0000000+00:00</time></trkpt><trkpt lat="64.21721649" lon="-20.88378334"><ele>185.6</ele><time>2012-07-19T14:27:41.0000000+00:00</time></trkpt><trkpt lat="64.21715546" lon="-20.8837719"><ele>183.6</ele><time>2012-07-19T14:27:46.0000000+00:00</time></trkpt><trkpt lat="64.21709442" lon="-20.88379669"><ele>182.7</ele><time>2012-07-19T14:27:51.0000000+00:00</time></trkpt><trkpt lat="64.21703339" lon="-20.88380241"><ele>182.6</ele><time>2012-07-19T14:27:56.0000000+00:00</time></trkpt><trkpt lat="64.21697998" lon="-20.8837986"><ele>182.2</ele><time>2012-07-19T14:28:01.0000000+00:00</time></trkpt><trkpt lat="64.21691895" lon="-20.88379669"><ele>181.4</ele><time>2012-07-19T14:28:06.0000000+00:00</time></trkpt><trkpt lat="64.21686554" lon="-20.8837986"><ele>180.7</ele><time>2012-07-19T14:28:11.0000000+00:00</time></trkpt><trkpt lat="64.21679688" lon="-20.88380814"><ele>179.5</ele><time>2012-07-19T14:28:16.0000000+00:00</time></trkpt><trkpt lat="64.21672821" lon="-20.88375855"><ele>179.4</ele><time>2012-07-19T14:28:21.0000000+00:00</time></trkpt><trkpt lat="64.21667481" lon="-20.8837471"><ele>179.7</ele><time>2012-07-19T14:28:26.0000000+00:00</time></trkpt><trkpt lat="64.2166214" lon="-20.88371849"><ele>179.7</ele><time>2012-07-19T14:28:31.0000000+00:00</time></trkpt><trkpt lat="64.21654511" lon="-20.8836689"><ele>178.7</ele><time>2012-07-19T14:28:36.0000000+00:00</time></trkpt><trkpt lat="64.21649933" lon="-20.88367653"><ele>177.5</ele><time>2012-07-19T14:28:41.0000000+00:00</time></trkpt><trkpt lat="64.21644592" lon="-20.88369179"><ele>175.9</ele><time>2012-07-19T14:28:46.0000000+00:00</time></trkpt><trkpt lat="64.21640015" lon="-20.88375282"><ele>175.6</ele><time>2012-07-19T14:28:51.0000000+00:00</time></trkpt><trkpt lat="64.216362" lon="-20.8837471"><ele>175.0</ele><time>2012-07-19T14:28:56.0000000+00:00</time></trkpt><trkpt lat="64.21633911" lon="-20.88375092"><ele>175.6</ele><time>2012-07-19T14:29:01.0000000+00:00</time></trkpt><trkpt lat="64.21630096" lon="-20.88382912"><ele>176.1</ele><time>2012-07-19T14:29:06.0000000+00:00</time></trkpt><trkpt lat="64.21629334" lon="-20.88389969"><ele>176.8</ele><time>2012-07-19T14:29:11.0000000+00:00</time></trkpt><trkpt lat="64.21629334" lon="-20.88387299"><ele>177.0</ele><time>2012-07-19T14:29:16.0000000+00:00</time></trkpt><trkpt lat="64.21629334" lon="-20.8838768"><ele>177.2</ele><time>2012-07-19T14:29:21.0000000+00:00</time></trkpt><trkpt lat="64.21629334" lon="-20.88388252"><ele>177.3</ele><time>2012-07-19T14:29:26.0000000+00:00</time></trkpt><trkpt lat="64.21628571" lon="-20.88388825"><ele>177.5</ele><time>2012-07-19T14:29:31.0000000+00:00</time></trkpt><trkpt lat="64.21628571" lon="-20.88388825"><ele>177.5</ele><time>2012-07-19T14:29:36.0000000+00:00</time></trkpt><trkpt lat="64.21628571" lon="-20.88388825"><ele>177.5</ele><time>2012-07-19T14:29:41.0000000+00:00</time></trkpt><trkpt lat="64.21628571" lon="-20.88388825"><ele>177.5</ele><time>2012-07-19T14:29:46.0000000+00:00</time></trkpt><trkpt lat="64.21628571" lon="-20.88388825"><ele>177.5</ele><time>2012-07-19T14:29:51.0000000+00:00</time></trkpt><trkpt lat="64.21628571" lon="-20.88388825"><ele>177.5</ele><time>2012-07-19T14:29:56.0000000+00:00</time></trkpt><trkpt lat="64.21628571" lon="-20.88388825"><ele>177.5</ele><time>2012-07-19T14:30:01.0000000+00:00</time></trkpt><trkpt lat="64.21628571" lon="-20.88388825"><ele>177.5</ele><time>2012-07-19T14:30:06.0000000+00:00</time></trkpt><trkpt lat="64.21628571" lon="-20.88389015"><ele>177.4</ele><time>2012-07-19T14:30:11.0000000+00:00</time></trkpt><trkpt lat="64.21627045" lon="-20.88389778"><ele>176.3</ele><time>2012-07-19T14:30:16.0000000+00:00</time></trkpt><trkpt lat="64.21626282" lon="-20.8839016"><ele>176.2</ele><time>2012-07-19T14:30:21.0000000+00:00</time></trkpt><trkpt lat="64.21627045" lon="-20.8838501"><ele>176.6</ele><time>2012-07-19T14:30:26.0000000+00:00</time></trkpt><trkpt lat="64.21627045" lon="-20.88385963"><ele>176.3</ele><time>2012-07-19T14:30:31.0000000+00:00</time></trkpt><trkpt lat="64.21627808" lon="-20.88384628"><ele>177.2</ele><time>2012-07-19T14:30:36.0000000+00:00</time></trkpt><trkpt lat="64.21628571" lon="-20.88383675"><ele>178.2</ele><time>2012-07-19T14:30:41.0000000+00:00</time></trkpt><trkpt lat="64.21628571" lon="-20.88381958"><ele>178.5</ele><time>2012-07-19T14:30:46.0000000+00:00</time></trkpt><trkpt lat="64.21628571" lon="-20.88384247"><ele>178.4</ele><time>2012-07-19T14:30:51.0000000+00:00</time></trkpt><trkpt lat="64.21627808" lon="-20.88385582"><ele>178.4</ele><time>2012-07-19T14:30:56.0000000+00:00</time></trkpt><trkpt lat="64.21627045" lon="-20.8838501"><ele>178.4</ele><time>2012-07-19T14:31:01.0000000+00:00</time></trkpt><trkpt lat="64.21626282" lon="-20.88385773"><ele>178.4</ele><time>2012-07-19T14:31:06.0000000+00:00</time></trkpt><trkpt lat="64.21623993" lon="-20.88382912"><ele>178.6</ele><time>2012-07-19T14:31:11.0000000+00:00</time></trkpt><trkpt lat="64.21620941" lon="-20.88383675"><ele>179.1</ele><time>2012-07-19T14:31:16.0000000+00:00</time></trkpt><trkpt lat="64.21620178" lon="-20.88383865"><ele>179.3</ele><time>2012-07-19T14:31:21.0000000+00:00</time></trkpt><trkpt lat="64.21614838" lon="-20.88399315"><ele>180.0</ele><time>2012-07-19T14:31:26.0000000+00:00</time></trkpt><trkpt lat="64.21604157" lon="-20.8842144"><ele>179.9</ele><time>2012-07-19T14:31:31.0000000+00:00</time></trkpt><trkpt lat="64.21587372" lon="-20.88442612"><ele>179.6</ele><time>2012-07-19T14:31:36.0000000+00:00</time></trkpt><trkpt lat="64.21569061" lon="-20.88472176"><ele>179.4</ele><time>2012-07-19T14:31:41.0000000+00:00</time></trkpt><trkpt lat="64.21555328" lon="-20.88498879"><ele>180.6</ele><time>2012-07-19T14:31:46.0000000+00:00</time></trkpt><trkpt lat="64.21543884" lon="-20.88516808"><ele>182.4</ele><time>2012-07-19T14:31:51.0000000+00:00</time></trkpt><trkpt lat="64.2153244" lon="-20.88532639"><ele>184.0</ele><time>2012-07-19T14:31:56.0000000+00:00</time></trkpt><trkpt lat="64.21523285" lon="-20.88546181"><ele>185.6</ele><time>2012-07-19T14:32:01.0000000+00:00</time></trkpt><trkpt lat="64.2151413" lon="-20.88555718"><ele>187.1</ele><time>2012-07-19T14:32:06.0000000+00:00</time></trkpt><trkpt lat="64.21504974" lon="-20.88569069"><ele>188.3</ele><time>2012-07-19T14:32:11.0000000+00:00</time></trkpt><trkpt lat="64.21492767" lon="-20.88585854"><ele>189.5</ele><time>2012-07-19T14:32:16.0000000+00:00</time></trkpt><trkpt lat="64.21482086" lon="-20.8860321"><ele>191.0</ele><time>2012-07-19T14:32:21.0000000+00:00</time></trkpt><trkpt lat="64.21470642" lon="-20.88620186"><ele>190.3</ele><time>2012-07-19T14:32:26.0000000+00:00</time></trkpt><trkpt lat="64.21459198" lon="-20.88638306"><ele>192.0</ele><time>2012-07-19T14:32:31.0000000+00:00</time></trkpt><trkpt lat="64.21450043" lon="-20.88653565"><ele>191.7</ele><time>2012-07-19T14:32:36.0000000+00:00</time></trkpt><trkpt lat="64.21443176" lon="-20.88665962"><ele>190.7</ele><time>2012-07-19T14:32:41.0000000+00:00</time></trkpt><trkpt lat="64.21437073" lon="-20.8867569"><ele>190.3</ele><time>2012-07-19T14:32:46.0000000+00:00</time></trkpt><trkpt lat="64.21427918" lon="-20.88690186"><ele>189.8</ele><time>2012-07-19T14:32:51.0000000+00:00</time></trkpt><trkpt lat="64.21416473" lon="-20.88710022"><ele>189.2</ele><time>2012-07-19T14:32:56.0000000+00:00</time></trkpt><trkpt lat="64.21405029" lon="-20.88729286"><ele>188.0</ele><time>2012-07-19T14:33:01.0000000+00:00</time></trkpt><trkpt lat="64.21395111" lon="-20.88742065"><ele>186.2</ele><time>2012-07-19T14:33:06.0000000+00:00</time></trkpt><trkpt lat="64.21387482" lon="-20.88751221"><ele>183.7</ele><time>2012-07-19T14:33:11.0000000+00:00</time></trkpt><trkpt lat="64.21379852" lon="-20.88757896"><ele>182.2</ele><time>2012-07-19T14:33:16.0000000+00:00</time></trkpt><trkpt lat="64.21372986" lon="-20.88762665"><ele>182.5</ele><time>2012-07-19T14:33:21.0000000+00:00</time></trkpt><trkpt lat="64.21360779" lon="-20.88769913"><ele>181.4</ele><time>2012-07-19T14:33:26.0000000+00:00</time></trkpt><trkpt lat="64.21343994" lon="-20.88776398"><ele>180.7</ele><time>2012-07-19T14:33:31.0000000+00:00</time></trkpt><trkpt lat="64.21326447" lon="-20.88776207"><ele>180.3</ele><time>2012-07-19T14:33:36.0000000+00:00</time></trkpt><trkpt lat="64.21309662" lon="-20.8876915"><ele>180.2</ele><time>2012-07-19T14:33:41.0000000+00:00</time></trkpt><trkpt lat="64.21292877" lon="-20.88760376"><ele>180.6</ele><time>2012-07-19T14:33:46.0000000+00:00</time></trkpt><trkpt lat="64.21276856" lon="-20.887537"><ele>180.9</ele><time>2012-07-19T14:33:51.0000000+00:00</time></trkpt><trkpt lat="64.21266174" lon="-20.88749313"><ele>181.4</ele><time>2012-07-19T14:33:56.0000000+00:00</time></trkpt><trkpt lat="64.21258545" lon="-20.88743401"><ele>182.1</ele><time>2012-07-19T14:34:01.0000000+00:00</time></trkpt><trkpt lat="64.21253967" lon="-20.88725472"><ele>182.3</ele><time>2012-07-19T14:34:06.0000000+00:00</time></trkpt><trkpt lat="64.21253204" lon="-20.88697815"><ele>180.2</ele><time>2012-07-19T14:34:11.0000000+00:00</time></trkpt><trkpt lat="64.21257019" lon="-20.88673019"><ele>178.5</ele><time>2012-07-19T14:34:16.0000000+00:00</time></trkpt><trkpt lat="64.21260834" lon="-20.88654327"><ele>177.3</ele><time>2012-07-19T14:34:21.0000000+00:00</time></trkpt><trkpt lat="64.21264648" lon="-20.88632393"><ele>176.2</ele><time>2012-07-19T14:34:26.0000000+00:00</time></trkpt><trkpt lat="64.21266937" lon="-20.8861084"><ele>175.4</ele><time>2012-07-19T14:34:31.0000000+00:00</time></trkpt><trkpt lat="64.21269989" lon="-20.88587952"><ele>174.3</ele><time>2012-07-19T14:34:36.0000000+00:00</time></trkpt><trkpt lat="64.21271515" lon="-20.88562203"><ele>173.3</ele><time>2012-07-19T14:34:41.0000000+00:00</time></trkpt><trkpt lat="64.2127533" lon="-20.88528442"><ele>172.3</ele><time>2012-07-19T14:34:46.0000000+00:00</time></trkpt><trkpt lat="64.21277618" lon="-20.88503838"><ele>171.0</ele><time>2012-07-19T14:34:51.0000000+00:00</time></trkpt><trkpt lat="64.21279907" lon="-20.88480759"><ele>170.3</ele><time>2012-07-19T14:34:56.0000000+00:00</time></trkpt><trkpt lat="64.21281433" lon="-20.88459206"><ele>169.9</ele><time>2012-07-19T14:35:01.0000000+00:00</time></trkpt><trkpt lat="64.21284485" lon="-20.88431549"><ele>169.4</ele><time>2012-07-19T14:35:06.0000000+00:00</time></trkpt><trkpt lat="64.21287537" lon="-20.88401222"><ele>168.9</ele><time>2012-07-19T14:35:11.0000000+00:00</time></trkpt><trkpt lat="64.21290588" lon="-20.88379288"><ele>168.7</ele><time>2012-07-19T14:35:16.0000000+00:00</time></trkpt><trkpt lat="64.2129364" lon="-20.88356209"><ele>168.6</ele><time>2012-07-19T14:35:21.0000000+00:00</time></trkpt><trkpt lat="64.21297455" lon="-20.88333321"><ele>168.1</ele><time>2012-07-19T14:35:26.0000000+00:00</time></trkpt><trkpt lat="64.21298981" lon="-20.88311386"><ele>167.7</ele><time>2012-07-19T14:35:31.0000000+00:00</time></trkpt><trkpt lat="64.21302033" lon="-20.88289261"><ele>168.3</ele><time>2012-07-19T14:35:36.0000000+00:00</time></trkpt><trkpt lat="64.21305084" lon="-20.88265228"><ele>168.1</ele><time>2012-07-19T14:35:41.0000000+00:00</time></trkpt><trkpt lat="64.21309662" lon="-20.88241005"><ele>168.1</ele><time>2012-07-19T14:35:46.0000000+00:00</time></trkpt><trkpt lat="64.21312714" lon="-20.8821373"><ele>169.2</ele><time>2012-07-19T14:35:51.0000000+00:00</time></trkpt><trkpt lat="64.21317291" lon="-20.88184738"><ele>168.5</ele><time>2012-07-19T14:35:56.0000000+00:00</time></trkpt><trkpt lat="64.21321106" lon="-20.88158035"><ele>167.6</ele><time>2012-07-19T14:36:01.0000000+00:00</time></trkpt><trkpt lat="64.21324921" lon="-20.88131714"><ele>167.5</ele><time>2012-07-19T14:36:06.0000000+00:00</time></trkpt><trkpt lat="64.2132721" lon="-20.88102722"><ele>167.6</ele><time>2012-07-19T14:36:11.0000000+00:00</time></trkpt><trkpt lat="64.21330261" lon="-20.88070869"><ele>167.9</ele><time>2012-07-19T14:36:16.0000000+00:00</time></trkpt><trkpt lat="64.21334839" lon="-20.88042259"><ele>167.9</ele><time>2012-07-19T14:36:21.0000000+00:00</time></trkpt><trkpt lat="64.21338654" lon="-20.88013268"><ele>168.1</ele><time>2012-07-19T14:36:26.0000000+00:00</time></trkpt><trkpt lat="64.21341705" lon="-20.87984085"><ele>168.0</ele><time>2012-07-19T14:36:31.0000000+00:00</time></trkpt><trkpt lat="64.21346283" lon="-20.87953949"><ele>168.0</ele><time>2012-07-19T14:36:36.0000000+00:00</time></trkpt><trkpt lat="64.21350861" lon="-20.8792305"><ele>168.0</ele><time>2012-07-19T14:36:41.0000000+00:00</time></trkpt><trkpt lat="64.21355438" lon="-20.87891769"><ele>167.4</ele><time>2012-07-19T14:36:46.0000000+00:00</time></trkpt><trkpt lat="64.21360779" lon="-20.87858009"><ele>167.2</ele><time>2012-07-19T14:36:51.0000000+00:00</time></trkpt><trkpt lat="64.21365356" lon="-20.87820625"><ele>167.2</ele><time>2012-07-19T14:36:56.0000000+00:00</time></trkpt><trkpt lat="64.21369171" lon="-20.87785721"><ele>166.7</ele><time>2012-07-19T14:37:01.0000000+00:00</time></trkpt><trkpt lat="64.21372986" lon="-20.87753868"><ele>166.5</ele><time>2012-07-19T14:37:06.0000000+00:00</time></trkpt><trkpt lat="64.21378326" lon="-20.87718964"><ele>166.1</ele><time>2012-07-19T14:37:11.0000000+00:00</time></trkpt><trkpt lat="64.21383667" lon="-20.87685394"><ele>165.6</ele><time>2012-07-19T14:37:16.0000000+00:00</time></trkpt><trkpt lat="64.21388245" lon="-20.87649536"><ele>165.2</ele><time>2012-07-19T14:37:21.0000000+00:00</time></trkpt><trkpt lat="64.21393585" lon="-20.87610626"><ele>165.2</ele><time>2012-07-19T14:37:26.0000000+00:00</time></trkpt><trkpt lat="64.21398926" lon="-20.87573242"><ele>164.8</ele><time>2012-07-19T14:37:31.0000000+00:00</time></trkpt><trkpt lat="64.21403503" lon="-20.87533951"><ele>164.7</ele><time>2012-07-19T14:37:36.0000000+00:00</time></trkpt><trkpt lat="64.21408081" lon="-20.87497711"><ele>164.6</ele><time>2012-07-19T14:37:41.0000000+00:00</time></trkpt><trkpt lat="64.21412659" lon="-20.87462807"><ele>164.3</ele><time>2012-07-19T14:37:46.0000000+00:00</time></trkpt><trkpt lat="64.21417236" lon="-20.87424851"><ele>164.4</ele><time>2012-07-19T14:37:51.0000000+00:00</time></trkpt><trkpt lat="64.21417999" lon="-20.87388229"><ele>164.6</ele><time>2012-07-19T14:37:56.0000000+00:00</time></trkpt><trkpt lat="64.21416473" lon="-20.87350655"><ele>164.3</ele><time>2012-07-19T14:38:01.0000000+00:00</time></trkpt><trkpt lat="64.21418762" lon="-20.87304497"><ele>167.3</ele><time>2012-07-19T14:38:06.0000000+00:00</time></trkpt><trkpt lat="64.21417999" lon="-20.87261391"><ele>168.7</ele><time>2012-07-19T14:38:11.0000000+00:00</time></trkpt><trkpt lat="64.21418762" lon="-20.87221909"><ele>170.4</ele><time>2012-07-19T14:38:16.0000000+00:00</time></trkpt><trkpt lat="64.21419525" lon="-20.87183571"><ele>172.9</ele><time>2012-07-19T14:38:21.0000000+00:00</time></trkpt><trkpt lat="64.21419525" lon="-20.87143135"><ele>174.5</ele><time>2012-07-19T14:38:26.0000000+00:00</time></trkpt><trkpt lat="64.21417999" lon="-20.87101936"><ele>174.9</ele><time>2012-07-19T14:38:31.0000000+00:00</time></trkpt><trkpt lat="64.21419525" lon="-20.87060547"><ele>175.4</ele><time>2012-07-19T14:38:36.0000000+00:00</time></trkpt><trkpt lat="64.21419525" lon="-20.87016869"><ele>176.3</ele><time>2012-07-19T14:38:41.0000000+00:00</time></trkpt><trkpt lat="64.21420288" lon="-20.86977959"><ele>175.7</ele><time>2012-07-19T14:38:46.0000000+00:00</time></trkpt><trkpt lat="64.21421051" lon="-20.86936379"><ele>174.3</ele><time>2012-07-19T14:38:51.0000000+00:00</time></trkpt><trkpt lat="64.21421814" lon="-20.86897659"><ele>175.1</ele><time>2012-07-19T14:38:56.0000000+00:00</time></trkpt><trkpt lat="64.21418762" lon="-20.86857033"><ele>174.1</ele><time>2012-07-19T14:39:01.0000000+00:00</time></trkpt><trkpt lat="64.21417236" lon="-20.86815834"><ele>173.4</ele><time>2012-07-19T14:39:06.0000000+00:00</time></trkpt><trkpt lat="64.21412659" lon="-20.86772919"><ele>173.1</ele><time>2012-07-19T14:39:11.0000000+00:00</time></trkpt><trkpt lat="64.21411896" lon="-20.86730957"><ele>175.1</ele><time>2012-07-19T14:39:16.0000000+00:00</time></trkpt><trkpt lat="64.21409607" lon="-20.86690521"><ele>174.8</ele><time>2012-07-19T14:39:21.0000000+00:00</time></trkpt><trkpt lat="64.21407318" lon="-20.86646843"><ele>174.7</ele><time>2012-07-19T14:39:26.0000000+00:00</time></trkpt><trkpt lat="64.21402741" lon="-20.8660183"><ele>173.7</ele><time>2012-07-19T14:39:31.0000000+00:00</time></trkpt><trkpt lat="64.21403503" lon="-20.86561585"><ele>176.5</ele><time>2012-07-19T14:39:36.0000000+00:00</time></trkpt><trkpt lat="64.21402741" lon="-20.86518097"><ele>179.2</ele><time>2012-07-19T14:39:41.0000000+00:00</time></trkpt><trkpt lat="64.21398163" lon="-20.86471176"><ele>176.1</ele><time>2012-07-19T14:39:46.0000000+00:00</time></trkpt><trkpt lat="64.21395111" lon="-20.86427116"><ele>176.3</ele><time>2012-07-19T14:39:51.0000000+00:00</time></trkpt><trkpt lat="64.21394348" lon="-20.86397362"><ele>180.8</ele><time>2012-07-19T14:39:56.0000000+00:00</time></trkpt><trkpt lat="64.21395874" lon="-20.86390686"><ele>182.7</ele><time>2012-07-19T14:40:01.0000000+00:00</time></trkpt><trkpt lat="64.21395874" lon="-20.86391068"><ele>183.0</ele><time>2012-07-19T14:40:06.0000000+00:00</time></trkpt><trkpt lat="64.21395874" lon="-20.86391258"><ele>183.0</ele><time>2012-07-19T14:40:11.0000000+00:00</time></trkpt><trkpt lat="64.21395874" lon="-20.86391258"><ele>183.0</ele><time>2012-07-19T14:40:16.0000000+00:00</time></trkpt><trkpt lat="64.21395874" lon="-20.86391258"><ele>183.0</ele><time>2012-07-19T14:40:21.0000000+00:00</time></trkpt><trkpt lat="64.21395874" lon="-20.8639164"><ele>183.1</ele><time>2012-07-19T14:40:26.0000000+00:00</time></trkpt><trkpt lat="64.21395874" lon="-20.8639164"><ele>183.1</ele><time>2012-07-19T14:40:31.0000000+00:00</time></trkpt><trkpt lat="64.21395874" lon="-20.8639164"><ele>183.1</ele><time>2012-07-19T14:40:36.0000000+00:00</time></trkpt><trkpt lat="64.21395874" lon="-20.8639164"><ele>183.1</ele><time>2012-07-19T14:40:41.0000000+00:00</time></trkpt><trkpt lat="64.21395874" lon="-20.8639164"><ele>183.1</ele><time>2012-07-19T14:40:46.0000000+00:00</time></trkpt><trkpt lat="64.21395874" lon="-20.8639164"><ele>183.2</ele><time>2012-07-19T14:40:51.0000000+00:00</time></trkpt><trkpt lat="64.21395874" lon="-20.8639183"><ele>183.2</ele><time>2012-07-19T14:40:56.0000000+00:00</time></trkpt><trkpt lat="64.21395874" lon="-20.8639183"><ele>183.2</ele><time>2012-07-19T14:41:01.0000000+00:00</time></trkpt><trkpt lat="64.21395874" lon="-20.8639183"><ele>183.3</ele><time>2012-07-19T14:41:06.0000000+00:00</time></trkpt><trkpt lat="64.21395874" lon="-20.86392021"><ele>183.3</ele><time>2012-07-19T14:41:11.0000000+00:00</time></trkpt><trkpt lat="64.21395874" lon="-20.86392021"><ele>183.3</ele><time>2012-07-19T14:41:16.0000000+00:00</time></trkpt><trkpt lat="64.21395874" lon="-20.86392021"><ele>183.3</ele><time>2012-07-19T14:41:21.0000000+00:00</time></trkpt><trkpt lat="64.21395874" lon="-20.86392021"><ele>183.4</ele><time>2012-07-19T14:41:26.0000000+00:00</time></trkpt><trkpt lat="64.21395874" lon="-20.86392212"><ele>183.4</ele><time>2012-07-19T14:41:31.0000000+00:00</time></trkpt><trkpt lat="64.21395874" lon="-20.86392212"><ele>183.4</ele><time>2012-07-19T14:41:36.0000000+00:00</time></trkpt><trkpt lat="64.21395874" lon="-20.86392212"><ele>183.5</ele><time>2012-07-19T14:41:41.0000000+00:00</time></trkpt><trkpt lat="64.21395874" lon="-20.86383057"><ele>184.6</ele><time>2012-07-19T14:41:46.0000000+00:00</time></trkpt><trkpt lat="64.21396637" lon="-20.86364746"><ele>186.6</ele><time>2012-07-19T14:41:51.0000000+00:00</time></trkpt><trkpt lat="64.21396637" lon="-20.86346245"><ele>189.3</ele><time>2012-07-19T14:41:56.0000000+00:00</time></trkpt><trkpt lat="64.21395874" lon="-20.86331368"><ele>191.3</ele><time>2012-07-19T14:42:01.0000000+00:00</time></trkpt><trkpt lat="64.21396637" lon="-20.86326027"><ele>194.5</ele><time>2012-07-19T14:42:06.0000000+00:00</time></trkpt><trkpt lat="64.213974" lon="-20.86326027"><ele>194.8</ele><time>2012-07-19T14:42:11.0000000+00:00</time></trkpt><trkpt lat="64.213974" lon="-20.86326218"><ele>195.0</ele><time>2012-07-19T14:42:16.0000000+00:00</time></trkpt><trkpt lat="64.213974" lon="-20.86326218"><ele>195.0</ele><time>2012-07-19T14:42:21.0000000+00:00</time></trkpt><trkpt lat="64.213974" lon="-20.86326218"><ele>195.1</ele><time>2012-07-19T14:42:26.0000000+00:00</time></trkpt><trkpt lat="64.213974" lon="-20.86326408"><ele>195.1</ele><time>2012-07-19T14:42:31.0000000+00:00</time></trkpt><trkpt lat="64.213974" lon="-20.86326408"><ele>195.1</ele><time>2012-07-19T14:42:36.0000000+00:00</time></trkpt><trkpt lat="64.213974" lon="-20.86326408"><ele>195.2</ele><time>2012-07-19T14:42:41.0000000+00:00</time></trkpt><trkpt lat="64.213974" lon="-20.86326408"><ele>195.3</ele><time>2012-07-19T14:42:46.0000000+00:00</time></trkpt><trkpt lat="64.213974" lon="-20.86326408"><ele>195.3</ele><time>2012-07-19T14:42:51.0000000+00:00</time></trkpt><trkpt lat="64.213974" lon="-20.86326408"><ele>195.4</ele><time>2012-07-19T14:42:56.0000000+00:00</time></trkpt><trkpt lat="64.213974" lon="-20.86326408"><ele>195.4</ele><time>2012-07-19T14:43:01.0000000+00:00</time></trkpt><trkpt lat="64.213974" lon="-20.86326408"><ele>195.5</ele><time>2012-07-19T14:43:06.0000000+00:00</time></trkpt><trkpt lat="64.213974" lon="-20.86326599"><ele>195.5</ele><time>2012-07-19T14:43:11.0000000+00:00</time></trkpt><trkpt lat="64.213974" lon="-20.86326599"><ele>195.6</ele><time>2012-07-19T14:43:16.0000000+00:00</time></trkpt><trkpt lat="64.213974" lon="-20.86326599"><ele>195.6</ele><time>2012-07-19T14:43:21.0000000+00:00</time></trkpt><trkpt lat="64.213974" lon="-20.86326599"><ele>195.7</ele><time>2012-07-19T14:43:26.0000000+00:00</time></trkpt><trkpt lat="64.213974" lon="-20.86326599"><ele>195.8</ele><time>2012-07-19T14:43:31.0000000+00:00</time></trkpt><trkpt lat="64.213974" lon="-20.86326599"><ele>195.9</ele><time>2012-07-19T14:43:36.0000000+00:00</time></trkpt><trkpt lat="64.213974" lon="-20.86326599"><ele>195.9</ele><time>2012-07-19T14:43:41.0000000+00:00</time></trkpt><trkpt lat="64.213974" lon="-20.86326599"><ele>195.9</ele><time>2012-07-19T14:43:46.0000000+00:00</time></trkpt><trkpt lat="64.213974" lon="-20.86326599"><ele>196.0</ele><time>2012-07-19T14:43:51.0000000+00:00</time></trkpt><trkpt lat="64.213974" lon="-20.8632679"><ele>196.1</ele><time>2012-07-19T14:43:56.0000000+00:00</time></trkpt><trkpt lat="64.21398163" lon="-20.8632679"><ele>196.1</ele><time>2012-07-19T14:44:01.0000000+00:00</time></trkpt><trkpt lat="64.21398163" lon="-20.8632679"><ele>196.2</ele><time>2012-07-19T14:44:06.0000000+00:00</time></trkpt><trkpt lat="64.21398163" lon="-20.8632679"><ele>196.2</ele><time>2012-07-19T14:44:11.0000000+00:00</time></trkpt><trkpt lat="64.21398163" lon="-20.8632679"><ele>196.3</ele><time>2012-07-19T14:44:16.0000000+00:00</time></trkpt><trkpt lat="64.21398163" lon="-20.8632679"><ele>196.4</ele><time>2012-07-19T14:44:21.0000000+00:00</time></trkpt><trkpt lat="64.21398163" lon="-20.8632679"><ele>196.5</ele><time>2012-07-19T14:44:26.0000000+00:00</time></trkpt><trkpt lat="64.21398163" lon="-20.8632679"><ele>196.5</ele><time>2012-07-19T14:44:31.0000000+00:00</time></trkpt><trkpt lat="64.21398163" lon="-20.8632679"><ele>196.6</ele><time>2012-07-19T14:44:36.0000000+00:00</time></trkpt><trkpt lat="64.21398163" lon="-20.8632679"><ele>196.6</ele><time>2012-07-19T14:44:41.0000000+00:00</time></trkpt><trkpt lat="64.21398163" lon="-20.8632679"><ele>196.7</ele><time>2012-07-19T14:44:46.0000000+00:00</time></trkpt><trkpt lat="64.21398163" lon="-20.8632679"><ele>196.8</ele><time>2012-07-19T14:44:51.0000000+00:00</time></trkpt><trkpt lat="64.21398163" lon="-20.8632679"><ele>196.8</ele><time>2012-07-19T14:44:56.0000000+00:00</time></trkpt><trkpt lat="64.21398163" lon="-20.8632679"><ele>196.9</ele><time>2012-07-19T14:45:01.0000000+00:00</time></trkpt><trkpt lat="64.21398163" lon="-20.8632679"><ele>196.9</ele><time>2012-07-19T14:45:06.0000000+00:00</time></trkpt><trkpt lat="64.21398163" lon="-20.8632679"><ele>197.0</ele><time>2012-07-19T14:45:11.0000000+00:00</time></trkpt><trkpt lat="64.21398163" lon="-20.8632679"><ele>197.2</ele><time>2012-07-19T14:45:16.0000000+00:00</time></trkpt><trkpt lat="64.21398163" lon="-20.8632679"><ele>197.3</ele><time>2012-07-19T14:45:21.0000000+00:00</time></trkpt><trkpt lat="64.21398163" lon="-20.86322022"><ele>197.5</ele><time>2012-07-19T14:45:26.0000000+00:00</time></trkpt><trkpt lat="64.21398163" lon="-20.86308098"><ele>198.2</ele><time>2012-07-19T14:45:31.0000000+00:00</time></trkpt><trkpt lat="64.213974" lon="-20.86295319"><ele>200.2</ele><time>2012-07-19T14:45:36.0000000+00:00</time></trkpt><trkpt lat="64.21395874" lon="-20.86278153"><ele>202.0</ele><time>2012-07-19T14:45:41.0000000+00:00</time></trkpt><trkpt lat="64.21392059" lon="-20.86256218"><ele>202.8</ele><time>2012-07-19T14:45:46.0000000+00:00</time></trkpt><trkpt lat="64.2138443" lon="-20.86232567"><ele>203.1</ele><time>2012-07-19T14:45:51.0000000+00:00</time></trkpt><trkpt lat="64.21376038" lon="-20.86209869"><ele>202.1</ele><time>2012-07-19T14:45:56.0000000+00:00</time></trkpt><trkpt lat="64.21365356" lon="-20.86189842"><ele>201.1</ele><time>2012-07-19T14:46:01.0000000+00:00</time></trkpt><trkpt lat="64.21351624" lon="-20.86171913"><ele>193.9</ele><time>2012-07-19T14:46:06.0000000+00:00</time></trkpt><trkpt lat="64.21338654" lon="-20.86153412"><ele>188.2</ele><time>2012-07-19T14:46:11.0000000+00:00</time></trkpt><trkpt lat="64.21325684" lon="-20.86136055"><ele>183.6</ele><time>2012-07-19T14:46:16.0000000+00:00</time></trkpt><trkpt lat="64.21311951" lon="-20.86118507"><ele>181.3</ele><time>2012-07-19T14:46:21.0000000+00:00</time></trkpt><trkpt lat="64.21298981" lon="-20.8610363"><ele>177.7</ele><time>2012-07-19T14:46:26.0000000+00:00</time></trkpt><trkpt lat="64.21285248" lon="-20.86088753"><ele>177.1</ele><time>2012-07-19T14:46:31.0000000+00:00</time></trkpt><trkpt lat="64.21272278" lon="-20.86076737"><ele>178.0</ele><time>2012-07-19T14:46:36.0000000+00:00</time></trkpt><trkpt lat="64.21256256" lon="-20.86063767"><ele>177.3</ele><time>2012-07-19T14:46:41.0000000+00:00</time></trkpt><trkpt lat="64.21244049" lon="-20.86049843"><ele>179.0</ele><time>2012-07-19T14:46:46.0000000+00:00</time></trkpt><trkpt lat="64.21233368" lon="-20.86028671"><ele>182.3</ele><time>2012-07-19T14:46:51.0000000+00:00</time></trkpt><trkpt lat="64.21224976" lon="-20.86003494"><ele>189.7</ele><time>2012-07-19T14:46:56.0000000+00:00</time></trkpt><trkpt lat="64.21216583" lon="-20.85978317"><ele>195.6</ele><time>2012-07-19T14:47:01.0000000+00:00</time></trkpt><trkpt lat="64.21213532" lon="-20.85950851"><ele>203.6</ele><time>2012-07-19T14:47:06.0000000+00:00</time></trkpt><trkpt lat="64.21208191" lon="-20.85919762"><ele>199.6</ele><time>2012-07-19T14:47:11.0000000+00:00</time></trkpt><trkpt lat="64.2120285" lon="-20.85884094"><ele>192.8</ele><time>2012-07-19T14:47:16.0000000+00:00</time></trkpt><trkpt lat="64.21199799" lon="-20.85848999"><ele>192.1</ele><time>2012-07-19T14:47:21.0000000+00:00</time></trkpt><trkpt lat="64.21196747" lon="-20.85811043"><ele>192.4</ele><time>2012-07-19T14:47:26.0000000+00:00</time></trkpt><trkpt lat="64.21194458" lon="-20.85773277"><ele>192.3</ele><time>2012-07-19T14:47:31.0000000+00:00</time></trkpt><trkpt lat="64.21194458" lon="-20.8573513"><ele>191.6</ele><time>2012-07-19T14:47:36.0000000+00:00</time></trkpt><trkpt lat="64.21195984" lon="-20.85697556"><ele>191.3</ele><time>2012-07-19T14:47:41.0000000+00:00</time></trkpt><trkpt lat="64.21198273" lon="-20.8565979"><ele>190.5</ele><time>2012-07-19T14:47:46.0000000+00:00</time></trkpt><trkpt lat="64.21199036" lon="-20.85622597"><ele>190.3</ele><time>2012-07-19T14:47:51.0000000+00:00</time></trkpt><trkpt lat="64.21198273" lon="-20.85595703"><ele>189.7</ele><time>2012-07-19T14:47:56.0000000+00:00</time></trkpt><trkpt lat="64.2119751" lon="-20.85572052"><ele>190.2</ele><time>2012-07-19T14:48:01.0000000+00:00</time></trkpt><trkpt lat="64.21195984" lon="-20.85548401"><ele>191.1</ele><time>2012-07-19T14:48:06.0000000+00:00</time></trkpt><trkpt lat="64.21195221" lon="-20.85520744"><ele>191.6</ele><time>2012-07-19T14:48:11.0000000+00:00</time></trkpt><trkpt lat="64.21195984" lon="-20.85494804"><ele>191.4</ele><time>2012-07-19T14:48:16.0000000+00:00</time></trkpt><trkpt lat="64.21195221" lon="-20.85460663"><ele>191.0</ele><time>2012-07-19T14:48:21.0000000+00:00</time></trkpt><trkpt lat="64.21194458" lon="-20.85426903"><ele>191.4</ele><time>2012-07-19T14:48:26.0000000+00:00</time></trkpt><trkpt lat="64.21192932" lon="-20.85394096"><ele>191.5</ele><time>2012-07-19T14:48:31.0000000+00:00</time></trkpt><trkpt lat="64.21190643" lon="-20.8536129"><ele>191.8</ele><time>2012-07-19T14:48:36.0000000+00:00</time></trkpt><trkpt lat="64.21190643" lon="-20.85344505"><ele>191.5</ele><time>2012-07-19T14:48:41.0000000+00:00</time></trkpt><trkpt lat="64.21190643" lon="-20.85345268"><ele>191.3</ele><time>2012-07-19T14:48:46.0000000+00:00</time></trkpt><trkpt lat="64.21190643" lon="-20.85345268"><ele>191.3</ele><time>2012-07-19T14:48:51.0000000+00:00</time></trkpt><trkpt lat="64.21190643" lon="-20.85345459"><ele>191.2</ele><time>2012-07-19T14:48:56.0000000+00:00</time></trkpt><trkpt lat="64.21190643" lon="-20.85345459"><ele>191.2</ele><time>2012-07-19T14:49:01.0000000+00:00</time></trkpt><trkpt lat="64.21191406" lon="-20.85341072"><ele>191.2</ele><time>2012-07-19T14:49:06.0000000+00:00</time></trkpt><trkpt lat="64.21191406" lon="-20.85340881"><ele>191.0</ele><time>2012-07-19T14:49:11.0000000+00:00</time></trkpt><trkpt lat="64.21191406" lon="-20.85340691"><ele>191.0</ele><time>2012-07-19T14:49:16.0000000+00:00</time></trkpt><trkpt lat="64.21191406" lon="-20.85340118"><ele>191.0</ele><time>2012-07-19T14:49:21.0000000+00:00</time></trkpt><trkpt lat="64.21191406" lon="-20.85340118"><ele>191.0</ele><time>2012-07-19T14:49:26.0000000+00:00</time></trkpt><trkpt lat="64.21191406" lon="-20.85342598"><ele>191.0</ele><time>2012-07-19T14:49:31.0000000+00:00</time></trkpt><trkpt lat="64.21188355" lon="-20.85346222"><ele>191.4</ele><time>2012-07-19T14:49:36.0000000+00:00</time></trkpt><trkpt lat="64.21183777" lon="-20.85350418"><ele>191.5</ele><time>2012-07-19T14:49:41.0000000+00:00</time></trkpt><trkpt lat="64.21183014" lon="-20.85351563"><ele>190.5</ele><time>2012-07-19T14:49:46.0000000+00:00</time></trkpt><trkpt lat="64.21183014" lon="-20.85351563"><ele>190.5</ele><time>2012-07-19T14:49:51.0000000+00:00</time></trkpt><trkpt lat="64.21183014" lon="-20.85351563"><ele>190.5</ele><time>2012-07-19T14:49:56.0000000+00:00</time></trkpt><trkpt lat="64.21183014" lon="-20.85351753"><ele>190.5</ele><time>2012-07-19T14:50:01.0000000+00:00</time></trkpt><trkpt lat="64.21183014" lon="-20.85352707"><ele>190.8</ele><time>2012-07-19T14:50:06.0000000+00:00</time></trkpt><trkpt lat="64.21183014" lon="-20.85352898"><ele>190.8</ele><time>2012-07-19T14:50:11.0000000+00:00</time></trkpt><trkpt lat="64.21183014" lon="-20.85352898"><ele>190.8</ele><time>2012-07-19T14:50:16.0000000+00:00</time></trkpt><trkpt lat="64.21183014" lon="-20.85352898"><ele>190.8</ele><time>2012-07-19T14:50:21.0000000+00:00</time></trkpt><trkpt lat="64.21183014" lon="-20.85352898"><ele>190.8</ele><time>2012-07-19T14:50:26.0000000+00:00</time></trkpt><trkpt lat="64.21183014" lon="-20.85353088"><ele>190.8</ele><time>2012-07-19T14:50:31.0000000+00:00</time></trkpt><trkpt lat="64.21183014" lon="-20.85353088"><ele>190.8</ele><time>2012-07-19T14:50:36.0000000+00:00</time></trkpt><trkpt lat="64.21183014" lon="-20.85353088"><ele>190.8</ele><time>2012-07-19T14:50:41.0000000+00:00</time></trkpt><trkpt lat="64.21183014" lon="-20.85353088"><ele>190.8</ele><time>2012-07-19T14:50:46.0000000+00:00</time></trkpt><trkpt lat="64.21183014" lon="-20.85353088"><ele>190.8</ele><time>2012-07-19T14:50:51.0000000+00:00</time></trkpt><trkpt lat="64.21183014" lon="-20.85353279"><ele>190.8</ele><time>2012-07-19T14:50:56.0000000+00:00</time></trkpt><trkpt lat="64.21183014" lon="-20.85353279"><ele>190.8</ele><time>2012-07-19T14:51:01.0000000+00:00</time></trkpt><trkpt lat="64.21183014" lon="-20.85353279"><ele>190.8</ele><time>2012-07-19T14:51:06.0000000+00:00</time></trkpt><trkpt lat="64.21183014" lon="-20.85353279"><ele>190.8</ele><time>2012-07-19T14:51:11.0000000+00:00</time></trkpt><trkpt lat="64.21183014" lon="-20.85353279"><ele>190.8</ele><time>2012-07-19T14:51:16.0000000+00:00</time></trkpt><trkpt lat="64.21183014" lon="-20.85353279"><ele>190.8</ele><time>2012-07-19T14:51:21.0000000+00:00</time></trkpt><trkpt lat="64.21183014" lon="-20.8535347"><ele>190.8</ele><time>2012-07-19T14:51:26.0000000+00:00</time></trkpt><trkpt lat="64.21183014" lon="-20.8535347"><ele>190.8</ele><time>2012-07-19T14:51:31.0000000+00:00</time></trkpt><trkpt lat="64.21183014" lon="-20.8535347"><ele>190.8</ele><time>2012-07-19T14:51:36.0000000+00:00</time></trkpt><trkpt lat="64.21183014" lon="-20.8535347"><ele>190.8</ele><time>2012-07-19T14:51:41.0000000+00:00</time></trkpt><trkpt lat="64.21183014" lon="-20.8535347"><ele>190.7</ele><time>2012-07-19T14:51:46.0000000+00:00</time></trkpt><trkpt lat="64.21183014" lon="-20.8535347"><ele>190.7</ele><time>2012-07-19T14:51:51.0000000+00:00</time></trkpt><trkpt lat="64.21183014" lon="-20.85353661"><ele>190.8</ele><time>2012-07-19T14:51:56.0000000+00:00</time></trkpt><trkpt lat="64.21183014" lon="-20.85353661"><ele>190.7</ele><time>2012-07-19T14:52:01.0000000+00:00</time></trkpt><trkpt lat="64.21183014" lon="-20.85353661"><ele>190.7</ele><time>2012-07-19T14:52:06.0000000+00:00</time></trkpt><trkpt lat="64.21183014" lon="-20.85353661"><ele>190.7</ele><time>2012-07-19T14:52:11.0000000+00:00</time></trkpt><trkpt lat="64.21183014" lon="-20.85353661"><ele>190.7</ele><time>2012-07-19T14:52:16.0000000+00:00</time></trkpt><trkpt lat="64.21183014" lon="-20.85353661"><ele>190.7</ele><time>2012-07-19T14:52:21.0000000+00:00</time></trkpt><trkpt lat="64.21183014" lon="-20.85353661"><ele>190.7</ele><time>2012-07-19T14:52:26.0000000+00:00</time></trkpt><trkpt lat="64.21183014" lon="-20.85353661"><ele>190.8</ele><time>2012-07-19T14:52:31.0000000+00:00</time></trkpt><trkpt lat="64.21183014" lon="-20.85353851"><ele>190.8</ele><time>2012-07-19T14:52:36.0000000+00:00</time></trkpt><trkpt lat="64.21183014" lon="-20.85353851"><ele>190.8</ele><time>2012-07-19T14:52:41.0000000+00:00</time></trkpt><trkpt lat="64.21183014" lon="-20.85353851"><ele>190.7</ele><time>2012-07-19T14:52:46.0000000+00:00</time></trkpt><trkpt lat="64.21183014" lon="-20.85353851"><ele>190.7</ele><time>2012-07-19T14:52:51.0000000+00:00</time></trkpt><trkpt lat="64.21183014" lon="-20.85353851"><ele>190.7</ele><time>2012-07-19T14:52:56.0000000+00:00</time></trkpt><trkpt lat="64.21183014" lon="-20.85353851"><ele>190.7</ele><time>2012-07-19T14:53:01.0000000+00:00</time></trkpt><trkpt lat="64.21183014" lon="-20.85353851"><ele>190.8</ele><time>2012-07-19T14:53:06.0000000+00:00</time></trkpt><trkpt lat="64.21183014" lon="-20.85353851"><ele>190.8</ele><time>2012-07-19T14:53:11.0000000+00:00</time></trkpt><trkpt lat="64.21183014" lon="-20.85354042"><ele>190.8</ele><time>2012-07-19T14:53:16.0000000+00:00</time></trkpt><trkpt lat="64.21183014" lon="-20.85354042"><ele>190.8</ele><time>2012-07-19T14:53:21.0000000+00:00</time></trkpt><trkpt lat="64.21183014" lon="-20.85354042"><ele>190.8</ele><time>2012-07-19T14:53:26.0000000+00:00</time></trkpt><trkpt lat="64.21183014" lon="-20.85354042"><ele>190.7</ele><time>2012-07-19T14:53:31.0000000+00:00</time></trkpt><trkpt lat="64.21183014" lon="-20.85354042"><ele>190.7</ele><time>2012-07-19T14:53:36.0000000+00:00</time></trkpt><trkpt lat="64.21183014" lon="-20.85354042"><ele>190.7</ele><time>2012-07-19T14:53:41.0000000+00:00</time></trkpt><trkpt lat="64.21183014" lon="-20.85354042"><ele>190.7</ele><time>2012-07-19T14:53:46.0000000+00:00</time></trkpt><trkpt lat="64.21183014" lon="-20.85354042"><ele>190.7</ele><time>2012-07-19T14:53:51.0000000+00:00</time></trkpt><trkpt lat="64.21183014" lon="-20.85354042"><ele>190.7</ele><time>2012-07-19T14:53:56.0000000+00:00</time></trkpt><trkpt lat="64.21183014" lon="-20.85354233"><ele>190.7</ele><time>2012-07-19T14:54:01.0000000+00:00</time></trkpt><trkpt lat="64.21183014" lon="-20.85354233"><ele>190.7</ele><time>2012-07-19T14:54:06.0000000+00:00</time></trkpt><trkpt lat="64.21183014" lon="-20.85354233"><ele>190.7</ele><time>2012-07-19T14:54:11.0000000+00:00</time></trkpt><trkpt lat="64.21183014" lon="-20.85354233"><ele>190.7</ele><time>2012-07-19T14:54:16.0000000+00:00</time></trkpt><trkpt lat="64.21183014" lon="-20.85354233"><ele>190.7</ele><time>2012-07-19T14:54:21.0000000+00:00</time></trkpt><trkpt lat="64.21183014" lon="-20.85354233"><ele>190.7</ele><time>2012-07-19T14:54:26.0000000+00:00</time></trkpt><trkpt lat="64.21183014" lon="-20.85354233"><ele>190.7</ele><time>2012-07-19T14:54:31.0000000+00:00</time></trkpt><trkpt lat="64.21183014" lon="-20.85354233"><ele>190.7</ele><time>2012-07-19T14:54:36.0000000+00:00</time></trkpt><trkpt lat="64.21183014" lon="-20.85354233"><ele>190.7</ele><time>2012-07-19T14:54:41.0000000+00:00</time></trkpt><trkpt lat="64.21183014" lon="-20.85354233"><ele>190.7</ele><time>2012-07-19T14:54:46.0000000+00:00</time></trkpt><trkpt lat="64.21183014" lon="-20.85354233"><ele>190.7</ele><time>2012-07-19T14:54:51.0000000+00:00</time></trkpt><trkpt lat="64.21183014" lon="-20.85354233"><ele>190.7</ele><time>2012-07-19T14:54:56.0000000+00:00</time></trkpt><trkpt lat="64.21183014" lon="-20.85354424"><ele>190.7</ele><time>2012-07-19T14:55:01.0000000+00:00</time></trkpt><trkpt lat="64.21183014" lon="-20.85354424"><ele>190.7</ele><time>2012-07-19T14:55:06.0000000+00:00</time></trkpt><trkpt lat="64.21183014" lon="-20.85354424"><ele>190.7</ele><time>2012-07-19T14:55:11.0000000+00:00</time></trkpt><trkpt lat="64.21183014" lon="-20.85354424"><ele>190.8</ele><time>2012-07-19T14:55:16.0000000+00:00</time></trkpt><trkpt lat="64.21183014" lon="-20.85354424"><ele>190.8</ele><time>2012-07-19T14:55:21.0000000+00:00</time></trkpt><trkpt lat="64.21183014" lon="-20.85354424"><ele>190.7</ele><time>2012-07-19T14:55:26.0000000+00:00</time></trkpt><trkpt lat="64.21183014" lon="-20.85354424"><ele>190.7</ele><time>2012-07-19T14:55:31.0000000+00:00</time></trkpt><trkpt lat="64.21183014" lon="-20.85354424"><ele>190.7</ele><time>2012-07-19T14:55:36.0000000+00:00</time></trkpt><trkpt lat="64.21183014" lon="-20.85354424"><ele>190.7</ele><time>2012-07-19T14:55:41.0000000+00:00</time></trkpt><trkpt lat="64.21183014" lon="-20.85354424"><ele>190.7</ele><time>2012-07-19T14:55:46.0000000+00:00</time></trkpt><trkpt lat="64.21183014" lon="-20.85354614"><ele>190.7</ele><time>2012-07-19T14:55:51.0000000+00:00</time></trkpt><trkpt lat="64.21183014" lon="-20.85355568"><ele>190.8</ele><time>2012-07-19T14:55:56.0000000+00:00</time></trkpt><trkpt lat="64.21181488" lon="-20.85355949"><ele>191.2</ele><time>2012-07-19T14:56:01.0000000+00:00</time></trkpt><trkpt lat="64.21179962" lon="-20.85351372"><ele>191.0</ele><time>2012-07-19T14:56:06.0000000+00:00</time></trkpt><trkpt lat="64.21179962" lon="-20.85346603"><ele>190.7</ele><time>2012-07-19T14:56:11.0000000+00:00</time></trkpt><trkpt lat="64.21180725" lon="-20.85344887"><ele>190.9</ele><time>2012-07-19T14:56:16.0000000+00:00</time></trkpt><trkpt lat="64.21180725" lon="-20.85341072"><ele>189.9</ele><time>2012-07-19T14:56:21.0000000+00:00</time></trkpt><trkpt lat="64.21180725" lon="-20.85339928"><ele>189.9</ele><time>2012-07-19T14:56:26.0000000+00:00</time></trkpt><trkpt lat="64.21180725" lon="-20.85339737"><ele>190.0</ele><time>2012-07-19T14:56:31.0000000+00:00</time></trkpt><trkpt lat="64.21180725" lon="-20.85339165"><ele>190.1</ele><time>2012-07-19T14:56:36.0000000+00:00</time></trkpt><trkpt lat="64.21180725" lon="-20.85339165"><ele>190.1</ele><time>2012-07-19T14:56:41.0000000+00:00</time></trkpt><trkpt lat="64.21180725" lon="-20.8533783"><ele>190.5</ele><time>2012-07-19T14:56:46.0000000+00:00</time></trkpt><trkpt lat="64.21181488" lon="-20.853302"><ele>191.7</ele><time>2012-07-19T14:56:51.0000000+00:00</time></trkpt><trkpt lat="64.21183777" lon="-20.85319519"><ele>192.6</ele><time>2012-07-19T14:56:56.0000000+00:00</time></trkpt><trkpt lat="64.21183777" lon="-20.85309792"><ele>193.1</ele><time>2012-07-19T14:57:01.0000000+00:00</time></trkpt><trkpt lat="64.21182251" lon="-20.8530426"><ele>192.7</ele><time>2012-07-19T14:57:06.0000000+00:00</time></trkpt><trkpt lat="64.21182251" lon="-20.85294151"><ele>193.2</ele><time>2012-07-19T14:57:11.0000000+00:00</time></trkpt><trkpt lat="64.21181488" lon="-20.85278893"><ele>193.0</ele><time>2012-07-19T14:57:16.0000000+00:00</time></trkpt><trkpt lat="64.21179962" lon="-20.85266876"><ele>193.3</ele><time>2012-07-19T14:57:21.0000000+00:00</time></trkpt><trkpt lat="64.21178436" lon="-20.85248756"><ele>193.9</ele><time>2012-07-19T14:57:26.0000000+00:00</time></trkpt><trkpt lat="64.21175385" lon="-20.85229874"><ele>193.8</ele><time>2012-07-19T14:57:31.0000000+00:00</time></trkpt><trkpt lat="64.21172333" lon="-20.8520546"><ele>194.4</ele><time>2012-07-19T14:57:36.0000000+00:00</time></trkpt><trkpt lat="64.21170807" lon="-20.85174942"><ele>193.6</ele><time>2012-07-19T14:57:41.0000000+00:00</time></trkpt><trkpt lat="64.21166992" lon="-20.85143471"><ele>194.2</ele><time>2012-07-19T14:57:46.0000000+00:00</time></trkpt><trkpt lat="64.2116394" lon="-20.85109901"><ele>194.3</ele><time>2012-07-19T14:57:51.0000000+00:00</time></trkpt><trkpt lat="64.21161652" lon="-20.85077095"><ele>194.6</ele><time>2012-07-19T14:57:56.0000000+00:00</time></trkpt><trkpt lat="64.21160126" lon="-20.85043335"><ele>194.5</ele><time>2012-07-19T14:58:01.0000000+00:00</time></trkpt><trkpt lat="64.211586" lon="-20.8501091"><ele>194.8</ele><time>2012-07-19T14:58:06.0000000+00:00</time></trkpt><trkpt lat="64.21156311" lon="-20.84984398"><ele>195.4</ele><time>2012-07-19T14:58:11.0000000+00:00</time></trkpt><trkpt lat="64.21155548" lon="-20.84955216"><ele>194.9</ele><time>2012-07-19T14:58:16.0000000+00:00</time></trkpt><trkpt lat="64.21154022" lon="-20.84925461"><ele>194.6</ele><time>2012-07-19T14:58:21.0000000+00:00</time></trkpt><trkpt lat="64.21153259" lon="-20.84895897"><ele>195.3</ele><time>2012-07-19T14:58:26.0000000+00:00</time></trkpt><trkpt lat="64.21151733" lon="-20.84867477"><ele>196.3</ele><time>2012-07-19T14:58:31.0000000+00:00</time></trkpt><trkpt lat="64.21149445" lon="-20.84836197"><ele>197.5</ele><time>2012-07-19T14:58:36.0000000+00:00</time></trkpt><trkpt lat="64.21149445" lon="-20.84811401"><ele>197.6</ele><time>2012-07-19T14:58:41.0000000+00:00</time></trkpt><trkpt lat="64.21150208" lon="-20.84788322"><ele>197.9</ele><time>2012-07-19T14:58:46.0000000+00:00</time></trkpt><trkpt lat="64.21149445" lon="-20.84756088"><ele>199.7</ele><time>2012-07-19T14:58:51.0000000+00:00</time></trkpt><trkpt lat="64.21148682" lon="-20.84725761"><ele>200.5</ele><time>2012-07-19T14:58:56.0000000+00:00</time></trkpt><trkpt lat="64.21146393" lon="-20.84691048"><ele>200.4</ele><time>2012-07-19T14:59:01.0000000+00:00</time></trkpt><trkpt lat="64.21146393" lon="-20.8465538"><ele>200.5</ele><time>2012-07-19T14:59:06.0000000+00:00</time></trkpt><trkpt lat="64.2114563" lon="-20.84616852"><ele>200.5</ele><time>2012-07-19T14:59:11.0000000+00:00</time></trkpt><trkpt lat="64.2114563" lon="-20.84578514"><ele>199.7</ele><time>2012-07-19T14:59:16.0000000+00:00</time></trkpt><trkpt lat="64.21147919" lon="-20.84540176"><ele>200.5</ele><time>2012-07-19T14:59:21.0000000+00:00</time></trkpt><trkpt lat="64.21150208" lon="-20.84504128"><ele>200.8</ele><time>2012-07-19T14:59:26.0000000+00:00</time></trkpt><trkpt lat="64.21152496" lon="-20.84469795"><ele>201.1</ele><time>2012-07-19T14:59:31.0000000+00:00</time></trkpt><trkpt lat="64.21156311" lon="-20.84436035"><ele>201.7</ele><time>2012-07-19T14:59:36.0000000+00:00</time></trkpt><trkpt lat="64.21160126" lon="-20.84404182"><ele>202.0</ele><time>2012-07-19T14:59:41.0000000+00:00</time></trkpt><trkpt lat="64.21161652" lon="-20.8436985"><ele>202.4</ele><time>2012-07-19T14:59:46.0000000+00:00</time></trkpt><trkpt lat="64.2116394" lon="-20.84342957"><ele>201.4</ele><time>2012-07-19T14:59:51.0000000+00:00</time></trkpt><trkpt lat="64.21163178" lon="-20.84322929"><ele>201.4</ele><time>2012-07-19T14:59:56.0000000+00:00</time></trkpt><trkpt lat="64.21161652" lon="-20.84291649"><ele>204.0</ele><time>2012-07-19T15:00:01.0000000+00:00</time></trkpt><trkpt lat="64.21157837" lon="-20.8425827"><ele>205.6</ele><time>2012-07-19T15:00:06.0000000+00:00</time></trkpt><trkpt lat="64.21155548" lon="-20.8422966"><ele>207.8</ele><time>2012-07-19T15:00:11.0000000+00:00</time></trkpt><trkpt lat="64.21151733" lon="-20.84202194"><ele>208.7</ele><time>2012-07-19T15:00:16.0000000+00:00</time></trkpt><trkpt lat="64.21147156" lon="-20.8417778"><ele>209.2</ele><time>2012-07-19T15:00:21.0000000+00:00</time></trkpt><trkpt lat="64.21140289" lon="-20.84150696"><ele>210.0</ele><time>2012-07-19T15:00:26.0000000+00:00</time></trkpt><trkpt lat="64.21134186" lon="-20.84117317"><ele>209.7</ele><time>2012-07-19T15:00:31.0000000+00:00</time></trkpt><trkpt lat="64.21130371" lon="-20.84078598"><ele>209.6</ele><time>2012-07-19T15:00:36.0000000+00:00</time></trkpt><trkpt lat="64.21129608" lon="-20.84042168"><ele>209.3</ele><time>2012-07-19T15:00:41.0000000+00:00</time></trkpt><trkpt lat="64.21128845" lon="-20.84005737"><ele>208.1</ele><time>2012-07-19T15:00:46.0000000+00:00</time></trkpt><trkpt lat="64.21129608" lon="-20.83967209"><ele>207.8</ele><time>2012-07-19T15:00:51.0000000+00:00</time></trkpt><trkpt lat="64.21129608" lon="-20.83927536"><ele>207.6</ele><time>2012-07-19T15:00:56.0000000+00:00</time></trkpt><trkpt lat="64.21129608" lon="-20.83885956"><ele>207.5</ele><time>2012-07-19T15:01:01.0000000+00:00</time></trkpt><trkpt lat="64.21130371" lon="-20.8384285"><ele>207.6</ele><time>2012-07-19T15:01:06.0000000+00:00</time></trkpt><trkpt lat="64.21130371" lon="-20.83799171"><ele>207.6</ele><time>2012-07-19T15:01:11.0000000+00:00</time></trkpt><trkpt lat="64.21129608" lon="-20.83754158"><ele>208.4</ele><time>2012-07-19T15:01:16.0000000+00:00</time></trkpt><trkpt lat="64.21129608" lon="-20.83711433"><ele>208.6</ele><time>2012-07-19T15:01:21.0000000+00:00</time></trkpt><trkpt lat="64.21128082" lon="-20.83677673"><ele>209.2</ele><time>2012-07-19T15:01:26.0000000+00:00</time></trkpt><trkpt lat="64.21128082" lon="-20.83640289"><ele>210.2</ele><time>2012-07-19T15:01:31.0000000+00:00</time></trkpt><trkpt lat="64.21128082" lon="-20.83602524"><ele>211.6</ele><time>2012-07-19T15:01:36.0000000+00:00</time></trkpt><trkpt lat="64.21127319" lon="-20.83570671"><ele>210.5</ele><time>2012-07-19T15:01:41.0000000+00:00</time></trkpt><trkpt lat="64.21127319" lon="-20.83533859"><ele>211.2</ele><time>2012-07-19T15:01:46.0000000+00:00</time></trkpt><trkpt lat="64.21126556" lon="-20.83496094"><ele>210.4</ele><time>2012-07-19T15:01:51.0000000+00:00</time></trkpt><trkpt lat="64.21127319" lon="-20.83462143"><ele>210.9</ele><time>2012-07-19T15:01:56.0000000+00:00</time></trkpt><trkpt lat="64.21128082" lon="-20.83432388"><ele>210.7</ele><time>2012-07-19T15:02:01.0000000+00:00</time></trkpt><trkpt lat="64.21128845" lon="-20.83410645"><ele>210.4</ele><time>2012-07-19T15:02:06.0000000+00:00</time></trkpt><trkpt lat="64.21130371" lon="-20.8338356"><ele>210.2</ele><time>2012-07-19T15:02:11.0000000+00:00</time></trkpt><trkpt lat="64.21133423" lon="-20.83353424"><ele>211.1</ele><time>2012-07-19T15:02:16.0000000+00:00</time></trkpt><trkpt lat="64.21135712" lon="-20.83324051"><ele>212.0</ele><time>2012-07-19T15:02:21.0000000+00:00</time></trkpt><trkpt lat="64.21139526" lon="-20.8329773"><ele>212.9</ele><time>2012-07-19T15:02:26.0000000+00:00</time></trkpt><trkpt lat="64.21141815" lon="-20.8327179"><ele>213.0</ele><time>2012-07-19T15:02:31.0000000+00:00</time></trkpt><trkpt lat="64.21144104" lon="-20.83241463"><ele>212.3</ele><time>2012-07-19T15:02:36.0000000+00:00</time></trkpt><trkpt lat="64.21146393" lon="-20.83208466"><ele>212.0</ele><time>2012-07-19T15:02:41.0000000+00:00</time></trkpt><trkpt lat="64.21146393" lon="-20.83174133"><ele>211.1</ele><time>2012-07-19T15:02:46.0000000+00:00</time></trkpt><trkpt lat="64.21146393" lon="-20.83150101"><ele>210.4</ele><time>2012-07-19T15:02:51.0000000+00:00</time></trkpt><trkpt lat="64.21146393" lon="-20.83116341"><ele>211.1</ele><time>2012-07-19T15:02:56.0000000+00:00</time></trkpt><trkpt lat="64.2114563" lon="-20.83078575"><ele>211.2</ele><time>2012-07-19T15:03:01.0000000+00:00</time></trkpt><trkpt lat="64.21146393" lon="-20.83031273"><ele>212.1</ele><time>2012-07-19T15:03:06.0000000+00:00</time></trkpt><trkpt lat="64.21150208" lon="-20.82975769"><ele>212.8</ele><time>2012-07-19T15:03:11.0000000+00:00</time></trkpt><trkpt lat="64.21155548" lon="-20.82931137"><ele>213.1</ele><time>2012-07-19T15:03:16.0000000+00:00</time></trkpt><trkpt lat="64.21161652" lon="-20.82888031"><ele>213.4</ele><time>2012-07-19T15:03:21.0000000+00:00</time></trkpt><trkpt lat="64.2116394" lon="-20.82848358"><ele>214.8</ele><time>2012-07-19T15:03:26.0000000+00:00</time></trkpt><trkpt lat="64.21164703" lon="-20.82810402"><ele>214.2</ele><time>2012-07-19T15:03:31.0000000+00:00</time></trkpt><trkpt lat="64.21163178" lon="-20.82772827"><ele>214.1</ele><time>2012-07-19T15:03:36.0000000+00:00</time></trkpt><trkpt lat="64.21163178" lon="-20.8272934"><ele>214.1</ele><time>2012-07-19T15:03:41.0000000+00:00</time></trkpt><trkpt lat="64.21163178" lon="-20.8268795"><ele>214.5</ele><time>2012-07-19T15:03:46.0000000+00:00</time></trkpt><trkpt lat="64.21163178" lon="-20.8265152"><ele>214.8</ele><time>2012-07-19T15:03:51.0000000+00:00</time></trkpt><trkpt lat="64.21163178" lon="-20.82616043"><ele>214.7</ele><time>2012-07-19T15:03:56.0000000+00:00</time></trkpt><trkpt lat="64.21163178" lon="-20.82581711"><ele>215.4</ele><time>2012-07-19T15:04:01.0000000+00:00</time></trkpt><trkpt lat="64.2116394" lon="-20.82551575"><ele>215.6</ele><time>2012-07-19T15:04:06.0000000+00:00</time></trkpt><trkpt lat="64.21165466" lon="-20.82527161"><ele>218.5</ele><time>2012-07-19T15:04:11.0000000+00:00</time></trkpt><trkpt lat="64.21165466" lon="-20.82502556"><ele>219.8</ele><time>2012-07-19T15:04:16.0000000+00:00</time></trkpt><trkpt lat="64.21164703" lon="-20.82479668"><ele>219.9</ele><time>2012-07-19T15:04:21.0000000+00:00</time></trkpt><trkpt lat="64.21166992" lon="-20.82456207"><ele>221.0</ele><time>2012-07-19T15:04:26.0000000+00:00</time></trkpt><trkpt lat="64.21166229" lon="-20.82432365"><ele>220.9</ele><time>2012-07-19T15:04:31.0000000+00:00</time></trkpt><trkpt lat="64.21166229" lon="-20.82409477"><ele>221.0</ele><time>2012-07-19T15:04:36.0000000+00:00</time></trkpt><trkpt lat="64.21166229" lon="-20.82386017"><ele>222.0</ele><time>2012-07-19T15:04:41.0000000+00:00</time></trkpt><trkpt lat="64.21167755" lon="-20.82360649"><ele>222.1</ele><time>2012-07-19T15:04:46.0000000+00:00</time></trkpt><trkpt lat="64.21170807" lon="-20.82337952"><ele>221.6</ele><time>2012-07-19T15:04:51.0000000+00:00</time></trkpt><trkpt lat="64.21174622" lon="-20.82310295"><ele>222.1</ele><time>2012-07-19T15:04:56.0000000+00:00</time></trkpt><trkpt lat="64.21180725" lon="-20.82284546"><ele>222.9</ele><time>2012-07-19T15:05:01.0000000+00:00</time></trkpt><trkpt lat="64.21187592" lon="-20.82258225"><ele>224.0</ele><time>2012-07-19T15:05:06.0000000+00:00</time></trkpt><trkpt lat="64.21193695" lon="-20.82232475"><ele>224.6</ele><time>2012-07-19T15:05:11.0000000+00:00</time></trkpt><trkpt lat="64.21198273" lon="-20.82209587"><ele>224.6</ele><time>2012-07-19T15:05:16.0000000+00:00</time></trkpt><trkpt lat="64.21202087" lon="-20.82183075"><ele>224.8</ele><time>2012-07-19T15:05:21.0000000+00:00</time></trkpt><trkpt lat="64.21206665" lon="-20.82150841"><ele>225.0</ele><time>2012-07-19T15:05:26.0000000+00:00</time></trkpt><trkpt lat="64.21212006" lon="-20.82113838"><ele>224.5</ele><time>2012-07-19T15:05:31.0000000+00:00</time></trkpt><trkpt lat="64.21216583" lon="-20.82075691"><ele>224.2</ele><time>2012-07-19T15:05:36.0000000+00:00</time></trkpt><trkpt lat="64.21221161" lon="-20.82037926"><ele>224.3</ele><time>2012-07-19T15:05:41.0000000+00:00</time></trkpt><trkpt lat="64.21224213" lon="-20.81999397"><ele>224.8</ele><time>2012-07-19T15:05:46.0000000+00:00</time></trkpt><trkpt lat="64.21228027" lon="-20.81960106"><ele>224.9</ele><time>2012-07-19T15:05:51.0000000+00:00</time></trkpt><trkpt lat="64.21231079" lon="-20.81922913"><ele>225.4</ele><time>2012-07-19T15:05:56.0000000+00:00</time></trkpt><trkpt lat="64.21231842" lon="-20.81890488"><ele>226.3</ele><time>2012-07-19T15:06:01.0000000+00:00</time></trkpt><trkpt lat="64.21233368" lon="-20.81855011"><ele>226.6</ele><time>2012-07-19T15:06:06.0000000+00:00</time></trkpt><trkpt lat="64.21234894" lon="-20.81820107"><ele>226.7</ele><time>2012-07-19T15:06:11.0000000+00:00</time></trkpt><trkpt lat="64.21235657" lon="-20.81786346"><ele>227.9</ele><time>2012-07-19T15:06:16.0000000+00:00</time></trkpt><trkpt lat="64.2123642" lon="-20.81753349"><ele>228.2</ele><time>2012-07-19T15:06:21.0000000+00:00</time></trkpt><trkpt lat="64.2123642" lon="-20.81722832"><ele>227.4</ele><time>2012-07-19T15:06:26.0000000+00:00</time></trkpt><trkpt lat="64.21237183" lon="-20.81694412"><ele>228.3</ele><time>2012-07-19T15:06:31.0000000+00:00</time></trkpt><trkpt lat="64.21237183" lon="-20.81668854"><ele>228.3</ele><time>2012-07-19T15:06:36.0000000+00:00</time></trkpt><trkpt lat="64.21237946" lon="-20.81639862"><ele>227.6</ele><time>2012-07-19T15:06:41.0000000+00:00</time></trkpt><trkpt lat="64.21239471" lon="-20.81605339"><ele>227.2</ele><time>2012-07-19T15:06:46.0000000+00:00</time></trkpt><trkpt lat="64.21239471" lon="-20.81571007"><ele>228.3</ele><time>2012-07-19T15:06:51.0000000+00:00</time></trkpt><trkpt lat="64.21238709" lon="-20.815382"><ele>228.4</ele><time>2012-07-19T15:06:56.0000000+00:00</time></trkpt><trkpt lat="64.21238709" lon="-20.81505203"><ele>229.0</ele><time>2012-07-19T15:07:01.0000000+00:00</time></trkpt><trkpt lat="64.21238709" lon="-20.81469154"><ele>230.5</ele><time>2012-07-19T15:07:06.0000000+00:00</time></trkpt><trkpt lat="64.21238709" lon="-20.8143177"><ele>233.8</ele><time>2012-07-19T15:07:11.0000000+00:00</time></trkpt><trkpt lat="64.21237946" lon="-20.81392479"><ele>234.4</ele><time>2012-07-19T15:07:16.0000000+00:00</time></trkpt><trkpt lat="64.21235657" lon="-20.81354713"><ele>235.2</ele><time>2012-07-19T15:07:21.0000000+00:00</time></trkpt><trkpt lat="64.21231842" lon="-20.81318855"><ele>235.9</ele><time>2012-07-19T15:07:26.0000000+00:00</time></trkpt><trkpt lat="64.21229553" lon="-20.81286812"><ele>234.2</ele><time>2012-07-19T15:07:31.0000000+00:00</time></trkpt><trkpt lat="64.21225739" lon="-20.81251335"><ele>233.3</ele><time>2012-07-19T15:07:36.0000000+00:00</time></trkpt><trkpt lat="64.21222687" lon="-20.81215859"><ele>232.3</ele><time>2012-07-19T15:07:41.0000000+00:00</time></trkpt><trkpt lat="64.21220398" lon="-20.81184387"><ele>232.2</ele><time>2012-07-19T15:07:46.0000000+00:00</time></trkpt><trkpt lat="64.21218872" lon="-20.81157875"><ele>231.9</ele><time>2012-07-19T15:07:51.0000000+00:00</time></trkpt><trkpt lat="64.21217346" lon="-20.81128693"><ele>231.4</ele><time>2012-07-19T15:07:56.0000000+00:00</time></trkpt><trkpt lat="64.21217346" lon="-20.81105614"><ele>231.4</ele><time>2012-07-19T15:08:01.0000000+00:00</time></trkpt><trkpt lat="64.21217346" lon="-20.81087494"><ele>230.8</ele><time>2012-07-19T15:08:06.0000000+00:00</time></trkpt><trkpt lat="64.21216583" lon="-20.81070709"><ele>230.5</ele><time>2012-07-19T15:08:11.0000000+00:00</time></trkpt><trkpt lat="64.21217346" lon="-20.81049919"><ele>229.6</ele><time>2012-07-19T15:08:16.0000000+00:00</time></trkpt><trkpt lat="64.21218872" lon="-20.81028748"><ele>229.2</ele><time>2012-07-19T15:08:21.0000000+00:00</time></trkpt><trkpt lat="64.21219635" lon="-20.81010437"><ele>229.5</ele><time>2012-07-19T15:08:26.0000000+00:00</time></trkpt><trkpt lat="64.21221924" lon="-20.8099308"><ele>230.6</ele><time>2012-07-19T15:08:31.0000000+00:00</time></trkpt><trkpt lat="64.21224213" lon="-20.80976105"><ele>231.5</ele><time>2012-07-19T15:08:36.0000000+00:00</time></trkpt><trkpt lat="64.21225739" lon="-20.80952835"><ele>232.8</ele><time>2012-07-19T15:08:41.0000000+00:00</time></trkpt><trkpt lat="64.21228027" lon="-20.8092804"><ele>233.8</ele><time>2012-07-19T15:08:46.0000000+00:00</time></trkpt><trkpt lat="64.21228027" lon="-20.8090992"><ele>234.9</ele><time>2012-07-19T15:08:51.0000000+00:00</time></trkpt><trkpt lat="64.21228027" lon="-20.80886078"><ele>236.0</ele><time>2012-07-19T15:08:56.0000000+00:00</time></trkpt><trkpt lat="64.21228027" lon="-20.80866623"><ele>236.5</ele><time>2012-07-19T15:09:01.0000000+00:00</time></trkpt><trkpt lat="64.21228027" lon="-20.8084507"><ele>237.3</ele><time>2012-07-19T15:09:06.0000000+00:00</time></trkpt><trkpt lat="64.2122879" lon="-20.8082962"><ele>238.0</ele><time>2012-07-19T15:09:11.0000000+00:00</time></trkpt><trkpt lat="64.2122879" lon="-20.80810547"><ele>238.9</ele><time>2012-07-19T15:09:16.0000000+00:00</time></trkpt><trkpt lat="64.2122879" lon="-20.80790138"><ele>239.9</ele><time>2012-07-19T15:09:21.0000000+00:00</time></trkpt><trkpt lat="64.21227264" lon="-20.80770111"><ele>240.6</ele><time>2012-07-19T15:09:26.0000000+00:00</time></trkpt><trkpt lat="64.21228027" lon="-20.80752182"><ele>240.7</ele><time>2012-07-19T15:09:31.0000000+00:00</time></trkpt><trkpt lat="64.21228027" lon="-20.80732346"><ele>241.2</ele><time>2012-07-19T15:09:36.0000000+00:00</time></trkpt><trkpt lat="64.21228027" lon="-20.80710602"><ele>241.5</ele><time>2012-07-19T15:09:41.0000000+00:00</time></trkpt><trkpt lat="64.21227264" lon="-20.80685425"><ele>241.9</ele><time>2012-07-19T15:09:46.0000000+00:00</time></trkpt><trkpt lat="64.21225739" lon="-20.80658531"><ele>243.7</ele><time>2012-07-19T15:09:51.0000000+00:00</time></trkpt><trkpt lat="64.2122345" lon="-20.80631065"><ele>245.2</ele><time>2012-07-19T15:09:56.0000000+00:00</time></trkpt><trkpt lat="64.21221924" lon="-20.80603981"><ele>246.7</ele><time>2012-07-19T15:10:01.0000000+00:00</time></trkpt><trkpt lat="64.21219635" lon="-20.8058033"><ele>248.0</ele><time>2012-07-19T15:10:06.0000000+00:00</time></trkpt><trkpt lat="64.21216583" lon="-20.80551529"><ele>248.9</ele><time>2012-07-19T15:10:11.0000000+00:00</time></trkpt><trkpt lat="64.21212769" lon="-20.80522728"><ele>249.3</ele><time>2012-07-19T15:10:16.0000000+00:00</time></trkpt><trkpt lat="64.2121048" lon="-20.80489159"><ele>250.4</ele><time>2012-07-19T15:10:21.0000000+00:00</time></trkpt><trkpt lat="64.21207428" lon="-20.80452728"><ele>251.8</ele><time>2012-07-19T15:10:26.0000000+00:00</time></trkpt><trkpt lat="64.21203613" lon="-20.80415916"><ele>252.4</ele><time>2012-07-19T15:10:31.0000000+00:00</time></trkpt><trkpt lat="64.21199799" lon="-20.80377007"><ele>253.2</ele><time>2012-07-19T15:10:36.0000000+00:00</time></trkpt><trkpt lat="64.21193695" lon="-20.80337906"><ele>253.8</ele><time>2012-07-19T15:10:41.0000000+00:00</time></trkpt><trkpt lat="64.21187592" lon="-20.80306244"><ele>255.0</ele><time>2012-07-19T15:10:46.0000000+00:00</time></trkpt><trkpt lat="64.21181488" lon="-20.80270195"><ele>255.3</ele><time>2012-07-19T15:10:51.0000000+00:00</time></trkpt><trkpt lat="64.21173859" lon="-20.80232048"><ele>255.7</ele><time>2012-07-19T15:10:56.0000000+00:00</time></trkpt><trkpt lat="64.21166229" lon="-20.80189896"><ele>256.2</ele><time>2012-07-19T15:11:01.0000000+00:00</time></trkpt><trkpt lat="64.21159363" lon="-20.80150986"><ele>255.7</ele><time>2012-07-19T15:11:06.0000000+00:00</time></trkpt><trkpt lat="64.21151733" lon="-20.8010788"><ele>256.0</ele><time>2012-07-19T15:11:11.0000000+00:00</time></trkpt><trkpt lat="64.21143341" lon="-20.80062866"><ele>255.5</ele><time>2012-07-19T15:11:16.0000000+00:00</time></trkpt><trkpt lat="64.21135712" lon="-20.8001709"><ele>254.9</ele><time>2012-07-19T15:11:21.0000000+00:00</time></trkpt><trkpt lat="64.21128845" lon="-20.79977608"><ele>255.1</ele><time>2012-07-19T15:11:26.0000000+00:00</time></trkpt><trkpt lat="64.21125794" lon="-20.79949951"><ele>255.2</ele><time>2012-07-19T15:11:31.0000000+00:00</time></trkpt><trkpt lat="64.21123505" lon="-20.79939652"><ele>254.6</ele><time>2012-07-19T15:11:36.0000000+00:00</time></trkpt><trkpt lat="64.21123505" lon="-20.79940033"><ele>254.6</ele><time>2012-07-19T15:11:41.0000000+00:00</time></trkpt><trkpt lat="64.21123505" lon="-20.79940033"><ele>254.5</ele><time>2012-07-19T15:11:46.0000000+00:00</time></trkpt><trkpt lat="64.21123505" lon="-20.79940224"><ele>254.4</ele><time>2012-07-19T15:11:51.0000000+00:00</time></trkpt><trkpt lat="64.21123505" lon="-20.79940224"><ele>254.3</ele><time>2012-07-19T15:11:56.0000000+00:00</time></trkpt><trkpt lat="64.21123505" lon="-20.79940224"><ele>254.2</ele><time>2012-07-19T15:12:01.0000000+00:00</time></trkpt><trkpt lat="64.21123505" lon="-20.79940414"><ele>254.1</ele><time>2012-07-19T15:12:06.0000000+00:00</time></trkpt><trkpt lat="64.21123505" lon="-20.79940414"><ele>254.1</ele><time>2012-07-19T15:12:11.0000000+00:00</time></trkpt><trkpt lat="64.21123505" lon="-20.79940414"><ele>254.0</ele><time>2012-07-19T15:12:16.0000000+00:00</time></trkpt><trkpt lat="64.21123505" lon="-20.79940414"><ele>254.0</ele><time>2012-07-19T15:12:21.0000000+00:00</time></trkpt><trkpt lat="64.21123505" lon="-20.79940414"><ele>254.0</ele><time>2012-07-19T15:12:26.0000000+00:00</time></trkpt><trkpt lat="64.21123505" lon="-20.79940605"><ele>254.0</ele><time>2012-07-19T15:12:31.0000000+00:00</time></trkpt><trkpt lat="64.21123505" lon="-20.79940605"><ele>254.0</ele><time>2012-07-19T15:12:36.0000000+00:00</time></trkpt><trkpt lat="64.21123505" lon="-20.79940605"><ele>253.9</ele><time>2012-07-19T15:12:41.0000000+00:00</time></trkpt><trkpt lat="64.21123505" lon="-20.79940605"><ele>253.9</ele><time>2012-07-19T15:12:46.0000000+00:00</time></trkpt><trkpt lat="64.21123505" lon="-20.79940796"><ele>253.9</ele><time>2012-07-19T15:12:51.0000000+00:00</time></trkpt><trkpt lat="64.21123505" lon="-20.79940796"><ele>253.9</ele><time>2012-07-19T15:12:56.0000000+00:00</time></trkpt><trkpt lat="64.21123505" lon="-20.79940796"><ele>253.9</ele><time>2012-07-19T15:13:01.0000000+00:00</time></trkpt><trkpt lat="64.21123505" lon="-20.79940796"><ele>253.9</ele><time>2012-07-19T15:13:06.0000000+00:00</time></trkpt><trkpt lat="64.21123505" lon="-20.79940796"><ele>253.9</ele><time>2012-07-19T15:13:11.0000000+00:00</time></trkpt><trkpt lat="64.21123505" lon="-20.79940796"><ele>253.8</ele><time>2012-07-19T15:13:16.0000000+00:00</time></trkpt><trkpt lat="64.21123505" lon="-20.79940987"><ele>253.8</ele><time>2012-07-19T15:13:21.0000000+00:00</time></trkpt><trkpt lat="64.21123505" lon="-20.79940987"><ele>253.8</ele><time>2012-07-19T15:13:26.0000000+00:00</time></trkpt><trkpt lat="64.21123505" lon="-20.79940987"><ele>253.8</ele><time>2012-07-19T15:13:31.0000000+00:00</time></trkpt><trkpt lat="64.21123505" lon="-20.79940987"><ele>253.8</ele><time>2012-07-19T15:13:36.0000000+00:00</time></trkpt><trkpt lat="64.21123505" lon="-20.79941177"><ele>253.7</ele><time>2012-07-19T15:13:41.0000000+00:00</time></trkpt><trkpt lat="64.21123505" lon="-20.79941177"><ele>253.7</ele><time>2012-07-19T15:13:46.0000000+00:00</time></trkpt><trkpt lat="64.21123505" lon="-20.79941177"><ele>253.7</ele><time>2012-07-19T15:13:51.0000000+00:00</time></trkpt><trkpt lat="64.21123505" lon="-20.79941177"><ele>253.7</ele><time>2012-07-19T15:13:56.0000000+00:00</time></trkpt><trkpt lat="64.21123505" lon="-20.79941368"><ele>253.6</ele><time>2012-07-19T15:14:01.0000000+00:00</time></trkpt><trkpt lat="64.21123505" lon="-20.79938126"><ele>253.4</ele><time>2012-07-19T15:14:06.0000000+00:00</time></trkpt><trkpt lat="64.21124268" lon="-20.79919624"><ele>252.4</ele><time>2012-07-19T15:14:11.0000000+00:00</time></trkpt><trkpt lat="64.21126556" lon="-20.79893494"><ele>250.1</ele><time>2012-07-19T15:14:16.0000000+00:00</time></trkpt><trkpt lat="64.21131897" lon="-20.79861641"><ele>246.6</ele><time>2012-07-19T15:14:21.0000000+00:00</time></trkpt><trkpt lat="64.21139526" lon="-20.7982254"><ele>244.1</ele><time>2012-07-19T15:14:26.0000000+00:00</time></trkpt><trkpt lat="64.21148682" lon="-20.79779434"><ele>241.8</ele><time>2012-07-19T15:14:31.0000000+00:00</time></trkpt><trkpt lat="64.21159363" lon="-20.7972908"><ele>239.6</ele><time>2012-07-19T15:14:36.0000000+00:00</time></trkpt><trkpt lat="64.21170807" lon="-20.79674149"><ele>237.2</ele><time>2012-07-19T15:14:41.0000000+00:00</time></trkpt><trkpt lat="64.21186066" lon="-20.79607964"><ele>233.9</ele><time>2012-07-19T15:14:46.0000000+00:00</time></trkpt><trkpt lat="64.2120285" lon="-20.79531097"><ele>230.5</ele><time>2012-07-19T15:14:51.0000000+00:00</time></trkpt><trkpt lat="64.2121582" lon="-20.79471779"><ele>228.3</ele><time>2012-07-19T15:14:56.0000000+00:00</time></trkpt><trkpt lat="64.21227264" lon="-20.79416847"><ele>226.5</ele><time>2012-07-19T15:15:01.0000000+00:00</time></trkpt><trkpt lat="64.21238709" lon="-20.79356384"><ele>224.7</ele><time>2012-07-19T15:15:06.0000000+00:00</time></trkpt><trkpt lat="64.21244049" lon="-20.7927742"><ele>221.0</ele><time>2012-07-19T15:15:11.0000000+00:00</time></trkpt><trkpt lat="64.21234131" lon="-20.79195786"><ele>219.0</ele><time>2012-07-19T15:15:16.0000000+00:00</time></trkpt><trkpt lat="64.21220398" lon="-20.79148102"><ele>219.0</ele><time>2012-07-19T15:15:21.0000000+00:00</time></trkpt><trkpt lat="64.21203613" lon="-20.79101563"><ele>217.0</ele><time>2012-07-19T15:15:26.0000000+00:00</time></trkpt><trkpt lat="64.21183777" lon="-20.79039192"><ele>215.7</ele><time>2012-07-19T15:15:31.0000000+00:00</time></trkpt><trkpt lat="64.21170044" lon="-20.78963089"><ele>214.8</ele><time>2012-07-19T15:15:36.0000000+00:00</time></trkpt><trkpt lat="64.21159363" lon="-20.78884697"><ele>214.6</ele><time>2012-07-19T15:15:41.0000000+00:00</time></trkpt><trkpt lat="64.21148682" lon="-20.78809929"><ele>214.0</ele><time>2012-07-19T15:15:46.0000000+00:00</time></trkpt><trkpt lat="64.21139526" lon="-20.78731346"><ele>212.8</ele><time>2012-07-19T15:15:51.0000000+00:00</time></trkpt><trkpt lat="64.21131134" lon="-20.78655052"><ele>213.2</ele><time>2012-07-19T15:15:56.0000000+00:00</time></trkpt><trkpt lat="64.21124268" lon="-20.78582954"><ele>214.1</ele><time>2012-07-19T15:16:01.0000000+00:00</time></trkpt><trkpt lat="64.21118927" lon="-20.78513908"><ele>214.2</ele><time>2012-07-19T15:16:06.0000000+00:00</time></trkpt><trkpt lat="64.21114349" lon="-20.78441811"><ele>214.3</ele><time>2012-07-19T15:16:11.0000000+00:00</time></trkpt><trkpt lat="64.21110535" lon="-20.78379822"><ele>214.3</ele><time>2012-07-19T15:16:16.0000000+00:00</time></trkpt><trkpt lat="64.21105957" lon="-20.78338814"><ele>215.6</ele><time>2012-07-19T15:16:21.0000000+00:00</time></trkpt><trkpt lat="64.21102905" lon="-20.78320313"><ele>217.4</ele><time>2012-07-19T15:16:26.0000000+00:00</time></trkpt><trkpt lat="64.21102142" lon="-20.78302193"><ele>219.7</ele><time>2012-07-19T15:16:31.0000000+00:00</time></trkpt><trkpt lat="64.21099091" lon="-20.78279686"><ele>221.6</ele><time>2012-07-19T15:16:36.0000000+00:00</time></trkpt><trkpt lat="64.21096039" lon="-20.78262901"><ele>222.9</ele><time>2012-07-19T15:16:41.0000000+00:00</time></trkpt><trkpt lat="64.21092987" lon="-20.78246498"><ele>225.1</ele><time>2012-07-19T15:16:46.0000000+00:00</time></trkpt><trkpt lat="64.21091461" lon="-20.78232765"><ele>227.0</ele><time>2012-07-19T15:16:51.0000000+00:00</time></trkpt><trkpt lat="64.21089172" lon="-20.78217125"><ele>227.9</ele><time>2012-07-19T15:16:56.0000000+00:00</time></trkpt><trkpt lat="64.21086121" lon="-20.78197098"><ele>230.6</ele><time>2012-07-19T15:17:01.0000000+00:00</time></trkpt><trkpt lat="64.21085358" lon="-20.78181648"><ele>231.7</ele><time>2012-07-19T15:17:06.0000000+00:00</time></trkpt><trkpt lat="64.21084595" lon="-20.78167915"><ele>231.0</ele><time>2012-07-19T15:17:11.0000000+00:00</time></trkpt><trkpt lat="64.21085358" lon="-20.78152847"><ele>231.2</ele><time>2012-07-19T15:17:16.0000000+00:00</time></trkpt><trkpt lat="64.21085358" lon="-20.78135109"><ele>230.6</ele><time>2012-07-19T15:17:21.0000000+00:00</time></trkpt><trkpt lat="64.21086121" lon="-20.78115463"><ele>230.2</ele><time>2012-07-19T15:17:26.0000000+00:00</time></trkpt><trkpt lat="64.21087647" lon="-20.78093338"><ele>229.0</ele><time>2012-07-19T15:17:31.0000000+00:00</time></trkpt><trkpt lat="64.21089172" lon="-20.78069115"><ele>228.2</ele><time>2012-07-19T15:17:36.0000000+00:00</time></trkpt><trkpt lat="64.21092224" lon="-20.78050423"><ele>227.1</ele><time>2012-07-19T15:17:41.0000000+00:00</time></trkpt><trkpt lat="64.2109375" lon="-20.78027344"><ele>226.2</ele><time>2012-07-19T15:17:46.0000000+00:00</time></trkpt><trkpt lat="64.21097565" lon="-20.77998161"><ele>226.3</ele><time>2012-07-19T15:17:51.0000000+00:00</time></trkpt><trkpt lat="64.21102142" lon="-20.77973747"><ele>226.3</ele><time>2012-07-19T15:17:56.0000000+00:00</time></trkpt><trkpt lat="64.21102142" lon="-20.77973938"><ele>225.2</ele><time>2012-07-19T15:18:01.0000000+00:00</time></trkpt><trkpt lat="64.21103668" lon="-20.77957153"><ele>223.6</ele><time>2012-07-19T15:18:06.0000000+00:00</time></trkpt><trkpt lat="64.21104431" lon="-20.77945328"><ele>223.3</ele><time>2012-07-19T15:18:11.0000000+00:00</time></trkpt><trkpt lat="64.21108246" lon="-20.77905273"><ele>222.3</ele><time>2012-07-19T15:18:16.0000000+00:00</time></trkpt><trkpt lat="64.21115875" lon="-20.77847862"><ele>220.1</ele><time>2012-07-19T15:18:21.0000000+00:00</time></trkpt><trkpt lat="64.21136475" lon="-20.77767181"><ele>213.9</ele><time>2012-07-19T15:18:26.0000000+00:00</time></trkpt><trkpt lat="64.21179962" lon="-20.77681923"><ele>204.8</ele><time>2012-07-19T15:18:31.0000000+00:00</time></trkpt><trkpt lat="64.21224976" lon="-20.77605438"><ele>198.8</ele><time>2012-07-19T15:18:36.0000000+00:00</time></trkpt><trkpt lat="64.21205902" lon="-20.77528191"><ele>198.8</ele><time>2012-07-19T15:18:41.0000000+00:00</time></trkpt><trkpt lat="64.2117157" lon="-20.77480698"><ele>196.5</ele><time>2012-07-19T15:18:46.0000000+00:00</time></trkpt><trkpt lat="64.21151733" lon="-20.77428246"><ele>196.3</ele><time>2012-07-19T15:18:51.0000000+00:00</time></trkpt><trkpt lat="64.21137238" lon="-20.77380753"><ele>196.4</ele><time>2012-07-19T15:18:56.0000000+00:00</time></trkpt><trkpt lat="64.21124268" lon="-20.77337647"><ele>196.0</ele><time>2012-07-19T15:19:01.0000000+00:00</time></trkpt><trkpt lat="64.2110672" lon="-20.77278709"><ele>192.7</ele><time>2012-07-19T15:19:06.0000000+00:00</time></trkpt><trkpt lat="64.21080017" lon="-20.7720623"><ele>190.6</ele><time>2012-07-19T15:19:11.0000000+00:00</time></trkpt><trkpt lat="64.21053314" lon="-20.77137756"><ele>189.4</ele><time>2012-07-19T15:19:16.0000000+00:00</time></trkpt><trkpt lat="64.21034241" lon="-20.77054977"><ele>187.7</ele><time>2012-07-19T15:19:21.0000000+00:00</time></trkpt><trkpt lat="64.21022797" lon="-20.76953888"><ele>183.5</ele><time>2012-07-19T15:19:26.0000000+00:00</time></trkpt><trkpt lat="64.21022034" lon="-20.76849175"><ele>181.3</ele><time>2012-07-19T15:19:31.0000000+00:00</time></trkpt><trkpt lat="64.2103653" lon="-20.76746559"><ele>178.5</ele><time>2012-07-19T15:19:36.0000000+00:00</time></trkpt><trkpt lat="64.21056366" lon="-20.76652336"><ele>174.6</ele><time>2012-07-19T15:19:41.0000000+00:00</time></trkpt><trkpt lat="64.21066284" lon="-20.76567459"><ele>171.6</ele><time>2012-07-19T15:19:46.0000000+00:00</time></trkpt><trkpt lat="64.21066284" lon="-20.76473808"><ele>166.9</ele><time>2012-07-19T15:19:51.0000000+00:00</time></trkpt><trkpt lat="64.21080017" lon="-20.76361275"><ele>162.0</ele><time>2012-07-19T15:19:56.0000000+00:00</time></trkpt><trkpt lat="64.21090698" lon="-20.76231194"><ele>157.2</ele><time>2012-07-19T15:20:01.0000000+00:00</time></trkpt><trkpt lat="64.21092987" lon="-20.76119804"><ele>155.7</ele><time>2012-07-19T15:20:06.0000000+00:00</time></trkpt><trkpt lat="64.21095276" lon="-20.76030731"><ele>152.1</ele><time>2012-07-19T15:20:11.0000000+00:00</time></trkpt><trkpt lat="64.21100617" lon="-20.75943947"><ele>147.6</ele><time>2012-07-19T15:20:16.0000000+00:00</time></trkpt><trkpt lat="64.21103668" lon="-20.75843048"><ele>143.6</ele><time>2012-07-19T15:20:21.0000000+00:00</time></trkpt><trkpt lat="64.21116638" lon="-20.75730324"><ele>137.1</ele><time>2012-07-19T15:20:26.0000000+00:00</time></trkpt><trkpt lat="64.21138763" lon="-20.75604439"><ele>131.5</ele><time>2012-07-19T15:20:31.0000000+00:00</time></trkpt><trkpt lat="64.21154785" lon="-20.75477791"><ele>129.3</ele><time>2012-07-19T15:20:36.0000000+00:00</time></trkpt><trkpt lat="64.21166229" lon="-20.75361633"><ele>127.9</ele><time>2012-07-19T15:20:41.0000000+00:00</time></trkpt><trkpt lat="64.21177673" lon="-20.75250816"><ele>124.8</ele><time>2012-07-19T15:20:46.0000000+00:00</time></trkpt><trkpt lat="64.21186829" lon="-20.75128746"><ele>121.3</ele><time>2012-07-19T15:20:51.0000000+00:00</time></trkpt><trkpt lat="64.21196747" lon="-20.75016022"><ele>119.1</ele><time>2012-07-19T15:20:56.0000000+00:00</time></trkpt><trkpt lat="64.21212769" lon="-20.7491169"><ele>114.7</ele><time>2012-07-19T15:21:01.0000000+00:00</time></trkpt><trkpt lat="64.21214294" lon="-20.74803543"><ele>108.8</ele><time>2012-07-19T15:21:06.0000000+00:00</time></trkpt><trkpt lat="64.21199036" lon="-20.74758339"><ele>106.2</ele><time>2012-07-19T15:21:11.0000000+00:00</time></trkpt><trkpt lat="64.21188355" lon="-20.74751663"><ele>106.5</ele><time>2012-07-19T15:21:16.0000000+00:00</time></trkpt><trkpt lat="64.21183014" lon="-20.74739456"><ele>106.4</ele><time>2012-07-19T15:21:21.0000000+00:00</time></trkpt><trkpt lat="64.21179199" lon="-20.74703026"><ele>106.9</ele><time>2012-07-19T15:21:26.0000000+00:00</time></trkpt><trkpt lat="64.2118454" lon="-20.7464447"><ele>105.2</ele><time>2012-07-19T15:21:31.0000000+00:00</time></trkpt><trkpt lat="64.21190643" lon="-20.7456913"><ele>101.7</ele><time>2012-07-19T15:21:36.0000000+00:00</time></trkpt><trkpt lat="64.21192932" lon="-20.74480057"><ele>98.5</ele><time>2012-07-19T15:21:41.0000000+00:00</time></trkpt><trkpt lat="64.2118988" lon="-20.74388313"><ele>97.3</ele><time>2012-07-19T15:21:46.0000000+00:00</time></trkpt><trkpt lat="64.21178436" lon="-20.74333954"><ele>96.7</ele><time>2012-07-19T15:21:51.0000000+00:00</time></trkpt><trkpt lat="64.21168518" lon="-20.74323845"><ele>96.4</ele><time>2012-07-19T15:21:56.0000000+00:00</time></trkpt><trkpt lat="64.2116394" lon="-20.74307632"><ele>96.1</ele><time>2012-07-19T15:22:01.0000000+00:00</time></trkpt><trkpt lat="64.21164703" lon="-20.74298668"><ele>97.0</ele><time>2012-07-19T15:22:06.0000000+00:00</time></trkpt><trkpt lat="64.21165466" lon="-20.74298859"><ele>97.2</ele><time>2012-07-19T15:22:11.0000000+00:00</time></trkpt><trkpt lat="64.21165466" lon="-20.74299049"><ele>97.2</ele><time>2012-07-19T15:22:16.0000000+00:00</time></trkpt><trkpt lat="64.21165466" lon="-20.7429924"><ele>97.3</ele><time>2012-07-19T15:22:21.0000000+00:00</time></trkpt><trkpt lat="64.21165466" lon="-20.74299049"><ele>97.3</ele><time>2012-07-19T15:22:26.0000000+00:00</time></trkpt><trkpt lat="64.21165466" lon="-20.7429924"><ele>97.3</ele><time>2012-07-19T15:22:31.0000000+00:00</time></trkpt><trkpt lat="64.21165466" lon="-20.7429924"><ele>97.3</ele><time>2012-07-19T15:22:36.0000000+00:00</time></trkpt><trkpt lat="64.21165466" lon="-20.7429924"><ele>97.3</ele><time>2012-07-19T15:22:41.0000000+00:00</time></trkpt><trkpt lat="64.21165466" lon="-20.7429924"><ele>97.3</ele><time>2012-07-19T15:22:46.0000000+00:00</time></trkpt><trkpt lat="64.21165466" lon="-20.74296761"><ele>97.3</ele><time>2012-07-19T15:22:51.0000000+00:00</time></trkpt><trkpt lat="64.21168518" lon="-20.7428112"><ele>96.9</ele><time>2012-07-19T15:22:56.0000000+00:00</time></trkpt><trkpt lat="64.21178436" lon="-20.74261093"><ele>95.1</ele><time>2012-07-19T15:23:01.0000000+00:00</time></trkpt><trkpt lat="64.21194458" lon="-20.74257278"><ele>93.2</ele><time>2012-07-19T15:23:06.0000000+00:00</time></trkpt><trkpt lat="64.2121048" lon="-20.74238777"><ele>92.8</ele><time>2012-07-19T15:23:11.0000000+00:00</time></trkpt><trkpt lat="64.21224213" lon="-20.74201584"><ele>92.8</ele><time>2012-07-19T15:23:16.0000000+00:00</time></trkpt><trkpt lat="64.21235657" lon="-20.74155235"><ele>92.6</ele><time>2012-07-19T15:23:21.0000000+00:00</time></trkpt><trkpt lat="64.21247101" lon="-20.74108505"><ele>92.7</ele><time>2012-07-19T15:23:26.0000000+00:00</time></trkpt><trkpt lat="64.21259308" lon="-20.7406044"><ele>92.6</ele><time>2012-07-19T15:23:31.0000000+00:00</time></trkpt><trkpt lat="64.21271515" lon="-20.74011421"><ele>93.4</ele><time>2012-07-19T15:23:36.0000000+00:00</time></trkpt><trkpt lat="64.21281433" lon="-20.73965836"><ele>94.5</ele><time>2012-07-19T15:23:41.0000000+00:00</time></trkpt><trkpt lat="64.21290588" lon="-20.73926163"><ele>95.1</ele><time>2012-07-19T15:23:46.0000000+00:00</time></trkpt><trkpt lat="64.21298981" lon="-20.73888397"><ele>95.6</ele><time>2012-07-19T15:23:51.0000000+00:00</time></trkpt><trkpt lat="64.21308136" lon="-20.73854256"><ele>96.0</ele><time>2012-07-19T15:23:56.0000000+00:00</time></trkpt><trkpt lat="64.21318817" lon="-20.7382412"><ele>95.8</ele><time>2012-07-19T15:24:01.0000000+00:00</time></trkpt><trkpt lat="64.21330261" lon="-20.73795891"><ele>95.2</ele><time>2012-07-19T15:24:06.0000000+00:00</time></trkpt><trkpt lat="64.21341705" lon="-20.73770332"><ele>94.6</ele><time>2012-07-19T15:24:11.0000000+00:00</time></trkpt><trkpt lat="64.21355438" lon="-20.73747826"><ele>93.7</ele><time>2012-07-19T15:24:16.0000000+00:00</time></trkpt><trkpt lat="64.21372986" lon="-20.73727799"><ele>92.6</ele><time>2012-07-19T15:24:21.0000000+00:00</time></trkpt><trkpt lat="64.21393585" lon="-20.73711014"><ele>91.7</ele><time>2012-07-19T15:24:26.0000000+00:00</time></trkpt><trkpt lat="64.21417236" lon="-20.73696137"><ele>91.9</ele><time>2012-07-19T15:24:31.0000000+00:00</time></trkpt><trkpt lat="64.21438599" lon="-20.73680878"><ele>91.6</ele><time>2012-07-19T15:24:36.0000000+00:00</time></trkpt><trkpt lat="64.21456909" lon="-20.73666573"><ele>91.5</ele><time>2012-07-19T15:24:41.0000000+00:00</time></trkpt><trkpt lat="64.21476746" lon="-20.73648262"><ele>90.9</ele><time>2012-07-19T15:24:46.0000000+00:00</time></trkpt><trkpt lat="64.21498108" lon="-20.73628616"><ele>89.9</ele><time>2012-07-19T15:24:51.0000000+00:00</time></trkpt><trkpt lat="64.21517944" lon="-20.73607254"><ele>88.2</ele><time>2012-07-19T15:24:56.0000000+00:00</time></trkpt><trkpt lat="64.21539307" lon="-20.73588753"><ele>87.4</ele><time>2012-07-19T15:25:01.0000000+00:00</time></trkpt><trkpt lat="64.21560669" lon="-20.73571205"><ele>86.9</ele><time>2012-07-19T15:25:06.0000000+00:00</time></trkpt><trkpt lat="64.2158432" lon="-20.73554802"><ele>87.3</ele><time>2012-07-19T15:25:11.0000000+00:00</time></trkpt><trkpt lat="64.21605682" lon="-20.73539162"><ele>87.3</ele><time>2012-07-19T15:25:16.0000000+00:00</time></trkpt><trkpt lat="64.21627808" lon="-20.73521042"><ele>87.1</ele><time>2012-07-19T15:25:21.0000000+00:00</time></trkpt><trkpt lat="64.21645355" lon="-20.73488236"><ele>86.8</ele><time>2012-07-19T15:25:26.0000000+00:00</time></trkpt><trkpt lat="64.21662903" lon="-20.73467064"><ele>85.2</ele><time>2012-07-19T15:25:31.0000000+00:00</time></trkpt><trkpt lat="64.21671295" lon="-20.73441505"><ele>85.0</ele><time>2012-07-19T15:25:36.0000000+00:00</time></trkpt><trkpt lat="64.21675873" lon="-20.73419571"><ele>87.7</ele><time>2012-07-19T15:25:41.0000000+00:00</time></trkpt><trkpt lat="64.21678162" lon="-20.73415566"><ele>88.5</ele><time>2012-07-19T15:25:46.0000000+00:00</time></trkpt><trkpt lat="64.21678162" lon="-20.73412895"><ele>88.6</ele><time>2012-07-19T15:25:51.0000000+00:00</time></trkpt><trkpt lat="64.2167511" lon="-20.73402023"><ele>88.2</ele><time>2012-07-19T15:25:56.0000000+00:00</time></trkpt><trkpt lat="64.21675873" lon="-20.73396683"><ele>88.4</ele><time>2012-07-19T15:26:01.0000000+00:00</time></trkpt><trkpt lat="64.21675873" lon="-20.73395729"><ele>88.4</ele><time>2012-07-19T15:26:06.0000000+00:00</time></trkpt><trkpt lat="64.21675873" lon="-20.73395538"><ele>88.5</ele><time>2012-07-19T15:26:11.0000000+00:00</time></trkpt><trkpt lat="64.21675873" lon="-20.73395538"><ele>88.5</ele><time>2012-07-19T15:26:16.0000000+00:00</time></trkpt><trkpt lat="64.21675873" lon="-20.73395538"><ele>88.5</ele><time>2012-07-19T15:26:21.0000000+00:00</time></trkpt><trkpt lat="64.21675873" lon="-20.73395538"><ele>88.5</ele><time>2012-07-19T15:26:26.0000000+00:00</time></trkpt><trkpt lat="64.21675873" lon="-20.73395729"><ele>88.5</ele><time>2012-07-19T15:26:31.0000000+00:00</time></trkpt><trkpt lat="64.21675873" lon="-20.73395729"><ele>88.5</ele><time>2012-07-19T15:26:36.0000000+00:00</time></trkpt><trkpt lat="64.21675873" lon="-20.73395729"><ele>88.5</ele><time>2012-07-19T15:26:41.0000000+00:00</time></trkpt><trkpt lat="64.21675873" lon="-20.73395729"><ele>88.5</ele><time>2012-07-19T15:26:46.0000000+00:00</time></trkpt><trkpt lat="64.21675873" lon="-20.73395729"><ele>88.4</ele><time>2012-07-19T15:26:51.0000000+00:00</time></trkpt><trkpt lat="64.21675873" lon="-20.73395729"><ele>88.4</ele><time>2012-07-19T15:26:56.0000000+00:00</time></trkpt><trkpt lat="64.21675873" lon="-20.73395729"><ele>88.4</ele><time>2012-07-19T15:27:01.0000000+00:00</time></trkpt><trkpt lat="64.21675873" lon="-20.73395729"><ele>88.4</ele><time>2012-07-19T15:27:06.0000000+00:00</time></trkpt><trkpt lat="64.21675873" lon="-20.73395729"><ele>88.4</ele><time>2012-07-19T15:27:11.0000000+00:00</time></trkpt><trkpt lat="64.21675873" lon="-20.73395729"><ele>88.4</ele><time>2012-07-19T15:27:16.0000000+00:00</time></trkpt><trkpt lat="64.21675873" lon="-20.7339592"><ele>88.4</ele><time>2012-07-19T15:27:21.0000000+00:00</time></trkpt><trkpt lat="64.21675873" lon="-20.7339592"><ele>88.4</ele><time>2012-07-19T15:27:26.0000000+00:00</time></trkpt><trkpt lat="64.21675873" lon="-20.7339592"><ele>88.4</ele><time>2012-07-19T15:27:31.0000000+00:00</time></trkpt><trkpt lat="64.21675873" lon="-20.7339592"><ele>88.4</ele><time>2012-07-19T15:27:36.0000000+00:00</time></trkpt><trkpt lat="64.21675873" lon="-20.73395729"><ele>88.4</ele><time>2012-07-19T15:27:41.0000000+00:00</time></trkpt><trkpt lat="64.21675873" lon="-20.73395729"><ele>88.4</ele><time>2012-07-19T15:27:46.0000000+00:00</time></trkpt><trkpt lat="64.21675873" lon="-20.73395729"><ele>88.4</ele><time>2012-07-19T15:27:51.0000000+00:00</time></trkpt><trkpt lat="64.21675873" lon="-20.73395729"><ele>88.4</ele><time>2012-07-19T15:27:56.0000000+00:00</time></trkpt><trkpt lat="64.21675873" lon="-20.73395729"><ele>88.4</ele><time>2012-07-19T15:28:01.0000000+00:00</time></trkpt><trkpt lat="64.21675873" lon="-20.73395729"><ele>88.4</ele><time>2012-07-19T15:28:06.0000000+00:00</time></trkpt><trkpt lat="64.21675873" lon="-20.7339592"><ele>88.4</ele><time>2012-07-19T15:28:11.0000000+00:00</time></trkpt><trkpt lat="64.21675873" lon="-20.7339592"><ele>88.5</ele><time>2012-07-19T15:28:16.0000000+00:00</time></trkpt><trkpt lat="64.21675873" lon="-20.7339592"><ele>88.5</ele><time>2012-07-19T15:28:21.0000000+00:00</time></trkpt><trkpt lat="64.21675873" lon="-20.7339592"><ele>88.5</ele><time>2012-07-19T15:28:26.0000000+00:00</time></trkpt><trkpt lat="64.21675873" lon="-20.7339592"><ele>88.5</ele><time>2012-07-19T15:28:31.0000000+00:00</time></trkpt><trkpt lat="64.21675873" lon="-20.7339592"><ele>88.5</ele><time>2012-07-19T15:28:36.0000000+00:00</time></trkpt><trkpt lat="64.21675873" lon="-20.7339592"><ele>88.5</ele><time>2012-07-19T15:28:41.0000000+00:00</time></trkpt><trkpt lat="64.21675873" lon="-20.73395729"><ele>88.5</ele><time>2012-07-19T15:28:46.0000000+00:00</time></trkpt><trkpt lat="64.21675873" lon="-20.73395729"><ele>88.5</ele><time>2012-07-19T15:28:51.0000000+00:00</time></trkpt><trkpt lat="64.21675873" lon="-20.73395729"><ele>88.4</ele><time>2012-07-19T15:28:56.0000000+00:00</time></trkpt><trkpt lat="64.21675873" lon="-20.73395729"><ele>88.4</ele><time>2012-07-19T15:29:01.0000000+00:00</time></trkpt><trkpt lat="64.21675873" lon="-20.73395729"><ele>88.4</ele><time>2012-07-19T15:29:06.0000000+00:00</time></trkpt><trkpt lat="64.21675873" lon="-20.73395729"><ele>88.4</ele><time>2012-07-19T15:29:11.0000000+00:00</time></trkpt><trkpt lat="64.21675873" lon="-20.73395729"><ele>88.4</ele><time>2012-07-19T15:29:16.0000000+00:00</time></trkpt><trkpt lat="64.21675873" lon="-20.73395729"><ele>88.4</ele><time>2012-07-19T15:29:21.0000000+00:00</time></trkpt><trkpt lat="64.21675873" lon="-20.73395729"><ele>88.4</ele><time>2012-07-19T15:29:26.0000000+00:00</time></trkpt><trkpt lat="64.2167511" lon="-20.73395729"><ele>88.3</ele><time>2012-07-19T15:29:31.0000000+00:00</time></trkpt><trkpt lat="64.2167511" lon="-20.73395729"><ele>88.3</ele><time>2012-07-19T15:29:36.0000000+00:00</time></trkpt><trkpt lat="64.2167511" lon="-20.73395729"><ele>88.3</ele><time>2012-07-19T15:29:41.0000000+00:00</time></trkpt><trkpt lat="64.2167511" lon="-20.73395729"><ele>88.2</ele><time>2012-07-19T15:29:46.0000000+00:00</time></trkpt><trkpt lat="64.2167511" lon="-20.73395729"><ele>88.2</ele><time>2012-07-19T15:29:51.0000000+00:00</time></trkpt><trkpt lat="64.2167511" lon="-20.73395538"><ele>88.2</ele><time>2012-07-19T15:29:56.0000000+00:00</time></trkpt><trkpt lat="64.2167511" lon="-20.73395538"><ele>88.1</ele><time>2012-07-19T15:30:01.0000000+00:00</time></trkpt><trkpt lat="64.2167511" lon="-20.73395729"><ele>88.1</ele><time>2012-07-19T15:30:06.0000000+00:00</time></trkpt><trkpt lat="64.2167511" lon="-20.73395729"><ele>88.0</ele><time>2012-07-19T15:30:11.0000000+00:00</time></trkpt><trkpt lat="64.2167511" lon="-20.73395729"><ele>88.0</ele><time>2012-07-19T15:30:16.0000000+00:00</time></trkpt><trkpt lat="64.2167511" lon="-20.73395729"><ele>88.0</ele><time>2012-07-19T15:30:21.0000000+00:00</time></trkpt><trkpt lat="64.2167511" lon="-20.73395729"><ele>88.0</ele><time>2012-07-19T15:30:26.0000000+00:00</time></trkpt><trkpt lat="64.2167511" lon="-20.73395729"><ele>87.9</ele><time>2012-07-19T15:30:31.0000000+00:00</time></trkpt><trkpt lat="64.2167511" lon="-20.73395729"><ele>87.9</ele><time>2012-07-19T15:30:36.0000000+00:00</time></trkpt><trkpt lat="64.2167511" lon="-20.73395729"><ele>87.9</ele><time>2012-07-19T15:30:41.0000000+00:00</time></trkpt><trkpt lat="64.2167511" lon="-20.73395729"><ele>87.9</ele><time>2012-07-19T15:30:46.0000000+00:00</time></trkpt><trkpt lat="64.2167511" lon="-20.73395729"><ele>87.9</ele><time>2012-07-19T15:30:51.0000000+00:00</time></trkpt><trkpt lat="64.2167511" lon="-20.73395729"><ele>87.9</ele><time>2012-07-19T15:30:56.0000000+00:00</time></trkpt><trkpt lat="64.2167511" lon="-20.73395729"><ele>87.9</ele><time>2012-07-19T15:31:01.0000000+00:00</time></trkpt><trkpt lat="64.2167511" lon="-20.73395729"><ele>87.9</ele><time>2012-07-19T15:31:06.0000000+00:00</time></trkpt><trkpt lat="64.2167511" lon="-20.73395729"><ele>87.9</ele><time>2012-07-19T15:31:11.0000000+00:00</time></trkpt><trkpt lat="64.2167511" lon="-20.73395729"><ele>87.9</ele><time>2012-07-19T15:31:16.0000000+00:00</time></trkpt><trkpt lat="64.2167511" lon="-20.73395729"><ele>87.8</ele><time>2012-07-19T15:31:21.0000000+00:00</time></trkpt><trkpt lat="64.2167511" lon="-20.73395729"><ele>87.8</ele><time>2012-07-19T15:31:26.0000000+00:00</time></trkpt><trkpt lat="64.2167511" lon="-20.73395729"><ele>87.8</ele><time>2012-07-19T15:31:31.0000000+00:00</time></trkpt><trkpt lat="64.2167511" lon="-20.7339592"><ele>87.8</ele><time>2012-07-19T15:31:36.0000000+00:00</time></trkpt><trkpt lat="64.2167511" lon="-20.7339592"><ele>87.8</ele><time>2012-07-19T15:31:41.0000000+00:00</time></trkpt><trkpt lat="64.2167511" lon="-20.7339592"><ele>87.8</ele><time>2012-07-19T15:31:46.0000000+00:00</time></trkpt><trkpt lat="64.2167511" lon="-20.7339592"><ele>87.8</ele><time>2012-07-19T15:31:51.0000000+00:00</time></trkpt><trkpt lat="64.2167511" lon="-20.7339592"><ele>87.8</ele><time>2012-07-19T15:31:56.0000000+00:00</time></trkpt><trkpt lat="64.2167511" lon="-20.7339592"><ele>87.7</ele><time>2012-07-19T15:32:01.0000000+00:00</time></trkpt><trkpt lat="64.2167511" lon="-20.7339592"><ele>87.7</ele><time>2012-07-19T15:32:06.0000000+00:00</time></trkpt><trkpt lat="64.2167511" lon="-20.7339592"><ele>87.7</ele><time>2012-07-19T15:32:11.0000000+00:00</time></trkpt><trkpt lat="64.2167511" lon="-20.7339592"><ele>87.7</ele><time>2012-07-19T15:32:16.0000000+00:00</time></trkpt><trkpt lat="64.2167511" lon="-20.7339592"><ele>87.7</ele><time>2012-07-19T15:32:21.0000000+00:00</time></trkpt><trkpt lat="64.2167511" lon="-20.7339592"><ele>87.7</ele><time>2012-07-19T15:32:26.0000000+00:00</time></trkpt><trkpt lat="64.2167511" lon="-20.7339592"><ele>87.6</ele><time>2012-07-19T15:32:31.0000000+00:00</time></trkpt><trkpt lat="64.2167511" lon="-20.7339592"><ele>87.6</ele><time>2012-07-19T15:32:36.0000000+00:00</time></trkpt><trkpt lat="64.2167511" lon="-20.7339592"><ele>87.6</ele><time>2012-07-19T15:32:41.0000000+00:00</time></trkpt><trkpt lat="64.2167511" lon="-20.7339592"><ele>87.6</ele><time>2012-07-19T15:32:46.0000000+00:00</time></trkpt><trkpt lat="64.2167511" lon="-20.7339592"><ele>87.5</ele><time>2012-07-19T15:32:51.0000000+00:00</time></trkpt><trkpt lat="64.2167511" lon="-20.7339592"><ele>87.5</ele><time>2012-07-19T15:32:56.0000000+00:00</time></trkpt><trkpt lat="64.2167511" lon="-20.7339592"><ele>87.5</ele><time>2012-07-19T15:33:01.0000000+00:00</time></trkpt><trkpt lat="64.2167511" lon="-20.7339592"><ele>87.5</ele><time>2012-07-19T15:33:06.0000000+00:00</time></trkpt><trkpt lat="64.2167511" lon="-20.7339592"><ele>87.4</ele><time>2012-07-19T15:33:11.0000000+00:00</time></trkpt><trkpt lat="64.2167511" lon="-20.7339592"><ele>87.4</ele><time>2012-07-19T15:33:16.0000000+00:00</time></trkpt><trkpt lat="64.2167511" lon="-20.7339592"><ele>87.4</ele><time>2012-07-19T15:33:21.0000000+00:00</time></trkpt><trkpt lat="64.2167511" lon="-20.7339592"><ele>87.4</ele><time>2012-07-19T15:33:26.0000000+00:00</time></trkpt><trkpt lat="64.2167511" lon="-20.7339592"><ele>87.4</ele><time>2012-07-19T15:33:31.0000000+00:00</time></trkpt><trkpt lat="64.2167511" lon="-20.7339592"><ele>87.3</ele><time>2012-07-19T15:33:36.0000000+00:00</time></trkpt><trkpt lat="64.2167511" lon="-20.7339592"><ele>87.3</ele><time>2012-07-19T15:33:41.0000000+00:00</time></trkpt><trkpt lat="64.2167511" lon="-20.7339592"><ele>87.4</ele><time>2012-07-19T15:33:46.0000000+00:00</time></trkpt><trkpt lat="64.2167511" lon="-20.7339592"><ele>87.4</ele><time>2012-07-19T15:33:51.0000000+00:00</time></trkpt><trkpt lat="64.2167511" lon="-20.73396111"><ele>87.4</ele><time>2012-07-19T15:33:56.0000000+00:00</time></trkpt><trkpt lat="64.2167511" lon="-20.73396111"><ele>87.4</ele><time>2012-07-19T15:34:01.0000000+00:00</time></trkpt><trkpt lat="64.2167511" lon="-20.73396111"><ele>87.4</ele><time>2012-07-19T15:34:06.0000000+00:00</time></trkpt><trkpt lat="64.2167511" lon="-20.73396111"><ele>87.4</ele><time>2012-07-19T15:34:11.0000000+00:00</time></trkpt><trkpt lat="64.2167511" lon="-20.73396111"><ele>87.4</ele><time>2012-07-19T15:34:16.0000000+00:00</time></trkpt><trkpt lat="64.2167511" lon="-20.73396111"><ele>87.4</ele><time>2012-07-19T15:34:21.0000000+00:00</time></trkpt><trkpt lat="64.2167511" lon="-20.73396111"><ele>87.4</ele><time>2012-07-19T15:34:26.0000000+00:00</time></trkpt><trkpt lat="64.2167511" lon="-20.73396111"><ele>87.4</ele><time>2012-07-19T15:34:31.0000000+00:00</time></trkpt><trkpt lat="64.2167511" lon="-20.73396111"><ele>87.4</ele><time>2012-07-19T15:34:36.0000000+00:00</time></trkpt><trkpt lat="64.2167511" lon="-20.73396111"><ele>87.4</ele><time>2012-07-19T15:34:41.0000000+00:00</time></trkpt><trkpt lat="64.2167511" lon="-20.73396111"><ele>87.4</ele><time>2012-07-19T15:34:46.0000000+00:00</time></trkpt><trkpt lat="64.2167511" lon="-20.73396111"><ele>87.4</ele><time>2012-07-19T15:34:51.0000000+00:00</time></trkpt><trkpt lat="64.2167511" lon="-20.73396111"><ele>87.4</ele><time>2012-07-19T15:34:56.0000000+00:00</time></trkpt><trkpt lat="64.2167511" lon="-20.73396111"><ele>87.4</ele><time>2012-07-19T15:35:01.0000000+00:00</time></trkpt><trkpt lat="64.21675873" lon="-20.73396301"><ele>87.4</ele><time>2012-07-19T15:35:06.0000000+00:00</time></trkpt><trkpt lat="64.21675873" lon="-20.73396301"><ele>87.4</ele><time>2012-07-19T15:35:11.0000000+00:00</time></trkpt><trkpt lat="64.21675873" lon="-20.73396301"><ele>87.4</ele><time>2012-07-19T15:35:16.0000000+00:00</time></trkpt><trkpt lat="64.21675873" lon="-20.73396301"><ele>87.4</ele><time>2012-07-19T15:35:21.0000000+00:00</time></trkpt><trkpt lat="64.21675873" lon="-20.73396301"><ele>87.4</ele><time>2012-07-19T15:35:26.0000000+00:00</time></trkpt><trkpt lat="64.21675873" lon="-20.73396301"><ele>87.4</ele><time>2012-07-19T15:35:31.0000000+00:00</time></trkpt><trkpt lat="64.21675873" lon="-20.73396301"><ele>87.4</ele><time>2012-07-19T15:35:36.0000000+00:00</time></trkpt><trkpt lat="64.21675873" lon="-20.73396301"><ele>87.4</ele><time>2012-07-19T15:35:41.0000000+00:00</time></trkpt><trkpt lat="64.21675873" lon="-20.73396301"><ele>87.4</ele><time>2012-07-19T15:35:46.0000000+00:00</time></trkpt><trkpt lat="64.21675873" lon="-20.73396301"><ele>87.4</ele><time>2012-07-19T15:35:51.0000000+00:00</time></trkpt><trkpt lat="64.21675873" lon="-20.73396301"><ele>87.4</ele><time>2012-07-19T15:35:56.0000000+00:00</time></trkpt><trkpt lat="64.21675873" lon="-20.73396301"><ele>87.4</ele><time>2012-07-19T15:36:01.0000000+00:00</time></trkpt><trkpt lat="64.21675873" lon="-20.73396301"><ele>87.4</ele><time>2012-07-19T15:36:06.0000000+00:00</time></trkpt><trkpt lat="64.2167511" lon="-20.73396301"><ele>87.4</ele><time>2012-07-19T15:36:11.0000000+00:00</time></trkpt><trkpt lat="64.2167511" lon="-20.73396301"><ele>87.4</ele><time>2012-07-19T15:36:16.0000000+00:00</time></trkpt><trkpt lat="64.2167511" lon="-20.73396301"><ele>87.4</ele><time>2012-07-19T15:36:21.0000000+00:00</time></trkpt><trkpt lat="64.2167511" lon="-20.73396301"><ele>87.4</ele><time>2012-07-19T15:36:26.0000000+00:00</time></trkpt><trkpt lat="64.2167511" lon="-20.73396301"><ele>87.4</ele><time>2012-07-19T15:36:31.0000000+00:00</time></trkpt><trkpt lat="64.2167511" lon="-20.73396301"><ele>87.4</ele><time>2012-07-19T15:36:36.0000000+00:00</time></trkpt><trkpt lat="64.2167511" lon="-20.73396301"><ele>87.3</ele><time>2012-07-19T15:36:41.0000000+00:00</time></trkpt><trkpt lat="64.21675873" lon="-20.73396301"><ele>87.3</ele><time>2012-07-19T15:36:46.0000000+00:00</time></trkpt><trkpt lat="64.21675873" lon="-20.73396301"><ele>87.3</ele><time>2012-07-19T15:36:51.0000000+00:00</time></trkpt><trkpt lat="64.21675873" lon="-20.73396301"><ele>87.3</ele><time>2012-07-19T15:36:56.0000000+00:00</time></trkpt><trkpt lat="64.21675873" lon="-20.73396301"><ele>87.3</ele><time>2012-07-19T15:37:01.0000000+00:00</time></trkpt><trkpt lat="64.21675873" lon="-20.73396301"><ele>87.3</ele><time>2012-07-19T15:37:06.0000000+00:00</time></trkpt><trkpt lat="64.21675873" lon="-20.73396301"><ele>87.3</ele><time>2012-07-19T15:37:11.0000000+00:00</time></trkpt><trkpt lat="64.21675873" lon="-20.73396301"><ele>87.4</ele><time>2012-07-19T15:37:16.0000000+00:00</time></trkpt><trkpt lat="64.21675873" lon="-20.73396301"><ele>87.4</ele><time>2012-07-19T15:37:21.0000000+00:00</time></trkpt><trkpt lat="64.21675873" lon="-20.73396301"><ele>87.3</ele><time>2012-07-19T15:37:26.0000000+00:00</time></trkpt><trkpt lat="64.21675873" lon="-20.73396301"><ele>87.3</ele><time>2012-07-19T15:37:31.0000000+00:00</time></trkpt><trkpt lat="64.21675873" lon="-20.73396492"><ele>87.3</ele><time>2012-07-19T15:37:36.0000000+00:00</time></trkpt><trkpt lat="64.21675873" lon="-20.73396492"><ele>87.3</ele><time>2012-07-19T15:37:41.0000000+00:00</time></trkpt><trkpt lat="64.21675873" lon="-20.73396492"><ele>87.3</ele><time>2012-07-19T15:37:46.0000000+00:00</time></trkpt><trkpt lat="64.21675873" lon="-20.73396492"><ele>87.3</ele><time>2012-07-19T15:37:51.0000000+00:00</time></trkpt><trkpt lat="64.21675873" lon="-20.73396492"><ele>87.3</ele><time>2012-07-19T15:37:56.0000000+00:00</time></trkpt><trkpt lat="64.2167511" lon="-20.73396492"><ele>87.3</ele><time>2012-07-19T15:38:01.0000000+00:00</time></trkpt><trkpt lat="64.2167511" lon="-20.73396492"><ele>87.3</ele><time>2012-07-19T15:38:06.0000000+00:00</time></trkpt><trkpt lat="64.2167511" lon="-20.73396492"><ele>87.4</ele><time>2012-07-19T15:38:11.0000000+00:00</time></trkpt><trkpt lat="64.2167511" lon="-20.73396492"><ele>87.4</ele><time>2012-07-19T15:38:16.0000000+00:00</time></trkpt><trkpt lat="64.2167511" lon="-20.73396492"><ele>87.4</ele><time>2012-07-19T15:38:21.0000000+00:00</time></trkpt><trkpt lat="64.2167511" lon="-20.73396492"><ele>87.4</ele><time>2012-07-19T15:38:26.0000000+00:00</time></trkpt><trkpt lat="64.2167511" lon="-20.73396492"><ele>87.4</ele><time>2012-07-19T15:38:31.0000000+00:00</time></trkpt><trkpt lat="64.2167511" lon="-20.73396492"><ele>87.4</ele><time>2012-07-19T15:38:36.0000000+00:00</time></trkpt><trkpt lat="64.2167511" lon="-20.73396492"><ele>87.4</ele><time>2012-07-19T15:38:41.0000000+00:00</time></trkpt><trkpt lat="64.2167511" lon="-20.73396492"><ele>87.5</ele><time>2012-07-19T15:38:46.0000000+00:00</time></trkpt><trkpt lat="64.2167511" lon="-20.73396492"><ele>87.5</ele><time>2012-07-19T15:38:51.0000000+00:00</time></trkpt><trkpt lat="64.2167511" lon="-20.73396492"><ele>87.5</ele><time>2012-07-19T15:38:56.0000000+00:00</time></trkpt><trkpt lat="64.2167511" lon="-20.73396492"><ele>87.5</ele><time>2012-07-19T15:39:01.0000000+00:00</time></trkpt><trkpt lat="64.2167511" lon="-20.73396492"><ele>87.5</ele><time>2012-07-19T15:39:06.0000000+00:00</time></trkpt><trkpt lat="64.2167511" lon="-20.73396492"><ele>87.5</ele><time>2012-07-19T15:39:11.0000000+00:00</time></trkpt><trkpt lat="64.2167511" lon="-20.73396492"><ele>87.5</ele><time>2012-07-19T15:39:16.0000000+00:00</time></trkpt><trkpt lat="64.2167511" lon="-20.73396492"><ele>87.5</ele><time>2012-07-19T15:39:21.0000000+00:00</time></trkpt><trkpt lat="64.2167511" lon="-20.73396492"><ele>87.5</ele><time>2012-07-19T15:39:26.0000000+00:00</time></trkpt><trkpt lat="64.2167511" lon="-20.73396683"><ele>87.5</ele><time>2012-07-19T15:39:31.0000000+00:00</time></trkpt><trkpt lat="64.2167511" lon="-20.73396683"><ele>87.5</ele><time>2012-07-19T15:39:36.0000000+00:00</time></trkpt><trkpt lat="64.2167511" lon="-20.73396683"><ele>87.5</ele><time>2012-07-19T15:39:41.0000000+00:00</time></trkpt><trkpt lat="64.2167511" lon="-20.73396683"><ele>87.5</ele><time>2012-07-19T15:39:46.0000000+00:00</time></trkpt><trkpt lat="64.2167511" lon="-20.73396683"><ele>87.5</ele><time>2012-07-19T15:39:51.0000000+00:00</time></trkpt><trkpt lat="64.21675873" lon="-20.73396683"><ele>87.5</ele><time>2012-07-19T15:39:56.0000000+00:00</time></trkpt><trkpt lat="64.2167511" lon="-20.73396683"><ele>87.5</ele><time>2012-07-19T15:40:01.0000000+00:00</time></trkpt><trkpt lat="64.21675873" lon="-20.73396683"><ele>87.5</ele><time>2012-07-19T15:40:06.0000000+00:00</time></trkpt><trkpt lat="64.21675873" lon="-20.73396683"><ele>87.5</ele><time>2012-07-19T15:40:11.0000000+00:00</time></trkpt><trkpt lat="64.21675873" lon="-20.73396683"><ele>87.5</ele><time>2012-07-19T15:40:16.0000000+00:00</time></trkpt><trkpt lat="64.2167511" lon="-20.73396683"><ele>87.5</ele><time>2012-07-19T15:40:21.0000000+00:00</time></trkpt><trkpt lat="64.2167511" lon="-20.73396683"><ele>87.5</ele><time>2012-07-19T15:40:26.0000000+00:00</time></trkpt><trkpt lat="64.2167511" lon="-20.73396683"><ele>87.5</ele><time>2012-07-19T15:40:31.0000000+00:00</time></trkpt><trkpt lat="64.2167511" lon="-20.73396683"><ele>87.5</ele><time>2012-07-19T15:40:36.0000000+00:00</time></trkpt><trkpt lat="64.2167511" lon="-20.73396683"><ele>87.5</ele><time>2012-07-19T15:40:41.0000000+00:00</time></trkpt><trkpt lat="64.2167511" lon="-20.73396683"><ele>87.5</ele><time>2012-07-19T15:40:46.0000000+00:00</time></trkpt><trkpt lat="64.2167511" lon="-20.73396683"><ele>87.5</ele><time>2012-07-19T15:40:51.0000000+00:00</time></trkpt><trkpt lat="64.2167511" lon="-20.73396683"><ele>87.5</ele><time>2012-07-19T15:40:56.0000000+00:00</time></trkpt><trkpt lat="64.2167511" lon="-20.73396683"><ele>87.6</ele><time>2012-07-19T15:41:01.0000000+00:00</time></trkpt><trkpt lat="64.2167511" lon="-20.73396683"><ele>87.6</ele><time>2012-07-19T15:41:06.0000000+00:00</time></trkpt><trkpt lat="64.2167511" lon="-20.73396492"><ele>87.6</ele><time>2012-07-19T15:41:11.0000000+00:00</time></trkpt><trkpt lat="64.2167511" lon="-20.73396492"><ele>87.6</ele><time>2012-07-19T15:41:16.0000000+00:00</time></trkpt><trkpt lat="64.2167511" lon="-20.73396492"><ele>87.7</ele><time>2012-07-19T15:41:21.0000000+00:00</time></trkpt><trkpt lat="64.2167511" lon="-20.73396492"><ele>87.7</ele><time>2012-07-19T15:41:26.0000000+00:00</time></trkpt><trkpt lat="64.2167511" lon="-20.73396492"><ele>87.7</ele><time>2012-07-19T15:41:31.0000000+00:00</time></trkpt><trkpt lat="64.2167511" lon="-20.73396683"><ele>87.8</ele><time>2012-07-19T15:41:36.0000000+00:00</time></trkpt><trkpt lat="64.2167511" lon="-20.73396683"><ele>87.8</ele><time>2012-07-19T15:41:41.0000000+00:00</time></trkpt><trkpt lat="64.2167511" lon="-20.73396492"><ele>87.8</ele><time>2012-07-19T15:41:46.0000000+00:00</time></trkpt><trkpt lat="64.2167511" lon="-20.73396492"><ele>87.8</ele><time>2012-07-19T15:41:51.0000000+00:00</time></trkpt><trkpt lat="64.2167511" lon="-20.73396492"><ele>87.8</ele><time>2012-07-19T15:41:56.0000000+00:00</time></trkpt><trkpt lat="64.2167511" lon="-20.73396492"><ele>87.8</ele><time>2012-07-19T15:42:01.0000000+00:00</time></trkpt><trkpt lat="64.2167511" lon="-20.73396492"><ele>87.8</ele><time>2012-07-19T15:42:06.0000000+00:00</time></trkpt><trkpt lat="64.2167511" lon="-20.73396492"><ele>87.8</ele><time>2012-07-19T15:42:11.0000000+00:00</time></trkpt><trkpt lat="64.2167511" lon="-20.73396492"><ele>87.7</ele><time>2012-07-19T15:42:16.0000000+00:00</time></trkpt><trkpt lat="64.2167511" lon="-20.73396492"><ele>87.7</ele><time>2012-07-19T15:42:21.0000000+00:00</time></trkpt><trkpt lat="64.2167511" lon="-20.73396492"><ele>87.7</ele><time>2012-07-19T15:42:26.0000000+00:00</time></trkpt><trkpt lat="64.2167511" lon="-20.73396683"><ele>87.7</ele><time>2012-07-19T15:42:31.0000000+00:00</time></trkpt><trkpt lat="64.2167511" lon="-20.73396683"><ele>87.7</ele><time>2012-07-19T15:42:36.0000000+00:00</time></trkpt><trkpt lat="64.2167511" lon="-20.73396683"><ele>87.7</ele><time>2012-07-19T15:42:41.0000000+00:00</time></trkpt><trkpt lat="64.2167511" lon="-20.73396683"><ele>87.7</ele><time>2012-07-19T15:42:46.0000000+00:00</time></trkpt><trkpt lat="64.2167511" lon="-20.73396683"><ele>87.7</ele><time>2012-07-19T15:42:51.0000000+00:00</time></trkpt><trkpt lat="64.2167511" lon="-20.73396683"><ele>87.7</ele><time>2012-07-19T15:42:56.0000000+00:00</time></trkpt><trkpt lat="64.2167511" lon="-20.73396683"><ele>87.7</ele><time>2012-07-19T15:43:01.0000000+00:00</time></trkpt><trkpt lat="64.2167511" lon="-20.73396683"><ele>87.7</ele><time>2012-07-19T15:43:06.0000000+00:00</time></trkpt><trkpt lat="64.2167511" lon="-20.73396683"><ele>87.7</ele><time>2012-07-19T15:43:11.0000000+00:00</time></trkpt><trkpt lat="64.2167511" lon="-20.73396683"><ele>87.7</ele><time>2012-07-19T15:43:16.0000000+00:00</time></trkpt><trkpt lat="64.2167511" lon="-20.73396683"><ele>87.7</ele><time>2012-07-19T15:43:21.0000000+00:00</time></trkpt><trkpt lat="64.2167511" lon="-20.73396683"><ele>87.7</ele><time>2012-07-19T15:43:26.0000000+00:00</time></trkpt><trkpt lat="64.2167511" lon="-20.73396683"><ele>87.7</ele><time>2012-07-19T15:43:31.0000000+00:00</time></trkpt><trkpt lat="64.2167511" lon="-20.73396683"><ele>87.7</ele><time>2012-07-19T15:43:36.0000000+00:00</time></trkpt><trkpt lat="64.2167511" lon="-20.73396683"><ele>87.7</ele><time>2012-07-19T15:43:41.0000000+00:00</time></trkpt><trkpt lat="64.2167511" lon="-20.73396683"><ele>87.6</ele><time>2012-07-19T15:43:46.0000000+00:00</time></trkpt><trkpt lat="64.2167511" lon="-20.73396683"><ele>87.6</ele><time>2012-07-19T15:43:51.0000000+00:00</time></trkpt><trkpt lat="64.2167511" lon="-20.73396492"><ele>87.6</ele><time>2012-07-19T15:43:56.0000000+00:00</time></trkpt><trkpt lat="64.2167511" lon="-20.73396492"><ele>87.6</ele><time>2012-07-19T15:44:01.0000000+00:00</time></trkpt><trkpt lat="64.2167511" lon="-20.73396492"><ele>87.6</ele><time>2012-07-19T15:44:06.0000000+00:00</time></trkpt><trkpt lat="64.21674347" lon="-20.73396492"><ele>87.6</ele><time>2012-07-19T15:44:11.0000000+00:00</time></trkpt><trkpt lat="64.21674347" lon="-20.73396301"><ele>87.6</ele><time>2012-07-19T15:44:16.0000000+00:00</time></trkpt><trkpt lat="64.21674347" lon="-20.73396301"><ele>87.6</ele><time>2012-07-19T15:44:21.0000000+00:00</time></trkpt><trkpt lat="64.21674347" lon="-20.73396301"><ele>87.6</ele><time>2012-07-19T15:44:26.0000000+00:00</time></trkpt><trkpt lat="64.21674347" lon="-20.73396301"><ele>87.6</ele><time>2012-07-19T15:44:31.0000000+00:00</time></trkpt><trkpt lat="64.21674347" lon="-20.73396301"><ele>87.6</ele><time>2012-07-19T15:44:36.0000000+00:00</time></trkpt><trkpt lat="64.21674347" lon="-20.73396301"><ele>87.5</ele><time>2012-07-19T15:44:41.0000000+00:00</time></trkpt><trkpt lat="64.21674347" lon="-20.73396301"><ele>87.5</ele><time>2012-07-19T15:44:46.0000000+00:00</time></trkpt><trkpt lat="64.21674347" lon="-20.73396301"><ele>87.5</ele><time>2012-07-19T15:44:51.0000000+00:00</time></trkpt><trkpt lat="64.21674347" lon="-20.73396111"><ele>87.5</ele><time>2012-07-19T15:44:56.0000000+00:00</time></trkpt><trkpt lat="64.21674347" lon="-20.73396111"><ele>87.5</ele><time>2012-07-19T15:45:01.0000000+00:00</time></trkpt><trkpt lat="64.21674347" lon="-20.73396111"><ele>87.5</ele><time>2012-07-19T15:45:06.0000000+00:00</time></trkpt><trkpt lat="64.21674347" lon="-20.73396111"><ele>87.5</ele><time>2012-07-19T15:45:11.0000000+00:00</time></trkpt><trkpt lat="64.21674347" lon="-20.73396111"><ele>87.4</ele><time>2012-07-19T15:45:16.0000000+00:00</time></trkpt><trkpt lat="64.21674347" lon="-20.7339592"><ele>87.4</ele><time>2012-07-19T15:45:21.0000000+00:00</time></trkpt><trkpt lat="64.21674347" lon="-20.7339592"><ele>87.4</ele><time>2012-07-19T15:45:26.0000000+00:00</time></trkpt><trkpt lat="64.21674347" lon="-20.7339592"><ele>87.4</ele><time>2012-07-19T15:45:31.0000000+00:00</time></trkpt><trkpt lat="64.21674347" lon="-20.7339592"><ele>87.3</ele><time>2012-07-19T15:45:36.0000000+00:00</time></trkpt><trkpt lat="64.21674347" lon="-20.7339592"><ele>87.3</ele><time>2012-07-19T15:45:41.0000000+00:00</time></trkpt><trkpt lat="64.21674347" lon="-20.7339592"><ele>87.3</ele><time>2012-07-19T15:45:46.0000000+00:00</time></trkpt><trkpt lat="64.21674347" lon="-20.73395729"><ele>87.3</ele><time>2012-07-19T15:45:51.0000000+00:00</time></trkpt><trkpt lat="64.21674347" lon="-20.73395729"><ele>87.3</ele><time>2012-07-19T15:45:56.0000000+00:00</time></trkpt><trkpt lat="64.21674347" lon="-20.73395729"><ele>87.2</ele><time>2012-07-19T15:46:01.0000000+00:00</time></trkpt><trkpt lat="64.21674347" lon="-20.73395729"><ele>87.2</ele><time>2012-07-19T15:46:06.0000000+00:00</time></trkpt><trkpt lat="64.21674347" lon="-20.73395729"><ele>87.2</ele><time>2012-07-19T15:46:11.0000000+00:00</time></trkpt><trkpt lat="64.21674347" lon="-20.73395538"><ele>87.2</ele><time>2012-07-19T15:46:16.0000000+00:00</time></trkpt><trkpt lat="64.21674347" lon="-20.73395538"><ele>87.1</ele><time>2012-07-19T15:46:21.0000000+00:00</time></trkpt><trkpt lat="64.21674347" lon="-20.73395538"><ele>87.1</ele><time>2012-07-19T15:46:26.0000000+00:00</time></trkpt><trkpt lat="64.21674347" lon="-20.73395729"><ele>87.1</ele><time>2012-07-19T15:46:31.0000000+00:00</time></trkpt><trkpt lat="64.21674347" lon="-20.73395538"><ele>87.1</ele><time>2012-07-19T15:46:36.0000000+00:00</time></trkpt><trkpt lat="64.21674347" lon="-20.73395729"><ele>87.1</ele><time>2012-07-19T15:46:41.0000000+00:00</time></trkpt><trkpt lat="64.21674347" lon="-20.73395538"><ele>87.0</ele><time>2012-07-19T15:46:46.0000000+00:00</time></trkpt><trkpt lat="64.21674347" lon="-20.73395538"><ele>87.0</ele><time>2012-07-19T15:46:51.0000000+00:00</time></trkpt><trkpt lat="64.21674347" lon="-20.73395538"><ele>87.0</ele><time>2012-07-19T15:46:56.0000000+00:00</time></trkpt><trkpt lat="64.21674347" lon="-20.73395538"><ele>87.0</ele><time>2012-07-19T15:47:01.0000000+00:00</time></trkpt><trkpt lat="64.21674347" lon="-20.73395538"><ele>87.0</ele><time>2012-07-19T15:47:06.0000000+00:00</time></trkpt><trkpt lat="64.21674347" lon="-20.73395538"><ele>87.0</ele><time>2012-07-19T15:47:11.0000000+00:00</time></trkpt><trkpt lat="64.21674347" lon="-20.73395538"><ele>87.0</ele><time>2012-07-19T15:47:16.0000000+00:00</time></trkpt><trkpt lat="64.21674347" lon="-20.73395729"><ele>86.9</ele><time>2012-07-19T15:47:21.0000000+00:00</time></trkpt><trkpt lat="64.21674347" lon="-20.73395729"><ele>86.9</ele><time>2012-07-19T15:47:26.0000000+00:00</time></trkpt><trkpt lat="64.21674347" lon="-20.73395729"><ele>86.9</ele><time>2012-07-19T15:47:31.0000000+00:00</time></trkpt><trkpt lat="64.21674347" lon="-20.73395729"><ele>86.8</ele><time>2012-07-19T15:47:36.0000000+00:00</time></trkpt><trkpt lat="64.21674347" lon="-20.73395729"><ele>86.8</ele><time>2012-07-19T15:47:41.0000000+00:00</time></trkpt><trkpt lat="64.21674347" lon="-20.73395729"><ele>86.8</ele><time>2012-07-19T15:47:46.0000000+00:00</time></trkpt><trkpt lat="64.21674347" lon="-20.73395729"><ele>86.7</ele><time>2012-07-19T15:47:51.0000000+00:00</time></trkpt><trkpt lat="64.21674347" lon="-20.73395729"><ele>86.7</ele><time>2012-07-19T15:47:56.0000000+00:00</time></trkpt><trkpt lat="64.21674347" lon="-20.73395729"><ele>86.6</ele><time>2012-07-19T15:48:01.0000000+00:00</time></trkpt><trkpt lat="64.21674347" lon="-20.73395729"><ele>86.6</ele><time>2012-07-19T15:48:06.0000000+00:00</time></trkpt><trkpt lat="64.21674347" lon="-20.73395729"><ele>86.6</ele><time>2012-07-19T15:48:11.0000000+00:00</time></trkpt><trkpt lat="64.21674347" lon="-20.73395729"><ele>86.6</ele><time>2012-07-19T15:48:16.0000000+00:00</time></trkpt><trkpt lat="64.21674347" lon="-20.73395729"><ele>86.5</ele><time>2012-07-19T15:48:21.0000000+00:00</time></trkpt><trkpt lat="64.21674347" lon="-20.73395729"><ele>86.5</ele><time>2012-07-19T15:48:26.0000000+00:00</time></trkpt><trkpt lat="64.21674347" lon="-20.73395729"><ele>86.5</ele><time>2012-07-19T15:48:31.0000000+00:00</time></trkpt><trkpt lat="64.21674347" lon="-20.73395729"><ele>86.5</ele><time>2012-07-19T15:48:36.0000000+00:00</time></trkpt><trkpt lat="64.21674347" lon="-20.73395729"><ele>86.5</ele><time>2012-07-19T15:48:41.0000000+00:00</time></trkpt><trkpt lat="64.21674347" lon="-20.73395729"><ele>86.5</ele><time>2012-07-19T15:48:46.0000000+00:00</time></trkpt><trkpt lat="64.21674347" lon="-20.73395729"><ele>86.5</ele><time>2012-07-19T15:48:51.0000000+00:00</time></trkpt><trkpt lat="64.21674347" lon="-20.73395729"><ele>86.4</ele><time>2012-07-19T15:48:56.0000000+00:00</time></trkpt><trkpt lat="64.21674347" lon="-20.73395729"><ele>86.4</ele><time>2012-07-19T15:49:01.0000000+00:00</time></trkpt><trkpt lat="64.21674347" lon="-20.73395729"><ele>86.4</ele><time>2012-07-19T15:49:06.0000000+00:00</time></trkpt><trkpt lat="64.21674347" lon="-20.73395729"><ele>86.4</ele><time>2012-07-19T15:49:11.0000000+00:00</time></trkpt><trkpt lat="64.21674347" lon="-20.73395538"><ele>86.4</ele><time>2012-07-19T15:49:16.0000000+00:00</time></trkpt><trkpt lat="64.21674347" lon="-20.73395538"><ele>86.4</ele><time>2012-07-19T15:49:21.0000000+00:00</time></trkpt><trkpt lat="64.21674347" lon="-20.73395538"><ele>86.4</ele><time>2012-07-19T15:49:26.0000000+00:00</time></trkpt><trkpt lat="64.21674347" lon="-20.73395538"><ele>86.4</ele><time>2012-07-19T15:49:31.0000000+00:00</time></trkpt><trkpt lat="64.21674347" lon="-20.73395729"><ele>86.4</ele><time>2012-07-19T15:49:36.0000000+00:00</time></trkpt><trkpt lat="64.21674347" lon="-20.73395729"><ele>86.4</ele><time>2012-07-19T15:49:41.0000000+00:00</time></trkpt><trkpt lat="64.21674347" lon="-20.73395729"><ele>86.4</ele><time>2012-07-19T15:49:46.0000000+00:00</time></trkpt><trkpt lat="64.21674347" lon="-20.73395729"><ele>86.4</ele><time>2012-07-19T15:49:51.0000000+00:00</time></trkpt><trkpt lat="64.21674347" lon="-20.73395729"><ele>86.4</ele><time>2012-07-19T15:49:56.0000000+00:00</time></trkpt><trkpt lat="64.21674347" lon="-20.73395729"><ele>86.3</ele><time>2012-07-19T15:50:01.0000000+00:00</time></trkpt><trkpt lat="64.21674347" lon="-20.73395729"><ele>86.3</ele><time>2012-07-19T15:50:06.0000000+00:00</time></trkpt><trkpt lat="64.21674347" lon="-20.7339592"><ele>86.3</ele><time>2012-07-19T15:50:11.0000000+00:00</time></trkpt><trkpt lat="64.21674347" lon="-20.7339592"><ele>86.3</ele><time>2012-07-19T15:50:16.0000000+00:00</time></trkpt><trkpt lat="64.21674347" lon="-20.7339592"><ele>86.3</ele><time>2012-07-19T15:50:21.0000000+00:00</time></trkpt><trkpt lat="64.21674347" lon="-20.7339592"><ele>86.2</ele><time>2012-07-19T15:50:26.0000000+00:00</time></trkpt><trkpt lat="64.21674347" lon="-20.73396111"><ele>86.2</ele><time>2012-07-19T15:50:31.0000000+00:00</time></trkpt><trkpt lat="64.21674347" lon="-20.73396111"><ele>86.2</ele><time>2012-07-19T15:50:36.0000000+00:00</time></trkpt><trkpt lat="64.21674347" lon="-20.73396111"><ele>86.1</ele><time>2012-07-19T15:50:41.0000000+00:00</time></trkpt><trkpt lat="64.21674347" lon="-20.73396111"><ele>86.1</ele><time>2012-07-19T15:50:46.0000000+00:00</time></trkpt><trkpt lat="64.21674347" lon="-20.73396111"><ele>86.1</ele><time>2012-07-19T15:50:51.0000000+00:00</time></trkpt><trkpt lat="64.21674347" lon="-20.73396111"><ele>86.1</ele><time>2012-07-19T15:50:56.0000000+00:00</time></trkpt><trkpt lat="64.21674347" lon="-20.73396301"><ele>86.1</ele><time>2012-07-19T15:51:01.0000000+00:00</time></trkpt><trkpt lat="64.21674347" lon="-20.73396301"><ele>86.1</ele><time>2012-07-19T15:51:06.0000000+00:00</time></trkpt><trkpt lat="64.21674347" lon="-20.73396301"><ele>86.1</ele><time>2012-07-19T15:51:11.0000000+00:00</time></trkpt><trkpt lat="64.21674347" lon="-20.73396301"><ele>86.1</ele><time>2012-07-19T15:51:16.0000000+00:00</time></trkpt><trkpt lat="64.21674347" lon="-20.73396301"><ele>86.1</ele><time>2012-07-19T15:51:21.0000000+00:00</time></trkpt><trkpt lat="64.21674347" lon="-20.73396301"><ele>86.1</ele><time>2012-07-19T15:51:26.0000000+00:00</time></trkpt><trkpt lat="64.21674347" lon="-20.73396492"><ele>86.0</ele><time>2012-07-19T15:51:31.0000000+00:00</time></trkpt><trkpt lat="64.21674347" lon="-20.73396492"><ele>86.0</ele><time>2012-07-19T15:51:36.0000000+00:00</time></trkpt><trkpt lat="64.21674347" lon="-20.73396492"><ele>86.0</ele><time>2012-07-19T15:51:41.0000000+00:00</time></trkpt><trkpt lat="64.21674347" lon="-20.73396492"><ele>86.0</ele><time>2012-07-19T15:51:46.0000000+00:00</time></trkpt><trkpt lat="64.21674347" lon="-20.73396492"><ele>86.0</ele><time>2012-07-19T15:51:51.0000000+00:00</time></trkpt><trkpt lat="64.21674347" lon="-20.73396492"><ele>86.0</ele><time>2012-07-19T15:51:56.0000000+00:00</time></trkpt><trkpt lat="64.21674347" lon="-20.73396683"><ele>85.9</ele><time>2012-07-19T15:52:01.0000000+00:00</time></trkpt><trkpt lat="64.21674347" lon="-20.73396683"><ele>85.9</ele><time>2012-07-19T15:52:06.0000000+00:00</time></trkpt><trkpt lat="64.21674347" lon="-20.73396683"><ele>85.9</ele><time>2012-07-19T15:52:11.0000000+00:00</time></trkpt><trkpt lat="64.21674347" lon="-20.73396683"><ele>85.9</ele><time>2012-07-19T15:52:16.0000000+00:00</time></trkpt><trkpt lat="64.21674347" lon="-20.73396683"><ele>85.9</ele><time>2012-07-19T15:52:21.0000000+00:00</time></trkpt><trkpt lat="64.21674347" lon="-20.73396874"><ele>85.9</ele><time>2012-07-19T15:52:26.0000000+00:00</time></trkpt><trkpt lat="64.21674347" lon="-20.73396874"><ele>85.9</ele><time>2012-07-19T15:52:31.0000000+00:00</time></trkpt><trkpt lat="64.21674347" lon="-20.73396874"><ele>85.9</ele><time>2012-07-19T15:52:36.0000000+00:00</time></trkpt><trkpt lat="64.21674347" lon="-20.73396874"><ele>85.9</ele><time>2012-07-19T15:52:41.0000000+00:00</time></trkpt><trkpt lat="64.21674347" lon="-20.73396683"><ele>85.9</ele><time>2012-07-19T15:52:46.0000000+00:00</time></trkpt><trkpt lat="64.21674347" lon="-20.73396874"><ele>85.9</ele><time>2012-07-19T15:52:51.0000000+00:00</time></trkpt><trkpt lat="64.21674347" lon="-20.73396683"><ele>85.9</ele><time>2012-07-19T15:52:56.0000000+00:00</time></trkpt><trkpt lat="64.2167511" lon="-20.73396683"><ele>85.9</ele><time>2012-07-19T15:53:01.0000000+00:00</time></trkpt><trkpt lat="64.2167511" lon="-20.73397446"><ele>86.2</ele><time>2012-07-19T15:53:06.0000000+00:00</time></trkpt><trkpt lat="64.2167511" lon="-20.73397827"><ele>86.3</ele><time>2012-07-19T15:53:11.0000000+00:00</time></trkpt><trkpt lat="64.2167511" lon="-20.73397827"><ele>86.3</ele><time>2012-07-19T15:53:16.0000000+00:00</time></trkpt><trkpt lat="64.2167511" lon="-20.73398018"><ele>86.3</ele><time>2012-07-19T15:53:21.0000000+00:00</time></trkpt><trkpt lat="64.2167511" lon="-20.73398018"><ele>86.3</ele><time>2012-07-19T15:53:26.0000000+00:00</time></trkpt><trkpt lat="64.2167511" lon="-20.73398018"><ele>86.3</ele><time>2012-07-19T15:53:31.0000000+00:00</time></trkpt><trkpt lat="64.2167511" lon="-20.73398018"><ele>86.3</ele><time>2012-07-19T15:53:36.0000000+00:00</time></trkpt><trkpt lat="64.2167511" lon="-20.73398018"><ele>86.3</ele><time>2012-07-19T15:53:41.0000000+00:00</time></trkpt><trkpt lat="64.2167511" lon="-20.73398018"><ele>86.3</ele><time>2012-07-19T15:53:46.0000000+00:00</time></trkpt><trkpt lat="64.2167511" lon="-20.73398018"><ele>86.3</ele><time>2012-07-19T15:53:51.0000000+00:00</time></trkpt><trkpt lat="64.2167511" lon="-20.73398018"><ele>86.3</ele><time>2012-07-19T15:53:56.0000000+00:00</time></trkpt><trkpt lat="64.2167511" lon="-20.73398018"><ele>86.3</ele><time>2012-07-19T15:54:01.0000000+00:00</time></trkpt><trkpt lat="64.2167511" lon="-20.73398018"><ele>86.3</ele><time>2012-07-19T15:54:06.0000000+00:00</time></trkpt><trkpt lat="64.2167511" lon="-20.73398018"><ele>86.3</ele><time>2012-07-19T15:54:11.0000000+00:00</time></trkpt><trkpt lat="64.2167511" lon="-20.73398018"><ele>86.3</ele><time>2012-07-19T15:54:16.0000000+00:00</time></trkpt><trkpt lat="64.2167511" lon="-20.73398018"><ele>86.3</ele><time>2012-07-19T15:54:21.0000000+00:00</time></trkpt><trkpt lat="64.2167511" lon="-20.73398018"><ele>86.2</ele><time>2012-07-19T15:54:26.0000000+00:00</time></trkpt><trkpt lat="64.2167511" lon="-20.73398018"><ele>86.2</ele><time>2012-07-19T15:54:31.0000000+00:00</time></trkpt><trkpt lat="64.2167511" lon="-20.73398018"><ele>86.2</ele><time>2012-07-19T15:54:36.0000000+00:00</time></trkpt><trkpt lat="64.2167511" lon="-20.73398018"><ele>86.2</ele><time>2012-07-19T15:54:41.0000000+00:00</time></trkpt><trkpt lat="64.2167511" lon="-20.73398018"><ele>86.2</ele><time>2012-07-19T15:54:46.0000000+00:00</time></trkpt><trkpt lat="64.2167511" lon="-20.73398018"><ele>86.2</ele><time>2012-07-19T15:54:51.0000000+00:00</time></trkpt><trkpt lat="64.2167511" lon="-20.73398018"><ele>86.2</ele><time>2012-07-19T15:54:56.0000000+00:00</time></trkpt><trkpt lat="64.2167511" lon="-20.73398018"><ele>86.2</ele><time>2012-07-19T15:55:01.0000000+00:00</time></trkpt><trkpt lat="64.2167511" lon="-20.73398018"><ele>86.1</ele><time>2012-07-19T15:55:06.0000000+00:00</time></trkpt><trkpt lat="64.2167511" lon="-20.73398018"><ele>86.1</ele><time>2012-07-19T15:55:11.0000000+00:00</time></trkpt><trkpt lat="64.2167511" lon="-20.73398018"><ele>86.1</ele><time>2012-07-19T15:55:16.0000000+00:00</time></trkpt><trkpt lat="64.2167511" lon="-20.73398018"><ele>86.1</ele><time>2012-07-19T15:55:21.0000000+00:00</time></trkpt><trkpt lat="64.2167511" lon="-20.73398018"><ele>86.1</ele><time>2012-07-19T15:55:26.0000000+00:00</time></trkpt><trkpt lat="64.2167511" lon="-20.73398018"><ele>86.1</ele><time>2012-07-19T15:55:31.0000000+00:00</time></trkpt><trkpt lat="64.2167511" lon="-20.73398018"><ele>86.1</ele><time>2012-07-19T15:55:36.0000000+00:00</time></trkpt><trkpt lat="64.2167511" lon="-20.73398018"><ele>86.1</ele><time>2012-07-19T15:55:41.0000000+00:00</time></trkpt><trkpt lat="64.2167511" lon="-20.73398018"><ele>86.1</ele><time>2012-07-19T15:55:46.0000000+00:00</time></trkpt><trkpt lat="64.2167511" lon="-20.73397827"><ele>86.1</ele><time>2012-07-19T15:55:51.0000000+00:00</time></trkpt><trkpt lat="64.2167511" lon="-20.73397827"><ele>86.1</ele><time>2012-07-19T15:55:56.0000000+00:00</time></trkpt><trkpt lat="64.2167511" lon="-20.73397827"><ele>86.1</ele><time>2012-07-19T15:56:01.0000000+00:00</time></trkpt><trkpt lat="64.2167511" lon="-20.73397827"><ele>86.1</ele><time>2012-07-19T15:56:06.0000000+00:00</time></trkpt><trkpt lat="64.2167511" lon="-20.73397827"><ele>86.1</ele><time>2012-07-19T15:56:11.0000000+00:00</time></trkpt><trkpt lat="64.2167511" lon="-20.73397827"><ele>86.1</ele><time>2012-07-19T15:56:16.0000000+00:00</time></trkpt><trkpt lat="64.2167511" lon="-20.73397827"><ele>86.1</ele><time>2012-07-19T15:56:21.0000000+00:00</time></trkpt><trkpt lat="64.2167511" lon="-20.73397636"><ele>86.1</ele><time>2012-07-19T15:56:26.0000000+00:00</time></trkpt><trkpt lat="64.2167511" lon="-20.73397636"><ele>86.1</ele><time>2012-07-19T15:56:31.0000000+00:00</time></trkpt><trkpt lat="64.2167511" lon="-20.73397636"><ele>86.0</ele><time>2012-07-19T15:56:36.0000000+00:00</time></trkpt><trkpt lat="64.2167511" lon="-20.73397636"><ele>86.0</ele><time>2012-07-19T15:56:41.0000000+00:00</time></trkpt><trkpt lat="64.2167511" lon="-20.73397636"><ele>86.0</ele><time>2012-07-19T15:56:46.0000000+00:00</time></trkpt><trkpt lat="64.2167511" lon="-20.73397636"><ele>86.0</ele><time>2012-07-19T15:56:51.0000000+00:00</time></trkpt><trkpt lat="64.21675873" lon="-20.73397636"><ele>86.0</ele><time>2012-07-19T15:56:56.0000000+00:00</time></trkpt><trkpt lat="64.2167511" lon="-20.73397636"><ele>86.0</ele><time>2012-07-19T15:57:01.0000000+00:00</time></trkpt><trkpt lat="64.2167511" lon="-20.73397636"><ele>86.0</ele><time>2012-07-19T15:57:06.0000000+00:00</time></trkpt><trkpt lat="64.2167511" lon="-20.73397446"><ele>86.0</ele><time>2012-07-19T15:57:11.0000000+00:00</time></trkpt><trkpt lat="64.2167511" lon="-20.73397446"><ele>85.9</ele><time>2012-07-19T15:57:16.0000000+00:00</time></trkpt><trkpt lat="64.2167511" lon="-20.73397446"><ele>85.9</ele><time>2012-07-19T15:57:21.0000000+00:00</time></trkpt><trkpt lat="64.2167511" lon="-20.73397446"><ele>85.9</ele><time>2012-07-19T15:57:26.0000000+00:00</time></trkpt><trkpt lat="64.2167511" lon="-20.73397446"><ele>85.9</ele><time>2012-07-19T15:57:31.0000000+00:00</time></trkpt><trkpt lat="64.2167511" lon="-20.73397255"><ele>85.9</ele><time>2012-07-19T15:57:36.0000000+00:00</time></trkpt><trkpt lat="64.21675873" lon="-20.73397255"><ele>85.9</ele><time>2012-07-19T15:57:41.0000000+00:00</time></trkpt><trkpt lat="64.21675873" lon="-20.73397255"><ele>85.9</ele><time>2012-07-19T15:57:46.0000000+00:00</time></trkpt><trkpt lat="64.21675873" lon="-20.73397255"><ele>85.9</ele><time>2012-07-19T15:57:51.0000000+00:00</time></trkpt><trkpt lat="64.21675873" lon="-20.73397064"><ele>85.9</ele><time>2012-07-19T15:57:56.0000000+00:00</time></trkpt><trkpt lat="64.21675873" lon="-20.73397064"><ele>85.9</ele><time>2012-07-19T15:58:01.0000000+00:00</time></trkpt><trkpt lat="64.21675873" lon="-20.73397064"><ele>85.9</ele><time>2012-07-19T15:58:06.0000000+00:00</time></trkpt><trkpt lat="64.21675873" lon="-20.73397064"><ele>85.9</ele><time>2012-07-19T15:58:11.0000000+00:00</time></trkpt><trkpt lat="64.21675873" lon="-20.73397064"><ele>85.9</ele><time>2012-07-19T15:58:16.0000000+00:00</time></trkpt><trkpt lat="64.21675873" lon="-20.73397064"><ele>85.9</ele><time>2012-07-19T15:58:21.0000000+00:00</time></trkpt><trkpt lat="64.21675873" lon="-20.73397064"><ele>85.9</ele><time>2012-07-19T15:58:26.0000000+00:00</time></trkpt><trkpt lat="64.21675873" lon="-20.73396874"><ele>85.9</ele><time>2012-07-19T15:58:31.0000000+00:00</time></trkpt><trkpt lat="64.21675873" lon="-20.73396874"><ele>85.9</ele><time>2012-07-19T15:58:36.0000000+00:00</time></trkpt><trkpt lat="64.21675873" lon="-20.73396683"><ele>85.9</ele><time>2012-07-19T15:58:41.0000000+00:00</time></trkpt><trkpt lat="64.21675873" lon="-20.73396683"><ele>85.9</ele><time>2012-07-19T15:58:46.0000000+00:00</time></trkpt><trkpt lat="64.21675873" lon="-20.73396683"><ele>85.9</ele><time>2012-07-19T15:58:51.0000000+00:00</time></trkpt><trkpt lat="64.21675873" lon="-20.73396683"><ele>85.9</ele><time>2012-07-19T15:58:56.0000000+00:00</time></trkpt><trkpt lat="64.21675873" lon="-20.73396492"><ele>85.9</ele><time>2012-07-19T15:59:01.0000000+00:00</time></trkpt><trkpt lat="64.21675873" lon="-20.73396492"><ele>85.9</ele><time>2012-07-19T15:59:06.0000000+00:00</time></trkpt><trkpt lat="64.21675873" lon="-20.73396492"><ele>85.9</ele><time>2012-07-19T15:59:11.0000000+00:00</time></trkpt><trkpt lat="64.21675873" lon="-20.73396301"><ele>85.9</ele><time>2012-07-19T15:59:16.0000000+00:00</time></trkpt><trkpt lat="64.21675873" lon="-20.73396301"><ele>85.9</ele><time>2012-07-19T15:59:21.0000000+00:00</time></trkpt><trkpt lat="64.21675873" lon="-20.73396301"><ele>85.9</ele><time>2012-07-19T15:59:26.0000000+00:00</time></trkpt><trkpt lat="64.21675873" lon="-20.73396301"><ele>85.9</ele><time>2012-07-19T15:59:31.0000000+00:00</time></trkpt><trkpt lat="64.21675873" lon="-20.73396301"><ele>85.9</ele><time>2012-07-19T15:59:36.0000000+00:00</time></trkpt><trkpt lat="64.21675873" lon="-20.73396111"><ele>85.9</ele><time>2012-07-19T15:59:41.0000000+00:00</time></trkpt><trkpt lat="64.21675873" lon="-20.73396111"><ele>85.9</ele><time>2012-07-19T15:59:46.0000000+00:00</time></trkpt><trkpt lat="64.21675873" lon="-20.73396111"><ele>85.9</ele><time>2012-07-19T15:59:51.0000000+00:00</time></trkpt><trkpt lat="64.21675873" lon="-20.73396111"><ele>85.9</ele><time>2012-07-19T15:59:56.0000000+00:00</time></trkpt><trkpt lat="64.21675873" lon="-20.73396111"><ele>85.9</ele><time>2012-07-19T16:00:01.0000000+00:00</time></trkpt><trkpt lat="64.21675873" lon="-20.73396111"><ele>85.9</ele><time>2012-07-19T16:00:06.0000000+00:00</time></trkpt><trkpt lat="64.21675873" lon="-20.73396111"><ele>85.9</ele><time>2012-07-19T16:00:11.0000000+00:00</time></trkpt><trkpt lat="64.21675873" lon="-20.73396111"><ele>85.9</ele><time>2012-07-19T16:00:16.0000000+00:00</time></trkpt><trkpt lat="64.21675873" lon="-20.73396111"><ele>85.9</ele><time>2012-07-19T16:00:21.0000000+00:00</time></trkpt><trkpt lat="64.21675873" lon="-20.7339592"><ele>85.9</ele><time>2012-07-19T16:00:26.0000000+00:00</time></trkpt><trkpt lat="64.21675873" lon="-20.7339592"><ele>85.9</ele><time>2012-07-19T16:00:31.0000000+00:00</time></trkpt><trkpt lat="64.21675873" lon="-20.7339592"><ele>85.9</ele><time>2012-07-19T16:00:36.0000000+00:00</time></trkpt><trkpt lat="64.21675873" lon="-20.7339592"><ele>85.9</ele><time>2012-07-19T16:00:41.0000000+00:00</time></trkpt><trkpt lat="64.21675873" lon="-20.7339592"><ele>85.9</ele><time>2012-07-19T16:00:46.0000000+00:00</time></trkpt><trkpt lat="64.21675873" lon="-20.73395729"><ele>85.9</ele><time>2012-07-19T16:00:51.0000000+00:00</time></trkpt><trkpt lat="64.21675873" lon="-20.73395729"><ele>85.9</ele><time>2012-07-19T16:00:56.0000000+00:00</time></trkpt><trkpt lat="64.21675873" lon="-20.73395729"><ele>85.9</ele><time>2012-07-19T16:01:01.0000000+00:00</time></trkpt><trkpt lat="64.21675873" lon="-20.73395729"><ele>85.9</ele><time>2012-07-19T16:01:06.0000000+00:00</time></trkpt><trkpt lat="64.21675873" lon="-20.73395729"><ele>85.9</ele><time>2012-07-19T16:01:11.0000000+00:00</time></trkpt><trkpt lat="64.21675873" lon="-20.73395729"><ele>85.9</ele><time>2012-07-19T16:01:16.0000000+00:00</time></trkpt><trkpt lat="64.21675873" lon="-20.73395729"><ele>85.9</ele><time>2012-07-19T16:01:21.0000000+00:00</time></trkpt><trkpt lat="64.21675873" lon="-20.73395729"><ele>85.9</ele><time>2012-07-19T16:01:26.0000000+00:00</time></trkpt><trkpt lat="64.21676636" lon="-20.73395729"><ele>85.9</ele><time>2012-07-19T16:01:31.0000000+00:00</time></trkpt><trkpt lat="64.21676636" lon="-20.73395729"><ele>85.9</ele><time>2012-07-19T16:01:36.0000000+00:00</time></trkpt><trkpt lat="64.21676636" lon="-20.73395729"><ele>85.9</ele><time>2012-07-19T16:01:41.0000000+00:00</time></trkpt><trkpt lat="64.21676636" lon="-20.73395729"><ele>85.9</ele><time>2012-07-19T16:01:46.0000000+00:00</time></trkpt><trkpt lat="64.21676636" lon="-20.73395729"><ele>85.9</ele><time>2012-07-19T16:01:51.0000000+00:00</time></trkpt><trkpt lat="64.21676636" lon="-20.73395729"><ele>85.9</ele><time>2012-07-19T16:01:56.0000000+00:00</time></trkpt><trkpt lat="64.21676636" lon="-20.73395729"><ele>85.9</ele><time>2012-07-19T16:02:01.0000000+00:00</time></trkpt><trkpt lat="64.21676636" lon="-20.73395729"><ele>85.9</ele><time>2012-07-19T16:02:06.0000000+00:00</time></trkpt><trkpt lat="64.21676636" lon="-20.73395729"><ele>85.9</ele><time>2012-07-19T16:02:11.0000000+00:00</time></trkpt><trkpt lat="64.21676636" lon="-20.73395729"><ele>85.9</ele><time>2012-07-19T16:02:16.0000000+00:00</time></trkpt><trkpt lat="64.21676636" lon="-20.73395729"><ele>85.9</ele><time>2012-07-19T16:02:21.0000000+00:00</time></trkpt><trkpt lat="64.21676636" lon="-20.73395538"><ele>86.0</ele><time>2012-07-19T16:02:26.0000000+00:00</time></trkpt><trkpt lat="64.21676636" lon="-20.73395729"><ele>86.0</ele><time>2012-07-19T16:02:31.0000000+00:00</time></trkpt><trkpt lat="64.21676636" lon="-20.73395729"><ele>86.0</ele><time>2012-07-19T16:02:36.0000000+00:00</time></trkpt><trkpt lat="64.21676636" lon="-20.73395729"><ele>86.0</ele><time>2012-07-19T16:02:41.0000000+00:00</time></trkpt><trkpt lat="64.21676636" lon="-20.73395729"><ele>86.0</ele><time>2012-07-19T16:02:46.0000000+00:00</time></trkpt><trkpt lat="64.21676636" lon="-20.73395729"><ele>86.0</ele><time>2012-07-19T16:02:51.0000000+00:00</time></trkpt><trkpt lat="64.21676636" lon="-20.73395729"><ele>86.0</ele><time>2012-07-19T16:02:56.0000000+00:00</time></trkpt><trkpt lat="64.21676636" lon="-20.73395729"><ele>86.0</ele><time>2012-07-19T16:03:01.0000000+00:00</time></trkpt><trkpt lat="64.21676636" lon="-20.7339592"><ele>86.0</ele><time>2012-07-19T16:03:06.0000000+00:00</time></trkpt><trkpt lat="64.21676636" lon="-20.7339592"><ele>86.0</ele><time>2012-07-19T16:03:11.0000000+00:00</time></trkpt><trkpt lat="64.21676636" lon="-20.7339592"><ele>86.0</ele><time>2012-07-19T16:03:16.0000000+00:00</time></trkpt><trkpt lat="64.21676636" lon="-20.7339592"><ele>86.0</ele><time>2012-07-19T16:03:21.0000000+00:00</time></trkpt><trkpt lat="64.21676636" lon="-20.73396111"><ele>86.0</ele><time>2012-07-19T16:03:26.0000000+00:00</time></trkpt><trkpt lat="64.21676636" lon="-20.73396111"><ele>86.0</ele><time>2012-07-19T16:03:31.0000000+00:00</time></trkpt><trkpt lat="64.21676636" lon="-20.7339592"><ele>86.0</ele><time>2012-07-19T16:03:36.0000000+00:00</time></trkpt><trkpt lat="64.21676636" lon="-20.7339592"><ele>86.0</ele><time>2012-07-19T16:03:41.0000000+00:00</time></trkpt><trkpt lat="64.21676636" lon="-20.7339592"><ele>86.0</ele><time>2012-07-19T16:03:46.0000000+00:00</time></trkpt><trkpt lat="64.21676636" lon="-20.7339592"><ele>86.0</ele><time>2012-07-19T16:03:51.0000000+00:00</time></trkpt><trkpt lat="64.21676636" lon="-20.7339592"><ele>86.0</ele><time>2012-07-19T16:03:56.0000000+00:00</time></trkpt><trkpt lat="64.21676636" lon="-20.7339592"><ele>86.0</ele><time>2012-07-19T16:04:01.0000000+00:00</time></trkpt><trkpt lat="64.21676636" lon="-20.7339592"><ele>86.0</ele><time>2012-07-19T16:04:06.0000000+00:00</time></trkpt><trkpt lat="64.21676636" lon="-20.7339592"><ele>86.0</ele><time>2012-07-19T16:04:11.0000000+00:00</time></trkpt><trkpt lat="64.21676636" lon="-20.73395729"><ele>86.0</ele><time>2012-07-19T16:04:16.0000000+00:00</time></trkpt><trkpt lat="64.21676636" lon="-20.73395729"><ele>86.0</ele><time>2012-07-19T16:04:21.0000000+00:00</time></trkpt><trkpt lat="64.21676636" lon="-20.73395729"><ele>86.0</ele><time>2012-07-19T16:04:26.0000000+00:00</time></trkpt><trkpt lat="64.21676636" lon="-20.73395729"><ele>86.0</ele><time>2012-07-19T16:04:31.0000000+00:00</time></trkpt><trkpt lat="64.21676636" lon="-20.73395729"><ele>86.0</ele><time>2012-07-19T16:04:36.0000000+00:00</time></trkpt><trkpt lat="64.21676636" lon="-20.73395729"><ele>86.0</ele><time>2012-07-19T16:04:41.0000000+00:00</time></trkpt><trkpt lat="64.21676636" lon="-20.73395729"><ele>86.0</ele><time>2012-07-19T16:04:46.0000000+00:00</time></trkpt><trkpt lat="64.21676636" lon="-20.73395729"><ele>86.0</ele><time>2012-07-19T16:04:51.0000000+00:00</time></trkpt><trkpt lat="64.21676636" lon="-20.73395538"><ele>86.0</ele><time>2012-07-19T16:04:56.0000000+00:00</time></trkpt><trkpt lat="64.21676636" lon="-20.73395538"><ele>85.9</ele><time>2012-07-19T16:05:01.0000000+00:00</time></trkpt><trkpt lat="64.21676636" lon="-20.73395538"><ele>85.9</ele><time>2012-07-19T16:05:06.0000000+00:00</time></trkpt><trkpt lat="64.21676636" lon="-20.73395348"><ele>85.9</ele><time>2012-07-19T16:05:11.0000000+00:00</time></trkpt><trkpt lat="64.21676636" lon="-20.73395348"><ele>85.9</ele><time>2012-07-19T16:05:16.0000000+00:00</time></trkpt><trkpt lat="64.21676636" lon="-20.73395348"><ele>85.8</ele><time>2012-07-19T16:05:21.0000000+00:00</time></trkpt><trkpt lat="64.21676636" lon="-20.73395348"><ele>85.8</ele><time>2012-07-19T16:05:26.0000000+00:00</time></trkpt><trkpt lat="64.21676636" lon="-20.73395157"><ele>85.7</ele><time>2012-07-19T16:05:31.0000000+00:00</time></trkpt><trkpt lat="64.21676636" lon="-20.73395157"><ele>85.6</ele><time>2012-07-19T16:05:36.0000000+00:00</time></trkpt><trkpt lat="64.21676636" lon="-20.73394966"><ele>85.5</ele><time>2012-07-19T16:05:41.0000000+00:00</time></trkpt><trkpt lat="64.21676636" lon="-20.73394966"><ele>85.4</ele><time>2012-07-19T16:05:46.0000000+00:00</time></trkpt><trkpt lat="64.21676636" lon="-20.73394966"><ele>85.4</ele><time>2012-07-19T16:05:51.0000000+00:00</time></trkpt><trkpt lat="64.21676636" lon="-20.73394966"><ele>85.4</ele><time>2012-07-19T16:05:56.0000000+00:00</time></trkpt><trkpt lat="64.21676636" lon="-20.73394775"><ele>85.3</ele><time>2012-07-19T16:06:01.0000000+00:00</time></trkpt><trkpt lat="64.21676636" lon="-20.73394775"><ele>85.4</ele><time>2012-07-19T16:06:06.0000000+00:00</time></trkpt><trkpt lat="64.21675873" lon="-20.7339592"><ele>86.1</ele><time>2012-07-19T16:06:11.0000000+00:00</time></trkpt><trkpt lat="64.21675873" lon="-20.73395348"><ele>86.2</ele><time>2012-07-19T16:06:16.0000000+00:00</time></trkpt><trkpt lat="64.21676636" lon="-20.73395538"><ele>86.2</ele><time>2012-07-19T16:06:21.0000000+00:00</time></trkpt><trkpt lat="64.21676636" lon="-20.73395538"><ele>86.2</ele><time>2012-07-19T16:06:26.0000000+00:00</time></trkpt><trkpt lat="64.21676636" lon="-20.73395538"><ele>86.2</ele><time>2012-07-19T16:06:31.0000000+00:00</time></trkpt><trkpt lat="64.21676636" lon="-20.73395538"><ele>86.2</ele><time>2012-07-19T16:06:36.0000000+00:00</time></trkpt><trkpt lat="64.21676636" lon="-20.73395538"><ele>86.2</ele><time>2012-07-19T16:06:41.0000000+00:00</time></trkpt><trkpt lat="64.21676636" lon="-20.73397064"><ele>86.2</ele><time>2012-07-19T16:06:46.0000000+00:00</time></trkpt><trkpt lat="64.21677399" lon="-20.73398018"><ele>86.4</ele><time>2012-07-19T16:06:51.0000000+00:00</time></trkpt><trkpt lat="64.21677399" lon="-20.73398018"><ele>86.3</ele><time>2012-07-19T16:06:56.0000000+00:00</time></trkpt><trkpt lat="64.21677399" lon="-20.73398399"><ele>86.3</ele><time>2012-07-19T16:07:01.0000000+00:00</time></trkpt><trkpt lat="64.21677399" lon="-20.7339859"><ele>86.3</ele><time>2012-07-19T16:07:06.0000000+00:00</time></trkpt><trkpt lat="64.21677399" lon="-20.73398399"><ele>86.3</ele><time>2012-07-19T16:07:11.0000000+00:00</time></trkpt><trkpt lat="64.21677399" lon="-20.73398399"><ele>86.3</ele><time>2012-07-19T16:07:16.0000000+00:00</time></trkpt><trkpt lat="64.21677399" lon="-20.73398399"><ele>86.3</ele><time>2012-07-19T16:07:21.0000000+00:00</time></trkpt><trkpt lat="64.21677399" lon="-20.73398399"><ele>86.3</ele><time>2012-07-19T16:07:26.0000000+00:00</time></trkpt><trkpt lat="64.21677399" lon="-20.73398399"><ele>86.3</ele><time>2012-07-19T16:07:31.0000000+00:00</time></trkpt><trkpt lat="64.21677399" lon="-20.73398399"><ele>86.2</ele><time>2012-07-19T16:07:36.0000000+00:00</time></trkpt><trkpt lat="64.21677399" lon="-20.73398399"><ele>86.3</ele><time>2012-07-19T16:07:41.0000000+00:00</time></trkpt><trkpt lat="64.21677399" lon="-20.73398399"><ele>86.3</ele><time>2012-07-19T16:07:46.0000000+00:00</time></trkpt><trkpt lat="64.21677399" lon="-20.73398399"><ele>86.3</ele><time>2012-07-19T16:07:51.0000000+00:00</time></trkpt><trkpt lat="64.21677399" lon="-20.73398399"><ele>86.3</ele><time>2012-07-19T16:07:56.0000000+00:00</time></trkpt><trkpt lat="64.21677399" lon="-20.73398399"><ele>86.3</ele><time>2012-07-19T16:08:01.0000000+00:00</time></trkpt><trkpt lat="64.21677399" lon="-20.73398399"><ele>86.3</ele><time>2012-07-19T16:08:06.0000000+00:00</time></trkpt><trkpt lat="64.21677399" lon="-20.73398399"><ele>86.3</ele><time>2012-07-19T16:08:11.0000000+00:00</time></trkpt><trkpt lat="64.21677399" lon="-20.73398399"><ele>86.3</ele><time>2012-07-19T16:08:16.0000000+00:00</time></trkpt><trkpt lat="64.21677399" lon="-20.73398399"><ele>86.3</ele><time>2012-07-19T16:08:21.0000000+00:00</time></trkpt><trkpt lat="64.21677399" lon="-20.73398399"><ele>86.3</ele><time>2012-07-19T16:08:26.0000000+00:00</time></trkpt><trkpt lat="64.21677399" lon="-20.73398209"><ele>86.3</ele><time>2012-07-19T16:08:31.0000000+00:00</time></trkpt><trkpt lat="64.21677399" lon="-20.73398209"><ele>86.3</ele><time>2012-07-19T16:08:36.0000000+00:00</time></trkpt><trkpt lat="64.21677399" lon="-20.73398209"><ele>86.3</ele><time>2012-07-19T16:08:41.0000000+00:00</time></trkpt><trkpt lat="64.21677399" lon="-20.73398209"><ele>86.3</ele><time>2012-07-19T16:08:46.0000000+00:00</time></trkpt><trkpt lat="64.21677399" lon="-20.73398209"><ele>86.3</ele><time>2012-07-19T16:08:51.0000000+00:00</time></trkpt><trkpt lat="64.21677399" lon="-20.73398018"><ele>86.3</ele><time>2012-07-19T16:08:56.0000000+00:00</time></trkpt><trkpt lat="64.21677399" lon="-20.73398018"><ele>86.3</ele><time>2012-07-19T16:09:01.0000000+00:00</time></trkpt><trkpt lat="64.21677399" lon="-20.73398018"><ele>86.4</ele><time>2012-07-19T16:09:06.0000000+00:00</time></trkpt><trkpt lat="64.21677399" lon="-20.73397827"><ele>86.4</ele><time>2012-07-19T16:09:11.0000000+00:00</time></trkpt><trkpt lat="64.21677399" lon="-20.73397827"><ele>86.4</ele><time>2012-07-19T16:09:16.0000000+00:00</time></trkpt><trkpt lat="64.21677399" lon="-20.73397636"><ele>86.4</ele><time>2012-07-19T16:09:21.0000000+00:00</time></trkpt><trkpt lat="64.21677399" lon="-20.73397446"><ele>86.3</ele><time>2012-07-19T16:09:26.0000000+00:00</time></trkpt><trkpt lat="64.21677399" lon="-20.73397446"><ele>86.3</ele><time>2012-07-19T16:09:31.0000000+00:00</time></trkpt><trkpt lat="64.21677399" lon="-20.73397255"><ele>86.3</ele><time>2012-07-19T16:09:36.0000000+00:00</time></trkpt><trkpt lat="64.21677399" lon="-20.73397255"><ele>86.3</ele><time>2012-07-19T16:09:41.0000000+00:00</time></trkpt><trkpt lat="64.21677399" lon="-20.73397064"><ele>86.3</ele><time>2012-07-19T16:09:46.0000000+00:00</time></trkpt><trkpt lat="64.21677399" lon="-20.73397064"><ele>86.3</ele><time>2012-07-19T16:09:51.0000000+00:00</time></trkpt><trkpt lat="64.21677399" lon="-20.73397064"><ele>86.2</ele><time>2012-07-19T16:09:56.0000000+00:00</time></trkpt><trkpt lat="64.21677399" lon="-20.73397064"><ele>86.3</ele><time>2012-07-19T16:10:01.0000000+00:00</time></trkpt><trkpt lat="64.21677399" lon="-20.73397064"><ele>86.3</ele><time>2012-07-19T16:10:06.0000000+00:00</time></trkpt><trkpt lat="64.21677399" lon="-20.73397064"><ele>86.2</ele><time>2012-07-19T16:10:11.0000000+00:00</time></trkpt><trkpt lat="64.21678162" lon="-20.73397064"><ele>87.0</ele><time>2012-07-19T16:10:16.0000000+00:00</time></trkpt><trkpt lat="64.21678162" lon="-20.73396492"><ele>86.9</ele><time>2012-07-19T16:10:21.0000000+00:00</time></trkpt><trkpt lat="64.21678162" lon="-20.73396492"><ele>86.9</ele><time>2012-07-19T16:10:26.0000000+00:00</time></trkpt><trkpt lat="64.21678162" lon="-20.73396492"><ele>86.9</ele><time>2012-07-19T16:10:31.0000000+00:00</time></trkpt><trkpt lat="64.21678162" lon="-20.73396492"><ele>86.9</ele><time>2012-07-19T16:10:36.0000000+00:00</time></trkpt><trkpt lat="64.21678162" lon="-20.73396492"><ele>86.9</ele><time>2012-07-19T16:10:41.0000000+00:00</time></trkpt><trkpt lat="64.21678162" lon="-20.73396492"><ele>86.8</ele><time>2012-07-19T16:10:46.0000000+00:00</time></trkpt><trkpt lat="64.21678162" lon="-20.73396301"><ele>86.8</ele><time>2012-07-19T16:10:51.0000000+00:00</time></trkpt><trkpt lat="64.21678162" lon="-20.73396301"><ele>86.8</ele><time>2012-07-19T16:10:56.0000000+00:00</time></trkpt><trkpt lat="64.21678162" lon="-20.73396301"><ele>86.8</ele><time>2012-07-19T16:11:01.0000000+00:00</time></trkpt><trkpt lat="64.21678162" lon="-20.73396301"><ele>86.7</ele><time>2012-07-19T16:11:06.0000000+00:00</time></trkpt><trkpt lat="64.21678162" lon="-20.73396111"><ele>86.7</ele><time>2012-07-19T16:11:11.0000000+00:00</time></trkpt><trkpt lat="64.21678162" lon="-20.73396111"><ele>86.6</ele><time>2012-07-19T16:11:16.0000000+00:00</time></trkpt><trkpt lat="64.21678162" lon="-20.73396111"><ele>86.6</ele><time>2012-07-19T16:11:21.0000000+00:00</time></trkpt><trkpt lat="64.21678162" lon="-20.7339592"><ele>86.5</ele><time>2012-07-19T16:11:26.0000000+00:00</time></trkpt><trkpt lat="64.21678162" lon="-20.7339592"><ele>86.5</ele><time>2012-07-19T16:11:31.0000000+00:00</time></trkpt><trkpt lat="64.21678162" lon="-20.7339592"><ele>86.4</ele><time>2012-07-19T16:11:36.0000000+00:00</time></trkpt><trkpt lat="64.21678162" lon="-20.7339592"><ele>86.4</ele><time>2012-07-19T16:11:41.0000000+00:00</time></trkpt><trkpt lat="64.21678162" lon="-20.73395729"><ele>86.4</ele><time>2012-07-19T16:11:46.0000000+00:00</time></trkpt><trkpt lat="64.21677399" lon="-20.73395729"><ele>86.4</ele><time>2012-07-19T16:11:51.0000000+00:00</time></trkpt><trkpt lat="64.21677399" lon="-20.73395729"><ele>86.4</ele><time>2012-07-19T16:11:56.0000000+00:00</time></trkpt><trkpt lat="64.21678162" lon="-20.73395729"><ele>86.4</ele><time>2012-07-19T16:12:01.0000000+00:00</time></trkpt><trkpt lat="64.21678162" lon="-20.73395729"><ele>86.3</ele><time>2012-07-19T16:12:06.0000000+00:00</time></trkpt><trkpt lat="64.21678162" lon="-20.73395729"><ele>86.3</ele><time>2012-07-19T16:12:11.0000000+00:00</time></trkpt><trkpt lat="64.21678162" lon="-20.73395729"><ele>86.3</ele><time>2012-07-19T16:12:16.0000000+00:00</time></trkpt><trkpt lat="64.21678162" lon="-20.73395729"><ele>86.3</ele><time>2012-07-19T16:12:21.0000000+00:00</time></trkpt><trkpt lat="64.21678162" lon="-20.73395729"><ele>86.3</ele><time>2012-07-19T16:12:26.0000000+00:00</time></trkpt><trkpt lat="64.21678162" lon="-20.73395729"><ele>86.3</ele><time>2012-07-19T16:12:31.0000000+00:00</time></trkpt><trkpt lat="64.21678162" lon="-20.73395729"><ele>86.3</ele><time>2012-07-19T16:12:36.0000000+00:00</time></trkpt><trkpt lat="64.21678162" lon="-20.73395729"><ele>86.3</ele><time>2012-07-19T16:12:41.0000000+00:00</time></trkpt><trkpt lat="64.21678162" lon="-20.73395538"><ele>86.3</ele><time>2012-07-19T16:12:46.0000000+00:00</time></trkpt><trkpt lat="64.21678162" lon="-20.73395538"><ele>86.3</ele><time>2012-07-19T16:12:51.0000000+00:00</time></trkpt><trkpt lat="64.21678162" lon="-20.73395538"><ele>86.3</ele><time>2012-07-19T16:12:56.0000000+00:00</time></trkpt><trkpt lat="64.21678162" lon="-20.73395538"><ele>86.3</ele><time>2012-07-19T16:13:01.0000000+00:00</time></trkpt><trkpt lat="64.21678162" lon="-20.73395538"><ele>86.3</ele><time>2012-07-19T16:13:06.0000000+00:00</time></trkpt><trkpt lat="64.21678162" lon="-20.73395538"><ele>86.3</ele><time>2012-07-19T16:13:11.0000000+00:00</time></trkpt><trkpt lat="64.21678162" lon="-20.73395538"><ele>86.2</ele><time>2012-07-19T16:13:16.0000000+00:00</time></trkpt><trkpt lat="64.21678162" lon="-20.73395538"><ele>86.2</ele><time>2012-07-19T16:13:21.0000000+00:00</time></trkpt><trkpt lat="64.21678162" lon="-20.73395538"><ele>86.1</ele><time>2012-07-19T16:13:26.0000000+00:00</time></trkpt><trkpt lat="64.21678162" lon="-20.73395538"><ele>86.1</ele><time>2012-07-19T16:13:31.0000000+00:00</time></trkpt><trkpt lat="64.21678162" lon="-20.73395348"><ele>86.1</ele><time>2012-07-19T16:13:36.0000000+00:00</time></trkpt><trkpt lat="64.21678162" lon="-20.73395348"><ele>86.1</ele><time>2012-07-19T16:13:41.0000000+00:00</time></trkpt><trkpt lat="64.21678162" lon="-20.73395348"><ele>86.1</ele><time>2012-07-19T16:13:46.0000000+00:00</time></trkpt><trkpt lat="64.21678162" lon="-20.73395348"><ele>86.1</ele><time>2012-07-19T16:13:51.0000000+00:00</time></trkpt><trkpt lat="64.21678162" lon="-20.73395348"><ele>86.1</ele><time>2012-07-19T16:13:56.0000000+00:00</time></trkpt><trkpt lat="64.21678162" lon="-20.73395348"><ele>86.1</ele><time>2012-07-19T16:14:01.0000000+00:00</time></trkpt><trkpt lat="64.21678162" lon="-20.73395348"><ele>86.1</ele><time>2012-07-19T16:14:06.0000000+00:00</time></trkpt><trkpt lat="64.21678162" lon="-20.73395348"><ele>86.0</ele><time>2012-07-19T16:14:11.0000000+00:00</time></trkpt><trkpt lat="64.21678162" lon="-20.73395157"><ele>86.1</ele><time>2012-07-19T16:14:16.0000000+00:00</time></trkpt><trkpt lat="64.21678162" lon="-20.73395157"><ele>86.1</ele><time>2012-07-19T16:14:21.0000000+00:00</time></trkpt><trkpt lat="64.21678162" lon="-20.73395157"><ele>86.0</ele><time>2012-07-19T16:14:26.0000000+00:00</time></trkpt><trkpt lat="64.21678162" lon="-20.73394966"><ele>86.0</ele><time>2012-07-19T16:14:31.0000000+00:00</time></trkpt><trkpt lat="64.21678162" lon="-20.73394966"><ele>85.9</ele><time>2012-07-19T16:14:36.0000000+00:00</time></trkpt><trkpt lat="64.21678162" lon="-20.73394966"><ele>85.8</ele><time>2012-07-19T16:14:41.0000000+00:00</time></trkpt><trkpt lat="64.21678162" lon="-20.73394966"><ele>85.8</ele><time>2012-07-19T16:14:46.0000000+00:00</time></trkpt><trkpt lat="64.21678162" lon="-20.73394775"><ele>85.8</ele><time>2012-07-19T16:14:51.0000000+00:00</time></trkpt><trkpt lat="64.21678162" lon="-20.73394775"><ele>85.8</ele><time>2012-07-19T16:14:56.0000000+00:00</time></trkpt><trkpt lat="64.21677399" lon="-20.73394775"><ele>85.8</ele><time>2012-07-19T16:15:01.0000000+00:00</time></trkpt><trkpt lat="64.21677399" lon="-20.73394585"><ele>85.8</ele><time>2012-07-19T16:15:06.0000000+00:00</time></trkpt><trkpt lat="64.21677399" lon="-20.73394585"><ele>85.8</ele><time>2012-07-19T16:15:11.0000000+00:00</time></trkpt><trkpt lat="64.21677399" lon="-20.73394585"><ele>85.8</ele><time>2012-07-19T16:15:16.0000000+00:00</time></trkpt><trkpt lat="64.21678162" lon="-20.73394775"><ele>85.8</ele><time>2012-07-19T16:15:21.0000000+00:00</time></trkpt><trkpt lat="64.21678162" lon="-20.73394585"><ele>85.8</ele><time>2012-07-19T16:15:26.0000000+00:00</time></trkpt><trkpt lat="64.21678162" lon="-20.73394585"><ele>85.8</ele><time>2012-07-19T16:15:31.0000000+00:00</time></trkpt><trkpt lat="64.21678162" lon="-20.73394775"><ele>85.7</ele><time>2012-07-19T16:15:36.0000000+00:00</time></trkpt><trkpt lat="64.21678162" lon="-20.73394775"><ele>85.7</ele><time>2012-07-19T16:15:41.0000000+00:00</time></trkpt><trkpt lat="64.21678162" lon="-20.73394775"><ele>85.7</ele><time>2012-07-19T16:15:46.0000000+00:00</time></trkpt><trkpt lat="64.21678162" lon="-20.73394775"><ele>85.7</ele><time>2012-07-19T16:15:51.0000000+00:00</time></trkpt><trkpt lat="64.21678162" lon="-20.73394775"><ele>85.7</ele><time>2012-07-19T16:15:56.0000000+00:00</time></trkpt><trkpt lat="64.21678162" lon="-20.73394775"><ele>85.7</ele><time>2012-07-19T16:16:01.0000000+00:00</time></trkpt><trkpt lat="64.21678162" lon="-20.73394585"><ele>85.8</ele><time>2012-07-19T16:16:06.0000000+00:00</time></trkpt><trkpt lat="64.21678162" lon="-20.73394585"><ele>85.8</ele><time>2012-07-19T16:16:11.0000000+00:00</time></trkpt><trkpt lat="64.21678162" lon="-20.73394585"><ele>85.8</ele><time>2012-07-19T16:16:16.0000000+00:00</time></trkpt><trkpt lat="64.21678162" lon="-20.73394585"><ele>85.8</ele><time>2012-07-19T16:16:21.0000000+00:00</time></trkpt><trkpt lat="64.21678162" lon="-20.73394585"><ele>85.8</ele><time>2012-07-19T16:16:26.0000000+00:00</time></trkpt><trkpt lat="64.21678162" lon="-20.73394585"><ele>85.8</ele><time>2012-07-19T16:16:31.0000000+00:00</time></trkpt><trkpt lat="64.21678162" lon="-20.73394394"><ele>85.8</ele><time>2012-07-19T16:16:36.0000000+00:00</time></trkpt><trkpt lat="64.21678162" lon="-20.73394394"><ele>85.7</ele><time>2012-07-19T16:16:41.0000000+00:00</time></trkpt><trkpt lat="64.21678162" lon="-20.73394394"><ele>85.7</ele><time>2012-07-19T16:16:46.0000000+00:00</time></trkpt><trkpt lat="64.21678162" lon="-20.73394394"><ele>85.6</ele><time>2012-07-19T16:16:51.0000000+00:00</time></trkpt><trkpt lat="64.21678162" lon="-20.73394394"><ele>85.6</ele><time>2012-07-19T16:16:56.0000000+00:00</time></trkpt><trkpt lat="64.21678162" lon="-20.73394203"><ele>85.6</ele><time>2012-07-19T16:17:01.0000000+00:00</time></trkpt><trkpt lat="64.21678162" lon="-20.73394394"><ele>85.6</ele><time>2012-07-19T16:17:06.0000000+00:00</time></trkpt><trkpt lat="64.21678162" lon="-20.73394203"><ele>85.6</ele><time>2012-07-19T16:17:11.0000000+00:00</time></trkpt><trkpt lat="64.21678162" lon="-20.73394203"><ele>85.5</ele><time>2012-07-19T16:17:16.0000000+00:00</time></trkpt><trkpt lat="64.21678162" lon="-20.73394203"><ele>85.5</ele><time>2012-07-19T16:17:21.0000000+00:00</time></trkpt><trkpt lat="64.21678162" lon="-20.73394203"><ele>85.5</ele><time>2012-07-19T16:17:26.0000000+00:00</time></trkpt><trkpt lat="64.21678162" lon="-20.73394203"><ele>85.5</ele><time>2012-07-19T16:17:31.0000000+00:00</time></trkpt><trkpt lat="64.21678162" lon="-20.73394203"><ele>85.5</ele><time>2012-07-19T16:17:36.0000000+00:00</time></trkpt><trkpt lat="64.21678162" lon="-20.73394203"><ele>85.5</ele><time>2012-07-19T16:17:41.0000000+00:00</time></trkpt><trkpt lat="64.21678162" lon="-20.73394013"><ele>85.5</ele><time>2012-07-19T16:17:46.0000000+00:00</time></trkpt><trkpt lat="64.21678162" lon="-20.73394013"><ele>85.4</ele><time>2012-07-19T16:17:51.0000000+00:00</time></trkpt><trkpt lat="64.21678162" lon="-20.73394013"><ele>85.4</ele><time>2012-07-19T16:17:56.0000000+00:00</time></trkpt><trkpt lat="64.21678162" lon="-20.73394013"><ele>85.3</ele><time>2012-07-19T16:18:01.0000000+00:00</time></trkpt><trkpt lat="64.21678162" lon="-20.73394013"><ele>85.3</ele><time>2012-07-19T16:18:06.0000000+00:00</time></trkpt><trkpt lat="64.21678162" lon="-20.73394013"><ele>85.3</ele><time>2012-07-19T16:18:11.0000000+00:00</time></trkpt><trkpt lat="64.21678162" lon="-20.73394013"><ele>85.3</ele><time>2012-07-19T16:18:16.0000000+00:00</time></trkpt><trkpt lat="64.21678162" lon="-20.73394013"><ele>85.3</ele><time>2012-07-19T16:18:21.0000000+00:00</time></trkpt><trkpt lat="64.21678162" lon="-20.73394013"><ele>85.3</ele><time>2012-07-19T16:18:26.0000000+00:00</time></trkpt><trkpt lat="64.21677399" lon="-20.73394013"><ele>85.3</ele><time>2012-07-19T16:18:31.0000000+00:00</time></trkpt><trkpt lat="64.21678162" lon="-20.73394013"><ele>85.4</ele><time>2012-07-19T16:18:36.0000000+00:00</time></trkpt><trkpt lat="64.21678162" lon="-20.73394013"><ele>85.4</ele><time>2012-07-19T16:18:41.0000000+00:00</time></trkpt><trkpt lat="64.21678162" lon="-20.73394013"><ele>85.3</ele><time>2012-07-19T16:18:46.0000000+00:00</time></trkpt><trkpt lat="64.21678162" lon="-20.73394013"><ele>85.4</ele><time>2012-07-19T16:18:51.0000000+00:00</time></trkpt><trkpt lat="64.21678162" lon="-20.73394013"><ele>85.4</ele><time>2012-07-19T16:18:56.0000000+00:00</time></trkpt><trkpt lat="64.21678162" lon="-20.73394013"><ele>85.4</ele><time>2012-07-19T16:19:01.0000000+00:00</time></trkpt><trkpt lat="64.21678162" lon="-20.73394013"><ele>85.4</ele><time>2012-07-19T16:19:06.0000000+00:00</time></trkpt><trkpt lat="64.21678162" lon="-20.73394013"><ele>85.4</ele><time>2012-07-19T16:19:11.0000000+00:00</time></trkpt><trkpt lat="64.21678162" lon="-20.73394013"><ele>85.4</ele><time>2012-07-19T16:19:16.0000000+00:00</time></trkpt><trkpt lat="64.21678162" lon="-20.73394013"><ele>85.4</ele><time>2012-07-19T16:19:21.0000000+00:00</time></trkpt><trkpt lat="64.21678162" lon="-20.73394013"><ele>85.4</ele><time>2012-07-19T16:19:26.0000000+00:00</time></trkpt><trkpt lat="64.21678162" lon="-20.73394013"><ele>85.3</ele><time>2012-07-19T16:19:31.0000000+00:00</time></trkpt><trkpt lat="64.21678162" lon="-20.73394013"><ele>85.3</ele><time>2012-07-19T16:19:36.0000000+00:00</time></trkpt><trkpt lat="64.21678162" lon="-20.73394013"><ele>85.3</ele><time>2012-07-19T16:19:41.0000000+00:00</time></trkpt><trkpt lat="64.21678162" lon="-20.73394013"><ele>85.4</ele><time>2012-07-19T16:19:46.0000000+00:00</time></trkpt><trkpt lat="64.21678162" lon="-20.73394013"><ele>85.4</ele><time>2012-07-19T16:19:51.0000000+00:00</time></trkpt><trkpt lat="64.21678162" lon="-20.73394013"><ele>85.4</ele><time>2012-07-19T16:19:56.0000000+00:00</time></trkpt><trkpt lat="64.21678162" lon="-20.73394013"><ele>85.4</ele><time>2012-07-19T16:20:01.0000000+00:00</time></trkpt><trkpt lat="64.21678162" lon="-20.73394013"><ele>85.4</ele><time>2012-07-19T16:20:06.0000000+00:00</time></trkpt><trkpt lat="64.21678162" lon="-20.73394203"><ele>85.4</ele><time>2012-07-19T16:20:11.0000000+00:00</time></trkpt><trkpt lat="64.21678162" lon="-20.73394203"><ele>85.4</ele><time>2012-07-19T16:20:16.0000000+00:00</time></trkpt><trkpt lat="64.21678162" lon="-20.73394203"><ele>85.4</ele><time>2012-07-19T16:20:21.0000000+00:00</time></trkpt><trkpt lat="64.21678162" lon="-20.73394203"><ele>85.4</ele><time>2012-07-19T16:20:26.0000000+00:00</time></trkpt><trkpt lat="64.21678162" lon="-20.73394203"><ele>85.4</ele><time>2012-07-19T16:20:31.0000000+00:00</time></trkpt><trkpt lat="64.21678162" lon="-20.73394203"><ele>85.4</ele><time>2012-07-19T16:20:36.0000000+00:00</time></trkpt><trkpt lat="64.21678162" lon="-20.73394203"><ele>85.3</ele><time>2012-07-19T16:20:41.0000000+00:00</time></trkpt><trkpt lat="64.21678162" lon="-20.73394203"><ele>85.3</ele><time>2012-07-19T16:20:46.0000000+00:00</time></trkpt><trkpt lat="64.21678162" lon="-20.73394203"><ele>85.3</ele><time>2012-07-19T16:20:51.0000000+00:00</time></trkpt><trkpt lat="64.21678162" lon="-20.73394203"><ele>85.3</ele><time>2012-07-19T16:20:56.0000000+00:00</time></trkpt><trkpt lat="64.21678162" lon="-20.73394203"><ele>85.3</ele><time>2012-07-19T16:21:01.0000000+00:00</time></trkpt><trkpt lat="64.21678162" lon="-20.73394203"><ele>85.3</ele><time>2012-07-19T16:21:06.0000000+00:00</time></trkpt><trkpt lat="64.21678162" lon="-20.73394203"><ele>85.3</ele><time>2012-07-19T16:21:11.0000000+00:00</time></trkpt><trkpt lat="64.21678162" lon="-20.73394203"><ele>85.3</ele><time>2012-07-19T16:21:16.0000000+00:00</time></trkpt><trkpt lat="64.21678162" lon="-20.73394203"><ele>85.3</ele><time>2012-07-19T16:21:21.0000000+00:00</time></trkpt><trkpt lat="64.21678162" lon="-20.73394203"><ele>85.3</ele><time>2012-07-19T16:21:26.0000000+00:00</time></trkpt><trkpt lat="64.21678162" lon="-20.73394203"><ele>85.3</ele><time>2012-07-19T16:21:31.0000000+00:00</time></trkpt><trkpt lat="64.21678162" lon="-20.73394203"><ele>85.3</ele><time>2012-07-19T16:21:36.0000000+00:00</time></trkpt><trkpt lat="64.21678162" lon="-20.73394203"><ele>85.3</ele><time>2012-07-19T16:21:41.0000000+00:00</time></trkpt><trkpt lat="64.21678162" lon="-20.73394203"><ele>85.3</ele><time>2012-07-19T16:21:46.0000000+00:00</time></trkpt><trkpt lat="64.21678162" lon="-20.73394203"><ele>85.3</ele><time>2012-07-19T16:21:51.0000000+00:00</time></trkpt><trkpt lat="64.21678162" lon="-20.73394203"><ele>85.3</ele><time>2012-07-19T16:21:56.0000000+00:00</time></trkpt><trkpt lat="64.21678162" lon="-20.73394203"><ele>85.3</ele><time>2012-07-19T16:22:01.0000000+00:00</time></trkpt><trkpt lat="64.21678162" lon="-20.73394203"><ele>85.3</ele><time>2012-07-19T16:22:06.0000000+00:00</time></trkpt><trkpt lat="64.21678162" lon="-20.73394203"><ele>85.3</ele><time>2012-07-19T16:22:11.0000000+00:00</time></trkpt><trkpt lat="64.21678162" lon="-20.73394203"><ele>85.3</ele><time>2012-07-19T16:22:16.0000000+00:00</time></trkpt><trkpt lat="64.21678162" lon="-20.73394203"><ele>85.3</ele><time>2012-07-19T16:22:21.0000000+00:00</time></trkpt><trkpt lat="64.21678162" lon="-20.73394203"><ele>85.3</ele><time>2012-07-19T16:22:26.0000000+00:00</time></trkpt><trkpt lat="64.21678162" lon="-20.73394203"><ele>85.3</ele><time>2012-07-19T16:22:31.0000000+00:00</time></trkpt><trkpt lat="64.21678162" lon="-20.73394203"><ele>85.3</ele><time>2012-07-19T16:22:36.0000000+00:00</time></trkpt><trkpt lat="64.21678162" lon="-20.73394203"><ele>85.3</ele><time>2012-07-19T16:22:41.0000000+00:00</time></trkpt><trkpt lat="64.21678162" lon="-20.73394203"><ele>85.3</ele><time>2012-07-19T16:22:46.0000000+00:00</time></trkpt><trkpt lat="64.21678162" lon="-20.73394203"><ele>85.2</ele><time>2012-07-19T16:22:51.0000000+00:00</time></trkpt><trkpt lat="64.21678162" lon="-20.73394013"><ele>85.2</ele><time>2012-07-19T16:22:56.0000000+00:00</time></trkpt><trkpt lat="64.21678162" lon="-20.73394013"><ele>85.2</ele><time>2012-07-19T16:23:01.0000000+00:00</time></trkpt><trkpt lat="64.21678162" lon="-20.73394013"><ele>85.2</ele><time>2012-07-19T16:23:06.0000000+00:00</time></trkpt><trkpt lat="64.21678162" lon="-20.73394013"><ele>85.2</ele><time>2012-07-19T16:23:11.0000000+00:00</time></trkpt><trkpt lat="64.21678162" lon="-20.73393822"><ele>85.2</ele><time>2012-07-19T16:23:16.0000000+00:00</time></trkpt><trkpt lat="64.21678162" lon="-20.73393822"><ele>85.2</ele><time>2012-07-19T16:23:21.0000000+00:00</time></trkpt><trkpt lat="64.21678162" lon="-20.73393822"><ele>85.1</ele><time>2012-07-19T16:23:26.0000000+00:00</time></trkpt><trkpt lat="64.21678162" lon="-20.73393822"><ele>85.1</ele><time>2012-07-19T16:23:31.0000000+00:00</time></trkpt><trkpt lat="64.21678162" lon="-20.73393631"><ele>85.1</ele><time>2012-07-19T16:23:36.0000000+00:00</time></trkpt><trkpt lat="64.21678162" lon="-20.73393631"><ele>85.1</ele><time>2012-07-19T16:23:41.0000000+00:00</time></trkpt><trkpt lat="64.21678162" lon="-20.73393631"><ele>85.0</ele><time>2012-07-19T16:23:46.0000000+00:00</time></trkpt><trkpt lat="64.21678162" lon="-20.73393631"><ele>85.0</ele><time>2012-07-19T16:23:51.0000000+00:00</time></trkpt><trkpt lat="64.21678162" lon="-20.7339344"><ele>85.0</ele><time>2012-07-19T16:23:56.0000000+00:00</time></trkpt><trkpt lat="64.21678162" lon="-20.7339344"><ele>85.0</ele><time>2012-07-19T16:24:01.0000000+00:00</time></trkpt><trkpt lat="64.21678162" lon="-20.7339344"><ele>85.0</ele><time>2012-07-19T16:24:06.0000000+00:00</time></trkpt><trkpt lat="64.21678162" lon="-20.7339344"><ele>85.0</ele><time>2012-07-19T16:24:11.0000000+00:00</time></trkpt><trkpt lat="64.21678162" lon="-20.7339344"><ele>85.0</ele><time>2012-07-19T16:24:16.0000000+00:00</time></trkpt><trkpt lat="64.21678162" lon="-20.7339344"><ele>85.0</ele><time>2012-07-19T16:24:21.0000000+00:00</time></trkpt><trkpt lat="64.21678162" lon="-20.7339344"><ele>85.0</ele><time>2012-07-19T16:24:26.0000000+00:00</time></trkpt><trkpt lat="64.21678162" lon="-20.7339344"><ele>85.0</ele><time>2012-07-19T16:24:31.0000000+00:00</time></trkpt><trkpt lat="64.21678162" lon="-20.7339344"><ele>85.0</ele><time>2012-07-19T16:24:36.0000000+00:00</time></trkpt><trkpt lat="64.21678162" lon="-20.7339344"><ele>85.0</ele><time>2012-07-19T16:24:41.0000000+00:00</time></trkpt><trkpt lat="64.21678162" lon="-20.7339344"><ele>85.0</ele><time>2012-07-19T16:24:46.0000000+00:00</time></trkpt><trkpt lat="64.21678162" lon="-20.7339344"><ele>85.0</ele><time>2012-07-19T16:24:51.0000000+00:00</time></trkpt><trkpt lat="64.21678162" lon="-20.7339344"><ele>85.0</ele><time>2012-07-19T16:24:56.0000000+00:00</time></trkpt><trkpt lat="64.21678925" lon="-20.73396492"><ele>85.0</ele><time>2012-07-19T16:25:01.0000000+00:00</time></trkpt><trkpt lat="64.21679688" lon="-20.73397064"><ele>85.1</ele><time>2012-07-19T16:25:06.0000000+00:00</time></trkpt><trkpt lat="64.21679688" lon="-20.73397064"><ele>85.1</ele><time>2012-07-19T16:25:11.0000000+00:00</time></trkpt><trkpt lat="64.21679688" lon="-20.73397064"><ele>85.1</ele><time>2012-07-19T16:25:16.0000000+00:00</time></trkpt><trkpt lat="64.21679688" lon="-20.73397064"><ele>85.1</ele><time>2012-07-19T16:25:21.0000000+00:00</time></trkpt><trkpt lat="64.21679688" lon="-20.73397064"><ele>85.1</ele><time>2012-07-19T16:25:26.0000000+00:00</time></trkpt><trkpt lat="64.21679688" lon="-20.73397064"><ele>85.1</ele><time>2012-07-19T16:25:31.0000000+00:00</time></trkpt><trkpt lat="64.21679688" lon="-20.73397064"><ele>85.1</ele><time>2012-07-19T16:25:36.0000000+00:00</time></trkpt><trkpt lat="64.21679688" lon="-20.73397064"><ele>85.1</ele><time>2012-07-19T16:25:41.0000000+00:00</time></trkpt><trkpt lat="64.21679688" lon="-20.73397064"><ele>85.0</ele><time>2012-07-19T16:25:46.0000000+00:00</time></trkpt><trkpt lat="64.21679688" lon="-20.73397064"><ele>85.0</ele><time>2012-07-19T16:25:51.0000000+00:00</time></trkpt><trkpt lat="64.21679688" lon="-20.73400116"><ele>84.8</ele><time>2012-07-19T16:25:56.0000000+00:00</time></trkpt><trkpt lat="64.21679688" lon="-20.73400307"><ele>84.6</ele><time>2012-07-19T16:26:01.0000000+00:00</time></trkpt><trkpt lat="64.21679688" lon="-20.73400307"><ele>84.6</ele><time>2012-07-19T16:26:06.0000000+00:00</time></trkpt><trkpt lat="64.21679688" lon="-20.73399735"><ele>84.5</ele><time>2012-07-19T16:26:11.0000000+00:00</time></trkpt><trkpt lat="64.21679688" lon="-20.73399544"><ele>84.4</ele><time>2012-07-19T16:26:16.0000000+00:00</time></trkpt><trkpt lat="64.21679688" lon="-20.73399544"><ele>84.4</ele><time>2012-07-19T16:26:21.0000000+00:00</time></trkpt><trkpt lat="64.21681976" lon="-20.73409843"><ele>84.0</ele><time>2012-07-19T16:26:26.0000000+00:00</time></trkpt><trkpt lat="64.21687317" lon="-20.73416328"><ele>84.0</ele><time>2012-07-19T16:26:31.0000000+00:00</time></trkpt><trkpt lat="64.2169342" lon="-20.7341156"><ele>80.9</ele><time>2012-07-19T16:26:36.0000000+00:00</time></trkpt><trkpt lat="64.21703339" lon="-20.73408699"><ele>79.7</ele><time>2012-07-19T16:26:41.0000000+00:00</time></trkpt><trkpt lat="64.21710205" lon="-20.73399353"><ele>77.9</ele><time>2012-07-19T16:26:46.0000000+00:00</time></trkpt><trkpt lat="64.21710205" lon="-20.73390961"><ele>75.7</ele><time>2012-07-19T16:26:51.0000000+00:00</time></trkpt><trkpt lat="64.21715546" lon="-20.73389053"><ele>75.1</ele><time>2012-07-19T16:26:56.0000000+00:00</time></trkpt><trkpt lat="64.21716309" lon="-20.73388672"><ele>74.6</ele><time>2012-07-19T16:27:01.0000000+00:00</time></trkpt><trkpt lat="64.21716309" lon="-20.73388672"><ele>74.5</ele><time>2012-07-19T16:27:06.0000000+00:00</time></trkpt><trkpt lat="64.21716309" lon="-20.73388672"><ele>74.5</ele><time>2012-07-19T16:27:11.0000000+00:00</time></trkpt><trkpt lat="64.21716309" lon="-20.73388672"><ele>74.4</ele><time>2012-07-19T16:27:16.0000000+00:00</time></trkpt><trkpt lat="64.21716309" lon="-20.73388672"><ele>74.4</ele><time>2012-07-19T16:27:21.0000000+00:00</time></trkpt><trkpt lat="64.21716309" lon="-20.73388672"><ele>74.4</ele><time>2012-07-19T16:27:26.0000000+00:00</time></trkpt><trkpt lat="64.21716309" lon="-20.73388672"><ele>74.4</ele><time>2012-07-19T16:27:31.0000000+00:00</time></trkpt><trkpt lat="64.21716309" lon="-20.73388672"><ele>74.4</ele><time>2012-07-19T16:27:36.0000000+00:00</time></trkpt><trkpt lat="64.21716309" lon="-20.73388672"><ele>74.4</ele><time>2012-07-19T16:27:41.0000000+00:00</time></trkpt><trkpt lat="64.21716309" lon="-20.73388672"><ele>74.4</ele><time>2012-07-19T16:27:46.0000000+00:00</time></trkpt><trkpt lat="64.21716309" lon="-20.73388672"><ele>74.4</ele><time>2012-07-19T16:27:51.0000000+00:00</time></trkpt><trkpt lat="64.21716309" lon="-20.73388481"><ele>74.4</ele><time>2012-07-19T16:27:56.0000000+00:00</time></trkpt><trkpt lat="64.21716309" lon="-20.733881"><ele>74.4</ele><time>2012-07-19T16:28:01.0000000+00:00</time></trkpt><trkpt lat="64.21716309" lon="-20.73387909"><ele>74.4</ele><time>2012-07-19T16:28:06.0000000+00:00</time></trkpt><trkpt lat="64.21716309" lon="-20.73387718"><ele>74.4</ele><time>2012-07-19T16:28:11.0000000+00:00</time></trkpt><trkpt lat="64.21716309" lon="-20.73387909"><ele>74.5</ele><time>2012-07-19T16:28:16.0000000+00:00</time></trkpt><trkpt lat="64.21717072" lon="-20.73387909"><ele>74.5</ele><time>2012-07-19T16:28:21.0000000+00:00</time></trkpt><trkpt lat="64.21717072" lon="-20.73387718"><ele>74.5</ele><time>2012-07-19T16:28:26.0000000+00:00</time></trkpt><trkpt lat="64.21715546" lon="-20.73389816"><ele>74.6</ele><time>2012-07-19T16:28:31.0000000+00:00</time></trkpt><trkpt lat="64.21710968" lon="-20.73397255"><ele>75.0</ele><time>2012-07-19T16:28:36.0000000+00:00</time></trkpt><trkpt lat="64.21708679" lon="-20.7340107"><ele>75.7</ele><time>2012-07-19T16:28:41.0000000+00:00</time></trkpt><trkpt lat="64.21707153" lon="-20.7340107"><ele>76.4</ele><time>2012-07-19T16:28:46.0000000+00:00</time></trkpt><trkpt lat="64.21707153" lon="-20.73402023"><ele>76.6</ele><time>2012-07-19T16:28:51.0000000+00:00</time></trkpt><trkpt lat="64.21707153" lon="-20.73402023"><ele>76.7</ele><time>2012-07-19T16:28:56.0000000+00:00</time></trkpt><trkpt lat="64.21707153" lon="-20.73402214"><ele>76.8</ele><time>2012-07-19T16:29:01.0000000+00:00</time></trkpt><trkpt lat="64.21707153" lon="-20.73402214"><ele>76.8</ele><time>2012-07-19T16:29:06.0000000+00:00</time></trkpt><trkpt lat="64.21707153" lon="-20.73402596"><ele>76.9</ele><time>2012-07-19T16:29:11.0000000+00:00</time></trkpt><trkpt lat="64.21707153" lon="-20.73402596"><ele>76.8</ele><time>2012-07-19T16:29:16.0000000+00:00</time></trkpt><trkpt lat="64.21707153" lon="-20.73402596"><ele>76.8</ele><time>2012-07-19T16:29:21.0000000+00:00</time></trkpt><trkpt lat="64.21707153" lon="-20.73402405"><ele>76.8</ele><time>2012-07-19T16:29:26.0000000+00:00</time></trkpt><trkpt lat="64.21707153" lon="-20.73402405"><ele>76.8</ele><time>2012-07-19T16:29:31.0000000+00:00</time></trkpt><trkpt lat="64.21707153" lon="-20.73402405"><ele>76.8</ele><time>2012-07-19T16:29:36.0000000+00:00</time></trkpt><trkpt lat="64.21707153" lon="-20.73402405"><ele>76.8</ele><time>2012-07-19T16:29:41.0000000+00:00</time></trkpt><trkpt lat="64.21707153" lon="-20.73402405"><ele>76.7</ele><time>2012-07-19T16:29:46.0000000+00:00</time></trkpt><trkpt lat="64.21707153" lon="-20.73402405"><ele>76.8</ele><time>2012-07-19T16:29:51.0000000+00:00</time></trkpt><trkpt lat="64.21707153" lon="-20.73402405"><ele>76.7</ele><time>2012-07-19T16:29:56.0000000+00:00</time></trkpt><trkpt lat="64.21707153" lon="-20.73402405"><ele>76.7</ele><time>2012-07-19T16:30:01.0000000+00:00</time></trkpt><trkpt lat="64.21707153" lon="-20.73402405"><ele>76.7</ele><time>2012-07-19T16:30:06.0000000+00:00</time></trkpt><trkpt lat="64.21707153" lon="-20.73402405"><ele>76.7</ele><time>2012-07-19T16:30:11.0000000+00:00</time></trkpt><trkpt lat="64.21707153" lon="-20.73402214"><ele>76.7</ele><time>2012-07-19T16:30:16.0000000+00:00</time></trkpt><trkpt lat="64.21707153" lon="-20.73402214"><ele>76.7</ele><time>2012-07-19T16:30:21.0000000+00:00</time></trkpt><trkpt lat="64.21707153" lon="-20.73402023"><ele>76.7</ele><time>2012-07-19T16:30:26.0000000+00:00</time></trkpt><trkpt lat="64.21707153" lon="-20.73401642"><ele>76.7</ele><time>2012-07-19T16:30:31.0000000+00:00</time></trkpt><trkpt lat="64.21707153" lon="-20.7340126"><ele>76.6</ele><time>2012-07-19T16:30:36.0000000+00:00</time></trkpt><trkpt lat="64.21707153" lon="-20.7340126"><ele>76.6</ele><time>2012-07-19T16:30:41.0000000+00:00</time></trkpt><trkpt lat="64.21707153" lon="-20.7340126"><ele>76.6</ele><time>2012-07-19T16:30:46.0000000+00:00</time></trkpt><trkpt lat="64.21707153" lon="-20.7340126"><ele>76.6</ele><time>2012-07-19T16:30:51.0000000+00:00</time></trkpt><trkpt lat="64.21707153" lon="-20.7340126"><ele>76.6</ele><time>2012-07-19T16:30:56.0000000+00:00</time></trkpt><trkpt lat="64.21707153" lon="-20.7340126"><ele>76.6</ele><time>2012-07-19T16:31:01.0000000+00:00</time></trkpt><trkpt lat="64.21707153" lon="-20.7340126"><ele>76.6</ele><time>2012-07-19T16:31:06.0000000+00:00</time></trkpt><trkpt lat="64.21707153" lon="-20.7340126"><ele>76.6</ele><time>2012-07-19T16:31:11.0000000+00:00</time></trkpt><trkpt lat="64.21708679" lon="-20.73400307"><ele>76.4</ele><time>2012-07-19T16:31:16.0000000+00:00</time></trkpt><trkpt lat="64.21710968" lon="-20.73396111"><ele>75.4</ele><time>2012-07-19T16:31:21.0000000+00:00</time></trkpt><trkpt lat="64.21713257" lon="-20.73394775"><ele>74.9</ele><time>2012-07-19T16:31:26.0000000+00:00</time></trkpt><trkpt lat="64.21725464" lon="-20.73398972"><ele>75.2</ele><time>2012-07-19T16:31:31.0000000+00:00</time></trkpt><trkpt lat="64.21739197" lon="-20.73406029"><ele>73.7</ele><time>2012-07-19T16:31:36.0000000+00:00</time></trkpt><trkpt lat="64.21755981" lon="-20.73393059"><ele>73.3</ele><time>2012-07-19T16:31:41.0000000+00:00</time></trkpt><trkpt lat="64.21772766" lon="-20.73379898"><ele>73.3</ele><time>2012-07-19T16:31:46.0000000+00:00</time></trkpt><trkpt lat="64.2179184" lon="-20.73362732"><ele>73.0</ele><time>2012-07-19T16:31:51.0000000+00:00</time></trkpt><trkpt lat="64.21812439" lon="-20.73344612"><ele>72.4</ele><time>2012-07-19T16:31:56.0000000+00:00</time></trkpt><trkpt lat="64.21833038" lon="-20.73321343"><ele>72.3</ele><time>2012-07-19T16:32:01.0000000+00:00</time></trkpt><trkpt lat="64.21855164" lon="-20.73301697"><ele>71.8</ele><time>2012-07-19T16:32:06.0000000+00:00</time></trkpt><trkpt lat="64.21877289" lon="-20.7328434"><ele>71.1</ele><time>2012-07-19T16:32:11.0000000+00:00</time></trkpt><trkpt lat="64.21898651" lon="-20.73268127"><ele>71.4</ele><time>2012-07-19T16:32:16.0000000+00:00</time></trkpt><trkpt lat="64.21920776" lon="-20.73243332"><ele>72.3</ele><time>2012-07-19T16:32:21.0000000+00:00</time></trkpt><trkpt lat="64.21942902" lon="-20.73217201"><ele>71.6</ele><time>2012-07-19T16:32:26.0000000+00:00</time></trkpt><trkpt lat="64.21965027" lon="-20.73185349"><ele>70.8</ele><time>2012-07-19T16:32:31.0000000+00:00</time></trkpt><trkpt lat="64.21989441" lon="-20.73155022"><ele>72.0</ele><time>2012-07-19T16:32:36.0000000+00:00</time></trkpt><trkpt lat="64.22011566" lon="-20.73118973"><ele>70.2</ele><time>2012-07-19T16:32:41.0000000+00:00</time></trkpt><trkpt lat="64.22035217" lon="-20.73083305"><ele>69.8</ele><time>2012-07-19T16:32:46.0000000+00:00</time></trkpt><trkpt lat="64.22058106" lon="-20.73048973"><ele>68.6</ele><time>2012-07-19T16:32:51.0000000+00:00</time></trkpt><trkpt lat="64.22080994" lon="-20.73014641"><ele>67.8</ele><time>2012-07-19T16:32:56.0000000+00:00</time></trkpt><trkpt lat="64.22103119" lon="-20.72978973"><ele>67.1</ele><time>2012-07-19T16:33:01.0000000+00:00</time></trkpt><trkpt lat="64.2212677" lon="-20.72944069"><ele>68.5</ele><time>2012-07-19T16:33:06.0000000+00:00</time></trkpt><trkpt lat="64.22151184" lon="-20.72908974"><ele>69.1</ele><time>2012-07-19T16:33:11.0000000+00:00</time></trkpt><trkpt lat="64.22176361" lon="-20.72873116"><ele>70.9</ele><time>2012-07-19T16:33:16.0000000+00:00</time></trkpt><trkpt lat="64.22200775" lon="-20.72836113"><ele>72.4</ele><time>2012-07-19T16:33:21.0000000+00:00</time></trkpt><trkpt lat="64.22224426" lon="-20.7279911"><ele>73.5</ele><time>2012-07-19T16:33:26.0000000+00:00</time></trkpt><trkpt lat="64.22248077" lon="-20.72760773"><ele>72.4</ele><time>2012-07-19T16:33:31.0000000+00:00</time></trkpt><trkpt lat="64.22272492" lon="-20.72726059"><ele>73.5</ele><time>2012-07-19T16:33:36.0000000+00:00</time></trkpt><trkpt lat="64.22297669" lon="-20.72688103"><ele>73.2</ele><time>2012-07-19T16:33:41.0000000+00:00</time></trkpt><trkpt lat="64.22322083" lon="-20.72653389"><ele>74.2</ele><time>2012-07-19T16:33:46.0000000+00:00</time></trkpt><trkpt lat="64.22348785" lon="-20.72615433"><ele>73.1</ele><time>2012-07-19T16:33:51.0000000+00:00</time></trkpt><trkpt lat="64.22375488" lon="-20.72574616"><ele>74.0</ele><time>2012-07-19T16:33:56.0000000+00:00</time></trkpt><trkpt lat="64.22401428" lon="-20.7253685"><ele>75.1</ele><time>2012-07-19T16:34:01.0000000+00:00</time></trkpt><trkpt lat="64.22426605" lon="-20.72497559"><ele>74.7</ele><time>2012-07-19T16:34:06.0000000+00:00</time></trkpt><trkpt lat="64.22451019" lon="-20.72459602"><ele>74.5</ele><time>2012-07-19T16:34:11.0000000+00:00</time></trkpt><trkpt lat="64.22473908" lon="-20.72423172"><ele>75.0</ele><time>2012-07-19T16:34:16.0000000+00:00</time></trkpt><trkpt lat="64.22496796" lon="-20.72387886"><ele>75.6</ele><time>2012-07-19T16:34:21.0000000+00:00</time></trkpt><trkpt lat="64.22519684" lon="-20.72353554"><ele>76.6</ele><time>2012-07-19T16:34:26.0000000+00:00</time></trkpt><trkpt lat="64.22541809" lon="-20.72320747"><ele>75.6</ele><time>2012-07-19T16:34:31.0000000+00:00</time></trkpt><trkpt lat="64.22563934" lon="-20.72288322"><ele>75.4</ele><time>2012-07-19T16:34:36.0000000+00:00</time></trkpt><trkpt lat="64.2258606" lon="-20.72254753"><ele>74.6</ele><time>2012-07-19T16:34:41.0000000+00:00</time></trkpt><trkpt lat="64.22608185" lon="-20.72221756"><ele>75.8</ele><time>2012-07-19T16:34:46.0000000+00:00</time></trkpt><trkpt lat="64.22629547" lon="-20.72189713"><ele>75.0</ele><time>2012-07-19T16:34:51.0000000+00:00</time></trkpt><trkpt lat="64.22650147" lon="-20.72157478"><ele>74.9</ele><time>2012-07-19T16:34:56.0000000+00:00</time></trkpt><trkpt lat="64.22669983" lon="-20.7212925"><ele>73.5</ele><time>2012-07-19T16:35:01.0000000+00:00</time></trkpt><trkpt lat="64.22689819" lon="-20.72097778"><ele>72.9</ele><time>2012-07-19T16:35:06.0000000+00:00</time></trkpt><trkpt lat="64.22711945" lon="-20.72063446"><ele>72.7</ele><time>2012-07-19T16:35:11.0000000+00:00</time></trkpt><trkpt lat="64.22734833" lon="-20.72026825"><ele>72.0</ele><time>2012-07-19T16:35:16.0000000+00:00</time></trkpt><trkpt lat="64.22759247" lon="-20.71991539"><ele>70.2</ele><time>2012-07-19T16:35:21.0000000+00:00</time></trkpt><trkpt lat="64.22782898" lon="-20.71954536"><ele>69.7</ele><time>2012-07-19T16:35:26.0000000+00:00</time></trkpt><trkpt lat="64.22808075" lon="-20.71917152"><ele>70.5</ele><time>2012-07-19T16:35:31.0000000+00:00</time></trkpt><trkpt lat="64.22834015" lon="-20.71879387"><ele>72.8</ele><time>2012-07-19T16:35:36.0000000+00:00</time></trkpt><trkpt lat="64.22858429" lon="-20.7184124"><ele>74.4</ele><time>2012-07-19T16:35:41.0000000+00:00</time></trkpt><trkpt lat="64.22883606" lon="-20.7180233"><ele>73.7</ele><time>2012-07-19T16:35:46.0000000+00:00</time></trkpt><trkpt lat="64.2290802" lon="-20.71767044"><ele>74.1</ele><time>2012-07-19T16:35:51.0000000+00:00</time></trkpt><trkpt lat="64.22930908" lon="-20.71731758"><ele>72.9</ele><time>2012-07-19T16:35:56.0000000+00:00</time></trkpt><trkpt lat="64.22954559" lon="-20.71693802"><ele>72.0</ele><time>2012-07-19T16:36:01.0000000+00:00</time></trkpt><trkpt lat="64.22979736" lon="-20.71655273"><ele>74.3</ele><time>2012-07-19T16:36:06.0000000+00:00</time></trkpt><trkpt lat="64.23005676" lon="-20.71614456"><ele>74.8</ele><time>2012-07-19T16:36:11.0000000+00:00</time></trkpt><trkpt lat="64.23031616" lon="-20.71574974"><ele>74.8</ele><time>2012-07-19T16:36:16.0000000+00:00</time></trkpt><trkpt lat="64.23058319" lon="-20.71538544"><ele>74.0</ele><time>2012-07-19T16:36:21.0000000+00:00</time></trkpt><trkpt lat="64.23084259" lon="-20.7149868"><ele>73.2</ele><time>2012-07-19T16:36:26.0000000+00:00</time></trkpt><trkpt lat="64.23110199" lon="-20.71455574"><ele>73.4</ele><time>2012-07-19T16:36:31.0000000+00:00</time></trkpt><trkpt lat="64.23134613" lon="-20.71412087"><ele>72.2</ele><time>2012-07-19T16:36:36.0000000+00:00</time></trkpt><trkpt lat="64.2315979" lon="-20.71368027"><ele>72.5</ele><time>2012-07-19T16:36:41.0000000+00:00</time></trkpt><trkpt lat="64.23184967" lon="-20.71325684"><ele>72.1</ele><time>2012-07-19T16:36:46.0000000+00:00</time></trkpt><trkpt lat="64.23207855" lon="-20.71280098"><ele>72.7</ele><time>2012-07-19T16:36:51.0000000+00:00</time></trkpt><trkpt lat="64.23230743" lon="-20.71239281"><ele>73.5</ele><time>2012-07-19T16:36:56.0000000+00:00</time></trkpt><trkpt lat="64.2325058" lon="-20.7119751"><ele>73.0</ele><time>2012-07-19T16:37:01.0000000+00:00</time></trkpt><trkpt lat="64.2326889" lon="-20.71160507"><ele>72.2</ele><time>2012-07-19T16:37:06.0000000+00:00</time></trkpt><trkpt lat="64.23288727" lon="-20.71121407"><ele>72.9</ele><time>2012-07-19T16:37:11.0000000+00:00</time></trkpt><trkpt lat="64.23306274" lon="-20.71085167"><ele>73.3</ele><time>2012-07-19T16:37:16.0000000+00:00</time></trkpt><trkpt lat="64.23321533" lon="-20.71051025"><ele>73.5</ele><time>2012-07-19T16:37:21.0000000+00:00</time></trkpt><trkpt lat="64.23337555" lon="-20.71023178"><ele>74.2</ele><time>2012-07-19T16:37:26.0000000+00:00</time></trkpt><trkpt lat="64.23352814" lon="-20.70994568"><ele>75.3</ele><time>2012-07-19T16:37:31.0000000+00:00</time></trkpt><trkpt lat="64.23366547" lon="-20.7096653"><ele>75.6</ele><time>2012-07-19T16:37:36.0000000+00:00</time></trkpt><trkpt lat="64.23381043" lon="-20.70940781"><ele>75.8</ele><time>2012-07-19T16:37:41.0000000+00:00</time></trkpt><trkpt lat="64.23394775" lon="-20.70911598"><ele>76.4</ele><time>2012-07-19T16:37:46.0000000+00:00</time></trkpt><trkpt lat="64.23409271" lon="-20.70880127"><ele>76.8</ele><time>2012-07-19T16:37:51.0000000+00:00</time></trkpt><trkpt lat="64.23423767" lon="-20.70849228"><ele>76.9</ele><time>2012-07-19T16:37:56.0000000+00:00</time></trkpt><trkpt lat="64.23439789" lon="-20.70817947"><ele>77.4</ele><time>2012-07-19T16:38:01.0000000+00:00</time></trkpt><trkpt lat="64.23456574" lon="-20.70786858"><ele>76.4</ele><time>2012-07-19T16:38:06.0000000+00:00</time></trkpt><trkpt lat="64.23473358" lon="-20.70752144"><ele>76.3</ele><time>2012-07-19T16:38:11.0000000+00:00</time></trkpt><trkpt lat="64.23490906" lon="-20.70719528"><ele>76.8</ele><time>2012-07-19T16:38:16.0000000+00:00</time></trkpt><trkpt lat="64.23509216" lon="-20.70686722"><ele>76.5</ele><time>2012-07-19T16:38:21.0000000+00:00</time></trkpt><trkpt lat="64.23527527" lon="-20.70650864"><ele>77.8</ele><time>2012-07-19T16:38:26.0000000+00:00</time></trkpt><trkpt lat="64.235466" lon="-20.70615959"><ele>77.9</ele><time>2012-07-19T16:38:31.0000000+00:00</time></trkpt><trkpt lat="64.23563385" lon="-20.70580673"><ele>77.8</ele><time>2012-07-19T16:38:36.0000000+00:00</time></trkpt><trkpt lat="64.2358017" lon="-20.70548058"><ele>78.7</ele><time>2012-07-19T16:38:41.0000000+00:00</time></trkpt><trkpt lat="64.23596191" lon="-20.70513535"><ele>78.9</ele><time>2012-07-19T16:38:46.0000000+00:00</time></trkpt><trkpt lat="64.23612213" lon="-20.70479965"><ele>79.0</ele><time>2012-07-19T16:38:51.0000000+00:00</time></trkpt><trkpt lat="64.23631287" lon="-20.70445252"><ele>80.4</ele><time>2012-07-19T16:38:56.0000000+00:00</time></trkpt><trkpt lat="64.23647308" lon="-20.70411491"><ele>80.1</ele><time>2012-07-19T16:39:01.0000000+00:00</time></trkpt><trkpt lat="64.23664093" lon="-20.70374489"><ele>80.6</ele><time>2012-07-19T16:39:06.0000000+00:00</time></trkpt><trkpt lat="64.23682404" lon="-20.70339584"><ele>81.6</ele><time>2012-07-19T16:39:11.0000000+00:00</time></trkpt><trkpt lat="64.23696899" lon="-20.70306015"><ele>80.1</ele><time>2012-07-19T16:39:16.0000000+00:00</time></trkpt><trkpt lat="64.23713684" lon="-20.70268631"><ele>79.5</ele><time>2012-07-19T16:39:21.0000000+00:00</time></trkpt><trkpt lat="64.23731232" lon="-20.70231056"><ele>78.9</ele><time>2012-07-19T16:39:26.0000000+00:00</time></trkpt><trkpt lat="64.23749542" lon="-20.70186997"><ele>78.5</ele><time>2012-07-19T16:39:31.0000000+00:00</time></trkpt><trkpt lat="64.23767853" lon="-20.70140266"><ele>77.9</ele><time>2012-07-19T16:39:36.0000000+00:00</time></trkpt><trkpt lat="64.237854" lon="-20.70092392"><ele>77.1</ele><time>2012-07-19T16:39:41.0000000+00:00</time></trkpt><trkpt lat="64.23804474" lon="-20.70041847"><ele>76.7</ele><time>2012-07-19T16:39:46.0000000+00:00</time></trkpt><trkpt lat="64.2382431" lon="-20.69989395"><ele>76.0</ele><time>2012-07-19T16:39:51.0000000+00:00</time></trkpt><trkpt lat="64.23843384" lon="-20.69938088"><ele>75.5</ele><time>2012-07-19T16:39:56.0000000+00:00</time></trkpt><trkpt lat="64.23861694" lon="-20.69890213"><ele>75.5</ele><time>2012-07-19T16:40:01.0000000+00:00</time></trkpt><trkpt lat="64.23879242" lon="-20.69839287"><ele>75.1</ele><time>2012-07-19T16:40:06.0000000+00:00</time></trkpt><trkpt lat="64.23897553" lon="-20.69792748"><ele>75.7</ele><time>2012-07-19T16:40:11.0000000+00:00</time></trkpt><trkpt lat="64.23912811" lon="-20.69751358"><ele>76.3</ele><time>2012-07-19T16:40:16.0000000+00:00</time></trkpt><trkpt lat="64.23925018" lon="-20.69712257"><ele>76.9</ele><time>2012-07-19T16:40:21.0000000+00:00</time></trkpt><trkpt lat="64.23937988" lon="-20.69669151"><ele>76.8</ele><time>2012-07-19T16:40:26.0000000+00:00</time></trkpt><trkpt lat="64.23950195" lon="-20.69623947"><ele>76.5</ele><time>2012-07-19T16:40:31.0000000+00:00</time></trkpt><trkpt lat="64.23960877" lon="-20.69578552"><ele>76.3</ele><time>2012-07-19T16:40:36.0000000+00:00</time></trkpt><trkpt lat="64.23970795" lon="-20.69532204"><ele>76.5</ele><time>2012-07-19T16:40:41.0000000+00:00</time></trkpt><trkpt lat="64.2397995" lon="-20.69482803"><ele>76.6</ele><time>2012-07-19T16:40:46.0000000+00:00</time></trkpt><trkpt lat="64.23986816" lon="-20.69433975"><ele>75.8</ele><time>2012-07-19T16:40:51.0000000+00:00</time></trkpt><trkpt lat="64.23993683" lon="-20.69384384"><ele>75.9</ele><time>2012-07-19T16:40:56.0000000+00:00</time></trkpt><trkpt lat="64.23999023" lon="-20.69338226"><ele>76.2</ele><time>2012-07-19T16:41:01.0000000+00:00</time></trkpt><trkpt lat="64.24002075" lon="-20.6930027"><ele>76.7</ele><time>2012-07-19T16:41:06.0000000+00:00</time></trkpt><trkpt lat="64.24004364" lon="-20.69272614"><ele>77.4</ele><time>2012-07-19T16:41:11.0000000+00:00</time></trkpt><trkpt lat="64.2400589" lon="-20.69249153"><ele>80.2</ele><time>2012-07-19T16:41:16.0000000+00:00</time></trkpt><trkpt lat="64.24007416" lon="-20.69227028"><ele>82.5</ele><time>2012-07-19T16:41:21.0000000+00:00</time></trkpt><trkpt lat="64.24008179" lon="-20.69205093"><ele>83.1</ele><time>2012-07-19T16:41:26.0000000+00:00</time></trkpt><trkpt lat="64.24009705" lon="-20.69182396"><ele>84.2</ele><time>2012-07-19T16:41:31.0000000+00:00</time></trkpt><trkpt lat="64.24011993" lon="-20.69162178"><ele>85.0</ele><time>2012-07-19T16:41:36.0000000+00:00</time></trkpt><trkpt lat="64.24013519" lon="-20.69139671"><ele>85.6</ele><time>2012-07-19T16:41:41.0000000+00:00</time></trkpt><trkpt lat="64.24015808" lon="-20.69116402"><ele>87.6</ele><time>2012-07-19T16:41:46.0000000+00:00</time></trkpt><trkpt lat="64.2401886" lon="-20.69089699"><ele>86.5</ele><time>2012-07-19T16:41:51.0000000+00:00</time></trkpt><trkpt lat="64.24021149" lon="-20.69061852"><ele>87.0</ele><time>2012-07-19T16:41:56.0000000+00:00</time></trkpt><trkpt lat="64.240242" lon="-20.69036484"><ele>86.5</ele><time>2012-07-19T16:42:01.0000000+00:00</time></trkpt><trkpt lat="64.24025726" lon="-20.69013405"><ele>86.4</ele><time>2012-07-19T16:42:06.0000000+00:00</time></trkpt><trkpt lat="64.24028015" lon="-20.68989754"><ele>86.1</ele><time>2012-07-19T16:42:11.0000000+00:00</time></trkpt><trkpt lat="64.24030304" lon="-20.68969727"><ele>87.0</ele><time>2012-07-19T16:42:16.0000000+00:00</time></trkpt><trkpt lat="64.24032593" lon="-20.6894722"><ele>87.9</ele><time>2012-07-19T16:42:21.0000000+00:00</time></trkpt><trkpt lat="64.24034119" lon="-20.68922234"><ele>88.4</ele><time>2012-07-19T16:42:26.0000000+00:00</time></trkpt><trkpt lat="64.24036408" lon="-20.68896103"><ele>89.3</ele><time>2012-07-19T16:42:31.0000000+00:00</time></trkpt><trkpt lat="64.24039459" lon="-20.68869591"><ele>89.9</ele><time>2012-07-19T16:42:36.0000000+00:00</time></trkpt><trkpt lat="64.24042511" lon="-20.68839264"><ele>89.9</ele><time>2012-07-19T16:42:41.0000000+00:00</time></trkpt><trkpt lat="64.240448" lon="-20.68807793"><ele>90.4</ele><time>2012-07-19T16:42:46.0000000+00:00</time></trkpt><trkpt lat="64.24047852" lon="-20.68774986"><ele>90.4</ele><time>2012-07-19T16:42:51.0000000+00:00</time></trkpt><trkpt lat="64.2405014" lon="-20.68740463"><ele>90.5</ele><time>2012-07-19T16:42:56.0000000+00:00</time></trkpt><trkpt lat="64.24053955" lon="-20.68702316"><ele>90.8</ele><time>2012-07-19T16:43:01.0000000+00:00</time></trkpt><trkpt lat="64.2405777" lon="-20.68659592"><ele>89.8</ele><time>2012-07-19T16:43:06.0000000+00:00</time></trkpt><trkpt lat="64.24061585" lon="-20.68615913"><ele>90.5</ele><time>2012-07-19T16:43:11.0000000+00:00</time></trkpt><trkpt lat="64.24064636" lon="-20.6856842"><ele>90.6</ele><time>2012-07-19T16:43:16.0000000+00:00</time></trkpt><trkpt lat="64.24069214" lon="-20.68519402"><ele>89.7</ele><time>2012-07-19T16:43:21.0000000+00:00</time></trkpt><trkpt lat="64.24073792" lon="-20.68469048"><ele>88.0</ele><time>2012-07-19T16:43:26.0000000+00:00</time></trkpt><trkpt lat="64.24077606" lon="-20.68415451"><ele>87.9</ele><time>2012-07-19T16:43:31.0000000+00:00</time></trkpt><trkpt lat="64.24080658" lon="-20.68358421"><ele>87.7</ele><time>2012-07-19T16:43:36.0000000+00:00</time></trkpt><trkpt lat="64.24082947" lon="-20.68302918"><ele>87.3</ele><time>2012-07-19T16:43:41.0000000+00:00</time></trkpt><trkpt lat="64.24085999" lon="-20.68246841"><ele>87.3</ele><time>2012-07-19T16:43:46.0000000+00:00</time></trkpt><trkpt lat="64.24088287" lon="-20.68190384"><ele>87.0</ele><time>2012-07-19T16:43:51.0000000+00:00</time></trkpt><trkpt lat="64.24088287" lon="-20.6814003"><ele>87.1</ele><time>2012-07-19T16:43:56.0000000+00:00</time></trkpt><trkpt lat="64.2408905" lon="-20.68079376"><ele>87.9</ele><time>2012-07-19T16:44:01.0000000+00:00</time></trkpt><trkpt lat="64.2408905" lon="-20.68016243"><ele>87.3</ele><time>2012-07-19T16:44:06.0000000+00:00</time></trkpt><trkpt lat="64.24089813" lon="-20.67955399"><ele>86.3</ele><time>2012-07-19T16:44:11.0000000+00:00</time></trkpt><trkpt lat="64.24089813" lon="-20.67893791"><ele>85.7</ele><time>2012-07-19T16:44:16.0000000+00:00</time></trkpt><trkpt lat="64.24088287" lon="-20.67826843"><ele>85.4</ele><time>2012-07-19T16:44:21.0000000+00:00</time></trkpt><trkpt lat="64.24085999" lon="-20.67757797"><ele>84.5</ele><time>2012-07-19T16:44:26.0000000+00:00</time></trkpt><trkpt lat="64.24085236" lon="-20.67686272"><ele>83.4</ele><time>2012-07-19T16:44:31.0000000+00:00</time></trkpt><trkpt lat="64.24082947" lon="-20.67611122"><ele>82.2</ele><time>2012-07-19T16:44:36.0000000+00:00</time></trkpt><trkpt lat="64.24080658" lon="-20.67539978"><ele>81.7</ele><time>2012-07-19T16:44:41.0000000+00:00</time></trkpt><trkpt lat="64.24079132" lon="-20.67471123"><ele>80.6</ele><time>2012-07-19T16:44:46.0000000+00:00</time></trkpt><trkpt lat="64.24078369" lon="-20.6740284"><ele>79.8</ele><time>2012-07-19T16:44:51.0000000+00:00</time></trkpt><trkpt lat="64.2407608" lon="-20.67332649"><ele>79.8</ele><time>2012-07-19T16:44:56.0000000+00:00</time></trkpt><trkpt lat="64.24074554" lon="-20.67264748"><ele>78.2</ele><time>2012-07-19T16:45:01.0000000+00:00</time></trkpt><trkpt lat="64.24073029" lon="-20.67196846"><ele>77.3</ele><time>2012-07-19T16:45:06.0000000+00:00</time></trkpt><trkpt lat="64.2407074" lon="-20.67129707"><ele>77.3</ele><time>2012-07-19T16:45:11.0000000+00:00</time></trkpt><trkpt lat="64.24068451" lon="-20.67068672"><ele>76.8</ele><time>2012-07-19T16:45:16.0000000+00:00</time></trkpt><trkpt lat="64.24067688" lon="-20.67014504"><ele>76.9</ele><time>2012-07-19T16:45:21.0000000+00:00</time></trkpt><trkpt lat="64.24066162" lon="-20.66963577"><ele>76.8</ele><time>2012-07-19T16:45:26.0000000+00:00</time></trkpt><trkpt lat="64.24064636" lon="-20.66908455"><ele>76.6</ele><time>2012-07-19T16:45:31.0000000+00:00</time></trkpt><trkpt lat="64.2406311" lon="-20.66853333"><ele>76.8</ele><time>2012-07-19T16:45:36.0000000+00:00</time></trkpt><trkpt lat="64.24058533" lon="-20.66798592"><ele>76.8</ele><time>2012-07-19T16:45:41.0000000+00:00</time></trkpt><trkpt lat="64.24054718" lon="-20.66741753"><ele>75.9</ele><time>2012-07-19T16:45:46.0000000+00:00</time></trkpt><trkpt lat="64.24048615" lon="-20.6668663"><ele>76.1</ele><time>2012-07-19T16:45:51.0000000+00:00</time></trkpt><trkpt lat="64.24041748" lon="-20.66630554"><ele>76.2</ele><time>2012-07-19T16:45:56.0000000+00:00</time></trkpt><trkpt lat="64.24033356" lon="-20.6657505"><ele>76.6</ele><time>2012-07-19T16:46:01.0000000+00:00</time></trkpt><trkpt lat="64.240242" lon="-20.66527557"><ele>76.5</ele><time>2012-07-19T16:46:06.0000000+00:00</time></trkpt><trkpt lat="64.24015045" lon="-20.66478729"><ele>77.2</ele><time>2012-07-19T16:46:11.0000000+00:00</time></trkpt><trkpt lat="64.24006653" lon="-20.66429901"><ele>77.4</ele><time>2012-07-19T16:46:16.0000000+00:00</time></trkpt><trkpt lat="64.23998261" lon="-20.66386604"><ele>77.6</ele><time>2012-07-19T16:46:21.0000000+00:00</time></trkpt><trkpt lat="64.23989868" lon="-20.66346359"><ele>77.7</ele><time>2012-07-19T16:46:26.0000000+00:00</time></trkpt><trkpt lat="64.23980713" lon="-20.66305733"><ele>79.2</ele><time>2012-07-19T16:46:31.0000000+00:00</time></trkpt><trkpt lat="64.23973846" lon="-20.66264916"><ele>80.3</ele><time>2012-07-19T16:46:36.0000000+00:00</time></trkpt><trkpt lat="64.23967743" lon="-20.66233444"><ele>80.0</ele><time>2012-07-19T16:46:41.0000000+00:00</time></trkpt><trkpt lat="64.23963165" lon="-20.66206551"><ele>80.8</ele><time>2012-07-19T16:46:46.0000000+00:00</time></trkpt><trkpt lat="64.23959351" lon="-20.6618309"><ele>81.6</ele><time>2012-07-19T16:46:51.0000000+00:00</time></trkpt><trkpt lat="64.23954773" lon="-20.66161728"><ele>80.4</ele><time>2012-07-19T16:46:56.0000000+00:00</time></trkpt><trkpt lat="64.23949432" lon="-20.66135216"><ele>80.8</ele><time>2012-07-19T16:47:01.0000000+00:00</time></trkpt><trkpt lat="64.23944092" lon="-20.66109467"><ele>81.5</ele><time>2012-07-19T16:47:06.0000000+00:00</time></trkpt><trkpt lat="64.23937988" lon="-20.66083717"><ele>82.1</ele><time>2012-07-19T16:47:11.0000000+00:00</time></trkpt><trkpt lat="64.23932648" lon="-20.66056252"><ele>82.7</ele><time>2012-07-19T16:47:16.0000000+00:00</time></trkpt><trkpt lat="64.2392807" lon="-20.66025925"><ele>83.0</ele><time>2012-07-19T16:47:21.0000000+00:00</time></trkpt><trkpt lat="64.2392273" lon="-20.65995216"><ele>82.8</ele><time>2012-07-19T16:47:26.0000000+00:00</time></trkpt><trkpt lat="64.23915863" lon="-20.65964699"><ele>83.6</ele><time>2012-07-19T16:47:31.0000000+00:00</time></trkpt><trkpt lat="64.23908997" lon="-20.65933418"><ele>84.1</ele><time>2012-07-19T16:47:36.0000000+00:00</time></trkpt><trkpt lat="64.23902893" lon="-20.65899468"><ele>84.5</ele><time>2012-07-19T16:47:41.0000000+00:00</time></trkpt><trkpt lat="64.2389679" lon="-20.65865135"><ele>85.0</ele><time>2012-07-19T16:47:46.0000000+00:00</time></trkpt><trkpt lat="64.23890686" lon="-20.65825272"><ele>84.6</ele><time>2012-07-19T16:47:51.0000000+00:00</time></trkpt><trkpt lat="64.23883057" lon="-20.65787125"><ele>85.1</ele><time>2012-07-19T16:47:56.0000000+00:00</time></trkpt><trkpt lat="64.23873901" lon="-20.6574707"><ele>84.7</ele><time>2012-07-19T16:48:01.0000000+00:00</time></trkpt><trkpt lat="64.23865509" lon="-20.65701103"><ele>84.7</ele><time>2012-07-19T16:48:06.0000000+00:00</time></trkpt><trkpt lat="64.23856354" lon="-20.65651131"><ele>84.7</ele><time>2012-07-19T16:48:11.0000000+00:00</time></trkpt><trkpt lat="64.23847199" lon="-20.65600777"><ele>84.3</ele><time>2012-07-19T16:48:16.0000000+00:00</time></trkpt><trkpt lat="64.2383728" lon="-20.65548325"><ele>83.9</ele><time>2012-07-19T16:48:21.0000000+00:00</time></trkpt><trkpt lat="64.23826599" lon="-20.65494537"><ele>83.8</ele><time>2012-07-19T16:48:26.0000000+00:00</time></trkpt><trkpt lat="64.23815918" lon="-20.65441132"><ele>84.7</ele><time>2012-07-19T16:48:31.0000000+00:00</time></trkpt><trkpt lat="64.23806763" lon="-20.65389061"><ele>85.4</ele><time>2012-07-19T16:48:36.0000000+00:00</time></trkpt><trkpt lat="64.23797607" lon="-20.65341377"><ele>86.1</ele><time>2012-07-19T16:48:41.0000000+00:00</time></trkpt><trkpt lat="64.23788452" lon="-20.65294838"><ele>87.3</ele><time>2012-07-19T16:48:46.0000000+00:00</time></trkpt><trkpt lat="64.2378006" lon="-20.65250778"><ele>87.1</ele><time>2012-07-19T16:48:51.0000000+00:00</time></trkpt><trkpt lat="64.23770905" lon="-20.65205574"><ele>87.6</ele><time>2012-07-19T16:48:56.0000000+00:00</time></trkpt><trkpt lat="64.23762512" lon="-20.65161896"><ele>88.2</ele><time>2012-07-19T16:49:01.0000000+00:00</time></trkpt><trkpt lat="64.23755646" lon="-20.65122223"><ele>88.0</ele><time>2012-07-19T16:49:06.0000000+00:00</time></trkpt><trkpt lat="64.23747253" lon="-20.65080833"><ele>88.8</ele><time>2012-07-19T16:49:11.0000000+00:00</time></trkpt><trkpt lat="64.23738098" lon="-20.65036774"><ele>89.0</ele><time>2012-07-19T16:49:16.0000000+00:00</time></trkpt><trkpt lat="64.23728943" lon="-20.6499176"><ele>88.5</ele><time>2012-07-19T16:49:21.0000000+00:00</time></trkpt><trkpt lat="64.23720551" lon="-20.64944458"><ele>88.9</ele><time>2012-07-19T16:49:26.0000000+00:00</time></trkpt><trkpt lat="64.23712921" lon="-20.64899254"><ele>87.0</ele><time>2012-07-19T16:49:31.0000000+00:00</time></trkpt><trkpt lat="64.23703766" lon="-20.64859772"><ele>87.3</ele><time>2012-07-19T16:49:36.0000000+00:00</time></trkpt><trkpt lat="64.23695374" lon="-20.64819336"><ele>87.0</ele><time>2012-07-19T16:49:41.0000000+00:00</time></trkpt><trkpt lat="64.2368927" lon="-20.64789009"><ele>87.5</ele><time>2012-07-19T16:49:46.0000000+00:00</time></trkpt><trkpt lat="64.23685455" lon="-20.64765739"><ele>87.4</ele><time>2012-07-19T16:49:51.0000000+00:00</time></trkpt><trkpt lat="64.23681641" lon="-20.64748764"><ele>86.5</ele><time>2012-07-19T16:49:56.0000000+00:00</time></trkpt><trkpt lat="64.236763" lon="-20.64718628"><ele>86.3</ele><time>2012-07-19T16:50:01.0000000+00:00</time></trkpt><trkpt lat="64.23669434" lon="-20.64680672"><ele>86.3</ele><time>2012-07-19T16:50:06.0000000+00:00</time></trkpt><trkpt lat="64.23661041" lon="-20.64641571"><ele>86.6</ele><time>2012-07-19T16:50:11.0000000+00:00</time></trkpt><trkpt lat="64.23653412" lon="-20.64597702"><ele>86.9</ele><time>2012-07-19T16:50:16.0000000+00:00</time></trkpt><trkpt lat="64.23644257" lon="-20.64554215"><ele>88.3</ele><time>2012-07-19T16:50:21.0000000+00:00</time></trkpt><trkpt lat="64.23635864" lon="-20.64507866"><ele>88.1</ele><time>2012-07-19T16:50:26.0000000+00:00</time></trkpt><trkpt lat="64.23627472" lon="-20.64466667"><ele>88.8</ele><time>2012-07-19T16:50:31.0000000+00:00</time></trkpt><trkpt lat="64.23620606" lon="-20.64430618"><ele>89.3</ele><time>2012-07-19T16:50:36.0000000+00:00</time></trkpt><trkpt lat="64.23612213" lon="-20.64389229"><ele>89.7</ele><time>2012-07-19T16:50:41.0000000+00:00</time></trkpt><trkpt lat="64.23604584" lon="-20.64344788"><ele>90.6</ele><time>2012-07-19T16:50:46.0000000+00:00</time></trkpt><trkpt lat="64.23596191" lon="-20.6430397"><ele>91.3</ele><time>2012-07-19T16:50:51.0000000+00:00</time></trkpt><trkpt lat="64.23587799" lon="-20.64266777"><ele>91.4</ele><time>2012-07-19T16:50:56.0000000+00:00</time></trkpt><trkpt lat="64.23578644" lon="-20.64225197"><ele>91.6</ele><time>2012-07-19T16:51:01.0000000+00:00</time></trkpt><trkpt lat="64.235672" lon="-20.64185143"><ele>91.6</ele><time>2012-07-19T16:51:06.0000000+00:00</time></trkpt><trkpt lat="64.23557282" lon="-20.64148712"><ele>91.8</ele><time>2012-07-19T16:51:11.0000000+00:00</time></trkpt><trkpt lat="64.23545837" lon="-20.64108276"><ele>91.6</ele><time>2012-07-19T16:51:16.0000000+00:00</time></trkpt><trkpt lat="64.23534393" lon="-20.64068222"><ele>91.1</ele><time>2012-07-19T16:51:21.0000000+00:00</time></trkpt><trkpt lat="64.2352066" lon="-20.64029503"><ele>91.4</ele><time>2012-07-19T16:51:26.0000000+00:00</time></trkpt><trkpt lat="64.23506928" lon="-20.63991356"><ele>91.2</ele><time>2012-07-19T16:51:31.0000000+00:00</time></trkpt><trkpt lat="64.23493195" lon="-20.63957596"><ele>90.8</ele><time>2012-07-19T16:51:36.0000000+00:00</time></trkpt><trkpt lat="64.23477936" lon="-20.63920975"><ele>90.5</ele><time>2012-07-19T16:51:41.0000000+00:00</time></trkpt><trkpt lat="64.23461914" lon="-20.63884354"><ele>90.1</ele><time>2012-07-19T16:51:46.0000000+00:00</time></trkpt><trkpt lat="64.23445129" lon="-20.63847542"><ele>90.2</ele><time>2012-07-19T16:51:51.0000000+00:00</time></trkpt><trkpt lat="64.23428345" lon="-20.63813782"><ele>90.4</ele><time>2012-07-19T16:51:56.0000000+00:00</time></trkpt><trkpt lat="64.23410034" lon="-20.63779259"><ele>90.5</ele><time>2012-07-19T16:52:01.0000000+00:00</time></trkpt><trkpt lat="64.23391724" lon="-20.63743591"><ele>90.5</ele><time>2012-07-19T16:52:06.0000000+00:00</time></trkpt><trkpt lat="64.23374176" lon="-20.63717079"><ele>91.2</ele><time>2012-07-19T16:52:11.0000000+00:00</time></trkpt><trkpt lat="64.23356628" lon="-20.63696861"><ele>91.1</ele><time>2012-07-19T16:52:16.0000000+00:00</time></trkpt><trkpt lat="64.23336792" lon="-20.63672066"><ele>90.2</ele><time>2012-07-19T16:52:21.0000000+00:00</time></trkpt><trkpt lat="64.23316193" lon="-20.6364727"><ele>90.0</ele><time>2012-07-19T16:52:26.0000000+00:00</time></trkpt><trkpt lat="64.23298645" lon="-20.63625526"><ele>89.8</ele><time>2012-07-19T16:52:31.0000000+00:00</time></trkpt><trkpt lat="64.23279572" lon="-20.6360302"><ele>89.3</ele><time>2012-07-19T16:52:36.0000000+00:00</time></trkpt><trkpt lat="64.23259735" lon="-20.63575554"><ele>88.6</ele><time>2012-07-19T16:52:41.0000000+00:00</time></trkpt><trkpt lat="64.2324295" lon="-20.63553619"><ele>89.1</ele><time>2012-07-19T16:52:46.0000000+00:00</time></trkpt><trkpt lat="64.23226166" lon="-20.63532257"><ele>88.5</ele><time>2012-07-19T16:52:51.0000000+00:00</time></trkpt><trkpt lat="64.23206329" lon="-20.63507271"><ele>87.8</ele><time>2012-07-19T16:52:56.0000000+00:00</time></trkpt><trkpt lat="64.2318573" lon="-20.63480759"><ele>87.9</ele><time>2012-07-19T16:53:01.0000000+00:00</time></trkpt><trkpt lat="64.23165131" lon="-20.63460541"><ele>87.5</ele><time>2012-07-19T16:53:06.0000000+00:00</time></trkpt><trkpt lat="64.23143768" lon="-20.63440514"><ele>86.4</ele><time>2012-07-19T16:53:11.0000000+00:00</time></trkpt><trkpt lat="64.23119354" lon="-20.63422394"><ele>84.8</ele><time>2012-07-19T16:53:16.0000000+00:00</time></trkpt><trkpt lat="64.23091888" lon="-20.63403893"><ele>83.7</ele><time>2012-07-19T16:53:21.0000000+00:00</time></trkpt><trkpt lat="64.23065186" lon="-20.63393974"><ele>82.7</ele><time>2012-07-19T16:53:26.0000000+00:00</time></trkpt><trkpt lat="64.23039246" lon="-20.63386345"><ele>81.3</ele><time>2012-07-19T16:53:31.0000000+00:00</time></trkpt><trkpt lat="64.23010254" lon="-20.63380051"><ele>79.9</ele><time>2012-07-19T16:53:36.0000000+00:00</time></trkpt><trkpt lat="64.2297821" lon="-20.63372612"><ele>76.8</ele><time>2012-07-19T16:53:41.0000000+00:00</time></trkpt><trkpt lat="64.22944641" lon="-20.63368416"><ele>75.5</ele><time>2012-07-19T16:53:46.0000000+00:00</time></trkpt><trkpt lat="64.22911835" lon="-20.63363266"><ele>74.1</ele><time>2012-07-19T16:53:51.0000000+00:00</time></trkpt><trkpt lat="64.22879028" lon="-20.6336441"><ele>77.4</ele><time>2012-07-19T16:53:56.0000000+00:00</time></trkpt><trkpt lat="64.22847748" lon="-20.63356972"><ele>76.3</ele><time>2012-07-19T16:54:01.0000000+00:00</time></trkpt><trkpt lat="64.22819519" lon="-20.63352013"><ele>75.0</ele><time>2012-07-19T16:54:06.0000000+00:00</time></trkpt><trkpt lat="64.22793579" lon="-20.63345528"><ele>75.1</ele><time>2012-07-19T16:54:11.0000000+00:00</time></trkpt><trkpt lat="64.22766113" lon="-20.63341332"><ele>74.7</ele><time>2012-07-19T16:54:16.0000000+00:00</time></trkpt><trkpt lat="64.22737885" lon="-20.633358"><ele>74.3</ele><time>2012-07-19T16:54:21.0000000+00:00</time></trkpt><trkpt lat="64.22710419" lon="-20.63323212"><ele>71.6</ele><time>2012-07-19T16:54:26.0000000+00:00</time></trkpt><trkpt lat="64.22684479" lon="-20.63308144"><ele>71.8</ele><time>2012-07-19T16:54:31.0000000+00:00</time></trkpt><trkpt lat="64.22660065" lon="-20.63290024"><ele>71.7</ele><time>2012-07-19T16:54:36.0000000+00:00</time></trkpt><trkpt lat="64.2263794" lon="-20.63268089"><ele>71.9</ele><time>2012-07-19T16:54:41.0000000+00:00</time></trkpt><trkpt lat="64.22615051" lon="-20.63239861"><ele>71.8</ele><time>2012-07-19T16:54:46.0000000+00:00</time></trkpt><trkpt lat="64.22592163" lon="-20.63206673"><ele>71.8</ele><time>2012-07-19T16:54:51.0000000+00:00</time></trkpt><trkpt lat="64.22570038" lon="-20.63167381"><ele>71.6</ele><time>2012-07-19T16:54:56.0000000+00:00</time></trkpt><trkpt lat="64.22549439" lon="-20.63126564"><ele>71.4</ele><time>2012-07-19T16:55:01.0000000+00:00</time></trkpt><trkpt lat="64.22531891" lon="-20.63082123"><ele>70.9</ele><time>2012-07-19T16:55:06.0000000+00:00</time></trkpt><trkpt lat="64.22515106" lon="-20.63031578"><ele>70.7</ele><time>2012-07-19T16:55:11.0000000+00:00</time></trkpt><trkpt lat="64.2250061" lon="-20.62983894"><ele>70.4</ele><time>2012-07-19T16:55:16.0000000+00:00</time></trkpt><trkpt lat="64.22488403" lon="-20.62935066"><ele>70.1</ele><time>2012-07-19T16:55:21.0000000+00:00</time></trkpt><trkpt lat="64.22478485" lon="-20.62884712"><ele>69.5</ele><time>2012-07-19T16:55:26.0000000+00:00</time></trkpt><trkpt lat="64.2246933" lon="-20.62830353"><ele>69.4</ele><time>2012-07-19T16:55:31.0000000+00:00</time></trkpt><trkpt lat="64.224617" lon="-20.62770653"><ele>68.4</ele><time>2012-07-19T16:55:36.0000000+00:00</time></trkpt><trkpt lat="64.22457123" lon="-20.62705231"><ele>67.6</ele><time>2012-07-19T16:55:41.0000000+00:00</time></trkpt><trkpt lat="64.22454834" lon="-20.62637711"><ele>66.9</ele><time>2012-07-19T16:55:46.0000000+00:00</time></trkpt><trkpt lat="64.22455597" lon="-20.62566948"><ele>66.6</ele><time>2012-07-19T16:55:51.0000000+00:00</time></trkpt><trkpt lat="64.2245636" lon="-20.62501526"><ele>66.2</ele><time>2012-07-19T16:55:56.0000000+00:00</time></trkpt><trkpt lat="64.2245636" lon="-20.62434197"><ele>65.6</ele><time>2012-07-19T16:56:01.0000000+00:00</time></trkpt><trkpt lat="64.22452545" lon="-20.62365532"><ele>65.6</ele><time>2012-07-19T16:56:06.0000000+00:00</time></trkpt><trkpt lat="64.22445679" lon="-20.62296104"><ele>65.2</ele><time>2012-07-19T16:56:11.0000000+00:00</time></trkpt><trkpt lat="64.22437286" lon="-20.62235069"><ele>66.3</ele><time>2012-07-19T16:56:16.0000000+00:00</time></trkpt><trkpt lat="64.22426605" lon="-20.62177277"><ele>66.5</ele><time>2012-07-19T16:56:21.0000000+00:00</time></trkpt><trkpt lat="64.22412872" lon="-20.62118721"><ele>66.6</ele><time>2012-07-19T16:56:26.0000000+00:00</time></trkpt><trkpt lat="64.22400665" lon="-20.62063408"><ele>66.8</ele><time>2012-07-19T16:56:31.0000000+00:00</time></trkpt><trkpt lat="64.22389984" lon="-20.62010574"><ele>66.9</ele><time>2012-07-19T16:56:36.0000000+00:00</time></trkpt><trkpt lat="64.22377014" lon="-20.619524"><ele>66.8</ele><time>2012-07-19T16:56:41.0000000+00:00</time></trkpt><trkpt lat="64.22364807" lon="-20.61899376"><ele>66.7</ele><time>2012-07-19T16:56:46.0000000+00:00</time></trkpt><trkpt lat="64.223526" lon="-20.618433"><ele>66.5</ele><time>2012-07-19T16:56:51.0000000+00:00</time></trkpt><trkpt lat="64.22340393" lon="-20.61783218"><ele>65.1</ele><time>2012-07-19T16:56:56.0000000+00:00</time></trkpt><trkpt lat="64.22328186" lon="-20.61721802"><ele>65.0</ele><time>2012-07-19T16:57:01.0000000+00:00</time></trkpt><trkpt lat="64.22317505" lon="-20.61659813"><ele>65.2</ele><time>2012-07-19T16:57:06.0000000+00:00</time></trkpt><trkpt lat="64.22312164" lon="-20.6159687"><ele>65.0</ele><time>2012-07-19T16:57:11.0000000+00:00</time></trkpt><trkpt lat="64.22307587" lon="-20.61534882"><ele>65.3</ele><time>2012-07-19T16:57:16.0000000+00:00</time></trkpt><trkpt lat="64.22306061" lon="-20.61476135"><ele>65.3</ele><time>2012-07-19T16:57:21.0000000+00:00</time></trkpt><trkpt lat="64.22307587" lon="-20.61419106"><ele>65.4</ele><time>2012-07-19T16:57:26.0000000+00:00</time></trkpt><trkpt lat="64.22309876" lon="-20.61367607"><ele>65.8</ele><time>2012-07-19T16:57:31.0000000+00:00</time></trkpt><trkpt lat="64.22314453" lon="-20.61320496"><ele>66.4</ele><time>2012-07-19T16:57:36.0000000+00:00</time></trkpt><trkpt lat="64.22319794" lon="-20.61274338"><ele>66.7</ele><time>2012-07-19T16:57:41.0000000+00:00</time></trkpt><trkpt lat="64.22328186" lon="-20.61227608"><ele>66.9</ele><time>2012-07-19T16:57:46.0000000+00:00</time></trkpt><trkpt lat="64.22337341" lon="-20.61180687"><ele>67.5</ele><time>2012-07-19T16:57:51.0000000+00:00</time></trkpt><trkpt lat="64.2234726" lon="-20.61135292"><ele>68.2</ele><time>2012-07-19T16:57:56.0000000+00:00</time></trkpt><trkpt lat="64.22358704" lon="-20.61090088"><ele>68.7</ele><time>2012-07-19T16:58:01.0000000+00:00</time></trkpt><trkpt lat="64.22370148" lon="-20.61052322"><ele>69.4</ele><time>2012-07-19T16:58:06.0000000+00:00</time></trkpt><trkpt lat="64.22381592" lon="-20.61015701"><ele>69.6</ele><time>2012-07-19T16:58:11.0000000+00:00</time></trkpt><trkpt lat="64.22394562" lon="-20.60975456"><ele>69.4</ele><time>2012-07-19T16:58:16.0000000+00:00</time></trkpt><trkpt lat="64.22406769" lon="-20.60933304"><ele>69.9</ele><time>2012-07-19T16:58:21.0000000+00:00</time></trkpt><trkpt lat="64.22420502" lon="-20.60891151"><ele>70.4</ele><time>2012-07-19T16:58:26.0000000+00:00</time></trkpt><trkpt lat="64.22434235" lon="-20.60846901"><ele>70.9</ele><time>2012-07-19T16:58:31.0000000+00:00</time></trkpt><trkpt lat="64.22448731" lon="-20.60800171"><ele>71.5</ele><time>2012-07-19T16:58:36.0000000+00:00</time></trkpt><trkpt lat="64.22462463" lon="-20.60754204"><ele>72.1</ele><time>2012-07-19T16:58:41.0000000+00:00</time></trkpt><trkpt lat="64.22476196" lon="-20.60711098"><ele>72.5</ele><time>2012-07-19T16:58:46.0000000+00:00</time></trkpt><trkpt lat="64.22490692" lon="-20.60667229"><ele>73.3</ele><time>2012-07-19T16:58:51.0000000+00:00</time></trkpt><trkpt lat="64.22501373" lon="-20.60630989"><ele>73.9</ele><time>2012-07-19T16:58:56.0000000+00:00</time></trkpt><trkpt lat="64.22512054" lon="-20.60594368"><ele>74.6</ele><time>2012-07-19T16:59:01.0000000+00:00</time></trkpt><trkpt lat="64.2252121" lon="-20.60558319"><ele>74.1</ele><time>2012-07-19T16:59:06.0000000+00:00</time></trkpt><trkpt lat="64.22530365" lon="-20.60523796"><ele>74.4</ele><time>2012-07-19T16:59:11.0000000+00:00</time></trkpt><trkpt lat="64.2253952" lon="-20.60482979"><ele>75.0</ele><time>2012-07-19T16:59:16.0000000+00:00</time></trkpt><trkpt lat="64.22548676" lon="-20.60435104"><ele>76.1</ele><time>2012-07-19T16:59:21.0000000+00:00</time></trkpt><trkpt lat="64.22555542" lon="-20.60388756"><ele>77.5</ele><time>2012-07-19T16:59:26.0000000+00:00</time></trkpt><trkpt lat="64.22561646" lon="-20.60344696"><ele>77.0</ele><time>2012-07-19T16:59:31.0000000+00:00</time></trkpt><trkpt lat="64.22566986" lon="-20.60293198"><ele>77.2</ele><time>2012-07-19T16:59:36.0000000+00:00</time></trkpt><trkpt lat="64.22571564" lon="-20.60231972"><ele>76.7</ele><time>2012-07-19T16:59:41.0000000+00:00</time></trkpt><trkpt lat="64.22573853" lon="-20.60163689"><ele>76.2</ele><time>2012-07-19T16:59:46.0000000+00:00</time></trkpt><trkpt lat="64.22574616" lon="-20.60091591"><ele>75.0</ele><time>2012-07-19T16:59:51.0000000+00:00</time></trkpt><trkpt lat="64.2257309" lon="-20.60021973"><ele>73.9</ele><time>2012-07-19T16:59:56.0000000+00:00</time></trkpt><trkpt lat="64.22569275" lon="-20.59958077"><ele>72.9</ele><time>2012-07-19T17:00:01.0000000+00:00</time></trkpt><trkpt lat="64.2256546" lon="-20.5989151"><ele>71.6</ele><time>2012-07-19T17:00:06.0000000+00:00</time></trkpt><trkpt lat="64.22560883" lon="-20.59826851"><ele>71.1</ele><time>2012-07-19T17:00:11.0000000+00:00</time></trkpt><trkpt lat="64.22556305" lon="-20.59763718"><ele>71.0</ele><time>2012-07-19T17:00:16.0000000+00:00</time></trkpt><trkpt lat="64.22551727" lon="-20.59700012"><ele>70.3</ele><time>2012-07-19T17:00:21.0000000+00:00</time></trkpt><trkpt lat="64.2254715" lon="-20.5963707"><ele>69.9</ele><time>2012-07-19T17:00:26.0000000+00:00</time></trkpt><trkpt lat="64.22544098" lon="-20.59572792"><ele>69.2</ele><time>2012-07-19T17:00:31.0000000+00:00</time></trkpt><trkpt lat="64.22538757" lon="-20.59508133"><ele>68.8</ele><time>2012-07-19T17:00:36.0000000+00:00</time></trkpt><trkpt lat="64.22533417" lon="-20.59441376"><ele>68.7</ele><time>2012-07-19T17:00:41.0000000+00:00</time></trkpt><trkpt lat="64.22528839" lon="-20.59376526"><ele>68.1</ele><time>2012-07-19T17:00:46.0000000+00:00</time></trkpt><trkpt lat="64.22524262" lon="-20.59311867"><ele>68.1</ele><time>2012-07-19T17:00:51.0000000+00:00</time></trkpt><trkpt lat="64.22519684" lon="-20.59256554"><ele>68.2</ele><time>2012-07-19T17:00:56.0000000+00:00</time></trkpt><trkpt lat="64.22515869" lon="-20.59207726"><ele>68.0</ele><time>2012-07-19T17:01:01.0000000+00:00</time></trkpt><trkpt lat="64.22512054" lon="-20.59158897"><ele>68.1</ele><time>2012-07-19T17:01:06.0000000+00:00</time></trkpt><trkpt lat="64.2250824" lon="-20.59113693"><ele>68.4</ele><time>2012-07-19T17:01:11.0000000+00:00</time></trkpt><trkpt lat="64.22505188" lon="-20.59068108"><ele>70.1</ele><time>2012-07-19T17:01:16.0000000+00:00</time></trkpt><trkpt lat="64.22501373" lon="-20.59022141"><ele>70.3</ele><time>2012-07-19T17:01:21.0000000+00:00</time></trkpt><trkpt lat="64.22499847" lon="-20.58978272"><ele>70.5</ele><time>2012-07-19T17:01:26.0000000+00:00</time></trkpt><trkpt lat="64.22496796" lon="-20.58936501"><ele>70.6</ele><time>2012-07-19T17:01:31.0000000+00:00</time></trkpt><trkpt lat="64.22492981" lon="-20.58895111"><ele>70.9</ele><time>2012-07-19T17:01:36.0000000+00:00</time></trkpt><trkpt lat="64.22489166" lon="-20.58852768"><ele>71.5</ele><time>2012-07-19T17:01:41.0000000+00:00</time></trkpt><trkpt lat="64.22486115" lon="-20.58812714"><ele>71.8</ele><time>2012-07-19T17:01:46.0000000+00:00</time></trkpt><trkpt lat="64.22483826" lon="-20.58774757"><ele>72.0</ele><time>2012-07-19T17:01:51.0000000+00:00</time></trkpt><trkpt lat="64.22480011" lon="-20.58736801"><ele>73.5</ele><time>2012-07-19T17:01:56.0000000+00:00</time></trkpt><trkpt lat="64.22477722" lon="-20.58695793"><ele>73.4</ele><time>2012-07-19T17:02:01.0000000+00:00</time></trkpt><trkpt lat="64.2247467" lon="-20.58655167"><ele>73.6</ele><time>2012-07-19T17:02:06.0000000+00:00</time></trkpt><trkpt lat="64.22472382" lon="-20.5861721"><ele>73.2</ele><time>2012-07-19T17:02:11.0000000+00:00</time></trkpt><trkpt lat="64.22470093" lon="-20.58579826"><ele>73.4</ele><time>2012-07-19T17:02:16.0000000+00:00</time></trkpt><trkpt lat="64.22466278" lon="-20.58544731"><ele>74.7</ele><time>2012-07-19T17:02:21.0000000+00:00</time></trkpt><trkpt lat="64.22465515" lon="-20.58504868"><ele>74.9</ele><time>2012-07-19T17:02:26.0000000+00:00</time></trkpt><trkpt lat="64.22463226" lon="-20.58463669"><ele>75.0</ele><time>2012-07-19T17:02:31.0000000+00:00</time></trkpt><trkpt lat="64.22462463" lon="-20.58421326"><ele>75.3</ele><time>2012-07-19T17:02:36.0000000+00:00</time></trkpt><trkpt lat="64.22460938" lon="-20.58374977"><ele>75.5</ele><time>2012-07-19T17:02:41.0000000+00:00</time></trkpt><trkpt lat="64.22460175" lon="-20.58322907"><ele>75.5</ele><time>2012-07-19T17:02:46.0000000+00:00</time></trkpt><trkpt lat="64.22460175" lon="-20.58269119"><ele>75.3</ele><time>2012-07-19T17:02:51.0000000+00:00</time></trkpt><trkpt lat="64.22460938" lon="-20.58216286"><ele>74.5</ele><time>2012-07-19T17:02:56.0000000+00:00</time></trkpt><trkpt lat="64.22462463" lon="-20.58157539"><ele>73.9</ele><time>2012-07-19T17:03:01.0000000+00:00</time></trkpt><trkpt lat="64.22463989" lon="-20.58097458"><ele>73.8</ele><time>2012-07-19T17:03:06.0000000+00:00</time></trkpt><trkpt lat="64.22466278" lon="-20.58043671"><ele>73.9</ele><time>2012-07-19T17:03:11.0000000+00:00</time></trkpt><trkpt lat="64.2246933" lon="-20.57989502"><ele>75.4</ele><time>2012-07-19T17:03:16.0000000+00:00</time></trkpt><trkpt lat="64.22473908" lon="-20.57928467"><ele>75.4</ele><time>2012-07-19T17:03:21.0000000+00:00</time></trkpt><trkpt lat="64.22478485" lon="-20.57868004"><ele>74.5</ele><time>2012-07-19T17:03:26.0000000+00:00</time></trkpt><trkpt lat="64.22484589" lon="-20.57811356"><ele>75.1</ele><time>2012-07-19T17:03:31.0000000+00:00</time></trkpt><trkpt lat="64.22489929" lon="-20.57756233"><ele>75.9</ele><time>2012-07-19T17:03:36.0000000+00:00</time></trkpt><trkpt lat="64.22496033" lon="-20.57703972"><ele>77.3</ele><time>2012-07-19T17:03:41.0000000+00:00</time></trkpt><trkpt lat="64.22502899" lon="-20.57653046"><ele>77.2</ele><time>2012-07-19T17:03:46.0000000+00:00</time></trkpt><trkpt lat="64.22511292" lon="-20.57600975"><ele>75.8</ele><time>2012-07-19T17:03:51.0000000+00:00</time></trkpt><trkpt lat="64.22519684" lon="-20.57555389"><ele>76.5</ele><time>2012-07-19T17:03:56.0000000+00:00</time></trkpt><trkpt lat="64.22528839" lon="-20.57512665"><ele>78.0</ele><time>2012-07-19T17:04:01.0000000+00:00</time></trkpt><trkpt lat="64.22537231" lon="-20.5747242"><ele>79.7</ele><time>2012-07-19T17:04:06.0000000+00:00</time></trkpt><trkpt lat="64.22547913" lon="-20.57429886"><ele>79.1</ele><time>2012-07-19T17:04:11.0000000+00:00</time></trkpt><trkpt lat="64.22557068" lon="-20.57393074"><ele>80.3</ele><time>2012-07-19T17:04:16.0000000+00:00</time></trkpt><trkpt lat="64.22568512" lon="-20.5735569"><ele>81.0</ele><time>2012-07-19T17:04:21.0000000+00:00</time></trkpt><trkpt lat="64.22581482" lon="-20.57318306"><ele>81.3</ele><time>2012-07-19T17:04:26.0000000+00:00</time></trkpt><trkpt lat="64.22594452" lon="-20.57280159"><ele>81.1</ele><time>2012-07-19T17:04:31.0000000+00:00</time></trkpt><trkpt lat="64.22608185" lon="-20.57242012"><ele>80.5</ele><time>2012-07-19T17:04:36.0000000+00:00</time></trkpt><trkpt lat="64.22623444" lon="-20.57206345"><ele>81.2</ele><time>2012-07-19T17:04:41.0000000+00:00</time></trkpt><trkpt lat="64.22640228" lon="-20.57174683"><ele>81.9</ele><time>2012-07-19T17:04:46.0000000+00:00</time></trkpt><trkpt lat="64.22657013" lon="-20.57143784"><ele>82.5</ele><time>2012-07-19T17:04:51.0000000+00:00</time></trkpt><trkpt lat="64.22675324" lon="-20.57112885"><ele>82.1</ele><time>2012-07-19T17:04:56.0000000+00:00</time></trkpt><trkpt lat="64.22694397" lon="-20.5708313"><ele>82.4</ele><time>2012-07-19T17:05:01.0000000+00:00</time></trkpt><trkpt lat="64.22714233" lon="-20.57056236"><ele>82.2</ele><time>2012-07-19T17:05:06.0000000+00:00</time></trkpt><trkpt lat="64.2273407" lon="-20.57030678"><ele>81.9</ele><time>2012-07-19T17:05:11.0000000+00:00</time></trkpt><trkpt lat="64.22755432" lon="-20.57008171"><ele>81.7</ele><time>2012-07-19T17:05:16.0000000+00:00</time></trkpt><trkpt lat="64.22776794" lon="-20.56983948"><ele>82.3</ele><time>2012-07-19T17:05:21.0000000+00:00</time></trkpt><trkpt lat="64.2279892" lon="-20.56961632"><ele>82.4</ele><time>2012-07-19T17:05:26.0000000+00:00</time></trkpt><trkpt lat="64.2281723" lon="-20.56941032"><ele>82.0</ele><time>2012-07-19T17:05:31.0000000+00:00</time></trkpt><trkpt lat="64.2283783" lon="-20.56917"><ele>81.5</ele><time>2012-07-19T17:05:36.0000000+00:00</time></trkpt><trkpt lat="64.22859192" lon="-20.56893921"><ele>81.3</ele><time>2012-07-19T17:05:41.0000000+00:00</time></trkpt><trkpt lat="64.22879791" lon="-20.56871605"><ele>81.3</ele><time>2012-07-19T17:05:46.0000000+00:00</time></trkpt><trkpt lat="64.22902679" lon="-20.56846619"><ele>82.7</ele><time>2012-07-19T17:05:51.0000000+00:00</time></trkpt><trkpt lat="64.22924042" lon="-20.56819344"><ele>82.5</ele><time>2012-07-19T17:05:56.0000000+00:00</time></trkpt><trkpt lat="64.22946167" lon="-20.56791115"><ele>82.4</ele><time>2012-07-19T17:06:01.0000000+00:00</time></trkpt><trkpt lat="64.22967529" lon="-20.56760597"><ele>81.5</ele><time>2012-07-19T17:06:06.0000000+00:00</time></trkpt><trkpt lat="64.22990418" lon="-20.56730461"><ele>81.5</ele><time>2012-07-19T17:06:11.0000000+00:00</time></trkpt><trkpt lat="64.23014069" lon="-20.56698227"><ele>81.3</ele><time>2012-07-19T17:06:16.0000000+00:00</time></trkpt><trkpt lat="64.23035431" lon="-20.56666946"><ele>80.7</ele><time>2012-07-19T17:06:21.0000000+00:00</time></trkpt><trkpt lat="64.23059082" lon="-20.56631088"><ele>80.6</ele><time>2012-07-19T17:06:26.0000000+00:00</time></trkpt><trkpt lat="64.23082733" lon="-20.56593895"><ele>80.9</ele><time>2012-07-19T17:06:31.0000000+00:00</time></trkpt><trkpt lat="64.23106384" lon="-20.56556892"><ele>81.3</ele><time>2012-07-19T17:06:36.0000000+00:00</time></trkpt><trkpt lat="64.23132324" lon="-20.56516647"><ele>81.0</ele><time>2012-07-19T17:06:41.0000000+00:00</time></trkpt><trkpt lat="64.23155975" lon="-20.56475258"><ele>80.8</ele><time>2012-07-19T17:06:46.0000000+00:00</time></trkpt><trkpt lat="64.23180389" lon="-20.56432152"><ele>81.5</ele><time>2012-07-19T17:06:51.0000000+00:00</time></trkpt><trkpt lat="64.23202515" lon="-20.56389237"><ele>80.9</ele><time>2012-07-19T17:06:56.0000000+00:00</time></trkpt><trkpt lat="64.23222351" lon="-20.56349754"><ele>80.6</ele><time>2012-07-19T17:07:01.0000000+00:00</time></trkpt><trkpt lat="64.23244476" lon="-20.56306839"><ele>80.7</ele><time>2012-07-19T17:07:06.0000000+00:00</time></trkpt><trkpt lat="64.23266602" lon="-20.56261444"><ele>80.7</ele><time>2012-07-19T17:07:11.0000000+00:00</time></trkpt><trkpt lat="64.23290253" lon="-20.56217194"><ele>81.7</ele><time>2012-07-19T17:07:16.0000000+00:00</time></trkpt><trkpt lat="64.23313904" lon="-20.56172562"><ele>82.5</ele><time>2012-07-19T17:07:21.0000000+00:00</time></trkpt><trkpt lat="64.23335266" lon="-20.56130028"><ele>83.1</ele><time>2012-07-19T17:07:26.0000000+00:00</time></trkpt><trkpt lat="64.23356628" lon="-20.56088257"><ele>84.1</ele><time>2012-07-19T17:07:31.0000000+00:00</time></trkpt><trkpt lat="64.23374939" lon="-20.56052017"><ele>84.1</ele><time>2012-07-19T17:07:36.0000000+00:00</time></trkpt><trkpt lat="64.23391724" lon="-20.56019783"><ele>84.8</ele><time>2012-07-19T17:07:41.0000000+00:00</time></trkpt><trkpt lat="64.23410034" lon="-20.55987358"><ele>86.1</ele><time>2012-07-19T17:07:46.0000000+00:00</time></trkpt><trkpt lat="64.23426819" lon="-20.559515"><ele>85.5</ele><time>2012-07-19T17:07:51.0000000+00:00</time></trkpt><trkpt lat="64.23443604" lon="-20.5592041"><ele>85.8</ele><time>2012-07-19T17:07:56.0000000+00:00</time></trkpt><trkpt lat="64.23458099" lon="-20.55888939"><ele>85.4</ele><time>2012-07-19T17:08:01.0000000+00:00</time></trkpt><trkpt lat="64.23473358" lon="-20.55860901"><ele>85.7</ele><time>2012-07-19T17:08:06.0000000+00:00</time></trkpt><trkpt lat="64.23487854" lon="-20.55834007"><ele>86.0</ele><time>2012-07-19T17:08:11.0000000+00:00</time></trkpt><trkpt lat="64.23503876" lon="-20.55809593"><ele>87.9</ele><time>2012-07-19T17:08:16.0000000+00:00</time></trkpt><trkpt lat="64.23517609" lon="-20.55784607"><ele>88.4</ele><time>2012-07-19T17:08:21.0000000+00:00</time></trkpt><trkpt lat="64.23530579" lon="-20.5575943"><ele>89.1</ele><time>2012-07-19T17:08:26.0000000+00:00</time></trkpt><trkpt lat="64.23543549" lon="-20.5573597"><ele>89.4</ele><time>2012-07-19T17:08:31.0000000+00:00</time></trkpt><trkpt lat="64.23558807" lon="-20.55709457"><ele>89.8</ele><time>2012-07-19T17:08:36.0000000+00:00</time></trkpt><trkpt lat="64.23571014" lon="-20.55680084"><ele>87.8</ele><time>2012-07-19T17:08:41.0000000+00:00</time></trkpt><trkpt lat="64.2358551" lon="-20.55654526"><ele>87.5</ele><time>2012-07-19T17:08:46.0000000+00:00</time></trkpt><trkpt lat="64.23600006" lon="-20.55628967"><ele>87.8</ele><time>2012-07-19T17:08:51.0000000+00:00</time></trkpt><trkpt lat="64.23612976" lon="-20.55605888"><ele>88.2</ele><time>2012-07-19T17:08:56.0000000+00:00</time></trkpt><trkpt lat="64.23627472" lon="-20.55580711"><ele>88.9</ele><time>2012-07-19T17:09:01.0000000+00:00</time></trkpt><trkpt lat="64.23640442" lon="-20.55557632"><ele>88.9</ele><time>2012-07-19T17:09:06.0000000+00:00</time></trkpt><trkpt lat="64.23655701" lon="-20.55533981"><ele>90.4</ele><time>2012-07-19T17:09:11.0000000+00:00</time></trkpt><trkpt lat="64.23669434" lon="-20.55508423"><ele>90.9</ele><time>2012-07-19T17:09:16.0000000+00:00</time></trkpt><trkpt lat="64.23683167" lon="-20.55483818"><ele>91.6</ele><time>2012-07-19T17:09:21.0000000+00:00</time></trkpt><trkpt lat="64.23698425" lon="-20.55456924"><ele>92.5</ele><time>2012-07-19T17:09:26.0000000+00:00</time></trkpt><trkpt lat="64.23713684" lon="-20.55429649"><ele>93.0</ele><time>2012-07-19T17:09:31.0000000+00:00</time></trkpt><trkpt lat="64.23729706" lon="-20.55402184"><ele>93.6</ele><time>2012-07-19T17:09:36.0000000+00:00</time></trkpt><trkpt lat="64.23748016" lon="-20.5537262"><ele>94.6</ele><time>2012-07-19T17:09:41.0000000+00:00</time></trkpt><trkpt lat="64.23764038" lon="-20.55341721"><ele>94.9</ele><time>2012-07-19T17:09:46.0000000+00:00</time></trkpt><trkpt lat="64.23780823" lon="-20.55310059"><ele>94.7</ele><time>2012-07-19T17:09:51.0000000+00:00</time></trkpt><trkpt lat="64.23799133" lon="-20.55277252"><ele>94.3</ele><time>2012-07-19T17:09:56.0000000+00:00</time></trkpt><trkpt lat="64.23817444" lon="-20.55239868"><ele>94.0</ele><time>2012-07-19T17:10:01.0000000+00:00</time></trkpt><trkpt lat="64.23835754" lon="-20.55201149"><ele>93.9</ele><time>2012-07-19T17:10:06.0000000+00:00</time></trkpt><trkpt lat="64.23853302" lon="-20.55156517"><ele>93.4</ele><time>2012-07-19T17:10:11.0000000+00:00</time></trkpt><trkpt lat="64.23872376" lon="-20.55105209"><ele>93.3</ele><time>2012-07-19T17:10:16.0000000+00:00</time></trkpt><trkpt lat="64.23890686" lon="-20.55047035"><ele>93.1</ele><time>2012-07-19T17:10:21.0000000+00:00</time></trkpt><trkpt lat="64.23906708" lon="-20.54985809"><ele>91.6</ele><time>2012-07-19T17:10:26.0000000+00:00</time></trkpt><trkpt lat="64.23923492" lon="-20.54917145"><ele>90.2</ele><time>2012-07-19T17:10:31.0000000+00:00</time></trkpt><trkpt lat="64.239357" lon="-20.54842758"><ele>88.3</ele><time>2012-07-19T17:10:36.0000000+00:00</time></trkpt><trkpt lat="64.23946381" lon="-20.54766083"><ele>86.4</ele><time>2012-07-19T17:10:41.0000000+00:00</time></trkpt><trkpt lat="64.23954773" lon="-20.54693222"><ele>86.0</ele><time>2012-07-19T17:10:46.0000000+00:00</time></trkpt><trkpt lat="64.23960877" lon="-20.54621124"><ele>86.0</ele><time>2012-07-19T17:10:51.0000000+00:00</time></trkpt><trkpt lat="64.23964691" lon="-20.54546738"><ele>85.3</ele><time>2012-07-19T17:10:56.0000000+00:00</time></trkpt><trkpt lat="64.23967743" lon="-20.54475594"><ele>84.9</ele><time>2012-07-19T17:11:01.0000000+00:00</time></trkpt><trkpt lat="64.23968506" lon="-20.54405022"><ele>84.6</ele><time>2012-07-19T17:11:06.0000000+00:00</time></trkpt><trkpt lat="64.23969269" lon="-20.54336548"><ele>84.3</ele><time>2012-07-19T17:11:11.0000000+00:00</time></trkpt><trkpt lat="64.23969269" lon="-20.54269218"><ele>84.3</ele><time>2012-07-19T17:11:16.0000000+00:00</time></trkpt><trkpt lat="64.23970032" lon="-20.54201889"><ele>84.1</ele><time>2012-07-19T17:11:21.0000000+00:00</time></trkpt><trkpt lat="64.23970032" lon="-20.54137421"><ele>84.1</ele><time>2012-07-19T17:11:26.0000000+00:00</time></trkpt><trkpt lat="64.23970795" lon="-20.54071617"><ele>83.8</ele><time>2012-07-19T17:11:31.0000000+00:00</time></trkpt><trkpt lat="64.23971558" lon="-20.5400734"><ele>84.0</ele><time>2012-07-19T17:11:36.0000000+00:00</time></trkpt><trkpt lat="64.23972321" lon="-20.53943634"><ele>83.9</ele><time>2012-07-19T17:11:41.0000000+00:00</time></trkpt><trkpt lat="64.23973084" lon="-20.53877449"><ele>83.8</ele><time>2012-07-19T17:11:46.0000000+00:00</time></trkpt><trkpt lat="64.23973846" lon="-20.53812599"><ele>83.6</ele><time>2012-07-19T17:11:51.0000000+00:00</time></trkpt><trkpt lat="64.23974609" lon="-20.53752899"><ele>83.2</ele><time>2012-07-19T17:11:56.0000000+00:00</time></trkpt><trkpt lat="64.23974609" lon="-20.53691864"><ele>82.9</ele><time>2012-07-19T17:12:01.0000000+00:00</time></trkpt><trkpt lat="64.23975372" lon="-20.53627396"><ele>82.6</ele><time>2012-07-19T17:12:06.0000000+00:00</time></trkpt><trkpt lat="64.23976135" lon="-20.5356102"><ele>82.2</ele><time>2012-07-19T17:12:11.0000000+00:00</time></trkpt><trkpt lat="64.23976898" lon="-20.5349617"><ele>82.0</ele><time>2012-07-19T17:12:16.0000000+00:00</time></trkpt><trkpt lat="64.23976898" lon="-20.53432274"><ele>81.6</ele><time>2012-07-19T17:12:21.0000000+00:00</time></trkpt><trkpt lat="64.23977661" lon="-20.53368568"><ele>81.7</ele><time>2012-07-19T17:12:26.0000000+00:00</time></trkpt><trkpt lat="64.23978424" lon="-20.53306961"><ele>81.5</ele><time>2012-07-19T17:12:31.0000000+00:00</time></trkpt><trkpt lat="64.23979187" lon="-20.5324707"><ele>81.5</ele><time>2012-07-19T17:12:36.0000000+00:00</time></trkpt><trkpt lat="64.2397995" lon="-20.53188133"><ele>81.8</ele><time>2012-07-19T17:12:41.0000000+00:00</time></trkpt><trkpt lat="64.2397995" lon="-20.53129196"><ele>81.9</ele><time>2012-07-19T17:12:46.0000000+00:00</time></trkpt><trkpt lat="64.23981476" lon="-20.53072548"><ele>82.0</ele><time>2012-07-19T17:12:51.0000000+00:00</time></trkpt><trkpt lat="64.23981476" lon="-20.5301609"><ele>82.1</ele><time>2012-07-19T17:12:56.0000000+00:00</time></trkpt><trkpt lat="64.23981476" lon="-20.52957916"><ele>82.1</ele><time>2012-07-19T17:13:01.0000000+00:00</time></trkpt><trkpt lat="64.23981476" lon="-20.52900505"><ele>82.4</ele><time>2012-07-19T17:13:06.0000000+00:00</time></trkpt><trkpt lat="64.23983002" lon="-20.52843666"><ele>82.1</ele><time>2012-07-19T17:13:11.0000000+00:00</time></trkpt><trkpt lat="64.23983002" lon="-20.52783394"><ele>82.4</ele><time>2012-07-19T17:13:16.0000000+00:00</time></trkpt><trkpt lat="64.23983765" lon="-20.5272522"><ele>82.5</ele><time>2012-07-19T17:13:21.0000000+00:00</time></trkpt><trkpt lat="64.23984528" lon="-20.52667236"><ele>82.4</ele><time>2012-07-19T17:13:26.0000000+00:00</time></trkpt><trkpt lat="64.23984528" lon="-20.52610016"><ele>83.0</ele><time>2012-07-19T17:13:31.0000000+00:00</time></trkpt><trkpt lat="64.23984528" lon="-20.52562332"><ele>83.3</ele><time>2012-07-19T17:13:36.0000000+00:00</time></trkpt><trkpt lat="64.23985291" lon="-20.52531242"><ele>83.4</ele><time>2012-07-19T17:13:41.0000000+00:00</time></trkpt><trkpt lat="64.23985291" lon="-20.52522278"><ele>83.2</ele><time>2012-07-19T17:13:46.0000000+00:00</time></trkpt><trkpt lat="64.23985291" lon="-20.52521896"><ele>83.2</ele><time>2012-07-19T17:13:51.0000000+00:00</time></trkpt><trkpt lat="64.23985291" lon="-20.52521896"><ele>83.2</ele><time>2012-07-19T17:13:56.0000000+00:00</time></trkpt><trkpt lat="64.23985291" lon="-20.52522278"><ele>83.2</ele><time>2012-07-19T17:14:01.0000000+00:00</time></trkpt><trkpt lat="64.23985291" lon="-20.52522087"><ele>83.3</ele><time>2012-07-19T17:14:06.0000000+00:00</time></trkpt><trkpt lat="64.23985291" lon="-20.52522278"><ele>83.3</ele><time>2012-07-19T17:14:11.0000000+00:00</time></trkpt><trkpt lat="64.23985291" lon="-20.52522278"><ele>83.2</ele><time>2012-07-19T17:14:16.0000000+00:00</time></trkpt><trkpt lat="64.23985291" lon="-20.52522278"><ele>83.2</ele><time>2012-07-19T17:14:21.0000000+00:00</time></trkpt><trkpt lat="64.23985291" lon="-20.52522278"><ele>83.2</ele><time>2012-07-19T17:14:26.0000000+00:00</time></trkpt><trkpt lat="64.23985291" lon="-20.52522278"><ele>83.2</ele><time>2012-07-19T17:14:31.0000000+00:00</time></trkpt><trkpt lat="64.23985291" lon="-20.52522278"><ele>83.2</ele><time>2012-07-19T17:14:36.0000000+00:00</time></trkpt><trkpt lat="64.23985291" lon="-20.52522278"><ele>83.2</ele><time>2012-07-19T17:14:41.0000000+00:00</time></trkpt><trkpt lat="64.23985291" lon="-20.52522278"><ele>83.2</ele><time>2012-07-19T17:14:46.0000000+00:00</time></trkpt><trkpt lat="64.23985291" lon="-20.52522278"><ele>83.2</ele><time>2012-07-19T17:14:51.0000000+00:00</time></trkpt><trkpt lat="64.23985291" lon="-20.52522278"><ele>83.2</ele><time>2012-07-19T17:14:56.0000000+00:00</time></trkpt><trkpt lat="64.23985291" lon="-20.52522469"><ele>83.2</ele><time>2012-07-19T17:15:01.0000000+00:00</time></trkpt><trkpt lat="64.23985291" lon="-20.52521133"><ele>83.2</ele><time>2012-07-19T17:15:06.0000000+00:00</time></trkpt><trkpt lat="64.23986054" lon="-20.52485085"><ele>82.7</ele><time>2012-07-19T17:15:11.0000000+00:00</time></trkpt><trkpt lat="64.23986816" lon="-20.52440262"><ele>82.4</ele><time>2012-07-19T17:15:16.0000000+00:00</time></trkpt><trkpt lat="64.23987579" lon="-20.52386856"><ele>82.8</ele><time>2012-07-19T17:15:21.0000000+00:00</time></trkpt><trkpt lat="64.23987579" lon="-20.52332115"><ele>83.0</ele><time>2012-07-19T17:15:26.0000000+00:00</time></trkpt><trkpt lat="64.23987579" lon="-20.5227375"><ele>83.0</ele><time>2012-07-19T17:15:31.0000000+00:00</time></trkpt><trkpt lat="64.23989105" lon="-20.52217293"><ele>83.6</ele><time>2012-07-19T17:15:36.0000000+00:00</time></trkpt><trkpt lat="64.23989105" lon="-20.5216198"><ele>84.6</ele><time>2012-07-19T17:15:41.0000000+00:00</time></trkpt><trkpt lat="64.23990631" lon="-20.52102852"><ele>84.4</ele><time>2012-07-19T17:15:46.0000000+00:00</time></trkpt><trkpt lat="64.23992157" lon="-20.52045631"><ele>84.7</ele><time>2012-07-19T17:15:51.0000000+00:00</time></trkpt><trkpt lat="64.2399292" lon="-20.51991844"><ele>84.6</ele><time>2012-07-19T17:15:56.0000000+00:00</time></trkpt><trkpt lat="64.23995209" lon="-20.51934242"><ele>85.0</ele><time>2012-07-19T17:16:01.0000000+00:00</time></trkpt><trkpt lat="64.23996735" lon="-20.51878357"><ele>85.2</ele><time>2012-07-19T17:16:06.0000000+00:00</time></trkpt><trkpt lat="64.23999023" lon="-20.51821518"><ele>85.5</ele><time>2012-07-19T17:16:11.0000000+00:00</time></trkpt><trkpt lat="64.24002075" lon="-20.51762199"><ele>85.5</ele><time>2012-07-19T17:16:16.0000000+00:00</time></trkpt><trkpt lat="64.24006653" lon="-20.51702118"><ele>85.2</ele><time>2012-07-19T17:16:21.0000000+00:00</time></trkpt><trkpt lat="64.24011231" lon="-20.51647186"><ele>85.4</ele><time>2012-07-19T17:16:26.0000000+00:00</time></trkpt><trkpt lat="64.24017334" lon="-20.51587677"><ele>85.5</ele><time>2012-07-19T17:16:31.0000000+00:00</time></trkpt><trkpt lat="64.24022675" lon="-20.51527596"><ele>85.3</ele><time>2012-07-19T17:16:36.0000000+00:00</time></trkpt><trkpt lat="64.24028778" lon="-20.51473236"><ele>85.8</ele><time>2012-07-19T17:16:41.0000000+00:00</time></trkpt><trkpt lat="64.24033356" lon="-20.51433182"><ele>86.1</ele><time>2012-07-19T17:16:46.0000000+00:00</time></trkpt><trkpt lat="64.2403717" lon="-20.51398087"><ele>86.0</ele><time>2012-07-19T17:16:51.0000000+00:00</time></trkpt><trkpt lat="64.24043274" lon="-20.51356697"><ele>86.1</ele><time>2012-07-19T17:16:56.0000000+00:00</time></trkpt><trkpt lat="64.2405014" lon="-20.5130806"><ele>85.7</ele><time>2012-07-19T17:17:01.0000000+00:00</time></trkpt><trkpt lat="64.24057007" lon="-20.51259041"><ele>85.6</ele><time>2012-07-19T17:17:06.0000000+00:00</time></trkpt><trkpt lat="64.24064636" lon="-20.51209641"><ele>85.5</ele><time>2012-07-19T17:17:11.0000000+00:00</time></trkpt><trkpt lat="64.24073792" lon="-20.51158905"><ele>85.9</ele><time>2012-07-19T17:17:16.0000000+00:00</time></trkpt><trkpt lat="64.2408371" lon="-20.51108933"><ele>86.0</ele><time>2012-07-19T17:17:21.0000000+00:00</time></trkpt><trkpt lat="64.24091339" lon="-20.51069069"><ele>86.8</ele><time>2012-07-19T17:17:26.0000000+00:00</time></trkpt><trkpt lat="64.2410202" lon="-20.5102272"><ele>87.0</ele><time>2012-07-19T17:17:31.0000000+00:00</time></trkpt><trkpt lat="64.24110413" lon="-20.50978279"><ele>86.7</ele><time>2012-07-19T17:17:36.0000000+00:00</time></trkpt><trkpt lat="64.24120331" lon="-20.50931168"><ele>86.2</ele><time>2012-07-19T17:17:41.0000000+00:00</time></trkpt><trkpt lat="64.24133301" lon="-20.50880241"><ele>87.3</ele><time>2012-07-19T17:17:46.0000000+00:00</time></trkpt><trkpt lat="64.24145508" lon="-20.50833893"><ele>87.3</ele><time>2012-07-19T17:17:51.0000000+00:00</time></trkpt><trkpt lat="64.24158478" lon="-20.50784683"><ele>87.8</ele><time>2012-07-19T17:17:56.0000000+00:00</time></trkpt><trkpt lat="64.24170685" lon="-20.50740242"><ele>89.1</ele><time>2012-07-19T17:18:01.0000000+00:00</time></trkpt><trkpt lat="64.24185944" lon="-20.50692558"><ele>90.1</ele><time>2012-07-19T17:18:06.0000000+00:00</time></trkpt><trkpt lat="64.24201965" lon="-20.50643921"><ele>90.3</ele><time>2012-07-19T17:18:11.0000000+00:00</time></trkpt><trkpt lat="64.24219513" lon="-20.50592232"><ele>90.5</ele><time>2012-07-19T17:18:16.0000000+00:00</time></trkpt><trkpt lat="64.24237061" lon="-20.50542069"><ele>90.7</ele><time>2012-07-19T17:18:21.0000000+00:00</time></trkpt><trkpt lat="64.24254608" lon="-20.50495338"><ele>91.4</ele><time>2012-07-19T17:18:26.0000000+00:00</time></trkpt><trkpt lat="64.24269867" lon="-20.50455475"><ele>91.4</ele><time>2012-07-19T17:18:31.0000000+00:00</time></trkpt><trkpt lat="64.24287415" lon="-20.5041008"><ele>91.1</ele><time>2012-07-19T17:18:36.0000000+00:00</time></trkpt><trkpt lat="64.24308014" lon="-20.50364113"><ele>91.6</ele><time>2012-07-19T17:18:41.0000000+00:00</time></trkpt><trkpt lat="64.24329376" lon="-20.50317192"><ele>91.9</ele><time>2012-07-19T17:18:46.0000000+00:00</time></trkpt><trkpt lat="64.24347687" lon="-20.50276756"><ele>86.0</ele><time>2012-07-19T17:18:51.0000000+00:00</time></trkpt><trkpt lat="64.2436676" lon="-20.50242615"><ele>83.1</ele><time>2012-07-19T17:18:56.0000000+00:00</time></trkpt><trkpt lat="64.2438736" lon="-20.50203133"><ele>81.9</ele><time>2012-07-19T17:19:01.0000000+00:00</time></trkpt><trkpt lat="64.24407959" lon="-20.5016098"><ele>81.9</ele><time>2012-07-19T17:19:06.0000000+00:00</time></trkpt><trkpt lat="64.24429321" lon="-20.50121307"><ele>82.0</ele><time>2012-07-19T17:19:11.0000000+00:00</time></trkpt><trkpt lat="64.24450684" lon="-20.50081062"><ele>83.0</ele><time>2012-07-19T17:19:16.0000000+00:00</time></trkpt><trkpt lat="64.24469757" lon="-20.50043106"><ele>84.8</ele><time>2012-07-19T17:19:21.0000000+00:00</time></trkpt><trkpt lat="64.24488068" lon="-20.50007248"><ele>87.6</ele><time>2012-07-19T17:19:26.0000000+00:00</time></trkpt><trkpt lat="64.24505615" lon="-20.49973488"><ele>90.5</ele><time>2012-07-19T17:19:31.0000000+00:00</time></trkpt><trkpt lat="64.24521637" lon="-20.49940491"><ele>91.7</ele><time>2012-07-19T17:19:36.0000000+00:00</time></trkpt><trkpt lat="64.24537659" lon="-20.4990921"><ele>91.9</ele><time>2012-07-19T17:19:41.0000000+00:00</time></trkpt><trkpt lat="64.24552918" lon="-20.49880409"><ele>92.6</ele><time>2012-07-19T17:19:46.0000000+00:00</time></trkpt><trkpt lat="64.24567413" lon="-20.49853134"><ele>93.2</ele><time>2012-07-19T17:19:51.0000000+00:00</time></trkpt><trkpt lat="64.24580383" lon="-20.49829102"><ele>93.5</ele><time>2012-07-19T17:19:56.0000000+00:00</time></trkpt><trkpt lat="64.24590302" lon="-20.49809837"><ele>93.7</ele><time>2012-07-19T17:20:01.0000000+00:00</time></trkpt><trkpt lat="64.24602509" lon="-20.49786568"><ele>94.6</ele><time>2012-07-19T17:20:06.0000000+00:00</time></trkpt><trkpt lat="64.24615479" lon="-20.49762344"><ele>95.2</ele><time>2012-07-19T17:20:11.0000000+00:00</time></trkpt><trkpt lat="64.24629211" lon="-20.4973793"><ele>95.8</ele><time>2012-07-19T17:20:16.0000000+00:00</time></trkpt><trkpt lat="64.24643707" lon="-20.49715424"><ele>96.5</ele><time>2012-07-19T17:20:21.0000000+00:00</time></trkpt><trkpt lat="64.24654388" lon="-20.49694824"><ele>96.4</ele><time>2012-07-19T17:20:26.0000000+00:00</time></trkpt><trkpt lat="64.24663544" lon="-20.49679565"><ele>96.5</ele><time>2012-07-19T17:20:31.0000000+00:00</time></trkpt><trkpt lat="64.24677277" lon="-20.49656296"><ele>96.3</ele><time>2012-07-19T17:20:36.0000000+00:00</time></trkpt><trkpt lat="64.24694824" lon="-20.4962883"><ele>96.0</ele><time>2012-07-19T17:20:41.0000000+00:00</time></trkpt><trkpt lat="64.24713898" lon="-20.49598503"><ele>96.3</ele><time>2012-07-19T17:20:46.0000000+00:00</time></trkpt><trkpt lat="64.24729157" lon="-20.49572563"><ele>96.4</ele><time>2012-07-19T17:20:51.0000000+00:00</time></trkpt><trkpt lat="64.24746704" lon="-20.49547768"><ele>96.7</ele><time>2012-07-19T17:20:56.0000000+00:00</time></trkpt><trkpt lat="64.247612" lon="-20.49522972"><ele>96.8</ele><time>2012-07-19T17:21:01.0000000+00:00</time></trkpt><trkpt lat="64.24777985" lon="-20.49500084"><ele>96.8</ele><time>2012-07-19T17:21:06.0000000+00:00</time></trkpt><trkpt lat="64.24794006" lon="-20.49476814"><ele>96.5</ele><time>2012-07-19T17:21:11.0000000+00:00</time></trkpt><trkpt lat="64.24812317" lon="-20.49452591"><ele>96.8</ele><time>2012-07-19T17:21:16.0000000+00:00</time></trkpt><trkpt lat="64.2483139" lon="-20.49424934"><ele>97.0</ele><time>2012-07-19T17:21:21.0000000+00:00</time></trkpt><trkpt lat="64.24851227" lon="-20.49395561"><ele>98.3</ele><time>2012-07-19T17:21:26.0000000+00:00</time></trkpt><trkpt lat="64.24872589" lon="-20.49368095"><ele>99.3</ele><time>2012-07-19T17:21:31.0000000+00:00</time></trkpt><trkpt lat="64.24889374" lon="-20.49345017"><ele>99.8</ele><time>2012-07-19T17:21:36.0000000+00:00</time></trkpt><trkpt lat="64.24903107" lon="-20.49326897"><ele>100.2</ele><time>2012-07-19T17:21:41.0000000+00:00</time></trkpt><trkpt lat="64.24913788" lon="-20.49314308"><ele>100.1</ele><time>2012-07-19T17:21:46.0000000+00:00</time></trkpt><trkpt lat="64.24925995" lon="-20.49299622"><ele>101.0</ele><time>2012-07-19T17:21:51.0000000+00:00</time></trkpt><trkpt lat="64.24938965" lon="-20.49282455"><ele>101.6</ele><time>2012-07-19T17:21:56.0000000+00:00</time></trkpt><trkpt lat="64.24951935" lon="-20.49267197"><ele>102.1</ele><time>2012-07-19T17:22:01.0000000+00:00</time></trkpt><trkpt lat="64.24965668" lon="-20.49251175"><ele>101.7</ele><time>2012-07-19T17:22:06.0000000+00:00</time></trkpt><trkpt lat="64.24977875" lon="-20.4923687"><ele>102.8</ele><time>2012-07-19T17:22:11.0000000+00:00</time></trkpt><trkpt lat="64.24990082" lon="-20.49221039"><ele>103.5</ele><time>2012-07-19T17:22:16.0000000+00:00</time></trkpt><trkpt lat="64.25003815" lon="-20.49203301"><ele>104.2</ele><time>2012-07-19T17:22:21.0000000+00:00</time></trkpt><trkpt lat="64.25019074" lon="-20.49183655"><ele>105.0</ele><time>2012-07-19T17:22:26.0000000+00:00</time></trkpt><trkpt lat="64.25031281" lon="-20.49168015"><ele>105.3</ele><time>2012-07-19T17:22:31.0000000+00:00</time></trkpt><trkpt lat="64.25044251" lon="-20.49151611"><ele>105.5</ele><time>2012-07-19T17:22:36.0000000+00:00</time></trkpt><trkpt lat="64.25057221" lon="-20.49134827"><ele>105.3</ele><time>2012-07-19T17:22:41.0000000+00:00</time></trkpt><trkpt lat="64.25070953" lon="-20.49118424"><ele>105.7</ele><time>2012-07-19T17:22:46.0000000+00:00</time></trkpt><trkpt lat="64.25085449" lon="-20.49101639"><ele>105.8</ele><time>2012-07-19T17:22:51.0000000+00:00</time></trkpt><trkpt lat="64.25101471" lon="-20.49083519"><ele>105.9</ele><time>2012-07-19T17:22:56.0000000+00:00</time></trkpt><trkpt lat="64.25117493" lon="-20.49063683"><ele>106.3</ele><time>2012-07-19T17:23:01.0000000+00:00</time></trkpt><trkpt lat="64.25132752" lon="-20.49044037"><ele>106.8</ele><time>2012-07-19T17:23:06.0000000+00:00</time></trkpt><trkpt lat="64.25149536" lon="-20.49023438"><ele>107.3</ele><time>2012-07-19T17:23:11.0000000+00:00</time></trkpt><trkpt lat="64.25166321" lon="-20.49001503"><ele>107.5</ele><time>2012-07-19T17:23:16.0000000+00:00</time></trkpt><trkpt lat="64.25184631" lon="-20.48976517"><ele>107.5</ele><time>2012-07-19T17:23:21.0000000+00:00</time></trkpt><trkpt lat="64.2519989" lon="-20.48955536"><ele>108.1</ele><time>2012-07-19T17:23:26.0000000+00:00</time></trkpt><trkpt lat="64.25216675" lon="-20.48929215"><ele>107.9</ele><time>2012-07-19T17:23:31.0000000+00:00</time></trkpt><trkpt lat="64.25235748" lon="-20.48901558"><ele>107.4</ele><time>2012-07-19T17:23:36.0000000+00:00</time></trkpt><trkpt lat="64.25254059" lon="-20.48871613"><ele>107.5</ele><time>2012-07-19T17:23:41.0000000+00:00</time></trkpt><trkpt lat="64.25272369" lon="-20.48836899"><ele>107.3</ele><time>2012-07-19T17:23:46.0000000+00:00</time></trkpt><trkpt lat="64.25292206" lon="-20.48799133"><ele>107.4</ele><time>2012-07-19T17:23:51.0000000+00:00</time></trkpt><trkpt lat="64.25310516" lon="-20.48762322"><ele>107.5</ele><time>2012-07-19T17:23:56.0000000+00:00</time></trkpt><trkpt lat="64.2532959" lon="-20.48724747"><ele>107.3</ele><time>2012-07-19T17:24:01.0000000+00:00</time></trkpt><trkpt lat="64.25348663" lon="-20.48683548"><ele>106.7</ele><time>2012-07-19T17:24:06.0000000+00:00</time></trkpt><trkpt lat="64.25366211" lon="-20.48641586"><ele>106.8</ele><time>2012-07-19T17:24:11.0000000+00:00</time></trkpt><trkpt lat="64.2538681" lon="-20.48597336"><ele>105.9</ele><time>2012-07-19T17:24:16.0000000+00:00</time></trkpt><trkpt lat="64.25408173" lon="-20.4854908"><ele>104.4</ele><time>2012-07-19T17:24:21.0000000+00:00</time></trkpt><trkpt lat="64.25431061" lon="-20.48496246"><ele>103.8</ele><time>2012-07-19T17:24:26.0000000+00:00</time></trkpt><trkpt lat="64.25453186" lon="-20.48445702"><ele>103.3</ele><time>2012-07-19T17:24:31.0000000+00:00</time></trkpt><trkpt lat="64.25475311" lon="-20.48397636"><ele>103.1</ele><time>2012-07-19T17:24:36.0000000+00:00</time></trkpt><trkpt lat="64.25495148" lon="-20.48349762"><ele>103.3</ele><time>2012-07-19T17:24:41.0000000+00:00</time></trkpt><trkpt lat="64.25511932" lon="-20.48306847"><ele>104.1</ele><time>2012-07-19T17:24:46.0000000+00:00</time></trkpt><trkpt lat="64.25527191" lon="-20.4826622"><ele>104.5</ele><time>2012-07-19T17:24:51.0000000+00:00</time></trkpt><trkpt lat="64.2554245" lon="-20.48229599"><ele>105.1</ele><time>2012-07-19T17:24:56.0000000+00:00</time></trkpt><trkpt lat="64.25556183" lon="-20.48197746"><ele>105.4</ele><time>2012-07-19T17:25:01.0000000+00:00</time></trkpt><trkpt lat="64.25569916" lon="-20.48165321"><ele>105.5</ele><time>2012-07-19T17:25:06.0000000+00:00</time></trkpt><trkpt lat="64.25582886" lon="-20.48132324"><ele>105.7</ele><time>2012-07-19T17:25:11.0000000+00:00</time></trkpt><trkpt lat="64.2559433" lon="-20.48102379"><ele>105.4</ele><time>2012-07-19T17:25:16.0000000+00:00</time></trkpt><trkpt lat="64.256073" lon="-20.48070335"><ele>105.2</ele><time>2012-07-19T17:25:21.0000000+00:00</time></trkpt><trkpt lat="64.25621796" lon="-20.48034859"><ele>104.8</ele><time>2012-07-19T17:25:26.0000000+00:00</time></trkpt><trkpt lat="64.25637054" lon="-20.47999382"><ele>104.8</ele><time>2012-07-19T17:25:31.0000000+00:00</time></trkpt><trkpt lat="64.25650024" lon="-20.47961426"><ele>105.3</ele><time>2012-07-19T17:25:36.0000000+00:00</time></trkpt><trkpt lat="64.25666046" lon="-20.47921562"><ele>105.0</ele><time>2012-07-19T17:25:41.0000000+00:00</time></trkpt><trkpt lat="64.25683594" lon="-20.4787693"><ele>105.4</ele><time>2012-07-19T17:25:46.0000000+00:00</time></trkpt><trkpt lat="64.2570343" lon="-20.47828484"><ele>104.4</ele><time>2012-07-19T17:25:51.0000000+00:00</time></trkpt><trkpt lat="64.25723267" lon="-20.47783089"><ele>103.3</ele><time>2012-07-19T17:25:56.0000000+00:00</time></trkpt><trkpt lat="64.25739288" lon="-20.47739983"><ele>103.3</ele><time>2012-07-19T17:26:01.0000000+00:00</time></trkpt><trkpt lat="64.25754547" lon="-20.47698593"><ele>103.9</ele><time>2012-07-19T17:26:06.0000000+00:00</time></trkpt><trkpt lat="64.25769806" lon="-20.47658348"><ele>104.7</ele><time>2012-07-19T17:26:11.0000000+00:00</time></trkpt><trkpt lat="64.25785065" lon="-20.47623634"><ele>104.0</ele><time>2012-07-19T17:26:16.0000000+00:00</time></trkpt><trkpt lat="64.25799561" lon="-20.47588539"><ele>103.5</ele><time>2012-07-19T17:26:21.0000000+00:00</time></trkpt><trkpt lat="64.25813294" lon="-20.47556305"><ele>104.4</ele><time>2012-07-19T17:26:26.0000000+00:00</time></trkpt><trkpt lat="64.25827789" lon="-20.47525406"><ele>105.0</ele><time>2012-07-19T17:26:31.0000000+00:00</time></trkpt><trkpt lat="64.25838471" lon="-20.47503281"><ele>105.1</ele><time>2012-07-19T17:26:36.0000000+00:00</time></trkpt><trkpt lat="64.2585144" lon="-20.47480393"><ele>105.7</ele><time>2012-07-19T17:26:41.0000000+00:00</time></trkpt><trkpt lat="64.2586441" lon="-20.47458077"><ele>106.5</ele><time>2012-07-19T17:26:46.0000000+00:00</time></trkpt><trkpt lat="64.25875092" lon="-20.47442627"><ele>107.1</ele><time>2012-07-19T17:26:51.0000000+00:00</time></trkpt><trkpt lat="64.25886536" lon="-20.47425079"><ele>108.0</ele><time>2012-07-19T17:26:56.0000000+00:00</time></trkpt><trkpt lat="64.25899506" lon="-20.47407341"><ele>108.5</ele><time>2012-07-19T17:27:01.0000000+00:00</time></trkpt><trkpt lat="64.25912476" lon="-20.47391319"><ele>108.9</ele><time>2012-07-19T17:27:06.0000000+00:00</time></trkpt><trkpt lat="64.25927734" lon="-20.473732"><ele>108.7</ele><time>2012-07-19T17:27:11.0000000+00:00</time></trkpt><trkpt lat="64.25941467" lon="-20.47356415"><ele>108.8</ele><time>2012-07-19T17:27:16.0000000+00:00</time></trkpt><trkpt lat="64.25956726" lon="-20.47339439"><ele>109.8</ele><time>2012-07-19T17:27:21.0000000+00:00</time></trkpt><trkpt lat="64.25968933" lon="-20.47326851"><ele>110.9</ele><time>2012-07-19T17:27:26.0000000+00:00</time></trkpt><trkpt lat="64.2598114" lon="-20.4731369"><ele>111.9</ele><time>2012-07-19T17:27:31.0000000+00:00</time></trkpt><trkpt lat="64.2599411" lon="-20.47299385"><ele>112.6</ele><time>2012-07-19T17:27:36.0000000+00:00</time></trkpt><trkpt lat="64.26006317" lon="-20.47285271"><ele>112.8</ele><time>2012-07-19T17:27:41.0000000+00:00</time></trkpt><trkpt lat="64.26017761" lon="-20.47272301"><ele>113.4</ele><time>2012-07-19T17:27:46.0000000+00:00</time></trkpt><trkpt lat="64.26030731" lon="-20.47258186"><ele>114.0</ele><time>2012-07-19T17:27:51.0000000+00:00</time></trkpt><trkpt lat="64.26039124" lon="-20.47246552"><ele>114.0</ele><time>2012-07-19T17:27:56.0000000+00:00</time></trkpt><trkpt lat="64.26044464" lon="-20.47239113"><ele>114.4</ele><time>2012-07-19T17:28:01.0000000+00:00</time></trkpt><trkpt lat="64.26045227" lon="-20.47239304"><ele>114.6</ele><time>2012-07-19T17:28:06.0000000+00:00</time></trkpt><trkpt lat="64.26044464" lon="-20.47239304"><ele>114.5</ele><time>2012-07-19T17:28:11.0000000+00:00</time></trkpt><trkpt lat="64.26044464" lon="-20.47238731"><ele>114.7</ele><time>2012-07-19T17:28:16.0000000+00:00</time></trkpt><trkpt lat="64.26044464" lon="-20.47238541"><ele>114.7</ele><time>2012-07-19T17:28:21.0000000+00:00</time></trkpt><trkpt lat="64.26045227" lon="-20.47238541"><ele>114.8</ele><time>2012-07-19T17:28:26.0000000+00:00</time></trkpt><trkpt lat="64.26045227" lon="-20.47238159"><ele>114.8</ele><time>2012-07-19T17:28:31.0000000+00:00</time></trkpt><trkpt lat="64.26045227" lon="-20.47237968"><ele>114.9</ele><time>2012-07-19T17:28:36.0000000+00:00</time></trkpt><trkpt lat="64.26045227" lon="-20.47237778"><ele>114.9</ele><time>2012-07-19T17:28:41.0000000+00:00</time></trkpt><trkpt lat="64.26045227" lon="-20.47238159"><ele>114.9</ele><time>2012-07-19T17:28:46.0000000+00:00</time></trkpt><trkpt lat="64.26045227" lon="-20.47238922"><ele>114.9</ele><time>2012-07-19T17:28:51.0000000+00:00</time></trkpt><trkpt lat="64.26045227" lon="-20.47238922"><ele>114.9</ele><time>2012-07-19T17:28:56.0000000+00:00</time></trkpt><trkpt lat="64.26044464" lon="-20.47238922"><ele>115.0</ele><time>2012-07-19T17:29:01.0000000+00:00</time></trkpt><trkpt lat="64.26044464" lon="-20.47238922"><ele>115.0</ele><time>2012-07-19T17:29:06.0000000+00:00</time></trkpt><trkpt lat="64.26044464" lon="-20.47238922"><ele>115.0</ele><time>2012-07-19T17:29:11.0000000+00:00</time></trkpt><trkpt lat="64.26044464" lon="-20.47238922"><ele>115.0</ele><time>2012-07-19T17:29:16.0000000+00:00</time></trkpt><trkpt lat="64.26044464" lon="-20.47238922"><ele>115.0</ele><time>2012-07-19T17:29:21.0000000+00:00</time></trkpt><trkpt lat="64.26044464" lon="-20.47238922"><ele>115.0</ele><time>2012-07-19T17:29:26.0000000+00:00</time></trkpt><trkpt lat="64.26044464" lon="-20.47238922"><ele>115.0</ele><time>2012-07-19T17:29:31.0000000+00:00</time></trkpt><trkpt lat="64.26044464" lon="-20.47238922"><ele>115.0</ele><time>2012-07-19T17:29:36.0000000+00:00</time></trkpt><trkpt lat="64.26044464" lon="-20.47238922"><ele>115.0</ele><time>2012-07-19T17:29:41.0000000+00:00</time></trkpt><trkpt lat="64.26044464" lon="-20.47239113"><ele>115.0</ele><time>2012-07-19T17:29:46.0000000+00:00</time></trkpt><trkpt lat="64.26044464" lon="-20.47239113"><ele>115.0</ele><time>2012-07-19T17:29:51.0000000+00:00</time></trkpt><trkpt lat="64.26044464" lon="-20.47239113"><ele>115.0</ele><time>2012-07-19T17:29:56.0000000+00:00</time></trkpt><trkpt lat="64.26044464" lon="-20.47239113"><ele>115.0</ele><time>2012-07-19T17:30:01.0000000+00:00</time></trkpt><trkpt lat="64.26044464" lon="-20.47239113"><ele>115.0</ele><time>2012-07-19T17:30:06.0000000+00:00</time></trkpt><trkpt lat="64.26044464" lon="-20.47239113"><ele>115.0</ele><time>2012-07-19T17:30:11.0000000+00:00</time></trkpt><trkpt lat="64.26044464" lon="-20.47239113"><ele>115.0</ele><time>2012-07-19T17:30:16.0000000+00:00</time></trkpt><trkpt lat="64.26044464" lon="-20.47239113"><ele>115.0</ele><time>2012-07-19T17:30:21.0000000+00:00</time></trkpt><trkpt lat="64.26044464" lon="-20.47239113"><ele>115.0</ele><time>2012-07-19T17:30:26.0000000+00:00</time></trkpt><trkpt lat="64.26044464" lon="-20.47239113"><ele>115.0</ele><time>2012-07-19T17:30:31.0000000+00:00</time></trkpt><trkpt lat="64.26044464" lon="-20.47239113"><ele>115.0</ele><time>2012-07-19T17:30:36.0000000+00:00</time></trkpt><trkpt lat="64.26044464" lon="-20.47239304"><ele>115.0</ele><time>2012-07-19T17:30:41.0000000+00:00</time></trkpt><trkpt lat="64.26044464" lon="-20.47238922"><ele>115.0</ele><time>2012-07-19T17:30:46.0000000+00:00</time></trkpt><trkpt lat="64.26044464" lon="-20.47238922"><ele>115.0</ele><time>2012-07-19T17:30:51.0000000+00:00</time></trkpt><trkpt lat="64.26044464" lon="-20.47238922"><ele>115.0</ele><time>2012-07-19T17:30:56.0000000+00:00</time></trkpt><trkpt lat="64.26044464" lon="-20.47238922"><ele>115.0</ele><time>2012-07-19T17:31:01.0000000+00:00</time></trkpt><trkpt lat="64.26044464" lon="-20.47238922"><ele>115.0</ele><time>2012-07-19T17:31:06.0000000+00:00</time></trkpt><trkpt lat="64.26044464" lon="-20.47238922"><ele>115.0</ele><time>2012-07-19T17:31:11.0000000+00:00</time></trkpt><trkpt lat="64.26044464" lon="-20.47238922"><ele>115.0</ele><time>2012-07-19T17:31:16.0000000+00:00</time></trkpt><trkpt lat="64.26044464" lon="-20.47238922"><ele>115.0</ele><time>2012-07-19T17:31:21.0000000+00:00</time></trkpt><trkpt lat="64.26044464" lon="-20.47238922"><ele>115.0</ele><time>2012-07-19T17:31:26.0000000+00:00</time></trkpt><trkpt lat="64.26044464" lon="-20.47238922"><ele>115.0</ele><time>2012-07-19T17:31:31.0000000+00:00</time></trkpt><trkpt lat="64.26044464" lon="-20.47238922"><ele>115.0</ele><time>2012-07-19T17:31:36.0000000+00:00</time></trkpt><trkpt lat="64.26044464" lon="-20.47238922"><ele>115.0</ele><time>2012-07-19T17:31:41.0000000+00:00</time></trkpt><trkpt lat="64.26044464" lon="-20.47238922"><ele>115.0</ele><time>2012-07-19T17:31:46.0000000+00:00</time></trkpt><trkpt lat="64.26044464" lon="-20.47238922"><ele>115.0</ele><time>2012-07-19T17:31:51.0000000+00:00</time></trkpt><trkpt lat="64.26044464" lon="-20.47238922"><ele>115.0</ele><time>2012-07-19T17:31:56.0000000+00:00</time></trkpt><trkpt lat="64.26044464" lon="-20.47238922"><ele>115.0</ele><time>2012-07-19T17:32:01.0000000+00:00</time></trkpt><trkpt lat="64.26044464" lon="-20.47238922"><ele>115.0</ele><time>2012-07-19T17:32:06.0000000+00:00</time></trkpt><trkpt lat="64.26044464" lon="-20.47238922"><ele>115.0</ele><time>2012-07-19T17:32:11.0000000+00:00</time></trkpt><trkpt lat="64.26044464" lon="-20.47238922"><ele>115.0</ele><time>2012-07-19T17:32:16.0000000+00:00</time></trkpt><trkpt lat="64.26044464" lon="-20.47238731"><ele>115.0</ele><time>2012-07-19T17:32:21.0000000+00:00</time></trkpt><trkpt lat="64.26044464" lon="-20.47238731"><ele>115.0</ele><time>2012-07-19T17:32:26.0000000+00:00</time></trkpt><trkpt lat="64.26044464" lon="-20.47238731"><ele>115.0</ele><time>2012-07-19T17:32:31.0000000+00:00</time></trkpt><trkpt lat="64.26044464" lon="-20.47238731"><ele>115.0</ele><time>2012-07-19T17:32:36.0000000+00:00</time></trkpt><trkpt lat="64.26044464" lon="-20.47238731"><ele>115.0</ele><time>2012-07-19T17:32:41.0000000+00:00</time></trkpt><trkpt lat="64.26044464" lon="-20.47238731"><ele>115.0</ele><time>2012-07-19T17:32:46.0000000+00:00</time></trkpt><trkpt lat="64.26044464" lon="-20.47238541"><ele>115.0</ele><time>2012-07-19T17:32:51.0000000+00:00</time></trkpt><trkpt lat="64.26044464" lon="-20.47238541"><ele>115.0</ele><time>2012-07-19T17:32:56.0000000+00:00</time></trkpt><trkpt lat="64.26044464" lon="-20.47238541"><ele>115.0</ele><time>2012-07-19T17:33:01.0000000+00:00</time></trkpt><trkpt lat="64.26044464" lon="-20.47238541"><ele>115.0</ele><time>2012-07-19T17:33:06.0000000+00:00</time></trkpt><trkpt lat="64.26044464" lon="-20.47238541"><ele>115.0</ele><time>2012-07-19T17:33:11.0000000+00:00</time></trkpt><trkpt lat="64.26044464" lon="-20.47238541"><ele>115.0</ele><time>2012-07-19T17:33:16.0000000+00:00</time></trkpt><trkpt lat="64.26044464" lon="-20.47238541"><ele>115.0</ele><time>2012-07-19T17:33:21.0000000+00:00</time></trkpt><trkpt lat="64.26044464" lon="-20.47238541"><ele>115.0</ele><time>2012-07-19T17:33:26.0000000+00:00</time></trkpt><trkpt lat="64.26044464" lon="-20.47238541"><ele>115.0</ele><time>2012-07-19T17:33:31.0000000+00:00</time></trkpt><trkpt lat="64.26044464" lon="-20.47238541"><ele>115.0</ele><time>2012-07-19T17:33:36.0000000+00:00</time></trkpt><trkpt lat="64.26044464" lon="-20.47238541"><ele>115.0</ele><time>2012-07-19T17:33:41.0000000+00:00</time></trkpt><trkpt lat="64.26044464" lon="-20.47238541"><ele>115.0</ele><time>2012-07-19T17:33:46.0000000+00:00</time></trkpt><trkpt lat="64.26044464" lon="-20.47238541"><ele>115.0</ele><time>2012-07-19T17:33:51.0000000+00:00</time></trkpt><trkpt lat="64.26044464" lon="-20.47238541"><ele>115.0</ele><time>2012-07-19T17:33:56.0000000+00:00</time></trkpt><trkpt lat="64.26044464" lon="-20.47238541"><ele>115.0</ele><time>2012-07-19T17:34:01.0000000+00:00</time></trkpt><trkpt lat="64.26044464" lon="-20.47238541"><ele>115.0</ele><time>2012-07-19T17:34:06.0000000+00:00</time></trkpt><trkpt lat="64.26044464" lon="-20.47238541"><ele>115.0</ele><time>2012-07-19T17:34:11.0000000+00:00</time></trkpt><trkpt lat="64.26044464" lon="-20.47238541"><ele>115.0</ele><time>2012-07-19T17:34:16.0000000+00:00</time></trkpt><trkpt lat="64.26044464" lon="-20.47238541"><ele>115.0</ele><time>2012-07-19T17:34:21.0000000+00:00</time></trkpt><trkpt lat="64.26044464" lon="-20.47238541"><ele>115.0</ele><time>2012-07-19T17:34:26.0000000+00:00</time></trkpt><trkpt lat="64.26044464" lon="-20.47238541"><ele>115.0</ele><time>2012-07-19T17:34:31.0000000+00:00</time></trkpt><trkpt lat="64.26044464" lon="-20.47238541"><ele>115.0</ele><time>2012-07-19T17:34:36.0000000+00:00</time></trkpt><trkpt lat="64.26044464" lon="-20.47238541"><ele>115.0</ele><time>2012-07-19T17:34:41.0000000+00:00</time></trkpt><trkpt lat="64.26044464" lon="-20.47238541"><ele>115.0</ele><time>2012-07-19T17:34:46.0000000+00:00</time></trkpt><trkpt lat="64.26044464" lon="-20.47238541"><ele>115.0</ele><time>2012-07-19T17:34:51.0000000+00:00</time></trkpt><trkpt lat="64.26044464" lon="-20.47238541"><ele>115.0</ele><time>2012-07-19T17:34:56.0000000+00:00</time></trkpt><trkpt lat="64.26044464" lon="-20.47238541"><ele>115.1</ele><time>2012-07-19T17:35:01.0000000+00:00</time></trkpt><trkpt lat="64.26044464" lon="-20.47238541"><ele>115.1</ele><time>2012-07-19T17:35:06.0000000+00:00</time></trkpt><trkpt lat="64.26044464" lon="-20.47238541"><ele>115.0</ele><time>2012-07-19T17:35:11.0000000+00:00</time></trkpt><trkpt lat="64.26044464" lon="-20.47238541"><ele>115.1</ele><time>2012-07-19T17:35:16.0000000+00:00</time></trkpt><trkpt lat="64.26044464" lon="-20.47238541"><ele>115.0</ele><time>2012-07-19T17:35:21.0000000+00:00</time></trkpt><trkpt lat="64.2604599" lon="-20.47238541"><ele>115.0</ele><time>2012-07-19T17:35:26.0000000+00:00</time></trkpt><trkpt lat="64.26052094" lon="-20.47232246"><ele>115.5</ele><time>2012-07-19T17:35:31.0000000+00:00</time></trkpt><trkpt lat="64.26061249" lon="-20.4722271"><ele>115.1</ele><time>2012-07-19T17:35:36.0000000+00:00</time></trkpt><trkpt lat="64.26073456" lon="-20.47210503"><ele>115.8</ele><time>2012-07-19T17:35:41.0000000+00:00</time></trkpt><trkpt lat="64.26087952" lon="-20.47194672"><ele>115.8</ele><time>2012-07-19T17:35:46.0000000+00:00</time></trkpt><trkpt lat="64.26101685" lon="-20.47177887"><ele>116.3</ele><time>2012-07-19T17:35:51.0000000+00:00</time></trkpt><trkpt lat="64.26113129" lon="-20.47167778"><ele>115.9</ele><time>2012-07-19T17:35:56.0000000+00:00</time></trkpt><trkpt lat="64.26123047" lon="-20.47155953"><ele>116.5</ele><time>2012-07-19T17:36:01.0000000+00:00</time></trkpt><trkpt lat="64.26136017" lon="-20.47141075"><ele>116.1</ele><time>2012-07-19T17:36:06.0000000+00:00</time></trkpt><trkpt lat="64.26153565" lon="-20.47122002"><ele>116.5</ele><time>2012-07-19T17:36:11.0000000+00:00</time></trkpt><trkpt lat="64.26173401" lon="-20.47101593"><ele>116.6</ele><time>2012-07-19T17:36:16.0000000+00:00</time></trkpt><trkpt lat="64.26192474" lon="-20.4708004"><ele>117.0</ele><time>2012-07-19T17:36:21.0000000+00:00</time></trkpt><trkpt lat="64.26209259" lon="-20.47059822"><ele>117.5</ele><time>2012-07-19T17:36:26.0000000+00:00</time></trkpt><trkpt lat="64.26229096" lon="-20.47038841"><ele>117.8</ele><time>2012-07-19T17:36:31.0000000+00:00</time></trkpt><trkpt lat="64.26248169" lon="-20.4701767"><ele>118.8</ele><time>2012-07-19T17:36:36.0000000+00:00</time></trkpt><trkpt lat="64.26265717" lon="-20.46995735"><ele>120.1</ele><time>2012-07-19T17:36:41.0000000+00:00</time></trkpt><trkpt lat="64.26285553" lon="-20.46974945"><ele>120.0</ele><time>2012-07-19T17:36:46.0000000+00:00</time></trkpt><trkpt lat="64.26303864" lon="-20.4695549"><ele>120.1</ele><time>2012-07-19T17:36:51.0000000+00:00</time></trkpt><trkpt lat="64.26322937" lon="-20.46933365"><ele>120.8</ele><time>2012-07-19T17:36:56.0000000+00:00</time></trkpt><trkpt lat="64.26339722" lon="-20.46914482"><ele>121.2</ele><time>2012-07-19T17:37:01.0000000+00:00</time></trkpt><trkpt lat="64.26354981" lon="-20.4689827"><ele>121.2</ele><time>2012-07-19T17:37:06.0000000+00:00</time></trkpt><trkpt lat="64.26374817" lon="-20.4687767"><ele>121.1</ele><time>2012-07-19T17:37:11.0000000+00:00</time></trkpt><trkpt lat="64.26392365" lon="-20.46859551"><ele>120.3</ele><time>2012-07-19T17:37:16.0000000+00:00</time></trkpt><trkpt lat="64.26410675" lon="-20.46838188"><ele>120.9</ele><time>2012-07-19T17:37:21.0000000+00:00</time></trkpt><trkpt lat="64.26425934" lon="-20.46820831"><ele>121.1</ele><time>2012-07-19T17:37:26.0000000+00:00</time></trkpt><trkpt lat="64.26442719" lon="-20.46800423"><ele>121.3</ele><time>2012-07-19T17:37:31.0000000+00:00</time></trkpt><trkpt lat="64.26459503" lon="-20.46779633"><ele>121.8</ele><time>2012-07-19T17:37:36.0000000+00:00</time></trkpt><trkpt lat="64.26474762" lon="-20.46759796"><ele>122.4</ele><time>2012-07-19T17:37:41.0000000+00:00</time></trkpt><trkpt lat="64.26490784" lon="-20.46735764"><ele>122.9</ele><time>2012-07-19T17:37:46.0000000+00:00</time></trkpt><trkpt lat="64.26507568" lon="-20.46710014"><ele>124.8</ele><time>2012-07-19T17:37:51.0000000+00:00</time></trkpt><trkpt lat="64.2652359" lon="-20.46683502"><ele>126.3</ele><time>2012-07-19T17:37:56.0000000+00:00</time></trkpt><trkpt lat="64.26540375" lon="-20.46657181"><ele>126.0</ele><time>2012-07-19T17:38:01.0000000+00:00</time></trkpt><trkpt lat="64.26557159" lon="-20.46629334"><ele>126.3</ele><time>2012-07-19T17:38:06.0000000+00:00</time></trkpt><trkpt lat="64.26573944" lon="-20.46598816"><ele>126.8</ele><time>2012-07-19T17:38:11.0000000+00:00</time></trkpt><trkpt lat="64.26593018" lon="-20.46564293"><ele>126.4</ele><time>2012-07-19T17:38:16.0000000+00:00</time></trkpt><trkpt lat="64.26612854" lon="-20.465271"><ele>126.1</ele><time>2012-07-19T17:38:21.0000000+00:00</time></trkpt><trkpt lat="64.26631165" lon="-20.46488762"><ele>125.9</ele><time>2012-07-19T17:38:26.0000000+00:00</time></trkpt><trkpt lat="64.26651764" lon="-20.46445847"><ele>125.3</ele><time>2012-07-19T17:38:31.0000000+00:00</time></trkpt><trkpt lat="64.26672363" lon="-20.46398735"><ele>124.1</ele><time>2012-07-19T17:38:36.0000000+00:00</time></trkpt><trkpt lat="64.266922" lon="-20.46348"><ele>122.7</ele><time>2012-07-19T17:38:41.0000000+00:00</time></trkpt><trkpt lat="64.26713562" lon="-20.46294022"><ele>121.4</ele><time>2012-07-19T17:38:46.0000000+00:00</time></trkpt><trkpt lat="64.26734161" lon="-20.46235657"><ele>120.0</ele><time>2012-07-19T17:38:51.0000000+00:00</time></trkpt><trkpt lat="64.26754761" lon="-20.46171951"><ele>118.5</ele><time>2012-07-19T17:38:56.0000000+00:00</time></trkpt><trkpt lat="64.26776123" lon="-20.4610424"><ele>116.8</ele><time>2012-07-19T17:39:01.0000000+00:00</time></trkpt><trkpt lat="64.26798248" lon="-20.46033859"><ele>115.2</ele><time>2012-07-19T17:39:06.0000000+00:00</time></trkpt><trkpt lat="64.26819611" lon="-20.4596386"><ele>114.1</ele><time>2012-07-19T17:39:11.0000000+00:00</time></trkpt><trkpt lat="64.26841736" lon="-20.45894432"><ele>112.8</ele><time>2012-07-19T17:39:16.0000000+00:00</time></trkpt><trkpt lat="64.26862335" lon="-20.45828629"><ele>112.1</ele><time>2012-07-19T17:39:21.0000000+00:00</time></trkpt><trkpt lat="64.26880646" lon="-20.45769119"><ele>111.9</ele><time>2012-07-19T17:39:26.0000000+00:00</time></trkpt><trkpt lat="64.26898193" lon="-20.45715714"><ele>111.8</ele><time>2012-07-19T17:39:31.0000000+00:00</time></trkpt><trkpt lat="64.26913452" lon="-20.45664215"><ele>112.2</ele><time>2012-07-19T17:39:36.0000000+00:00</time></trkpt><trkpt lat="64.26928711" lon="-20.45615006"><ele>112.5</ele><time>2012-07-19T17:39:41.0000000+00:00</time></trkpt><trkpt lat="64.2694397" lon="-20.45568466"><ele>112.5</ele><time>2012-07-19T17:39:46.0000000+00:00</time></trkpt><trkpt lat="64.26957703" lon="-20.4552002"><ele>113.0</ele><time>2012-07-19T17:39:51.0000000+00:00</time></trkpt><trkpt lat="64.26972961" lon="-20.45474052"><ele>113.8</ele><time>2012-07-19T17:39:56.0000000+00:00</time></trkpt><trkpt lat="64.2698822" lon="-20.45427895"><ele>114.1</ele><time>2012-07-19T17:40:01.0000000+00:00</time></trkpt><trkpt lat="64.27002716" lon="-20.45380402"><ele>114.1</ele><time>2012-07-19T17:40:06.0000000+00:00</time></trkpt><trkpt lat="64.27015686" lon="-20.45336342"><ele>113.7</ele><time>2012-07-19T17:40:11.0000000+00:00</time></trkpt><trkpt lat="64.27030182" lon="-20.45295906"><ele>114.1</ele><time>2012-07-19T17:40:16.0000000+00:00</time></trkpt><trkpt lat="64.27042389" lon="-20.45255089"><ele>114.6</ele><time>2012-07-19T17:40:21.0000000+00:00</time></trkpt><trkpt lat="64.27053833" lon="-20.45215416"><ele>114.9</ele><time>2012-07-19T17:40:26.0000000+00:00</time></trkpt><trkpt lat="64.27065277" lon="-20.45176697"><ele>115.3</ele><time>2012-07-19T17:40:31.0000000+00:00</time></trkpt><trkpt lat="64.27074432" lon="-20.45147514"><ele>114.9</ele><time>2012-07-19T17:40:36.0000000+00:00</time></trkpt><trkpt lat="64.27084351" lon="-20.45117188"><ele>116.3</ele><time>2012-07-19T17:40:41.0000000+00:00</time></trkpt><trkpt lat="64.27095032" lon="-20.45081902"><ele>116.8</ele><time>2012-07-19T17:40:46.0000000+00:00</time></trkpt><trkpt lat="64.27106476" lon="-20.45046043"><ele>117.2</ele><time>2012-07-19T17:40:51.0000000+00:00</time></trkpt><trkpt lat="64.2711792" lon="-20.45010757"><ele>116.9</ele><time>2012-07-19T17:40:56.0000000+00:00</time></trkpt><trkpt lat="64.27128601" lon="-20.44972801"><ele>116.8</ele><time>2012-07-19T17:41:01.0000000+00:00</time></trkpt><trkpt lat="64.27140808" lon="-20.44934654"><ele>117.4</ele><time>2012-07-19T17:41:06.0000000+00:00</time></trkpt><trkpt lat="64.27153015" lon="-20.44897842"><ele>117.3</ele><time>2012-07-19T17:41:11.0000000+00:00</time></trkpt><trkpt lat="64.27161408" lon="-20.44868469"><ele>117.5</ele><time>2012-07-19T17:41:16.0000000+00:00</time></trkpt><trkpt lat="64.27171326" lon="-20.44838524"><ele>118.1</ele><time>2012-07-19T17:41:21.0000000+00:00</time></trkpt><trkpt lat="64.27181244" lon="-20.44805145"><ele>118.1</ele><time>2012-07-19T17:41:26.0000000+00:00</time></trkpt><trkpt lat="64.27191925" lon="-20.44768143"><ele>119.3</ele><time>2012-07-19T17:41:31.0000000+00:00</time></trkpt><trkpt lat="64.27203369" lon="-20.44731903"><ele>119.5</ele><time>2012-07-19T17:41:36.0000000+00:00</time></trkpt><trkpt lat="64.27215576" lon="-20.44693756"><ele>118.7</ele><time>2012-07-19T17:41:41.0000000+00:00</time></trkpt><trkpt lat="64.2722702" lon="-20.44658089"><ele>118.9</ele><time>2012-07-19T17:41:46.0000000+00:00</time></trkpt><trkpt lat="64.27236176" lon="-20.44628143"><ele>119.6</ele><time>2012-07-19T17:41:51.0000000+00:00</time></trkpt><trkpt lat="64.27245331" lon="-20.44597817"><ele>120.3</ele><time>2012-07-19T17:41:56.0000000+00:00</time></trkpt><trkpt lat="64.27256775" lon="-20.44560242"><ele>120.7</ele><time>2012-07-19T17:42:01.0000000+00:00</time></trkpt><trkpt lat="64.27269745" lon="-20.44521332"><ele>121.4</ele><time>2012-07-19T17:42:06.0000000+00:00</time></trkpt><trkpt lat="64.27282715" lon="-20.44481087"><ele>121.2</ele><time>2012-07-19T17:42:11.0000000+00:00</time></trkpt><trkpt lat="64.27293396" lon="-20.44445419"><ele>120.8</ele><time>2012-07-19T17:42:16.0000000+00:00</time></trkpt><trkpt lat="64.27306366" lon="-20.44406128"><ele>120.9</ele><time>2012-07-19T17:42:21.0000000+00:00</time></trkpt><trkpt lat="64.27320862" lon="-20.44361877"><ele>121.0</ele><time>2012-07-19T17:42:26.0000000+00:00</time></trkpt><trkpt lat="64.27333069" lon="-20.44320869"><ele>121.6</ele><time>2012-07-19T17:42:31.0000000+00:00</time></trkpt><trkpt lat="64.27342987" lon="-20.44289017"><ele>121.9</ele><time>2012-07-19T17:42:36.0000000+00:00</time></trkpt><trkpt lat="64.27352905" lon="-20.44256783"><ele>122.3</ele><time>2012-07-19T17:42:41.0000000+00:00</time></trkpt><trkpt lat="64.27365112" lon="-20.44217491"><ele>122.0</ele><time>2012-07-19T17:42:46.0000000+00:00</time></trkpt><trkpt lat="64.27377319" lon="-20.44175911"><ele>122.8</ele><time>2012-07-19T17:42:51.0000000+00:00</time></trkpt><trkpt lat="64.27391052" lon="-20.44133186"><ele>122.3</ele><time>2012-07-19T17:42:56.0000000+00:00</time></trkpt><trkpt lat="64.27403259" lon="-20.44094086"><ele>121.7</ele><time>2012-07-19T17:43:01.0000000+00:00</time></trkpt><trkpt lat="64.27415466" lon="-20.44056702"><ele>122.2</ele><time>2012-07-19T17:43:06.0000000+00:00</time></trkpt><trkpt lat="64.27427673" lon="-20.44019127"><ele>121.0</ele><time>2012-07-19T17:43:11.0000000+00:00</time></trkpt><trkpt lat="64.27439117" lon="-20.43981552"><ele>120.9</ele><time>2012-07-19T17:43:16.0000000+00:00</time></trkpt><trkpt lat="64.27450562" lon="-20.43941879"><ele>121.0</ele><time>2012-07-19T17:43:21.0000000+00:00</time></trkpt><trkpt lat="64.27463532" lon="-20.43897438"><ele>122.3</ele><time>2012-07-19T17:43:26.0000000+00:00</time></trkpt><trkpt lat="64.27476502" lon="-20.4385643"><ele>125.5</ele><time>2012-07-19T17:43:31.0000000+00:00</time></trkpt><trkpt lat="64.2748642" lon="-20.43823433"><ele>126.0</ele><time>2012-07-19T17:43:36.0000000+00:00</time></trkpt><trkpt lat="64.27498627" lon="-20.43783951"><ele>127.5</ele><time>2012-07-19T17:43:41.0000000+00:00</time></trkpt><trkpt lat="64.27509308" lon="-20.43746185"><ele>128.4</ele><time>2012-07-19T17:43:46.0000000+00:00</time></trkpt><trkpt lat="64.27522278" lon="-20.43704224"><ele>129.5</ele><time>2012-07-19T17:43:51.0000000+00:00</time></trkpt><trkpt lat="64.27534485" lon="-20.43669128"><ele>130.9</ele><time>2012-07-19T17:43:56.0000000+00:00</time></trkpt><trkpt lat="64.2754364" lon="-20.43635368"><ele>131.7</ele><time>2012-07-19T17:44:01.0000000+00:00</time></trkpt><trkpt lat="64.27554321" lon="-20.43597412"><ele>133.1</ele><time>2012-07-19T17:44:06.0000000+00:00</time></trkpt><trkpt lat="64.27565002" lon="-20.43561935"><ele>134.7</ele><time>2012-07-19T17:44:11.0000000+00:00</time></trkpt><trkpt lat="64.27578735" lon="-20.43522072"><ele>133.5</ele><time>2012-07-19T17:44:16.0000000+00:00</time></trkpt><trkpt lat="64.27589417" lon="-20.43482971"><ele>132.6</ele><time>2012-07-19T17:44:21.0000000+00:00</time></trkpt><trkpt lat="64.27598572" lon="-20.43446922"><ele>132.2</ele><time>2012-07-19T17:44:26.0000000+00:00</time></trkpt><trkpt lat="64.27609253" lon="-20.43408585"><ele>131.2</ele><time>2012-07-19T17:44:31.0000000+00:00</time></trkpt><trkpt lat="64.2762146" lon="-20.43363953"><ele>130.2</ele><time>2012-07-19T17:44:36.0000000+00:00</time></trkpt><trkpt lat="64.27632141" lon="-20.43319702"><ele>128.7</ele><time>2012-07-19T17:44:41.0000000+00:00</time></trkpt><trkpt lat="64.27642822" lon="-20.432724"><ele>127.5</ele><time>2012-07-19T17:44:46.0000000+00:00</time></trkpt><trkpt lat="64.27652741" lon="-20.43223763"><ele>126.3</ele><time>2012-07-19T17:44:51.0000000+00:00</time></trkpt><trkpt lat="64.27661896" lon="-20.43169212"><ele>125.0</ele><time>2012-07-19T17:44:56.0000000+00:00</time></trkpt><trkpt lat="64.27669525" lon="-20.43112183"><ele>124.0</ele><time>2012-07-19T17:45:01.0000000+00:00</time></trkpt><trkpt lat="64.27677155" lon="-20.43052101"><ele>122.8</ele><time>2012-07-19T17:45:06.0000000+00:00</time></trkpt><trkpt lat="64.27683258" lon="-20.4298439"><ele>121.9</ele><time>2012-07-19T17:45:11.0000000+00:00</time></trkpt><trkpt lat="64.27689362" lon="-20.42909813"><ele>120.5</ele><time>2012-07-19T17:45:16.0000000+00:00</time></trkpt><trkpt lat="64.27692413" lon="-20.42836571"><ele>119.5</ele><time>2012-07-19T17:45:21.0000000+00:00</time></trkpt><trkpt lat="64.27693939" lon="-20.4276619"><ele>118.9</ele><time>2012-07-19T17:45:26.0000000+00:00</time></trkpt><trkpt lat="64.27693939" lon="-20.42700577"><ele>118.3</ele><time>2012-07-19T17:45:31.0000000+00:00</time></trkpt><trkpt lat="64.27693939" lon="-20.42640114"><ele>118.4</ele><time>2012-07-19T17:45:36.0000000+00:00</time></trkpt><trkpt lat="64.27693939" lon="-20.42578697"><ele>118.3</ele><time>2012-07-19T17:45:41.0000000+00:00</time></trkpt><trkpt lat="64.27693176" lon="-20.42519188"><ele>118.1</ele><time>2012-07-19T17:45:46.0000000+00:00</time></trkpt><trkpt lat="64.27693176" lon="-20.42463684"><ele>117.8</ele><time>2012-07-19T17:45:51.0000000+00:00</time></trkpt><trkpt lat="64.27693176" lon="-20.42418098"><ele>117.6</ele><time>2012-07-19T17:45:56.0000000+00:00</time></trkpt><trkpt lat="64.27692413" lon="-20.4237175"><ele>117.4</ele><time>2012-07-19T17:46:01.0000000+00:00</time></trkpt><trkpt lat="64.27692413" lon="-20.42315483"><ele>117.2</ele><time>2012-07-19T17:46:06.0000000+00:00</time></trkpt><trkpt lat="64.27692413" lon="-20.42259026"><ele>117.2</ele><time>2012-07-19T17:46:11.0000000+00:00</time></trkpt><trkpt lat="64.2769165" lon="-20.42206955"><ele>116.9</ele><time>2012-07-19T17:46:16.0000000+00:00</time></trkpt><trkpt lat="64.27692413" lon="-20.42153359"><ele>117.1</ele><time>2012-07-19T17:46:21.0000000+00:00</time></trkpt><trkpt lat="64.2769165" lon="-20.42100525"><ele>117.4</ele><time>2012-07-19T17:46:26.0000000+00:00</time></trkpt><trkpt lat="64.27690888" lon="-20.42049408"><ele>117.4</ele><time>2012-07-19T17:46:31.0000000+00:00</time></trkpt><trkpt lat="64.27690125" lon="-20.42001724"><ele>117.8</ele><time>2012-07-19T17:46:36.0000000+00:00</time></trkpt><trkpt lat="64.27688599" lon="-20.41959763"><ele>118.1</ele><time>2012-07-19T17:46:41.0000000+00:00</time></trkpt><trkpt lat="64.27689362" lon="-20.41923142"><ele>118.5</ele><time>2012-07-19T17:46:46.0000000+00:00</time></trkpt><trkpt lat="64.27687073" lon="-20.41886902"><ele>118.0</ele><time>2012-07-19T17:46:51.0000000+00:00</time></trkpt><trkpt lat="64.27685547" lon="-20.41855431"><ele>118.1</ele><time>2012-07-19T17:46:56.0000000+00:00</time></trkpt><trkpt lat="64.27684021" lon="-20.41824913"><ele>118.6</ele><time>2012-07-19T17:47:01.0000000+00:00</time></trkpt><trkpt lat="64.27682495" lon="-20.41800118"><ele>119.5</ele><time>2012-07-19T17:47:06.0000000+00:00</time></trkpt><trkpt lat="64.27680206" lon="-20.41771889"><ele>121.1</ele><time>2012-07-19T17:47:11.0000000+00:00</time></trkpt><trkpt lat="64.2767868" lon="-20.4174881"><ele>121.6</ele><time>2012-07-19T17:47:16.0000000+00:00</time></trkpt><trkpt lat="64.27677918" lon="-20.41721344"><ele>122.1</ele><time>2012-07-19T17:47:21.0000000+00:00</time></trkpt><trkpt lat="64.27675629" lon="-20.41699028"><ele>123.5</ele><time>2012-07-19T17:47:26.0000000+00:00</time></trkpt><trkpt lat="64.27674866" lon="-20.41672707"><ele>124.8</ele><time>2012-07-19T17:47:31.0000000+00:00</time></trkpt><trkpt lat="64.27672577" lon="-20.41645813"><ele>125.7</ele><time>2012-07-19T17:47:36.0000000+00:00</time></trkpt><trkpt lat="64.27668762" lon="-20.41625023"><ele>125.5</ele><time>2012-07-19T17:47:41.0000000+00:00</time></trkpt><trkpt lat="64.27666473" lon="-20.41603279"><ele>123.8</ele><time>2012-07-19T17:47:46.0000000+00:00</time></trkpt><trkpt lat="64.27664948" lon="-20.41578484"><ele>124.6</ele><time>2012-07-19T17:47:51.0000000+00:00</time></trkpt><trkpt lat="64.27661896" lon="-20.41554833"><ele>124.7</ele><time>2012-07-19T17:47:56.0000000+00:00</time></trkpt><trkpt lat="64.27659607" lon="-20.41533661"><ele>125.1</ele><time>2012-07-19T17:48:01.0000000+00:00</time></trkpt><trkpt lat="64.27657318" lon="-20.41508484"><ele>125.6</ele><time>2012-07-19T17:48:06.0000000+00:00</time></trkpt><trkpt lat="64.27654266" lon="-20.41484261"><ele>125.2</ele><time>2012-07-19T17:48:11.0000000+00:00</time></trkpt><trkpt lat="64.27651215" lon="-20.41461372"><ele>126.2</ele><time>2012-07-19T17:48:16.0000000+00:00</time></trkpt><trkpt lat="64.27648163" lon="-20.41444969"><ele>126.9</ele><time>2012-07-19T17:48:21.0000000+00:00</time></trkpt><trkpt lat="64.27645111" lon="-20.41426086"><ele>127.2</ele><time>2012-07-19T17:48:26.0000000+00:00</time></trkpt><trkpt lat="64.27642059" lon="-20.414011"><ele>127.9</ele><time>2012-07-19T17:48:31.0000000+00:00</time></trkpt><trkpt lat="64.27639771" lon="-20.41375923"><ele>128.0</ele><time>2012-07-19T17:48:36.0000000+00:00</time></trkpt><trkpt lat="64.27636719" lon="-20.41352463"><ele>128.2</ele><time>2012-07-19T17:48:41.0000000+00:00</time></trkpt><trkpt lat="64.27633667" lon="-20.41324997"><ele>128.5</ele><time>2012-07-19T17:48:46.0000000+00:00</time></trkpt><trkpt lat="64.27629089" lon="-20.41296387"><ele>129.2</ele><time>2012-07-19T17:48:51.0000000+00:00</time></trkpt><trkpt lat="64.27622986" lon="-20.41267014"><ele>129.6</ele><time>2012-07-19T17:48:56.0000000+00:00</time></trkpt><trkpt lat="64.27616882" lon="-20.41238594"><ele>129.4</ele><time>2012-07-19T17:49:01.0000000+00:00</time></trkpt><trkpt lat="64.27610779" lon="-20.41207314"><ele>129.6</ele><time>2012-07-19T17:49:06.0000000+00:00</time></trkpt><trkpt lat="64.27603912" lon="-20.41174126"><ele>129.9</ele><time>2012-07-19T17:49:11.0000000+00:00</time></trkpt><trkpt lat="64.27597046" lon="-20.41142464"><ele>129.8</ele><time>2012-07-19T17:49:16.0000000+00:00</time></trkpt><trkpt lat="64.27590179" lon="-20.41109276"><ele>129.7</ele><time>2012-07-19T17:49:21.0000000+00:00</time></trkpt><trkpt lat="64.27583313" lon="-20.41079712"><ele>129.5</ele><time>2012-07-19T17:49:26.0000000+00:00</time></trkpt><trkpt lat="64.27574158" lon="-20.41046333"><ele>129.4</ele><time>2012-07-19T17:49:31.0000000+00:00</time></trkpt><trkpt lat="64.27566528" lon="-20.41011429"><ele>129.3</ele><time>2012-07-19T17:49:36.0000000+00:00</time></trkpt><trkpt lat="64.27557373" lon="-20.40977287"><ele>129.1</ele><time>2012-07-19T17:49:41.0000000+00:00</time></trkpt><trkpt lat="64.27549744" lon="-20.40946007"><ele>128.7</ele><time>2012-07-19T17:49:46.0000000+00:00</time></trkpt><trkpt lat="64.27540588" lon="-20.40910912"><ele>128.3</ele><time>2012-07-19T17:49:51.0000000+00:00</time></trkpt><trkpt lat="64.27532196" lon="-20.40876961"><ele>128.0</ele><time>2012-07-19T17:49:56.0000000+00:00</time></trkpt><trkpt lat="64.27522278" lon="-20.40840912"><ele>128.0</ele><time>2012-07-19T17:50:01.0000000+00:00</time></trkpt><trkpt lat="64.27511597" lon="-20.40804291"><ele>127.8</ele><time>2012-07-19T17:50:06.0000000+00:00</time></trkpt><trkpt lat="64.27501679" lon="-20.40765762"><ele>127.8</ele><time>2012-07-19T17:50:11.0000000+00:00</time></trkpt><trkpt lat="64.27492523" lon="-20.40728188"><ele>127.1</ele><time>2012-07-19T17:50:16.0000000+00:00</time></trkpt><trkpt lat="64.27483368" lon="-20.40688133"><ele>127.2</ele><time>2012-07-19T17:50:21.0000000+00:00</time></trkpt><trkpt lat="64.27474976" lon="-20.40647507"><ele>127.3</ele><time>2012-07-19T17:50:26.0000000+00:00</time></trkpt><trkpt lat="64.2746582" lon="-20.40604019"><ele>126.8</ele><time>2012-07-19T17:50:31.0000000+00:00</time></trkpt><trkpt lat="64.27457428" lon="-20.4056263"><ele>127.3</ele><time>2012-07-19T17:50:36.0000000+00:00</time></trkpt><trkpt lat="64.27449799" lon="-20.40524292"><ele>127.5</ele><time>2012-07-19T17:50:41.0000000+00:00</time></trkpt><trkpt lat="64.27443695" lon="-20.40487862"><ele>127.6</ele><time>2012-07-19T17:50:46.0000000+00:00</time></trkpt><trkpt lat="64.27435303" lon="-20.40441132"><ele>127.5</ele><time>2012-07-19T17:50:51.0000000+00:00</time></trkpt><trkpt lat="64.27429199" lon="-20.40395355"><ele>127.3</ele><time>2012-07-19T17:50:56.0000000+00:00</time></trkpt><trkpt lat="64.2742157" lon="-20.4034977"><ele>126.9</ele><time>2012-07-19T17:51:01.0000000+00:00</time></trkpt><trkpt lat="64.27414703" lon="-20.40302277"><ele>126.3</ele><time>2012-07-19T17:51:06.0000000+00:00</time></trkpt><trkpt lat="64.274086" lon="-20.4025135"><ele>125.8</ele><time>2012-07-19T17:51:11.0000000+00:00</time></trkpt><trkpt lat="64.27401733" lon="-20.40195847"><ele>124.7</ele><time>2012-07-19T17:51:16.0000000+00:00</time></trkpt><trkpt lat="64.27394104" lon="-20.40128517"><ele>123.5</ele><time>2012-07-19T17:51:21.0000000+00:00</time></trkpt><trkpt lat="64.27387238" lon="-20.40055275"><ele>122.3</ele><time>2012-07-19T17:51:26.0000000+00:00</time></trkpt><trkpt lat="64.27380371" lon="-20.39981651"><ele>121.3</ele><time>2012-07-19T17:51:31.0000000+00:00</time></trkpt><trkpt lat="64.27375031" lon="-20.3991127"><ele>121.0</ele><time>2012-07-19T17:51:36.0000000+00:00</time></trkpt><trkpt lat="64.27371216" lon="-20.39847374"><ele>121.1</ele><time>2012-07-19T17:51:41.0000000+00:00</time></trkpt><trkpt lat="64.27367401" lon="-20.39788628"><ele>121.6</ele><time>2012-07-19T17:51:46.0000000+00:00</time></trkpt><trkpt lat="64.27362824" lon="-20.39733505"><ele>122.1</ele><time>2012-07-19T17:51:51.0000000+00:00</time></trkpt><trkpt lat="64.27358246" lon="-20.39680862"><ele>122.6</ele><time>2012-07-19T17:51:56.0000000+00:00</time></trkpt><trkpt lat="64.27352142" lon="-20.39629173"><ele>122.2</ele><time>2012-07-19T17:52:01.0000000+00:00</time></trkpt><trkpt lat="64.27346039" lon="-20.39573097"><ele>121.8</ele><time>2012-07-19T17:52:06.0000000+00:00</time></trkpt><trkpt lat="64.27338409" lon="-20.39513207"><ele>121.6</ele><time>2012-07-19T17:52:11.0000000+00:00</time></trkpt><trkpt lat="64.27328491" lon="-20.39453125"><ele>121.3</ele><time>2012-07-19T17:52:16.0000000+00:00</time></trkpt><trkpt lat="64.27318573" lon="-20.39390755"><ele>121.0</ele><time>2012-07-19T17:52:21.0000000+00:00</time></trkpt><trkpt lat="64.27307129" lon="-20.39330673"><ele>120.3</ele><time>2012-07-19T17:52:26.0000000+00:00</time></trkpt><trkpt lat="64.27294159" lon="-20.39269829"><ele>120.2</ele><time>2012-07-19T17:52:31.0000000+00:00</time></trkpt><trkpt lat="64.27281189" lon="-20.39210701"><ele>119.9</ele><time>2012-07-19T17:52:36.0000000+00:00</time></trkpt><trkpt lat="64.2726593" lon="-20.39153671"><ele>119.7</ele><time>2012-07-19T17:52:41.0000000+00:00</time></trkpt><trkpt lat="64.27250671" lon="-20.39097595"><ele>119.1</ele><time>2012-07-19T17:52:46.0000000+00:00</time></trkpt><trkpt lat="64.27236939" lon="-20.39048576"><ele>118.7</ele><time>2012-07-19T17:52:51.0000000+00:00</time></trkpt><trkpt lat="64.2722168" lon="-20.38996124"><ele>118.6</ele><time>2012-07-19T17:52:56.0000000+00:00</time></trkpt><trkpt lat="64.27204895" lon="-20.38941574"><ele>118.0</ele><time>2012-07-19T17:53:01.0000000+00:00</time></trkpt><trkpt lat="64.27190399" lon="-20.38893127"><ele>117.5</ele><time>2012-07-19T17:53:06.0000000+00:00</time></trkpt><trkpt lat="64.27175903" lon="-20.38843346"><ele>117.3</ele><time>2012-07-19T17:53:11.0000000+00:00</time></trkpt><trkpt lat="64.27162933" lon="-20.3879509"><ele>116.9</ele><time>2012-07-19T17:53:16.0000000+00:00</time></trkpt><trkpt lat="64.27149963" lon="-20.38743401"><ele>116.6</ele><time>2012-07-19T17:53:21.0000000+00:00</time></trkpt><trkpt lat="64.27139282" lon="-20.38692284"><ele>116.8</ele><time>2012-07-19T17:53:26.0000000+00:00</time></trkpt><trkpt lat="64.27127838" lon="-20.38636971"><ele>116.3</ele><time>2012-07-19T17:53:31.0000000+00:00</time></trkpt><trkpt lat="64.27118683" lon="-20.38580132"><ele>116.0</ele><time>2012-07-19T17:53:36.0000000+00:00</time></trkpt><trkpt lat="64.27110291" lon="-20.38522911"><ele>115.4</ele><time>2012-07-19T17:53:41.0000000+00:00</time></trkpt><trkpt lat="64.27102661" lon="-20.38466644"><ele>115.3</ele><time>2012-07-19T17:53:46.0000000+00:00</time></trkpt><trkpt lat="64.27096558" lon="-20.38403893"><ele>114.9</ele><time>2012-07-19T17:53:51.0000000+00:00</time></trkpt><trkpt lat="64.2709198" lon="-20.3834343"><ele>114.3</ele><time>2012-07-19T17:53:56.0000000+00:00</time></trkpt><trkpt lat="64.27086639" lon="-20.38280487"><ele>113.8</ele><time>2012-07-19T17:54:01.0000000+00:00</time></trkpt><trkpt lat="64.27083588" lon="-20.38208389"><ele>112.8</ele><time>2012-07-19T17:54:06.0000000+00:00</time></trkpt><trkpt lat="64.27082825" lon="-20.38131905"><ele>112.5</ele><time>2012-07-19T17:54:11.0000000+00:00</time></trkpt><trkpt lat="64.27083588" lon="-20.38054848"><ele>111.6</ele><time>2012-07-19T17:54:16.0000000+00:00</time></trkpt><trkpt lat="64.27085877" lon="-20.37978363"><ele>111.0</ele><time>2012-07-19T17:54:21.0000000+00:00</time></trkpt><trkpt lat="64.27090454" lon="-20.37897682"><ele>109.9</ele><time>2012-07-19T17:54:26.0000000+00:00</time></trkpt><trkpt lat="64.27098084" lon="-20.37816238"><ele>109.2</ele><time>2012-07-19T17:54:31.0000000+00:00</time></trkpt><trkpt lat="64.27106476" lon="-20.37739945"><ele>108.5</ele><time>2012-07-19T17:54:36.0000000+00:00</time></trkpt><trkpt lat="64.2711792" lon="-20.37665367"><ele>107.6</ele><time>2012-07-19T17:54:41.0000000+00:00</time></trkpt><trkpt lat="64.2713089" lon="-20.37588692"><ele>106.8</ele><time>2012-07-19T17:54:46.0000000+00:00</time></trkpt><trkpt lat="64.27146912" lon="-20.37511253"><ele>106.0</ele><time>2012-07-19T17:54:51.0000000+00:00</time></trkpt><trkpt lat="64.27162933" lon="-20.3743515"><ele>105.7</ele><time>2012-07-19T17:54:56.0000000+00:00</time></trkpt><trkpt lat="64.27178192" lon="-20.37358284"><ele>105.6</ele><time>2012-07-19T17:55:01.0000000+00:00</time></trkpt><trkpt lat="64.27191925" lon="-20.37288094"><ele>105.8</ele><time>2012-07-19T17:55:06.0000000+00:00</time></trkpt><trkpt lat="64.27204132" lon="-20.3722229"><ele>105.9</ele><time>2012-07-19T17:55:11.0000000+00:00</time></trkpt><trkpt lat="64.2721405" lon="-20.37154579"><ele>106.1</ele><time>2012-07-19T17:55:16.0000000+00:00</time></trkpt><trkpt lat="64.2722168" lon="-20.37095451"><ele>106.2</ele><time>2012-07-19T17:55:21.0000000+00:00</time></trkpt><trkpt lat="64.2722702" lon="-20.37033463"><ele>106.6</ele><time>2012-07-19T17:55:26.0000000+00:00</time></trkpt><trkpt lat="64.27232361" lon="-20.3696785"><ele>106.7</ele><time>2012-07-19T17:55:31.0000000+00:00</time></trkpt><trkpt lat="64.27236176" lon="-20.36909103"><ele>106.7</ele><time>2012-07-19T17:55:36.0000000+00:00</time></trkpt><trkpt lat="64.27240753" lon="-20.36845779"><ele>106.5</ele><time>2012-07-19T17:55:41.0000000+00:00</time></trkpt><trkpt lat="64.27244568" lon="-20.36784935"><ele>106.5</ele><time>2012-07-19T17:55:46.0000000+00:00</time></trkpt><trkpt lat="64.27246857" lon="-20.36721039"><ele>106.6</ele><time>2012-07-19T17:55:51.0000000+00:00</time></trkpt><trkpt lat="64.27250671" lon="-20.36652565"><ele>106.1</ele><time>2012-07-19T17:55:56.0000000+00:00</time></trkpt><trkpt lat="64.27254486" lon="-20.3658905"><ele>105.6</ele><time>2012-07-19T17:56:01.0000000+00:00</time></trkpt><trkpt lat="64.27258301" lon="-20.36522484"><ele>105.4</ele><time>2012-07-19T17:56:06.0000000+00:00</time></trkpt><trkpt lat="64.27262116" lon="-20.36455536"><ele>105.4</ele><time>2012-07-19T17:56:11.0000000+00:00</time></trkpt><trkpt lat="64.27265167" lon="-20.36394882"><ele>105.0</ele><time>2012-07-19T17:56:16.0000000+00:00</time></trkpt><trkpt lat="64.27267456" lon="-20.36336327"><ele>104.6</ele><time>2012-07-19T17:56:21.0000000+00:00</time></trkpt><trkpt lat="64.27271271" lon="-20.36271095"><ele>104.0</ele><time>2012-07-19T17:56:26.0000000+00:00</time></trkpt><trkpt lat="64.27274323" lon="-20.36209488"><ele>103.9</ele><time>2012-07-19T17:56:31.0000000+00:00</time></trkpt><trkpt lat="64.27278137" lon="-20.36150169"><ele>103.7</ele><time>2012-07-19T17:56:36.0000000+00:00</time></trkpt><trkpt lat="64.27281189" lon="-20.36089706"><ele>103.5</ele><time>2012-07-19T17:56:41.0000000+00:00</time></trkpt><trkpt lat="64.27285767" lon="-20.36025429"><ele>103.8</ele><time>2012-07-19T17:56:46.0000000+00:00</time></trkpt><trkpt lat="64.2729187" lon="-20.35959244"><ele>103.8</ele><time>2012-07-19T17:56:51.0000000+00:00</time></trkpt><trkpt lat="64.272995" lon="-20.35892677"><ele>103.4</ele><time>2012-07-19T17:56:56.0000000+00:00</time></trkpt><trkpt lat="64.27307892" lon="-20.35834122"><ele>103.3</ele><time>2012-07-19T17:57:01.0000000+00:00</time></trkpt><trkpt lat="64.27316284" lon="-20.35779762"><ele>103.4</ele><time>2012-07-19T17:57:06.0000000+00:00</time></trkpt><trkpt lat="64.27326965" lon="-20.35725403"><ele>103.2</ele><time>2012-07-19T17:57:11.0000000+00:00</time></trkpt><trkpt lat="64.27340698" lon="-20.35673714"><ele>103.3</ele><time>2012-07-19T17:57:16.0000000+00:00</time></trkpt><trkpt lat="64.27354431" lon="-20.35620689"><ele>103.0</ele><time>2012-07-19T17:57:21.0000000+00:00</time></trkpt><trkpt lat="64.27371216" lon="-20.35567665"><ele>102.7</ele><time>2012-07-19T17:57:26.0000000+00:00</time></trkpt><trkpt lat="64.27391815" lon="-20.35513878"><ele>102.6</ele><time>2012-07-19T17:57:31.0000000+00:00</time></trkpt><trkpt lat="64.27410889" lon="-20.35466194"><ele>102.4</ele><time>2012-07-19T17:57:36.0000000+00:00</time></trkpt><trkpt lat="64.27432251" lon="-20.35419846"><ele>102.0</ele><time>2012-07-19T17:57:41.0000000+00:00</time></trkpt><trkpt lat="64.27455139" lon="-20.35374641"><ele>102.3</ele><time>2012-07-19T17:57:46.0000000+00:00</time></trkpt><trkpt lat="64.27474976" lon="-20.35334396"><ele>102.8</ele><time>2012-07-19T17:57:51.0000000+00:00</time></trkpt><trkpt lat="64.27495575" lon="-20.35295677"><ele>103.2</ele><time>2012-07-19T17:57:56.0000000+00:00</time></trkpt><trkpt lat="64.27515411" lon="-20.3525486"><ele>103.1</ele><time>2012-07-19T17:58:01.0000000+00:00</time></trkpt><trkpt lat="64.27533722" lon="-20.35217094"><ele>103.4</ele><time>2012-07-19T17:58:06.0000000+00:00</time></trkpt><trkpt lat="64.27552033" lon="-20.35177231"><ele>103.1</ele><time>2012-07-19T17:58:11.0000000+00:00</time></trkpt><trkpt lat="64.27571869" lon="-20.3513813"><ele>103.0</ele><time>2012-07-19T17:58:16.0000000+00:00</time></trkpt><trkpt lat="64.27590179" lon="-20.35101509"><ele>103.0</ele><time>2012-07-19T17:58:21.0000000+00:00</time></trkpt><trkpt lat="64.27611542" lon="-20.3506546"><ele>103.1</ele><time>2012-07-19T17:58:26.0000000+00:00</time></trkpt><trkpt lat="64.27635956" lon="-20.35026741"><ele>102.6</ele><time>2012-07-19T17:58:31.0000000+00:00</time></trkpt><trkpt lat="64.27661133" lon="-20.34986877"><ele>102.3</ele><time>2012-07-19T17:58:36.0000000+00:00</time></trkpt><trkpt lat="64.27689362" lon="-20.34949493"><ele>100.5</ele><time>2012-07-19T17:58:41.0000000+00:00</time></trkpt><trkpt lat="64.27716827" lon="-20.34912872"><ele>99.7</ele><time>2012-07-19T17:58:46.0000000+00:00</time></trkpt><trkpt lat="64.27744293" lon="-20.34880638"><ele>99.0</ele><time>2012-07-19T17:58:51.0000000+00:00</time></trkpt><trkpt lat="64.27771759" lon="-20.34848976"><ele>99.3</ele><time>2012-07-19T17:58:56.0000000+00:00</time></trkpt><trkpt lat="64.27799225" lon="-20.34820557"><ele>99.2</ele><time>2012-07-19T17:59:01.0000000+00:00</time></trkpt><trkpt lat="64.27825928" lon="-20.34791756"><ele>99.9</ele><time>2012-07-19T17:59:06.0000000+00:00</time></trkpt><trkpt lat="64.27849579" lon="-20.34767723"><ele>99.9</ele><time>2012-07-19T17:59:11.0000000+00:00</time></trkpt><trkpt lat="64.27869415" lon="-20.34744835"><ele>100.6</ele><time>2012-07-19T17:59:16.0000000+00:00</time></trkpt><trkpt lat="64.27891541" lon="-20.3472023"><ele>100.9</ele><time>2012-07-19T17:59:21.0000000+00:00</time></trkpt><trkpt lat="64.27917481" lon="-20.34692192"><ele>102.7</ele><time>2012-07-19T17:59:26.0000000+00:00</time></trkpt><trkpt lat="64.2794342" lon="-20.34664726"><ele>101.8</ele><time>2012-07-19T17:59:31.0000000+00:00</time></trkpt><trkpt lat="64.27967835" lon="-20.34640503"><ele>101.5</ele><time>2012-07-19T17:59:36.0000000+00:00</time></trkpt><trkpt lat="64.2798996" lon="-20.3461628"><ele>100.6</ele><time>2012-07-19T17:59:41.0000000+00:00</time></trkpt><trkpt lat="64.28014374" lon="-20.34592438"><ele>99.6</ele><time>2012-07-19T17:59:46.0000000+00:00</time></trkpt><trkpt lat="64.28037262" lon="-20.3456974"><ele>100.1</ele><time>2012-07-19T17:59:51.0000000+00:00</time></trkpt><trkpt lat="64.28058624" lon="-20.34547234"><ele>98.8</ele><time>2012-07-19T17:59:56.0000000+00:00</time></trkpt><trkpt lat="64.28079987" lon="-20.34523583"><ele>99.4</ele><time>2012-07-19T18:00:01.0000000+00:00</time></trkpt><trkpt lat="64.28100586" lon="-20.34500694"><ele>98.6</ele><time>2012-07-19T18:00:06.0000000+00:00</time></trkpt><trkpt lat="64.28120422" lon="-20.3447628"><ele>97.7</ele><time>2012-07-19T18:00:11.0000000+00:00</time></trkpt><trkpt lat="64.28138733" lon="-20.34457398"><ele>98.2</ele><time>2012-07-19T18:00:16.0000000+00:00</time></trkpt><trkpt lat="64.28157806" lon="-20.34435844"><ele>98.1</ele><time>2012-07-19T18:00:21.0000000+00:00</time></trkpt><trkpt lat="64.28178406" lon="-20.34413719"><ele>98.9</ele><time>2012-07-19T18:00:26.0000000+00:00</time></trkpt><trkpt lat="64.28200531" lon="-20.34391594"><ele>99.6</ele><time>2012-07-19T18:00:31.0000000+00:00</time></trkpt><trkpt lat="64.2822113" lon="-20.34367752"><ele>100.9</ele><time>2012-07-19T18:00:36.0000000+00:00</time></trkpt><trkpt lat="64.28237152" lon="-20.34349823"><ele>103.5</ele><time>2012-07-19T18:00:41.0000000+00:00</time></trkpt><trkpt lat="64.28253174" lon="-20.34332848"><ele>104.6</ele><time>2012-07-19T18:00:46.0000000+00:00</time></trkpt><trkpt lat="64.28271484" lon="-20.34313583"><ele>105.5</ele><time>2012-07-19T18:00:51.0000000+00:00</time></trkpt><trkpt lat="64.28289795" lon="-20.34292221"><ele>105.8</ele><time>2012-07-19T18:00:56.0000000+00:00</time></trkpt><trkpt lat="64.28310394" lon="-20.34268379"><ele>106.9</ele><time>2012-07-19T18:01:01.0000000+00:00</time></trkpt><trkpt lat="64.28330994" lon="-20.34247589"><ele>107.5</ele><time>2012-07-19T18:01:06.0000000+00:00</time></trkpt><trkpt lat="64.28347778" lon="-20.34231567"><ele>106.9</ele><time>2012-07-19T18:01:11.0000000+00:00</time></trkpt><trkpt lat="64.28359985" lon="-20.34218979"><ele>107.2</ele><time>2012-07-19T18:01:16.0000000+00:00</time></trkpt><trkpt lat="64.28372192" lon="-20.34205246"><ele>106.9</ele><time>2012-07-19T18:01:21.0000000+00:00</time></trkpt><trkpt lat="64.28386688" lon="-20.34191513"><ele>105.9</ele><time>2012-07-19T18:01:26.0000000+00:00</time></trkpt><trkpt lat="64.28400421" lon="-20.34176254"><ele>105.7</ele><time>2012-07-19T18:01:31.0000000+00:00</time></trkpt><trkpt lat="64.28414917" lon="-20.34159851"><ele>105.9</ele><time>2012-07-19T18:01:36.0000000+00:00</time></trkpt><trkpt lat="64.28427887" lon="-20.3414402"><ele>105.3</ele><time>2012-07-19T18:01:41.0000000+00:00</time></trkpt><trkpt lat="64.28443146" lon="-20.34127617"><ele>106.0</ele><time>2012-07-19T18:01:46.0000000+00:00</time></trkpt><trkpt lat="64.28458405" lon="-20.34114265"><ele>105.2</ele><time>2012-07-19T18:01:51.0000000+00:00</time></trkpt><trkpt lat="64.28472138" lon="-20.34101296"><ele>104.5</ele><time>2012-07-19T18:01:56.0000000+00:00</time></trkpt><trkpt lat="64.28486633" lon="-20.34087372"><ele>105.1</ele><time>2012-07-19T18:02:01.0000000+00:00</time></trkpt><trkpt lat="64.28502655" lon="-20.34074211"><ele>104.9</ele><time>2012-07-19T18:02:06.0000000+00:00</time></trkpt><trkpt lat="64.28520203" lon="-20.34060288"><ele>104.9</ele><time>2012-07-19T18:02:11.0000000+00:00</time></trkpt><trkpt lat="64.28539276" lon="-20.34049034"><ele>105.6</ele><time>2012-07-19T18:02:16.0000000+00:00</time></trkpt><trkpt lat="64.28559876" lon="-20.34037781"><ele>106.2</ele><time>2012-07-19T18:02:21.0000000+00:00</time></trkpt><trkpt lat="64.28578949" lon="-20.34022903"><ele>107.0</ele><time>2012-07-19T18:02:26.0000000+00:00</time></trkpt><trkpt lat="64.28598785" lon="-20.34009361"><ele>107.5</ele><time>2012-07-19T18:02:31.0000000+00:00</time></trkpt><trkpt lat="64.28619385" lon="-20.33994484"><ele>108.3</ele><time>2012-07-19T18:02:36.0000000+00:00</time></trkpt><trkpt lat="64.2864151" lon="-20.3398056"><ele>107.1</ele><time>2012-07-19T18:02:41.0000000+00:00</time></trkpt><trkpt lat="64.28668213" lon="-20.33965111"><ele>107.0</ele><time>2012-07-19T18:02:46.0000000+00:00</time></trkpt><trkpt lat="64.28694916" lon="-20.33950043"><ele>105.8</ele><time>2012-07-19T18:02:51.0000000+00:00</time></trkpt><trkpt lat="64.28720856" lon="-20.3393631"><ele>104.9</ele><time>2012-07-19T18:02:56.0000000+00:00</time></trkpt><trkpt lat="64.28749085" lon="-20.33919334"><ele>105.5</ele><time>2012-07-19T18:03:01.0000000+00:00</time></trkpt><trkpt lat="64.28775024" lon="-20.33904457"><ele>102.6</ele><time>2012-07-19T18:03:06.0000000+00:00</time></trkpt><trkpt lat="64.28806305" lon="-20.33885002"><ele>103.7</ele><time>2012-07-19T18:03:11.0000000+00:00</time></trkpt><trkpt lat="64.28836823" lon="-20.33864975"><ele>103.4</ele><time>2012-07-19T18:03:16.0000000+00:00</time></trkpt><trkpt lat="64.28866577" lon="-20.33847427"><ele>100.3</ele><time>2012-07-19T18:03:21.0000000+00:00</time></trkpt><trkpt lat="64.28896332" lon="-20.33826256"><ele>99.3</ele><time>2012-07-19T18:03:26.0000000+00:00</time></trkpt><trkpt lat="64.28924561" lon="-20.3380909"><ele>98.1</ele><time>2012-07-19T18:03:31.0000000+00:00</time></trkpt><trkpt lat="64.28953552" lon="-20.33790016"><ele>98.1</ele><time>2012-07-19T18:03:36.0000000+00:00</time></trkpt><trkpt lat="64.28985596" lon="-20.33770371"><ele>97.0</ele><time>2012-07-19T18:03:41.0000000+00:00</time></trkpt><trkpt lat="64.29016876" lon="-20.3375206"><ele>96.7</ele><time>2012-07-19T18:03:46.0000000+00:00</time></trkpt><trkpt lat="64.29043579" lon="-20.33735657"><ele>95.1</ele><time>2012-07-19T18:03:51.0000000+00:00</time></trkpt><trkpt lat="64.29068756" lon="-20.33717918"><ele>95.2</ele><time>2012-07-19T18:03:56.0000000+00:00</time></trkpt><trkpt lat="64.291008" lon="-20.33698082"><ele>96.3</ele><time>2012-07-19T18:04:01.0000000+00:00</time></trkpt><trkpt lat="64.2913208" lon="-20.33677101"><ele>94.1</ele><time>2012-07-19T18:04:06.0000000+00:00</time></trkpt><trkpt lat="64.29161835" lon="-20.33658409"><ele>93.1</ele><time>2012-07-19T18:04:11.0000000+00:00</time></trkpt><trkpt lat="64.29190064" lon="-20.33640671"><ele>91.6</ele><time>2012-07-19T18:04:16.0000000+00:00</time></trkpt><trkpt lat="64.29216766" lon="-20.33623505"><ele>91.9</ele><time>2012-07-19T18:04:21.0000000+00:00</time></trkpt><trkpt lat="64.29240418" lon="-20.33608437"><ele>92.8</ele><time>2012-07-19T18:04:26.0000000+00:00</time></trkpt><trkpt lat="64.29265595" lon="-20.33592415"><ele>92.2</ele><time>2012-07-19T18:04:31.0000000+00:00</time></trkpt><trkpt lat="64.2928772" lon="-20.33578301"><ele>93.4</ele><time>2012-07-19T18:04:36.0000000+00:00</time></trkpt><trkpt lat="64.29310608" lon="-20.33563805"><ele>94.4</ele><time>2012-07-19T18:04:41.0000000+00:00</time></trkpt><trkpt lat="64.29336548" lon="-20.33547401"><ele>93.5</ele><time>2012-07-19T18:04:46.0000000+00:00</time></trkpt><trkpt lat="64.29362488" lon="-20.33532333"><ele>93.3</ele><time>2012-07-19T18:04:51.0000000+00:00</time></trkpt><trkpt lat="64.29384613" lon="-20.33517838"><ele>95.3</ele><time>2012-07-19T18:04:56.0000000+00:00</time></trkpt><trkpt lat="64.29406738" lon="-20.3350544"><ele>93.4</ele><time>2012-07-19T18:05:01.0000000+00:00</time></trkpt><trkpt lat="64.29430389" lon="-20.33488464"><ele>95.2</ele><time>2012-07-19T18:05:06.0000000+00:00</time></trkpt><trkpt lat="64.29454041" lon="-20.33473587"><ele>96.7</ele><time>2012-07-19T18:05:11.0000000+00:00</time></trkpt><trkpt lat="64.29473114" lon="-20.33462143"><ele>98.0</ele><time>2012-07-19T18:05:16.0000000+00:00</time></trkpt><trkpt lat="64.29492188" lon="-20.33450508"><ele>101.2</ele><time>2012-07-19T18:05:21.0000000+00:00</time></trkpt><trkpt lat="64.29514313" lon="-20.33435631"><ele>101.4</ele><time>2012-07-19T18:05:26.0000000+00:00</time></trkpt><trkpt lat="64.29538727" lon="-20.33421135"><ele>98.3</ele><time>2012-07-19T18:05:31.0000000+00:00</time></trkpt><trkpt lat="64.29560089" lon="-20.33405495"><ele>99.6</ele><time>2012-07-19T18:05:36.0000000+00:00</time></trkpt><trkpt lat="64.29579926" lon="-20.33393288"><ele>98.9</ele><time>2012-07-19T18:05:41.0000000+00:00</time></trkpt><trkpt lat="64.29602051" lon="-20.33379555"><ele>100.9</ele><time>2012-07-19T18:05:46.0000000+00:00</time></trkpt><trkpt lat="64.2962265" lon="-20.33366966"><ele>102.1</ele><time>2012-07-19T18:05:51.0000000+00:00</time></trkpt><trkpt lat="64.29639435" lon="-20.33356476"><ele>100.4</ele><time>2012-07-19T18:05:56.0000000+00:00</time></trkpt><trkpt lat="64.29658508" lon="-20.33345413"><ele>101.0</ele><time>2012-07-19T18:06:01.0000000+00:00</time></trkpt><trkpt lat="64.2967453" lon="-20.33332825"><ele>100.3</ele><time>2012-07-19T18:06:06.0000000+00:00</time></trkpt><trkpt lat="64.29695129" lon="-20.33318901"><ele>99.6</ele><time>2012-07-19T18:06:11.0000000+00:00</time></trkpt><trkpt lat="64.29717255" lon="-20.3330555"><ele>99.2</ele><time>2012-07-19T18:06:16.0000000+00:00</time></trkpt><trkpt lat="64.29738617" lon="-20.33290672"><ele>99.2</ele><time>2012-07-19T18:06:21.0000000+00:00</time></trkpt><trkpt lat="64.29760742" lon="-20.33277702"><ele>94.9</ele><time>2012-07-19T18:06:26.0000000+00:00</time></trkpt><trkpt lat="64.29786682" lon="-20.33261108"><ele>93.0</ele><time>2012-07-19T18:06:31.0000000+00:00</time></trkpt><trkpt lat="64.29813385" lon="-20.33243179"><ele>93.3</ele><time>2012-07-19T18:06:36.0000000+00:00</time></trkpt><trkpt lat="64.29840088" lon="-20.33226395"><ele>92.9</ele><time>2012-07-19T18:06:41.0000000+00:00</time></trkpt><trkpt lat="64.29868317" lon="-20.33210945"><ele>94.2</ele><time>2012-07-19T18:06:46.0000000+00:00</time></trkpt><trkpt lat="64.29896545" lon="-20.33194351"><ele>95.6</ele><time>2012-07-19T18:06:51.0000000+00:00</time></trkpt><trkpt lat="64.29923248" lon="-20.33176804"><ele>95.5</ele><time>2012-07-19T18:06:56.0000000+00:00</time></trkpt><trkpt lat="64.29951477" lon="-20.33160973"><ele>96.5</ele><time>2012-07-19T18:07:01.0000000+00:00</time></trkpt><trkpt lat="64.29978943" lon="-20.33143425"><ele>96.6</ele><time>2012-07-19T18:07:06.0000000+00:00</time></trkpt><trkpt lat="64.30006409" lon="-20.33125877"><ele>97.3</ele><time>2012-07-19T18:07:11.0000000+00:00</time></trkpt><trkpt lat="64.30034638" lon="-20.33110046"><ele>99.2</ele><time>2012-07-19T18:07:16.0000000+00:00</time></trkpt><trkpt lat="64.30058289" lon="-20.33094597"><ele>99.0</ele><time>2012-07-19T18:07:21.0000000+00:00</time></trkpt><trkpt lat="64.30083466" lon="-20.3307724"><ele>98.5</ele><time>2012-07-19T18:07:26.0000000+00:00</time></trkpt><trkpt lat="64.30107117" lon="-20.33058929"><ele>97.8</ele><time>2012-07-19T18:07:31.0000000+00:00</time></trkpt><trkpt lat="64.30131531" lon="-20.33040237"><ele>96.1</ele><time>2012-07-19T18:07:36.0000000+00:00</time></trkpt><trkpt lat="64.3015213" lon="-20.33019638"><ele>97.1</ele><time>2012-07-19T18:07:41.0000000+00:00</time></trkpt><trkpt lat="64.30174255" lon="-20.32997704"><ele>97.7</ele><time>2012-07-19T18:07:46.0000000+00:00</time></trkpt><trkpt lat="64.30197907" lon="-20.32973671"><ele>94.3</ele><time>2012-07-19T18:07:51.0000000+00:00</time></trkpt><trkpt lat="64.30223846" lon="-20.32946396"><ele>93.4</ele><time>2012-07-19T18:07:56.0000000+00:00</time></trkpt><trkpt lat="64.30249023" lon="-20.32915497"><ele>91.6</ele><time>2012-07-19T18:08:01.0000000+00:00</time></trkpt><trkpt lat="64.30275726" lon="-20.32879829"><ele>89.9</ele><time>2012-07-19T18:08:06.0000000+00:00</time></trkpt><trkpt lat="64.30301666" lon="-20.32838249"><ele>89.3</ele><time>2012-07-19T18:08:11.0000000+00:00</time></trkpt><trkpt lat="64.30327606" lon="-20.32790184"><ele>89.9</ele><time>2012-07-19T18:08:16.0000000+00:00</time></trkpt><trkpt lat="64.3035202" lon="-20.32740402"><ele>90.6</ele><time>2012-07-19T18:08:21.0000000+00:00</time></trkpt><trkpt lat="64.30374908" lon="-20.32690239"><ele>90.3</ele><time>2012-07-19T18:08:26.0000000+00:00</time></trkpt><trkpt lat="64.30393982" lon="-20.32641983"><ele>89.9</ele><time>2012-07-19T18:08:31.0000000+00:00</time></trkpt><trkpt lat="64.30412293" lon="-20.32593155"><ele>90.1</ele><time>2012-07-19T18:08:36.0000000+00:00</time></trkpt><trkpt lat="64.30429077" lon="-20.32538605"><ele>89.1</ele><time>2012-07-19T18:08:41.0000000+00:00</time></trkpt><trkpt lat="64.30446625" lon="-20.32482338"><ele>89.5</ele><time>2012-07-19T18:08:46.0000000+00:00</time></trkpt><trkpt lat="64.30462647" lon="-20.32425308"><ele>89.5</ele><time>2012-07-19T18:08:51.0000000+00:00</time></trkpt><trkpt lat="64.30477905" lon="-20.32364655"><ele>90.2</ele><time>2012-07-19T18:08:56.0000000+00:00</time></trkpt><trkpt lat="64.30491638" lon="-20.32306671"><ele>90.6</ele><time>2012-07-19T18:09:01.0000000+00:00</time></trkpt><trkpt lat="64.30504608" lon="-20.32253075"><ele>90.6</ele><time>2012-07-19T18:09:06.0000000+00:00</time></trkpt><trkpt lat="64.30517578" lon="-20.32197762"><ele>91.2</ele><time>2012-07-19T18:09:11.0000000+00:00</time></trkpt><trkpt lat="64.30529022" lon="-20.32146835"><ele>91.5</ele><time>2012-07-19T18:09:16.0000000+00:00</time></trkpt><trkpt lat="64.3053894" lon="-20.32098961"><ele>90.8</ele><time>2012-07-19T18:09:21.0000000+00:00</time></trkpt><trkpt lat="64.30550385" lon="-20.3204937"><ele>90.3</ele><time>2012-07-19T18:09:26.0000000+00:00</time></trkpt><trkpt lat="64.30560303" lon="-20.32008171"><ele>89.1</ele><time>2012-07-19T18:09:31.0000000+00:00</time></trkpt><trkpt lat="64.30570221" lon="-20.31969261"><ele>88.8</ele><time>2012-07-19T18:09:36.0000000+00:00</time></trkpt><trkpt lat="64.30579376" lon="-20.31928062"><ele>88.1</ele><time>2012-07-19T18:09:41.0000000+00:00</time></trkpt><trkpt lat="64.30587006" lon="-20.31889153"><ele>86.9</ele><time>2012-07-19T18:09:46.0000000+00:00</time></trkpt><trkpt lat="64.30597687" lon="-20.31847191"><ele>88.3</ele><time>2012-07-19T18:09:51.0000000+00:00</time></trkpt><trkpt lat="64.30608368" lon="-20.31803894"><ele>89.6</ele><time>2012-07-19T18:09:56.0000000+00:00</time></trkpt><trkpt lat="64.30617523" lon="-20.31762123"><ele>88.8</ele><time>2012-07-19T18:10:01.0000000+00:00</time></trkpt><trkpt lat="64.30628204" lon="-20.3171978"><ele>89.9</ele><time>2012-07-19T18:10:06.0000000+00:00</time></trkpt><trkpt lat="64.3063736" lon="-20.31677437"><ele>88.6</ele><time>2012-07-19T18:10:11.0000000+00:00</time></trkpt><trkpt lat="64.30647278" lon="-20.31632614"><ele>87.9</ele><time>2012-07-19T18:10:16.0000000+00:00</time></trkpt><trkpt lat="64.30658722" lon="-20.31588173"><ele>88.6</ele><time>2012-07-19T18:10:21.0000000+00:00</time></trkpt><trkpt lat="64.30670929" lon="-20.31542206"><ele>91.1</ele><time>2012-07-19T18:10:26.0000000+00:00</time></trkpt><trkpt lat="64.30680084" lon="-20.31503105"><ele>90.3</ele><time>2012-07-19T18:10:31.0000000+00:00</time></trkpt><trkpt lat="64.30690765" lon="-20.31458473"><ele>91.1</ele><time>2012-07-19T18:10:36.0000000+00:00</time></trkpt><trkpt lat="64.3070221" lon="-20.31411552"><ele>92.2</ele><time>2012-07-19T18:10:41.0000000+00:00</time></trkpt><trkpt lat="64.30713654" lon="-20.31364632"><ele>93.7</ele><time>2012-07-19T18:10:46.0000000+00:00</time></trkpt><trkpt lat="64.30722809" lon="-20.31322861"><ele>93.5</ele><time>2012-07-19T18:10:51.0000000+00:00</time></trkpt><trkpt lat="64.30734253" lon="-20.31274605"><ele>94.8</ele><time>2012-07-19T18:10:56.0000000+00:00</time></trkpt><trkpt lat="64.3074646" lon="-20.31224823"><ele>95.5</ele><time>2012-07-19T18:11:01.0000000+00:00</time></trkpt><trkpt lat="64.30757904" lon="-20.31177139"><ele>96.5</ele><time>2012-07-19T18:11:06.0000000+00:00</time></trkpt><trkpt lat="64.30768585" lon="-20.31132317"><ele>96.6</ele><time>2012-07-19T18:11:11.0000000+00:00</time></trkpt><trkpt lat="64.30780029" lon="-20.31084251"><ele>96.9</ele><time>2012-07-19T18:11:16.0000000+00:00</time></trkpt><trkpt lat="64.30791473" lon="-20.31035805"><ele>96.8</ele><time>2012-07-19T18:11:21.0000000+00:00</time></trkpt><trkpt lat="64.30802155" lon="-20.30988503"><ele>96.9</ele><time>2012-07-19T18:11:26.0000000+00:00</time></trkpt><trkpt lat="64.30812836" lon="-20.30947113"><ele>97.4</ele><time>2012-07-19T18:11:31.0000000+00:00</time></trkpt><trkpt lat="64.30822754" lon="-20.30901718"><ele>97.4</ele><time>2012-07-19T18:11:36.0000000+00:00</time></trkpt><trkpt lat="64.30832672" lon="-20.30861473"><ele>97.8</ele><time>2012-07-19T18:11:41.0000000+00:00</time></trkpt><trkpt lat="64.30840302" lon="-20.30823708"><ele>97.3</ele><time>2012-07-19T18:11:46.0000000+00:00</time></trkpt><trkpt lat="64.30847931" lon="-20.30791283"><ele>98.4</ele><time>2012-07-19T18:11:51.0000000+00:00</time></trkpt><trkpt lat="64.30854797" lon="-20.30759811"><ele>99.1</ele><time>2012-07-19T18:11:56.0000000+00:00</time></trkpt><trkpt lat="64.30861664" lon="-20.30733109"><ele>100.0</ele><time>2012-07-19T18:12:01.0000000+00:00</time></trkpt><trkpt lat="64.30867767" lon="-20.30704498"><ele>99.9</ele><time>2012-07-19T18:12:06.0000000+00:00</time></trkpt><trkpt lat="64.30873108" lon="-20.30673599"><ele>103.2</ele><time>2012-07-19T18:12:11.0000000+00:00</time></trkpt><trkpt lat="64.30879974" lon="-20.30646324"><ele>103.8</ele><time>2012-07-19T18:12:16.0000000+00:00</time></trkpt><trkpt lat="64.30884552" lon="-20.30626297"><ele>104.3</ele><time>2012-07-19T18:12:21.0000000+00:00</time></trkpt><trkpt lat="64.30892181" lon="-20.305933"><ele>104.7</ele><time>2012-07-19T18:12:26.0000000+00:00</time></trkpt><trkpt lat="64.30899811" lon="-20.30561066"><ele>104.7</ele><time>2012-07-19T18:12:31.0000000+00:00</time></trkpt><trkpt lat="64.3090744" lon="-20.30528641"><ele>104.7</ele><time>2012-07-19T18:12:36.0000000+00:00</time></trkpt><trkpt lat="64.30913544" lon="-20.30503655"><ele>104.8</ele><time>2012-07-19T18:12:41.0000000+00:00</time></trkpt><trkpt lat="64.3092041" lon="-20.30474854"><ele>105.1</ele><time>2012-07-19T18:12:46.0000000+00:00</time></trkpt><trkpt lat="64.30924988" lon="-20.30449104"><ele>105.7</ele><time>2012-07-19T18:12:51.0000000+00:00</time></trkpt><trkpt lat="64.30934143" lon="-20.30417633"><ele>106.6</ele><time>2012-07-19T18:12:56.0000000+00:00</time></trkpt><trkpt lat="64.30941773" lon="-20.30387688"><ele>106.8</ele><time>2012-07-19T18:13:01.0000000+00:00</time></trkpt><trkpt lat="64.30948639" lon="-20.30362129"><ele>107.9</ele><time>2012-07-19T18:13:06.0000000+00:00</time></trkpt><trkpt lat="64.30954742" lon="-20.30343247"><ele>110.7</ele><time>2012-07-19T18:13:11.0000000+00:00</time></trkpt><trkpt lat="64.30957794" lon="-20.3032608"><ele>112.1</ele><time>2012-07-19T18:13:16.0000000+00:00</time></trkpt><trkpt lat="64.30960083" lon="-20.30306053"><ele>112.9</ele><time>2012-07-19T18:13:21.0000000+00:00</time></trkpt><trkpt lat="64.30962372" lon="-20.30288315"><ele>113.5</ele><time>2012-07-19T18:13:26.0000000+00:00</time></trkpt><trkpt lat="64.30963135" lon="-20.30270386"><ele>113.1</ele><time>2012-07-19T18:13:31.0000000+00:00</time></trkpt><trkpt lat="64.30963898" lon="-20.30265236"><ele>111.6</ele><time>2012-07-19T18:13:36.0000000+00:00</time></trkpt><trkpt lat="64.30963135" lon="-20.30264664"><ele>111.6</ele><time>2012-07-19T18:13:41.0000000+00:00</time></trkpt><trkpt lat="64.30964661" lon="-20.30252075"><ele>112.2</ele><time>2012-07-19T18:13:46.0000000+00:00</time></trkpt><trkpt lat="64.30970001" lon="-20.30233192"><ele>112.3</ele><time>2012-07-19T18:13:51.0000000+00:00</time></trkpt><trkpt lat="64.30973816" lon="-20.30215836"><ele>112.5</ele><time>2012-07-19T18:13:56.0000000+00:00</time></trkpt><trkpt lat="64.30975342" lon="-20.30197716"><ele>112.9</ele><time>2012-07-19T18:14:01.0000000+00:00</time></trkpt><trkpt lat="64.30975342" lon="-20.30176163"><ele>113.1</ele><time>2012-07-19T18:14:06.0000000+00:00</time></trkpt><trkpt lat="64.30978394" lon="-20.30161667"><ele>113.5</ele><time>2012-07-19T18:14:11.0000000+00:00</time></trkpt><trkpt lat="64.30982971" lon="-20.30150414"><ele>114.1</ele><time>2012-07-19T18:14:16.0000000+00:00</time></trkpt><trkpt lat="64.30980682" lon="-20.30155563"><ele>113.1</ele><time>2012-07-19T18:14:21.0000000+00:00</time></trkpt><trkpt lat="64.30976868" lon="-20.30180168"><ele>113.6</ele><time>2012-07-19T18:14:26.0000000+00:00</time></trkpt><trkpt lat="64.30975342" lon="-20.30195999"><ele>113.6</ele><time>2012-07-19T18:14:31.0000000+00:00</time></trkpt><trkpt lat="64.30975342" lon="-20.30194855"><ele>113.0</ele><time>2012-07-19T18:14:36.0000000+00:00</time></trkpt><trkpt lat="64.30975342" lon="-20.30196381"><ele>112.8</ele><time>2012-07-19T18:14:41.0000000+00:00</time></trkpt><trkpt lat="64.30975342" lon="-20.30197144"><ele>113.0</ele><time>2012-07-19T18:14:46.0000000+00:00</time></trkpt><trkpt lat="64.30975342" lon="-20.30198288"><ele>113.0</ele><time>2012-07-19T18:14:51.0000000+00:00</time></trkpt><trkpt lat="64.30975342" lon="-20.30198288"><ele>113.1</ele><time>2012-07-19T18:14:56.0000000+00:00</time></trkpt><trkpt lat="64.30975342" lon="-20.30198288"><ele>113.1</ele><time>2012-07-19T18:15:01.0000000+00:00</time></trkpt><trkpt lat="64.30975342" lon="-20.30198288"><ele>113.1</ele><time>2012-07-19T18:15:06.0000000+00:00</time></trkpt><trkpt lat="64.30975342" lon="-20.30198288"><ele>113.2</ele><time>2012-07-19T18:15:11.0000000+00:00</time></trkpt><trkpt lat="64.30975342" lon="-20.30198097"><ele>113.1</ele><time>2012-07-19T18:15:16.0000000+00:00</time></trkpt><trkpt lat="64.3097229" lon="-20.30199242"><ele>113.0</ele><time>2012-07-19T18:15:21.0000000+00:00</time></trkpt><trkpt lat="64.3097229" lon="-20.30187225"><ele>112.9</ele><time>2012-07-19T18:15:26.0000000+00:00</time></trkpt><trkpt lat="64.30973816" lon="-20.30177498"><ele>113.5</ele><time>2012-07-19T18:15:31.0000000+00:00</time></trkpt><trkpt lat="64.30976868" lon="-20.30163956"><ele>114.1</ele><time>2012-07-19T18:15:36.0000000+00:00</time></trkpt><trkpt lat="64.30980682" lon="-20.3015728"><ele>114.6</ele><time>2012-07-19T18:15:41.0000000+00:00</time></trkpt><trkpt lat="64.30979919" lon="-20.30145264"><ele>112.6</ele><time>2012-07-19T18:15:46.0000000+00:00</time></trkpt><trkpt lat="64.30979157" lon="-20.3013916"><ele>110.0</ele><time>2012-07-19T18:15:51.0000000+00:00</time></trkpt><trkpt lat="64.30976868" lon="-20.30135346"><ele>109.2</ele><time>2012-07-19T18:15:56.0000000+00:00</time></trkpt><trkpt lat="64.30973816" lon="-20.30130768"><ele>108.9</ele><time>2012-07-19T18:16:01.0000000+00:00</time></trkpt><trkpt lat="64.30969238" lon="-20.30128479"><ele>108.4</ele><time>2012-07-19T18:16:06.0000000+00:00</time></trkpt><trkpt lat="64.30970001" lon="-20.30129242"><ele>109.0</ele><time>2012-07-19T18:16:11.0000000+00:00</time></trkpt><trkpt lat="64.30969238" lon="-20.30129242"><ele>109.1</ele><time>2012-07-19T18:16:16.0000000+00:00</time></trkpt><trkpt lat="64.30969238" lon="-20.30129242"><ele>109.0</ele><time>2012-07-19T18:16:21.0000000+00:00</time></trkpt><trkpt lat="64.30969238" lon="-20.30129242"><ele>109.0</ele><time>2012-07-19T18:16:26.0000000+00:00</time></trkpt><trkpt lat="64.30970001" lon="-20.30129051"><ele>108.8</ele><time>2012-07-19T18:16:31.0000000+00:00</time></trkpt><trkpt lat="64.30970001" lon="-20.30128288"><ele>108.6</ele><time>2012-07-19T18:16:36.0000000+00:00</time></trkpt><trkpt lat="64.30970764" lon="-20.30129051"><ele>108.1</ele><time>2012-07-19T18:16:41.0000000+00:00</time></trkpt><trkpt lat="64.30973816" lon="-20.30127716"><ele>108.4</ele><time>2012-07-19T18:16:46.0000000+00:00</time></trkpt><trkpt lat="64.30981445" lon="-20.3012867"><ele>109.1</ele><time>2012-07-19T18:16:51.0000000+00:00</time></trkpt><trkpt lat="64.30987549" lon="-20.30135155"><ele>109.6</ele><time>2012-07-19T18:16:56.0000000+00:00</time></trkpt><trkpt lat="64.30987549" lon="-20.30155754"><ele>110.0</ele><time>2012-07-19T18:17:01.0000000+00:00</time></trkpt><trkpt lat="64.3098526" lon="-20.30174828"><ele>110.3</ele><time>2012-07-19T18:17:06.0000000+00:00</time></trkpt><trkpt lat="64.30980682" lon="-20.30198669"><ele>110.2</ele><time>2012-07-19T18:17:11.0000000+00:00</time></trkpt><trkpt lat="64.30979919" lon="-20.30220413"><ele>114.6</ele><time>2012-07-19T18:17:16.0000000+00:00</time></trkpt><trkpt lat="64.30976868" lon="-20.30241203"><ele>116.9</ele><time>2012-07-19T18:17:21.0000000+00:00</time></trkpt><trkpt lat="64.3097229" lon="-20.30259895"><ele>118.6</ele><time>2012-07-19T18:17:26.0000000+00:00</time></trkpt><trkpt lat="64.30971527" lon="-20.30283928"><ele>117.0</ele><time>2012-07-19T18:17:31.0000000+00:00</time></trkpt><trkpt lat="64.30967712" lon="-20.30316162"><ele>116.1</ele><time>2012-07-19T18:17:36.0000000+00:00</time></trkpt><trkpt lat="64.30957031" lon="-20.30359459"><ele>114.2</ele><time>2012-07-19T18:17:41.0000000+00:00</time></trkpt><trkpt lat="64.30944824" lon="-20.30412865"><ele>111.8</ele><time>2012-07-19T18:17:46.0000000+00:00</time></trkpt><trkpt lat="64.30935669" lon="-20.30459023"><ele>110.5</ele><time>2012-07-19T18:17:51.0000000+00:00</time></trkpt><trkpt lat="64.30940247" lon="-20.30486298"><ele>107.1</ele><time>2012-07-19T18:17:56.0000000+00:00</time></trkpt><trkpt lat="64.30950165" lon="-20.30508423"><ele>106.7</ele><time>2012-07-19T18:18:01.0000000+00:00</time></trkpt><trkpt lat="64.30963898" lon="-20.30521393"><ele>106.5</ele><time>2012-07-19T18:18:06.0000000+00:00</time></trkpt><trkpt lat="64.30976105" lon="-20.30532455"><ele>106.9</ele><time>2012-07-19T18:18:11.0000000+00:00</time></trkpt><trkpt lat="64.30986023" lon="-20.30537987"><ele>106.5</ele><time>2012-07-19T18:18:16.0000000+00:00</time></trkpt><trkpt lat="64.30988312" lon="-20.30542183"><ele>106.0</ele><time>2012-07-19T18:18:21.0000000+00:00</time></trkpt><trkpt lat="64.30988312" lon="-20.30542183"><ele>105.6</ele><time>2012-07-19T18:18:26.0000000+00:00</time></trkpt><trkpt lat="64.30988312" lon="-20.30542946"><ele>105.4</ele><time>2012-07-19T18:18:31.0000000+00:00</time></trkpt><trkpt lat="64.30989075" lon="-20.30542946"><ele>105.3</ele><time>2012-07-19T18:18:36.0000000+00:00</time></trkpt><trkpt lat="64.30989075" lon="-20.30544663"><ele>105.3</ele><time>2012-07-19T18:18:41.0000000+00:00</time></trkpt><trkpt lat="64.30989075" lon="-20.30545998"><ele>105.2</ele><time>2012-07-19T18:18:46.0000000+00:00</time></trkpt><trkpt lat="64.30989075" lon="-20.30548477"><ele>105.2</ele><time>2012-07-19T18:18:51.0000000+00:00</time></trkpt><trkpt lat="64.30989075" lon="-20.30549812"><ele>105.2</ele><time>2012-07-19T18:18:56.0000000+00:00</time></trkpt><trkpt lat="64.30989075" lon="-20.30550194"><ele>105.2</ele><time>2012-07-19T18:19:01.0000000+00:00</time></trkpt><trkpt lat="64.30989075" lon="-20.3055191"><ele>105.2</ele><time>2012-07-19T18:19:06.0000000+00:00</time></trkpt><trkpt lat="64.30989075" lon="-20.30553436"><ele>105.2</ele><time>2012-07-19T18:19:11.0000000+00:00</time></trkpt><trkpt lat="64.30988312" lon="-20.30554199"><ele>105.2</ele><time>2012-07-19T18:19:16.0000000+00:00</time></trkpt><trkpt lat="64.30988312" lon="-20.30555153"><ele>105.2</ele><time>2012-07-19T18:19:21.0000000+00:00</time></trkpt><trkpt lat="64.30988312" lon="-20.30555153"><ele>105.3</ele><time>2012-07-19T18:19:26.0000000+00:00</time></trkpt><trkpt lat="64.30989075" lon="-20.30554199"><ele>105.2</ele><time>2012-07-19T18:19:31.0000000+00:00</time></trkpt><trkpt lat="64.30989075" lon="-20.30551338"><ele>105.1</ele><time>2012-07-19T18:19:36.0000000+00:00</time></trkpt><trkpt lat="64.30989075" lon="-20.30550385"><ele>104.8</ele><time>2012-07-19T18:19:41.0000000+00:00</time></trkpt><trkpt lat="64.30989075" lon="-20.30549812"><ele>104.3</ele><time>2012-07-19T18:19:46.0000000+00:00</time></trkpt><trkpt lat="64.30989075" lon="-20.30549812"><ele>103.9</ele><time>2012-07-19T18:19:51.0000000+00:00</time></trkpt><trkpt lat="64.30989075" lon="-20.30549431"><ele>103.5</ele><time>2012-07-19T18:19:56.0000000+00:00</time></trkpt><trkpt lat="64.30989075" lon="-20.30549049"><ele>103.1</ele><time>2012-07-19T18:20:01.0000000+00:00</time></trkpt><trkpt lat="64.30989075" lon="-20.30549049"><ele>103.1</ele><time>2012-07-19T18:20:06.0000000+00:00</time></trkpt><trkpt lat="64.30989075" lon="-20.3054924"><ele>103.1</ele><time>2012-07-19T18:20:11.0000000+00:00</time></trkpt><trkpt lat="64.30989075" lon="-20.3054924"><ele>103.1</ele><time>2012-07-19T18:20:16.0000000+00:00</time></trkpt><trkpt lat="64.30989075" lon="-20.3054924"><ele>103.1</ele><time>2012-07-19T18:20:21.0000000+00:00</time></trkpt><trkpt lat="64.30989075" lon="-20.3054924"><ele>103.1</ele><time>2012-07-19T18:20:26.0000000+00:00</time></trkpt><trkpt lat="64.30989075" lon="-20.3054924"><ele>103.1</ele><time>2012-07-19T18:20:31.0000000+00:00</time></trkpt><trkpt lat="64.30989075" lon="-20.3054924"><ele>103.1</ele><time>2012-07-19T18:20:36.0000000+00:00</time></trkpt><trkpt lat="64.30989075" lon="-20.3054924"><ele>103.1</ele><time>2012-07-19T18:20:41.0000000+00:00</time></trkpt><trkpt lat="64.30989075" lon="-20.3054924"><ele>103.1</ele><time>2012-07-19T18:20:46.0000000+00:00</time></trkpt><trkpt lat="64.30989075" lon="-20.3054924"><ele>103.1</ele><time>2012-07-19T18:20:51.0000000+00:00</time></trkpt><trkpt lat="64.30989075" lon="-20.3054924"><ele>103.1</ele><time>2012-07-19T18:20:56.0000000+00:00</time></trkpt><trkpt lat="64.30989075" lon="-20.3054924"><ele>103.1</ele><time>2012-07-19T18:21:01.0000000+00:00</time></trkpt><trkpt lat="64.30989075" lon="-20.30549431"><ele>103.1</ele><time>2012-07-19T18:21:06.0000000+00:00</time></trkpt><trkpt lat="64.30989075" lon="-20.30549431"><ele>103.1</ele><time>2012-07-19T18:21:11.0000000+00:00</time></trkpt><trkpt lat="64.30989075" lon="-20.30549431"><ele>103.1</ele><time>2012-07-19T18:21:16.0000000+00:00</time></trkpt><trkpt lat="64.30989075" lon="-20.30549431"><ele>103.1</ele><time>2012-07-19T18:21:21.0000000+00:00</time></trkpt><trkpt lat="64.30989075" lon="-20.30549431"><ele>103.1</ele><time>2012-07-19T18:21:26.0000000+00:00</time></trkpt><trkpt lat="64.30989075" lon="-20.30549431"><ele>103.1</ele><time>2012-07-19T18:21:31.0000000+00:00</time></trkpt><trkpt lat="64.30989075" lon="-20.30549431"><ele>103.1</ele><time>2012-07-19T18:21:36.0000000+00:00</time></trkpt><trkpt lat="64.30989075" lon="-20.30549431"><ele>103.1</ele><time>2012-07-19T18:21:41.0000000+00:00</time></trkpt><trkpt lat="64.30989075" lon="-20.30549622"><ele>103.1</ele><time>2012-07-19T18:21:46.0000000+00:00</time></trkpt><trkpt lat="64.30989075" lon="-20.30549622"><ele>103.1</ele><time>2012-07-19T18:21:51.0000000+00:00</time></trkpt><trkpt lat="64.30989075" lon="-20.30549622"><ele>103.1</ele><time>2012-07-19T18:21:56.0000000+00:00</time></trkpt><trkpt lat="64.30989075" lon="-20.30549622"><ele>103.1</ele><time>2012-07-19T18:22:01.0000000+00:00</time></trkpt><trkpt lat="64.30989075" lon="-20.30549622"><ele>103.1</ele><time>2012-07-19T18:22:06.0000000+00:00</time></trkpt><trkpt lat="64.30989075" lon="-20.30549622"><ele>103.1</ele><time>2012-07-19T18:22:11.0000000+00:00</time></trkpt><trkpt lat="64.30989075" lon="-20.30549812"><ele>103.1</ele><time>2012-07-19T18:22:16.0000000+00:00</time></trkpt><trkpt lat="64.30989075" lon="-20.30549812"><ele>103.2</ele><time>2012-07-19T18:22:21.0000000+00:00</time></trkpt><trkpt lat="64.30989075" lon="-20.30549812"><ele>103.2</ele><time>2012-07-19T18:22:26.0000000+00:00</time></trkpt><trkpt lat="64.30989075" lon="-20.30549812"><ele>103.2</ele><time>2012-07-19T18:22:31.0000000+00:00</time></trkpt><trkpt lat="64.30989075" lon="-20.30549812"><ele>103.2</ele><time>2012-07-19T18:22:36.0000000+00:00</time></trkpt><trkpt lat="64.30989075" lon="-20.30550003"><ele>103.2</ele><time>2012-07-19T18:22:41.0000000+00:00</time></trkpt><trkpt lat="64.30989075" lon="-20.30550003"><ele>103.2</ele><time>2012-07-19T18:22:46.0000000+00:00</time></trkpt><trkpt lat="64.30989075" lon="-20.30550003"><ele>103.2</ele><time>2012-07-19T18:22:51.0000000+00:00</time></trkpt><trkpt lat="64.30989075" lon="-20.30550003"><ele>103.2</ele><time>2012-07-19T18:22:56.0000000+00:00</time></trkpt><trkpt lat="64.30989075" lon="-20.30550003"><ele>103.2</ele><time>2012-07-19T18:23:01.0000000+00:00</time></trkpt><trkpt lat="64.30989075" lon="-20.30550194"><ele>103.2</ele><time>2012-07-19T18:23:06.0000000+00:00</time></trkpt><trkpt lat="64.30989075" lon="-20.30550194"><ele>103.2</ele><time>2012-07-19T18:23:11.0000000+00:00</time></trkpt><trkpt lat="64.30989075" lon="-20.30550194"><ele>103.2</ele><time>2012-07-19T18:23:16.0000000+00:00</time></trkpt><trkpt lat="64.30989075" lon="-20.30550194"><ele>103.2</ele><time>2012-07-19T18:23:21.0000000+00:00</time></trkpt><trkpt lat="64.30989075" lon="-20.30550194"><ele>103.2</ele><time>2012-07-19T18:23:26.0000000+00:00</time></trkpt><trkpt lat="64.30989075" lon="-20.30550194"><ele>103.3</ele><time>2012-07-19T18:23:31.0000000+00:00</time></trkpt><trkpt lat="64.30989075" lon="-20.30550194"><ele>103.3</ele><time>2012-07-19T18:23:36.0000000+00:00</time></trkpt><trkpt lat="64.30989075" lon="-20.30550385"><ele>103.3</ele><time>2012-07-19T18:23:41.0000000+00:00</time></trkpt><trkpt lat="64.30989075" lon="-20.30550385"><ele>103.3</ele><time>2012-07-19T18:23:46.0000000+00:00</time></trkpt><trkpt lat="64.30989075" lon="-20.30550385"><ele>103.3</ele><time>2012-07-19T18:23:51.0000000+00:00</time></trkpt><trkpt lat="64.30989075" lon="-20.30550385"><ele>103.3</ele><time>2012-07-19T18:23:56.0000000+00:00</time></trkpt><trkpt lat="64.30989075" lon="-20.30550385"><ele>103.3</ele><time>2012-07-19T18:24:01.0000000+00:00</time></trkpt><trkpt lat="64.30989075" lon="-20.30550385"><ele>103.3</ele><time>2012-07-19T18:24:06.0000000+00:00</time></trkpt><trkpt lat="64.30989075" lon="-20.30550385"><ele>103.3</ele><time>2012-07-19T18:24:11.0000000+00:00</time></trkpt><trkpt lat="64.30989075" lon="-20.30550575"><ele>103.3</ele><time>2012-07-19T18:24:16.0000000+00:00</time></trkpt><trkpt lat="64.30989075" lon="-20.30550385"><ele>103.3</ele><time>2012-07-19T18:24:21.0000000+00:00</time></trkpt><trkpt lat="64.30989075" lon="-20.30550575"><ele>103.3</ele><time>2012-07-19T18:24:26.0000000+00:00</time></trkpt><trkpt lat="64.30989075" lon="-20.30550575"><ele>103.3</ele><time>2012-07-19T18:24:31.0000000+00:00</time></trkpt><trkpt lat="64.30989075" lon="-20.30550575"><ele>103.3</ele><time>2012-07-19T18:24:36.0000000+00:00</time></trkpt><trkpt lat="64.30989075" lon="-20.30550575"><ele>103.3</ele><time>2012-07-19T18:24:41.0000000+00:00</time></trkpt><trkpt lat="64.30989075" lon="-20.30550575"><ele>103.3</ele><time>2012-07-19T18:24:46.0000000+00:00</time></trkpt><trkpt lat="64.30989075" lon="-20.30550575"><ele>103.3</ele><time>2012-07-19T18:24:51.0000000+00:00</time></trkpt><trkpt lat="64.30989075" lon="-20.30550575"><ele>103.3</ele><time>2012-07-19T18:24:56.0000000+00:00</time></trkpt><trkpt lat="64.30989075" lon="-20.30550575"><ele>103.3</ele><time>2012-07-19T18:25:01.0000000+00:00</time></trkpt><trkpt lat="64.30989075" lon="-20.30550575"><ele>103.3</ele><time>2012-07-19T18:25:06.0000000+00:00</time></trkpt><trkpt lat="64.30989075" lon="-20.30550575"><ele>103.3</ele><time>2012-07-19T18:25:11.0000000+00:00</time></trkpt><trkpt lat="64.30989075" lon="-20.30550575"><ele>103.3</ele><time>2012-07-19T18:25:16.0000000+00:00</time></trkpt><trkpt lat="64.30989075" lon="-20.30550575"><ele>103.3</ele><time>2012-07-19T18:25:21.0000000+00:00</time></trkpt><trkpt lat="64.30989075" lon="-20.30550385"><ele>103.3</ele><time>2012-07-19T18:25:26.0000000+00:00</time></trkpt><trkpt lat="64.30989075" lon="-20.30550385"><ele>103.3</ele><time>2012-07-19T18:25:31.0000000+00:00</time></trkpt><trkpt lat="64.30989075" lon="-20.30550575"><ele>103.3</ele><time>2012-07-19T18:25:36.0000000+00:00</time></trkpt><trkpt lat="64.30989075" lon="-20.30550575"><ele>103.3</ele><time>2012-07-19T18:25:41.0000000+00:00</time></trkpt><trkpt lat="64.30989075" lon="-20.30550575"><ele>103.3</ele><time>2012-07-19T18:25:46.0000000+00:00</time></trkpt><trkpt lat="64.30989075" lon="-20.30550575"><ele>103.3</ele><time>2012-07-19T18:25:51.0000000+00:00</time></trkpt><trkpt lat="64.30989075" lon="-20.30550575"><ele>103.3</ele><time>2012-07-19T18:25:56.0000000+00:00</time></trkpt><trkpt lat="64.30989075" lon="-20.30550575"><ele>103.3</ele><time>2012-07-19T18:26:01.0000000+00:00</time></trkpt><trkpt lat="64.30989075" lon="-20.30550575"><ele>103.3</ele><time>2012-07-19T18:26:06.0000000+00:00</time></trkpt><trkpt lat="64.30989075" lon="-20.30550575"><ele>103.3</ele><time>2012-07-19T18:26:11.0000000+00:00</time></trkpt><trkpt lat="64.30989075" lon="-20.30550575"><ele>103.3</ele><time>2012-07-19T18:26:16.0000000+00:00</time></trkpt><trkpt lat="64.30989075" lon="-20.30550575"><ele>103.3</ele><time>2012-07-19T18:26:21.0000000+00:00</time></trkpt><trkpt lat="64.30989075" lon="-20.30550575"><ele>103.3</ele><time>2012-07-19T18:26:26.0000000+00:00</time></trkpt><trkpt lat="64.30989075" lon="-20.30550575"><ele>103.3</ele><time>2012-07-19T18:26:31.0000000+00:00</time></trkpt><trkpt lat="64.30989075" lon="-20.30550766"><ele>103.3</ele><time>2012-07-19T18:26:36.0000000+00:00</time></trkpt><trkpt lat="64.30989075" lon="-20.30550766"><ele>103.3</ele><time>2012-07-19T18:26:41.0000000+00:00</time></trkpt><trkpt lat="64.30989075" lon="-20.30550766"><ele>103.3</ele><time>2012-07-19T18:26:46.0000000+00:00</time></trkpt><trkpt lat="64.30989075" lon="-20.30550766"><ele>103.3</ele><time>2012-07-19T18:26:51.0000000+00:00</time></trkpt><trkpt lat="64.30989075" lon="-20.30550766"><ele>103.3</ele><time>2012-07-19T18:26:56.0000000+00:00</time></trkpt><trkpt lat="64.30989075" lon="-20.30550766"><ele>103.3</ele><time>2012-07-19T18:27:01.0000000+00:00</time></trkpt><trkpt lat="64.30989075" lon="-20.30550766"><ele>103.3</ele><time>2012-07-19T18:27:06.0000000+00:00</time></trkpt><trkpt lat="64.30989075" lon="-20.30550957"><ele>103.3</ele><time>2012-07-19T18:27:11.0000000+00:00</time></trkpt><trkpt lat="64.30989075" lon="-20.30550957"><ele>103.2</ele><time>2012-07-19T18:27:16.0000000+00:00</time></trkpt><trkpt lat="64.30989075" lon="-20.30550957"><ele>103.2</ele><time>2012-07-19T18:27:21.0000000+00:00</time></trkpt><trkpt lat="64.30989075" lon="-20.30550957"><ele>103.2</ele><time>2012-07-19T18:27:26.0000000+00:00</time></trkpt><trkpt lat="64.30989075" lon="-20.30550957"><ele>103.2</ele><time>2012-07-19T18:27:31.0000000+00:00</time></trkpt><trkpt lat="64.30989075" lon="-20.30550957"><ele>103.2</ele><time>2012-07-19T18:27:36.0000000+00:00</time></trkpt><trkpt lat="64.30989075" lon="-20.30550957"><ele>103.3</ele><time>2012-07-19T18:27:41.0000000+00:00</time></trkpt><trkpt lat="64.30990601" lon="-20.30553436"><ele>103.4</ele><time>2012-07-19T18:27:46.0000000+00:00</time></trkpt><trkpt lat="64.30992889" lon="-20.30558586"><ele>104.1</ele><time>2012-07-19T18:27:51.0000000+00:00</time></trkpt><trkpt lat="64.30997467" lon="-20.30561066"><ele>105.2</ele><time>2012-07-19T18:27:56.0000000+00:00</time></trkpt><trkpt lat="64.31002045" lon="-20.30564499"><ele>106.5</ele><time>2012-07-19T18:28:01.0000000+00:00</time></trkpt><trkpt lat="64.31006622" lon="-20.30568886"><ele>107.0</ele><time>2012-07-19T18:28:06.0000000+00:00</time></trkpt><trkpt lat="64.310112" lon="-20.30577087"><ele>106.6</ele><time>2012-07-19T18:28:11.0000000+00:00</time></trkpt><trkpt lat="64.31012726" lon="-20.30584526"><ele>105.1</ele><time>2012-07-19T18:28:16.0000000+00:00</time></trkpt><trkpt lat="64.31013489" lon="-20.30592918"><ele>101.4</ele><time>2012-07-19T18:28:21.0000000+00:00</time></trkpt><trkpt lat="64.31014252" lon="-20.30599976"><ele>101.2</ele><time>2012-07-19T18:28:26.0000000+00:00</time></trkpt><trkpt lat="64.31014252" lon="-20.30599403"><ele>100.7</ele><time>2012-07-19T18:28:31.0000000+00:00</time></trkpt><trkpt lat="64.31014252" lon="-20.30599403"><ele>100.6</ele><time>2012-07-19T18:28:36.0000000+00:00</time></trkpt><trkpt lat="64.31014252" lon="-20.30599403"><ele>100.6</ele><time>2012-07-19T18:28:41.0000000+00:00</time></trkpt><trkpt lat="64.31013489" lon="-20.30599594"><ele>100.5</ele><time>2012-07-19T18:28:46.0000000+00:00</time></trkpt><trkpt lat="64.31013489" lon="-20.30599594"><ele>100.5</ele><time>2012-07-19T18:28:51.0000000+00:00</time></trkpt><trkpt lat="64.31013489" lon="-20.30599213"><ele>100.5</ele><time>2012-07-19T18:28:56.0000000+00:00</time></trkpt><trkpt lat="64.31013489" lon="-20.30599403"><ele>100.8</ele><time>2012-07-19T18:29:01.0000000+00:00</time></trkpt><trkpt lat="64.31013489" lon="-20.30599403"><ele>100.8</ele><time>2012-07-19T18:29:06.0000000+00:00</time></trkpt><trkpt lat="64.31013489" lon="-20.30599403"><ele>100.8</ele><time>2012-07-19T18:29:11.0000000+00:00</time></trkpt><trkpt lat="64.31013489" lon="-20.30599403"><ele>100.8</ele><time>2012-07-19T18:29:16.0000000+00:00</time></trkpt><trkpt lat="64.31013489" lon="-20.30599403"><ele>100.7</ele><time>2012-07-19T18:29:21.0000000+00:00</time></trkpt><trkpt lat="64.31013489" lon="-20.30599403"><ele>100.7</ele><time>2012-07-19T18:29:26.0000000+00:00</time></trkpt><trkpt lat="64.31013489" lon="-20.30599403"><ele>100.7</ele><time>2012-07-19T18:29:31.0000000+00:00</time></trkpt><trkpt lat="64.31013489" lon="-20.30599403"><ele>100.7</ele><time>2012-07-19T18:29:36.0000000+00:00</time></trkpt><trkpt lat="64.31013489" lon="-20.30599403"><ele>100.7</ele><time>2012-07-19T18:29:41.0000000+00:00</time></trkpt><trkpt lat="64.31013489" lon="-20.30599403"><ele>100.8</ele><time>2012-07-19T18:29:46.0000000+00:00</time></trkpt><trkpt lat="64.31013489" lon="-20.30599594"><ele>100.8</ele><time>2012-07-19T18:29:51.0000000+00:00</time></trkpt><trkpt lat="64.31013489" lon="-20.30599594"><ele>100.8</ele><time>2012-07-19T18:29:56.0000000+00:00</time></trkpt><trkpt lat="64.31013489" lon="-20.30599594"><ele>100.8</ele><time>2012-07-19T18:30:01.0000000+00:00</time></trkpt><trkpt lat="64.31013489" lon="-20.30599594"><ele>100.8</ele><time>2012-07-19T18:30:06.0000000+00:00</time></trkpt><trkpt lat="64.31013489" lon="-20.30599594"><ele>100.8</ele><time>2012-07-19T18:30:11.0000000+00:00</time></trkpt><trkpt lat="64.31013489" lon="-20.30599594"><ele>100.8</ele><time>2012-07-19T18:30:16.0000000+00:00</time></trkpt><trkpt lat="64.31013489" lon="-20.30599594"><ele>100.8</ele><time>2012-07-19T18:30:21.0000000+00:00</time></trkpt><trkpt lat="64.31013489" lon="-20.30599594"><ele>100.8</ele><time>2012-07-19T18:30:26.0000000+00:00</time></trkpt><trkpt lat="64.31013489" lon="-20.30599594"><ele>100.8</ele><time>2012-07-19T18:30:31.0000000+00:00</time></trkpt><trkpt lat="64.31013489" lon="-20.30599594"><ele>100.8</ele><time>2012-07-19T18:30:36.0000000+00:00</time></trkpt><trkpt lat="64.31013489" lon="-20.30599594"><ele>100.8</ele><time>2012-07-19T18:30:41.0000000+00:00</time></trkpt><trkpt lat="64.31013489" lon="-20.30599594"><ele>100.9</ele><time>2012-07-19T18:30:46.0000000+00:00</time></trkpt><trkpt lat="64.31013489" lon="-20.30599785"><ele>100.9</ele><time>2012-07-19T18:30:51.0000000+00:00</time></trkpt><trkpt lat="64.31013489" lon="-20.30599785"><ele>100.9</ele><time>2012-07-19T18:30:56.0000000+00:00</time></trkpt><trkpt lat="64.31013489" lon="-20.30599785"><ele>100.9</ele><time>2012-07-19T18:31:01.0000000+00:00</time></trkpt><trkpt lat="64.31013489" lon="-20.30599785"><ele>100.9</ele><time>2012-07-19T18:31:06.0000000+00:00</time></trkpt><trkpt lat="64.31013489" lon="-20.30599785"><ele>100.9</ele><time>2012-07-19T18:31:11.0000000+00:00</time></trkpt><trkpt lat="64.31013489" lon="-20.30599976"><ele>101.0</ele><time>2012-07-19T18:31:16.0000000+00:00</time></trkpt><trkpt lat="64.31013489" lon="-20.30599785"><ele>101.2</ele><time>2012-07-19T18:31:21.0000000+00:00</time></trkpt><trkpt lat="64.31013489" lon="-20.30599785"><ele>101.2</ele><time>2012-07-19T18:31:26.0000000+00:00</time></trkpt><trkpt lat="64.31013489" lon="-20.30599785"><ele>101.2</ele><time>2012-07-19T18:31:31.0000000+00:00</time></trkpt><trkpt lat="64.31013489" lon="-20.30599785"><ele>101.2</ele><time>2012-07-19T18:31:36.0000000+00:00</time></trkpt><trkpt lat="64.31013489" lon="-20.30599785"><ele>101.2</ele><time>2012-07-19T18:31:41.0000000+00:00</time></trkpt><trkpt lat="64.31013489" lon="-20.30599785"><ele>101.2</ele><time>2012-07-19T18:31:46.0000000+00:00</time></trkpt><trkpt lat="64.31013489" lon="-20.30599785"><ele>101.2</ele><time>2012-07-19T18:31:51.0000000+00:00</time></trkpt><trkpt lat="64.31013489" lon="-20.30599785"><ele>101.2</ele><time>2012-07-19T18:31:56.0000000+00:00</time></trkpt><trkpt lat="64.31013489" lon="-20.30599976"><ele>101.3</ele><time>2012-07-19T18:32:01.0000000+00:00</time></trkpt><trkpt lat="64.31013489" lon="-20.30599976"><ele>101.3</ele><time>2012-07-19T18:32:06.0000000+00:00</time></trkpt><trkpt lat="64.31013489" lon="-20.30599976"><ele>101.3</ele><time>2012-07-19T18:32:11.0000000+00:00</time></trkpt><trkpt lat="64.31013489" lon="-20.30600166"><ele>101.3</ele><time>2012-07-19T18:32:16.0000000+00:00</time></trkpt><trkpt lat="64.31013489" lon="-20.30600166"><ele>101.3</ele><time>2012-07-19T18:32:21.0000000+00:00</time></trkpt><trkpt lat="64.31013489" lon="-20.30600166"><ele>101.3</ele><time>2012-07-19T18:32:26.0000000+00:00</time></trkpt><trkpt lat="64.31013489" lon="-20.30600166"><ele>101.3</ele><time>2012-07-19T18:32:31.0000000+00:00</time></trkpt><trkpt lat="64.31013489" lon="-20.30600166"><ele>101.3</ele><time>2012-07-19T18:32:36.0000000+00:00</time></trkpt><trkpt lat="64.31013489" lon="-20.30600166"><ele>101.3</ele><time>2012-07-19T18:32:41.0000000+00:00</time></trkpt><trkpt lat="64.31013489" lon="-20.30600166"><ele>101.3</ele><time>2012-07-19T18:32:46.0000000+00:00</time></trkpt><trkpt lat="64.31013489" lon="-20.30600166"><ele>101.4</ele><time>2012-07-19T18:32:51.0000000+00:00</time></trkpt><trkpt lat="64.31013489" lon="-20.30600357"><ele>101.4</ele><time>2012-07-19T18:32:56.0000000+00:00</time></trkpt><trkpt lat="64.31013489" lon="-20.30600357"><ele>101.4</ele><time>2012-07-19T18:33:01.0000000+00:00</time></trkpt><trkpt lat="64.31013489" lon="-20.30600357"><ele>101.4</ele><time>2012-07-19T18:33:06.0000000+00:00</time></trkpt><trkpt lat="64.31013489" lon="-20.30600357"><ele>101.4</ele><time>2012-07-19T18:33:11.0000000+00:00</time></trkpt><trkpt lat="64.31013489" lon="-20.30600357"><ele>101.4</ele><time>2012-07-19T18:33:16.0000000+00:00</time></trkpt><trkpt lat="64.31011963" lon="-20.30592537"><ele>102.0</ele><time>2012-07-19T18:33:21.0000000+00:00</time></trkpt><trkpt lat="64.31015778" lon="-20.30582047"><ele>102.6</ele><time>2012-07-19T18:33:26.0000000+00:00</time></trkpt><trkpt lat="64.31021881" lon="-20.30574417"><ele>102.8</ele><time>2012-07-19T18:33:31.0000000+00:00</time></trkpt><trkpt lat="64.31028748" lon="-20.30575562"><ele>100.9</ele><time>2012-07-19T18:33:36.0000000+00:00</time></trkpt><trkpt lat="64.31034088" lon="-20.3057003"><ele>101.3</ele><time>2012-07-19T18:33:41.0000000+00:00</time></trkpt><trkpt lat="64.31038666" lon="-20.30565071"><ele>102.0</ele><time>2012-07-19T18:33:46.0000000+00:00</time></trkpt><trkpt lat="64.31044006" lon="-20.30557632"><ele>102.4</ele><time>2012-07-19T18:33:51.0000000+00:00</time></trkpt><trkpt lat="64.31046295" lon="-20.30543327"><ele>102.1</ele><time>2012-07-19T18:33:56.0000000+00:00</time></trkpt><trkpt lat="64.3105011" lon="-20.30531311"><ele>103.1</ele><time>2012-07-19T18:34:01.0000000+00:00</time></trkpt><trkpt lat="64.31054688" lon="-20.30526352"><ele>105.0</ele><time>2012-07-19T18:34:06.0000000+00:00</time></trkpt><trkpt lat="64.31056976" lon="-20.30524826"><ele>105.9</ele><time>2012-07-19T18:34:11.0000000+00:00</time></trkpt><trkpt lat="64.31057739" lon="-20.30525208"><ele>106.0</ele><time>2012-07-19T18:34:16.0000000+00:00</time></trkpt><trkpt lat="64.31058502" lon="-20.30526924"><ele>106.3</ele><time>2012-07-19T18:34:21.0000000+00:00</time></trkpt><trkpt lat="64.31058502" lon="-20.30527687"><ele>106.3</ele><time>2012-07-19T18:34:26.0000000+00:00</time></trkpt><trkpt lat="64.31058502" lon="-20.30527687"><ele>106.3</ele><time>2012-07-19T18:34:31.0000000+00:00</time></trkpt><trkpt lat="64.31057739" lon="-20.30527306"><ele>106.4</ele><time>2012-07-19T18:34:36.0000000+00:00</time></trkpt><trkpt lat="64.31057739" lon="-20.30527306"><ele>106.4</ele><time>2012-07-19T18:34:41.0000000+00:00</time></trkpt><trkpt lat="64.31058502" lon="-20.30527306"><ele>106.4</ele><time>2012-07-19T18:34:46.0000000+00:00</time></trkpt><trkpt lat="64.31058502" lon="-20.30527306"><ele>106.4</ele><time>2012-07-19T18:34:51.0000000+00:00</time></trkpt><trkpt lat="64.31058502" lon="-20.30527306"><ele>106.4</ele><time>2012-07-19T18:34:56.0000000+00:00</time></trkpt><trkpt lat="64.31058502" lon="-20.30527496"><ele>106.4</ele><time>2012-07-19T18:35:01.0000000+00:00</time></trkpt><trkpt lat="64.31058502" lon="-20.30527496"><ele>106.4</ele><time>2012-07-19T18:35:06.0000000+00:00</time></trkpt><trkpt lat="64.31058502" lon="-20.30527496"><ele>106.4</ele><time>2012-07-19T18:35:11.0000000+00:00</time></trkpt><trkpt lat="64.31058502" lon="-20.30527496"><ele>106.4</ele><time>2012-07-19T18:35:16.0000000+00:00</time></trkpt><trkpt lat="64.31058502" lon="-20.30527496"><ele>106.4</ele><time>2012-07-19T18:35:21.0000000+00:00</time></trkpt><trkpt lat="64.31058502" lon="-20.30527496"><ele>106.4</ele><time>2012-07-19T18:35:26.0000000+00:00</time></trkpt><trkpt lat="64.31058502" lon="-20.30527496"><ele>106.4</ele><time>2012-07-19T18:35:31.0000000+00:00</time></trkpt><trkpt lat="64.31058502" lon="-20.30527496"><ele>106.4</ele><time>2012-07-19T18:35:36.0000000+00:00</time></trkpt><trkpt lat="64.31058502" lon="-20.30528259"><ele>106.5</ele><time>2012-07-19T18:35:41.0000000+00:00</time></trkpt><trkpt lat="64.31058502" lon="-20.30528259"><ele>106.5</ele><time>2012-07-19T18:35:46.0000000+00:00</time></trkpt><trkpt lat="64.31058502" lon="-20.30528259"><ele>106.5</ele><time>2012-07-19T18:35:51.0000000+00:00</time></trkpt><trkpt lat="64.31058502" lon="-20.3052845"><ele>106.6</ele><time>2012-07-19T18:35:56.0000000+00:00</time></trkpt><trkpt lat="64.31058502" lon="-20.3052845"><ele>106.6</ele><time>2012-07-19T18:36:01.0000000+00:00</time></trkpt><trkpt lat="64.31058502" lon="-20.3052845"><ele>106.4</ele><time>2012-07-19T18:36:06.0000000+00:00</time></trkpt><trkpt lat="64.31058502" lon="-20.30528832"><ele>106.1</ele><time>2012-07-19T18:36:11.0000000+00:00</time></trkpt><trkpt lat="64.31058502" lon="-20.30528832"><ele>106.1</ele><time>2012-07-19T18:36:16.0000000+00:00</time></trkpt><trkpt lat="64.31059265" lon="-20.30528832"><ele>106.5</ele><time>2012-07-19T18:36:21.0000000+00:00</time></trkpt><trkpt lat="64.31059265" lon="-20.3052845"><ele>106.8</ele><time>2012-07-19T18:36:26.0000000+00:00</time></trkpt><trkpt lat="64.31059265" lon="-20.3052845"><ele>106.8</ele><time>2012-07-19T18:36:31.0000000+00:00</time></trkpt><trkpt lat="64.31059265" lon="-20.3052845"><ele>106.8</ele><time>2012-07-19T18:36:36.0000000+00:00</time></trkpt><trkpt lat="64.31059265" lon="-20.3052845"><ele>106.8</ele><time>2012-07-19T18:36:41.0000000+00:00</time></trkpt><trkpt lat="64.31059265" lon="-20.30528259"><ele>106.8</ele><time>2012-07-19T18:36:46.0000000+00:00</time></trkpt><trkpt lat="64.31059265" lon="-20.30529022"><ele>106.2</ele><time>2012-07-19T18:36:51.0000000+00:00</time></trkpt><trkpt lat="64.31059265" lon="-20.30529022"><ele>106.2</ele><time>2012-07-19T18:36:56.0000000+00:00</time></trkpt><trkpt lat="64.31059265" lon="-20.30528832"><ele>106.3</ele><time>2012-07-19T18:37:01.0000000+00:00</time></trkpt><trkpt lat="64.31059265" lon="-20.30528832"><ele>106.3</ele><time>2012-07-19T18:37:06.0000000+00:00</time></trkpt><trkpt lat="64.31059265" lon="-20.30528832"><ele>106.2</ele><time>2012-07-19T18:37:11.0000000+00:00</time></trkpt><trkpt lat="64.31059265" lon="-20.30528832"><ele>106.2</ele><time>2012-07-19T18:37:16.0000000+00:00</time></trkpt><trkpt lat="64.31059265" lon="-20.30528832"><ele>106.2</ele><time>2012-07-19T18:37:21.0000000+00:00</time></trkpt><trkpt lat="64.31059265" lon="-20.30528832"><ele>106.2</ele><time>2012-07-19T18:37:26.0000000+00:00</time></trkpt><trkpt lat="64.31059265" lon="-20.30528832"><ele>106.2</ele><time>2012-07-19T18:37:31.0000000+00:00</time></trkpt><trkpt lat="64.31059265" lon="-20.30528832"><ele>106.2</ele><time>2012-07-19T18:37:36.0000000+00:00</time></trkpt><trkpt lat="64.31059265" lon="-20.30528832"><ele>106.2</ele><time>2012-07-19T18:37:41.0000000+00:00</time></trkpt><trkpt lat="64.31059265" lon="-20.30528832"><ele>106.2</ele><time>2012-07-19T18:37:46.0000000+00:00</time></trkpt><trkpt lat="64.31059265" lon="-20.30528832"><ele>106.2</ele><time>2012-07-19T18:37:51.0000000+00:00</time></trkpt><trkpt lat="64.31059265" lon="-20.30528832"><ele>106.2</ele><time>2012-07-19T18:37:56.0000000+00:00</time></trkpt><trkpt lat="64.31059265" lon="-20.30528832"><ele>106.3</ele><time>2012-07-19T18:38:01.0000000+00:00</time></trkpt><trkpt lat="64.31059265" lon="-20.30528832"><ele>106.3</ele><time>2012-07-19T18:38:06.0000000+00:00</time></trkpt><trkpt lat="64.31059265" lon="-20.30528832"><ele>106.3</ele><time>2012-07-19T18:38:11.0000000+00:00</time></trkpt><trkpt lat="64.31059265" lon="-20.30528832"><ele>106.3</ele><time>2012-07-19T18:38:16.0000000+00:00</time></trkpt><trkpt lat="64.31059265" lon="-20.30528832"><ele>106.3</ele><time>2012-07-19T18:38:21.0000000+00:00</time></trkpt><trkpt lat="64.31059265" lon="-20.30528832"><ele>106.3</ele><time>2012-07-19T18:38:26.0000000+00:00</time></trkpt><trkpt lat="64.31059265" lon="-20.30528832"><ele>106.3</ele><time>2012-07-19T18:38:31.0000000+00:00</time></trkpt><trkpt lat="64.31059265" lon="-20.30528832"><ele>106.3</ele><time>2012-07-19T18:38:36.0000000+00:00</time></trkpt><trkpt lat="64.31059265" lon="-20.30528832"><ele>106.3</ele><time>2012-07-19T18:38:41.0000000+00:00</time></trkpt><trkpt lat="64.31059265" lon="-20.30528641"><ele>106.3</ele><time>2012-07-19T18:38:46.0000000+00:00</time></trkpt><trkpt lat="64.31059265" lon="-20.30528641"><ele>106.3</ele><time>2012-07-19T18:38:51.0000000+00:00</time></trkpt><trkpt lat="64.31059265" lon="-20.3052845"><ele>106.0</ele><time>2012-07-19T18:38:56.0000000+00:00</time></trkpt><trkpt lat="64.31059265" lon="-20.30528259"><ele>105.6</ele><time>2012-07-19T18:39:01.0000000+00:00</time></trkpt><trkpt lat="64.31059265" lon="-20.30528259"><ele>105.6</ele><time>2012-07-19T18:39:06.0000000+00:00</time></trkpt><trkpt lat="64.31059265" lon="-20.30528259"><ele>105.6</ele><time>2012-07-19T18:39:11.0000000+00:00</time></trkpt><trkpt lat="64.31059265" lon="-20.30528259"><ele>105.6</ele><time>2012-07-19T18:39:16.0000000+00:00</time></trkpt><trkpt lat="64.31059265" lon="-20.30528259"><ele>105.6</ele><time>2012-07-19T18:39:21.0000000+00:00</time></trkpt><trkpt lat="64.31059265" lon="-20.30528069"><ele>105.7</ele><time>2012-07-19T18:39:26.0000000+00:00</time></trkpt><trkpt lat="64.31059265" lon="-20.30528259"><ele>105.9</ele><time>2012-07-19T18:39:31.0000000+00:00</time></trkpt><trkpt lat="64.31059265" lon="-20.30528259"><ele>105.9</ele><time>2012-07-19T18:39:36.0000000+00:00</time></trkpt><trkpt lat="64.31059265" lon="-20.30528259"><ele>105.9</ele><time>2012-07-19T18:39:41.0000000+00:00</time></trkpt><trkpt lat="64.31059265" lon="-20.30528259"><ele>105.9</ele><time>2012-07-19T18:39:46.0000000+00:00</time></trkpt><trkpt lat="64.31059265" lon="-20.30528259"><ele>105.9</ele><time>2012-07-19T18:39:51.0000000+00:00</time></trkpt><trkpt lat="64.31059265" lon="-20.30528259"><ele>105.9</ele><time>2012-07-19T18:39:56.0000000+00:00</time></trkpt><trkpt lat="64.31059265" lon="-20.30528259"><ele>105.9</ele><time>2012-07-19T18:40:01.0000000+00:00</time></trkpt><trkpt lat="64.31059265" lon="-20.30528259"><ele>105.9</ele><time>2012-07-19T18:40:06.0000000+00:00</time></trkpt><trkpt lat="64.31059265" lon="-20.30528259"><ele>105.9</ele><time>2012-07-19T18:40:11.0000000+00:00</time></trkpt><trkpt lat="64.31059265" lon="-20.30528259"><ele>105.9</ele><time>2012-07-19T18:40:16.0000000+00:00</time></trkpt><trkpt lat="64.31059265" lon="-20.3052845"><ele>105.9</ele><time>2012-07-19T18:40:21.0000000+00:00</time></trkpt><trkpt lat="64.31059265" lon="-20.3052845"><ele>105.9</ele><time>2012-07-19T18:40:26.0000000+00:00</time></trkpt><trkpt lat="64.31059265" lon="-20.3052845"><ele>105.9</ele><time>2012-07-19T18:40:31.0000000+00:00</time></trkpt><trkpt lat="64.31059265" lon="-20.3052845"><ele>105.9</ele><time>2012-07-19T18:40:36.0000000+00:00</time></trkpt><trkpt lat="64.31059265" lon="-20.30528069"><ele>105.9</ele><time>2012-07-19T18:40:41.0000000+00:00</time></trkpt><trkpt lat="64.31059265" lon="-20.30527687"><ele>106.1</ele><time>2012-07-19T18:40:46.0000000+00:00</time></trkpt><trkpt lat="64.31059265" lon="-20.30527687"><ele>106.1</ele><time>2012-07-19T18:40:51.0000000+00:00</time></trkpt><trkpt lat="64.31059265" lon="-20.30527687"><ele>106.1</ele><time>2012-07-19T18:40:56.0000000+00:00</time></trkpt><trkpt lat="64.31059265" lon="-20.30527687"><ele>106.1</ele><time>2012-07-19T18:41:01.0000000+00:00</time></trkpt><trkpt lat="64.31059265" lon="-20.30527687"><ele>106.1</ele><time>2012-07-19T18:41:06.0000000+00:00</time></trkpt><trkpt lat="64.31059265" lon="-20.30528069"><ele>106.1</ele><time>2012-07-19T18:41:11.0000000+00:00</time></trkpt><trkpt lat="64.31059265" lon="-20.30528259"><ele>106.1</ele><time>2012-07-19T18:41:16.0000000+00:00</time></trkpt><trkpt lat="64.31059265" lon="-20.30528259"><ele>106.1</ele><time>2012-07-19T18:41:21.0000000+00:00</time></trkpt><trkpt lat="64.31059265" lon="-20.30528259"><ele>106.1</ele><time>2012-07-19T18:41:26.0000000+00:00</time></trkpt><trkpt lat="64.31059265" lon="-20.30528259"><ele>106.1</ele><time>2012-07-19T18:41:31.0000000+00:00</time></trkpt><trkpt lat="64.31059265" lon="-20.30528259"><ele>106.1</ele><time>2012-07-19T18:41:36.0000000+00:00</time></trkpt><trkpt lat="64.31059265" lon="-20.30528069"><ele>106.2</ele><time>2012-07-19T18:41:41.0000000+00:00</time></trkpt><trkpt lat="64.31059265" lon="-20.30528069"><ele>106.2</ele><time>2012-07-19T18:41:46.0000000+00:00</time></trkpt><trkpt lat="64.31059265" lon="-20.30528069"><ele>106.2</ele><time>2012-07-19T18:41:51.0000000+00:00</time></trkpt><trkpt lat="64.31059265" lon="-20.30528069"><ele>106.2</ele><time>2012-07-19T18:41:56.0000000+00:00</time></trkpt><trkpt lat="64.31059265" lon="-20.30528069"><ele>106.2</ele><time>2012-07-19T18:42:01.0000000+00:00</time></trkpt><trkpt lat="64.31059265" lon="-20.30528069"><ele>106.2</ele><time>2012-07-19T18:42:06.0000000+00:00</time></trkpt><trkpt lat="64.31059265" lon="-20.30528069"><ele>106.2</ele><time>2012-07-19T18:42:11.0000000+00:00</time></trkpt><trkpt lat="64.31059265" lon="-20.30528069"><ele>106.2</ele><time>2012-07-19T18:42:16.0000000+00:00</time></trkpt><trkpt lat="64.31059265" lon="-20.30528069"><ele>106.2</ele><time>2012-07-19T18:42:21.0000000+00:00</time></trkpt><trkpt lat="64.31059265" lon="-20.30528069"><ele>106.2</ele><time>2012-07-19T18:42:26.0000000+00:00</time></trkpt><trkpt lat="64.31059265" lon="-20.30528259"><ele>106.2</ele><time>2012-07-19T18:42:31.0000000+00:00</time></trkpt><trkpt lat="64.31059265" lon="-20.30528259"><ele>106.2</ele><time>2012-07-19T18:42:36.0000000+00:00</time></trkpt><trkpt lat="64.31059265" lon="-20.30528259"><ele>106.2</ele><time>2012-07-19T18:42:41.0000000+00:00</time></trkpt><trkpt lat="64.31059265" lon="-20.30528259"><ele>106.2</ele><time>2012-07-19T18:42:46.0000000+00:00</time></trkpt><trkpt lat="64.31059265" lon="-20.30528259"><ele>106.2</ele><time>2012-07-19T18:42:51.0000000+00:00</time></trkpt><trkpt lat="64.31059265" lon="-20.30528259"><ele>106.2</ele><time>2012-07-19T18:42:56.0000000+00:00</time></trkpt><trkpt lat="64.31059265" lon="-20.30528259"><ele>106.2</ele><time>2012-07-19T18:43:01.0000000+00:00</time></trkpt><trkpt lat="64.31059265" lon="-20.30528259"><ele>106.2</ele><time>2012-07-19T18:43:06.0000000+00:00</time></trkpt><trkpt lat="64.31059265" lon="-20.30528259"><ele>106.2</ele><time>2012-07-19T18:43:11.0000000+00:00</time></trkpt><trkpt lat="64.31059265" lon="-20.30528259"><ele>106.2</ele><time>2012-07-19T18:43:16.0000000+00:00</time></trkpt><trkpt lat="64.31059265" lon="-20.30528259"><ele>106.3</ele><time>2012-07-19T18:43:21.0000000+00:00</time></trkpt><trkpt lat="64.31059265" lon="-20.30528259"><ele>106.3</ele><time>2012-07-19T18:43:26.0000000+00:00</time></trkpt><trkpt lat="64.31059265" lon="-20.30528259"><ele>106.3</ele><time>2012-07-19T18:43:31.0000000+00:00</time></trkpt><trkpt lat="64.31058502" lon="-20.30528069"><ele>106.4</ele><time>2012-07-19T18:43:36.0000000+00:00</time></trkpt><trkpt lat="64.31058502" lon="-20.30528069"><ele>106.4</ele><time>2012-07-19T18:43:41.0000000+00:00</time></trkpt><trkpt lat="64.31058502" lon="-20.30528069"><ele>106.4</ele><time>2012-07-19T18:43:46.0000000+00:00</time></trkpt><trkpt lat="64.31058502" lon="-20.30528069"><ele>106.4</ele><time>2012-07-19T18:43:51.0000000+00:00</time></trkpt><trkpt lat="64.31058502" lon="-20.30528069"><ele>106.4</ele><time>2012-07-19T18:43:56.0000000+00:00</time></trkpt><trkpt lat="64.31058502" lon="-20.30528069"><ele>106.4</ele><time>2012-07-19T18:44:01.0000000+00:00</time></trkpt><trkpt lat="64.31058502" lon="-20.30528069"><ele>106.4</ele><time>2012-07-19T18:44:06.0000000+00:00</time></trkpt><trkpt lat="64.31058502" lon="-20.30528069"><ele>106.4</ele><time>2012-07-19T18:44:11.0000000+00:00</time></trkpt><trkpt lat="64.31058502" lon="-20.30528069"><ele>106.4</ele><time>2012-07-19T18:44:16.0000000+00:00</time></trkpt><trkpt lat="64.31058502" lon="-20.30528069"><ele>106.4</ele><time>2012-07-19T18:44:21.0000000+00:00</time></trkpt><trkpt lat="64.31058502" lon="-20.30528259"><ele>106.4</ele><time>2012-07-19T18:44:26.0000000+00:00</time></trkpt><trkpt lat="64.31058502" lon="-20.30528259"><ele>106.4</ele><time>2012-07-19T18:44:31.0000000+00:00</time></trkpt><trkpt lat="64.31058502" lon="-20.30528259"><ele>106.4</ele><time>2012-07-19T18:44:36.0000000+00:00</time></trkpt><trkpt lat="64.31058502" lon="-20.30528259"><ele>106.4</ele><time>2012-07-19T18:44:41.0000000+00:00</time></trkpt><trkpt lat="64.31058502" lon="-20.30528259"><ele>106.3</ele><time>2012-07-19T18:44:46.0000000+00:00</time></trkpt><trkpt lat="64.31058502" lon="-20.30528259"><ele>106.3</ele><time>2012-07-19T18:44:51.0000000+00:00</time></trkpt><trkpt lat="64.31058502" lon="-20.30528259"><ele>106.3</ele><time>2012-07-19T18:44:56.0000000+00:00</time></trkpt><trkpt lat="64.31058502" lon="-20.30528259"><ele>106.3</ele><time>2012-07-19T18:45:01.0000000+00:00</time></trkpt><trkpt lat="64.31058502" lon="-20.30528259"><ele>106.3</ele><time>2012-07-19T18:45:06.0000000+00:00</time></trkpt><trkpt lat="64.31058502" lon="-20.30528259"><ele>106.3</ele><time>2012-07-19T18:45:11.0000000+00:00</time></trkpt><trkpt lat="64.31058502" lon="-20.30528259"><ele>106.3</ele><time>2012-07-19T18:45:16.0000000+00:00</time></trkpt><trkpt lat="64.31058502" lon="-20.30528259"><ele>106.3</ele><time>2012-07-19T18:45:21.0000000+00:00</time></trkpt><trkpt lat="64.31058502" lon="-20.30528259"><ele>106.3</ele><time>2012-07-19T18:45:26.0000000+00:00</time></trkpt><trkpt lat="64.31058502" lon="-20.30528259"><ele>106.3</ele><time>2012-07-19T18:45:31.0000000+00:00</time></trkpt><trkpt lat="64.31058502" lon="-20.30528259"><ele>106.3</ele><time>2012-07-19T18:45:36.0000000+00:00</time></trkpt><trkpt lat="64.31058502" lon="-20.3052845"><ele>106.3</ele><time>2012-07-19T18:45:41.0000000+00:00</time></trkpt><trkpt lat="64.31058502" lon="-20.3052845"><ele>106.3</ele><time>2012-07-19T18:45:46.0000000+00:00</time></trkpt><trkpt lat="64.31058502" lon="-20.3052845"><ele>106.3</ele><time>2012-07-19T18:45:51.0000000+00:00</time></trkpt><trkpt lat="64.31058502" lon="-20.3052845"><ele>106.3</ele><time>2012-07-19T18:45:56.0000000+00:00</time></trkpt><trkpt lat="64.31058502" lon="-20.3052845"><ele>106.3</ele><time>2012-07-19T18:46:01.0000000+00:00</time></trkpt><trkpt lat="64.31058502" lon="-20.3052845"><ele>106.3</ele><time>2012-07-19T18:46:06.0000000+00:00</time></trkpt><trkpt lat="64.31058502" lon="-20.3052845"><ele>106.3</ele><time>2012-07-19T18:46:11.0000000+00:00</time></trkpt><trkpt lat="64.31058502" lon="-20.3052845"><ele>106.3</ele><time>2012-07-19T18:46:16.0000000+00:00</time></trkpt><trkpt lat="64.31058502" lon="-20.3052845"><ele>106.3</ele><time>2012-07-19T18:46:21.0000000+00:00</time></trkpt><trkpt lat="64.31058502" lon="-20.3052845"><ele>106.3</ele><time>2012-07-19T18:46:26.0000000+00:00</time></trkpt><trkpt lat="64.31058502" lon="-20.3052845"><ele>106.3</ele><time>2012-07-19T18:46:31.0000000+00:00</time></trkpt><trkpt lat="64.31058502" lon="-20.3052845"><ele>106.3</ele><time>2012-07-19T18:46:36.0000000+00:00</time></trkpt><trkpt lat="64.31058502" lon="-20.3052845"><ele>106.3</ele><time>2012-07-19T18:46:41.0000000+00:00</time></trkpt><trkpt lat="64.31058502" lon="-20.30528641"><ele>106.3</ele><time>2012-07-19T18:46:46.0000000+00:00</time></trkpt><trkpt lat="64.31058502" lon="-20.30528641"><ele>106.3</ele><time>2012-07-19T18:46:51.0000000+00:00</time></trkpt><trkpt lat="64.31058502" lon="-20.30528641"><ele>106.3</ele><time>2012-07-19T18:46:56.0000000+00:00</time></trkpt><trkpt lat="64.31058502" lon="-20.30528641"><ele>106.3</ele><time>2012-07-19T18:47:01.0000000+00:00</time></trkpt><trkpt lat="64.31058502" lon="-20.30528641"><ele>106.3</ele><time>2012-07-19T18:47:06.0000000+00:00</time></trkpt><trkpt lat="64.31058502" lon="-20.30528641"><ele>106.3</ele><time>2012-07-19T18:47:11.0000000+00:00</time></trkpt><trkpt lat="64.31058502" lon="-20.30528641"><ele>106.2</ele><time>2012-07-19T18:47:16.0000000+00:00</time></trkpt><trkpt lat="64.31058502" lon="-20.30528641"><ele>106.2</ele><time>2012-07-19T18:47:21.0000000+00:00</time></trkpt><trkpt lat="64.31058502" lon="-20.30528641"><ele>106.2</ele><time>2012-07-19T18:47:26.0000000+00:00</time></trkpt><trkpt lat="64.31058502" lon="-20.30528641"><ele>106.2</ele><time>2012-07-19T18:47:31.0000000+00:00</time></trkpt><trkpt lat="64.31058502" lon="-20.30528641"><ele>106.2</ele><time>2012-07-19T18:47:36.0000000+00:00</time></trkpt><trkpt lat="64.31058502" lon="-20.3052845"><ele>106.3</ele><time>2012-07-19T18:47:41.0000000+00:00</time></trkpt><trkpt lat="64.31058502" lon="-20.3052845"><ele>106.2</ele><time>2012-07-19T18:47:46.0000000+00:00</time></trkpt><trkpt lat="64.31058502" lon="-20.30528641"><ele>106.2</ele><time>2012-07-19T18:47:51.0000000+00:00</time></trkpt><trkpt lat="64.31058502" lon="-20.30528641"><ele>106.2</ele><time>2012-07-19T18:47:56.0000000+00:00</time></trkpt><trkpt lat="64.31058502" lon="-20.30528641"><ele>106.2</ele><time>2012-07-19T18:48:01.0000000+00:00</time></trkpt><trkpt lat="64.31058502" lon="-20.30528641"><ele>106.2</ele><time>2012-07-19T18:48:06.0000000+00:00</time></trkpt><trkpt lat="64.31058502" lon="-20.30528641"><ele>106.2</ele><time>2012-07-19T18:48:11.0000000+00:00</time></trkpt><trkpt lat="64.31058502" lon="-20.30528641"><ele>106.2</ele><time>2012-07-19T18:48:16.0000000+00:00</time></trkpt><trkpt lat="64.31058502" lon="-20.30528641"><ele>106.2</ele><time>2012-07-19T18:48:21.0000000+00:00</time></trkpt><trkpt lat="64.31058502" lon="-20.30528832"><ele>106.2</ele><time>2012-07-19T18:48:26.0000000+00:00</time></trkpt><trkpt lat="64.31058502" lon="-20.30528832"><ele>106.2</ele><time>2012-07-19T18:48:31.0000000+00:00</time></trkpt><trkpt lat="64.31058502" lon="-20.30528832"><ele>106.2</ele><time>2012-07-19T18:48:36.0000000+00:00</time></trkpt><trkpt lat="64.31058502" lon="-20.30528832"><ele>106.2</ele><time>2012-07-19T18:48:41.0000000+00:00</time></trkpt><trkpt lat="64.31058502" lon="-20.30528832"><ele>106.2</ele><time>2012-07-19T18:48:46.0000000+00:00</time></trkpt><trkpt lat="64.31058502" lon="-20.30528832"><ele>106.2</ele><time>2012-07-19T18:48:51.0000000+00:00</time></trkpt><trkpt lat="64.31058502" lon="-20.30528832"><ele>106.2</ele><time>2012-07-19T18:48:56.0000000+00:00</time></trkpt><trkpt lat="64.31058502" lon="-20.30528832"><ele>106.2</ele><time>2012-07-19T18:49:01.0000000+00:00</time></trkpt><trkpt lat="64.31058502" lon="-20.30528832"><ele>106.2</ele><time>2012-07-19T18:49:06.0000000+00:00</time></trkpt><trkpt lat="64.31058502" lon="-20.30528832"><ele>106.2</ele><time>2012-07-19T18:49:11.0000000+00:00</time></trkpt><trkpt lat="64.31058502" lon="-20.30528832"><ele>106.2</ele><time>2012-07-19T18:49:16.0000000+00:00</time></trkpt><trkpt lat="64.31058502" lon="-20.30528832"><ele>106.2</ele><time>2012-07-19T18:49:21.0000000+00:00</time></trkpt><trkpt lat="64.31058502" lon="-20.30528832"><ele>106.2</ele><time>2012-07-19T18:49:26.0000000+00:00</time></trkpt><trkpt lat="64.31058502" lon="-20.30528832"><ele>106.2</ele><time>2012-07-19T18:49:31.0000000+00:00</time></trkpt><trkpt lat="64.31058502" lon="-20.30528832"><ele>106.2</ele><time>2012-07-19T18:49:36.0000000+00:00</time></trkpt><trkpt lat="64.31058502" lon="-20.30528832"><ele>106.2</ele><time>2012-07-19T18:49:41.0000000+00:00</time></trkpt><trkpt lat="64.31058502" lon="-20.30528832"><ele>106.1</ele><time>2012-07-19T18:49:46.0000000+00:00</time></trkpt><trkpt lat="64.31058502" lon="-20.30528832"><ele>106.1</ele><time>2012-07-19T18:49:51.0000000+00:00</time></trkpt><trkpt lat="64.31058502" lon="-20.30528832"><ele>106.1</ele><time>2012-07-19T18:49:56.0000000+00:00</time></trkpt><trkpt lat="64.31058502" lon="-20.30528832"><ele>106.1</ele><time>2012-07-19T18:50:01.0000000+00:00</time></trkpt><trkpt lat="64.31058502" lon="-20.30528641"><ele>106.1</ele><time>2012-07-19T18:50:06.0000000+00:00</time></trkpt><trkpt lat="64.31058502" lon="-20.30528641"><ele>106.2</ele><time>2012-07-19T18:50:11.0000000+00:00</time></trkpt><trkpt lat="64.31058502" lon="-20.30528641"><ele>106.2</ele><time>2012-07-19T18:50:16.0000000+00:00</time></trkpt><trkpt lat="64.31058502" lon="-20.3052845"><ele>106.2</ele><time>2012-07-19T18:50:21.0000000+00:00</time></trkpt><trkpt lat="64.31058502" lon="-20.3052845"><ele>106.2</ele><time>2012-07-19T18:50:26.0000000+00:00</time></trkpt><trkpt lat="64.31058502" lon="-20.3052845"><ele>106.2</ele><time>2012-07-19T18:50:31.0000000+00:00</time></trkpt><trkpt lat="64.31058502" lon="-20.3052845"><ele>106.2</ele><time>2012-07-19T18:50:36.0000000+00:00</time></trkpt><trkpt lat="64.31058502" lon="-20.3052845"><ele>106.2</ele><time>2012-07-19T18:50:41.0000000+00:00</time></trkpt><trkpt lat="64.31058502" lon="-20.3052845"><ele>106.2</ele><time>2012-07-19T18:50:46.0000000+00:00</time></trkpt><trkpt lat="64.31058502" lon="-20.3052845"><ele>106.2</ele><time>2012-07-19T18:50:51.0000000+00:00</time></trkpt><trkpt lat="64.31058502" lon="-20.3052845"><ele>106.2</ele><time>2012-07-19T18:50:56.0000000+00:00</time></trkpt><trkpt lat="64.31058502" lon="-20.3052845"><ele>106.2</ele><time>2012-07-19T18:51:01.0000000+00:00</time></trkpt><trkpt lat="64.31058502" lon="-20.3052845"><ele>106.1</ele><time>2012-07-19T18:51:06.0000000+00:00</time></trkpt><trkpt lat="64.31058502" lon="-20.3052845"><ele>106.1</ele><time>2012-07-19T18:51:11.0000000+00:00</time></trkpt><trkpt lat="64.31058502" lon="-20.3052845"><ele>106.1</ele><time>2012-07-19T18:51:16.0000000+00:00</time></trkpt><trkpt lat="64.31058502" lon="-20.3052845"><ele>106.1</ele><time>2012-07-19T18:51:21.0000000+00:00</time></trkpt><trkpt lat="64.31058502" lon="-20.3052845"><ele>106.1</ele><time>2012-07-19T18:51:26.0000000+00:00</time></trkpt><trkpt lat="64.31058502" lon="-20.3052845"><ele>106.1</ele><time>2012-07-19T18:51:31.0000000+00:00</time></trkpt><trkpt lat="64.31058502" lon="-20.3052845"><ele>106.0</ele><time>2012-07-19T18:51:36.0000000+00:00</time></trkpt><trkpt lat="64.31058502" lon="-20.3052845"><ele>106.0</ele><time>2012-07-19T18:51:41.0000000+00:00</time></trkpt><trkpt lat="64.31058502" lon="-20.3052845"><ele>106.0</ele><time>2012-07-19T18:51:46.0000000+00:00</time></trkpt><trkpt lat="64.31058502" lon="-20.3052845"><ele>106.0</ele><time>2012-07-19T18:51:51.0000000+00:00</time></trkpt><trkpt lat="64.31058502" lon="-20.3052845"><ele>106.0</ele><time>2012-07-19T18:51:56.0000000+00:00</time></trkpt><trkpt lat="64.31058502" lon="-20.30528641"><ele>106.0</ele><time>2012-07-19T18:52:01.0000000+00:00</time></trkpt><trkpt lat="64.31058502" lon="-20.30528641"><ele>106.0</ele><time>2012-07-19T18:52:06.0000000+00:00</time></trkpt><trkpt lat="64.31058502" lon="-20.30528641"><ele>106.0</ele><time>2012-07-19T18:52:11.0000000+00:00</time></trkpt><trkpt lat="64.31058502" lon="-20.30528641"><ele>106.0</ele><time>2012-07-19T18:52:16.0000000+00:00</time></trkpt><trkpt lat="64.31058502" lon="-20.30528641"><ele>106.0</ele><time>2012-07-19T18:52:21.0000000+00:00</time></trkpt><trkpt lat="64.31058502" lon="-20.30528641"><ele>106.0</ele><time>2012-07-19T18:52:26.0000000+00:00</time></trkpt><trkpt lat="64.31058502" lon="-20.30528641"><ele>106.0</ele><time>2012-07-19T18:52:31.0000000+00:00</time></trkpt><trkpt lat="64.31058502" lon="-20.30528641"><ele>106.0</ele><time>2012-07-19T18:52:36.0000000+00:00</time></trkpt><trkpt lat="64.31058502" lon="-20.30528641"><ele>106.0</ele><time>2012-07-19T18:52:41.0000000+00:00</time></trkpt><trkpt lat="64.31058502" lon="-20.30528641"><ele>106.0</ele><time>2012-07-19T18:52:46.0000000+00:00</time></trkpt><trkpt lat="64.31058502" lon="-20.30528832"><ele>106.0</ele><time>2012-07-19T18:52:51.0000000+00:00</time></trkpt><trkpt lat="64.31058502" lon="-20.30528832"><ele>106.0</ele><time>2012-07-19T18:52:56.0000000+00:00</time></trkpt><trkpt lat="64.31058502" lon="-20.30528832"><ele>106.0</ele><time>2012-07-19T18:53:01.0000000+00:00</time></trkpt><trkpt lat="64.31058502" lon="-20.30528832"><ele>106.1</ele><time>2012-07-19T18:53:06.0000000+00:00</time></trkpt><trkpt lat="64.31058502" lon="-20.30529022"><ele>106.1</ele><time>2012-07-19T18:53:11.0000000+00:00</time></trkpt><trkpt lat="64.31058502" lon="-20.30529022"><ele>106.1</ele><time>2012-07-19T18:53:16.0000000+00:00</time></trkpt><trkpt lat="64.31058502" lon="-20.30529022"><ele>106.1</ele><time>2012-07-19T18:53:21.0000000+00:00</time></trkpt><trkpt lat="64.31058502" lon="-20.30529022"><ele>106.1</ele><time>2012-07-19T18:53:26.0000000+00:00</time></trkpt><trkpt lat="64.31058502" lon="-20.30529022"><ele>106.1</ele><time>2012-07-19T18:53:31.0000000+00:00</time></trkpt><trkpt lat="64.31058502" lon="-20.30529022"><ele>106.1</ele><time>2012-07-19T18:53:36.0000000+00:00</time></trkpt><trkpt lat="64.31058502" lon="-20.30529022"><ele>106.1</ele><time>2012-07-19T18:53:41.0000000+00:00</time></trkpt><trkpt lat="64.31058502" lon="-20.30529022"><ele>106.1</ele><time>2012-07-19T18:53:46.0000000+00:00</time></trkpt><trkpt lat="64.31058502" lon="-20.30529785"><ele>105.8</ele><time>2012-07-19T18:53:51.0000000+00:00</time></trkpt><trkpt lat="64.31058502" lon="-20.30529594"><ele>105.9</ele><time>2012-07-19T18:53:56.0000000+00:00</time></trkpt><trkpt lat="64.31058502" lon="-20.30529594"><ele>105.9</ele><time>2012-07-19T18:54:01.0000000+00:00</time></trkpt><trkpt lat="64.31058502" lon="-20.30529594"><ele>105.9</ele><time>2012-07-19T18:54:06.0000000+00:00</time></trkpt><trkpt lat="64.31058502" lon="-20.30529594"><ele>105.9</ele><time>2012-07-19T18:54:11.0000000+00:00</time></trkpt><trkpt lat="64.31058502" lon="-20.30529785"><ele>105.9</ele><time>2012-07-19T18:54:16.0000000+00:00</time></trkpt><trkpt lat="64.31058502" lon="-20.30529785"><ele>105.9</ele><time>2012-07-19T18:54:21.0000000+00:00</time></trkpt><trkpt lat="64.31058502" lon="-20.30529785"><ele>105.9</ele><time>2012-07-19T18:54:26.0000000+00:00</time></trkpt><trkpt lat="64.31058502" lon="-20.30529785"><ele>105.9</ele><time>2012-07-19T18:54:31.0000000+00:00</time></trkpt><trkpt lat="64.31058502" lon="-20.30529785"><ele>105.9</ele><time>2012-07-19T18:54:36.0000000+00:00</time></trkpt><trkpt lat="64.31058502" lon="-20.30529785"><ele>105.9</ele><time>2012-07-19T18:54:41.0000000+00:00</time></trkpt><trkpt lat="64.31058502" lon="-20.30529785"><ele>105.9</ele><time>2012-07-19T18:54:46.0000000+00:00</time></trkpt><trkpt lat="64.31058502" lon="-20.30529785"><ele>105.8</ele><time>2012-07-19T18:54:51.0000000+00:00</time></trkpt><trkpt lat="64.31058502" lon="-20.30529785"><ele>105.8</ele><time>2012-07-19T18:54:56.0000000+00:00</time></trkpt><trkpt lat="64.31058502" lon="-20.30529785"><ele>105.8</ele><time>2012-07-19T18:55:01.0000000+00:00</time></trkpt><trkpt lat="64.31058502" lon="-20.30529785"><ele>105.9</ele><time>2012-07-19T18:55:06.0000000+00:00</time></trkpt><trkpt lat="64.31058502" lon="-20.30529785"><ele>105.9</ele><time>2012-07-19T18:55:11.0000000+00:00</time></trkpt><trkpt lat="64.31058502" lon="-20.30529785"><ele>105.9</ele><time>2012-07-19T18:55:16.0000000+00:00</time></trkpt><trkpt lat="64.31058502" lon="-20.30529785"><ele>105.9</ele><time>2012-07-19T18:55:21.0000000+00:00</time></trkpt><trkpt lat="64.31058502" lon="-20.30529785"><ele>105.9</ele><time>2012-07-19T18:55:26.0000000+00:00</time></trkpt><trkpt lat="64.31058502" lon="-20.30529785"><ele>105.9</ele><time>2012-07-19T18:55:31.0000000+00:00</time></trkpt><trkpt lat="64.31058502" lon="-20.30529785"><ele>105.9</ele><time>2012-07-19T18:55:36.0000000+00:00</time></trkpt><trkpt lat="64.31059265" lon="-20.30529404"><ele>106.0</ele><time>2012-07-19T18:55:41.0000000+00:00</time></trkpt><trkpt lat="64.31059265" lon="-20.30528832"><ele>106.0</ele><time>2012-07-19T18:55:46.0000000+00:00</time></trkpt><trkpt lat="64.31059265" lon="-20.30528832"><ele>106.0</ele><time>2012-07-19T18:55:51.0000000+00:00</time></trkpt><trkpt lat="64.31059265" lon="-20.30528832"><ele>106.0</ele><time>2012-07-19T18:55:56.0000000+00:00</time></trkpt><trkpt lat="64.31059265" lon="-20.30528832"><ele>105.9</ele><time>2012-07-19T18:56:01.0000000+00:00</time></trkpt><trkpt lat="64.31059265" lon="-20.30528832"><ele>105.9</ele><time>2012-07-19T18:56:06.0000000+00:00</time></trkpt><trkpt lat="64.31059265" lon="-20.30528832"><ele>105.9</ele><time>2012-07-19T18:56:11.0000000+00:00</time></trkpt><trkpt lat="64.31059265" lon="-20.30528832"><ele>105.9</ele><time>2012-07-19T18:56:16.0000000+00:00</time></trkpt><trkpt lat="64.31059265" lon="-20.30529022"><ele>105.9</ele><time>2012-07-19T18:56:21.0000000+00:00</time></trkpt><trkpt lat="64.31059265" lon="-20.30529022"><ele>105.9</ele><time>2012-07-19T18:56:26.0000000+00:00</time></trkpt><trkpt lat="64.31059265" lon="-20.30529022"><ele>105.9</ele><time>2012-07-19T18:56:31.0000000+00:00</time></trkpt><trkpt lat="64.31059265" lon="-20.30529022"><ele>105.9</ele><time>2012-07-19T18:56:36.0000000+00:00</time></trkpt><trkpt lat="64.31059265" lon="-20.30529022"><ele>105.9</ele><time>2012-07-19T18:56:41.0000000+00:00</time></trkpt><trkpt lat="64.31059265" lon="-20.30529022"><ele>105.9</ele><time>2012-07-19T18:56:46.0000000+00:00</time></trkpt><trkpt lat="64.31059265" lon="-20.30529022"><ele>105.9</ele><time>2012-07-19T18:56:51.0000000+00:00</time></trkpt><trkpt lat="64.31059265" lon="-20.30529213"><ele>105.9</ele><time>2012-07-19T18:56:56.0000000+00:00</time></trkpt><trkpt lat="64.31059265" lon="-20.30529213"><ele>105.9</ele><time>2012-07-19T18:57:01.0000000+00:00</time></trkpt><trkpt lat="64.31059265" lon="-20.30529213"><ele>105.9</ele><time>2012-07-19T18:57:06.0000000+00:00</time></trkpt><trkpt lat="64.31059265" lon="-20.30529213"><ele>105.9</ele><time>2012-07-19T18:57:11.0000000+00:00</time></trkpt><trkpt lat="64.31059265" lon="-20.30529213"><ele>105.9</ele><time>2012-07-19T18:57:16.0000000+00:00</time></trkpt><trkpt lat="64.31059265" lon="-20.30529213"><ele>105.9</ele><time>2012-07-19T18:57:21.0000000+00:00</time></trkpt><trkpt lat="64.31059265" lon="-20.30529213"><ele>105.9</ele><time>2012-07-19T18:57:26.0000000+00:00</time></trkpt><trkpt lat="64.31059265" lon="-20.30529404"><ele>105.9</ele><time>2012-07-19T18:57:31.0000000+00:00</time></trkpt><trkpt lat="64.31058502" lon="-20.30531693"><ele>105.8</ele><time>2012-07-19T18:57:36.0000000+00:00</time></trkpt><trkpt lat="64.31058502" lon="-20.30532455"><ele>105.6</ele><time>2012-07-19T18:57:41.0000000+00:00</time></trkpt><trkpt lat="64.31058502" lon="-20.30532074"><ele>105.8</ele><time>2012-07-19T18:57:46.0000000+00:00</time></trkpt><trkpt lat="64.31058502" lon="-20.30532074"><ele>105.8</ele><time>2012-07-19T18:57:51.0000000+00:00</time></trkpt><trkpt lat="64.31058502" lon="-20.30532074"><ele>105.8</ele><time>2012-07-19T18:57:56.0000000+00:00</time></trkpt><trkpt lat="64.31058502" lon="-20.30532074"><ele>105.8</ele><time>2012-07-19T18:58:01.0000000+00:00</time></trkpt><trkpt lat="64.31058502" lon="-20.30532074"><ele>105.9</ele><time>2012-07-19T18:58:06.0000000+00:00</time></trkpt><trkpt lat="64.31058502" lon="-20.30532074"><ele>105.9</ele><time>2012-07-19T18:58:11.0000000+00:00</time></trkpt><trkpt lat="64.31058502" lon="-20.30532265"><ele>105.9</ele><time>2012-07-19T18:58:16.0000000+00:00</time></trkpt><trkpt lat="64.31058502" lon="-20.30532265"><ele>105.9</ele><time>2012-07-19T18:58:21.0000000+00:00</time></trkpt><trkpt lat="64.31058502" lon="-20.30532265"><ele>105.9</ele><time>2012-07-19T18:58:26.0000000+00:00</time></trkpt><trkpt lat="64.31058502" lon="-20.30532265"><ele>105.9</ele><time>2012-07-19T18:58:31.0000000+00:00</time></trkpt><trkpt lat="64.31058502" lon="-20.30532265"><ele>105.9</ele><time>2012-07-19T18:58:36.0000000+00:00</time></trkpt><trkpt lat="64.31058502" lon="-20.30532265"><ele>105.9</ele><time>2012-07-19T18:58:41.0000000+00:00</time></trkpt><trkpt lat="64.31058502" lon="-20.30532265"><ele>105.9</ele><time>2012-07-19T18:58:46.0000000+00:00</time></trkpt><trkpt lat="64.31058502" lon="-20.30532265"><ele>105.9</ele><time>2012-07-19T18:58:51.0000000+00:00</time></trkpt><trkpt lat="64.31058502" lon="-20.30532265"><ele>105.9</ele><time>2012-07-19T18:58:56.0000000+00:00</time></trkpt><trkpt lat="64.31058502" lon="-20.30532455"><ele>105.9</ele><time>2012-07-19T18:59:01.0000000+00:00</time></trkpt><trkpt lat="64.31058502" lon="-20.30532455"><ele>105.9</ele><time>2012-07-19T18:59:06.0000000+00:00</time></trkpt><trkpt lat="64.31058502" lon="-20.30532455"><ele>105.9</ele><time>2012-07-19T18:59:11.0000000+00:00</time></trkpt><trkpt lat="64.31058502" lon="-20.30532455"><ele>106.0</ele><time>2012-07-19T18:59:16.0000000+00:00</time></trkpt><trkpt lat="64.31058502" lon="-20.30532455"><ele>106.0</ele><time>2012-07-19T18:59:21.0000000+00:00</time></trkpt><trkpt lat="64.31058502" lon="-20.30532455"><ele>106.0</ele><time>2012-07-19T18:59:26.0000000+00:00</time></trkpt><trkpt lat="64.31058502" lon="-20.30532455"><ele>106.0</ele><time>2012-07-19T18:59:31.0000000+00:00</time></trkpt><trkpt lat="64.31058502" lon="-20.30532455"><ele>106.0</ele><time>2012-07-19T18:59:36.0000000+00:00</time></trkpt><trkpt lat="64.31058502" lon="-20.30532455"><ele>106.0</ele><time>2012-07-19T18:59:41.0000000+00:00</time></trkpt><trkpt lat="64.31058502" lon="-20.30532455"><ele>106.0</ele><time>2012-07-19T18:59:46.0000000+00:00</time></trkpt><trkpt lat="64.31058502" lon="-20.30532455"><ele>106.0</ele><time>2012-07-19T18:59:51.0000000+00:00</time></trkpt><trkpt lat="64.31058502" lon="-20.30532455"><ele>106.0</ele><time>2012-07-19T18:59:56.0000000+00:00</time></trkpt><trkpt lat="64.31058502" lon="-20.30532455"><ele>106.0</ele><time>2012-07-19T19:00:01.0000000+00:00</time></trkpt><trkpt lat="64.31058502" lon="-20.30532455"><ele>106.0</ele><time>2012-07-19T19:00:06.0000000+00:00</time></trkpt><trkpt lat="64.31058502" lon="-20.30532455"><ele>106.0</ele><time>2012-07-19T19:00:11.0000000+00:00</time></trkpt><trkpt lat="64.31058502" lon="-20.30532455"><ele>106.0</ele><time>2012-07-19T19:00:16.0000000+00:00</time></trkpt><trkpt lat="64.31058502" lon="-20.30532455"><ele>106.0</ele><time>2012-07-19T19:00:21.0000000+00:00</time></trkpt><trkpt lat="64.31058502" lon="-20.30532455"><ele>106.0</ele><time>2012-07-19T19:00:26.0000000+00:00</time></trkpt><trkpt lat="64.31058502" lon="-20.30532455"><ele>105.9</ele><time>2012-07-19T19:00:31.0000000+00:00</time></trkpt><trkpt lat="64.31058502" lon="-20.30532455"><ele>105.9</ele><time>2012-07-19T19:00:36.0000000+00:00</time></trkpt><trkpt lat="64.31058502" lon="-20.30532455"><ele>105.9</ele><time>2012-07-19T19:00:41.0000000+00:00</time></trkpt><trkpt lat="64.31058502" lon="-20.30532455"><ele>105.9</ele><time>2012-07-19T19:00:46.0000000+00:00</time></trkpt><trkpt lat="64.31058502" lon="-20.30532455"><ele>105.9</ele><time>2012-07-19T19:00:51.0000000+00:00</time></trkpt><trkpt lat="64.31058502" lon="-20.30532455"><ele>105.9</ele><time>2012-07-19T19:00:56.0000000+00:00</time></trkpt><trkpt lat="64.31058502" lon="-20.30532455"><ele>105.9</ele><time>2012-07-19T19:01:01.0000000+00:00</time></trkpt><trkpt lat="64.31058502" lon="-20.30532455"><ele>105.9</ele><time>2012-07-19T19:01:06.0000000+00:00</time></trkpt><trkpt lat="64.31058502" lon="-20.30532455"><ele>105.9</ele><time>2012-07-19T19:01:11.0000000+00:00</time></trkpt><trkpt lat="64.31058502" lon="-20.30532455"><ele>105.9</ele><time>2012-07-19T19:01:16.0000000+00:00</time></trkpt><trkpt lat="64.31058502" lon="-20.30532455"><ele>105.9</ele><time>2012-07-19T19:01:21.0000000+00:00</time></trkpt><trkpt lat="64.31058502" lon="-20.30532455"><ele>105.9</ele><time>2012-07-19T19:01:26.0000000+00:00</time></trkpt><trkpt lat="64.31058502" lon="-20.30532455"><ele>105.9</ele><time>2012-07-19T19:01:31.0000000+00:00</time></trkpt><trkpt lat="64.31058502" lon="-20.30532455"><ele>105.9</ele><time>2012-07-19T19:01:36.0000000+00:00</time></trkpt><trkpt lat="64.31058502" lon="-20.30532455"><ele>105.9</ele><time>2012-07-19T19:01:41.0000000+00:00</time></trkpt><trkpt lat="64.31058502" lon="-20.30532455"><ele>105.9</ele><time>2012-07-19T19:01:46.0000000+00:00</time></trkpt><trkpt lat="64.31058502" lon="-20.30532455"><ele>105.9</ele><time>2012-07-19T19:01:51.0000000+00:00</time></trkpt><trkpt lat="64.31058502" lon="-20.30532455"><ele>105.9</ele><time>2012-07-19T19:01:56.0000000+00:00</time></trkpt><trkpt lat="64.31058502" lon="-20.30532455"><ele>106.0</ele><time>2012-07-19T19:02:01.0000000+00:00</time></trkpt><trkpt lat="64.31058502" lon="-20.30532455"><ele>106.0</ele><time>2012-07-19T19:02:06.0000000+00:00</time></trkpt><trkpt lat="64.31058502" lon="-20.30532455"><ele>106.0</ele><time>2012-07-19T19:02:11.0000000+00:00</time></trkpt><trkpt lat="64.31058502" lon="-20.30532455"><ele>106.0</ele><time>2012-07-19T19:02:16.0000000+00:00</time></trkpt><trkpt lat="64.31058502" lon="-20.30532455"><ele>106.0</ele><time>2012-07-19T19:02:21.0000000+00:00</time></trkpt><trkpt lat="64.31058502" lon="-20.30532455"><ele>106.0</ele><time>2012-07-19T19:02:26.0000000+00:00</time></trkpt><trkpt lat="64.31058502" lon="-20.30532455"><ele>106.0</ele><time>2012-07-19T19:02:31.0000000+00:00</time></trkpt><trkpt lat="64.31058502" lon="-20.30532455"><ele>106.0</ele><time>2012-07-19T19:02:36.0000000+00:00</time></trkpt><trkpt lat="64.31058502" lon="-20.30532455"><ele>106.0</ele><time>2012-07-19T19:02:41.0000000+00:00</time></trkpt><trkpt lat="64.31058502" lon="-20.30532455"><ele>106.0</ele><time>2012-07-19T19:02:46.0000000+00:00</time></trkpt><trkpt lat="64.31058502" lon="-20.30532455"><ele>106.0</ele><time>2012-07-19T19:02:51.0000000+00:00</time></trkpt><trkpt lat="64.31058502" lon="-20.30532455"><ele>106.0</ele><time>2012-07-19T19:02:56.0000000+00:00</time></trkpt><trkpt lat="64.31058502" lon="-20.30532455"><ele>106.0</ele><time>2012-07-19T19:03:01.0000000+00:00</time></trkpt><trkpt lat="64.31058502" lon="-20.30532646"><ele>106.0</ele><time>2012-07-19T19:03:06.0000000+00:00</time></trkpt><trkpt lat="64.31058502" lon="-20.30532646"><ele>106.0</ele><time>2012-07-19T19:03:11.0000000+00:00</time></trkpt><trkpt lat="64.31058502" lon="-20.30532646"><ele>106.0</ele><time>2012-07-19T19:03:16.0000000+00:00</time></trkpt><trkpt lat="64.31058502" lon="-20.30532646"><ele>106.0</ele><time>2012-07-19T19:03:21.0000000+00:00</time></trkpt><trkpt lat="64.31058502" lon="-20.30532837"><ele>106.0</ele><time>2012-07-19T19:03:26.0000000+00:00</time></trkpt><trkpt lat="64.31058502" lon="-20.30532837"><ele>106.0</ele><time>2012-07-19T19:03:31.0000000+00:00</time></trkpt><trkpt lat="64.31058502" lon="-20.30532837"><ele>106.0</ele><time>2012-07-19T19:03:36.0000000+00:00</time></trkpt><trkpt lat="64.31058502" lon="-20.30532837"><ele>106.0</ele><time>2012-07-19T19:03:41.0000000+00:00</time></trkpt><trkpt lat="64.31058502" lon="-20.30532837"><ele>106.0</ele><time>2012-07-19T19:03:46.0000000+00:00</time></trkpt><trkpt lat="64.31058502" lon="-20.30532837"><ele>106.0</ele><time>2012-07-19T19:03:51.0000000+00:00</time></trkpt><trkpt lat="64.31057739" lon="-20.30532837"><ele>106.0</ele><time>2012-07-19T19:03:56.0000000+00:00</time></trkpt><trkpt lat="64.31057739" lon="-20.30532837"><ele>106.0</ele><time>2012-07-19T19:04:01.0000000+00:00</time></trkpt><trkpt lat="64.31057739" lon="-20.30532837"><ele>106.0</ele><time>2012-07-19T19:04:06.0000000+00:00</time></trkpt><trkpt lat="64.31057739" lon="-20.30532837"><ele>106.0</ele><time>2012-07-19T19:04:11.0000000+00:00</time></trkpt><trkpt lat="64.31057739" lon="-20.30532837"><ele>106.0</ele><time>2012-07-19T19:04:16.0000000+00:00</time></trkpt><trkpt lat="64.31057739" lon="-20.30532837"><ele>106.0</ele><time>2012-07-19T19:04:21.0000000+00:00</time></trkpt><trkpt lat="64.31057739" lon="-20.30532837"><ele>106.0</ele><time>2012-07-19T19:04:26.0000000+00:00</time></trkpt><trkpt lat="64.31057739" lon="-20.30532837"><ele>106.0</ele><time>2012-07-19T19:04:31.0000000+00:00</time></trkpt><trkpt lat="64.31057739" lon="-20.30532837"><ele>106.0</ele><time>2012-07-19T19:04:36.0000000+00:00</time></trkpt><trkpt lat="64.31057739" lon="-20.30532837"><ele>106.0</ele><time>2012-07-19T19:04:41.0000000+00:00</time></trkpt><trkpt lat="64.31057739" lon="-20.30532837"><ele>106.0</ele><time>2012-07-19T19:04:46.0000000+00:00</time></trkpt><trkpt lat="64.31057739" lon="-20.30532837"><ele>106.0</ele><time>2012-07-19T19:04:51.0000000+00:00</time></trkpt><trkpt lat="64.31057739" lon="-20.30533028"><ele>106.0</ele><time>2012-07-19T19:04:56.0000000+00:00</time></trkpt><trkpt lat="64.31057739" lon="-20.30533028"><ele>106.0</ele><time>2012-07-19T19:05:01.0000000+00:00</time></trkpt><trkpt lat="64.31057739" lon="-20.30533028"><ele>106.0</ele><time>2012-07-19T19:05:06.0000000+00:00</time></trkpt><trkpt lat="64.31057739" lon="-20.30533028"><ele>106.0</ele><time>2012-07-19T19:05:11.0000000+00:00</time></trkpt><trkpt lat="64.31057739" lon="-20.30533028"><ele>106.0</ele><time>2012-07-19T19:05:16.0000000+00:00</time></trkpt><trkpt lat="64.31057739" lon="-20.30533218"><ele>105.9</ele><time>2012-07-19T19:05:21.0000000+00:00</time></trkpt><trkpt lat="64.31057739" lon="-20.30533218"><ele>105.9</ele><time>2012-07-19T19:05:26.0000000+00:00</time></trkpt><trkpt lat="64.31057739" lon="-20.30533218"><ele>105.9</ele><time>2012-07-19T19:05:31.0000000+00:00</time></trkpt><trkpt lat="64.31057739" lon="-20.30533218"><ele>105.9</ele><time>2012-07-19T19:05:36.0000000+00:00</time></trkpt><trkpt lat="64.31057739" lon="-20.30533218"><ele>105.9</ele><time>2012-07-19T19:05:41.0000000+00:00</time></trkpt><trkpt lat="64.31057739" lon="-20.30533218"><ele>105.9</ele><time>2012-07-19T19:05:46.0000000+00:00</time></trkpt><trkpt lat="64.31057739" lon="-20.30533218"><ele>105.9</ele><time>2012-07-19T19:05:51.0000000+00:00</time></trkpt><trkpt lat="64.31057739" lon="-20.30533409"><ele>105.9</ele><time>2012-07-19T19:05:56.0000000+00:00</time></trkpt><trkpt lat="64.31057739" lon="-20.30533409"><ele>105.9</ele><time>2012-07-19T19:06:01.0000000+00:00</time></trkpt><trkpt lat="64.31057739" lon="-20.30533409"><ele>105.9</ele><time>2012-07-19T19:06:06.0000000+00:00</time></trkpt><trkpt lat="64.31057739" lon="-20.30533409"><ele>105.9</ele><time>2012-07-19T19:06:11.0000000+00:00</time></trkpt><trkpt lat="64.31057739" lon="-20.305336"><ele>105.9</ele><time>2012-07-19T19:06:16.0000000+00:00</time></trkpt><trkpt lat="64.31057739" lon="-20.305336"><ele>105.9</ele><time>2012-07-19T19:06:21.0000000+00:00</time></trkpt><trkpt lat="64.31057739" lon="-20.305336"><ele>105.9</ele><time>2012-07-19T19:06:26.0000000+00:00</time></trkpt><trkpt lat="64.31057739" lon="-20.305336"><ele>105.9</ele><time>2012-07-19T19:06:31.0000000+00:00</time></trkpt><trkpt lat="64.31057739" lon="-20.305336"><ele>105.9</ele><time>2012-07-19T19:06:36.0000000+00:00</time></trkpt><trkpt lat="64.31057739" lon="-20.305336"><ele>105.9</ele><time>2012-07-19T19:06:41.0000000+00:00</time></trkpt><trkpt lat="64.31057739" lon="-20.305336"><ele>105.9</ele><time>2012-07-19T19:06:46.0000000+00:00</time></trkpt><trkpt lat="64.31057739" lon="-20.305336"><ele>105.9</ele><time>2012-07-19T19:06:51.0000000+00:00</time></trkpt><trkpt lat="64.31057739" lon="-20.305336"><ele>105.9</ele><time>2012-07-19T19:06:56.0000000+00:00</time></trkpt><trkpt lat="64.31057739" lon="-20.305336"><ele>105.9</ele><time>2012-07-19T19:07:01.0000000+00:00</time></trkpt><trkpt lat="64.31057739" lon="-20.305336"><ele>105.9</ele><time>2012-07-19T19:07:06.0000000+00:00</time></trkpt><trkpt lat="64.31057739" lon="-20.305336"><ele>105.9</ele><time>2012-07-19T19:07:11.0000000+00:00</time></trkpt><trkpt lat="64.31057739" lon="-20.305336"><ele>105.9</ele><time>2012-07-19T19:07:16.0000000+00:00</time></trkpt><trkpt lat="64.31057739" lon="-20.305336"><ele>105.9</ele><time>2012-07-19T19:07:21.0000000+00:00</time></trkpt><trkpt lat="64.31057739" lon="-20.305336"><ele>105.9</ele><time>2012-07-19T19:07:26.0000000+00:00</time></trkpt><trkpt lat="64.31057739" lon="-20.30533791"><ele>105.9</ele><time>2012-07-19T19:07:31.0000000+00:00</time></trkpt><trkpt lat="64.31057739" lon="-20.30533791"><ele>105.9</ele><time>2012-07-19T19:07:36.0000000+00:00</time></trkpt><trkpt lat="64.31057739" lon="-20.30533791"><ele>105.9</ele><time>2012-07-19T19:07:41.0000000+00:00</time></trkpt><trkpt lat="64.31057739" lon="-20.30533791"><ele>105.9</ele><time>2012-07-19T19:07:46.0000000+00:00</time></trkpt><trkpt lat="64.31057739" lon="-20.30533791"><ele>105.8</ele><time>2012-07-19T19:07:51.0000000+00:00</time></trkpt><trkpt lat="64.31057739" lon="-20.30533791"><ele>105.8</ele><time>2012-07-19T19:07:56.0000000+00:00</time></trkpt><trkpt lat="64.31057739" lon="-20.30533791"><ele>105.8</ele><time>2012-07-19T19:08:01.0000000+00:00</time></trkpt><trkpt lat="64.31057739" lon="-20.30533791"><ele>105.8</ele><time>2012-07-19T19:08:06.0000000+00:00</time></trkpt><trkpt lat="64.31057739" lon="-20.30533791"><ele>105.8</ele><time>2012-07-19T19:08:11.0000000+00:00</time></trkpt><trkpt lat="64.31057739" lon="-20.30533791"><ele>105.8</ele><time>2012-07-19T19:08:16.0000000+00:00</time></trkpt><trkpt lat="64.31057739" lon="-20.30533791"><ele>105.8</ele><time>2012-07-19T19:08:21.0000000+00:00</time></trkpt><trkpt lat="64.31057739" lon="-20.30533791"><ele>105.9</ele><time>2012-07-19T19:08:26.0000000+00:00</time></trkpt><trkpt lat="64.31057739" lon="-20.30533791"><ele>105.9</ele><time>2012-07-19T19:08:31.0000000+00:00</time></trkpt><trkpt lat="64.31057739" lon="-20.30533981"><ele>105.9</ele><time>2012-07-19T19:08:36.0000000+00:00</time></trkpt><trkpt lat="64.31057739" lon="-20.30533981"><ele>105.9</ele><time>2012-07-19T19:08:41.0000000+00:00</time></trkpt><trkpt lat="64.31057739" lon="-20.30533981"><ele>105.9</ele><time>2012-07-19T19:08:46.0000000+00:00</time></trkpt><trkpt lat="64.31057739" lon="-20.30534363"><ele>105.9</ele><time>2012-07-19T19:08:51.0000000+00:00</time></trkpt><trkpt lat="64.31058502" lon="-20.30533791"><ele>105.8</ele><time>2012-07-19T19:08:56.0000000+00:00</time></trkpt><trkpt lat="64.31058502" lon="-20.30534935"><ele>105.7</ele><time>2012-07-19T19:09:01.0000000+00:00</time></trkpt><trkpt lat="64.31058502" lon="-20.30534744"><ele>105.5</ele><time>2012-07-19T19:09:06.0000000+00:00</time></trkpt><trkpt lat="64.31058502" lon="-20.30534935"><ele>105.4</ele><time>2012-07-19T19:09:11.0000000+00:00</time></trkpt><trkpt lat="64.31058502" lon="-20.30534935"><ele>105.3</ele><time>2012-07-19T19:09:16.0000000+00:00</time></trkpt><trkpt lat="64.31058502" lon="-20.30534935"><ele>105.3</ele><time>2012-07-19T19:09:21.0000000+00:00</time></trkpt><trkpt lat="64.31058502" lon="-20.30534935"><ele>105.3</ele><time>2012-07-19T19:09:26.0000000+00:00</time></trkpt><trkpt lat="64.31058502" lon="-20.30534935"><ele>105.3</ele><time>2012-07-19T19:09:31.0000000+00:00</time></trkpt><trkpt lat="64.31058502" lon="-20.30534935"><ele>105.3</ele><time>2012-07-19T19:09:36.0000000+00:00</time></trkpt><trkpt lat="64.31058502" lon="-20.30534935"><ele>105.3</ele><time>2012-07-19T19:09:41.0000000+00:00</time></trkpt><trkpt lat="64.31058502" lon="-20.30534744"><ele>105.3</ele><time>2012-07-19T19:09:46.0000000+00:00</time></trkpt><trkpt lat="64.31058502" lon="-20.30534744"><ele>105.3</ele><time>2012-07-19T19:09:51.0000000+00:00</time></trkpt><trkpt lat="64.31058502" lon="-20.30534744"><ele>105.3</ele><time>2012-07-19T19:09:56.0000000+00:00</time></trkpt><trkpt lat="64.31058502" lon="-20.30534744"><ele>105.3</ele><time>2012-07-19T19:10:01.0000000+00:00</time></trkpt><trkpt lat="64.31058502" lon="-20.30534744"><ele>105.3</ele><time>2012-07-19T19:10:06.0000000+00:00</time></trkpt><trkpt lat="64.31058502" lon="-20.30534744"><ele>105.3</ele><time>2012-07-19T19:10:11.0000000+00:00</time></trkpt><trkpt lat="64.31058502" lon="-20.30534744"><ele>105.3</ele><time>2012-07-19T19:10:16.0000000+00:00</time></trkpt><trkpt lat="64.31058502" lon="-20.30534744"><ele>105.3</ele><time>2012-07-19T19:10:21.0000000+00:00</time></trkpt><trkpt lat="64.31058502" lon="-20.30534744"><ele>105.3</ele><time>2012-07-19T19:10:26.0000000+00:00</time></trkpt><trkpt lat="64.31058502" lon="-20.30534744"><ele>105.3</ele><time>2012-07-19T19:10:31.0000000+00:00</time></trkpt><trkpt lat="64.31058502" lon="-20.30534744"><ele>105.3</ele><time>2012-07-19T19:10:36.0000000+00:00</time></trkpt><trkpt lat="64.31058502" lon="-20.30534744"><ele>105.3</ele><time>2012-07-19T19:10:41.0000000+00:00</time></trkpt><trkpt lat="64.31058502" lon="-20.30534744"><ele>105.3</ele><time>2012-07-19T19:10:46.0000000+00:00</time></trkpt><trkpt lat="64.31058502" lon="-20.30534744"><ele>105.3</ele><time>2012-07-19T19:10:51.0000000+00:00</time></trkpt><trkpt lat="64.31057739" lon="-20.30534554"><ele>105.3</ele><time>2012-07-19T19:10:56.0000000+00:00</time></trkpt><trkpt lat="64.31057739" lon="-20.30534554"><ele>105.3</ele><time>2012-07-19T19:11:01.0000000+00:00</time></trkpt><trkpt lat="64.31057739" lon="-20.30534554"><ele>105.3</ele><time>2012-07-19T19:11:06.0000000+00:00</time></trkpt><trkpt lat="64.31057739" lon="-20.30534554"><ele>105.3</ele><time>2012-07-19T19:11:11.0000000+00:00</time></trkpt><trkpt lat="64.31057739" lon="-20.30534554"><ele>105.3</ele><time>2012-07-19T19:11:16.0000000+00:00</time></trkpt><trkpt lat="64.31057739" lon="-20.30534554"><ele>105.3</ele><time>2012-07-19T19:11:21.0000000+00:00</time></trkpt><trkpt lat="64.31057739" lon="-20.30534554"><ele>105.3</ele><time>2012-07-19T19:11:26.0000000+00:00</time></trkpt><trkpt lat="64.31057739" lon="-20.30534554"><ele>105.3</ele><time>2012-07-19T19:11:31.0000000+00:00</time></trkpt><trkpt lat="64.31057739" lon="-20.30534554"><ele>105.3</ele><time>2012-07-19T19:11:36.0000000+00:00</time></trkpt><trkpt lat="64.31057739" lon="-20.30534554"><ele>105.3</ele><time>2012-07-19T19:11:41.0000000+00:00</time></trkpt><trkpt lat="64.31057739" lon="-20.30534363"><ele>105.3</ele><time>2012-07-19T19:11:46.0000000+00:00</time></trkpt><trkpt lat="64.31057739" lon="-20.30534363"><ele>105.3</ele><time>2012-07-19T19:11:51.0000000+00:00</time></trkpt><trkpt lat="64.31057739" lon="-20.30534363"><ele>105.3</ele><time>2012-07-19T19:11:56.0000000+00:00</time></trkpt><trkpt lat="64.31057739" lon="-20.30534363"><ele>105.3</ele><time>2012-07-19T19:12:01.0000000+00:00</time></trkpt><trkpt lat="64.31057739" lon="-20.30534363"><ele>105.3</ele><time>2012-07-19T19:12:06.0000000+00:00</time></trkpt><trkpt lat="64.31057739" lon="-20.30534363"><ele>105.3</ele><time>2012-07-19T19:12:11.0000000+00:00</time></trkpt><trkpt lat="64.31057739" lon="-20.30534363"><ele>105.3</ele><time>2012-07-19T19:12:16.0000000+00:00</time></trkpt><trkpt lat="64.31057739" lon="-20.30534363"><ele>105.3</ele><time>2012-07-19T19:12:21.0000000+00:00</time></trkpt><trkpt lat="64.31057739" lon="-20.30534363"><ele>105.3</ele><time>2012-07-19T19:12:26.0000000+00:00</time></trkpt><trkpt lat="64.31057739" lon="-20.30534363"><ele>105.3</ele><time>2012-07-19T19:12:31.0000000+00:00</time></trkpt><trkpt lat="64.31057739" lon="-20.30534363"><ele>105.3</ele><time>2012-07-19T19:12:36.0000000+00:00</time></trkpt><trkpt lat="64.31057739" lon="-20.30534363"><ele>105.3</ele><time>2012-07-19T19:12:41.0000000+00:00</time></trkpt><trkpt lat="64.31057739" lon="-20.30534363"><ele>105.3</ele><time>2012-07-19T19:12:46.0000000+00:00</time></trkpt><trkpt lat="64.31057739" lon="-20.30534363"><ele>105.3</ele><time>2012-07-19T19:12:51.0000000+00:00</time></trkpt><trkpt lat="64.31057739" lon="-20.30534363"><ele>105.3</ele><time>2012-07-19T19:12:56.0000000+00:00</time></trkpt><trkpt lat="64.31057739" lon="-20.30534363"><ele>105.3</ele><time>2012-07-19T19:13:01.0000000+00:00</time></trkpt><trkpt lat="64.31057739" lon="-20.30534363"><ele>105.3</ele><time>2012-07-19T19:13:06.0000000+00:00</time></trkpt><trkpt lat="64.31057739" lon="-20.30534363"><ele>105.3</ele><time>2012-07-19T19:13:11.0000000+00:00</time></trkpt><trkpt lat="64.31057739" lon="-20.30534363"><ele>105.3</ele><time>2012-07-19T19:13:16.0000000+00:00</time></trkpt><trkpt lat="64.31057739" lon="-20.30534363"><ele>105.3</ele><time>2012-07-19T19:13:21.0000000+00:00</time></trkpt><trkpt lat="64.31057739" lon="-20.30534363"><ele>105.3</ele><time>2012-07-19T19:13:26.0000000+00:00</time></trkpt><trkpt lat="64.31057739" lon="-20.30534172"><ele>105.3</ele><time>2012-07-19T19:13:31.0000000+00:00</time></trkpt><trkpt lat="64.31057739" lon="-20.30534172"><ele>105.3</ele><time>2012-07-19T19:13:36.0000000+00:00</time></trkpt><trkpt lat="64.31057739" lon="-20.30534172"><ele>105.3</ele><time>2012-07-19T19:13:41.0000000+00:00</time></trkpt><trkpt lat="64.31057739" lon="-20.30534172"><ele>105.3</ele><time>2012-07-19T19:13:46.0000000+00:00</time></trkpt><trkpt lat="64.31057739" lon="-20.30534363"><ele>105.3</ele><time>2012-07-19T19:13:51.0000000+00:00</time></trkpt><trkpt lat="64.31057739" lon="-20.30534363"><ele>105.3</ele><time>2012-07-19T19:13:56.0000000+00:00</time></trkpt><trkpt lat="64.31057739" lon="-20.30534363"><ele>105.3</ele><time>2012-07-19T19:14:01.0000000+00:00</time></trkpt><trkpt lat="64.31057739" lon="-20.30534363"><ele>105.3</ele><time>2012-07-19T19:14:06.0000000+00:00</time></trkpt><trkpt lat="64.31057739" lon="-20.30534363"><ele>105.3</ele><time>2012-07-19T19:14:11.0000000+00:00</time></trkpt><trkpt lat="64.31057739" lon="-20.30534363"><ele>105.3</ele><time>2012-07-19T19:14:16.0000000+00:00</time></trkpt><trkpt lat="64.31057739" lon="-20.30534363"><ele>105.3</ele><time>2012-07-19T19:14:21.0000000+00:00</time></trkpt><trkpt lat="64.31057739" lon="-20.30534363"><ele>105.3</ele><time>2012-07-19T19:14:26.0000000+00:00</time></trkpt><trkpt lat="64.31057739" lon="-20.30534363"><ele>105.3</ele><time>2012-07-19T19:14:31.0000000+00:00</time></trkpt><trkpt lat="64.31057739" lon="-20.30534363"><ele>105.3</ele><time>2012-07-19T19:14:36.0000000+00:00</time></trkpt><trkpt lat="64.31057739" lon="-20.30534363"><ele>105.3</ele><time>2012-07-19T19:14:41.0000000+00:00</time></trkpt><trkpt lat="64.31057739" lon="-20.30534363"><ele>105.3</ele><time>2012-07-19T19:14:46.0000000+00:00</time></trkpt><trkpt lat="64.31057739" lon="-20.30534363"><ele>105.3</ele><time>2012-07-19T19:14:51.0000000+00:00</time></trkpt><trkpt lat="64.31057739" lon="-20.30534363"><ele>105.3</ele><time>2012-07-19T19:14:56.0000000+00:00</time></trkpt><trkpt lat="64.31057739" lon="-20.30534363"><ele>105.3</ele><time>2012-07-19T19:15:01.0000000+00:00</time></trkpt><trkpt lat="64.31057739" lon="-20.30534363"><ele>105.3</ele><time>2012-07-19T19:15:06.0000000+00:00</time></trkpt><trkpt lat="64.31057739" lon="-20.30534363"><ele>105.3</ele><time>2012-07-19T19:15:11.0000000+00:00</time></trkpt><trkpt lat="64.31057739" lon="-20.30534363"><ele>105.3</ele><time>2012-07-19T19:15:16.0000000+00:00</time></trkpt><trkpt lat="64.31057739" lon="-20.30534363"><ele>105.3</ele><time>2012-07-19T19:15:21.0000000+00:00</time></trkpt><trkpt lat="64.31057739" lon="-20.30534363"><ele>105.3</ele><time>2012-07-19T19:15:26.0000000+00:00</time></trkpt><trkpt lat="64.31057739" lon="-20.30534363"><ele>105.3</ele><time>2012-07-19T19:15:31.0000000+00:00</time></trkpt><trkpt lat="64.31057739" lon="-20.30534363"><ele>105.3</ele><time>2012-07-19T19:15:36.0000000+00:00</time></trkpt><trkpt lat="64.31057739" lon="-20.30534363"><ele>105.3</ele><time>2012-07-19T19:15:41.0000000+00:00</time></trkpt><trkpt lat="64.31057739" lon="-20.30534363"><ele>105.3</ele><time>2012-07-19T19:15:46.0000000+00:00</time></trkpt><trkpt lat="64.31056976" lon="-20.30534363"><ele>105.3</ele><time>2012-07-19T19:15:51.0000000+00:00</time></trkpt><trkpt lat="64.31056976" lon="-20.30534363"><ele>105.3</ele><time>2012-07-19T19:15:56.0000000+00:00</time></trkpt><trkpt lat="64.31056976" lon="-20.30534363"><ele>105.3</ele><time>2012-07-19T19:16:01.0000000+00:00</time></trkpt><trkpt lat="64.31056976" lon="-20.30533791"><ele>105.2</ele><time>2012-07-19T19:16:06.0000000+00:00</time></trkpt><trkpt lat="64.31056976" lon="-20.30533791"><ele>105.2</ele><time>2012-07-19T19:16:11.0000000+00:00</time></trkpt><trkpt lat="64.31056976" lon="-20.30533791"><ele>105.2</ele><time>2012-07-19T19:16:16.0000000+00:00</time></trkpt><trkpt lat="64.31056976" lon="-20.30533791"><ele>105.2</ele><time>2012-07-19T19:16:21.0000000+00:00</time></trkpt><trkpt lat="64.31056976" lon="-20.30533791"><ele>105.2</ele><time>2012-07-19T19:16:26.0000000+00:00</time></trkpt><trkpt lat="64.31056976" lon="-20.30533791"><ele>105.2</ele><time>2012-07-19T19:16:31.0000000+00:00</time></trkpt><trkpt lat="64.31056976" lon="-20.30533791"><ele>105.2</ele><time>2012-07-19T19:16:36.0000000+00:00</time></trkpt><trkpt lat="64.31056976" lon="-20.30533791"><ele>105.2</ele><time>2012-07-19T19:16:41.0000000+00:00</time></trkpt><trkpt lat="64.31056976" lon="-20.30533791"><ele>105.2</ele><time>2012-07-19T19:16:46.0000000+00:00</time></trkpt><trkpt lat="64.31056976" lon="-20.30533791"><ele>105.2</ele><time>2012-07-19T19:16:51.0000000+00:00</time></trkpt><trkpt lat="64.31056976" lon="-20.30533791"><ele>105.2</ele><time>2012-07-19T19:16:56.0000000+00:00</time></trkpt><trkpt lat="64.31056976" lon="-20.30533791"><ele>105.2</ele><time>2012-07-19T19:17:01.0000000+00:00</time></trkpt><trkpt lat="64.31056976" lon="-20.30533791"><ele>105.2</ele><time>2012-07-19T19:17:06.0000000+00:00</time></trkpt><trkpt lat="64.31056976" lon="-20.30533791"><ele>105.2</ele><time>2012-07-19T19:17:11.0000000+00:00</time></trkpt><trkpt lat="64.31056976" lon="-20.305336"><ele>105.2</ele><time>2012-07-19T19:17:16.0000000+00:00</time></trkpt><trkpt lat="64.31056976" lon="-20.305336"><ele>105.2</ele><time>2012-07-19T19:17:21.0000000+00:00</time></trkpt><trkpt lat="64.31056976" lon="-20.305336"><ele>105.2</ele><time>2012-07-19T19:17:26.0000000+00:00</time></trkpt><trkpt lat="64.31056976" lon="-20.305336"><ele>105.2</ele><time>2012-07-19T19:17:31.0000000+00:00</time></trkpt><trkpt lat="64.31056976" lon="-20.305336"><ele>105.2</ele><time>2012-07-19T19:17:36.0000000+00:00</time></trkpt><trkpt lat="64.31056976" lon="-20.305336"><ele>105.2</ele><time>2012-07-19T19:17:41.0000000+00:00</time></trkpt><trkpt lat="64.31056976" lon="-20.305336"><ele>105.2</ele><time>2012-07-19T19:17:46.0000000+00:00</time></trkpt><trkpt lat="64.31056976" lon="-20.305336"><ele>105.2</ele><time>2012-07-19T19:17:51.0000000+00:00</time></trkpt><trkpt lat="64.31056976" lon="-20.305336"><ele>105.2</ele><time>2012-07-19T19:17:56.0000000+00:00</time></trkpt><trkpt lat="64.31056976" lon="-20.305336"><ele>105.2</ele><time>2012-07-19T19:18:01.0000000+00:00</time></trkpt><trkpt lat="64.31056976" lon="-20.305336"><ele>105.2</ele><time>2012-07-19T19:18:06.0000000+00:00</time></trkpt><trkpt lat="64.31056976" lon="-20.305336"><ele>105.2</ele><time>2012-07-19T19:18:11.0000000+00:00</time></trkpt><trkpt lat="64.31056976" lon="-20.305336"><ele>105.2</ele><time>2012-07-19T19:18:16.0000000+00:00</time></trkpt><trkpt lat="64.31056976" lon="-20.305336"><ele>105.2</ele><time>2012-07-19T19:18:21.0000000+00:00</time></trkpt><trkpt lat="64.31056976" lon="-20.30533409"><ele>105.2</ele><time>2012-07-19T19:18:26.0000000+00:00</time></trkpt><trkpt lat="64.31056976" lon="-20.30533409"><ele>105.2</ele><time>2012-07-19T19:18:31.0000000+00:00</time></trkpt><trkpt lat="64.31056976" lon="-20.30533409"><ele>105.2</ele><time>2012-07-19T19:18:36.0000000+00:00</time></trkpt><trkpt lat="64.31056976" lon="-20.30533409"><ele>105.2</ele><time>2012-07-19T19:18:41.0000000+00:00</time></trkpt><trkpt lat="64.31056976" lon="-20.30533409"><ele>105.2</ele><time>2012-07-19T19:18:46.0000000+00:00</time></trkpt><trkpt lat="64.31056976" lon="-20.30533409"><ele>105.2</ele><time>2012-07-19T19:18:51.0000000+00:00</time></trkpt><trkpt lat="64.31056976" lon="-20.30533409"><ele>105.2</ele><time>2012-07-19T19:18:56.0000000+00:00</time></trkpt><trkpt lat="64.31056976" lon="-20.30533409"><ele>105.2</ele><time>2012-07-19T19:19:01.0000000+00:00</time></trkpt><trkpt lat="64.31056976" lon="-20.30533028"><ele>105.3</ele><time>2012-07-19T19:19:06.0000000+00:00</time></trkpt><trkpt lat="64.31056976" lon="-20.30532265"><ele>105.4</ele><time>2012-07-19T19:19:11.0000000+00:00</time></trkpt><trkpt lat="64.31056976" lon="-20.30532265"><ele>105.4</ele><time>2012-07-19T19:19:16.0000000+00:00</time></trkpt><trkpt lat="64.31056976" lon="-20.30532265"><ele>105.4</ele><time>2012-07-19T19:19:21.0000000+00:00</time></trkpt><trkpt lat="64.31056976" lon="-20.30532455"><ele>105.4</ele><time>2012-07-19T19:19:26.0000000+00:00</time></trkpt><trkpt lat="64.31056976" lon="-20.30532455"><ele>105.5</ele><time>2012-07-19T19:19:31.0000000+00:00</time></trkpt><trkpt lat="64.31056213" lon="-20.30532455"><ele>105.5</ele><time>2012-07-19T19:19:36.0000000+00:00</time></trkpt><trkpt lat="64.31056213" lon="-20.30532455"><ele>105.5</ele><time>2012-07-19T19:19:41.0000000+00:00</time></trkpt><trkpt lat="64.31056213" lon="-20.30532455"><ele>105.5</ele><time>2012-07-19T19:19:46.0000000+00:00</time></trkpt><trkpt lat="64.31056213" lon="-20.30532455"><ele>105.5</ele><time>2012-07-19T19:19:51.0000000+00:00</time></trkpt><trkpt lat="64.31056213" lon="-20.30532455"><ele>105.5</ele><time>2012-07-19T19:19:56.0000000+00:00</time></trkpt><trkpt lat="64.31056213" lon="-20.30532455"><ele>105.5</ele><time>2012-07-19T19:20:01.0000000+00:00</time></trkpt><trkpt lat="64.31056213" lon="-20.30532455"><ele>105.5</ele><time>2012-07-19T19:20:06.0000000+00:00</time></trkpt><trkpt lat="64.31056213" lon="-20.30532455"><ele>105.5</ele><time>2012-07-19T19:20:11.0000000+00:00</time></trkpt><trkpt lat="64.31056213" lon="-20.30532455"><ele>105.5</ele><time>2012-07-19T19:20:16.0000000+00:00</time></trkpt><trkpt lat="64.31056213" lon="-20.30532455"><ele>105.5</ele><time>2012-07-19T19:20:21.0000000+00:00</time></trkpt><trkpt lat="64.31056213" lon="-20.30532265"><ele>105.4</ele><time>2012-07-19T19:20:26.0000000+00:00</time></trkpt><trkpt lat="64.31056213" lon="-20.30532265"><ele>105.4</ele><time>2012-07-19T19:20:31.0000000+00:00</time></trkpt><trkpt lat="64.31056213" lon="-20.30532265"><ele>105.4</ele><time>2012-07-19T19:20:36.0000000+00:00</time></trkpt><trkpt lat="64.31056213" lon="-20.30532265"><ele>105.4</ele><time>2012-07-19T19:20:41.0000000+00:00</time></trkpt><trkpt lat="64.31056213" lon="-20.30532265"><ele>105.4</ele><time>2012-07-19T19:20:46.0000000+00:00</time></trkpt><trkpt lat="64.31056213" lon="-20.30532265"><ele>105.4</ele><time>2012-07-19T19:20:51.0000000+00:00</time></trkpt><trkpt lat="64.31056213" lon="-20.30532265"><ele>105.4</ele><time>2012-07-19T19:20:56.0000000+00:00</time></trkpt><trkpt lat="64.31056213" lon="-20.30532265"><ele>105.4</ele><time>2012-07-19T19:21:01.0000000+00:00</time></trkpt><trkpt lat="64.31056213" lon="-20.30532265"><ele>105.4</ele><time>2012-07-19T19:21:06.0000000+00:00</time></trkpt><trkpt lat="64.31056213" lon="-20.30532265"><ele>105.4</ele><time>2012-07-19T19:21:11.0000000+00:00</time></trkpt><trkpt lat="64.31056213" lon="-20.30532265"><ele>105.4</ele><time>2012-07-19T19:21:16.0000000+00:00</time></trkpt><trkpt lat="64.31056213" lon="-20.30532265"><ele>105.4</ele><time>2012-07-19T19:21:21.0000000+00:00</time></trkpt><trkpt lat="64.31056213" lon="-20.30532265"><ele>105.4</ele><time>2012-07-19T19:21:26.0000000+00:00</time></trkpt><trkpt lat="64.31056213" lon="-20.30532265"><ele>105.4</ele><time>2012-07-19T19:21:31.0000000+00:00</time></trkpt><trkpt lat="64.31056213" lon="-20.30532265"><ele>105.4</ele><time>2012-07-19T19:21:36.0000000+00:00</time></trkpt><trkpt lat="64.31056213" lon="-20.30532265"><ele>105.4</ele><time>2012-07-19T19:21:41.0000000+00:00</time></trkpt><trkpt lat="64.31056213" lon="-20.30532265"><ele>105.4</ele><time>2012-07-19T19:21:46.0000000+00:00</time></trkpt><trkpt lat="64.31056976" lon="-20.30532455"><ele>105.4</ele><time>2012-07-19T19:21:51.0000000+00:00</time></trkpt><trkpt lat="64.31056976" lon="-20.30532455"><ele>105.4</ele><time>2012-07-19T19:21:56.0000000+00:00</time></trkpt><trkpt lat="64.31056213" lon="-20.30532455"><ele>105.4</ele><time>2012-07-19T19:22:01.0000000+00:00</time></trkpt><trkpt lat="64.31056213" lon="-20.30532455"><ele>105.4</ele><time>2012-07-19T19:22:06.0000000+00:00</time></trkpt><trkpt lat="64.31056213" lon="-20.30532455"><ele>105.4</ele><time>2012-07-19T19:22:11.0000000+00:00</time></trkpt><trkpt lat="64.31056213" lon="-20.30532455"><ele>105.3</ele><time>2012-07-19T19:22:16.0000000+00:00</time></trkpt><trkpt lat="64.31056213" lon="-20.30532455"><ele>105.3</ele><time>2012-07-19T19:22:21.0000000+00:00</time></trkpt><trkpt lat="64.31056213" lon="-20.30532455"><ele>105.3</ele><time>2012-07-19T19:22:26.0000000+00:00</time></trkpt><trkpt lat="64.31056213" lon="-20.30532455"><ele>105.3</ele><time>2012-07-19T19:22:31.0000000+00:00</time></trkpt><trkpt lat="64.31056213" lon="-20.30532455"><ele>105.4</ele><time>2012-07-19T19:22:36.0000000+00:00</time></trkpt><trkpt lat="64.31056213" lon="-20.30532455"><ele>105.4</ele><time>2012-07-19T19:22:41.0000000+00:00</time></trkpt><trkpt lat="64.31056213" lon="-20.30532455"><ele>105.4</ele><time>2012-07-19T19:22:46.0000000+00:00</time></trkpt><trkpt lat="64.31056213" lon="-20.30532455"><ele>105.4</ele><time>2012-07-19T19:22:51.0000000+00:00</time></trkpt><trkpt lat="64.31056213" lon="-20.30532455"><ele>105.3</ele><time>2012-07-19T19:22:56.0000000+00:00</time></trkpt><trkpt lat="64.31056213" lon="-20.30532455"><ele>105.3</ele><time>2012-07-19T19:23:01.0000000+00:00</time></trkpt><trkpt lat="64.31056213" lon="-20.30532455"><ele>105.3</ele><time>2012-07-19T19:23:06.0000000+00:00</time></trkpt><trkpt lat="64.31056213" lon="-20.30532455"><ele>105.3</ele><time>2012-07-19T19:23:11.0000000+00:00</time></trkpt><trkpt lat="64.31056976" lon="-20.30532455"><ele>104.8</ele><time>2012-07-19T19:23:16.0000000+00:00</time></trkpt><trkpt lat="64.31056976" lon="-20.30532455"><ele>104.8</ele><time>2012-07-19T19:23:21.0000000+00:00</time></trkpt><trkpt lat="64.31056976" lon="-20.30532455"><ele>104.8</ele><time>2012-07-19T19:23:26.0000000+00:00</time></trkpt><trkpt lat="64.31056976" lon="-20.30532455"><ele>104.9</ele><time>2012-07-19T19:23:31.0000000+00:00</time></trkpt><trkpt lat="64.31056976" lon="-20.30532455"><ele>104.9</ele><time>2012-07-19T19:23:36.0000000+00:00</time></trkpt><trkpt lat="64.31056976" lon="-20.30532455"><ele>104.9</ele><time>2012-07-19T19:23:41.0000000+00:00</time></trkpt><trkpt lat="64.31056976" lon="-20.30532455"><ele>104.8</ele><time>2012-07-19T19:23:46.0000000+00:00</time></trkpt><trkpt lat="64.31056976" lon="-20.30532455"><ele>104.8</ele><time>2012-07-19T19:23:51.0000000+00:00</time></trkpt><trkpt lat="64.31056976" lon="-20.30532455"><ele>104.8</ele><time>2012-07-19T19:23:56.0000000+00:00</time></trkpt><trkpt lat="64.31056976" lon="-20.30532455"><ele>104.8</ele><time>2012-07-19T19:24:01.0000000+00:00</time></trkpt><trkpt lat="64.31056976" lon="-20.30532455"><ele>104.8</ele><time>2012-07-19T19:24:06.0000000+00:00</time></trkpt><trkpt lat="64.31056976" lon="-20.30532455"><ele>104.8</ele><time>2012-07-19T19:24:11.0000000+00:00</time></trkpt><trkpt lat="64.31056976" lon="-20.30532646"><ele>104.5</ele><time>2012-07-19T19:24:16.0000000+00:00</time></trkpt><trkpt lat="64.31056976" lon="-20.30532646"><ele>104.5</ele><time>2012-07-19T19:24:21.0000000+00:00</time></trkpt><trkpt lat="64.31056213" lon="-20.30532265"><ele>104.0</ele><time>2012-07-19T19:24:26.0000000+00:00</time></trkpt><trkpt lat="64.31056213" lon="-20.30532455"><ele>104.0</ele><time>2012-07-19T19:24:31.0000000+00:00</time></trkpt><trkpt lat="64.31056213" lon="-20.30532265"><ele>104.0</ele><time>2012-07-19T19:24:36.0000000+00:00</time></trkpt><trkpt lat="64.31056213" lon="-20.30532265"><ele>103.9</ele><time>2012-07-19T19:24:41.0000000+00:00</time></trkpt><trkpt lat="64.31056213" lon="-20.30532265"><ele>103.9</ele><time>2012-07-19T19:24:46.0000000+00:00</time></trkpt><trkpt lat="64.31056213" lon="-20.30532265"><ele>103.9</ele><time>2012-07-19T19:24:51.0000000+00:00</time></trkpt><trkpt lat="64.31056213" lon="-20.30531883"><ele>103.5</ele><time>2012-07-19T19:24:56.0000000+00:00</time></trkpt><trkpt lat="64.31056213" lon="-20.30531883"><ele>103.5</ele><time>2012-07-19T19:25:01.0000000+00:00</time></trkpt><trkpt lat="64.31056213" lon="-20.30531883"><ele>103.5</ele><time>2012-07-19T19:25:06.0000000+00:00</time></trkpt><trkpt lat="64.31056213" lon="-20.30531883"><ele>103.5</ele><time>2012-07-19T19:25:11.0000000+00:00</time></trkpt><trkpt lat="64.31056213" lon="-20.30531883"><ele>103.5</ele><time>2012-07-19T19:25:16.0000000+00:00</time></trkpt><trkpt lat="64.31056213" lon="-20.30531883"><ele>103.5</ele><time>2012-07-19T19:25:21.0000000+00:00</time></trkpt><trkpt lat="64.31056213" lon="-20.30531883"><ele>103.5</ele><time>2012-07-19T19:25:26.0000000+00:00</time></trkpt><trkpt lat="64.31056213" lon="-20.30531883"><ele>103.5</ele><time>2012-07-19T19:25:31.0000000+00:00</time></trkpt><trkpt lat="64.31056213" lon="-20.30531693"><ele>103.5</ele><time>2012-07-19T19:25:36.0000000+00:00</time></trkpt><trkpt lat="64.31056213" lon="-20.30532074"><ele>103.4</ele><time>2012-07-19T19:25:41.0000000+00:00</time></trkpt><trkpt lat="64.31056213" lon="-20.30532074"><ele>103.4</ele><time>2012-07-19T19:25:46.0000000+00:00</time></trkpt><trkpt lat="64.31056213" lon="-20.30532074"><ele>103.4</ele><time>2012-07-19T19:25:51.0000000+00:00</time></trkpt><trkpt lat="64.31056213" lon="-20.30532074"><ele>103.4</ele><time>2012-07-19T19:25:56.0000000+00:00</time></trkpt><trkpt lat="64.31056213" lon="-20.30532074"><ele>103.4</ele><time>2012-07-19T19:26:01.0000000+00:00</time></trkpt><trkpt lat="64.31056213" lon="-20.30532074"><ele>103.4</ele><time>2012-07-19T19:26:06.0000000+00:00</time></trkpt><trkpt lat="64.31056213" lon="-20.30532074"><ele>103.4</ele><time>2012-07-19T19:26:11.0000000+00:00</time></trkpt><trkpt lat="64.31056213" lon="-20.30532074"><ele>103.4</ele><time>2012-07-19T19:26:16.0000000+00:00</time></trkpt><trkpt lat="64.31056213" lon="-20.30531883"><ele>103.4</ele><time>2012-07-19T19:26:21.0000000+00:00</time></trkpt><trkpt lat="64.31056213" lon="-20.30531883"><ele>103.4</ele><time>2012-07-19T19:26:26.0000000+00:00</time></trkpt><trkpt lat="64.31056213" lon="-20.30531883"><ele>103.4</ele><time>2012-07-19T19:26:31.0000000+00:00</time></trkpt><trkpt lat="64.31056213" lon="-20.30531883"><ele>103.4</ele><time>2012-07-19T19:26:36.0000000+00:00</time></trkpt><trkpt lat="64.31056213" lon="-20.30531883"><ele>103.4</ele><time>2012-07-19T19:26:41.0000000+00:00</time></trkpt><trkpt lat="64.31056213" lon="-20.30531883"><ele>103.5</ele><time>2012-07-19T19:26:46.0000000+00:00</time></trkpt><trkpt lat="64.31056213" lon="-20.30531883"><ele>103.5</ele><time>2012-07-19T19:26:51.0000000+00:00</time></trkpt><trkpt lat="64.31056213" lon="-20.30531883"><ele>103.5</ele><time>2012-07-19T19:26:56.0000000+00:00</time></trkpt><trkpt lat="64.31056213" lon="-20.30531883"><ele>103.5</ele><time>2012-07-19T19:27:01.0000000+00:00</time></trkpt><trkpt lat="64.31056213" lon="-20.30531883"><ele>103.5</ele><time>2012-07-19T19:27:06.0000000+00:00</time></trkpt><trkpt lat="64.31056213" lon="-20.30531883"><ele>103.5</ele><time>2012-07-19T19:27:11.0000000+00:00</time></trkpt><trkpt lat="64.31056213" lon="-20.30531883"><ele>103.5</ele><time>2012-07-19T19:27:16.0000000+00:00</time></trkpt><trkpt lat="64.31056213" lon="-20.30531883"><ele>103.4</ele><time>2012-07-19T19:27:21.0000000+00:00</time></trkpt><trkpt lat="64.31056213" lon="-20.30531883"><ele>103.4</ele><time>2012-07-19T19:27:26.0000000+00:00</time></trkpt><trkpt lat="64.31056213" lon="-20.30531883"><ele>103.4</ele><time>2012-07-19T19:27:31.0000000+00:00</time></trkpt><trkpt lat="64.31056213" lon="-20.30531883"><ele>103.4</ele><time>2012-07-19T19:27:36.0000000+00:00</time></trkpt><trkpt lat="64.31056213" lon="-20.30531883"><ele>103.5</ele><time>2012-07-19T19:27:41.0000000+00:00</time></trkpt><trkpt lat="64.31056976" lon="-20.30531502"><ele>103.2</ele><time>2012-07-19T19:27:46.0000000+00:00</time></trkpt><trkpt lat="64.31056976" lon="-20.30531502"><ele>103.2</ele><time>2012-07-19T19:27:51.0000000+00:00</time></trkpt><trkpt lat="64.31056976" lon="-20.30530739"><ele>103.4</ele><time>2012-07-19T19:27:56.0000000+00:00</time></trkpt><trkpt lat="64.31056976" lon="-20.30530167"><ele>103.7</ele><time>2012-07-19T19:28:01.0000000+00:00</time></trkpt><trkpt lat="64.31056976" lon="-20.30530167"><ele>103.8</ele><time>2012-07-19T19:28:06.0000000+00:00</time></trkpt><trkpt lat="64.31056213" lon="-20.30530548"><ele>103.7</ele><time>2012-07-19T19:28:11.0000000+00:00</time></trkpt><trkpt lat="64.31056213" lon="-20.30530548"><ele>103.7</ele><time>2012-07-19T19:28:16.0000000+00:00</time></trkpt><trkpt lat="64.31056213" lon="-20.30530548"><ele>103.7</ele><time>2012-07-19T19:28:21.0000000+00:00</time></trkpt><trkpt lat="64.31056213" lon="-20.30530357"><ele>103.7</ele><time>2012-07-19T19:28:26.0000000+00:00</time></trkpt><trkpt lat="64.31056213" lon="-20.30530357"><ele>103.7</ele><time>2012-07-19T19:28:31.0000000+00:00</time></trkpt><trkpt lat="64.31056213" lon="-20.30530548"><ele>103.7</ele><time>2012-07-19T19:28:36.0000000+00:00</time></trkpt><trkpt lat="64.31056213" lon="-20.30530548"><ele>103.8</ele><time>2012-07-19T19:28:41.0000000+00:00</time></trkpt><trkpt lat="64.31056213" lon="-20.30530548"><ele>103.8</ele><time>2012-07-19T19:28:46.0000000+00:00</time></trkpt><trkpt lat="64.31056213" lon="-20.30530548"><ele>103.8</ele><time>2012-07-19T19:28:51.0000000+00:00</time></trkpt><trkpt lat="64.31056213" lon="-20.30530357"><ele>103.8</ele><time>2012-07-19T19:28:56.0000000+00:00</time></trkpt><trkpt lat="64.31056213" lon="-20.30530357"><ele>103.9</ele><time>2012-07-19T19:29:01.0000000+00:00</time></trkpt><trkpt lat="64.31056213" lon="-20.30530357"><ele>103.9</ele><time>2012-07-19T19:29:06.0000000+00:00</time></trkpt><trkpt lat="64.31056213" lon="-20.30530357"><ele>103.9</ele><time>2012-07-19T19:29:11.0000000+00:00</time></trkpt><trkpt lat="64.31056213" lon="-20.30530357"><ele>103.9</ele><time>2012-07-19T19:29:16.0000000+00:00</time></trkpt><trkpt lat="64.31056213" lon="-20.30530357"><ele>103.9</ele><time>2012-07-19T19:29:21.0000000+00:00</time></trkpt><trkpt lat="64.31056213" lon="-20.30530357"><ele>103.9</ele><time>2012-07-19T19:29:26.0000000+00:00</time></trkpt><trkpt lat="64.31056213" lon="-20.30530357"><ele>103.9</ele><time>2012-07-19T19:29:31.0000000+00:00</time></trkpt><trkpt lat="64.31056213" lon="-20.30529022"><ele>104.2</ele><time>2012-07-19T19:29:36.0000000+00:00</time></trkpt><trkpt lat="64.31056213" lon="-20.30528832"><ele>104.3</ele><time>2012-07-19T19:29:41.0000000+00:00</time></trkpt><trkpt lat="64.31056213" lon="-20.30529022"><ele>104.3</ele><time>2012-07-19T19:29:46.0000000+00:00</time></trkpt><trkpt lat="64.31056213" lon="-20.30529022"><ele>104.3</ele><time>2012-07-19T19:29:51.0000000+00:00</time></trkpt><trkpt lat="64.31056213" lon="-20.30528832"><ele>104.3</ele><time>2012-07-19T19:29:56.0000000+00:00</time></trkpt><trkpt lat="64.31056213" lon="-20.30528832"><ele>104.4</ele><time>2012-07-19T19:30:01.0000000+00:00</time></trkpt><trkpt lat="64.31056213" lon="-20.30528832"><ele>104.4</ele><time>2012-07-19T19:30:06.0000000+00:00</time></trkpt><trkpt lat="64.31056213" lon="-20.30528832"><ele>104.5</ele><time>2012-07-19T19:30:11.0000000+00:00</time></trkpt><trkpt lat="64.31056213" lon="-20.30529022"><ele>104.4</ele><time>2012-07-19T19:30:16.0000000+00:00</time></trkpt><trkpt lat="64.31056213" lon="-20.30529022"><ele>104.4</ele><time>2012-07-19T19:30:21.0000000+00:00</time></trkpt><trkpt lat="64.31056213" lon="-20.30528832"><ele>104.4</ele><time>2012-07-19T19:30:26.0000000+00:00</time></trkpt><trkpt lat="64.31056213" lon="-20.30528832"><ele>104.4</ele><time>2012-07-19T19:30:31.0000000+00:00</time></trkpt><trkpt lat="64.31056213" lon="-20.30528832"><ele>104.5</ele><time>2012-07-19T19:30:36.0000000+00:00</time></trkpt><trkpt lat="64.31056213" lon="-20.30528832"><ele>104.5</ele><time>2012-07-19T19:30:41.0000000+00:00</time></trkpt><trkpt lat="64.31056213" lon="-20.30528832"><ele>104.5</ele><time>2012-07-19T19:30:46.0000000+00:00</time></trkpt><trkpt lat="64.31056213" lon="-20.30528832"><ele>104.5</ele><time>2012-07-19T19:30:51.0000000+00:00</time></trkpt><trkpt lat="64.31056213" lon="-20.30528832"><ele>104.5</ele><time>2012-07-19T19:30:56.0000000+00:00</time></trkpt><trkpt lat="64.31056213" lon="-20.30528832"><ele>104.5</ele><time>2012-07-19T19:31:01.0000000+00:00</time></trkpt><trkpt lat="64.31056213" lon="-20.30528832"><ele>104.5</ele><time>2012-07-19T19:31:06.0000000+00:00</time></trkpt><trkpt lat="64.31056213" lon="-20.30528832"><ele>104.5</ele><time>2012-07-19T19:31:11.0000000+00:00</time></trkpt><trkpt lat="64.31056213" lon="-20.30528832"><ele>104.5</ele><time>2012-07-19T19:31:16.0000000+00:00</time></trkpt><trkpt lat="64.31056213" lon="-20.30528832"><ele>104.5</ele><time>2012-07-19T19:31:21.0000000+00:00</time></trkpt><trkpt lat="64.31056213" lon="-20.30528832"><ele>104.5</ele><time>2012-07-19T19:31:26.0000000+00:00</time></trkpt><trkpt lat="64.31056213" lon="-20.30528832"><ele>104.5</ele><time>2012-07-19T19:31:31.0000000+00:00</time></trkpt><trkpt lat="64.31056213" lon="-20.30528832"><ele>104.6</ele><time>2012-07-19T19:31:36.0000000+00:00</time></trkpt><trkpt lat="64.31056213" lon="-20.30528832"><ele>104.6</ele><time>2012-07-19T19:31:41.0000000+00:00</time></trkpt><trkpt lat="64.31056213" lon="-20.30528832"><ele>104.6</ele><time>2012-07-19T19:31:46.0000000+00:00</time></trkpt><trkpt lat="64.31056213" lon="-20.30528832"><ele>104.6</ele><time>2012-07-19T19:31:51.0000000+00:00</time></trkpt><trkpt lat="64.31056213" lon="-20.30529022"><ele>104.6</ele><time>2012-07-19T19:31:56.0000000+00:00</time></trkpt><trkpt lat="64.31056213" lon="-20.30529022"><ele>104.6</ele><time>2012-07-19T19:32:01.0000000+00:00</time></trkpt><trkpt lat="64.31056213" lon="-20.30529022"><ele>104.6</ele><time>2012-07-19T19:32:06.0000000+00:00</time></trkpt><trkpt lat="64.31056213" lon="-20.30529022"><ele>104.6</ele><time>2012-07-19T19:32:11.0000000+00:00</time></trkpt><trkpt lat="64.31056213" lon="-20.30529022"><ele>104.6</ele><time>2012-07-19T19:32:16.0000000+00:00</time></trkpt><trkpt lat="64.31056213" lon="-20.30529022"><ele>104.6</ele><time>2012-07-19T19:32:21.0000000+00:00</time></trkpt><trkpt lat="64.31056213" lon="-20.30528832"><ele>104.6</ele><time>2012-07-19T19:32:26.0000000+00:00</time></trkpt><trkpt lat="64.31056213" lon="-20.30528832"><ele>104.6</ele><time>2012-07-19T19:32:31.0000000+00:00</time></trkpt><trkpt lat="64.31056213" lon="-20.30528832"><ele>104.6</ele><time>2012-07-19T19:32:36.0000000+00:00</time></trkpt><trkpt lat="64.31056213" lon="-20.30528832"><ele>104.6</ele><time>2012-07-19T19:32:41.0000000+00:00</time></trkpt><trkpt lat="64.31056213" lon="-20.30528832"><ele>104.6</ele><time>2012-07-19T19:32:46.0000000+00:00</time></trkpt><trkpt lat="64.31056213" lon="-20.30528832"><ele>104.6</ele><time>2012-07-19T19:32:51.0000000+00:00</time></trkpt><trkpt lat="64.31056213" lon="-20.30529022"><ele>104.6</ele><time>2012-07-19T19:32:56.0000000+00:00</time></trkpt><trkpt lat="64.31056213" lon="-20.30529022"><ele>104.6</ele><time>2012-07-19T19:33:01.0000000+00:00</time></trkpt><trkpt lat="64.31056213" lon="-20.30529022"><ele>104.6</ele><time>2012-07-19T19:33:06.0000000+00:00</time></trkpt><trkpt lat="64.31056213" lon="-20.30529022"><ele>104.6</ele><time>2012-07-19T19:33:11.0000000+00:00</time></trkpt><trkpt lat="64.31056213" lon="-20.30529022"><ele>104.6</ele><time>2012-07-19T19:33:16.0000000+00:00</time></trkpt><trkpt lat="64.31056213" lon="-20.30529022"><ele>104.6</ele><time>2012-07-19T19:33:21.0000000+00:00</time></trkpt><trkpt lat="64.31056213" lon="-20.30529022"><ele>104.6</ele><time>2012-07-19T19:33:26.0000000+00:00</time></trkpt><trkpt lat="64.31056213" lon="-20.30529022"><ele>104.6</ele><time>2012-07-19T19:33:31.0000000+00:00</time></trkpt><trkpt lat="64.31056213" lon="-20.30529022"><ele>104.6</ele><time>2012-07-19T19:33:36.0000000+00:00</time></trkpt><trkpt lat="64.31056213" lon="-20.30529022"><ele>104.6</ele><time>2012-07-19T19:33:41.0000000+00:00</time></trkpt><trkpt lat="64.31056213" lon="-20.30529213"><ele>104.6</ele><time>2012-07-19T19:33:46.0000000+00:00</time></trkpt><trkpt lat="64.31056213" lon="-20.30529213"><ele>104.5</ele><time>2012-07-19T19:33:51.0000000+00:00</time></trkpt><trkpt lat="64.31056213" lon="-20.30529213"><ele>104.5</ele><time>2012-07-19T19:33:56.0000000+00:00</time></trkpt><trkpt lat="64.31056213" lon="-20.30529213"><ele>104.5</ele><time>2012-07-19T19:34:01.0000000+00:00</time></trkpt><trkpt lat="64.31056213" lon="-20.30529213"><ele>104.5</ele><time>2012-07-19T19:34:06.0000000+00:00</time></trkpt><trkpt lat="64.31056213" lon="-20.30529213"><ele>104.5</ele><time>2012-07-19T19:34:11.0000000+00:00</time></trkpt><trkpt lat="64.31056976" lon="-20.30529404"><ele>104.8</ele><time>2012-07-19T19:34:16.0000000+00:00</time></trkpt><trkpt lat="64.31056976" lon="-20.30529404"><ele>104.8</ele><time>2012-07-19T19:34:21.0000000+00:00</time></trkpt><trkpt lat="64.31056976" lon="-20.30529404"><ele>104.9</ele><time>2012-07-19T19:34:26.0000000+00:00</time></trkpt><trkpt lat="64.31056976" lon="-20.30529404"><ele>104.9</ele><time>2012-07-19T19:34:31.0000000+00:00</time></trkpt><trkpt lat="64.31056976" lon="-20.30529404"><ele>104.9</ele><time>2012-07-19T19:34:36.0000000+00:00</time></trkpt><trkpt lat="64.31056976" lon="-20.30529594"><ele>104.9</ele><time>2012-07-19T19:34:41.0000000+00:00</time></trkpt><trkpt lat="64.31056976" lon="-20.30529404"><ele>104.9</ele><time>2012-07-19T19:34:46.0000000+00:00</time></trkpt><trkpt lat="64.31056976" lon="-20.30529404"><ele>104.9</ele><time>2012-07-19T19:34:51.0000000+00:00</time></trkpt><trkpt lat="64.31056976" lon="-20.30529404"><ele>104.9</ele><time>2012-07-19T19:34:56.0000000+00:00</time></trkpt><trkpt lat="64.31056976" lon="-20.30529404"><ele>104.9</ele><time>2012-07-19T19:35:01.0000000+00:00</time></trkpt><trkpt lat="64.31056976" lon="-20.30529404"><ele>104.9</ele><time>2012-07-19T19:35:06.0000000+00:00</time></trkpt><trkpt lat="64.31056976" lon="-20.30529022"><ele>105.3</ele><time>2012-07-19T19:35:11.0000000+00:00</time></trkpt><trkpt lat="64.31056976" lon="-20.30529022"><ele>105.3</ele><time>2012-07-19T19:35:16.0000000+00:00</time></trkpt><trkpt lat="64.31056976" lon="-20.30529022"><ele>105.3</ele><time>2012-07-19T19:35:21.0000000+00:00</time></trkpt><trkpt lat="64.31056976" lon="-20.30529022"><ele>105.3</ele><time>2012-07-19T19:35:26.0000000+00:00</time></trkpt><trkpt lat="64.31056976" lon="-20.30529022"><ele>105.3</ele><time>2012-07-19T19:35:31.0000000+00:00</time></trkpt><trkpt lat="64.31056976" lon="-20.30529022"><ele>105.3</ele><time>2012-07-19T19:35:36.0000000+00:00</time></trkpt><trkpt lat="64.31056976" lon="-20.30529022"><ele>105.3</ele><time>2012-07-19T19:35:41.0000000+00:00</time></trkpt><trkpt lat="64.31056976" lon="-20.30529022"><ele>105.3</ele><time>2012-07-19T19:35:46.0000000+00:00</time></trkpt><trkpt lat="64.31056976" lon="-20.30529022"><ele>105.3</ele><time>2012-07-19T19:35:51.0000000+00:00</time></trkpt><trkpt lat="64.31056976" lon="-20.30529022"><ele>105.3</ele><time>2012-07-19T19:35:56.0000000+00:00</time></trkpt><trkpt lat="64.31056976" lon="-20.30529022"><ele>105.4</ele><time>2012-07-19T19:36:01.0000000+00:00</time></trkpt><trkpt lat="64.31056976" lon="-20.30529022"><ele>105.4</ele><time>2012-07-19T19:36:06.0000000+00:00</time></trkpt><trkpt lat="64.31056976" lon="-20.30529022"><ele>105.4</ele><time>2012-07-19T19:36:11.0000000+00:00</time></trkpt><trkpt lat="64.31056976" lon="-20.30529022"><ele>105.4</ele><time>2012-07-19T19:36:16.0000000+00:00</time></trkpt><trkpt lat="64.31056976" lon="-20.30529022"><ele>105.4</ele><time>2012-07-19T19:36:21.0000000+00:00</time></trkpt><trkpt lat="64.31056976" lon="-20.30529022"><ele>105.4</ele><time>2012-07-19T19:36:26.0000000+00:00</time></trkpt><trkpt lat="64.31056976" lon="-20.30529022"><ele>105.4</ele><time>2012-07-19T19:36:31.0000000+00:00</time></trkpt><trkpt lat="64.31056976" lon="-20.30529022"><ele>105.4</ele><time>2012-07-19T19:36:36.0000000+00:00</time></trkpt><trkpt lat="64.31056976" lon="-20.30529022"><ele>105.4</ele><time>2012-07-19T19:36:41.0000000+00:00</time></trkpt><trkpt lat="64.31056976" lon="-20.30529022"><ele>105.4</ele><time>2012-07-19T19:36:46.0000000+00:00</time></trkpt><trkpt lat="64.31056976" lon="-20.30529022"><ele>105.4</ele><time>2012-07-19T19:36:51.0000000+00:00</time></trkpt><trkpt lat="64.31056213" lon="-20.30529022"><ele>105.4</ele><time>2012-07-19T19:36:56.0000000+00:00</time></trkpt><trkpt lat="64.31056976" lon="-20.30529022"><ele>105.4</ele><time>2012-07-19T19:37:01.0000000+00:00</time></trkpt><trkpt lat="64.31056976" lon="-20.30529022"><ele>105.4</ele><time>2012-07-19T19:37:06.0000000+00:00</time></trkpt><trkpt lat="64.31056976" lon="-20.30529022"><ele>105.4</ele><time>2012-07-19T19:37:11.0000000+00:00</time></trkpt><trkpt lat="64.31056976" lon="-20.30529022"><ele>105.4</ele><time>2012-07-19T19:37:16.0000000+00:00</time></trkpt><trkpt lat="64.31056976" lon="-20.30529213"><ele>105.4</ele><time>2012-07-19T19:37:21.0000000+00:00</time></trkpt><trkpt lat="64.31056976" lon="-20.30529213"><ele>105.4</ele><time>2012-07-19T19:37:26.0000000+00:00</time></trkpt><trkpt lat="64.31056976" lon="-20.30529213"><ele>105.4</ele><time>2012-07-19T19:37:31.0000000+00:00</time></trkpt><trkpt lat="64.31056976" lon="-20.30529213"><ele>105.4</ele><time>2012-07-19T19:37:36.0000000+00:00</time></trkpt><trkpt lat="64.31056976" lon="-20.30529213"><ele>105.5</ele><time>2012-07-19T19:37:41.0000000+00:00</time></trkpt><trkpt lat="64.31056976" lon="-20.30529213"><ele>105.5</ele><time>2012-07-19T19:37:46.0000000+00:00</time></trkpt><trkpt lat="64.31056976" lon="-20.30529213"><ele>105.5</ele><time>2012-07-19T19:37:51.0000000+00:00</time></trkpt><trkpt lat="64.31056976" lon="-20.30529213"><ele>105.5</ele><time>2012-07-19T19:37:56.0000000+00:00</time></trkpt><trkpt lat="64.31056976" lon="-20.30529213"><ele>105.5</ele><time>2012-07-19T19:38:01.0000000+00:00</time></trkpt><trkpt lat="64.31056976" lon="-20.30529213"><ele>105.5</ele><time>2012-07-19T19:38:06.0000000+00:00</time></trkpt><trkpt lat="64.31056976" lon="-20.30529213"><ele>105.5</ele><time>2012-07-19T19:38:11.0000000+00:00</time></trkpt><trkpt lat="64.31056976" lon="-20.30529213"><ele>105.5</ele><time>2012-07-19T19:38:16.0000000+00:00</time></trkpt><trkpt lat="64.31056976" lon="-20.30529213"><ele>105.5</ele><time>2012-07-19T19:38:21.0000000+00:00</time></trkpt><trkpt lat="64.31056976" lon="-20.30529213"><ele>105.5</ele><time>2012-07-19T19:38:26.0000000+00:00</time></trkpt><trkpt lat="64.31056976" lon="-20.30529213"><ele>105.5</ele><time>2012-07-19T19:38:31.0000000+00:00</time></trkpt><trkpt lat="64.31056976" lon="-20.30529213"><ele>105.5</ele><time>2012-07-19T19:38:36.0000000+00:00</time></trkpt><trkpt lat="64.31056976" lon="-20.30529404"><ele>105.5</ele><time>2012-07-19T19:38:41.0000000+00:00</time></trkpt><trkpt lat="64.31056976" lon="-20.30529404"><ele>105.5</ele><time>2012-07-19T19:38:46.0000000+00:00</time></trkpt><trkpt lat="64.31056976" lon="-20.30529404"><ele>105.5</ele><time>2012-07-19T19:38:51.0000000+00:00</time></trkpt><trkpt lat="64.31056976" lon="-20.30529404"><ele>105.5</ele><time>2012-07-19T19:38:56.0000000+00:00</time></trkpt><trkpt lat="64.31056976" lon="-20.30529404"><ele>105.5</ele><time>2012-07-19T19:39:01.0000000+00:00</time></trkpt><trkpt lat="64.31056976" lon="-20.30529404"><ele>105.5</ele><time>2012-07-19T19:39:06.0000000+00:00</time></trkpt><trkpt lat="64.31056976" lon="-20.30529404"><ele>105.5</ele><time>2012-07-19T19:39:11.0000000+00:00</time></trkpt><trkpt lat="64.31056976" lon="-20.30529404"><ele>105.5</ele><time>2012-07-19T19:39:16.0000000+00:00</time></trkpt><trkpt lat="64.31056976" lon="-20.30529404"><ele>105.5</ele><time>2012-07-19T19:39:21.0000000+00:00</time></trkpt><trkpt lat="64.31056976" lon="-20.30529404"><ele>105.6</ele><time>2012-07-19T19:39:26.0000000+00:00</time></trkpt><trkpt lat="64.31056976" lon="-20.30529404"><ele>105.6</ele><time>2012-07-19T19:39:31.0000000+00:00</time></trkpt><trkpt lat="64.31056976" lon="-20.30529404"><ele>105.6</ele><time>2012-07-19T19:39:36.0000000+00:00</time></trkpt><trkpt lat="64.31056976" lon="-20.30529404"><ele>105.6</ele><time>2012-07-19T19:39:41.0000000+00:00</time></trkpt><trkpt lat="64.31056976" lon="-20.30529594"><ele>105.6</ele><time>2012-07-19T19:39:46.0000000+00:00</time></trkpt><trkpt lat="64.31056976" lon="-20.30529594"><ele>105.6</ele><time>2012-07-19T19:39:51.0000000+00:00</time></trkpt><trkpt lat="64.31056976" lon="-20.30529594"><ele>105.6</ele><time>2012-07-19T19:39:56.0000000+00:00</time></trkpt><trkpt lat="64.31056976" lon="-20.30529404"><ele>105.6</ele><time>2012-07-19T19:40:01.0000000+00:00</time></trkpt><trkpt lat="64.31056976" lon="-20.30529404"><ele>105.6</ele><time>2012-07-19T19:40:06.0000000+00:00</time></trkpt><trkpt lat="64.31056976" lon="-20.30529404"><ele>105.6</ele><time>2012-07-19T19:40:11.0000000+00:00</time></trkpt><trkpt lat="64.31056976" lon="-20.30529404"><ele>105.6</ele><time>2012-07-19T19:40:16.0000000+00:00</time></trkpt><trkpt lat="64.31056976" lon="-20.30529404"><ele>105.6</ele><time>2012-07-19T19:40:21.0000000+00:00</time></trkpt><trkpt lat="64.31056976" lon="-20.30529404"><ele>105.6</ele><time>2012-07-19T19:40:26.0000000+00:00</time></trkpt><trkpt lat="64.31056976" lon="-20.30529404"><ele>105.6</ele><time>2012-07-19T19:40:31.0000000+00:00</time></trkpt><trkpt lat="64.31056976" lon="-20.30529594"><ele>105.6</ele><time>2012-07-19T19:40:36.0000000+00:00</time></trkpt><trkpt lat="64.31056976" lon="-20.30529594"><ele>105.6</ele><time>2012-07-19T19:40:41.0000000+00:00</time></trkpt><trkpt lat="64.31056976" lon="-20.30529594"><ele>105.6</ele><time>2012-07-19T19:40:46.0000000+00:00</time></trkpt><trkpt lat="64.31056976" lon="-20.30529594"><ele>105.6</ele><time>2012-07-19T19:40:51.0000000+00:00</time></trkpt><trkpt lat="64.31056976" lon="-20.30529594"><ele>105.6</ele><time>2012-07-19T19:40:56.0000000+00:00</time></trkpt><trkpt lat="64.31056976" lon="-20.30529594"><ele>105.6</ele><time>2012-07-19T19:41:01.0000000+00:00</time></trkpt><trkpt lat="64.31056976" lon="-20.30529594"><ele>105.6</ele><time>2012-07-19T19:41:06.0000000+00:00</time></trkpt><trkpt lat="64.31056976" lon="-20.30529594"><ele>105.6</ele><time>2012-07-19T19:41:11.0000000+00:00</time></trkpt><trkpt lat="64.31056976" lon="-20.30529594"><ele>105.6</ele><time>2012-07-19T19:41:16.0000000+00:00</time></trkpt><trkpt lat="64.31056976" lon="-20.30529785"><ele>105.6</ele><time>2012-07-19T19:41:21.0000000+00:00</time></trkpt><trkpt lat="64.31056976" lon="-20.30529785"><ele>105.6</ele><time>2012-07-19T19:41:26.0000000+00:00</time></trkpt><trkpt lat="64.31056976" lon="-20.30529785"><ele>105.6</ele><time>2012-07-19T19:41:31.0000000+00:00</time></trkpt><trkpt lat="64.31056976" lon="-20.30529785"><ele>105.6</ele><time>2012-07-19T19:41:36.0000000+00:00</time></trkpt><trkpt lat="64.31056976" lon="-20.30529785"><ele>105.6</ele><time>2012-07-19T19:41:41.0000000+00:00</time></trkpt><trkpt lat="64.31056976" lon="-20.30529785"><ele>105.6</ele><time>2012-07-19T19:41:46.0000000+00:00</time></trkpt><trkpt lat="64.31056976" lon="-20.30529785"><ele>105.6</ele><time>2012-07-19T19:41:51.0000000+00:00</time></trkpt><trkpt lat="64.31056976" lon="-20.30529785"><ele>105.7</ele><time>2012-07-19T19:41:56.0000000+00:00</time></trkpt><trkpt lat="64.31056976" lon="-20.30529785"><ele>105.7</ele><time>2012-07-19T19:42:01.0000000+00:00</time></trkpt><trkpt lat="64.31056976" lon="-20.30529785"><ele>105.7</ele><time>2012-07-19T19:42:06.0000000+00:00</time></trkpt><trkpt lat="64.31056976" lon="-20.30529976"><ele>105.7</ele><time>2012-07-19T19:42:11.0000000+00:00</time></trkpt><trkpt lat="64.31056976" lon="-20.30529976"><ele>105.7</ele><time>2012-07-19T19:42:16.0000000+00:00</time></trkpt><trkpt lat="64.31056976" lon="-20.30529976"><ele>105.7</ele><time>2012-07-19T19:42:21.0000000+00:00</time></trkpt><trkpt lat="64.31056976" lon="-20.30529976"><ele>105.7</ele><time>2012-07-19T19:42:26.0000000+00:00</time></trkpt><trkpt lat="64.31056976" lon="-20.30529976"><ele>105.7</ele><time>2012-07-19T19:42:31.0000000+00:00</time></trkpt><trkpt lat="64.31056976" lon="-20.30529976"><ele>105.7</ele><time>2012-07-19T19:42:36.0000000+00:00</time></trkpt><trkpt lat="64.31056976" lon="-20.30529976"><ele>105.7</ele><time>2012-07-19T19:42:41.0000000+00:00</time></trkpt><trkpt lat="64.31056976" lon="-20.30529976"><ele>105.8</ele><time>2012-07-19T19:42:46.0000000+00:00</time></trkpt><trkpt lat="64.31056976" lon="-20.30529976"><ele>105.8</ele><time>2012-07-19T19:42:51.0000000+00:00</time></trkpt><trkpt lat="64.31056976" lon="-20.30529976"><ele>105.8</ele><time>2012-07-19T19:42:56.0000000+00:00</time></trkpt><trkpt lat="64.31056976" lon="-20.30529976"><ele>105.8</ele><time>2012-07-19T19:43:01.0000000+00:00</time></trkpt><trkpt lat="64.31056976" lon="-20.30529976"><ele>105.8</ele><time>2012-07-19T19:43:06.0000000+00:00</time></trkpt><trkpt lat="64.31056976" lon="-20.30529976"><ele>105.8</ele><time>2012-07-19T19:43:11.0000000+00:00</time></trkpt><trkpt lat="64.31056976" lon="-20.30529976"><ele>105.8</ele><time>2012-07-19T19:43:16.0000000+00:00</time></trkpt><trkpt lat="64.31056976" lon="-20.30529976"><ele>105.8</ele><time>2012-07-19T19:43:21.0000000+00:00</time></trkpt><trkpt lat="64.31056976" lon="-20.30529976"><ele>105.8</ele><time>2012-07-19T19:43:26.0000000+00:00</time></trkpt><trkpt lat="64.31056976" lon="-20.30529976"><ele>105.8</ele><time>2012-07-19T19:43:31.0000000+00:00</time></trkpt><trkpt lat="64.31056976" lon="-20.30529976"><ele>105.7</ele><time>2012-07-19T19:43:36.0000000+00:00</time></trkpt><trkpt lat="64.31056976" lon="-20.30529976"><ele>105.7</ele><time>2012-07-19T19:43:41.0000000+00:00</time></trkpt><trkpt lat="64.31056976" lon="-20.30530357"><ele>105.5</ele><time>2012-07-19T19:43:46.0000000+00:00</time></trkpt><trkpt lat="64.31056976" lon="-20.30530357"><ele>105.5</ele><time>2012-07-19T19:43:51.0000000+00:00</time></trkpt><trkpt lat="64.31056976" lon="-20.30530357"><ele>105.5</ele><time>2012-07-19T19:43:56.0000000+00:00</time></trkpt><trkpt lat="64.31056976" lon="-20.30530357"><ele>105.5</ele><time>2012-07-19T19:44:01.0000000+00:00</time></trkpt><trkpt lat="64.31056976" lon="-20.30530357"><ele>105.5</ele><time>2012-07-19T19:44:06.0000000+00:00</time></trkpt><trkpt lat="64.31056976" lon="-20.30530357"><ele>105.4</ele><time>2012-07-19T19:44:11.0000000+00:00</time></trkpt><trkpt lat="64.31056976" lon="-20.30530548"><ele>105.4</ele><time>2012-07-19T19:44:16.0000000+00:00</time></trkpt><trkpt lat="64.31056976" lon="-20.30530548"><ele>105.4</ele><time>2012-07-19T19:44:21.0000000+00:00</time></trkpt><trkpt lat="64.31056976" lon="-20.30530548"><ele>105.4</ele><time>2012-07-19T19:44:26.0000000+00:00</time></trkpt><trkpt lat="64.31056976" lon="-20.30530548"><ele>105.4</ele><time>2012-07-19T19:44:31.0000000+00:00</time></trkpt><trkpt lat="64.31056976" lon="-20.30530548"><ele>105.4</ele><time>2012-07-19T19:44:36.0000000+00:00</time></trkpt><trkpt lat="64.31056976" lon="-20.30530548"><ele>105.4</ele><time>2012-07-19T19:44:41.0000000+00:00</time></trkpt><trkpt lat="64.31056976" lon="-20.30530548"><ele>105.4</ele><time>2012-07-19T19:44:46.0000000+00:00</time></trkpt><trkpt lat="64.31056976" lon="-20.30531502"><ele>105.0</ele><time>2012-07-19T19:44:51.0000000+00:00</time></trkpt><trkpt lat="64.31056976" lon="-20.30531502"><ele>105.0</ele><time>2012-07-19T19:44:56.0000000+00:00</time></trkpt><trkpt lat="64.31056976" lon="-20.30531502"><ele>105.0</ele><time>2012-07-19T19:45:01.0000000+00:00</time></trkpt><trkpt lat="64.31056976" lon="-20.30531502"><ele>105.0</ele><time>2012-07-19T19:45:06.0000000+00:00</time></trkpt><trkpt lat="64.31056976" lon="-20.30531502"><ele>105.0</ele><time>2012-07-19T19:45:11.0000000+00:00</time></trkpt><trkpt lat="64.31056976" lon="-20.3053112"><ele>105.0</ele><time>2012-07-19T19:45:16.0000000+00:00</time></trkpt><trkpt lat="64.31056976" lon="-20.3053112"><ele>105.0</ele><time>2012-07-19T19:45:21.0000000+00:00</time></trkpt><trkpt lat="64.31056976" lon="-20.3053112"><ele>105.1</ele><time>2012-07-19T19:45:26.0000000+00:00</time></trkpt><trkpt lat="64.31056976" lon="-20.3053112"><ele>105.1</ele><time>2012-07-19T19:45:31.0000000+00:00</time></trkpt><trkpt lat="64.31056976" lon="-20.3053112"><ele>105.1</ele><time>2012-07-19T19:45:36.0000000+00:00</time></trkpt><trkpt lat="64.31056976" lon="-20.3053112"><ele>105.1</ele><time>2012-07-19T19:45:41.0000000+00:00</time></trkpt><trkpt lat="64.31056976" lon="-20.3053112"><ele>105.1</ele><time>2012-07-19T19:45:46.0000000+00:00</time></trkpt><trkpt lat="64.31056976" lon="-20.3053112"><ele>105.1</ele><time>2012-07-19T19:45:51.0000000+00:00</time></trkpt><trkpt lat="64.31056976" lon="-20.3053093"><ele>105.1</ele><time>2012-07-19T19:45:56.0000000+00:00</time></trkpt><trkpt lat="64.31056976" lon="-20.3053112"><ele>105.1</ele><time>2012-07-19T19:46:01.0000000+00:00</time></trkpt><trkpt lat="64.31056976" lon="-20.3053112"><ele>105.1</ele><time>2012-07-19T19:46:06.0000000+00:00</time></trkpt><trkpt lat="64.31056976" lon="-20.3053112"><ele>105.1</ele><time>2012-07-19T19:46:11.0000000+00:00</time></trkpt><trkpt lat="64.31056976" lon="-20.3053112"><ele>105.1</ele><time>2012-07-19T19:46:16.0000000+00:00</time></trkpt><trkpt lat="64.31057739" lon="-20.30531311"><ele>105.2</ele><time>2012-07-19T19:46:21.0000000+00:00</time></trkpt><trkpt lat="64.31057739" lon="-20.30531311"><ele>105.2</ele><time>2012-07-19T19:46:26.0000000+00:00</time></trkpt><trkpt lat="64.31057739" lon="-20.30531311"><ele>105.2</ele><time>2012-07-19T19:46:31.0000000+00:00</time></trkpt><trkpt lat="64.31057739" lon="-20.30531311"><ele>105.2</ele><time>2012-07-19T19:46:36.0000000+00:00</time></trkpt><trkpt lat="64.31057739" lon="-20.30531311"><ele>105.2</ele><time>2012-07-19T19:46:41.0000000+00:00</time></trkpt><trkpt lat="64.31057739" lon="-20.30531311"><ele>105.2</ele><time>2012-07-19T19:46:46.0000000+00:00</time></trkpt><trkpt lat="64.31057739" lon="-20.30531311"><ele>105.2</ele><time>2012-07-19T19:46:51.0000000+00:00</time></trkpt><trkpt lat="64.31057739" lon="-20.30531311"><ele>105.2</ele><time>2012-07-19T19:46:56.0000000+00:00</time></trkpt><trkpt lat="64.31057739" lon="-20.30531311"><ele>105.2</ele><time>2012-07-19T19:47:01.0000000+00:00</time></trkpt><trkpt lat="64.31057739" lon="-20.30531311"><ele>105.2</ele><time>2012-07-19T19:47:06.0000000+00:00</time></trkpt><trkpt lat="64.31057739" lon="-20.30531311"><ele>105.2</ele><time>2012-07-19T19:47:11.0000000+00:00</time></trkpt><trkpt lat="64.31057739" lon="-20.30531311"><ele>105.3</ele><time>2012-07-19T19:47:16.0000000+00:00</time></trkpt><trkpt lat="64.31057739" lon="-20.30531311"><ele>105.3</ele><time>2012-07-19T19:47:21.0000000+00:00</time></trkpt><trkpt lat="64.31057739" lon="-20.30531502"><ele>105.2</ele><time>2012-07-19T19:47:26.0000000+00:00</time></trkpt><trkpt lat="64.31057739" lon="-20.30531502"><ele>105.2</ele><time>2012-07-19T19:47:31.0000000+00:00</time></trkpt><trkpt lat="64.31058502" lon="-20.30531693"><ele>105.6</ele><time>2012-07-19T19:47:36.0000000+00:00</time></trkpt><trkpt lat="64.31058502" lon="-20.30531883"><ele>105.9</ele><time>2012-07-19T19:47:41.0000000+00:00</time></trkpt><trkpt lat="64.31058502" lon="-20.30531883"><ele>105.9</ele><time>2012-07-19T19:47:46.0000000+00:00</time></trkpt><trkpt lat="64.31058502" lon="-20.30531883"><ele>105.9</ele><time>2012-07-19T19:47:51.0000000+00:00</time></trkpt><trkpt lat="64.31058502" lon="-20.30531883"><ele>106.0</ele><time>2012-07-19T19:47:56.0000000+00:00</time></trkpt><trkpt lat="64.31058502" lon="-20.30531883"><ele>106.0</ele><time>2012-07-19T19:48:01.0000000+00:00</time></trkpt><trkpt lat="64.31058502" lon="-20.30531883"><ele>106.0</ele><time>2012-07-19T19:48:06.0000000+00:00</time></trkpt><trkpt lat="64.31058502" lon="-20.30531883"><ele>106.0</ele><time>2012-07-19T19:48:11.0000000+00:00</time></trkpt><trkpt lat="64.31058502" lon="-20.30531883"><ele>106.0</ele><time>2012-07-19T19:48:16.0000000+00:00</time></trkpt><trkpt lat="64.31058502" lon="-20.30531883"><ele>106.0</ele><time>2012-07-19T19:48:21.0000000+00:00</time></trkpt><trkpt lat="64.31058502" lon="-20.30531883"><ele>106.1</ele><time>2012-07-19T19:48:26.0000000+00:00</time></trkpt><trkpt lat="64.31058502" lon="-20.30531693"><ele>106.1</ele><time>2012-07-19T19:48:31.0000000+00:00</time></trkpt><trkpt lat="64.31058502" lon="-20.30531693"><ele>106.1</ele><time>2012-07-19T19:48:36.0000000+00:00</time></trkpt><trkpt lat="64.31058502" lon="-20.30531693"><ele>106.1</ele><time>2012-07-19T19:48:41.0000000+00:00</time></trkpt><trkpt lat="64.31058502" lon="-20.30531693"><ele>106.1</ele><time>2012-07-19T19:48:46.0000000+00:00</time></trkpt><trkpt lat="64.31058502" lon="-20.30531693"><ele>106.1</ele><time>2012-07-19T19:48:51.0000000+00:00</time></trkpt><trkpt lat="64.31058502" lon="-20.3053093"><ele>106.8</ele><time>2012-07-19T19:48:56.0000000+00:00</time></trkpt><trkpt lat="64.31058502" lon="-20.3053093"><ele>106.9</ele><time>2012-07-19T19:49:01.0000000+00:00</time></trkpt><trkpt lat="64.31059265" lon="-20.30530739"><ele>107.0</ele><time>2012-07-19T19:49:06.0000000+00:00</time></trkpt><trkpt lat="64.31059265" lon="-20.3053093"><ele>107.0</ele><time>2012-07-19T19:49:11.0000000+00:00</time></trkpt><trkpt lat="64.31059265" lon="-20.3053093"><ele>107.0</ele><time>2012-07-19T19:49:16.0000000+00:00</time></trkpt><trkpt lat="64.31059265" lon="-20.3053093"><ele>107.0</ele><time>2012-07-19T19:49:21.0000000+00:00</time></trkpt><trkpt lat="64.31059265" lon="-20.3053093"><ele>107.0</ele><time>2012-07-19T19:49:26.0000000+00:00</time></trkpt><trkpt lat="64.31059265" lon="-20.3053093"><ele>107.0</ele><time>2012-07-19T19:49:31.0000000+00:00</time></trkpt><trkpt lat="64.31059265" lon="-20.3053112"><ele>107.0</ele><time>2012-07-19T19:49:36.0000000+00:00</time></trkpt><trkpt lat="64.31059265" lon="-20.3053112"><ele>107.0</ele><time>2012-07-19T19:49:41.0000000+00:00</time></trkpt><trkpt lat="64.31059265" lon="-20.3053112"><ele>107.0</ele><time>2012-07-19T19:49:46.0000000+00:00</time></trkpt><trkpt lat="64.31059265" lon="-20.3053112"><ele>107.0</ele><time>2012-07-19T19:49:51.0000000+00:00</time></trkpt><trkpt lat="64.31059265" lon="-20.3053112"><ele>107.0</ele><time>2012-07-19T19:49:56.0000000+00:00</time></trkpt><trkpt lat="64.31058502" lon="-20.3053112"><ele>107.0</ele><time>2012-07-19T19:50:01.0000000+00:00</time></trkpt><trkpt lat="64.31058502" lon="-20.3053112"><ele>107.0</ele><time>2012-07-19T19:50:06.0000000+00:00</time></trkpt><trkpt lat="64.31058502" lon="-20.3053093"><ele>107.0</ele><time>2012-07-19T19:50:11.0000000+00:00</time></trkpt><trkpt lat="64.31058502" lon="-20.3053093"><ele>107.0</ele><time>2012-07-19T19:50:16.0000000+00:00</time></trkpt><trkpt lat="64.31058502" lon="-20.3053112"><ele>107.1</ele><time>2012-07-19T19:50:21.0000000+00:00</time></trkpt><trkpt lat="64.31058502" lon="-20.3053112"><ele>107.1</ele><time>2012-07-19T19:50:26.0000000+00:00</time></trkpt><trkpt lat="64.31058502" lon="-20.3053112"><ele>107.1</ele><time>2012-07-19T19:50:31.0000000+00:00</time></trkpt><trkpt lat="64.31058502" lon="-20.3053112"><ele>107.1</ele><time>2012-07-19T19:50:36.0000000+00:00</time></trkpt><trkpt lat="64.31058502" lon="-20.3053112"><ele>107.1</ele><time>2012-07-19T19:50:41.0000000+00:00</time></trkpt><trkpt lat="64.31058502" lon="-20.3053112"><ele>107.1</ele><time>2012-07-19T19:50:46.0000000+00:00</time></trkpt><trkpt lat="64.31058502" lon="-20.3053112"><ele>107.1</ele><time>2012-07-19T19:50:51.0000000+00:00</time></trkpt><trkpt lat="64.31058502" lon="-20.3053112"><ele>107.1</ele><time>2012-07-19T19:50:56.0000000+00:00</time></trkpt><trkpt lat="64.31058502" lon="-20.3053112"><ele>107.1</ele><time>2012-07-19T19:51:01.0000000+00:00</time></trkpt><trkpt lat="64.31058502" lon="-20.3053112"><ele>107.1</ele><time>2012-07-19T19:51:06.0000000+00:00</time></trkpt><trkpt lat="64.31058502" lon="-20.3053112"><ele>107.2</ele><time>2012-07-19T19:51:11.0000000+00:00</time></trkpt><trkpt lat="64.31058502" lon="-20.3053112"><ele>107.2</ele><time>2012-07-19T19:51:16.0000000+00:00</time></trkpt><trkpt lat="64.31058502" lon="-20.3053112"><ele>107.2</ele><time>2012-07-19T19:51:21.0000000+00:00</time></trkpt><trkpt lat="64.31058502" lon="-20.3053112"><ele>107.2</ele><time>2012-07-19T19:51:26.0000000+00:00</time></trkpt><trkpt lat="64.31058502" lon="-20.3053112"><ele>107.2</ele><time>2012-07-19T19:51:31.0000000+00:00</time></trkpt><trkpt lat="64.31058502" lon="-20.3053112"><ele>107.2</ele><time>2012-07-19T19:51:36.0000000+00:00</time></trkpt><trkpt lat="64.31058502" lon="-20.3053112"><ele>107.2</ele><time>2012-07-19T19:51:41.0000000+00:00</time></trkpt><trkpt lat="64.31058502" lon="-20.3053112"><ele>107.2</ele><time>2012-07-19T19:51:46.0000000+00:00</time></trkpt><trkpt lat="64.31058502" lon="-20.3053112"><ele>107.2</ele><time>2012-07-19T19:51:51.0000000+00:00</time></trkpt><trkpt lat="64.31058502" lon="-20.30531311"><ele>107.2</ele><time>2012-07-19T19:51:56.0000000+00:00</time></trkpt><trkpt lat="64.31058502" lon="-20.30531502"><ele>107.4</ele><time>2012-07-19T19:52:01.0000000+00:00</time></trkpt><trkpt lat="64.31058502" lon="-20.30531693"><ele>107.4</ele><time>2012-07-19T19:52:06.0000000+00:00</time></trkpt><trkpt lat="64.31059265" lon="-20.30533218"><ele>107.4</ele><time>2012-07-19T19:52:11.0000000+00:00</time></trkpt><trkpt lat="64.31059265" lon="-20.30532837"><ele>107.5</ele><time>2012-07-19T19:52:16.0000000+00:00</time></trkpt><trkpt lat="64.31059265" lon="-20.30533218"><ele>107.3</ele><time>2012-07-19T19:52:21.0000000+00:00</time></trkpt><trkpt lat="64.31059265" lon="-20.30532837"><ele>106.9</ele><time>2012-07-19T19:52:26.0000000+00:00</time></trkpt><trkpt lat="64.31058502" lon="-20.30533028"><ele>106.9</ele><time>2012-07-19T19:52:31.0000000+00:00</time></trkpt><trkpt lat="64.31056976" lon="-20.30533981"><ele>106.9</ele><time>2012-07-19T19:52:36.0000000+00:00</time></trkpt><trkpt lat="64.31056976" lon="-20.30533791"><ele>107.0</ele><time>2012-07-19T19:52:41.0000000+00:00</time></trkpt><trkpt lat="64.31056976" lon="-20.30533791"><ele>107.0</ele><time>2012-07-19T19:52:46.0000000+00:00</time></trkpt><trkpt lat="64.31056976" lon="-20.305336"><ele>107.0</ele><time>2012-07-19T19:52:51.0000000+00:00</time></trkpt><trkpt lat="64.31056976" lon="-20.305336"><ele>106.9</ele><time>2012-07-19T19:52:56.0000000+00:00</time></trkpt><trkpt lat="64.31056976" lon="-20.305336"><ele>107.0</ele><time>2012-07-19T19:53:01.0000000+00:00</time></trkpt><trkpt lat="64.31056976" lon="-20.30533409"><ele>107.0</ele><time>2012-07-19T19:53:06.0000000+00:00</time></trkpt><trkpt lat="64.31056976" lon="-20.30533409"><ele>107.0</ele><time>2012-07-19T19:53:11.0000000+00:00</time></trkpt><trkpt lat="64.31056976" lon="-20.30533409"><ele>106.9</ele><time>2012-07-19T19:53:16.0000000+00:00</time></trkpt><trkpt lat="64.31056976" lon="-20.30533409"><ele>106.9</ele><time>2012-07-19T19:53:21.0000000+00:00</time></trkpt><trkpt lat="64.31056976" lon="-20.30533218"><ele>106.9</ele><time>2012-07-19T19:53:26.0000000+00:00</time></trkpt><trkpt lat="64.31056976" lon="-20.30533218"><ele>107.0</ele><time>2012-07-19T19:53:31.0000000+00:00</time></trkpt><trkpt lat="64.31056976" lon="-20.30533218"><ele>107.0</ele><time>2012-07-19T19:53:36.0000000+00:00</time></trkpt><trkpt lat="64.31056976" lon="-20.30533218"><ele>107.0</ele><time>2012-07-19T19:53:41.0000000+00:00</time></trkpt><trkpt lat="64.31056976" lon="-20.30533218"><ele>107.1</ele><time>2012-07-19T19:53:46.0000000+00:00</time></trkpt><trkpt lat="64.31056976" lon="-20.30533218"><ele>107.1</ele><time>2012-07-19T19:53:51.0000000+00:00</time></trkpt><trkpt lat="64.31056976" lon="-20.30533218"><ele>107.2</ele><time>2012-07-19T19:53:56.0000000+00:00</time></trkpt><trkpt lat="64.31056976" lon="-20.30533218"><ele>107.2</ele><time>2012-07-19T19:54:01.0000000+00:00</time></trkpt><trkpt lat="64.31057739" lon="-20.30533218"><ele>107.2</ele><time>2012-07-19T19:54:06.0000000+00:00</time></trkpt><trkpt lat="64.31057739" lon="-20.30533218"><ele>107.3</ele><time>2012-07-19T19:54:11.0000000+00:00</time></trkpt><trkpt lat="64.31057739" lon="-20.30533218"><ele>107.3</ele><time>2012-07-19T19:54:16.0000000+00:00</time></trkpt><trkpt lat="64.31057739" lon="-20.30533218"><ele>107.3</ele><time>2012-07-19T19:54:21.0000000+00:00</time></trkpt><trkpt lat="64.31057739" lon="-20.30533218"><ele>107.4</ele><time>2012-07-19T19:54:26.0000000+00:00</time></trkpt><trkpt lat="64.31057739" lon="-20.30533218"><ele>107.4</ele><time>2012-07-19T19:54:31.0000000+00:00</time></trkpt><trkpt lat="64.31057739" lon="-20.30533218"><ele>107.4</ele><time>2012-07-19T19:54:36.0000000+00:00</time></trkpt><trkpt lat="64.31057739" lon="-20.30533218"><ele>107.4</ele><time>2012-07-19T19:54:41.0000000+00:00</time></trkpt><trkpt lat="64.31057739" lon="-20.30533028"><ele>107.5</ele><time>2012-07-19T19:54:46.0000000+00:00</time></trkpt><trkpt lat="64.31057739" lon="-20.30533028"><ele>107.5</ele><time>2012-07-19T19:54:51.0000000+00:00</time></trkpt><trkpt lat="64.31057739" lon="-20.30533028"><ele>107.5</ele><time>2012-07-19T19:54:56.0000000+00:00</time></trkpt><trkpt lat="64.31057739" lon="-20.30533028"><ele>107.5</ele><time>2012-07-19T19:55:01.0000000+00:00</time></trkpt><trkpt lat="64.31057739" lon="-20.30533028"><ele>107.5</ele><time>2012-07-19T19:55:06.0000000+00:00</time></trkpt><trkpt lat="64.31057739" lon="-20.30533028"><ele>107.5</ele><time>2012-07-19T19:55:11.0000000+00:00</time></trkpt><trkpt lat="64.31057739" lon="-20.30533028"><ele>107.5</ele><time>2012-07-19T19:55:16.0000000+00:00</time></trkpt><trkpt lat="64.31057739" lon="-20.30532837"><ele>107.5</ele><time>2012-07-19T19:55:21.0000000+00:00</time></trkpt><trkpt lat="64.31057739" lon="-20.30532837"><ele>107.5</ele><time>2012-07-19T19:55:26.0000000+00:00</time></trkpt><trkpt lat="64.31057739" lon="-20.30532837"><ele>107.6</ele><time>2012-07-19T19:55:31.0000000+00:00</time></trkpt><trkpt lat="64.31057739" lon="-20.30532837"><ele>107.6</ele><time>2012-07-19T19:55:36.0000000+00:00</time></trkpt><trkpt lat="64.31057739" lon="-20.30532837"><ele>107.6</ele><time>2012-07-19T19:55:41.0000000+00:00</time></trkpt><trkpt lat="64.31057739" lon="-20.30532837"><ele>107.6</ele><time>2012-07-19T19:55:46.0000000+00:00</time></trkpt><trkpt lat="64.31057739" lon="-20.30532837"><ele>107.7</ele><time>2012-07-19T19:55:51.0000000+00:00</time></trkpt><trkpt lat="64.31057739" lon="-20.30532837"><ele>107.7</ele><time>2012-07-19T19:55:56.0000000+00:00</time></trkpt><trkpt lat="64.31057739" lon="-20.30532837"><ele>107.8</ele><time>2012-07-19T19:56:01.0000000+00:00</time></trkpt><trkpt lat="64.31057739" lon="-20.30532837"><ele>107.8</ele><time>2012-07-19T19:56:06.0000000+00:00</time></trkpt><trkpt lat="64.31057739" lon="-20.30532837"><ele>107.8</ele><time>2012-07-19T19:56:11.0000000+00:00</time></trkpt><trkpt lat="64.31057739" lon="-20.30532837"><ele>107.9</ele><time>2012-07-19T19:56:16.0000000+00:00</time></trkpt><trkpt lat="64.31057739" lon="-20.30532837"><ele>108.0</ele><time>2012-07-19T19:56:21.0000000+00:00</time></trkpt><trkpt lat="64.31057739" lon="-20.30532837"><ele>108.0</ele><time>2012-07-19T19:56:26.0000000+00:00</time></trkpt><trkpt lat="64.31057739" lon="-20.30532837"><ele>108.0</ele><time>2012-07-19T19:56:31.0000000+00:00</time></trkpt><trkpt lat="64.31057739" lon="-20.30532837"><ele>108.1</ele><time>2012-07-19T19:56:36.0000000+00:00</time></trkpt><trkpt lat="64.31057739" lon="-20.30532837"><ele>108.1</ele><time>2012-07-19T19:56:41.0000000+00:00</time></trkpt><trkpt lat="64.31057739" lon="-20.30532837"><ele>108.1</ele><time>2012-07-19T19:56:46.0000000+00:00</time></trkpt><trkpt lat="64.31057739" lon="-20.30532837"><ele>108.2</ele><time>2012-07-19T19:56:51.0000000+00:00</time></trkpt><trkpt lat="64.31057739" lon="-20.30532837"><ele>108.2</ele><time>2012-07-19T19:56:56.0000000+00:00</time></trkpt><trkpt lat="64.31057739" lon="-20.30532837"><ele>108.2</ele><time>2012-07-19T19:57:01.0000000+00:00</time></trkpt><trkpt lat="64.31057739" lon="-20.30532837"><ele>108.2</ele><time>2012-07-19T19:57:06.0000000+00:00</time></trkpt><trkpt lat="64.31057739" lon="-20.30532837"><ele>108.3</ele><time>2012-07-19T19:57:11.0000000+00:00</time></trkpt><trkpt lat="64.31057739" lon="-20.30532837"><ele>108.3</ele><time>2012-07-19T19:57:16.0000000+00:00</time></trkpt><trkpt lat="64.31057739" lon="-20.30532837"><ele>108.3</ele><time>2012-07-19T19:57:21.0000000+00:00</time></trkpt><trkpt lat="64.31057739" lon="-20.30532837"><ele>108.3</ele><time>2012-07-19T19:57:26.0000000+00:00</time></trkpt><trkpt lat="64.31057739" lon="-20.30532837"><ele>108.4</ele><time>2012-07-19T19:57:31.0000000+00:00</time></trkpt><trkpt lat="64.31057739" lon="-20.30532837"><ele>108.4</ele><time>2012-07-19T19:57:36.0000000+00:00</time></trkpt><trkpt lat="64.31057739" lon="-20.30532837"><ele>108.4</ele><time>2012-07-19T19:57:41.0000000+00:00</time></trkpt><trkpt lat="64.31057739" lon="-20.30532837"><ele>108.3</ele><time>2012-07-19T19:57:46.0000000+00:00</time></trkpt><trkpt lat="64.31057739" lon="-20.30532837"><ele>108.4</ele><time>2012-07-19T19:57:51.0000000+00:00</time></trkpt><trkpt lat="64.31057739" lon="-20.30532837"><ele>108.4</ele><time>2012-07-19T19:57:56.0000000+00:00</time></trkpt><trkpt lat="64.31057739" lon="-20.30532837"><ele>108.5</ele><time>2012-07-19T19:58:01.0000000+00:00</time></trkpt><trkpt lat="64.31057739" lon="-20.30532837"><ele>108.5</ele><time>2012-07-19T19:58:06.0000000+00:00</time></trkpt><trkpt lat="64.31057739" lon="-20.30532837"><ele>108.5</ele><time>2012-07-19T19:58:11.0000000+00:00</time></trkpt><trkpt lat="64.31057739" lon="-20.30532837"><ele>108.6</ele><time>2012-07-19T19:58:16.0000000+00:00</time></trkpt><trkpt lat="64.31057739" lon="-20.30532837"><ele>108.6</ele><time>2012-07-19T19:58:21.0000000+00:00</time></trkpt><trkpt lat="64.31057739" lon="-20.30532837"><ele>108.6</ele><time>2012-07-19T19:58:26.0000000+00:00</time></trkpt><trkpt lat="64.31057739" lon="-20.30532837"><ele>108.6</ele><time>2012-07-19T19:58:31.0000000+00:00</time></trkpt><trkpt lat="64.31057739" lon="-20.30532646"><ele>108.5</ele><time>2012-07-19T19:58:36.0000000+00:00</time></trkpt><trkpt lat="64.31057739" lon="-20.30532646"><ele>108.5</ele><time>2012-07-19T19:58:41.0000000+00:00</time></trkpt><trkpt lat="64.31057739" lon="-20.30532646"><ele>108.5</ele><time>2012-07-19T19:58:46.0000000+00:00</time></trkpt><trkpt lat="64.31057739" lon="-20.30532646"><ele>108.6</ele><time>2012-07-19T19:58:51.0000000+00:00</time></trkpt><trkpt lat="64.31057739" lon="-20.30532646"><ele>108.6</ele><time>2012-07-19T19:58:56.0000000+00:00</time></trkpt><trkpt lat="64.31057739" lon="-20.30532646"><ele>108.6</ele><time>2012-07-19T19:59:01.0000000+00:00</time></trkpt><trkpt lat="64.31057739" lon="-20.30532646"><ele>108.6</ele><time>2012-07-19T19:59:06.0000000+00:00</time></trkpt><trkpt lat="64.31057739" lon="-20.30532455"><ele>108.7</ele><time>2012-07-19T19:59:11.0000000+00:00</time></trkpt><trkpt lat="64.31057739" lon="-20.30532455"><ele>108.7</ele><time>2012-07-19T19:59:16.0000000+00:00</time></trkpt><trkpt lat="64.31057739" lon="-20.30532455"><ele>108.7</ele><time>2012-07-19T19:59:21.0000000+00:00</time></trkpt><trkpt lat="64.31057739" lon="-20.30532455"><ele>108.7</ele><time>2012-07-19T19:59:26.0000000+00:00</time></trkpt><trkpt lat="64.31057739" lon="-20.30532455"><ele>108.8</ele><time>2012-07-19T19:59:31.0000000+00:00</time></trkpt><trkpt lat="64.31057739" lon="-20.30532455"><ele>108.8</ele><time>2012-07-19T19:59:36.0000000+00:00</time></trkpt><trkpt lat="64.31057739" lon="-20.30532455"><ele>108.9</ele><time>2012-07-19T19:59:41.0000000+00:00</time></trkpt><trkpt lat="64.31057739" lon="-20.30532455"><ele>108.9</ele><time>2012-07-19T19:59:46.0000000+00:00</time></trkpt><trkpt lat="64.31057739" lon="-20.30532265"><ele>109.0</ele><time>2012-07-19T19:59:51.0000000+00:00</time></trkpt><trkpt lat="64.31057739" lon="-20.30532265"><ele>109.0</ele><time>2012-07-19T19:59:56.0000000+00:00</time></trkpt><trkpt lat="64.31057739" lon="-20.30532455"><ele>109.0</ele><time>2012-07-19T20:00:01.0000000+00:00</time></trkpt><trkpt lat="64.31057739" lon="-20.30532455"><ele>109.0</ele><time>2012-07-19T20:00:06.0000000+00:00</time></trkpt><trkpt lat="64.31057739" lon="-20.30532455"><ele>109.0</ele><time>2012-07-19T20:00:11.0000000+00:00</time></trkpt><trkpt lat="64.31057739" lon="-20.30532265"><ele>109.0</ele><time>2012-07-19T20:00:16.0000000+00:00</time></trkpt><trkpt lat="64.31057739" lon="-20.30532265"><ele>109.0</ele><time>2012-07-19T20:00:21.0000000+00:00</time></trkpt><trkpt lat="64.31057739" lon="-20.30532265"><ele>109.0</ele><time>2012-07-19T20:00:26.0000000+00:00</time></trkpt><trkpt lat="64.31057739" lon="-20.30532265"><ele>109.1</ele><time>2012-07-19T20:00:31.0000000+00:00</time></trkpt><trkpt lat="64.31057739" lon="-20.30532265"><ele>109.1</ele><time>2012-07-19T20:00:36.0000000+00:00</time></trkpt><trkpt lat="64.31057739" lon="-20.30532265"><ele>109.1</ele><time>2012-07-19T20:00:41.0000000+00:00</time></trkpt><trkpt lat="64.31057739" lon="-20.30532265"><ele>109.2</ele><time>2012-07-19T20:00:46.0000000+00:00</time></trkpt><trkpt lat="64.31057739" lon="-20.30532265"><ele>109.3</ele><time>2012-07-19T20:00:51.0000000+00:00</time></trkpt><trkpt lat="64.31057739" lon="-20.30532455"><ele>109.4</ele><time>2012-07-19T20:00:56.0000000+00:00</time></trkpt><trkpt lat="64.31057739" lon="-20.30532455"><ele>109.4</ele><time>2012-07-19T20:01:01.0000000+00:00</time></trkpt><trkpt lat="64.31057739" lon="-20.30532455"><ele>109.5</ele><time>2012-07-19T20:01:06.0000000+00:00</time></trkpt><trkpt lat="64.31057739" lon="-20.30532646"><ele>109.5</ele><time>2012-07-19T20:01:11.0000000+00:00</time></trkpt><trkpt lat="64.31057739" lon="-20.30532646"><ele>109.5</ele><time>2012-07-19T20:01:16.0000000+00:00</time></trkpt><trkpt lat="64.31057739" lon="-20.30532646"><ele>109.5</ele><time>2012-07-19T20:01:21.0000000+00:00</time></trkpt><trkpt lat="64.31057739" lon="-20.30532646"><ele>109.5</ele><time>2012-07-19T20:01:26.0000000+00:00</time></trkpt><trkpt lat="64.31057739" lon="-20.30532646"><ele>109.5</ele><time>2012-07-19T20:01:31.0000000+00:00</time></trkpt><trkpt lat="64.31057739" lon="-20.30532646"><ele>109.5</ele><time>2012-07-19T20:01:36.0000000+00:00</time></trkpt><trkpt lat="64.31057739" lon="-20.30532646"><ele>109.5</ele><time>2012-07-19T20:01:41.0000000+00:00</time></trkpt><trkpt lat="64.31058502" lon="-20.30532646"><ele>109.5</ele><time>2012-07-19T20:01:46.0000000+00:00</time></trkpt><trkpt lat="64.31058502" lon="-20.30532646"><ele>109.5</ele><time>2012-07-19T20:01:51.0000000+00:00</time></trkpt><trkpt lat="64.31058502" lon="-20.30532646"><ele>109.5</ele><time>2012-07-19T20:01:56.0000000+00:00</time></trkpt><trkpt lat="64.31058502" lon="-20.30532646"><ele>109.5</ele><time>2012-07-19T20:02:01.0000000+00:00</time></trkpt><trkpt lat="64.31058502" lon="-20.30532646"><ele>109.5</ele><time>2012-07-19T20:02:06.0000000+00:00</time></trkpt><trkpt lat="64.31058502" lon="-20.30532646"><ele>109.5</ele><time>2012-07-19T20:02:11.0000000+00:00</time></trkpt><trkpt lat="64.31058502" lon="-20.30532646"><ele>109.5</ele><time>2012-07-19T20:02:16.0000000+00:00</time></trkpt><trkpt lat="64.31058502" lon="-20.30532646"><ele>109.5</ele><time>2012-07-19T20:02:21.0000000+00:00</time></trkpt><trkpt lat="64.31058502" lon="-20.30532646"><ele>109.5</ele><time>2012-07-19T20:02:26.0000000+00:00</time></trkpt><trkpt lat="64.31058502" lon="-20.30532646"><ele>109.5</ele><time>2012-07-19T20:02:31.0000000+00:00</time></trkpt><trkpt lat="64.31058502" lon="-20.30532646"><ele>109.5</ele><time>2012-07-19T20:02:36.0000000+00:00</time></trkpt><trkpt lat="64.31058502" lon="-20.30532837"><ele>109.6</ele><time>2012-07-19T20:02:41.0000000+00:00</time></trkpt><trkpt lat="64.31058502" lon="-20.30532837"><ele>109.6</ele><time>2012-07-19T20:02:46.0000000+00:00</time></trkpt><trkpt lat="64.31058502" lon="-20.30532646"><ele>109.6</ele><time>2012-07-19T20:02:51.0000000+00:00</time></trkpt><trkpt lat="64.31058502" lon="-20.30532646"><ele>109.7</ele><time>2012-07-19T20:02:56.0000000+00:00</time></trkpt><trkpt lat="64.31058502" lon="-20.30532646"><ele>109.7</ele><time>2012-07-19T20:03:01.0000000+00:00</time></trkpt><trkpt lat="64.31058502" lon="-20.30532646"><ele>109.7</ele><time>2012-07-19T20:03:06.0000000+00:00</time></trkpt><trkpt lat="64.31058502" lon="-20.30532646"><ele>109.8</ele><time>2012-07-19T20:03:11.0000000+00:00</time></trkpt><trkpt lat="64.31058502" lon="-20.30532646"><ele>109.8</ele><time>2012-07-19T20:03:16.0000000+00:00</time></trkpt><trkpt lat="64.31058502" lon="-20.30532646"><ele>109.8</ele><time>2012-07-19T20:03:21.0000000+00:00</time></trkpt><trkpt lat="64.31058502" lon="-20.30532646"><ele>109.8</ele><time>2012-07-19T20:03:26.0000000+00:00</time></trkpt><trkpt lat="64.31058502" lon="-20.30532646"><ele>109.8</ele><time>2012-07-19T20:03:31.0000000+00:00</time></trkpt><trkpt lat="64.31058502" lon="-20.30532646"><ele>109.8</ele><time>2012-07-19T20:03:36.0000000+00:00</time></trkpt><trkpt lat="64.31058502" lon="-20.30532646"><ele>109.9</ele><time>2012-07-19T20:03:41.0000000+00:00</time></trkpt><trkpt lat="64.31058502" lon="-20.30532646"><ele>109.9</ele><time>2012-07-19T20:03:46.0000000+00:00</time></trkpt><trkpt lat="64.31058502" lon="-20.30532646"><ele>110.0</ele><time>2012-07-19T20:03:51.0000000+00:00</time></trkpt><trkpt lat="64.31058502" lon="-20.30532646"><ele>110.0</ele><time>2012-07-19T20:03:56.0000000+00:00</time></trkpt><trkpt lat="64.31058502" lon="-20.30532646"><ele>110.0</ele><time>2012-07-19T20:04:01.0000000+00:00</time></trkpt><trkpt lat="64.31058502" lon="-20.30532646"><ele>110.1</ele><time>2012-07-19T20:04:06.0000000+00:00</time></trkpt><trkpt lat="64.31058502" lon="-20.30532646"><ele>110.1</ele><time>2012-07-19T20:04:11.0000000+00:00</time></trkpt><trkpt lat="64.31058502" lon="-20.30532646"><ele>110.1</ele><time>2012-07-19T20:04:16.0000000+00:00</time></trkpt><trkpt lat="64.31058502" lon="-20.30532646"><ele>110.1</ele><time>2012-07-19T20:04:21.0000000+00:00</time></trkpt><trkpt lat="64.31058502" lon="-20.30532646"><ele>110.2</ele><time>2012-07-19T20:04:26.0000000+00:00</time></trkpt><trkpt lat="64.31058502" lon="-20.30532646"><ele>110.2</ele><time>2012-07-19T20:04:31.0000000+00:00</time></trkpt><trkpt lat="64.31058502" lon="-20.30532646"><ele>110.2</ele><time>2012-07-19T20:04:36.0000000+00:00</time></trkpt><trkpt lat="64.31058502" lon="-20.30532646"><ele>110.2</ele><time>2012-07-19T20:04:41.0000000+00:00</time></trkpt><trkpt lat="64.31058502" lon="-20.30532646"><ele>110.3</ele><time>2012-07-19T20:04:46.0000000+00:00</time></trkpt><trkpt lat="64.31058502" lon="-20.30532646"><ele>110.2</ele><time>2012-07-19T20:04:51.0000000+00:00</time></trkpt><trkpt lat="64.31058502" lon="-20.30532646"><ele>110.2</ele><time>2012-07-19T20:04:56.0000000+00:00</time></trkpt><trkpt lat="64.31058502" lon="-20.30532646"><ele>110.3</ele><time>2012-07-19T20:05:01.0000000+00:00</time></trkpt><trkpt lat="64.31058502" lon="-20.30532646"><ele>110.3</ele><time>2012-07-19T20:05:06.0000000+00:00</time></trkpt><trkpt lat="64.31058502" lon="-20.30532646"><ele>110.4</ele><time>2012-07-19T20:05:11.0000000+00:00</time></trkpt><trkpt lat="64.31058502" lon="-20.30532646"><ele>110.4</ele><time>2012-07-19T20:05:16.0000000+00:00</time></trkpt><trkpt lat="64.31058502" lon="-20.30532837"><ele>110.5</ele><time>2012-07-19T20:05:21.0000000+00:00</time></trkpt><trkpt lat="64.31058502" lon="-20.30532837"><ele>110.5</ele><time>2012-07-19T20:05:26.0000000+00:00</time></trkpt><trkpt lat="64.31058502" lon="-20.30532837"><ele>110.6</ele><time>2012-07-19T20:05:31.0000000+00:00</time></trkpt><trkpt lat="64.31058502" lon="-20.30532837"><ele>110.6</ele><time>2012-07-19T20:05:36.0000000+00:00</time></trkpt><trkpt lat="64.31058502" lon="-20.30532837"><ele>110.6</ele><time>2012-07-19T20:05:41.0000000+00:00</time></trkpt><trkpt lat="64.31058502" lon="-20.30532837"><ele>110.6</ele><time>2012-07-19T20:05:46.0000000+00:00</time></trkpt><trkpt lat="64.31058502" lon="-20.30532837"><ele>110.6</ele><time>2012-07-19T20:05:51.0000000+00:00</time></trkpt><trkpt lat="64.31058502" lon="-20.30532646"><ele>110.5</ele><time>2012-07-19T20:05:56.0000000+00:00</time></trkpt><trkpt lat="64.31058502" lon="-20.30532646"><ele>110.5</ele><time>2012-07-19T20:06:01.0000000+00:00</time></trkpt><trkpt lat="64.31058502" lon="-20.30532646"><ele>110.5</ele><time>2012-07-19T20:06:06.0000000+00:00</time></trkpt><trkpt lat="64.31058502" lon="-20.30532646"><ele>110.5</ele><time>2012-07-19T20:06:11.0000000+00:00</time></trkpt><trkpt lat="64.31058502" lon="-20.30532646"><ele>110.5</ele><time>2012-07-19T20:06:16.0000000+00:00</time></trkpt><trkpt lat="64.31058502" lon="-20.30532646"><ele>110.4</ele><time>2012-07-19T20:06:21.0000000+00:00</time></trkpt><trkpt lat="64.31058502" lon="-20.30532646"><ele>110.4</ele><time>2012-07-19T20:06:26.0000000+00:00</time></trkpt><trkpt lat="64.31058502" lon="-20.30532455"><ele>110.4</ele><time>2012-07-19T20:06:31.0000000+00:00</time></trkpt><trkpt lat="64.31058502" lon="-20.30532455"><ele>110.4</ele><time>2012-07-19T20:06:36.0000000+00:00</time></trkpt><trkpt lat="64.31058502" lon="-20.30532455"><ele>110.4</ele><time>2012-07-19T20:06:41.0000000+00:00</time></trkpt><trkpt lat="64.31058502" lon="-20.30532455"><ele>110.4</ele><time>2012-07-19T20:06:46.0000000+00:00</time></trkpt><trkpt lat="64.31058502" lon="-20.30532455"><ele>110.4</ele><time>2012-07-19T20:06:51.0000000+00:00</time></trkpt><trkpt lat="64.31058502" lon="-20.30532455"><ele>110.4</ele><time>2012-07-19T20:06:56.0000000+00:00</time></trkpt><trkpt lat="64.31058502" lon="-20.30532455"><ele>110.4</ele><time>2012-07-19T20:07:01.0000000+00:00</time></trkpt><trkpt lat="64.31059265" lon="-20.30532455"><ele>110.4</ele><time>2012-07-19T20:07:06.0000000+00:00</time></trkpt><trkpt lat="64.31059265" lon="-20.30532455"><ele>110.4</ele><time>2012-07-19T20:07:11.0000000+00:00</time></trkpt><trkpt lat="64.31059265" lon="-20.30532455"><ele>110.4</ele><time>2012-07-19T20:07:16.0000000+00:00</time></trkpt><trkpt lat="64.31059265" lon="-20.30532455"><ele>110.4</ele><time>2012-07-19T20:07:21.0000000+00:00</time></trkpt><trkpt lat="64.31059265" lon="-20.30532455"><ele>110.4</ele><time>2012-07-19T20:07:26.0000000+00:00</time></trkpt><trkpt lat="64.31059265" lon="-20.30532265"><ele>110.3</ele><time>2012-07-19T20:07:31.0000000+00:00</time></trkpt><trkpt lat="64.31058502" lon="-20.30532265"><ele>110.3</ele><time>2012-07-19T20:07:36.0000000+00:00</time></trkpt><trkpt lat="64.31058502" lon="-20.30532074"><ele>110.3</ele><time>2012-07-19T20:07:41.0000000+00:00</time></trkpt><trkpt lat="64.31058502" lon="-20.30532074"><ele>110.2</ele><time>2012-07-19T20:07:46.0000000+00:00</time></trkpt><trkpt lat="64.31058502" lon="-20.30532074"><ele>110.2</ele><time>2012-07-19T20:07:51.0000000+00:00</time></trkpt><trkpt lat="64.31058502" lon="-20.30532074"><ele>110.2</ele><time>2012-07-19T20:07:56.0000000+00:00</time></trkpt><trkpt lat="64.31058502" lon="-20.30532074"><ele>110.2</ele><time>2012-07-19T20:08:01.0000000+00:00</time></trkpt><trkpt lat="64.31058502" lon="-20.30532074"><ele>110.2</ele><time>2012-07-19T20:08:06.0000000+00:00</time></trkpt><trkpt lat="64.31058502" lon="-20.30531883"><ele>110.2</ele><time>2012-07-19T20:08:11.0000000+00:00</time></trkpt><trkpt lat="64.31058502" lon="-20.30531883"><ele>110.1</ele><time>2012-07-19T20:08:16.0000000+00:00</time></trkpt><trkpt lat="64.31058502" lon="-20.30531883"><ele>110.1</ele><time>2012-07-19T20:08:21.0000000+00:00</time></trkpt><trkpt lat="64.31058502" lon="-20.30531883"><ele>110.1</ele><time>2012-07-19T20:08:26.0000000+00:00</time></trkpt><trkpt lat="64.31058502" lon="-20.30531883"><ele>110.2</ele><time>2012-07-19T20:08:31.0000000+00:00</time></trkpt><trkpt lat="64.31058502" lon="-20.30531883"><ele>110.2</ele><time>2012-07-19T20:08:36.0000000+00:00</time></trkpt><trkpt lat="64.31058502" lon="-20.30531883"><ele>110.2</ele><time>2012-07-19T20:08:41.0000000+00:00</time></trkpt><trkpt lat="64.31058502" lon="-20.30531883"><ele>110.2</ele><time>2012-07-19T20:08:46.0000000+00:00</time></trkpt><trkpt lat="64.31058502" lon="-20.30531883"><ele>110.3</ele><time>2012-07-19T20:08:51.0000000+00:00</time></trkpt><trkpt lat="64.31058502" lon="-20.30531883"><ele>110.2</ele><time>2012-07-19T20:08:56.0000000+00:00</time></trkpt><trkpt lat="64.31058502" lon="-20.30531883"><ele>110.2</ele><time>2012-07-19T20:09:01.0000000+00:00</time></trkpt><trkpt lat="64.31058502" lon="-20.30531883"><ele>110.2</ele><time>2012-07-19T20:09:06.0000000+00:00</time></trkpt><trkpt lat="64.31058502" lon="-20.30531883"><ele>110.2</ele><time>2012-07-19T20:09:11.0000000+00:00</time></trkpt><trkpt lat="64.31058502" lon="-20.30531883"><ele>110.2</ele><time>2012-07-19T20:09:16.0000000+00:00</time></trkpt><trkpt lat="64.31058502" lon="-20.30531693"><ele>110.1</ele><time>2012-07-19T20:09:21.0000000+00:00</time></trkpt><trkpt lat="64.31058502" lon="-20.30531693"><ele>110.0</ele><time>2012-07-19T20:09:26.0000000+00:00</time></trkpt><trkpt lat="64.31058502" lon="-20.30531693"><ele>110.0</ele><time>2012-07-19T20:09:31.0000000+00:00</time></trkpt><trkpt lat="64.31058502" lon="-20.30531693"><ele>109.9</ele><time>2012-07-19T20:09:36.0000000+00:00</time></trkpt><trkpt lat="64.31058502" lon="-20.30531502"><ele>109.9</ele><time>2012-07-19T20:09:41.0000000+00:00</time></trkpt><trkpt lat="64.31058502" lon="-20.30531502"><ele>109.9</ele><time>2012-07-19T20:09:46.0000000+00:00</time></trkpt><trkpt lat="64.31058502" lon="-20.30531502"><ele>109.9</ele><time>2012-07-19T20:09:51.0000000+00:00</time></trkpt><trkpt lat="64.31058502" lon="-20.30531502"><ele>109.9</ele><time>2012-07-19T20:09:56.0000000+00:00</time></trkpt><trkpt lat="64.31058502" lon="-20.30531502"><ele>109.9</ele><time>2012-07-19T20:10:01.0000000+00:00</time></trkpt><trkpt lat="64.31058502" lon="-20.30531502"><ele>109.9</ele><time>2012-07-19T20:10:06.0000000+00:00</time></trkpt><trkpt lat="64.31058502" lon="-20.30531502"><ele>109.9</ele><time>2012-07-19T20:10:11.0000000+00:00</time></trkpt><trkpt lat="64.31058502" lon="-20.30531502"><ele>109.9</ele><time>2012-07-19T20:10:16.0000000+00:00</time></trkpt><trkpt lat="64.31058502" lon="-20.30531502"><ele>109.9</ele><time>2012-07-19T20:10:21.0000000+00:00</time></trkpt><trkpt lat="64.31058502" lon="-20.30531502"><ele>109.9</ele><time>2012-07-19T20:10:26.0000000+00:00</time></trkpt><trkpt lat="64.31058502" lon="-20.30531502"><ele>109.9</ele><time>2012-07-19T20:10:31.0000000+00:00</time></trkpt><trkpt lat="64.31058502" lon="-20.30531502"><ele>110.0</ele><time>2012-07-19T20:10:36.0000000+00:00</time></trkpt><trkpt lat="64.31058502" lon="-20.30531693"><ele>110.0</ele><time>2012-07-19T20:10:41.0000000+00:00</time></trkpt><trkpt lat="64.31058502" lon="-20.30531502"><ele>110.0</ele><time>2012-07-19T20:10:46.0000000+00:00</time></trkpt><trkpt lat="64.31058502" lon="-20.30531502"><ele>110.0</ele><time>2012-07-19T20:10:51.0000000+00:00</time></trkpt><trkpt lat="64.31058502" lon="-20.30531502"><ele>110.0</ele><time>2012-07-19T20:10:56.0000000+00:00</time></trkpt><trkpt lat="64.31058502" lon="-20.30531502"><ele>110.0</ele><time>2012-07-19T20:11:01.0000000+00:00</time></trkpt><trkpt lat="64.31058502" lon="-20.30531502"><ele>110.0</ele><time>2012-07-19T20:11:06.0000000+00:00</time></trkpt><trkpt lat="64.31058502" lon="-20.30531502"><ele>110.0</ele><time>2012-07-19T20:11:11.0000000+00:00</time></trkpt><trkpt lat="64.31058502" lon="-20.30531502"><ele>110.0</ele><time>2012-07-19T20:11:16.0000000+00:00</time></trkpt><trkpt lat="64.31058502" lon="-20.30531502"><ele>110.0</ele><time>2012-07-19T20:11:21.0000000+00:00</time></trkpt><trkpt lat="64.31058502" lon="-20.30531502"><ele>110.0</ele><time>2012-07-19T20:11:26.0000000+00:00</time></trkpt><trkpt lat="64.31058502" lon="-20.30531502"><ele>110.0</ele><time>2012-07-19T20:11:31.0000000+00:00</time></trkpt><trkpt lat="64.31058502" lon="-20.30531502"><ele>110.0</ele><time>2012-07-19T20:11:36.0000000+00:00</time></trkpt><trkpt lat="64.31058502" lon="-20.30531693"><ele>110.0</ele><time>2012-07-19T20:11:41.0000000+00:00</time></trkpt><trkpt lat="64.31058502" lon="-20.30531693"><ele>110.0</ele><time>2012-07-19T20:11:46.0000000+00:00</time></trkpt><trkpt lat="64.31058502" lon="-20.30531693"><ele>110.0</ele><time>2012-07-19T20:11:51.0000000+00:00</time></trkpt><trkpt lat="64.31058502" lon="-20.30531693"><ele>110.0</ele><time>2012-07-19T20:11:56.0000000+00:00</time></trkpt><trkpt lat="64.31058502" lon="-20.30531693"><ele>110.0</ele><time>2012-07-19T20:12:01.0000000+00:00</time></trkpt><trkpt lat="64.31058502" lon="-20.30531693"><ele>110.0</ele><time>2012-07-19T20:12:06.0000000+00:00</time></trkpt><trkpt lat="64.31058502" lon="-20.30531693"><ele>110.0</ele><time>2012-07-19T20:12:11.0000000+00:00</time></trkpt><trkpt lat="64.31058502" lon="-20.30531502"><ele>110.0</ele><time>2012-07-19T20:12:16.0000000+00:00</time></trkpt><trkpt lat="64.31058502" lon="-20.30531502"><ele>110.0</ele><time>2012-07-19T20:12:21.0000000+00:00</time></trkpt><trkpt lat="64.31058502" lon="-20.30531502"><ele>110.1</ele><time>2012-07-19T20:12:26.0000000+00:00</time></trkpt><trkpt lat="64.31058502" lon="-20.30531693"><ele>110.1</ele><time>2012-07-19T20:12:31.0000000+00:00</time></trkpt><trkpt lat="64.31058502" lon="-20.30531502"><ele>110.1</ele><time>2012-07-19T20:12:36.0000000+00:00</time></trkpt><trkpt lat="64.31058502" lon="-20.30531502"><ele>110.0</ele><time>2012-07-19T20:12:41.0000000+00:00</time></trkpt><trkpt lat="64.31058502" lon="-20.30531502"><ele>110.0</ele><time>2012-07-19T20:12:46.0000000+00:00</time></trkpt><trkpt lat="64.31058502" lon="-20.30531502"><ele>110.0</ele><time>2012-07-19T20:12:51.0000000+00:00</time></trkpt><trkpt lat="64.31058502" lon="-20.30531502"><ele>110.0</ele><time>2012-07-19T20:12:56.0000000+00:00</time></trkpt><trkpt lat="64.31058502" lon="-20.30531502"><ele>110.0</ele><time>2012-07-19T20:13:01.0000000+00:00</time></trkpt><trkpt lat="64.31058502" lon="-20.30531502"><ele>110.0</ele><time>2012-07-19T20:13:06.0000000+00:00</time></trkpt><trkpt lat="64.31058502" lon="-20.30531502"><ele>110.0</ele><time>2012-07-19T20:13:11.0000000+00:00</time></trkpt><trkpt lat="64.31058502" lon="-20.30531502"><ele>110.0</ele><time>2012-07-19T20:13:16.0000000+00:00</time></trkpt><trkpt lat="64.31058502" lon="-20.30531502"><ele>110.0</ele><time>2012-07-19T20:13:21.0000000+00:00</time></trkpt><trkpt lat="64.31058502" lon="-20.30531502"><ele>110.0</ele><time>2012-07-19T20:13:26.0000000+00:00</time></trkpt><trkpt lat="64.31058502" lon="-20.30531502"><ele>110.0</ele><time>2012-07-19T20:13:31.0000000+00:00</time></trkpt><trkpt lat="64.31058502" lon="-20.30531693"><ele>110.0</ele><time>2012-07-19T20:13:36.0000000+00:00</time></trkpt><trkpt lat="64.31058502" lon="-20.30531693"><ele>110.1</ele><time>2012-07-19T20:13:41.0000000+00:00</time></trkpt><trkpt lat="64.31058502" lon="-20.30531693"><ele>110.1</ele><time>2012-07-19T20:13:46.0000000+00:00</time></trkpt><trkpt lat="64.31058502" lon="-20.30531693"><ele>110.1</ele><time>2012-07-19T20:13:51.0000000+00:00</time></trkpt><trkpt lat="64.31058502" lon="-20.30531693"><ele>110.1</ele><time>2012-07-19T20:13:56.0000000+00:00</time></trkpt><trkpt lat="64.31058502" lon="-20.30531883"><ele>110.1</ele><time>2012-07-19T20:14:01.0000000+00:00</time></trkpt><trkpt lat="64.31058502" lon="-20.30531883"><ele>110.1</ele><time>2012-07-19T20:14:06.0000000+00:00</time></trkpt><trkpt lat="64.31058502" lon="-20.30531883"><ele>110.1</ele><time>2012-07-19T20:14:11.0000000+00:00</time></trkpt><trkpt lat="64.31058502" lon="-20.30531883"><ele>110.1</ele><time>2012-07-19T20:14:16.0000000+00:00</time></trkpt><trkpt lat="64.31058502" lon="-20.30531883"><ele>110.1</ele><time>2012-07-19T20:14:21.0000000+00:00</time></trkpt><trkpt lat="64.31058502" lon="-20.30531883"><ele>110.1</ele><time>2012-07-19T20:14:26.0000000+00:00</time></trkpt><trkpt lat="64.31059265" lon="-20.30531883"><ele>110.0</ele><time>2012-07-19T20:14:31.0000000+00:00</time></trkpt><trkpt lat="64.31059265" lon="-20.30531883"><ele>110.0</ele><time>2012-07-19T20:14:36.0000000+00:00</time></trkpt><trkpt lat="64.31059265" lon="-20.30531883"><ele>110.0</ele><time>2012-07-19T20:14:41.0000000+00:00</time></trkpt><trkpt lat="64.31059265" lon="-20.30531883"><ele>110.0</ele><time>2012-07-19T20:14:46.0000000+00:00</time></trkpt><trkpt lat="64.31059265" lon="-20.30531883"><ele>110.0</ele><time>2012-07-19T20:14:51.0000000+00:00</time></trkpt><trkpt lat="64.31059265" lon="-20.30531883"><ele>110.0</ele><time>2012-07-19T20:14:56.0000000+00:00</time></trkpt><trkpt lat="64.31059265" lon="-20.30531883"><ele>110.0</ele><time>2012-07-19T20:15:01.0000000+00:00</time></trkpt><trkpt lat="64.31059265" lon="-20.30532074"><ele>110.0</ele><time>2012-07-19T20:15:06.0000000+00:00</time></trkpt><trkpt lat="64.31059265" lon="-20.30532074"><ele>110.0</ele><time>2012-07-19T20:15:11.0000000+00:00</time></trkpt><trkpt lat="64.31059265" lon="-20.30532074"><ele>110.0</ele><time>2012-07-19T20:15:16.0000000+00:00</time></trkpt><trkpt lat="64.31059265" lon="-20.30532074"><ele>110.0</ele><time>2012-07-19T20:15:21.0000000+00:00</time></trkpt><trkpt lat="64.31059265" lon="-20.30532074"><ele>110.0</ele><time>2012-07-19T20:15:26.0000000+00:00</time></trkpt><trkpt lat="64.31059265" lon="-20.30532074"><ele>110.0</ele><time>2012-07-19T20:15:31.0000000+00:00</time></trkpt><trkpt lat="64.31059265" lon="-20.30532074"><ele>110.0</ele><time>2012-07-19T20:15:36.0000000+00:00</time></trkpt><trkpt lat="64.31059265" lon="-20.30532074"><ele>110.0</ele><time>2012-07-19T20:15:41.0000000+00:00</time></trkpt><trkpt lat="64.31059265" lon="-20.30532074"><ele>110.0</ele><time>2012-07-19T20:15:46.0000000+00:00</time></trkpt><trkpt lat="64.31059265" lon="-20.30532074"><ele>110.0</ele><time>2012-07-19T20:15:51.0000000+00:00</time></trkpt><trkpt lat="64.31059265" lon="-20.30532074"><ele>110.0</ele><time>2012-07-19T20:15:56.0000000+00:00</time></trkpt><trkpt lat="64.31059265" lon="-20.30532074"><ele>110.0</ele><time>2012-07-19T20:16:01.0000000+00:00</time></trkpt><trkpt lat="64.31059265" lon="-20.30532074"><ele>110.1</ele><time>2012-07-19T20:16:06.0000000+00:00</time></trkpt><trkpt lat="64.31059265" lon="-20.30532074"><ele>110.1</ele><time>2012-07-19T20:16:11.0000000+00:00</time></trkpt><trkpt lat="64.31059265" lon="-20.30532074"><ele>110.1</ele><time>2012-07-19T20:16:16.0000000+00:00</time></trkpt><trkpt lat="64.31059265" lon="-20.30532074"><ele>110.1</ele><time>2012-07-19T20:16:21.0000000+00:00</time></trkpt><trkpt lat="64.31059265" lon="-20.30532074"><ele>110.2</ele><time>2012-07-19T20:16:26.0000000+00:00</time></trkpt><trkpt lat="64.31059265" lon="-20.30532074"><ele>110.2</ele><time>2012-07-19T20:16:31.0000000+00:00</time></trkpt><trkpt lat="64.31059265" lon="-20.30532074"><ele>110.2</ele><time>2012-07-19T20:16:36.0000000+00:00</time></trkpt><trkpt lat="64.31059265" lon="-20.30532074"><ele>110.2</ele><time>2012-07-19T20:16:41.0000000+00:00</time></trkpt><trkpt lat="64.31059265" lon="-20.30532074"><ele>110.2</ele><time>2012-07-19T20:16:46.0000000+00:00</time></trkpt><trkpt lat="64.31059265" lon="-20.30532074"><ele>110.3</ele><time>2012-07-19T20:16:51.0000000+00:00</time></trkpt><trkpt lat="64.31058502" lon="-20.30532074"><ele>110.3</ele><time>2012-07-19T20:16:56.0000000+00:00</time></trkpt><trkpt lat="64.31058502" lon="-20.30532074"><ele>110.3</ele><time>2012-07-19T20:17:01.0000000+00:00</time></trkpt><trkpt lat="64.31058502" lon="-20.30532074"><ele>110.3</ele><time>2012-07-19T20:17:06.0000000+00:00</time></trkpt><trkpt lat="64.31058502" lon="-20.30532074"><ele>110.3</ele><time>2012-07-19T20:17:11.0000000+00:00</time></trkpt><trkpt lat="64.31059265" lon="-20.30532074"><ele>110.3</ele><time>2012-07-19T20:17:16.0000000+00:00</time></trkpt><trkpt lat="64.31059265" lon="-20.30532074"><ele>110.3</ele><time>2012-07-19T20:17:21.0000000+00:00</time></trkpt><trkpt lat="64.31058502" lon="-20.30532074"><ele>110.3</ele><time>2012-07-19T20:17:26.0000000+00:00</time></trkpt><trkpt lat="64.31058502" lon="-20.30532074"><ele>110.3</ele><time>2012-07-19T20:17:31.0000000+00:00</time></trkpt><trkpt lat="64.31058502" lon="-20.30532074"><ele>110.3</ele><time>2012-07-19T20:17:36.0000000+00:00</time></trkpt><trkpt lat="64.31058502" lon="-20.30532074"><ele>110.3</ele><time>2012-07-19T20:17:41.0000000+00:00</time></trkpt><trkpt lat="64.31059265" lon="-20.30532074"><ele>110.3</ele><time>2012-07-19T20:17:46.0000000+00:00</time></trkpt><trkpt lat="64.31059265" lon="-20.30532074"><ele>110.3</ele><time>2012-07-19T20:17:51.0000000+00:00</time></trkpt><trkpt lat="64.31059265" lon="-20.30532074"><ele>110.2</ele><time>2012-07-19T20:17:56.0000000+00:00</time></trkpt><trkpt lat="64.31059265" lon="-20.30532074"><ele>110.2</ele><time>2012-07-19T20:18:01.0000000+00:00</time></trkpt><trkpt lat="64.31059265" lon="-20.30532074"><ele>110.2</ele><time>2012-07-19T20:18:06.0000000+00:00</time></trkpt><trkpt lat="64.31059265" lon="-20.30531883"><ele>110.2</ele><time>2012-07-19T20:18:11.0000000+00:00</time></trkpt><trkpt lat="64.31059265" lon="-20.30531883"><ele>110.2</ele><time>2012-07-19T20:18:16.0000000+00:00</time></trkpt><trkpt lat="64.31059265" lon="-20.30531883"><ele>110.2</ele><time>2012-07-19T20:18:21.0000000+00:00</time></trkpt><trkpt lat="64.31059265" lon="-20.30531883"><ele>110.2</ele><time>2012-07-19T20:18:26.0000000+00:00</time></trkpt><trkpt lat="64.31059265" lon="-20.30531883"><ele>110.2</ele><time>2012-07-19T20:18:31.0000000+00:00</time></trkpt><trkpt lat="64.31059265" lon="-20.30531883"><ele>110.2</ele><time>2012-07-19T20:18:36.0000000+00:00</time></trkpt><trkpt lat="64.31059265" lon="-20.30531883"><ele>110.2</ele><time>2012-07-19T20:18:41.0000000+00:00</time></trkpt><trkpt lat="64.31059265" lon="-20.30531883"><ele>110.2</ele><time>2012-07-19T20:18:46.0000000+00:00</time></trkpt><trkpt lat="64.31059265" lon="-20.30531883"><ele>110.2</ele><time>2012-07-19T20:18:51.0000000+00:00</time></trkpt><trkpt lat="64.31059265" lon="-20.30531883"><ele>110.2</ele><time>2012-07-19T20:18:56.0000000+00:00</time></trkpt><trkpt lat="64.31058502" lon="-20.30531693"><ele>110.2</ele><time>2012-07-19T20:19:01.0000000+00:00</time></trkpt><trkpt lat="64.31058502" lon="-20.30531693"><ele>110.2</ele><time>2012-07-19T20:19:06.0000000+00:00</time></trkpt><trkpt lat="64.31058502" lon="-20.30531693"><ele>110.2</ele><time>2012-07-19T20:19:11.0000000+00:00</time></trkpt><trkpt lat="64.31058502" lon="-20.30531883"><ele>110.3</ele><time>2012-07-19T20:19:16.0000000+00:00</time></trkpt><trkpt lat="64.31058502" lon="-20.30531883"><ele>110.3</ele><time>2012-07-19T20:19:21.0000000+00:00</time></trkpt><trkpt lat="64.31058502" lon="-20.30531883"><ele>110.3</ele><time>2012-07-19T20:19:26.0000000+00:00</time></trkpt><trkpt lat="64.31059265" lon="-20.30531883"><ele>110.3</ele><time>2012-07-19T20:19:31.0000000+00:00</time></trkpt><trkpt lat="64.31059265" lon="-20.30531883"><ele>110.3</ele><time>2012-07-19T20:19:36.0000000+00:00</time></trkpt><trkpt lat="64.31059265" lon="-20.30531883"><ele>110.3</ele><time>2012-07-19T20:19:41.0000000+00:00</time></trkpt><trkpt lat="64.31059265" lon="-20.30531883"><ele>110.3</ele><time>2012-07-19T20:19:46.0000000+00:00</time></trkpt><trkpt lat="64.31059265" lon="-20.30531883"><ele>110.3</ele><time>2012-07-19T20:19:51.0000000+00:00</time></trkpt><trkpt lat="64.31059265" lon="-20.30531883"><ele>110.3</ele><time>2012-07-19T20:19:56.0000000+00:00</time></trkpt><trkpt lat="64.31059265" lon="-20.30531883"><ele>110.3</ele><time>2012-07-19T20:20:01.0000000+00:00</time></trkpt><trkpt lat="64.31059265" lon="-20.30531883"><ele>110.2</ele><time>2012-07-19T20:20:06.0000000+00:00</time></trkpt><trkpt lat="64.31059265" lon="-20.30531883"><ele>110.2</ele><time>2012-07-19T20:20:11.0000000+00:00</time></trkpt><trkpt lat="64.31059265" lon="-20.30531883"><ele>110.2</ele><time>2012-07-19T20:20:16.0000000+00:00</time></trkpt><trkpt lat="64.31059265" lon="-20.30531883"><ele>110.2</ele><time>2012-07-19T20:20:21.0000000+00:00</time></trkpt><trkpt lat="64.31059265" lon="-20.30531693"><ele>110.2</ele><time>2012-07-19T20:20:26.0000000+00:00</time></trkpt><trkpt lat="64.31059265" lon="-20.30531693"><ele>110.2</ele><time>2012-07-19T20:20:31.0000000+00:00</time></trkpt><trkpt lat="64.31058502" lon="-20.30531693"><ele>110.2</ele><time>2012-07-19T20:20:36.0000000+00:00</time></trkpt><trkpt lat="64.31058502" lon="-20.30531693"><ele>110.2</ele><time>2012-07-19T20:20:41.0000000+00:00</time></trkpt><trkpt lat="64.31058502" lon="-20.30531693"><ele>110.2</ele><time>2012-07-19T20:20:46.0000000+00:00</time></trkpt><trkpt lat="64.31058502" lon="-20.30531693"><ele>110.3</ele><time>2012-07-19T20:20:51.0000000+00:00</time></trkpt><trkpt lat="64.31058502" lon="-20.30531693"><ele>110.3</ele><time>2012-07-19T20:20:56.0000000+00:00</time></trkpt><trkpt lat="64.31058502" lon="-20.30531693"><ele>110.3</ele><time>2012-07-19T20:21:01.0000000+00:00</time></trkpt><trkpt lat="64.31058502" lon="-20.30531693"><ele>110.3</ele><time>2012-07-19T20:21:06.0000000+00:00</time></trkpt><trkpt lat="64.31058502" lon="-20.30531693"><ele>110.3</ele><time>2012-07-19T20:21:11.0000000+00:00</time></trkpt><trkpt lat="64.31058502" lon="-20.30531693"><ele>110.3</ele><time>2012-07-19T20:21:16.0000000+00:00</time></trkpt><trkpt lat="64.31058502" lon="-20.30531693"><ele>110.3</ele><time>2012-07-19T20:21:21.0000000+00:00</time></trkpt><trkpt lat="64.31058502" lon="-20.30531693"><ele>110.3</ele><time>2012-07-19T20:21:26.0000000+00:00</time></trkpt><trkpt lat="64.31058502" lon="-20.30531693"><ele>110.3</ele><time>2012-07-19T20:21:31.0000000+00:00</time></trkpt><trkpt lat="64.31058502" lon="-20.30531693"><ele>110.3</ele><time>2012-07-19T20:21:36.0000000+00:00</time></trkpt><trkpt lat="64.31058502" lon="-20.30531693"><ele>110.3</ele><time>2012-07-19T20:21:41.0000000+00:00</time></trkpt><trkpt lat="64.31058502" lon="-20.30531693"><ele>110.4</ele><time>2012-07-19T20:21:46.0000000+00:00</time></trkpt><trkpt lat="64.31058502" lon="-20.30531693"><ele>110.4</ele><time>2012-07-19T20:21:51.0000000+00:00</time></trkpt><trkpt lat="64.31058502" lon="-20.30531693"><ele>110.4</ele><time>2012-07-19T20:21:56.0000000+00:00</time></trkpt><trkpt lat="64.31058502" lon="-20.30531693"><ele>110.4</ele><time>2012-07-19T20:22:01.0000000+00:00</time></trkpt><trkpt lat="64.31058502" lon="-20.30531693"><ele>110.4</ele><time>2012-07-19T20:22:06.0000000+00:00</time></trkpt><trkpt lat="64.31058502" lon="-20.30531693"><ele>110.4</ele><time>2012-07-19T20:22:11.0000000+00:00</time></trkpt><trkpt lat="64.31058502" lon="-20.30531693"><ele>110.4</ele><time>2012-07-19T20:22:16.0000000+00:00</time></trkpt><trkpt lat="64.31058502" lon="-20.30531693"><ele>110.4</ele><time>2012-07-19T20:22:21.0000000+00:00</time></trkpt><trkpt lat="64.31058502" lon="-20.30531693"><ele>110.4</ele><time>2012-07-19T20:22:26.0000000+00:00</time></trkpt><trkpt lat="64.31058502" lon="-20.30531883"><ele>110.4</ele><time>2012-07-19T20:22:31.0000000+00:00</time></trkpt><trkpt lat="64.31058502" lon="-20.30531883"><ele>110.4</ele><time>2012-07-19T20:22:36.0000000+00:00</time></trkpt><trkpt lat="64.31058502" lon="-20.30531883"><ele>110.4</ele><time>2012-07-19T20:22:41.0000000+00:00</time></trkpt><trkpt lat="64.31058502" lon="-20.30531693"><ele>110.4</ele><time>2012-07-19T20:22:46.0000000+00:00</time></trkpt><trkpt lat="64.31058502" lon="-20.30531693"><ele>110.4</ele><time>2012-07-19T20:22:51.0000000+00:00</time></trkpt><trkpt lat="64.31058502" lon="-20.30531693"><ele>110.4</ele><time>2012-07-19T20:22:56.0000000+00:00</time></trkpt><trkpt lat="64.31058502" lon="-20.30531693"><ele>110.4</ele><time>2012-07-19T20:23:01.0000000+00:00</time></trkpt><trkpt lat="64.31058502" lon="-20.30531693"><ele>110.5</ele><time>2012-07-19T20:23:06.0000000+00:00</time></trkpt><trkpt lat="64.31058502" lon="-20.30531693"><ele>110.5</ele><time>2012-07-19T20:23:11.0000000+00:00</time></trkpt><trkpt lat="64.31058502" lon="-20.30531693"><ele>110.5</ele><time>2012-07-19T20:23:16.0000000+00:00</time></trkpt><trkpt lat="64.31058502" lon="-20.30531693"><ele>110.5</ele><time>2012-07-19T20:23:21.0000000+00:00</time></trkpt><trkpt lat="64.31058502" lon="-20.30531693"><ele>110.5</ele><time>2012-07-19T20:23:26.0000000+00:00</time></trkpt><trkpt lat="64.31058502" lon="-20.30531693"><ele>110.5</ele><time>2012-07-19T20:23:31.0000000+00:00</time></trkpt><trkpt lat="64.31058502" lon="-20.30531693"><ele>110.5</ele><time>2012-07-19T20:23:36.0000000+00:00</time></trkpt><trkpt lat="64.31058502" lon="-20.30531693"><ele>110.5</ele><time>2012-07-19T20:23:41.0000000+00:00</time></trkpt><trkpt lat="64.31058502" lon="-20.30531693"><ele>110.5</ele><time>2012-07-19T20:23:46.0000000+00:00</time></trkpt><trkpt lat="64.31058502" lon="-20.30531693"><ele>110.5</ele><time>2012-07-19T20:23:51.0000000+00:00</time></trkpt><trkpt lat="64.31058502" lon="-20.30531693"><ele>110.5</ele><time>2012-07-19T20:23:56.0000000+00:00</time></trkpt><trkpt lat="64.31058502" lon="-20.30531693"><ele>110.5</ele><time>2012-07-19T20:24:01.0000000+00:00</time></trkpt><trkpt lat="64.31058502" lon="-20.30531693"><ele>110.5</ele><time>2012-07-19T20:24:06.0000000+00:00</time></trkpt><trkpt lat="64.31058502" lon="-20.30531693"><ele>110.5</ele><time>2012-07-19T20:24:11.0000000+00:00</time></trkpt><trkpt lat="64.31058502" lon="-20.30531693"><ele>110.5</ele><time>2012-07-19T20:24:16.0000000+00:00</time></trkpt><trkpt lat="64.31058502" lon="-20.30531693"><ele>110.5</ele><time>2012-07-19T20:24:21.0000000+00:00</time></trkpt><trkpt lat="64.31058502" lon="-20.30531502"><ele>110.5</ele><time>2012-07-19T20:24:26.0000000+00:00</time></trkpt><trkpt lat="64.31058502" lon="-20.30531693"><ele>110.5</ele><time>2012-07-19T20:24:31.0000000+00:00</time></trkpt><trkpt lat="64.31058502" lon="-20.30531502"><ele>110.4</ele><time>2012-07-19T20:24:36.0000000+00:00</time></trkpt><trkpt lat="64.31058502" lon="-20.30531502"><ele>110.4</ele><time>2012-07-19T20:24:41.0000000+00:00</time></trkpt><trkpt lat="64.31058502" lon="-20.30531502"><ele>110.4</ele><time>2012-07-19T20:24:46.0000000+00:00</time></trkpt><trkpt lat="64.31058502" lon="-20.30531502"><ele>110.5</ele><time>2012-07-19T20:24:51.0000000+00:00</time></trkpt><trkpt lat="64.31057739" lon="-20.30531502"><ele>110.5</ele><time>2012-07-19T20:24:56.0000000+00:00</time></trkpt><trkpt lat="64.31057739" lon="-20.30531693"><ele>110.5</ele><time>2012-07-19T20:25:01.0000000+00:00</time></trkpt><trkpt lat="64.31057739" lon="-20.30531693"><ele>110.5</ele><time>2012-07-19T20:25:06.0000000+00:00</time></trkpt><trkpt lat="64.31057739" lon="-20.30531693"><ele>110.5</ele><time>2012-07-19T20:25:11.0000000+00:00</time></trkpt><trkpt lat="64.31058502" lon="-20.30531693"><ele>110.5</ele><time>2012-07-19T20:25:16.0000000+00:00</time></trkpt><trkpt lat="64.31058502" lon="-20.30531693"><ele>110.5</ele><time>2012-07-19T20:25:21.0000000+00:00</time></trkpt><trkpt lat="64.31058502" lon="-20.30531693"><ele>110.5</ele><time>2012-07-19T20:25:26.0000000+00:00</time></trkpt><trkpt lat="64.31058502" lon="-20.30531693"><ele>110.5</ele><time>2012-07-19T20:25:31.0000000+00:00</time></trkpt><trkpt lat="64.31058502" lon="-20.30531693"><ele>110.5</ele><time>2012-07-19T20:25:36.0000000+00:00</time></trkpt><trkpt lat="64.31058502" lon="-20.30531693"><ele>110.5</ele><time>2012-07-19T20:25:41.0000000+00:00</time></trkpt><trkpt lat="64.31058502" lon="-20.30531693"><ele>110.5</ele><time>2012-07-19T20:25:46.0000000+00:00</time></trkpt><trkpt lat="64.31058502" lon="-20.30531693"><ele>110.5</ele><time>2012-07-19T20:25:51.0000000+00:00</time></trkpt><trkpt lat="64.31058502" lon="-20.30531693"><ele>110.5</ele><time>2012-07-19T20:25:56.0000000+00:00</time></trkpt><trkpt lat="64.31058502" lon="-20.30531502"><ele>110.5</ele><time>2012-07-19T20:26:01.0000000+00:00</time></trkpt><trkpt lat="64.31058502" lon="-20.30531502"><ele>110.6</ele><time>2012-07-19T20:26:06.0000000+00:00</time></trkpt><trkpt lat="64.31058502" lon="-20.30531502"><ele>110.6</ele><time>2012-07-19T20:26:11.0000000+00:00</time></trkpt><trkpt lat="64.31058502" lon="-20.30531502"><ele>110.5</ele><time>2012-07-19T20:26:16.0000000+00:00</time></trkpt><trkpt lat="64.31058502" lon="-20.30531502"><ele>110.6</ele><time>2012-07-19T20:26:21.0000000+00:00</time></trkpt><trkpt lat="64.31058502" lon="-20.30531502"><ele>110.6</ele><time>2012-07-19T20:26:26.0000000+00:00</time></trkpt><trkpt lat="64.31058502" lon="-20.30531502"><ele>110.6</ele><time>2012-07-19T20:26:31.0000000+00:00</time></trkpt><trkpt lat="64.31058502" lon="-20.30531502"><ele>110.7</ele><time>2012-07-19T20:26:36.0000000+00:00</time></trkpt><trkpt lat="64.31058502" lon="-20.30531502"><ele>110.7</ele><time>2012-07-19T20:26:41.0000000+00:00</time></trkpt><trkpt lat="64.31058502" lon="-20.30531502"><ele>110.7</ele><time>2012-07-19T20:26:46.0000000+00:00</time></trkpt><trkpt lat="64.31058502" lon="-20.30531502"><ele>110.7</ele><time>2012-07-19T20:26:51.0000000+00:00</time></trkpt><trkpt lat="64.31058502" lon="-20.30531502"><ele>110.7</ele><time>2012-07-19T20:26:56.0000000+00:00</time></trkpt><trkpt lat="64.31058502" lon="-20.30531502"><ele>110.7</ele><time>2012-07-19T20:27:01.0000000+00:00</time></trkpt><trkpt lat="64.31058502" lon="-20.30531502"><ele>110.7</ele><time>2012-07-19T20:27:06.0000000+00:00</time></trkpt><trkpt lat="64.31058502" lon="-20.30531311"><ele>110.7</ele><time>2012-07-19T20:27:11.0000000+00:00</time></trkpt><trkpt lat="64.31058502" lon="-20.30531311"><ele>110.7</ele><time>2012-07-19T20:27:16.0000000+00:00</time></trkpt><trkpt lat="64.31058502" lon="-20.30531311"><ele>110.8</ele><time>2012-07-19T20:27:21.0000000+00:00</time></trkpt><trkpt lat="64.31058502" lon="-20.30531311"><ele>110.8</ele><time>2012-07-19T20:27:26.0000000+00:00</time></trkpt><trkpt lat="64.31058502" lon="-20.30531311"><ele>110.8</ele><time>2012-07-19T20:27:31.0000000+00:00</time></trkpt><trkpt lat="64.31057739" lon="-20.30531311"><ele>110.8</ele><time>2012-07-19T20:27:36.0000000+00:00</time></trkpt><trkpt lat="64.31057739" lon="-20.30531311"><ele>110.8</ele><time>2012-07-19T20:27:41.0000000+00:00</time></trkpt><trkpt lat="64.31057739" lon="-20.30531311"><ele>110.9</ele><time>2012-07-19T20:27:46.0000000+00:00</time></trkpt><trkpt lat="64.31057739" lon="-20.3053112"><ele>110.9</ele><time>2012-07-19T20:27:51.0000000+00:00</time></trkpt><trkpt lat="64.31057739" lon="-20.3053112"><ele>110.9</ele><time>2012-07-19T20:27:56.0000000+00:00</time></trkpt><trkpt lat="64.31057739" lon="-20.3053112"><ele>110.9</ele><time>2012-07-19T20:28:01.0000000+00:00</time></trkpt><trkpt lat="64.31057739" lon="-20.3053112"><ele>110.9</ele><time>2012-07-19T20:28:06.0000000+00:00</time></trkpt><trkpt lat="64.31057739" lon="-20.3053112"><ele>110.9</ele><time>2012-07-19T20:28:11.0000000+00:00</time></trkpt><trkpt lat="64.31057739" lon="-20.3053112"><ele>110.9</ele><time>2012-07-19T20:28:16.0000000+00:00</time></trkpt><trkpt lat="64.31057739" lon="-20.3053112"><ele>110.9</ele><time>2012-07-19T20:28:21.0000000+00:00</time></trkpt><trkpt lat="64.31057739" lon="-20.3053112"><ele>111.0</ele><time>2012-07-19T20:28:26.0000000+00:00</time></trkpt><trkpt lat="64.31057739" lon="-20.3053112"><ele>111.0</ele><time>2012-07-19T20:28:31.0000000+00:00</time></trkpt><trkpt lat="64.31057739" lon="-20.3053112"><ele>111.0</ele><time>2012-07-19T20:28:36.0000000+00:00</time></trkpt><trkpt lat="64.31057739" lon="-20.3053112"><ele>111.0</ele><time>2012-07-19T20:28:41.0000000+00:00</time></trkpt><trkpt lat="64.31057739" lon="-20.3053112"><ele>111.0</ele><time>2012-07-19T20:28:46.0000000+00:00</time></trkpt><trkpt lat="64.31057739" lon="-20.3053112"><ele>111.0</ele><time>2012-07-19T20:28:51.0000000+00:00</time></trkpt><trkpt lat="64.31057739" lon="-20.3053112"><ele>111.0</ele><time>2012-07-19T20:28:56.0000000+00:00</time></trkpt><trkpt lat="64.31057739" lon="-20.3053093"><ele>111.0</ele><time>2012-07-19T20:29:01.0000000+00:00</time></trkpt><trkpt lat="64.31057739" lon="-20.3053093"><ele>111.0</ele><time>2012-07-19T20:29:06.0000000+00:00</time></trkpt><trkpt lat="64.31057739" lon="-20.3053093"><ele>111.0</ele><time>2012-07-19T20:29:11.0000000+00:00</time></trkpt><trkpt lat="64.31057739" lon="-20.3053093"><ele>111.0</ele><time>2012-07-19T20:29:16.0000000+00:00</time></trkpt><trkpt lat="64.31057739" lon="-20.3053093"><ele>111.0</ele><time>2012-07-19T20:29:21.0000000+00:00</time></trkpt><trkpt lat="64.31057739" lon="-20.3053093"><ele>111.0</ele><time>2012-07-19T20:29:26.0000000+00:00</time></trkpt><trkpt lat="64.31057739" lon="-20.3053093"><ele>111.0</ele><time>2012-07-19T20:29:31.0000000+00:00</time></trkpt><trkpt lat="64.31057739" lon="-20.3053093"><ele>111.0</ele><time>2012-07-19T20:29:36.0000000+00:00</time></trkpt><trkpt lat="64.31057739" lon="-20.30530739"><ele>111.0</ele><time>2012-07-19T20:29:41.0000000+00:00</time></trkpt><trkpt lat="64.31057739" lon="-20.30530739"><ele>111.0</ele><time>2012-07-19T20:29:46.0000000+00:00</time></trkpt><trkpt lat="64.31057739" lon="-20.30530739"><ele>111.0</ele><time>2012-07-19T20:29:51.0000000+00:00</time></trkpt><trkpt lat="64.31057739" lon="-20.30530739"><ele>111.0</ele><time>2012-07-19T20:29:56.0000000+00:00</time></trkpt><trkpt lat="64.31057739" lon="-20.30530739"><ele>111.1</ele><time>2012-07-19T20:30:01.0000000+00:00</time></trkpt><trkpt lat="64.31057739" lon="-20.30530739"><ele>111.1</ele><time>2012-07-19T20:30:06.0000000+00:00</time></trkpt><trkpt lat="64.31057739" lon="-20.30530739"><ele>111.1</ele><time>2012-07-19T20:30:11.0000000+00:00</time></trkpt><trkpt lat="64.31057739" lon="-20.30530548"><ele>111.1</ele><time>2012-07-19T20:30:16.0000000+00:00</time></trkpt><trkpt lat="64.31057739" lon="-20.30530548"><ele>111.2</ele><time>2012-07-19T20:30:21.0000000+00:00</time></trkpt><trkpt lat="64.31057739" lon="-20.30530548"><ele>111.2</ele><time>2012-07-19T20:30:26.0000000+00:00</time></trkpt><trkpt lat="64.31057739" lon="-20.30530548"><ele>111.2</ele><time>2012-07-19T20:30:31.0000000+00:00</time></trkpt><trkpt lat="64.31057739" lon="-20.30530548"><ele>111.2</ele><time>2012-07-19T20:30:36.0000000+00:00</time></trkpt><trkpt lat="64.31057739" lon="-20.30530548"><ele>111.3</ele><time>2012-07-19T20:30:41.0000000+00:00</time></trkpt><trkpt lat="64.31057739" lon="-20.30530548"><ele>111.3</ele><time>2012-07-19T20:30:46.0000000+00:00</time></trkpt><trkpt lat="64.31057739" lon="-20.30530548"><ele>111.3</ele><time>2012-07-19T20:30:51.0000000+00:00</time></trkpt><trkpt lat="64.31057739" lon="-20.30530548"><ele>111.4</ele><time>2012-07-19T20:30:56.0000000+00:00</time></trkpt><trkpt lat="64.31057739" lon="-20.30530548"><ele>111.4</ele><time>2012-07-19T20:31:01.0000000+00:00</time></trkpt><trkpt lat="64.31057739" lon="-20.30530548"><ele>111.4</ele><time>2012-07-19T20:31:06.0000000+00:00</time></trkpt><trkpt lat="64.31057739" lon="-20.30530548"><ele>111.4</ele><time>2012-07-19T20:31:11.0000000+00:00</time></trkpt><trkpt lat="64.31057739" lon="-20.30530548"><ele>111.5</ele><time>2012-07-19T20:31:16.0000000+00:00</time></trkpt><trkpt lat="64.31057739" lon="-20.30530548"><ele>111.5</ele><time>2012-07-19T20:31:21.0000000+00:00</time></trkpt><trkpt lat="64.31057739" lon="-20.30530357"><ele>111.5</ele><time>2012-07-19T20:31:26.0000000+00:00</time></trkpt><trkpt lat="64.31057739" lon="-20.30530357"><ele>111.5</ele><time>2012-07-19T20:31:31.0000000+00:00</time></trkpt><trkpt lat="64.31057739" lon="-20.30530357"><ele>111.5</ele><time>2012-07-19T20:31:36.0000000+00:00</time></trkpt><trkpt lat="64.31058502" lon="-20.30530357"><ele>111.5</ele><time>2012-07-19T20:31:41.0000000+00:00</time></trkpt><trkpt lat="64.31058502" lon="-20.30530548"><ele>111.5</ele><time>2012-07-19T20:31:46.0000000+00:00</time></trkpt><trkpt lat="64.31058502" lon="-20.30530357"><ele>111.6</ele><time>2012-07-19T20:31:51.0000000+00:00</time></trkpt><trkpt lat="64.31058502" lon="-20.30530357"><ele>111.6</ele><time>2012-07-19T20:31:56.0000000+00:00</time></trkpt><trkpt lat="64.31058502" lon="-20.30530357"><ele>111.6</ele><time>2012-07-19T20:32:01.0000000+00:00</time></trkpt><trkpt lat="64.31058502" lon="-20.30530357"><ele>111.7</ele><time>2012-07-19T20:32:06.0000000+00:00</time></trkpt><trkpt lat="64.31058502" lon="-20.30530357"><ele>111.7</ele><time>2012-07-19T20:32:11.0000000+00:00</time></trkpt><trkpt lat="64.31058502" lon="-20.30530357"><ele>111.7</ele><time>2012-07-19T20:32:16.0000000+00:00</time></trkpt><trkpt lat="64.31058502" lon="-20.30530167"><ele>111.8</ele><time>2012-07-19T20:32:21.0000000+00:00</time></trkpt><trkpt lat="64.31058502" lon="-20.30530167"><ele>111.8</ele><time>2012-07-19T20:32:26.0000000+00:00</time></trkpt><trkpt lat="64.31058502" lon="-20.30530167"><ele>111.9</ele><time>2012-07-19T20:32:31.0000000+00:00</time></trkpt><trkpt lat="64.31058502" lon="-20.30530167"><ele>111.9</ele><time>2012-07-19T20:32:36.0000000+00:00</time></trkpt><trkpt lat="64.31058502" lon="-20.30530167"><ele>111.9</ele><time>2012-07-19T20:32:41.0000000+00:00</time></trkpt><trkpt lat="64.31058502" lon="-20.30529976"><ele>111.9</ele><time>2012-07-19T20:32:46.0000000+00:00</time></trkpt><trkpt lat="64.31058502" lon="-20.30529976"><ele>111.9</ele><time>2012-07-19T20:32:51.0000000+00:00</time></trkpt><trkpt lat="64.31058502" lon="-20.30529976"><ele>112.0</ele><time>2012-07-19T20:32:56.0000000+00:00</time></trkpt><trkpt lat="64.31058502" lon="-20.30529976"><ele>112.0</ele><time>2012-07-19T20:33:01.0000000+00:00</time></trkpt><trkpt lat="64.31058502" lon="-20.30529976"><ele>112.0</ele><time>2012-07-19T20:33:06.0000000+00:00</time></trkpt><trkpt lat="64.31058502" lon="-20.30529976"><ele>112.0</ele><time>2012-07-19T20:33:11.0000000+00:00</time></trkpt><trkpt lat="64.31058502" lon="-20.30529976"><ele>112.0</ele><time>2012-07-19T20:33:16.0000000+00:00</time></trkpt><trkpt lat="64.31058502" lon="-20.30529976"><ele>112.1</ele><time>2012-07-19T20:33:21.0000000+00:00</time></trkpt><trkpt lat="64.31058502" lon="-20.30529976"><ele>112.1</ele><time>2012-07-19T20:33:26.0000000+00:00</time></trkpt><trkpt lat="64.31058502" lon="-20.30529976"><ele>112.1</ele><time>2012-07-19T20:33:31.0000000+00:00</time></trkpt><trkpt lat="64.31058502" lon="-20.30529976"><ele>112.2</ele><time>2012-07-19T20:33:36.0000000+00:00</time></trkpt><trkpt lat="64.31058502" lon="-20.30529976"><ele>112.2</ele><time>2012-07-19T20:33:41.0000000+00:00</time></trkpt><trkpt lat="64.31058502" lon="-20.30529976"><ele>112.2</ele><time>2012-07-19T20:33:46.0000000+00:00</time></trkpt><trkpt lat="64.31058502" lon="-20.30529976"><ele>112.2</ele><time>2012-07-19T20:33:51.0000000+00:00</time></trkpt><trkpt lat="64.31058502" lon="-20.30529976"><ele>112.2</ele><time>2012-07-19T20:33:56.0000000+00:00</time></trkpt><trkpt lat="64.31058502" lon="-20.30529976"><ele>112.2</ele><time>2012-07-19T20:34:01.0000000+00:00</time></trkpt><trkpt lat="64.31058502" lon="-20.30529785"><ele>112.2</ele><time>2012-07-19T20:34:06.0000000+00:00</time></trkpt><trkpt lat="64.31058502" lon="-20.30529785"><ele>112.2</ele><time>2012-07-19T20:34:11.0000000+00:00</time></trkpt><trkpt lat="64.31058502" lon="-20.30529785"><ele>112.2</ele><time>2012-07-19T20:34:16.0000000+00:00</time></trkpt><trkpt lat="64.31058502" lon="-20.30529785"><ele>112.2</ele><time>2012-07-19T20:34:21.0000000+00:00</time></trkpt><trkpt lat="64.31058502" lon="-20.30529785"><ele>112.2</ele><time>2012-07-19T20:34:26.0000000+00:00</time></trkpt><trkpt lat="64.31058502" lon="-20.30529785"><ele>112.3</ele><time>2012-07-19T20:34:31.0000000+00:00</time></trkpt><trkpt lat="64.31058502" lon="-20.30529594"><ele>112.3</ele><time>2012-07-19T20:34:36.0000000+00:00</time></trkpt><trkpt lat="64.31058502" lon="-20.30529594"><ele>112.3</ele><time>2012-07-19T20:34:41.0000000+00:00</time></trkpt><trkpt lat="64.31058502" lon="-20.30529594"><ele>112.3</ele><time>2012-07-19T20:34:46.0000000+00:00</time></trkpt><trkpt lat="64.31058502" lon="-20.30529594"><ele>112.3</ele><time>2012-07-19T20:34:51.0000000+00:00</time></trkpt><trkpt lat="64.31058502" lon="-20.30529594"><ele>112.3</ele><time>2012-07-19T20:34:56.0000000+00:00</time></trkpt><trkpt lat="64.31058502" lon="-20.30529594"><ele>112.3</ele><time>2012-07-19T20:35:01.0000000+00:00</time></trkpt><trkpt lat="64.31059265" lon="-20.30529404"><ele>112.3</ele><time>2012-07-19T20:35:06.0000000+00:00</time></trkpt><trkpt lat="64.31059265" lon="-20.30529404"><ele>112.3</ele><time>2012-07-19T20:35:11.0000000+00:00</time></trkpt><trkpt lat="64.31059265" lon="-20.30529404"><ele>112.3</ele><time>2012-07-19T20:35:16.0000000+00:00</time></trkpt><trkpt lat="64.31059265" lon="-20.30529404"><ele>112.3</ele><time>2012-07-19T20:35:21.0000000+00:00</time></trkpt><trkpt lat="64.31059265" lon="-20.30529404"><ele>112.3</ele><time>2012-07-19T20:35:26.0000000+00:00</time></trkpt><trkpt lat="64.31059265" lon="-20.30529404"><ele>112.3</ele><time>2012-07-19T20:35:31.0000000+00:00</time></trkpt><trkpt lat="64.31059265" lon="-20.30529404"><ele>112.3</ele><time>2012-07-19T20:35:36.0000000+00:00</time></trkpt><trkpt lat="64.31059265" lon="-20.30529404"><ele>112.3</ele><time>2012-07-19T20:35:41.0000000+00:00</time></trkpt><trkpt lat="64.31059265" lon="-20.30529213"><ele>112.3</ele><time>2012-07-19T20:35:46.0000000+00:00</time></trkpt><trkpt lat="64.31059265" lon="-20.30529213"><ele>112.3</ele><time>2012-07-19T20:35:51.0000000+00:00</time></trkpt><trkpt lat="64.31059265" lon="-20.30529213"><ele>112.3</ele><time>2012-07-19T20:35:56.0000000+00:00</time></trkpt><trkpt lat="64.31059265" lon="-20.30529213"><ele>112.3</ele><time>2012-07-19T20:36:01.0000000+00:00</time></trkpt><trkpt lat="64.31059265" lon="-20.30529213"><ele>112.3</ele><time>2012-07-19T20:36:06.0000000+00:00</time></trkpt><trkpt lat="64.31059265" lon="-20.30529213"><ele>112.4</ele><time>2012-07-19T20:36:11.0000000+00:00</time></trkpt><trkpt lat="64.31059265" lon="-20.30529213"><ele>112.4</ele><time>2012-07-19T20:36:16.0000000+00:00</time></trkpt><trkpt lat="64.31059265" lon="-20.30529213"><ele>112.4</ele><time>2012-07-19T20:36:21.0000000+00:00</time></trkpt><trkpt lat="64.31059265" lon="-20.30529213"><ele>112.4</ele><time>2012-07-19T20:36:26.0000000+00:00</time></trkpt><trkpt lat="64.31059265" lon="-20.30529213"><ele>112.4</ele><time>2012-07-19T20:36:31.0000000+00:00</time></trkpt><trkpt lat="64.31059265" lon="-20.30529213"><ele>112.4</ele><time>2012-07-19T20:36:36.0000000+00:00</time></trkpt><trkpt lat="64.31059265" lon="-20.30529213"><ele>112.4</ele><time>2012-07-19T20:36:41.0000000+00:00</time></trkpt><trkpt lat="64.31059265" lon="-20.30529213"><ele>112.4</ele><time>2012-07-19T20:36:46.0000000+00:00</time></trkpt><trkpt lat="64.31059265" lon="-20.30529213"><ele>112.4</ele><time>2012-07-19T20:36:51.0000000+00:00</time></trkpt><trkpt lat="64.31059265" lon="-20.30529213"><ele>112.4</ele><time>2012-07-19T20:36:56.0000000+00:00</time></trkpt><trkpt lat="64.31059265" lon="-20.30529213"><ele>112.4</ele><time>2012-07-19T20:37:01.0000000+00:00</time></trkpt><trkpt lat="64.31059265" lon="-20.30529213"><ele>112.4</ele><time>2012-07-19T20:37:06.0000000+00:00</time></trkpt><trkpt lat="64.31059265" lon="-20.30529213"><ele>112.4</ele><time>2012-07-19T20:37:11.0000000+00:00</time></trkpt><trkpt lat="64.31059265" lon="-20.30529213"><ele>112.4</ele><time>2012-07-19T20:37:16.0000000+00:00</time></trkpt><trkpt lat="64.31059265" lon="-20.30529213"><ele>112.4</ele><time>2012-07-19T20:37:21.0000000+00:00</time></trkpt><trkpt lat="64.31059265" lon="-20.30529213"><ele>112.5</ele><time>2012-07-19T20:37:26.0000000+00:00</time></trkpt><trkpt lat="64.31059265" lon="-20.30529213"><ele>112.5</ele><time>2012-07-19T20:37:31.0000000+00:00</time></trkpt><trkpt lat="64.31059265" lon="-20.30529213"><ele>112.5</ele><time>2012-07-19T20:37:36.0000000+00:00</time></trkpt><trkpt lat="64.31059265" lon="-20.30529213"><ele>112.5</ele><time>2012-07-19T20:37:41.0000000+00:00</time></trkpt><trkpt lat="64.31059265" lon="-20.30529213"><ele>112.5</ele><time>2012-07-19T20:37:46.0000000+00:00</time></trkpt><trkpt lat="64.31059265" lon="-20.30529213"><ele>112.5</ele><time>2012-07-19T20:37:51.0000000+00:00</time></trkpt><trkpt lat="64.31059265" lon="-20.30529213"><ele>112.5</ele><time>2012-07-19T20:37:56.0000000+00:00</time></trkpt><trkpt lat="64.31059265" lon="-20.30529213"><ele>112.6</ele><time>2012-07-19T20:38:01.0000000+00:00</time></trkpt><trkpt lat="64.31059265" lon="-20.30529213"><ele>112.6</ele><time>2012-07-19T20:38:06.0000000+00:00</time></trkpt><trkpt lat="64.31059265" lon="-20.30529213"><ele>112.6</ele><time>2012-07-19T20:38:11.0000000+00:00</time></trkpt><trkpt lat="64.31059265" lon="-20.30529213"><ele>112.6</ele><time>2012-07-19T20:38:16.0000000+00:00</time></trkpt><trkpt lat="64.31059265" lon="-20.30529213"><ele>112.6</ele><time>2012-07-19T20:38:21.0000000+00:00</time></trkpt><trkpt lat="64.31059265" lon="-20.30529213"><ele>112.6</ele><time>2012-07-19T20:38:26.0000000+00:00</time></trkpt><trkpt lat="64.31059265" lon="-20.30529213"><ele>112.6</ele><time>2012-07-19T20:38:31.0000000+00:00</time></trkpt><trkpt lat="64.31059265" lon="-20.30529213"><ele>112.6</ele><time>2012-07-19T20:38:36.0000000+00:00</time></trkpt><trkpt lat="64.31059265" lon="-20.30529213"><ele>112.6</ele><time>2012-07-19T20:38:41.0000000+00:00</time></trkpt><trkpt lat="64.31059265" lon="-20.30529213"><ele>112.6</ele><time>2012-07-19T20:38:46.0000000+00:00</time></trkpt><trkpt lat="64.31059265" lon="-20.30529213"><ele>112.6</ele><time>2012-07-19T20:38:51.0000000+00:00</time></trkpt><trkpt lat="64.31059265" lon="-20.30529213"><ele>112.6</ele><time>2012-07-19T20:38:56.0000000+00:00</time></trkpt><trkpt lat="64.31059265" lon="-20.30529213"><ele>112.7</ele><time>2012-07-19T20:39:01.0000000+00:00</time></trkpt><trkpt lat="64.31059265" lon="-20.30529213"><ele>112.7</ele><time>2012-07-19T20:39:06.0000000+00:00</time></trkpt><trkpt lat="64.31059265" lon="-20.30529213"><ele>112.7</ele><time>2012-07-19T20:39:11.0000000+00:00</time></trkpt><trkpt lat="64.31059265" lon="-20.30529213"><ele>112.7</ele><time>2012-07-19T20:39:16.0000000+00:00</time></trkpt><trkpt lat="64.31059265" lon="-20.30529213"><ele>112.7</ele><time>2012-07-19T20:39:21.0000000+00:00</time></trkpt><trkpt lat="64.31059265" lon="-20.30529213"><ele>112.7</ele><time>2012-07-19T20:39:26.0000000+00:00</time></trkpt><trkpt lat="64.31059265" lon="-20.30529213"><ele>112.7</ele><time>2012-07-19T20:39:31.0000000+00:00</time></trkpt><trkpt lat="64.31059265" lon="-20.30529213"><ele>112.7</ele><time>2012-07-19T20:39:36.0000000+00:00</time></trkpt><trkpt lat="64.31059265" lon="-20.30529213"><ele>112.7</ele><time>2012-07-19T20:39:41.0000000+00:00</time></trkpt><trkpt lat="64.31059265" lon="-20.30529213"><ele>112.7</ele><time>2012-07-19T20:39:46.0000000+00:00</time></trkpt><trkpt lat="64.31059265" lon="-20.30529404"><ele>112.8</ele><time>2012-07-19T20:39:51.0000000+00:00</time></trkpt><trkpt lat="64.31059265" lon="-20.30529213"><ele>112.8</ele><time>2012-07-19T20:39:56.0000000+00:00</time></trkpt><trkpt lat="64.31059265" lon="-20.30529213"><ele>112.8</ele><time>2012-07-19T20:40:01.0000000+00:00</time></trkpt><trkpt lat="64.31059265" lon="-20.30529213"><ele>112.8</ele><time>2012-07-19T20:40:06.0000000+00:00</time></trkpt><trkpt lat="64.31059265" lon="-20.30529213"><ele>112.8</ele><time>2012-07-19T20:40:11.0000000+00:00</time></trkpt><trkpt lat="64.31059265" lon="-20.30529213"><ele>112.8</ele><time>2012-07-19T20:40:16.0000000+00:00</time></trkpt><trkpt lat="64.31059265" lon="-20.30529213"><ele>112.8</ele><time>2012-07-19T20:40:21.0000000+00:00</time></trkpt><trkpt lat="64.31059265" lon="-20.30529213"><ele>112.8</ele><time>2012-07-19T20:40:26.0000000+00:00</time></trkpt><trkpt lat="64.31059265" lon="-20.30529213"><ele>112.9</ele><time>2012-07-19T20:40:31.0000000+00:00</time></trkpt><trkpt lat="64.31059265" lon="-20.30529213"><ele>112.9</ele><time>2012-07-19T20:40:36.0000000+00:00</time></trkpt><trkpt lat="64.31059265" lon="-20.30529213"><ele>112.9</ele><time>2012-07-19T20:40:41.0000000+00:00</time></trkpt><trkpt lat="64.31059265" lon="-20.30529213"><ele>112.9</ele><time>2012-07-19T20:40:46.0000000+00:00</time></trkpt><trkpt lat="64.31059265" lon="-20.30529213"><ele>112.9</ele><time>2012-07-19T20:40:51.0000000+00:00</time></trkpt><trkpt lat="64.31059265" lon="-20.30529213"><ele>112.9</ele><time>2012-07-19T20:40:56.0000000+00:00</time></trkpt><trkpt lat="64.31059265" lon="-20.30529213"><ele>112.9</ele><time>2012-07-19T20:41:01.0000000+00:00</time></trkpt><trkpt lat="64.31059265" lon="-20.30529213"><ele>112.9</ele><time>2012-07-19T20:41:06.0000000+00:00</time></trkpt><trkpt lat="64.31059265" lon="-20.30529213"><ele>112.9</ele><time>2012-07-19T20:41:11.0000000+00:00</time></trkpt><trkpt lat="64.31059265" lon="-20.30529213"><ele>112.9</ele><time>2012-07-19T20:41:16.0000000+00:00</time></trkpt><trkpt lat="64.31059265" lon="-20.30529213"><ele>112.9</ele><time>2012-07-19T20:41:21.0000000+00:00</time></trkpt><trkpt lat="64.31059265" lon="-20.30529213"><ele>112.9</ele><time>2012-07-19T20:41:26.0000000+00:00</time></trkpt><trkpt lat="64.31059265" lon="-20.30529213"><ele>112.9</ele><time>2012-07-19T20:41:31.0000000+00:00</time></trkpt><trkpt lat="64.31059265" lon="-20.30529022"><ele>112.9</ele><time>2012-07-19T20:41:36.0000000+00:00</time></trkpt><trkpt lat="64.31059265" lon="-20.30529022"><ele>112.9</ele><time>2012-07-19T20:41:41.0000000+00:00</time></trkpt><trkpt lat="64.31059265" lon="-20.30529022"><ele>112.9</ele><time>2012-07-19T20:41:46.0000000+00:00</time></trkpt><trkpt lat="64.31059265" lon="-20.30529022"><ele>112.9</ele><time>2012-07-19T20:41:51.0000000+00:00</time></trkpt><trkpt lat="64.31059265" lon="-20.30529022"><ele>112.9</ele><time>2012-07-19T20:41:56.0000000+00:00</time></trkpt><trkpt lat="64.31059265" lon="-20.30529022"><ele>112.9</ele><time>2012-07-19T20:42:01.0000000+00:00</time></trkpt><trkpt lat="64.31059265" lon="-20.30529022"><ele>112.9</ele><time>2012-07-19T20:42:06.0000000+00:00</time></trkpt><trkpt lat="64.31059265" lon="-20.30529022"><ele>113.0</ele><time>2012-07-19T20:42:11.0000000+00:00</time></trkpt><trkpt lat="64.31059265" lon="-20.30528832"><ele>113.0</ele><time>2012-07-19T20:42:16.0000000+00:00</time></trkpt><trkpt lat="64.31059265" lon="-20.30529022"><ele>113.0</ele><time>2012-07-19T20:42:21.0000000+00:00</time></trkpt><trkpt lat="64.31059265" lon="-20.30529022"><ele>113.0</ele><time>2012-07-19T20:42:26.0000000+00:00</time></trkpt><trkpt lat="64.31059265" lon="-20.30529022"><ele>113.0</ele><time>2012-07-19T20:42:31.0000000+00:00</time></trkpt><trkpt lat="64.31059265" lon="-20.30529022"><ele>113.1</ele><time>2012-07-19T20:42:36.0000000+00:00</time></trkpt><trkpt lat="64.31059265" lon="-20.30529022"><ele>113.1</ele><time>2012-07-19T20:42:41.0000000+00:00</time></trkpt><trkpt lat="64.31059265" lon="-20.30529022"><ele>113.1</ele><time>2012-07-19T20:42:46.0000000+00:00</time></trkpt><trkpt lat="64.31059265" lon="-20.30529022"><ele>113.1</ele><time>2012-07-19T20:42:51.0000000+00:00</time></trkpt><trkpt lat="64.31059265" lon="-20.30529022"><ele>113.2</ele><time>2012-07-19T20:42:56.0000000+00:00</time></trkpt><trkpt lat="64.31059265" lon="-20.30529022"><ele>113.2</ele><time>2012-07-19T20:43:01.0000000+00:00</time></trkpt><trkpt lat="64.31059265" lon="-20.30529022"><ele>113.2</ele><time>2012-07-19T20:43:06.0000000+00:00</time></trkpt><trkpt lat="64.31059265" lon="-20.30529022"><ele>113.2</ele><time>2012-07-19T20:43:11.0000000+00:00</time></trkpt><trkpt lat="64.31059265" lon="-20.30529022"><ele>113.2</ele><time>2012-07-19T20:43:16.0000000+00:00</time></trkpt><trkpt lat="64.31059265" lon="-20.30529022"><ele>113.2</ele><time>2012-07-19T20:43:21.0000000+00:00</time></trkpt><trkpt lat="64.31059265" lon="-20.30529022"><ele>113.3</ele><time>2012-07-19T20:43:26.0000000+00:00</time></trkpt><trkpt lat="64.31059265" lon="-20.30529022"><ele>113.3</ele><time>2012-07-19T20:43:31.0000000+00:00</time></trkpt><trkpt lat="64.31059265" lon="-20.30529022"><ele>113.3</ele><time>2012-07-19T20:43:36.0000000+00:00</time></trkpt><trkpt lat="64.31059265" lon="-20.30529022"><ele>113.3</ele><time>2012-07-19T20:43:41.0000000+00:00</time></trkpt><trkpt lat="64.31059265" lon="-20.30529022"><ele>113.4</ele><time>2012-07-19T20:43:46.0000000+00:00</time></trkpt><trkpt lat="64.31059265" lon="-20.30529022"><ele>113.4</ele><time>2012-07-19T20:43:51.0000000+00:00</time></trkpt><trkpt lat="64.31059265" lon="-20.30529022"><ele>113.5</ele><time>2012-07-19T20:43:56.0000000+00:00</time></trkpt><trkpt lat="64.31059265" lon="-20.30529022"><ele>113.5</ele><time>2012-07-19T20:44:01.0000000+00:00</time></trkpt><trkpt lat="64.31059265" lon="-20.30529022"><ele>113.5</ele><time>2012-07-19T20:44:06.0000000+00:00</time></trkpt><trkpt lat="64.31060028" lon="-20.30529022"><ele>113.5</ele><time>2012-07-19T20:44:11.0000000+00:00</time></trkpt><trkpt lat="64.31060028" lon="-20.30529022"><ele>113.5</ele><time>2012-07-19T20:44:16.0000000+00:00</time></trkpt><trkpt lat="64.31060028" lon="-20.30529022"><ele>113.5</ele><time>2012-07-19T20:44:21.0000000+00:00</time></trkpt><trkpt lat="64.31060028" lon="-20.30529022"><ele>113.5</ele><time>2012-07-19T20:44:26.0000000+00:00</time></trkpt><trkpt lat="64.31060028" lon="-20.30529213"><ele>113.6</ele><time>2012-07-19T20:44:31.0000000+00:00</time></trkpt><trkpt lat="64.31060028" lon="-20.30529213"><ele>113.6</ele><time>2012-07-19T20:44:36.0000000+00:00</time></trkpt><trkpt lat="64.31060028" lon="-20.30529213"><ele>113.6</ele><time>2012-07-19T20:44:41.0000000+00:00</time></trkpt><trkpt lat="64.31060028" lon="-20.30529213"><ele>113.6</ele><time>2012-07-19T20:44:46.0000000+00:00</time></trkpt><trkpt lat="64.31060028" lon="-20.30529022"><ele>113.6</ele><time>2012-07-19T20:44:51.0000000+00:00</time></trkpt><trkpt lat="64.31060028" lon="-20.30529213"><ele>113.6</ele><time>2012-07-19T20:44:56.0000000+00:00</time></trkpt><trkpt lat="64.31060028" lon="-20.30529022"><ele>113.6</ele><time>2012-07-19T20:45:01.0000000+00:00</time></trkpt><trkpt lat="64.31060028" lon="-20.30529022"><ele>113.6</ele><time>2012-07-19T20:45:06.0000000+00:00</time></trkpt><trkpt lat="64.31060028" lon="-20.30529022"><ele>113.6</ele><time>2012-07-19T20:45:11.0000000+00:00</time></trkpt><trkpt lat="64.31060028" lon="-20.30529022"><ele>113.6</ele><time>2012-07-19T20:45:16.0000000+00:00</time></trkpt><trkpt lat="64.31060028" lon="-20.30529022"><ele>113.6</ele><time>2012-07-19T20:45:21.0000000+00:00</time></trkpt><trkpt lat="64.31060028" lon="-20.30529022"><ele>113.6</ele><time>2012-07-19T20:45:26.0000000+00:00</time></trkpt><trkpt lat="64.31060028" lon="-20.30529213"><ele>113.7</ele><time>2012-07-19T20:45:31.0000000+00:00</time></trkpt><trkpt lat="64.31060028" lon="-20.30529022"><ele>113.7</ele><time>2012-07-19T20:45:36.0000000+00:00</time></trkpt><trkpt lat="64.31060028" lon="-20.30529213"><ele>113.7</ele><time>2012-07-19T20:45:41.0000000+00:00</time></trkpt><trkpt lat="64.31060028" lon="-20.30529213"><ele>113.7</ele><time>2012-07-19T20:45:46.0000000+00:00</time></trkpt><trkpt lat="64.31060028" lon="-20.30529213"><ele>113.7</ele><time>2012-07-19T20:45:51.0000000+00:00</time></trkpt><trkpt lat="64.31060028" lon="-20.30529213"><ele>113.8</ele><time>2012-07-19T20:45:56.0000000+00:00</time></trkpt><trkpt lat="64.31060028" lon="-20.30529213"><ele>113.8</ele><time>2012-07-19T20:46:01.0000000+00:00</time></trkpt><trkpt lat="64.31060028" lon="-20.30529213"><ele>113.8</ele><time>2012-07-19T20:46:06.0000000+00:00</time></trkpt><trkpt lat="64.31060028" lon="-20.30529022"><ele>113.8</ele><time>2012-07-19T20:46:11.0000000+00:00</time></trkpt><trkpt lat="64.31060028" lon="-20.30529022"><ele>113.8</ele><time>2012-07-19T20:46:16.0000000+00:00</time></trkpt><trkpt lat="64.31060028" lon="-20.30529022"><ele>113.8</ele><time>2012-07-19T20:46:21.0000000+00:00</time></trkpt><trkpt lat="64.31060028" lon="-20.30529213"><ele>113.8</ele><time>2012-07-19T20:46:26.0000000+00:00</time></trkpt><trkpt lat="64.31060028" lon="-20.30529213"><ele>113.9</ele><time>2012-07-19T20:46:31.0000000+00:00</time></trkpt><trkpt lat="64.31060028" lon="-20.30529213"><ele>113.9</ele><time>2012-07-19T20:46:36.0000000+00:00</time></trkpt><trkpt lat="64.31060028" lon="-20.30529213"><ele>113.9</ele><time>2012-07-19T20:46:41.0000000+00:00</time></trkpt><trkpt lat="64.31060028" lon="-20.30529213"><ele>113.9</ele><time>2012-07-19T20:46:46.0000000+00:00</time></trkpt><trkpt lat="64.31060028" lon="-20.30529213"><ele>113.9</ele><time>2012-07-19T20:46:51.0000000+00:00</time></trkpt><trkpt lat="64.31060028" lon="-20.30529213"><ele>113.9</ele><time>2012-07-19T20:46:56.0000000+00:00</time></trkpt><trkpt lat="64.31060028" lon="-20.30529213"><ele>113.9</ele><time>2012-07-19T20:47:01.0000000+00:00</time></trkpt><trkpt lat="64.31060028" lon="-20.30529213"><ele>114.0</ele><time>2012-07-19T20:47:06.0000000+00:00</time></trkpt><trkpt lat="64.31060028" lon="-20.30529213"><ele>114.0</ele><time>2012-07-19T20:47:11.0000000+00:00</time></trkpt><trkpt lat="64.31060028" lon="-20.30529213"><ele>114.0</ele><time>2012-07-19T20:47:16.0000000+00:00</time></trkpt><trkpt lat="64.31060028" lon="-20.30529213"><ele>114.0</ele><time>2012-07-19T20:47:21.0000000+00:00</time></trkpt><trkpt lat="64.31060028" lon="-20.30529213"><ele>114.0</ele><time>2012-07-19T20:47:26.0000000+00:00</time></trkpt><trkpt lat="64.31060028" lon="-20.30529213"><ele>114.0</ele><time>2012-07-19T20:47:31.0000000+00:00</time></trkpt><trkpt lat="64.31060028" lon="-20.30529213"><ele>114.0</ele><time>2012-07-19T20:47:36.0000000+00:00</time></trkpt><trkpt lat="64.31060028" lon="-20.30529404"><ele>114.1</ele><time>2012-07-19T20:47:41.0000000+00:00</time></trkpt><trkpt lat="64.31060028" lon="-20.30529404"><ele>114.1</ele><time>2012-07-19T20:47:46.0000000+00:00</time></trkpt><trkpt lat="64.31060028" lon="-20.30529404"><ele>114.1</ele><time>2012-07-19T20:47:51.0000000+00:00</time></trkpt><trkpt lat="64.31060028" lon="-20.30529404"><ele>114.1</ele><time>2012-07-19T20:47:56.0000000+00:00</time></trkpt><trkpt lat="64.31060028" lon="-20.30529404"><ele>114.2</ele><time>2012-07-19T20:48:01.0000000+00:00</time></trkpt><trkpt lat="64.31060028" lon="-20.30529404"><ele>114.2</ele><time>2012-07-19T20:48:06.0000000+00:00</time></trkpt><trkpt lat="64.31060028" lon="-20.30529404"><ele>114.2</ele><time>2012-07-19T20:48:11.0000000+00:00</time></trkpt><trkpt lat="64.31060028" lon="-20.30529404"><ele>114.2</ele><time>2012-07-19T20:48:16.0000000+00:00</time></trkpt><trkpt lat="64.31060028" lon="-20.30529404"><ele>114.2</ele><time>2012-07-19T20:48:21.0000000+00:00</time></trkpt><trkpt lat="64.31060028" lon="-20.30529404"><ele>114.3</ele><time>2012-07-19T20:48:26.0000000+00:00</time></trkpt><trkpt lat="64.31059265" lon="-20.30529404"><ele>114.3</ele><time>2012-07-19T20:48:31.0000000+00:00</time></trkpt><trkpt lat="64.31059265" lon="-20.30529404"><ele>114.3</ele><time>2012-07-19T20:48:36.0000000+00:00</time></trkpt><trkpt lat="64.31059265" lon="-20.30529404"><ele>114.3</ele><time>2012-07-19T20:48:41.0000000+00:00</time></trkpt><trkpt lat="64.31059265" lon="-20.30529404"><ele>114.4</ele><time>2012-07-19T20:48:46.0000000+00:00</time></trkpt><trkpt lat="64.31059265" lon="-20.30529404"><ele>114.4</ele><time>2012-07-19T20:48:51.0000000+00:00</time></trkpt><trkpt lat="64.31059265" lon="-20.30529404"><ele>114.4</ele><time>2012-07-19T20:48:56.0000000+00:00</time></trkpt><trkpt lat="64.31059265" lon="-20.30529404"><ele>114.4</ele><time>2012-07-19T20:49:01.0000000+00:00</time></trkpt><trkpt lat="64.31059265" lon="-20.30529404"><ele>114.4</ele><time>2012-07-19T20:49:06.0000000+00:00</time></trkpt><trkpt lat="64.31059265" lon="-20.30529404"><ele>114.5</ele><time>2012-07-19T20:49:11.0000000+00:00</time></trkpt><trkpt lat="64.31059265" lon="-20.30529404"><ele>114.5</ele><time>2012-07-19T20:49:16.0000000+00:00</time></trkpt><trkpt lat="64.31059265" lon="-20.30529404"><ele>114.5</ele><time>2012-07-19T20:49:21.0000000+00:00</time></trkpt><trkpt lat="64.31059265" lon="-20.30529404"><ele>114.5</ele><time>2012-07-19T20:49:26.0000000+00:00</time></trkpt><trkpt lat="64.31059265" lon="-20.30529404"><ele>114.5</ele><time>2012-07-19T20:49:31.0000000+00:00</time></trkpt><trkpt lat="64.31059265" lon="-20.30529404"><ele>114.6</ele><time>2012-07-19T20:49:36.0000000+00:00</time></trkpt><trkpt lat="64.31059265" lon="-20.30529404"><ele>114.6</ele><time>2012-07-19T20:49:41.0000000+00:00</time></trkpt><trkpt lat="64.31059265" lon="-20.30529404"><ele>114.6</ele><time>2012-07-19T20:49:46.0000000+00:00</time></trkpt><trkpt lat="64.31059265" lon="-20.30529404"><ele>114.6</ele><time>2012-07-19T20:49:51.0000000+00:00</time></trkpt><trkpt lat="64.31059265" lon="-20.30529404"><ele>114.7</ele><time>2012-07-19T20:49:56.0000000+00:00</time></trkpt><trkpt lat="64.31059265" lon="-20.30529594"><ele>114.7</ele><time>2012-07-19T20:50:01.0000000+00:00</time></trkpt><trkpt lat="64.31059265" lon="-20.30529594"><ele>114.7</ele><time>2012-07-19T20:50:06.0000000+00:00</time></trkpt><trkpt lat="64.31059265" lon="-20.30529594"><ele>114.7</ele><time>2012-07-19T20:50:11.0000000+00:00</time></trkpt><trkpt lat="64.31059265" lon="-20.30529594"><ele>114.7</ele><time>2012-07-19T20:50:16.0000000+00:00</time></trkpt><trkpt lat="64.31059265" lon="-20.30529594"><ele>114.7</ele><time>2012-07-19T20:50:21.0000000+00:00</time></trkpt><trkpt lat="64.31059265" lon="-20.30529594"><ele>114.8</ele><time>2012-07-19T20:50:26.0000000+00:00</time></trkpt><trkpt lat="64.31059265" lon="-20.30529594"><ele>114.8</ele><time>2012-07-19T20:50:31.0000000+00:00</time></trkpt><trkpt lat="64.31059265" lon="-20.30529594"><ele>114.8</ele><time>2012-07-19T20:50:36.0000000+00:00</time></trkpt><trkpt lat="64.31059265" lon="-20.30529404"><ele>114.7</ele><time>2012-07-19T20:50:41.0000000+00:00</time></trkpt><trkpt lat="64.31059265" lon="-20.30529404"><ele>114.7</ele><time>2012-07-19T20:50:46.0000000+00:00</time></trkpt><trkpt lat="64.31059265" lon="-20.30529404"><ele>114.7</ele><time>2012-07-19T20:50:51.0000000+00:00</time></trkpt><trkpt lat="64.31059265" lon="-20.30529404"><ele>114.7</ele><time>2012-07-19T20:50:56.0000000+00:00</time></trkpt><trkpt lat="64.31059265" lon="-20.30529404"><ele>114.7</ele><time>2012-07-19T20:51:01.0000000+00:00</time></trkpt><trkpt lat="64.31059265" lon="-20.30529404"><ele>114.7</ele><time>2012-07-19T20:51:06.0000000+00:00</time></trkpt><trkpt lat="64.31059265" lon="-20.30529404"><ele>114.7</ele><time>2012-07-19T20:51:11.0000000+00:00</time></trkpt><trkpt lat="64.31059265" lon="-20.30529404"><ele>114.6</ele><time>2012-07-19T20:51:16.0000000+00:00</time></trkpt><trkpt lat="64.31059265" lon="-20.30529404"><ele>114.6</ele><time>2012-07-19T20:51:21.0000000+00:00</time></trkpt><trkpt lat="64.31059265" lon="-20.30529213"><ele>114.6</ele><time>2012-07-19T20:51:26.0000000+00:00</time></trkpt><trkpt lat="64.31059265" lon="-20.30529213"><ele>114.6</ele><time>2012-07-19T20:51:31.0000000+00:00</time></trkpt><trkpt lat="64.31059265" lon="-20.30529213"><ele>114.5</ele><time>2012-07-19T20:51:36.0000000+00:00</time></trkpt><trkpt lat="64.31059265" lon="-20.30529213"><ele>114.5</ele><time>2012-07-19T20:51:41.0000000+00:00</time></trkpt><trkpt lat="64.31059265" lon="-20.30529213"><ele>114.5</ele><time>2012-07-19T20:51:46.0000000+00:00</time></trkpt><trkpt lat="64.31059265" lon="-20.30529213"><ele>114.5</ele><time>2012-07-19T20:51:51.0000000+00:00</time></trkpt><trkpt lat="64.31059265" lon="-20.30529213"><ele>114.5</ele><time>2012-07-19T20:51:56.0000000+00:00</time></trkpt><trkpt lat="64.31059265" lon="-20.30529213"><ele>114.5</ele><time>2012-07-19T20:52:01.0000000+00:00</time></trkpt><trkpt lat="64.31059265" lon="-20.30529213"><ele>114.5</ele><time>2012-07-19T20:52:06.0000000+00:00</time></trkpt><trkpt lat="64.31059265" lon="-20.30529404"><ele>114.5</ele><time>2012-07-19T20:52:11.0000000+00:00</time></trkpt><trkpt lat="64.31059265" lon="-20.30529404"><ele>114.5</ele><time>2012-07-19T20:52:16.0000000+00:00</time></trkpt><trkpt lat="64.31059265" lon="-20.30529404"><ele>114.5</ele><time>2012-07-19T20:52:21.0000000+00:00</time></trkpt><trkpt lat="64.31059265" lon="-20.30529404"><ele>114.5</ele><time>2012-07-19T20:52:26.0000000+00:00</time></trkpt><trkpt lat="64.31059265" lon="-20.30529404"><ele>114.5</ele><time>2012-07-19T20:52:31.0000000+00:00</time></trkpt><trkpt lat="64.31059265" lon="-20.30529404"><ele>114.5</ele><time>2012-07-19T20:52:36.0000000+00:00</time></trkpt><trkpt lat="64.31059265" lon="-20.30529404"><ele>114.5</ele><time>2012-07-19T20:52:41.0000000+00:00</time></trkpt><trkpt lat="64.31059265" lon="-20.30529404"><ele>114.5</ele><time>2012-07-19T20:52:46.0000000+00:00</time></trkpt><trkpt lat="64.31059265" lon="-20.30529404"><ele>114.5</ele><time>2012-07-19T20:52:51.0000000+00:00</time></trkpt><trkpt lat="64.31059265" lon="-20.30529404"><ele>114.5</ele><time>2012-07-19T20:52:56.0000000+00:00</time></trkpt><trkpt lat="64.31059265" lon="-20.30529404"><ele>114.5</ele><time>2012-07-19T20:53:01.0000000+00:00</time></trkpt><trkpt lat="64.31059265" lon="-20.30529404"><ele>114.5</ele><time>2012-07-19T20:53:06.0000000+00:00</time></trkpt><trkpt lat="64.31059265" lon="-20.30529213"><ele>114.5</ele><time>2012-07-19T20:53:11.0000000+00:00</time></trkpt><trkpt lat="64.31059265" lon="-20.30529404"><ele>114.6</ele><time>2012-07-19T20:53:16.0000000+00:00</time></trkpt><trkpt lat="64.31059265" lon="-20.30529404"><ele>114.6</ele><time>2012-07-19T20:53:21.0000000+00:00</time></trkpt><trkpt lat="64.31059265" lon="-20.30529404"><ele>114.6</ele><time>2012-07-19T20:53:26.0000000+00:00</time></trkpt><trkpt lat="64.31059265" lon="-20.30529404"><ele>114.6</ele><time>2012-07-19T20:53:31.0000000+00:00</time></trkpt><trkpt lat="64.31059265" lon="-20.30529404"><ele>114.6</ele><time>2012-07-19T20:53:36.0000000+00:00</time></trkpt><trkpt lat="64.31059265" lon="-20.30529404"><ele>114.6</ele><time>2012-07-19T20:53:41.0000000+00:00</time></trkpt><trkpt lat="64.31059265" lon="-20.30529404"><ele>114.6</ele><time>2012-07-19T20:53:46.0000000+00:00</time></trkpt><trkpt lat="64.31059265" lon="-20.30529404"><ele>114.6</ele><time>2012-07-19T20:53:51.0000000+00:00</time></trkpt><trkpt lat="64.31059265" lon="-20.30529404"><ele>114.6</ele><time>2012-07-19T20:53:56.0000000+00:00</time></trkpt><trkpt lat="64.31059265" lon="-20.30529404"><ele>114.6</ele><time>2012-07-19T20:54:01.0000000+00:00</time></trkpt><trkpt lat="64.31059265" lon="-20.30529404"><ele>114.6</ele><time>2012-07-19T20:54:06.0000000+00:00</time></trkpt><trkpt lat="64.31059265" lon="-20.30529404"><ele>114.6</ele><time>2012-07-19T20:54:11.0000000+00:00</time></trkpt><trkpt lat="64.31059265" lon="-20.30529404"><ele>114.5</ele><time>2012-07-19T20:54:16.0000000+00:00</time></trkpt><trkpt lat="64.31059265" lon="-20.30529404"><ele>114.5</ele><time>2012-07-19T20:54:21.0000000+00:00</time></trkpt><trkpt lat="64.31059265" lon="-20.30529404"><ele>114.5</ele><time>2012-07-19T20:54:26.0000000+00:00</time></trkpt><trkpt lat="64.31059265" lon="-20.30529213"><ele>114.5</ele><time>2012-07-19T20:54:31.0000000+00:00</time></trkpt><trkpt lat="64.31059265" lon="-20.30529213"><ele>114.5</ele><time>2012-07-19T20:54:36.0000000+00:00</time></trkpt><trkpt lat="64.31059265" lon="-20.30529213"><ele>114.5</ele><time>2012-07-19T20:54:41.0000000+00:00</time></trkpt><trkpt lat="64.31059265" lon="-20.30529213"><ele>114.5</ele><time>2012-07-19T20:54:46.0000000+00:00</time></trkpt><trkpt lat="64.31059265" lon="-20.30529213"><ele>114.5</ele><time>2012-07-19T20:54:51.0000000+00:00</time></trkpt><trkpt lat="64.31059265" lon="-20.30529213"><ele>114.5</ele><time>2012-07-19T20:54:56.0000000+00:00</time></trkpt><trkpt lat="64.31059265" lon="-20.30529213"><ele>114.6</ele><time>2012-07-19T20:55:01.0000000+00:00</time></trkpt><trkpt lat="64.31059265" lon="-20.30529022"><ele>114.6</ele><time>2012-07-19T20:55:06.0000000+00:00</time></trkpt><trkpt lat="64.31059265" lon="-20.30529022"><ele>114.6</ele><time>2012-07-19T20:55:11.0000000+00:00</time></trkpt><trkpt lat="64.31059265" lon="-20.30529022"><ele>114.7</ele><time>2012-07-19T20:55:16.0000000+00:00</time></trkpt><trkpt lat="64.31059265" lon="-20.30529022"><ele>114.7</ele><time>2012-07-19T20:55:21.0000000+00:00</time></trkpt><trkpt lat="64.31059265" lon="-20.30529022"><ele>114.7</ele><time>2012-07-19T20:55:26.0000000+00:00</time></trkpt><trkpt lat="64.31059265" lon="-20.30529022"><ele>114.8</ele><time>2012-07-19T20:55:31.0000000+00:00</time></trkpt><trkpt lat="64.31059265" lon="-20.30529022"><ele>114.8</ele><time>2012-07-19T20:55:36.0000000+00:00</time></trkpt><trkpt lat="64.31059265" lon="-20.30529022"><ele>114.8</ele><time>2012-07-19T20:55:41.0000000+00:00</time></trkpt><trkpt lat="64.31059265" lon="-20.30529022"><ele>114.8</ele><time>2012-07-19T20:55:46.0000000+00:00</time></trkpt><trkpt lat="64.31059265" lon="-20.30529022"><ele>114.8</ele><time>2012-07-19T20:55:51.0000000+00:00</time></trkpt><trkpt lat="64.31059265" lon="-20.30529022"><ele>114.8</ele><time>2012-07-19T20:55:56.0000000+00:00</time></trkpt><trkpt lat="64.31059265" lon="-20.30529022"><ele>114.8</ele><time>2012-07-19T20:56:01.0000000+00:00</time></trkpt><trkpt lat="64.31059265" lon="-20.30529022"><ele>114.8</ele><time>2012-07-19T20:56:06.0000000+00:00</time></trkpt><trkpt lat="64.31059265" lon="-20.30529022"><ele>114.9</ele><time>2012-07-19T20:56:11.0000000+00:00</time></trkpt><trkpt lat="64.31059265" lon="-20.30529022"><ele>114.9</ele><time>2012-07-19T20:56:16.0000000+00:00</time></trkpt><trkpt lat="64.31059265" lon="-20.30529022"><ele>114.9</ele><time>2012-07-19T20:56:21.0000000+00:00</time></trkpt><trkpt lat="64.31059265" lon="-20.30529022"><ele>114.9</ele><time>2012-07-19T20:56:26.0000000+00:00</time></trkpt><trkpt lat="64.31059265" lon="-20.30529022"><ele>114.9</ele><time>2012-07-19T20:56:31.0000000+00:00</time></trkpt><trkpt lat="64.31059265" lon="-20.30529022"><ele>114.9</ele><time>2012-07-19T20:56:36.0000000+00:00</time></trkpt><trkpt lat="64.31059265" lon="-20.30529022"><ele>114.9</ele><time>2012-07-19T20:56:41.0000000+00:00</time></trkpt><trkpt lat="64.31059265" lon="-20.30529022"><ele>114.9</ele><time>2012-07-19T20:56:46.0000000+00:00</time></trkpt><trkpt lat="64.31059265" lon="-20.30529022"><ele>114.9</ele><time>2012-07-19T20:56:51.0000000+00:00</time></trkpt><trkpt lat="64.31059265" lon="-20.30529022"><ele>114.9</ele><time>2012-07-19T20:56:56.0000000+00:00</time></trkpt><trkpt lat="64.31059265" lon="-20.30528832"><ele>114.9</ele><time>2012-07-19T20:57:01.0000000+00:00</time></trkpt><trkpt lat="64.31059265" lon="-20.30528832"><ele>114.9</ele><time>2012-07-19T20:57:06.0000000+00:00</time></trkpt><trkpt lat="64.31059265" lon="-20.30528832"><ele>114.9</ele><time>2012-07-19T20:57:11.0000000+00:00</time></trkpt><trkpt lat="64.31059265" lon="-20.30528832"><ele>114.9</ele><time>2012-07-19T20:57:16.0000000+00:00</time></trkpt><trkpt lat="64.31059265" lon="-20.30528832"><ele>114.9</ele><time>2012-07-19T20:57:21.0000000+00:00</time></trkpt><trkpt lat="64.31059265" lon="-20.30528832"><ele>114.8</ele><time>2012-07-19T20:57:26.0000000+00:00</time></trkpt><trkpt lat="64.31059265" lon="-20.30528832"><ele>114.8</ele><time>2012-07-19T20:57:31.0000000+00:00</time></trkpt><trkpt lat="64.31059265" lon="-20.30528832"><ele>114.8</ele><time>2012-07-19T20:57:36.0000000+00:00</time></trkpt><trkpt lat="64.31059265" lon="-20.30528832"><ele>114.8</ele><time>2012-07-19T20:57:41.0000000+00:00</time></trkpt><trkpt lat="64.31059265" lon="-20.30528832"><ele>114.8</ele><time>2012-07-19T20:57:46.0000000+00:00</time></trkpt><trkpt lat="64.31059265" lon="-20.30528832"><ele>114.8</ele><time>2012-07-19T20:57:51.0000000+00:00</time></trkpt><trkpt lat="64.31059265" lon="-20.30529022"><ele>114.8</ele><time>2012-07-19T20:57:56.0000000+00:00</time></trkpt><trkpt lat="64.31058502" lon="-20.30529022"><ele>114.8</ele><time>2012-07-19T20:58:01.0000000+00:00</time></trkpt><trkpt lat="64.31058502" lon="-20.30529022"><ele>114.8</ele><time>2012-07-19T20:58:06.0000000+00:00</time></trkpt><trkpt lat="64.31058502" lon="-20.30529022"><ele>114.8</ele><time>2012-07-19T20:58:11.0000000+00:00</time></trkpt><trkpt lat="64.31058502" lon="-20.30529022"><ele>114.8</ele><time>2012-07-19T20:58:16.0000000+00:00</time></trkpt><trkpt lat="64.31058502" lon="-20.30529213"><ele>114.9</ele><time>2012-07-19T20:58:21.0000000+00:00</time></trkpt><trkpt lat="64.31058502" lon="-20.30529213"><ele>114.9</ele><time>2012-07-19T20:58:26.0000000+00:00</time></trkpt><trkpt lat="64.31058502" lon="-20.30529213"><ele>114.9</ele><time>2012-07-19T20:58:31.0000000+00:00</time></trkpt><trkpt lat="64.31058502" lon="-20.30529213"><ele>114.9</ele><time>2012-07-19T20:58:36.0000000+00:00</time></trkpt><trkpt lat="64.31058502" lon="-20.30529213"><ele>114.9</ele><time>2012-07-19T20:58:41.0000000+00:00</time></trkpt><trkpt lat="64.31058502" lon="-20.30529213"><ele>114.9</ele><time>2012-07-19T20:58:46.0000000+00:00</time></trkpt><trkpt lat="64.31058502" lon="-20.30529213"><ele>114.9</ele><time>2012-07-19T20:58:51.0000000+00:00</time></trkpt><trkpt lat="64.31058502" lon="-20.30529213"><ele>114.9</ele><time>2012-07-19T20:58:56.0000000+00:00</time></trkpt><trkpt lat="64.31058502" lon="-20.30529213"><ele>114.9</ele><time>2012-07-19T20:59:01.0000000+00:00</time></trkpt><trkpt lat="64.31058502" lon="-20.30529213"><ele>114.9</ele><time>2012-07-19T20:59:06.0000000+00:00</time></trkpt><trkpt lat="64.31058502" lon="-20.30529404"><ele>114.9</ele><time>2012-07-19T20:59:11.0000000+00:00</time></trkpt><trkpt lat="64.31058502" lon="-20.30529404"><ele>114.9</ele><time>2012-07-19T20:59:16.0000000+00:00</time></trkpt><trkpt lat="64.31058502" lon="-20.30529404"><ele>114.9</ele><time>2012-07-19T20:59:21.0000000+00:00</time></trkpt><trkpt lat="64.31058502" lon="-20.30529404"><ele>114.9</ele><time>2012-07-19T20:59:26.0000000+00:00</time></trkpt><trkpt lat="64.31058502" lon="-20.30529404"><ele>114.9</ele><time>2012-07-19T20:59:31.0000000+00:00</time></trkpt><trkpt lat="64.31058502" lon="-20.30529404"><ele>115.0</ele><time>2012-07-19T20:59:36.0000000+00:00</time></trkpt><trkpt lat="64.31058502" lon="-20.30529404"><ele>115.0</ele><time>2012-07-19T20:59:41.0000000+00:00</time></trkpt><trkpt lat="64.31058502" lon="-20.30529404"><ele>115.0</ele><time>2012-07-19T20:59:46.0000000+00:00</time></trkpt><trkpt lat="64.31058502" lon="-20.30529404"><ele>115.0</ele><time>2012-07-19T20:59:51.0000000+00:00</time></trkpt><trkpt lat="64.31058502" lon="-20.30529594"><ele>115.0</ele><time>2012-07-19T20:59:56.0000000+00:00</time></trkpt><trkpt lat="64.31058502" lon="-20.30529594"><ele>115.0</ele><time>2012-07-19T21:00:01.0000000+00:00</time></trkpt><trkpt lat="64.31058502" lon="-20.30529594"><ele>114.9</ele><time>2012-07-19T21:00:06.0000000+00:00</time></trkpt><trkpt lat="64.31058502" lon="-20.30529785"><ele>115.0</ele><time>2012-07-19T21:00:11.0000000+00:00</time></trkpt><trkpt lat="64.31058502" lon="-20.30529785"><ele>115.0</ele><time>2012-07-19T21:00:16.0000000+00:00</time></trkpt><trkpt lat="64.31058502" lon="-20.30529785"><ele>115.0</ele><time>2012-07-19T21:00:21.0000000+00:00</time></trkpt><trkpt lat="64.31058502" lon="-20.30529785"><ele>115.1</ele><time>2012-07-19T21:00:26.0000000+00:00</time></trkpt><trkpt lat="64.31058502" lon="-20.30529785"><ele>115.1</ele><time>2012-07-19T21:00:31.0000000+00:00</time></trkpt><trkpt lat="64.31058502" lon="-20.30529785"><ele>115.1</ele><time>2012-07-19T21:00:36.0000000+00:00</time></trkpt><trkpt lat="64.31058502" lon="-20.30529785"><ele>115.1</ele><time>2012-07-19T21:00:41.0000000+00:00</time></trkpt><trkpt lat="64.31058502" lon="-20.30529785"><ele>115.1</ele><time>2012-07-19T21:00:46.0000000+00:00</time></trkpt><trkpt lat="64.31058502" lon="-20.30529976"><ele>115.1</ele><time>2012-07-19T21:00:51.0000000+00:00</time></trkpt><trkpt lat="64.31057739" lon="-20.30529976"><ele>115.1</ele><time>2012-07-19T21:00:56.0000000+00:00</time></trkpt><trkpt lat="64.31057739" lon="-20.30529976"><ele>115.1</ele><time>2012-07-19T21:01:01.0000000+00:00</time></trkpt><trkpt lat="64.31057739" lon="-20.30529976"><ele>115.1</ele><time>2012-07-19T21:01:06.0000000+00:00</time></trkpt><trkpt lat="64.31057739" lon="-20.30529976"><ele>115.1</ele><time>2012-07-19T21:01:11.0000000+00:00</time></trkpt><trkpt lat="64.31057739" lon="-20.30529976"><ele>115.1</ele><time>2012-07-19T21:01:16.0000000+00:00</time></trkpt><trkpt lat="64.31057739" lon="-20.30529976"><ele>115.2</ele><time>2012-07-19T21:01:21.0000000+00:00</time></trkpt><trkpt lat="64.31057739" lon="-20.30529976"><ele>115.2</ele><time>2012-07-19T21:01:26.0000000+00:00</time></trkpt><trkpt lat="64.31057739" lon="-20.30529976"><ele>115.2</ele><time>2012-07-19T21:01:31.0000000+00:00</time></trkpt><trkpt lat="64.31057739" lon="-20.30530167"><ele>115.2</ele><time>2012-07-19T21:01:36.0000000+00:00</time></trkpt><trkpt lat="64.31057739" lon="-20.30530167"><ele>115.3</ele><time>2012-07-19T21:01:41.0000000+00:00</time></trkpt><trkpt lat="64.31057739" lon="-20.30530167"><ele>115.3</ele><time>2012-07-19T21:01:46.0000000+00:00</time></trkpt><trkpt lat="64.31057739" lon="-20.30530167"><ele>115.2</ele><time>2012-07-19T21:01:51.0000000+00:00</time></trkpt><trkpt lat="64.31057739" lon="-20.30529976"><ele>115.3</ele><time>2012-07-19T21:01:56.0000000+00:00</time></trkpt><trkpt lat="64.31057739" lon="-20.30529976"><ele>115.3</ele><time>2012-07-19T21:02:01.0000000+00:00</time></trkpt><trkpt lat="64.31057739" lon="-20.30530167"><ele>115.3</ele><time>2012-07-19T21:02:06.0000000+00:00</time></trkpt><trkpt lat="64.31057739" lon="-20.30530167"><ele>115.3</ele><time>2012-07-19T21:02:11.0000000+00:00</time></trkpt><trkpt lat="64.31057739" lon="-20.30530167"><ele>115.4</ele><time>2012-07-19T21:02:16.0000000+00:00</time></trkpt><trkpt lat="64.31057739" lon="-20.30530167"><ele>115.4</ele><time>2012-07-19T21:02:21.0000000+00:00</time></trkpt><trkpt lat="64.31057739" lon="-20.30530167"><ele>115.4</ele><time>2012-07-19T21:02:26.0000000+00:00</time></trkpt><trkpt lat="64.31057739" lon="-20.30530167"><ele>115.4</ele><time>2012-07-19T21:02:31.0000000+00:00</time></trkpt><trkpt lat="64.31057739" lon="-20.30530167"><ele>115.4</ele><time>2012-07-19T21:02:36.0000000+00:00</time></trkpt><trkpt lat="64.31057739" lon="-20.30530167"><ele>115.4</ele><time>2012-07-19T21:02:41.0000000+00:00</time></trkpt><trkpt lat="64.31057739" lon="-20.30530167"><ele>115.4</ele><time>2012-07-19T21:02:46.0000000+00:00</time></trkpt><trkpt lat="64.31057739" lon="-20.30530167"><ele>115.4</ele><time>2012-07-19T21:02:51.0000000+00:00</time></trkpt><trkpt lat="64.31057739" lon="-20.30530167"><ele>115.4</ele><time>2012-07-19T21:02:56.0000000+00:00</time></trkpt><trkpt lat="64.31057739" lon="-20.30530167"><ele>115.4</ele><time>2012-07-19T21:03:01.0000000+00:00</time></trkpt><trkpt lat="64.31057739" lon="-20.30530167"><ele>115.5</ele><time>2012-07-19T21:03:06.0000000+00:00</time></trkpt><trkpt lat="64.31057739" lon="-20.30530167"><ele>115.5</ele><time>2012-07-19T21:03:11.0000000+00:00</time></trkpt><trkpt lat="64.31057739" lon="-20.30530167"><ele>115.5</ele><time>2012-07-19T21:03:16.0000000+00:00</time></trkpt><trkpt lat="64.31057739" lon="-20.30530167"><ele>115.5</ele><time>2012-07-19T21:03:21.0000000+00:00</time></trkpt><trkpt lat="64.31057739" lon="-20.30530167"><ele>115.5</ele><time>2012-07-19T21:03:26.0000000+00:00</time></trkpt><trkpt lat="64.31057739" lon="-20.30530167"><ele>115.5</ele><time>2012-07-19T21:03:31.0000000+00:00</time></trkpt><trkpt lat="64.31057739" lon="-20.30530167"><ele>115.5</ele><time>2012-07-19T21:03:36.0000000+00:00</time></trkpt><trkpt lat="64.31057739" lon="-20.30530167"><ele>115.5</ele><time>2012-07-19T21:03:41.0000000+00:00</time></trkpt><trkpt lat="64.31057739" lon="-20.30530167"><ele>115.5</ele><time>2012-07-19T21:03:46.0000000+00:00</time></trkpt><trkpt lat="64.31057739" lon="-20.30530167"><ele>115.6</ele><time>2012-07-19T21:03:51.0000000+00:00</time></trkpt><trkpt lat="64.31057739" lon="-20.30530357"><ele>115.6</ele><time>2012-07-19T21:03:56.0000000+00:00</time></trkpt><trkpt lat="64.31057739" lon="-20.30530357"><ele>115.6</ele><time>2012-07-19T21:04:01.0000000+00:00</time></trkpt><trkpt lat="64.31057739" lon="-20.30530357"><ele>115.6</ele><time>2012-07-19T21:04:06.0000000+00:00</time></trkpt><trkpt lat="64.31057739" lon="-20.30530357"><ele>115.6</ele><time>2012-07-19T21:04:11.0000000+00:00</time></trkpt><trkpt lat="64.31057739" lon="-20.30530357"><ele>115.6</ele><time>2012-07-19T21:04:16.0000000+00:00</time></trkpt><trkpt lat="64.31057739" lon="-20.30530357"><ele>115.6</ele><time>2012-07-19T21:04:21.0000000+00:00</time></trkpt><trkpt lat="64.31057739" lon="-20.30530357"><ele>115.6</ele><time>2012-07-19T21:04:26.0000000+00:00</time></trkpt><trkpt lat="64.31057739" lon="-20.30530357"><ele>115.6</ele><time>2012-07-19T21:04:31.0000000+00:00</time></trkpt><trkpt lat="64.31057739" lon="-20.30530357"><ele>115.6</ele><time>2012-07-19T21:04:36.0000000+00:00</time></trkpt><trkpt lat="64.31057739" lon="-20.30530357"><ele>115.6</ele><time>2012-07-19T21:04:41.0000000+00:00</time></trkpt><trkpt lat="64.31057739" lon="-20.30530357"><ele>115.6</ele><time>2012-07-19T21:04:46.0000000+00:00</time></trkpt><trkpt lat="64.31057739" lon="-20.30530357"><ele>115.6</ele><time>2012-07-19T21:04:51.0000000+00:00</time></trkpt><trkpt lat="64.31057739" lon="-20.30530167"><ele>115.6</ele><time>2012-07-19T21:04:56.0000000+00:00</time></trkpt><trkpt lat="64.31057739" lon="-20.30530357"><ele>115.7</ele><time>2012-07-19T21:05:01.0000000+00:00</time></trkpt><trkpt lat="64.31057739" lon="-20.30530357"><ele>115.7</ele><time>2012-07-19T21:05:06.0000000+00:00</time></trkpt><trkpt lat="64.31057739" lon="-20.30530357"><ele>115.7</ele><time>2012-07-19T21:05:11.0000000+00:00</time></trkpt><trkpt lat="64.31057739" lon="-20.30530357"><ele>115.7</ele><time>2012-07-19T21:05:16.0000000+00:00</time></trkpt><trkpt lat="64.31057739" lon="-20.30530167"><ele>115.7</ele><time>2012-07-19T21:05:21.0000000+00:00</time></trkpt><trkpt lat="64.31057739" lon="-20.30530167"><ele>115.7</ele><time>2012-07-19T21:05:26.0000000+00:00</time></trkpt><trkpt lat="64.31057739" lon="-20.30530167"><ele>115.7</ele><time>2012-07-19T21:05:31.0000000+00:00</time></trkpt><trkpt lat="64.31057739" lon="-20.30530167"><ele>115.7</ele><time>2012-07-19T21:05:36.0000000+00:00</time></trkpt><trkpt lat="64.31057739" lon="-20.30530167"><ele>115.7</ele><time>2012-07-19T21:05:41.0000000+00:00</time></trkpt><trkpt lat="64.31057739" lon="-20.30530167"><ele>115.7</ele><time>2012-07-19T21:05:46.0000000+00:00</time></trkpt><trkpt lat="64.31057739" lon="-20.30530167"><ele>115.8</ele><time>2012-07-19T21:05:51.0000000+00:00</time></trkpt><trkpt lat="64.31057739" lon="-20.30530167"><ele>115.8</ele><time>2012-07-19T21:05:56.0000000+00:00</time></trkpt><trkpt lat="64.31057739" lon="-20.30530167"><ele>115.8</ele><time>2012-07-19T21:06:01.0000000+00:00</time></trkpt><trkpt lat="64.31057739" lon="-20.30530167"><ele>115.8</ele><time>2012-07-19T21:06:06.0000000+00:00</time></trkpt><trkpt lat="64.31057739" lon="-20.30530167"><ele>115.8</ele><time>2012-07-19T21:06:11.0000000+00:00</time></trkpt><trkpt lat="64.31057739" lon="-20.30529976"><ele>115.8</ele><time>2012-07-19T21:06:16.0000000+00:00</time></trkpt><trkpt lat="64.31057739" lon="-20.30529976"><ele>115.8</ele><time>2012-07-19T21:06:21.0000000+00:00</time></trkpt><trkpt lat="64.31057739" lon="-20.30529976"><ele>115.8</ele><time>2012-07-19T21:06:26.0000000+00:00</time></trkpt><trkpt lat="64.31057739" lon="-20.30529976"><ele>115.8</ele><time>2012-07-19T21:06:31.0000000+00:00</time></trkpt><trkpt lat="64.31057739" lon="-20.30529976"><ele>115.8</ele><time>2012-07-19T21:06:36.0000000+00:00</time></trkpt><trkpt lat="64.31057739" lon="-20.30529976"><ele>115.8</ele><time>2012-07-19T21:06:41.0000000+00:00</time></trkpt><trkpt lat="64.31057739" lon="-20.30529976"><ele>115.8</ele><time>2012-07-19T21:06:46.0000000+00:00</time></trkpt><trkpt lat="64.31057739" lon="-20.30529976"><ele>115.8</ele><time>2012-07-19T21:06:51.0000000+00:00</time></trkpt><trkpt lat="64.31057739" lon="-20.30529785"><ele>115.7</ele><time>2012-07-19T21:06:56.0000000+00:00</time></trkpt><trkpt lat="64.31057739" lon="-20.30529976"><ele>115.7</ele><time>2012-07-19T21:07:01.0000000+00:00</time></trkpt><trkpt lat="64.31057739" lon="-20.30529976"><ele>115.7</ele><time>2012-07-19T21:07:06.0000000+00:00</time></trkpt><trkpt lat="64.31057739" lon="-20.30529976"><ele>115.7</ele><time>2012-07-19T21:07:11.0000000+00:00</time></trkpt><trkpt lat="64.31057739" lon="-20.30529976"><ele>115.7</ele><time>2012-07-19T21:07:16.0000000+00:00</time></trkpt><trkpt lat="64.31057739" lon="-20.30529785"><ele>115.7</ele><time>2012-07-19T21:07:21.0000000+00:00</time></trkpt><trkpt lat="64.31057739" lon="-20.30529785"><ele>115.7</ele><time>2012-07-19T21:07:26.0000000+00:00</time></trkpt><trkpt lat="64.31057739" lon="-20.30529785"><ele>115.7</ele><time>2012-07-19T21:07:31.0000000+00:00</time></trkpt><trkpt lat="64.31057739" lon="-20.30529785"><ele>115.7</ele><time>2012-07-19T21:07:36.0000000+00:00</time></trkpt><trkpt lat="64.31057739" lon="-20.30529785"><ele>115.7</ele><time>2012-07-19T21:07:41.0000000+00:00</time></trkpt><trkpt lat="64.31057739" lon="-20.30529785"><ele>115.7</ele><time>2012-07-19T21:07:46.0000000+00:00</time></trkpt><trkpt lat="64.31057739" lon="-20.30529785"><ele>115.7</ele><time>2012-07-19T21:07:51.0000000+00:00</time></trkpt><trkpt lat="64.31057739" lon="-20.30529785"><ele>115.7</ele><time>2012-07-19T21:07:56.0000000+00:00</time></trkpt><trkpt lat="64.31057739" lon="-20.30529785"><ele>115.7</ele><time>2012-07-19T21:08:01.0000000+00:00</time></trkpt><trkpt lat="64.31057739" lon="-20.30529785"><ele>115.7</ele><time>2012-07-19T21:08:06.0000000+00:00</time></trkpt><trkpt lat="64.31057739" lon="-20.30529785"><ele>115.6</ele><time>2012-07-19T21:08:11.0000000+00:00</time></trkpt><trkpt lat="64.31057739" lon="-20.30529785"><ele>115.6</ele><time>2012-07-19T21:08:16.0000000+00:00</time></trkpt><trkpt lat="64.31057739" lon="-20.30529785"><ele>115.6</ele><time>2012-07-19T21:08:21.0000000+00:00</time></trkpt><trkpt lat="64.31057739" lon="-20.30529594"><ele>115.6</ele><time>2012-07-19T21:08:26.0000000+00:00</time></trkpt><trkpt lat="64.31057739" lon="-20.30529594"><ele>115.6</ele><time>2012-07-19T21:08:31.0000000+00:00</time></trkpt><trkpt lat="64.31057739" lon="-20.30529594"><ele>115.6</ele><time>2012-07-19T21:08:36.0000000+00:00</time></trkpt><trkpt lat="64.31057739" lon="-20.30529594"><ele>115.6</ele><time>2012-07-19T21:08:41.0000000+00:00</time></trkpt><trkpt lat="64.31057739" lon="-20.30529594"><ele>115.6</ele><time>2012-07-19T21:08:46.0000000+00:00</time></trkpt><trkpt lat="64.31057739" lon="-20.30529594"><ele>115.6</ele><time>2012-07-19T21:08:51.0000000+00:00</time></trkpt><trkpt lat="64.31057739" lon="-20.30529594"><ele>115.6</ele><time>2012-07-19T21:08:56.0000000+00:00</time></trkpt><trkpt lat="64.31057739" lon="-20.30529594"><ele>115.6</ele><time>2012-07-19T21:09:01.0000000+00:00</time></trkpt><trkpt lat="64.31057739" lon="-20.30529594"><ele>115.6</ele><time>2012-07-19T21:09:06.0000000+00:00</time></trkpt><trkpt lat="64.31057739" lon="-20.30529594"><ele>115.7</ele><time>2012-07-19T21:09:11.0000000+00:00</time></trkpt><trkpt lat="64.31057739" lon="-20.30529404"><ele>115.7</ele><time>2012-07-19T21:09:16.0000000+00:00</time></trkpt><trkpt lat="64.31057739" lon="-20.30529404"><ele>115.7</ele><time>2012-07-19T21:09:21.0000000+00:00</time></trkpt><trkpt lat="64.31057739" lon="-20.30529404"><ele>115.7</ele><time>2012-07-19T21:09:26.0000000+00:00</time></trkpt><trkpt lat="64.31057739" lon="-20.30529404"><ele>115.7</ele><time>2012-07-19T21:09:31.0000000+00:00</time></trkpt><trkpt lat="64.31057739" lon="-20.30529404"><ele>115.7</ele><time>2012-07-19T21:09:36.0000000+00:00</time></trkpt><trkpt lat="64.31057739" lon="-20.30529404"><ele>115.7</ele><time>2012-07-19T21:09:41.0000000+00:00</time></trkpt><trkpt lat="64.31057739" lon="-20.30529213"><ele>115.7</ele><time>2012-07-19T21:09:46.0000000+00:00</time></trkpt><trkpt lat="64.31057739" lon="-20.30529213"><ele>115.7</ele><time>2012-07-19T21:09:51.0000000+00:00</time></trkpt><trkpt lat="64.31057739" lon="-20.30529213"><ele>115.7</ele><time>2012-07-19T21:09:56.0000000+00:00</time></trkpt><trkpt lat="64.31057739" lon="-20.30529213"><ele>115.8</ele><time>2012-07-19T21:10:01.0000000+00:00</time></trkpt><trkpt lat="64.31057739" lon="-20.30529213"><ele>115.8</ele><time>2012-07-19T21:10:06.0000000+00:00</time></trkpt><trkpt lat="64.31057739" lon="-20.30529213"><ele>115.8</ele><time>2012-07-19T21:10:11.0000000+00:00</time></trkpt><trkpt lat="64.31057739" lon="-20.30529213"><ele>115.8</ele><time>2012-07-19T21:10:16.0000000+00:00</time></trkpt><trkpt lat="64.31057739" lon="-20.30529213"><ele>115.8</ele><time>2012-07-19T21:10:21.0000000+00:00</time></trkpt><trkpt lat="64.31057739" lon="-20.30529022"><ele>115.8</ele><time>2012-07-19T21:10:26.0000000+00:00</time></trkpt><trkpt lat="64.31057739" lon="-20.30529022"><ele>115.9</ele><time>2012-07-19T21:10:31.0000000+00:00</time></trkpt><trkpt lat="64.31057739" lon="-20.30529022"><ele>115.9</ele><time>2012-07-19T21:10:36.0000000+00:00</time></trkpt><trkpt lat="64.31057739" lon="-20.30529022"><ele>115.9</ele><time>2012-07-19T21:10:41.0000000+00:00</time></trkpt><trkpt lat="64.31057739" lon="-20.30529022"><ele>115.9</ele><time>2012-07-19T21:10:46.0000000+00:00</time></trkpt><trkpt lat="64.31057739" lon="-20.30529022"><ele>115.9</ele><time>2012-07-19T21:10:51.0000000+00:00</time></trkpt><trkpt lat="64.31057739" lon="-20.30529022"><ele>115.9</ele><time>2012-07-19T21:10:56.0000000+00:00</time></trkpt><trkpt lat="64.31057739" lon="-20.30528832"><ele>115.9</ele><time>2012-07-19T21:11:01.0000000+00:00</time></trkpt><trkpt lat="64.31057739" lon="-20.30528832"><ele>115.9</ele><time>2012-07-19T21:11:06.0000000+00:00</time></trkpt><trkpt lat="64.31057739" lon="-20.30528832"><ele>115.9</ele><time>2012-07-19T21:11:11.0000000+00:00</time></trkpt><trkpt lat="64.31057739" lon="-20.30528832"><ele>116.0</ele><time>2012-07-19T21:11:16.0000000+00:00</time></trkpt><trkpt lat="64.31057739" lon="-20.30528641"><ele>116.0</ele><time>2012-07-19T21:11:21.0000000+00:00</time></trkpt><trkpt lat="64.31057739" lon="-20.30528641"><ele>116.0</ele><time>2012-07-19T21:11:26.0000000+00:00</time></trkpt><trkpt lat="64.31057739" lon="-20.30528641"><ele>116.0</ele><time>2012-07-19T21:11:31.0000000+00:00</time></trkpt><trkpt lat="64.31057739" lon="-20.30528641"><ele>116.0</ele><time>2012-07-19T21:11:36.0000000+00:00</time></trkpt><trkpt lat="64.31057739" lon="-20.3052845"><ele>116.0</ele><time>2012-07-19T21:11:41.0000000+00:00</time></trkpt><trkpt lat="64.31057739" lon="-20.3052845"><ele>116.1</ele><time>2012-07-19T21:11:46.0000000+00:00</time></trkpt><trkpt lat="64.31057739" lon="-20.3052845"><ele>116.1</ele><time>2012-07-19T21:11:51.0000000+00:00</time></trkpt><trkpt lat="64.31057739" lon="-20.30528259"><ele>116.1</ele><time>2012-07-19T21:11:56.0000000+00:00</time></trkpt><trkpt lat="64.31057739" lon="-20.30528259"><ele>116.1</ele><time>2012-07-19T21:12:01.0000000+00:00</time></trkpt><trkpt lat="64.31057739" lon="-20.30528259"><ele>116.2</ele><time>2012-07-19T21:12:06.0000000+00:00</time></trkpt><trkpt lat="64.31057739" lon="-20.30528259"><ele>116.2</ele><time>2012-07-19T21:12:11.0000000+00:00</time></trkpt><trkpt lat="64.31057739" lon="-20.30528259"><ele>116.2</ele><time>2012-07-19T21:12:16.0000000+00:00</time></trkpt><trkpt lat="64.31057739" lon="-20.30528069"><ele>116.2</ele><time>2012-07-19T21:12:21.0000000+00:00</time></trkpt><trkpt lat="64.31057739" lon="-20.30528069"><ele>116.3</ele><time>2012-07-19T21:12:26.0000000+00:00</time></trkpt><trkpt lat="64.31057739" lon="-20.30528069"><ele>116.3</ele><time>2012-07-19T21:12:31.0000000+00:00</time></trkpt><trkpt lat="64.31057739" lon="-20.30528069"><ele>116.3</ele><time>2012-07-19T21:12:36.0000000+00:00</time></trkpt><trkpt lat="64.31057739" lon="-20.30527878"><ele>116.3</ele><time>2012-07-19T21:12:41.0000000+00:00</time></trkpt><trkpt lat="64.31057739" lon="-20.30527878"><ele>116.3</ele><time>2012-07-19T21:12:46.0000000+00:00</time></trkpt><trkpt lat="64.31057739" lon="-20.30527878"><ele>116.3</ele><time>2012-07-19T21:12:51.0000000+00:00</time></trkpt><trkpt lat="64.31057739" lon="-20.30527878"><ele>116.3</ele><time>2012-07-19T21:12:56.0000000+00:00</time></trkpt><trkpt lat="64.31057739" lon="-20.30527687"><ele>116.3</ele><time>2012-07-19T21:13:01.0000000+00:00</time></trkpt><trkpt lat="64.31057739" lon="-20.30527687"><ele>116.3</ele><time>2012-07-19T21:13:06.0000000+00:00</time></trkpt><trkpt lat="64.31057739" lon="-20.30527687"><ele>116.3</ele><time>2012-07-19T21:13:11.0000000+00:00</time></trkpt><trkpt lat="64.31057739" lon="-20.30527687"><ele>116.3</ele><time>2012-07-19T21:13:16.0000000+00:00</time></trkpt><trkpt lat="64.31057739" lon="-20.30527687"><ele>116.3</ele><time>2012-07-19T21:13:21.0000000+00:00</time></trkpt><trkpt lat="64.31057739" lon="-20.30527687"><ele>116.3</ele><time>2012-07-19T21:13:26.0000000+00:00</time></trkpt><trkpt lat="64.31057739" lon="-20.30527687"><ele>116.3</ele><time>2012-07-19T21:13:31.0000000+00:00</time></trkpt><trkpt lat="64.31057739" lon="-20.30527496"><ele>116.3</ele><time>2012-07-19T21:13:36.0000000+00:00</time></trkpt><trkpt lat="64.31057739" lon="-20.30527496"><ele>116.3</ele><time>2012-07-19T21:13:41.0000000+00:00</time></trkpt><trkpt lat="64.31057739" lon="-20.30527496"><ele>116.3</ele><time>2012-07-19T21:13:46.0000000+00:00</time></trkpt><trkpt lat="64.31057739" lon="-20.30527306"><ele>116.3</ele><time>2012-07-19T21:13:51.0000000+00:00</time></trkpt><trkpt lat="64.31057739" lon="-20.30527306"><ele>116.4</ele><time>2012-07-19T21:13:56.0000000+00:00</time></trkpt><trkpt lat="64.31057739" lon="-20.30527306"><ele>116.4</ele><time>2012-07-19T21:14:01.0000000+00:00</time></trkpt><trkpt lat="64.31057739" lon="-20.30527306"><ele>116.4</ele><time>2012-07-19T21:14:06.0000000+00:00</time></trkpt><trkpt lat="64.31057739" lon="-20.30527306"><ele>116.4</ele><time>2012-07-19T21:14:11.0000000+00:00</time></trkpt><trkpt lat="64.31057739" lon="-20.30527306"><ele>116.4</ele><time>2012-07-19T21:14:16.0000000+00:00</time></trkpt><trkpt lat="64.31057739" lon="-20.30527115"><ele>116.4</ele><time>2012-07-19T21:14:21.0000000+00:00</time></trkpt><trkpt lat="64.31057739" lon="-20.30527306"><ele>116.4</ele><time>2012-07-19T21:14:26.0000000+00:00</time></trkpt><trkpt lat="64.31057739" lon="-20.30527115"><ele>116.4</ele><time>2012-07-19T21:14:31.0000000+00:00</time></trkpt><trkpt lat="64.31057739" lon="-20.30527115"><ele>116.4</ele><time>2012-07-19T21:14:36.0000000+00:00</time></trkpt><trkpt lat="64.31057739" lon="-20.30527115"><ele>116.4</ele><time>2012-07-19T21:14:41.0000000+00:00</time></trkpt><trkpt lat="64.31057739" lon="-20.30527115"><ele>116.4</ele><time>2012-07-19T21:14:46.0000000+00:00</time></trkpt><trkpt lat="64.31057739" lon="-20.30526924"><ele>116.4</ele><time>2012-07-19T21:14:51.0000000+00:00</time></trkpt><trkpt lat="64.31057739" lon="-20.30526924"><ele>116.4</ele><time>2012-07-19T21:14:56.0000000+00:00</time></trkpt><trkpt lat="64.31057739" lon="-20.30526924"><ele>116.4</ele><time>2012-07-19T21:15:01.0000000+00:00</time></trkpt><trkpt lat="64.31057739" lon="-20.30526733"><ele>116.4</ele><time>2012-07-19T21:15:06.0000000+00:00</time></trkpt><trkpt lat="64.31057739" lon="-20.30526733"><ele>116.4</ele><time>2012-07-19T21:15:11.0000000+00:00</time></trkpt><trkpt lat="64.31057739" lon="-20.30526733"><ele>116.4</ele><time>2012-07-19T21:15:16.0000000+00:00</time></trkpt><trkpt lat="64.31057739" lon="-20.30526733"><ele>116.4</ele><time>2012-07-19T21:15:21.0000000+00:00</time></trkpt><trkpt lat="64.31057739" lon="-20.30526733"><ele>116.4</ele><time>2012-07-19T21:15:26.0000000+00:00</time></trkpt><trkpt lat="64.31057739" lon="-20.30526543"><ele>116.4</ele><time>2012-07-19T21:15:31.0000000+00:00</time></trkpt><trkpt lat="64.31057739" lon="-20.30526543"><ele>116.4</ele><time>2012-07-19T21:15:36.0000000+00:00</time></trkpt><trkpt lat="64.31057739" lon="-20.30526543"><ele>116.4</ele><time>2012-07-19T21:15:41.0000000+00:00</time></trkpt><trkpt lat="64.31057739" lon="-20.30526543"><ele>116.4</ele><time>2012-07-19T21:15:46.0000000+00:00</time></trkpt><trkpt lat="64.31057739" lon="-20.30526352"><ele>116.4</ele><time>2012-07-19T21:15:51.0000000+00:00</time></trkpt><trkpt lat="64.31057739" lon="-20.30526352"><ele>116.4</ele><time>2012-07-19T21:15:56.0000000+00:00</time></trkpt><trkpt lat="64.31057739" lon="-20.30526352"><ele>116.3</ele><time>2012-07-19T21:16:01.0000000+00:00</time></trkpt><trkpt lat="64.31057739" lon="-20.30526352"><ele>116.3</ele><time>2012-07-19T21:16:06.0000000+00:00</time></trkpt><trkpt lat="64.31057739" lon="-20.30526161"><ele>116.3</ele><time>2012-07-19T21:16:11.0000000+00:00</time></trkpt><trkpt lat="64.31057739" lon="-20.30526161"><ele>116.3</ele><time>2012-07-19T21:16:16.0000000+00:00</time></trkpt><trkpt lat="64.31057739" lon="-20.30526161"><ele>116.3</ele><time>2012-07-19T21:16:21.0000000+00:00</time></trkpt><trkpt lat="64.31057739" lon="-20.30526161"><ele>116.3</ele><time>2012-07-19T21:16:26.0000000+00:00</time></trkpt><trkpt lat="64.31057739" lon="-20.30526352"><ele>116.2</ele><time>2012-07-19T21:16:31.0000000+00:00</time></trkpt><trkpt lat="64.31057739" lon="-20.30526352"><ele>116.2</ele><time>2012-07-19T21:16:36.0000000+00:00</time></trkpt><trkpt lat="64.31057739" lon="-20.30526161"><ele>116.2</ele><time>2012-07-19T21:16:41.0000000+00:00</time></trkpt><trkpt lat="64.31057739" lon="-20.30526161"><ele>116.2</ele><time>2012-07-19T21:16:46.0000000+00:00</time></trkpt><trkpt lat="64.31057739" lon="-20.30526161"><ele>116.2</ele><time>2012-07-19T21:16:51.0000000+00:00</time></trkpt><trkpt lat="64.31057739" lon="-20.30526161"><ele>116.2</ele><time>2012-07-19T21:16:56.0000000+00:00</time></trkpt><trkpt lat="64.31057739" lon="-20.30526161"><ele>116.2</ele><time>2012-07-19T21:17:01.0000000+00:00</time></trkpt><trkpt lat="64.31057739" lon="-20.30526161"><ele>116.2</ele><time>2012-07-19T21:17:06.0000000+00:00</time></trkpt><trkpt lat="64.31057739" lon="-20.30525971"><ele>116.2</ele><time>2012-07-19T21:17:11.0000000+00:00</time></trkpt><trkpt lat="64.31057739" lon="-20.30525971"><ele>116.2</ele><time>2012-07-19T21:17:16.0000000+00:00</time></trkpt><trkpt lat="64.31057739" lon="-20.30526161"><ele>116.2</ele><time>2012-07-19T21:17:21.0000000+00:00</time></trkpt><trkpt lat="64.31057739" lon="-20.30526161"><ele>116.2</ele><time>2012-07-19T21:17:26.0000000+00:00</time></trkpt><trkpt lat="64.31057739" lon="-20.30526161"><ele>116.2</ele><time>2012-07-19T21:17:31.0000000+00:00</time></trkpt><trkpt lat="64.31057739" lon="-20.30525971"><ele>116.2</ele><time>2012-07-19T21:17:36.0000000+00:00</time></trkpt><trkpt lat="64.31057739" lon="-20.30525971"><ele>116.2</ele><time>2012-07-19T21:17:41.0000000+00:00</time></trkpt><trkpt lat="64.31057739" lon="-20.30525971"><ele>116.2</ele><time>2012-07-19T21:17:46.0000000+00:00</time></trkpt><trkpt lat="64.31057739" lon="-20.30525971"><ele>116.2</ele><time>2012-07-19T21:17:51.0000000+00:00</time></trkpt><trkpt lat="64.31057739" lon="-20.30525971"><ele>116.2</ele><time>2012-07-19T21:17:56.0000000+00:00</time></trkpt><trkpt lat="64.31057739" lon="-20.30525971"><ele>116.2</ele><time>2012-07-19T21:18:01.0000000+00:00</time></trkpt><trkpt lat="64.31057739" lon="-20.30525971"><ele>116.2</ele><time>2012-07-19T21:18:06.0000000+00:00</time></trkpt><trkpt lat="64.31057739" lon="-20.30525971"><ele>116.2</ele><time>2012-07-19T21:18:11.0000000+00:00</time></trkpt><trkpt lat="64.31057739" lon="-20.30525971"><ele>116.3</ele><time>2012-07-19T21:18:16.0000000+00:00</time></trkpt><trkpt lat="64.31057739" lon="-20.30525971"><ele>116.3</ele><time>2012-07-19T21:18:21.0000000+00:00</time></trkpt><trkpt lat="64.31057739" lon="-20.30525971"><ele>116.3</ele><time>2012-07-19T21:18:26.0000000+00:00</time></trkpt><trkpt lat="64.31057739" lon="-20.3052578"><ele>116.3</ele><time>2012-07-19T21:18:31.0000000+00:00</time></trkpt><trkpt lat="64.31057739" lon="-20.3052578"><ele>116.3</ele><time>2012-07-19T21:18:36.0000000+00:00</time></trkpt><trkpt lat="64.31057739" lon="-20.3052578"><ele>116.3</ele><time>2012-07-19T21:18:41.0000000+00:00</time></trkpt><trkpt lat="64.31057739" lon="-20.3052578"><ele>116.3</ele><time>2012-07-19T21:18:46.0000000+00:00</time></trkpt><trkpt lat="64.31057739" lon="-20.3052578"><ele>116.3</ele><time>2012-07-19T21:18:51.0000000+00:00</time></trkpt><trkpt lat="64.31057739" lon="-20.3052578"><ele>116.3</ele><time>2012-07-19T21:18:56.0000000+00:00</time></trkpt><trkpt lat="64.31057739" lon="-20.3052578"><ele>116.3</ele><time>2012-07-19T21:19:01.0000000+00:00</time></trkpt><trkpt lat="64.31057739" lon="-20.3052578"><ele>116.4</ele><time>2012-07-19T21:19:06.0000000+00:00</time></trkpt><trkpt lat="64.31057739" lon="-20.3052578"><ele>116.4</ele><time>2012-07-19T21:19:11.0000000+00:00</time></trkpt><trkpt lat="64.31057739" lon="-20.3052578"><ele>116.4</ele><time>2012-07-19T21:19:16.0000000+00:00</time></trkpt><trkpt lat="64.31057739" lon="-20.3052578"><ele>116.4</ele><time>2012-07-19T21:19:21.0000000+00:00</time></trkpt><trkpt lat="64.31057739" lon="-20.3052578"><ele>116.4</ele><time>2012-07-19T21:19:26.0000000+00:00</time></trkpt><trkpt lat="64.31057739" lon="-20.3052578"><ele>116.4</ele><time>2012-07-19T21:19:31.0000000+00:00</time></trkpt><trkpt lat="64.31057739" lon="-20.3052578"><ele>116.4</ele><time>2012-07-19T21:19:36.0000000+00:00</time></trkpt><trkpt lat="64.31058502" lon="-20.3052578"><ele>116.3</ele><time>2012-07-19T21:19:41.0000000+00:00</time></trkpt><trkpt lat="64.31058502" lon="-20.3052578"><ele>116.3</ele><time>2012-07-19T21:19:46.0000000+00:00</time></trkpt><trkpt lat="64.31058502" lon="-20.3052578"><ele>116.3</ele><time>2012-07-19T21:19:51.0000000+00:00</time></trkpt><trkpt lat="64.31058502" lon="-20.3052578"><ele>116.3</ele><time>2012-07-19T21:19:56.0000000+00:00</time></trkpt></trkseg><trkseg><trkpt lat="64.30980682" lon="-20.3053093"><ele>115.3</ele><time>2012-07-20T10:19:04.0000000+00:00</time></trkpt><trkpt lat="64.30977631" lon="-20.30533218"><ele>116.7</ele><time>2012-07-20T10:19:09.0000000+00:00</time></trkpt><trkpt lat="64.30977631" lon="-20.30532455"><ele>115.0</ele><time>2012-07-20T10:19:14.0000000+00:00</time></trkpt><trkpt lat="64.30978394" lon="-20.30532074"><ele>112.4</ele><time>2012-07-20T10:19:19.0000000+00:00</time></trkpt><trkpt lat="64.30982208" lon="-20.30530548"><ele>106.2</ele><time>2012-07-20T10:19:24.0000000+00:00</time></trkpt><trkpt lat="64.30983734" lon="-20.30529404"><ele>105.4</ele><time>2012-07-20T10:19:29.0000000+00:00</time></trkpt><trkpt lat="64.30982971" lon="-20.30529976"><ele>107.7</ele><time>2012-07-20T10:19:34.0000000+00:00</time></trkpt><trkpt lat="64.30982208" lon="-20.30530548"><ele>109.2</ele><time>2012-07-20T10:19:39.0000000+00:00</time></trkpt><trkpt lat="64.30982208" lon="-20.30530548"><ele>109.1</ele><time>2012-07-20T10:19:44.0000000+00:00</time></trkpt><trkpt lat="64.30982208" lon="-20.30530739"><ele>109.1</ele><time>2012-07-20T10:19:49.0000000+00:00</time></trkpt><trkpt lat="64.30982208" lon="-20.30530739"><ele>109.1</ele><time>2012-07-20T10:19:54.0000000+00:00</time></trkpt><trkpt lat="64.30982208" lon="-20.30530548"><ele>109.1</ele><time>2012-07-20T10:19:59.0000000+00:00</time></trkpt><trkpt lat="64.30982208" lon="-20.30530548"><ele>109.2</ele><time>2012-07-20T10:20:04.0000000+00:00</time></trkpt><trkpt lat="64.30982208" lon="-20.30530548"><ele>109.2</ele><time>2012-07-20T10:20:09.0000000+00:00</time></trkpt><trkpt lat="64.30982208" lon="-20.30530548"><ele>109.2</ele><time>2012-07-20T10:20:14.0000000+00:00</time></trkpt><trkpt lat="64.30982208" lon="-20.30530548"><ele>109.2</ele><time>2012-07-20T10:20:19.0000000+00:00</time></trkpt><trkpt lat="64.30982208" lon="-20.30530548"><ele>109.2</ele><time>2012-07-20T10:20:24.0000000+00:00</time></trkpt><trkpt lat="64.30982208" lon="-20.30530548"><ele>109.2</ele><time>2012-07-20T10:20:29.0000000+00:00</time></trkpt><trkpt lat="64.30982208" lon="-20.30530548"><ele>109.2</ele><time>2012-07-20T10:20:34.0000000+00:00</time></trkpt><trkpt lat="64.30982208" lon="-20.30530548"><ele>109.2</ele><time>2012-07-20T10:20:39.0000000+00:00</time></trkpt><trkpt lat="64.30982208" lon="-20.30530548"><ele>109.2</ele><time>2012-07-20T10:20:44.0000000+00:00</time></trkpt><trkpt lat="64.30982208" lon="-20.30530548"><ele>109.2</ele><time>2012-07-20T10:20:49.0000000+00:00</time></trkpt><trkpt lat="64.30982208" lon="-20.30530548"><ele>109.2</ele><time>2012-07-20T10:20:54.0000000+00:00</time></trkpt><trkpt lat="64.30982208" lon="-20.30530548"><ele>109.2</ele><time>2012-07-20T10:20:59.0000000+00:00</time></trkpt><trkpt lat="64.30982208" lon="-20.30530548"><ele>109.2</ele><time>2012-07-20T10:21:04.0000000+00:00</time></trkpt><trkpt lat="64.30982208" lon="-20.30530548"><ele>109.2</ele><time>2012-07-20T10:21:09.0000000+00:00</time></trkpt><trkpt lat="64.30982208" lon="-20.30530548"><ele>109.2</ele><time>2012-07-20T10:21:14.0000000+00:00</time></trkpt><trkpt lat="64.30982208" lon="-20.30530548"><ele>109.2</ele><time>2012-07-20T10:21:19.0000000+00:00</time></trkpt><trkpt lat="64.30982208" lon="-20.30530548"><ele>109.2</ele><time>2012-07-20T10:21:24.0000000+00:00</time></trkpt><trkpt lat="64.30982208" lon="-20.30530548"><ele>109.2</ele><time>2012-07-20T10:21:29.0000000+00:00</time></trkpt><trkpt lat="64.30982208" lon="-20.30530548"><ele>109.2</ele><time>2012-07-20T10:21:34.0000000+00:00</time></trkpt><trkpt lat="64.30982208" lon="-20.30530357"><ele>109.2</ele><time>2012-07-20T10:21:39.0000000+00:00</time></trkpt><trkpt lat="64.30982208" lon="-20.30530357"><ele>109.2</ele><time>2012-07-20T10:21:44.0000000+00:00</time></trkpt><trkpt lat="64.30982208" lon="-20.30530357"><ele>109.2</ele><time>2012-07-20T10:21:49.0000000+00:00</time></trkpt><trkpt lat="64.30982208" lon="-20.30530357"><ele>109.3</ele><time>2012-07-20T10:21:54.0000000+00:00</time></trkpt><trkpt lat="64.30982208" lon="-20.30530357"><ele>109.3</ele><time>2012-07-20T10:21:59.0000000+00:00</time></trkpt><trkpt lat="64.30982208" lon="-20.30530167"><ele>109.3</ele><time>2012-07-20T10:22:04.0000000+00:00</time></trkpt><trkpt lat="64.30982208" lon="-20.30530167"><ele>109.3</ele><time>2012-07-20T10:22:09.0000000+00:00</time></trkpt><trkpt lat="64.30982208" lon="-20.30530167"><ele>109.4</ele><time>2012-07-20T10:22:14.0000000+00:00</time></trkpt><trkpt lat="64.30982208" lon="-20.30530167"><ele>109.4</ele><time>2012-07-20T10:22:19.0000000+00:00</time></trkpt><trkpt lat="64.30982208" lon="-20.30530167"><ele>109.4</ele><time>2012-07-20T10:22:24.0000000+00:00</time></trkpt><trkpt lat="64.30982208" lon="-20.30529976"><ele>109.4</ele><time>2012-07-20T10:22:29.0000000+00:00</time></trkpt><trkpt lat="64.30982208" lon="-20.30529976"><ele>109.4</ele><time>2012-07-20T10:22:34.0000000+00:00</time></trkpt><trkpt lat="64.30982208" lon="-20.30529976"><ele>109.4</ele><time>2012-07-20T10:22:39.0000000+00:00</time></trkpt><trkpt lat="64.30982208" lon="-20.30529976"><ele>109.4</ele><time>2012-07-20T10:22:44.0000000+00:00</time></trkpt><trkpt lat="64.30982208" lon="-20.30529976"><ele>109.4</ele><time>2012-07-20T10:22:49.0000000+00:00</time></trkpt><trkpt lat="64.30982208" lon="-20.30529976"><ele>109.4</ele><time>2012-07-20T10:22:54.0000000+00:00</time></trkpt><trkpt lat="64.30982208" lon="-20.30529976"><ele>109.4</ele><time>2012-07-20T10:22:59.0000000+00:00</time></trkpt><trkpt lat="64.30982208" lon="-20.30529785"><ele>109.4</ele><time>2012-07-20T10:23:04.0000000+00:00</time></trkpt><trkpt lat="64.30982208" lon="-20.30529785"><ele>109.4</ele><time>2012-07-20T10:23:09.0000000+00:00</time></trkpt><trkpt lat="64.30982208" lon="-20.30529785"><ele>109.5</ele><time>2012-07-20T10:23:14.0000000+00:00</time></trkpt><trkpt lat="64.30982208" lon="-20.30529785"><ele>109.4</ele><time>2012-07-20T10:23:19.0000000+00:00</time></trkpt><trkpt lat="64.30982208" lon="-20.30529785"><ele>109.4</ele><time>2012-07-20T10:23:24.0000000+00:00</time></trkpt><trkpt lat="64.30982208" lon="-20.30529785"><ele>109.4</ele><time>2012-07-20T10:23:29.0000000+00:00</time></trkpt><trkpt lat="64.30982208" lon="-20.30529785"><ele>109.4</ele><time>2012-07-20T10:23:34.0000000+00:00</time></trkpt><trkpt lat="64.30982208" lon="-20.30529785"><ele>109.4</ele><time>2012-07-20T10:23:39.0000000+00:00</time></trkpt><trkpt lat="64.30982971" lon="-20.30529785"><ele>109.3</ele><time>2012-07-20T10:23:44.0000000+00:00</time></trkpt><trkpt lat="64.30982971" lon="-20.30529785"><ele>109.3</ele><time>2012-07-20T10:23:49.0000000+00:00</time></trkpt><trkpt lat="64.30982971" lon="-20.30529785"><ele>109.3</ele><time>2012-07-20T10:23:54.0000000+00:00</time></trkpt><trkpt lat="64.30982971" lon="-20.30529594"><ele>109.3</ele><time>2012-07-20T10:23:59.0000000+00:00</time></trkpt><trkpt lat="64.30982971" lon="-20.30529594"><ele>109.4</ele><time>2012-07-20T10:24:04.0000000+00:00</time></trkpt><trkpt lat="64.30982971" lon="-20.30529594"><ele>109.4</ele><time>2012-07-20T10:24:09.0000000+00:00</time></trkpt><trkpt lat="64.30982971" lon="-20.30529404"><ele>109.4</ele><time>2012-07-20T10:24:14.0000000+00:00</time></trkpt><trkpt lat="64.30982971" lon="-20.30529404"><ele>109.4</ele><time>2012-07-20T10:24:19.0000000+00:00</time></trkpt><trkpt lat="64.30982971" lon="-20.30529404"><ele>109.4</ele><time>2012-07-20T10:24:24.0000000+00:00</time></trkpt><trkpt lat="64.30982971" lon="-20.30529404"><ele>109.4</ele><time>2012-07-20T10:24:29.0000000+00:00</time></trkpt><trkpt lat="64.30982971" lon="-20.30529404"><ele>109.4</ele><time>2012-07-20T10:24:34.0000000+00:00</time></trkpt><trkpt lat="64.30982971" lon="-20.30529404"><ele>109.4</ele><time>2012-07-20T10:24:39.0000000+00:00</time></trkpt><trkpt lat="64.30982971" lon="-20.30529213"><ele>109.4</ele><time>2012-07-20T10:24:44.0000000+00:00</time></trkpt><trkpt lat="64.30982971" lon="-20.30529213"><ele>109.5</ele><time>2012-07-20T10:24:49.0000000+00:00</time></trkpt><trkpt lat="64.30982971" lon="-20.30529022"><ele>109.5</ele><time>2012-07-20T10:24:54.0000000+00:00</time></trkpt><trkpt lat="64.30982971" lon="-20.30529022"><ele>109.5</ele><time>2012-07-20T10:24:59.0000000+00:00</time></trkpt><trkpt lat="64.30982208" lon="-20.30529022"><ele>109.5</ele><time>2012-07-20T10:25:04.0000000+00:00</time></trkpt><trkpt lat="64.30982208" lon="-20.30529213"><ele>109.5</ele><time>2012-07-20T10:25:09.0000000+00:00</time></trkpt><trkpt lat="64.30982208" lon="-20.30529213"><ele>109.5</ele><time>2012-07-20T10:25:14.0000000+00:00</time></trkpt><trkpt lat="64.30982971" lon="-20.30529022"><ele>109.5</ele><time>2012-07-20T10:25:19.0000000+00:00</time></trkpt><trkpt lat="64.30982971" lon="-20.30529022"><ele>109.5</ele><time>2012-07-20T10:25:24.0000000+00:00</time></trkpt><trkpt lat="64.30982971" lon="-20.30529213"><ele>109.5</ele><time>2012-07-20T10:25:29.0000000+00:00</time></trkpt><trkpt lat="64.30982971" lon="-20.30529022"><ele>109.5</ele><time>2012-07-20T10:25:34.0000000+00:00</time></trkpt><trkpt lat="64.30982971" lon="-20.30529022"><ele>109.4</ele><time>2012-07-20T10:25:39.0000000+00:00</time></trkpt><trkpt lat="64.30982971" lon="-20.30529022"><ele>109.4</ele><time>2012-07-20T10:25:44.0000000+00:00</time></trkpt><trkpt lat="64.30982971" lon="-20.30529022"><ele>109.4</ele><time>2012-07-20T10:25:49.0000000+00:00</time></trkpt><trkpt lat="64.30982971" lon="-20.30528832"><ele>109.4</ele><time>2012-07-20T10:25:54.0000000+00:00</time></trkpt><trkpt lat="64.30982971" lon="-20.30528832"><ele>109.4</ele><time>2012-07-20T10:25:59.0000000+00:00</time></trkpt><trkpt lat="64.30982971" lon="-20.30528832"><ele>109.4</ele><time>2012-07-20T10:26:04.0000000+00:00</time></trkpt><trkpt lat="64.30982971" lon="-20.30528641"><ele>109.4</ele><time>2012-07-20T10:26:09.0000000+00:00</time></trkpt><trkpt lat="64.30982971" lon="-20.30528641"><ele>109.4</ele><time>2012-07-20T10:26:14.0000000+00:00</time></trkpt><trkpt lat="64.30982971" lon="-20.30528641"><ele>109.4</ele><time>2012-07-20T10:26:19.0000000+00:00</time></trkpt><trkpt lat="64.30982971" lon="-20.30528641"><ele>109.4</ele><time>2012-07-20T10:26:24.0000000+00:00</time></trkpt><trkpt lat="64.30982971" lon="-20.30528641"><ele>109.4</ele><time>2012-07-20T10:26:29.0000000+00:00</time></trkpt><trkpt lat="64.30982971" lon="-20.3052845"><ele>109.3</ele><time>2012-07-20T10:26:34.0000000+00:00</time></trkpt><trkpt lat="64.30982971" lon="-20.3052845"><ele>109.3</ele><time>2012-07-20T10:26:39.0000000+00:00</time></trkpt><trkpt lat="64.30982971" lon="-20.3052845"><ele>109.3</ele><time>2012-07-20T10:26:44.0000000+00:00</time></trkpt><trkpt lat="64.30982971" lon="-20.30528259"><ele>109.3</ele><time>2012-07-20T10:26:49.0000000+00:00</time></trkpt><trkpt lat="64.30982971" lon="-20.30528259"><ele>109.2</ele><time>2012-07-20T10:26:54.0000000+00:00</time></trkpt><trkpt lat="64.30982971" lon="-20.30528069"><ele>109.2</ele><time>2012-07-20T10:26:59.0000000+00:00</time></trkpt><trkpt lat="64.30982971" lon="-20.30528069"><ele>109.2</ele><time>2012-07-20T10:27:04.0000000+00:00</time></trkpt><trkpt lat="64.30982971" lon="-20.30527878"><ele>109.2</ele><time>2012-07-20T10:27:09.0000000+00:00</time></trkpt><trkpt lat="64.30982971" lon="-20.30527878"><ele>109.2</ele><time>2012-07-20T10:27:14.0000000+00:00</time></trkpt><trkpt lat="64.30982971" lon="-20.30527878"><ele>109.2</ele><time>2012-07-20T10:27:19.0000000+00:00</time></trkpt><trkpt lat="64.30982971" lon="-20.30527687"><ele>109.2</ele><time>2012-07-20T10:27:24.0000000+00:00</time></trkpt><trkpt lat="64.30982971" lon="-20.30527687"><ele>109.1</ele><time>2012-07-20T10:27:29.0000000+00:00</time></trkpt><trkpt lat="64.30982971" lon="-20.30527687"><ele>109.1</ele><time>2012-07-20T10:27:34.0000000+00:00</time></trkpt><trkpt lat="64.30982971" lon="-20.30527496"><ele>109.2</ele><time>2012-07-20T10:27:39.0000000+00:00</time></trkpt><trkpt lat="64.30982971" lon="-20.30527496"><ele>109.2</ele><time>2012-07-20T10:27:44.0000000+00:00</time></trkpt><trkpt lat="64.30982971" lon="-20.30527496"><ele>109.1</ele><time>2012-07-20T10:27:49.0000000+00:00</time></trkpt><trkpt lat="64.30982971" lon="-20.30527496"><ele>109.1</ele><time>2012-07-20T10:27:54.0000000+00:00</time></trkpt><trkpt lat="64.30982971" lon="-20.30527306"><ele>109.1</ele><time>2012-07-20T10:27:59.0000000+00:00</time></trkpt><trkpt lat="64.30982971" lon="-20.30527306"><ele>109.2</ele><time>2012-07-20T10:28:04.0000000+00:00</time></trkpt><trkpt lat="64.30982971" lon="-20.30527306"><ele>109.2</ele><time>2012-07-20T10:28:09.0000000+00:00</time></trkpt><trkpt lat="64.30982971" lon="-20.30527306"><ele>109.2</ele><time>2012-07-20T10:28:14.0000000+00:00</time></trkpt><trkpt lat="64.30982971" lon="-20.30527306"><ele>109.2</ele><time>2012-07-20T10:28:19.0000000+00:00</time></trkpt><trkpt lat="64.30982971" lon="-20.30527115"><ele>109.2</ele><time>2012-07-20T10:28:24.0000000+00:00</time></trkpt><trkpt lat="64.30982971" lon="-20.30527115"><ele>109.2</ele><time>2012-07-20T10:28:29.0000000+00:00</time></trkpt><trkpt lat="64.30982971" lon="-20.30527115"><ele>109.2</ele><time>2012-07-20T10:28:34.0000000+00:00</time></trkpt><trkpt lat="64.30983734" lon="-20.30526924"><ele>109.2</ele><time>2012-07-20T10:28:39.0000000+00:00</time></trkpt><trkpt lat="64.30983734" lon="-20.30526924"><ele>109.2</ele><time>2012-07-20T10:28:44.0000000+00:00</time></trkpt><trkpt lat="64.30983734" lon="-20.30526733"><ele>109.2</ele><time>2012-07-20T10:28:49.0000000+00:00</time></trkpt><trkpt lat="64.30983734" lon="-20.30526733"><ele>109.2</ele><time>2012-07-20T10:28:54.0000000+00:00</time></trkpt><trkpt lat="64.30983734" lon="-20.30526733"><ele>109.2</ele><time>2012-07-20T10:28:59.0000000+00:00</time></trkpt><trkpt lat="64.30983734" lon="-20.30526543"><ele>109.2</ele><time>2012-07-20T10:29:04.0000000+00:00</time></trkpt><trkpt lat="64.30983734" lon="-20.30526543"><ele>109.2</ele><time>2012-07-20T10:29:09.0000000+00:00</time></trkpt><trkpt lat="64.30983734" lon="-20.30526352"><ele>109.2</ele><time>2012-07-20T10:29:14.0000000+00:00</time></trkpt><trkpt lat="64.30983734" lon="-20.30526352"><ele>109.2</ele><time>2012-07-20T10:29:19.0000000+00:00</time></trkpt><trkpt lat="64.30983734" lon="-20.30526161"><ele>109.2</ele><time>2012-07-20T10:29:24.0000000+00:00</time></trkpt><trkpt lat="64.30983734" lon="-20.30526161"><ele>109.2</ele><time>2012-07-20T10:29:29.0000000+00:00</time></trkpt><trkpt lat="64.30983734" lon="-20.30525971"><ele>109.2</ele><time>2012-07-20T10:29:34.0000000+00:00</time></trkpt><trkpt lat="64.30983734" lon="-20.30525971"><ele>109.2</ele><time>2012-07-20T10:29:39.0000000+00:00</time></trkpt><trkpt lat="64.30983734" lon="-20.30525971"><ele>109.2</ele><time>2012-07-20T10:29:44.0000000+00:00</time></trkpt><trkpt lat="64.30983734" lon="-20.3052578"><ele>109.2</ele><time>2012-07-20T10:29:49.0000000+00:00</time></trkpt><trkpt lat="64.30983734" lon="-20.3052578"><ele>109.2</ele><time>2012-07-20T10:29:54.0000000+00:00</time></trkpt><trkpt lat="64.30983734" lon="-20.3052578"><ele>109.1</ele><time>2012-07-20T10:29:59.0000000+00:00</time></trkpt><trkpt lat="64.30983734" lon="-20.3052578"><ele>109.1</ele><time>2012-07-20T10:30:04.0000000+00:00</time></trkpt><trkpt lat="64.30983734" lon="-20.30525589"><ele>109.1</ele><time>2012-07-20T10:30:09.0000000+00:00</time></trkpt><trkpt lat="64.30983734" lon="-20.30525589"><ele>109.1</ele><time>2012-07-20T10:30:14.0000000+00:00</time></trkpt><trkpt lat="64.30983734" lon="-20.30525589"><ele>109.1</ele><time>2012-07-20T10:30:19.0000000+00:00</time></trkpt><trkpt lat="64.30983734" lon="-20.30525398"><ele>109.1</ele><time>2012-07-20T10:30:24.0000000+00:00</time></trkpt><trkpt lat="64.30983734" lon="-20.30525398"><ele>109.1</ele><time>2012-07-20T10:30:29.0000000+00:00</time></trkpt><trkpt lat="64.30983734" lon="-20.30525398"><ele>109.1</ele><time>2012-07-20T10:30:34.0000000+00:00</time></trkpt><trkpt lat="64.30983734" lon="-20.30525208"><ele>109.1</ele><time>2012-07-20T10:30:39.0000000+00:00</time></trkpt><trkpt lat="64.30983734" lon="-20.30525208"><ele>109.1</ele><time>2012-07-20T10:30:44.0000000+00:00</time></trkpt><trkpt lat="64.30983734" lon="-20.30525017"><ele>109.1</ele><time>2012-07-20T10:30:49.0000000+00:00</time></trkpt><trkpt lat="64.30983734" lon="-20.30525017"><ele>109.1</ele><time>2012-07-20T10:30:54.0000000+00:00</time></trkpt><trkpt lat="64.30983734" lon="-20.30524826"><ele>109.1</ele><time>2012-07-20T10:30:59.0000000+00:00</time></trkpt><trkpt lat="64.30983734" lon="-20.30524826"><ele>109.1</ele><time>2012-07-20T10:31:04.0000000+00:00</time></trkpt><trkpt lat="64.30983734" lon="-20.30524826"><ele>109.1</ele><time>2012-07-20T10:31:09.0000000+00:00</time></trkpt><trkpt lat="64.30983734" lon="-20.30524635"><ele>109.1</ele><time>2012-07-20T10:31:14.0000000+00:00</time></trkpt><trkpt lat="64.30983734" lon="-20.30524635"><ele>109.0</ele><time>2012-07-20T10:31:19.0000000+00:00</time></trkpt><trkpt lat="64.30983734" lon="-20.30524254"><ele>109.0</ele><time>2012-07-20T10:31:24.0000000+00:00</time></trkpt><trkpt lat="64.30984497" lon="-20.30523109"><ele>108.9</ele><time>2012-07-20T10:31:29.0000000+00:00</time></trkpt><trkpt lat="64.30984497" lon="-20.30521202"><ele>108.8</ele><time>2012-07-20T10:31:34.0000000+00:00</time></trkpt><trkpt lat="64.30984497" lon="-20.30520058"><ele>108.8</ele><time>2012-07-20T10:31:39.0000000+00:00</time></trkpt><trkpt lat="64.30984497" lon="-20.30519295"><ele>108.7</ele><time>2012-07-20T10:31:44.0000000+00:00</time></trkpt><trkpt lat="64.30984497" lon="-20.30519104"><ele>108.6</ele><time>2012-07-20T10:31:49.0000000+00:00</time></trkpt><trkpt lat="64.30984497" lon="-20.30519104"><ele>108.5</ele><time>2012-07-20T10:31:54.0000000+00:00</time></trkpt><trkpt lat="64.30984497" lon="-20.30519104"><ele>108.5</ele><time>2012-07-20T10:31:59.0000000+00:00</time></trkpt><trkpt lat="64.30984497" lon="-20.30519295"><ele>108.5</ele><time>2012-07-20T10:32:04.0000000+00:00</time></trkpt><trkpt lat="64.30984497" lon="-20.30519295"><ele>108.5</ele><time>2012-07-20T10:32:09.0000000+00:00</time></trkpt><trkpt lat="64.30984497" lon="-20.30519295"><ele>108.5</ele><time>2012-07-20T10:32:14.0000000+00:00</time></trkpt><trkpt lat="64.30984497" lon="-20.30519295"><ele>108.5</ele><time>2012-07-20T10:32:19.0000000+00:00</time></trkpt><trkpt lat="64.30984497" lon="-20.30519295"><ele>108.5</ele><time>2012-07-20T10:32:24.0000000+00:00</time></trkpt><trkpt lat="64.30984497" lon="-20.30519295"><ele>108.5</ele><time>2012-07-20T10:32:29.0000000+00:00</time></trkpt><trkpt lat="64.30984497" lon="-20.30519295"><ele>108.5</ele><time>2012-07-20T10:32:34.0000000+00:00</time></trkpt><trkpt lat="64.30984497" lon="-20.30519295"><ele>108.4</ele><time>2012-07-20T10:32:39.0000000+00:00</time></trkpt><trkpt lat="64.3098526" lon="-20.30519295"><ele>108.4</ele><time>2012-07-20T10:32:44.0000000+00:00</time></trkpt><trkpt lat="64.30984497" lon="-20.30519295"><ele>108.5</ele><time>2012-07-20T10:32:49.0000000+00:00</time></trkpt><trkpt lat="64.30984497" lon="-20.30519295"><ele>108.5</ele><time>2012-07-20T10:32:54.0000000+00:00</time></trkpt><trkpt lat="64.30984497" lon="-20.30519295"><ele>108.5</ele><time>2012-07-20T10:32:59.0000000+00:00</time></trkpt><trkpt lat="64.30984497" lon="-20.30519295"><ele>108.5</ele><time>2012-07-20T10:33:04.0000000+00:00</time></trkpt><trkpt lat="64.30984497" lon="-20.30519295"><ele>108.5</ele><time>2012-07-20T10:33:09.0000000+00:00</time></trkpt><trkpt lat="64.3098526" lon="-20.30519295"><ele>108.5</ele><time>2012-07-20T10:33:14.0000000+00:00</time></trkpt><trkpt lat="64.3098526" lon="-20.30519295"><ele>108.5</ele><time>2012-07-20T10:33:19.0000000+00:00</time></trkpt><trkpt lat="64.3098526" lon="-20.30519295"><ele>108.4</ele><time>2012-07-20T10:33:24.0000000+00:00</time></trkpt><trkpt lat="64.3098526" lon="-20.30519295"><ele>108.4</ele><time>2012-07-20T10:33:29.0000000+00:00</time></trkpt><trkpt lat="64.3098526" lon="-20.30519104"><ele>108.3</ele><time>2012-07-20T10:33:34.0000000+00:00</time></trkpt><trkpt lat="64.3098526" lon="-20.30519104"><ele>108.1</ele><time>2012-07-20T10:33:39.0000000+00:00</time></trkpt><trkpt lat="64.3098526" lon="-20.30519104"><ele>108.0</ele><time>2012-07-20T10:33:44.0000000+00:00</time></trkpt><trkpt lat="64.3098526" lon="-20.30519104"><ele>107.9</ele><time>2012-07-20T10:33:49.0000000+00:00</time></trkpt><trkpt lat="64.3098526" lon="-20.30518913"><ele>107.8</ele><time>2012-07-20T10:33:54.0000000+00:00</time></trkpt><trkpt lat="64.3098526" lon="-20.30518913"><ele>107.7</ele><time>2012-07-20T10:33:59.0000000+00:00</time></trkpt><trkpt lat="64.3098526" lon="-20.30518913"><ele>107.7</ele><time>2012-07-20T10:34:04.0000000+00:00</time></trkpt><trkpt lat="64.3098526" lon="-20.30518913"><ele>107.6</ele><time>2012-07-20T10:34:09.0000000+00:00</time></trkpt><trkpt lat="64.3098526" lon="-20.30518913"><ele>107.6</ele><time>2012-07-20T10:34:14.0000000+00:00</time></trkpt><trkpt lat="64.3098526" lon="-20.30518913"><ele>107.6</ele><time>2012-07-20T10:34:19.0000000+00:00</time></trkpt><trkpt lat="64.3098526" lon="-20.30518913"><ele>107.6</ele><time>2012-07-20T10:34:24.0000000+00:00</time></trkpt><trkpt lat="64.3098526" lon="-20.30518913"><ele>107.6</ele><time>2012-07-20T10:34:29.0000000+00:00</time></trkpt><trkpt lat="64.3098526" lon="-20.30518913"><ele>107.5</ele><time>2012-07-20T10:34:34.0000000+00:00</time></trkpt><trkpt lat="64.3098526" lon="-20.30518913"><ele>107.5</ele><time>2012-07-20T10:34:39.0000000+00:00</time></trkpt><trkpt lat="64.3098526" lon="-20.30518913"><ele>107.5</ele><time>2012-07-20T10:34:44.0000000+00:00</time></trkpt><trkpt lat="64.3098526" lon="-20.30518913"><ele>107.5</ele><time>2012-07-20T10:34:49.0000000+00:00</time></trkpt><trkpt lat="64.3098526" lon="-20.30518913"><ele>107.5</ele><time>2012-07-20T10:34:54.0000000+00:00</time></trkpt><trkpt lat="64.3098526" lon="-20.30518913"><ele>107.5</ele><time>2012-07-20T10:34:59.0000000+00:00</time></trkpt><trkpt lat="64.3098526" lon="-20.30518913"><ele>107.5</ele><time>2012-07-20T10:35:04.0000000+00:00</time></trkpt><trkpt lat="64.3098526" lon="-20.30518913"><ele>107.5</ele><time>2012-07-20T10:35:09.0000000+00:00</time></trkpt><trkpt lat="64.3098526" lon="-20.30518913"><ele>107.5</ele><time>2012-07-20T10:35:14.0000000+00:00</time></trkpt><trkpt lat="64.3098526" lon="-20.30519104"><ele>107.4</ele><time>2012-07-20T10:35:19.0000000+00:00</time></trkpt><trkpt lat="64.30986023" lon="-20.30519104"><ele>107.4</ele><time>2012-07-20T10:35:24.0000000+00:00</time></trkpt><trkpt lat="64.30986023" lon="-20.30519104"><ele>107.4</ele><time>2012-07-20T10:35:29.0000000+00:00</time></trkpt><trkpt lat="64.30986023" lon="-20.30519104"><ele>107.4</ele><time>2012-07-20T10:35:34.0000000+00:00</time></trkpt><trkpt lat="64.30986023" lon="-20.30519295"><ele>107.4</ele><time>2012-07-20T10:35:39.0000000+00:00</time></trkpt><trkpt lat="64.30986023" lon="-20.30519295"><ele>107.4</ele><time>2012-07-20T10:35:44.0000000+00:00</time></trkpt><trkpt lat="64.30986023" lon="-20.30519295"><ele>107.5</ele><time>2012-07-20T10:35:49.0000000+00:00</time></trkpt><trkpt lat="64.3098526" lon="-20.30519295"><ele>107.5</ele><time>2012-07-20T10:35:54.0000000+00:00</time></trkpt><trkpt lat="64.3098526" lon="-20.30519486"><ele>107.5</ele><time>2012-07-20T10:35:59.0000000+00:00</time></trkpt><trkpt lat="64.3098526" lon="-20.30519486"><ele>107.5</ele><time>2012-07-20T10:36:04.0000000+00:00</time></trkpt><trkpt lat="64.3098526" lon="-20.30519676"><ele>107.5</ele><time>2012-07-20T10:36:09.0000000+00:00</time></trkpt><trkpt lat="64.3098526" lon="-20.30519867"><ele>107.6</ele><time>2012-07-20T10:36:14.0000000+00:00</time></trkpt><trkpt lat="64.3098526" lon="-20.30520058"><ele>107.6</ele><time>2012-07-20T10:36:19.0000000+00:00</time></trkpt><trkpt lat="64.3098526" lon="-20.30520058"><ele>107.6</ele><time>2012-07-20T10:36:24.0000000+00:00</time></trkpt><trkpt lat="64.3098526" lon="-20.30520058"><ele>107.6</ele><time>2012-07-20T10:36:29.0000000+00:00</time></trkpt><trkpt lat="64.3098526" lon="-20.30520248"><ele>107.6</ele><time>2012-07-20T10:36:34.0000000+00:00</time></trkpt><trkpt lat="64.3098526" lon="-20.30520248"><ele>107.6</ele><time>2012-07-20T10:36:39.0000000+00:00</time></trkpt><trkpt lat="64.3098526" lon="-20.30520248"><ele>107.6</ele><time>2012-07-20T10:36:44.0000000+00:00</time></trkpt><trkpt lat="64.3098526" lon="-20.30520439"><ele>107.6</ele><time>2012-07-20T10:36:49.0000000+00:00</time></trkpt><trkpt lat="64.3098526" lon="-20.30520439"><ele>107.6</ele><time>2012-07-20T10:36:54.0000000+00:00</time></trkpt><trkpt lat="64.3098526" lon="-20.30520439"><ele>107.6</ele><time>2012-07-20T10:36:59.0000000+00:00</time></trkpt><trkpt lat="64.3098526" lon="-20.30520439"><ele>107.7</ele><time>2012-07-20T10:37:04.0000000+00:00</time></trkpt><trkpt lat="64.3098526" lon="-20.30520439"><ele>107.7</ele><time>2012-07-20T10:37:09.0000000+00:00</time></trkpt><trkpt lat="64.3098526" lon="-20.3052063"><ele>107.7</ele><time>2012-07-20T10:37:14.0000000+00:00</time></trkpt><trkpt lat="64.3098526" lon="-20.3052063"><ele>107.7</ele><time>2012-07-20T10:37:19.0000000+00:00</time></trkpt><trkpt lat="64.3098526" lon="-20.3052063"><ele>107.7</ele><time>2012-07-20T10:37:24.0000000+00:00</time></trkpt><trkpt lat="64.3098526" lon="-20.3052063"><ele>107.8</ele><time>2012-07-20T10:37:29.0000000+00:00</time></trkpt><trkpt lat="64.3098526" lon="-20.3052063"><ele>107.8</ele><time>2012-07-20T10:37:34.0000000+00:00</time></trkpt><trkpt lat="64.3098526" lon="-20.3052063"><ele>107.8</ele><time>2012-07-20T10:37:39.0000000+00:00</time></trkpt><trkpt lat="64.3098526" lon="-20.3052063"><ele>107.8</ele><time>2012-07-20T10:37:44.0000000+00:00</time></trkpt><trkpt lat="64.3098526" lon="-20.3052063"><ele>107.8</ele><time>2012-07-20T10:37:49.0000000+00:00</time></trkpt><trkpt lat="64.3098526" lon="-20.3052063"><ele>107.8</ele><time>2012-07-20T10:37:54.0000000+00:00</time></trkpt><trkpt lat="64.3098526" lon="-20.3052063"><ele>107.8</ele><time>2012-07-20T10:37:59.0000000+00:00</time></trkpt><trkpt lat="64.3098526" lon="-20.3052063"><ele>107.8</ele><time>2012-07-20T10:38:04.0000000+00:00</time></trkpt><trkpt lat="64.3098526" lon="-20.3052063"><ele>107.8</ele><time>2012-07-20T10:38:09.0000000+00:00</time></trkpt><trkpt lat="64.3098526" lon="-20.3052063"><ele>107.8</ele><time>2012-07-20T10:38:14.0000000+00:00</time></trkpt><trkpt lat="64.3098526" lon="-20.3052063"><ele>107.8</ele><time>2012-07-20T10:38:19.0000000+00:00</time></trkpt><trkpt lat="64.3098526" lon="-20.3052063"><ele>107.8</ele><time>2012-07-20T10:38:24.0000000+00:00</time></trkpt><trkpt lat="64.3098526" lon="-20.3052063"><ele>107.8</ele><time>2012-07-20T10:38:29.0000000+00:00</time></trkpt><trkpt lat="64.3098526" lon="-20.3052063"><ele>107.8</ele><time>2012-07-20T10:38:34.0000000+00:00</time></trkpt><trkpt lat="64.3098526" lon="-20.3052063"><ele>107.8</ele><time>2012-07-20T10:38:39.0000000+00:00</time></trkpt><trkpt lat="64.3098526" lon="-20.3052063"><ele>107.8</ele><time>2012-07-20T10:38:44.0000000+00:00</time></trkpt><trkpt lat="64.3098526" lon="-20.3052063"><ele>107.8</ele><time>2012-07-20T10:38:49.0000000+00:00</time></trkpt><trkpt lat="64.3098526" lon="-20.3052063"><ele>107.8</ele><time>2012-07-20T10:38:54.0000000+00:00</time></trkpt><trkpt lat="64.3098526" lon="-20.3052063"><ele>107.8</ele><time>2012-07-20T10:38:59.0000000+00:00</time></trkpt><trkpt lat="64.3098526" lon="-20.30520821"><ele>107.8</ele><time>2012-07-20T10:39:04.0000000+00:00</time></trkpt><trkpt lat="64.30982208" lon="-20.30525589"><ele>108.9</ele><time>2012-07-20T10:39:09.0000000+00:00</time></trkpt><trkpt lat="64.3096695" lon="-20.305233"><ele>111.5</ele><time>2012-07-20T10:39:14.0000000+00:00</time></trkpt><trkpt lat="64.30953217" lon="-20.30515289"><ele>113.0</ele><time>2012-07-20T10:39:19.0000000+00:00</time></trkpt><trkpt lat="64.30939484" lon="-20.30492592"><ele>110.5</ele><time>2012-07-20T10:39:24.0000000+00:00</time></trkpt><trkpt lat="64.30929565" lon="-20.30464935"><ele>109.5</ele><time>2012-07-20T10:39:29.0000000+00:00</time></trkpt><trkpt lat="64.3093338" lon="-20.30427742"><ele>109.6</ele><time>2012-07-20T10:39:34.0000000+00:00</time></trkpt><trkpt lat="64.30941773" lon="-20.30393982"><ele>109.8</ele><time>2012-07-20T10:39:39.0000000+00:00</time></trkpt><trkpt lat="64.30950928" lon="-20.30360794"><ele>111.5</ele><time>2012-07-20T10:39:44.0000000+00:00</time></trkpt><trkpt lat="64.3095932" lon="-20.3032856"><ele>111.9</ele><time>2012-07-20T10:39:49.0000000+00:00</time></trkpt><trkpt lat="64.30965424" lon="-20.30296707"><ele>112.0</ele><time>2012-07-20T10:39:54.0000000+00:00</time></trkpt><trkpt lat="64.3097229" lon="-20.30262756"><ele>111.9</ele><time>2012-07-20T10:39:59.0000000+00:00</time></trkpt><trkpt lat="64.30982208" lon="-20.30228996"><ele>113.5</ele><time>2012-07-20T10:40:04.0000000+00:00</time></trkpt><trkpt lat="64.30990601" lon="-20.30198097"><ele>116.2</ele><time>2012-07-20T10:40:09.0000000+00:00</time></trkpt><trkpt lat="64.3099823" lon="-20.3016758"><ele>117.2</ele><time>2012-07-20T10:40:14.0000000+00:00</time></trkpt><trkpt lat="64.31006622" lon="-20.30135155"><ele>116.7</ele><time>2012-07-20T10:40:19.0000000+00:00</time></trkpt><trkpt lat="64.31016541" lon="-20.30107689"><ele>116.7</ele><time>2012-07-20T10:40:24.0000000+00:00</time></trkpt><trkpt lat="64.31025696" lon="-20.30083084"><ele>116.9</ele><time>2012-07-20T10:40:29.0000000+00:00</time></trkpt><trkpt lat="64.31036377" lon="-20.30055809"><ele>116.6</ele><time>2012-07-20T10:40:34.0000000+00:00</time></trkpt><trkpt lat="64.31047058" lon="-20.30028725"><ele>116.5</ele><time>2012-07-20T10:40:39.0000000+00:00</time></trkpt><trkpt lat="64.31060028" lon="-20.30002594"><ele>116.6</ele><time>2012-07-20T10:40:44.0000000+00:00</time></trkpt><trkpt lat="64.31072998" lon="-20.29978752"><ele>116.7</ele><time>2012-07-20T10:40:49.0000000+00:00</time></trkpt><trkpt lat="64.31086731" lon="-20.29955292"><ele>116.7</ele><time>2012-07-20T10:40:54.0000000+00:00</time></trkpt><trkpt lat="64.31101227" lon="-20.2993145"><ele>117.2</ele><time>2012-07-20T10:40:59.0000000+00:00</time></trkpt><trkpt lat="64.31115723" lon="-20.29907036"><ele>117.5</ele><time>2012-07-20T10:41:04.0000000+00:00</time></trkpt><trkpt lat="64.31129456" lon="-20.29878998"><ele>117.9</ele><time>2012-07-20T10:41:09.0000000+00:00</time></trkpt><trkpt lat="64.31143189" lon="-20.29848862"><ele>118.1</ele><time>2012-07-20T10:41:14.0000000+00:00</time></trkpt><trkpt lat="64.31156158" lon="-20.29818726"><ele>118.2</ele><time>2012-07-20T10:41:19.0000000+00:00</time></trkpt><trkpt lat="64.31167603" lon="-20.29787445"><ele>117.9</ele><time>2012-07-20T10:41:24.0000000+00:00</time></trkpt><trkpt lat="64.31179047" lon="-20.29753685"><ele>117.8</ele><time>2012-07-20T10:41:29.0000000+00:00</time></trkpt><trkpt lat="64.31188965" lon="-20.29717445"><ele>117.9</ele><time>2012-07-20T10:41:34.0000000+00:00</time></trkpt><trkpt lat="64.31197357" lon="-20.29680252"><ele>117.0</ele><time>2012-07-20T10:41:39.0000000+00:00</time></trkpt><trkpt lat="64.31206513" lon="-20.29640961"><ele>117.3</ele><time>2012-07-20T10:41:44.0000000+00:00</time></trkpt><trkpt lat="64.31214905" lon="-20.29597664"><ele>117.0</ele><time>2012-07-20T10:41:49.0000000+00:00</time></trkpt><trkpt lat="64.31222534" lon="-20.29549027"><ele>116.9</ele><time>2012-07-20T10:41:54.0000000+00:00</time></trkpt><trkpt lat="64.31228638" lon="-20.29498673"><ele>116.8</ele><time>2012-07-20T10:41:59.0000000+00:00</time></trkpt><trkpt lat="64.31233215" lon="-20.29448128"><ele>116.4</ele><time>2012-07-20T10:42:04.0000000+00:00</time></trkpt><trkpt lat="64.3123703" lon="-20.29400063"><ele>116.0</ele><time>2012-07-20T10:42:09.0000000+00:00</time></trkpt><trkpt lat="64.31241608" lon="-20.2935276"><ele>117.0</ele><time>2012-07-20T10:42:14.0000000+00:00</time></trkpt><trkpt lat="64.31245422" lon="-20.29306412"><ele>117.8</ele><time>2012-07-20T10:42:19.0000000+00:00</time></trkpt><trkpt lat="64.3125" lon="-20.29260445"><ele>119.0</ele><time>2012-07-20T10:42:24.0000000+00:00</time></trkpt><trkpt lat="64.31254578" lon="-20.29211998"><ele>119.4</ele><time>2012-07-20T10:42:29.0000000+00:00</time></trkpt><trkpt lat="64.31259918" lon="-20.29163933"><ele>119.6</ele><time>2012-07-20T10:42:34.0000000+00:00</time></trkpt><trkpt lat="64.31264496" lon="-20.29115295"><ele>120.6</ele><time>2012-07-20T10:42:39.0000000+00:00</time></trkpt><trkpt lat="64.31269074" lon="-20.2906456"><ele>120.5</ele><time>2012-07-20T10:42:44.0000000+00:00</time></trkpt><trkpt lat="64.31273651" lon="-20.29016495"><ele>120.5</ele><time>2012-07-20T10:42:49.0000000+00:00</time></trkpt><trkpt lat="64.31277466" lon="-20.28982353"><ele>119.9</ele><time>2012-07-20T10:42:54.0000000+00:00</time></trkpt><trkpt lat="64.31282044" lon="-20.28933144"><ele>119.1</ele><time>2012-07-20T10:42:59.0000000+00:00</time></trkpt><trkpt lat="64.31287384" lon="-20.28879356"><ele>118.7</ele><time>2012-07-20T10:43:04.0000000+00:00</time></trkpt><trkpt lat="64.31293488" lon="-20.28822708"><ele>119.0</ele><time>2012-07-20T10:43:09.0000000+00:00</time></trkpt><trkpt lat="64.31298828" lon="-20.28763962"><ele>119.0</ele><time>2012-07-20T10:43:14.0000000+00:00</time></trkpt><trkpt lat="64.31304932" lon="-20.28706551"><ele>118.6</ele><time>2012-07-20T10:43:19.0000000+00:00</time></trkpt><trkpt lat="64.31311035" lon="-20.28652954"><ele>118.7</ele><time>2012-07-20T10:43:24.0000000+00:00</time></trkpt><trkpt lat="64.31316376" lon="-20.28599358"><ele>118.7</ele><time>2012-07-20T10:43:29.0000000+00:00</time></trkpt><trkpt lat="64.31321716" lon="-20.28546143"><ele>119.0</ele><time>2012-07-20T10:43:34.0000000+00:00</time></trkpt><trkpt lat="64.3132782" lon="-20.2849102"><ele>119.3</ele><time>2012-07-20T10:43:39.0000000+00:00</time></trkpt><trkpt lat="64.3133316" lon="-20.28434944"><ele>119.3</ele><time>2012-07-20T10:43:44.0000000+00:00</time></trkpt><trkpt lat="64.31339264" lon="-20.28373146"><ele>119.0</ele><time>2012-07-20T10:43:49.0000000+00:00</time></trkpt><trkpt lat="64.3134613" lon="-20.28303909"><ele>117.9</ele><time>2012-07-20T10:43:54.0000000+00:00</time></trkpt><trkpt lat="64.31352997" lon="-20.28232575"><ele>116.4</ele><time>2012-07-20T10:43:59.0000000+00:00</time></trkpt><trkpt lat="64.31360626" lon="-20.28156662"><ele>115.4</ele><time>2012-07-20T10:44:04.0000000+00:00</time></trkpt><trkpt lat="64.31369019" lon="-20.28074837"><ele>114.1</ele><time>2012-07-20T10:44:09.0000000+00:00</time></trkpt><trkpt lat="64.31377411" lon="-20.27988625"><ele>112.7</ele><time>2012-07-20T10:44:14.0000000+00:00</time></trkpt><trkpt lat="64.31386566" lon="-20.27902603"><ele>111.3</ele><time>2012-07-20T10:44:19.0000000+00:00</time></trkpt><trkpt lat="64.31394959" lon="-20.27814293"><ele>110.3</ele><time>2012-07-20T10:44:24.0000000+00:00</time></trkpt><trkpt lat="64.31404114" lon="-20.27728462"><ele>109.7</ele><time>2012-07-20T10:44:29.0000000+00:00</time></trkpt><trkpt lat="64.31412506" lon="-20.27645874"><ele>109.2</ele><time>2012-07-20T10:44:34.0000000+00:00</time></trkpt><trkpt lat="64.31419373" lon="-20.27565384"><ele>109.6</ele><time>2012-07-20T10:44:39.0000000+00:00</time></trkpt><trkpt lat="64.31425476" lon="-20.27487755"><ele>109.8</ele><time>2012-07-20T10:44:44.0000000+00:00</time></trkpt><trkpt lat="64.31428528" lon="-20.27411842"><ele>109.3</ele><time>2012-07-20T10:44:49.0000000+00:00</time></trkpt><trkpt lat="64.31430817" lon="-20.2734108"><ele>110.0</ele><time>2012-07-20T10:44:54.0000000+00:00</time></trkpt><trkpt lat="64.3143158" lon="-20.27276039"><ele>110.8</ele><time>2012-07-20T10:44:59.0000000+00:00</time></trkpt><trkpt lat="64.3143158" lon="-20.27212334"><ele>112.2</ele><time>2012-07-20T10:45:04.0000000+00:00</time></trkpt><trkpt lat="64.31429291" lon="-20.2714653"><ele>113.3</ele><time>2012-07-20T10:45:09.0000000+00:00</time></trkpt><trkpt lat="64.31427002" lon="-20.27079773"><ele>113.3</ele><time>2012-07-20T10:45:14.0000000+00:00</time></trkpt><trkpt lat="64.31424713" lon="-20.27013397"><ele>114.1</ele><time>2012-07-20T10:45:19.0000000+00:00</time></trkpt><trkpt lat="64.31420136" lon="-20.26951027"><ele>115.2</ele><time>2012-07-20T10:45:24.0000000+00:00</time></trkpt><trkpt lat="64.31414795" lon="-20.2688694"><ele>116.4</ele><time>2012-07-20T10:45:29.0000000+00:00</time></trkpt><trkpt lat="64.31408691" lon="-20.26827812"><ele>116.8</ele><time>2012-07-20T10:45:34.0000000+00:00</time></trkpt><trkpt lat="64.31401825" lon="-20.26771355"><ele>117.0</ele><time>2012-07-20T10:45:39.0000000+00:00</time></trkpt><trkpt lat="64.31394959" lon="-20.26714325"><ele>116.6</ele><time>2012-07-20T10:45:44.0000000+00:00</time></trkpt><trkpt lat="64.31388855" lon="-20.26660729"><ele>117.0</ele><time>2012-07-20T10:45:49.0000000+00:00</time></trkpt><trkpt lat="64.3138504" lon="-20.26610947"><ele>116.8</ele><time>2012-07-20T10:45:54.0000000+00:00</time></trkpt><trkpt lat="64.31381989" lon="-20.26580429"><ele>116.3</ele><time>2012-07-20T10:45:59.0000000+00:00</time></trkpt><trkpt lat="64.313797" lon="-20.2656765"><ele>116.3</ele><time>2012-07-20T10:46:04.0000000+00:00</time></trkpt><trkpt lat="64.313797" lon="-20.26568031"><ele>116.5</ele><time>2012-07-20T10:46:09.0000000+00:00</time></trkpt><trkpt lat="64.31378937" lon="-20.26568604"><ele>116.4</ele><time>2012-07-20T10:46:14.0000000+00:00</time></trkpt><trkpt lat="64.31378937" lon="-20.26568794"><ele>116.4</ele><time>2012-07-20T10:46:19.0000000+00:00</time></trkpt><trkpt lat="64.31378937" lon="-20.26566887"><ele>116.5</ele><time>2012-07-20T10:46:24.0000000+00:00</time></trkpt><trkpt lat="64.31378174" lon="-20.2656517"><ele>116.6</ele><time>2012-07-20T10:46:29.0000000+00:00</time></trkpt><trkpt lat="64.31377411" lon="-20.26559448"><ele>116.8</ele><time>2012-07-20T10:46:34.0000000+00:00</time></trkpt><trkpt lat="64.31377411" lon="-20.26556015"><ele>116.6</ele><time>2012-07-20T10:46:39.0000000+00:00</time></trkpt><trkpt lat="64.31375885" lon="-20.26527405"><ele>116.6</ele><time>2012-07-20T10:46:44.0000000+00:00</time></trkpt><trkpt lat="64.31371307" lon="-20.26483727"><ele>116.1</ele><time>2012-07-20T10:46:49.0000000+00:00</time></trkpt><trkpt lat="64.3136673" lon="-20.26434708"><ele>115.1</ele><time>2012-07-20T10:46:54.0000000+00:00</time></trkpt><trkpt lat="64.31360626" lon="-20.26384163"><ele>116.0</ele><time>2012-07-20T10:46:59.0000000+00:00</time></trkpt><trkpt lat="64.31355286" lon="-20.26333809"><ele>116.6</ele><time>2012-07-20T10:47:04.0000000+00:00</time></trkpt><trkpt lat="64.31348419" lon="-20.26278305"><ele>117.4</ele><time>2012-07-20T10:47:09.0000000+00:00</time></trkpt><trkpt lat="64.31341553" lon="-20.26222801"><ele>118.4</ele><time>2012-07-20T10:47:14.0000000+00:00</time></trkpt><trkpt lat="64.31334686" lon="-20.26168633"><ele>118.9</ele><time>2012-07-20T10:47:19.0000000+00:00</time></trkpt><trkpt lat="64.31327057" lon="-20.26112747"><ele>118.9</ele><time>2012-07-20T10:47:24.0000000+00:00</time></trkpt><trkpt lat="64.31317139" lon="-20.26059723"><ele>119.4</ele><time>2012-07-20T10:47:29.0000000+00:00</time></trkpt><trkpt lat="64.31307221" lon="-20.26003265"><ele>119.5</ele><time>2012-07-20T10:47:34.0000000+00:00</time></trkpt><trkpt lat="64.31295013" lon="-20.25943375"><ele>118.3</ele><time>2012-07-20T10:47:39.0000000+00:00</time></trkpt><trkpt lat="64.31282044" lon="-20.25887871"><ele>117.9</ele><time>2012-07-20T10:47:44.0000000+00:00</time></trkpt><trkpt lat="64.31269836" lon="-20.25837326"><ele>118.6</ele><time>2012-07-20T10:47:49.0000000+00:00</time></trkpt><trkpt lat="64.31255341" lon="-20.25777054"><ele>118.1</ele><time>2012-07-20T10:47:54.0000000+00:00</time></trkpt><trkpt lat="64.31240845" lon="-20.25712395"><ele>117.0</ele><time>2012-07-20T10:47:59.0000000+00:00</time></trkpt><trkpt lat="64.31225586" lon="-20.25648499"><ele>115.7</ele><time>2012-07-20T10:48:04.0000000+00:00</time></trkpt><trkpt lat="64.31209564" lon="-20.25585556"><ele>114.9</ele><time>2012-07-20T10:48:09.0000000+00:00</time></trkpt><trkpt lat="64.31195068" lon="-20.25522804"><ele>114.9</ele><time>2012-07-20T10:48:14.0000000+00:00</time></trkpt><trkpt lat="64.31181335" lon="-20.25468826"><ele>116.9</ele><time>2012-07-20T10:48:19.0000000+00:00</time></trkpt><trkpt lat="64.31169128" lon="-20.25414848"><ele>118.8</ele><time>2012-07-20T10:48:24.0000000+00:00</time></trkpt><trkpt lat="64.31156921" lon="-20.25354958"><ele>120.3</ele><time>2012-07-20T10:48:29.0000000+00:00</time></trkpt><trkpt lat="64.31145477" lon="-20.2529335"><ele>121.7</ele><time>2012-07-20T10:48:34.0000000+00:00</time></trkpt><trkpt lat="64.31134033" lon="-20.25229836"><ele>121.8</ele><time>2012-07-20T10:48:39.0000000+00:00</time></trkpt><trkpt lat="64.31124115" lon="-20.25162888"><ele>119.9</ele><time>2012-07-20T10:48:44.0000000+00:00</time></trkpt><trkpt lat="64.31115723" lon="-20.25102997"><ele>119.2</ele><time>2012-07-20T10:48:49.0000000+00:00</time></trkpt><trkpt lat="64.3110733" lon="-20.25040245"><ele>117.3</ele><time>2012-07-20T10:48:54.0000000+00:00</time></trkpt><trkpt lat="64.31100464" lon="-20.24978828"><ele>113.3</ele><time>2012-07-20T10:48:59.0000000+00:00</time></trkpt><trkpt lat="64.3109436" lon="-20.24917221"><ele>112.8</ele><time>2012-07-20T10:49:04.0000000+00:00</time></trkpt><trkpt lat="64.31087494" lon="-20.24851799"><ele>112.1</ele><time>2012-07-20T10:49:09.0000000+00:00</time></trkpt><trkpt lat="64.31082153" lon="-20.24782181"><ele>111.4</ele><time>2012-07-20T10:49:14.0000000+00:00</time></trkpt><trkpt lat="64.31076813" lon="-20.24714088"><ele>112.4</ele><time>2012-07-20T10:49:19.0000000+00:00</time></trkpt><trkpt lat="64.31072235" lon="-20.24649048"><ele>113.2</ele><time>2012-07-20T10:49:24.0000000+00:00</time></trkpt><trkpt lat="64.3106842" lon="-20.2459259"><ele>114.1</ele><time>2012-07-20T10:49:29.0000000+00:00</time></trkpt><trkpt lat="64.31065369" lon="-20.24548149"><ele>114.3</ele><time>2012-07-20T10:49:34.0000000+00:00</time></trkpt><trkpt lat="64.31061554" lon="-20.24502564"><ele>115.0</ele><time>2012-07-20T10:49:39.0000000+00:00</time></trkpt><trkpt lat="64.31058502" lon="-20.24458313"><ele>115.4</ele><time>2012-07-20T10:49:44.0000000+00:00</time></trkpt><trkpt lat="64.31054688" lon="-20.24412155"><ele>115.9</ele><time>2012-07-20T10:49:49.0000000+00:00</time></trkpt><trkpt lat="64.31050873" lon="-20.2436676"><ele>116.4</ele><time>2012-07-20T10:49:54.0000000+00:00</time></trkpt><trkpt lat="64.31047058" lon="-20.24319077"><ele>116.9</ele><time>2012-07-20T10:49:59.0000000+00:00</time></trkpt><trkpt lat="64.31043243" lon="-20.2427063"><ele>117.2</ele><time>2012-07-20T10:50:04.0000000+00:00</time></trkpt><trkpt lat="64.31040192" lon="-20.24224281"><ele>117.3</ele><time>2012-07-20T10:50:09.0000000+00:00</time></trkpt><trkpt lat="64.31036377" lon="-20.24179459"><ele>117.6</ele><time>2012-07-20T10:50:14.0000000+00:00</time></trkpt><trkpt lat="64.31033325" lon="-20.24140549"><ele>118.6</ele><time>2012-07-20T10:50:19.0000000+00:00</time></trkpt><trkpt lat="64.31030273" lon="-20.24102783"><ele>119.0</ele><time>2012-07-20T10:50:24.0000000+00:00</time></trkpt><trkpt lat="64.31027222" lon="-20.24065208"><ele>120.0</ele><time>2012-07-20T10:50:29.0000000+00:00</time></trkpt><trkpt lat="64.3102417" lon="-20.24028015"><ele>120.4</ele><time>2012-07-20T10:50:34.0000000+00:00</time></trkpt><trkpt lat="64.31022644" lon="-20.23993111"><ele>120.9</ele><time>2012-07-20T10:50:39.0000000+00:00</time></trkpt><trkpt lat="64.31019592" lon="-20.23958588"><ele>121.6</ele><time>2012-07-20T10:50:44.0000000+00:00</time></trkpt><trkpt lat="64.31016541" lon="-20.23922157"><ele>121.9</ele><time>2012-07-20T10:50:49.0000000+00:00</time></trkpt><trkpt lat="64.31014252" lon="-20.23885346"><ele>122.8</ele><time>2012-07-20T10:50:54.0000000+00:00</time></trkpt><trkpt lat="64.310112" lon="-20.23851585"><ele>123.3</ele><time>2012-07-20T10:50:59.0000000+00:00</time></trkpt><trkpt lat="64.31008911" lon="-20.23818779"><ele>123.7</ele><time>2012-07-20T10:51:04.0000000+00:00</time></trkpt><trkpt lat="64.31006622" lon="-20.23789787"><ele>124.7</ele><time>2012-07-20T10:51:09.0000000+00:00</time></trkpt><trkpt lat="64.31005096" lon="-20.23764801"><ele>125.6</ele><time>2012-07-20T10:51:14.0000000+00:00</time></trkpt><trkpt lat="64.31002808" lon="-20.23737907"><ele>126.9</ele><time>2012-07-20T10:51:19.0000000+00:00</time></trkpt><trkpt lat="64.31000519" lon="-20.23710823"><ele>127.5</ele><time>2012-07-20T10:51:24.0000000+00:00</time></trkpt><trkpt lat="64.30998993" lon="-20.23682594"><ele>128.1</ele><time>2012-07-20T10:51:29.0000000+00:00</time></trkpt><trkpt lat="64.30995941" lon="-20.23656082"><ele>128.4</ele><time>2012-07-20T10:51:34.0000000+00:00</time></trkpt><trkpt lat="64.30995178" lon="-20.23629189"><ele>129.3</ele><time>2012-07-20T10:51:39.0000000+00:00</time></trkpt><trkpt lat="64.30992127" lon="-20.23600006"><ele>129.9</ele><time>2012-07-20T10:51:44.0000000+00:00</time></trkpt><trkpt lat="64.30990601" lon="-20.23564148"><ele>130.8</ele><time>2012-07-20T10:51:49.0000000+00:00</time></trkpt><trkpt lat="64.30987549" lon="-20.23524666"><ele>131.8</ele><time>2012-07-20T10:51:54.0000000+00:00</time></trkpt><trkpt lat="64.30983734" lon="-20.23482895"><ele>132.7</ele><time>2012-07-20T10:51:59.0000000+00:00</time></trkpt><trkpt lat="64.30981445" lon="-20.23444367"><ele>132.8</ele><time>2012-07-20T10:52:04.0000000+00:00</time></trkpt><trkpt lat="64.30979157" lon="-20.23407936"><ele>133.8</ele><time>2012-07-20T10:52:09.0000000+00:00</time></trkpt><trkpt lat="64.30976105" lon="-20.23371315"><ele>134.3</ele><time>2012-07-20T10:52:14.0000000+00:00</time></trkpt><trkpt lat="64.30973816" lon="-20.23333168"><ele>134.1</ele><time>2012-07-20T10:52:19.0000000+00:00</time></trkpt><trkpt lat="64.30970764" lon="-20.23291206"><ele>134.6</ele><time>2012-07-20T10:52:24.0000000+00:00</time></trkpt><trkpt lat="64.3096695" lon="-20.23248291"><ele>135.1</ele><time>2012-07-20T10:52:29.0000000+00:00</time></trkpt><trkpt lat="64.30963898" lon="-20.23207665"><ele>135.7</ele><time>2012-07-20T10:52:34.0000000+00:00</time></trkpt><trkpt lat="64.30960846" lon="-20.23169518"><ele>136.6</ele><time>2012-07-20T10:52:39.0000000+00:00</time></trkpt><trkpt lat="64.30957794" lon="-20.23126793"><ele>137.0</ele><time>2012-07-20T10:52:44.0000000+00:00</time></trkpt><trkpt lat="64.30954742" lon="-20.23084641"><ele>137.4</ele><time>2012-07-20T10:52:49.0000000+00:00</time></trkpt><trkpt lat="64.30951691" lon="-20.23044205"><ele>138.3</ele><time>2012-07-20T10:52:54.0000000+00:00</time></trkpt><trkpt lat="64.30948639" lon="-20.23011398"><ele>138.6</ele><time>2012-07-20T10:52:59.0000000+00:00</time></trkpt><trkpt lat="64.30945587" lon="-20.22969437"><ele>138.8</ele><time>2012-07-20T10:53:04.0000000+00:00</time></trkpt><trkpt lat="64.30941773" lon="-20.22926331"><ele>139.0</ele><time>2012-07-20T10:53:09.0000000+00:00</time></trkpt><trkpt lat="64.30938721" lon="-20.22879601"><ele>138.7</ele><time>2012-07-20T10:53:14.0000000+00:00</time></trkpt><trkpt lat="64.30934906" lon="-20.2283268"><ele>139.1</ele><time>2012-07-20T10:53:19.0000000+00:00</time></trkpt><trkpt lat="64.30931854" lon="-20.22788048"><ele>139.4</ele><time>2012-07-20T10:53:24.0000000+00:00</time></trkpt><trkpt lat="64.30928803" lon="-20.22743797"><ele>140.0</ele><time>2012-07-20T10:53:29.0000000+00:00</time></trkpt><trkpt lat="64.30924988" lon="-20.22702026"><ele>140.6</ele><time>2012-07-20T10:53:34.0000000+00:00</time></trkpt><trkpt lat="64.30921936" lon="-20.22657013"><ele>141.3</ele><time>2012-07-20T10:53:39.0000000+00:00</time></trkpt><trkpt lat="64.30918884" lon="-20.22613907"><ele>141.9</ele><time>2012-07-20T10:53:44.0000000+00:00</time></trkpt><trkpt lat="64.3091507" lon="-20.22574806"><ele>142.0</ele><time>2012-07-20T10:53:49.0000000+00:00</time></trkpt><trkpt lat="64.30912018" lon="-20.22529984"><ele>142.7</ele><time>2012-07-20T10:53:54.0000000+00:00</time></trkpt><trkpt lat="64.30908966" lon="-20.22489929"><ele>143.3</ele><time>2012-07-20T10:53:59.0000000+00:00</time></trkpt><trkpt lat="64.30906677" lon="-20.22459602"><ele>144.2</ele><time>2012-07-20T10:54:04.0000000+00:00</time></trkpt><trkpt lat="64.30904388" lon="-20.22430039"><ele>144.9</ele><time>2012-07-20T10:54:09.0000000+00:00</time></trkpt><trkpt lat="64.309021" lon="-20.22404671"><ele>145.5</ele><time>2012-07-20T10:54:14.0000000+00:00</time></trkpt><trkpt lat="64.30899811" lon="-20.22378349"><ele>146.2</ele><time>2012-07-20T10:54:19.0000000+00:00</time></trkpt><trkpt lat="64.30898285" lon="-20.22351456"><ele>146.7</ele><time>2012-07-20T10:54:24.0000000+00:00</time></trkpt><trkpt lat="64.30895996" lon="-20.22326279"><ele>147.3</ele><time>2012-07-20T10:54:29.0000000+00:00</time></trkpt><trkpt lat="64.3089447" lon="-20.2230072"><ele>147.8</ele><time>2012-07-20T10:54:34.0000000+00:00</time></trkpt><trkpt lat="64.30892944" lon="-20.22276115"><ele>147.9</ele><time>2012-07-20T10:54:39.0000000+00:00</time></trkpt><trkpt lat="64.30890656" lon="-20.22252655"><ele>148.2</ele><time>2012-07-20T10:54:44.0000000+00:00</time></trkpt><trkpt lat="64.30888367" lon="-20.22225571"><ele>148.2</ele><time>2012-07-20T10:54:49.0000000+00:00</time></trkpt><trkpt lat="64.30886078" lon="-20.22197151"><ele>148.4</ele><time>2012-07-20T10:54:54.0000000+00:00</time></trkpt><trkpt lat="64.30883789" lon="-20.22169304"><ele>149.1</ele><time>2012-07-20T10:54:59.0000000+00:00</time></trkpt><trkpt lat="64.30883026" lon="-20.2214222"><ele>149.9</ele><time>2012-07-20T10:55:04.0000000+00:00</time></trkpt><trkpt lat="64.30880737" lon="-20.22114754"><ele>149.9</ele><time>2012-07-20T10:55:09.0000000+00:00</time></trkpt><trkpt lat="64.30879211" lon="-20.22088814"><ele>147.1</ele><time>2012-07-20T10:55:14.0000000+00:00</time></trkpt><trkpt lat="64.30876923" lon="-20.2205925"><ele>148.1</ele><time>2012-07-20T10:55:19.0000000+00:00</time></trkpt><trkpt lat="64.30874634" lon="-20.2203064"><ele>149.2</ele><time>2012-07-20T10:55:24.0000000+00:00</time></trkpt><trkpt lat="64.30872345" lon="-20.22002602"><ele>150.0</ele><time>2012-07-20T10:55:29.0000000+00:00</time></trkpt><trkpt lat="64.30870056" lon="-20.21975899"><ele>150.5</ele><time>2012-07-20T10:55:34.0000000+00:00</time></trkpt><trkpt lat="64.30867767" lon="-20.2195015"><ele>151.4</ele><time>2012-07-20T10:55:39.0000000+00:00</time></trkpt><trkpt lat="64.30865479" lon="-20.21923447"><ele>152.3</ele><time>2012-07-20T10:55:44.0000000+00:00</time></trkpt><trkpt lat="64.30863953" lon="-20.21895981"><ele>152.6</ele><time>2012-07-20T10:55:49.0000000+00:00</time></trkpt><trkpt lat="64.30862427" lon="-20.21865845"><ele>153.1</ele><time>2012-07-20T10:55:54.0000000+00:00</time></trkpt><trkpt lat="64.30860138" lon="-20.2183857"><ele>154.2</ele><time>2012-07-20T10:55:59.0000000+00:00</time></trkpt><trkpt lat="64.30857849" lon="-20.21812248"><ele>154.7</ele><time>2012-07-20T10:56:04.0000000+00:00</time></trkpt><trkpt lat="64.3085556" lon="-20.21785355"><ele>155.5</ele><time>2012-07-20T10:56:09.0000000+00:00</time></trkpt><trkpt lat="64.30853272" lon="-20.21758461"><ele>155.8</ele><time>2012-07-20T10:56:14.0000000+00:00</time></trkpt><trkpt lat="64.30850983" lon="-20.21735191"><ele>156.0</ele><time>2012-07-20T10:56:19.0000000+00:00</time></trkpt><trkpt lat="64.3085022" lon="-20.21710396"><ele>156.7</ele><time>2012-07-20T10:56:24.0000000+00:00</time></trkpt><trkpt lat="64.30847168" lon="-20.21683121"><ele>157.1</ele><time>2012-07-20T10:56:29.0000000+00:00</time></trkpt><trkpt lat="64.30844879" lon="-20.21655273"><ele>157.3</ele><time>2012-07-20T10:56:34.0000000+00:00</time></trkpt><trkpt lat="64.30843353" lon="-20.21627617"><ele>158.2</ele><time>2012-07-20T10:56:39.0000000+00:00</time></trkpt><trkpt lat="64.30841065" lon="-20.2159996"><ele>158.9</ele><time>2012-07-20T10:56:44.0000000+00:00</time></trkpt><trkpt lat="64.30838776" lon="-20.21572876"><ele>159.5</ele><time>2012-07-20T10:56:49.0000000+00:00</time></trkpt><trkpt lat="64.3083725" lon="-20.21545982"><ele>160.1</ele><time>2012-07-20T10:56:54.0000000+00:00</time></trkpt><trkpt lat="64.30834961" lon="-20.2151928"><ele>160.8</ele><time>2012-07-20T10:56:59.0000000+00:00</time></trkpt><trkpt lat="64.30832672" lon="-20.21493149"><ele>161.3</ele><time>2012-07-20T10:57:04.0000000+00:00</time></trkpt><trkpt lat="64.30831146" lon="-20.21465874"><ele>162.0</ele><time>2012-07-20T10:57:09.0000000+00:00</time></trkpt><trkpt lat="64.3082962" lon="-20.21440125"><ele>162.6</ele><time>2012-07-20T10:57:14.0000000+00:00</time></trkpt><trkpt lat="64.30827332" lon="-20.21414375"><ele>163.5</ele><time>2012-07-20T10:57:19.0000000+00:00</time></trkpt><trkpt lat="64.30825043" lon="-20.21387482"><ele>164.0</ele><time>2012-07-20T10:57:24.0000000+00:00</time></trkpt><trkpt lat="64.30823517" lon="-20.2136097"><ele>164.5</ele><time>2012-07-20T10:57:29.0000000+00:00</time></trkpt><trkpt lat="64.30821228" lon="-20.21334267"><ele>165.0</ele><time>2012-07-20T10:57:34.0000000+00:00</time></trkpt><trkpt lat="64.30819702" lon="-20.21307564"><ele>165.9</ele><time>2012-07-20T10:57:39.0000000+00:00</time></trkpt><trkpt lat="64.3081665" lon="-20.21273994"><ele>166.0</ele><time>2012-07-20T10:57:44.0000000+00:00</time></trkpt><trkpt lat="64.30814362" lon="-20.21245003"><ele>166.7</ele><time>2012-07-20T10:57:49.0000000+00:00</time></trkpt><trkpt lat="64.30812073" lon="-20.21214104"><ele>166.9</ele><time>2012-07-20T10:57:54.0000000+00:00</time></trkpt><trkpt lat="64.30810547" lon="-20.21187019"><ele>167.4</ele><time>2012-07-20T10:57:59.0000000+00:00</time></trkpt><trkpt lat="64.30809021" lon="-20.21157265"><ele>168.1</ele><time>2012-07-20T10:58:04.0000000+00:00</time></trkpt><trkpt lat="64.30806732" lon="-20.2112751"><ele>168.3</ele><time>2012-07-20T10:58:09.0000000+00:00</time></trkpt><trkpt lat="64.3080368" lon="-20.21099663"><ele>168.5</ele><time>2012-07-20T10:58:14.0000000+00:00</time></trkpt><trkpt lat="64.30801392" lon="-20.21071053"><ele>168.5</ele><time>2012-07-20T10:58:19.0000000+00:00</time></trkpt><trkpt lat="64.30799866" lon="-20.21039772"><ele>168.7</ele><time>2012-07-20T10:58:24.0000000+00:00</time></trkpt><trkpt lat="64.30797577" lon="-20.21009827"><ele>168.6</ele><time>2012-07-20T10:58:29.0000000+00:00</time></trkpt><trkpt lat="64.30795288" lon="-20.20977593"><ele>169.0</ele><time>2012-07-20T10:58:34.0000000+00:00</time></trkpt><trkpt lat="64.30792236" lon="-20.20941734"><ele>169.5</ele><time>2012-07-20T10:58:39.0000000+00:00</time></trkpt><trkpt lat="64.30789948" lon="-20.20906067"><ele>170.1</ele><time>2012-07-20T10:58:44.0000000+00:00</time></trkpt><trkpt lat="64.30786896" lon="-20.20868111"><ele>170.7</ele><time>2012-07-20T10:58:49.0000000+00:00</time></trkpt><trkpt lat="64.30784607" lon="-20.20832253"><ele>171.8</ele><time>2012-07-20T10:58:54.0000000+00:00</time></trkpt><trkpt lat="64.30781555" lon="-20.20794678"><ele>172.1</ele><time>2012-07-20T10:58:59.0000000+00:00</time></trkpt><trkpt lat="64.30778503" lon="-20.20755768"><ele>172.3</ele><time>2012-07-20T10:59:04.0000000+00:00</time></trkpt><trkpt lat="64.30775452" lon="-20.20718384"><ele>172.7</ele><time>2012-07-20T10:59:09.0000000+00:00</time></trkpt><trkpt lat="64.307724" lon="-20.20680237"><ele>173.2</ele><time>2012-07-20T10:59:14.0000000+00:00</time></trkpt><trkpt lat="64.30768585" lon="-20.20640183"><ele>173.2</ele><time>2012-07-20T10:59:19.0000000+00:00</time></trkpt><trkpt lat="64.30765533" lon="-20.20599747"><ele>173.1</ele><time>2012-07-20T10:59:24.0000000+00:00</time></trkpt><trkpt lat="64.30763245" lon="-20.20558739"><ele>173.3</ele><time>2012-07-20T10:59:29.0000000+00:00</time></trkpt><trkpt lat="64.3075943" lon="-20.20519066"><ele>173.5</ele><time>2012-07-20T10:59:34.0000000+00:00</time></trkpt><trkpt lat="64.30757141" lon="-20.20477295"><ele>174.1</ele><time>2012-07-20T10:59:39.0000000+00:00</time></trkpt><trkpt lat="64.30753326" lon="-20.20431709"><ele>174.1</ele><time>2012-07-20T10:59:44.0000000+00:00</time></trkpt><trkpt lat="64.30749512" lon="-20.20381165"><ele>174.2</ele><time>2012-07-20T10:59:49.0000000+00:00</time></trkpt><trkpt lat="64.30744934" lon="-20.20326805"><ele>174.0</ele><time>2012-07-20T10:59:54.0000000+00:00</time></trkpt><trkpt lat="64.30741119" lon="-20.20278168"><ele>174.4</ele><time>2012-07-20T10:59:59.0000000+00:00</time></trkpt><trkpt lat="64.30738068" lon="-20.20226479"><ele>174.6</ele><time>2012-07-20T11:00:04.0000000+00:00</time></trkpt><trkpt lat="64.3073349" lon="-20.20172119"><ele>174.8</ele><time>2012-07-20T11:00:09.0000000+00:00</time></trkpt><trkpt lat="64.30729675" lon="-20.20115471"><ele>175.2</ele><time>2012-07-20T11:00:14.0000000+00:00</time></trkpt><trkpt lat="64.30725098" lon="-20.20064354"><ele>176.1</ele><time>2012-07-20T11:00:19.0000000+00:00</time></trkpt><trkpt lat="64.30721283" lon="-20.20013428"><ele>175.4</ele><time>2012-07-20T11:00:24.0000000+00:00</time></trkpt><trkpt lat="64.30718231" lon="-20.19967461"><ele>176.2</ele><time>2012-07-20T11:00:29.0000000+00:00</time></trkpt><trkpt lat="64.30715179" lon="-20.19924736"><ele>176.5</ele><time>2012-07-20T11:00:34.0000000+00:00</time></trkpt><trkpt lat="64.30711365" lon="-20.19880295"><ele>176.9</ele><time>2012-07-20T11:00:39.0000000+00:00</time></trkpt><trkpt lat="64.30709076" lon="-20.19836807"><ele>177.8</ele><time>2012-07-20T11:00:44.0000000+00:00</time></trkpt><trkpt lat="64.30705261" lon="-20.19796562"><ele>178.2</ele><time>2012-07-20T11:00:49.0000000+00:00</time></trkpt><trkpt lat="64.30702972" lon="-20.19758034"><ele>176.9</ele><time>2012-07-20T11:00:54.0000000+00:00</time></trkpt><trkpt lat="64.30699921" lon="-20.19722939"><ele>177.8</ele><time>2012-07-20T11:00:59.0000000+00:00</time></trkpt><trkpt lat="64.30696869" lon="-20.19687653"><ele>178.6</ele><time>2012-07-20T11:01:04.0000000+00:00</time></trkpt><trkpt lat="64.3069458" lon="-20.19655418"><ele>179.1</ele><time>2012-07-20T11:01:09.0000000+00:00</time></trkpt><trkpt lat="64.30690765" lon="-20.19622994"><ele>179.9</ele><time>2012-07-20T11:01:14.0000000+00:00</time></trkpt><trkpt lat="64.3068924" lon="-20.1959362"><ele>180.7</ele><time>2012-07-20T11:01:19.0000000+00:00</time></trkpt><trkpt lat="64.30686951" lon="-20.19565392"><ele>181.8</ele><time>2012-07-20T11:01:24.0000000+00:00</time></trkpt><trkpt lat="64.30682373" lon="-20.19539261"><ele>182.0</ele><time>2012-07-20T11:01:29.0000000+00:00</time></trkpt><trkpt lat="64.30680084" lon="-20.19513321"><ele>182.6</ele><time>2012-07-20T11:01:34.0000000+00:00</time></trkpt><trkpt lat="64.30677795" lon="-20.19488907"><ele>183.5</ele><time>2012-07-20T11:01:39.0000000+00:00</time></trkpt><trkpt lat="64.3067627" lon="-20.19461632"><ele>184.1</ele><time>2012-07-20T11:01:44.0000000+00:00</time></trkpt><trkpt lat="64.30673218" lon="-20.19431114"><ele>184.1</ele><time>2012-07-20T11:01:49.0000000+00:00</time></trkpt><trkpt lat="64.30670166" lon="-20.19398689"><ele>184.4</ele><time>2012-07-20T11:01:54.0000000+00:00</time></trkpt><trkpt lat="64.30666351" lon="-20.1936512"><ele>184.9</ele><time>2012-07-20T11:01:59.0000000+00:00</time></trkpt><trkpt lat="64.30662537" lon="-20.19329834"><ele>185.5</ele><time>2012-07-20T11:02:04.0000000+00:00</time></trkpt><trkpt lat="64.30659485" lon="-20.19292069"><ele>186.0</ele><time>2012-07-20T11:02:09.0000000+00:00</time></trkpt><trkpt lat="64.30656433" lon="-20.19259453"><ele>185.9</ele><time>2012-07-20T11:02:14.0000000+00:00</time></trkpt><trkpt lat="64.30653381" lon="-20.19218636"><ele>185.9</ele><time>2012-07-20T11:02:19.0000000+00:00</time></trkpt><trkpt lat="64.30648804" lon="-20.19177628"><ele>187.0</ele><time>2012-07-20T11:02:24.0000000+00:00</time></trkpt><trkpt lat="64.30644989" lon="-20.19135666"><ele>187.9</ele><time>2012-07-20T11:02:29.0000000+00:00</time></trkpt><trkpt lat="64.30641174" lon="-20.19091797"><ele>188.4</ele><time>2012-07-20T11:02:34.0000000+00:00</time></trkpt><trkpt lat="64.30636597" lon="-20.19050407"><ele>189.0</ele><time>2012-07-20T11:02:39.0000000+00:00</time></trkpt><trkpt lat="64.30633545" lon="-20.19009399"><ele>190.0</ele><time>2012-07-20T11:02:44.0000000+00:00</time></trkpt><trkpt lat="64.30628967" lon="-20.18962479"><ele>190.4</ele><time>2012-07-20T11:02:49.0000000+00:00</time></trkpt><trkpt lat="64.30623627" lon="-20.18912697"><ele>190.6</ele><time>2012-07-20T11:02:54.0000000+00:00</time></trkpt><trkpt lat="64.30618286" lon="-20.18862915"><ele>190.5</ele><time>2012-07-20T11:02:59.0000000+00:00</time></trkpt><trkpt lat="64.30613709" lon="-20.18811989"><ele>190.5</ele><time>2012-07-20T11:03:04.0000000+00:00</time></trkpt><trkpt lat="64.30608368" lon="-20.18760109"><ele>190.1</ele><time>2012-07-20T11:03:09.0000000+00:00</time></trkpt><trkpt lat="64.3060379" lon="-20.18710899"><ele>190.3</ele><time>2012-07-20T11:03:14.0000000+00:00</time></trkpt><trkpt lat="64.3059845" lon="-20.1865387"><ele>189.7</ele><time>2012-07-20T11:03:19.0000000+00:00</time></trkpt><trkpt lat="64.30593872" lon="-20.18601227"><ele>189.7</ele><time>2012-07-20T11:03:24.0000000+00:00</time></trkpt><trkpt lat="64.30588532" lon="-20.18549347"><ele>190.1</ele><time>2012-07-20T11:03:29.0000000+00:00</time></trkpt><trkpt lat="64.30584717" lon="-20.18501663"><ele>190.7</ele><time>2012-07-20T11:03:34.0000000+00:00</time></trkpt><trkpt lat="64.30580139" lon="-20.18457794"><ele>190.9</ele><time>2012-07-20T11:03:39.0000000+00:00</time></trkpt><trkpt lat="64.30575562" lon="-20.18414116"><ele>191.2</ele><time>2012-07-20T11:03:44.0000000+00:00</time></trkpt><trkpt lat="64.30571747" lon="-20.1837101"><ele>192.1</ele><time>2012-07-20T11:03:49.0000000+00:00</time></trkpt><trkpt lat="64.30567932" lon="-20.1832695"><ele>193.0</ele><time>2012-07-20T11:03:54.0000000+00:00</time></trkpt><trkpt lat="64.3056488" lon="-20.18280983"><ele>193.5</ele><time>2012-07-20T11:03:59.0000000+00:00</time></trkpt><trkpt lat="64.30562592" lon="-20.18240929"><ele>193.9</ele><time>2012-07-20T11:04:04.0000000+00:00</time></trkpt><trkpt lat="64.3055954" lon="-20.18204689"><ele>194.9</ele><time>2012-07-20T11:04:09.0000000+00:00</time></trkpt><trkpt lat="64.30557251" lon="-20.18164825"><ele>195.3</ele><time>2012-07-20T11:04:14.0000000+00:00</time></trkpt><trkpt lat="64.30555725" lon="-20.18123055"><ele>195.9</ele><time>2012-07-20T11:04:19.0000000+00:00</time></trkpt><trkpt lat="64.30554962" lon="-20.18081856"><ele>196.3</ele><time>2012-07-20T11:04:24.0000000+00:00</time></trkpt><trkpt lat="64.30554199" lon="-20.18039513"><ele>196.9</ele><time>2012-07-20T11:04:29.0000000+00:00</time></trkpt><trkpt lat="64.30553436" lon="-20.17997742"><ele>197.6</ele><time>2012-07-20T11:04:34.0000000+00:00</time></trkpt><trkpt lat="64.30553436" lon="-20.17966461"><ele>198.1</ele><time>2012-07-20T11:04:39.0000000+00:00</time></trkpt><trkpt lat="64.30554962" lon="-20.17937279"><ele>198.0</ele><time>2012-07-20T11:04:44.0000000+00:00</time></trkpt><trkpt lat="64.30553436" lon="-20.1793251"><ele>197.0</ele><time>2012-07-20T11:04:49.0000000+00:00</time></trkpt><trkpt lat="64.30552673" lon="-20.17932892"><ele>196.8</ele><time>2012-07-20T11:04:54.0000000+00:00</time></trkpt><trkpt lat="64.30552673" lon="-20.1793251"><ele>196.8</ele><time>2012-07-20T11:04:59.0000000+00:00</time></trkpt><trkpt lat="64.30553436" lon="-20.17933464"><ele>196.5</ele><time>2012-07-20T11:05:04.0000000+00:00</time></trkpt><trkpt lat="64.30553436" lon="-20.17933464"><ele>196.4</ele><time>2012-07-20T11:05:09.0000000+00:00</time></trkpt><trkpt lat="64.30553436" lon="-20.17933655"><ele>196.4</ele><time>2012-07-20T11:05:14.0000000+00:00</time></trkpt><trkpt lat="64.30552673" lon="-20.17933273"><ele>196.4</ele><time>2012-07-20T11:05:19.0000000+00:00</time></trkpt><trkpt lat="64.30552673" lon="-20.17933273"><ele>196.4</ele><time>2012-07-20T11:05:24.0000000+00:00</time></trkpt><trkpt lat="64.30552673" lon="-20.17933273"><ele>196.4</ele><time>2012-07-20T11:05:29.0000000+00:00</time></trkpt><trkpt lat="64.30552673" lon="-20.17933273"><ele>196.3</ele><time>2012-07-20T11:05:34.0000000+00:00</time></trkpt><trkpt lat="64.30552673" lon="-20.17933083"><ele>196.4</ele><time>2012-07-20T11:05:39.0000000+00:00</time></trkpt><trkpt lat="64.30552673" lon="-20.17933273"><ele>196.4</ele><time>2012-07-20T11:05:44.0000000+00:00</time></trkpt><trkpt lat="64.30552673" lon="-20.17933273"><ele>196.4</ele><time>2012-07-20T11:05:49.0000000+00:00</time></trkpt><trkpt lat="64.30552673" lon="-20.17933273"><ele>196.4</ele><time>2012-07-20T11:05:54.0000000+00:00</time></trkpt><trkpt lat="64.30552673" lon="-20.17933273"><ele>196.4</ele><time>2012-07-20T11:05:59.0000000+00:00</time></trkpt><trkpt lat="64.30552673" lon="-20.17933273"><ele>196.4</ele><time>2012-07-20T11:06:04.0000000+00:00</time></trkpt><trkpt lat="64.3055191" lon="-20.17931366"><ele>196.5</ele><time>2012-07-20T11:06:09.0000000+00:00</time></trkpt><trkpt lat="64.30552673" lon="-20.17919731"><ele>196.1</ele><time>2012-07-20T11:06:14.0000000+00:00</time></trkpt><trkpt lat="64.30552673" lon="-20.17888069"><ele>196.1</ele><time>2012-07-20T11:06:19.0000000+00:00</time></trkpt><trkpt lat="64.30552673" lon="-20.178442"><ele>196.5</ele><time>2012-07-20T11:06:24.0000000+00:00</time></trkpt><trkpt lat="64.30553436" lon="-20.17794037"><ele>196.7</ele><time>2012-07-20T11:06:29.0000000+00:00</time></trkpt><trkpt lat="64.30553436" lon="-20.17740822"><ele>196.8</ele><time>2012-07-20T11:06:34.0000000+00:00</time></trkpt><trkpt lat="64.30554199" lon="-20.17681694"><ele>196.8</ele><time>2012-07-20T11:06:39.0000000+00:00</time></trkpt><trkpt lat="64.30553436" lon="-20.17621231"><ele>196.7</ele><time>2012-07-20T11:06:44.0000000+00:00</time></trkpt><trkpt lat="64.30554199" lon="-20.17559624"><ele>196.8</ele><time>2012-07-20T11:06:49.0000000+00:00</time></trkpt><trkpt lat="64.30553436" lon="-20.1750145"><ele>196.4</ele><time>2012-07-20T11:06:54.0000000+00:00</time></trkpt><trkpt lat="64.30554199" lon="-20.17439652"><ele>196.7</ele><time>2012-07-20T11:06:59.0000000+00:00</time></trkpt><trkpt lat="64.30554199" lon="-20.17377472"><ele>196.1</ele><time>2012-07-20T11:07:04.0000000+00:00</time></trkpt><trkpt lat="64.30554199" lon="-20.1731205"><ele>196.1</ele><time>2012-07-20T11:07:09.0000000+00:00</time></trkpt><trkpt lat="64.30554199" lon="-20.17249489"><ele>195.7</ele><time>2012-07-20T11:07:14.0000000+00:00</time></trkpt><trkpt lat="64.30554962" lon="-20.1718502"><ele>195.2</ele><time>2012-07-20T11:07:19.0000000+00:00</time></trkpt><trkpt lat="64.30557251" lon="-20.17116737"><ele>194.3</ele><time>2012-07-20T11:07:24.0000000+00:00</time></trkpt><trkpt lat="64.30561066" lon="-20.17040634"><ele>193.0</ele><time>2012-07-20T11:07:29.0000000+00:00</time></trkpt><trkpt lat="64.30567169" lon="-20.16958237"><ele>191.6</ele><time>2012-07-20T11:07:34.0000000+00:00</time></trkpt><trkpt lat="64.30577087" lon="-20.16869736"><ele>189.4</ele><time>2012-07-20T11:07:39.0000000+00:00</time></trkpt><trkpt lat="64.3059082" lon="-20.16779137"><ele>187.8</ele><time>2012-07-20T11:07:44.0000000+00:00</time></trkpt><trkpt lat="64.30607605" lon="-20.16696739"><ele>187.0</ele><time>2012-07-20T11:07:49.0000000+00:00</time></trkpt><trkpt lat="64.30626679" lon="-20.16625023"><ele>187.0</ele><time>2012-07-20T11:07:54.0000000+00:00</time></trkpt><trkpt lat="64.30646515" lon="-20.16566277"><ele>187.4</ele><time>2012-07-20T11:07:59.0000000+00:00</time></trkpt><trkpt lat="64.30665588" lon="-20.16514587"><ele>188.1</ele><time>2012-07-20T11:08:04.0000000+00:00</time></trkpt><trkpt lat="64.30684662" lon="-20.16471481"><ele>188.3</ele><time>2012-07-20T11:08:09.0000000+00:00</time></trkpt><trkpt lat="64.30705261" lon="-20.16430283"><ele>188.8</ele><time>2012-07-20T11:08:14.0000000+00:00</time></trkpt><trkpt lat="64.30726624" lon="-20.16388321"><ele>189.0</ele><time>2012-07-20T11:08:19.0000000+00:00</time></trkpt><trkpt lat="64.30747986" lon="-20.16348267"><ele>188.8</ele><time>2012-07-20T11:08:24.0000000+00:00</time></trkpt><trkpt lat="64.30767059" lon="-20.16312027"><ele>189.5</ele><time>2012-07-20T11:08:29.0000000+00:00</time></trkpt><trkpt lat="64.3078537" lon="-20.16275597"><ele>190.0</ele><time>2012-07-20T11:08:34.0000000+00:00</time></trkpt><trkpt lat="64.30802155" lon="-20.16242409"><ele>190.3</ele><time>2012-07-20T11:08:39.0000000+00:00</time></trkpt><trkpt lat="64.30820465" lon="-20.16210747"><ele>189.7</ele><time>2012-07-20T11:08:44.0000000+00:00</time></trkpt><trkpt lat="64.30835724" lon="-20.16181374"><ele>190.5</ele><time>2012-07-20T11:08:49.0000000+00:00</time></trkpt><trkpt lat="64.30848694" lon="-20.16156006"><ele>190.1</ele><time>2012-07-20T11:08:54.0000000+00:00</time></trkpt><trkpt lat="64.30863953" lon="-20.16126251"><ele>189.2</ele><time>2012-07-20T11:08:59.0000000+00:00</time></trkpt><trkpt lat="64.30880737" lon="-20.16094399"><ele>188.4</ele><time>2012-07-20T11:09:04.0000000+00:00</time></trkpt><trkpt lat="64.30898285" lon="-20.16062737"><ele>188.2</ele><time>2012-07-20T11:09:09.0000000+00:00</time></trkpt><trkpt lat="64.30916596" lon="-20.16028595"><ele>188.8</ele><time>2012-07-20T11:09:14.0000000+00:00</time></trkpt><trkpt lat="64.30934906" lon="-20.15993691"><ele>188.4</ele><time>2012-07-20T11:09:19.0000000+00:00</time></trkpt><trkpt lat="64.30951691" lon="-20.15961838"><ele>187.9</ele><time>2012-07-20T11:09:24.0000000+00:00</time></trkpt><trkpt lat="64.30967712" lon="-20.15930939"><ele>189.1</ele><time>2012-07-20T11:09:29.0000000+00:00</time></trkpt><trkpt lat="64.30982208" lon="-20.15902519"><ele>190.2</ele><time>2012-07-20T11:09:34.0000000+00:00</time></trkpt><trkpt lat="64.30996704" lon="-20.15876579"><ele>190.6</ele><time>2012-07-20T11:09:39.0000000+00:00</time></trkpt><trkpt lat="64.310112" lon="-20.15849114"><ele>191.8</ele><time>2012-07-20T11:09:44.0000000+00:00</time></trkpt><trkpt lat="64.31025696" lon="-20.15821075"><ele>192.4</ele><time>2012-07-20T11:09:49.0000000+00:00</time></trkpt><trkpt lat="64.31040955" lon="-20.15791512"><ele>192.8</ele><time>2012-07-20T11:09:54.0000000+00:00</time></trkpt><trkpt lat="64.31056976" lon="-20.1576252"><ele>192.8</ele><time>2012-07-20T11:09:59.0000000+00:00</time></trkpt><trkpt lat="64.31072235" lon="-20.15733337"><ele>193.4</ele><time>2012-07-20T11:10:04.0000000+00:00</time></trkpt><trkpt lat="64.31088257" lon="-20.15704727"><ele>194.1</ele><time>2012-07-20T11:10:09.0000000+00:00</time></trkpt><trkpt lat="64.31103516" lon="-20.15673447"><ele>194.9</ele><time>2012-07-20T11:10:14.0000000+00:00</time></trkpt><trkpt lat="64.311203" lon="-20.15642929"><ele>194.5</ele><time>2012-07-20T11:10:19.0000000+00:00</time></trkpt><trkpt lat="64.31137085" lon="-20.15611458"><ele>194.5</ele><time>2012-07-20T11:10:24.0000000+00:00</time></trkpt><trkpt lat="64.3115387" lon="-20.15578079"><ele>194.4</ele><time>2012-07-20T11:10:29.0000000+00:00</time></trkpt><trkpt lat="64.31171417" lon="-20.15545654"><ele>194.4</ele><time>2012-07-20T11:10:34.0000000+00:00</time></trkpt><trkpt lat="64.31188202" lon="-20.15512276"><ele>194.2</ele><time>2012-07-20T11:10:39.0000000+00:00</time></trkpt><trkpt lat="64.31207275" lon="-20.15477562"><ele>194.0</ele><time>2012-07-20T11:10:44.0000000+00:00</time></trkpt><trkpt lat="64.31225586" lon="-20.15442085"><ele>193.5</ele><time>2012-07-20T11:10:49.0000000+00:00</time></trkpt><trkpt lat="64.31243897" lon="-20.15407944"><ele>194.2</ele><time>2012-07-20T11:10:54.0000000+00:00</time></trkpt><trkpt lat="64.3126297" lon="-20.1537075"><ele>194.4</ele><time>2012-07-20T11:10:59.0000000+00:00</time></trkpt><trkpt lat="64.31282044" lon="-20.15334702"><ele>194.8</ele><time>2012-07-20T11:11:04.0000000+00:00</time></trkpt><trkpt lat="64.31301117" lon="-20.15297127"><ele>194.6</ele><time>2012-07-20T11:11:09.0000000+00:00</time></trkpt><trkpt lat="64.31320953" lon="-20.15259743"><ele>194.2</ele><time>2012-07-20T11:11:14.0000000+00:00</time></trkpt><trkpt lat="64.31341553" lon="-20.15221214"><ele>194.7</ele><time>2012-07-20T11:11:19.0000000+00:00</time></trkpt><trkpt lat="64.31362152" lon="-20.1518116"><ele>194.9</ele><time>2012-07-20T11:11:24.0000000+00:00</time></trkpt><trkpt lat="64.31382752" lon="-20.15140915"><ele>194.4</ele><time>2012-07-20T11:11:29.0000000+00:00</time></trkpt><trkpt lat="64.31404114" lon="-20.15101624"><ele>194.5</ele><time>2012-07-20T11:11:34.0000000+00:00</time></trkpt><trkpt lat="64.31425476" lon="-20.15063095"><ele>194.1</ele><time>2012-07-20T11:11:39.0000000+00:00</time></trkpt><trkpt lat="64.31445313" lon="-20.15024567"><ele>194.4</ele><time>2012-07-20T11:11:44.0000000+00:00</time></trkpt><trkpt lat="64.31464386" lon="-20.14988327"><ele>194.9</ele><time>2012-07-20T11:11:49.0000000+00:00</time></trkpt><trkpt lat="64.31481934" lon="-20.14956284"><ele>195.5</ele><time>2012-07-20T11:11:54.0000000+00:00</time></trkpt><trkpt lat="64.31497955" lon="-20.14927101"><ele>197.2</ele><time>2012-07-20T11:11:59.0000000+00:00</time></trkpt><trkpt lat="64.31513214" lon="-20.14899826"><ele>198.5</ele><time>2012-07-20T11:12:04.0000000+00:00</time></trkpt><trkpt lat="64.31526947" lon="-20.14874649"><ele>199.8</ele><time>2012-07-20T11:12:09.0000000+00:00</time></trkpt><trkpt lat="64.31538391" lon="-20.14852715"><ele>200.7</ele><time>2012-07-20T11:12:14.0000000+00:00</time></trkpt><trkpt lat="64.31551361" lon="-20.14829254"><ele>202.0</ele><time>2012-07-20T11:12:19.0000000+00:00</time></trkpt><trkpt lat="64.31563568" lon="-20.1480484"><ele>203.3</ele><time>2012-07-20T11:12:24.0000000+00:00</time></trkpt><trkpt lat="64.31575775" lon="-20.14778137"><ele>203.3</ele><time>2012-07-20T11:12:29.0000000+00:00</time></trkpt><trkpt lat="64.31586456" lon="-20.14757156"><ele>203.7</ele><time>2012-07-20T11:12:34.0000000+00:00</time></trkpt><trkpt lat="64.31596375" lon="-20.14732933"><ele>203.3</ele><time>2012-07-20T11:12:39.0000000+00:00</time></trkpt><trkpt lat="64.31606293" lon="-20.14706802"><ele>203.9</ele><time>2012-07-20T11:12:44.0000000+00:00</time></trkpt><trkpt lat="64.31616211" lon="-20.14679146"><ele>205.4</ele><time>2012-07-20T11:12:49.0000000+00:00</time></trkpt><trkpt lat="64.31625366" lon="-20.14647293"><ele>206.8</ele><time>2012-07-20T11:12:54.0000000+00:00</time></trkpt><trkpt lat="64.31635284" lon="-20.14613915"><ele>207.8</ele><time>2012-07-20T11:12:59.0000000+00:00</time></trkpt><trkpt lat="64.31645203" lon="-20.14575768"><ele>207.9</ele><time>2012-07-20T11:13:04.0000000+00:00</time></trkpt><trkpt lat="64.31653595" lon="-20.14537239"><ele>209.0</ele><time>2012-07-20T11:13:09.0000000+00:00</time></trkpt><trkpt lat="64.31663513" lon="-20.1449337"><ele>209.0</ele><time>2012-07-20T11:13:14.0000000+00:00</time></trkpt><trkpt lat="64.31672669" lon="-20.14454079"><ele>209.5</ele><time>2012-07-20T11:13:19.0000000+00:00</time></trkpt><trkpt lat="64.31680298" lon="-20.1441803"><ele>209.7</ele><time>2012-07-20T11:13:24.0000000+00:00</time></trkpt><trkpt lat="64.31689453" lon="-20.14373398"><ele>209.7</ele><time>2012-07-20T11:13:29.0000000+00:00</time></trkpt><trkpt lat="64.31699371" lon="-20.14330483"><ele>209.8</ele><time>2012-07-20T11:13:34.0000000+00:00</time></trkpt><trkpt lat="64.31708527" lon="-20.14288139"><ele>209.9</ele><time>2012-07-20T11:13:39.0000000+00:00</time></trkpt><trkpt lat="64.31717682" lon="-20.14246941"><ele>210.6</ele><time>2012-07-20T11:13:44.0000000+00:00</time></trkpt><trkpt lat="64.31726074" lon="-20.14208031"><ele>211.1</ele><time>2012-07-20T11:13:49.0000000+00:00</time></trkpt><trkpt lat="64.31734467" lon="-20.14174271"><ele>213.4</ele><time>2012-07-20T11:13:54.0000000+00:00</time></trkpt><trkpt lat="64.31742096" lon="-20.14142799"><ele>214.2</ele><time>2012-07-20T11:13:59.0000000+00:00</time></trkpt><trkpt lat="64.31748962" lon="-20.14110756"><ele>213.7</ele><time>2012-07-20T11:14:04.0000000+00:00</time></trkpt><trkpt lat="64.31757355" lon="-20.14076805"><ele>213.4</ele><time>2012-07-20T11:14:09.0000000+00:00</time></trkpt><trkpt lat="64.31764984" lon="-20.14046669"><ele>213.8</ele><time>2012-07-20T11:14:14.0000000+00:00</time></trkpt><trkpt lat="64.31774902" lon="-20.14014816"><ele>213.8</ele><time>2012-07-20T11:14:19.0000000+00:00</time></trkpt><trkpt lat="64.31786346" lon="-20.13978958"><ele>213.2</ele><time>2012-07-20T11:14:24.0000000+00:00</time></trkpt><trkpt lat="64.31801605" lon="-20.13941765"><ele>213.1</ele><time>2012-07-20T11:14:29.0000000+00:00</time></trkpt><trkpt lat="64.31822205" lon="-20.13899994"><ele>211.6</ele><time>2012-07-20T11:14:34.0000000+00:00</time></trkpt><trkpt lat="64.31845856" lon="-20.13859749"><ele>210.9</ele><time>2012-07-20T11:14:39.0000000+00:00</time></trkpt><trkpt lat="64.3187027" lon="-20.13822365"><ele>210.3</ele><time>2012-07-20T11:14:44.0000000+00:00</time></trkpt><trkpt lat="64.31893158" lon="-20.1378727"><ele>210.4</ele><time>2012-07-20T11:14:49.0000000+00:00</time></trkpt><trkpt lat="64.31912231" lon="-20.137537"><ele>210.3</ele><time>2012-07-20T11:14:54.0000000+00:00</time></trkpt><trkpt lat="64.31929779" lon="-20.13718987"><ele>210.4</ele><time>2012-07-20T11:14:59.0000000+00:00</time></trkpt><trkpt lat="64.31945801" lon="-20.13683891"><ele>211.3</ele><time>2012-07-20T11:15:04.0000000+00:00</time></trkpt><trkpt lat="64.3196106" lon="-20.13648796"><ele>212.2</ele><time>2012-07-20T11:15:09.0000000+00:00</time></trkpt><trkpt lat="64.31974793" lon="-20.13612747"><ele>213.1</ele><time>2012-07-20T11:15:14.0000000+00:00</time></trkpt><trkpt lat="64.31988525" lon="-20.13578415"><ele>214.5</ele><time>2012-07-20T11:15:19.0000000+00:00</time></trkpt><trkpt lat="64.32001495" lon="-20.13545036"><ele>215.1</ele><time>2012-07-20T11:15:24.0000000+00:00</time></trkpt><trkpt lat="64.32015228" lon="-20.13516235"><ele>214.4</ele><time>2012-07-20T11:15:29.0000000+00:00</time></trkpt><trkpt lat="64.32028198" lon="-20.13493919"><ele>215.0</ele><time>2012-07-20T11:15:34.0000000+00:00</time></trkpt><trkpt lat="64.32038117" lon="-20.13478088"><ele>215.3</ele><time>2012-07-20T11:15:39.0000000+00:00</time></trkpt><trkpt lat="64.32041168" lon="-20.13468361"><ele>215.5</ele><time>2012-07-20T11:15:44.0000000+00:00</time></trkpt><trkpt lat="64.32041931" lon="-20.13465881"><ele>215.5</ele><time>2012-07-20T11:15:49.0000000+00:00</time></trkpt><trkpt lat="64.32041931" lon="-20.13465881"><ele>215.4</ele><time>2012-07-20T11:15:54.0000000+00:00</time></trkpt><trkpt lat="64.32041931" lon="-20.13465881"><ele>215.4</ele><time>2012-07-20T11:15:59.0000000+00:00</time></trkpt><trkpt lat="64.32041931" lon="-20.13465881"><ele>215.4</ele><time>2012-07-20T11:16:04.0000000+00:00</time></trkpt><trkpt lat="64.32041931" lon="-20.13466072"><ele>215.4</ele><time>2012-07-20T11:16:09.0000000+00:00</time></trkpt><trkpt lat="64.32041931" lon="-20.13466072"><ele>215.4</ele><time>2012-07-20T11:16:14.0000000+00:00</time></trkpt><trkpt lat="64.32041931" lon="-20.13466072"><ele>215.4</ele><time>2012-07-20T11:16:19.0000000+00:00</time></trkpt><trkpt lat="64.32043457" lon="-20.13464546"><ele>215.5</ele><time>2012-07-20T11:16:24.0000000+00:00</time></trkpt><trkpt lat="64.32043457" lon="-20.13463974"><ele>215.6</ele><time>2012-07-20T11:16:29.0000000+00:00</time></trkpt><trkpt lat="64.32043457" lon="-20.13463974"><ele>215.6</ele><time>2012-07-20T11:16:34.0000000+00:00</time></trkpt><trkpt lat="64.32045746" lon="-20.13464356"><ele>216.4</ele><time>2012-07-20T11:16:39.0000000+00:00</time></trkpt><trkpt lat="64.32054901" lon="-20.13463211"><ele>216.8</ele><time>2012-07-20T11:16:44.0000000+00:00</time></trkpt><trkpt lat="64.32069397" lon="-20.13456535"><ele>218.0</ele><time>2012-07-20T11:16:49.0000000+00:00</time></trkpt><trkpt lat="64.32085419" lon="-20.13451195"><ele>219.3</ele><time>2012-07-20T11:16:54.0000000+00:00</time></trkpt><trkpt lat="64.32102966" lon="-20.13450241"><ele>220.1</ele><time>2012-07-20T11:16:59.0000000+00:00</time></trkpt><trkpt lat="64.32120514" lon="-20.13451195"><ele>220.9</ele><time>2012-07-20T11:17:04.0000000+00:00</time></trkpt><trkpt lat="64.32138062" lon="-20.13454437"><ele>221.6</ele><time>2012-07-20T11:17:09.0000000+00:00</time></trkpt><trkpt lat="64.32155609" lon="-20.13456345"><ele>222.3</ele><time>2012-07-20T11:17:14.0000000+00:00</time></trkpt><trkpt lat="64.32174683" lon="-20.13458061"><ele>223.1</ele><time>2012-07-20T11:17:19.0000000+00:00</time></trkpt><trkpt lat="64.32192993" lon="-20.13456726"><ele>223.0</ele><time>2012-07-20T11:17:24.0000000+00:00</time></trkpt><trkpt lat="64.32211304" lon="-20.13454247"><ele>223.0</ele><time>2012-07-20T11:17:29.0000000+00:00</time></trkpt><trkpt lat="64.32231903" lon="-20.13451195"><ele>222.5</ele><time>2012-07-20T11:17:34.0000000+00:00</time></trkpt><trkpt lat="64.32253265" lon="-20.13446236"><ele>221.4</ele><time>2012-07-20T11:17:39.0000000+00:00</time></trkpt><trkpt lat="64.32272339" lon="-20.13440323"><ele>221.2</ele><time>2012-07-20T11:17:44.0000000+00:00</time></trkpt><trkpt lat="64.32289124" lon="-20.13430595"><ele>221.1</ele><time>2012-07-20T11:17:49.0000000+00:00</time></trkpt><trkpt lat="64.32306671" lon="-20.13423157"><ele>221.6</ele><time>2012-07-20T11:17:54.0000000+00:00</time></trkpt><trkpt lat="64.32322693" lon="-20.13414383"><ele>221.7</ele><time>2012-07-20T11:17:59.0000000+00:00</time></trkpt><trkpt lat="64.32340241" lon="-20.13401985"><ele>222.1</ele><time>2012-07-20T11:18:04.0000000+00:00</time></trkpt><trkpt lat="64.32358551" lon="-20.13385773"><ele>222.3</ele><time>2012-07-20T11:18:09.0000000+00:00</time></trkpt><trkpt lat="64.3237915" lon="-20.13367844"><ele>222.4</ele><time>2012-07-20T11:18:14.0000000+00:00</time></trkpt><trkpt lat="64.32396698" lon="-20.1334877"><ele>222.5</ele><time>2012-07-20T11:18:19.0000000+00:00</time></trkpt><trkpt lat="64.32413483" lon="-20.13330078"><ele>222.9</ele><time>2012-07-20T11:18:24.0000000+00:00</time></trkpt><trkpt lat="64.32433319" lon="-20.13310051"><ele>222.6</ele><time>2012-07-20T11:18:29.0000000+00:00</time></trkpt><trkpt lat="64.3245163" lon="-20.13288879"><ele>223.2</ele><time>2012-07-20T11:18:34.0000000+00:00</time></trkpt><trkpt lat="64.32468414" lon="-20.13267517"><ele>222.5</ele><time>2012-07-20T11:18:39.0000000+00:00</time></trkpt><trkpt lat="64.32481384" lon="-20.13246727"><ele>222.1</ele><time>2012-07-20T11:18:44.0000000+00:00</time></trkpt><trkpt lat="64.32486725" lon="-20.13206863"><ele>222.3</ele><time>2012-07-20T11:18:49.0000000+00:00</time></trkpt><trkpt lat="64.32492065" lon="-20.13166428"><ele>221.6</ele><time>2012-07-20T11:18:54.0000000+00:00</time></trkpt><trkpt lat="64.32496643" lon="-20.13126183"><ele>221.3</ele><time>2012-07-20T11:18:59.0000000+00:00</time></trkpt><trkpt lat="64.32501984" lon="-20.13088417"><ele>221.1</ele><time>2012-07-20T11:19:04.0000000+00:00</time></trkpt><trkpt lat="64.32506561" lon="-20.13051605"><ele>221.1</ele><time>2012-07-20T11:19:09.0000000+00:00</time></trkpt><trkpt lat="64.32513428" lon="-20.13014603"><ele>221.2</ele><time>2012-07-20T11:19:14.0000000+00:00</time></trkpt><trkpt lat="64.32522583" lon="-20.1298542"><ele>221.9</ele><time>2012-07-20T11:19:19.0000000+00:00</time></trkpt><trkpt lat="64.3253479" lon="-20.12968254"><ele>222.4</ele><time>2012-07-20T11:19:24.0000000+00:00</time></trkpt><trkpt lat="64.32537079" lon="-20.1294384"><ele>223.6</ele><time>2012-07-20T11:19:29.0000000+00:00</time></trkpt><trkpt lat="64.32538605" lon="-20.12925148"><ele>223.8</ele><time>2012-07-20T11:19:34.0000000+00:00</time></trkpt><trkpt lat="64.32539368" lon="-20.1292553"><ele>223.9</ele><time>2012-07-20T11:19:39.0000000+00:00</time></trkpt><trkpt lat="64.32539368" lon="-20.12925148"><ele>223.6</ele><time>2012-07-20T11:19:44.0000000+00:00</time></trkpt><trkpt lat="64.32539368" lon="-20.12924004"><ele>223.5</ele><time>2012-07-20T11:19:49.0000000+00:00</time></trkpt><trkpt lat="64.32538605" lon="-20.12924576"><ele>223.5</ele><time>2012-07-20T11:19:54.0000000+00:00</time></trkpt><trkpt lat="64.32538605" lon="-20.12924767"><ele>223.5</ele><time>2012-07-20T11:19:59.0000000+00:00</time></trkpt><trkpt lat="64.32538605" lon="-20.12924957"><ele>223.5</ele><time>2012-07-20T11:20:04.0000000+00:00</time></trkpt><trkpt lat="64.32538605" lon="-20.12925339"><ele>223.7</ele><time>2012-07-20T11:20:09.0000000+00:00</time></trkpt><trkpt lat="64.32538605" lon="-20.1292553"><ele>223.8</ele><time>2012-07-20T11:20:14.0000000+00:00</time></trkpt><trkpt lat="64.32538605" lon="-20.1292553"><ele>223.8</ele><time>2012-07-20T11:20:19.0000000+00:00</time></trkpt><trkpt lat="64.32538605" lon="-20.1292572"><ele>223.8</ele><time>2012-07-20T11:20:24.0000000+00:00</time></trkpt><trkpt lat="64.32538605" lon="-20.1292572"><ele>223.8</ele><time>2012-07-20T11:20:29.0000000+00:00</time></trkpt><trkpt lat="64.32538605" lon="-20.1292572"><ele>223.8</ele><time>2012-07-20T11:20:34.0000000+00:00</time></trkpt><trkpt lat="64.32538605" lon="-20.1292572"><ele>223.8</ele><time>2012-07-20T11:20:39.0000000+00:00</time></trkpt><trkpt lat="64.32538605" lon="-20.1292572"><ele>223.9</ele><time>2012-07-20T11:20:44.0000000+00:00</time></trkpt><trkpt lat="64.32538605" lon="-20.12925911"><ele>223.9</ele><time>2012-07-20T11:20:49.0000000+00:00</time></trkpt><trkpt lat="64.32538605" lon="-20.12925911"><ele>224.0</ele><time>2012-07-20T11:20:54.0000000+00:00</time></trkpt><trkpt lat="64.32538605" lon="-20.12926102"><ele>224.0</ele><time>2012-07-20T11:20:59.0000000+00:00</time></trkpt><trkpt lat="64.32538605" lon="-20.12926102"><ele>224.1</ele><time>2012-07-20T11:21:04.0000000+00:00</time></trkpt><trkpt lat="64.32538605" lon="-20.12926102"><ele>224.1</ele><time>2012-07-20T11:21:09.0000000+00:00</time></trkpt><trkpt lat="64.32538605" lon="-20.12926102"><ele>224.1</ele><time>2012-07-20T11:21:14.0000000+00:00</time></trkpt><trkpt lat="64.32538605" lon="-20.12926292"><ele>224.1</ele><time>2012-07-20T11:21:19.0000000+00:00</time></trkpt><trkpt lat="64.32538605" lon="-20.12926292"><ele>224.2</ele><time>2012-07-20T11:21:24.0000000+00:00</time></trkpt><trkpt lat="64.32538605" lon="-20.12926292"><ele>224.2</ele><time>2012-07-20T11:21:29.0000000+00:00</time></trkpt><trkpt lat="64.32538605" lon="-20.12926292"><ele>224.3</ele><time>2012-07-20T11:21:34.0000000+00:00</time></trkpt><trkpt lat="64.32538605" lon="-20.12926292"><ele>224.3</ele><time>2012-07-20T11:21:39.0000000+00:00</time></trkpt><trkpt lat="64.32538605" lon="-20.12926292"><ele>224.3</ele><time>2012-07-20T11:21:44.0000000+00:00</time></trkpt><trkpt lat="64.32537842" lon="-20.12926483"><ele>224.4</ele><time>2012-07-20T11:21:49.0000000+00:00</time></trkpt><trkpt lat="64.32537842" lon="-20.12926483"><ele>224.4</ele><time>2012-07-20T11:21:54.0000000+00:00</time></trkpt><trkpt lat="64.32537842" lon="-20.12926483"><ele>224.5</ele><time>2012-07-20T11:21:59.0000000+00:00</time></trkpt><trkpt lat="64.32537842" lon="-20.12926483"><ele>224.5</ele><time>2012-07-20T11:22:04.0000000+00:00</time></trkpt><trkpt lat="64.32537842" lon="-20.12926674"><ele>224.5</ele><time>2012-07-20T11:22:09.0000000+00:00</time></trkpt><trkpt lat="64.32537842" lon="-20.12926674"><ele>224.6</ele><time>2012-07-20T11:22:14.0000000+00:00</time></trkpt><trkpt lat="64.32537842" lon="-20.12926674"><ele>224.6</ele><time>2012-07-20T11:22:19.0000000+00:00</time></trkpt><trkpt lat="64.32537842" lon="-20.12926483"><ele>224.6</ele><time>2012-07-20T11:22:24.0000000+00:00</time></trkpt><trkpt lat="64.32537842" lon="-20.12926483"><ele>224.6</ele><time>2012-07-20T11:22:29.0000000+00:00</time></trkpt><trkpt lat="64.32538605" lon="-20.12926292"><ele>224.6</ele><time>2012-07-20T11:22:34.0000000+00:00</time></trkpt><trkpt lat="64.32538605" lon="-20.12926102"><ele>224.7</ele><time>2012-07-20T11:22:39.0000000+00:00</time></trkpt><trkpt lat="64.32538605" lon="-20.12926102"><ele>224.7</ele><time>2012-07-20T11:22:44.0000000+00:00</time></trkpt><trkpt lat="64.32538605" lon="-20.12926102"><ele>224.7</ele><time>2012-07-20T11:22:49.0000000+00:00</time></trkpt><trkpt lat="64.32538605" lon="-20.12926102"><ele>224.7</ele><time>2012-07-20T11:22:54.0000000+00:00</time></trkpt><trkpt lat="64.32538605" lon="-20.12926102"><ele>224.8</ele><time>2012-07-20T11:22:59.0000000+00:00</time></trkpt><trkpt lat="64.32538605" lon="-20.12926102"><ele>224.8</ele><time>2012-07-20T11:23:04.0000000+00:00</time></trkpt><trkpt lat="64.32538605" lon="-20.12926102"><ele>224.8</ele><time>2012-07-20T11:23:09.0000000+00:00</time></trkpt><trkpt lat="64.32538605" lon="-20.12926102"><ele>224.9</ele><time>2012-07-20T11:23:14.0000000+00:00</time></trkpt><trkpt lat="64.32538605" lon="-20.12926102"><ele>224.9</ele><time>2012-07-20T11:23:19.0000000+00:00</time></trkpt><trkpt lat="64.32538605" lon="-20.12926292"><ele>224.9</ele><time>2012-07-20T11:23:24.0000000+00:00</time></trkpt><trkpt lat="64.32538605" lon="-20.12926292"><ele>224.9</ele><time>2012-07-20T11:23:29.0000000+00:00</time></trkpt><trkpt lat="64.32538605" lon="-20.12926292"><ele>225.0</ele><time>2012-07-20T11:23:34.0000000+00:00</time></trkpt><trkpt lat="64.32538605" lon="-20.12926483"><ele>225.0</ele><time>2012-07-20T11:23:39.0000000+00:00</time></trkpt><trkpt lat="64.32538605" lon="-20.12926483"><ele>225.0</ele><time>2012-07-20T11:23:44.0000000+00:00</time></trkpt><trkpt lat="64.32538605" lon="-20.12926674"><ele>225.1</ele><time>2012-07-20T11:23:49.0000000+00:00</time></trkpt><trkpt lat="64.32538605" lon="-20.12926674"><ele>225.1</ele><time>2012-07-20T11:23:54.0000000+00:00</time></trkpt><trkpt lat="64.32538605" lon="-20.12926674"><ele>225.1</ele><time>2012-07-20T11:23:59.0000000+00:00</time></trkpt><trkpt lat="64.32538605" lon="-20.12926674"><ele>225.1</ele><time>2012-07-20T11:24:04.0000000+00:00</time></trkpt><trkpt lat="64.32538605" lon="-20.12926865"><ele>225.2</ele><time>2012-07-20T11:24:09.0000000+00:00</time></trkpt><trkpt lat="64.32538605" lon="-20.12926865"><ele>225.2</ele><time>2012-07-20T11:24:14.0000000+00:00</time></trkpt><trkpt lat="64.32538605" lon="-20.12926865"><ele>225.2</ele><time>2012-07-20T11:24:19.0000000+00:00</time></trkpt><trkpt lat="64.32538605" lon="-20.12926865"><ele>225.2</ele><time>2012-07-20T11:24:24.0000000+00:00</time></trkpt><trkpt lat="64.32538605" lon="-20.12927055"><ele>225.2</ele><time>2012-07-20T11:24:29.0000000+00:00</time></trkpt><trkpt lat="64.32538605" lon="-20.12927055"><ele>225.2</ele><time>2012-07-20T11:24:34.0000000+00:00</time></trkpt><trkpt lat="64.32538605" lon="-20.12927055"><ele>225.2</ele><time>2012-07-20T11:24:39.0000000+00:00</time></trkpt><trkpt lat="64.32538605" lon="-20.12927055"><ele>225.2</ele><time>2012-07-20T11:24:44.0000000+00:00</time></trkpt><trkpt lat="64.32538605" lon="-20.12927055"><ele>225.2</ele><time>2012-07-20T11:24:49.0000000+00:00</time></trkpt><trkpt lat="64.32538605" lon="-20.12927055"><ele>225.2</ele><time>2012-07-20T11:24:54.0000000+00:00</time></trkpt><trkpt lat="64.32538605" lon="-20.12927055"><ele>225.2</ele><time>2012-07-20T11:24:59.0000000+00:00</time></trkpt><trkpt lat="64.32538605" lon="-20.12927055"><ele>225.3</ele><time>2012-07-20T11:25:04.0000000+00:00</time></trkpt><trkpt lat="64.32538605" lon="-20.12927246"><ele>225.3</ele><time>2012-07-20T11:25:09.0000000+00:00</time></trkpt><trkpt lat="64.32538605" lon="-20.12927055"><ele>225.3</ele><time>2012-07-20T11:25:14.0000000+00:00</time></trkpt><trkpt lat="64.32538605" lon="-20.12927246"><ele>225.3</ele><time>2012-07-20T11:25:19.0000000+00:00</time></trkpt><trkpt lat="64.32538605" lon="-20.12927246"><ele>225.4</ele><time>2012-07-20T11:25:24.0000000+00:00</time></trkpt><trkpt lat="64.32538605" lon="-20.12927246"><ele>225.4</ele><time>2012-07-20T11:25:29.0000000+00:00</time></trkpt><trkpt lat="64.32538605" lon="-20.12927246"><ele>225.4</ele><time>2012-07-20T11:25:34.0000000+00:00</time></trkpt><trkpt lat="64.32538605" lon="-20.12927246"><ele>225.4</ele><time>2012-07-20T11:25:39.0000000+00:00</time></trkpt><trkpt lat="64.32538605" lon="-20.12927246"><ele>225.4</ele><time>2012-07-20T11:25:44.0000000+00:00</time></trkpt><trkpt lat="64.32538605" lon="-20.12927246"><ele>225.4</ele><time>2012-07-20T11:25:49.0000000+00:00</time></trkpt><trkpt lat="64.32538605" lon="-20.12927246"><ele>225.4</ele><time>2012-07-20T11:25:54.0000000+00:00</time></trkpt><trkpt lat="64.32538605" lon="-20.12927246"><ele>225.4</ele><time>2012-07-20T11:25:59.0000000+00:00</time></trkpt><trkpt lat="64.32538605" lon="-20.12927246"><ele>225.4</ele><time>2012-07-20T11:26:04.0000000+00:00</time></trkpt><trkpt lat="64.32538605" lon="-20.12927246"><ele>225.4</ele><time>2012-07-20T11:26:09.0000000+00:00</time></trkpt><trkpt lat="64.32538605" lon="-20.12927246"><ele>225.4</ele><time>2012-07-20T11:26:14.0000000+00:00</time></trkpt><trkpt lat="64.32538605" lon="-20.12927246"><ele>225.4</ele><time>2012-07-20T11:26:19.0000000+00:00</time></trkpt><trkpt lat="64.32538605" lon="-20.12927246"><ele>225.3</ele><time>2012-07-20T11:26:24.0000000+00:00</time></trkpt><trkpt lat="64.32538605" lon="-20.12927246"><ele>225.3</ele><time>2012-07-20T11:26:29.0000000+00:00</time></trkpt><trkpt lat="64.32538605" lon="-20.12927246"><ele>225.3</ele><time>2012-07-20T11:26:34.0000000+00:00</time></trkpt><trkpt lat="64.32538605" lon="-20.12927246"><ele>225.3</ele><time>2012-07-20T11:26:39.0000000+00:00</time></trkpt><trkpt lat="64.32538605" lon="-20.12927246"><ele>225.2</ele><time>2012-07-20T11:26:44.0000000+00:00</time></trkpt><trkpt lat="64.32538605" lon="-20.12927246"><ele>225.2</ele><time>2012-07-20T11:26:49.0000000+00:00</time></trkpt><trkpt lat="64.32538605" lon="-20.12927246"><ele>225.2</ele><time>2012-07-20T11:26:54.0000000+00:00</time></trkpt><trkpt lat="64.32538605" lon="-20.12927246"><ele>225.2</ele><time>2012-07-20T11:26:59.0000000+00:00</time></trkpt><trkpt lat="64.32538605" lon="-20.12927246"><ele>225.1</ele><time>2012-07-20T11:27:04.0000000+00:00</time></trkpt><trkpt lat="64.32538605" lon="-20.12927246"><ele>225.1</ele><time>2012-07-20T11:27:09.0000000+00:00</time></trkpt><trkpt lat="64.32538605" lon="-20.12927246"><ele>225.0</ele><time>2012-07-20T11:27:14.0000000+00:00</time></trkpt><trkpt lat="64.32538605" lon="-20.12927246"><ele>225.0</ele><time>2012-07-20T11:27:19.0000000+00:00</time></trkpt><trkpt lat="64.32538605" lon="-20.12927246"><ele>225.0</ele><time>2012-07-20T11:27:24.0000000+00:00</time></trkpt><trkpt lat="64.32538605" lon="-20.12927437"><ele>225.0</ele><time>2012-07-20T11:27:29.0000000+00:00</time></trkpt><trkpt lat="64.32538605" lon="-20.12927437"><ele>225.0</ele><time>2012-07-20T11:27:34.0000000+00:00</time></trkpt><trkpt lat="64.32538605" lon="-20.12927437"><ele>225.0</ele><time>2012-07-20T11:27:39.0000000+00:00</time></trkpt><trkpt lat="64.32538605" lon="-20.12927437"><ele>225.0</ele><time>2012-07-20T11:27:44.0000000+00:00</time></trkpt><trkpt lat="64.32538605" lon="-20.12927437"><ele>225.0</ele><time>2012-07-20T11:27:49.0000000+00:00</time></trkpt><trkpt lat="64.32538605" lon="-20.12927628"><ele>224.9</ele><time>2012-07-20T11:27:54.0000000+00:00</time></trkpt><trkpt lat="64.32538605" lon="-20.12927628"><ele>224.9</ele><time>2012-07-20T11:27:59.0000000+00:00</time></trkpt><trkpt lat="64.32538605" lon="-20.12927628"><ele>224.9</ele><time>2012-07-20T11:28:04.0000000+00:00</time></trkpt><trkpt lat="64.32538605" lon="-20.12927628"><ele>224.9</ele><time>2012-07-20T11:28:09.0000000+00:00</time></trkpt><trkpt lat="64.32538605" lon="-20.12927628"><ele>224.8</ele><time>2012-07-20T11:28:14.0000000+00:00</time></trkpt><trkpt lat="64.32538605" lon="-20.12927628"><ele>224.8</ele><time>2012-07-20T11:28:19.0000000+00:00</time></trkpt><trkpt lat="64.32538605" lon="-20.12927818"><ele>224.8</ele><time>2012-07-20T11:28:24.0000000+00:00</time></trkpt><trkpt lat="64.32538605" lon="-20.12927818"><ele>224.8</ele><time>2012-07-20T11:28:29.0000000+00:00</time></trkpt><trkpt lat="64.32538605" lon="-20.12927818"><ele>224.8</ele><time>2012-07-20T11:28:34.0000000+00:00</time></trkpt><trkpt lat="64.32538605" lon="-20.12927818"><ele>224.7</ele><time>2012-07-20T11:28:39.0000000+00:00</time></trkpt><trkpt lat="64.32538605" lon="-20.12927818"><ele>224.8</ele><time>2012-07-20T11:28:44.0000000+00:00</time></trkpt><trkpt lat="64.32538605" lon="-20.12928009"><ele>224.7</ele><time>2012-07-20T11:28:49.0000000+00:00</time></trkpt><trkpt lat="64.32538605" lon="-20.12928009"><ele>224.8</ele><time>2012-07-20T11:28:54.0000000+00:00</time></trkpt><trkpt lat="64.32538605" lon="-20.12928009"><ele>224.8</ele><time>2012-07-20T11:28:59.0000000+00:00</time></trkpt><trkpt lat="64.32538605" lon="-20.12928009"><ele>224.8</ele><time>2012-07-20T11:29:04.0000000+00:00</time></trkpt><trkpt lat="64.32538605" lon="-20.129282"><ele>224.8</ele><time>2012-07-20T11:29:09.0000000+00:00</time></trkpt><trkpt lat="64.32538605" lon="-20.129282"><ele>224.8</ele><time>2012-07-20T11:29:14.0000000+00:00</time></trkpt><trkpt lat="64.32538605" lon="-20.129282"><ele>224.8</ele><time>2012-07-20T11:29:19.0000000+00:00</time></trkpt><trkpt lat="64.32538605" lon="-20.12928391"><ele>224.8</ele><time>2012-07-20T11:29:24.0000000+00:00</time></trkpt><trkpt lat="64.32538605" lon="-20.12928391"><ele>224.8</ele><time>2012-07-20T11:29:29.0000000+00:00</time></trkpt><trkpt lat="64.32538605" lon="-20.12928391"><ele>224.8</ele><time>2012-07-20T11:29:34.0000000+00:00</time></trkpt><trkpt lat="64.32538605" lon="-20.12928391"><ele>224.8</ele><time>2012-07-20T11:29:39.0000000+00:00</time></trkpt><trkpt lat="64.32538605" lon="-20.12928581"><ele>224.8</ele><time>2012-07-20T11:29:44.0000000+00:00</time></trkpt><trkpt lat="64.32538605" lon="-20.12928581"><ele>224.8</ele><time>2012-07-20T11:29:49.0000000+00:00</time></trkpt><trkpt lat="64.32538605" lon="-20.12928581"><ele>224.8</ele><time>2012-07-20T11:29:54.0000000+00:00</time></trkpt><trkpt lat="64.32538605" lon="-20.12928772"><ele>224.8</ele><time>2012-07-20T11:29:59.0000000+00:00</time></trkpt><trkpt lat="64.32538605" lon="-20.12928772"><ele>224.8</ele><time>2012-07-20T11:30:04.0000000+00:00</time></trkpt><trkpt lat="64.32538605" lon="-20.12928772"><ele>224.8</ele><time>2012-07-20T11:30:09.0000000+00:00</time></trkpt><trkpt lat="64.32538605" lon="-20.12928772"><ele>224.8</ele><time>2012-07-20T11:30:14.0000000+00:00</time></trkpt><trkpt lat="64.32538605" lon="-20.12928772"><ele>224.8</ele><time>2012-07-20T11:30:19.0000000+00:00</time></trkpt><trkpt lat="64.32538605" lon="-20.12928963"><ele>224.8</ele><time>2012-07-20T11:30:24.0000000+00:00</time></trkpt><trkpt lat="64.32538605" lon="-20.12928963"><ele>224.8</ele><time>2012-07-20T11:30:29.0000000+00:00</time></trkpt><trkpt lat="64.32538605" lon="-20.12928963"><ele>224.8</ele><time>2012-07-20T11:30:34.0000000+00:00</time></trkpt><trkpt lat="64.32538605" lon="-20.12928963"><ele>224.8</ele><time>2012-07-20T11:30:39.0000000+00:00</time></trkpt><trkpt lat="64.32538605" lon="-20.12928963"><ele>224.8</ele><time>2012-07-20T11:30:44.0000000+00:00</time></trkpt><trkpt lat="64.32538605" lon="-20.12928963"><ele>224.8</ele><time>2012-07-20T11:30:49.0000000+00:00</time></trkpt><trkpt lat="64.32538605" lon="-20.12928963"><ele>224.8</ele><time>2012-07-20T11:30:54.0000000+00:00</time></trkpt><trkpt lat="64.32538605" lon="-20.12928963"><ele>224.8</ele><time>2012-07-20T11:30:59.0000000+00:00</time></trkpt><trkpt lat="64.32538605" lon="-20.12929153"><ele>224.8</ele><time>2012-07-20T11:31:04.0000000+00:00</time></trkpt><trkpt lat="64.32538605" lon="-20.12929153"><ele>224.8</ele><time>2012-07-20T11:31:09.0000000+00:00</time></trkpt><trkpt lat="64.32538605" lon="-20.12929153"><ele>224.8</ele><time>2012-07-20T11:31:14.0000000+00:00</time></trkpt><trkpt lat="64.32538605" lon="-20.12929153"><ele>224.8</ele><time>2012-07-20T11:31:19.0000000+00:00</time></trkpt><trkpt lat="64.32538605" lon="-20.12929153"><ele>224.8</ele><time>2012-07-20T11:31:24.0000000+00:00</time></trkpt><trkpt lat="64.32538605" lon="-20.12929153"><ele>224.8</ele><time>2012-07-20T11:31:29.0000000+00:00</time></trkpt><trkpt lat="64.32538605" lon="-20.12929153"><ele>224.8</ele><time>2012-07-20T11:31:34.0000000+00:00</time></trkpt><trkpt lat="64.32538605" lon="-20.12929153"><ele>224.8</ele><time>2012-07-20T11:31:39.0000000+00:00</time></trkpt><trkpt lat="64.32538605" lon="-20.12929153"><ele>224.8</ele><time>2012-07-20T11:31:44.0000000+00:00</time></trkpt><trkpt lat="64.32538605" lon="-20.12929153"><ele>224.8</ele><time>2012-07-20T11:31:49.0000000+00:00</time></trkpt><trkpt lat="64.32538605" lon="-20.12929153"><ele>224.8</ele><time>2012-07-20T11:31:54.0000000+00:00</time></trkpt><trkpt lat="64.32538605" lon="-20.12929153"><ele>224.7</ele><time>2012-07-20T11:31:59.0000000+00:00</time></trkpt><trkpt lat="64.32538605" lon="-20.12929153"><ele>224.7</ele><time>2012-07-20T11:32:04.0000000+00:00</time></trkpt><trkpt lat="64.32538605" lon="-20.12929153"><ele>224.7</ele><time>2012-07-20T11:32:09.0000000+00:00</time></trkpt><trkpt lat="64.32538605" lon="-20.12928963"><ele>224.7</ele><time>2012-07-20T11:32:14.0000000+00:00</time></trkpt><trkpt lat="64.32538605" lon="-20.12928963"><ele>224.7</ele><time>2012-07-20T11:32:19.0000000+00:00</time></trkpt><trkpt lat="64.32538605" lon="-20.12928963"><ele>224.7</ele><time>2012-07-20T11:32:24.0000000+00:00</time></trkpt><trkpt lat="64.32538605" lon="-20.12928963"><ele>224.6</ele><time>2012-07-20T11:32:29.0000000+00:00</time></trkpt><trkpt lat="64.32538605" lon="-20.12928963"><ele>224.6</ele><time>2012-07-20T11:32:34.0000000+00:00</time></trkpt><trkpt lat="64.32538605" lon="-20.12928963"><ele>224.6</ele><time>2012-07-20T11:32:39.0000000+00:00</time></trkpt><trkpt lat="64.32538605" lon="-20.12928963"><ele>224.6</ele><time>2012-07-20T11:32:44.0000000+00:00</time></trkpt><trkpt lat="64.32538605" lon="-20.12928963"><ele>224.6</ele><time>2012-07-20T11:32:49.0000000+00:00</time></trkpt><trkpt lat="64.32538605" lon="-20.12928963"><ele>224.6</ele><time>2012-07-20T11:32:54.0000000+00:00</time></trkpt><trkpt lat="64.32538605" lon="-20.12928963"><ele>224.6</ele><time>2012-07-20T11:32:59.0000000+00:00</time></trkpt><trkpt lat="64.32538605" lon="-20.12929153"><ele>224.6</ele><time>2012-07-20T11:33:04.0000000+00:00</time></trkpt><trkpt lat="64.32538605" lon="-20.12929153"><ele>224.6</ele><time>2012-07-20T11:33:09.0000000+00:00</time></trkpt><trkpt lat="64.32538605" lon="-20.12929153"><ele>224.6</ele><time>2012-07-20T11:33:14.0000000+00:00</time></trkpt><trkpt lat="64.32538605" lon="-20.12929153"><ele>224.6</ele><time>2012-07-20T11:33:19.0000000+00:00</time></trkpt><trkpt lat="64.32538605" lon="-20.12929153"><ele>224.6</ele><time>2012-07-20T11:33:24.0000000+00:00</time></trkpt><trkpt lat="64.32538605" lon="-20.12929153"><ele>224.6</ele><time>2012-07-20T11:33:29.0000000+00:00</time></trkpt><trkpt lat="64.32538605" lon="-20.12929153"><ele>224.6</ele><time>2012-07-20T11:33:34.0000000+00:00</time></trkpt><trkpt lat="64.32538605" lon="-20.12929153"><ele>224.6</ele><time>2012-07-20T11:33:39.0000000+00:00</time></trkpt><trkpt lat="64.32538605" lon="-20.12929344"><ele>224.6</ele><time>2012-07-20T11:33:44.0000000+00:00</time></trkpt><trkpt lat="64.32538605" lon="-20.12929344"><ele>224.7</ele><time>2012-07-20T11:33:49.0000000+00:00</time></trkpt><trkpt lat="64.32538605" lon="-20.12929344"><ele>224.7</ele><time>2012-07-20T11:33:54.0000000+00:00</time></trkpt><trkpt lat="64.32538605" lon="-20.12929344"><ele>224.7</ele><time>2012-07-20T11:33:59.0000000+00:00</time></trkpt><trkpt lat="64.32538605" lon="-20.12929153"><ele>224.7</ele><time>2012-07-20T11:34:04.0000000+00:00</time></trkpt><trkpt lat="64.32538605" lon="-20.12929153"><ele>224.7</ele><time>2012-07-20T11:34:09.0000000+00:00</time></trkpt><trkpt lat="64.32538605" lon="-20.12929153"><ele>224.8</ele><time>2012-07-20T11:34:14.0000000+00:00</time></trkpt><trkpt lat="64.32538605" lon="-20.12929153"><ele>224.8</ele><time>2012-07-20T11:34:19.0000000+00:00</time></trkpt><trkpt lat="64.32538605" lon="-20.12929153"><ele>224.8</ele><time>2012-07-20T11:34:24.0000000+00:00</time></trkpt><trkpt lat="64.32538605" lon="-20.12929153"><ele>224.8</ele><time>2012-07-20T11:34:29.0000000+00:00</time></trkpt><trkpt lat="64.32538605" lon="-20.12929153"><ele>224.8</ele><time>2012-07-20T11:34:34.0000000+00:00</time></trkpt><trkpt lat="64.32538605" lon="-20.12929153"><ele>224.8</ele><time>2012-07-20T11:34:39.0000000+00:00</time></trkpt><trkpt lat="64.32538605" lon="-20.12929153"><ele>224.8</ele><time>2012-07-20T11:34:44.0000000+00:00</time></trkpt><trkpt lat="64.32538605" lon="-20.12929344"><ele>224.8</ele><time>2012-07-20T11:34:49.0000000+00:00</time></trkpt><trkpt lat="64.32538605" lon="-20.12929344"><ele>224.9</ele><time>2012-07-20T11:34:54.0000000+00:00</time></trkpt><trkpt lat="64.32538605" lon="-20.12929344"><ele>224.9</ele><time>2012-07-20T11:34:59.0000000+00:00</time></trkpt><trkpt lat="64.32538605" lon="-20.12929344"><ele>224.9</ele><time>2012-07-20T11:35:04.0000000+00:00</time></trkpt><trkpt lat="64.32538605" lon="-20.12929535"><ele>224.9</ele><time>2012-07-20T11:35:09.0000000+00:00</time></trkpt><trkpt lat="64.32537842" lon="-20.12929535"><ele>224.9</ele><time>2012-07-20T11:35:14.0000000+00:00</time></trkpt><trkpt lat="64.32537842" lon="-20.12929535"><ele>225.0</ele><time>2012-07-20T11:35:19.0000000+00:00</time></trkpt><trkpt lat="64.32537842" lon="-20.12929535"><ele>225.0</ele><time>2012-07-20T11:35:24.0000000+00:00</time></trkpt><trkpt lat="64.32537842" lon="-20.12929535"><ele>225.0</ele><time>2012-07-20T11:35:29.0000000+00:00</time></trkpt><trkpt lat="64.32537842" lon="-20.12929535"><ele>225.0</ele><time>2012-07-20T11:35:34.0000000+00:00</time></trkpt><trkpt lat="64.32537842" lon="-20.12929535"><ele>225.0</ele><time>2012-07-20T11:35:39.0000000+00:00</time></trkpt><trkpt lat="64.32537842" lon="-20.12929535"><ele>225.0</ele><time>2012-07-20T11:35:44.0000000+00:00</time></trkpt><trkpt lat="64.32537842" lon="-20.12929535"><ele>225.0</ele><time>2012-07-20T11:35:49.0000000+00:00</time></trkpt><trkpt lat="64.32537842" lon="-20.12929535"><ele>224.9</ele><time>2012-07-20T11:35:54.0000000+00:00</time></trkpt><trkpt lat="64.32537842" lon="-20.12929344"><ele>224.9</ele><time>2012-07-20T11:35:59.0000000+00:00</time></trkpt><trkpt lat="64.32537842" lon="-20.12929344"><ele>224.9</ele><time>2012-07-20T11:36:04.0000000+00:00</time></trkpt><trkpt lat="64.32537842" lon="-20.12929344"><ele>224.9</ele><time>2012-07-20T11:36:09.0000000+00:00</time></trkpt><trkpt lat="64.32537842" lon="-20.12929344"><ele>224.9</ele><time>2012-07-20T11:36:14.0000000+00:00</time></trkpt><trkpt lat="64.32537842" lon="-20.12929344"><ele>224.9</ele><time>2012-07-20T11:36:19.0000000+00:00</time></trkpt><trkpt lat="64.32537842" lon="-20.12929153"><ele>224.9</ele><time>2012-07-20T11:36:24.0000000+00:00</time></trkpt><trkpt lat="64.32537842" lon="-20.12929153"><ele>224.9</ele><time>2012-07-20T11:36:29.0000000+00:00</time></trkpt><trkpt lat="64.32537842" lon="-20.12929153"><ele>224.9</ele><time>2012-07-20T11:36:34.0000000+00:00</time></trkpt><trkpt lat="64.32537842" lon="-20.12929153"><ele>224.9</ele><time>2012-07-20T11:36:39.0000000+00:00</time></trkpt><trkpt lat="64.32537842" lon="-20.12929153"><ele>224.8</ele><time>2012-07-20T11:36:44.0000000+00:00</time></trkpt><trkpt lat="64.32537842" lon="-20.12929153"><ele>224.8</ele><time>2012-07-20T11:36:49.0000000+00:00</time></trkpt><trkpt lat="64.32537842" lon="-20.12929153"><ele>224.8</ele><time>2012-07-20T11:36:54.0000000+00:00</time></trkpt><trkpt lat="64.32538605" lon="-20.12929153"><ele>224.8</ele><time>2012-07-20T11:36:59.0000000+00:00</time></trkpt><trkpt lat="64.32538605" lon="-20.12929153"><ele>224.8</ele><time>2012-07-20T11:37:04.0000000+00:00</time></trkpt><trkpt lat="64.32538605" lon="-20.12928963"><ele>224.8</ele><time>2012-07-20T11:37:09.0000000+00:00</time></trkpt><trkpt lat="64.32538605" lon="-20.12928963"><ele>224.8</ele><time>2012-07-20T11:37:14.0000000+00:00</time></trkpt><trkpt lat="64.32538605" lon="-20.12928963"><ele>224.7</ele><time>2012-07-20T11:37:19.0000000+00:00</time></trkpt><trkpt lat="64.32538605" lon="-20.12928963"><ele>224.7</ele><time>2012-07-20T11:37:24.0000000+00:00</time></trkpt><trkpt lat="64.32538605" lon="-20.12928963"><ele>224.7</ele><time>2012-07-20T11:37:29.0000000+00:00</time></trkpt><trkpt lat="64.32538605" lon="-20.12928963"><ele>224.7</ele><time>2012-07-20T11:37:34.0000000+00:00</time></trkpt><trkpt lat="64.32538605" lon="-20.12928772"><ele>224.7</ele><time>2012-07-20T11:37:39.0000000+00:00</time></trkpt><trkpt lat="64.32538605" lon="-20.12928772"><ele>224.7</ele><time>2012-07-20T11:37:44.0000000+00:00</time></trkpt><trkpt lat="64.32538605" lon="-20.12928772"><ele>224.6</ele><time>2012-07-20T11:37:49.0000000+00:00</time></trkpt><trkpt lat="64.32538605" lon="-20.12928772"><ele>224.6</ele><time>2012-07-20T11:37:54.0000000+00:00</time></trkpt><trkpt lat="64.32538605" lon="-20.12928772"><ele>224.6</ele><time>2012-07-20T11:37:59.0000000+00:00</time></trkpt><trkpt lat="64.32538605" lon="-20.12928772"><ele>224.6</ele><time>2012-07-20T11:38:04.0000000+00:00</time></trkpt><trkpt lat="64.32538605" lon="-20.12928772"><ele>224.6</ele><time>2012-07-20T11:38:09.0000000+00:00</time></trkpt><trkpt lat="64.32538605" lon="-20.12928772"><ele>224.6</ele><time>2012-07-20T11:38:14.0000000+00:00</time></trkpt><trkpt lat="64.32538605" lon="-20.12928772"><ele>224.6</ele><time>2012-07-20T11:38:19.0000000+00:00</time></trkpt><trkpt lat="64.32538605" lon="-20.12928772"><ele>224.6</ele><time>2012-07-20T11:38:24.0000000+00:00</time></trkpt><trkpt lat="64.32538605" lon="-20.12928581"><ele>224.6</ele><time>2012-07-20T11:38:29.0000000+00:00</time></trkpt><trkpt lat="64.32538605" lon="-20.12928581"><ele>224.6</ele><time>2012-07-20T11:38:34.0000000+00:00</time></trkpt><trkpt lat="64.32538605" lon="-20.12928581"><ele>224.6</ele><time>2012-07-20T11:38:39.0000000+00:00</time></trkpt><trkpt lat="64.32538605" lon="-20.12928581"><ele>224.6</ele><time>2012-07-20T11:38:44.0000000+00:00</time></trkpt><trkpt lat="64.32538605" lon="-20.12928581"><ele>224.5</ele><time>2012-07-20T11:38:49.0000000+00:00</time></trkpt><trkpt lat="64.32538605" lon="-20.12928581"><ele>224.5</ele><time>2012-07-20T11:38:54.0000000+00:00</time></trkpt><trkpt lat="64.32538605" lon="-20.12928391"><ele>224.5</ele><time>2012-07-20T11:38:59.0000000+00:00</time></trkpt><trkpt lat="64.32538605" lon="-20.12928391"><ele>224.5</ele><time>2012-07-20T11:39:04.0000000+00:00</time></trkpt><trkpt lat="64.32538605" lon="-20.12928391"><ele>224.5</ele><time>2012-07-20T11:39:09.0000000+00:00</time></trkpt><trkpt lat="64.32538605" lon="-20.12928391"><ele>224.5</ele><time>2012-07-20T11:39:14.0000000+00:00</time></trkpt><trkpt lat="64.32538605" lon="-20.12928391"><ele>224.5</ele><time>2012-07-20T11:39:19.0000000+00:00</time></trkpt><trkpt lat="64.32538605" lon="-20.12928391"><ele>224.5</ele><time>2012-07-20T11:39:24.0000000+00:00</time></trkpt><trkpt lat="64.32538605" lon="-20.129282"><ele>224.4</ele><time>2012-07-20T11:39:29.0000000+00:00</time></trkpt><trkpt lat="64.32538605" lon="-20.129282"><ele>224.4</ele><time>2012-07-20T11:39:34.0000000+00:00</time></trkpt><trkpt lat="64.32538605" lon="-20.129282"><ele>224.4</ele><time>2012-07-20T11:39:39.0000000+00:00</time></trkpt><trkpt lat="64.32538605" lon="-20.129282"><ele>224.4</ele><time>2012-07-20T11:39:44.0000000+00:00</time></trkpt><trkpt lat="64.32538605" lon="-20.129282"><ele>224.4</ele><time>2012-07-20T11:39:49.0000000+00:00</time></trkpt><trkpt lat="64.32538605" lon="-20.129282"><ele>224.4</ele><time>2012-07-20T11:39:54.0000000+00:00</time></trkpt><trkpt lat="64.32538605" lon="-20.129282"><ele>224.4</ele><time>2012-07-20T11:39:59.0000000+00:00</time></trkpt><trkpt lat="64.32538605" lon="-20.12928009"><ele>224.3</ele><time>2012-07-20T11:40:04.0000000+00:00</time></trkpt><trkpt lat="64.32538605" lon="-20.12928009"><ele>224.3</ele><time>2012-07-20T11:40:09.0000000+00:00</time></trkpt><trkpt lat="64.32538605" lon="-20.12928009"><ele>224.3</ele><time>2012-07-20T11:40:14.0000000+00:00</time></trkpt><trkpt lat="64.32538605" lon="-20.12928009"><ele>224.3</ele><time>2012-07-20T11:40:19.0000000+00:00</time></trkpt><trkpt lat="64.32538605" lon="-20.12928009"><ele>224.3</ele><time>2012-07-20T11:40:24.0000000+00:00</time></trkpt><trkpt lat="64.32538605" lon="-20.12928009"><ele>224.3</ele><time>2012-07-20T11:40:29.0000000+00:00</time></trkpt><trkpt lat="64.32538605" lon="-20.12928009"><ele>224.2</ele><time>2012-07-20T11:40:34.0000000+00:00</time></trkpt><trkpt lat="64.32538605" lon="-20.12928009"><ele>224.2</ele><time>2012-07-20T11:40:39.0000000+00:00</time></trkpt><trkpt lat="64.32538605" lon="-20.12928009"><ele>224.2</ele><time>2012-07-20T11:40:44.0000000+00:00</time></trkpt><trkpt lat="64.32538605" lon="-20.12928009"><ele>224.2</ele><time>2012-07-20T11:40:49.0000000+00:00</time></trkpt><trkpt lat="64.32538605" lon="-20.12928009"><ele>224.2</ele><time>2012-07-20T11:40:54.0000000+00:00</time></trkpt><trkpt lat="64.32538605" lon="-20.12927818"><ele>224.2</ele><time>2012-07-20T11:40:59.0000000+00:00</time></trkpt><trkpt lat="64.32538605" lon="-20.12927818"><ele>224.2</ele><time>2012-07-20T11:41:04.0000000+00:00</time></trkpt><trkpt lat="64.32538605" lon="-20.12927818"><ele>224.2</ele><time>2012-07-20T11:41:09.0000000+00:00</time></trkpt><trkpt lat="64.32538605" lon="-20.12927818"><ele>224.2</ele><time>2012-07-20T11:41:14.0000000+00:00</time></trkpt><trkpt lat="64.32538605" lon="-20.12927818"><ele>224.1</ele><time>2012-07-20T11:41:19.0000000+00:00</time></trkpt><trkpt lat="64.32538605" lon="-20.12927818"><ele>224.1</ele><time>2012-07-20T11:41:24.0000000+00:00</time></trkpt><trkpt lat="64.32538605" lon="-20.12927818"><ele>224.1</ele><time>2012-07-20T11:41:29.0000000+00:00</time></trkpt><trkpt lat="64.32538605" lon="-20.12927818"><ele>224.1</ele><time>2012-07-20T11:41:34.0000000+00:00</time></trkpt><trkpt lat="64.32538605" lon="-20.12927818"><ele>224.1</ele><time>2012-07-20T11:41:39.0000000+00:00</time></trkpt><trkpt lat="64.32538605" lon="-20.12927818"><ele>224.1</ele><time>2012-07-20T11:41:44.0000000+00:00</time></trkpt><trkpt lat="64.32538605" lon="-20.12927818"><ele>224.1</ele><time>2012-07-20T11:41:49.0000000+00:00</time></trkpt><trkpt lat="64.32538605" lon="-20.12927818"><ele>224.1</ele><time>2012-07-20T11:41:54.0000000+00:00</time></trkpt><trkpt lat="64.32538605" lon="-20.12927818"><ele>224.0</ele><time>2012-07-20T11:41:59.0000000+00:00</time></trkpt><trkpt lat="64.32538605" lon="-20.12927818"><ele>224.0</ele><time>2012-07-20T11:42:04.0000000+00:00</time></trkpt><trkpt lat="64.32538605" lon="-20.12927818"><ele>224.0</ele><time>2012-07-20T11:42:09.0000000+00:00</time></trkpt><trkpt lat="64.32538605" lon="-20.12927818"><ele>224.0</ele><time>2012-07-20T11:42:14.0000000+00:00</time></trkpt><trkpt lat="64.32538605" lon="-20.12927818"><ele>224.0</ele><time>2012-07-20T11:42:19.0000000+00:00</time></trkpt><trkpt lat="64.32538605" lon="-20.12927628"><ele>224.0</ele><time>2012-07-20T11:42:24.0000000+00:00</time></trkpt><trkpt lat="64.32538605" lon="-20.12927628"><ele>224.0</ele><time>2012-07-20T11:42:29.0000000+00:00</time></trkpt><trkpt lat="64.32538605" lon="-20.12927628"><ele>223.9</ele><time>2012-07-20T11:42:34.0000000+00:00</time></trkpt><trkpt lat="64.32538605" lon="-20.12927628"><ele>223.9</ele><time>2012-07-20T11:42:39.0000000+00:00</time></trkpt><trkpt lat="64.32538605" lon="-20.12927628"><ele>223.9</ele><time>2012-07-20T11:42:44.0000000+00:00</time></trkpt><trkpt lat="64.32538605" lon="-20.12927628"><ele>223.9</ele><time>2012-07-20T11:42:49.0000000+00:00</time></trkpt><trkpt lat="64.32538605" lon="-20.12927628"><ele>223.9</ele><time>2012-07-20T11:42:54.0000000+00:00</time></trkpt><trkpt lat="64.32538605" lon="-20.12927628"><ele>223.9</ele><time>2012-07-20T11:42:59.0000000+00:00</time></trkpt><trkpt lat="64.32538605" lon="-20.12927628"><ele>223.9</ele><time>2012-07-20T11:43:04.0000000+00:00</time></trkpt><trkpt lat="64.32538605" lon="-20.12927628"><ele>223.9</ele><time>2012-07-20T11:43:09.0000000+00:00</time></trkpt><trkpt lat="64.32538605" lon="-20.12927628"><ele>223.8</ele><time>2012-07-20T11:43:14.0000000+00:00</time></trkpt><trkpt lat="64.32538605" lon="-20.12927437"><ele>223.8</ele><time>2012-07-20T11:43:19.0000000+00:00</time></trkpt><trkpt lat="64.32538605" lon="-20.12927437"><ele>223.8</ele><time>2012-07-20T11:43:24.0000000+00:00</time></trkpt><trkpt lat="64.32538605" lon="-20.12927437"><ele>223.8</ele><time>2012-07-20T11:43:29.0000000+00:00</time></trkpt><trkpt lat="64.32538605" lon="-20.12927437"><ele>223.8</ele><time>2012-07-20T11:43:34.0000000+00:00</time></trkpt><trkpt lat="64.32538605" lon="-20.12927437"><ele>223.8</ele><time>2012-07-20T11:43:39.0000000+00:00</time></trkpt><trkpt lat="64.32538605" lon="-20.12927246"><ele>223.8</ele><time>2012-07-20T11:43:44.0000000+00:00</time></trkpt><trkpt lat="64.32538605" lon="-20.12927246"><ele>223.8</ele><time>2012-07-20T11:43:49.0000000+00:00</time></trkpt><trkpt lat="64.32538605" lon="-20.12927246"><ele>223.8</ele><time>2012-07-20T11:43:54.0000000+00:00</time></trkpt><trkpt lat="64.32538605" lon="-20.12927246"><ele>223.7</ele><time>2012-07-20T11:43:59.0000000+00:00</time></trkpt><trkpt lat="64.32538605" lon="-20.12927246"><ele>223.7</ele><time>2012-07-20T11:44:04.0000000+00:00</time></trkpt><trkpt lat="64.32538605" lon="-20.12927055"><ele>223.7</ele><time>2012-07-20T11:44:09.0000000+00:00</time></trkpt><trkpt lat="64.32538605" lon="-20.12927055"><ele>223.7</ele><time>2012-07-20T11:44:14.0000000+00:00</time></trkpt><trkpt lat="64.32538605" lon="-20.12927055"><ele>223.7</ele><time>2012-07-20T11:44:19.0000000+00:00</time></trkpt><trkpt lat="64.32538605" lon="-20.12927055"><ele>223.7</ele><time>2012-07-20T11:44:24.0000000+00:00</time></trkpt><trkpt lat="64.32538605" lon="-20.12927055"><ele>223.7</ele><time>2012-07-20T11:44:29.0000000+00:00</time></trkpt><trkpt lat="64.32538605" lon="-20.12927055"><ele>223.6</ele><time>2012-07-20T11:44:34.0000000+00:00</time></trkpt><trkpt lat="64.32538605" lon="-20.12927055"><ele>223.6</ele><time>2012-07-20T11:44:39.0000000+00:00</time></trkpt><trkpt lat="64.32538605" lon="-20.12927055"><ele>223.6</ele><time>2012-07-20T11:44:44.0000000+00:00</time></trkpt><trkpt lat="64.32538605" lon="-20.12927055"><ele>223.6</ele><time>2012-07-20T11:44:49.0000000+00:00</time></trkpt><trkpt lat="64.32538605" lon="-20.12927055"><ele>223.6</ele><time>2012-07-20T11:44:54.0000000+00:00</time></trkpt><trkpt lat="64.32538605" lon="-20.12927055"><ele>223.6</ele><time>2012-07-20T11:44:59.0000000+00:00</time></trkpt><trkpt lat="64.32538605" lon="-20.12926865"><ele>223.5</ele><time>2012-07-20T11:45:04.0000000+00:00</time></trkpt><trkpt lat="64.32538605" lon="-20.12926865"><ele>223.5</ele><time>2012-07-20T11:45:09.0000000+00:00</time></trkpt><trkpt lat="64.32538605" lon="-20.12926865"><ele>223.5</ele><time>2012-07-20T11:45:14.0000000+00:00</time></trkpt><trkpt lat="64.32538605" lon="-20.12926865"><ele>223.5</ele><time>2012-07-20T11:45:19.0000000+00:00</time></trkpt><trkpt lat="64.32538605" lon="-20.12926865"><ele>223.5</ele><time>2012-07-20T11:45:24.0000000+00:00</time></trkpt><trkpt lat="64.32538605" lon="-20.12926865"><ele>223.5</ele><time>2012-07-20T11:45:29.0000000+00:00</time></trkpt><trkpt lat="64.32538605" lon="-20.12926865"><ele>223.4</ele><time>2012-07-20T11:45:34.0000000+00:00</time></trkpt><trkpt lat="64.32538605" lon="-20.12926865"><ele>223.4</ele><time>2012-07-20T11:45:39.0000000+00:00</time></trkpt><trkpt lat="64.32538605" lon="-20.12926865"><ele>223.4</ele><time>2012-07-20T11:45:44.0000000+00:00</time></trkpt><trkpt lat="64.32538605" lon="-20.12926865"><ele>223.4</ele><time>2012-07-20T11:45:49.0000000+00:00</time></trkpt><trkpt lat="64.32538605" lon="-20.12926865"><ele>223.4</ele><time>2012-07-20T11:45:54.0000000+00:00</time></trkpt><trkpt lat="64.32538605" lon="-20.12926865"><ele>223.4</ele><time>2012-07-20T11:45:59.0000000+00:00</time></trkpt><trkpt lat="64.32538605" lon="-20.12926865"><ele>223.4</ele><time>2012-07-20T11:46:04.0000000+00:00</time></trkpt><trkpt lat="64.32538605" lon="-20.12926865"><ele>223.4</ele><time>2012-07-20T11:46:09.0000000+00:00</time></trkpt><trkpt lat="64.32538605" lon="-20.12926865"><ele>223.4</ele><time>2012-07-20T11:46:14.0000000+00:00</time></trkpt><trkpt lat="64.32538605" lon="-20.12926865"><ele>223.4</ele><time>2012-07-20T11:46:19.0000000+00:00</time></trkpt><trkpt lat="64.32538605" lon="-20.12926865"><ele>223.4</ele><time>2012-07-20T11:46:24.0000000+00:00</time></trkpt><trkpt lat="64.32538605" lon="-20.12926865"><ele>223.4</ele><time>2012-07-20T11:46:29.0000000+00:00</time></trkpt><trkpt lat="64.32538605" lon="-20.12926865"><ele>223.4</ele><time>2012-07-20T11:46:34.0000000+00:00</time></trkpt><trkpt lat="64.32538605" lon="-20.12926865"><ele>223.4</ele><time>2012-07-20T11:46:39.0000000+00:00</time></trkpt><trkpt lat="64.32538605" lon="-20.12926865"><ele>223.4</ele><time>2012-07-20T11:46:44.0000000+00:00</time></trkpt><trkpt lat="64.32538605" lon="-20.12926865"><ele>223.4</ele><time>2012-07-20T11:46:49.0000000+00:00</time></trkpt><trkpt lat="64.32538605" lon="-20.12926865"><ele>223.4</ele><time>2012-07-20T11:46:54.0000000+00:00</time></trkpt><trkpt lat="64.32538605" lon="-20.12926865"><ele>223.4</ele><time>2012-07-20T11:46:59.0000000+00:00</time></trkpt><trkpt lat="64.32538605" lon="-20.12927055"><ele>223.4</ele><time>2012-07-20T11:47:04.0000000+00:00</time></trkpt><trkpt lat="64.32538605" lon="-20.12927055"><ele>223.4</ele><time>2012-07-20T11:47:09.0000000+00:00</time></trkpt><trkpt lat="64.32538605" lon="-20.12927055"><ele>223.4</ele><time>2012-07-20T11:47:14.0000000+00:00</time></trkpt><trkpt lat="64.32538605" lon="-20.12927055"><ele>223.4</ele><time>2012-07-20T11:47:19.0000000+00:00</time></trkpt><trkpt lat="64.32538605" lon="-20.12927055"><ele>223.4</ele><time>2012-07-20T11:47:24.0000000+00:00</time></trkpt><trkpt lat="64.32538605" lon="-20.12927055"><ele>223.4</ele><time>2012-07-20T11:47:29.0000000+00:00</time></trkpt><trkpt lat="64.32538605" lon="-20.12927055"><ele>223.4</ele><time>2012-07-20T11:47:34.0000000+00:00</time></trkpt><trkpt lat="64.32538605" lon="-20.12927055"><ele>223.4</ele><time>2012-07-20T11:47:39.0000000+00:00</time></trkpt><trkpt lat="64.32538605" lon="-20.12927055"><ele>223.4</ele><time>2012-07-20T11:47:44.0000000+00:00</time></trkpt><trkpt lat="64.32538605" lon="-20.12927055"><ele>223.4</ele><time>2012-07-20T11:47:49.0000000+00:00</time></trkpt><trkpt lat="64.32538605" lon="-20.12927055"><ele>223.4</ele><time>2012-07-20T11:47:54.0000000+00:00</time></trkpt><trkpt lat="64.32538605" lon="-20.12926865"><ele>223.4</ele><time>2012-07-20T11:47:59.0000000+00:00</time></trkpt><trkpt lat="64.32538605" lon="-20.12926865"><ele>223.3</ele><time>2012-07-20T11:48:04.0000000+00:00</time></trkpt><trkpt lat="64.32538605" lon="-20.12926865"><ele>223.3</ele><time>2012-07-20T11:48:09.0000000+00:00</time></trkpt><trkpt lat="64.32538605" lon="-20.12926865"><ele>223.3</ele><time>2012-07-20T11:48:14.0000000+00:00</time></trkpt><trkpt lat="64.32538605" lon="-20.12927055"><ele>223.3</ele><time>2012-07-20T11:48:19.0000000+00:00</time></trkpt><trkpt lat="64.32538605" lon="-20.12927055"><ele>223.3</ele><time>2012-07-20T11:48:24.0000000+00:00</time></trkpt><trkpt lat="64.32538605" lon="-20.12927055"><ele>223.3</ele><time>2012-07-20T11:48:29.0000000+00:00</time></trkpt><trkpt lat="64.32538605" lon="-20.12926865"><ele>223.3</ele><time>2012-07-20T11:48:34.0000000+00:00</time></trkpt><trkpt lat="64.32538605" lon="-20.12926865"><ele>223.3</ele><time>2012-07-20T11:48:39.0000000+00:00</time></trkpt><trkpt lat="64.32538605" lon="-20.12926865"><ele>223.3</ele><time>2012-07-20T11:48:44.0000000+00:00</time></trkpt><trkpt lat="64.32538605" lon="-20.12926865"><ele>223.3</ele><time>2012-07-20T11:48:49.0000000+00:00</time></trkpt><trkpt lat="64.32538605" lon="-20.12926865"><ele>223.3</ele><time>2012-07-20T11:48:54.0000000+00:00</time></trkpt><trkpt lat="64.32538605" lon="-20.12926674"><ele>223.3</ele><time>2012-07-20T11:48:59.0000000+00:00</time></trkpt><trkpt lat="64.32538605" lon="-20.12926674"><ele>223.3</ele><time>2012-07-20T11:49:04.0000000+00:00</time></trkpt><trkpt lat="64.32538605" lon="-20.12926674"><ele>223.3</ele><time>2012-07-20T11:49:09.0000000+00:00</time></trkpt><trkpt lat="64.32538605" lon="-20.12926674"><ele>223.3</ele><time>2012-07-20T11:49:14.0000000+00:00</time></trkpt><trkpt lat="64.32538605" lon="-20.12926674"><ele>223.3</ele><time>2012-07-20T11:49:19.0000000+00:00</time></trkpt><trkpt lat="64.32538605" lon="-20.12926674"><ele>223.3</ele><time>2012-07-20T11:49:24.0000000+00:00</time></trkpt><trkpt lat="64.32538605" lon="-20.12926674"><ele>223.3</ele><time>2012-07-20T11:49:29.0000000+00:00</time></trkpt><trkpt lat="64.32538605" lon="-20.12926674"><ele>223.3</ele><time>2012-07-20T11:49:34.0000000+00:00</time></trkpt><trkpt lat="64.32538605" lon="-20.12926674"><ele>223.3</ele><time>2012-07-20T11:49:39.0000000+00:00</time></trkpt><trkpt lat="64.32538605" lon="-20.12926674"><ele>223.3</ele><time>2012-07-20T11:49:44.0000000+00:00</time></trkpt><trkpt lat="64.32538605" lon="-20.12926865"><ele>223.3</ele><time>2012-07-20T11:49:49.0000000+00:00</time></trkpt><trkpt lat="64.32538605" lon="-20.12926865"><ele>223.3</ele><time>2012-07-20T11:49:54.0000000+00:00</time></trkpt><trkpt lat="64.32538605" lon="-20.12926865"><ele>223.3</ele><time>2012-07-20T11:49:59.0000000+00:00</time></trkpt><trkpt lat="64.32538605" lon="-20.12926865"><ele>223.3</ele><time>2012-07-20T11:50:04.0000000+00:00</time></trkpt><trkpt lat="64.32538605" lon="-20.12926865"><ele>223.4</ele><time>2012-07-20T11:50:09.0000000+00:00</time></trkpt><trkpt lat="64.32538605" lon="-20.12926865"><ele>223.4</ele><time>2012-07-20T11:50:14.0000000+00:00</time></trkpt><trkpt lat="64.32538605" lon="-20.12927055"><ele>223.4</ele><time>2012-07-20T11:50:19.0000000+00:00</time></trkpt><trkpt lat="64.32538605" lon="-20.12927055"><ele>223.4</ele><time>2012-07-20T11:50:24.0000000+00:00</time></trkpt><trkpt lat="64.32538605" lon="-20.12927055"><ele>223.4</ele><time>2012-07-20T11:50:29.0000000+00:00</time></trkpt><trkpt lat="64.32537842" lon="-20.12927055"><ele>223.4</ele><time>2012-07-20T11:50:34.0000000+00:00</time></trkpt><trkpt lat="64.32537842" lon="-20.12927055"><ele>223.4</ele><time>2012-07-20T11:50:39.0000000+00:00</time></trkpt><trkpt lat="64.32537842" lon="-20.12927055"><ele>223.4</ele><time>2012-07-20T11:50:44.0000000+00:00</time></trkpt><trkpt lat="64.32537842" lon="-20.12927246"><ele>223.4</ele><time>2012-07-20T11:50:49.0000000+00:00</time></trkpt><trkpt lat="64.32537842" lon="-20.12927246"><ele>223.4</ele><time>2012-07-20T11:50:54.0000000+00:00</time></trkpt><trkpt lat="64.32537842" lon="-20.12927246"><ele>223.4</ele><time>2012-07-20T11:50:59.0000000+00:00</time></trkpt><trkpt lat="64.32537842" lon="-20.12927246"><ele>223.4</ele><time>2012-07-20T11:51:04.0000000+00:00</time></trkpt><trkpt lat="64.32537842" lon="-20.12927246"><ele>223.4</ele><time>2012-07-20T11:51:09.0000000+00:00</time></trkpt><trkpt lat="64.32537842" lon="-20.12927246"><ele>223.4</ele><time>2012-07-20T11:51:14.0000000+00:00</time></trkpt><trkpt lat="64.32537842" lon="-20.12927246"><ele>223.4</ele><time>2012-07-20T11:51:19.0000000+00:00</time></trkpt><trkpt lat="64.32537842" lon="-20.12927246"><ele>223.4</ele><time>2012-07-20T11:51:24.0000000+00:00</time></trkpt><trkpt lat="64.32537842" lon="-20.12927246"><ele>223.4</ele><time>2012-07-20T11:51:29.0000000+00:00</time></trkpt><trkpt lat="64.32537842" lon="-20.12927246"><ele>223.4</ele><time>2012-07-20T11:51:34.0000000+00:00</time></trkpt><trkpt lat="64.32537842" lon="-20.12927246"><ele>223.4</ele><time>2012-07-20T11:51:39.0000000+00:00</time></trkpt><trkpt lat="64.32537842" lon="-20.12927246"><ele>223.4</ele><time>2012-07-20T11:51:44.0000000+00:00</time></trkpt><trkpt lat="64.32537842" lon="-20.12927246"><ele>223.4</ele><time>2012-07-20T11:51:49.0000000+00:00</time></trkpt><trkpt lat="64.32537842" lon="-20.12927246"><ele>223.4</ele><time>2012-07-20T11:51:54.0000000+00:00</time></trkpt><trkpt lat="64.32537842" lon="-20.12927246"><ele>223.4</ele><time>2012-07-20T11:51:59.0000000+00:00</time></trkpt><trkpt lat="64.32537842" lon="-20.12927246"><ele>223.4</ele><time>2012-07-20T11:52:04.0000000+00:00</time></trkpt><trkpt lat="64.32537842" lon="-20.12927246"><ele>223.4</ele><time>2012-07-20T11:52:09.0000000+00:00</time></trkpt><trkpt lat="64.32537842" lon="-20.12927246"><ele>223.4</ele><time>2012-07-20T11:52:14.0000000+00:00</time></trkpt><trkpt lat="64.32537842" lon="-20.12927246"><ele>223.4</ele><time>2012-07-20T11:52:19.0000000+00:00</time></trkpt><trkpt lat="64.32537842" lon="-20.12927437"><ele>223.4</ele><time>2012-07-20T11:52:24.0000000+00:00</time></trkpt><trkpt lat="64.32537842" lon="-20.12927437"><ele>223.4</ele><time>2012-07-20T11:52:29.0000000+00:00</time></trkpt><trkpt lat="64.32537842" lon="-20.12927437"><ele>223.4</ele><time>2012-07-20T11:52:34.0000000+00:00</time></trkpt><trkpt lat="64.32537842" lon="-20.12927437"><ele>223.4</ele><time>2012-07-20T11:52:39.0000000+00:00</time></trkpt><trkpt lat="64.32537842" lon="-20.12927437"><ele>223.4</ele><time>2012-07-20T11:52:44.0000000+00:00</time></trkpt><trkpt lat="64.32537842" lon="-20.12927437"><ele>223.4</ele><time>2012-07-20T11:52:49.0000000+00:00</time></trkpt><trkpt lat="64.32537842" lon="-20.12927628"><ele>223.4</ele><time>2012-07-20T11:52:54.0000000+00:00</time></trkpt><trkpt lat="64.32537842" lon="-20.12927628"><ele>223.4</ele><time>2012-07-20T11:52:59.0000000+00:00</time></trkpt><trkpt lat="64.32537842" lon="-20.12927628"><ele>223.4</ele><time>2012-07-20T11:53:04.0000000+00:00</time></trkpt><trkpt lat="64.32537842" lon="-20.12927628"><ele>223.3</ele><time>2012-07-20T11:53:09.0000000+00:00</time></trkpt><trkpt lat="64.32537842" lon="-20.12927628"><ele>223.3</ele><time>2012-07-20T11:53:14.0000000+00:00</time></trkpt><trkpt lat="64.32537842" lon="-20.12927628"><ele>223.3</ele><time>2012-07-20T11:53:19.0000000+00:00</time></trkpt><trkpt lat="64.32537842" lon="-20.12927628"><ele>223.3</ele><time>2012-07-20T11:53:24.0000000+00:00</time></trkpt><trkpt lat="64.32537842" lon="-20.12927628"><ele>223.3</ele><time>2012-07-20T11:53:29.0000000+00:00</time></trkpt><trkpt lat="64.32537842" lon="-20.12927437"><ele>223.2</ele><time>2012-07-20T11:53:34.0000000+00:00</time></trkpt><trkpt lat="64.32538605" lon="-20.12927437"><ele>223.2</ele><time>2012-07-20T11:53:39.0000000+00:00</time></trkpt><trkpt lat="64.32537842" lon="-20.12927437"><ele>223.2</ele><time>2012-07-20T11:53:44.0000000+00:00</time></trkpt><trkpt lat="64.32537842" lon="-20.12927437"><ele>223.2</ele><time>2012-07-20T11:53:49.0000000+00:00</time></trkpt><trkpt lat="64.32537842" lon="-20.12927437"><ele>223.2</ele><time>2012-07-20T11:53:54.0000000+00:00</time></trkpt><trkpt lat="64.32537842" lon="-20.12927437"><ele>223.2</ele><time>2012-07-20T11:53:59.0000000+00:00</time></trkpt><trkpt lat="64.32537842" lon="-20.12927437"><ele>223.2</ele><time>2012-07-20T11:54:04.0000000+00:00</time></trkpt><trkpt lat="64.32537842" lon="-20.12927437"><ele>223.2</ele><time>2012-07-20T11:54:09.0000000+00:00</time></trkpt><trkpt lat="64.32537842" lon="-20.12927437"><ele>223.2</ele><time>2012-07-20T11:54:14.0000000+00:00</time></trkpt><trkpt lat="64.32537842" lon="-20.12927437"><ele>223.2</ele><time>2012-07-20T11:54:19.0000000+00:00</time></trkpt><trkpt lat="64.32537842" lon="-20.12927437"><ele>223.2</ele><time>2012-07-20T11:54:24.0000000+00:00</time></trkpt><trkpt lat="64.32537842" lon="-20.12927628"><ele>223.2</ele><time>2012-07-20T11:54:29.0000000+00:00</time></trkpt><trkpt lat="64.32537842" lon="-20.12927437"><ele>223.1</ele><time>2012-07-20T11:54:34.0000000+00:00</time></trkpt><trkpt lat="64.32537079" lon="-20.12926483"><ele>222.0</ele><time>2012-07-20T11:54:39.0000000+00:00</time></trkpt><trkpt lat="64.32537079" lon="-20.12924767"><ele>220.5</ele><time>2012-07-20T11:54:44.0000000+00:00</time></trkpt><trkpt lat="64.32535553" lon="-20.12921715"><ele>218.6</ele><time>2012-07-20T11:54:49.0000000+00:00</time></trkpt><trkpt lat="64.3253479" lon="-20.12921333"><ele>217.0</ele><time>2012-07-20T11:54:54.0000000+00:00</time></trkpt><trkpt lat="64.32535553" lon="-20.1292038"><ele>215.1</ele><time>2012-07-20T11:54:59.0000000+00:00</time></trkpt><trkpt lat="64.32535553" lon="-20.12920189"><ele>213.1</ele><time>2012-07-20T11:55:04.0000000+00:00</time></trkpt><trkpt lat="64.32536316" lon="-20.12922287"><ele>211.8</ele><time>2012-07-20T11:55:09.0000000+00:00</time></trkpt><trkpt lat="64.32535553" lon="-20.12923241"><ele>210.7</ele><time>2012-07-20T11:55:14.0000000+00:00</time></trkpt><trkpt lat="64.32535553" lon="-20.1292305"><ele>209.2</ele><time>2012-07-20T11:55:19.0000000+00:00</time></trkpt><trkpt lat="64.32535553" lon="-20.12922859"><ele>209.1</ele><time>2012-07-20T11:55:24.0000000+00:00</time></trkpt><trkpt lat="64.32535553" lon="-20.12922859"><ele>209.1</ele><time>2012-07-20T11:55:29.0000000+00:00</time></trkpt><trkpt lat="64.32535553" lon="-20.12922859"><ele>209.1</ele><time>2012-07-20T11:55:34.0000000+00:00</time></trkpt><trkpt lat="64.32535553" lon="-20.12922859"><ele>209.1</ele><time>2012-07-20T11:55:39.0000000+00:00</time></trkpt><trkpt lat="64.32536316" lon="-20.12922859"><ele>209.1</ele><time>2012-07-20T11:55:44.0000000+00:00</time></trkpt><trkpt lat="64.32536316" lon="-20.12922859"><ele>209.1</ele><time>2012-07-20T11:55:49.0000000+00:00</time></trkpt><trkpt lat="64.32536316" lon="-20.12922859"><ele>209.1</ele><time>2012-07-20T11:55:54.0000000+00:00</time></trkpt><trkpt lat="64.32536316" lon="-20.12922859"><ele>209.2</ele><time>2012-07-20T11:55:59.0000000+00:00</time></trkpt><trkpt lat="64.32536316" lon="-20.12922859"><ele>209.2</ele><time>2012-07-20T11:56:04.0000000+00:00</time></trkpt><trkpt lat="64.32536316" lon="-20.12922859"><ele>209.2</ele><time>2012-07-20T11:56:09.0000000+00:00</time></trkpt><trkpt lat="64.32536316" lon="-20.1292305"><ele>209.2</ele><time>2012-07-20T11:56:14.0000000+00:00</time></trkpt><trkpt lat="64.32536316" lon="-20.1292305"><ele>209.2</ele><time>2012-07-20T11:56:19.0000000+00:00</time></trkpt><trkpt lat="64.32536316" lon="-20.1292305"><ele>209.3</ele><time>2012-07-20T11:56:24.0000000+00:00</time></trkpt><trkpt lat="64.32536316" lon="-20.12923241"><ele>209.3</ele><time>2012-07-20T11:56:29.0000000+00:00</time></trkpt><trkpt lat="64.32536316" lon="-20.12923241"><ele>209.3</ele><time>2012-07-20T11:56:34.0000000+00:00</time></trkpt><trkpt lat="64.32535553" lon="-20.12923431"><ele>209.4</ele><time>2012-07-20T11:56:39.0000000+00:00</time></trkpt><trkpt lat="64.32535553" lon="-20.12923622"><ele>209.4</ele><time>2012-07-20T11:56:44.0000000+00:00</time></trkpt><trkpt lat="64.32535553" lon="-20.12923622"><ele>209.4</ele><time>2012-07-20T11:56:49.0000000+00:00</time></trkpt><trkpt lat="64.32536316" lon="-20.12923813"><ele>209.5</ele><time>2012-07-20T11:56:54.0000000+00:00</time></trkpt><trkpt lat="64.32535553" lon="-20.12923813"><ele>209.5</ele><time>2012-07-20T11:56:59.0000000+00:00</time></trkpt><trkpt lat="64.32535553" lon="-20.12923813"><ele>209.5</ele><time>2012-07-20T11:57:04.0000000+00:00</time></trkpt><trkpt lat="64.32535553" lon="-20.12923813"><ele>209.6</ele><time>2012-07-20T11:57:09.0000000+00:00</time></trkpt><trkpt lat="64.32535553" lon="-20.12924004"><ele>209.6</ele><time>2012-07-20T11:57:14.0000000+00:00</time></trkpt><trkpt lat="64.32535553" lon="-20.12924004"><ele>209.6</ele><time>2012-07-20T11:57:19.0000000+00:00</time></trkpt><trkpt lat="64.32535553" lon="-20.12924004"><ele>209.6</ele><time>2012-07-20T11:57:24.0000000+00:00</time></trkpt><trkpt lat="64.32535553" lon="-20.12924004"><ele>209.7</ele><time>2012-07-20T11:57:29.0000000+00:00</time></trkpt><trkpt lat="64.32535553" lon="-20.12924004"><ele>209.7</ele><time>2012-07-20T11:57:34.0000000+00:00</time></trkpt><trkpt lat="64.32535553" lon="-20.12924004"><ele>209.7</ele><time>2012-07-20T11:57:39.0000000+00:00</time></trkpt><trkpt lat="64.32535553" lon="-20.12924004"><ele>209.7</ele><time>2012-07-20T11:57:44.0000000+00:00</time></trkpt><trkpt lat="64.32535553" lon="-20.12924194"><ele>209.8</ele><time>2012-07-20T11:57:49.0000000+00:00</time></trkpt><trkpt lat="64.32535553" lon="-20.12924194"><ele>209.8</ele><time>2012-07-20T11:57:54.0000000+00:00</time></trkpt><trkpt lat="64.32535553" lon="-20.12924194"><ele>209.9</ele><time>2012-07-20T11:57:59.0000000+00:00</time></trkpt><trkpt lat="64.32535553" lon="-20.12924385"><ele>209.9</ele><time>2012-07-20T11:58:04.0000000+00:00</time></trkpt><trkpt lat="64.32535553" lon="-20.12924385"><ele>209.9</ele><time>2012-07-20T11:58:09.0000000+00:00</time></trkpt><trkpt lat="64.32535553" lon="-20.12924385"><ele>210.0</ele><time>2012-07-20T11:58:14.0000000+00:00</time></trkpt><trkpt lat="64.32535553" lon="-20.12924576"><ele>210.0</ele><time>2012-07-20T11:58:19.0000000+00:00</time></trkpt><trkpt lat="64.32535553" lon="-20.12924576"><ele>210.0</ele><time>2012-07-20T11:58:24.0000000+00:00</time></trkpt><trkpt lat="64.32535553" lon="-20.12924767"><ele>210.1</ele><time>2012-07-20T11:58:29.0000000+00:00</time></trkpt><trkpt lat="64.32535553" lon="-20.12924957"><ele>210.1</ele><time>2012-07-20T11:58:34.0000000+00:00</time></trkpt><trkpt lat="64.32535553" lon="-20.12924957"><ele>210.2</ele><time>2012-07-20T11:58:39.0000000+00:00</time></trkpt><trkpt lat="64.32535553" lon="-20.12924957"><ele>210.2</ele><time>2012-07-20T11:58:44.0000000+00:00</time></trkpt><trkpt lat="64.32535553" lon="-20.12924957"><ele>210.3</ele><time>2012-07-20T11:58:49.0000000+00:00</time></trkpt><trkpt lat="64.32535553" lon="-20.12924957"><ele>210.4</ele><time>2012-07-20T11:58:54.0000000+00:00</time></trkpt><trkpt lat="64.32535553" lon="-20.12925148"><ele>210.4</ele><time>2012-07-20T11:58:59.0000000+00:00</time></trkpt><trkpt lat="64.32535553" lon="-20.12925148"><ele>210.4</ele><time>2012-07-20T11:59:04.0000000+00:00</time></trkpt><trkpt lat="64.32535553" lon="-20.12925339"><ele>210.5</ele><time>2012-07-20T11:59:09.0000000+00:00</time></trkpt><trkpt lat="64.32535553" lon="-20.12925339"><ele>210.5</ele><time>2012-07-20T11:59:14.0000000+00:00</time></trkpt><trkpt lat="64.32535553" lon="-20.1292553"><ele>210.6</ele><time>2012-07-20T11:59:19.0000000+00:00</time></trkpt><trkpt lat="64.32535553" lon="-20.1292553"><ele>210.6</ele><time>2012-07-20T11:59:24.0000000+00:00</time></trkpt><trkpt lat="64.32535553" lon="-20.1292572"><ele>210.6</ele><time>2012-07-20T11:59:29.0000000+00:00</time></trkpt><trkpt lat="64.32535553" lon="-20.1292572"><ele>210.7</ele><time>2012-07-20T11:59:34.0000000+00:00</time></trkpt><trkpt lat="64.32535553" lon="-20.12925911"><ele>210.7</ele><time>2012-07-20T11:59:39.0000000+00:00</time></trkpt><trkpt lat="64.32535553" lon="-20.12926102"><ele>210.7</ele><time>2012-07-20T11:59:44.0000000+00:00</time></trkpt><trkpt lat="64.32535553" lon="-20.12926102"><ele>210.7</ele><time>2012-07-20T11:59:49.0000000+00:00</time></trkpt><trkpt lat="64.32535553" lon="-20.12926102"><ele>210.8</ele><time>2012-07-20T11:59:54.0000000+00:00</time></trkpt><trkpt lat="64.32535553" lon="-20.12926102"><ele>210.8</ele><time>2012-07-20T11:59:59.0000000+00:00</time></trkpt><trkpt lat="64.32535553" lon="-20.12926102"><ele>210.8</ele><time>2012-07-20T12:00:04.0000000+00:00</time></trkpt><trkpt lat="64.32535553" lon="-20.12926102"><ele>210.9</ele><time>2012-07-20T12:00:09.0000000+00:00</time></trkpt><trkpt lat="64.3253479" lon="-20.12926102"><ele>210.9</ele><time>2012-07-20T12:00:14.0000000+00:00</time></trkpt><trkpt lat="64.3253479" lon="-20.12926102"><ele>210.9</ele><time>2012-07-20T12:00:19.0000000+00:00</time></trkpt><trkpt lat="64.3253479" lon="-20.12925911"><ele>210.9</ele><time>2012-07-20T12:00:24.0000000+00:00</time></trkpt><trkpt lat="64.3253479" lon="-20.12926102"><ele>210.9</ele><time>2012-07-20T12:00:29.0000000+00:00</time></trkpt><trkpt lat="64.3253479" lon="-20.12925911"><ele>210.9</ele><time>2012-07-20T12:00:34.0000000+00:00</time></trkpt><trkpt lat="64.3253479" lon="-20.12926102"><ele>211.0</ele><time>2012-07-20T12:00:39.0000000+00:00</time></trkpt><trkpt lat="64.3253479" lon="-20.12926102"><ele>211.0</ele><time>2012-07-20T12:00:44.0000000+00:00</time></trkpt><trkpt lat="64.3253479" lon="-20.12926102"><ele>211.0</ele><time>2012-07-20T12:00:49.0000000+00:00</time></trkpt><trkpt lat="64.3253479" lon="-20.12926102"><ele>211.0</ele><time>2012-07-20T12:00:54.0000000+00:00</time></trkpt><trkpt lat="64.3253479" lon="-20.12926102"><ele>211.0</ele><time>2012-07-20T12:00:59.0000000+00:00</time></trkpt><trkpt lat="64.3253479" lon="-20.12926102"><ele>211.0</ele><time>2012-07-20T12:01:04.0000000+00:00</time></trkpt><trkpt lat="64.3253479" lon="-20.12926102"><ele>211.0</ele><time>2012-07-20T12:01:09.0000000+00:00</time></trkpt><trkpt lat="64.3253479" lon="-20.12926102"><ele>211.0</ele><time>2012-07-20T12:01:14.0000000+00:00</time></trkpt><trkpt lat="64.3253479" lon="-20.12925911"><ele>211.1</ele><time>2012-07-20T12:01:19.0000000+00:00</time></trkpt><trkpt lat="64.3253479" lon="-20.12925911"><ele>211.1</ele><time>2012-07-20T12:01:24.0000000+00:00</time></trkpt><trkpt lat="64.3253479" lon="-20.12925911"><ele>211.1</ele><time>2012-07-20T12:01:29.0000000+00:00</time></trkpt><trkpt lat="64.3253479" lon="-20.12925911"><ele>211.1</ele><time>2012-07-20T12:01:34.0000000+00:00</time></trkpt><trkpt lat="64.3253479" lon="-20.12925911"><ele>211.1</ele><time>2012-07-20T12:01:39.0000000+00:00</time></trkpt><trkpt lat="64.3253479" lon="-20.12925911"><ele>211.1</ele><time>2012-07-20T12:01:44.0000000+00:00</time></trkpt><trkpt lat="64.3253479" lon="-20.12925911"><ele>211.1</ele><time>2012-07-20T12:01:49.0000000+00:00</time></trkpt><trkpt lat="64.3253479" lon="-20.12925911"><ele>211.1</ele><time>2012-07-20T12:01:54.0000000+00:00</time></trkpt><trkpt lat="64.3253479" lon="-20.12925911"><ele>211.2</ele><time>2012-07-20T12:01:59.0000000+00:00</time></trkpt><trkpt lat="64.3253479" lon="-20.12925911"><ele>211.2</ele><time>2012-07-20T12:02:04.0000000+00:00</time></trkpt><trkpt lat="64.3253479" lon="-20.12925911"><ele>211.2</ele><time>2012-07-20T12:02:09.0000000+00:00</time></trkpt><trkpt lat="64.3253479" lon="-20.12925911"><ele>211.2</ele><time>2012-07-20T12:02:14.0000000+00:00</time></trkpt><trkpt lat="64.3253479" lon="-20.12925911"><ele>211.2</ele><time>2012-07-20T12:02:19.0000000+00:00</time></trkpt><trkpt lat="64.3253479" lon="-20.12925911"><ele>211.2</ele><time>2012-07-20T12:02:24.0000000+00:00</time></trkpt><trkpt lat="64.3253479" lon="-20.12925911"><ele>211.2</ele><time>2012-07-20T12:02:29.0000000+00:00</time></trkpt><trkpt lat="64.3253479" lon="-20.12925911"><ele>211.2</ele><time>2012-07-20T12:02:34.0000000+00:00</time></trkpt><trkpt lat="64.3253479" lon="-20.12925911"><ele>211.2</ele><time>2012-07-20T12:02:39.0000000+00:00</time></trkpt><trkpt lat="64.3253479" lon="-20.1292572"><ele>211.2</ele><time>2012-07-20T12:02:44.0000000+00:00</time></trkpt><trkpt lat="64.3253479" lon="-20.1292572"><ele>211.2</ele><time>2012-07-20T12:02:49.0000000+00:00</time></trkpt><trkpt lat="64.3253479" lon="-20.1292572"><ele>211.2</ele><time>2012-07-20T12:02:54.0000000+00:00</time></trkpt><trkpt lat="64.3253479" lon="-20.1292572"><ele>211.2</ele><time>2012-07-20T12:02:59.0000000+00:00</time></trkpt><trkpt lat="64.3253479" lon="-20.1292572"><ele>211.2</ele><time>2012-07-20T12:03:04.0000000+00:00</time></trkpt><trkpt lat="64.32534027" lon="-20.1292572"><ele>211.2</ele><time>2012-07-20T12:03:09.0000000+00:00</time></trkpt><trkpt lat="64.32534027" lon="-20.1292572"><ele>211.3</ele><time>2012-07-20T12:03:14.0000000+00:00</time></trkpt><trkpt lat="64.32534027" lon="-20.1292572"><ele>211.3</ele><time>2012-07-20T12:03:19.0000000+00:00</time></trkpt><trkpt lat="64.32534027" lon="-20.1292572"><ele>211.3</ele><time>2012-07-20T12:03:24.0000000+00:00</time></trkpt><trkpt lat="64.32534027" lon="-20.1292572"><ele>211.3</ele><time>2012-07-20T12:03:29.0000000+00:00</time></trkpt><trkpt lat="64.32534027" lon="-20.1292572"><ele>211.3</ele><time>2012-07-20T12:03:34.0000000+00:00</time></trkpt><trkpt lat="64.32534027" lon="-20.1292572"><ele>211.3</ele><time>2012-07-20T12:03:39.0000000+00:00</time></trkpt><trkpt lat="64.32534027" lon="-20.1292572"><ele>211.3</ele><time>2012-07-20T12:03:44.0000000+00:00</time></trkpt><trkpt lat="64.32534027" lon="-20.1292572"><ele>211.3</ele><time>2012-07-20T12:03:49.0000000+00:00</time></trkpt><trkpt lat="64.32534027" lon="-20.1292572"><ele>211.3</ele><time>2012-07-20T12:03:54.0000000+00:00</time></trkpt><trkpt lat="64.32534027" lon="-20.1292572"><ele>211.3</ele><time>2012-07-20T12:03:59.0000000+00:00</time></trkpt><trkpt lat="64.32534027" lon="-20.1292572"><ele>211.3</ele><time>2012-07-20T12:04:04.0000000+00:00</time></trkpt><trkpt lat="64.32534027" lon="-20.1292572"><ele>211.3</ele><time>2012-07-20T12:04:09.0000000+00:00</time></trkpt><trkpt lat="64.32534027" lon="-20.1292572"><ele>211.3</ele><time>2012-07-20T12:04:14.0000000+00:00</time></trkpt><trkpt lat="64.32534027" lon="-20.1292572"><ele>211.3</ele><time>2012-07-20T12:04:19.0000000+00:00</time></trkpt><trkpt lat="64.32534027" lon="-20.12925911"><ele>211.4</ele><time>2012-07-20T12:04:24.0000000+00:00</time></trkpt><trkpt lat="64.32534027" lon="-20.12925911"><ele>211.4</ele><time>2012-07-20T12:04:29.0000000+00:00</time></trkpt><trkpt lat="64.32534027" lon="-20.12925911"><ele>211.4</ele><time>2012-07-20T12:04:34.0000000+00:00</time></trkpt><trkpt lat="64.32534027" lon="-20.12925911"><ele>211.4</ele><time>2012-07-20T12:04:39.0000000+00:00</time></trkpt><trkpt lat="64.32534027" lon="-20.12926102"><ele>211.4</ele><time>2012-07-20T12:04:44.0000000+00:00</time></trkpt><trkpt lat="64.32534027" lon="-20.12926102"><ele>211.4</ele><time>2012-07-20T12:04:49.0000000+00:00</time></trkpt><trkpt lat="64.32534027" lon="-20.12926102"><ele>211.4</ele><time>2012-07-20T12:04:54.0000000+00:00</time></trkpt><trkpt lat="64.32534027" lon="-20.12926102"><ele>211.5</ele><time>2012-07-20T12:04:59.0000000+00:00</time></trkpt><trkpt lat="64.32534027" lon="-20.12926292"><ele>211.5</ele><time>2012-07-20T12:05:04.0000000+00:00</time></trkpt><trkpt lat="64.32534027" lon="-20.12926865"><ele>211.8</ele><time>2012-07-20T12:05:09.0000000+00:00</time></trkpt><trkpt lat="64.32533264" lon="-20.12927818"><ele>212.7</ele><time>2012-07-20T12:05:14.0000000+00:00</time></trkpt><trkpt lat="64.32533264" lon="-20.12929153"><ele>213.7</ele><time>2012-07-20T12:05:19.0000000+00:00</time></trkpt><trkpt lat="64.32533264" lon="-20.12929916"><ele>214.2</ele><time>2012-07-20T12:05:24.0000000+00:00</time></trkpt><trkpt lat="64.32533264" lon="-20.12931824"><ele>215.0</ele><time>2012-07-20T12:05:29.0000000+00:00</time></trkpt><trkpt lat="64.32533264" lon="-20.12933159"><ele>215.8</ele><time>2012-07-20T12:05:34.0000000+00:00</time></trkpt><trkpt lat="64.32534027" lon="-20.12933731"><ele>216.2</ele><time>2012-07-20T12:05:39.0000000+00:00</time></trkpt><trkpt lat="64.32534027" lon="-20.12934876"><ele>216.6</ele><time>2012-07-20T12:05:44.0000000+00:00</time></trkpt><trkpt lat="64.32534027" lon="-20.12934876"><ele>216.7</ele><time>2012-07-20T12:05:49.0000000+00:00</time></trkpt><trkpt lat="64.32533264" lon="-20.12934876"><ele>217.4</ele><time>2012-07-20T12:05:54.0000000+00:00</time></trkpt><trkpt lat="64.32532501" lon="-20.12934685"><ele>218.0</ele><time>2012-07-20T12:05:59.0000000+00:00</time></trkpt><trkpt lat="64.32530975" lon="-20.12933922"><ele>218.4</ele><time>2012-07-20T12:06:04.0000000+00:00</time></trkpt><trkpt lat="64.32530212" lon="-20.1293354"><ele>218.9</ele><time>2012-07-20T12:06:09.0000000+00:00</time></trkpt><trkpt lat="64.32530212" lon="-20.1293354"><ele>218.9</ele><time>2012-07-20T12:06:14.0000000+00:00</time></trkpt><trkpt lat="64.32530212" lon="-20.1293335"><ele>218.9</ele><time>2012-07-20T12:06:19.0000000+00:00</time></trkpt><trkpt lat="64.32530212" lon="-20.1293335"><ele>218.9</ele><time>2012-07-20T12:06:24.0000000+00:00</time></trkpt><trkpt lat="64.32530212" lon="-20.1293335"><ele>218.9</ele><time>2012-07-20T12:06:29.0000000+00:00</time></trkpt><trkpt lat="64.32530212" lon="-20.1293335"><ele>218.9</ele><time>2012-07-20T12:06:34.0000000+00:00</time></trkpt><trkpt lat="64.32530212" lon="-20.1293335"><ele>218.9</ele><time>2012-07-20T12:06:39.0000000+00:00</time></trkpt><trkpt lat="64.32530212" lon="-20.12933159"><ele>218.8</ele><time>2012-07-20T12:06:44.0000000+00:00</time></trkpt><trkpt lat="64.32530212" lon="-20.12933159"><ele>218.8</ele><time>2012-07-20T12:06:49.0000000+00:00</time></trkpt><trkpt lat="64.32530212" lon="-20.12933159"><ele>218.8</ele><time>2012-07-20T12:06:54.0000000+00:00</time></trkpt><trkpt lat="64.32530212" lon="-20.12933159"><ele>218.8</ele><time>2012-07-20T12:06:59.0000000+00:00</time></trkpt><trkpt lat="64.32530212" lon="-20.12932968"><ele>218.8</ele><time>2012-07-20T12:07:04.0000000+00:00</time></trkpt><trkpt lat="64.32530212" lon="-20.12932968"><ele>218.8</ele><time>2012-07-20T12:07:09.0000000+00:00</time></trkpt><trkpt lat="64.32530212" lon="-20.12932968"><ele>218.7</ele><time>2012-07-20T12:07:14.0000000+00:00</time></trkpt><trkpt lat="64.32530212" lon="-20.12932968"><ele>218.7</ele><time>2012-07-20T12:07:19.0000000+00:00</time></trkpt><trkpt lat="64.32530975" lon="-20.12932777"><ele>218.7</ele><time>2012-07-20T12:07:24.0000000+00:00</time></trkpt><trkpt lat="64.32530975" lon="-20.12932777"><ele>218.7</ele><time>2012-07-20T12:07:29.0000000+00:00</time></trkpt><trkpt lat="64.32530975" lon="-20.12932587"><ele>218.7</ele><time>2012-07-20T12:07:34.0000000+00:00</time></trkpt><trkpt lat="64.32530975" lon="-20.12932587"><ele>218.7</ele><time>2012-07-20T12:07:39.0000000+00:00</time></trkpt><trkpt lat="64.32530975" lon="-20.12932396"><ele>218.7</ele><time>2012-07-20T12:07:44.0000000+00:00</time></trkpt><trkpt lat="64.32530975" lon="-20.12932396"><ele>218.7</ele><time>2012-07-20T12:07:49.0000000+00:00</time></trkpt><trkpt lat="64.32530975" lon="-20.12932205"><ele>218.7</ele><time>2012-07-20T12:07:54.0000000+00:00</time></trkpt><trkpt lat="64.32530975" lon="-20.12932015"><ele>218.7</ele><time>2012-07-20T12:07:59.0000000+00:00</time></trkpt><trkpt lat="64.32530975" lon="-20.12932015"><ele>218.7</ele><time>2012-07-20T12:08:04.0000000+00:00</time></trkpt><trkpt lat="64.32530975" lon="-20.12931824"><ele>218.8</ele><time>2012-07-20T12:08:09.0000000+00:00</time></trkpt><trkpt lat="64.32530975" lon="-20.12931633"><ele>218.8</ele><time>2012-07-20T12:08:14.0000000+00:00</time></trkpt><trkpt lat="64.32530975" lon="-20.12931633"><ele>218.8</ele><time>2012-07-20T12:08:19.0000000+00:00</time></trkpt><trkpt lat="64.32530975" lon="-20.12931633"><ele>218.8</ele><time>2012-07-20T12:08:24.0000000+00:00</time></trkpt><trkpt lat="64.32530975" lon="-20.12931442"><ele>218.8</ele><time>2012-07-20T12:08:29.0000000+00:00</time></trkpt><trkpt lat="64.32530975" lon="-20.12931252"><ele>218.9</ele><time>2012-07-20T12:08:34.0000000+00:00</time></trkpt><trkpt lat="64.32530975" lon="-20.12931252"><ele>218.9</ele><time>2012-07-20T12:08:39.0000000+00:00</time></trkpt><trkpt lat="64.32530975" lon="-20.12931252"><ele>218.9</ele><time>2012-07-20T12:08:44.0000000+00:00</time></trkpt><trkpt lat="64.32530975" lon="-20.12931061"><ele>219.0</ele><time>2012-07-20T12:08:49.0000000+00:00</time></trkpt><trkpt lat="64.32530975" lon="-20.12931061"><ele>219.0</ele><time>2012-07-20T12:08:54.0000000+00:00</time></trkpt><trkpt lat="64.32530975" lon="-20.12931061"><ele>219.0</ele><time>2012-07-20T12:08:59.0000000+00:00</time></trkpt><trkpt lat="64.32530975" lon="-20.1293087"><ele>219.1</ele><time>2012-07-20T12:09:04.0000000+00:00</time></trkpt><trkpt lat="64.32530975" lon="-20.1293087"><ele>219.1</ele><time>2012-07-20T12:09:09.0000000+00:00</time></trkpt><trkpt lat="64.32530975" lon="-20.1293087"><ele>219.2</ele><time>2012-07-20T12:09:14.0000000+00:00</time></trkpt><trkpt lat="64.32530975" lon="-20.1293087"><ele>219.2</ele><time>2012-07-20T12:09:19.0000000+00:00</time></trkpt><trkpt lat="64.32530975" lon="-20.12930679"><ele>219.3</ele><time>2012-07-20T12:09:24.0000000+00:00</time></trkpt><trkpt lat="64.32531738" lon="-20.12930679"><ele>219.3</ele><time>2012-07-20T12:09:29.0000000+00:00</time></trkpt><trkpt lat="64.32531738" lon="-20.12930679"><ele>219.3</ele><time>2012-07-20T12:09:34.0000000+00:00</time></trkpt><trkpt lat="64.32531738" lon="-20.12930679"><ele>219.4</ele><time>2012-07-20T12:09:39.0000000+00:00</time></trkpt><trkpt lat="64.32531738" lon="-20.12930679"><ele>219.5</ele><time>2012-07-20T12:09:44.0000000+00:00</time></trkpt><trkpt lat="64.32531738" lon="-20.12930489"><ele>219.5</ele><time>2012-07-20T12:09:49.0000000+00:00</time></trkpt><trkpt lat="64.32531738" lon="-20.12930489"><ele>219.6</ele><time>2012-07-20T12:09:54.0000000+00:00</time></trkpt><trkpt lat="64.32531738" lon="-20.12930489"><ele>219.6</ele><time>2012-07-20T12:09:59.0000000+00:00</time></trkpt><trkpt lat="64.32531738" lon="-20.12930489"><ele>219.6</ele><time>2012-07-20T12:10:04.0000000+00:00</time></trkpt><trkpt lat="64.32531738" lon="-20.12930489"><ele>219.6</ele><time>2012-07-20T12:10:09.0000000+00:00</time></trkpt><trkpt lat="64.32531738" lon="-20.12930489"><ele>219.6</ele><time>2012-07-20T12:10:14.0000000+00:00</time></trkpt><trkpt lat="64.32531738" lon="-20.12930489"><ele>219.6</ele><time>2012-07-20T12:10:19.0000000+00:00</time></trkpt><trkpt lat="64.32531738" lon="-20.12930489"><ele>219.6</ele><time>2012-07-20T12:10:24.0000000+00:00</time></trkpt><trkpt lat="64.32531738" lon="-20.12930489"><ele>219.6</ele><time>2012-07-20T12:10:29.0000000+00:00</time></trkpt><trkpt lat="64.32531738" lon="-20.12930489"><ele>219.5</ele><time>2012-07-20T12:10:34.0000000+00:00</time></trkpt><trkpt lat="64.32531738" lon="-20.12930489"><ele>219.5</ele><time>2012-07-20T12:10:39.0000000+00:00</time></trkpt><trkpt lat="64.32531738" lon="-20.12930679"><ele>219.5</ele><time>2012-07-20T12:10:44.0000000+00:00</time></trkpt><trkpt lat="64.32531738" lon="-20.12930679"><ele>219.4</ele><time>2012-07-20T12:10:49.0000000+00:00</time></trkpt><trkpt lat="64.32531738" lon="-20.12930679"><ele>219.3</ele><time>2012-07-20T12:10:54.0000000+00:00</time></trkpt><trkpt lat="64.32531738" lon="-20.1293087"><ele>219.3</ele><time>2012-07-20T12:10:59.0000000+00:00</time></trkpt><trkpt lat="64.32531738" lon="-20.1293087"><ele>219.2</ele><time>2012-07-20T12:11:04.0000000+00:00</time></trkpt><trkpt lat="64.32531738" lon="-20.1293087"><ele>219.2</ele><time>2012-07-20T12:11:09.0000000+00:00</time></trkpt><trkpt lat="64.32531738" lon="-20.1293087"><ele>219.1</ele><time>2012-07-20T12:11:14.0000000+00:00</time></trkpt><trkpt lat="64.32531738" lon="-20.12931061"><ele>219.1</ele><time>2012-07-20T12:11:19.0000000+00:00</time></trkpt><trkpt lat="64.32531738" lon="-20.12931061"><ele>219.1</ele><time>2012-07-20T12:11:24.0000000+00:00</time></trkpt><trkpt lat="64.32531738" lon="-20.12931061"><ele>219.1</ele><time>2012-07-20T12:11:29.0000000+00:00</time></trkpt><trkpt lat="64.32531738" lon="-20.12931061"><ele>219.1</ele><time>2012-07-20T12:11:34.0000000+00:00</time></trkpt><trkpt lat="64.32531738" lon="-20.12931061"><ele>219.1</ele><time>2012-07-20T12:11:39.0000000+00:00</time></trkpt><trkpt lat="64.32531738" lon="-20.12931061"><ele>219.0</ele><time>2012-07-20T12:11:44.0000000+00:00</time></trkpt><trkpt lat="64.32531738" lon="-20.12931252"><ele>219.0</ele><time>2012-07-20T12:11:49.0000000+00:00</time></trkpt><trkpt lat="64.32531738" lon="-20.12931252"><ele>218.9</ele><time>2012-07-20T12:11:54.0000000+00:00</time></trkpt><trkpt lat="64.32531738" lon="-20.12931252"><ele>218.9</ele><time>2012-07-20T12:11:59.0000000+00:00</time></trkpt><trkpt lat="64.32531738" lon="-20.12931442"><ele>218.9</ele><time>2012-07-20T12:12:04.0000000+00:00</time></trkpt><trkpt lat="64.32531738" lon="-20.12931442"><ele>218.8</ele><time>2012-07-20T12:12:09.0000000+00:00</time></trkpt><trkpt lat="64.32530975" lon="-20.12931442"><ele>218.7</ele><time>2012-07-20T12:12:14.0000000+00:00</time></trkpt><trkpt lat="64.32530975" lon="-20.12931633"><ele>218.7</ele><time>2012-07-20T12:12:19.0000000+00:00</time></trkpt><trkpt lat="64.32530975" lon="-20.12931633"><ele>218.6</ele><time>2012-07-20T12:12:24.0000000+00:00</time></trkpt><trkpt lat="64.32530975" lon="-20.12931633"><ele>218.6</ele><time>2012-07-20T12:12:29.0000000+00:00</time></trkpt><trkpt lat="64.32530975" lon="-20.12931633"><ele>218.6</ele><time>2012-07-20T12:12:34.0000000+00:00</time></trkpt><trkpt lat="64.32530975" lon="-20.12931633"><ele>218.5</ele><time>2012-07-20T12:12:39.0000000+00:00</time></trkpt><trkpt lat="64.32530975" lon="-20.12931633"><ele>218.5</ele><time>2012-07-20T12:12:44.0000000+00:00</time></trkpt><trkpt lat="64.32530975" lon="-20.12931633"><ele>218.5</ele><time>2012-07-20T12:12:49.0000000+00:00</time></trkpt><trkpt lat="64.32530975" lon="-20.12931633"><ele>218.4</ele><time>2012-07-20T12:12:54.0000000+00:00</time></trkpt><trkpt lat="64.32530975" lon="-20.12931633"><ele>218.4</ele><time>2012-07-20T12:12:59.0000000+00:00</time></trkpt><trkpt lat="64.32530975" lon="-20.12931633"><ele>218.4</ele><time>2012-07-20T12:13:04.0000000+00:00</time></trkpt><trkpt lat="64.32530975" lon="-20.12931633"><ele>218.4</ele><time>2012-07-20T12:13:09.0000000+00:00</time></trkpt><trkpt lat="64.32530975" lon="-20.12931824"><ele>218.3</ele><time>2012-07-20T12:13:14.0000000+00:00</time></trkpt><trkpt lat="64.32530975" lon="-20.12931824"><ele>218.3</ele><time>2012-07-20T12:13:19.0000000+00:00</time></trkpt><trkpt lat="64.32530975" lon="-20.12931824"><ele>218.2</ele><time>2012-07-20T12:13:24.0000000+00:00</time></trkpt><trkpt lat="64.32530975" lon="-20.12931824"><ele>218.1</ele><time>2012-07-20T12:13:29.0000000+00:00</time></trkpt><trkpt lat="64.32530975" lon="-20.12931824"><ele>218.1</ele><time>2012-07-20T12:13:34.0000000+00:00</time></trkpt><trkpt lat="64.32530975" lon="-20.12932015"><ele>218.0</ele><time>2012-07-20T12:13:39.0000000+00:00</time></trkpt><trkpt lat="64.32530975" lon="-20.12932015"><ele>217.9</ele><time>2012-07-20T12:13:44.0000000+00:00</time></trkpt><trkpt lat="64.32530212" lon="-20.12932015"><ele>217.8</ele><time>2012-07-20T12:13:49.0000000+00:00</time></trkpt><trkpt lat="64.32530212" lon="-20.12932205"><ele>217.8</ele><time>2012-07-20T12:13:54.0000000+00:00</time></trkpt><trkpt lat="64.32530212" lon="-20.12932205"><ele>217.7</ele><time>2012-07-20T12:13:59.0000000+00:00</time></trkpt><trkpt lat="64.32530212" lon="-20.12932205"><ele>217.7</ele><time>2012-07-20T12:14:04.0000000+00:00</time></trkpt><trkpt lat="64.32530212" lon="-20.12932205"><ele>217.6</ele><time>2012-07-20T12:14:09.0000000+00:00</time></trkpt><trkpt lat="64.32530212" lon="-20.12932396"><ele>217.6</ele><time>2012-07-20T12:14:14.0000000+00:00</time></trkpt><trkpt lat="64.32530212" lon="-20.12932396"><ele>217.6</ele><time>2012-07-20T12:14:19.0000000+00:00</time></trkpt><trkpt lat="64.32530212" lon="-20.12932396"><ele>217.6</ele><time>2012-07-20T12:14:24.0000000+00:00</time></trkpt><trkpt lat="64.32530212" lon="-20.12932396"><ele>217.6</ele><time>2012-07-20T12:14:29.0000000+00:00</time></trkpt><trkpt lat="64.32530212" lon="-20.12932396"><ele>217.6</ele><time>2012-07-20T12:14:34.0000000+00:00</time></trkpt><trkpt lat="64.32530212" lon="-20.12932396"><ele>217.5</ele><time>2012-07-20T12:14:39.0000000+00:00</time></trkpt><trkpt lat="64.32530212" lon="-20.12932396"><ele>217.5</ele><time>2012-07-20T12:14:44.0000000+00:00</time></trkpt><trkpt lat="64.32530212" lon="-20.12932396"><ele>217.5</ele><time>2012-07-20T12:14:49.0000000+00:00</time></trkpt><trkpt lat="64.32530212" lon="-20.12932396"><ele>217.6</ele><time>2012-07-20T12:14:54.0000000+00:00</time></trkpt><trkpt lat="64.32530212" lon="-20.12932205"><ele>217.6</ele><time>2012-07-20T12:14:59.0000000+00:00</time></trkpt><trkpt lat="64.32530212" lon="-20.12932205"><ele>217.6</ele><time>2012-07-20T12:15:04.0000000+00:00</time></trkpt><trkpt lat="64.32530212" lon="-20.12932396"><ele>217.6</ele><time>2012-07-20T12:15:09.0000000+00:00</time></trkpt><trkpt lat="64.32530212" lon="-20.12932396"><ele>217.6</ele><time>2012-07-20T12:15:14.0000000+00:00</time></trkpt><trkpt lat="64.32530212" lon="-20.12932396"><ele>217.6</ele><time>2012-07-20T12:15:19.0000000+00:00</time></trkpt><trkpt lat="64.32530212" lon="-20.12932396"><ele>217.6</ele><time>2012-07-20T12:15:24.0000000+00:00</time></trkpt><trkpt lat="64.32530212" lon="-20.12932396"><ele>217.7</ele><time>2012-07-20T12:15:29.0000000+00:00</time></trkpt><trkpt lat="64.32530975" lon="-20.12932396"><ele>217.7</ele><time>2012-07-20T12:15:34.0000000+00:00</time></trkpt><trkpt lat="64.32530975" lon="-20.12932396"><ele>217.7</ele><time>2012-07-20T12:15:39.0000000+00:00</time></trkpt><trkpt lat="64.32530975" lon="-20.12932396"><ele>217.7</ele><time>2012-07-20T12:15:44.0000000+00:00</time></trkpt><trkpt lat="64.32530975" lon="-20.12932396"><ele>217.7</ele><time>2012-07-20T12:15:49.0000000+00:00</time></trkpt><trkpt lat="64.32530975" lon="-20.12932396"><ele>217.7</ele><time>2012-07-20T12:15:54.0000000+00:00</time></trkpt><trkpt lat="64.32530975" lon="-20.12932396"><ele>217.7</ele><time>2012-07-20T12:15:59.0000000+00:00</time></trkpt><trkpt lat="64.32530975" lon="-20.12932205"><ele>217.8</ele><time>2012-07-20T12:16:04.0000000+00:00</time></trkpt><trkpt lat="64.32530975" lon="-20.12932205"><ele>217.8</ele><time>2012-07-20T12:16:09.0000000+00:00</time></trkpt><trkpt lat="64.32530975" lon="-20.12932205"><ele>217.8</ele><time>2012-07-20T12:16:14.0000000+00:00</time></trkpt><trkpt lat="64.32530975" lon="-20.12932205"><ele>217.8</ele><time>2012-07-20T12:16:19.0000000+00:00</time></trkpt><trkpt lat="64.32530975" lon="-20.12932205"><ele>217.8</ele><time>2012-07-20T12:16:24.0000000+00:00</time></trkpt><trkpt lat="64.32530975" lon="-20.12932015"><ele>217.8</ele><time>2012-07-20T12:16:29.0000000+00:00</time></trkpt><trkpt lat="64.32530975" lon="-20.12932015"><ele>217.8</ele><time>2012-07-20T12:16:34.0000000+00:00</time></trkpt><trkpt lat="64.32530975" lon="-20.12932015"><ele>217.8</ele><time>2012-07-20T12:16:39.0000000+00:00</time></trkpt><trkpt lat="64.32530975" lon="-20.12932015"><ele>217.8</ele><time>2012-07-20T12:16:44.0000000+00:00</time></trkpt><trkpt lat="64.32530975" lon="-20.12932015"><ele>217.8</ele><time>2012-07-20T12:16:49.0000000+00:00</time></trkpt><trkpt lat="64.32530975" lon="-20.12932015"><ele>217.8</ele><time>2012-07-20T12:16:54.0000000+00:00</time></trkpt><trkpt lat="64.32530975" lon="-20.12932205"><ele>217.8</ele><time>2012-07-20T12:16:59.0000000+00:00</time></trkpt><trkpt lat="64.32530975" lon="-20.12932205"><ele>217.8</ele><time>2012-07-20T12:17:04.0000000+00:00</time></trkpt><trkpt lat="64.32530975" lon="-20.12932205"><ele>217.9</ele><time>2012-07-20T12:17:09.0000000+00:00</time></trkpt><trkpt lat="64.32530975" lon="-20.12932396"><ele>217.9</ele><time>2012-07-20T12:17:14.0000000+00:00</time></trkpt><trkpt lat="64.32530975" lon="-20.12932396"><ele>217.9</ele><time>2012-07-20T12:17:19.0000000+00:00</time></trkpt><trkpt lat="64.32530975" lon="-20.12932396"><ele>218.0</ele><time>2012-07-20T12:17:24.0000000+00:00</time></trkpt><trkpt lat="64.32530975" lon="-20.12932587"><ele>218.0</ele><time>2012-07-20T12:17:29.0000000+00:00</time></trkpt><trkpt lat="64.32530975" lon="-20.12932587"><ele>218.0</ele><time>2012-07-20T12:17:34.0000000+00:00</time></trkpt><trkpt lat="64.32530975" lon="-20.12932777"><ele>218.0</ele><time>2012-07-20T12:17:39.0000000+00:00</time></trkpt><trkpt lat="64.32530975" lon="-20.12932777"><ele>218.0</ele><time>2012-07-20T12:17:44.0000000+00:00</time></trkpt><trkpt lat="64.32530975" lon="-20.12932777"><ele>218.0</ele><time>2012-07-20T12:17:49.0000000+00:00</time></trkpt><trkpt lat="64.32530975" lon="-20.12932777"><ele>218.0</ele><time>2012-07-20T12:17:54.0000000+00:00</time></trkpt><trkpt lat="64.32530975" lon="-20.12932968"><ele>218.0</ele><time>2012-07-20T12:17:59.0000000+00:00</time></trkpt><trkpt lat="64.32530975" lon="-20.12932968"><ele>218.0</ele><time>2012-07-20T12:18:04.0000000+00:00</time></trkpt><trkpt lat="64.32530975" lon="-20.12932968"><ele>218.1</ele><time>2012-07-20T12:18:09.0000000+00:00</time></trkpt><trkpt lat="64.32530975" lon="-20.12933159"><ele>218.1</ele><time>2012-07-20T12:18:14.0000000+00:00</time></trkpt><trkpt lat="64.32530975" lon="-20.12933159"><ele>218.1</ele><time>2012-07-20T12:18:19.0000000+00:00</time></trkpt><trkpt lat="64.32530975" lon="-20.1293335"><ele>218.2</ele><time>2012-07-20T12:18:24.0000000+00:00</time></trkpt><trkpt lat="64.32530975" lon="-20.1293335"><ele>218.2</ele><time>2012-07-20T12:18:29.0000000+00:00</time></trkpt><trkpt lat="64.32530975" lon="-20.1293335"><ele>218.2</ele><time>2012-07-20T12:18:34.0000000+00:00</time></trkpt><trkpt lat="64.32530975" lon="-20.1293335"><ele>218.2</ele><time>2012-07-20T12:18:39.0000000+00:00</time></trkpt><trkpt lat="64.32530975" lon="-20.1293335"><ele>218.2</ele><time>2012-07-20T12:18:44.0000000+00:00</time></trkpt><trkpt lat="64.32530975" lon="-20.1293335"><ele>218.2</ele><time>2012-07-20T12:18:49.0000000+00:00</time></trkpt><trkpt lat="64.32530975" lon="-20.1293354"><ele>218.2</ele><time>2012-07-20T12:18:54.0000000+00:00</time></trkpt><trkpt lat="64.32530975" lon="-20.1293354"><ele>218.2</ele><time>2012-07-20T12:18:59.0000000+00:00</time></trkpt><trkpt lat="64.32530975" lon="-20.1293354"><ele>218.3</ele><time>2012-07-20T12:19:04.0000000+00:00</time></trkpt><trkpt lat="64.32530975" lon="-20.1293354"><ele>218.3</ele><time>2012-07-20T12:19:09.0000000+00:00</time></trkpt><trkpt lat="64.32530975" lon="-20.1293354"><ele>218.3</ele><time>2012-07-20T12:19:14.0000000+00:00</time></trkpt><trkpt lat="64.32530975" lon="-20.12933731"><ele>218.3</ele><time>2012-07-20T12:19:19.0000000+00:00</time></trkpt><trkpt lat="64.32530975" lon="-20.12933731"><ele>218.3</ele><time>2012-07-20T12:19:24.0000000+00:00</time></trkpt><trkpt lat="64.32530975" lon="-20.12933731"><ele>218.3</ele><time>2012-07-20T12:19:29.0000000+00:00</time></trkpt><trkpt lat="64.32530975" lon="-20.12933731"><ele>218.3</ele><time>2012-07-20T12:19:34.0000000+00:00</time></trkpt><trkpt lat="64.32530975" lon="-20.12933731"><ele>218.3</ele><time>2012-07-20T12:19:39.0000000+00:00</time></trkpt><trkpt lat="64.32530975" lon="-20.12933731"><ele>218.3</ele><time>2012-07-20T12:19:44.0000000+00:00</time></trkpt><trkpt lat="64.32530975" lon="-20.12933731"><ele>218.3</ele><time>2012-07-20T12:19:49.0000000+00:00</time></trkpt><trkpt lat="64.32530975" lon="-20.12933731"><ele>218.3</ele><time>2012-07-20T12:19:54.0000000+00:00</time></trkpt><trkpt lat="64.32530975" lon="-20.12933731"><ele>218.3</ele><time>2012-07-20T12:19:59.0000000+00:00</time></trkpt><trkpt lat="64.32530975" lon="-20.12933731"><ele>218.3</ele><time>2012-07-20T12:20:04.0000000+00:00</time></trkpt><trkpt lat="64.32530975" lon="-20.12933731"><ele>218.3</ele><time>2012-07-20T12:20:09.0000000+00:00</time></trkpt><trkpt lat="64.32530975" lon="-20.12933731"><ele>218.4</ele><time>2012-07-20T12:20:14.0000000+00:00</time></trkpt><trkpt lat="64.32530975" lon="-20.12933731"><ele>218.4</ele><time>2012-07-20T12:20:19.0000000+00:00</time></trkpt><trkpt lat="64.32530975" lon="-20.12933731"><ele>218.4</ele><time>2012-07-20T12:20:24.0000000+00:00</time></trkpt><trkpt lat="64.32530975" lon="-20.12933731"><ele>218.4</ele><time>2012-07-20T12:20:29.0000000+00:00</time></trkpt><trkpt lat="64.32530975" lon="-20.12933731"><ele>218.3</ele><time>2012-07-20T12:20:34.0000000+00:00</time></trkpt><trkpt lat="64.32530975" lon="-20.12933731"><ele>218.3</ele><time>2012-07-20T12:20:39.0000000+00:00</time></trkpt><trkpt lat="64.32530975" lon="-20.12933731"><ele>218.3</ele><time>2012-07-20T12:20:44.0000000+00:00</time></trkpt><trkpt lat="64.32530975" lon="-20.12933731"><ele>218.3</ele><time>2012-07-20T12:20:49.0000000+00:00</time></trkpt><trkpt lat="64.32530975" lon="-20.12933731"><ele>218.3</ele><time>2012-07-20T12:20:54.0000000+00:00</time></trkpt><trkpt lat="64.32530975" lon="-20.12933731"><ele>218.3</ele><time>2012-07-20T12:20:59.0000000+00:00</time></trkpt><trkpt lat="64.32530975" lon="-20.12933731"><ele>218.2</ele><time>2012-07-20T12:21:04.0000000+00:00</time></trkpt><trkpt lat="64.32530975" lon="-20.12933731"><ele>218.2</ele><time>2012-07-20T12:21:09.0000000+00:00</time></trkpt><trkpt lat="64.32530975" lon="-20.12933922"><ele>218.2</ele><time>2012-07-20T12:21:14.0000000+00:00</time></trkpt><trkpt lat="64.32530975" lon="-20.12933922"><ele>218.2</ele><time>2012-07-20T12:21:19.0000000+00:00</time></trkpt><trkpt lat="64.32530975" lon="-20.12933922"><ele>218.1</ele><time>2012-07-20T12:21:24.0000000+00:00</time></trkpt><trkpt lat="64.32530975" lon="-20.12933922"><ele>218.1</ele><time>2012-07-20T12:21:29.0000000+00:00</time></trkpt><trkpt lat="64.32530975" lon="-20.12934113"><ele>218.1</ele><time>2012-07-20T12:21:34.0000000+00:00</time></trkpt><trkpt lat="64.32530975" lon="-20.12934113"><ele>218.0</ele><time>2012-07-20T12:21:39.0000000+00:00</time></trkpt><trkpt lat="64.32530975" lon="-20.12934113"><ele>218.0</ele><time>2012-07-20T12:21:44.0000000+00:00</time></trkpt><trkpt lat="64.32530975" lon="-20.12934113"><ele>218.0</ele><time>2012-07-20T12:21:49.0000000+00:00</time></trkpt><trkpt lat="64.32530975" lon="-20.12934113"><ele>218.0</ele><time>2012-07-20T12:21:54.0000000+00:00</time></trkpt><trkpt lat="64.32530975" lon="-20.12934303"><ele>218.0</ele><time>2012-07-20T12:21:59.0000000+00:00</time></trkpt><trkpt lat="64.32530975" lon="-20.12934303"><ele>218.0</ele><time>2012-07-20T12:22:04.0000000+00:00</time></trkpt><trkpt lat="64.32530975" lon="-20.12934303"><ele>218.0</ele><time>2012-07-20T12:22:09.0000000+00:00</time></trkpt><trkpt lat="64.32530975" lon="-20.12934303"><ele>218.0</ele><time>2012-07-20T12:22:14.0000000+00:00</time></trkpt><trkpt lat="64.32530975" lon="-20.12934494"><ele>218.0</ele><time>2012-07-20T12:22:19.0000000+00:00</time></trkpt><trkpt lat="64.32530975" lon="-20.12934494"><ele>218.0</ele><time>2012-07-20T12:22:24.0000000+00:00</time></trkpt><trkpt lat="64.32530975" lon="-20.12934494"><ele>218.0</ele><time>2012-07-20T12:22:29.0000000+00:00</time></trkpt><trkpt lat="64.32530975" lon="-20.12934494"><ele>218.0</ele><time>2012-07-20T12:22:34.0000000+00:00</time></trkpt><trkpt lat="64.32530975" lon="-20.12934494"><ele>218.1</ele><time>2012-07-20T12:22:39.0000000+00:00</time></trkpt><trkpt lat="64.32530975" lon="-20.12934494"><ele>218.1</ele><time>2012-07-20T12:22:44.0000000+00:00</time></trkpt><trkpt lat="64.32530975" lon="-20.12934494"><ele>218.1</ele><time>2012-07-20T12:22:49.0000000+00:00</time></trkpt><trkpt lat="64.32531738" lon="-20.12934494"><ele>218.1</ele><time>2012-07-20T12:22:54.0000000+00:00</time></trkpt><trkpt lat="64.32531738" lon="-20.12934494"><ele>218.1</ele><time>2012-07-20T12:22:59.0000000+00:00</time></trkpt><trkpt lat="64.32531738" lon="-20.12934303"><ele>218.1</ele><time>2012-07-20T12:23:04.0000000+00:00</time></trkpt><trkpt lat="64.32531738" lon="-20.12934303"><ele>218.1</ele><time>2012-07-20T12:23:09.0000000+00:00</time></trkpt><trkpt lat="64.32531738" lon="-20.12934303"><ele>218.1</ele><time>2012-07-20T12:23:14.0000000+00:00</time></trkpt><trkpt lat="64.32531738" lon="-20.12934113"><ele>218.1</ele><time>2012-07-20T12:23:19.0000000+00:00</time></trkpt><trkpt lat="64.32531738" lon="-20.12934113"><ele>218.2</ele><time>2012-07-20T12:23:24.0000000+00:00</time></trkpt><trkpt lat="64.32531738" lon="-20.12934113"><ele>218.2</ele><time>2012-07-20T12:23:29.0000000+00:00</time></trkpt><trkpt lat="64.32531738" lon="-20.12933922"><ele>218.2</ele><time>2012-07-20T12:23:34.0000000+00:00</time></trkpt><trkpt lat="64.32531738" lon="-20.12933922"><ele>218.2</ele><time>2012-07-20T12:23:39.0000000+00:00</time></trkpt><trkpt lat="64.32531738" lon="-20.12933922"><ele>218.3</ele><time>2012-07-20T12:23:44.0000000+00:00</time></trkpt><trkpt lat="64.32531738" lon="-20.12933922"><ele>218.3</ele><time>2012-07-20T12:23:49.0000000+00:00</time></trkpt><trkpt lat="64.32531738" lon="-20.12933922"><ele>218.3</ele><time>2012-07-20T12:23:54.0000000+00:00</time></trkpt><trkpt lat="64.32532501" lon="-20.12933922"><ele>218.3</ele><time>2012-07-20T12:23:59.0000000+00:00</time></trkpt><trkpt lat="64.32532501" lon="-20.12933731"><ele>218.3</ele><time>2012-07-20T12:24:04.0000000+00:00</time></trkpt><trkpt lat="64.32532501" lon="-20.12933731"><ele>218.4</ele><time>2012-07-20T12:24:09.0000000+00:00</time></trkpt><trkpt lat="64.32532501" lon="-20.12933731"><ele>218.4</ele><time>2012-07-20T12:24:14.0000000+00:00</time></trkpt><trkpt lat="64.32532501" lon="-20.12933731"><ele>218.4</ele><time>2012-07-20T12:24:19.0000000+00:00</time></trkpt><trkpt lat="64.32532501" lon="-20.1293354"><ele>218.4</ele><time>2012-07-20T12:24:24.0000000+00:00</time></trkpt><trkpt lat="64.32532501" lon="-20.1293335"><ele>218.4</ele><time>2012-07-20T12:24:29.0000000+00:00</time></trkpt><trkpt lat="64.32532501" lon="-20.1293335"><ele>218.4</ele><time>2012-07-20T12:24:34.0000000+00:00</time></trkpt><trkpt lat="64.32532501" lon="-20.1293335"><ele>218.4</ele><time>2012-07-20T12:24:39.0000000+00:00</time></trkpt><trkpt lat="64.32532501" lon="-20.1293335"><ele>218.4</ele><time>2012-07-20T12:24:44.0000000+00:00</time></trkpt><trkpt lat="64.32532501" lon="-20.1293335"><ele>218.4</ele><time>2012-07-20T12:24:49.0000000+00:00</time></trkpt><trkpt lat="64.32532501" lon="-20.1293354"><ele>218.4</ele><time>2012-07-20T12:24:54.0000000+00:00</time></trkpt><trkpt lat="64.32532501" lon="-20.1293335"><ele>218.4</ele><time>2012-07-20T12:24:59.0000000+00:00</time></trkpt><trkpt lat="64.32532501" lon="-20.1293335"><ele>218.4</ele><time>2012-07-20T12:25:04.0000000+00:00</time></trkpt><trkpt lat="64.32532501" lon="-20.1293335"><ele>218.4</ele><time>2012-07-20T12:25:09.0000000+00:00</time></trkpt><trkpt lat="64.32532501" lon="-20.1293335"><ele>218.4</ele><time>2012-07-20T12:25:14.0000000+00:00</time></trkpt><trkpt lat="64.32532501" lon="-20.1293335"><ele>218.4</ele><time>2012-07-20T12:25:19.0000000+00:00</time></trkpt><trkpt lat="64.32532501" lon="-20.1293335"><ele>218.4</ele><time>2012-07-20T12:25:24.0000000+00:00</time></trkpt><trkpt lat="64.32532501" lon="-20.1293335"><ele>218.4</ele><time>2012-07-20T12:25:29.0000000+00:00</time></trkpt><trkpt lat="64.32532501" lon="-20.1293335"><ele>218.4</ele><time>2012-07-20T12:25:34.0000000+00:00</time></trkpt><trkpt lat="64.32532501" lon="-20.1293335"><ele>218.5</ele><time>2012-07-20T12:25:39.0000000+00:00</time></trkpt><trkpt lat="64.32532501" lon="-20.1293335"><ele>218.5</ele><time>2012-07-20T12:25:44.0000000+00:00</time></trkpt><trkpt lat="64.32532501" lon="-20.1293335"><ele>218.5</ele><time>2012-07-20T12:25:49.0000000+00:00</time></trkpt><trkpt lat="64.32532501" lon="-20.12933159"><ele>218.4</ele><time>2012-07-20T12:25:54.0000000+00:00</time></trkpt><trkpt lat="64.32532501" lon="-20.12933159"><ele>218.4</ele><time>2012-07-20T12:25:59.0000000+00:00</time></trkpt><trkpt lat="64.32532501" lon="-20.12933159"><ele>218.4</ele><time>2012-07-20T12:26:04.0000000+00:00</time></trkpt><trkpt lat="64.32532501" lon="-20.12933159"><ele>218.4</ele><time>2012-07-20T12:26:09.0000000+00:00</time></trkpt><trkpt lat="64.32532501" lon="-20.12933159"><ele>218.4</ele><time>2012-07-20T12:26:14.0000000+00:00</time></trkpt><trkpt lat="64.32532501" lon="-20.12933159"><ele>218.3</ele><time>2012-07-20T12:26:19.0000000+00:00</time></trkpt><trkpt lat="64.32532501" lon="-20.12933159"><ele>218.3</ele><time>2012-07-20T12:26:24.0000000+00:00</time></trkpt><trkpt lat="64.32532501" lon="-20.12933159"><ele>218.2</ele><time>2012-07-20T12:26:29.0000000+00:00</time></trkpt><trkpt lat="64.32532501" lon="-20.12933159"><ele>218.2</ele><time>2012-07-20T12:26:34.0000000+00:00</time></trkpt><trkpt lat="64.32532501" lon="-20.12933159"><ele>218.1</ele><time>2012-07-20T12:26:39.0000000+00:00</time></trkpt><trkpt lat="64.32532501" lon="-20.12933159"><ele>218.1</ele><time>2012-07-20T12:26:44.0000000+00:00</time></trkpt><trkpt lat="64.32532501" lon="-20.12933159"><ele>218.1</ele><time>2012-07-20T12:26:49.0000000+00:00</time></trkpt><trkpt lat="64.32532501" lon="-20.12933159"><ele>218.0</ele><time>2012-07-20T12:26:54.0000000+00:00</time></trkpt><trkpt lat="64.32532501" lon="-20.12933159"><ele>218.0</ele><time>2012-07-20T12:26:59.0000000+00:00</time></trkpt><trkpt lat="64.32532501" lon="-20.1293335"><ele>218.0</ele><time>2012-07-20T12:27:04.0000000+00:00</time></trkpt><trkpt lat="64.32532501" lon="-20.1293335"><ele>218.0</ele><time>2012-07-20T12:27:09.0000000+00:00</time></trkpt><trkpt lat="64.32532501" lon="-20.1293335"><ele>218.0</ele><time>2012-07-20T12:27:14.0000000+00:00</time></trkpt><trkpt lat="64.32532501" lon="-20.12933159"><ele>218.0</ele><time>2012-07-20T12:27:19.0000000+00:00</time></trkpt><trkpt lat="64.32532501" lon="-20.12933159"><ele>218.0</ele><time>2012-07-20T12:27:24.0000000+00:00</time></trkpt><trkpt lat="64.32532501" lon="-20.12933159"><ele>218.0</ele><time>2012-07-20T12:27:29.0000000+00:00</time></trkpt><trkpt lat="64.32532501" lon="-20.12933159"><ele>218.0</ele><time>2012-07-20T12:27:34.0000000+00:00</time></trkpt><trkpt lat="64.32532501" lon="-20.12933159"><ele>218.0</ele><time>2012-07-20T12:27:39.0000000+00:00</time></trkpt><trkpt lat="64.32532501" lon="-20.12933159"><ele>218.0</ele><time>2012-07-20T12:27:44.0000000+00:00</time></trkpt><trkpt lat="64.32532501" lon="-20.12933159"><ele>218.0</ele><time>2012-07-20T12:27:49.0000000+00:00</time></trkpt><trkpt lat="64.32532501" lon="-20.12933159"><ele>217.9</ele><time>2012-07-20T12:27:54.0000000+00:00</time></trkpt><trkpt lat="64.32532501" lon="-20.1293335"><ele>217.9</ele><time>2012-07-20T12:27:59.0000000+00:00</time></trkpt><trkpt lat="64.32532501" lon="-20.1293335"><ele>217.9</ele><time>2012-07-20T12:28:04.0000000+00:00</time></trkpt><trkpt lat="64.32532501" lon="-20.12933159"><ele>217.9</ele><time>2012-07-20T12:28:09.0000000+00:00</time></trkpt><trkpt lat="64.32532501" lon="-20.12933159"><ele>217.9</ele><time>2012-07-20T12:28:14.0000000+00:00</time></trkpt><trkpt lat="64.32532501" lon="-20.12933159"><ele>217.9</ele><time>2012-07-20T12:28:19.0000000+00:00</time></trkpt><trkpt lat="64.32532501" lon="-20.12933159"><ele>217.9</ele><time>2012-07-20T12:28:24.0000000+00:00</time></trkpt><trkpt lat="64.32532501" lon="-20.12933159"><ele>217.9</ele><time>2012-07-20T12:28:29.0000000+00:00</time></trkpt><trkpt lat="64.32532501" lon="-20.12933159"><ele>217.9</ele><time>2012-07-20T12:28:34.0000000+00:00</time></trkpt><trkpt lat="64.32532501" lon="-20.12933159"><ele>217.8</ele><time>2012-07-20T12:28:39.0000000+00:00</time></trkpt><trkpt lat="64.32532501" lon="-20.12933159"><ele>217.8</ele><time>2012-07-20T12:28:44.0000000+00:00</time></trkpt><trkpt lat="64.32532501" lon="-20.12933159"><ele>217.8</ele><time>2012-07-20T12:28:49.0000000+00:00</time></trkpt><trkpt lat="64.32532501" lon="-20.1293335"><ele>217.8</ele><time>2012-07-20T12:28:54.0000000+00:00</time></trkpt><trkpt lat="64.32532501" lon="-20.1293335"><ele>217.7</ele><time>2012-07-20T12:28:59.0000000+00:00</time></trkpt><trkpt lat="64.32532501" lon="-20.1293335"><ele>217.7</ele><time>2012-07-20T12:29:04.0000000+00:00</time></trkpt><trkpt lat="64.32532501" lon="-20.1293335"><ele>217.8</ele><time>2012-07-20T12:29:09.0000000+00:00</time></trkpt><trkpt lat="64.32532501" lon="-20.1293335"><ele>217.8</ele><time>2012-07-20T12:29:14.0000000+00:00</time></trkpt><trkpt lat="64.32532501" lon="-20.1293335"><ele>217.8</ele><time>2012-07-20T12:29:19.0000000+00:00</time></trkpt><trkpt lat="64.32532501" lon="-20.1293335"><ele>217.8</ele><time>2012-07-20T12:29:24.0000000+00:00</time></trkpt><trkpt lat="64.32533264" lon="-20.1293354"><ele>217.8</ele><time>2012-07-20T12:29:29.0000000+00:00</time></trkpt><trkpt lat="64.32533264" lon="-20.1293354"><ele>217.8</ele><time>2012-07-20T12:29:34.0000000+00:00</time></trkpt><trkpt lat="64.32533264" lon="-20.1293354"><ele>217.9</ele><time>2012-07-20T12:29:39.0000000+00:00</time></trkpt><trkpt lat="64.32533264" lon="-20.1293354"><ele>217.9</ele><time>2012-07-20T12:29:44.0000000+00:00</time></trkpt><trkpt lat="64.32533264" lon="-20.1293354"><ele>217.9</ele><time>2012-07-20T12:29:49.0000000+00:00</time></trkpt><trkpt lat="64.32533264" lon="-20.1293354"><ele>218.0</ele><time>2012-07-20T12:29:54.0000000+00:00</time></trkpt><trkpt lat="64.32533264" lon="-20.1293354"><ele>218.0</ele><time>2012-07-20T12:29:59.0000000+00:00</time></trkpt><trkpt lat="64.32533264" lon="-20.1293354"><ele>218.0</ele><time>2012-07-20T12:30:04.0000000+00:00</time></trkpt><trkpt lat="64.32533264" lon="-20.12933731"><ele>218.0</ele><time>2012-07-20T12:30:09.0000000+00:00</time></trkpt><trkpt lat="64.32533264" lon="-20.12933731"><ele>218.0</ele><time>2012-07-20T12:30:14.0000000+00:00</time></trkpt><trkpt lat="64.32533264" lon="-20.12933731"><ele>218.0</ele><time>2012-07-20T12:30:19.0000000+00:00</time></trkpt><trkpt lat="64.32533264" lon="-20.12933922"><ele>218.0</ele><time>2012-07-20T12:30:24.0000000+00:00</time></trkpt><trkpt lat="64.32533264" lon="-20.12933922"><ele>218.0</ele><time>2012-07-20T12:30:29.0000000+00:00</time></trkpt><trkpt lat="64.32533264" lon="-20.12934113"><ele>218.0</ele><time>2012-07-20T12:30:34.0000000+00:00</time></trkpt><trkpt lat="64.32534027" lon="-20.12934113"><ele>218.0</ele><time>2012-07-20T12:30:39.0000000+00:00</time></trkpt><trkpt lat="64.32534027" lon="-20.12934113"><ele>218.0</ele><time>2012-07-20T12:30:44.0000000+00:00</time></trkpt><trkpt lat="64.32534027" lon="-20.12934113"><ele>218.0</ele><time>2012-07-20T12:30:49.0000000+00:00</time></trkpt><trkpt lat="64.32534027" lon="-20.12934303"><ele>218.0</ele><time>2012-07-20T12:30:54.0000000+00:00</time></trkpt><trkpt lat="64.32534027" lon="-20.12934303"><ele>218.0</ele><time>2012-07-20T12:30:59.0000000+00:00</time></trkpt><trkpt lat="64.32534027" lon="-20.12934494"><ele>218.0</ele><time>2012-07-20T12:31:04.0000000+00:00</time></trkpt><trkpt lat="64.32534027" lon="-20.12934494"><ele>218.0</ele><time>2012-07-20T12:31:09.0000000+00:00</time></trkpt><trkpt lat="64.32534027" lon="-20.12934494"><ele>218.0</ele><time>2012-07-20T12:31:14.0000000+00:00</time></trkpt><trkpt lat="64.32534027" lon="-20.12934494"><ele>218.0</ele><time>2012-07-20T12:31:19.0000000+00:00</time></trkpt><trkpt lat="64.32534027" lon="-20.12934685"><ele>218.0</ele><time>2012-07-20T12:31:24.0000000+00:00</time></trkpt><trkpt lat="64.32534027" lon="-20.12934685"><ele>218.0</ele><time>2012-07-20T12:31:29.0000000+00:00</time></trkpt><trkpt lat="64.32534027" lon="-20.12934685"><ele>218.0</ele><time>2012-07-20T12:31:34.0000000+00:00</time></trkpt><trkpt lat="64.32534027" lon="-20.12934685"><ele>218.0</ele><time>2012-07-20T12:31:39.0000000+00:00</time></trkpt><trkpt lat="64.32534027" lon="-20.12934876"><ele>218.0</ele><time>2012-07-20T12:31:44.0000000+00:00</time></trkpt><trkpt lat="64.32534027" lon="-20.12934876"><ele>218.0</ele><time>2012-07-20T12:31:49.0000000+00:00</time></trkpt><trkpt lat="64.32534027" lon="-20.12934876"><ele>218.0</ele><time>2012-07-20T12:31:54.0000000+00:00</time></trkpt><trkpt lat="64.32534027" lon="-20.12934876"><ele>218.0</ele><time>2012-07-20T12:31:59.0000000+00:00</time></trkpt><trkpt lat="64.32534027" lon="-20.12934876"><ele>218.0</ele><time>2012-07-20T12:32:04.0000000+00:00</time></trkpt><trkpt lat="64.32534027" lon="-20.12934876"><ele>218.0</ele><time>2012-07-20T12:32:09.0000000+00:00</time></trkpt><trkpt lat="64.32534027" lon="-20.12934876"><ele>217.9</ele><time>2012-07-20T12:32:14.0000000+00:00</time></trkpt><trkpt lat="64.3253479" lon="-20.12934876"><ele>217.9</ele><time>2012-07-20T12:32:19.0000000+00:00</time></trkpt><trkpt lat="64.3253479" lon="-20.12934876"><ele>217.9</ele><time>2012-07-20T12:32:24.0000000+00:00</time></trkpt><trkpt lat="64.3253479" lon="-20.12934876"><ele>217.9</ele><time>2012-07-20T12:32:29.0000000+00:00</time></trkpt><trkpt lat="64.3253479" lon="-20.12934876"><ele>217.9</ele><time>2012-07-20T12:32:34.0000000+00:00</time></trkpt><trkpt lat="64.3253479" lon="-20.12934876"><ele>217.9</ele><time>2012-07-20T12:32:39.0000000+00:00</time></trkpt><trkpt lat="64.3253479" lon="-20.12934876"><ele>217.9</ele><time>2012-07-20T12:32:44.0000000+00:00</time></trkpt><trkpt lat="64.3253479" lon="-20.12934876"><ele>217.9</ele><time>2012-07-20T12:32:49.0000000+00:00</time></trkpt><trkpt lat="64.3253479" lon="-20.12934876"><ele>217.9</ele><time>2012-07-20T12:32:54.0000000+00:00</time></trkpt><trkpt lat="64.3253479" lon="-20.12934876"><ele>217.9</ele><time>2012-07-20T12:32:59.0000000+00:00</time></trkpt><trkpt lat="64.3253479" lon="-20.12934876"><ele>217.9</ele><time>2012-07-20T12:33:04.0000000+00:00</time></trkpt><trkpt lat="64.3253479" lon="-20.12934685"><ele>218.0</ele><time>2012-07-20T12:33:09.0000000+00:00</time></trkpt><trkpt lat="64.3253479" lon="-20.12934685"><ele>218.0</ele><time>2012-07-20T12:33:14.0000000+00:00</time></trkpt><trkpt lat="64.3253479" lon="-20.12934685"><ele>218.0</ele><time>2012-07-20T12:33:19.0000000+00:00</time></trkpt><trkpt lat="64.3253479" lon="-20.12934685"><ele>218.0</ele><time>2012-07-20T12:33:24.0000000+00:00</time></trkpt><trkpt lat="64.3253479" lon="-20.12934685"><ele>218.0</ele><time>2012-07-20T12:33:29.0000000+00:00</time></trkpt><trkpt lat="64.3253479" lon="-20.12934685"><ele>218.0</ele><time>2012-07-20T12:33:34.0000000+00:00</time></trkpt><trkpt lat="64.3253479" lon="-20.12934685"><ele>218.0</ele><time>2012-07-20T12:33:39.0000000+00:00</time></trkpt><trkpt lat="64.3253479" lon="-20.12934685"><ele>218.0</ele><time>2012-07-20T12:33:44.0000000+00:00</time></trkpt><trkpt lat="64.3253479" lon="-20.12934876"><ele>218.0</ele><time>2012-07-20T12:33:49.0000000+00:00</time></trkpt><trkpt lat="64.3253479" lon="-20.12934876"><ele>218.0</ele><time>2012-07-20T12:33:54.0000000+00:00</time></trkpt><trkpt lat="64.3253479" lon="-20.12934876"><ele>218.0</ele><time>2012-07-20T12:33:59.0000000+00:00</time></trkpt><trkpt lat="64.3253479" lon="-20.12935066"><ele>218.0</ele><time>2012-07-20T12:34:04.0000000+00:00</time></trkpt><trkpt lat="64.3253479" lon="-20.12935066"><ele>217.9</ele><time>2012-07-20T12:34:09.0000000+00:00</time></trkpt><trkpt lat="64.32534027" lon="-20.12935257"><ele>217.9</ele><time>2012-07-20T12:34:14.0000000+00:00</time></trkpt><trkpt lat="64.32534027" lon="-20.12935257"><ele>217.9</ele><time>2012-07-20T12:34:19.0000000+00:00</time></trkpt><trkpt lat="64.32534027" lon="-20.12935257"><ele>217.9</ele><time>2012-07-20T12:34:24.0000000+00:00</time></trkpt><trkpt lat="64.32534027" lon="-20.12935257"><ele>217.9</ele><time>2012-07-20T12:34:29.0000000+00:00</time></trkpt><trkpt lat="64.32534027" lon="-20.12935257"><ele>217.9</ele><time>2012-07-20T12:34:34.0000000+00:00</time></trkpt><trkpt lat="64.32534027" lon="-20.12935257"><ele>217.9</ele><time>2012-07-20T12:34:39.0000000+00:00</time></trkpt><trkpt lat="64.32534027" lon="-20.12935257"><ele>217.9</ele><time>2012-07-20T12:34:44.0000000+00:00</time></trkpt><trkpt lat="64.32534027" lon="-20.12935257"><ele>217.9</ele><time>2012-07-20T12:34:49.0000000+00:00</time></trkpt><trkpt lat="64.32534027" lon="-20.12935257"><ele>217.9</ele><time>2012-07-20T12:34:54.0000000+00:00</time></trkpt><trkpt lat="64.32534027" lon="-20.12935448"><ele>217.9</ele><time>2012-07-20T12:34:59.0000000+00:00</time></trkpt><trkpt lat="64.32534027" lon="-20.12935448"><ele>217.8</ele><time>2012-07-20T12:35:04.0000000+00:00</time></trkpt><trkpt lat="64.32534027" lon="-20.12935448"><ele>217.8</ele><time>2012-07-20T12:35:09.0000000+00:00</time></trkpt><trkpt lat="64.32534027" lon="-20.12935448"><ele>217.8</ele><time>2012-07-20T12:35:14.0000000+00:00</time></trkpt><trkpt lat="64.32534027" lon="-20.12935448"><ele>217.8</ele><time>2012-07-20T12:35:19.0000000+00:00</time></trkpt><trkpt lat="64.32534027" lon="-20.12935448"><ele>217.8</ele><time>2012-07-20T12:35:24.0000000+00:00</time></trkpt><trkpt lat="64.32534027" lon="-20.12935448"><ele>217.8</ele><time>2012-07-20T12:35:29.0000000+00:00</time></trkpt><trkpt lat="64.32534027" lon="-20.12935448"><ele>217.8</ele><time>2012-07-20T12:35:34.0000000+00:00</time></trkpt><trkpt lat="64.32534027" lon="-20.12935638"><ele>217.8</ele><time>2012-07-20T12:35:39.0000000+00:00</time></trkpt><trkpt lat="64.32534027" lon="-20.12935638"><ele>217.8</ele><time>2012-07-20T12:35:44.0000000+00:00</time></trkpt><trkpt lat="64.32534027" lon="-20.12935638"><ele>217.8</ele><time>2012-07-20T12:35:49.0000000+00:00</time></trkpt><trkpt lat="64.32534027" lon="-20.12935638"><ele>217.7</ele><time>2012-07-20T12:35:54.0000000+00:00</time></trkpt><trkpt lat="64.32534027" lon="-20.12935829"><ele>217.7</ele><time>2012-07-20T12:35:59.0000000+00:00</time></trkpt><trkpt lat="64.32534027" lon="-20.12935829"><ele>217.7</ele><time>2012-07-20T12:36:04.0000000+00:00</time></trkpt><trkpt lat="64.32534027" lon="-20.12935829"><ele>217.7</ele><time>2012-07-20T12:36:09.0000000+00:00</time></trkpt><trkpt lat="64.32534027" lon="-20.12935829"><ele>217.7</ele><time>2012-07-20T12:36:14.0000000+00:00</time></trkpt><trkpt lat="64.32534027" lon="-20.12935829"><ele>217.7</ele><time>2012-07-20T12:36:19.0000000+00:00</time></trkpt><trkpt lat="64.32534027" lon="-20.12935829"><ele>217.7</ele><time>2012-07-20T12:36:24.0000000+00:00</time></trkpt><trkpt lat="64.32534027" lon="-20.12935638"><ele>217.7</ele><time>2012-07-20T12:36:29.0000000+00:00</time></trkpt><trkpt lat="64.32534027" lon="-20.12935638"><ele>217.7</ele><time>2012-07-20T12:36:34.0000000+00:00</time></trkpt><trkpt lat="64.32534027" lon="-20.12935638"><ele>217.7</ele><time>2012-07-20T12:36:39.0000000+00:00</time></trkpt><trkpt lat="64.32534027" lon="-20.12935448"><ele>217.7</ele><time>2012-07-20T12:36:44.0000000+00:00</time></trkpt><trkpt lat="64.32534027" lon="-20.12935448"><ele>217.7</ele><time>2012-07-20T12:36:49.0000000+00:00</time></trkpt><trkpt lat="64.32534027" lon="-20.12935448"><ele>217.7</ele><time>2012-07-20T12:36:54.0000000+00:00</time></trkpt><trkpt lat="64.32534027" lon="-20.12935448"><ele>217.7</ele><time>2012-07-20T12:36:59.0000000+00:00</time></trkpt><trkpt lat="64.32534027" lon="-20.12935448"><ele>217.7</ele><time>2012-07-20T12:37:04.0000000+00:00</time></trkpt><trkpt lat="64.32533264" lon="-20.12935448"><ele>217.7</ele><time>2012-07-20T12:37:09.0000000+00:00</time></trkpt><trkpt lat="64.32533264" lon="-20.12935448"><ele>217.7</ele><time>2012-07-20T12:37:14.0000000+00:00</time></trkpt><trkpt lat="64.32533264" lon="-20.12935448"><ele>217.7</ele><time>2012-07-20T12:37:19.0000000+00:00</time></trkpt><trkpt lat="64.32533264" lon="-20.12935448"><ele>217.7</ele><time>2012-07-20T12:37:24.0000000+00:00</time></trkpt><trkpt lat="64.32533264" lon="-20.12935448"><ele>217.7</ele><time>2012-07-20T12:37:29.0000000+00:00</time></trkpt><trkpt lat="64.32533264" lon="-20.12935448"><ele>217.6</ele><time>2012-07-20T12:37:34.0000000+00:00</time></trkpt><trkpt lat="64.32533264" lon="-20.12935448"><ele>217.6</ele><time>2012-07-20T12:37:39.0000000+00:00</time></trkpt><trkpt lat="64.32533264" lon="-20.12935448"><ele>217.6</ele><time>2012-07-20T12:37:44.0000000+00:00</time></trkpt><trkpt lat="64.32533264" lon="-20.12935448"><ele>217.6</ele><time>2012-07-20T12:37:49.0000000+00:00</time></trkpt><trkpt lat="64.32533264" lon="-20.12935448"><ele>217.6</ele><time>2012-07-20T12:37:54.0000000+00:00</time></trkpt><trkpt lat="64.32533264" lon="-20.12935448"><ele>217.6</ele><time>2012-07-20T12:37:59.0000000+00:00</time></trkpt><trkpt lat="64.32533264" lon="-20.12935257"><ele>217.6</ele><time>2012-07-20T12:38:04.0000000+00:00</time></trkpt><trkpt lat="64.32533264" lon="-20.12935257"><ele>217.6</ele><time>2012-07-20T12:38:09.0000000+00:00</time></trkpt><trkpt lat="64.32533264" lon="-20.12935257"><ele>217.6</ele><time>2012-07-20T12:38:14.0000000+00:00</time></trkpt><trkpt lat="64.32533264" lon="-20.12935257"><ele>217.6</ele><time>2012-07-20T12:38:19.0000000+00:00</time></trkpt><trkpt lat="64.32533264" lon="-20.12935448"><ele>217.6</ele><time>2012-07-20T12:38:24.0000000+00:00</time></trkpt><trkpt lat="64.32533264" lon="-20.12935448"><ele>217.6</ele><time>2012-07-20T12:38:29.0000000+00:00</time></trkpt><trkpt lat="64.32533264" lon="-20.12935448"><ele>217.6</ele><time>2012-07-20T12:38:34.0000000+00:00</time></trkpt><trkpt lat="64.32533264" lon="-20.12935257"><ele>217.6</ele><time>2012-07-20T12:38:39.0000000+00:00</time></trkpt><trkpt lat="64.32533264" lon="-20.12935257"><ele>217.6</ele><time>2012-07-20T12:38:44.0000000+00:00</time></trkpt><trkpt lat="64.32533264" lon="-20.12935257"><ele>217.6</ele><time>2012-07-20T12:38:49.0000000+00:00</time></trkpt><trkpt lat="64.32533264" lon="-20.12935257"><ele>217.6</ele><time>2012-07-20T12:38:54.0000000+00:00</time></trkpt><trkpt lat="64.32533264" lon="-20.12935257"><ele>217.6</ele><time>2012-07-20T12:38:59.0000000+00:00</time></trkpt><trkpt lat="64.32533264" lon="-20.12935257"><ele>217.6</ele><time>2012-07-20T12:39:04.0000000+00:00</time></trkpt><trkpt lat="64.32533264" lon="-20.12935448"><ele>217.5</ele><time>2012-07-20T12:39:09.0000000+00:00</time></trkpt><trkpt lat="64.32533264" lon="-20.12935448"><ele>217.5</ele><time>2012-07-20T12:39:14.0000000+00:00</time></trkpt><trkpt lat="64.32533264" lon="-20.12935448"><ele>217.5</ele><time>2012-07-20T12:39:19.0000000+00:00</time></trkpt><trkpt lat="64.32533264" lon="-20.12935448"><ele>217.5</ele><time>2012-07-20T12:39:24.0000000+00:00</time></trkpt><trkpt lat="64.32533264" lon="-20.12935448"><ele>217.5</ele><time>2012-07-20T12:39:29.0000000+00:00</time></trkpt><trkpt lat="64.32533264" lon="-20.12935638"><ele>217.5</ele><time>2012-07-20T12:39:34.0000000+00:00</time></trkpt><trkpt lat="64.32533264" lon="-20.12935638"><ele>217.5</ele><time>2012-07-20T12:39:39.0000000+00:00</time></trkpt><trkpt lat="64.32533264" lon="-20.12935829"><ele>217.5</ele><time>2012-07-20T12:39:44.0000000+00:00</time></trkpt><trkpt lat="64.32533264" lon="-20.12935829"><ele>217.5</ele><time>2012-07-20T12:39:49.0000000+00:00</time></trkpt><trkpt lat="64.32533264" lon="-20.1293602"><ele>217.5</ele><time>2012-07-20T12:39:54.0000000+00:00</time></trkpt><trkpt lat="64.32533264" lon="-20.1293602"><ele>217.4</ele><time>2012-07-20T12:39:59.0000000+00:00</time></trkpt><trkpt lat="64.32533264" lon="-20.12936211"><ele>217.4</ele><time>2012-07-20T12:40:04.0000000+00:00</time></trkpt><trkpt lat="64.32533264" lon="-20.12936211"><ele>217.4</ele><time>2012-07-20T12:40:09.0000000+00:00</time></trkpt><trkpt lat="64.32532501" lon="-20.12936401"><ele>217.4</ele><time>2012-07-20T12:40:14.0000000+00:00</time></trkpt><trkpt lat="64.32532501" lon="-20.12936401"><ele>217.4</ele><time>2012-07-20T12:40:19.0000000+00:00</time></trkpt><trkpt lat="64.32532501" lon="-20.12936401"><ele>217.4</ele><time>2012-07-20T12:40:24.0000000+00:00</time></trkpt><trkpt lat="64.32532501" lon="-20.12936592"><ele>217.3</ele><time>2012-07-20T12:40:29.0000000+00:00</time></trkpt><trkpt lat="64.32532501" lon="-20.12936592"><ele>217.3</ele><time>2012-07-20T12:40:34.0000000+00:00</time></trkpt><trkpt lat="64.32532501" lon="-20.12936592"><ele>217.3</ele><time>2012-07-20T12:40:39.0000000+00:00</time></trkpt><trkpt lat="64.32532501" lon="-20.12936592"><ele>217.3</ele><time>2012-07-20T12:40:44.0000000+00:00</time></trkpt><trkpt lat="64.32532501" lon="-20.12936592"><ele>217.3</ele><time>2012-07-20T12:40:49.0000000+00:00</time></trkpt><trkpt lat="64.32532501" lon="-20.12936592"><ele>217.3</ele><time>2012-07-20T12:40:54.0000000+00:00</time></trkpt><trkpt lat="64.32532501" lon="-20.12936783"><ele>217.2</ele><time>2012-07-20T12:40:59.0000000+00:00</time></trkpt><trkpt lat="64.32532501" lon="-20.12936783"><ele>217.2</ele><time>2012-07-20T12:41:04.0000000+00:00</time></trkpt><trkpt lat="64.32532501" lon="-20.12936783"><ele>217.2</ele><time>2012-07-20T12:41:09.0000000+00:00</time></trkpt><trkpt lat="64.32532501" lon="-20.12936783"><ele>217.1</ele><time>2012-07-20T12:41:14.0000000+00:00</time></trkpt><trkpt lat="64.32532501" lon="-20.12936783"><ele>217.1</ele><time>2012-07-20T12:41:19.0000000+00:00</time></trkpt><trkpt lat="64.32532501" lon="-20.12936783"><ele>217.1</ele><time>2012-07-20T12:41:24.0000000+00:00</time></trkpt><trkpt lat="64.32532501" lon="-20.12936783"><ele>217.1</ele><time>2012-07-20T12:41:29.0000000+00:00</time></trkpt><trkpt lat="64.32532501" lon="-20.12936783"><ele>217.1</ele><time>2012-07-20T12:41:34.0000000+00:00</time></trkpt><trkpt lat="64.32532501" lon="-20.12936783"><ele>217.1</ele><time>2012-07-20T12:41:39.0000000+00:00</time></trkpt><trkpt lat="64.32532501" lon="-20.12936783"><ele>217.1</ele><time>2012-07-20T12:41:44.0000000+00:00</time></trkpt><trkpt lat="64.32532501" lon="-20.12936783"><ele>217.1</ele><time>2012-07-20T12:41:49.0000000+00:00</time></trkpt><trkpt lat="64.32532501" lon="-20.12936783"><ele>217.1</ele><time>2012-07-20T12:41:54.0000000+00:00</time></trkpt><trkpt lat="64.32532501" lon="-20.12936783"><ele>217.1</ele><time>2012-07-20T12:41:59.0000000+00:00</time></trkpt><trkpt lat="64.32532501" lon="-20.12936783"><ele>217.1</ele><time>2012-07-20T12:42:04.0000000+00:00</time></trkpt><trkpt lat="64.32532501" lon="-20.12936783"><ele>217.1</ele><time>2012-07-20T12:42:09.0000000+00:00</time></trkpt><trkpt lat="64.32532501" lon="-20.12936783"><ele>217.2</ele><time>2012-07-20T12:42:14.0000000+00:00</time></trkpt><trkpt lat="64.32532501" lon="-20.12936783"><ele>217.2</ele><time>2012-07-20T12:42:19.0000000+00:00</time></trkpt><trkpt lat="64.32532501" lon="-20.12936783"><ele>217.1</ele><time>2012-07-20T12:42:24.0000000+00:00</time></trkpt><trkpt lat="64.32532501" lon="-20.12936783"><ele>217.1</ele><time>2012-07-20T12:42:29.0000000+00:00</time></trkpt><trkpt lat="64.32532501" lon="-20.12936783"><ele>217.1</ele><time>2012-07-20T12:42:34.0000000+00:00</time></trkpt><trkpt lat="64.32532501" lon="-20.12936783"><ele>217.1</ele><time>2012-07-20T12:42:39.0000000+00:00</time></trkpt><trkpt lat="64.32532501" lon="-20.12936783"><ele>217.1</ele><time>2012-07-20T12:42:44.0000000+00:00</time></trkpt><trkpt lat="64.32532501" lon="-20.12936592"><ele>217.1</ele><time>2012-07-20T12:42:49.0000000+00:00</time></trkpt><trkpt lat="64.32532501" lon="-20.12936592"><ele>217.1</ele><time>2012-07-20T12:42:54.0000000+00:00</time></trkpt><trkpt lat="64.32532501" lon="-20.12936592"><ele>217.2</ele><time>2012-07-20T12:42:59.0000000+00:00</time></trkpt><trkpt lat="64.32532501" lon="-20.12936592"><ele>217.2</ele><time>2012-07-20T12:43:04.0000000+00:00</time></trkpt><trkpt lat="64.32532501" lon="-20.12936592"><ele>217.2</ele><time>2012-07-20T12:43:09.0000000+00:00</time></trkpt><trkpt lat="64.32532501" lon="-20.12936592"><ele>217.2</ele><time>2012-07-20T12:43:14.0000000+00:00</time></trkpt><trkpt lat="64.32532501" lon="-20.12936592"><ele>217.2</ele><time>2012-07-20T12:43:19.0000000+00:00</time></trkpt><trkpt lat="64.32532501" lon="-20.12936783"><ele>217.3</ele><time>2012-07-20T12:43:24.0000000+00:00</time></trkpt><trkpt lat="64.32532501" lon="-20.12936783"><ele>217.3</ele><time>2012-07-20T12:43:29.0000000+00:00</time></trkpt><trkpt lat="64.32532501" lon="-20.12936783"><ele>217.3</ele><time>2012-07-20T12:43:34.0000000+00:00</time></trkpt><trkpt lat="64.32532501" lon="-20.12936783"><ele>217.4</ele><time>2012-07-20T12:43:39.0000000+00:00</time></trkpt><trkpt lat="64.32532501" lon="-20.12936974"><ele>217.4</ele><time>2012-07-20T12:43:44.0000000+00:00</time></trkpt><trkpt lat="64.32532501" lon="-20.12936974"><ele>217.4</ele><time>2012-07-20T12:43:49.0000000+00:00</time></trkpt><trkpt lat="64.32532501" lon="-20.12936974"><ele>217.5</ele><time>2012-07-20T12:43:54.0000000+00:00</time></trkpt><trkpt lat="64.32532501" lon="-20.12937164"><ele>217.5</ele><time>2012-07-20T12:43:59.0000000+00:00</time></trkpt><trkpt lat="64.32532501" lon="-20.12937164"><ele>217.5</ele><time>2012-07-20T12:44:04.0000000+00:00</time></trkpt><trkpt lat="64.32532501" lon="-20.12937355"><ele>217.5</ele><time>2012-07-20T12:44:09.0000000+00:00</time></trkpt><trkpt lat="64.32532501" lon="-20.12937546"><ele>217.6</ele><time>2012-07-20T12:44:14.0000000+00:00</time></trkpt><trkpt lat="64.32531738" lon="-20.12937546"><ele>217.6</ele><time>2012-07-20T12:44:19.0000000+00:00</time></trkpt><trkpt lat="64.32531738" lon="-20.12937737"><ele>217.6</ele><time>2012-07-20T12:44:24.0000000+00:00</time></trkpt><trkpt lat="64.32531738" lon="-20.12937927"><ele>217.6</ele><time>2012-07-20T12:44:29.0000000+00:00</time></trkpt><trkpt lat="64.32531738" lon="-20.12938118"><ele>217.6</ele><time>2012-07-20T12:44:34.0000000+00:00</time></trkpt><trkpt lat="64.32531738" lon="-20.12938118"><ele>217.6</ele><time>2012-07-20T12:44:39.0000000+00:00</time></trkpt><trkpt lat="64.32531738" lon="-20.12938118"><ele>217.7</ele><time>2012-07-20T12:44:44.0000000+00:00</time></trkpt><trkpt lat="64.32531738" lon="-20.12938309"><ele>217.7</ele><time>2012-07-20T12:44:49.0000000+00:00</time></trkpt><trkpt lat="64.32531738" lon="-20.12938309"><ele>217.7</ele><time>2012-07-20T12:44:54.0000000+00:00</time></trkpt><trkpt lat="64.32531738" lon="-20.12938309"><ele>217.7</ele><time>2012-07-20T12:44:59.0000000+00:00</time></trkpt><trkpt lat="64.32531738" lon="-20.129385"><ele>217.7</ele><time>2012-07-20T12:45:04.0000000+00:00</time></trkpt><trkpt lat="64.32531738" lon="-20.1293869"><ele>217.8</ele><time>2012-07-20T12:45:09.0000000+00:00</time></trkpt><trkpt lat="64.32531738" lon="-20.12938881"><ele>217.8</ele><time>2012-07-20T12:45:14.0000000+00:00</time></trkpt><trkpt lat="64.32531738" lon="-20.12938881"><ele>217.9</ele><time>2012-07-20T12:45:19.0000000+00:00</time></trkpt><trkpt lat="64.32531738" lon="-20.12939072"><ele>218.0</ele><time>2012-07-20T12:45:24.0000000+00:00</time></trkpt><trkpt lat="64.32532501" lon="-20.12939262"><ele>218.0</ele><time>2012-07-20T12:45:29.0000000+00:00</time></trkpt><trkpt lat="64.32532501" lon="-20.12939262"><ele>218.1</ele><time>2012-07-20T12:45:34.0000000+00:00</time></trkpt><trkpt lat="64.32532501" lon="-20.12939453"><ele>218.1</ele><time>2012-07-20T12:45:39.0000000+00:00</time></trkpt><trkpt lat="64.32532501" lon="-20.12939644"><ele>218.1</ele><time>2012-07-20T12:45:44.0000000+00:00</time></trkpt><trkpt lat="64.32532501" lon="-20.12939644"><ele>218.2</ele><time>2012-07-20T12:45:49.0000000+00:00</time></trkpt><trkpt lat="64.32532501" lon="-20.12939835"><ele>218.2</ele><time>2012-07-20T12:45:54.0000000+00:00</time></trkpt><trkpt lat="64.32532501" lon="-20.12940025"><ele>218.2</ele><time>2012-07-20T12:45:59.0000000+00:00</time></trkpt><trkpt lat="64.32532501" lon="-20.12940216"><ele>218.3</ele><time>2012-07-20T12:46:04.0000000+00:00</time></trkpt><trkpt lat="64.32532501" lon="-20.12940407"><ele>218.3</ele><time>2012-07-20T12:46:09.0000000+00:00</time></trkpt><trkpt lat="64.32532501" lon="-20.12940407"><ele>218.3</ele><time>2012-07-20T12:46:14.0000000+00:00</time></trkpt><trkpt lat="64.32532501" lon="-20.12940598"><ele>218.3</ele><time>2012-07-20T12:46:19.0000000+00:00</time></trkpt><trkpt lat="64.32532501" lon="-20.12940788"><ele>218.3</ele><time>2012-07-20T12:46:24.0000000+00:00</time></trkpt><trkpt lat="64.32532501" lon="-20.12940979"><ele>218.3</ele><time>2012-07-20T12:46:29.0000000+00:00</time></trkpt><trkpt lat="64.32532501" lon="-20.12940979"><ele>218.4</ele><time>2012-07-20T12:46:34.0000000+00:00</time></trkpt><trkpt lat="64.32532501" lon="-20.12940979"><ele>218.4</ele><time>2012-07-20T12:46:39.0000000+00:00</time></trkpt><trkpt lat="64.32532501" lon="-20.12940979"><ele>218.4</ele><time>2012-07-20T12:46:44.0000000+00:00</time></trkpt><trkpt lat="64.32532501" lon="-20.1294117"><ele>218.4</ele><time>2012-07-20T12:46:49.0000000+00:00</time></trkpt><trkpt lat="64.32532501" lon="-20.1294117"><ele>218.4</ele><time>2012-07-20T12:46:54.0000000+00:00</time></trkpt><trkpt lat="64.32532501" lon="-20.1294117"><ele>218.4</ele><time>2012-07-20T12:46:59.0000000+00:00</time></trkpt><trkpt lat="64.32532501" lon="-20.1294117"><ele>218.4</ele><time>2012-07-20T12:47:04.0000000+00:00</time></trkpt><trkpt lat="64.32532501" lon="-20.1294117"><ele>218.4</ele><time>2012-07-20T12:47:09.0000000+00:00</time></trkpt><trkpt lat="64.32532501" lon="-20.1294117"><ele>218.4</ele><time>2012-07-20T12:47:14.0000000+00:00</time></trkpt><trkpt lat="64.32531738" lon="-20.1294117"><ele>218.4</ele><time>2012-07-20T12:47:19.0000000+00:00</time></trkpt><trkpt lat="64.32531738" lon="-20.12941361"><ele>218.4</ele><time>2012-07-20T12:47:24.0000000+00:00</time></trkpt><trkpt lat="64.32531738" lon="-20.12941361"><ele>218.4</ele><time>2012-07-20T12:47:29.0000000+00:00</time></trkpt><trkpt lat="64.32531738" lon="-20.12941361"><ele>218.4</ele><time>2012-07-20T12:47:34.0000000+00:00</time></trkpt><trkpt lat="64.32531738" lon="-20.12941361"><ele>218.4</ele><time>2012-07-20T12:47:39.0000000+00:00</time></trkpt><trkpt lat="64.32531738" lon="-20.12941361"><ele>218.3</ele><time>2012-07-20T12:47:44.0000000+00:00</time></trkpt><trkpt lat="64.32531738" lon="-20.12941361"><ele>218.3</ele><time>2012-07-20T12:47:49.0000000+00:00</time></trkpt><trkpt lat="64.32531738" lon="-20.12941361"><ele>218.4</ele><time>2012-07-20T12:47:54.0000000+00:00</time></trkpt><trkpt lat="64.32531738" lon="-20.12941361"><ele>218.4</ele><time>2012-07-20T12:47:59.0000000+00:00</time></trkpt><trkpt lat="64.32531738" lon="-20.12941361"><ele>218.4</ele><time>2012-07-20T12:48:04.0000000+00:00</time></trkpt><trkpt lat="64.32531738" lon="-20.12941361"><ele>218.4</ele><time>2012-07-20T12:48:09.0000000+00:00</time></trkpt><trkpt lat="64.32531738" lon="-20.12941361"><ele>218.4</ele><time>2012-07-20T12:48:14.0000000+00:00</time></trkpt><trkpt lat="64.32531738" lon="-20.1294117"><ele>218.4</ele><time>2012-07-20T12:48:19.0000000+00:00</time></trkpt><trkpt lat="64.32531738" lon="-20.1294117"><ele>218.4</ele><time>2012-07-20T12:48:24.0000000+00:00</time></trkpt><trkpt lat="64.32531738" lon="-20.1294117"><ele>218.5</ele><time>2012-07-20T12:48:29.0000000+00:00</time></trkpt><trkpt lat="64.32531738" lon="-20.1294117"><ele>218.5</ele><time>2012-07-20T12:48:34.0000000+00:00</time></trkpt><trkpt lat="64.32531738" lon="-20.1294117"><ele>218.5</ele><time>2012-07-20T12:48:39.0000000+00:00</time></trkpt><trkpt lat="64.32531738" lon="-20.1294117"><ele>218.5</ele><time>2012-07-20T12:48:44.0000000+00:00</time></trkpt><trkpt lat="64.32531738" lon="-20.1294117"><ele>218.4</ele><time>2012-07-20T12:48:49.0000000+00:00</time></trkpt><trkpt lat="64.32531738" lon="-20.1294117"><ele>218.4</ele><time>2012-07-20T12:48:54.0000000+00:00</time></trkpt><trkpt lat="64.32531738" lon="-20.1294117"><ele>218.4</ele><time>2012-07-20T12:48:59.0000000+00:00</time></trkpt><trkpt lat="64.32531738" lon="-20.1294117"><ele>218.4</ele><time>2012-07-20T12:49:04.0000000+00:00</time></trkpt><trkpt lat="64.32531738" lon="-20.1294117"><ele>218.4</ele><time>2012-07-20T12:49:09.0000000+00:00</time></trkpt><trkpt lat="64.32531738" lon="-20.1294117"><ele>218.4</ele><time>2012-07-20T12:49:14.0000000+00:00</time></trkpt><trkpt lat="64.32532501" lon="-20.1294117"><ele>218.5</ele><time>2012-07-20T12:49:19.0000000+00:00</time></trkpt><trkpt lat="64.32532501" lon="-20.1294117"><ele>218.5</ele><time>2012-07-20T12:49:24.0000000+00:00</time></trkpt><trkpt lat="64.32532501" lon="-20.1294117"><ele>218.5</ele><time>2012-07-20T12:49:29.0000000+00:00</time></trkpt><trkpt lat="64.32532501" lon="-20.1294117"><ele>218.5</ele><time>2012-07-20T12:49:34.0000000+00:00</time></trkpt><trkpt lat="64.32532501" lon="-20.1294117"><ele>218.5</ele><time>2012-07-20T12:49:39.0000000+00:00</time></trkpt><trkpt lat="64.32532501" lon="-20.1294117"><ele>218.5</ele><time>2012-07-20T12:49:44.0000000+00:00</time></trkpt><trkpt lat="64.32532501" lon="-20.1294117"><ele>218.5</ele><time>2012-07-20T12:49:49.0000000+00:00</time></trkpt><trkpt lat="64.32532501" lon="-20.1294117"><ele>218.5</ele><time>2012-07-20T12:49:54.0000000+00:00</time></trkpt><trkpt lat="64.32532501" lon="-20.1294117"><ele>218.5</ele><time>2012-07-20T12:49:59.0000000+00:00</time></trkpt><trkpt lat="64.32532501" lon="-20.1294117"><ele>218.5</ele><time>2012-07-20T12:50:04.0000000+00:00</time></trkpt><trkpt lat="64.32532501" lon="-20.1294117"><ele>218.5</ele><time>2012-07-20T12:50:09.0000000+00:00</time></trkpt><trkpt lat="64.32532501" lon="-20.1294117"><ele>218.5</ele><time>2012-07-20T12:50:14.0000000+00:00</time></trkpt><trkpt lat="64.32532501" lon="-20.1294117"><ele>218.5</ele><time>2012-07-20T12:50:19.0000000+00:00</time></trkpt><trkpt lat="64.32532501" lon="-20.12940979"><ele>218.5</ele><time>2012-07-20T12:50:24.0000000+00:00</time></trkpt><trkpt lat="64.32532501" lon="-20.12940979"><ele>218.5</ele><time>2012-07-20T12:50:29.0000000+00:00</time></trkpt><trkpt lat="64.32532501" lon="-20.12940979"><ele>218.5</ele><time>2012-07-20T12:50:34.0000000+00:00</time></trkpt><trkpt lat="64.32532501" lon="-20.12940979"><ele>218.5</ele><time>2012-07-20T12:50:39.0000000+00:00</time></trkpt><trkpt lat="64.32532501" lon="-20.12940979"><ele>218.5</ele><time>2012-07-20T12:50:44.0000000+00:00</time></trkpt><trkpt lat="64.32532501" lon="-20.12940979"><ele>218.5</ele><time>2012-07-20T12:50:49.0000000+00:00</time></trkpt><trkpt lat="64.32532501" lon="-20.12940979"><ele>218.5</ele><time>2012-07-20T12:50:54.0000000+00:00</time></trkpt><trkpt lat="64.32532501" lon="-20.12940979"><ele>218.5</ele><time>2012-07-20T12:50:59.0000000+00:00</time></trkpt><trkpt lat="64.32532501" lon="-20.12940979"><ele>218.5</ele><time>2012-07-20T12:51:04.0000000+00:00</time></trkpt><trkpt lat="64.32532501" lon="-20.12940979"><ele>218.5</ele><time>2012-07-20T12:51:09.0000000+00:00</time></trkpt><trkpt lat="64.32532501" lon="-20.12940979"><ele>218.5</ele><time>2012-07-20T12:51:14.0000000+00:00</time></trkpt><trkpt lat="64.32532501" lon="-20.12940788"><ele>218.5</ele><time>2012-07-20T12:51:19.0000000+00:00</time></trkpt><trkpt lat="64.32532501" lon="-20.12940788"><ele>218.5</ele><time>2012-07-20T12:51:24.0000000+00:00</time></trkpt><trkpt lat="64.32532501" lon="-20.12940788"><ele>218.5</ele><time>2012-07-20T12:51:29.0000000+00:00</time></trkpt><trkpt lat="64.32532501" lon="-20.12940788"><ele>218.5</ele><time>2012-07-20T12:51:34.0000000+00:00</time></trkpt><trkpt lat="64.32532501" lon="-20.12940979"><ele>218.6</ele><time>2012-07-20T12:51:39.0000000+00:00</time></trkpt><trkpt lat="64.32532501" lon="-20.12940979"><ele>218.6</ele><time>2012-07-20T12:51:44.0000000+00:00</time></trkpt><trkpt lat="64.32532501" lon="-20.12940979"><ele>218.6</ele><time>2012-07-20T12:51:49.0000000+00:00</time></trkpt><trkpt lat="64.32532501" lon="-20.12940979"><ele>218.6</ele><time>2012-07-20T12:51:54.0000000+00:00</time></trkpt><trkpt lat="64.32532501" lon="-20.12940407"><ele>218.7</ele><time>2012-07-20T12:51:59.0000000+00:00</time></trkpt><trkpt lat="64.32533264" lon="-20.12939644"><ele>218.7</ele><time>2012-07-20T12:52:04.0000000+00:00</time></trkpt><trkpt lat="64.32533264" lon="-20.12938881"><ele>218.8</ele><time>2012-07-20T12:52:09.0000000+00:00</time></trkpt><trkpt lat="64.32533264" lon="-20.12937546"><ele>218.9</ele><time>2012-07-20T12:52:14.0000000+00:00</time></trkpt><trkpt lat="64.32534027" lon="-20.1293602"><ele>219.1</ele><time>2012-07-20T12:52:19.0000000+00:00</time></trkpt><trkpt lat="64.32534027" lon="-20.12934303"><ele>219.2</ele><time>2012-07-20T12:52:24.0000000+00:00</time></trkpt><trkpt lat="64.3253479" lon="-20.12932396"><ele>219.3</ele><time>2012-07-20T12:52:29.0000000+00:00</time></trkpt><trkpt lat="64.3253479" lon="-20.1293087"><ele>219.5</ele><time>2012-07-20T12:52:34.0000000+00:00</time></trkpt><trkpt lat="64.32535553" lon="-20.12929153"><ele>219.7</ele><time>2012-07-20T12:52:39.0000000+00:00</time></trkpt><trkpt lat="64.32535553" lon="-20.12927055"><ele>219.8</ele><time>2012-07-20T12:52:44.0000000+00:00</time></trkpt><trkpt lat="64.32536316" lon="-20.12924957"><ele>219.8</ele><time>2012-07-20T12:52:49.0000000+00:00</time></trkpt><trkpt lat="64.32536316" lon="-20.12922859"><ele>219.8</ele><time>2012-07-20T12:52:54.0000000+00:00</time></trkpt><trkpt lat="64.32537079" lon="-20.12921143"><ele>219.8</ele><time>2012-07-20T12:52:59.0000000+00:00</time></trkpt><trkpt lat="64.32537079" lon="-20.12919426"><ele>219.7</ele><time>2012-07-20T12:53:04.0000000+00:00</time></trkpt><trkpt lat="64.32537842" lon="-20.12918282"><ele>219.6</ele><time>2012-07-20T12:53:09.0000000+00:00</time></trkpt><trkpt lat="64.32537842" lon="-20.12918663"><ele>219.5</ele><time>2012-07-20T12:53:14.0000000+00:00</time></trkpt><trkpt lat="64.32537079" lon="-20.12919807"><ele>219.5</ele><time>2012-07-20T12:53:19.0000000+00:00</time></trkpt><trkpt lat="64.32537079" lon="-20.12921143"><ele>219.5</ele><time>2012-07-20T12:53:24.0000000+00:00</time></trkpt><trkpt lat="64.32536316" lon="-20.12922859"><ele>219.4</ele><time>2012-07-20T12:53:29.0000000+00:00</time></trkpt><trkpt lat="64.32536316" lon="-20.12925148"><ele>219.3</ele><time>2012-07-20T12:53:34.0000000+00:00</time></trkpt><trkpt lat="64.32535553" lon="-20.12926865"><ele>219.3</ele><time>2012-07-20T12:53:39.0000000+00:00</time></trkpt><trkpt lat="64.32535553" lon="-20.12928772"><ele>219.1</ele><time>2012-07-20T12:53:44.0000000+00:00</time></trkpt><trkpt lat="64.3253479" lon="-20.12930298"><ele>219.0</ele><time>2012-07-20T12:53:49.0000000+00:00</time></trkpt><trkpt lat="64.3253479" lon="-20.12931442"><ele>218.9</ele><time>2012-07-20T12:53:54.0000000+00:00</time></trkpt><trkpt lat="64.3253479" lon="-20.12932777"><ele>218.8</ele><time>2012-07-20T12:53:59.0000000+00:00</time></trkpt><trkpt lat="64.32534027" lon="-20.12934113"><ele>218.7</ele><time>2012-07-20T12:54:04.0000000+00:00</time></trkpt><trkpt lat="64.32534027" lon="-20.12935448"><ele>218.6</ele><time>2012-07-20T12:54:09.0000000+00:00</time></trkpt><trkpt lat="64.32533264" lon="-20.12936592"><ele>218.5</ele><time>2012-07-20T12:54:14.0000000+00:00</time></trkpt><trkpt lat="64.32533264" lon="-20.12937927"><ele>218.4</ele><time>2012-07-20T12:54:19.0000000+00:00</time></trkpt><trkpt lat="64.32533264" lon="-20.12938881"><ele>218.2</ele><time>2012-07-20T12:54:24.0000000+00:00</time></trkpt><trkpt lat="64.32532501" lon="-20.12940216"><ele>218.1</ele><time>2012-07-20T12:54:29.0000000+00:00</time></trkpt><trkpt lat="64.32532501" lon="-20.1294117"><ele>218.0</ele><time>2012-07-20T12:54:34.0000000+00:00</time></trkpt><trkpt lat="64.32532501" lon="-20.12941933"><ele>217.8</ele><time>2012-07-20T12:54:39.0000000+00:00</time></trkpt><trkpt lat="64.32532501" lon="-20.12942123"><ele>217.6</ele><time>2012-07-20T12:54:44.0000000+00:00</time></trkpt><trkpt lat="64.32532501" lon="-20.12941933"><ele>217.5</ele><time>2012-07-20T12:54:49.0000000+00:00</time></trkpt><trkpt lat="64.32532501" lon="-20.12941361"><ele>217.4</ele><time>2012-07-20T12:54:54.0000000+00:00</time></trkpt><trkpt lat="64.32532501" lon="-20.1294117"><ele>217.5</ele><time>2012-07-20T12:54:59.0000000+00:00</time></trkpt><trkpt lat="64.32532501" lon="-20.1294117"><ele>217.6</ele><time>2012-07-20T12:55:04.0000000+00:00</time></trkpt><trkpt lat="64.32532501" lon="-20.12941551"><ele>217.7</ele><time>2012-07-20T12:55:09.0000000+00:00</time></trkpt><trkpt lat="64.32532501" lon="-20.12941742"><ele>217.9</ele><time>2012-07-20T12:55:14.0000000+00:00</time></trkpt><trkpt lat="64.32533264" lon="-20.12941361"><ele>217.9</ele><time>2012-07-20T12:55:19.0000000+00:00</time></trkpt><trkpt lat="64.32533264" lon="-20.12940788"><ele>217.9</ele><time>2012-07-20T12:55:24.0000000+00:00</time></trkpt><trkpt lat="64.32533264" lon="-20.12940407"><ele>218.0</ele><time>2012-07-20T12:55:29.0000000+00:00</time></trkpt><trkpt lat="64.32533264" lon="-20.12940025"><ele>218.0</ele><time>2012-07-20T12:55:34.0000000+00:00</time></trkpt><trkpt lat="64.32533264" lon="-20.12940025"><ele>218.1</ele><time>2012-07-20T12:55:39.0000000+00:00</time></trkpt><trkpt lat="64.32533264" lon="-20.12940025"><ele>218.1</ele><time>2012-07-20T12:55:44.0000000+00:00</time></trkpt><trkpt lat="64.32533264" lon="-20.12940025"><ele>218.1</ele><time>2012-07-20T12:55:49.0000000+00:00</time></trkpt><trkpt lat="64.32533264" lon="-20.12940025"><ele>218.3</ele><time>2012-07-20T12:55:54.0000000+00:00</time></trkpt><trkpt lat="64.32533264" lon="-20.12939644"><ele>218.4</ele><time>2012-07-20T12:55:59.0000000+00:00</time></trkpt><trkpt lat="64.32533264" lon="-20.12939453"><ele>218.4</ele><time>2012-07-20T12:56:04.0000000+00:00</time></trkpt><trkpt lat="64.32533264" lon="-20.12939453"><ele>218.4</ele><time>2012-07-20T12:56:09.0000000+00:00</time></trkpt><trkpt lat="64.32533264" lon="-20.12939262"><ele>218.5</ele><time>2012-07-20T12:56:14.0000000+00:00</time></trkpt><trkpt lat="64.32533264" lon="-20.12939262"><ele>218.5</ele><time>2012-07-20T12:56:19.0000000+00:00</time></trkpt><trkpt lat="64.32533264" lon="-20.12939262"><ele>218.6</ele><time>2012-07-20T12:56:24.0000000+00:00</time></trkpt><trkpt lat="64.32533264" lon="-20.12939262"><ele>218.6</ele><time>2012-07-20T12:56:29.0000000+00:00</time></trkpt><trkpt lat="64.32533264" lon="-20.12939072"><ele>218.6</ele><time>2012-07-20T12:56:34.0000000+00:00</time></trkpt><trkpt lat="64.32533264" lon="-20.12939072"><ele>218.7</ele><time>2012-07-20T12:56:39.0000000+00:00</time></trkpt><trkpt lat="64.32533264" lon="-20.12939072"><ele>218.7</ele><time>2012-07-20T12:56:44.0000000+00:00</time></trkpt><trkpt lat="64.32533264" lon="-20.12939072"><ele>218.8</ele><time>2012-07-20T12:56:49.0000000+00:00</time></trkpt><trkpt lat="64.32533264" lon="-20.12939072"><ele>218.8</ele><time>2012-07-20T12:56:54.0000000+00:00</time></trkpt><trkpt lat="64.32533264" lon="-20.12939072"><ele>218.8</ele><time>2012-07-20T12:56:59.0000000+00:00</time></trkpt><trkpt lat="64.32533264" lon="-20.12938881"><ele>218.9</ele><time>2012-07-20T12:57:04.0000000+00:00</time></trkpt><trkpt lat="64.32533264" lon="-20.12938881"><ele>218.9</ele><time>2012-07-20T12:57:09.0000000+00:00</time></trkpt><trkpt lat="64.32533264" lon="-20.12938881"><ele>218.9</ele><time>2012-07-20T12:57:14.0000000+00:00</time></trkpt><trkpt lat="64.32533264" lon="-20.12938881"><ele>218.9</ele><time>2012-07-20T12:57:19.0000000+00:00</time></trkpt><trkpt lat="64.32533264" lon="-20.12938881"><ele>218.9</ele><time>2012-07-20T12:57:24.0000000+00:00</time></trkpt><trkpt lat="64.32533264" lon="-20.12938881"><ele>219.0</ele><time>2012-07-20T12:57:29.0000000+00:00</time></trkpt><trkpt lat="64.32534027" lon="-20.12938881"><ele>219.0</ele><time>2012-07-20T12:57:34.0000000+00:00</time></trkpt><trkpt lat="64.32534027" lon="-20.12938881"><ele>219.0</ele><time>2012-07-20T12:57:39.0000000+00:00</time></trkpt><trkpt lat="64.32534027" lon="-20.12938881"><ele>219.0</ele><time>2012-07-20T12:57:44.0000000+00:00</time></trkpt><trkpt lat="64.32534027" lon="-20.12938881"><ele>219.0</ele><time>2012-07-20T12:57:49.0000000+00:00</time></trkpt><trkpt lat="64.32534027" lon="-20.1293869"><ele>219.1</ele><time>2012-07-20T12:57:54.0000000+00:00</time></trkpt><trkpt lat="64.32534027" lon="-20.12938881"><ele>219.1</ele><time>2012-07-20T12:57:59.0000000+00:00</time></trkpt><trkpt lat="64.32534027" lon="-20.12938881"><ele>219.1</ele><time>2012-07-20T12:58:04.0000000+00:00</time></trkpt><trkpt lat="64.32534027" lon="-20.1293869"><ele>219.1</ele><time>2012-07-20T12:58:09.0000000+00:00</time></trkpt><trkpt lat="64.32534027" lon="-20.1293869"><ele>219.1</ele><time>2012-07-20T12:58:14.0000000+00:00</time></trkpt><trkpt lat="64.32534027" lon="-20.1293869"><ele>219.1</ele><time>2012-07-20T12:58:19.0000000+00:00</time></trkpt><trkpt lat="64.32534027" lon="-20.1293869"><ele>219.2</ele><time>2012-07-20T12:58:24.0000000+00:00</time></trkpt><trkpt lat="64.32534027" lon="-20.1293869"><ele>219.2</ele><time>2012-07-20T12:58:29.0000000+00:00</time></trkpt><trkpt lat="64.32534027" lon="-20.1293869"><ele>219.2</ele><time>2012-07-20T12:58:34.0000000+00:00</time></trkpt><trkpt lat="64.32534027" lon="-20.1293869"><ele>219.2</ele><time>2012-07-20T12:58:39.0000000+00:00</time></trkpt><trkpt lat="64.32534027" lon="-20.1293869"><ele>219.3</ele><time>2012-07-20T12:58:44.0000000+00:00</time></trkpt><trkpt lat="64.32534027" lon="-20.1293869"><ele>219.3</ele><time>2012-07-20T12:58:49.0000000+00:00</time></trkpt><trkpt lat="64.32534027" lon="-20.1293869"><ele>219.3</ele><time>2012-07-20T12:58:54.0000000+00:00</time></trkpt><trkpt lat="64.32534027" lon="-20.1293869"><ele>219.3</ele><time>2012-07-20T12:58:59.0000000+00:00</time></trkpt><trkpt lat="64.32534027" lon="-20.1293869"><ele>219.4</ele><time>2012-07-20T12:59:04.0000000+00:00</time></trkpt><trkpt lat="64.32534027" lon="-20.129385"><ele>219.4</ele><time>2012-07-20T12:59:09.0000000+00:00</time></trkpt><trkpt lat="64.32534027" lon="-20.129385"><ele>219.4</ele><time>2012-07-20T12:59:14.0000000+00:00</time></trkpt><trkpt lat="64.32534027" lon="-20.129385"><ele>219.5</ele><time>2012-07-20T12:59:19.0000000+00:00</time></trkpt><trkpt lat="64.32534027" lon="-20.12938309"><ele>219.4</ele><time>2012-07-20T12:59:24.0000000+00:00</time></trkpt><trkpt lat="64.32534027" lon="-20.12938309"><ele>219.3</ele><time>2012-07-20T12:59:29.0000000+00:00</time></trkpt><trkpt lat="64.32534027" lon="-20.12938309"><ele>219.1</ele><time>2012-07-20T12:59:34.0000000+00:00</time></trkpt><trkpt lat="64.32534027" lon="-20.12938309"><ele>218.8</ele><time>2012-07-20T12:59:39.0000000+00:00</time></trkpt><trkpt lat="64.32534027" lon="-20.129385"><ele>218.6</ele><time>2012-07-20T12:59:44.0000000+00:00</time></trkpt><trkpt lat="64.32534027" lon="-20.129385"><ele>218.6</ele><time>2012-07-20T12:59:49.0000000+00:00</time></trkpt><trkpt lat="64.32534027" lon="-20.129385"><ele>218.6</ele><time>2012-07-20T12:59:54.0000000+00:00</time></trkpt><trkpt lat="64.32534027" lon="-20.129385"><ele>218.6</ele><time>2012-07-20T12:59:59.0000000+00:00</time></trkpt><trkpt lat="64.32534027" lon="-20.129385"><ele>218.6</ele><time>2012-07-20T13:00:04.0000000+00:00</time></trkpt><trkpt lat="64.32534027" lon="-20.129385"><ele>218.7</ele><time>2012-07-20T13:00:09.0000000+00:00</time></trkpt><trkpt lat="64.32534027" lon="-20.129385"><ele>218.7</ele><time>2012-07-20T13:00:14.0000000+00:00</time></trkpt><trkpt lat="64.32534027" lon="-20.129385"><ele>218.7</ele><time>2012-07-20T13:00:19.0000000+00:00</time></trkpt><trkpt lat="64.32534027" lon="-20.129385"><ele>218.7</ele><time>2012-07-20T13:00:24.0000000+00:00</time></trkpt><trkpt lat="64.32534027" lon="-20.129385"><ele>218.7</ele><time>2012-07-20T13:00:29.0000000+00:00</time></trkpt><trkpt lat="64.32534027" lon="-20.129385"><ele>218.7</ele><time>2012-07-20T13:00:34.0000000+00:00</time></trkpt><trkpt lat="64.32534027" lon="-20.129385"><ele>218.8</ele><time>2012-07-20T13:00:39.0000000+00:00</time></trkpt><trkpt lat="64.32534027" lon="-20.129385"><ele>218.9</ele><time>2012-07-20T13:00:44.0000000+00:00</time></trkpt><trkpt lat="64.32534027" lon="-20.129385"><ele>218.9</ele><time>2012-07-20T13:00:49.0000000+00:00</time></trkpt><trkpt lat="64.32534027" lon="-20.129385"><ele>218.9</ele><time>2012-07-20T13:00:54.0000000+00:00</time></trkpt><trkpt lat="64.32534027" lon="-20.129385"><ele>219.0</ele><time>2012-07-20T13:00:59.0000000+00:00</time></trkpt><trkpt lat="64.32534027" lon="-20.129385"><ele>219.0</ele><time>2012-07-20T13:01:04.0000000+00:00</time></trkpt><trkpt lat="64.32534027" lon="-20.129385"><ele>219.0</ele><time>2012-07-20T13:01:09.0000000+00:00</time></trkpt><trkpt lat="64.32534027" lon="-20.12938309"><ele>219.1</ele><time>2012-07-20T13:01:14.0000000+00:00</time></trkpt><trkpt lat="64.32534027" lon="-20.12938118"><ele>219.2</ele><time>2012-07-20T13:01:19.0000000+00:00</time></trkpt><trkpt lat="64.32534027" lon="-20.12937927"><ele>219.3</ele><time>2012-07-20T13:01:24.0000000+00:00</time></trkpt><trkpt lat="64.32534027" lon="-20.12937927"><ele>219.4</ele><time>2012-07-20T13:01:29.0000000+00:00</time></trkpt><trkpt lat="64.32534027" lon="-20.12937927"><ele>219.5</ele><time>2012-07-20T13:01:34.0000000+00:00</time></trkpt><trkpt lat="64.32534027" lon="-20.12937927"><ele>219.5</ele><time>2012-07-20T13:01:39.0000000+00:00</time></trkpt><trkpt lat="64.32534027" lon="-20.12937927"><ele>219.6</ele><time>2012-07-20T13:01:44.0000000+00:00</time></trkpt><trkpt lat="64.32534027" lon="-20.12937927"><ele>219.6</ele><time>2012-07-20T13:01:49.0000000+00:00</time></trkpt><trkpt lat="64.32534027" lon="-20.12937927"><ele>219.7</ele><time>2012-07-20T13:01:54.0000000+00:00</time></trkpt><trkpt lat="64.32534027" lon="-20.12937927"><ele>219.8</ele><time>2012-07-20T13:01:59.0000000+00:00</time></trkpt><trkpt lat="64.32534027" lon="-20.12937927"><ele>219.9</ele><time>2012-07-20T13:02:04.0000000+00:00</time></trkpt><trkpt lat="64.32534027" lon="-20.12937927"><ele>220.0</ele><time>2012-07-20T13:02:09.0000000+00:00</time></trkpt><trkpt lat="64.32534027" lon="-20.12937927"><ele>220.1</ele><time>2012-07-20T13:02:14.0000000+00:00</time></trkpt><trkpt lat="64.32534027" lon="-20.12937927"><ele>220.1</ele><time>2012-07-20T13:02:19.0000000+00:00</time></trkpt><trkpt lat="64.32534027" lon="-20.12937927"><ele>220.2</ele><time>2012-07-20T13:02:24.0000000+00:00</time></trkpt><trkpt lat="64.32534027" lon="-20.12937927"><ele>220.3</ele><time>2012-07-20T13:02:29.0000000+00:00</time></trkpt><trkpt lat="64.32533264" lon="-20.12937927"><ele>220.3</ele><time>2012-07-20T13:02:34.0000000+00:00</time></trkpt><trkpt lat="64.32533264" lon="-20.12937927"><ele>220.4</ele><time>2012-07-20T13:02:39.0000000+00:00</time></trkpt><trkpt lat="64.32533264" lon="-20.12937927"><ele>220.4</ele><time>2012-07-20T13:02:44.0000000+00:00</time></trkpt><trkpt lat="64.32533264" lon="-20.12937737"><ele>220.5</ele><time>2012-07-20T13:02:49.0000000+00:00</time></trkpt><trkpt lat="64.32533264" lon="-20.12937737"><ele>220.6</ele><time>2012-07-20T13:02:54.0000000+00:00</time></trkpt><trkpt lat="64.32533264" lon="-20.12937737"><ele>220.6</ele><time>2012-07-20T13:02:59.0000000+00:00</time></trkpt><trkpt lat="64.32533264" lon="-20.12937737"><ele>220.6</ele><time>2012-07-20T13:03:04.0000000+00:00</time></trkpt><trkpt lat="64.32533264" lon="-20.12937546"><ele>220.7</ele><time>2012-07-20T13:03:09.0000000+00:00</time></trkpt><trkpt lat="64.32533264" lon="-20.12937546"><ele>220.7</ele><time>2012-07-20T13:03:14.0000000+00:00</time></trkpt><trkpt lat="64.32533264" lon="-20.12937546"><ele>220.7</ele><time>2012-07-20T13:03:19.0000000+00:00</time></trkpt><trkpt lat="64.32533264" lon="-20.12937546"><ele>220.8</ele><time>2012-07-20T13:03:24.0000000+00:00</time></trkpt><trkpt lat="64.32533264" lon="-20.12937546"><ele>220.8</ele><time>2012-07-20T13:03:29.0000000+00:00</time></trkpt><trkpt lat="64.32533264" lon="-20.12937355"><ele>220.8</ele><time>2012-07-20T13:03:34.0000000+00:00</time></trkpt><trkpt lat="64.32533264" lon="-20.12937546"><ele>220.9</ele><time>2012-07-20T13:03:39.0000000+00:00</time></trkpt><trkpt lat="64.32533264" lon="-20.12937546"><ele>221.0</ele><time>2012-07-20T13:03:44.0000000+00:00</time></trkpt><trkpt lat="64.32533264" lon="-20.12937546"><ele>221.0</ele><time>2012-07-20T13:03:49.0000000+00:00</time></trkpt><trkpt lat="64.32533264" lon="-20.12937546"><ele>221.1</ele><time>2012-07-20T13:03:54.0000000+00:00</time></trkpt><trkpt lat="64.32533264" lon="-20.12937546"><ele>221.1</ele><time>2012-07-20T13:03:59.0000000+00:00</time></trkpt><trkpt lat="64.32533264" lon="-20.12937546"><ele>221.1</ele><time>2012-07-20T13:04:04.0000000+00:00</time></trkpt><trkpt lat="64.32533264" lon="-20.12937546"><ele>221.2</ele><time>2012-07-20T13:04:09.0000000+00:00</time></trkpt><trkpt lat="64.32533264" lon="-20.12937355"><ele>221.4</ele><time>2012-07-20T13:04:14.0000000+00:00</time></trkpt><trkpt lat="64.32533264" lon="-20.12937355"><ele>221.6</ele><time>2012-07-20T13:04:19.0000000+00:00</time></trkpt><trkpt lat="64.32533264" lon="-20.12937355"><ele>221.9</ele><time>2012-07-20T13:04:24.0000000+00:00</time></trkpt><trkpt lat="64.32533264" lon="-20.12937355"><ele>222.3</ele><time>2012-07-20T13:04:29.0000000+00:00</time></trkpt><trkpt lat="64.32533264" lon="-20.12937164"><ele>222.7</ele><time>2012-07-20T13:04:34.0000000+00:00</time></trkpt><trkpt lat="64.32533264" lon="-20.12936974"><ele>223.3</ele><time>2012-07-20T13:04:39.0000000+00:00</time></trkpt><trkpt lat="64.32533264" lon="-20.12936974"><ele>223.9</ele><time>2012-07-20T13:04:44.0000000+00:00</time></trkpt><trkpt lat="64.32533264" lon="-20.12936592"><ele>224.7</ele><time>2012-07-20T13:04:49.0000000+00:00</time></trkpt><trkpt lat="64.32533264" lon="-20.12936211"><ele>225.7</ele><time>2012-07-20T13:04:54.0000000+00:00</time></trkpt><trkpt lat="64.32533264" lon="-20.12935638"><ele>226.9</ele><time>2012-07-20T13:04:59.0000000+00:00</time></trkpt><trkpt lat="64.32533264" lon="-20.12934494"><ele>228.2</ele><time>2012-07-20T13:05:04.0000000+00:00</time></trkpt><trkpt lat="64.32533264" lon="-20.12932587"><ele>229.8</ele><time>2012-07-20T13:05:09.0000000+00:00</time></trkpt><trkpt lat="64.32533264" lon="-20.12930298"><ele>231.5</ele><time>2012-07-20T13:05:14.0000000+00:00</time></trkpt><trkpt lat="64.32533264" lon="-20.12927818"><ele>233.4</ele><time>2012-07-20T13:05:19.0000000+00:00</time></trkpt><trkpt lat="64.32533264" lon="-20.12925148"><ele>235.4</ele><time>2012-07-20T13:05:24.0000000+00:00</time></trkpt><trkpt lat="64.32533264" lon="-20.12923241"><ele>239.6</ele><time>2012-07-20T13:05:29.0000000+00:00</time></trkpt><trkpt lat="64.32533264" lon="-20.1292057"><ele>241.7</ele><time>2012-07-20T13:05:34.0000000+00:00</time></trkpt><trkpt lat="64.32533264" lon="-20.12918091"><ele>243.8</ele><time>2012-07-20T13:05:39.0000000+00:00</time></trkpt><trkpt lat="64.32533264" lon="-20.12915993"><ele>245.8</ele><time>2012-07-20T13:05:44.0000000+00:00</time></trkpt><trkpt lat="64.32533264" lon="-20.12914848"><ele>247.6</ele><time>2012-07-20T13:05:49.0000000+00:00</time></trkpt><trkpt lat="64.32533264" lon="-20.12914085"><ele>249.2</ele><time>2012-07-20T13:05:54.0000000+00:00</time></trkpt><trkpt lat="64.32533264" lon="-20.12913132"><ele>250.6</ele><time>2012-07-20T13:05:59.0000000+00:00</time></trkpt><trkpt lat="64.32532501" lon="-20.1291275"><ele>251.6</ele><time>2012-07-20T13:06:04.0000000+00:00</time></trkpt><trkpt lat="64.32532501" lon="-20.12912369"><ele>252.4</ele><time>2012-07-20T13:06:09.0000000+00:00</time></trkpt><trkpt lat="64.32532501" lon="-20.12912178"><ele>253.2</ele><time>2012-07-20T13:06:14.0000000+00:00</time></trkpt><trkpt lat="64.32532501" lon="-20.12912178"><ele>254.0</ele><time>2012-07-20T13:06:19.0000000+00:00</time></trkpt><trkpt lat="64.32532501" lon="-20.1291256"><ele>254.7</ele><time>2012-07-20T13:06:24.0000000+00:00</time></trkpt><trkpt lat="64.32531738" lon="-20.12913322"><ele>255.2</ele><time>2012-07-20T13:06:29.0000000+00:00</time></trkpt><trkpt lat="64.32531738" lon="-20.12913513"><ele>255.5</ele><time>2012-07-20T13:06:34.0000000+00:00</time></trkpt><trkpt lat="64.32531738" lon="-20.12914467"><ele>255.5</ele><time>2012-07-20T13:06:39.0000000+00:00</time></trkpt><trkpt lat="64.32531738" lon="-20.12916756"><ele>255.5</ele><time>2012-07-20T13:06:44.0000000+00:00</time></trkpt><trkpt lat="64.32530975" lon="-20.12919235"><ele>255.2</ele><time>2012-07-20T13:06:49.0000000+00:00</time></trkpt><trkpt lat="64.32530975" lon="-20.12921524"><ele>254.7</ele><time>2012-07-20T13:06:54.0000000+00:00</time></trkpt><trkpt lat="64.32530212" lon="-20.12923241"><ele>253.8</ele><time>2012-07-20T13:06:59.0000000+00:00</time></trkpt><trkpt lat="64.32530212" lon="-20.1292572"><ele>252.6</ele><time>2012-07-20T13:07:04.0000000+00:00</time></trkpt><trkpt lat="64.32530212" lon="-20.129282"><ele>251.3</ele><time>2012-07-20T13:07:09.0000000+00:00</time></trkpt><trkpt lat="64.32530212" lon="-20.12929153"><ele>250.6</ele><time>2012-07-20T13:07:14.0000000+00:00</time></trkpt><trkpt lat="64.32530212" lon="-20.12929344"><ele>250.4</ele><time>2012-07-20T13:07:19.0000000+00:00</time></trkpt><trkpt lat="64.32530212" lon="-20.12929153"><ele>250.3</ele><time>2012-07-20T13:07:24.0000000+00:00</time></trkpt><trkpt lat="64.32530212" lon="-20.12929344"><ele>250.1</ele><time>2012-07-20T13:07:29.0000000+00:00</time></trkpt><trkpt lat="64.32530212" lon="-20.12929726"><ele>250.0</ele><time>2012-07-20T13:07:34.0000000+00:00</time></trkpt><trkpt lat="64.32530212" lon="-20.12929344"><ele>249.8</ele><time>2012-07-20T13:07:39.0000000+00:00</time></trkpt><trkpt lat="64.32530212" lon="-20.12929344"><ele>249.8</ele><time>2012-07-20T13:07:44.0000000+00:00</time></trkpt><trkpt lat="64.32530212" lon="-20.12929344"><ele>249.8</ele><time>2012-07-20T13:07:49.0000000+00:00</time></trkpt><trkpt lat="64.32530212" lon="-20.12929344"><ele>249.8</ele><time>2012-07-20T13:07:54.0000000+00:00</time></trkpt><trkpt lat="64.32530212" lon="-20.12929344"><ele>249.8</ele><time>2012-07-20T13:07:59.0000000+00:00</time></trkpt><trkpt lat="64.32530212" lon="-20.12929344"><ele>249.8</ele><time>2012-07-20T13:08:04.0000000+00:00</time></trkpt><trkpt lat="64.32530212" lon="-20.12929535"><ele>249.8</ele><time>2012-07-20T13:08:09.0000000+00:00</time></trkpt><trkpt lat="64.32530212" lon="-20.12929535"><ele>249.7</ele><time>2012-07-20T13:08:14.0000000+00:00</time></trkpt><trkpt lat="64.32530212" lon="-20.12929726"><ele>249.7</ele><time>2012-07-20T13:08:19.0000000+00:00</time></trkpt><trkpt lat="64.32530212" lon="-20.12929726"><ele>249.8</ele><time>2012-07-20T13:08:24.0000000+00:00</time></trkpt><trkpt lat="64.32530212" lon="-20.12929916"><ele>249.8</ele><time>2012-07-20T13:08:29.0000000+00:00</time></trkpt><trkpt lat="64.32530212" lon="-20.12929726"><ele>249.8</ele><time>2012-07-20T13:08:34.0000000+00:00</time></trkpt><trkpt lat="64.32530212" lon="-20.12929726"><ele>249.7</ele><time>2012-07-20T13:08:39.0000000+00:00</time></trkpt><trkpt lat="64.32530212" lon="-20.12929535"><ele>249.7</ele><time>2012-07-20T13:08:44.0000000+00:00</time></trkpt><trkpt lat="64.32530212" lon="-20.12929535"><ele>249.7</ele><time>2012-07-20T13:08:49.0000000+00:00</time></trkpt><trkpt lat="64.32530212" lon="-20.12929344"><ele>249.6</ele><time>2012-07-20T13:08:54.0000000+00:00</time></trkpt><trkpt lat="64.32530212" lon="-20.12929344"><ele>249.6</ele><time>2012-07-20T13:08:59.0000000+00:00</time></trkpt><trkpt lat="64.32530212" lon="-20.12929344"><ele>249.6</ele><time>2012-07-20T13:09:04.0000000+00:00</time></trkpt><trkpt lat="64.32530212" lon="-20.12929344"><ele>249.6</ele><time>2012-07-20T13:09:09.0000000+00:00</time></trkpt><trkpt lat="64.32530212" lon="-20.12929344"><ele>249.6</ele><time>2012-07-20T13:09:14.0000000+00:00</time></trkpt><trkpt lat="64.32530212" lon="-20.12929344"><ele>249.6</ele><time>2012-07-20T13:09:19.0000000+00:00</time></trkpt><trkpt lat="64.32530212" lon="-20.12929344"><ele>249.5</ele><time>2012-07-20T13:09:24.0000000+00:00</time></trkpt><trkpt lat="64.32530212" lon="-20.12929535"><ele>249.5</ele><time>2012-07-20T13:09:29.0000000+00:00</time></trkpt><trkpt lat="64.32530212" lon="-20.12929535"><ele>249.5</ele><time>2012-07-20T13:09:34.0000000+00:00</time></trkpt><trkpt lat="64.32530212" lon="-20.12929535"><ele>249.5</ele><time>2012-07-20T13:09:39.0000000+00:00</time></trkpt><trkpt lat="64.32530212" lon="-20.12929535"><ele>249.5</ele><time>2012-07-20T13:09:44.0000000+00:00</time></trkpt><trkpt lat="64.32530212" lon="-20.12929535"><ele>249.5</ele><time>2012-07-20T13:09:49.0000000+00:00</time></trkpt><trkpt lat="64.32530212" lon="-20.12929535"><ele>249.5</ele><time>2012-07-20T13:09:54.0000000+00:00</time></trkpt><trkpt lat="64.32530212" lon="-20.12929535"><ele>249.5</ele><time>2012-07-20T13:09:59.0000000+00:00</time></trkpt><trkpt lat="64.32530212" lon="-20.12929535"><ele>249.5</ele><time>2012-07-20T13:10:04.0000000+00:00</time></trkpt><trkpt lat="64.32530212" lon="-20.12929535"><ele>249.5</ele><time>2012-07-20T13:10:09.0000000+00:00</time></trkpt><trkpt lat="64.32530212" lon="-20.12929344"><ele>249.5</ele><time>2012-07-20T13:10:14.0000000+00:00</time></trkpt><trkpt lat="64.32530212" lon="-20.12929344"><ele>249.5</ele><time>2012-07-20T13:10:19.0000000+00:00</time></trkpt><trkpt lat="64.32530212" lon="-20.12929344"><ele>249.4</ele><time>2012-07-20T13:10:24.0000000+00:00</time></trkpt><trkpt lat="64.32530212" lon="-20.12929344"><ele>249.4</ele><time>2012-07-20T13:10:29.0000000+00:00</time></trkpt><trkpt lat="64.32530212" lon="-20.12929344"><ele>249.4</ele><time>2012-07-20T13:10:34.0000000+00:00</time></trkpt><trkpt lat="64.32530212" lon="-20.12929344"><ele>249.4</ele><time>2012-07-20T13:10:39.0000000+00:00</time></trkpt><trkpt lat="64.32530212" lon="-20.12929344"><ele>249.4</ele><time>2012-07-20T13:10:44.0000000+00:00</time></trkpt><trkpt lat="64.32530212" lon="-20.12929344"><ele>249.4</ele><time>2012-07-20T13:10:49.0000000+00:00</time></trkpt><trkpt lat="64.32530212" lon="-20.12929344"><ele>249.4</ele><time>2012-07-20T13:10:54.0000000+00:00</time></trkpt><trkpt lat="64.32530212" lon="-20.12929344"><ele>249.4</ele><time>2012-07-20T13:10:59.0000000+00:00</time></trkpt><trkpt lat="64.32530212" lon="-20.12929344"><ele>249.4</ele><time>2012-07-20T13:11:04.0000000+00:00</time></trkpt><trkpt lat="64.32530212" lon="-20.12929344"><ele>249.4</ele><time>2012-07-20T13:11:09.0000000+00:00</time></trkpt><trkpt lat="64.32530212" lon="-20.12929344"><ele>249.3</ele><time>2012-07-20T13:11:14.0000000+00:00</time></trkpt><trkpt lat="64.32530212" lon="-20.12929344"><ele>249.3</ele><time>2012-07-20T13:11:19.0000000+00:00</time></trkpt><trkpt lat="64.32530212" lon="-20.12929344"><ele>249.3</ele><time>2012-07-20T13:11:24.0000000+00:00</time></trkpt><trkpt lat="64.32530212" lon="-20.12929344"><ele>249.3</ele><time>2012-07-20T13:11:29.0000000+00:00</time></trkpt><trkpt lat="64.32530975" lon="-20.12929344"><ele>249.2</ele><time>2012-07-20T13:11:34.0000000+00:00</time></trkpt><trkpt lat="64.32530975" lon="-20.12929344"><ele>249.2</ele><time>2012-07-20T13:11:39.0000000+00:00</time></trkpt><trkpt lat="64.32530212" lon="-20.12929535"><ele>249.1</ele><time>2012-07-20T13:11:44.0000000+00:00</time></trkpt><trkpt lat="64.32530212" lon="-20.12929535"><ele>249.0</ele><time>2012-07-20T13:11:49.0000000+00:00</time></trkpt><trkpt lat="64.32530212" lon="-20.12929535"><ele>248.9</ele><time>2012-07-20T13:11:54.0000000+00:00</time></trkpt><trkpt lat="64.32530212" lon="-20.12929535"><ele>248.8</ele><time>2012-07-20T13:11:59.0000000+00:00</time></trkpt><trkpt lat="64.32530212" lon="-20.12929535"><ele>248.8</ele><time>2012-07-20T13:12:04.0000000+00:00</time></trkpt><trkpt lat="64.32530212" lon="-20.12929726"><ele>248.7</ele><time>2012-07-20T13:12:09.0000000+00:00</time></trkpt><trkpt lat="64.32530212" lon="-20.12929726"><ele>248.7</ele><time>2012-07-20T13:12:14.0000000+00:00</time></trkpt><trkpt lat="64.32530212" lon="-20.12929726"><ele>248.6</ele><time>2012-07-20T13:12:19.0000000+00:00</time></trkpt><trkpt lat="64.32530212" lon="-20.12929726"><ele>248.6</ele><time>2012-07-20T13:12:24.0000000+00:00</time></trkpt><trkpt lat="64.32530212" lon="-20.12929726"><ele>248.5</ele><time>2012-07-20T13:12:29.0000000+00:00</time></trkpt><trkpt lat="64.32530212" lon="-20.12929726"><ele>248.5</ele><time>2012-07-20T13:12:34.0000000+00:00</time></trkpt><trkpt lat="64.32530212" lon="-20.12929916"><ele>248.5</ele><time>2012-07-20T13:12:39.0000000+00:00</time></trkpt><trkpt lat="64.32530212" lon="-20.12929916"><ele>248.4</ele><time>2012-07-20T13:12:44.0000000+00:00</time></trkpt><trkpt lat="64.32530212" lon="-20.12929916"><ele>248.4</ele><time>2012-07-20T13:12:49.0000000+00:00</time></trkpt><trkpt lat="64.32530212" lon="-20.12929916"><ele>248.4</ele><time>2012-07-20T13:12:54.0000000+00:00</time></trkpt><trkpt lat="64.32530212" lon="-20.12929916"><ele>248.4</ele><time>2012-07-20T13:12:59.0000000+00:00</time></trkpt><trkpt lat="64.32530212" lon="-20.12930107"><ele>248.3</ele><time>2012-07-20T13:13:04.0000000+00:00</time></trkpt><trkpt lat="64.32530212" lon="-20.12930107"><ele>248.3</ele><time>2012-07-20T13:13:09.0000000+00:00</time></trkpt><trkpt lat="64.32530212" lon="-20.12930107"><ele>248.3</ele><time>2012-07-20T13:13:14.0000000+00:00</time></trkpt><trkpt lat="64.32530212" lon="-20.12930298"><ele>248.2</ele><time>2012-07-20T13:13:19.0000000+00:00</time></trkpt><trkpt lat="64.32530212" lon="-20.12930298"><ele>248.2</ele><time>2012-07-20T13:13:24.0000000+00:00</time></trkpt><trkpt lat="64.32530975" lon="-20.12930298"><ele>248.2</ele><time>2012-07-20T13:13:29.0000000+00:00</time></trkpt><trkpt lat="64.32530975" lon="-20.12930298"><ele>248.2</ele><time>2012-07-20T13:13:34.0000000+00:00</time></trkpt><trkpt lat="64.32530975" lon="-20.12930489"><ele>248.1</ele><time>2012-07-20T13:13:39.0000000+00:00</time></trkpt><trkpt lat="64.32530975" lon="-20.12930489"><ele>248.1</ele><time>2012-07-20T13:13:44.0000000+00:00</time></trkpt><trkpt lat="64.32530975" lon="-20.12930489"><ele>248.1</ele><time>2012-07-20T13:13:49.0000000+00:00</time></trkpt><trkpt lat="64.32530975" lon="-20.12930679"><ele>248.1</ele><time>2012-07-20T13:13:54.0000000+00:00</time></trkpt><trkpt lat="64.32530975" lon="-20.12930679"><ele>248.0</ele><time>2012-07-20T13:13:59.0000000+00:00</time></trkpt><trkpt lat="64.32530975" lon="-20.12930679"><ele>248.0</ele><time>2012-07-20T13:14:04.0000000+00:00</time></trkpt><trkpt lat="64.32530975" lon="-20.1293087"><ele>248.0</ele><time>2012-07-20T13:14:09.0000000+00:00</time></trkpt><trkpt lat="64.32530975" lon="-20.1293087"><ele>248.0</ele><time>2012-07-20T13:14:14.0000000+00:00</time></trkpt><trkpt lat="64.32530975" lon="-20.12931061"><ele>247.9</ele><time>2012-07-20T13:14:19.0000000+00:00</time></trkpt><trkpt lat="64.32530975" lon="-20.12931061"><ele>247.9</ele><time>2012-07-20T13:14:24.0000000+00:00</time></trkpt><trkpt lat="64.32530975" lon="-20.12931061"><ele>247.9</ele><time>2012-07-20T13:14:29.0000000+00:00</time></trkpt><trkpt lat="64.32530975" lon="-20.12931061"><ele>247.9</ele><time>2012-07-20T13:14:34.0000000+00:00</time></trkpt><trkpt lat="64.32530975" lon="-20.12931061"><ele>247.9</ele><time>2012-07-20T13:14:39.0000000+00:00</time></trkpt><trkpt lat="64.32530975" lon="-20.12931061"><ele>247.8</ele><time>2012-07-20T13:14:44.0000000+00:00</time></trkpt><trkpt lat="64.32530975" lon="-20.12931061"><ele>247.8</ele><time>2012-07-20T13:14:49.0000000+00:00</time></trkpt><trkpt lat="64.32530975" lon="-20.12931061"><ele>247.8</ele><time>2012-07-20T13:14:54.0000000+00:00</time></trkpt><trkpt lat="64.32530975" lon="-20.12931061"><ele>247.8</ele><time>2012-07-20T13:14:59.0000000+00:00</time></trkpt><trkpt lat="64.32530975" lon="-20.1293087"><ele>247.8</ele><time>2012-07-20T13:15:04.0000000+00:00</time></trkpt><trkpt lat="64.32530975" lon="-20.1293087"><ele>247.7</ele><time>2012-07-20T13:15:09.0000000+00:00</time></trkpt><trkpt lat="64.32530975" lon="-20.12931061"><ele>247.7</ele><time>2012-07-20T13:15:14.0000000+00:00</time></trkpt><trkpt lat="64.32530975" lon="-20.12931061"><ele>247.7</ele><time>2012-07-20T13:15:19.0000000+00:00</time></trkpt><trkpt lat="64.32530975" lon="-20.12931061"><ele>247.7</ele><time>2012-07-20T13:15:24.0000000+00:00</time></trkpt><trkpt lat="64.32530975" lon="-20.12931061"><ele>247.7</ele><time>2012-07-20T13:15:29.0000000+00:00</time></trkpt><trkpt lat="64.32530975" lon="-20.12931061"><ele>247.6</ele><time>2012-07-20T13:15:34.0000000+00:00</time></trkpt><trkpt lat="64.32530975" lon="-20.12931061"><ele>247.6</ele><time>2012-07-20T13:15:39.0000000+00:00</time></trkpt><trkpt lat="64.32530975" lon="-20.12931061"><ele>247.6</ele><time>2012-07-20T13:15:44.0000000+00:00</time></trkpt><trkpt lat="64.32530975" lon="-20.12931061"><ele>247.6</ele><time>2012-07-20T13:15:49.0000000+00:00</time></trkpt><trkpt lat="64.32530975" lon="-20.12931252"><ele>247.5</ele><time>2012-07-20T13:15:54.0000000+00:00</time></trkpt><trkpt lat="64.32530975" lon="-20.12931252"><ele>247.5</ele><time>2012-07-20T13:15:59.0000000+00:00</time></trkpt><trkpt lat="64.32530975" lon="-20.12931252"><ele>247.5</ele><time>2012-07-20T13:16:04.0000000+00:00</time></trkpt><trkpt lat="64.32530975" lon="-20.12931252"><ele>247.4</ele><time>2012-07-20T13:16:09.0000000+00:00</time></trkpt><trkpt lat="64.32530975" lon="-20.12931252"><ele>247.4</ele><time>2012-07-20T13:16:14.0000000+00:00</time></trkpt><trkpt lat="64.32530975" lon="-20.12931252"><ele>247.4</ele><time>2012-07-20T13:16:19.0000000+00:00</time></trkpt><trkpt lat="64.32530975" lon="-20.12931252"><ele>247.3</ele><time>2012-07-20T13:16:24.0000000+00:00</time></trkpt><trkpt lat="64.32530975" lon="-20.12931252"><ele>247.3</ele><time>2012-07-20T13:16:29.0000000+00:00</time></trkpt><trkpt lat="64.32530975" lon="-20.12931442"><ele>247.3</ele><time>2012-07-20T13:16:34.0000000+00:00</time></trkpt><trkpt lat="64.32530975" lon="-20.12931442"><ele>247.2</ele><time>2012-07-20T13:16:39.0000000+00:00</time></trkpt><trkpt lat="64.32530975" lon="-20.12931442"><ele>247.2</ele><time>2012-07-20T13:16:44.0000000+00:00</time></trkpt><trkpt lat="64.32530975" lon="-20.12931442"><ele>247.2</ele><time>2012-07-20T13:16:49.0000000+00:00</time></trkpt><trkpt lat="64.32530975" lon="-20.12931442"><ele>247.2</ele><time>2012-07-20T13:16:54.0000000+00:00</time></trkpt><trkpt lat="64.32530975" lon="-20.12931633"><ele>247.1</ele><time>2012-07-20T13:16:59.0000000+00:00</time></trkpt><trkpt lat="64.32530975" lon="-20.12931633"><ele>247.1</ele><time>2012-07-20T13:17:04.0000000+00:00</time></trkpt><trkpt lat="64.32530975" lon="-20.12931633"><ele>247.1</ele><time>2012-07-20T13:17:09.0000000+00:00</time></trkpt><trkpt lat="64.32530975" lon="-20.12931633"><ele>247.1</ele><time>2012-07-20T13:17:14.0000000+00:00</time></trkpt><trkpt lat="64.32530975" lon="-20.12931633"><ele>247.1</ele><time>2012-07-20T13:17:19.0000000+00:00</time></trkpt><trkpt lat="64.32530975" lon="-20.12931824"><ele>247.0</ele><time>2012-07-20T13:17:24.0000000+00:00</time></trkpt><trkpt lat="64.32530975" lon="-20.12931824"><ele>247.0</ele><time>2012-07-20T13:17:29.0000000+00:00</time></trkpt><trkpt lat="64.32530975" lon="-20.12931824"><ele>247.0</ele><time>2012-07-20T13:17:34.0000000+00:00</time></trkpt><trkpt lat="64.32530975" lon="-20.12931824"><ele>247.0</ele><time>2012-07-20T13:17:39.0000000+00:00</time></trkpt><trkpt lat="64.32530975" lon="-20.12932015"><ele>247.0</ele><time>2012-07-20T13:17:44.0000000+00:00</time></trkpt><trkpt lat="64.32530975" lon="-20.12932015"><ele>247.0</ele><time>2012-07-20T13:17:49.0000000+00:00</time></trkpt><trkpt lat="64.32530975" lon="-20.12932015"><ele>246.9</ele><time>2012-07-20T13:17:54.0000000+00:00</time></trkpt><trkpt lat="64.32530975" lon="-20.12932015"><ele>246.9</ele><time>2012-07-20T13:17:59.0000000+00:00</time></trkpt><trkpt lat="64.32530975" lon="-20.12932015"><ele>246.9</ele><time>2012-07-20T13:18:04.0000000+00:00</time></trkpt><trkpt lat="64.32530975" lon="-20.12932205"><ele>246.8</ele><time>2012-07-20T13:18:09.0000000+00:00</time></trkpt><trkpt lat="64.32530975" lon="-20.12932205"><ele>246.8</ele><time>2012-07-20T13:18:14.0000000+00:00</time></trkpt><trkpt lat="64.32530975" lon="-20.12932205"><ele>246.8</ele><time>2012-07-20T13:18:19.0000000+00:00</time></trkpt><trkpt lat="64.32530975" lon="-20.12932205"><ele>246.7</ele><time>2012-07-20T13:18:24.0000000+00:00</time></trkpt><trkpt lat="64.32530975" lon="-20.12932205"><ele>246.7</ele><time>2012-07-20T13:18:29.0000000+00:00</time></trkpt><trkpt lat="64.32530975" lon="-20.12932396"><ele>246.6</ele><time>2012-07-20T13:18:34.0000000+00:00</time></trkpt><trkpt lat="64.32530975" lon="-20.12932396"><ele>246.6</ele><time>2012-07-20T13:18:39.0000000+00:00</time></trkpt><trkpt lat="64.32530975" lon="-20.12932396"><ele>246.5</ele><time>2012-07-20T13:18:44.0000000+00:00</time></trkpt><trkpt lat="64.32530975" lon="-20.12932396"><ele>246.5</ele><time>2012-07-20T13:18:49.0000000+00:00</time></trkpt><trkpt lat="64.32530975" lon="-20.12932396"><ele>246.5</ele><time>2012-07-20T13:18:54.0000000+00:00</time></trkpt><trkpt lat="64.32530975" lon="-20.12932396"><ele>246.4</ele><time>2012-07-20T13:18:59.0000000+00:00</time></trkpt><trkpt lat="64.32530975" lon="-20.12932587"><ele>246.4</ele><time>2012-07-20T13:19:04.0000000+00:00</time></trkpt><trkpt lat="64.32530975" lon="-20.12932587"><ele>246.3</ele><time>2012-07-20T13:19:09.0000000+00:00</time></trkpt><trkpt lat="64.32530975" lon="-20.12932587"><ele>246.3</ele><time>2012-07-20T13:19:14.0000000+00:00</time></trkpt><trkpt lat="64.32530975" lon="-20.12932587"><ele>246.2</ele><time>2012-07-20T13:19:19.0000000+00:00</time></trkpt><trkpt lat="64.32530975" lon="-20.12932587"><ele>246.2</ele><time>2012-07-20T13:19:24.0000000+00:00</time></trkpt><trkpt lat="64.32530975" lon="-20.12932587"><ele>246.1</ele><time>2012-07-20T13:19:29.0000000+00:00</time></trkpt><trkpt lat="64.32530975" lon="-20.12932587"><ele>246.1</ele><time>2012-07-20T13:19:34.0000000+00:00</time></trkpt><trkpt lat="64.32530975" lon="-20.12932587"><ele>246.0</ele><time>2012-07-20T13:19:39.0000000+00:00</time></trkpt><trkpt lat="64.32530975" lon="-20.12932587"><ele>246.0</ele><time>2012-07-20T13:19:44.0000000+00:00</time></trkpt><trkpt lat="64.32530975" lon="-20.12932587"><ele>246.0</ele><time>2012-07-20T13:19:49.0000000+00:00</time></trkpt><trkpt lat="64.32530975" lon="-20.12932587"><ele>246.0</ele><time>2012-07-20T13:19:54.0000000+00:00</time></trkpt><trkpt lat="64.32530975" lon="-20.12932587"><ele>245.9</ele><time>2012-07-20T13:19:59.0000000+00:00</time></trkpt><trkpt lat="64.32531738" lon="-20.12932396"><ele>245.9</ele><time>2012-07-20T13:20:04.0000000+00:00</time></trkpt><trkpt lat="64.32531738" lon="-20.12932396"><ele>245.9</ele><time>2012-07-20T13:20:09.0000000+00:00</time></trkpt><trkpt lat="64.32531738" lon="-20.12932396"><ele>245.9</ele><time>2012-07-20T13:20:14.0000000+00:00</time></trkpt><trkpt lat="64.32531738" lon="-20.12932396"><ele>245.8</ele><time>2012-07-20T13:20:19.0000000+00:00</time></trkpt><trkpt lat="64.32531738" lon="-20.12932396"><ele>245.8</ele><time>2012-07-20T13:20:24.0000000+00:00</time></trkpt><trkpt lat="64.32531738" lon="-20.12932396"><ele>245.8</ele><time>2012-07-20T13:20:29.0000000+00:00</time></trkpt><trkpt lat="64.32531738" lon="-20.12932587"><ele>245.8</ele><time>2012-07-20T13:20:34.0000000+00:00</time></trkpt><trkpt lat="64.32531738" lon="-20.12932587"><ele>245.8</ele><time>2012-07-20T13:20:39.0000000+00:00</time></trkpt><trkpt lat="64.32531738" lon="-20.12932587"><ele>245.8</ele><time>2012-07-20T13:20:44.0000000+00:00</time></trkpt><trkpt lat="64.32531738" lon="-20.12932587"><ele>245.8</ele><time>2012-07-20T13:20:49.0000000+00:00</time></trkpt><trkpt lat="64.32531738" lon="-20.12932587"><ele>245.8</ele><time>2012-07-20T13:20:54.0000000+00:00</time></trkpt><trkpt lat="64.32531738" lon="-20.12932587"><ele>245.8</ele><time>2012-07-20T13:20:59.0000000+00:00</time></trkpt><trkpt lat="64.32531738" lon="-20.12932777"><ele>245.7</ele><time>2012-07-20T13:21:04.0000000+00:00</time></trkpt><trkpt lat="64.32531738" lon="-20.12932777"><ele>245.7</ele><time>2012-07-20T13:21:09.0000000+00:00</time></trkpt><trkpt lat="64.32531738" lon="-20.12932968"><ele>245.7</ele><time>2012-07-20T13:21:14.0000000+00:00</time></trkpt><trkpt lat="64.32531738" lon="-20.12932968"><ele>245.7</ele><time>2012-07-20T13:21:19.0000000+00:00</time></trkpt><trkpt lat="64.32531738" lon="-20.12933159"><ele>245.7</ele><time>2012-07-20T13:21:24.0000000+00:00</time></trkpt><trkpt lat="64.32531738" lon="-20.12933159"><ele>245.7</ele><time>2012-07-20T13:21:29.0000000+00:00</time></trkpt><trkpt lat="64.32531738" lon="-20.1293335"><ele>245.6</ele><time>2012-07-20T13:21:34.0000000+00:00</time></trkpt><trkpt lat="64.32531738" lon="-20.1293335"><ele>245.6</ele><time>2012-07-20T13:21:39.0000000+00:00</time></trkpt><trkpt lat="64.32531738" lon="-20.1293335"><ele>245.6</ele><time>2012-07-20T13:21:44.0000000+00:00</time></trkpt><trkpt lat="64.32531738" lon="-20.1293335"><ele>245.6</ele><time>2012-07-20T13:21:49.0000000+00:00</time></trkpt><trkpt lat="64.32531738" lon="-20.1293335"><ele>245.5</ele><time>2012-07-20T13:21:54.0000000+00:00</time></trkpt><trkpt lat="64.32531738" lon="-20.12933159"><ele>245.5</ele><time>2012-07-20T13:21:59.0000000+00:00</time></trkpt><trkpt lat="64.32531738" lon="-20.12933159"><ele>245.5</ele><time>2012-07-20T13:22:04.0000000+00:00</time></trkpt><trkpt lat="64.32531738" lon="-20.12933159"><ele>245.5</ele><time>2012-07-20T13:22:09.0000000+00:00</time></trkpt><trkpt lat="64.32531738" lon="-20.12933159"><ele>245.4</ele><time>2012-07-20T13:22:14.0000000+00:00</time></trkpt><trkpt lat="64.32531738" lon="-20.12933159"><ele>245.4</ele><time>2012-07-20T13:22:19.0000000+00:00</time></trkpt><trkpt lat="64.32531738" lon="-20.12933159"><ele>245.4</ele><time>2012-07-20T13:22:24.0000000+00:00</time></trkpt><trkpt lat="64.32531738" lon="-20.12933159"><ele>245.4</ele><time>2012-07-20T13:22:29.0000000+00:00</time></trkpt><trkpt lat="64.32531738" lon="-20.12933159"><ele>245.4</ele><time>2012-07-20T13:22:34.0000000+00:00</time></trkpt><trkpt lat="64.32531738" lon="-20.12933159"><ele>245.4</ele><time>2012-07-20T13:22:39.0000000+00:00</time></trkpt><trkpt lat="64.32531738" lon="-20.12933159"><ele>245.4</ele><time>2012-07-20T13:22:44.0000000+00:00</time></trkpt><trkpt lat="64.32531738" lon="-20.12933159"><ele>245.4</ele><time>2012-07-20T13:22:49.0000000+00:00</time></trkpt><trkpt lat="64.32531738" lon="-20.12933159"><ele>245.3</ele><time>2012-07-20T13:22:54.0000000+00:00</time></trkpt><trkpt lat="64.32531738" lon="-20.12933159"><ele>245.3</ele><time>2012-07-20T13:22:59.0000000+00:00</time></trkpt><trkpt lat="64.32531738" lon="-20.12933159"><ele>245.3</ele><time>2012-07-20T13:23:04.0000000+00:00</time></trkpt><trkpt lat="64.32531738" lon="-20.12933159"><ele>245.3</ele><time>2012-07-20T13:23:09.0000000+00:00</time></trkpt><trkpt lat="64.32531738" lon="-20.12933159"><ele>245.3</ele><time>2012-07-20T13:23:14.0000000+00:00</time></trkpt><trkpt lat="64.32531738" lon="-20.12933159"><ele>245.3</ele><time>2012-07-20T13:23:19.0000000+00:00</time></trkpt><trkpt lat="64.32531738" lon="-20.12933159"><ele>245.2</ele><time>2012-07-20T13:23:24.0000000+00:00</time></trkpt><trkpt lat="64.32531738" lon="-20.12933159"><ele>245.2</ele><time>2012-07-20T13:23:29.0000000+00:00</time></trkpt><trkpt lat="64.32531738" lon="-20.12933159"><ele>245.2</ele><time>2012-07-20T13:23:34.0000000+00:00</time></trkpt><trkpt lat="64.32531738" lon="-20.12932968"><ele>245.2</ele><time>2012-07-20T13:23:39.0000000+00:00</time></trkpt><trkpt lat="64.32531738" lon="-20.12932968"><ele>245.1</ele><time>2012-07-20T13:23:44.0000000+00:00</time></trkpt><trkpt lat="64.32531738" lon="-20.12932968"><ele>245.1</ele><time>2012-07-20T13:23:49.0000000+00:00</time></trkpt><trkpt lat="64.32531738" lon="-20.12932968"><ele>245.1</ele><time>2012-07-20T13:23:54.0000000+00:00</time></trkpt><trkpt lat="64.32531738" lon="-20.12932968"><ele>245.0</ele><time>2012-07-20T13:23:59.0000000+00:00</time></trkpt><trkpt lat="64.32531738" lon="-20.12932968"><ele>245.0</ele><time>2012-07-20T13:24:04.0000000+00:00</time></trkpt><trkpt lat="64.32531738" lon="-20.12932968"><ele>245.0</ele><time>2012-07-20T13:24:09.0000000+00:00</time></trkpt><trkpt lat="64.32531738" lon="-20.12932968"><ele>245.0</ele><time>2012-07-20T13:24:14.0000000+00:00</time></trkpt><trkpt lat="64.32531738" lon="-20.12932968"><ele>245.0</ele><time>2012-07-20T13:24:19.0000000+00:00</time></trkpt><trkpt lat="64.32531738" lon="-20.12932968"><ele>244.9</ele><time>2012-07-20T13:24:24.0000000+00:00</time></trkpt><trkpt lat="64.32531738" lon="-20.12932968"><ele>244.9</ele><time>2012-07-20T13:24:29.0000000+00:00</time></trkpt><trkpt lat="64.32531738" lon="-20.12932968"><ele>244.9</ele><time>2012-07-20T13:24:34.0000000+00:00</time></trkpt><trkpt lat="64.32531738" lon="-20.12932968"><ele>244.8</ele><time>2012-07-20T13:24:39.0000000+00:00</time></trkpt><trkpt lat="64.32531738" lon="-20.12932968"><ele>244.8</ele><time>2012-07-20T13:24:44.0000000+00:00</time></trkpt><trkpt lat="64.32531738" lon="-20.12932968"><ele>244.8</ele><time>2012-07-20T13:24:49.0000000+00:00</time></trkpt><trkpt lat="64.32531738" lon="-20.12932968"><ele>244.7</ele><time>2012-07-20T13:24:54.0000000+00:00</time></trkpt><trkpt lat="64.32531738" lon="-20.12932968"><ele>244.7</ele><time>2012-07-20T13:24:59.0000000+00:00</time></trkpt><trkpt lat="64.32531738" lon="-20.12932968"><ele>244.7</ele><time>2012-07-20T13:25:04.0000000+00:00</time></trkpt><trkpt lat="64.32531738" lon="-20.12932968"><ele>244.6</ele><time>2012-07-20T13:25:09.0000000+00:00</time></trkpt><trkpt lat="64.32531738" lon="-20.12932968"><ele>244.6</ele><time>2012-07-20T13:25:14.0000000+00:00</time></trkpt><trkpt lat="64.32531738" lon="-20.12932968"><ele>244.5</ele><time>2012-07-20T13:25:19.0000000+00:00</time></trkpt><trkpt lat="64.32531738" lon="-20.12932968"><ele>244.5</ele><time>2012-07-20T13:25:24.0000000+00:00</time></trkpt><trkpt lat="64.32531738" lon="-20.12932968"><ele>244.5</ele><time>2012-07-20T13:25:29.0000000+00:00</time></trkpt><trkpt lat="64.32531738" lon="-20.12932968"><ele>244.4</ele><time>2012-07-20T13:25:34.0000000+00:00</time></trkpt><trkpt lat="64.32531738" lon="-20.12932968"><ele>244.4</ele><time>2012-07-20T13:25:39.0000000+00:00</time></trkpt><trkpt lat="64.32531738" lon="-20.12933159"><ele>244.4</ele><time>2012-07-20T13:25:44.0000000+00:00</time></trkpt><trkpt lat="64.32531738" lon="-20.12933159"><ele>244.3</ele><time>2012-07-20T13:25:49.0000000+00:00</time></trkpt><trkpt lat="64.32531738" lon="-20.12933159"><ele>244.3</ele><time>2012-07-20T13:25:54.0000000+00:00</time></trkpt><trkpt lat="64.32531738" lon="-20.12933159"><ele>244.3</ele><time>2012-07-20T13:25:59.0000000+00:00</time></trkpt><trkpt lat="64.32531738" lon="-20.12933159"><ele>244.3</ele><time>2012-07-20T13:26:04.0000000+00:00</time></trkpt><trkpt lat="64.32531738" lon="-20.12933159"><ele>244.2</ele><time>2012-07-20T13:26:09.0000000+00:00</time></trkpt><trkpt lat="64.32531738" lon="-20.12933159"><ele>244.2</ele><time>2012-07-20T13:26:14.0000000+00:00</time></trkpt><trkpt lat="64.32531738" lon="-20.12933159"><ele>244.2</ele><time>2012-07-20T13:26:19.0000000+00:00</time></trkpt><trkpt lat="64.32531738" lon="-20.12933159"><ele>244.2</ele><time>2012-07-20T13:26:24.0000000+00:00</time></trkpt><trkpt lat="64.32531738" lon="-20.12933159"><ele>244.2</ele><time>2012-07-20T13:26:29.0000000+00:00</time></trkpt><trkpt lat="64.32531738" lon="-20.12933159"><ele>244.2</ele><time>2012-07-20T13:26:34.0000000+00:00</time></trkpt><trkpt lat="64.32531738" lon="-20.12933159"><ele>244.2</ele><time>2012-07-20T13:26:39.0000000+00:00</time></trkpt><trkpt lat="64.32531738" lon="-20.12933159"><ele>244.2</ele><time>2012-07-20T13:26:44.0000000+00:00</time></trkpt><trkpt lat="64.32531738" lon="-20.12933159"><ele>244.1</ele><time>2012-07-20T13:26:49.0000000+00:00</time></trkpt><trkpt lat="64.32531738" lon="-20.12933159"><ele>244.1</ele><time>2012-07-20T13:26:54.0000000+00:00</time></trkpt><trkpt lat="64.32531738" lon="-20.12933159"><ele>244.1</ele><time>2012-07-20T13:26:59.0000000+00:00</time></trkpt><trkpt lat="64.32531738" lon="-20.1293335"><ele>244.1</ele><time>2012-07-20T13:27:04.0000000+00:00</time></trkpt><trkpt lat="64.32531738" lon="-20.1293335"><ele>244.1</ele><time>2012-07-20T13:27:09.0000000+00:00</time></trkpt><trkpt lat="64.32531738" lon="-20.1293335"><ele>244.1</ele><time>2012-07-20T13:27:14.0000000+00:00</time></trkpt><trkpt lat="64.32531738" lon="-20.1293335"><ele>244.1</ele><time>2012-07-20T13:27:19.0000000+00:00</time></trkpt><trkpt lat="64.32531738" lon="-20.1293335"><ele>244.1</ele><time>2012-07-20T13:27:24.0000000+00:00</time></trkpt><trkpt lat="64.32531738" lon="-20.1293335"><ele>244.0</ele><time>2012-07-20T13:27:29.0000000+00:00</time></trkpt><trkpt lat="64.32531738" lon="-20.1293335"><ele>244.0</ele><time>2012-07-20T13:27:34.0000000+00:00</time></trkpt><trkpt lat="64.32532501" lon="-20.1293335"><ele>243.9</ele><time>2012-07-20T13:27:39.0000000+00:00</time></trkpt><trkpt lat="64.32532501" lon="-20.1293335"><ele>243.9</ele><time>2012-07-20T13:27:44.0000000+00:00</time></trkpt><trkpt lat="64.32532501" lon="-20.1293354"><ele>243.8</ele><time>2012-07-20T13:27:49.0000000+00:00</time></trkpt><trkpt lat="64.32532501" lon="-20.1293354"><ele>243.8</ele><time>2012-07-20T13:27:54.0000000+00:00</time></trkpt><trkpt lat="64.32532501" lon="-20.1293354"><ele>243.7</ele><time>2012-07-20T13:27:59.0000000+00:00</time></trkpt><trkpt lat="64.32532501" lon="-20.1293354"><ele>243.7</ele><time>2012-07-20T13:28:04.0000000+00:00</time></trkpt><trkpt lat="64.32532501" lon="-20.1293354"><ele>243.6</ele><time>2012-07-20T13:28:09.0000000+00:00</time></trkpt><trkpt lat="64.32532501" lon="-20.1293354"><ele>243.6</ele><time>2012-07-20T13:28:14.0000000+00:00</time></trkpt><trkpt lat="64.32532501" lon="-20.1293354"><ele>243.6</ele><time>2012-07-20T13:28:19.0000000+00:00</time></trkpt><trkpt lat="64.32532501" lon="-20.1293354"><ele>243.5</ele><time>2012-07-20T13:28:24.0000000+00:00</time></trkpt><trkpt lat="64.32532501" lon="-20.1293354"><ele>243.5</ele><time>2012-07-20T13:28:29.0000000+00:00</time></trkpt><trkpt lat="64.32532501" lon="-20.1293354"><ele>243.5</ele><time>2012-07-20T13:28:34.0000000+00:00</time></trkpt><trkpt lat="64.32532501" lon="-20.1293354"><ele>243.5</ele><time>2012-07-20T13:28:39.0000000+00:00</time></trkpt><trkpt lat="64.32532501" lon="-20.1293354"><ele>243.4</ele><time>2012-07-20T13:28:44.0000000+00:00</time></trkpt><trkpt lat="64.32532501" lon="-20.1293354"><ele>243.4</ele><time>2012-07-20T13:28:49.0000000+00:00</time></trkpt><trkpt lat="64.32532501" lon="-20.1293354"><ele>243.3</ele><time>2012-07-20T13:28:54.0000000+00:00</time></trkpt><trkpt lat="64.32532501" lon="-20.1293354"><ele>243.3</ele><time>2012-07-20T13:28:59.0000000+00:00</time></trkpt><trkpt lat="64.32532501" lon="-20.1293354"><ele>243.3</ele><time>2012-07-20T13:29:04.0000000+00:00</time></trkpt><trkpt lat="64.32532501" lon="-20.1293354"><ele>243.2</ele><time>2012-07-20T13:29:09.0000000+00:00</time></trkpt><trkpt lat="64.32532501" lon="-20.12933731"><ele>243.2</ele><time>2012-07-20T13:29:14.0000000+00:00</time></trkpt><trkpt lat="64.32532501" lon="-20.12933731"><ele>243.1</ele><time>2012-07-20T13:29:19.0000000+00:00</time></trkpt><trkpt lat="64.32532501" lon="-20.12933731"><ele>243.1</ele><time>2012-07-20T13:29:24.0000000+00:00</time></trkpt><trkpt lat="64.32532501" lon="-20.1293354"><ele>243.0</ele><time>2012-07-20T13:29:29.0000000+00:00</time></trkpt><trkpt lat="64.32532501" lon="-20.1293354"><ele>243.0</ele><time>2012-07-20T13:29:34.0000000+00:00</time></trkpt><trkpt lat="64.32532501" lon="-20.1293354"><ele>242.9</ele><time>2012-07-20T13:29:39.0000000+00:00</time></trkpt><trkpt lat="64.32532501" lon="-20.1293354"><ele>242.9</ele><time>2012-07-20T13:29:44.0000000+00:00</time></trkpt><trkpt lat="64.32532501" lon="-20.1293354"><ele>242.9</ele><time>2012-07-20T13:29:49.0000000+00:00</time></trkpt><trkpt lat="64.32532501" lon="-20.1293354"><ele>242.8</ele><time>2012-07-20T13:29:54.0000000+00:00</time></trkpt><trkpt lat="64.32532501" lon="-20.1293354"><ele>242.8</ele><time>2012-07-20T13:29:59.0000000+00:00</time></trkpt><trkpt lat="64.32532501" lon="-20.1293354"><ele>242.8</ele><time>2012-07-20T13:30:04.0000000+00:00</time></trkpt><trkpt lat="64.32532501" lon="-20.12933731"><ele>242.7</ele><time>2012-07-20T13:30:09.0000000+00:00</time></trkpt><trkpt lat="64.32532501" lon="-20.12933731"><ele>242.7</ele><time>2012-07-20T13:30:14.0000000+00:00</time></trkpt><trkpt lat="64.32532501" lon="-20.12933731"><ele>242.7</ele><time>2012-07-20T13:30:19.0000000+00:00</time></trkpt><trkpt lat="64.32532501" lon="-20.12933731"><ele>242.6</ele><time>2012-07-20T13:30:24.0000000+00:00</time></trkpt><trkpt lat="64.32532501" lon="-20.12933731"><ele>242.6</ele><time>2012-07-20T13:30:29.0000000+00:00</time></trkpt><trkpt lat="64.32532501" lon="-20.12933922"><ele>242.5</ele><time>2012-07-20T13:30:34.0000000+00:00</time></trkpt><trkpt lat="64.32532501" lon="-20.12933922"><ele>242.5</ele><time>2012-07-20T13:30:39.0000000+00:00</time></trkpt><trkpt lat="64.32532501" lon="-20.12933922"><ele>242.5</ele><time>2012-07-20T13:30:44.0000000+00:00</time></trkpt><trkpt lat="64.32532501" lon="-20.12933922"><ele>242.4</ele><time>2012-07-20T13:30:49.0000000+00:00</time></trkpt><trkpt lat="64.32532501" lon="-20.12933922"><ele>242.3</ele><time>2012-07-20T13:30:54.0000000+00:00</time></trkpt><trkpt lat="64.32532501" lon="-20.12934113"><ele>242.3</ele><time>2012-07-20T13:30:59.0000000+00:00</time></trkpt><trkpt lat="64.32532501" lon="-20.12934303"><ele>242.2</ele><time>2012-07-20T13:31:04.0000000+00:00</time></trkpt><trkpt lat="64.32532501" lon="-20.12934303"><ele>242.2</ele><time>2012-07-20T13:31:09.0000000+00:00</time></trkpt><trkpt lat="64.32532501" lon="-20.12934303"><ele>242.1</ele><time>2012-07-20T13:31:14.0000000+00:00</time></trkpt><trkpt lat="64.32532501" lon="-20.12934494"><ele>242.0</ele><time>2012-07-20T13:31:19.0000000+00:00</time></trkpt><trkpt lat="64.32532501" lon="-20.12934494"><ele>242.0</ele><time>2012-07-20T13:31:24.0000000+00:00</time></trkpt><trkpt lat="64.32532501" lon="-20.12934685"><ele>241.9</ele><time>2012-07-20T13:31:29.0000000+00:00</time></trkpt><trkpt lat="64.32532501" lon="-20.12934685"><ele>241.9</ele><time>2012-07-20T13:31:34.0000000+00:00</time></trkpt><trkpt lat="64.32532501" lon="-20.12934876"><ele>241.8</ele><time>2012-07-20T13:31:39.0000000+00:00</time></trkpt><trkpt lat="64.32532501" lon="-20.12935066"><ele>241.7</ele><time>2012-07-20T13:31:44.0000000+00:00</time></trkpt><trkpt lat="64.32533264" lon="-20.12935066"><ele>241.7</ele><time>2012-07-20T13:31:49.0000000+00:00</time></trkpt><trkpt lat="64.32533264" lon="-20.12935257"><ele>241.6</ele><time>2012-07-20T13:31:54.0000000+00:00</time></trkpt><trkpt lat="64.32533264" lon="-20.12935448"><ele>241.6</ele><time>2012-07-20T13:31:59.0000000+00:00</time></trkpt><trkpt lat="64.32533264" lon="-20.12935638"><ele>241.5</ele><time>2012-07-20T13:32:04.0000000+00:00</time></trkpt><trkpt lat="64.32533264" lon="-20.12935829"><ele>241.4</ele><time>2012-07-20T13:32:09.0000000+00:00</time></trkpt><trkpt lat="64.32533264" lon="-20.12935829"><ele>241.4</ele><time>2012-07-20T13:32:14.0000000+00:00</time></trkpt><trkpt lat="64.32533264" lon="-20.1293602"><ele>241.3</ele><time>2012-07-20T13:32:19.0000000+00:00</time></trkpt><trkpt lat="64.32533264" lon="-20.1293602"><ele>241.3</ele><time>2012-07-20T13:32:24.0000000+00:00</time></trkpt><trkpt lat="64.32533264" lon="-20.1293602"><ele>241.2</ele><time>2012-07-20T13:32:29.0000000+00:00</time></trkpt><trkpt lat="64.32533264" lon="-20.1293602"><ele>241.2</ele><time>2012-07-20T13:32:34.0000000+00:00</time></trkpt><trkpt lat="64.32533264" lon="-20.12936211"><ele>241.1</ele><time>2012-07-20T13:32:39.0000000+00:00</time></trkpt><trkpt lat="64.32533264" lon="-20.12936211"><ele>241.1</ele><time>2012-07-20T13:32:44.0000000+00:00</time></trkpt><trkpt lat="64.32533264" lon="-20.12936211"><ele>241.0</ele><time>2012-07-20T13:32:49.0000000+00:00</time></trkpt><trkpt lat="64.32533264" lon="-20.12936211"><ele>241.0</ele><time>2012-07-20T13:32:54.0000000+00:00</time></trkpt><trkpt lat="64.32533264" lon="-20.12936211"><ele>241.0</ele><time>2012-07-20T13:32:59.0000000+00:00</time></trkpt><trkpt lat="64.32533264" lon="-20.12936211"><ele>240.9</ele><time>2012-07-20T13:33:04.0000000+00:00</time></trkpt><trkpt lat="64.32533264" lon="-20.12936211"><ele>240.9</ele><time>2012-07-20T13:33:09.0000000+00:00</time></trkpt><trkpt lat="64.32533264" lon="-20.12936401"><ele>240.9</ele><time>2012-07-20T13:33:14.0000000+00:00</time></trkpt><trkpt lat="64.32534027" lon="-20.12938309"><ele>240.7</ele><time>2012-07-20T13:33:19.0000000+00:00</time></trkpt><trkpt lat="64.32540131" lon="-20.12937164"><ele>239.8</ele><time>2012-07-20T13:33:24.0000000+00:00</time></trkpt><trkpt lat="64.32544708" lon="-20.12941551"><ele>238.1</ele><time>2012-07-20T13:33:29.0000000+00:00</time></trkpt><trkpt lat="64.32550049" lon="-20.12944794"><ele>236.1</ele><time>2012-07-20T13:33:34.0000000+00:00</time></trkpt><trkpt lat="64.32551575" lon="-20.12942314"><ele>234.3</ele><time>2012-07-20T13:33:39.0000000+00:00</time></trkpt><trkpt lat="64.32551575" lon="-20.12942123"><ele>234.2</ele><time>2012-07-20T13:33:44.0000000+00:00</time></trkpt><trkpt lat="64.32552338" lon="-20.12941933"><ele>234.1</ele><time>2012-07-20T13:33:49.0000000+00:00</time></trkpt><trkpt lat="64.32552338" lon="-20.12941933"><ele>234.1</ele><time>2012-07-20T13:33:54.0000000+00:00</time></trkpt><trkpt lat="64.32552338" lon="-20.12941933"><ele>234.1</ele><time>2012-07-20T13:33:59.0000000+00:00</time></trkpt><trkpt lat="64.32552338" lon="-20.12941933"><ele>234.0</ele><time>2012-07-20T13:34:04.0000000+00:00</time></trkpt><trkpt lat="64.32552338" lon="-20.12942123"><ele>233.9</ele><time>2012-07-20T13:34:09.0000000+00:00</time></trkpt><trkpt lat="64.32552338" lon="-20.12942123"><ele>233.9</ele><time>2012-07-20T13:34:14.0000000+00:00</time></trkpt><trkpt lat="64.32552338" lon="-20.12942123"><ele>233.9</ele><time>2012-07-20T13:34:19.0000000+00:00</time></trkpt><trkpt lat="64.32552338" lon="-20.12942123"><ele>233.9</ele><time>2012-07-20T13:34:24.0000000+00:00</time></trkpt><trkpt lat="64.32552338" lon="-20.12942123"><ele>233.8</ele><time>2012-07-20T13:34:29.0000000+00:00</time></trkpt><trkpt lat="64.32552338" lon="-20.12942123"><ele>233.8</ele><time>2012-07-20T13:34:34.0000000+00:00</time></trkpt><trkpt lat="64.32552338" lon="-20.12942123"><ele>233.8</ele><time>2012-07-20T13:34:39.0000000+00:00</time></trkpt><trkpt lat="64.32552338" lon="-20.12942123"><ele>233.8</ele><time>2012-07-20T13:34:44.0000000+00:00</time></trkpt><trkpt lat="64.32552338" lon="-20.12942123"><ele>233.8</ele><time>2012-07-20T13:34:49.0000000+00:00</time></trkpt><trkpt lat="64.32552338" lon="-20.12942123"><ele>233.8</ele><time>2012-07-20T13:34:54.0000000+00:00</time></trkpt><trkpt lat="64.32552338" lon="-20.12942123"><ele>233.8</ele><time>2012-07-20T13:34:59.0000000+00:00</time></trkpt><trkpt lat="64.32552338" lon="-20.12942123"><ele>233.7</ele><time>2012-07-20T13:35:04.0000000+00:00</time></trkpt><trkpt lat="64.32552338" lon="-20.12942123"><ele>233.7</ele><time>2012-07-20T13:35:09.0000000+00:00</time></trkpt><trkpt lat="64.32552338" lon="-20.12942123"><ele>233.6</ele><time>2012-07-20T13:35:14.0000000+00:00</time></trkpt><trkpt lat="64.32552338" lon="-20.12942123"><ele>233.6</ele><time>2012-07-20T13:35:19.0000000+00:00</time></trkpt><trkpt lat="64.32552338" lon="-20.12941933"><ele>233.5</ele><time>2012-07-20T13:35:24.0000000+00:00</time></trkpt><trkpt lat="64.32552338" lon="-20.12941933"><ele>233.5</ele><time>2012-07-20T13:35:29.0000000+00:00</time></trkpt><trkpt lat="64.32552338" lon="-20.12941933"><ele>233.4</ele><time>2012-07-20T13:35:34.0000000+00:00</time></trkpt><trkpt lat="64.32552338" lon="-20.12941933"><ele>233.4</ele><time>2012-07-20T13:35:39.0000000+00:00</time></trkpt><trkpt lat="64.32552338" lon="-20.12941933"><ele>233.4</ele><time>2012-07-20T13:35:44.0000000+00:00</time></trkpt><trkpt lat="64.32552338" lon="-20.12941933"><ele>233.4</ele><time>2012-07-20T13:35:49.0000000+00:00</time></trkpt><trkpt lat="64.32552338" lon="-20.12942123"><ele>233.4</ele><time>2012-07-20T13:35:54.0000000+00:00</time></trkpt><trkpt lat="64.32552338" lon="-20.12942123"><ele>233.4</ele><time>2012-07-20T13:35:59.0000000+00:00</time></trkpt><trkpt lat="64.32552338" lon="-20.12942123"><ele>233.4</ele><time>2012-07-20T13:36:04.0000000+00:00</time></trkpt><trkpt lat="64.32552338" lon="-20.12942123"><ele>233.4</ele><time>2012-07-20T13:36:09.0000000+00:00</time></trkpt><trkpt lat="64.32552338" lon="-20.12942123"><ele>233.4</ele><time>2012-07-20T13:36:14.0000000+00:00</time></trkpt><trkpt lat="64.32552338" lon="-20.12942123"><ele>233.3</ele><time>2012-07-20T13:36:19.0000000+00:00</time></trkpt><trkpt lat="64.32552338" lon="-20.12942123"><ele>233.3</ele><time>2012-07-20T13:36:24.0000000+00:00</time></trkpt><trkpt lat="64.32552338" lon="-20.12942123"><ele>233.3</ele><time>2012-07-20T13:36:29.0000000+00:00</time></trkpt><trkpt lat="64.32552338" lon="-20.12942123"><ele>233.3</ele><time>2012-07-20T13:36:34.0000000+00:00</time></trkpt><trkpt lat="64.32552338" lon="-20.12942123"><ele>233.3</ele><time>2012-07-20T13:36:39.0000000+00:00</time></trkpt><trkpt lat="64.32552338" lon="-20.12942123"><ele>233.3</ele><time>2012-07-20T13:36:44.0000000+00:00</time></trkpt><trkpt lat="64.32552338" lon="-20.12942123"><ele>233.3</ele><time>2012-07-20T13:36:49.0000000+00:00</time></trkpt><trkpt lat="64.32552338" lon="-20.12942314"><ele>233.2</ele><time>2012-07-20T13:36:54.0000000+00:00</time></trkpt><trkpt lat="64.32552338" lon="-20.12942314"><ele>233.2</ele><time>2012-07-20T13:36:59.0000000+00:00</time></trkpt><trkpt lat="64.32552338" lon="-20.12942314"><ele>233.2</ele><time>2012-07-20T13:37:04.0000000+00:00</time></trkpt><trkpt lat="64.32552338" lon="-20.12942314"><ele>233.2</ele><time>2012-07-20T13:37:09.0000000+00:00</time></trkpt><trkpt lat="64.32552338" lon="-20.12942314"><ele>233.2</ele><time>2012-07-20T13:37:14.0000000+00:00</time></trkpt><trkpt lat="64.32552338" lon="-20.12942314"><ele>233.1</ele><time>2012-07-20T13:37:19.0000000+00:00</time></trkpt><trkpt lat="64.32552338" lon="-20.12942314"><ele>233.1</ele><time>2012-07-20T13:37:24.0000000+00:00</time></trkpt><trkpt lat="64.32552338" lon="-20.12942314"><ele>233.1</ele><time>2012-07-20T13:37:29.0000000+00:00</time></trkpt><trkpt lat="64.32552338" lon="-20.12942314"><ele>233.0</ele><time>2012-07-20T13:37:34.0000000+00:00</time></trkpt><trkpt lat="64.32552338" lon="-20.12942314"><ele>233.0</ele><time>2012-07-20T13:37:39.0000000+00:00</time></trkpt><trkpt lat="64.32552338" lon="-20.12942314"><ele>232.9</ele><time>2012-07-20T13:37:44.0000000+00:00</time></trkpt><trkpt lat="64.32552338" lon="-20.12942314"><ele>233.0</ele><time>2012-07-20T13:37:49.0000000+00:00</time></trkpt><trkpt lat="64.32552338" lon="-20.12944031"><ele>233.0</ele><time>2012-07-20T13:37:54.0000000+00:00</time></trkpt><trkpt lat="64.32552338" lon="-20.12951469"><ele>232.6</ele><time>2012-07-20T13:37:59.0000000+00:00</time></trkpt><trkpt lat="64.32556152" lon="-20.12968063"><ele>231.7</ele><time>2012-07-20T13:38:04.0000000+00:00</time></trkpt><trkpt lat="64.32561493" lon="-20.12981224"><ele>232.2</ele><time>2012-07-20T13:38:09.0000000+00:00</time></trkpt><trkpt lat="64.32566071" lon="-20.12995148"><ele>231.9</ele><time>2012-07-20T13:38:14.0000000+00:00</time></trkpt><trkpt lat="64.32572937" lon="-20.13014412"><ele>231.4</ele><time>2012-07-20T13:38:19.0000000+00:00</time></trkpt><trkpt lat="64.32575989" lon="-20.13032532"><ele>230.0</ele><time>2012-07-20T13:38:24.0000000+00:00</time></trkpt><trkpt lat="64.32584381" lon="-20.13053894"><ele>228.3</ele><time>2012-07-20T13:38:29.0000000+00:00</time></trkpt><trkpt lat="64.32591248" lon="-20.13074875"><ele>226.6</ele><time>2012-07-20T13:38:34.0000000+00:00</time></trkpt><trkpt lat="64.32595825" lon="-20.1308918"><ele>225.0</ele><time>2012-07-20T13:38:39.0000000+00:00</time></trkpt><trkpt lat="64.32595825" lon="-20.13109779"><ele>222.9</ele><time>2012-07-20T13:38:44.0000000+00:00</time></trkpt><trkpt lat="64.32584381" lon="-20.13127708"><ele>221.0</ele><time>2012-07-20T13:38:49.0000000+00:00</time></trkpt><trkpt lat="64.32570648" lon="-20.13143349"><ele>219.6</ele><time>2012-07-20T13:38:54.0000000+00:00</time></trkpt><trkpt lat="64.32556915" lon="-20.13160515"><ele>217.8</ele><time>2012-07-20T13:38:59.0000000+00:00</time></trkpt><trkpt lat="64.32545471" lon="-20.1317234"><ele>214.9</ele><time>2012-07-20T13:39:04.0000000+00:00</time></trkpt><trkpt lat="64.3253479" lon="-20.1318779"><ele>215.8</ele><time>2012-07-20T13:39:09.0000000+00:00</time></trkpt><trkpt lat="64.32520294" lon="-20.13206863"><ele>217.4</ele><time>2012-07-20T13:39:14.0000000+00:00</time></trkpt><trkpt lat="64.3250351" lon="-20.13228607"><ele>216.9</ele><time>2012-07-20T13:39:19.0000000+00:00</time></trkpt><trkpt lat="64.32485199" lon="-20.13251877"><ele>216.4</ele><time>2012-07-20T13:39:24.0000000+00:00</time></trkpt><trkpt lat="64.32466888" lon="-20.132761"><ele>216.0</ele><time>2012-07-20T13:39:29.0000000+00:00</time></trkpt><trkpt lat="64.32447815" lon="-20.13298035"><ele>216.8</ele><time>2012-07-20T13:39:34.0000000+00:00</time></trkpt><trkpt lat="64.32430267" lon="-20.13320541"><ele>217.5</ele><time>2012-07-20T13:39:39.0000000+00:00</time></trkpt><trkpt lat="64.32410431" lon="-20.1334343"><ele>218.8</ele><time>2012-07-20T13:39:44.0000000+00:00</time></trkpt><trkpt lat="64.32389832" lon="-20.13365936"><ele>219.3</ele><time>2012-07-20T13:39:49.0000000+00:00</time></trkpt><trkpt lat="64.32369995" lon="-20.13384438"><ele>219.8</ele><time>2012-07-20T13:39:54.0000000+00:00</time></trkpt><trkpt lat="64.32348633" lon="-20.13401985"><ele>220.2</ele><time>2012-07-20T13:39:59.0000000+00:00</time></trkpt><trkpt lat="64.32322693" lon="-20.1341877"><ele>219.1</ele><time>2012-07-20T13:40:04.0000000+00:00</time></trkpt><trkpt lat="64.32299042" lon="-20.13432694"><ele>219.4</ele><time>2012-07-20T13:40:09.0000000+00:00</time></trkpt><trkpt lat="64.32274628" lon="-20.1344471"><ele>219.2</ele><time>2012-07-20T13:40:14.0000000+00:00</time></trkpt><trkpt lat="64.32252502" lon="-20.13450813"><ele>219.3</ele><time>2012-07-20T13:40:19.0000000+00:00</time></trkpt><trkpt lat="64.32228851" lon="-20.13456535"><ele>219.2</ele><time>2012-07-20T13:40:24.0000000+00:00</time></trkpt><trkpt lat="64.32204437" lon="-20.13459587"><ele>219.1</ele><time>2012-07-20T13:40:29.0000000+00:00</time></trkpt><trkpt lat="64.32181549" lon="-20.13459015"><ele>218.5</ele><time>2012-07-20T13:40:34.0000000+00:00</time></trkpt><trkpt lat="64.32158661" lon="-20.13459969"><ele>217.9</ele><time>2012-07-20T13:40:39.0000000+00:00</time></trkpt><trkpt lat="64.32135773" lon="-20.13458824"><ele>216.9</ele><time>2012-07-20T13:40:44.0000000+00:00</time></trkpt><trkpt lat="64.3210907" lon="-20.13456535"><ele>214.9</ele><time>2012-07-20T13:40:49.0000000+00:00</time></trkpt><trkpt lat="64.32077026" lon="-20.13460922"><ele>212.1</ele><time>2012-07-20T13:40:54.0000000+00:00</time></trkpt><trkpt lat="64.32043457" lon="-20.13482857"><ele>209.7</ele><time>2012-07-20T13:40:59.0000000+00:00</time></trkpt><trkpt lat="64.32015991" lon="-20.13524246"><ele>208.4</ele><time>2012-07-20T13:41:04.0000000+00:00</time></trkpt><trkpt lat="64.31995392" lon="-20.13575363"><ele>207.8</ele><time>2012-07-20T13:41:09.0000000+00:00</time></trkpt><trkpt lat="64.31975555" lon="-20.13626289"><ele>207.5</ele><time>2012-07-20T13:41:14.0000000+00:00</time></trkpt><trkpt lat="64.3195343" lon="-20.13673401"><ele>203.0</ele><time>2012-07-20T13:41:19.0000000+00:00</time></trkpt><trkpt lat="64.31932831" lon="-20.13722038"><ele>203.7</ele><time>2012-07-20T13:41:24.0000000+00:00</time></trkpt><trkpt lat="64.31910706" lon="-20.13766861"><ele>203.9</ele><time>2012-07-20T13:41:29.0000000+00:00</time></trkpt><trkpt lat="64.31887054" lon="-20.13807869"><ele>204.6</ele><time>2012-07-20T13:41:34.0000000+00:00</time></trkpt><trkpt lat="64.31861877" lon="-20.13844299"><ele>204.6</ele><time>2012-07-20T13:41:39.0000000+00:00</time></trkpt><trkpt lat="64.31840515" lon="-20.13881111"><ele>204.7</ele><time>2012-07-20T13:41:44.0000000+00:00</time></trkpt><trkpt lat="64.31820679" lon="-20.13917732"><ele>205.1</ele><time>2012-07-20T13:41:49.0000000+00:00</time></trkpt><trkpt lat="64.31804657" lon="-20.13949585"><ele>205.6</ele><time>2012-07-20T13:41:54.0000000+00:00</time></trkpt><trkpt lat="64.31790161" lon="-20.13982391"><ele>205.8</ele><time>2012-07-20T13:41:59.0000000+00:00</time></trkpt><trkpt lat="64.3177948" lon="-20.14015579"><ele>205.6</ele><time>2012-07-20T13:42:04.0000000+00:00</time></trkpt><trkpt lat="64.31769562" lon="-20.14047623"><ele>206.0</ele><time>2012-07-20T13:42:09.0000000+00:00</time></trkpt><trkpt lat="64.31759644" lon="-20.14082527"><ele>205.8</ele><time>2012-07-20T13:42:14.0000000+00:00</time></trkpt><trkpt lat="64.31752014" lon="-20.14116478"><ele>207.1</ele><time>2012-07-20T13:42:19.0000000+00:00</time></trkpt><trkpt lat="64.31744385" lon="-20.14151192"><ele>205.3</ele><time>2012-07-20T13:42:24.0000000+00:00</time></trkpt><trkpt lat="64.31735992" lon="-20.14187622"><ele>203.9</ele><time>2012-07-20T13:42:29.0000000+00:00</time></trkpt><trkpt lat="64.317276" lon="-20.14226723"><ele>204.8</ele><time>2012-07-20T13:42:34.0000000+00:00</time></trkpt><trkpt lat="64.31717682" lon="-20.1427002"><ele>204.1</ele><time>2012-07-20T13:42:39.0000000+00:00</time></trkpt><trkpt lat="64.31707764" lon="-20.1431675"><ele>204.6</ele><time>2012-07-20T13:42:44.0000000+00:00</time></trkpt><trkpt lat="64.31697846" lon="-20.14359283"><ele>204.7</ele><time>2012-07-20T13:42:49.0000000+00:00</time></trkpt><trkpt lat="64.3168869" lon="-20.14401817"><ele>206.1</ele><time>2012-07-20T13:42:54.0000000+00:00</time></trkpt><trkpt lat="64.31681061" lon="-20.14443779"><ele>205.3</ele><time>2012-07-20T13:42:59.0000000+00:00</time></trkpt><trkpt lat="64.31671906" lon="-20.14487267"><ele>205.8</ele><time>2012-07-20T13:43:04.0000000+00:00</time></trkpt><trkpt lat="64.3166275" lon="-20.14526749"><ele>204.9</ele><time>2012-07-20T13:43:09.0000000+00:00</time></trkpt><trkpt lat="64.31653595" lon="-20.14565086"><ele>205.8</ele><time>2012-07-20T13:43:14.0000000+00:00</time></trkpt><trkpt lat="64.3164444" lon="-20.14602089"><ele>206.0</ele><time>2012-07-20T13:43:19.0000000+00:00</time></trkpt><trkpt lat="64.31634522" lon="-20.14639092"><ele>205.9</ele><time>2012-07-20T13:43:24.0000000+00:00</time></trkpt><trkpt lat="64.31623077" lon="-20.14677239"><ele>206.1</ele><time>2012-07-20T13:43:29.0000000+00:00</time></trkpt><trkpt lat="64.31609345" lon="-20.1471386"><ele>205.2</ele><time>2012-07-20T13:43:34.0000000+00:00</time></trkpt><trkpt lat="64.31595612" lon="-20.14747429"><ele>205.5</ele><time>2012-07-20T13:43:39.0000000+00:00</time></trkpt><trkpt lat="64.31581116" lon="-20.14780045"><ele>204.9</ele><time>2012-07-20T13:43:44.0000000+00:00</time></trkpt><trkpt lat="64.31565094" lon="-20.14815712"><ele>203.4</ele><time>2012-07-20T13:43:49.0000000+00:00</time></trkpt><trkpt lat="64.31546021" lon="-20.14855385"><ele>202.3</ele><time>2012-07-20T13:43:54.0000000+00:00</time></trkpt><trkpt lat="64.31520844" lon="-20.14904022"><ele>200.6</ele><time>2012-07-20T13:43:59.0000000+00:00</time></trkpt><trkpt lat="64.31492615" lon="-20.14957237"><ele>198.3</ele><time>2012-07-20T13:44:04.0000000+00:00</time></trkpt><trkpt lat="64.3146286" lon="-20.15013123"><ele>196.7</ele><time>2012-07-20T13:44:09.0000000+00:00</time></trkpt><trkpt lat="64.31434631" lon="-20.15064812"><ele>195.5</ele><time>2012-07-20T13:44:14.0000000+00:00</time></trkpt><trkpt lat="64.31411743" lon="-20.15108872"><ele>194.3</ele><time>2012-07-20T13:44:19.0000000+00:00</time></trkpt><trkpt lat="64.31393433" lon="-20.15143395"><ele>194.7</ele><time>2012-07-20T13:44:24.0000000+00:00</time></trkpt><trkpt lat="64.31378174" lon="-20.15173149"><ele>194.6</ele><time>2012-07-20T13:44:29.0000000+00:00</time></trkpt><trkpt lat="64.31363678" lon="-20.15202141"><ele>197.2</ele><time>2012-07-20T13:44:34.0000000+00:00</time></trkpt><trkpt lat="64.31349182" lon="-20.15229416"><ele>197.2</ele><time>2012-07-20T13:44:39.0000000+00:00</time></trkpt><trkpt lat="64.31334686" lon="-20.15257645"><ele>197.2</ele><time>2012-07-20T13:44:44.0000000+00:00</time></trkpt><trkpt lat="64.31316376" lon="-20.15293312"><ele>197.1</ele><time>2012-07-20T13:44:49.0000000+00:00</time></trkpt><trkpt lat="64.31299591" lon="-20.15322685"><ele>196.8</ele><time>2012-07-20T13:44:54.0000000+00:00</time></trkpt><trkpt lat="64.31283569" lon="-20.15350723"><ele>190.3</ele><time>2012-07-20T13:44:59.0000000+00:00</time></trkpt><trkpt lat="64.31267548" lon="-20.15382958"><ele>188.6</ele><time>2012-07-20T13:45:04.0000000+00:00</time></trkpt><trkpt lat="64.31250763" lon="-20.15415192"><ele>190.5</ele><time>2012-07-20T13:45:09.0000000+00:00</time></trkpt><trkpt lat="64.31233978" lon="-20.15445328"><ele>188.9</ele><time>2012-07-20T13:45:14.0000000+00:00</time></trkpt><trkpt lat="64.31217957" lon="-20.15472031"><ele>189.1</ele><time>2012-07-20T13:45:19.0000000+00:00</time></trkpt><trkpt lat="64.31203461" lon="-20.15500641"><ele>189.1</ele><time>2012-07-20T13:45:24.0000000+00:00</time></trkpt><trkpt lat="64.31190491" lon="-20.15528107"><ele>189.1</ele><time>2012-07-20T13:45:29.0000000+00:00</time></trkpt><trkpt lat="64.31173706" lon="-20.15559578"><ele>189.0</ele><time>2012-07-20T13:45:34.0000000+00:00</time></trkpt><trkpt lat="64.31156158" lon="-20.15592957"><ele>189.8</ele><time>2012-07-20T13:45:39.0000000+00:00</time></trkpt><trkpt lat="64.31137085" lon="-20.15628243"><ele>190.5</ele><time>2012-07-20T13:45:44.0000000+00:00</time></trkpt><trkpt lat="64.31118012" lon="-20.1566391"><ele>190.4</ele><time>2012-07-20T13:45:49.0000000+00:00</time></trkpt><trkpt lat="64.31100464" lon="-20.15699196"><ele>190.3</ele><time>2012-07-20T13:45:54.0000000+00:00</time></trkpt><trkpt lat="64.31080627" lon="-20.15735626"><ele>190.1</ele><time>2012-07-20T13:45:59.0000000+00:00</time></trkpt><trkpt lat="64.31061554" lon="-20.15772629"><ele>189.8</ele><time>2012-07-20T13:46:04.0000000+00:00</time></trkpt><trkpt lat="64.31042481" lon="-20.15808106"><ele>189.7</ele><time>2012-07-20T13:46:09.0000000+00:00</time></trkpt><trkpt lat="64.31021881" lon="-20.15847015"><ele>189.0</ele><time>2012-07-20T13:46:14.0000000+00:00</time></trkpt><trkpt lat="64.30998993" lon="-20.15889359"><ele>188.4</ele><time>2012-07-20T13:46:19.0000000+00:00</time></trkpt><trkpt lat="64.30975342" lon="-20.15935326"><ele>186.6</ele><time>2012-07-20T13:46:24.0000000+00:00</time></trkpt><trkpt lat="64.30951691" lon="-20.15979958"><ele>185.3</ele><time>2012-07-20T13:46:29.0000000+00:00</time></trkpt><trkpt lat="64.30927277" lon="-20.16025734"><ele>184.7</ele><time>2012-07-20T13:46:34.0000000+00:00</time></trkpt><trkpt lat="64.30905151" lon="-20.16068649"><ele>184.9</ele><time>2012-07-20T13:46:39.0000000+00:00</time></trkpt><trkpt lat="64.30883026" lon="-20.16110802"><ele>185.3</ele><time>2012-07-20T13:46:44.0000000+00:00</time></trkpt><trkpt lat="64.30861664" lon="-20.16149902"><ele>185.3</ele><time>2012-07-20T13:46:49.0000000+00:00</time></trkpt><trkpt lat="64.30843353" lon="-20.16186333"><ele>185.8</ele><time>2012-07-20T13:46:54.0000000+00:00</time></trkpt><trkpt lat="64.30825806" lon="-20.16218948"><ele>185.3</ele><time>2012-07-20T13:46:59.0000000+00:00</time></trkpt><trkpt lat="64.30808258" lon="-20.16252518"><ele>185.5</ele><time>2012-07-20T13:47:04.0000000+00:00</time></trkpt><trkpt lat="64.30791473" lon="-20.16285515"><ele>185.3</ele><time>2012-07-20T13:47:09.0000000+00:00</time></trkpt><trkpt lat="64.30774689" lon="-20.16316986"><ele>185.2</ele><time>2012-07-20T13:47:14.0000000+00:00</time></trkpt><trkpt lat="64.30757141" lon="-20.16351891"><ele>184.9</ele><time>2012-07-20T13:47:19.0000000+00:00</time></trkpt><trkpt lat="64.30738068" lon="-20.16387367"><ele>184.7</ele><time>2012-07-20T13:47:24.0000000+00:00</time></trkpt><trkpt lat="64.30718231" lon="-20.16425514"><ele>184.3</ele><time>2012-07-20T13:47:29.0000000+00:00</time></trkpt><trkpt lat="64.30699158" lon="-20.16462898"><ele>184.6</ele><time>2012-07-20T13:47:34.0000000+00:00</time></trkpt><trkpt lat="64.30680847" lon="-20.1650219"><ele>184.1</ele><time>2012-07-20T13:47:39.0000000+00:00</time></trkpt><trkpt lat="64.306633" lon="-20.16545105"><ele>183.1</ele><time>2012-07-20T13:47:44.0000000+00:00</time></trkpt><trkpt lat="64.30645752" lon="-20.16592407"><ele>182.5</ele><time>2012-07-20T13:47:49.0000000+00:00</time></trkpt><trkpt lat="64.3062973" lon="-20.16642571"><ele>182.2</ele><time>2012-07-20T13:47:54.0000000+00:00</time></trkpt><trkpt lat="64.30615234" lon="-20.16695976"><ele>183.3</ele><time>2012-07-20T13:47:59.0000000+00:00</time></trkpt><trkpt lat="64.30603027" lon="-20.16749001"><ele>183.2</ele><time>2012-07-20T13:48:04.0000000+00:00</time></trkpt><trkpt lat="64.30593872" lon="-20.16797447"><ele>184.1</ele><time>2012-07-20T13:48:09.0000000+00:00</time></trkpt><trkpt lat="64.30587769" lon="-20.16834068"><ele>184.8</ele><time>2012-07-20T13:48:14.0000000+00:00</time></trkpt><trkpt lat="64.30583191" lon="-20.16866493"><ele>185.0</ele><time>2012-07-20T13:48:19.0000000+00:00</time></trkpt><trkpt lat="64.30579376" lon="-20.16899681"><ele>185.3</ele><time>2012-07-20T13:48:24.0000000+00:00</time></trkpt><trkpt lat="64.30575562" lon="-20.16934586"><ele>186.1</ele><time>2012-07-20T13:48:29.0000000+00:00</time></trkpt><trkpt lat="64.3057251" lon="-20.16971016"><ele>187.5</ele><time>2012-07-20T13:48:34.0000000+00:00</time></trkpt><trkpt lat="64.30570221" lon="-20.17010498"><ele>188.7</ele><time>2012-07-20T13:48:39.0000000+00:00</time></trkpt><trkpt lat="64.30568695" lon="-20.17044067"><ele>188.5</ele><time>2012-07-20T13:48:44.0000000+00:00</time></trkpt><trkpt lat="64.30566406" lon="-20.17079163"><ele>189.3</ele><time>2012-07-20T13:48:49.0000000+00:00</time></trkpt><trkpt lat="64.3056488" lon="-20.17114449"><ele>189.4</ele><time>2012-07-20T13:48:54.0000000+00:00</time></trkpt><trkpt lat="64.30562592" lon="-20.17155266"><ele>190.4</ele><time>2012-07-20T13:48:59.0000000+00:00</time></trkpt><trkpt lat="64.30562592" lon="-20.17190361"><ele>191.0</ele><time>2012-07-20T13:49:04.0000000+00:00</time></trkpt><trkpt lat="64.30561829" lon="-20.17232895"><ele>190.9</ele><time>2012-07-20T13:49:09.0000000+00:00</time></trkpt><trkpt lat="64.30560303" lon="-20.17274284"><ele>191.0</ele><time>2012-07-20T13:49:14.0000000+00:00</time></trkpt><trkpt lat="64.30560303" lon="-20.17319679"><ele>190.3</ele><time>2012-07-20T13:49:19.0000000+00:00</time></trkpt><trkpt lat="64.3055954" lon="-20.17359924"><ele>190.4</ele><time>2012-07-20T13:49:24.0000000+00:00</time></trkpt><trkpt lat="64.3055954" lon="-20.17403793"><ele>190.3</ele><time>2012-07-20T13:49:29.0000000+00:00</time></trkpt><trkpt lat="64.3055954" lon="-20.17445564"><ele>189.7</ele><time>2012-07-20T13:49:34.0000000+00:00</time></trkpt><trkpt lat="64.30558777" lon="-20.1749363"><ele>189.6</ele><time>2012-07-20T13:49:39.0000000+00:00</time></trkpt><trkpt lat="64.30558777" lon="-20.17546272"><ele>189.1</ele><time>2012-07-20T13:49:44.0000000+00:00</time></trkpt><trkpt lat="64.30558014" lon="-20.1760025"><ele>189.2</ele><time>2012-07-20T13:49:49.0000000+00:00</time></trkpt><trkpt lat="64.3055954" lon="-20.17651177"><ele>189.5</ele><time>2012-07-20T13:49:54.0000000+00:00</time></trkpt><trkpt lat="64.3055954" lon="-20.17704582"><ele>189.6</ele><time>2012-07-20T13:49:59.0000000+00:00</time></trkpt><trkpt lat="64.30558777" lon="-20.17757797"><ele>189.9</ele><time>2012-07-20T13:50:04.0000000+00:00</time></trkpt><trkpt lat="64.3055954" lon="-20.17803001"><ele>190.2</ele><time>2012-07-20T13:50:09.0000000+00:00</time></trkpt><trkpt lat="64.30558777" lon="-20.17847633"><ele>190.3</ele><time>2012-07-20T13:50:14.0000000+00:00</time></trkpt><trkpt lat="64.30558777" lon="-20.17896843"><ele>190.2</ele><time>2012-07-20T13:50:19.0000000+00:00</time></trkpt><trkpt lat="64.30558777" lon="-20.17947769"><ele>190.1</ele><time>2012-07-20T13:50:24.0000000+00:00</time></trkpt><trkpt lat="64.30558014" lon="-20.17992592"><ele>189.8</ele><time>2012-07-20T13:50:29.0000000+00:00</time></trkpt><trkpt lat="64.30558014" lon="-20.18032455"><ele>189.4</ele><time>2012-07-20T13:50:34.0000000+00:00</time></trkpt><trkpt lat="64.30558777" lon="-20.18076706"><ele>189.0</ele><time>2012-07-20T13:50:39.0000000+00:00</time></trkpt><trkpt lat="64.3055954" lon="-20.18121147"><ele>188.3</ele><time>2012-07-20T13:50:44.0000000+00:00</time></trkpt><trkpt lat="64.3055954" lon="-20.18164063"><ele>187.5</ele><time>2012-07-20T13:50:49.0000000+00:00</time></trkpt><trkpt lat="64.30562592" lon="-20.18208313"><ele>186.1</ele><time>2012-07-20T13:50:54.0000000+00:00</time></trkpt><trkpt lat="64.30565643" lon="-20.18256378"><ele>185.0</ele><time>2012-07-20T13:50:59.0000000+00:00</time></trkpt><trkpt lat="64.30569458" lon="-20.18310356"><ele>185.0</ele><time>2012-07-20T13:51:04.0000000+00:00</time></trkpt><trkpt lat="64.30574799" lon="-20.1836586"><ele>183.2</ele><time>2012-07-20T13:51:09.0000000+00:00</time></trkpt><trkpt lat="64.30579376" lon="-20.18426132"><ele>181.8</ele><time>2012-07-20T13:51:14.0000000+00:00</time></trkpt><trkpt lat="64.3058548" lon="-20.18482208"><ele>181.4</ele><time>2012-07-20T13:51:19.0000000+00:00</time></trkpt><trkpt lat="64.30590057" lon="-20.18534279"><ele>180.7</ele><time>2012-07-20T13:51:24.0000000+00:00</time></trkpt><trkpt lat="64.30595398" lon="-20.18585396"><ele>180.3</ele><time>2012-07-20T13:51:29.0000000+00:00</time></trkpt><trkpt lat="64.30599213" lon="-20.18635559"><ele>182.5</ele><time>2012-07-20T13:51:34.0000000+00:00</time></trkpt><trkpt lat="64.3060379" lon="-20.18676949"><ele>182.4</ele><time>2012-07-20T13:51:39.0000000+00:00</time></trkpt><trkpt lat="64.30608368" lon="-20.18723869"><ele>182.3</ele><time>2012-07-20T13:51:44.0000000+00:00</time></trkpt><trkpt lat="64.30612946" lon="-20.18772888"><ele>180.8</ele><time>2012-07-20T13:51:49.0000000+00:00</time></trkpt><trkpt lat="64.30618286" lon="-20.1882515"><ele>179.8</ele><time>2012-07-20T13:51:54.0000000+00:00</time></trkpt><trkpt lat="64.30623627" lon="-20.1887188"><ele>181.2</ele><time>2012-07-20T13:51:59.0000000+00:00</time></trkpt><trkpt lat="64.30625916" lon="-20.1891346"><ele>180.6</ele><time>2012-07-20T13:52:04.0000000+00:00</time></trkpt><trkpt lat="64.30628967" lon="-20.18943024"><ele>177.2</ele><time>2012-07-20T13:52:09.0000000+00:00</time></trkpt><trkpt lat="64.30631256" lon="-20.18968201"><ele>176.9</ele><time>2012-07-20T13:52:14.0000000+00:00</time></trkpt><trkpt lat="64.30635071" lon="-20.18999672"><ele>177.2</ele><time>2012-07-20T13:52:19.0000000+00:00</time></trkpt><trkpt lat="64.30638123" lon="-20.19031906"><ele>177.7</ele><time>2012-07-20T13:52:24.0000000+00:00</time></trkpt><trkpt lat="64.30641174" lon="-20.19065476"><ele>176.7</ele><time>2012-07-20T13:52:29.0000000+00:00</time></trkpt><trkpt lat="64.30646515" lon="-20.19111443"><ele>177.8</ele><time>2012-07-20T13:52:34.0000000+00:00</time></trkpt><trkpt lat="64.3065033" lon="-20.19158363"><ele>178.2</ele><time>2012-07-20T13:52:39.0000000+00:00</time></trkpt><trkpt lat="64.30653381" lon="-20.19201088"><ele>178.4</ele><time>2012-07-20T13:52:44.0000000+00:00</time></trkpt><trkpt lat="64.30657196" lon="-20.19240379"><ele>178.7</ele><time>2012-07-20T13:52:49.0000000+00:00</time></trkpt><trkpt lat="64.30660248" lon="-20.19278526"><ele>177.3</ele><time>2012-07-20T13:52:54.0000000+00:00</time></trkpt><trkpt lat="64.30664825" lon="-20.19315529"><ele>176.4</ele><time>2012-07-20T13:52:59.0000000+00:00</time></trkpt><trkpt lat="64.3066864" lon="-20.19353294"><ele>177.1</ele><time>2012-07-20T13:53:04.0000000+00:00</time></trkpt><trkpt lat="64.30673218" lon="-20.19392967"><ele>176.0</ele><time>2012-07-20T13:53:09.0000000+00:00</time></trkpt><trkpt lat="64.30677033" lon="-20.19435501"><ele>174.4</ele><time>2012-07-20T13:53:14.0000000+00:00</time></trkpt><trkpt lat="64.30682373" lon="-20.19491005"><ele>173.4</ele><time>2012-07-20T13:53:19.0000000+00:00</time></trkpt><trkpt lat="64.3068924" lon="-20.19555283"><ele>172.6</ele><time>2012-07-20T13:53:24.0000000+00:00</time></trkpt><trkpt lat="64.30696106" lon="-20.19626999"><ele>170.8</ele><time>2012-07-20T13:53:29.0000000+00:00</time></trkpt><trkpt lat="64.3070221" lon="-20.19706154"><ele>169.9</ele><time>2012-07-20T13:53:34.0000000+00:00</time></trkpt><trkpt lat="64.30708313" lon="-20.19791031"><ele>168.1</ele><time>2012-07-20T13:53:39.0000000+00:00</time></trkpt><trkpt lat="64.30715179" lon="-20.19871521"><ele>165.6</ele><time>2012-07-20T13:53:44.0000000+00:00</time></trkpt><trkpt lat="64.30719757" lon="-20.19947052"><ele>165.5</ele><time>2012-07-20T13:53:49.0000000+00:00</time></trkpt><trkpt lat="64.30724335" lon="-20.20011902"><ele>163.2</ele><time>2012-07-20T13:53:54.0000000+00:00</time></trkpt><trkpt lat="64.30729675" lon="-20.20080376"><ele>162.8</ele><time>2012-07-20T13:53:59.0000000+00:00</time></trkpt><trkpt lat="64.30735016" lon="-20.20149231"><ele>162.4</ele><time>2012-07-20T13:54:04.0000000+00:00</time></trkpt><trkpt lat="64.30739594" lon="-20.20218468"><ele>161.2</ele><time>2012-07-20T13:54:09.0000000+00:00</time></trkpt><trkpt lat="64.30744934" lon="-20.20291328"><ele>161.1</ele><time>2012-07-20T13:54:14.0000000+00:00</time></trkpt><trkpt lat="64.30751038" lon="-20.20360184"><ele>160.7</ele><time>2012-07-20T13:54:19.0000000+00:00</time></trkpt><trkpt lat="64.30755615" lon="-20.2042923"><ele>159.8</ele><time>2012-07-20T13:54:24.0000000+00:00</time></trkpt><trkpt lat="64.30760956" lon="-20.20485306"><ele>159.5</ele><time>2012-07-20T13:54:29.0000000+00:00</time></trkpt><trkpt lat="64.30764771" lon="-20.20540428"><ele>159.6</ele><time>2012-07-20T13:54:34.0000000+00:00</time></trkpt><trkpt lat="64.30769348" lon="-20.20599175"><ele>160.5</ele><time>2012-07-20T13:54:39.0000000+00:00</time></trkpt><trkpt lat="64.30773163" lon="-20.2066536"><ele>161.1</ele><time>2012-07-20T13:54:44.0000000+00:00</time></trkpt><trkpt lat="64.30779266" lon="-20.2072525"><ele>160.9</ele><time>2012-07-20T13:54:49.0000000+00:00</time></trkpt><trkpt lat="64.30783844" lon="-20.20787811"><ele>160.4</ele><time>2012-07-20T13:54:54.0000000+00:00</time></trkpt><trkpt lat="64.30789185" lon="-20.2085495"><ele>159.4</ele><time>2012-07-20T13:54:59.0000000+00:00</time></trkpt><trkpt lat="64.30793762" lon="-20.20926857"><ele>159.6</ele><time>2012-07-20T13:55:04.0000000+00:00</time></trkpt><trkpt lat="64.30799103" lon="-20.20998192"><ele>155.0</ele><time>2012-07-20T13:55:09.0000000+00:00</time></trkpt><trkpt lat="64.3080368" lon="-20.21066284"><ele>152.4</ele><time>2012-07-20T13:55:14.0000000+00:00</time></trkpt><trkpt lat="64.30809021" lon="-20.21132278"><ele>151.8</ele><time>2012-07-20T13:55:19.0000000+00:00</time></trkpt><trkpt lat="64.30814362" lon="-20.21198463"><ele>152.7</ele><time>2012-07-20T13:55:24.0000000+00:00</time></trkpt><trkpt lat="64.30818939" lon="-20.21263313"><ele>151.2</ele><time>2012-07-20T13:55:29.0000000+00:00</time></trkpt><trkpt lat="64.30823517" lon="-20.21335602"><ele>150.7</ele><time>2012-07-20T13:55:34.0000000+00:00</time></trkpt><trkpt lat="64.30830383" lon="-20.21415329"><ele>150.0</ele><time>2012-07-20T13:55:39.0000000+00:00</time></trkpt><trkpt lat="64.30836487" lon="-20.21500206"><ele>148.5</ele><time>2012-07-20T13:55:44.0000000+00:00</time></trkpt><trkpt lat="64.30844116" lon="-20.21590614"><ele>146.0</ele><time>2012-07-20T13:55:49.0000000+00:00</time></trkpt><trkpt lat="64.30850983" lon="-20.21683884"><ele>144.7</ele><time>2012-07-20T13:55:54.0000000+00:00</time></trkpt><trkpt lat="64.30857849" lon="-20.2177372"><ele>142.1</ele><time>2012-07-20T13:55:59.0000000+00:00</time></trkpt><trkpt lat="64.30864716" lon="-20.21858025"><ele>139.9</ele><time>2012-07-20T13:56:04.0000000+00:00</time></trkpt><trkpt lat="64.30870819" lon="-20.21940613"><ele>137.8</ele><time>2012-07-20T13:56:09.0000000+00:00</time></trkpt><trkpt lat="64.30876923" lon="-20.22024155"><ele>136.5</ele><time>2012-07-20T13:56:14.0000000+00:00</time></trkpt><trkpt lat="64.30883026" lon="-20.22111893"><ele>136.3</ele><time>2012-07-20T13:56:19.0000000+00:00</time></trkpt><trkpt lat="64.30891419" lon="-20.2219944"><ele>134.6</ele><time>2012-07-20T13:56:24.0000000+00:00</time></trkpt><trkpt lat="64.30896759" lon="-20.22284699"><ele>133.3</ele><time>2012-07-20T13:56:29.0000000+00:00</time></trkpt><trkpt lat="64.30904388" lon="-20.22374344"><ele>130.8</ele><time>2012-07-20T13:56:34.0000000+00:00</time></trkpt><trkpt lat="64.30911255" lon="-20.2246151"><ele>127.4</ele><time>2012-07-20T13:56:39.0000000+00:00</time></trkpt><trkpt lat="64.30918121" lon="-20.22553062"><ele>125.5</ele><time>2012-07-20T13:56:44.0000000+00:00</time></trkpt><trkpt lat="64.30924225" lon="-20.22633743"><ele>124.1</ele><time>2012-07-20T13:56:49.0000000+00:00</time></trkpt><trkpt lat="64.30930328" lon="-20.22711754"><ele>123.2</ele><time>2012-07-20T13:56:54.0000000+00:00</time></trkpt><trkpt lat="64.30934906" lon="-20.22784996"><ele>123.9</ele><time>2012-07-20T13:56:59.0000000+00:00</time></trkpt><trkpt lat="64.30939484" lon="-20.22851563"><ele>121.7</ele><time>2012-07-20T13:57:04.0000000+00:00</time></trkpt><trkpt lat="64.30944824" lon="-20.22916794"><ele>122.0</ele><time>2012-07-20T13:57:09.0000000+00:00</time></trkpt><trkpt lat="64.30950165" lon="-20.22978783"><ele>121.7</ele><time>2012-07-20T13:57:14.0000000+00:00</time></trkpt><trkpt lat="64.30953217" lon="-20.23023224"><ele>120.9</ele><time>2012-07-20T13:57:19.0000000+00:00</time></trkpt><trkpt lat="64.30956268" lon="-20.23052025"><ele>120.7</ele><time>2012-07-20T13:57:24.0000000+00:00</time></trkpt><trkpt lat="64.30956268" lon="-20.2307148"><ele>120.8</ele><time>2012-07-20T13:57:29.0000000+00:00</time></trkpt><trkpt lat="64.30948639" lon="-20.23080254"><ele>121.1</ele><time>2012-07-20T13:57:34.0000000+00:00</time></trkpt><trkpt lat="64.30944061" lon="-20.23083496"><ele>121.5</ele><time>2012-07-20T13:57:39.0000000+00:00</time></trkpt><trkpt lat="64.30944061" lon="-20.23083305"><ele>121.3</ele><time>2012-07-20T13:57:44.0000000+00:00</time></trkpt><trkpt lat="64.30944061" lon="-20.23083115"><ele>121.3</ele><time>2012-07-20T13:57:49.0000000+00:00</time></trkpt><trkpt lat="64.30944061" lon="-20.23082924"><ele>121.2</ele><time>2012-07-20T13:57:54.0000000+00:00</time></trkpt><trkpt lat="64.30944061" lon="-20.23083115"><ele>121.2</ele><time>2012-07-20T13:57:59.0000000+00:00</time></trkpt><trkpt lat="64.30939484" lon="-20.23088646"><ele>121.7</ele><time>2012-07-20T13:58:04.0000000+00:00</time></trkpt><trkpt lat="64.3092804" lon="-20.23111725"><ele>121.1</ele><time>2012-07-20T13:58:09.0000000+00:00</time></trkpt><trkpt lat="64.30916596" lon="-20.23147392"><ele>120.7</ele><time>2012-07-20T13:58:14.0000000+00:00</time></trkpt><trkpt lat="64.30902863" lon="-20.23181725"><ele>120.3</ele><time>2012-07-20T13:58:19.0000000+00:00</time></trkpt><trkpt lat="64.30887604" lon="-20.23220635"><ele>120.3</ele><time>2012-07-20T13:58:24.0000000+00:00</time></trkpt><trkpt lat="64.30872345" lon="-20.23260689"><ele>120.7</ele><time>2012-07-20T13:58:29.0000000+00:00</time></trkpt><trkpt lat="64.3085556" lon="-20.23307037"><ele>119.9</ele><time>2012-07-20T13:58:34.0000000+00:00</time></trkpt><trkpt lat="64.30834961" lon="-20.23358154"><ele>114.5</ele><time>2012-07-20T13:58:39.0000000+00:00</time></trkpt><trkpt lat="64.3081665" lon="-20.23410225"><ele>114.7</ele><time>2012-07-20T13:58:44.0000000+00:00</time></trkpt><trkpt lat="64.30797577" lon="-20.23459244"><ele>114.5</ele><time>2012-07-20T13:58:49.0000000+00:00</time></trkpt><trkpt lat="64.30780029" lon="-20.23506928"><ele>116.5</ele><time>2012-07-20T13:58:54.0000000+00:00</time></trkpt><trkpt lat="64.30762482" lon="-20.23553848"><ele>118.4</ele><time>2012-07-20T13:58:59.0000000+00:00</time></trkpt><trkpt lat="64.30745697" lon="-20.23599815"><ele>119.1</ele><time>2012-07-20T13:59:04.0000000+00:00</time></trkpt><trkpt lat="64.30728149" lon="-20.23646545"><ele>118.3</ele><time>2012-07-20T13:59:09.0000000+00:00</time></trkpt><trkpt lat="64.30710602" lon="-20.23694038"><ele>118.8</ele><time>2012-07-20T13:59:14.0000000+00:00</time></trkpt><trkpt lat="64.30692291" lon="-20.23740578"><ele>118.3</ele><time>2012-07-20T13:59:19.0000000+00:00</time></trkpt><trkpt lat="64.3067627" lon="-20.237854"><ele>119.0</ele><time>2012-07-20T13:59:24.0000000+00:00</time></trkpt><trkpt lat="64.30662537" lon="-20.23822022"><ele>118.9</ele><time>2012-07-20T13:59:29.0000000+00:00</time></trkpt><trkpt lat="64.30645752" lon="-20.23861504"><ele>115.2</ele><time>2012-07-20T13:59:34.0000000+00:00</time></trkpt><trkpt lat="64.3062973" lon="-20.23903275"><ele>116.2</ele><time>2012-07-20T13:59:39.0000000+00:00</time></trkpt><trkpt lat="64.30615997" lon="-20.23944283"><ele>118.8</ele><time>2012-07-20T13:59:44.0000000+00:00</time></trkpt><trkpt lat="64.30600739" lon="-20.23986435"><ele>119.2</ele><time>2012-07-20T13:59:49.0000000+00:00</time></trkpt><trkpt lat="64.30584717" lon="-20.24033546"><ele>117.7</ele><time>2012-07-20T13:59:54.0000000+00:00</time></trkpt><trkpt lat="64.30567169" lon="-20.24083328"><ele>116.5</ele><time>2012-07-20T13:59:59.0000000+00:00</time></trkpt><trkpt lat="64.30545807" lon="-20.24130821"><ele>115.7</ele><time>2012-07-20T14:00:04.0000000+00:00</time></trkpt><trkpt lat="64.30525971" lon="-20.241745"><ele>114.8</ele><time>2012-07-20T14:00:09.0000000+00:00</time></trkpt><trkpt lat="64.30509949" lon="-20.24205208"><ele>116.0</ele><time>2012-07-20T14:00:14.0000000+00:00</time></trkpt><trkpt lat="64.30493927" lon="-20.24226379"><ele>116.1</ele><time>2012-07-20T14:00:19.0000000+00:00</time></trkpt><trkpt lat="64.30476379" lon="-20.24240685"><ele>116.4</ele><time>2012-07-20T14:00:24.0000000+00:00</time></trkpt><trkpt lat="64.30457306" lon="-20.24247932"><ele>116.4</ele><time>2012-07-20T14:00:29.0000000+00:00</time></trkpt><trkpt lat="64.30439758" lon="-20.24251938"><ele>116.7</ele><time>2012-07-20T14:00:34.0000000+00:00</time></trkpt><trkpt lat="64.30425263" lon="-20.24254036"><ele>117.2</ele><time>2012-07-20T14:00:39.0000000+00:00</time></trkpt><trkpt lat="64.30412293" lon="-20.24256134"><ele>118.3</ele><time>2012-07-20T14:00:44.0000000+00:00</time></trkpt><trkpt lat="64.30400085" lon="-20.2425766"><ele>119.4</ele><time>2012-07-20T14:00:49.0000000+00:00</time></trkpt><trkpt lat="64.30387878" lon="-20.24257851"><ele>119.9</ele><time>2012-07-20T14:00:54.0000000+00:00</time></trkpt><trkpt lat="64.30375671" lon="-20.24258995"><ele>120.9</ele><time>2012-07-20T14:00:59.0000000+00:00</time></trkpt><trkpt lat="64.30362701" lon="-20.24259567"><ele>121.4</ele><time>2012-07-20T14:01:04.0000000+00:00</time></trkpt><trkpt lat="64.3034668" lon="-20.24261475"><ele>121.7</ele><time>2012-07-20T14:01:09.0000000+00:00</time></trkpt><trkpt lat="64.30329895" lon="-20.24264908"><ele>120.7</ele><time>2012-07-20T14:01:14.0000000+00:00</time></trkpt><trkpt lat="64.30311585" lon="-20.24267197"><ele>121.7</ele><time>2012-07-20T14:01:19.0000000+00:00</time></trkpt><trkpt lat="64.30294037" lon="-20.24268532"><ele>121.4</ele><time>2012-07-20T14:01:24.0000000+00:00</time></trkpt><trkpt lat="64.30276489" lon="-20.24270058"><ele>119.8</ele><time>2012-07-20T14:01:29.0000000+00:00</time></trkpt><trkpt lat="64.30259705" lon="-20.24273109"><ele>121.1</ele><time>2012-07-20T14:01:34.0000000+00:00</time></trkpt><trkpt lat="64.30245972" lon="-20.24275589"><ele>122.6</ele><time>2012-07-20T14:01:39.0000000+00:00</time></trkpt><trkpt lat="64.30233002" lon="-20.24278069"><ele>122.8</ele><time>2012-07-20T14:01:44.0000000+00:00</time></trkpt><trkpt lat="64.30223846" lon="-20.24279213"><ele>122.6</ele><time>2012-07-20T14:01:49.0000000+00:00</time></trkpt><trkpt lat="64.30212402" lon="-20.24279213"><ele>122.0</ele><time>2012-07-20T14:01:54.0000000+00:00</time></trkpt><trkpt lat="64.30200195" lon="-20.24278832"><ele>122.3</ele><time>2012-07-20T14:01:59.0000000+00:00</time></trkpt><trkpt lat="64.30187225" lon="-20.24281883"><ele>120.7</ele><time>2012-07-20T14:02:04.0000000+00:00</time></trkpt><trkpt lat="64.30174255" lon="-20.24284935"><ele>121.1</ele><time>2012-07-20T14:02:09.0000000+00:00</time></trkpt><trkpt lat="64.30160523" lon="-20.24286461"><ele>121.8</ele><time>2012-07-20T14:02:14.0000000+00:00</time></trkpt><trkpt lat="64.30148315" lon="-20.24287987"><ele>123.7</ele><time>2012-07-20T14:02:19.0000000+00:00</time></trkpt><trkpt lat="64.30136871" lon="-20.24291802"><ele>125.1</ele><time>2012-07-20T14:02:24.0000000+00:00</time></trkpt><trkpt lat="64.30123138" lon="-20.24293709"><ele>125.6</ele><time>2012-07-20T14:02:29.0000000+00:00</time></trkpt><trkpt lat="64.30113983" lon="-20.24292946"><ele>124.8</ele><time>2012-07-20T14:02:34.0000000+00:00</time></trkpt><trkpt lat="64.30101776" lon="-20.24295044"><ele>124.7</ele><time>2012-07-20T14:02:39.0000000+00:00</time></trkpt><trkpt lat="64.30091858" lon="-20.24294281"><ele>126.8</ele><time>2012-07-20T14:02:44.0000000+00:00</time></trkpt><trkpt lat="64.3008194" lon="-20.24295044"><ele>128.5</ele><time>2012-07-20T14:02:49.0000000+00:00</time></trkpt><trkpt lat="64.30072022" lon="-20.2429657"><ele>129.1</ele><time>2012-07-20T14:02:54.0000000+00:00</time></trkpt><trkpt lat="64.30060577" lon="-20.24299622"><ele>129.7</ele><time>2012-07-20T14:02:59.0000000+00:00</time></trkpt><trkpt lat="64.3004837" lon="-20.24301338"><ele>130.1</ele><time>2012-07-20T14:03:04.0000000+00:00</time></trkpt><trkpt lat="64.30034638" lon="-20.24302101"><ele>130.4</ele><time>2012-07-20T14:03:09.0000000+00:00</time></trkpt><trkpt lat="64.30021668" lon="-20.24299622"><ele>130.5</ele><time>2012-07-20T14:03:14.0000000+00:00</time></trkpt><trkpt lat="64.30008698" lon="-20.24299622"><ele>130.0</ele><time>2012-07-20T14:03:19.0000000+00:00</time></trkpt><trkpt lat="64.29994202" lon="-20.24300385"><ele>130.3</ele><time>2012-07-20T14:03:24.0000000+00:00</time></trkpt><trkpt lat="64.29981995" lon="-20.2430172"><ele>130.7</ele><time>2012-07-20T14:03:29.0000000+00:00</time></trkpt><trkpt lat="64.29971314" lon="-20.24305534"><ele>133.0</ele><time>2012-07-20T14:03:34.0000000+00:00</time></trkpt><trkpt lat="64.29959106" lon="-20.24301338"><ele>134.7</ele><time>2012-07-20T14:03:39.0000000+00:00</time></trkpt><trkpt lat="64.29946899" lon="-20.2429924"><ele>135.4</ele><time>2012-07-20T14:03:44.0000000+00:00</time></trkpt><trkpt lat="64.29933929" lon="-20.24295235"><ele>136.1</ele><time>2012-07-20T14:03:49.0000000+00:00</time></trkpt><trkpt lat="64.29922485" lon="-20.24290848"><ele>135.8</ele><time>2012-07-20T14:03:54.0000000+00:00</time></trkpt><trkpt lat="64.29910278" lon="-20.2428627"><ele>135.6</ele><time>2012-07-20T14:03:59.0000000+00:00</time></trkpt><trkpt lat="64.29897308" lon="-20.2428093"><ele>135.4</ele><time>2012-07-20T14:04:04.0000000+00:00</time></trkpt><trkpt lat="64.29885101" lon="-20.24278259"><ele>134.9</ele><time>2012-07-20T14:04:09.0000000+00:00</time></trkpt><trkpt lat="64.29872894" lon="-20.24271202"><ele>135.4</ele><time>2012-07-20T14:04:14.0000000+00:00</time></trkpt><trkpt lat="64.2986145" lon="-20.24264145"><ele>136.1</ele><time>2012-07-20T14:04:19.0000000+00:00</time></trkpt><trkpt lat="64.29851532" lon="-20.24257278"><ele>136.0</ele><time>2012-07-20T14:04:24.0000000+00:00</time></trkpt><trkpt lat="64.29843903" lon="-20.24250221"><ele>136.7</ele><time>2012-07-20T14:04:29.0000000+00:00</time></trkpt><trkpt lat="64.29834747" lon="-20.2424221"><ele>136.3</ele><time>2012-07-20T14:04:34.0000000+00:00</time></trkpt><trkpt lat="64.29824829" lon="-20.24233627"><ele>136.6</ele><time>2012-07-20T14:04:39.0000000+00:00</time></trkpt><trkpt lat="64.29815674" lon="-20.24223328"><ele>136.2</ele><time>2012-07-20T14:04:44.0000000+00:00</time></trkpt><trkpt lat="64.29805756" lon="-20.2421608"><ele>135.7</ele><time>2012-07-20T14:04:49.0000000+00:00</time></trkpt><trkpt lat="64.29795075" lon="-20.24204445"><ele>135.3</ele><time>2012-07-20T14:04:54.0000000+00:00</time></trkpt><trkpt lat="64.2978363" lon="-20.24192619"><ele>134.6</ele><time>2012-07-20T14:04:59.0000000+00:00</time></trkpt><trkpt lat="64.29776001" lon="-20.24183846"><ele>134.4</ele><time>2012-07-20T14:05:04.0000000+00:00</time></trkpt><trkpt lat="64.29767609" lon="-20.24172211"><ele>134.6</ele><time>2012-07-20T14:05:09.0000000+00:00</time></trkpt><trkpt lat="64.29758453" lon="-20.24160385"><ele>135.7</ele><time>2012-07-20T14:05:14.0000000+00:00</time></trkpt><trkpt lat="64.29747772" lon="-20.24146652"><ele>135.6</ele><time>2012-07-20T14:05:19.0000000+00:00</time></trkpt><trkpt lat="64.2973938" lon="-20.24134255"><ele>135.9</ele><time>2012-07-20T14:05:24.0000000+00:00</time></trkpt><trkpt lat="64.29731751" lon="-20.24123955"><ele>137.1</ele><time>2012-07-20T14:05:29.0000000+00:00</time></trkpt><trkpt lat="64.29723358" lon="-20.24108887"><ele>137.6</ele><time>2012-07-20T14:05:34.0000000+00:00</time></trkpt><trkpt lat="64.29715729" lon="-20.24094963"><ele>137.6</ele><time>2012-07-20T14:05:39.0000000+00:00</time></trkpt><trkpt lat="64.29706574" lon="-20.24078751"><ele>138.4</ele><time>2012-07-20T14:05:44.0000000+00:00</time></trkpt><trkpt lat="64.29698944" lon="-20.24062538"><ele>138.7</ele><time>2012-07-20T14:05:49.0000000+00:00</time></trkpt><trkpt lat="64.29689026" lon="-20.24043274"><ele>139.4</ele><time>2012-07-20T14:05:54.0000000+00:00</time></trkpt><trkpt lat="64.29679108" lon="-20.24021721"><ele>140.3</ele><time>2012-07-20T14:05:59.0000000+00:00</time></trkpt><trkpt lat="64.29666138" lon="-20.23998261"><ele>138.9</ele><time>2012-07-20T14:06:04.0000000+00:00</time></trkpt><trkpt lat="64.29649353" lon="-20.23967934"><ele>142.0</ele><time>2012-07-20T14:06:09.0000000+00:00</time></trkpt><trkpt lat="64.29637909" lon="-20.23941803"><ele>141.4</ele><time>2012-07-20T14:06:14.0000000+00:00</time></trkpt><trkpt lat="64.29624939" lon="-20.23915482"><ele>141.0</ele><time>2012-07-20T14:06:19.0000000+00:00</time></trkpt><trkpt lat="64.29611969" lon="-20.23891258"><ele>141.3</ele><time>2012-07-20T14:06:24.0000000+00:00</time></trkpt><trkpt lat="64.2959671" lon="-20.23869705"><ele>140.7</ele><time>2012-07-20T14:06:29.0000000+00:00</time></trkpt><trkpt lat="64.29582214" lon="-20.23846054"><ele>140.2</ele><time>2012-07-20T14:06:34.0000000+00:00</time></trkpt><trkpt lat="64.29568481" lon="-20.23826218"><ele>139.8</ele><time>2012-07-20T14:06:39.0000000+00:00</time></trkpt><trkpt lat="64.29553986" lon="-20.23807144"><ele>139.7</ele><time>2012-07-20T14:06:44.0000000+00:00</time></trkpt><trkpt lat="64.29538727" lon="-20.23788071"><ele>140.4</ele><time>2012-07-20T14:06:49.0000000+00:00</time></trkpt><trkpt lat="64.29524231" lon="-20.23769379"><ele>139.8</ele><time>2012-07-20T14:06:54.0000000+00:00</time></trkpt><trkpt lat="64.29509735" lon="-20.2375145"><ele>139.1</ele><time>2012-07-20T14:06:59.0000000+00:00</time></trkpt><trkpt lat="64.29494476" lon="-20.23731422"><ele>138.8</ele><time>2012-07-20T14:07:04.0000000+00:00</time></trkpt><trkpt lat="64.29478455" lon="-20.23712349"><ele>138.1</ele><time>2012-07-20T14:07:09.0000000+00:00</time></trkpt><trkpt lat="64.29460907" lon="-20.23696327"><ele>138.7</ele><time>2012-07-20T14:07:14.0000000+00:00</time></trkpt><trkpt lat="64.29444122" lon="-20.23682976"><ele>138.8</ele><time>2012-07-20T14:07:19.0000000+00:00</time></trkpt><trkpt lat="64.29428864" lon="-20.23674393"><ele>138.6</ele><time>2012-07-20T14:07:24.0000000+00:00</time></trkpt><trkpt lat="64.29415131" lon="-20.23666763"><ele>138.5</ele><time>2012-07-20T14:07:29.0000000+00:00</time></trkpt><trkpt lat="64.29399109" lon="-20.23656273"><ele>138.2</ele><time>2012-07-20T14:07:34.0000000+00:00</time></trkpt><trkpt lat="64.29380798" lon="-20.23644829"><ele>138.2</ele><time>2012-07-20T14:07:39.0000000+00:00</time></trkpt><trkpt lat="64.29361725" lon="-20.23632813"><ele>136.9</ele><time>2012-07-20T14:07:44.0000000+00:00</time></trkpt><trkpt lat="64.29343414" lon="-20.23616409"><ele>136.1</ele><time>2012-07-20T14:07:49.0000000+00:00</time></trkpt><trkpt lat="64.29325867" lon="-20.23601914"><ele>135.8</ele><time>2012-07-20T14:07:54.0000000+00:00</time></trkpt><trkpt lat="64.29309845" lon="-20.23590469"><ele>136.0</ele><time>2012-07-20T14:07:59.0000000+00:00</time></trkpt><trkpt lat="64.29293823" lon="-20.23577881"><ele>136.1</ele><time>2012-07-20T14:08:04.0000000+00:00</time></trkpt><trkpt lat="64.29276276" lon="-20.23561478"><ele>136.2</ele><time>2012-07-20T14:08:09.0000000+00:00</time></trkpt><trkpt lat="64.29258728" lon="-20.23546028"><ele>135.9</ele><time>2012-07-20T14:08:14.0000000+00:00</time></trkpt><trkpt lat="64.29241943" lon="-20.23530388"><ele>135.7</ele><time>2012-07-20T14:08:19.0000000+00:00</time></trkpt><trkpt lat="64.29228973" lon="-20.23518372"><ele>135.3</ele><time>2012-07-20T14:08:24.0000000+00:00</time></trkpt><trkpt lat="64.29216003" lon="-20.23504257"><ele>134.7</ele><time>2012-07-20T14:08:29.0000000+00:00</time></trkpt><trkpt lat="64.29202271" lon="-20.23487854"><ele>134.2</ele><time>2012-07-20T14:08:34.0000000+00:00</time></trkpt><trkpt lat="64.29192352" lon="-20.2347641"><ele>134.4</ele><time>2012-07-20T14:08:39.0000000+00:00</time></trkpt><trkpt lat="64.29184723" lon="-20.23467064"><ele>134.9</ele><time>2012-07-20T14:08:44.0000000+00:00</time></trkpt><trkpt lat="64.29177094" lon="-20.23456383"><ele>134.7</ele><time>2012-07-20T14:08:49.0000000+00:00</time></trkpt><trkpt lat="64.29169464" lon="-20.23445129"><ele>135.3</ele><time>2012-07-20T14:08:54.0000000+00:00</time></trkpt><trkpt lat="64.29160309" lon="-20.23432922"><ele>135.4</ele><time>2012-07-20T14:08:59.0000000+00:00</time></trkpt><trkpt lat="64.29151917" lon="-20.23420715"><ele>135.2</ele><time>2012-07-20T14:09:04.0000000+00:00</time></trkpt><trkpt lat="64.29141235" lon="-20.23407555"><ele>135.3</ele><time>2012-07-20T14:09:09.0000000+00:00</time></trkpt><trkpt lat="64.29130554" lon="-20.2339344"><ele>135.5</ele><time>2012-07-20T14:09:14.0000000+00:00</time></trkpt><trkpt lat="64.29120636" lon="-20.23378944"><ele>136.1</ele><time>2012-07-20T14:09:19.0000000+00:00</time></trkpt><trkpt lat="64.29110718" lon="-20.23361206"><ele>134.2</ele><time>2012-07-20T14:09:24.0000000+00:00</time></trkpt><trkpt lat="64.29099274" lon="-20.23344421"><ele>134.8</ele><time>2012-07-20T14:09:29.0000000+00:00</time></trkpt><trkpt lat="64.2908783" lon="-20.23325729"><ele>135.0</ele><time>2012-07-20T14:09:34.0000000+00:00</time></trkpt><trkpt lat="64.2907486" lon="-20.23304367"><ele>134.0</ele><time>2012-07-20T14:09:39.0000000+00:00</time></trkpt><trkpt lat="64.29062653" lon="-20.23283196"><ele>133.8</ele><time>2012-07-20T14:09:44.0000000+00:00</time></trkpt><trkpt lat="64.29049683" lon="-20.23259544"><ele>133.2</ele><time>2012-07-20T14:09:49.0000000+00:00</time></trkpt><trkpt lat="64.29034424" lon="-20.23233986"><ele>133.5</ele><time>2012-07-20T14:09:54.0000000+00:00</time></trkpt><trkpt lat="64.29019928" lon="-20.23209763"><ele>133.7</ele><time>2012-07-20T14:09:59.0000000+00:00</time></trkpt><trkpt lat="64.29006195" lon="-20.23185158"><ele>135.6</ele><time>2012-07-20T14:10:04.0000000+00:00</time></trkpt><trkpt lat="64.28992462" lon="-20.23159981"><ele>136.5</ele><time>2012-07-20T14:10:09.0000000+00:00</time></trkpt><trkpt lat="64.28978729" lon="-20.23136902"><ele>136.1</ele><time>2012-07-20T14:10:14.0000000+00:00</time></trkpt><trkpt lat="64.28964233" lon="-20.23113251"><ele>134.3</ele><time>2012-07-20T14:10:19.0000000+00:00</time></trkpt><trkpt lat="64.28948212" lon="-20.23087883"><ele>134.0</ele><time>2012-07-20T14:10:24.0000000+00:00</time></trkpt><trkpt lat="64.28931427" lon="-20.23059082"><ele>133.1</ele><time>2012-07-20T14:10:29.0000000+00:00</time></trkpt><trkpt lat="64.28915405" lon="-20.23029709"><ele>133.2</ele><time>2012-07-20T14:10:34.0000000+00:00</time></trkpt><trkpt lat="64.28898621" lon="-20.22999573"><ele>133.3</ele><time>2012-07-20T14:10:39.0000000+00:00</time></trkpt><trkpt lat="64.28879547" lon="-20.22968292"><ele>132.5</ele><time>2012-07-20T14:10:44.0000000+00:00</time></trkpt><trkpt lat="64.28860474" lon="-20.22936249"><ele>132.4</ele><time>2012-07-20T14:10:49.0000000+00:00</time></trkpt><trkpt lat="64.28843689" lon="-20.22904205"><ele>131.9</ele><time>2012-07-20T14:10:54.0000000+00:00</time></trkpt><trkpt lat="64.28825378" lon="-20.22873879"><ele>131.7</ele><time>2012-07-20T14:10:59.0000000+00:00</time></trkpt><trkpt lat="64.28807068" lon="-20.22841454"><ele>130.5</ele><time>2012-07-20T14:11:04.0000000+00:00</time></trkpt><trkpt lat="64.28787231" lon="-20.22804451"><ele>129.0</ele><time>2012-07-20T14:11:09.0000000+00:00</time></trkpt><trkpt lat="64.28760529" lon="-20.22758865"><ele>127.2</ele><time>2012-07-20T14:11:14.0000000+00:00</time></trkpt><trkpt lat="64.287323" lon="-20.22710419"><ele>125.8</ele><time>2012-07-20T14:11:19.0000000+00:00</time></trkpt><trkpt lat="64.28704071" lon="-20.22663498"><ele>124.5</ele><time>2012-07-20T14:11:24.0000000+00:00</time></trkpt><trkpt lat="64.28678894" lon="-20.22624207"><ele>126.1</ele><time>2012-07-20T14:11:29.0000000+00:00</time></trkpt><trkpt lat="64.28658295" lon="-20.22597694"><ele>126.0</ele><time>2012-07-20T14:11:34.0000000+00:00</time></trkpt><trkpt lat="64.28635407" lon="-20.22572899"><ele>125.4</ele><time>2012-07-20T14:11:39.0000000+00:00</time></trkpt><trkpt lat="64.28614044" lon="-20.2255249"><ele>124.8</ele><time>2012-07-20T14:11:44.0000000+00:00</time></trkpt><trkpt lat="64.28595734" lon="-20.22537613"><ele>125.0</ele><time>2012-07-20T14:11:49.0000000+00:00</time></trkpt><trkpt lat="64.2857666" lon="-20.22525787"><ele>125.2</ele><time>2012-07-20T14:11:54.0000000+00:00</time></trkpt><trkpt lat="64.28553772" lon="-20.22517967"><ele>125.0</ele><time>2012-07-20T14:11:59.0000000+00:00</time></trkpt><trkpt lat="64.28530884" lon="-20.22514153"><ele>124.6</ele><time>2012-07-20T14:12:04.0000000+00:00</time></trkpt><trkpt lat="64.28511047" lon="-20.22512245"><ele>124.2</ele><time>2012-07-20T14:12:09.0000000+00:00</time></trkpt><trkpt lat="64.28488922" lon="-20.22512627"><ele>123.7</ele><time>2012-07-20T14:12:14.0000000+00:00</time></trkpt><trkpt lat="64.28464508" lon="-20.22512054"><ele>122.8</ele><time>2012-07-20T14:12:19.0000000+00:00</time></trkpt><trkpt lat="64.28439331" lon="-20.22509956"><ele>122.2</ele><time>2012-07-20T14:12:24.0000000+00:00</time></trkpt><trkpt lat="64.28414917" lon="-20.22509003"><ele>121.4</ele><time>2012-07-20T14:12:29.0000000+00:00</time></trkpt><trkpt lat="64.28392029" lon="-20.22506905"><ele>120.8</ele><time>2012-07-20T14:12:34.0000000+00:00</time></trkpt><trkpt lat="64.28367615" lon="-20.2250576"><ele>120.7</ele><time>2012-07-20T14:12:39.0000000+00:00</time></trkpt><trkpt lat="64.28343201" lon="-20.22505188"><ele>120.5</ele><time>2012-07-20T14:12:44.0000000+00:00</time></trkpt><trkpt lat="64.2831955" lon="-20.22503662"><ele>120.7</ele><time>2012-07-20T14:12:49.0000000+00:00</time></trkpt><trkpt lat="64.2829895" lon="-20.22501946"><ele>120.9</ele><time>2012-07-20T14:12:54.0000000+00:00</time></trkpt><trkpt lat="64.28282929" lon="-20.22501183"><ele>120.7</ele><time>2012-07-20T14:12:59.0000000+00:00</time></trkpt><trkpt lat="64.28268433" lon="-20.22499085"><ele>120.8</ele><time>2012-07-20T14:13:04.0000000+00:00</time></trkpt><trkpt lat="64.28251648" lon="-20.22498131"><ele>120.7</ele><time>2012-07-20T14:13:09.0000000+00:00</time></trkpt><trkpt lat="64.28234863" lon="-20.22496796"><ele>121.3</ele><time>2012-07-20T14:13:14.0000000+00:00</time></trkpt><trkpt lat="64.28218079" lon="-20.2249527"><ele>121.3</ele><time>2012-07-20T14:13:19.0000000+00:00</time></trkpt><trkpt lat="64.28201294" lon="-20.22495079"><ele>120.9</ele><time>2012-07-20T14:13:24.0000000+00:00</time></trkpt><trkpt lat="64.28184509" lon="-20.22494888"><ele>120.7</ele><time>2012-07-20T14:13:29.0000000+00:00</time></trkpt><trkpt lat="64.28164673" lon="-20.22494316"><ele>120.1</ele><time>2012-07-20T14:13:34.0000000+00:00</time></trkpt><trkpt lat="64.28144074" lon="-20.22493935"><ele>119.7</ele><time>2012-07-20T14:13:39.0000000+00:00</time></trkpt><trkpt lat="64.28122711" lon="-20.22492027"><ele>119.4</ele><time>2012-07-20T14:13:44.0000000+00:00</time></trkpt><trkpt lat="64.28100586" lon="-20.22490311"><ele>119.2</ele><time>2012-07-20T14:13:49.0000000+00:00</time></trkpt><trkpt lat="64.28077698" lon="-20.22490501"><ele>119.2</ele><time>2012-07-20T14:13:54.0000000+00:00</time></trkpt><trkpt lat="64.28056335" lon="-20.22491837"><ele>118.9</ele><time>2012-07-20T14:13:59.0000000+00:00</time></trkpt><trkpt lat="64.28036499" lon="-20.22496414"><ele>118.5</ele><time>2012-07-20T14:14:04.0000000+00:00</time></trkpt><trkpt lat="64.28017426" lon="-20.22504997"><ele>119.7</ele><time>2012-07-20T14:14:09.0000000+00:00</time></trkpt><trkpt lat="64.279953" lon="-20.22514153"><ele>118.6</ele><time>2012-07-20T14:14:14.0000000+00:00</time></trkpt><trkpt lat="64.2796936" lon="-20.22525215"><ele>117.9</ele><time>2012-07-20T14:14:19.0000000+00:00</time></trkpt><trkpt lat="64.27942658" lon="-20.22535896"><ele>116.7</ele><time>2012-07-20T14:14:24.0000000+00:00</time></trkpt><trkpt lat="64.27916718" lon="-20.22546005"><ele>116.5</ele><time>2012-07-20T14:14:29.0000000+00:00</time></trkpt><trkpt lat="64.27893066" lon="-20.22556305"><ele>116.0</ele><time>2012-07-20T14:14:34.0000000+00:00</time></trkpt><trkpt lat="64.27872467" lon="-20.22563362"><ele>116.2</ele><time>2012-07-20T14:14:39.0000000+00:00</time></trkpt><trkpt lat="64.27850342" lon="-20.22572327"><ele>115.5</ele><time>2012-07-20T14:14:44.0000000+00:00</time></trkpt><trkpt lat="64.27825928" lon="-20.22580338"><ele>115.0</ele><time>2012-07-20T14:14:49.0000000+00:00</time></trkpt><trkpt lat="64.27804565" lon="-20.22587776"><ele>115.3</ele><time>2012-07-20T14:14:54.0000000+00:00</time></trkpt><trkpt lat="64.27783966" lon="-20.22595978"><ele>115.3</ele><time>2012-07-20T14:14:59.0000000+00:00</time></trkpt><trkpt lat="64.27763367" lon="-20.22605705"><ele>115.9</ele><time>2012-07-20T14:15:04.0000000+00:00</time></trkpt><trkpt lat="64.27745819" lon="-20.22613907"><ele>116.5</ele><time>2012-07-20T14:15:09.0000000+00:00</time></trkpt><trkpt lat="64.27735901" lon="-20.22618866"><ele>117.0</ele><time>2012-07-20T14:15:14.0000000+00:00</time></trkpt><trkpt lat="64.27724457" lon="-20.22626686"><ele>117.1</ele><time>2012-07-20T14:15:19.0000000+00:00</time></trkpt><trkpt lat="64.27713776" lon="-20.22633553"><ele>117.6</ele><time>2012-07-20T14:15:24.0000000+00:00</time></trkpt><trkpt lat="64.27701569" lon="-20.22642517"><ele>118.2</ele><time>2012-07-20T14:15:29.0000000+00:00</time></trkpt><trkpt lat="64.27688599" lon="-20.22652626"><ele>117.7</ele><time>2012-07-20T14:15:34.0000000+00:00</time></trkpt><trkpt lat="64.27677918" lon="-20.22659111"><ele>118.5</ele><time>2012-07-20T14:15:39.0000000+00:00</time></trkpt><trkpt lat="64.2766571" lon="-20.22665978"><ele>118.9</ele><time>2012-07-20T14:15:44.0000000+00:00</time></trkpt><trkpt lat="64.27651978" lon="-20.22672081"><ele>119.0</ele><time>2012-07-20T14:15:49.0000000+00:00</time></trkpt><trkpt lat="64.27636719" lon="-20.22675514"><ele>119.4</ele><time>2012-07-20T14:15:54.0000000+00:00</time></trkpt><trkpt lat="64.2762146" lon="-20.22678947"><ele>120.1</ele><time>2012-07-20T14:15:59.0000000+00:00</time></trkpt><trkpt lat="64.27606201" lon="-20.22681427"><ele>120.5</ele><time>2012-07-20T14:16:04.0000000+00:00</time></trkpt><trkpt lat="64.27590942" lon="-20.22683525"><ele>120.6</ele><time>2012-07-20T14:16:09.0000000+00:00</time></trkpt><trkpt lat="64.27574158" lon="-20.22685432"><ele>120.7</ele><time>2012-07-20T14:16:14.0000000+00:00</time></trkpt><trkpt lat="64.27555847" lon="-20.22685242"><ele>121.3</ele><time>2012-07-20T14:16:19.0000000+00:00</time></trkpt><trkpt lat="64.27536774" lon="-20.22684479"><ele>121.3</ele><time>2012-07-20T14:16:24.0000000+00:00</time></trkpt><trkpt lat="64.27519226" lon="-20.22685623"><ele>121.3</ele><time>2012-07-20T14:16:29.0000000+00:00</time></trkpt><trkpt lat="64.27502441" lon="-20.22685623"><ele>121.7</ele><time>2012-07-20T14:16:34.0000000+00:00</time></trkpt><trkpt lat="64.27483368" lon="-20.2268467"><ele>122.0</ele><time>2012-07-20T14:16:39.0000000+00:00</time></trkpt><trkpt lat="64.27465057" lon="-20.22685051"><ele>122.5</ele><time>2012-07-20T14:16:44.0000000+00:00</time></trkpt><trkpt lat="64.27445221" lon="-20.22683716"><ele>123.2</ele><time>2012-07-20T14:16:49.0000000+00:00</time></trkpt><trkpt lat="64.27426148" lon="-20.22681618"><ele>123.1</ele><time>2012-07-20T14:16:54.0000000+00:00</time></trkpt><trkpt lat="64.27407837" lon="-20.22677231"><ele>123.8</ele><time>2012-07-20T14:16:59.0000000+00:00</time></trkpt><trkpt lat="64.27387238" lon="-20.22668648"><ele>123.1</ele><time>2012-07-20T14:17:04.0000000+00:00</time></trkpt><trkpt lat="64.27367401" lon="-20.22657967"><ele>122.4</ele><time>2012-07-20T14:17:09.0000000+00:00</time></trkpt><trkpt lat="64.27348328" lon="-20.22646332"><ele>122.0</ele><time>2012-07-20T14:17:14.0000000+00:00</time></trkpt><trkpt lat="64.27330017" lon="-20.22635841"><ele>122.0</ele><time>2012-07-20T14:17:19.0000000+00:00</time></trkpt><trkpt lat="64.27309418" lon="-20.22624397"><ele>122.3</ele><time>2012-07-20T14:17:24.0000000+00:00</time></trkpt><trkpt lat="64.27288818" lon="-20.2261467"><ele>122.4</ele><time>2012-07-20T14:17:29.0000000+00:00</time></trkpt><trkpt lat="64.27267456" lon="-20.22605705"><ele>122.3</ele><time>2012-07-20T14:17:34.0000000+00:00</time></trkpt><trkpt lat="64.27244568" lon="-20.22598839"><ele>122.6</ele><time>2012-07-20T14:17:39.0000000+00:00</time></trkpt><trkpt lat="64.27223206" lon="-20.22596359"><ele>122.4</ele><time>2012-07-20T14:17:44.0000000+00:00</time></trkpt><trkpt lat="64.2720108" lon="-20.2259903"><ele>121.0</ele><time>2012-07-20T14:17:49.0000000+00:00</time></trkpt><trkpt lat="64.27177429" lon="-20.22604179"><ele>120.1</ele><time>2012-07-20T14:17:54.0000000+00:00</time></trkpt><trkpt lat="64.27156067" lon="-20.22611809"><ele>120.6</ele><time>2012-07-20T14:17:59.0000000+00:00</time></trkpt><trkpt lat="64.27136993" lon="-20.22624397"><ele>120.5</ele><time>2012-07-20T14:18:04.0000000+00:00</time></trkpt><trkpt lat="64.27118683" lon="-20.22636032"><ele>120.7</ele><time>2012-07-20T14:18:09.0000000+00:00</time></trkpt><trkpt lat="64.27098846" lon="-20.22647858"><ele>120.2</ele><time>2012-07-20T14:18:14.0000000+00:00</time></trkpt><trkpt lat="64.27077484" lon="-20.22657585"><ele>120.6</ele><time>2012-07-20T14:18:19.0000000+00:00</time></trkpt><trkpt lat="64.27055359" lon="-20.22664452"><ele>120.9</ele><time>2012-07-20T14:18:24.0000000+00:00</time></trkpt><trkpt lat="64.27033234" lon="-20.2266922"><ele>120.9</ele><time>2012-07-20T14:18:29.0000000+00:00</time></trkpt><trkpt lat="64.27010346" lon="-20.22668648"><ele>121.0</ele><time>2012-07-20T14:18:34.0000000+00:00</time></trkpt><trkpt lat="64.2698822" lon="-20.2266655"><ele>120.7</ele><time>2012-07-20T14:18:39.0000000+00:00</time></trkpt><trkpt lat="64.26966858" lon="-20.22659493"><ele>120.1</ele><time>2012-07-20T14:18:44.0000000+00:00</time></trkpt><trkpt lat="64.2694397" lon="-20.22650147"><ele>119.2</ele><time>2012-07-20T14:18:49.0000000+00:00</time></trkpt><trkpt lat="64.26921082" lon="-20.22635078"><ele>118.4</ele><time>2012-07-20T14:18:54.0000000+00:00</time></trkpt><trkpt lat="64.26895905" lon="-20.22616386"><ele>117.6</ele><time>2012-07-20T14:18:59.0000000+00:00</time></trkpt><trkpt lat="64.26869965" lon="-20.22592545"><ele>116.5</ele><time>2012-07-20T14:19:04.0000000+00:00</time></trkpt><trkpt lat="64.26843262" lon="-20.22570419"><ele>115.1</ele><time>2012-07-20T14:19:09.0000000+00:00</time></trkpt><trkpt lat="64.26818848" lon="-20.22549057"><ele>113.2</ele><time>2012-07-20T14:19:14.0000000+00:00</time></trkpt><trkpt lat="64.26796722" lon="-20.22530365"><ele>113.9</ele><time>2012-07-20T14:19:19.0000000+00:00</time></trkpt><trkpt lat="64.26776123" lon="-20.22513008"><ele>113.9</ele><time>2012-07-20T14:19:24.0000000+00:00</time></trkpt><trkpt lat="64.26757813" lon="-20.22497559"><ele>115.0</ele><time>2012-07-20T14:19:29.0000000+00:00</time></trkpt><trkpt lat="64.26742554" lon="-20.22484207"><ele>115.3</ele><time>2012-07-20T14:19:34.0000000+00:00</time></trkpt><trkpt lat="64.26728058" lon="-20.22470284"><ele>116.1</ele><time>2012-07-20T14:19:39.0000000+00:00</time></trkpt><trkpt lat="64.26715851" lon="-20.22459412"><ele>117.8</ele><time>2012-07-20T14:19:44.0000000+00:00</time></trkpt><trkpt lat="64.26699829" lon="-20.22447014"><ele>118.1</ele><time>2012-07-20T14:19:49.0000000+00:00</time></trkpt><trkpt lat="64.26683807" lon="-20.22434044"><ele>116.0</ele><time>2012-07-20T14:19:54.0000000+00:00</time></trkpt><trkpt lat="64.26667023" lon="-20.2241993"><ele>116.2</ele><time>2012-07-20T14:19:59.0000000+00:00</time></trkpt><trkpt lat="64.26651001" lon="-20.22405052"><ele>115.5</ele><time>2012-07-20T14:20:04.0000000+00:00</time></trkpt><trkpt lat="64.2663269" lon="-20.22389221"><ele>117.8</ele><time>2012-07-20T14:20:09.0000000+00:00</time></trkpt><trkpt lat="64.26615143" lon="-20.22375107"><ele>118.7</ele><time>2012-07-20T14:20:14.0000000+00:00</time></trkpt><trkpt lat="64.26595306" lon="-20.223629"><ele>117.0</ele><time>2012-07-20T14:20:19.0000000+00:00</time></trkpt><trkpt lat="64.26576233" lon="-20.22353363"><ele>118.2</ele><time>2012-07-20T14:20:24.0000000+00:00</time></trkpt><trkpt lat="64.26556397" lon="-20.22344971"><ele>117.6</ele><time>2012-07-20T14:20:29.0000000+00:00</time></trkpt><trkpt lat="64.26534271" lon="-20.2233963"><ele>115.9</ele><time>2012-07-20T14:20:34.0000000+00:00</time></trkpt><trkpt lat="64.26512146" lon="-20.2233696"><ele>114.7</ele><time>2012-07-20T14:20:39.0000000+00:00</time></trkpt><trkpt lat="64.26486969" lon="-20.22336769"><ele>113.0</ele><time>2012-07-20T14:20:44.0000000+00:00</time></trkpt><trkpt lat="64.26460266" lon="-20.22345924"><ele>111.8</ele><time>2012-07-20T14:20:49.0000000+00:00</time></trkpt><trkpt lat="64.26428986" lon="-20.22362328"><ele>109.4</ele><time>2012-07-20T14:20:54.0000000+00:00</time></trkpt><trkpt lat="64.26394653" lon="-20.22388268"><ele>105.8</ele><time>2012-07-20T14:20:59.0000000+00:00</time></trkpt><trkpt lat="64.26358032" lon="-20.22423935"><ele>103.3</ele><time>2012-07-20T14:21:04.0000000+00:00</time></trkpt><trkpt lat="64.26318359" lon="-20.22456741"><ele>100.5</ele><time>2012-07-20T14:21:09.0000000+00:00</time></trkpt><trkpt lat="64.26275635" lon="-20.22471619"><ele>98.4</ele><time>2012-07-20T14:21:14.0000000+00:00</time></trkpt><trkpt lat="64.26235962" lon="-20.22485542"><ele>97.1</ele><time>2012-07-20T14:21:19.0000000+00:00</time></trkpt><trkpt lat="64.26200867" lon="-20.22486115"><ele>96.9</ele><time>2012-07-20T14:21:24.0000000+00:00</time></trkpt><trkpt lat="64.26173401" lon="-20.22459602"><ele>97.1</ele><time>2012-07-20T14:21:29.0000000+00:00</time></trkpt><trkpt lat="64.26158142" lon="-20.22430229"><ele>97.3</ele><time>2012-07-20T14:21:34.0000000+00:00</time></trkpt><trkpt lat="64.26148987" lon="-20.22408676"><ele>97.8</ele><time>2012-07-20T14:21:39.0000000+00:00</time></trkpt><trkpt lat="64.26143646" lon="-20.22392082"><ele>98.1</ele><time>2012-07-20T14:21:44.0000000+00:00</time></trkpt><trkpt lat="64.2613678" lon="-20.22372055"><ele>98.6</ele><time>2012-07-20T14:21:49.0000000+00:00</time></trkpt><trkpt lat="64.2612915" lon="-20.22353172"><ele>98.2</ele><time>2012-07-20T14:21:54.0000000+00:00</time></trkpt><trkpt lat="64.2612381" lon="-20.22340202"><ele>96.1</ele><time>2012-07-20T14:21:59.0000000+00:00</time></trkpt><trkpt lat="64.26119995" lon="-20.22332382"><ele>95.0</ele><time>2012-07-20T14:22:04.0000000+00:00</time></trkpt><trkpt lat="64.26119995" lon="-20.22332001"><ele>95.4</ele><time>2012-07-20T14:22:09.0000000+00:00</time></trkpt><trkpt lat="64.26119232" lon="-20.22330856"><ele>95.4</ele><time>2012-07-20T14:22:14.0000000+00:00</time></trkpt><trkpt lat="64.26119232" lon="-20.22330856"><ele>95.4</ele><time>2012-07-20T14:22:19.0000000+00:00</time></trkpt><trkpt lat="64.26119232" lon="-20.22330856"><ele>95.4</ele><time>2012-07-20T14:22:24.0000000+00:00</time></trkpt><trkpt lat="64.26119232" lon="-20.22330856"><ele>95.4</ele><time>2012-07-20T14:22:29.0000000+00:00</time></trkpt><trkpt lat="64.26119232" lon="-20.22330856"><ele>95.4</ele><time>2012-07-20T14:22:34.0000000+00:00</time></trkpt><trkpt lat="64.26115418" lon="-20.22319794"><ele>95.9</ele><time>2012-07-20T14:22:39.0000000+00:00</time></trkpt><trkpt lat="64.26105499" lon="-20.22292519"><ele>96.0</ele><time>2012-07-20T14:22:44.0000000+00:00</time></trkpt><trkpt lat="64.26096344" lon="-20.22276306"><ele>96.8</ele><time>2012-07-20T14:22:49.0000000+00:00</time></trkpt><trkpt lat="64.26091003" lon="-20.22264862"><ele>98.7</ele><time>2012-07-20T14:22:54.0000000+00:00</time></trkpt><trkpt lat="64.26085663" lon="-20.22250557"><ele>99.6</ele><time>2012-07-20T14:22:59.0000000+00:00</time></trkpt><trkpt lat="64.26081848" lon="-20.22237206"><ele>100.9</ele><time>2012-07-20T14:23:04.0000000+00:00</time></trkpt><trkpt lat="64.26077271" lon="-20.22218132"><ele>101.5</ele><time>2012-07-20T14:23:09.0000000+00:00</time></trkpt><trkpt lat="64.26074219" lon="-20.22199249"><ele>101.5</ele><time>2012-07-20T14:23:14.0000000+00:00</time></trkpt><trkpt lat="64.26073456" lon="-20.22181511"><ele>101.6</ele><time>2012-07-20T14:23:19.0000000+00:00</time></trkpt><trkpt lat="64.26072693" lon="-20.22169304"><ele>102.0</ele><time>2012-07-20T14:23:24.0000000+00:00</time></trkpt><trkpt lat="64.26067352" lon="-20.22159767"><ele>102.3</ele><time>2012-07-20T14:23:29.0000000+00:00</time></trkpt><trkpt lat="64.2605896" lon="-20.22168922"><ele>104.0</ele><time>2012-07-20T14:23:34.0000000+00:00</time></trkpt><trkpt lat="64.26050568" lon="-20.22176552"><ele>105.2</ele><time>2012-07-20T14:23:39.0000000+00:00</time></trkpt><trkpt lat="64.26045227" lon="-20.22180557"><ele>106.9</ele><time>2012-07-20T14:23:44.0000000+00:00</time></trkpt><trkpt lat="64.26038361" lon="-20.22186852"><ele>108.8</ele><time>2012-07-20T14:23:49.0000000+00:00</time></trkpt><trkpt lat="64.26028442" lon="-20.22190285"><ele>108.3</ele><time>2012-07-20T14:23:54.0000000+00:00</time></trkpt><trkpt lat="64.26025391" lon="-20.2218914"><ele>108.2</ele><time>2012-07-20T14:23:59.0000000+00:00</time></trkpt><trkpt lat="64.26025391" lon="-20.22187233"><ele>108.4</ele><time>2012-07-20T14:24:04.0000000+00:00</time></trkpt><trkpt lat="64.26025391" lon="-20.22187614"><ele>108.5</ele><time>2012-07-20T14:24:09.0000000+00:00</time></trkpt><trkpt lat="64.26025391" lon="-20.22187614"><ele>108.5</ele><time>2012-07-20T14:24:14.0000000+00:00</time></trkpt><trkpt lat="64.26025391" lon="-20.22187614"><ele>108.5</ele><time>2012-07-20T14:24:19.0000000+00:00</time></trkpt><trkpt lat="64.26025391" lon="-20.22187424"><ele>108.5</ele><time>2012-07-20T14:24:24.0000000+00:00</time></trkpt><trkpt lat="64.26025391" lon="-20.22187424"><ele>108.5</ele><time>2012-07-20T14:24:29.0000000+00:00</time></trkpt><trkpt lat="64.26025391" lon="-20.22187424"><ele>108.5</ele><time>2012-07-20T14:24:34.0000000+00:00</time></trkpt><trkpt lat="64.26025391" lon="-20.22187424"><ele>108.5</ele><time>2012-07-20T14:24:39.0000000+00:00</time></trkpt><trkpt lat="64.26025391" lon="-20.22187424"><ele>108.4</ele><time>2012-07-20T14:24:44.0000000+00:00</time></trkpt><trkpt lat="64.26025391" lon="-20.22187424"><ele>108.4</ele><time>2012-07-20T14:24:49.0000000+00:00</time></trkpt><trkpt lat="64.26025391" lon="-20.22187233"><ele>108.4</ele><time>2012-07-20T14:24:54.0000000+00:00</time></trkpt><trkpt lat="64.26024628" lon="-20.22187233"><ele>108.4</ele><time>2012-07-20T14:24:59.0000000+00:00</time></trkpt><trkpt lat="64.26024628" lon="-20.22187233"><ele>108.3</ele><time>2012-07-20T14:25:04.0000000+00:00</time></trkpt><trkpt lat="64.26024628" lon="-20.22187042"><ele>108.3</ele><time>2012-07-20T14:25:09.0000000+00:00</time></trkpt><trkpt lat="64.26024628" lon="-20.22187042"><ele>108.3</ele><time>2012-07-20T14:25:14.0000000+00:00</time></trkpt><trkpt lat="64.26024628" lon="-20.22187042"><ele>108.3</ele><time>2012-07-20T14:25:19.0000000+00:00</time></trkpt><trkpt lat="64.26024628" lon="-20.22185707"><ele>108.0</ele><time>2012-07-20T14:25:24.0000000+00:00</time></trkpt><trkpt lat="64.26024628" lon="-20.22185326"><ele>108.1</ele><time>2012-07-20T14:25:29.0000000+00:00</time></trkpt><trkpt lat="64.26023865" lon="-20.22185326"><ele>108.0</ele><time>2012-07-20T14:25:34.0000000+00:00</time></trkpt><trkpt lat="64.26023865" lon="-20.22185326"><ele>107.9</ele><time>2012-07-20T14:25:39.0000000+00:00</time></trkpt><trkpt lat="64.26023865" lon="-20.22185135"><ele>107.9</ele><time>2012-07-20T14:25:44.0000000+00:00</time></trkpt><trkpt lat="64.26023865" lon="-20.22185135"><ele>107.9</ele><time>2012-07-20T14:25:49.0000000+00:00</time></trkpt><trkpt lat="64.26023865" lon="-20.22185135"><ele>107.9</ele><time>2012-07-20T14:25:54.0000000+00:00</time></trkpt><trkpt lat="64.26023865" lon="-20.22185135"><ele>108.0</ele><time>2012-07-20T14:25:59.0000000+00:00</time></trkpt><trkpt lat="64.26023865" lon="-20.22185135"><ele>108.0</ele><time>2012-07-20T14:26:04.0000000+00:00</time></trkpt><trkpt lat="64.26023865" lon="-20.22185135"><ele>108.0</ele><time>2012-07-20T14:26:09.0000000+00:00</time></trkpt><trkpt lat="64.26023865" lon="-20.22185135"><ele>108.0</ele><time>2012-07-20T14:26:14.0000000+00:00</time></trkpt><trkpt lat="64.26023865" lon="-20.22185135"><ele>108.0</ele><time>2012-07-20T14:26:19.0000000+00:00</time></trkpt><trkpt lat="64.26023865" lon="-20.22185135"><ele>108.0</ele><time>2012-07-20T14:26:24.0000000+00:00</time></trkpt><trkpt lat="64.26023865" lon="-20.22185135"><ele>108.1</ele><time>2012-07-20T14:26:29.0000000+00:00</time></trkpt><trkpt lat="64.26023865" lon="-20.22185135"><ele>108.1</ele><time>2012-07-20T14:26:34.0000000+00:00</time></trkpt><trkpt lat="64.26024628" lon="-20.22185135"><ele>108.2</ele><time>2012-07-20T14:26:39.0000000+00:00</time></trkpt><trkpt lat="64.26023865" lon="-20.22185135"><ele>108.2</ele><time>2012-07-20T14:26:44.0000000+00:00</time></trkpt><trkpt lat="64.26023865" lon="-20.22185135"><ele>108.2</ele><time>2012-07-20T14:26:49.0000000+00:00</time></trkpt><trkpt lat="64.26023865" lon="-20.22185135"><ele>108.2</ele><time>2012-07-20T14:26:54.0000000+00:00</time></trkpt><trkpt lat="64.26023865" lon="-20.22185135"><ele>108.2</ele><time>2012-07-20T14:26:59.0000000+00:00</time></trkpt><trkpt lat="64.26023865" lon="-20.22185135"><ele>108.3</ele><time>2012-07-20T14:27:04.0000000+00:00</time></trkpt><trkpt lat="64.26023865" lon="-20.22185135"><ele>108.3</ele><time>2012-07-20T14:27:09.0000000+00:00</time></trkpt><trkpt lat="64.26023865" lon="-20.22185135"><ele>108.4</ele><time>2012-07-20T14:27:14.0000000+00:00</time></trkpt><trkpt lat="64.26024628" lon="-20.22185135"><ele>108.6</ele><time>2012-07-20T14:27:19.0000000+00:00</time></trkpt><trkpt lat="64.26023865" lon="-20.22185135"><ele>108.7</ele><time>2012-07-20T14:27:24.0000000+00:00</time></trkpt><trkpt lat="64.26023865" lon="-20.22185135"><ele>108.9</ele><time>2012-07-20T14:27:29.0000000+00:00</time></trkpt><trkpt lat="64.26024628" lon="-20.22185135"><ele>109.0</ele><time>2012-07-20T14:27:34.0000000+00:00</time></trkpt><trkpt lat="64.26024628" lon="-20.22185135"><ele>109.0</ele><time>2012-07-20T14:27:39.0000000+00:00</time></trkpt><trkpt lat="64.26024628" lon="-20.22184944"><ele>109.0</ele><time>2012-07-20T14:27:44.0000000+00:00</time></trkpt><trkpt lat="64.26024628" lon="-20.22184944"><ele>109.0</ele><time>2012-07-20T14:27:49.0000000+00:00</time></trkpt><trkpt lat="64.26024628" lon="-20.22184944"><ele>109.0</ele><time>2012-07-20T14:27:54.0000000+00:00</time></trkpt><trkpt lat="64.26024628" lon="-20.22185135"><ele>108.9</ele><time>2012-07-20T14:27:59.0000000+00:00</time></trkpt><trkpt lat="64.26023865" lon="-20.22185326"><ele>108.8</ele><time>2012-07-20T14:28:04.0000000+00:00</time></trkpt><trkpt lat="64.26023865" lon="-20.22185326"><ele>108.7</ele><time>2012-07-20T14:28:09.0000000+00:00</time></trkpt><trkpt lat="64.26023865" lon="-20.22185326"><ele>108.6</ele><time>2012-07-20T14:28:14.0000000+00:00</time></trkpt><trkpt lat="64.26023865" lon="-20.22185326"><ele>108.6</ele><time>2012-07-20T14:28:19.0000000+00:00</time></trkpt><trkpt lat="64.26023865" lon="-20.22185326"><ele>108.6</ele><time>2012-07-20T14:28:24.0000000+00:00</time></trkpt><trkpt lat="64.26023865" lon="-20.22185326"><ele>108.6</ele><time>2012-07-20T14:28:29.0000000+00:00</time></trkpt><trkpt lat="64.26023865" lon="-20.22185326"><ele>108.6</ele><time>2012-07-20T14:28:34.0000000+00:00</time></trkpt><trkpt lat="64.26023865" lon="-20.22185326"><ele>108.6</ele><time>2012-07-20T14:28:39.0000000+00:00</time></trkpt><trkpt lat="64.26023865" lon="-20.22185326"><ele>108.6</ele><time>2012-07-20T14:28:44.0000000+00:00</time></trkpt><trkpt lat="64.26023865" lon="-20.22185326"><ele>108.6</ele><time>2012-07-20T14:28:49.0000000+00:00</time></trkpt><trkpt lat="64.26023865" lon="-20.22185135"><ele>108.6</ele><time>2012-07-20T14:28:54.0000000+00:00</time></trkpt><trkpt lat="64.26023865" lon="-20.22185135"><ele>108.6</ele><time>2012-07-20T14:28:59.0000000+00:00</time></trkpt><trkpt lat="64.26023865" lon="-20.22185135"><ele>108.6</ele><time>2012-07-20T14:29:04.0000000+00:00</time></trkpt><trkpt lat="64.26023865" lon="-20.22185135"><ele>108.6</ele><time>2012-07-20T14:29:09.0000000+00:00</time></trkpt><trkpt lat="64.26023865" lon="-20.22185135"><ele>108.7</ele><time>2012-07-20T14:29:14.0000000+00:00</time></trkpt><trkpt lat="64.26023865" lon="-20.22185135"><ele>108.7</ele><time>2012-07-20T14:29:19.0000000+00:00</time></trkpt><trkpt lat="64.26023865" lon="-20.22185135"><ele>108.7</ele><time>2012-07-20T14:29:24.0000000+00:00</time></trkpt><trkpt lat="64.26023865" lon="-20.22185135"><ele>108.7</ele><time>2012-07-20T14:29:29.0000000+00:00</time></trkpt><trkpt lat="64.26023865" lon="-20.22185135"><ele>108.7</ele><time>2012-07-20T14:29:34.0000000+00:00</time></trkpt><trkpt lat="64.26023865" lon="-20.22185135"><ele>108.7</ele><time>2012-07-20T14:29:39.0000000+00:00</time></trkpt><trkpt lat="64.26023865" lon="-20.22185135"><ele>108.8</ele><time>2012-07-20T14:29:44.0000000+00:00</time></trkpt><trkpt lat="64.26023865" lon="-20.22185135"><ele>108.8</ele><time>2012-07-20T14:29:49.0000000+00:00</time></trkpt><trkpt lat="64.26023865" lon="-20.22185135"><ele>108.8</ele><time>2012-07-20T14:29:54.0000000+00:00</time></trkpt><trkpt lat="64.26023865" lon="-20.22185135"><ele>108.8</ele><time>2012-07-20T14:29:59.0000000+00:00</time></trkpt><trkpt lat="64.26023865" lon="-20.22185135"><ele>108.8</ele><time>2012-07-20T14:30:04.0000000+00:00</time></trkpt><trkpt lat="64.26023865" lon="-20.22185135"><ele>108.8</ele><time>2012-07-20T14:30:09.0000000+00:00</time></trkpt><trkpt lat="64.26023865" lon="-20.22185135"><ele>108.8</ele><time>2012-07-20T14:30:14.0000000+00:00</time></trkpt><trkpt lat="64.26023865" lon="-20.22185135"><ele>108.8</ele><time>2012-07-20T14:30:19.0000000+00:00</time></trkpt><trkpt lat="64.26023865" lon="-20.22185135"><ele>108.8</ele><time>2012-07-20T14:30:24.0000000+00:00</time></trkpt><trkpt lat="64.26023865" lon="-20.22185135"><ele>108.7</ele><time>2012-07-20T14:30:29.0000000+00:00</time></trkpt><trkpt lat="64.26023865" lon="-20.22185135"><ele>108.7</ele><time>2012-07-20T14:30:34.0000000+00:00</time></trkpt><trkpt lat="64.26023865" lon="-20.22185135"><ele>108.7</ele><time>2012-07-20T14:30:39.0000000+00:00</time></trkpt><trkpt lat="64.26023865" lon="-20.22185135"><ele>108.6</ele><time>2012-07-20T14:30:44.0000000+00:00</time></trkpt><trkpt lat="64.26023865" lon="-20.22185135"><ele>108.6</ele><time>2012-07-20T14:30:49.0000000+00:00</time></trkpt><trkpt lat="64.26023865" lon="-20.22185135"><ele>108.6</ele><time>2012-07-20T14:30:54.0000000+00:00</time></trkpt><trkpt lat="64.26023865" lon="-20.22185135"><ele>108.6</ele><time>2012-07-20T14:30:59.0000000+00:00</time></trkpt><trkpt lat="64.26023865" lon="-20.22185135"><ele>108.6</ele><time>2012-07-20T14:31:04.0000000+00:00</time></trkpt><trkpt lat="64.26023865" lon="-20.22184944"><ele>108.6</ele><time>2012-07-20T14:31:09.0000000+00:00</time></trkpt><trkpt lat="64.26023865" lon="-20.22184944"><ele>108.6</ele><time>2012-07-20T14:31:14.0000000+00:00</time></trkpt><trkpt lat="64.26024628" lon="-20.22184944"><ele>108.6</ele><time>2012-07-20T14:31:19.0000000+00:00</time></trkpt><trkpt lat="64.26024628" lon="-20.22184944"><ele>108.6</ele><time>2012-07-20T14:31:24.0000000+00:00</time></trkpt><trkpt lat="64.26024628" lon="-20.22184944"><ele>108.6</ele><time>2012-07-20T14:31:29.0000000+00:00</time></trkpt><trkpt lat="64.26024628" lon="-20.22184944"><ele>108.6</ele><time>2012-07-20T14:31:34.0000000+00:00</time></trkpt><trkpt lat="64.26024628" lon="-20.22184944"><ele>108.6</ele><time>2012-07-20T14:31:39.0000000+00:00</time></trkpt><trkpt lat="64.26024628" lon="-20.22184944"><ele>108.6</ele><time>2012-07-20T14:31:44.0000000+00:00</time></trkpt><trkpt lat="64.26024628" lon="-20.22184944"><ele>108.6</ele><time>2012-07-20T14:31:49.0000000+00:00</time></trkpt><trkpt lat="64.26024628" lon="-20.22184944"><ele>108.6</ele><time>2012-07-20T14:31:54.0000000+00:00</time></trkpt><trkpt lat="64.26024628" lon="-20.22184944"><ele>108.6</ele><time>2012-07-20T14:31:59.0000000+00:00</time></trkpt><trkpt lat="64.26024628" lon="-20.22184944"><ele>108.6</ele><time>2012-07-20T14:32:04.0000000+00:00</time></trkpt><trkpt lat="64.26024628" lon="-20.22184944"><ele>108.6</ele><time>2012-07-20T14:32:09.0000000+00:00</time></trkpt><trkpt lat="64.26024628" lon="-20.22184944"><ele>108.6</ele><time>2012-07-20T14:32:14.0000000+00:00</time></trkpt><trkpt lat="64.26024628" lon="-20.22184753"><ele>108.6</ele><time>2012-07-20T14:32:19.0000000+00:00</time></trkpt><trkpt lat="64.26024628" lon="-20.22184753"><ele>108.6</ele><time>2012-07-20T14:32:24.0000000+00:00</time></trkpt><trkpt lat="64.26024628" lon="-20.22184753"><ele>108.6</ele><time>2012-07-20T14:32:29.0000000+00:00</time></trkpt><trkpt lat="64.26024628" lon="-20.22184753"><ele>108.5</ele><time>2012-07-20T14:32:34.0000000+00:00</time></trkpt><trkpt lat="64.26024628" lon="-20.22184753"><ele>108.5</ele><time>2012-07-20T14:32:39.0000000+00:00</time></trkpt><trkpt lat="64.26024628" lon="-20.22184753"><ele>108.5</ele><time>2012-07-20T14:32:44.0000000+00:00</time></trkpt><trkpt lat="64.26024628" lon="-20.22184753"><ele>108.5</ele><time>2012-07-20T14:32:49.0000000+00:00</time></trkpt><trkpt lat="64.26024628" lon="-20.22184944"><ele>108.5</ele><time>2012-07-20T14:32:54.0000000+00:00</time></trkpt><trkpt lat="64.26024628" lon="-20.22184944"><ele>108.5</ele><time>2012-07-20T14:32:59.0000000+00:00</time></trkpt><trkpt lat="64.26024628" lon="-20.22184944"><ele>108.4</ele><time>2012-07-20T14:33:04.0000000+00:00</time></trkpt><trkpt lat="64.26024628" lon="-20.22184944"><ele>108.4</ele><time>2012-07-20T14:33:09.0000000+00:00</time></trkpt><trkpt lat="64.26024628" lon="-20.22184944"><ele>108.4</ele><time>2012-07-20T14:33:14.0000000+00:00</time></trkpt><trkpt lat="64.26024628" lon="-20.22184944"><ele>108.3</ele><time>2012-07-20T14:33:19.0000000+00:00</time></trkpt><trkpt lat="64.26024628" lon="-20.22184944"><ele>108.3</ele><time>2012-07-20T14:33:24.0000000+00:00</time></trkpt><trkpt lat="64.26023865" lon="-20.22184944"><ele>108.3</ele><time>2012-07-20T14:33:29.0000000+00:00</time></trkpt><trkpt lat="64.26023865" lon="-20.22184944"><ele>108.2</ele><time>2012-07-20T14:33:34.0000000+00:00</time></trkpt><trkpt lat="64.26023865" lon="-20.22184944"><ele>108.2</ele><time>2012-07-20T14:33:39.0000000+00:00</time></trkpt><trkpt lat="64.26023865" lon="-20.22185135"><ele>108.2</ele><time>2012-07-20T14:33:44.0000000+00:00</time></trkpt><trkpt lat="64.26023865" lon="-20.22185135"><ele>108.2</ele><time>2012-07-20T14:33:49.0000000+00:00</time></trkpt><trkpt lat="64.26023865" lon="-20.22185135"><ele>108.1</ele><time>2012-07-20T14:33:54.0000000+00:00</time></trkpt><trkpt lat="64.26023865" lon="-20.22185135"><ele>108.1</ele><time>2012-07-20T14:33:59.0000000+00:00</time></trkpt><trkpt lat="64.26023865" lon="-20.22185135"><ele>108.1</ele><time>2012-07-20T14:34:04.0000000+00:00</time></trkpt><trkpt lat="64.26023865" lon="-20.22185135"><ele>108.1</ele><time>2012-07-20T14:34:09.0000000+00:00</time></trkpt><trkpt lat="64.26023865" lon="-20.22185135"><ele>108.1</ele><time>2012-07-20T14:34:14.0000000+00:00</time></trkpt><trkpt lat="64.26023865" lon="-20.22185135"><ele>108.0</ele><time>2012-07-20T14:34:19.0000000+00:00</time></trkpt><trkpt lat="64.26023865" lon="-20.22185135"><ele>108.0</ele><time>2012-07-20T14:34:24.0000000+00:00</time></trkpt><trkpt lat="64.26023865" lon="-20.22185326"><ele>108.0</ele><time>2012-07-20T14:34:29.0000000+00:00</time></trkpt><trkpt lat="64.26023865" lon="-20.22185326"><ele>108.0</ele><time>2012-07-20T14:34:34.0000000+00:00</time></trkpt><trkpt lat="64.26023865" lon="-20.22185326"><ele>108.0</ele><time>2012-07-20T14:34:39.0000000+00:00</time></trkpt><trkpt lat="64.26023865" lon="-20.22185326"><ele>108.0</ele><time>2012-07-20T14:34:44.0000000+00:00</time></trkpt><trkpt lat="64.26023865" lon="-20.22185326"><ele>108.0</ele><time>2012-07-20T14:34:49.0000000+00:00</time></trkpt><trkpt lat="64.26023865" lon="-20.22185326"><ele>107.9</ele><time>2012-07-20T14:34:54.0000000+00:00</time></trkpt><trkpt lat="64.26023865" lon="-20.22185326"><ele>108.0</ele><time>2012-07-20T14:34:59.0000000+00:00</time></trkpt><trkpt lat="64.26023865" lon="-20.22185326"><ele>108.0</ele><time>2012-07-20T14:35:04.0000000+00:00</time></trkpt><trkpt lat="64.26023865" lon="-20.22185326"><ele>108.0</ele><time>2012-07-20T14:35:09.0000000+00:00</time></trkpt><trkpt lat="64.26023865" lon="-20.22185326"><ele>108.0</ele><time>2012-07-20T14:35:14.0000000+00:00</time></trkpt><trkpt lat="64.26023865" lon="-20.22185326"><ele>108.0</ele><time>2012-07-20T14:35:19.0000000+00:00</time></trkpt><trkpt lat="64.26023865" lon="-20.22185516"><ele>108.0</ele><time>2012-07-20T14:35:24.0000000+00:00</time></trkpt><trkpt lat="64.26023865" lon="-20.22185516"><ele>108.0</ele><time>2012-07-20T14:35:29.0000000+00:00</time></trkpt><trkpt lat="64.26023865" lon="-20.22185516"><ele>108.0</ele><time>2012-07-20T14:35:34.0000000+00:00</time></trkpt><trkpt lat="64.26023865" lon="-20.22185516"><ele>108.0</ele><time>2012-07-20T14:35:39.0000000+00:00</time></trkpt><trkpt lat="64.26023865" lon="-20.22185516"><ele>108.0</ele><time>2012-07-20T14:35:44.0000000+00:00</time></trkpt><trkpt lat="64.26023865" lon="-20.22185516"><ele>108.0</ele><time>2012-07-20T14:35:49.0000000+00:00</time></trkpt><trkpt lat="64.26023865" lon="-20.22185516"><ele>107.9</ele><time>2012-07-20T14:35:54.0000000+00:00</time></trkpt><trkpt lat="64.26023865" lon="-20.22185516"><ele>107.9</ele><time>2012-07-20T14:35:59.0000000+00:00</time></trkpt><trkpt lat="64.26023865" lon="-20.22185516"><ele>107.9</ele><time>2012-07-20T14:36:04.0000000+00:00</time></trkpt><trkpt lat="64.26023865" lon="-20.22185516"><ele>107.9</ele><time>2012-07-20T14:36:09.0000000+00:00</time></trkpt><trkpt lat="64.26024628" lon="-20.22182655"><ele>108.3</ele><time>2012-07-20T14:36:14.0000000+00:00</time></trkpt><trkpt lat="64.26030731" lon="-20.22183037"><ele>108.2</ele><time>2012-07-20T14:36:19.0000000+00:00</time></trkpt><trkpt lat="64.26036835" lon="-20.22185135"><ele>107.5</ele><time>2012-07-20T14:36:24.0000000+00:00</time></trkpt><trkpt lat="64.26042175" lon="-20.22180176"><ele>108.5</ele><time>2012-07-20T14:36:29.0000000+00:00</time></trkpt><trkpt lat="64.26047516" lon="-20.22175217"><ele>110.1</ele><time>2012-07-20T14:36:34.0000000+00:00</time></trkpt><trkpt lat="64.26049805" lon="-20.22173309"><ele>111.3</ele><time>2012-07-20T14:36:39.0000000+00:00</time></trkpt><trkpt lat="64.26050568" lon="-20.22171593"><ele>111.1</ele><time>2012-07-20T14:36:44.0000000+00:00</time></trkpt><trkpt lat="64.26052856" lon="-20.2216835"><ele>111.4</ele><time>2012-07-20T14:36:49.0000000+00:00</time></trkpt><trkpt lat="64.26061249" lon="-20.2216053"><ele>112.8</ele><time>2012-07-20T14:36:54.0000000+00:00</time></trkpt><trkpt lat="64.26077271" lon="-20.22146797"><ele>111.2</ele><time>2012-07-20T14:36:59.0000000+00:00</time></trkpt><trkpt lat="64.26087952" lon="-20.22125816"><ele>110.7</ele><time>2012-07-20T14:37:04.0000000+00:00</time></trkpt><trkpt lat="64.2609787" lon="-20.22106552"><ele>111.1</ele><time>2012-07-20T14:37:09.0000000+00:00</time></trkpt><trkpt lat="64.26108551" lon="-20.22090721"><ele>111.2</ele><time>2012-07-20T14:37:14.0000000+00:00</time></trkpt><trkpt lat="64.26119995" lon="-20.22076988"><ele>110.4</ele><time>2012-07-20T14:37:19.0000000+00:00</time></trkpt><trkpt lat="64.26130676" lon="-20.22066307"><ele>110.1</ele><time>2012-07-20T14:37:24.0000000+00:00</time></trkpt><trkpt lat="64.26139069" lon="-20.22057152"><ele>110.4</ele><time>2012-07-20T14:37:29.0000000+00:00</time></trkpt><trkpt lat="64.26150513" lon="-20.22044563"><ele>112.1</ele><time>2012-07-20T14:37:34.0000000+00:00</time></trkpt><trkpt lat="64.26161957" lon="-20.22030449"><ele>111.9</ele><time>2012-07-20T14:37:39.0000000+00:00</time></trkpt><trkpt lat="64.26172638" lon="-20.2202034"><ele>112.8</ele><time>2012-07-20T14:37:44.0000000+00:00</time></trkpt><trkpt lat="64.26184082" lon="-20.22008514"><ele>113.1</ele><time>2012-07-20T14:37:49.0000000+00:00</time></trkpt><trkpt lat="64.26193237" lon="-20.21994972"><ele>111.7</ele><time>2012-07-20T14:37:54.0000000+00:00</time></trkpt><trkpt lat="64.26203919" lon="-20.2198143"><ele>112.8</ele><time>2012-07-20T14:37:59.0000000+00:00</time></trkpt><trkpt lat="64.26215363" lon="-20.21969223"><ele>112.5</ele><time>2012-07-20T14:38:04.0000000+00:00</time></trkpt><trkpt lat="64.26229096" lon="-20.21955872"><ele>113.4</ele><time>2012-07-20T14:38:09.0000000+00:00</time></trkpt><trkpt lat="64.26242828" lon="-20.21940422"><ele>116.3</ele><time>2012-07-20T14:38:14.0000000+00:00</time></trkpt><trkpt lat="64.26255798" lon="-20.21925926"><ele>115.4</ele><time>2012-07-20T14:38:19.0000000+00:00</time></trkpt><trkpt lat="64.26267242" lon="-20.21908569"><ele>114.8</ele><time>2012-07-20T14:38:24.0000000+00:00</time></trkpt><trkpt lat="64.26281738" lon="-20.21886826"><ele>116.4</ele><time>2012-07-20T14:38:29.0000000+00:00</time></trkpt><trkpt lat="64.2629776" lon="-20.21868324"><ele>117.6</ele><time>2012-07-20T14:38:34.0000000+00:00</time></trkpt><trkpt lat="64.26313782" lon="-20.21846581"><ele>117.7</ele><time>2012-07-20T14:38:39.0000000+00:00</time></trkpt><trkpt lat="64.26329041" lon="-20.21826744"><ele>117.3</ele><time>2012-07-20T14:38:44.0000000+00:00</time></trkpt><trkpt lat="64.26334381" lon="-20.21824837"><ele>117.1</ele><time>2012-07-20T14:38:49.0000000+00:00</time></trkpt><trkpt lat="64.26329041" lon="-20.21829796"><ele>116.2</ele><time>2012-07-20T14:38:54.0000000+00:00</time></trkpt><trkpt lat="64.26322174" lon="-20.21836662"><ele>116.1</ele><time>2012-07-20T14:38:59.0000000+00:00</time></trkpt><trkpt lat="64.26325989" lon="-20.21837807"><ele>116.1</ele><time>2012-07-20T14:39:04.0000000+00:00</time></trkpt><trkpt lat="64.26327515" lon="-20.21829796"><ele>114.8</ele><time>2012-07-20T14:39:09.0000000+00:00</time></trkpt><trkpt lat="64.26330566" lon="-20.21829414"><ele>115.4</ele><time>2012-07-20T14:39:14.0000000+00:00</time></trkpt><trkpt lat="64.26340485" lon="-20.21811295"><ele>114.9</ele><time>2012-07-20T14:39:19.0000000+00:00</time></trkpt><trkpt lat="64.26352692" lon="-20.21792793"><ele>114.8</ele><time>2012-07-20T14:39:24.0000000+00:00</time></trkpt><trkpt lat="64.26367188" lon="-20.21772003"><ele>113.9</ele><time>2012-07-20T14:39:29.0000000+00:00</time></trkpt><trkpt lat="64.26382446" lon="-20.21749497"><ele>113.7</ele><time>2012-07-20T14:39:34.0000000+00:00</time></trkpt><trkpt lat="64.26396942" lon="-20.21724701"><ele>115.3</ele><time>2012-07-20T14:39:39.0000000+00:00</time></trkpt><trkpt lat="64.26410675" lon="-20.2170105"><ele>116.2</ele><time>2012-07-20T14:39:44.0000000+00:00</time></trkpt><trkpt lat="64.26422882" lon="-20.21673966"><ele>116.1</ele><time>2012-07-20T14:39:49.0000000+00:00</time></trkpt><trkpt lat="64.26435089" lon="-20.21643257"><ele>116.4</ele><time>2012-07-20T14:39:54.0000000+00:00</time></trkpt><trkpt lat="64.26444244" lon="-20.21615219"><ele>115.6</ele><time>2012-07-20T14:39:59.0000000+00:00</time></trkpt><trkpt lat="64.26451874" lon="-20.21587372"><ele>115.5</ele><time>2012-07-20T14:40:04.0000000+00:00</time></trkpt><trkpt lat="64.26459503" lon="-20.21563149"><ele>118.5</ele><time>2012-07-20T14:40:09.0000000+00:00</time></trkpt><trkpt lat="64.26463318" lon="-20.21542931"><ele>117.7</ele><time>2012-07-20T14:40:14.0000000+00:00</time></trkpt><trkpt lat="64.26467896" lon="-20.21524429"><ele>117.8</ele><time>2012-07-20T14:40:19.0000000+00:00</time></trkpt><trkpt lat="64.26472473" lon="-20.21505165"><ele>118.5</ele><time>2012-07-20T14:40:24.0000000+00:00</time></trkpt><trkpt lat="64.26477814" lon="-20.21485901"><ele>120.5</ele><time>2012-07-20T14:40:29.0000000+00:00</time></trkpt><trkpt lat="64.26480866" lon="-20.21463013"><ele>121.7</ele><time>2012-07-20T14:40:34.0000000+00:00</time></trkpt><trkpt lat="64.2648468" lon="-20.21438789"><ele>122.2</ele><time>2012-07-20T14:40:39.0000000+00:00</time></trkpt><trkpt lat="64.26488495" lon="-20.2141552"><ele>122.4</ele><time>2012-07-20T14:40:44.0000000+00:00</time></trkpt><trkpt lat="64.26491547" lon="-20.21391106"><ele>122.7</ele><time>2012-07-20T14:40:49.0000000+00:00</time></trkpt><trkpt lat="64.26494598" lon="-20.21364212"><ele>122.9</ele><time>2012-07-20T14:40:54.0000000+00:00</time></trkpt><trkpt lat="64.26496887" lon="-20.21339226"><ele>123.6</ele><time>2012-07-20T14:40:59.0000000+00:00</time></trkpt><trkpt lat="64.26498413" lon="-20.21312141"><ele>124.3</ele><time>2012-07-20T14:41:04.0000000+00:00</time></trkpt><trkpt lat="64.26499176" lon="-20.21282959"><ele>123.4</ele><time>2012-07-20T14:41:09.0000000+00:00</time></trkpt><trkpt lat="64.26499176" lon="-20.21252632"><ele>121.7</ele><time>2012-07-20T14:41:14.0000000+00:00</time></trkpt><trkpt lat="64.26500702" lon="-20.21222878"><ele>123.3</ele><time>2012-07-20T14:41:19.0000000+00:00</time></trkpt><trkpt lat="64.26501465" lon="-20.21192169"><ele>124.2</ele><time>2012-07-20T14:41:24.0000000+00:00</time></trkpt><trkpt lat="64.26502991" lon="-20.21159744"><ele>126.2</ele><time>2012-07-20T14:41:29.0000000+00:00</time></trkpt><trkpt lat="64.26506043" lon="-20.2112999"><ele>125.4</ele><time>2012-07-20T14:41:34.0000000+00:00</time></trkpt><trkpt lat="64.26509094" lon="-20.21096993"><ele>125.7</ele><time>2012-07-20T14:41:39.0000000+00:00</time></trkpt><trkpt lat="64.26513672" lon="-20.21060753"><ele>126.2</ele><time>2012-07-20T14:41:44.0000000+00:00</time></trkpt><trkpt lat="64.26519013" lon="-20.21025467"><ele>126.8</ele><time>2012-07-20T14:41:49.0000000+00:00</time></trkpt><trkpt lat="64.2652359" lon="-20.20992661"><ele>126.4</ele><time>2012-07-20T14:41:54.0000000+00:00</time></trkpt><trkpt lat="64.26530457" lon="-20.20960426"><ele>127.2</ele><time>2012-07-20T14:41:59.0000000+00:00</time></trkpt><trkpt lat="64.26538086" lon="-20.20926476"><ele>127.0</ele><time>2012-07-20T14:42:04.0000000+00:00</time></trkpt><trkpt lat="64.26545715" lon="-20.20895004"><ele>128.2</ele><time>2012-07-20T14:42:09.0000000+00:00</time></trkpt><trkpt lat="64.26554871" lon="-20.20864296"><ele>127.6</ele><time>2012-07-20T14:42:14.0000000+00:00</time></trkpt><trkpt lat="64.26563263" lon="-20.20832443"><ele>127.9</ele><time>2012-07-20T14:42:19.0000000+00:00</time></trkpt><trkpt lat="64.26573181" lon="-20.20803642"><ele>127.9</ele><time>2012-07-20T14:42:24.0000000+00:00</time></trkpt><trkpt lat="64.26581574" lon="-20.20772934"><ele>127.0</ele><time>2012-07-20T14:42:29.0000000+00:00</time></trkpt><trkpt lat="64.26590729" lon="-20.20745468"><ele>127.1</ele><time>2012-07-20T14:42:34.0000000+00:00</time></trkpt><trkpt lat="64.26598358" lon="-20.2071209"><ele>124.8</ele><time>2012-07-20T14:42:39.0000000+00:00</time></trkpt><trkpt lat="64.26607513" lon="-20.20683479"><ele>125.2</ele><time>2012-07-20T14:42:44.0000000+00:00</time></trkpt><trkpt lat="64.26615143" lon="-20.20654869"><ele>124.7</ele><time>2012-07-20T14:42:49.0000000+00:00</time></trkpt><trkpt lat="64.26623535" lon="-20.20627213"><ele>125.1</ele><time>2012-07-20T14:42:54.0000000+00:00</time></trkpt><trkpt lat="64.26631928" lon="-20.20601082"><ele>125.2</ele><time>2012-07-20T14:42:59.0000000+00:00</time></trkpt><trkpt lat="64.2664032" lon="-20.20574951"><ele>125.9</ele><time>2012-07-20T14:43:04.0000000+00:00</time></trkpt><trkpt lat="64.26648712" lon="-20.20547295"><ele>126.6</ele><time>2012-07-20T14:43:09.0000000+00:00</time></trkpt><trkpt lat="64.26657105" lon="-20.20518494"><ele>125.7</ele><time>2012-07-20T14:43:14.0000000+00:00</time></trkpt><trkpt lat="64.2666626" lon="-20.20487404"><ele>125.7</ele><time>2012-07-20T14:43:19.0000000+00:00</time></trkpt><trkpt lat="64.26675415" lon="-20.20458794"><ele>126.3</ele><time>2012-07-20T14:43:24.0000000+00:00</time></trkpt><trkpt lat="64.26683807" lon="-20.2042923"><ele>126.6</ele><time>2012-07-20T14:43:29.0000000+00:00</time></trkpt><trkpt lat="64.26694489" lon="-20.20397377"><ele>127.6</ele><time>2012-07-20T14:43:34.0000000+00:00</time></trkpt><trkpt lat="64.26704407" lon="-20.20366097"><ele>127.4</ele><time>2012-07-20T14:43:39.0000000+00:00</time></trkpt><trkpt lat="64.26714325" lon="-20.20332336"><ele>127.2</ele><time>2012-07-20T14:43:44.0000000+00:00</time></trkpt><trkpt lat="64.26725006" lon="-20.20297241"><ele>127.0</ele><time>2012-07-20T14:43:49.0000000+00:00</time></trkpt><trkpt lat="64.26735687" lon="-20.20261574"><ele>127.8</ele><time>2012-07-20T14:43:54.0000000+00:00</time></trkpt><trkpt lat="64.26746368" lon="-20.2022171"><ele>127.6</ele><time>2012-07-20T14:43:59.0000000+00:00</time></trkpt><trkpt lat="64.26760864" lon="-20.20180321"><ele>127.7</ele><time>2012-07-20T14:44:04.0000000+00:00</time></trkpt><trkpt lat="64.26774597" lon="-20.20135117"><ele>126.7</ele><time>2012-07-20T14:44:09.0000000+00:00</time></trkpt><trkpt lat="64.26787567" lon="-20.20093346"><ele>126.6</ele><time>2012-07-20T14:44:14.0000000+00:00</time></trkpt><trkpt lat="64.26800537" lon="-20.20051956"><ele>127.2</ele><time>2012-07-20T14:44:19.0000000+00:00</time></trkpt><trkpt lat="64.26812744" lon="-20.2001133"><ele>127.7</ele><time>2012-07-20T14:44:24.0000000+00:00</time></trkpt><trkpt lat="64.26823425" lon="-20.19976616"><ele>127.6</ele><time>2012-07-20T14:44:29.0000000+00:00</time></trkpt><trkpt lat="64.26834869" lon="-20.19939995"><ele>127.4</ele><time>2012-07-20T14:44:34.0000000+00:00</time></trkpt><trkpt lat="64.26843262" lon="-20.1991024"><ele>128.0</ele><time>2012-07-20T14:44:39.0000000+00:00</time></trkpt><trkpt lat="64.2685318" lon="-20.19881821"><ele>128.6</ele><time>2012-07-20T14:44:44.0000000+00:00</time></trkpt><trkpt lat="64.26862335" lon="-20.19851303"><ele>128.1</ele><time>2012-07-20T14:44:49.0000000+00:00</time></trkpt><trkpt lat="64.26871491" lon="-20.19820404"><ele>128.2</ele><time>2012-07-20T14:44:54.0000000+00:00</time></trkpt><trkpt lat="64.2687912" lon="-20.19789314"><ele>126.7</ele><time>2012-07-20T14:44:59.0000000+00:00</time></trkpt><trkpt lat="64.26888275" lon="-20.19757271"><ele>127.0</ele><time>2012-07-20T14:45:04.0000000+00:00</time></trkpt><trkpt lat="64.26895905" lon="-20.19725037"><ele>126.8</ele><time>2012-07-20T14:45:09.0000000+00:00</time></trkpt><trkpt lat="64.26902008" lon="-20.19690132"><ele>127.1</ele><time>2012-07-20T14:45:14.0000000+00:00</time></trkpt><trkpt lat="64.2690506" lon="-20.19657707"><ele>126.9</ele><time>2012-07-20T14:45:19.0000000+00:00</time></trkpt><trkpt lat="64.26908112" lon="-20.19622994"><ele>128.3</ele><time>2012-07-20T14:45:24.0000000+00:00</time></trkpt><trkpt lat="64.26908875" lon="-20.19589615"><ele>129.2</ele><time>2012-07-20T14:45:29.0000000+00:00</time></trkpt><trkpt lat="64.26908112" lon="-20.19561195"><ele>130.0</ele><time>2012-07-20T14:45:34.0000000+00:00</time></trkpt><trkpt lat="64.26907349" lon="-20.19531822"><ele>130.5</ele><time>2012-07-20T14:45:39.0000000+00:00</time></trkpt><trkpt lat="64.26904297" lon="-20.19505501"><ele>129.0</ele><time>2012-07-20T14:45:44.0000000+00:00</time></trkpt><trkpt lat="64.26901245" lon="-20.19478226"><ele>129.4</ele><time>2012-07-20T14:45:49.0000000+00:00</time></trkpt><trkpt lat="64.2689743" lon="-20.19451714"><ele>131.8</ele><time>2012-07-20T14:45:54.0000000+00:00</time></trkpt><trkpt lat="64.26890564" lon="-20.19426346"><ele>130.8</ele><time>2012-07-20T14:45:59.0000000+00:00</time></trkpt><trkpt lat="64.26883698" lon="-20.1940155"><ele>130.7</ele><time>2012-07-20T14:46:04.0000000+00:00</time></trkpt><trkpt lat="64.26875305" lon="-20.19377136"><ele>130.1</ele><time>2012-07-20T14:46:09.0000000+00:00</time></trkpt><trkpt lat="64.26866913" lon="-20.19353104"><ele>130.0</ele><time>2012-07-20T14:46:14.0000000+00:00</time></trkpt><trkpt lat="64.26857758" lon="-20.19333077"><ele>130.4</ele><time>2012-07-20T14:46:19.0000000+00:00</time></trkpt><trkpt lat="64.26848602" lon="-20.19316864"><ele>131.8</ele><time>2012-07-20T14:46:24.0000000+00:00</time></trkpt><trkpt lat="64.26837921" lon="-20.1930294"><ele>131.5</ele><time>2012-07-20T14:46:29.0000000+00:00</time></trkpt><trkpt lat="64.26829529" lon="-20.19290161"><ele>132.0</ele><time>2012-07-20T14:46:34.0000000+00:00</time></trkpt><trkpt lat="64.26821137" lon="-20.19279099"><ele>132.4</ele><time>2012-07-20T14:46:39.0000000+00:00</time></trkpt><trkpt lat="64.26810455" lon="-20.19271088"><ele>134.3</ele><time>2012-07-20T14:46:44.0000000+00:00</time></trkpt><trkpt lat="64.26802063" lon="-20.19266129"><ele>137.4</ele><time>2012-07-20T14:46:49.0000000+00:00</time></trkpt><trkpt lat="64.26792145" lon="-20.19264793"><ele>139.6</ele><time>2012-07-20T14:46:54.0000000+00:00</time></trkpt><trkpt lat="64.26781464" lon="-20.1926136"><ele>140.4</ele><time>2012-07-20T14:46:59.0000000+00:00</time></trkpt><trkpt lat="64.26773834" lon="-20.19258499"><ele>141.3</ele><time>2012-07-20T14:47:04.0000000+00:00</time></trkpt><trkpt lat="64.26766205" lon="-20.19257736"><ele>141.0</ele><time>2012-07-20T14:47:09.0000000+00:00</time></trkpt><trkpt lat="64.2675705" lon="-20.1925869"><ele>141.4</ele><time>2012-07-20T14:47:14.0000000+00:00</time></trkpt><trkpt lat="64.26747131" lon="-20.1926136"><ele>142.3</ele><time>2012-07-20T14:47:19.0000000+00:00</time></trkpt><trkpt lat="64.2673645" lon="-20.19264603"><ele>141.6</ele><time>2012-07-20T14:47:24.0000000+00:00</time></trkpt><trkpt lat="64.26725769" lon="-20.1926899"><ele>141.3</ele><time>2012-07-20T14:47:29.0000000+00:00</time></trkpt><trkpt lat="64.26716614" lon="-20.19277573"><ele>143.1</ele><time>2012-07-20T14:47:34.0000000+00:00</time></trkpt><trkpt lat="64.26705933" lon="-20.19286346"><ele>142.9</ele><time>2012-07-20T14:47:39.0000000+00:00</time></trkpt><trkpt lat="64.26696014" lon="-20.19296455"><ele>142.6</ele><time>2012-07-20T14:47:44.0000000+00:00</time></trkpt><trkpt lat="64.26685333" lon="-20.19303703"><ele>142.7</ele><time>2012-07-20T14:47:49.0000000+00:00</time></trkpt><trkpt lat="64.26676941" lon="-20.19312286"><ele>143.6</ele><time>2012-07-20T14:47:54.0000000+00:00</time></trkpt><trkpt lat="64.26667786" lon="-20.19319534"><ele>144.6</ele><time>2012-07-20T14:47:59.0000000+00:00</time></trkpt><trkpt lat="64.2665863" lon="-20.1932869"><ele>143.8</ele><time>2012-07-20T14:48:04.0000000+00:00</time></trkpt><trkpt lat="64.26649475" lon="-20.19335365"><ele>144.4</ele><time>2012-07-20T14:48:09.0000000+00:00</time></trkpt><trkpt lat="64.2664032" lon="-20.1934433"><ele>143.3</ele><time>2012-07-20T14:48:14.0000000+00:00</time></trkpt><trkpt lat="64.26631928" lon="-20.19353485"><ele>143.7</ele><time>2012-07-20T14:48:19.0000000+00:00</time></trkpt><trkpt lat="64.26622772" lon="-20.19360924"><ele>144.1</ele><time>2012-07-20T14:48:24.0000000+00:00</time></trkpt><trkpt lat="64.26615143" lon="-20.193676"><ele>144.5</ele><time>2012-07-20T14:48:29.0000000+00:00</time></trkpt><trkpt lat="64.26607513" lon="-20.19375992"><ele>145.3</ele><time>2012-07-20T14:48:34.0000000+00:00</time></trkpt><trkpt lat="64.26598358" lon="-20.19383812"><ele>145.4</ele><time>2012-07-20T14:48:39.0000000+00:00</time></trkpt><trkpt lat="64.26589203" lon="-20.19389916"><ele>146.8</ele><time>2012-07-20T14:48:44.0000000+00:00</time></trkpt><trkpt lat="64.26580811" lon="-20.19399071"><ele>148.3</ele><time>2012-07-20T14:48:49.0000000+00:00</time></trkpt><trkpt lat="64.26571655" lon="-20.19408417"><ele>148.6</ele><time>2012-07-20T14:48:54.0000000+00:00</time></trkpt><trkpt lat="64.26561737" lon="-20.19415855"><ele>148.8</ele><time>2012-07-20T14:48:59.0000000+00:00</time></trkpt><trkpt lat="64.26551819" lon="-20.19424439"><ele>149.9</ele><time>2012-07-20T14:49:04.0000000+00:00</time></trkpt><trkpt lat="64.26542664" lon="-20.19433403"><ele>149.4</ele><time>2012-07-20T14:49:09.0000000+00:00</time></trkpt><trkpt lat="64.26531982" lon="-20.19441223"><ele>149.5</ele><time>2012-07-20T14:49:14.0000000+00:00</time></trkpt><trkpt lat="64.26522064" lon="-20.19449997"><ele>151.4</ele><time>2012-07-20T14:49:19.0000000+00:00</time></trkpt><trkpt lat="64.26512146" lon="-20.19458008"><ele>152.1</ele><time>2012-07-20T14:49:24.0000000+00:00</time></trkpt><trkpt lat="64.26503754" lon="-20.19465828"><ele>154.0</ele><time>2012-07-20T14:49:29.0000000+00:00</time></trkpt><trkpt lat="64.26493073" lon="-20.19472504"><ele>153.9</ele><time>2012-07-20T14:49:34.0000000+00:00</time></trkpt><trkpt lat="64.26481628" lon="-20.19478416"><ele>153.5</ele><time>2012-07-20T14:49:39.0000000+00:00</time></trkpt><trkpt lat="64.26470947" lon="-20.19484711"><ele>152.4</ele><time>2012-07-20T14:49:44.0000000+00:00</time></trkpt><trkpt lat="64.26461792" lon="-20.19489861"><ele>152.3</ele><time>2012-07-20T14:49:49.0000000+00:00</time></trkpt><trkpt lat="64.264534" lon="-20.19495964"><ele>153.7</ele><time>2012-07-20T14:49:54.0000000+00:00</time></trkpt><trkpt lat="64.26443481" lon="-20.19500732"><ele>154.5</ele><time>2012-07-20T14:49:59.0000000+00:00</time></trkpt><trkpt lat="64.26433563" lon="-20.19503975"><ele>154.7</ele><time>2012-07-20T14:50:04.0000000+00:00</time></trkpt><trkpt lat="64.26423645" lon="-20.19509697"><ele>155.8</ele><time>2012-07-20T14:50:09.0000000+00:00</time></trkpt><trkpt lat="64.26412964" lon="-20.19517136"><ele>155.8</ele><time>2012-07-20T14:50:14.0000000+00:00</time></trkpt><trkpt lat="64.2640152" lon="-20.19522476"><ele>156.6</ele><time>2012-07-20T14:50:19.0000000+00:00</time></trkpt><trkpt lat="64.26391602" lon="-20.19530869"><ele>159.2</ele><time>2012-07-20T14:50:24.0000000+00:00</time></trkpt><trkpt lat="64.26383972" lon="-20.19534683"><ele>159.1</ele><time>2012-07-20T14:50:29.0000000+00:00</time></trkpt><trkpt lat="64.26374054" lon="-20.1953907"><ele>159.0</ele><time>2012-07-20T14:50:34.0000000+00:00</time></trkpt><trkpt lat="64.26365662" lon="-20.19541931"><ele>157.4</ele><time>2012-07-20T14:50:39.0000000+00:00</time></trkpt><trkpt lat="64.26357269" lon="-20.19546127"><ele>156.1</ele><time>2012-07-20T14:50:44.0000000+00:00</time></trkpt><trkpt lat="64.26348877" lon="-20.19550705"><ele>156.4</ele><time>2012-07-20T14:50:49.0000000+00:00</time></trkpt><trkpt lat="64.26342011" lon="-20.19552994"><ele>156.5</ele><time>2012-07-20T14:50:54.0000000+00:00</time></trkpt><trkpt lat="64.26333618" lon="-20.19556999"><ele>156.8</ele><time>2012-07-20T14:50:59.0000000+00:00</time></trkpt><trkpt lat="64.26325226" lon="-20.19563103"><ele>158.1</ele><time>2012-07-20T14:51:04.0000000+00:00</time></trkpt><trkpt lat="64.26316071" lon="-20.19568253"><ele>159.0</ele><time>2012-07-20T14:51:09.0000000+00:00</time></trkpt><trkpt lat="64.26307678" lon="-20.1957264"><ele>158.2</ele><time>2012-07-20T14:51:14.0000000+00:00</time></trkpt><trkpt lat="64.2629776" lon="-20.19577026"><ele>157.6</ele><time>2012-07-20T14:51:19.0000000+00:00</time></trkpt><trkpt lat="64.26288605" lon="-20.19579887"><ele>158.2</ele><time>2012-07-20T14:51:24.0000000+00:00</time></trkpt><trkpt lat="64.26280212" lon="-20.19584656"><ele>158.4</ele><time>2012-07-20T14:51:29.0000000+00:00</time></trkpt><trkpt lat="64.26271057" lon="-20.1958828"><ele>158.3</ele><time>2012-07-20T14:51:34.0000000+00:00</time></trkpt><trkpt lat="64.26261139" lon="-20.19593239"><ele>157.8</ele><time>2012-07-20T14:51:39.0000000+00:00</time></trkpt><trkpt lat="64.26252747" lon="-20.1959877"><ele>157.6</ele><time>2012-07-20T14:51:44.0000000+00:00</time></trkpt><trkpt lat="64.26243591" lon="-20.19602776"><ele>158.3</ele><time>2012-07-20T14:51:49.0000000+00:00</time></trkpt><trkpt lat="64.26233673" lon="-20.19605827"><ele>159.1</ele><time>2012-07-20T14:51:54.0000000+00:00</time></trkpt><trkpt lat="64.26225281" lon="-20.1960907"><ele>160.0</ele><time>2012-07-20T14:51:59.0000000+00:00</time></trkpt><trkpt lat="64.26213837" lon="-20.19613075"><ele>158.0</ele><time>2012-07-20T14:52:04.0000000+00:00</time></trkpt><trkpt lat="64.26206207" lon="-20.19619751"><ele>159.3</ele><time>2012-07-20T14:52:09.0000000+00:00</time></trkpt><trkpt lat="64.26196289" lon="-20.1962471"><ele>160.7</ele><time>2012-07-20T14:52:14.0000000+00:00</time></trkpt><trkpt lat="64.2618866" lon="-20.19628716"><ele>160.7</ele><time>2012-07-20T14:52:19.0000000+00:00</time></trkpt><trkpt lat="64.26179504" lon="-20.19633484"><ele>160.0</ele><time>2012-07-20T14:52:24.0000000+00:00</time></trkpt><trkpt lat="64.26170349" lon="-20.19637299"><ele>160.5</ele><time>2012-07-20T14:52:29.0000000+00:00</time></trkpt><trkpt lat="64.26159668" lon="-20.19640732"><ele>158.4</ele><time>2012-07-20T14:52:34.0000000+00:00</time></trkpt><trkpt lat="64.26151276" lon="-20.19645882"><ele>159.2</ele><time>2012-07-20T14:52:39.0000000+00:00</time></trkpt><trkpt lat="64.2614212" lon="-20.1965065"><ele>159.5</ele><time>2012-07-20T14:52:44.0000000+00:00</time></trkpt><trkpt lat="64.26130676" lon="-20.19654656"><ele>159.1</ele><time>2012-07-20T14:52:49.0000000+00:00</time></trkpt><trkpt lat="64.26120758" lon="-20.19660187"><ele>159.2</ele><time>2012-07-20T14:52:54.0000000+00:00</time></trkpt><trkpt lat="64.26111603" lon="-20.19665527"><ele>159.8</ele><time>2012-07-20T14:52:59.0000000+00:00</time></trkpt><trkpt lat="64.26100159" lon="-20.19670487"><ele>160.2</ele><time>2012-07-20T14:53:04.0000000+00:00</time></trkpt><trkpt lat="64.26090241" lon="-20.19675827"><ele>160.9</ele><time>2012-07-20T14:53:09.0000000+00:00</time></trkpt><trkpt lat="64.26081848" lon="-20.19680405"><ele>162.8</ele><time>2012-07-20T14:53:14.0000000+00:00</time></trkpt><trkpt lat="64.26071167" lon="-20.19686508"><ele>164.3</ele><time>2012-07-20T14:53:19.0000000+00:00</time></trkpt><trkpt lat="64.26061249" lon="-20.19691277"><ele>164.2</ele><time>2012-07-20T14:53:24.0000000+00:00</time></trkpt><trkpt lat="64.26051331" lon="-20.19696999"><ele>164.5</ele><time>2012-07-20T14:53:29.0000000+00:00</time></trkpt><trkpt lat="64.26040649" lon="-20.19701767"><ele>164.2</ele><time>2012-07-20T14:53:34.0000000+00:00</time></trkpt><trkpt lat="64.26030731" lon="-20.1971283"><ele>164.4</ele><time>2012-07-20T14:53:39.0000000+00:00</time></trkpt><trkpt lat="64.2602005" lon="-20.19718552"><ele>165.6</ele><time>2012-07-20T14:53:44.0000000+00:00</time></trkpt><trkpt lat="64.26007843" lon="-20.19725227"><ele>164.7</ele><time>2012-07-20T14:53:49.0000000+00:00</time></trkpt><trkpt lat="64.25995636" lon="-20.1972847"><ele>164.4</ele><time>2012-07-20T14:53:54.0000000+00:00</time></trkpt><trkpt lat="64.25985718" lon="-20.19735146"><ele>164.8</ele><time>2012-07-20T14:53:59.0000000+00:00</time></trkpt><trkpt lat="64.25977325" lon="-20.19742584"><ele>165.3</ele><time>2012-07-20T14:54:04.0000000+00:00</time></trkpt><trkpt lat="64.2596817" lon="-20.19748879"><ele>166.5</ele><time>2012-07-20T14:54:09.0000000+00:00</time></trkpt><trkpt lat="64.25956726" lon="-20.19755745"><ele>166.4</ele><time>2012-07-20T14:54:14.0000000+00:00</time></trkpt><trkpt lat="64.25943756" lon="-20.19763565"><ele>166.5</ele><time>2012-07-20T14:54:19.0000000+00:00</time></trkpt><trkpt lat="64.25930786" lon="-20.19771576"><ele>168.2</ele><time>2012-07-20T14:54:24.0000000+00:00</time></trkpt><trkpt lat="64.25917053" lon="-20.19779968"><ele>168.2</ele><time>2012-07-20T14:54:29.0000000+00:00</time></trkpt><trkpt lat="64.25901794" lon="-20.19790268"><ele>168.0</ele><time>2012-07-20T14:54:34.0000000+00:00</time></trkpt><trkpt lat="64.25885773" lon="-20.19800568"><ele>168.9</ele><time>2012-07-20T14:54:39.0000000+00:00</time></trkpt><trkpt lat="64.25870514" lon="-20.19809914"><ele>168.2</ele><time>2012-07-20T14:54:44.0000000+00:00</time></trkpt><trkpt lat="64.25855255" lon="-20.19818687"><ele>168.4</ele><time>2012-07-20T14:54:49.0000000+00:00</time></trkpt><trkpt lat="64.25839233" lon="-20.19829369"><ele>168.2</ele><time>2012-07-20T14:54:54.0000000+00:00</time></trkpt><trkpt lat="64.25823212" lon="-20.19841385"><ele>168.6</ele><time>2012-07-20T14:54:59.0000000+00:00</time></trkpt><trkpt lat="64.25805664" lon="-20.19852257"><ele>166.0</ele><time>2012-07-20T14:55:04.0000000+00:00</time></trkpt><trkpt lat="64.25791168" lon="-20.19861794"><ele>165.3</ele><time>2012-07-20T14:55:09.0000000+00:00</time></trkpt><trkpt lat="64.25777435" lon="-20.1987114"><ele>167.2</ele><time>2012-07-20T14:55:14.0000000+00:00</time></trkpt><trkpt lat="64.25764465" lon="-20.19880867"><ele>168.1</ele><time>2012-07-20T14:55:19.0000000+00:00</time></trkpt><trkpt lat="64.25752258" lon="-20.19888878"><ele>167.8</ele><time>2012-07-20T14:55:24.0000000+00:00</time></trkpt><trkpt lat="64.25743103" lon="-20.19896126"><ele>169.0</ele><time>2012-07-20T14:55:29.0000000+00:00</time></trkpt><trkpt lat="64.25734711" lon="-20.19900894"><ele>169.2</ele><time>2012-07-20T14:55:34.0000000+00:00</time></trkpt><trkpt lat="64.25726318" lon="-20.19905853"><ele>170.1</ele><time>2012-07-20T14:55:39.0000000+00:00</time></trkpt><trkpt lat="64.25718689" lon="-20.19911957"><ele>172.0</ele><time>2012-07-20T14:55:44.0000000+00:00</time></trkpt><trkpt lat="64.2571106" lon="-20.19916534"><ele>171.9</ele><time>2012-07-20T14:55:49.0000000+00:00</time></trkpt><trkpt lat="64.2570343" lon="-20.19921112"><ele>171.6</ele><time>2012-07-20T14:55:54.0000000+00:00</time></trkpt><trkpt lat="64.25697327" lon="-20.19925118"><ele>171.5</ele><time>2012-07-20T14:55:59.0000000+00:00</time></trkpt><trkpt lat="64.25689697" lon="-20.19929123"><ele>172.2</ele><time>2012-07-20T14:56:04.0000000+00:00</time></trkpt><trkpt lat="64.25680542" lon="-20.19934082"><ele>170.4</ele><time>2012-07-20T14:56:09.0000000+00:00</time></trkpt><trkpt lat="64.25672913" lon="-20.19940376"><ele>170.1</ele><time>2012-07-20T14:56:14.0000000+00:00</time></trkpt><trkpt lat="64.2566452" lon="-20.19945145"><ele>170.8</ele><time>2012-07-20T14:56:19.0000000+00:00</time></trkpt><trkpt lat="64.25656891" lon="-20.19949913"><ele>171.5</ele><time>2012-07-20T14:56:24.0000000+00:00</time></trkpt><trkpt lat="64.25649262" lon="-20.19954109"><ele>172.3</ele><time>2012-07-20T14:56:29.0000000+00:00</time></trkpt><trkpt lat="64.25640869" lon="-20.19959068"><ele>172.8</ele><time>2012-07-20T14:56:34.0000000+00:00</time></trkpt><trkpt lat="64.25634003" lon="-20.19964409"><ele>173.8</ele><time>2012-07-20T14:56:39.0000000+00:00</time></trkpt><trkpt lat="64.25626373" lon="-20.1996975"><ele>175.3</ele><time>2012-07-20T14:56:44.0000000+00:00</time></trkpt><trkpt lat="64.25617981" lon="-20.19976425"><ele>176.6</ele><time>2012-07-20T14:56:49.0000000+00:00</time></trkpt><trkpt lat="64.25611115" lon="-20.19982719"><ele>177.0</ele><time>2012-07-20T14:56:54.0000000+00:00</time></trkpt><trkpt lat="64.25601196" lon="-20.19986534"><ele>176.9</ele><time>2012-07-20T14:56:59.0000000+00:00</time></trkpt><trkpt lat="64.25592804" lon="-20.19991684"><ele>177.6</ele><time>2012-07-20T14:57:04.0000000+00:00</time></trkpt><trkpt lat="64.25584412" lon="-20.19999504"><ele>178.4</ele><time>2012-07-20T14:57:09.0000000+00:00</time></trkpt><trkpt lat="64.25576019" lon="-20.20004654"><ele>179.4</ele><time>2012-07-20T14:57:14.0000000+00:00</time></trkpt><trkpt lat="64.25566864" lon="-20.20012665"><ele>180.6</ele><time>2012-07-20T14:57:19.0000000+00:00</time></trkpt><trkpt lat="64.25557709" lon="-20.20018959"><ele>180.7</ele><time>2012-07-20T14:57:24.0000000+00:00</time></trkpt><trkpt lat="64.25546265" lon="-20.20025444"><ele>179.7</ele><time>2012-07-20T14:57:29.0000000+00:00</time></trkpt><trkpt lat="64.25535584" lon="-20.20032883"><ele>179.9</ele><time>2012-07-20T14:57:34.0000000+00:00</time></trkpt><trkpt lat="64.25523377" lon="-20.20041084"><ele>180.4</ele><time>2012-07-20T14:57:39.0000000+00:00</time></trkpt><trkpt lat="64.25511932" lon="-20.20047951"><ele>181.7</ele><time>2012-07-20T14:57:44.0000000+00:00</time></trkpt><trkpt lat="64.25499725" lon="-20.20057488"><ele>182.5</ele><time>2012-07-20T14:57:49.0000000+00:00</time></trkpt><trkpt lat="64.25485992" lon="-20.20066071"><ele>181.8</ele><time>2012-07-20T14:57:54.0000000+00:00</time></trkpt><trkpt lat="64.25473023" lon="-20.20075226"><ele>183.1</ele><time>2012-07-20T14:57:59.0000000+00:00</time></trkpt><trkpt lat="64.25460053" lon="-20.20084763"><ele>182.8</ele><time>2012-07-20T14:58:04.0000000+00:00</time></trkpt><trkpt lat="64.25444794" lon="-20.20096397"><ele>182.3</ele><time>2012-07-20T14:58:09.0000000+00:00</time></trkpt><trkpt lat="64.25429535" lon="-20.20108032"><ele>183.0</ele><time>2012-07-20T14:58:14.0000000+00:00</time></trkpt><trkpt lat="64.2541275" lon="-20.2012043"><ele>183.3</ele><time>2012-07-20T14:58:19.0000000+00:00</time></trkpt><trkpt lat="64.25397492" lon="-20.20134354"><ele>183.9</ele><time>2012-07-20T14:58:24.0000000+00:00</time></trkpt><trkpt lat="64.2538147" lon="-20.20146942"><ele>183.4</ele><time>2012-07-20T14:58:29.0000000+00:00</time></trkpt><trkpt lat="64.25367737" lon="-20.20157433"><ele>182.9</ele><time>2012-07-20T14:58:34.0000000+00:00</time></trkpt><trkpt lat="64.25353241" lon="-20.20169258"><ele>182.6</ele><time>2012-07-20T14:58:39.0000000+00:00</time></trkpt><trkpt lat="64.25337982" lon="-20.20181656"><ele>183.5</ele><time>2012-07-20T14:58:44.0000000+00:00</time></trkpt><trkpt lat="64.2532196" lon="-20.20195389"><ele>183.2</ele><time>2012-07-20T14:58:49.0000000+00:00</time></trkpt><trkpt lat="64.25306702" lon="-20.20208931"><ele>183.7</ele><time>2012-07-20T14:58:54.0000000+00:00</time></trkpt><trkpt lat="64.25291443" lon="-20.20221138"><ele>183.2</ele><time>2012-07-20T14:58:59.0000000+00:00</time></trkpt><trkpt lat="64.25279999" lon="-20.20232582"><ele>182.5</ele><time>2012-07-20T14:59:04.0000000+00:00</time></trkpt><trkpt lat="64.25268555" lon="-20.20241356"><ele>181.4</ele><time>2012-07-20T14:59:09.0000000+00:00</time></trkpt><trkpt lat="64.25258637" lon="-20.2025013"><ele>181.7</ele><time>2012-07-20T14:59:14.0000000+00:00</time></trkpt><trkpt lat="64.25249481" lon="-20.20260239"><ele>182.4</ele><time>2012-07-20T14:59:19.0000000+00:00</time></trkpt><trkpt lat="64.25241089" lon="-20.20269775"><ele>182.7</ele><time>2012-07-20T14:59:24.0000000+00:00</time></trkpt><trkpt lat="64.25234985" lon="-20.20277405"><ele>185.1</ele><time>2012-07-20T14:59:29.0000000+00:00</time></trkpt><trkpt lat="64.25227356" lon="-20.20282936"><ele>186.9</ele><time>2012-07-20T14:59:34.0000000+00:00</time></trkpt><trkpt lat="64.2522049" lon="-20.20288086"><ele>186.9</ele><time>2012-07-20T14:59:39.0000000+00:00</time></trkpt><trkpt lat="64.25212097" lon="-20.2029438"><ele>186.6</ele><time>2012-07-20T14:59:44.0000000+00:00</time></trkpt><trkpt lat="64.25205231" lon="-20.20300484"><ele>186.5</ele><time>2012-07-20T14:59:49.0000000+00:00</time></trkpt><trkpt lat="64.25197601" lon="-20.20305061"><ele>186.3</ele><time>2012-07-20T14:59:54.0000000+00:00</time></trkpt><trkpt lat="64.25189209" lon="-20.20310783"><ele>186.2</ele><time>2012-07-20T14:59:59.0000000+00:00</time></trkpt><trkpt lat="64.25182343" lon="-20.2031765"><ele>187.0</ele><time>2012-07-20T15:00:04.0000000+00:00</time></trkpt><trkpt lat="64.25174713" lon="-20.20323181"><ele>187.2</ele><time>2012-07-20T15:00:09.0000000+00:00</time></trkpt><trkpt lat="64.25167847" lon="-20.20331383"><ele>187.7</ele><time>2012-07-20T15:00:14.0000000+00:00</time></trkpt><trkpt lat="64.25159454" lon="-20.20339012"><ele>188.4</ele><time>2012-07-20T15:00:19.0000000+00:00</time></trkpt><trkpt lat="64.25151825" lon="-20.20345306"><ele>188.9</ele><time>2012-07-20T15:00:24.0000000+00:00</time></trkpt><trkpt lat="64.25145721" lon="-20.20351219"><ele>189.0</ele><time>2012-07-20T15:00:29.0000000+00:00</time></trkpt><trkpt lat="64.25137329" lon="-20.20358467"><ele>189.6</ele><time>2012-07-20T15:00:34.0000000+00:00</time></trkpt><trkpt lat="64.25128937" lon="-20.20366669"><ele>189.3</ele><time>2012-07-20T15:00:39.0000000+00:00</time></trkpt><trkpt lat="64.25119782" lon="-20.20372009"><ele>189.6</ele><time>2012-07-20T15:00:44.0000000+00:00</time></trkpt><trkpt lat="64.25112915" lon="-20.20377922"><ele>190.4</ele><time>2012-07-20T15:00:49.0000000+00:00</time></trkpt><trkpt lat="64.25108337" lon="-20.203825"><ele>190.8</ele><time>2012-07-20T15:00:54.0000000+00:00</time></trkpt><trkpt lat="64.25101471" lon="-20.20388603"><ele>191.0</ele><time>2012-07-20T15:00:59.0000000+00:00</time></trkpt><trkpt lat="64.2509613" lon="-20.20393372"><ele>190.8</ele><time>2012-07-20T15:01:04.0000000+00:00</time></trkpt><trkpt lat="64.25089264" lon="-20.20399666"><ele>190.9</ele><time>2012-07-20T15:01:09.0000000+00:00</time></trkpt><trkpt lat="64.25082398" lon="-20.20405197"><ele>191.3</ele><time>2012-07-20T15:01:14.0000000+00:00</time></trkpt><trkpt lat="64.25074768" lon="-20.20410919"><ele>191.3</ele><time>2012-07-20T15:01:19.0000000+00:00</time></trkpt><trkpt lat="64.25067902" lon="-20.20418549"><ele>192.2</ele><time>2012-07-20T15:01:24.0000000+00:00</time></trkpt><trkpt lat="64.25059509" lon="-20.20423126"><ele>191.8</ele><time>2012-07-20T15:01:29.0000000+00:00</time></trkpt><trkpt lat="64.25054169" lon="-20.20428276"><ele>192.9</ele><time>2012-07-20T15:01:34.0000000+00:00</time></trkpt><trkpt lat="64.25048828" lon="-20.20434952"><ele>194.0</ele><time>2012-07-20T15:01:39.0000000+00:00</time></trkpt><trkpt lat="64.25041962" lon="-20.20438957"><ele>194.5</ele><time>2012-07-20T15:01:44.0000000+00:00</time></trkpt><trkpt lat="64.25033569" lon="-20.20446205"><ele>194.2</ele><time>2012-07-20T15:01:49.0000000+00:00</time></trkpt><trkpt lat="64.2502594" lon="-20.20454598"><ele>195.3</ele><time>2012-07-20T15:01:54.0000000+00:00</time></trkpt><trkpt lat="64.25018311" lon="-20.20462418"><ele>195.5</ele><time>2012-07-20T15:01:59.0000000+00:00</time></trkpt><trkpt lat="64.25011444" lon="-20.20467758"><ele>195.6</ele><time>2012-07-20T15:02:04.0000000+00:00</time></trkpt><trkpt lat="64.25003815" lon="-20.20474434"><ele>195.9</ele><time>2012-07-20T15:02:09.0000000+00:00</time></trkpt><trkpt lat="64.24995422" lon="-20.20480156"><ele>195.6</ele><time>2012-07-20T15:02:14.0000000+00:00</time></trkpt><trkpt lat="64.24986267" lon="-20.20487404"><ele>196.1</ele><time>2012-07-20T15:02:19.0000000+00:00</time></trkpt><trkpt lat="64.24977112" lon="-20.20496559"><ele>197.3</ele><time>2012-07-20T15:02:24.0000000+00:00</time></trkpt><trkpt lat="64.24969482" lon="-20.20505714"><ele>197.9</ele><time>2012-07-20T15:02:29.0000000+00:00</time></trkpt><trkpt lat="64.24960327" lon="-20.20513535"><ele>198.5</ele><time>2012-07-20T15:02:34.0000000+00:00</time></trkpt><trkpt lat="64.24951935" lon="-20.20520783"><ele>199.4</ele><time>2012-07-20T15:02:39.0000000+00:00</time></trkpt><trkpt lat="64.24942017" lon="-20.20531082"><ele>199.6</ele><time>2012-07-20T15:02:44.0000000+00:00</time></trkpt><trkpt lat="64.24931335" lon="-20.20541382"><ele>200.5</ele><time>2012-07-20T15:02:49.0000000+00:00</time></trkpt><trkpt lat="64.24920654" lon="-20.20552063"><ele>200.3</ele><time>2012-07-20T15:02:54.0000000+00:00</time></trkpt><trkpt lat="64.24909973" lon="-20.20563507"><ele>200.0</ele><time>2012-07-20T15:02:59.0000000+00:00</time></trkpt><trkpt lat="64.24897766" lon="-20.20576859"><ele>200.2</ele><time>2012-07-20T15:03:04.0000000+00:00</time></trkpt><trkpt lat="64.24886322" lon="-20.20593453"><ele>200.8</ele><time>2012-07-20T15:03:09.0000000+00:00</time></trkpt><trkpt lat="64.24874878" lon="-20.20611572"><ele>201.0</ele><time>2012-07-20T15:03:14.0000000+00:00</time></trkpt><trkpt lat="64.24863434" lon="-20.20631599"><ele>201.5</ele><time>2012-07-20T15:03:19.0000000+00:00</time></trkpt><trkpt lat="64.24853516" lon="-20.20650101"><ele>201.7</ele><time>2012-07-20T15:03:24.0000000+00:00</time></trkpt><trkpt lat="64.24842835" lon="-20.20670891"><ele>202.2</ele><time>2012-07-20T15:03:29.0000000+00:00</time></trkpt><trkpt lat="64.24832153" lon="-20.20693588"><ele>201.2</ele><time>2012-07-20T15:03:34.0000000+00:00</time></trkpt><trkpt lat="64.24823761" lon="-20.20715523"><ele>201.1</ele><time>2012-07-20T15:03:39.0000000+00:00</time></trkpt><trkpt lat="64.24815369" lon="-20.20740128"><ele>202.7</ele><time>2012-07-20T15:03:44.0000000+00:00</time></trkpt><trkpt lat="64.24806976" lon="-20.20763779"><ele>202.6</ele><time>2012-07-20T15:03:49.0000000+00:00</time></trkpt><trkpt lat="64.24799347" lon="-20.20790672"><ele>202.2</ele><time>2012-07-20T15:03:54.0000000+00:00</time></trkpt><trkpt lat="64.24791718" lon="-20.20815849"><ele>201.1</ele><time>2012-07-20T15:03:59.0000000+00:00</time></trkpt><trkpt lat="64.24784851" lon="-20.20839882"><ele>201.6</ele><time>2012-07-20T15:04:04.0000000+00:00</time></trkpt><trkpt lat="64.24778748" lon="-20.20863152"><ele>202.3</ele><time>2012-07-20T15:04:09.0000000+00:00</time></trkpt><trkpt lat="64.24771118" lon="-20.20886421"><ele>202.8</ele><time>2012-07-20T15:04:14.0000000+00:00</time></trkpt><trkpt lat="64.24762726" lon="-20.20911408"><ele>204.1</ele><time>2012-07-20T15:04:19.0000000+00:00</time></trkpt><trkpt lat="64.24755096" lon="-20.20932961"><ele>206.3</ele><time>2012-07-20T15:04:24.0000000+00:00</time></trkpt><trkpt lat="64.2474823" lon="-20.20952988"><ele>209.2</ele><time>2012-07-20T15:04:29.0000000+00:00</time></trkpt><trkpt lat="64.24741364" lon="-20.20969009"><ele>208.4</ele><time>2012-07-20T15:04:34.0000000+00:00</time></trkpt><trkpt lat="64.24736786" lon="-20.20981789"><ele>212.1</ele><time>2012-07-20T15:04:39.0000000+00:00</time></trkpt><trkpt lat="64.24729157" lon="-20.20995712"><ele>213.3</ele><time>2012-07-20T15:04:44.0000000+00:00</time></trkpt><trkpt lat="64.24721527" lon="-20.21010208"><ele>212.5</ele><time>2012-07-20T15:04:49.0000000+00:00</time></trkpt><trkpt lat="64.2471695" lon="-20.21021271"><ele>210.8</ele><time>2012-07-20T15:04:54.0000000+00:00</time></trkpt><trkpt lat="64.24710846" lon="-20.21034241"><ele>209.7</ele><time>2012-07-20T15:04:59.0000000+00:00</time></trkpt><trkpt lat="64.2470398" lon="-20.21045303"><ele>208.4</ele><time>2012-07-20T15:05:04.0000000+00:00</time></trkpt><trkpt lat="64.24698639" lon="-20.21057892"><ele>207.4</ele><time>2012-07-20T15:05:09.0000000+00:00</time></trkpt><trkpt lat="64.24692535" lon="-20.21070671"><ele>206.1</ele><time>2012-07-20T15:05:14.0000000+00:00</time></trkpt><trkpt lat="64.24685669" lon="-20.21083641"><ele>206.8</ele><time>2012-07-20T15:05:19.0000000+00:00</time></trkpt><trkpt lat="64.24678803" lon="-20.21097565"><ele>205.0</ele><time>2012-07-20T15:05:24.0000000+00:00</time></trkpt><trkpt lat="64.2467041" lon="-20.21112442"><ele>205.2</ele><time>2012-07-20T15:05:29.0000000+00:00</time></trkpt><trkpt lat="64.24662018" lon="-20.21129036"><ele>206.1</ele><time>2012-07-20T15:05:34.0000000+00:00</time></trkpt><trkpt lat="64.24652863" lon="-20.21144486"><ele>206.0</ele><time>2012-07-20T15:05:39.0000000+00:00</time></trkpt><trkpt lat="64.24643707" lon="-20.21159744"><ele>207.1</ele><time>2012-07-20T15:05:44.0000000+00:00</time></trkpt><trkpt lat="64.24633789" lon="-20.21174622"><ele>208.1</ele><time>2012-07-20T15:05:49.0000000+00:00</time></trkpt><trkpt lat="64.24624634" lon="-20.21188545"><ele>207.9</ele><time>2012-07-20T15:05:54.0000000+00:00</time></trkpt><trkpt lat="64.24613953" lon="-20.2120266"><ele>207.1</ele><time>2012-07-20T15:05:59.0000000+00:00</time></trkpt><trkpt lat="64.24602509" lon="-20.212183"><ele>208.3</ele><time>2012-07-20T15:06:04.0000000+00:00</time></trkpt><trkpt lat="64.24594116" lon="-20.21230507"><ele>209.6</ele><time>2012-07-20T15:06:09.0000000+00:00</time></trkpt><trkpt lat="64.2458725" lon="-20.21237564"><ele>210.5</ele><time>2012-07-20T15:06:14.0000000+00:00</time></trkpt><trkpt lat="64.24578857" lon="-20.21247864"><ele>209.8</ele><time>2012-07-20T15:06:19.0000000+00:00</time></trkpt><trkpt lat="64.2457428" lon="-20.2126236"><ele>208.6</ele><time>2012-07-20T15:06:24.0000000+00:00</time></trkpt><trkpt lat="64.2457428" lon="-20.21268463"><ele>208.6</ele><time>2012-07-20T15:06:29.0000000+00:00</time></trkpt><trkpt lat="64.24575043" lon="-20.21268272"><ele>209.9</ele><time>2012-07-20T15:06:34.0000000+00:00</time></trkpt><trkpt lat="64.2457428" lon="-20.21267319"><ele>210.5</ele><time>2012-07-20T15:06:39.0000000+00:00</time></trkpt><trkpt lat="64.2457428" lon="-20.21267128"><ele>210.4</ele><time>2012-07-20T15:06:44.0000000+00:00</time></trkpt><trkpt lat="64.2457428" lon="-20.21267128"><ele>210.4</ele><time>2012-07-20T15:06:49.0000000+00:00</time></trkpt><trkpt lat="64.2457428" lon="-20.21267128"><ele>210.4</ele><time>2012-07-20T15:06:54.0000000+00:00</time></trkpt><trkpt lat="64.2457428" lon="-20.21267128"><ele>210.4</ele><time>2012-07-20T15:06:59.0000000+00:00</time></trkpt><trkpt lat="64.2457428" lon="-20.21267128"><ele>210.4</ele><time>2012-07-20T15:07:04.0000000+00:00</time></trkpt><trkpt lat="64.2457428" lon="-20.21267128"><ele>210.4</ele><time>2012-07-20T15:07:09.0000000+00:00</time></trkpt><trkpt lat="64.2457428" lon="-20.21267128"><ele>210.4</ele><time>2012-07-20T15:07:14.0000000+00:00</time></trkpt><trkpt lat="64.2457428" lon="-20.21267128"><ele>210.4</ele><time>2012-07-20T15:07:19.0000000+00:00</time></trkpt><trkpt lat="64.2457428" lon="-20.21267128"><ele>210.4</ele><time>2012-07-20T15:07:24.0000000+00:00</time></trkpt><trkpt lat="64.2457428" lon="-20.21267128"><ele>210.4</ele><time>2012-07-20T15:07:29.0000000+00:00</time></trkpt><trkpt lat="64.2457428" lon="-20.21267128"><ele>210.5</ele><time>2012-07-20T15:07:34.0000000+00:00</time></trkpt><trkpt lat="64.2457428" lon="-20.21267128"><ele>210.5</ele><time>2012-07-20T15:07:39.0000000+00:00</time></trkpt><trkpt lat="64.2457428" lon="-20.21267128"><ele>210.5</ele><time>2012-07-20T15:07:44.0000000+00:00</time></trkpt><trkpt lat="64.2457428" lon="-20.21267128"><ele>210.5</ele><time>2012-07-20T15:07:49.0000000+00:00</time></trkpt><trkpt lat="64.2457428" lon="-20.21267128"><ele>210.5</ele><time>2012-07-20T15:07:54.0000000+00:00</time></trkpt><trkpt lat="64.2457428" lon="-20.21267128"><ele>210.5</ele><time>2012-07-20T15:07:59.0000000+00:00</time></trkpt><trkpt lat="64.2457428" lon="-20.21266937"><ele>210.5</ele><time>2012-07-20T15:08:04.0000000+00:00</time></trkpt><trkpt lat="64.2457428" lon="-20.21266937"><ele>210.5</ele><time>2012-07-20T15:08:09.0000000+00:00</time></trkpt><trkpt lat="64.2457428" lon="-20.21266937"><ele>210.5</ele><time>2012-07-20T15:08:14.0000000+00:00</time></trkpt><trkpt lat="64.2457428" lon="-20.21266937"><ele>210.5</ele><time>2012-07-20T15:08:19.0000000+00:00</time></trkpt><trkpt lat="64.2457428" lon="-20.21266937"><ele>210.5</ele><time>2012-07-20T15:08:24.0000000+00:00</time></trkpt><trkpt lat="64.2457428" lon="-20.21266937"><ele>210.5</ele><time>2012-07-20T15:08:29.0000000+00:00</time></trkpt><trkpt lat="64.2457428" lon="-20.21266937"><ele>210.6</ele><time>2012-07-20T15:08:34.0000000+00:00</time></trkpt><trkpt lat="64.2457428" lon="-20.21266937"><ele>210.6</ele><time>2012-07-20T15:08:39.0000000+00:00</time></trkpt><trkpt lat="64.2457428" lon="-20.21266937"><ele>210.6</ele><time>2012-07-20T15:08:44.0000000+00:00</time></trkpt><trkpt lat="64.2457428" lon="-20.21266937"><ele>210.6</ele><time>2012-07-20T15:08:49.0000000+00:00</time></trkpt><trkpt lat="64.2457428" lon="-20.21266937"><ele>210.6</ele><time>2012-07-20T15:08:54.0000000+00:00</time></trkpt><trkpt lat="64.2457428" lon="-20.21266937"><ele>210.6</ele><time>2012-07-20T15:08:59.0000000+00:00</time></trkpt><trkpt lat="64.2457428" lon="-20.21266937"><ele>210.6</ele><time>2012-07-20T15:09:04.0000000+00:00</time></trkpt><trkpt lat="64.2457428" lon="-20.21266937"><ele>210.6</ele><time>2012-07-20T15:09:09.0000000+00:00</time></trkpt><trkpt lat="64.2457428" lon="-20.21266937"><ele>210.6</ele><time>2012-07-20T15:09:14.0000000+00:00</time></trkpt><trkpt lat="64.2457428" lon="-20.21266937"><ele>210.6</ele><time>2012-07-20T15:09:19.0000000+00:00</time></trkpt><trkpt lat="64.2457428" lon="-20.21266937"><ele>210.6</ele><time>2012-07-20T15:09:24.0000000+00:00</time></trkpt><trkpt lat="64.2457428" lon="-20.21266937"><ele>210.6</ele><time>2012-07-20T15:09:29.0000000+00:00</time></trkpt><trkpt lat="64.2457428" lon="-20.21266937"><ele>210.6</ele><time>2012-07-20T15:09:34.0000000+00:00</time></trkpt><trkpt lat="64.2457428" lon="-20.21266937"><ele>210.6</ele><time>2012-07-20T15:09:39.0000000+00:00</time></trkpt><trkpt lat="64.2457428" lon="-20.21266937"><ele>210.6</ele><time>2012-07-20T15:09:44.0000000+00:00</time></trkpt><trkpt lat="64.2457428" lon="-20.21266747"><ele>210.6</ele><time>2012-07-20T15:09:49.0000000+00:00</time></trkpt><trkpt lat="64.2457428" lon="-20.21266747"><ele>210.6</ele><time>2012-07-20T15:09:54.0000000+00:00</time></trkpt><trkpt lat="64.2457428" lon="-20.21266937"><ele>210.7</ele><time>2012-07-20T15:09:59.0000000+00:00</time></trkpt><trkpt lat="64.2457428" lon="-20.21266937"><ele>210.7</ele><time>2012-07-20T15:10:04.0000000+00:00</time></trkpt><trkpt lat="64.2457428" lon="-20.21266747"><ele>210.6</ele><time>2012-07-20T15:10:09.0000000+00:00</time></trkpt><trkpt lat="64.2457428" lon="-20.21266747"><ele>210.7</ele><time>2012-07-20T15:10:14.0000000+00:00</time></trkpt><trkpt lat="64.2457428" lon="-20.21266747"><ele>210.7</ele><time>2012-07-20T15:10:19.0000000+00:00</time></trkpt><trkpt lat="64.2457428" lon="-20.21266747"><ele>210.7</ele><time>2012-07-20T15:10:24.0000000+00:00</time></trkpt><trkpt lat="64.2457428" lon="-20.21266747"><ele>210.7</ele><time>2012-07-20T15:10:29.0000000+00:00</time></trkpt><trkpt lat="64.2457428" lon="-20.21266747"><ele>210.7</ele><time>2012-07-20T15:10:34.0000000+00:00</time></trkpt><trkpt lat="64.2457428" lon="-20.21266747"><ele>210.7</ele><time>2012-07-20T15:10:39.0000000+00:00</time></trkpt><trkpt lat="64.2457428" lon="-20.21266747"><ele>210.7</ele><time>2012-07-20T15:10:44.0000000+00:00</time></trkpt><trkpt lat="64.2457428" lon="-20.21266747"><ele>210.7</ele><time>2012-07-20T15:10:49.0000000+00:00</time></trkpt><trkpt lat="64.2457428" lon="-20.21266747"><ele>210.7</ele><time>2012-07-20T15:10:54.0000000+00:00</time></trkpt><trkpt lat="64.2457428" lon="-20.21266747"><ele>210.7</ele><time>2012-07-20T15:10:59.0000000+00:00</time></trkpt><trkpt lat="64.2457428" lon="-20.21266747"><ele>210.7</ele><time>2012-07-20T15:11:04.0000000+00:00</time></trkpt><trkpt lat="64.2457428" lon="-20.21266747"><ele>210.7</ele><time>2012-07-20T15:11:09.0000000+00:00</time></trkpt><trkpt lat="64.2457428" lon="-20.21266747"><ele>210.7</ele><time>2012-07-20T15:11:14.0000000+00:00</time></trkpt><trkpt lat="64.2457428" lon="-20.21266747"><ele>210.7</ele><time>2012-07-20T15:11:19.0000000+00:00</time></trkpt><trkpt lat="64.2457428" lon="-20.21266747"><ele>210.7</ele><time>2012-07-20T15:11:24.0000000+00:00</time></trkpt><trkpt lat="64.2457428" lon="-20.21266747"><ele>210.7</ele><time>2012-07-20T15:11:29.0000000+00:00</time></trkpt><trkpt lat="64.2457428" lon="-20.21266747"><ele>210.8</ele><time>2012-07-20T15:11:34.0000000+00:00</time></trkpt><trkpt lat="64.2457428" lon="-20.21266747"><ele>210.8</ele><time>2012-07-20T15:11:39.0000000+00:00</time></trkpt><trkpt lat="64.2457428" lon="-20.21266747"><ele>210.8</ele><time>2012-07-20T15:11:44.0000000+00:00</time></trkpt><trkpt lat="64.2457428" lon="-20.21266747"><ele>210.8</ele><time>2012-07-20T15:11:49.0000000+00:00</time></trkpt><trkpt lat="64.2457428" lon="-20.21266747"><ele>210.8</ele><time>2012-07-20T15:11:54.0000000+00:00</time></trkpt><trkpt lat="64.2457428" lon="-20.21266747"><ele>210.8</ele><time>2012-07-20T15:11:59.0000000+00:00</time></trkpt><trkpt lat="64.2457428" lon="-20.21266747"><ele>210.8</ele><time>2012-07-20T15:12:04.0000000+00:00</time></trkpt><trkpt lat="64.2457428" lon="-20.21266747"><ele>210.8</ele><time>2012-07-20T15:12:09.0000000+00:00</time></trkpt><trkpt lat="64.2457428" lon="-20.21266747"><ele>210.8</ele><time>2012-07-20T15:12:14.0000000+00:00</time></trkpt><trkpt lat="64.2457428" lon="-20.21266747"><ele>210.8</ele><time>2012-07-20T15:12:19.0000000+00:00</time></trkpt><trkpt lat="64.2457428" lon="-20.21266747"><ele>210.9</ele><time>2012-07-20T15:12:24.0000000+00:00</time></trkpt><trkpt lat="64.2457428" lon="-20.21266747"><ele>210.9</ele><time>2012-07-20T15:12:29.0000000+00:00</time></trkpt><trkpt lat="64.2457428" lon="-20.21266747"><ele>210.9</ele><time>2012-07-20T15:12:34.0000000+00:00</time></trkpt><trkpt lat="64.2457428" lon="-20.21266747"><ele>210.9</ele><time>2012-07-20T15:12:39.0000000+00:00</time></trkpt><trkpt lat="64.2457428" lon="-20.21266747"><ele>210.9</ele><time>2012-07-20T15:12:44.0000000+00:00</time></trkpt><trkpt lat="64.2457428" lon="-20.21266747"><ele>210.9</ele><time>2012-07-20T15:12:49.0000000+00:00</time></trkpt><trkpt lat="64.2457428" lon="-20.21266747"><ele>210.9</ele><time>2012-07-20T15:12:54.0000000+00:00</time></trkpt><trkpt lat="64.2457428" lon="-20.21266747"><ele>210.9</ele><time>2012-07-20T15:12:59.0000000+00:00</time></trkpt><trkpt lat="64.2457428" lon="-20.21266747"><ele>210.9</ele><time>2012-07-20T15:13:04.0000000+00:00</time></trkpt><trkpt lat="64.2457428" lon="-20.21266747"><ele>210.9</ele><time>2012-07-20T15:13:09.0000000+00:00</time></trkpt><trkpt lat="64.2457428" lon="-20.21266747"><ele>211.0</ele><time>2012-07-20T15:13:14.0000000+00:00</time></trkpt><trkpt lat="64.2457428" lon="-20.21266747"><ele>211.0</ele><time>2012-07-20T15:13:19.0000000+00:00</time></trkpt><trkpt lat="64.2457428" lon="-20.21266747"><ele>211.0</ele><time>2012-07-20T15:13:24.0000000+00:00</time></trkpt><trkpt lat="64.2457428" lon="-20.21266747"><ele>211.0</ele><time>2012-07-20T15:13:29.0000000+00:00</time></trkpt><trkpt lat="64.2457428" lon="-20.21266747"><ele>211.0</ele><time>2012-07-20T15:13:34.0000000+00:00</time></trkpt><trkpt lat="64.2457428" lon="-20.21266747"><ele>211.0</ele><time>2012-07-20T15:13:39.0000000+00:00</time></trkpt><trkpt lat="64.2457428" lon="-20.21266747"><ele>211.0</ele><time>2012-07-20T15:13:44.0000000+00:00</time></trkpt><trkpt lat="64.2457428" lon="-20.21266747"><ele>211.0</ele><time>2012-07-20T15:13:49.0000000+00:00</time></trkpt><trkpt lat="64.2457428" lon="-20.21266747"><ele>211.0</ele><time>2012-07-20T15:13:54.0000000+00:00</time></trkpt><trkpt lat="64.2457428" lon="-20.21266747"><ele>211.0</ele><time>2012-07-20T15:13:59.0000000+00:00</time></trkpt><trkpt lat="64.2457428" lon="-20.21266747"><ele>211.0</ele><time>2012-07-20T15:14:04.0000000+00:00</time></trkpt><trkpt lat="64.2457428" lon="-20.21266747"><ele>211.0</ele><time>2012-07-20T15:14:09.0000000+00:00</time></trkpt><trkpt lat="64.2457428" lon="-20.21266747"><ele>211.0</ele><time>2012-07-20T15:14:14.0000000+00:00</time></trkpt><trkpt lat="64.2457428" lon="-20.21266747"><ele>211.1</ele><time>2012-07-20T15:14:19.0000000+00:00</time></trkpt><trkpt lat="64.2457428" lon="-20.21266747"><ele>211.1</ele><time>2012-07-20T15:14:24.0000000+00:00</time></trkpt><trkpt lat="64.2457428" lon="-20.21266747"><ele>211.1</ele><time>2012-07-20T15:14:29.0000000+00:00</time></trkpt><trkpt lat="64.2457428" lon="-20.21266747"><ele>211.1</ele><time>2012-07-20T15:14:34.0000000+00:00</time></trkpt><trkpt lat="64.2457428" lon="-20.21266747"><ele>211.1</ele><time>2012-07-20T15:14:39.0000000+00:00</time></trkpt><trkpt lat="64.2457428" lon="-20.21266747"><ele>211.1</ele><time>2012-07-20T15:14:44.0000000+00:00</time></trkpt><trkpt lat="64.2457428" lon="-20.21266747"><ele>211.1</ele><time>2012-07-20T15:14:49.0000000+00:00</time></trkpt><trkpt lat="64.2457428" lon="-20.21266747"><ele>211.1</ele><time>2012-07-20T15:14:54.0000000+00:00</time></trkpt><trkpt lat="64.2457428" lon="-20.21266747"><ele>211.1</ele><time>2012-07-20T15:14:59.0000000+00:00</time></trkpt><trkpt lat="64.2457428" lon="-20.21266747"><ele>211.1</ele><time>2012-07-20T15:15:04.0000000+00:00</time></trkpt><trkpt lat="64.2457428" lon="-20.21266556"><ele>211.1</ele><time>2012-07-20T15:15:09.0000000+00:00</time></trkpt><trkpt lat="64.2457428" lon="-20.21266747"><ele>211.1</ele><time>2012-07-20T15:15:14.0000000+00:00</time></trkpt><trkpt lat="64.2457428" lon="-20.21266556"><ele>211.1</ele><time>2012-07-20T15:15:19.0000000+00:00</time></trkpt><trkpt lat="64.2457428" lon="-20.21266556"><ele>211.1</ele><time>2012-07-20T15:15:24.0000000+00:00</time></trkpt><trkpt lat="64.2457428" lon="-20.21266556"><ele>211.1</ele><time>2012-07-20T15:15:29.0000000+00:00</time></trkpt><trkpt lat="64.2457428" lon="-20.21266556"><ele>211.2</ele><time>2012-07-20T15:15:34.0000000+00:00</time></trkpt><trkpt lat="64.2457428" lon="-20.21266556"><ele>211.2</ele><time>2012-07-20T15:15:39.0000000+00:00</time></trkpt><trkpt lat="64.2457428" lon="-20.21266556"><ele>211.2</ele><time>2012-07-20T15:15:44.0000000+00:00</time></trkpt><trkpt lat="64.2457428" lon="-20.21266556"><ele>211.2</ele><time>2012-07-20T15:15:49.0000000+00:00</time></trkpt><trkpt lat="64.2457428" lon="-20.21266556"><ele>211.2</ele><time>2012-07-20T15:15:54.0000000+00:00</time></trkpt><trkpt lat="64.2457428" lon="-20.21266556"><ele>211.2</ele><time>2012-07-20T15:15:59.0000000+00:00</time></trkpt><trkpt lat="64.2457428" lon="-20.21266556"><ele>211.2</ele><time>2012-07-20T15:16:04.0000000+00:00</time></trkpt><trkpt lat="64.2457428" lon="-20.21266556"><ele>211.2</ele><time>2012-07-20T15:16:09.0000000+00:00</time></trkpt><trkpt lat="64.2457428" lon="-20.21266556"><ele>211.2</ele><time>2012-07-20T15:16:14.0000000+00:00</time></trkpt><trkpt lat="64.2457428" lon="-20.21266556"><ele>211.2</ele><time>2012-07-20T15:16:19.0000000+00:00</time></trkpt><trkpt lat="64.2457428" lon="-20.21266556"><ele>211.2</ele><time>2012-07-20T15:16:24.0000000+00:00</time></trkpt><trkpt lat="64.2457428" lon="-20.21266556"><ele>211.2</ele><time>2012-07-20T15:16:29.0000000+00:00</time></trkpt><trkpt lat="64.2457428" lon="-20.21266365"><ele>211.2</ele><time>2012-07-20T15:16:34.0000000+00:00</time></trkpt><trkpt lat="64.2457428" lon="-20.21266365"><ele>211.2</ele><time>2012-07-20T15:16:39.0000000+00:00</time></trkpt><trkpt lat="64.2457428" lon="-20.21266365"><ele>211.2</ele><time>2012-07-20T15:16:44.0000000+00:00</time></trkpt><trkpt lat="64.2457428" lon="-20.21266365"><ele>211.2</ele><time>2012-07-20T15:16:49.0000000+00:00</time></trkpt><trkpt lat="64.2457428" lon="-20.21266365"><ele>211.2</ele><time>2012-07-20T15:16:54.0000000+00:00</time></trkpt><trkpt lat="64.2457428" lon="-20.21266365"><ele>211.2</ele><time>2012-07-20T15:16:59.0000000+00:00</time></trkpt><trkpt lat="64.2457428" lon="-20.21266365"><ele>211.2</ele><time>2012-07-20T15:17:04.0000000+00:00</time></trkpt><trkpt lat="64.2457428" lon="-20.21266365"><ele>211.2</ele><time>2012-07-20T15:17:09.0000000+00:00</time></trkpt><trkpt lat="64.2457428" lon="-20.21266365"><ele>211.2</ele><time>2012-07-20T15:17:14.0000000+00:00</time></trkpt><trkpt lat="64.2457428" lon="-20.21266365"><ele>211.2</ele><time>2012-07-20T15:17:19.0000000+00:00</time></trkpt><trkpt lat="64.2457428" lon="-20.21266365"><ele>211.2</ele><time>2012-07-20T15:17:24.0000000+00:00</time></trkpt><trkpt lat="64.2457428" lon="-20.21266365"><ele>211.2</ele><time>2012-07-20T15:17:29.0000000+00:00</time></trkpt><trkpt lat="64.2457428" lon="-20.21266365"><ele>211.2</ele><time>2012-07-20T15:17:34.0000000+00:00</time></trkpt><trkpt lat="64.2457428" lon="-20.21266365"><ele>211.2</ele><time>2012-07-20T15:17:39.0000000+00:00</time></trkpt><trkpt lat="64.2457428" lon="-20.21266365"><ele>211.2</ele><time>2012-07-20T15:17:44.0000000+00:00</time></trkpt><trkpt lat="64.2457428" lon="-20.21266365"><ele>211.2</ele><time>2012-07-20T15:17:49.0000000+00:00</time></trkpt><trkpt lat="64.2457428" lon="-20.21266365"><ele>211.2</ele><time>2012-07-20T15:17:54.0000000+00:00</time></trkpt><trkpt lat="64.2457428" lon="-20.21266365"><ele>211.2</ele><time>2012-07-20T15:17:59.0000000+00:00</time></trkpt><trkpt lat="64.2457428" lon="-20.21266365"><ele>211.2</ele><time>2012-07-20T15:18:04.0000000+00:00</time></trkpt><trkpt lat="64.2457428" lon="-20.21266365"><ele>211.2</ele><time>2012-07-20T15:18:09.0000000+00:00</time></trkpt><trkpt lat="64.2457428" lon="-20.21266365"><ele>211.2</ele><time>2012-07-20T15:18:14.0000000+00:00</time></trkpt><trkpt lat="64.2457428" lon="-20.21266365"><ele>211.2</ele><time>2012-07-20T15:18:19.0000000+00:00</time></trkpt><trkpt lat="64.2457428" lon="-20.21266365"><ele>211.2</ele><time>2012-07-20T15:18:24.0000000+00:00</time></trkpt><trkpt lat="64.2457428" lon="-20.21266365"><ele>211.2</ele><time>2012-07-20T15:18:29.0000000+00:00</time></trkpt><trkpt lat="64.2457428" lon="-20.21266365"><ele>211.2</ele><time>2012-07-20T15:18:34.0000000+00:00</time></trkpt><trkpt lat="64.2457428" lon="-20.21266365"><ele>211.2</ele><time>2012-07-20T15:18:39.0000000+00:00</time></trkpt><trkpt lat="64.2457428" lon="-20.21266365"><ele>211.2</ele><time>2012-07-20T15:18:44.0000000+00:00</time></trkpt><trkpt lat="64.2457428" lon="-20.21266365"><ele>211.2</ele><time>2012-07-20T15:18:49.0000000+00:00</time></trkpt><trkpt lat="64.2457428" lon="-20.21266365"><ele>211.2</ele><time>2012-07-20T15:18:54.0000000+00:00</time></trkpt><trkpt lat="64.2457428" lon="-20.21266365"><ele>211.2</ele><time>2012-07-20T15:18:59.0000000+00:00</time></trkpt><trkpt lat="64.2457428" lon="-20.21266365"><ele>211.2</ele><time>2012-07-20T15:19:04.0000000+00:00</time></trkpt><trkpt lat="64.2457428" lon="-20.21266365"><ele>211.2</ele><time>2012-07-20T15:19:09.0000000+00:00</time></trkpt><trkpt lat="64.2457428" lon="-20.21266365"><ele>211.2</ele><time>2012-07-20T15:19:14.0000000+00:00</time></trkpt><trkpt lat="64.2457428" lon="-20.21266365"><ele>211.2</ele><time>2012-07-20T15:19:19.0000000+00:00</time></trkpt><trkpt lat="64.2457428" lon="-20.21266365"><ele>211.2</ele><time>2012-07-20T15:19:24.0000000+00:00</time></trkpt><trkpt lat="64.2457428" lon="-20.21266365"><ele>211.2</ele><time>2012-07-20T15:19:29.0000000+00:00</time></trkpt><trkpt lat="64.2457428" lon="-20.21266365"><ele>211.2</ele><time>2012-07-20T15:19:34.0000000+00:00</time></trkpt><trkpt lat="64.2457428" lon="-20.21266365"><ele>211.2</ele><time>2012-07-20T15:19:39.0000000+00:00</time></trkpt><trkpt lat="64.2457428" lon="-20.21266365"><ele>211.2</ele><time>2012-07-20T15:19:44.0000000+00:00</time></trkpt><trkpt lat="64.2457428" lon="-20.21266365"><ele>211.2</ele><time>2012-07-20T15:19:49.0000000+00:00</time></trkpt><trkpt lat="64.2457428" lon="-20.21266174"><ele>211.2</ele><time>2012-07-20T15:19:54.0000000+00:00</time></trkpt><trkpt lat="64.2457428" lon="-20.21266174"><ele>211.2</ele><time>2012-07-20T15:19:59.0000000+00:00</time></trkpt><trkpt lat="64.2457428" lon="-20.21266174"><ele>211.2</ele><time>2012-07-20T15:20:04.0000000+00:00</time></trkpt><trkpt lat="64.2457428" lon="-20.21266174"><ele>211.2</ele><time>2012-07-20T15:20:09.0000000+00:00</time></trkpt><trkpt lat="64.2457428" lon="-20.21266174"><ele>211.2</ele><time>2012-07-20T15:20:14.0000000+00:00</time></trkpt><trkpt lat="64.2457428" lon="-20.21266174"><ele>211.2</ele><time>2012-07-20T15:20:19.0000000+00:00</time></trkpt><trkpt lat="64.2457428" lon="-20.21266174"><ele>211.2</ele><time>2012-07-20T15:20:24.0000000+00:00</time></trkpt><trkpt lat="64.2457428" lon="-20.21266174"><ele>211.2</ele><time>2012-07-20T15:20:29.0000000+00:00</time></trkpt><trkpt lat="64.2457428" lon="-20.21266174"><ele>211.2</ele><time>2012-07-20T15:20:34.0000000+00:00</time></trkpt><trkpt lat="64.2457428" lon="-20.21266174"><ele>211.2</ele><time>2012-07-20T15:20:39.0000000+00:00</time></trkpt><trkpt lat="64.2457428" lon="-20.21266174"><ele>211.2</ele><time>2012-07-20T15:20:44.0000000+00:00</time></trkpt><trkpt lat="64.2457428" lon="-20.21266174"><ele>211.2</ele><time>2012-07-20T15:20:49.0000000+00:00</time></trkpt><trkpt lat="64.2457428" lon="-20.21266174"><ele>211.2</ele><time>2012-07-20T15:20:54.0000000+00:00</time></trkpt><trkpt lat="64.2457428" lon="-20.21265984"><ele>211.2</ele><time>2012-07-20T15:20:59.0000000+00:00</time></trkpt><trkpt lat="64.2457428" lon="-20.21266174"><ele>211.2</ele><time>2012-07-20T15:21:04.0000000+00:00</time></trkpt><trkpt lat="64.2457428" lon="-20.21265984"><ele>211.1</ele><time>2012-07-20T15:21:09.0000000+00:00</time></trkpt><trkpt lat="64.2457428" lon="-20.21265984"><ele>211.1</ele><time>2012-07-20T15:21:14.0000000+00:00</time></trkpt><trkpt lat="64.2457428" lon="-20.21265984"><ele>211.1</ele><time>2012-07-20T15:21:19.0000000+00:00</time></trkpt><trkpt lat="64.2457428" lon="-20.21265984"><ele>211.1</ele><time>2012-07-20T15:21:24.0000000+00:00</time></trkpt><trkpt lat="64.2457428" lon="-20.21265984"><ele>211.1</ele><time>2012-07-20T15:21:29.0000000+00:00</time></trkpt><trkpt lat="64.2457428" lon="-20.21265984"><ele>211.1</ele><time>2012-07-20T15:21:34.0000000+00:00</time></trkpt><trkpt lat="64.2457428" lon="-20.21265984"><ele>211.1</ele><time>2012-07-20T15:21:39.0000000+00:00</time></trkpt><trkpt lat="64.2457428" lon="-20.21265984"><ele>211.1</ele><time>2012-07-20T15:21:44.0000000+00:00</time></trkpt><trkpt lat="64.2457428" lon="-20.21265984"><ele>211.1</ele><time>2012-07-20T15:21:49.0000000+00:00</time></trkpt><trkpt lat="64.2457428" lon="-20.21265984"><ele>211.1</ele><time>2012-07-20T15:21:54.0000000+00:00</time></trkpt><trkpt lat="64.2457428" lon="-20.21265984"><ele>211.1</ele><time>2012-07-20T15:21:59.0000000+00:00</time></trkpt><trkpt lat="64.2457428" lon="-20.21265984"><ele>211.1</ele><time>2012-07-20T15:22:04.0000000+00:00</time></trkpt><trkpt lat="64.2457428" lon="-20.21265984"><ele>211.1</ele><time>2012-07-20T15:22:09.0000000+00:00</time></trkpt><trkpt lat="64.2457428" lon="-20.21265984"><ele>211.1</ele><time>2012-07-20T15:22:14.0000000+00:00</time></trkpt><trkpt lat="64.2457428" lon="-20.21265984"><ele>211.1</ele><time>2012-07-20T15:22:19.0000000+00:00</time></trkpt><trkpt lat="64.2457428" lon="-20.21265793"><ele>211.1</ele><time>2012-07-20T15:22:24.0000000+00:00</time></trkpt><trkpt lat="64.2457428" lon="-20.21265984"><ele>211.2</ele><time>2012-07-20T15:22:29.0000000+00:00</time></trkpt><trkpt lat="64.2457428" lon="-20.21266365"><ele>211.2</ele><time>2012-07-20T15:22:34.0000000+00:00</time></trkpt><trkpt lat="64.24575043" lon="-20.21266937"><ele>211.7</ele><time>2012-07-20T15:22:39.0000000+00:00</time></trkpt><trkpt lat="64.24573517" lon="-20.21265411"><ele>211.9</ele><time>2012-07-20T15:22:44.0000000+00:00</time></trkpt><trkpt lat="64.24570465" lon="-20.21259117"><ele>212.6</ele><time>2012-07-20T15:22:49.0000000+00:00</time></trkpt><trkpt lat="64.24569702" lon="-20.21257591"><ele>213.3</ele><time>2012-07-20T15:22:54.0000000+00:00</time></trkpt><trkpt lat="64.24568176" lon="-20.21258926"><ele>213.6</ele><time>2012-07-20T15:22:59.0000000+00:00</time></trkpt><trkpt lat="64.24568176" lon="-20.2125988"><ele>213.5</ele><time>2012-07-20T15:23:04.0000000+00:00</time></trkpt><trkpt lat="64.24568176" lon="-20.2125988"><ele>213.5</ele><time>2012-07-20T15:23:09.0000000+00:00</time></trkpt><trkpt lat="64.24568176" lon="-20.21260643"><ele>213.6</ele><time>2012-07-20T15:23:14.0000000+00:00</time></trkpt><trkpt lat="64.24568176" lon="-20.21260643"><ele>213.6</ele><time>2012-07-20T15:23:19.0000000+00:00</time></trkpt><trkpt lat="64.24568176" lon="-20.21260643"><ele>213.6</ele><time>2012-07-20T15:23:24.0000000+00:00</time></trkpt><trkpt lat="64.24568176" lon="-20.21260643"><ele>213.6</ele><time>2012-07-20T15:23:29.0000000+00:00</time></trkpt><trkpt lat="64.24568176" lon="-20.21260643"><ele>213.6</ele><time>2012-07-20T15:23:34.0000000+00:00</time></trkpt><trkpt lat="64.24568176" lon="-20.21260643"><ele>213.5</ele><time>2012-07-20T15:23:39.0000000+00:00</time></trkpt><trkpt lat="64.24568176" lon="-20.21260643"><ele>213.5</ele><time>2012-07-20T15:23:44.0000000+00:00</time></trkpt><trkpt lat="64.24568176" lon="-20.21260643"><ele>213.5</ele><time>2012-07-20T15:23:49.0000000+00:00</time></trkpt><trkpt lat="64.24568176" lon="-20.21260643"><ele>213.5</ele><time>2012-07-20T15:23:54.0000000+00:00</time></trkpt><trkpt lat="64.24568176" lon="-20.21260643"><ele>213.5</ele><time>2012-07-20T15:23:59.0000000+00:00</time></trkpt><trkpt lat="64.24568176" lon="-20.21260643"><ele>213.7</ele><time>2012-07-20T15:24:04.0000000+00:00</time></trkpt><trkpt lat="64.24568176" lon="-20.21260452"><ele>214.7</ele><time>2012-07-20T15:24:09.0000000+00:00</time></trkpt><trkpt lat="64.24568176" lon="-20.21260071"><ele>215.5</ele><time>2012-07-20T15:24:14.0000000+00:00</time></trkpt><trkpt lat="64.24567413" lon="-20.21260834"><ele>215.3</ele><time>2012-07-20T15:24:19.0000000+00:00</time></trkpt><trkpt lat="64.2456665" lon="-20.21258926"><ele>214.2</ele><time>2012-07-20T15:24:24.0000000+00:00</time></trkpt><trkpt lat="64.2456665" lon="-20.21258926"><ele>214.2</ele><time>2012-07-20T15:24:29.0000000+00:00</time></trkpt><trkpt lat="64.24560547" lon="-20.21263313"><ele>213.4</ele><time>2012-07-20T15:24:34.0000000+00:00</time></trkpt><trkpt lat="64.24549866" lon="-20.21277237"><ele>213.0</ele><time>2012-07-20T15:24:39.0000000+00:00</time></trkpt><trkpt lat="64.24538422" lon="-20.21290207"><ele>212.8</ele><time>2012-07-20T15:24:44.0000000+00:00</time></trkpt><trkpt lat="64.24523926" lon="-20.21304703"><ele>212.3</ele><time>2012-07-20T15:24:49.0000000+00:00</time></trkpt><trkpt lat="64.24508667" lon="-20.21320725"><ele>211.3</ele><time>2012-07-20T15:24:54.0000000+00:00</time></trkpt><trkpt lat="64.24494171" lon="-20.21333313"><ele>210.4</ele><time>2012-07-20T15:24:59.0000000+00:00</time></trkpt><trkpt lat="64.24481964" lon="-20.21345711"><ele>209.8</ele><time>2012-07-20T15:25:04.0000000+00:00</time></trkpt><trkpt lat="64.24468231" lon="-20.21357155"><ele>209.0</ele><time>2012-07-20T15:25:09.0000000+00:00</time></trkpt><trkpt lat="64.24450684" lon="-20.21375465"><ele>208.2</ele><time>2012-07-20T15:25:14.0000000+00:00</time></trkpt><trkpt lat="64.24430847" lon="-20.21395683"><ele>207.3</ele><time>2012-07-20T15:25:19.0000000+00:00</time></trkpt><trkpt lat="64.24411011" lon="-20.21418381"><ele>206.2</ele><time>2012-07-20T15:25:24.0000000+00:00</time></trkpt><trkpt lat="64.24388123" lon="-20.21443939"><ele>205.4</ele><time>2012-07-20T15:25:29.0000000+00:00</time></trkpt><trkpt lat="64.24365234" lon="-20.21473885"><ele>204.8</ele><time>2012-07-20T15:25:34.0000000+00:00</time></trkpt><trkpt lat="64.24342346" lon="-20.21504211"><ele>204.5</ele><time>2012-07-20T15:25:39.0000000+00:00</time></trkpt><trkpt lat="64.24321747" lon="-20.21533585"><ele>204.8</ele><time>2012-07-20T15:25:44.0000000+00:00</time></trkpt><trkpt lat="64.24299622" lon="-20.21566582"><ele>204.6</ele><time>2012-07-20T15:25:49.0000000+00:00</time></trkpt><trkpt lat="64.24278259" lon="-20.21601296"><ele>204.0</ele><time>2012-07-20T15:25:54.0000000+00:00</time></trkpt><trkpt lat="64.24256897" lon="-20.21636391"><ele>203.6</ele><time>2012-07-20T15:25:59.0000000+00:00</time></trkpt><trkpt lat="64.24237061" lon="-20.21671486"><ele>203.6</ele><time>2012-07-20T15:26:04.0000000+00:00</time></trkpt><trkpt lat="64.24220276" lon="-20.21704292"><ele>204.1</ele><time>2012-07-20T15:26:09.0000000+00:00</time></trkpt><trkpt lat="64.24201965" lon="-20.21741104"><ele>203.6</ele><time>2012-07-20T15:26:14.0000000+00:00</time></trkpt><trkpt lat="64.24185181" lon="-20.21778107"><ele>203.1</ele><time>2012-07-20T15:26:19.0000000+00:00</time></trkpt><trkpt lat="64.24167633" lon="-20.21814346"><ele>202.4</ele><time>2012-07-20T15:26:24.0000000+00:00</time></trkpt><trkpt lat="64.24151611" lon="-20.21853447"><ele>202.3</ele><time>2012-07-20T15:26:29.0000000+00:00</time></trkpt><trkpt lat="64.2413559" lon="-20.21895409"><ele>201.6</ele><time>2012-07-20T15:26:34.0000000+00:00</time></trkpt><trkpt lat="64.24118042" lon="-20.21940041"><ele>200.1</ele><time>2012-07-20T15:26:39.0000000+00:00</time></trkpt><trkpt lat="64.24099731" lon="-20.21990585"><ele>199.2</ele><time>2012-07-20T15:26:44.0000000+00:00</time></trkpt><trkpt lat="64.24082184" lon="-20.22042084"><ele>197.8</ele><time>2012-07-20T15:26:49.0000000+00:00</time></trkpt><trkpt lat="64.24065399" lon="-20.22091293"><ele>195.8</ele><time>2012-07-20T15:26:54.0000000+00:00</time></trkpt><trkpt lat="64.24048615" lon="-20.22142983"><ele>194.9</ele><time>2012-07-20T15:26:59.0000000+00:00</time></trkpt><trkpt lat="64.24031067" lon="-20.22194862"><ele>192.0</ele><time>2012-07-20T15:27:04.0000000+00:00</time></trkpt><trkpt lat="64.24011993" lon="-20.22249794"><ele>190.6</ele><time>2012-07-20T15:27:09.0000000+00:00</time></trkpt><trkpt lat="64.2399292" lon="-20.22307777"><ele>187.8</ele><time>2012-07-20T15:27:14.0000000+00:00</time></trkpt><trkpt lat="64.23971558" lon="-20.22370338"><ele>185.7</ele><time>2012-07-20T15:27:19.0000000+00:00</time></trkpt><trkpt lat="64.23950195" lon="-20.22435379"><ele>183.9</ele><time>2012-07-20T15:27:24.0000000+00:00</time></trkpt><trkpt lat="64.2392807" lon="-20.22500801"><ele>181.8</ele><time>2012-07-20T15:27:29.0000000+00:00</time></trkpt><trkpt lat="64.23905945" lon="-20.22567558"><ele>179.5</ele><time>2012-07-20T15:27:34.0000000+00:00</time></trkpt><trkpt lat="64.23882294" lon="-20.2264061"><ele>177.4</ele><time>2012-07-20T15:27:39.0000000+00:00</time></trkpt><trkpt lat="64.23857117" lon="-20.22713661"><ele>174.5</ele><time>2012-07-20T15:27:44.0000000+00:00</time></trkpt><trkpt lat="64.23833466" lon="-20.22786713"><ele>172.2</ele><time>2012-07-20T15:27:49.0000000+00:00</time></trkpt><trkpt lat="64.2381134" lon="-20.22851944"><ele>170.9</ele><time>2012-07-20T15:27:54.0000000+00:00</time></trkpt><trkpt lat="64.23790741" lon="-20.22909355"><ele>170.7</ele><time>2012-07-20T15:27:59.0000000+00:00</time></trkpt><trkpt lat="64.2377243" lon="-20.22964859"><ele>169.7</ele><time>2012-07-20T15:28:04.0000000+00:00</time></trkpt><trkpt lat="64.2375412" lon="-20.23019028"><ele>169.5</ele><time>2012-07-20T15:28:09.0000000+00:00</time></trkpt><trkpt lat="64.23736572" lon="-20.23069954"><ele>171.0</ele><time>2012-07-20T15:28:14.0000000+00:00</time></trkpt><trkpt lat="64.23719788" lon="-20.23117065"><ele>165.3</ele><time>2012-07-20T15:28:19.0000000+00:00</time></trkpt><trkpt lat="64.23706055" lon="-20.23158455"><ele>167.5</ele><time>2012-07-20T15:28:24.0000000+00:00</time></trkpt><trkpt lat="64.23691559" lon="-20.23198319"><ele>167.7</ele><time>2012-07-20T15:28:29.0000000+00:00</time></trkpt><trkpt lat="64.23677826" lon="-20.23236847"><ele>168.1</ele><time>2012-07-20T15:28:34.0000000+00:00</time></trkpt><trkpt lat="64.2366333" lon="-20.23275757"><ele>168.4</ele><time>2012-07-20T15:28:39.0000000+00:00</time></trkpt><trkpt lat="64.23648071" lon="-20.23314285"><ele>167.8</ele><time>2012-07-20T15:28:44.0000000+00:00</time></trkpt><trkpt lat="64.23631287" lon="-20.23355675"><ele>167.6</ele><time>2012-07-20T15:28:49.0000000+00:00</time></trkpt><trkpt lat="64.23613739" lon="-20.2339859"><ele>167.1</ele><time>2012-07-20T15:28:54.0000000+00:00</time></trkpt><trkpt lat="64.23596191" lon="-20.23443985"><ele>166.2</ele><time>2012-07-20T15:28:59.0000000+00:00</time></trkpt><trkpt lat="64.23578644" lon="-20.2348938"><ele>165.7</ele><time>2012-07-20T15:29:04.0000000+00:00</time></trkpt><trkpt lat="64.23561096" lon="-20.2353344"><ele>164.8</ele><time>2012-07-20T15:29:09.0000000+00:00</time></trkpt><trkpt lat="64.23542023" lon="-20.23581886"><ele>164.2</ele><time>2012-07-20T15:29:14.0000000+00:00</time></trkpt><trkpt lat="64.23523712" lon="-20.23629952"><ele>163.1</ele><time>2012-07-20T15:29:19.0000000+00:00</time></trkpt><trkpt lat="64.23504639" lon="-20.23677635"><ele>162.2</ele><time>2012-07-20T15:29:24.0000000+00:00</time></trkpt><trkpt lat="64.23486328" lon="-20.23722649"><ele>160.9</ele><time>2012-07-20T15:29:29.0000000+00:00</time></trkpt><trkpt lat="64.23466492" lon="-20.23768616"><ele>159.9</ele><time>2012-07-20T15:29:34.0000000+00:00</time></trkpt><trkpt lat="64.23446655" lon="-20.23812866"><ele>158.7</ele><time>2012-07-20T15:29:39.0000000+00:00</time></trkpt><trkpt lat="64.23423767" lon="-20.23857307"><ele>157.4</ele><time>2012-07-20T15:29:44.0000000+00:00</time></trkpt><trkpt lat="64.23401642" lon="-20.23897171"><ele>156.2</ele><time>2012-07-20T15:29:49.0000000+00:00</time></trkpt><trkpt lat="64.23376465" lon="-20.23937988"><ele>154.7</ele><time>2012-07-20T15:29:54.0000000+00:00</time></trkpt><trkpt lat="64.23351288" lon="-20.23976898"><ele>153.1</ele><time>2012-07-20T15:29:59.0000000+00:00</time></trkpt><trkpt lat="64.23325348" lon="-20.24015999"><ele>151.0</ele><time>2012-07-20T15:30:04.0000000+00:00</time></trkpt><trkpt lat="64.23300171" lon="-20.24055672"><ele>149.3</ele><time>2012-07-20T15:30:09.0000000+00:00</time></trkpt><trkpt lat="64.23274231" lon="-20.2409935"><ele>148.0</ele><time>2012-07-20T15:30:14.0000000+00:00</time></trkpt><trkpt lat="64.23248291" lon="-20.24145699"><ele>145.6</ele><time>2012-07-20T15:30:19.0000000+00:00</time></trkpt><trkpt lat="64.23223114" lon="-20.2419548"><ele>143.1</ele><time>2012-07-20T15:30:24.0000000+00:00</time></trkpt><trkpt lat="64.23199463" lon="-20.24245834"><ele>141.3</ele><time>2012-07-20T15:30:29.0000000+00:00</time></trkpt><trkpt lat="64.23177338" lon="-20.24293518"><ele>139.5</ele><time>2012-07-20T15:30:34.0000000+00:00</time></trkpt><trkpt lat="64.23155212" lon="-20.24344444"><ele>138.8</ele><time>2012-07-20T15:30:39.0000000+00:00</time></trkpt><trkpt lat="64.23132324" lon="-20.24394226"><ele>136.7</ele><time>2012-07-20T15:30:44.0000000+00:00</time></trkpt><trkpt lat="64.23108673" lon="-20.2444458"><ele>135.9</ele><time>2012-07-20T15:30:49.0000000+00:00</time></trkpt><trkpt lat="64.23084259" lon="-20.24497032"><ele>135.4</ele><time>2012-07-20T15:30:54.0000000+00:00</time></trkpt><trkpt lat="64.23059845" lon="-20.24543762"><ele>135.1</ele><time>2012-07-20T15:30:59.0000000+00:00</time></trkpt><trkpt lat="64.23036194" lon="-20.24588013"><ele>134.9</ele><time>2012-07-20T15:31:04.0000000+00:00</time></trkpt><trkpt lat="64.23012543" lon="-20.24628067"><ele>134.2</ele><time>2012-07-20T15:31:09.0000000+00:00</time></trkpt><trkpt lat="64.22990418" lon="-20.24660683"><ele>133.5</ele><time>2012-07-20T15:31:14.0000000+00:00</time></trkpt><trkpt lat="64.22969055" lon="-20.24691391"><ele>132.8</ele><time>2012-07-20T15:31:19.0000000+00:00</time></trkpt><trkpt lat="64.2294693" lon="-20.24720573"><ele>132.1</ele><time>2012-07-20T15:31:24.0000000+00:00</time></trkpt><trkpt lat="64.22925568" lon="-20.24749947"><ele>131.2</ele><time>2012-07-20T15:31:29.0000000+00:00</time></trkpt><trkpt lat="64.22904968" lon="-20.24778175"><ele>130.5</ele><time>2012-07-20T15:31:34.0000000+00:00</time></trkpt><trkpt lat="64.22883606" lon="-20.24806404"><ele>129.2</ele><time>2012-07-20T15:31:39.0000000+00:00</time></trkpt><trkpt lat="64.22860718" lon="-20.24838257"><ele>128.1</ele><time>2012-07-20T15:31:44.0000000+00:00</time></trkpt><trkpt lat="64.22839356" lon="-20.24868202"><ele>127.4</ele><time>2012-07-20T15:31:49.0000000+00:00</time></trkpt><trkpt lat="64.2281723" lon="-20.24897575"><ele>126.0</ele><time>2012-07-20T15:31:54.0000000+00:00</time></trkpt><trkpt lat="64.22798157" lon="-20.24922752"><ele>125.9</ele><time>2012-07-20T15:31:59.0000000+00:00</time></trkpt><trkpt lat="64.22779846" lon="-20.24947357"><ele>125.0</ele><time>2012-07-20T15:32:04.0000000+00:00</time></trkpt><trkpt lat="64.22761536" lon="-20.24971581"><ele>124.6</ele><time>2012-07-20T15:32:09.0000000+00:00</time></trkpt><trkpt lat="64.2273941" lon="-20.25000382"><ele>123.8</ele><time>2012-07-20T15:32:14.0000000+00:00</time></trkpt><trkpt lat="64.22715759" lon="-20.25033379"><ele>122.5</ele><time>2012-07-20T15:32:19.0000000+00:00</time></trkpt><trkpt lat="64.22692108" lon="-20.25068474"><ele>120.9</ele><time>2012-07-20T15:32:24.0000000+00:00</time></trkpt><trkpt lat="64.22669983" lon="-20.25104141"><ele>119.3</ele><time>2012-07-20T15:32:29.0000000+00:00</time></trkpt><trkpt lat="64.22648621" lon="-20.25141525"><ele>118.6</ele><time>2012-07-20T15:32:34.0000000+00:00</time></trkpt><trkpt lat="64.22626495" lon="-20.25185394"><ele>117.0</ele><time>2012-07-20T15:32:39.0000000+00:00</time></trkpt><trkpt lat="64.2260437" lon="-20.25232506"><ele>115.7</ele><time>2012-07-20T15:32:44.0000000+00:00</time></trkpt><trkpt lat="64.22583008" lon="-20.25280762"><ele>114.9</ele><time>2012-07-20T15:32:49.0000000+00:00</time></trkpt><trkpt lat="64.22562408" lon="-20.25327492"><ele>113.8</ele><time>2012-07-20T15:32:54.0000000+00:00</time></trkpt><trkpt lat="64.2253952" lon="-20.2537365"><ele>112.3</ele><time>2012-07-20T15:32:59.0000000+00:00</time></trkpt><trkpt lat="64.2251358" lon="-20.25430679"><ele>110.6</ele><time>2012-07-20T15:33:04.0000000+00:00</time></trkpt><trkpt lat="64.22485352" lon="-20.25485611"><ele>108.2</ele><time>2012-07-20T15:33:09.0000000+00:00</time></trkpt><trkpt lat="64.22455597" lon="-20.25536919"><ele>105.6</ele><time>2012-07-20T15:33:14.0000000+00:00</time></trkpt><trkpt lat="64.22425842" lon="-20.25585175"><ele>103.4</ele><time>2012-07-20T15:33:19.0000000+00:00</time></trkpt><trkpt lat="64.22396088" lon="-20.25630188"><ele>101.5</ele><time>2012-07-20T15:33:24.0000000+00:00</time></trkpt><trkpt lat="64.22366333" lon="-20.25669861"><ele>100.3</ele><time>2012-07-20T15:33:29.0000000+00:00</time></trkpt><trkpt lat="64.22335053" lon="-20.25710106"><ele>98.5</ele><time>2012-07-20T15:33:34.0000000+00:00</time></trkpt><trkpt lat="64.22302246" lon="-20.25747681"><ele>97.0</ele><time>2012-07-20T15:33:39.0000000+00:00</time></trkpt><trkpt lat="64.22274017" lon="-20.2577858"><ele>96.6</ele><time>2012-07-20T15:33:44.0000000+00:00</time></trkpt><trkpt lat="64.22251129" lon="-20.25799942"><ele>96.4</ele><time>2012-07-20T15:33:49.0000000+00:00</time></trkpt><trkpt lat="64.22229004" lon="-20.2582016"><ele>96.8</ele><time>2012-07-20T15:33:54.0000000+00:00</time></trkpt><trkpt lat="64.22209168" lon="-20.258358"><ele>97.3</ele><time>2012-07-20T15:33:59.0000000+00:00</time></trkpt><trkpt lat="64.22188568" lon="-20.25850868"><ele>97.1</ele><time>2012-07-20T15:34:04.0000000+00:00</time></trkpt><trkpt lat="64.22167206" lon="-20.25865555"><ele>97.5</ele><time>2012-07-20T15:34:09.0000000+00:00</time></trkpt><trkpt lat="64.22147369" lon="-20.25880051"><ele>97.2</ele><time>2012-07-20T15:34:14.0000000+00:00</time></trkpt><trkpt lat="64.22126007" lon="-20.25893402"><ele>96.9</ele><time>2012-07-20T15:34:19.0000000+00:00</time></trkpt><trkpt lat="64.22105408" lon="-20.25907326"><ele>96.8</ele><time>2012-07-20T15:34:24.0000000+00:00</time></trkpt><trkpt lat="64.22084808" lon="-20.25919724"><ele>96.9</ele><time>2012-07-20T15:34:29.0000000+00:00</time></trkpt><trkpt lat="64.22062683" lon="-20.25932884"><ele>97.3</ele><time>2012-07-20T15:34:34.0000000+00:00</time></trkpt><trkpt lat="64.22042847" lon="-20.25943947"><ele>97.1</ele><time>2012-07-20T15:34:39.0000000+00:00</time></trkpt><trkpt lat="64.22025299" lon="-20.25957489"><ele>97.4</ele><time>2012-07-20T15:34:44.0000000+00:00</time></trkpt><trkpt lat="64.22005463" lon="-20.25969887"><ele>98.4</ele><time>2012-07-20T15:34:49.0000000+00:00</time></trkpt><trkpt lat="64.21986389" lon="-20.25982094"><ele>98.4</ele><time>2012-07-20T15:34:54.0000000+00:00</time></trkpt><trkpt lat="64.21970367" lon="-20.25992394"><ele>99.0</ele><time>2012-07-20T15:34:59.0000000+00:00</time></trkpt><trkpt lat="64.21954346" lon="-20.26004028"><ele>98.3</ele><time>2012-07-20T15:35:04.0000000+00:00</time></trkpt><trkpt lat="64.21937561" lon="-20.26013947"><ele>98.2</ele><time>2012-07-20T15:35:09.0000000+00:00</time></trkpt><trkpt lat="64.21919251" lon="-20.2602253"><ele>98.2</ele><time>2012-07-20T15:35:14.0000000+00:00</time></trkpt><trkpt lat="64.21901703" lon="-20.26033402"><ele>98.1</ele><time>2012-07-20T15:35:19.0000000+00:00</time></trkpt><trkpt lat="64.21886444" lon="-20.26044273"><ele>98.5</ele><time>2012-07-20T15:35:24.0000000+00:00</time></trkpt><trkpt lat="64.21871185" lon="-20.26053429"><ele>98.8</ele><time>2012-07-20T15:35:29.0000000+00:00</time></trkpt><trkpt lat="64.21855927" lon="-20.26064301"><ele>99.3</ele><time>2012-07-20T15:35:34.0000000+00:00</time></trkpt><trkpt lat="64.21841431" lon="-20.26072884"><ele>100.4</ele><time>2012-07-20T15:35:39.0000000+00:00</time></trkpt><trkpt lat="64.21826935" lon="-20.26082611"><ele>99.9</ele><time>2012-07-20T15:35:44.0000000+00:00</time></trkpt><trkpt lat="64.21811676" lon="-20.2609272"><ele>99.5</ele><time>2012-07-20T15:35:49.0000000+00:00</time></trkpt><trkpt lat="64.21795654" lon="-20.26104736"><ele>99.6</ele><time>2012-07-20T15:35:54.0000000+00:00</time></trkpt><trkpt lat="64.2177887" lon="-20.26114655"><ele>99.1</ele><time>2012-07-20T15:35:59.0000000+00:00</time></trkpt><trkpt lat="64.21764374" lon="-20.26124764"><ele>99.1</ele><time>2012-07-20T15:36:04.0000000+00:00</time></trkpt><trkpt lat="64.21749878" lon="-20.26134491"><ele>99.3</ele><time>2012-07-20T15:36:09.0000000+00:00</time></trkpt><trkpt lat="64.21736145" lon="-20.261446"><ele>99.0</ele><time>2012-07-20T15:36:14.0000000+00:00</time></trkpt><trkpt lat="64.21722412" lon="-20.261549"><ele>98.9</ele><time>2012-07-20T15:36:19.0000000+00:00</time></trkpt><trkpt lat="64.21708679" lon="-20.26165962"><ele>98.7</ele><time>2012-07-20T15:36:24.0000000+00:00</time></trkpt><trkpt lat="64.21695709" lon="-20.26177597"><ele>98.8</ele><time>2012-07-20T15:36:29.0000000+00:00</time></trkpt><trkpt lat="64.21681976" lon="-20.2618885"><ele>98.9</ele><time>2012-07-20T15:36:34.0000000+00:00</time></trkpt><trkpt lat="64.21667481" lon="-20.26201439"><ele>99.3</ele><time>2012-07-20T15:36:39.0000000+00:00</time></trkpt><trkpt lat="64.21652222" lon="-20.26212311"><ele>98.3</ele><time>2012-07-20T15:36:44.0000000+00:00</time></trkpt><trkpt lat="64.21636963" lon="-20.26224136"><ele>98.6</ele><time>2012-07-20T15:36:49.0000000+00:00</time></trkpt><trkpt lat="64.2162323" lon="-20.26236916"><ele>98.7</ele><time>2012-07-20T15:36:54.0000000+00:00</time></trkpt><trkpt lat="64.21608734" lon="-20.26249695"><ele>100.8</ele><time>2012-07-20T15:36:59.0000000+00:00</time></trkpt><trkpt lat="64.21593475" lon="-20.26263619"><ele>101.4</ele><time>2012-07-20T15:37:04.0000000+00:00</time></trkpt><trkpt lat="64.21578217" lon="-20.2627964"><ele>102.3</ele><time>2012-07-20T15:37:09.0000000+00:00</time></trkpt><trkpt lat="64.21562195" lon="-20.26296997"><ele>101.9</ele><time>2012-07-20T15:37:14.0000000+00:00</time></trkpt><trkpt lat="64.2154541" lon="-20.26311302"><ele>99.5</ele><time>2012-07-20T15:37:19.0000000+00:00</time></trkpt><trkpt lat="64.21530151" lon="-20.26326752"><ele>98.3</ele><time>2012-07-20T15:37:24.0000000+00:00</time></trkpt><trkpt lat="64.21515656" lon="-20.26340294"><ele>100.3</ele><time>2012-07-20T15:37:29.0000000+00:00</time></trkpt><trkpt lat="64.2150116" lon="-20.26354408"><ele>100.5</ele><time>2012-07-20T15:37:34.0000000+00:00</time></trkpt><trkpt lat="64.21487427" lon="-20.26366234"><ele>100.7</ele><time>2012-07-20T15:37:39.0000000+00:00</time></trkpt><trkpt lat="64.2147522" lon="-20.26377106"><ele>100.8</ele><time>2012-07-20T15:37:44.0000000+00:00</time></trkpt><trkpt lat="64.21463013" lon="-20.2638855"><ele>99.7</ele><time>2012-07-20T15:37:49.0000000+00:00</time></trkpt><trkpt lat="64.21448517" lon="-20.2640152"><ele>99.4</ele><time>2012-07-20T15:37:54.0000000+00:00</time></trkpt><trkpt lat="64.21435547" lon="-20.26414681"><ele>100.0</ele><time>2012-07-20T15:37:59.0000000+00:00</time></trkpt><trkpt lat="64.21421814" lon="-20.26428986"><ele>99.5</ele><time>2012-07-20T15:38:04.0000000+00:00</time></trkpt><trkpt lat="64.21407318" lon="-20.26441956"><ele>98.8</ele><time>2012-07-20T15:38:09.0000000+00:00</time></trkpt><trkpt lat="64.21394348" lon="-20.26455116"><ele>99.7</ele><time>2012-07-20T15:38:14.0000000+00:00</time></trkpt><trkpt lat="64.21380615" lon="-20.26467323"><ele>99.2</ele><time>2012-07-20T15:38:19.0000000+00:00</time></trkpt><trkpt lat="64.21366882" lon="-20.26480484"><ele>98.5</ele><time>2012-07-20T15:38:24.0000000+00:00</time></trkpt><trkpt lat="64.21353149" lon="-20.26493645"><ele>97.5</ele><time>2012-07-20T15:38:29.0000000+00:00</time></trkpt><trkpt lat="64.21337891" lon="-20.26506996"><ele>97.0</ele><time>2012-07-20T15:38:34.0000000+00:00</time></trkpt><trkpt lat="64.21324158" lon="-20.26519585"><ele>98.2</ele><time>2012-07-20T15:38:39.0000000+00:00</time></trkpt><trkpt lat="64.21309662" lon="-20.26535225"><ele>97.9</ele><time>2012-07-20T15:38:44.0000000+00:00</time></trkpt><trkpt lat="64.21294403" lon="-20.26547813"><ele>99.0</ele><time>2012-07-20T15:38:49.0000000+00:00</time></trkpt><trkpt lat="64.21278381" lon="-20.26563454"><ele>98.6</ele><time>2012-07-20T15:38:54.0000000+00:00</time></trkpt><trkpt lat="64.21263123" lon="-20.2657795"><ele>97.2</ele><time>2012-07-20T15:38:59.0000000+00:00</time></trkpt><trkpt lat="64.2124939" lon="-20.26589775"><ele>96.7</ele><time>2012-07-20T15:39:04.0000000+00:00</time></trkpt><trkpt lat="64.21237183" lon="-20.26603508"><ele>96.2</ele><time>2012-07-20T15:39:09.0000000+00:00</time></trkpt><trkpt lat="64.21224976" lon="-20.26614952"><ele>96.2</ele><time>2012-07-20T15:39:14.0000000+00:00</time></trkpt><trkpt lat="64.21212006" lon="-20.26628113"><ele>95.2</ele><time>2012-07-20T15:39:19.0000000+00:00</time></trkpt><trkpt lat="64.21200562" lon="-20.2664032"><ele>94.0</ele><time>2012-07-20T15:39:24.0000000+00:00</time></trkpt><trkpt lat="64.21186829" lon="-20.26651764"><ele>93.8</ele><time>2012-07-20T15:39:29.0000000+00:00</time></trkpt><trkpt lat="64.21175385" lon="-20.26662636"><ele>94.3</ele><time>2012-07-20T15:39:34.0000000+00:00</time></trkpt><trkpt lat="64.2116394" lon="-20.2667408"><ele>93.8</ele><time>2012-07-20T15:39:39.0000000+00:00</time></trkpt><trkpt lat="64.21151733" lon="-20.26684952"><ele>94.9</ele><time>2012-07-20T15:39:44.0000000+00:00</time></trkpt><trkpt lat="64.21141052" lon="-20.26696587"><ele>95.3</ele><time>2012-07-20T15:39:49.0000000+00:00</time></trkpt><trkpt lat="64.21129608" lon="-20.26707649"><ele>94.0</ele><time>2012-07-20T15:39:54.0000000+00:00</time></trkpt><trkpt lat="64.21118927" lon="-20.2671833"><ele>94.1</ele><time>2012-07-20T15:39:59.0000000+00:00</time></trkpt><trkpt lat="64.21108246" lon="-20.26726532"><ele>96.2</ele><time>2012-07-20T15:40:04.0000000+00:00</time></trkpt><trkpt lat="64.21097565" lon="-20.26736069"><ele>95.1</ele><time>2012-07-20T15:40:09.0000000+00:00</time></trkpt><trkpt lat="64.21085358" lon="-20.26749039"><ele>94.3</ele><time>2012-07-20T15:40:14.0000000+00:00</time></trkpt><trkpt lat="64.21073151" lon="-20.26759911"><ele>94.5</ele><time>2012-07-20T15:40:19.0000000+00:00</time></trkpt><trkpt lat="64.2106247" lon="-20.26769257"><ele>95.5</ele><time>2012-07-20T15:40:24.0000000+00:00</time></trkpt><trkpt lat="64.21048737" lon="-20.26782417"><ele>94.8</ele><time>2012-07-20T15:40:29.0000000+00:00</time></trkpt><trkpt lat="64.2103653" lon="-20.26796532"><ele>94.5</ele><time>2012-07-20T15:40:34.0000000+00:00</time></trkpt><trkpt lat="64.21024323" lon="-20.26810646"><ele>94.7</ele><time>2012-07-20T15:40:39.0000000+00:00</time></trkpt><trkpt lat="64.21012878" lon="-20.26820755"><ele>95.3</ele><time>2012-07-20T15:40:44.0000000+00:00</time></trkpt><trkpt lat="64.21002197" lon="-20.26831245"><ele>95.1</ele><time>2012-07-20T15:40:49.0000000+00:00</time></trkpt><trkpt lat="64.20990753" lon="-20.26841354"><ele>95.0</ele><time>2012-07-20T15:40:54.0000000+00:00</time></trkpt><trkpt lat="64.20979309" lon="-20.26851845"><ele>94.7</ele><time>2012-07-20T15:40:59.0000000+00:00</time></trkpt><trkpt lat="64.20967102" lon="-20.26862717"><ele>95.5</ele><time>2012-07-20T15:41:04.0000000+00:00</time></trkpt><trkpt lat="64.20955658" lon="-20.26876068"><ele>96.2</ele><time>2012-07-20T15:41:09.0000000+00:00</time></trkpt><trkpt lat="64.20944214" lon="-20.26887512"><ele>96.3</ele><time>2012-07-20T15:41:14.0000000+00:00</time></trkpt><trkpt lat="64.2093277" lon="-20.26897812"><ele>96.8</ele><time>2012-07-20T15:41:19.0000000+00:00</time></trkpt><trkpt lat="64.20922852" lon="-20.26907158"><ele>97.0</ele><time>2012-07-20T15:41:24.0000000+00:00</time></trkpt><trkpt lat="64.20910645" lon="-20.26919746"><ele>96.7</ele><time>2012-07-20T15:41:29.0000000+00:00</time></trkpt><trkpt lat="64.20902252" lon="-20.26927185"><ele>98.1</ele><time>2012-07-20T15:41:34.0000000+00:00</time></trkpt><trkpt lat="64.20893097" lon="-20.26935959"><ele>98.0</ele><time>2012-07-20T15:41:39.0000000+00:00</time></trkpt><trkpt lat="64.20883942" lon="-20.26945305"><ele>98.5</ele><time>2012-07-20T15:41:44.0000000+00:00</time></trkpt><trkpt lat="64.20875549" lon="-20.26953125"><ele>99.1</ele><time>2012-07-20T15:41:49.0000000+00:00</time></trkpt><trkpt lat="64.20864105" lon="-20.26961899"><ele>99.8</ele><time>2012-07-20T15:41:54.0000000+00:00</time></trkpt><trkpt lat="64.20854187" lon="-20.26973343"><ele>100.0</ele><time>2012-07-20T15:41:59.0000000+00:00</time></trkpt><trkpt lat="64.20844269" lon="-20.26983261"><ele>101.5</ele><time>2012-07-20T15:42:04.0000000+00:00</time></trkpt><trkpt lat="64.20832825" lon="-20.26996803"><ele>102.6</ele><time>2012-07-20T15:42:09.0000000+00:00</time></trkpt><trkpt lat="64.20820618" lon="-20.27006531"><ele>103.6</ele><time>2012-07-20T15:42:14.0000000+00:00</time></trkpt><trkpt lat="64.20808411" lon="-20.27018738"><ele>103.2</ele><time>2012-07-20T15:42:19.0000000+00:00</time></trkpt><trkpt lat="64.20796204" lon="-20.27030182"><ele>103.3</ele><time>2012-07-20T15:42:24.0000000+00:00</time></trkpt><trkpt lat="64.20782471" lon="-20.27043343"><ele>105.0</ele><time>2012-07-20T15:42:29.0000000+00:00</time></trkpt><trkpt lat="64.20768738" lon="-20.2705822"><ele>105.0</ele><time>2012-07-20T15:42:34.0000000+00:00</time></trkpt><trkpt lat="64.20751953" lon="-20.27076149"><ele>104.0</ele><time>2012-07-20T15:42:39.0000000+00:00</time></trkpt><trkpt lat="64.20735931" lon="-20.27093506"><ele>103.5</ele><time>2012-07-20T15:42:44.0000000+00:00</time></trkpt><trkpt lat="64.20719147" lon="-20.27112579"><ele>103.8</ele><time>2012-07-20T15:42:49.0000000+00:00</time></trkpt><trkpt lat="64.20702362" lon="-20.27129746"><ele>103.9</ele><time>2012-07-20T15:42:54.0000000+00:00</time></trkpt><trkpt lat="64.20684815" lon="-20.27147484"><ele>103.2</ele><time>2012-07-20T15:42:59.0000000+00:00</time></trkpt><trkpt lat="64.20666504" lon="-20.2716713"><ele>102.9</ele><time>2012-07-20T15:43:04.0000000+00:00</time></trkpt><trkpt lat="64.20648193" lon="-20.27185249"><ele>102.8</ele><time>2012-07-20T15:43:09.0000000+00:00</time></trkpt><trkpt lat="64.20629883" lon="-20.27204514"><ele>102.5</ele><time>2012-07-20T15:43:14.0000000+00:00</time></trkpt><trkpt lat="64.20613098" lon="-20.27223969"><ele>101.9</ele><time>2012-07-20T15:43:19.0000000+00:00</time></trkpt><trkpt lat="64.20597076" lon="-20.27242088"><ele>101.8</ele><time>2012-07-20T15:43:24.0000000+00:00</time></trkpt><trkpt lat="64.20581055" lon="-20.27260399"><ele>102.6</ele><time>2012-07-20T15:43:29.0000000+00:00</time></trkpt><trkpt lat="64.20563507" lon="-20.27279282"><ele>101.8</ele><time>2012-07-20T15:43:34.0000000+00:00</time></trkpt><trkpt lat="64.20547485" lon="-20.2729702"><ele>101.4</ele><time>2012-07-20T15:43:39.0000000+00:00</time></trkpt><trkpt lat="64.20530701" lon="-20.27316284"><ele>100.5</ele><time>2012-07-20T15:43:44.0000000+00:00</time></trkpt><trkpt lat="64.20513916" lon="-20.27334976"><ele>100.4</ele><time>2012-07-20T15:43:49.0000000+00:00</time></trkpt><trkpt lat="64.20497894" lon="-20.27351189"><ele>99.7</ele><time>2012-07-20T15:43:54.0000000+00:00</time></trkpt><trkpt lat="64.20481873" lon="-20.27368164"><ele>100.0</ele><time>2012-07-20T15:43:59.0000000+00:00</time></trkpt><trkpt lat="64.20465088" lon="-20.27383995"><ele>100.3</ele><time>2012-07-20T15:44:04.0000000+00:00</time></trkpt><trkpt lat="64.20448303" lon="-20.27401543"><ele>98.7</ele><time>2012-07-20T15:44:09.0000000+00:00</time></trkpt><trkpt lat="64.20429993" lon="-20.27420425"><ele>97.3</ele><time>2012-07-20T15:44:14.0000000+00:00</time></trkpt><trkpt lat="64.20410919" lon="-20.27436066"><ele>97.4</ele><time>2012-07-20T15:44:19.0000000+00:00</time></trkpt><trkpt lat="64.20392609" lon="-20.27451325"><ele>96.3</ele><time>2012-07-20T15:44:24.0000000+00:00</time></trkpt><trkpt lat="64.20374298" lon="-20.27464676"><ele>96.7</ele><time>2012-07-20T15:44:29.0000000+00:00</time></trkpt><trkpt lat="64.20355225" lon="-20.27478981"><ele>95.4</ele><time>2012-07-20T15:44:34.0000000+00:00</time></trkpt><trkpt lat="64.20336151" lon="-20.27493095"><ele>95.8</ele><time>2012-07-20T15:44:39.0000000+00:00</time></trkpt><trkpt lat="64.20314789" lon="-20.27506828"><ele>94.8</ele><time>2012-07-20T15:44:44.0000000+00:00</time></trkpt><trkpt lat="64.20291138" lon="-20.27522469"><ele>93.3</ele><time>2012-07-20T15:44:49.0000000+00:00</time></trkpt><trkpt lat="64.20269013" lon="-20.27536202"><ele>93.9</ele><time>2012-07-20T15:44:54.0000000+00:00</time></trkpt><trkpt lat="64.20245361" lon="-20.27551651"><ele>93.7</ele><time>2012-07-20T15:44:59.0000000+00:00</time></trkpt><trkpt lat="64.2022171" lon="-20.27567864"><ele>93.0</ele><time>2012-07-20T15:45:04.0000000+00:00</time></trkpt><trkpt lat="64.20198059" lon="-20.27582359"><ele>93.3</ele><time>2012-07-20T15:45:09.0000000+00:00</time></trkpt><trkpt lat="64.20174408" lon="-20.27598381"><ele>92.8</ele><time>2012-07-20T15:45:14.0000000+00:00</time></trkpt><trkpt lat="64.20149994" lon="-20.27612877"><ele>91.0</ele><time>2012-07-20T15:45:19.0000000+00:00</time></trkpt><trkpt lat="64.20127106" lon="-20.27628899"><ele>90.9</ele><time>2012-07-20T15:45:24.0000000+00:00</time></trkpt><trkpt lat="64.20105743" lon="-20.27644539"><ele>90.1</ele><time>2012-07-20T15:45:29.0000000+00:00</time></trkpt><trkpt lat="64.20085144" lon="-20.27656174"><ele>90.1</ele><time>2012-07-20T15:45:34.0000000+00:00</time></trkpt><trkpt lat="64.20063782" lon="-20.27668953"><ele>88.9</ele><time>2012-07-20T15:45:39.0000000+00:00</time></trkpt><trkpt lat="64.20043945" lon="-20.27683258"><ele>89.6</ele><time>2012-07-20T15:45:44.0000000+00:00</time></trkpt><trkpt lat="64.20023346" lon="-20.27696419"><ele>89.1</ele><time>2012-07-20T15:45:49.0000000+00:00</time></trkpt><trkpt lat="64.20002747" lon="-20.27710533"><ele>87.4</ele><time>2012-07-20T15:45:54.0000000+00:00</time></trkpt><trkpt lat="64.19980621" lon="-20.27724075"><ele>84.6</ele><time>2012-07-20T15:45:59.0000000+00:00</time></trkpt><trkpt lat="64.19960022" lon="-20.2773819"><ele>85.1</ele><time>2012-07-20T15:46:04.0000000+00:00</time></trkpt><trkpt lat="64.19939423" lon="-20.27748871"><ele>86.4</ele><time>2012-07-20T15:46:09.0000000+00:00</time></trkpt><trkpt lat="64.19920349" lon="-20.27760124"><ele>87.3</ele><time>2012-07-20T15:46:14.0000000+00:00</time></trkpt><trkpt lat="64.19901276" lon="-20.27768135"><ele>87.8</ele><time>2012-07-20T15:46:19.0000000+00:00</time></trkpt><trkpt lat="64.19880676" lon="-20.27777481"><ele>87.5</ele><time>2012-07-20T15:46:24.0000000+00:00</time></trkpt><trkpt lat="64.19862366" lon="-20.27783394"><ele>89.3</ele><time>2012-07-20T15:46:29.0000000+00:00</time></trkpt><trkpt lat="64.19844818" lon="-20.27787781"><ele>89.0</ele><time>2012-07-20T15:46:34.0000000+00:00</time></trkpt><trkpt lat="64.19828796" lon="-20.2779026"><ele>90.1</ele><time>2012-07-20T15:46:39.0000000+00:00</time></trkpt><trkpt lat="64.19814301" lon="-20.27791786"><ele>90.4</ele><time>2012-07-20T15:46:44.0000000+00:00</time></trkpt><trkpt lat="64.19802856" lon="-20.27790833"><ele>90.8</ele><time>2012-07-20T15:46:49.0000000+00:00</time></trkpt><trkpt lat="64.19789887" lon="-20.27793312"><ele>91.3</ele><time>2012-07-20T15:46:54.0000000+00:00</time></trkpt><trkpt lat="64.19775391" lon="-20.27791977"><ele>92.2</ele><time>2012-07-20T15:46:59.0000000+00:00</time></trkpt><trkpt lat="64.19760895" lon="-20.27791786"><ele>93.2</ele><time>2012-07-20T15:47:04.0000000+00:00</time></trkpt><trkpt lat="64.19747162" lon="-20.2779026"><ele>93.1</ele><time>2012-07-20T15:47:09.0000000+00:00</time></trkpt><trkpt lat="64.19731903" lon="-20.27789116"><ele>93.7</ele><time>2012-07-20T15:47:14.0000000+00:00</time></trkpt><trkpt lat="64.19715881" lon="-20.27788353"><ele>92.9</ele><time>2012-07-20T15:47:19.0000000+00:00</time></trkpt><trkpt lat="64.1969986" lon="-20.27788162"><ele>93.2</ele><time>2012-07-20T15:47:24.0000000+00:00</time></trkpt><trkpt lat="64.19683838" lon="-20.27787781"><ele>93.0</ele><time>2012-07-20T15:47:29.0000000+00:00</time></trkpt><trkpt lat="64.19667053" lon="-20.27788353"><ele>93.1</ele><time>2012-07-20T15:47:34.0000000+00:00</time></trkpt><trkpt lat="64.19650269" lon="-20.27787781"><ele>93.7</ele><time>2012-07-20T15:47:39.0000000+00:00</time></trkpt><trkpt lat="64.19633484" lon="-20.27788544"><ele>93.5</ele><time>2012-07-20T15:47:44.0000000+00:00</time></trkpt><trkpt lat="64.19615173" lon="-20.27788162"><ele>93.0</ele><time>2012-07-20T15:47:49.0000000+00:00</time></trkpt><trkpt lat="64.19596863" lon="-20.27787399"><ele>92.7</ele><time>2012-07-20T15:47:54.0000000+00:00</time></trkpt><trkpt lat="64.19578552" lon="-20.27787209"><ele>92.6</ele><time>2012-07-20T15:47:59.0000000+00:00</time></trkpt><trkpt lat="64.19558716" lon="-20.27787018"><ele>92.0</ele><time>2012-07-20T15:48:04.0000000+00:00</time></trkpt><trkpt lat="64.19538879" lon="-20.27787972"><ele>91.7</ele><time>2012-07-20T15:48:09.0000000+00:00</time></trkpt><trkpt lat="64.19519043" lon="-20.27787018"><ele>91.5</ele><time>2012-07-20T15:48:14.0000000+00:00</time></trkpt><trkpt lat="64.19499207" lon="-20.27784348"><ele>90.8</ele><time>2012-07-20T15:48:19.0000000+00:00</time></trkpt><trkpt lat="64.1947937" lon="-20.27783585"><ele>90.2</ele><time>2012-07-20T15:48:24.0000000+00:00</time></trkpt><trkpt lat="64.19460297" lon="-20.27783394"><ele>90.3</ele><time>2012-07-20T15:48:29.0000000+00:00</time></trkpt><trkpt lat="64.19441223" lon="-20.27784157"><ele>90.4</ele><time>2012-07-20T15:48:34.0000000+00:00</time></trkpt><trkpt lat="64.1942215" lon="-20.27784348"><ele>91.0</ele><time>2012-07-20T15:48:39.0000000+00:00</time></trkpt><trkpt lat="64.19402313" lon="-20.27783966"><ele>90.8</ele><time>2012-07-20T15:48:44.0000000+00:00</time></trkpt><trkpt lat="64.19381714" lon="-20.27782822"><ele>90.2</ele><time>2012-07-20T15:48:49.0000000+00:00</time></trkpt><trkpt lat="64.19361877" lon="-20.2778244"><ele>90.3</ele><time>2012-07-20T15:48:54.0000000+00:00</time></trkpt><trkpt lat="64.19342041" lon="-20.27781105"><ele>90.0</ele><time>2012-07-20T15:48:59.0000000+00:00</time></trkpt><trkpt lat="64.19322205" lon="-20.27779961"><ele>89.4</ele><time>2012-07-20T15:49:04.0000000+00:00</time></trkpt><trkpt lat="64.19302368" lon="-20.27779388"><ele>89.1</ele><time>2012-07-20T15:49:09.0000000+00:00</time></trkpt><trkpt lat="64.19283295" lon="-20.27779579"><ele>89.5</ele><time>2012-07-20T15:49:14.0000000+00:00</time></trkpt><trkpt lat="64.19264221" lon="-20.27779198"><ele>89.0</ele><time>2012-07-20T15:49:19.0000000+00:00</time></trkpt><trkpt lat="64.19245911" lon="-20.27778626"><ele>89.1</ele><time>2012-07-20T15:49:24.0000000+00:00</time></trkpt><trkpt lat="64.19226074" lon="-20.2777729"><ele>89.3</ele><time>2012-07-20T15:49:29.0000000+00:00</time></trkpt><trkpt lat="64.19207764" lon="-20.27776718"><ele>89.1</ele><time>2012-07-20T15:49:34.0000000+00:00</time></trkpt><trkpt lat="64.19190216" lon="-20.27776527"><ele>89.1</ele><time>2012-07-20T15:49:39.0000000+00:00</time></trkpt><trkpt lat="64.19171143" lon="-20.27775002"><ele>89.0</ele><time>2012-07-20T15:49:44.0000000+00:00</time></trkpt><trkpt lat="64.19150543" lon="-20.27774239"><ele>88.2</ele><time>2012-07-20T15:49:49.0000000+00:00</time></trkpt><trkpt lat="64.19130707" lon="-20.27775192"><ele>87.9</ele><time>2012-07-20T15:49:54.0000000+00:00</time></trkpt><trkpt lat="64.19113159" lon="-20.27775002"><ele>88.0</ele><time>2012-07-20T15:49:59.0000000+00:00</time></trkpt><trkpt lat="64.19095612" lon="-20.27774429"><ele>87.9</ele><time>2012-07-20T15:50:04.0000000+00:00</time></trkpt><trkpt lat="64.19078064" lon="-20.27775955"><ele>88.2</ele><time>2012-07-20T15:50:09.0000000+00:00</time></trkpt><trkpt lat="64.19060516" lon="-20.27778053"><ele>88.5</ele><time>2012-07-20T15:50:14.0000000+00:00</time></trkpt><trkpt lat="64.1904068" lon="-20.27779961"><ele>88.3</ele><time>2012-07-20T15:50:19.0000000+00:00</time></trkpt><trkpt lat="64.19020081" lon="-20.27781868"><ele>88.0</ele><time>2012-07-20T15:50:24.0000000+00:00</time></trkpt><trkpt lat="64.19002533" lon="-20.27786827"><ele>88.1</ele><time>2012-07-20T15:50:29.0000000+00:00</time></trkpt><trkpt lat="64.18985748" lon="-20.27792168"><ele>88.2</ele><time>2012-07-20T15:50:34.0000000+00:00</time></trkpt><trkpt lat="64.18968964" lon="-20.27799034"><ele>87.8</ele><time>2012-07-20T15:50:39.0000000+00:00</time></trkpt><trkpt lat="64.18951416" lon="-20.27805901"><ele>88.0</ele><time>2012-07-20T15:50:44.0000000+00:00</time></trkpt><trkpt lat="64.18935394" lon="-20.27814102"><ele>87.8</ele><time>2012-07-20T15:50:49.0000000+00:00</time></trkpt><trkpt lat="64.18920136" lon="-20.27820015"><ele>88.0</ele><time>2012-07-20T15:50:54.0000000+00:00</time></trkpt><trkpt lat="64.18903351" lon="-20.27826881"><ele>87.2</ele><time>2012-07-20T15:50:59.0000000+00:00</time></trkpt><trkpt lat="64.18888855" lon="-20.27834511"><ele>86.7</ele><time>2012-07-20T15:51:04.0000000+00:00</time></trkpt><trkpt lat="64.1887207" lon="-20.27845001"><ele>87.4</ele><time>2012-07-20T15:51:09.0000000+00:00</time></trkpt><trkpt lat="64.1885376" lon="-20.27854729"><ele>87.6</ele><time>2012-07-20T15:51:14.0000000+00:00</time></trkpt><trkpt lat="64.18837738" lon="-20.27867699"><ele>88.0</ele><time>2012-07-20T15:51:19.0000000+00:00</time></trkpt><trkpt lat="64.18822479" lon="-20.27879143"><ele>88.2</ele><time>2012-07-20T15:51:24.0000000+00:00</time></trkpt><trkpt lat="64.18804169" lon="-20.2789135"><ele>87.7</ele><time>2012-07-20T15:51:29.0000000+00:00</time></trkpt><trkpt lat="64.18788147" lon="-20.27903748"><ele>87.1</ele><time>2012-07-20T15:51:34.0000000+00:00</time></trkpt><trkpt lat="64.18771362" lon="-20.27917481"><ele>87.3</ele><time>2012-07-20T15:51:39.0000000+00:00</time></trkpt><trkpt lat="64.18756104" lon="-20.27929688"><ele>88.0</ele><time>2012-07-20T15:51:44.0000000+00:00</time></trkpt><trkpt lat="64.18740845" lon="-20.27941322"><ele>88.1</ele><time>2012-07-20T15:51:49.0000000+00:00</time></trkpt><trkpt lat="64.18725586" lon="-20.2795372"><ele>87.3</ele><time>2012-07-20T15:51:54.0000000+00:00</time></trkpt><trkpt lat="64.18709564" lon="-20.27967072"><ele>86.4</ele><time>2012-07-20T15:51:59.0000000+00:00</time></trkpt><trkpt lat="64.18693543" lon="-20.2797966"><ele>86.5</ele><time>2012-07-20T15:52:04.0000000+00:00</time></trkpt><trkpt lat="64.18676758" lon="-20.27992821"><ele>86.8</ele><time>2012-07-20T15:52:09.0000000+00:00</time></trkpt><trkpt lat="64.18661499" lon="-20.28006363"><ele>87.4</ele><time>2012-07-20T15:52:14.0000000+00:00</time></trkpt><trkpt lat="64.1864624" lon="-20.2801857"><ele>87.5</ele><time>2012-07-20T15:52:19.0000000+00:00</time></trkpt><trkpt lat="64.18631744" lon="-20.28030968"><ele>87.1</ele><time>2012-07-20T15:52:24.0000000+00:00</time></trkpt><trkpt lat="64.18616486" lon="-20.28043747"><ele>87.2</ele><time>2012-07-20T15:52:29.0000000+00:00</time></trkpt><trkpt lat="64.18599701" lon="-20.28056908"><ele>88.1</ele><time>2012-07-20T15:52:34.0000000+00:00</time></trkpt><trkpt lat="64.18582916" lon="-20.28068733"><ele>88.4</ele><time>2012-07-20T15:52:39.0000000+00:00</time></trkpt><trkpt lat="64.18565369" lon="-20.28084946"><ele>88.6</ele><time>2012-07-20T15:52:44.0000000+00:00</time></trkpt><trkpt lat="64.18546295" lon="-20.28099632"><ele>89.1</ele><time>2012-07-20T15:52:49.0000000+00:00</time></trkpt><trkpt lat="64.18528748" lon="-20.28113937"><ele>88.4</ele><time>2012-07-20T15:52:54.0000000+00:00</time></trkpt><trkpt lat="64.18511963" lon="-20.28127098"><ele>87.8</ele><time>2012-07-20T15:52:59.0000000+00:00</time></trkpt><trkpt lat="64.18494415" lon="-20.28141403"><ele>88.1</ele><time>2012-07-20T15:53:04.0000000+00:00</time></trkpt><trkpt lat="64.18478394" lon="-20.28154373"><ele>88.5</ele><time>2012-07-20T15:53:09.0000000+00:00</time></trkpt><trkpt lat="64.18461609" lon="-20.28167343"><ele>88.2</ele><time>2012-07-20T15:53:14.0000000+00:00</time></trkpt><trkpt lat="64.18444061" lon="-20.28180313"><ele>87.7</ele><time>2012-07-20T15:53:19.0000000+00:00</time></trkpt><trkpt lat="64.18430328" lon="-20.28191757"><ele>88.0</ele><time>2012-07-20T15:53:24.0000000+00:00</time></trkpt><trkpt lat="64.18415833" lon="-20.28203774"><ele>88.1</ele><time>2012-07-20T15:53:29.0000000+00:00</time></trkpt><trkpt lat="64.18399811" lon="-20.28216171"><ele>88.3</ele><time>2012-07-20T15:53:34.0000000+00:00</time></trkpt><trkpt lat="64.18383026" lon="-20.28229713"><ele>88.2</ele><time>2012-07-20T15:53:39.0000000+00:00</time></trkpt><trkpt lat="64.18367767" lon="-20.28242111"><ele>87.9</ele><time>2012-07-20T15:53:44.0000000+00:00</time></trkpt><trkpt lat="64.18350983" lon="-20.28254318"><ele>88.0</ele><time>2012-07-20T15:53:49.0000000+00:00</time></trkpt><trkpt lat="64.18334961" lon="-20.2826767"><ele>88.2</ele><time>2012-07-20T15:53:54.0000000+00:00</time></trkpt><trkpt lat="64.18318176" lon="-20.28281593"><ele>88.6</ele><time>2012-07-20T15:53:59.0000000+00:00</time></trkpt><trkpt lat="64.18300629" lon="-20.28294945"><ele>88.0</ele><time>2012-07-20T15:54:04.0000000+00:00</time></trkpt><trkpt lat="64.18282318" lon="-20.28308296"><ele>88.2</ele><time>2012-07-20T15:54:09.0000000+00:00</time></trkpt><trkpt lat="64.18265533" lon="-20.28324318"><ele>89.3</ele><time>2012-07-20T15:54:14.0000000+00:00</time></trkpt><trkpt lat="64.18247986" lon="-20.28338242"><ele>89.7</ele><time>2012-07-20T15:54:19.0000000+00:00</time></trkpt><trkpt lat="64.18230438" lon="-20.28352165"><ele>90.3</ele><time>2012-07-20T15:54:24.0000000+00:00</time></trkpt><trkpt lat="64.18212128" lon="-20.28366089"><ele>90.2</ele><time>2012-07-20T15:54:29.0000000+00:00</time></trkpt><trkpt lat="64.18193817" lon="-20.28380966"><ele>90.5</ele><time>2012-07-20T15:54:34.0000000+00:00</time></trkpt><trkpt lat="64.1817627" lon="-20.28396225"><ele>90.1</ele><time>2012-07-20T15:54:39.0000000+00:00</time></trkpt><trkpt lat="64.18157959" lon="-20.28411484"><ele>90.0</ele><time>2012-07-20T15:54:44.0000000+00:00</time></trkpt><trkpt lat="64.18139648" lon="-20.28426552"><ele>90.4</ele><time>2012-07-20T15:54:49.0000000+00:00</time></trkpt><trkpt lat="64.18121338" lon="-20.28441238"><ele>91.2</ele><time>2012-07-20T15:54:54.0000000+00:00</time></trkpt><trkpt lat="64.18103027" lon="-20.28455162"><ele>90.4</ele><time>2012-07-20T15:54:59.0000000+00:00</time></trkpt><trkpt lat="64.18084717" lon="-20.28469849"><ele>89.6</ele><time>2012-07-20T15:55:04.0000000+00:00</time></trkpt><trkpt lat="64.18068695" lon="-20.28483772"><ele>88.7</ele><time>2012-07-20T15:55:09.0000000+00:00</time></trkpt><trkpt lat="64.18053436" lon="-20.28493691"><ele>90.4</ele><time>2012-07-20T15:55:14.0000000+00:00</time></trkpt><trkpt lat="64.18039703" lon="-20.28504944"><ele>90.7</ele><time>2012-07-20T15:55:19.0000000+00:00</time></trkpt><trkpt lat="64.18029785" lon="-20.28514671"><ele>90.2</ele><time>2012-07-20T15:55:24.0000000+00:00</time></trkpt><trkpt lat="64.18019104" lon="-20.28523064"><ele>90.4</ele><time>2012-07-20T15:55:29.0000000+00:00</time></trkpt><trkpt lat="64.18006134" lon="-20.28531838"><ele>90.8</ele><time>2012-07-20T15:55:34.0000000+00:00</time></trkpt><trkpt lat="64.17997742" lon="-20.28539467"><ele>91.6</ele><time>2012-07-20T15:55:39.0000000+00:00</time></trkpt><trkpt lat="64.17988586" lon="-20.28546333"><ele>91.8</ele><time>2012-07-20T15:55:44.0000000+00:00</time></trkpt><trkpt lat="64.17978668" lon="-20.28555298"><ele>91.8</ele><time>2012-07-20T15:55:49.0000000+00:00</time></trkpt><trkpt lat="64.1796875" lon="-20.28562546"><ele>92.5</ele><time>2012-07-20T15:55:54.0000000+00:00</time></trkpt><trkpt lat="64.17959595" lon="-20.28568268"><ele>92.9</ele><time>2012-07-20T15:55:59.0000000+00:00</time></trkpt><trkpt lat="64.17948914" lon="-20.28576279"><ele>92.2</ele><time>2012-07-20T15:56:04.0000000+00:00</time></trkpt><trkpt lat="64.17942047" lon="-20.28578949"><ele>93.6</ele><time>2012-07-20T15:56:09.0000000+00:00</time></trkpt><trkpt lat="64.17934418" lon="-20.28584099"><ele>94.8</ele><time>2012-07-20T15:56:14.0000000+00:00</time></trkpt><trkpt lat="64.17926025" lon="-20.28589249"><ele>94.6</ele><time>2012-07-20T15:56:19.0000000+00:00</time></trkpt><trkpt lat="64.17916107" lon="-20.28596115"><ele>95.2</ele><time>2012-07-20T15:56:24.0000000+00:00</time></trkpt><trkpt lat="64.17906189" lon="-20.28600693"><ele>95.3</ele><time>2012-07-20T15:56:29.0000000+00:00</time></trkpt><trkpt lat="64.17896271" lon="-20.28606033"><ele>96.1</ele><time>2012-07-20T15:56:34.0000000+00:00</time></trkpt><trkpt lat="64.17887116" lon="-20.28609276"><ele>96.3</ele><time>2012-07-20T15:56:39.0000000+00:00</time></trkpt><trkpt lat="64.1787796" lon="-20.28611946"><ele>96.1</ele><time>2012-07-20T15:56:44.0000000+00:00</time></trkpt><trkpt lat="64.17871094" lon="-20.28615189"><ele>96.8</ele><time>2012-07-20T15:56:49.0000000+00:00</time></trkpt><trkpt lat="64.17862701" lon="-20.28617477"><ele>95.9</ele><time>2012-07-20T15:56:54.0000000+00:00</time></trkpt><trkpt lat="64.17854309" lon="-20.28619957"><ele>97.9</ele><time>2012-07-20T15:56:59.0000000+00:00</time></trkpt><trkpt lat="64.17845917" lon="-20.28623009"><ele>98.5</ele><time>2012-07-20T15:57:04.0000000+00:00</time></trkpt><trkpt lat="64.17838287" lon="-20.28626633"><ele>99.6</ele><time>2012-07-20T15:57:09.0000000+00:00</time></trkpt><trkpt lat="64.17829132" lon="-20.28630829"><ele>101.2</ele><time>2012-07-20T15:57:14.0000000+00:00</time></trkpt><trkpt lat="64.17819977" lon="-20.28634453"><ele>101.1</ele><time>2012-07-20T15:57:19.0000000+00:00</time></trkpt><trkpt lat="64.17811585" lon="-20.28635979"><ele>101.6</ele><time>2012-07-20T15:57:24.0000000+00:00</time></trkpt><trkpt lat="64.17803192" lon="-20.28638077"><ele>102.6</ele><time>2012-07-20T15:57:29.0000000+00:00</time></trkpt><trkpt lat="64.17794037" lon="-20.28638649"><ele>102.8</ele><time>2012-07-20T15:57:34.0000000+00:00</time></trkpt><trkpt lat="64.17784882" lon="-20.28638268"><ele>103.2</ele><time>2012-07-20T15:57:39.0000000+00:00</time></trkpt><trkpt lat="64.17773438" lon="-20.2863884"><ele>102.5</ele><time>2012-07-20T15:57:44.0000000+00:00</time></trkpt><trkpt lat="64.17762756" lon="-20.28640175"><ele>102.8</ele><time>2012-07-20T15:57:49.0000000+00:00</time></trkpt><trkpt lat="64.17755127" lon="-20.28642082"><ele>103.6</ele><time>2012-07-20T15:57:54.0000000+00:00</time></trkpt><trkpt lat="64.17745209" lon="-20.28639603"><ele>103.6</ele><time>2012-07-20T15:57:59.0000000+00:00</time></trkpt><trkpt lat="64.17733002" lon="-20.28639793"><ele>104.1</ele><time>2012-07-20T15:58:04.0000000+00:00</time></trkpt><trkpt lat="64.17720795" lon="-20.28639221"><ele>104.7</ele><time>2012-07-20T15:58:09.0000000+00:00</time></trkpt><trkpt lat="64.17709351" lon="-20.28639221"><ele>107.0</ele><time>2012-07-20T15:58:14.0000000+00:00</time></trkpt><trkpt lat="64.17697144" lon="-20.28638268"><ele>107.4</ele><time>2012-07-20T15:58:19.0000000+00:00</time></trkpt><trkpt lat="64.17683411" lon="-20.28635407"><ele>107.3</ele><time>2012-07-20T15:58:24.0000000+00:00</time></trkpt><trkpt lat="64.17670441" lon="-20.28632546"><ele>107.6</ele><time>2012-07-20T15:58:29.0000000+00:00</time></trkpt><trkpt lat="64.17656708" lon="-20.28629303"><ele>107.4</ele><time>2012-07-20T15:58:34.0000000+00:00</time></trkpt><trkpt lat="64.17642975" lon="-20.28624153"><ele>107.0</ele><time>2012-07-20T15:58:39.0000000+00:00</time></trkpt><trkpt lat="64.17629242" lon="-20.28619385"><ele>107.6</ele><time>2012-07-20T15:58:44.0000000+00:00</time></trkpt><trkpt lat="64.17616272" lon="-20.28613854"><ele>108.0</ele><time>2012-07-20T15:58:49.0000000+00:00</time></trkpt><trkpt lat="64.17601776" lon="-20.28606415"><ele>108.3</ele><time>2012-07-20T15:58:54.0000000+00:00</time></trkpt><trkpt lat="64.17590332" lon="-20.28600884"><ele>108.4</ele><time>2012-07-20T15:58:59.0000000+00:00</time></trkpt><trkpt lat="64.17581177" lon="-20.28595352"><ele>107.9</ele><time>2012-07-20T15:59:04.0000000+00:00</time></trkpt><trkpt lat="64.17568207" lon="-20.28591156"><ele>107.8</ele><time>2012-07-20T15:59:09.0000000+00:00</time></trkpt><trkpt lat="64.17552185" lon="-20.28582573"><ele>107.9</ele><time>2012-07-20T15:59:14.0000000+00:00</time></trkpt><trkpt lat="64.17536926" lon="-20.28575134"><ele>108.5</ele><time>2012-07-20T15:59:19.0000000+00:00</time></trkpt><trkpt lat="64.17523956" lon="-20.28568268"><ele>108.6</ele><time>2012-07-20T15:59:24.0000000+00:00</time></trkpt><trkpt lat="64.17514038" lon="-20.28562355"><ele>108.1</ele><time>2012-07-20T15:59:29.0000000+00:00</time></trkpt><trkpt lat="64.17501068" lon="-20.28553963"><ele>107.6</ele><time>2012-07-20T15:59:34.0000000+00:00</time></trkpt><trkpt lat="64.17486572" lon="-20.2854805"><ele>107.5</ele><time>2012-07-20T15:59:39.0000000+00:00</time></trkpt><trkpt lat="64.17476654" lon="-20.28543091"><ele>107.0</ele><time>2012-07-20T15:59:44.0000000+00:00</time></trkpt><trkpt lat="64.17471314" lon="-20.28539848"><ele>107.0</ele><time>2012-07-20T15:59:49.0000000+00:00</time></trkpt><trkpt lat="64.17471314" lon="-20.28540039"><ele>106.8</ele><time>2012-07-20T15:59:54.0000000+00:00</time></trkpt><trkpt lat="64.17471314" lon="-20.28540039"><ele>106.8</ele><time>2012-07-20T15:59:59.0000000+00:00</time></trkpt><trkpt lat="64.17471314" lon="-20.28540039"><ele>106.9</ele><time>2012-07-20T16:00:04.0000000+00:00</time></trkpt><trkpt lat="64.17471314" lon="-20.28540039"><ele>106.9</ele><time>2012-07-20T16:00:09.0000000+00:00</time></trkpt><trkpt lat="64.17465973" lon="-20.2853775"><ele>107.2</ele><time>2012-07-20T16:00:14.0000000+00:00</time></trkpt><trkpt lat="64.17453766" lon="-20.2853241"><ele>107.4</ele><time>2012-07-20T16:00:19.0000000+00:00</time></trkpt><trkpt lat="64.1743927" lon="-20.2852478"><ele>107.6</ele><time>2012-07-20T16:00:24.0000000+00:00</time></trkpt><trkpt lat="64.17424011" lon="-20.28518677"><ele>107.8</ele><time>2012-07-20T16:00:29.0000000+00:00</time></trkpt><trkpt lat="64.17408752" lon="-20.28511047"><ele>108.1</ele><time>2012-07-20T16:00:34.0000000+00:00</time></trkpt><trkpt lat="64.17393494" lon="-20.28502464"><ele>108.2</ele><time>2012-07-20T16:00:39.0000000+00:00</time></trkpt><trkpt lat="64.17376709" lon="-20.2849617"><ele>108.7</ele><time>2012-07-20T16:00:44.0000000+00:00</time></trkpt><trkpt lat="64.1736145" lon="-20.28489685"><ele>109.0</ele><time>2012-07-20T16:00:49.0000000+00:00</time></trkpt><trkpt lat="64.17344666" lon="-20.28484726"><ele>108.9</ele><time>2012-07-20T16:00:54.0000000+00:00</time></trkpt><trkpt lat="64.17327881" lon="-20.28482056"><ele>108.9</ele><time>2012-07-20T16:00:59.0000000+00:00</time></trkpt><trkpt lat="64.17310333" lon="-20.28479767"><ele>108.8</ele><time>2012-07-20T16:01:04.0000000+00:00</time></trkpt><trkpt lat="64.17293549" lon="-20.28480148"><ele>108.6</ele><time>2012-07-20T16:01:09.0000000+00:00</time></trkpt><trkpt lat="64.17282105" lon="-20.28482056"><ele>108.5</ele><time>2012-07-20T16:01:14.0000000+00:00</time></trkpt><trkpt lat="64.1727066" lon="-20.28482246"><ele>109.1</ele><time>2012-07-20T16:01:19.0000000+00:00</time></trkpt><trkpt lat="64.17256928" lon="-20.28482819"><ele>107.5</ele><time>2012-07-20T16:01:24.0000000+00:00</time></trkpt><trkpt lat="64.17241669" lon="-20.28486633"><ele>109.0</ele><time>2012-07-20T16:01:29.0000000+00:00</time></trkpt><trkpt lat="64.17225647" lon="-20.28491592"><ele>108.9</ele><time>2012-07-20T16:01:34.0000000+00:00</time></trkpt><trkpt lat="64.17208099" lon="-20.2849884"><ele>109.0</ele><time>2012-07-20T16:01:39.0000000+00:00</time></trkpt><trkpt lat="64.17191315" lon="-20.28506279"><ele>111.0</ele><time>2012-07-20T16:01:44.0000000+00:00</time></trkpt><trkpt lat="64.17177582" lon="-20.28513908"><ele>109.1</ele><time>2012-07-20T16:01:49.0000000+00:00</time></trkpt><trkpt lat="64.17164612" lon="-20.28523827"><ele>108.9</ele><time>2012-07-20T16:01:54.0000000+00:00</time></trkpt><trkpt lat="64.1714859" lon="-20.28535652"><ele>108.0</ele><time>2012-07-20T16:01:59.0000000+00:00</time></trkpt><trkpt lat="64.1713028" lon="-20.28549576"><ele>108.3</ele><time>2012-07-20T16:02:04.0000000+00:00</time></trkpt><trkpt lat="64.17112732" lon="-20.28564835"><ele>108.2</ele><time>2012-07-20T16:02:09.0000000+00:00</time></trkpt><trkpt lat="64.17095947" lon="-20.2858429"><ele>108.0</ele><time>2012-07-20T16:02:14.0000000+00:00</time></trkpt><trkpt lat="64.170784" lon="-20.28607559"><ele>107.2</ele><time>2012-07-20T16:02:19.0000000+00:00</time></trkpt><trkpt lat="64.17060852" lon="-20.28630447"><ele>106.8</ele><time>2012-07-20T16:02:24.0000000+00:00</time></trkpt><trkpt lat="64.17042542" lon="-20.28652573"><ele>106.9</ele><time>2012-07-20T16:02:29.0000000+00:00</time></trkpt><trkpt lat="64.1702652" lon="-20.28672791"><ele>106.6</ele><time>2012-07-20T16:02:34.0000000+00:00</time></trkpt><trkpt lat="64.1701355" lon="-20.28690529"><ele>106.9</ele><time>2012-07-20T16:02:39.0000000+00:00</time></trkpt><trkpt lat="64.17002106" lon="-20.28705978"><ele>106.9</ele><time>2012-07-20T16:02:44.0000000+00:00</time></trkpt><trkpt lat="64.16986847" lon="-20.2872467"><ele>106.8</ele><time>2012-07-20T16:02:49.0000000+00:00</time></trkpt><trkpt lat="64.16969299" lon="-20.28746605"><ele>106.5</ele><time>2012-07-20T16:02:54.0000000+00:00</time></trkpt><trkpt lat="64.16953278" lon="-20.28769112"><ele>106.5</ele><time>2012-07-20T16:02:59.0000000+00:00</time></trkpt><trkpt lat="64.1693573" lon="-20.2878933"><ele>106.1</ele><time>2012-07-20T16:03:04.0000000+00:00</time></trkpt><trkpt lat="64.16918182" lon="-20.28813934"><ele>105.7</ele><time>2012-07-20T16:03:09.0000000+00:00</time></trkpt><trkpt lat="64.16900635" lon="-20.28837204"><ele>105.5</ele><time>2012-07-20T16:03:14.0000000+00:00</time></trkpt><trkpt lat="64.1688385" lon="-20.28860855"><ele>105.8</ele><time>2012-07-20T16:03:19.0000000+00:00</time></trkpt><trkpt lat="64.16866303" lon="-20.28882217"><ele>106.3</ele><time>2012-07-20T16:03:24.0000000+00:00</time></trkpt><trkpt lat="64.16848755" lon="-20.28905487"><ele>106.1</ele><time>2012-07-20T16:03:29.0000000+00:00</time></trkpt><trkpt lat="64.16831207" lon="-20.28929138"><ele>105.6</ele><time>2012-07-20T16:03:34.0000000+00:00</time></trkpt><trkpt lat="64.1681366" lon="-20.28951073"><ele>105.9</ele><time>2012-07-20T16:03:39.0000000+00:00</time></trkpt><trkpt lat="64.16796112" lon="-20.28972626"><ele>104.7</ele><time>2012-07-20T16:03:44.0000000+00:00</time></trkpt><trkpt lat="64.16780853" lon="-20.28992462"><ele>103.4</ele><time>2012-07-20T16:03:49.0000000+00:00</time></trkpt><trkpt lat="64.16764832" lon="-20.29014015"><ele>103.4</ele><time>2012-07-20T16:03:54.0000000+00:00</time></trkpt><trkpt lat="64.16749573" lon="-20.29034805"><ele>103.5</ele><time>2012-07-20T16:03:59.0000000+00:00</time></trkpt><trkpt lat="64.16738129" lon="-20.29050446"><ele>103.2</ele><time>2012-07-20T16:04:04.0000000+00:00</time></trkpt><trkpt lat="64.1672821" lon="-20.29067802"><ele>103.2</ele><time>2012-07-20T16:04:09.0000000+00:00</time></trkpt><trkpt lat="64.16716003" lon="-20.29089356"><ele>102.7</ele><time>2012-07-20T16:04:14.0000000+00:00</time></trkpt><trkpt lat="64.16702271" lon="-20.29112434"><ele>103.0</ele><time>2012-07-20T16:04:19.0000000+00:00</time></trkpt><trkpt lat="64.16687775" lon="-20.29137421"><ele>103.3</ele><time>2012-07-20T16:04:24.0000000+00:00</time></trkpt><trkpt lat="64.16674042" lon="-20.29165459"><ele>103.5</ele><time>2012-07-20T16:04:29.0000000+00:00</time></trkpt><trkpt lat="64.16660309" lon="-20.29195213"><ele>103.6</ele><time>2012-07-20T16:04:34.0000000+00:00</time></trkpt><trkpt lat="64.1664505" lon="-20.29224396"><ele>103.4</ele><time>2012-07-20T16:04:39.0000000+00:00</time></trkpt><trkpt lat="64.16631317" lon="-20.29255295"><ele>103.6</ele><time>2012-07-20T16:04:44.0000000+00:00</time></trkpt><trkpt lat="64.16617584" lon="-20.29282951"><ele>103.0</ele><time>2012-07-20T16:04:49.0000000+00:00</time></trkpt><trkpt lat="64.16606903" lon="-20.29303932"><ele>102.7</ele><time>2012-07-20T16:04:54.0000000+00:00</time></trkpt><trkpt lat="64.16600037" lon="-20.29320145"><ele>103.1</ele><time>2012-07-20T16:04:59.0000000+00:00</time></trkpt><trkpt lat="64.16590881" lon="-20.29343224"><ele>104.4</ele><time>2012-07-20T16:05:04.0000000+00:00</time></trkpt><trkpt lat="64.16577911" lon="-20.29369354"><ele>105.1</ele><time>2012-07-20T16:05:09.0000000+00:00</time></trkpt><trkpt lat="64.16569519" lon="-20.29389"><ele>106.2</ele><time>2012-07-20T16:05:14.0000000+00:00</time></trkpt><trkpt lat="64.1656189" lon="-20.29402733"><ele>107.5</ele><time>2012-07-20T16:05:19.0000000+00:00</time></trkpt><trkpt lat="64.16551971" lon="-20.29424858"><ele>107.9</ele><time>2012-07-20T16:05:24.0000000+00:00</time></trkpt><trkpt lat="64.1654129" lon="-20.29450226"><ele>108.8</ele><time>2012-07-20T16:05:29.0000000+00:00</time></trkpt><trkpt lat="64.1652832" lon="-20.29476929"><ele>109.3</ele><time>2012-07-20T16:05:34.0000000+00:00</time></trkpt><trkpt lat="64.16514587" lon="-20.29502106"><ele>109.2</ele><time>2012-07-20T16:05:39.0000000+00:00</time></trkpt><trkpt lat="64.16501617" lon="-20.29527473"><ele>108.6</ele><time>2012-07-20T16:05:44.0000000+00:00</time></trkpt><trkpt lat="64.1648941" lon="-20.2954998"><ele>108.8</ele><time>2012-07-20T16:05:49.0000000+00:00</time></trkpt><trkpt lat="64.16481018" lon="-20.29564095"><ele>108.5</ele><time>2012-07-20T16:05:54.0000000+00:00</time></trkpt><trkpt lat="64.16474915" lon="-20.29572487"><ele>107.9</ele><time>2012-07-20T16:05:59.0000000+00:00</time></trkpt><trkpt lat="64.16468048" lon="-20.29581261"><ele>108.5</ele><time>2012-07-20T16:06:04.0000000+00:00</time></trkpt><trkpt lat="64.16456604" lon="-20.29601288"><ele>109.3</ele><time>2012-07-20T16:06:09.0000000+00:00</time></trkpt><trkpt lat="64.16442871" lon="-20.29622078"><ele>109.5</ele><time>2012-07-20T16:06:14.0000000+00:00</time></trkpt><trkpt lat="64.16429901" lon="-20.29641151"><ele>109.8</ele><time>2012-07-20T16:06:19.0000000+00:00</time></trkpt><trkpt lat="64.16419983" lon="-20.29654121"><ele>110.5</ele><time>2012-07-20T16:06:24.0000000+00:00</time></trkpt><trkpt lat="64.16413879" lon="-20.2966423"><ele>110.9</ele><time>2012-07-20T16:06:29.0000000+00:00</time></trkpt><trkpt lat="64.16402435" lon="-20.29677963"><ele>109.0</ele><time>2012-07-20T16:06:34.0000000+00:00</time></trkpt><trkpt lat="64.16388702" lon="-20.29696655"><ele>106.9</ele><time>2012-07-20T16:06:39.0000000+00:00</time></trkpt><trkpt lat="64.16374207" lon="-20.29715538"><ele>107.1</ele><time>2012-07-20T16:06:44.0000000+00:00</time></trkpt><trkpt lat="64.16362763" lon="-20.29730988"><ele>107.1</ele><time>2012-07-20T16:06:49.0000000+00:00</time></trkpt><trkpt lat="64.16351318" lon="-20.29744148"><ele>105.2</ele><time>2012-07-20T16:06:54.0000000+00:00</time></trkpt><trkpt lat="64.16336823" lon="-20.29763222"><ele>104.6</ele><time>2012-07-20T16:06:59.0000000+00:00</time></trkpt><trkpt lat="64.16321564" lon="-20.29782867"><ele>104.7</ele><time>2012-07-20T16:07:04.0000000+00:00</time></trkpt><trkpt lat="64.16307831" lon="-20.29800797"><ele>104.1</ele><time>2012-07-20T16:07:09.0000000+00:00</time></trkpt><trkpt lat="64.16291809" lon="-20.29822731"><ele>103.6</ele><time>2012-07-20T16:07:14.0000000+00:00</time></trkpt><trkpt lat="64.16275024" lon="-20.29845619"><ele>102.9</ele><time>2012-07-20T16:07:19.0000000+00:00</time></trkpt><trkpt lat="64.16259766" lon="-20.29864883"><ele>103.4</ele><time>2012-07-20T16:07:24.0000000+00:00</time></trkpt><trkpt lat="64.16244507" lon="-20.29887199"><ele>102.7</ele><time>2012-07-20T16:07:29.0000000+00:00</time></trkpt><trkpt lat="64.16227722" lon="-20.2991066"><ele>102.7</ele><time>2012-07-20T16:07:34.0000000+00:00</time></trkpt><trkpt lat="64.16213989" lon="-20.29927826"><ele>103.5</ele><time>2012-07-20T16:07:39.0000000+00:00</time></trkpt><trkpt lat="64.16199493" lon="-20.29946899"><ele>103.3</ele><time>2012-07-20T16:07:44.0000000+00:00</time></trkpt><trkpt lat="64.16184235" lon="-20.29967308"><ele>103.4</ele><time>2012-07-20T16:07:49.0000000+00:00</time></trkpt><trkpt lat="64.16166687" lon="-20.29991531"><ele>103.8</ele><time>2012-07-20T16:07:54.0000000+00:00</time></trkpt><trkpt lat="64.16148377" lon="-20.3001442"><ele>102.9</ele><time>2012-07-20T16:07:59.0000000+00:00</time></trkpt><trkpt lat="64.16131592" lon="-20.30036354"><ele>102.8</ele><time>2012-07-20T16:08:04.0000000+00:00</time></trkpt><trkpt lat="64.16118622" lon="-20.30054283"><ele>101.9</ele><time>2012-07-20T16:08:09.0000000+00:00</time></trkpt><trkpt lat="64.16104126" lon="-20.30072975"><ele>101.3</ele><time>2012-07-20T16:08:14.0000000+00:00</time></trkpt><trkpt lat="64.16088867" lon="-20.30093002"><ele>100.4</ele><time>2012-07-20T16:08:19.0000000+00:00</time></trkpt><trkpt lat="64.16078186" lon="-20.30105972"><ele>101.4</ele><time>2012-07-20T16:08:24.0000000+00:00</time></trkpt><trkpt lat="64.16066742" lon="-20.30123138"><ele>101.4</ele><time>2012-07-20T16:08:29.0000000+00:00</time></trkpt><trkpt lat="64.1605072" lon="-20.30144501"><ele>100.5</ele><time>2012-07-20T16:08:34.0000000+00:00</time></trkpt><trkpt lat="64.16035461" lon="-20.30165672"><ele>100.4</ele><time>2012-07-20T16:08:39.0000000+00:00</time></trkpt><trkpt lat="64.1601944" lon="-20.30186844"><ele>100.5</ele><time>2012-07-20T16:08:44.0000000+00:00</time></trkpt><trkpt lat="64.16003418" lon="-20.30208397"><ele>100.0</ele><time>2012-07-20T16:08:49.0000000+00:00</time></trkpt><trkpt lat="64.15988159" lon="-20.30227852"><ele>99.7</ele><time>2012-07-20T16:08:54.0000000+00:00</time></trkpt><trkpt lat="64.15976715" lon="-20.30242157"><ele>100.7</ele><time>2012-07-20T16:08:59.0000000+00:00</time></trkpt><trkpt lat="64.15966034" lon="-20.30257225"><ele>100.9</ele><time>2012-07-20T16:09:04.0000000+00:00</time></trkpt><trkpt lat="64.15951538" lon="-20.3027668"><ele>101.2</ele><time>2012-07-20T16:09:09.0000000+00:00</time></trkpt><trkpt lat="64.15936279" lon="-20.30299759"><ele>100.9</ele><time>2012-07-20T16:09:14.0000000+00:00</time></trkpt><trkpt lat="64.15921021" lon="-20.30319977"><ele>99.8</ele><time>2012-07-20T16:09:19.0000000+00:00</time></trkpt><trkpt lat="64.15907288" lon="-20.30342102"><ele>99.7</ele><time>2012-07-20T16:09:24.0000000+00:00</time></trkpt><trkpt lat="64.15893555" lon="-20.30364037"><ele>99.9</ele><time>2012-07-20T16:09:29.0000000+00:00</time></trkpt><trkpt lat="64.15881348" lon="-20.3038826"><ele>99.9</ele><time>2012-07-20T16:09:34.0000000+00:00</time></trkpt><trkpt lat="64.15866852" lon="-20.30418396"><ele>99.7</ele><time>2012-07-20T16:09:39.0000000+00:00</time></trkpt><trkpt lat="64.15855408" lon="-20.30445099"><ele>99.8</ele><time>2012-07-20T16:09:44.0000000+00:00</time></trkpt><trkpt lat="64.15843201" lon="-20.30475998"><ele>100.0</ele><time>2012-07-20T16:09:49.0000000+00:00</time></trkpt><trkpt lat="64.15830231" lon="-20.30514145"><ele>100.3</ele><time>2012-07-20T16:09:54.0000000+00:00</time></trkpt><trkpt lat="64.15818024" lon="-20.30548286"><ele>99.8</ele><time>2012-07-20T16:09:59.0000000+00:00</time></trkpt><trkpt lat="64.15807343" lon="-20.30587769"><ele>99.0</ele><time>2012-07-20T16:10:04.0000000+00:00</time></trkpt><trkpt lat="64.15798187" lon="-20.30626297"><ele>99.5</ele><time>2012-07-20T16:10:09.0000000+00:00</time></trkpt><trkpt lat="64.15787506" lon="-20.30664253"><ele>99.2</ele><time>2012-07-20T16:10:14.0000000+00:00</time></trkpt><trkpt lat="64.15781403" lon="-20.30692864"><ele>99.2</ele><time>2012-07-20T16:10:19.0000000+00:00</time></trkpt><trkpt lat="64.15774536" lon="-20.30725098"><ele>99.4</ele><time>2012-07-20T16:10:24.0000000+00:00</time></trkpt><trkpt lat="64.15764618" lon="-20.30768013"><ele>99.0</ele><time>2012-07-20T16:10:29.0000000+00:00</time></trkpt><trkpt lat="64.15753937" lon="-20.30816841"><ele>99.8</ele><time>2012-07-20T16:10:34.0000000+00:00</time></trkpt><trkpt lat="64.15744782" lon="-20.30857849"><ele>99.4</ele><time>2012-07-20T16:10:39.0000000+00:00</time></trkpt><trkpt lat="64.15735626" lon="-20.3089428"><ele>98.0</ele><time>2012-07-20T16:10:44.0000000+00:00</time></trkpt><trkpt lat="64.15724945" lon="-20.30940819"><ele>97.4</ele><time>2012-07-20T16:10:49.0000000+00:00</time></trkpt><trkpt lat="64.15715027" lon="-20.30990028"><ele>97.1</ele><time>2012-07-20T16:10:54.0000000+00:00</time></trkpt><trkpt lat="64.15705872" lon="-20.3103466"><ele>96.9</ele><time>2012-07-20T16:10:59.0000000+00:00</time></trkpt><trkpt lat="64.15696716" lon="-20.31076431"><ele>97.0</ele><time>2012-07-20T16:11:04.0000000+00:00</time></trkpt><trkpt lat="64.15688324" lon="-20.31113815"><ele>96.7</ele><time>2012-07-20T16:11:09.0000000+00:00</time></trkpt><trkpt lat="64.15679932" lon="-20.31147575"><ele>96.5</ele><time>2012-07-20T16:11:14.0000000+00:00</time></trkpt><trkpt lat="64.15667725" lon="-20.31186676"><ele>94.9</ele><time>2012-07-20T16:11:19.0000000+00:00</time></trkpt><trkpt lat="64.15653229" lon="-20.3122921"><ele>93.2</ele><time>2012-07-20T16:11:24.0000000+00:00</time></trkpt><trkpt lat="64.15640259" lon="-20.31267548"><ele>93.7</ele><time>2012-07-20T16:11:29.0000000+00:00</time></trkpt><trkpt lat="64.15627289" lon="-20.31300545"><ele>94.4</ele><time>2012-07-20T16:11:34.0000000+00:00</time></trkpt><trkpt lat="64.15612793" lon="-20.31330109"><ele>93.2</ele><time>2012-07-20T16:11:39.0000000+00:00</time></trkpt><trkpt lat="64.15596771" lon="-20.3136425"><ele>94.1</ele><time>2012-07-20T16:11:44.0000000+00:00</time></trkpt><trkpt lat="64.15577698" lon="-20.31398964"><ele>92.9</ele><time>2012-07-20T16:11:49.0000000+00:00</time></trkpt><trkpt lat="64.15561676" lon="-20.31430626"><ele>93.3</ele><time>2012-07-20T16:11:54.0000000+00:00</time></trkpt><trkpt lat="64.15546417" lon="-20.31459045"><ele>92.6</ele><time>2012-07-20T16:11:59.0000000+00:00</time></trkpt><trkpt lat="64.15530396" lon="-20.31486702"><ele>92.1</ele><time>2012-07-20T16:12:04.0000000+00:00</time></trkpt><trkpt lat="64.15511322" lon="-20.31519508"><ele>91.4</ele><time>2012-07-20T16:12:09.0000000+00:00</time></trkpt><trkpt lat="64.15492249" lon="-20.31553459"><ele>90.9</ele><time>2012-07-20T16:12:14.0000000+00:00</time></trkpt><trkpt lat="64.1547699" lon="-20.31581688"><ele>91.8</ele><time>2012-07-20T16:12:19.0000000+00:00</time></trkpt><trkpt lat="64.15463257" lon="-20.31602478"><ele>91.7</ele><time>2012-07-20T16:12:24.0000000+00:00</time></trkpt><trkpt lat="64.15447235" lon="-20.31625748"><ele>91.3</ele><time>2012-07-20T16:12:29.0000000+00:00</time></trkpt><trkpt lat="64.15431213" lon="-20.31648254"><ele>92.9</ele><time>2012-07-20T16:12:34.0000000+00:00</time></trkpt><trkpt lat="64.15418243" lon="-20.3166256"><ele>93.6</ele><time>2012-07-20T16:12:39.0000000+00:00</time></trkpt><trkpt lat="64.15402222" lon="-20.31681061"><ele>92.9</ele><time>2012-07-20T16:12:44.0000000+00:00</time></trkpt><trkpt lat="64.15384674" lon="-20.31701279"><ele>92.5</ele><time>2012-07-20T16:12:49.0000000+00:00</time></trkpt><trkpt lat="64.15367889" lon="-20.31716538"><ele>93.1</ele><time>2012-07-20T16:12:54.0000000+00:00</time></trkpt><trkpt lat="64.15354919" lon="-20.31728172"><ele>95.2</ele><time>2012-07-20T16:12:59.0000000+00:00</time></trkpt><trkpt lat="64.15339661" lon="-20.31743813"><ele>99.0</ele><time>2012-07-20T16:13:04.0000000+00:00</time></trkpt><trkpt lat="64.15325165" lon="-20.31755066"><ele>96.6</ele><time>2012-07-20T16:13:09.0000000+00:00</time></trkpt><trkpt lat="64.15311432" lon="-20.31763458"><ele>94.8</ele><time>2012-07-20T16:13:14.0000000+00:00</time></trkpt><trkpt lat="64.15293884" lon="-20.31776428"><ele>94.0</ele><time>2012-07-20T16:13:19.0000000+00:00</time></trkpt><trkpt lat="64.15275574" lon="-20.3178997"><ele>93.2</ele><time>2012-07-20T16:13:24.0000000+00:00</time></trkpt><trkpt lat="64.15260315" lon="-20.31801224"><ele>92.3</ele><time>2012-07-20T16:13:29.0000000+00:00</time></trkpt><trkpt lat="64.15242004" lon="-20.31814957"><ele>91.9</ele><time>2012-07-20T16:13:34.0000000+00:00</time></trkpt><trkpt lat="64.15223694" lon="-20.31827927"><ele>91.0</ele><time>2012-07-20T16:13:39.0000000+00:00</time></trkpt><trkpt lat="64.15206146" lon="-20.31841087"><ele>90.5</ele><time>2012-07-20T16:13:44.0000000+00:00</time></trkpt><trkpt lat="64.15190125" lon="-20.31853676"><ele>89.6</ele><time>2012-07-20T16:13:49.0000000+00:00</time></trkpt><trkpt lat="64.15174103" lon="-20.31865883"><ele>89.3</ele><time>2012-07-20T16:13:54.0000000+00:00</time></trkpt><trkpt lat="64.15158081" lon="-20.31876564"><ele>89.7</ele><time>2012-07-20T16:13:59.0000000+00:00</time></trkpt><trkpt lat="64.15138245" lon="-20.31892204"><ele>89.0</ele><time>2012-07-20T16:14:04.0000000+00:00</time></trkpt><trkpt lat="64.15117645" lon="-20.319067"><ele>88.5</ele><time>2012-07-20T16:14:09.0000000+00:00</time></trkpt><trkpt lat="64.15098572" lon="-20.31920433"><ele>87.7</ele><time>2012-07-20T16:14:14.0000000+00:00</time></trkpt><trkpt lat="64.15078735" lon="-20.3193512"><ele>86.9</ele><time>2012-07-20T16:14:19.0000000+00:00</time></trkpt><trkpt lat="64.15059662" lon="-20.31949997"><ele>86.2</ele><time>2012-07-20T16:14:24.0000000+00:00</time></trkpt><trkpt lat="64.15039825" lon="-20.31964111"><ele>85.7</ele><time>2012-07-20T16:14:29.0000000+00:00</time></trkpt><trkpt lat="64.15020752" lon="-20.31978226"><ele>85.2</ele><time>2012-07-20T16:14:34.0000000+00:00</time></trkpt><trkpt lat="64.15001679" lon="-20.31991959"><ele>84.5</ele><time>2012-07-20T16:14:39.0000000+00:00</time></trkpt><trkpt lat="64.14982605" lon="-20.3200779"><ele>84.0</ele><time>2012-07-20T16:14:44.0000000+00:00</time></trkpt><trkpt lat="64.14962006" lon="-20.32021904"><ele>83.3</ele><time>2012-07-20T16:14:49.0000000+00:00</time></trkpt><trkpt lat="64.14940643" lon="-20.32037163"><ele>82.9</ele><time>2012-07-20T16:14:54.0000000+00:00</time></trkpt><trkpt lat="64.14920044" lon="-20.32052994"><ele>82.3</ele><time>2012-07-20T16:14:59.0000000+00:00</time></trkpt><trkpt lat="64.14900208" lon="-20.32068634"><ele>82.2</ele><time>2012-07-20T16:15:04.0000000+00:00</time></trkpt><trkpt lat="64.14881134" lon="-20.32081604"><ele>82.2</ele><time>2012-07-20T16:15:09.0000000+00:00</time></trkpt><trkpt lat="64.14861298" lon="-20.32097054"><ele>81.4</ele><time>2012-07-20T16:15:14.0000000+00:00</time></trkpt><trkpt lat="64.14841461" lon="-20.32110214"><ele>81.0</ele><time>2012-07-20T16:15:19.0000000+00:00</time></trkpt><trkpt lat="64.14820862" lon="-20.32125092"><ele>80.4</ele><time>2012-07-20T16:15:24.0000000+00:00</time></trkpt><trkpt lat="64.147995" lon="-20.32141304"><ele>79.7</ele><time>2012-07-20T16:15:29.0000000+00:00</time></trkpt><trkpt lat="64.14776611" lon="-20.32157135"><ele>78.4</ele><time>2012-07-20T16:15:34.0000000+00:00</time></trkpt><trkpt lat="64.14756012" lon="-20.32173538"><ele>77.9</ele><time>2012-07-20T16:15:39.0000000+00:00</time></trkpt><trkpt lat="64.14735413" lon="-20.32188797"><ele>77.6</ele><time>2012-07-20T16:15:44.0000000+00:00</time></trkpt><trkpt lat="64.14718628" lon="-20.3220253"><ele>77.5</ele><time>2012-07-20T16:15:49.0000000+00:00</time></trkpt><trkpt lat="64.14704132" lon="-20.32213593"><ele>77.3</ele><time>2012-07-20T16:15:54.0000000+00:00</time></trkpt><trkpt lat="64.14693451" lon="-20.32222557"><ele>76.9</ele><time>2012-07-20T16:15:59.0000000+00:00</time></trkpt><trkpt lat="64.14680481" lon="-20.32232857"><ele>76.7</ele><time>2012-07-20T16:16:04.0000000+00:00</time></trkpt><trkpt lat="64.14667511" lon="-20.32242394"><ele>76.7</ele><time>2012-07-20T16:16:09.0000000+00:00</time></trkpt><trkpt lat="64.14658356" lon="-20.32247925"><ele>77.2</ele><time>2012-07-20T16:16:14.0000000+00:00</time></trkpt><trkpt lat="64.14645386" lon="-20.32257843"><ele>77.0</ele><time>2012-07-20T16:16:19.0000000+00:00</time></trkpt><trkpt lat="64.14633179" lon="-20.32266235"><ele>77.2</ele><time>2012-07-20T16:16:24.0000000+00:00</time></trkpt><trkpt lat="64.1461792" lon="-20.32277298"><ele>77.2</ele><time>2012-07-20T16:16:29.0000000+00:00</time></trkpt><trkpt lat="64.1460495" lon="-20.32287216"><ele>77.2</ele><time>2012-07-20T16:16:34.0000000+00:00</time></trkpt><trkpt lat="64.14590454" lon="-20.32297325"><ele>76.9</ele><time>2012-07-20T16:16:39.0000000+00:00</time></trkpt><trkpt lat="64.14572907" lon="-20.32310104"><ele>76.6</ele><time>2012-07-20T16:16:44.0000000+00:00</time></trkpt><trkpt lat="64.14557648" lon="-20.32321739"><ele>76.2</ele><time>2012-07-20T16:16:49.0000000+00:00</time></trkpt><trkpt lat="64.14540863" lon="-20.32332802"><ele>75.9</ele><time>2012-07-20T16:16:54.0000000+00:00</time></trkpt><trkpt lat="64.1452713" lon="-20.32343292"><ele>76.1</ele><time>2012-07-20T16:16:59.0000000+00:00</time></trkpt><trkpt lat="64.14511108" lon="-20.32355881"><ele>76.3</ele><time>2012-07-20T16:17:04.0000000+00:00</time></trkpt><trkpt lat="64.14495087" lon="-20.32367516"><ele>76.4</ele><time>2012-07-20T16:17:09.0000000+00:00</time></trkpt><trkpt lat="64.14483643" lon="-20.32376289"><ele>76.5</ele><time>2012-07-20T16:17:14.0000000+00:00</time></trkpt><trkpt lat="64.14472199" lon="-20.32383919"><ele>76.5</ele><time>2012-07-20T16:17:19.0000000+00:00</time></trkpt><trkpt lat="64.14457703" lon="-20.32394028"><ele>75.8</ele><time>2012-07-20T16:17:24.0000000+00:00</time></trkpt><trkpt lat="64.1444397" lon="-20.32404709"><ele>76.0</ele><time>2012-07-20T16:17:29.0000000+00:00</time></trkpt><trkpt lat="64.14428711" lon="-20.32416916"><ele>76.0</ele><time>2012-07-20T16:17:34.0000000+00:00</time></trkpt><trkpt lat="64.14414215" lon="-20.32427216"><ele>76.2</ele><time>2012-07-20T16:17:39.0000000+00:00</time></trkpt><trkpt lat="64.14398193" lon="-20.3243885"><ele>76.6</ele><time>2012-07-20T16:17:44.0000000+00:00</time></trkpt><trkpt lat="64.14386749" lon="-20.32447815"><ele>76.7</ele><time>2012-07-20T16:17:49.0000000+00:00</time></trkpt><trkpt lat="64.14373016" lon="-20.32458115"><ele>76.8</ele><time>2012-07-20T16:17:54.0000000+00:00</time></trkpt><trkpt lat="64.14356995" lon="-20.32468987"><ele>77.2</ele><time>2012-07-20T16:17:59.0000000+00:00</time></trkpt><trkpt lat="64.14341736" lon="-20.32480621"><ele>77.1</ele><time>2012-07-20T16:18:04.0000000+00:00</time></trkpt><trkpt lat="64.14328003" lon="-20.3249073"><ele>77.3</ele><time>2012-07-20T16:18:09.0000000+00:00</time></trkpt><trkpt lat="64.14312744" lon="-20.32502174"><ele>77.2</ele><time>2012-07-20T16:18:14.0000000+00:00</time></trkpt><trkpt lat="64.1429596" lon="-20.32514"><ele>77.0</ele><time>2012-07-20T16:18:19.0000000+00:00</time></trkpt><trkpt lat="64.14279175" lon="-20.32526588"><ele>77.3</ele><time>2012-07-20T16:18:24.0000000+00:00</time></trkpt><trkpt lat="64.14260864" lon="-20.32540512"><ele>77.6</ele><time>2012-07-20T16:18:29.0000000+00:00</time></trkpt><trkpt lat="64.14242554" lon="-20.32555199"><ele>77.4</ele><time>2012-07-20T16:18:34.0000000+00:00</time></trkpt><trkpt lat="64.14225769" lon="-20.32568169"><ele>77.5</ele><time>2012-07-20T16:18:39.0000000+00:00</time></trkpt><trkpt lat="64.14205933" lon="-20.32581711"><ele>77.0</ele><time>2012-07-20T16:18:44.0000000+00:00</time></trkpt><trkpt lat="64.14186096" lon="-20.32596016"><ele>77.0</ele><time>2012-07-20T16:18:49.0000000+00:00</time></trkpt><trkpt lat="64.14165497" lon="-20.32611275"><ele>76.6</ele><time>2012-07-20T16:18:54.0000000+00:00</time></trkpt><trkpt lat="64.14149475" lon="-20.32625008"><ele>76.8</ele><time>2012-07-20T16:18:59.0000000+00:00</time></trkpt><trkpt lat="64.14134216" lon="-20.32634735"><ele>76.8</ele><time>2012-07-20T16:19:04.0000000+00:00</time></trkpt><trkpt lat="64.14122772" lon="-20.32645607"><ele>76.5</ele><time>2012-07-20T16:19:09.0000000+00:00</time></trkpt><trkpt lat="64.1411438" lon="-20.32650375"><ele>76.6</ele><time>2012-07-20T16:19:14.0000000+00:00</time></trkpt><trkpt lat="64.14103699" lon="-20.32658958"><ele>76.6</ele><time>2012-07-20T16:19:19.0000000+00:00</time></trkpt><trkpt lat="64.14094544" lon="-20.32665443"><ele>76.8</ele><time>2012-07-20T16:19:24.0000000+00:00</time></trkpt><trkpt lat="64.14086914" lon="-20.32668686"><ele>76.9</ele><time>2012-07-20T16:19:29.0000000+00:00</time></trkpt><trkpt lat="64.14077759" lon="-20.32672691"><ele>77.2</ele><time>2012-07-20T16:19:34.0000000+00:00</time></trkpt><trkpt lat="64.14070129" lon="-20.32677078"><ele>77.4</ele><time>2012-07-20T16:19:39.0000000+00:00</time></trkpt><trkpt lat="64.14059448" lon="-20.32677841"><ele>77.8</ele><time>2012-07-20T16:19:44.0000000+00:00</time></trkpt><trkpt lat="64.14052582" lon="-20.3267746"><ele>78.2</ele><time>2012-07-20T16:19:49.0000000+00:00</time></trkpt><trkpt lat="64.1404419" lon="-20.32679939"><ele>78.2</ele><time>2012-07-20T16:19:54.0000000+00:00</time></trkpt><trkpt lat="64.14034271" lon="-20.32680512"><ele>78.1</ele><time>2012-07-20T16:19:59.0000000+00:00</time></trkpt><trkpt lat="64.14019775" lon="-20.32681084"><ele>78.4</ele><time>2012-07-20T16:20:04.0000000+00:00</time></trkpt><trkpt lat="64.14004517" lon="-20.32682991"><ele>78.7</ele><time>2012-07-20T16:20:09.0000000+00:00</time></trkpt><trkpt lat="64.13990784" lon="-20.32686043"><ele>78.4</ele><time>2012-07-20T16:20:14.0000000+00:00</time></trkpt><trkpt lat="64.13978577" lon="-20.32691002"><ele>77.8</ele><time>2012-07-20T16:20:19.0000000+00:00</time></trkpt><trkpt lat="64.13964844" lon="-20.32702446"><ele>77.8</ele><time>2012-07-20T16:20:24.0000000+00:00</time></trkpt><trkpt lat="64.13955689" lon="-20.32713699"><ele>77.5</ele><time>2012-07-20T16:20:29.0000000+00:00</time></trkpt><trkpt lat="64.1394577" lon="-20.32730293"><ele>77.9</ele><time>2012-07-20T16:20:34.0000000+00:00</time></trkpt><trkpt lat="64.13938904" lon="-20.32750893"><ele>78.3</ele><time>2012-07-20T16:20:39.0000000+00:00</time></trkpt><trkpt lat="64.13935089" lon="-20.32761765"><ele>78.8</ele><time>2012-07-20T16:20:44.0000000+00:00</time></trkpt><trkpt lat="64.13938904" lon="-20.32768631"><ele>77.7</ele><time>2012-07-20T16:20:49.0000000+00:00</time></trkpt><trkpt lat="64.13939667" lon="-20.3276825"><ele>77.7</ele><time>2012-07-20T16:20:54.0000000+00:00</time></trkpt><trkpt lat="64.13939667" lon="-20.3276844"><ele>77.5</ele><time>2012-07-20T16:20:59.0000000+00:00</time></trkpt><trkpt lat="64.13938904" lon="-20.3276844"><ele>77.4</ele><time>2012-07-20T16:21:04.0000000+00:00</time></trkpt><trkpt lat="64.13938904" lon="-20.3276844"><ele>77.4</ele><time>2012-07-20T16:21:09.0000000+00:00</time></trkpt><trkpt lat="64.13938904" lon="-20.3276844"><ele>77.4</ele><time>2012-07-20T16:21:14.0000000+00:00</time></trkpt><trkpt lat="64.13939667" lon="-20.3276844"><ele>77.4</ele><time>2012-07-20T16:21:19.0000000+00:00</time></trkpt><trkpt lat="64.13939667" lon="-20.3276844"><ele>77.4</ele><time>2012-07-20T16:21:24.0000000+00:00</time></trkpt><trkpt lat="64.13939667" lon="-20.3276844"><ele>77.4</ele><time>2012-07-20T16:21:29.0000000+00:00</time></trkpt><trkpt lat="64.13938904" lon="-20.3276844"><ele>77.4</ele><time>2012-07-20T16:21:34.0000000+00:00</time></trkpt><trkpt lat="64.13938904" lon="-20.3276844"><ele>77.4</ele><time>2012-07-20T16:21:39.0000000+00:00</time></trkpt><trkpt lat="64.13938904" lon="-20.3276844"><ele>77.4</ele><time>2012-07-20T16:21:44.0000000+00:00</time></trkpt><trkpt lat="64.13938904" lon="-20.3276844"><ele>77.3</ele><time>2012-07-20T16:21:49.0000000+00:00</time></trkpt><trkpt lat="64.13938904" lon="-20.3276844"><ele>77.3</ele><time>2012-07-20T16:21:54.0000000+00:00</time></trkpt><trkpt lat="64.13938904" lon="-20.3276844"><ele>77.3</ele><time>2012-07-20T16:21:59.0000000+00:00</time></trkpt><trkpt lat="64.13938904" lon="-20.3276844"><ele>77.3</ele><time>2012-07-20T16:22:04.0000000+00:00</time></trkpt><trkpt lat="64.13938904" lon="-20.3276844"><ele>77.3</ele><time>2012-07-20T16:22:09.0000000+00:00</time></trkpt><trkpt lat="64.13938904" lon="-20.3276844"><ele>77.3</ele><time>2012-07-20T16:22:14.0000000+00:00</time></trkpt><trkpt lat="64.13938904" lon="-20.3276844"><ele>77.3</ele><time>2012-07-20T16:22:19.0000000+00:00</time></trkpt><trkpt lat="64.13938904" lon="-20.3276844"><ele>77.3</ele><time>2012-07-20T16:22:24.0000000+00:00</time></trkpt><trkpt lat="64.13938904" lon="-20.3276844"><ele>77.2</ele><time>2012-07-20T16:22:29.0000000+00:00</time></trkpt><trkpt lat="64.13938904" lon="-20.3276844"><ele>77.2</ele><time>2012-07-20T16:22:34.0000000+00:00</time></trkpt><trkpt lat="64.13938904" lon="-20.3276844"><ele>77.2</ele><time>2012-07-20T16:22:39.0000000+00:00</time></trkpt><trkpt lat="64.13938904" lon="-20.3276844"><ele>77.2</ele><time>2012-07-20T16:22:44.0000000+00:00</time></trkpt><trkpt lat="64.13938904" lon="-20.3276844"><ele>77.2</ele><time>2012-07-20T16:22:49.0000000+00:00</time></trkpt><trkpt lat="64.13938904" lon="-20.3276844"><ele>77.2</ele><time>2012-07-20T16:22:54.0000000+00:00</time></trkpt><trkpt lat="64.13938904" lon="-20.3276844"><ele>77.2</ele><time>2012-07-20T16:22:59.0000000+00:00</time></trkpt><trkpt lat="64.13938904" lon="-20.3276844"><ele>77.2</ele><time>2012-07-20T16:23:04.0000000+00:00</time></trkpt><trkpt lat="64.13938904" lon="-20.3276844"><ele>77.2</ele><time>2012-07-20T16:23:09.0000000+00:00</time></trkpt><trkpt lat="64.13938904" lon="-20.3276844"><ele>77.2</ele><time>2012-07-20T16:23:14.0000000+00:00</time></trkpt><trkpt lat="64.13938904" lon="-20.3276844"><ele>77.2</ele><time>2012-07-20T16:23:19.0000000+00:00</time></trkpt><trkpt lat="64.13938904" lon="-20.3276844"><ele>77.1</ele><time>2012-07-20T16:23:24.0000000+00:00</time></trkpt><trkpt lat="64.13938904" lon="-20.3276844"><ele>77.1</ele><time>2012-07-20T16:23:29.0000000+00:00</time></trkpt><trkpt lat="64.13938904" lon="-20.3276844"><ele>77.1</ele><time>2012-07-20T16:23:34.0000000+00:00</time></trkpt><trkpt lat="64.13938904" lon="-20.3276844"><ele>77.1</ele><time>2012-07-20T16:23:39.0000000+00:00</time></trkpt><trkpt lat="64.13938904" lon="-20.3276844"><ele>77.1</ele><time>2012-07-20T16:23:44.0000000+00:00</time></trkpt><trkpt lat="64.13938904" lon="-20.3276844"><ele>77.1</ele><time>2012-07-20T16:23:49.0000000+00:00</time></trkpt><trkpt lat="64.13938904" lon="-20.3276844"><ele>77.1</ele><time>2012-07-20T16:23:54.0000000+00:00</time></trkpt><trkpt lat="64.13938904" lon="-20.3276844"><ele>77.1</ele><time>2012-07-20T16:23:59.0000000+00:00</time></trkpt><trkpt lat="64.13938904" lon="-20.3276844"><ele>77.1</ele><time>2012-07-20T16:24:04.0000000+00:00</time></trkpt><trkpt lat="64.13938904" lon="-20.3276844"><ele>77.1</ele><time>2012-07-20T16:24:09.0000000+00:00</time></trkpt><trkpt lat="64.13938904" lon="-20.3276844"><ele>77.1</ele><time>2012-07-20T16:24:14.0000000+00:00</time></trkpt><trkpt lat="64.13938904" lon="-20.3276844"><ele>77.1</ele><time>2012-07-20T16:24:19.0000000+00:00</time></trkpt><trkpt lat="64.13938904" lon="-20.3276844"><ele>77.1</ele><time>2012-07-20T16:24:24.0000000+00:00</time></trkpt><trkpt lat="64.13938904" lon="-20.32772636"><ele>77.0</ele><time>2012-07-20T16:24:29.0000000+00:00</time></trkpt><trkpt lat="64.13938904" lon="-20.32773781"><ele>76.6</ele><time>2012-07-20T16:24:34.0000000+00:00</time></trkpt><trkpt lat="64.13937378" lon="-20.32777977"><ele>76.5</ele><time>2012-07-20T16:24:39.0000000+00:00</time></trkpt><trkpt lat="64.1392746" lon="-20.32775497"><ele>76.8</ele><time>2012-07-20T16:24:44.0000000+00:00</time></trkpt><trkpt lat="64.13918304" lon="-20.32766914"><ele>76.3</ele><time>2012-07-20T16:24:49.0000000+00:00</time></trkpt><trkpt lat="64.13904572" lon="-20.32746506"><ele>76.0</ele><time>2012-07-20T16:24:54.0000000+00:00</time></trkpt><trkpt lat="64.1388855" lon="-20.32724381"><ele>75.9</ele><time>2012-07-20T16:24:59.0000000+00:00</time></trkpt><trkpt lat="64.13870239" lon="-20.3270874"><ele>75.1</ele><time>2012-07-20T16:25:04.0000000+00:00</time></trkpt><trkpt lat="64.13859558" lon="-20.32698631"><ele>75.4</ele><time>2012-07-20T16:25:09.0000000+00:00</time></trkpt><trkpt lat="64.13847351" lon="-20.32688904"><ele>75.7</ele><time>2012-07-20T16:25:14.0000000+00:00</time></trkpt><trkpt lat="64.13838196" lon="-20.32680702"><ele>74.7</ele><time>2012-07-20T16:25:19.0000000+00:00</time></trkpt><trkpt lat="64.13826752" lon="-20.3267231"><ele>73.4</ele><time>2012-07-20T16:25:24.0000000+00:00</time></trkpt><trkpt lat="64.13815308" lon="-20.32659531"><ele>71.8</ele><time>2012-07-20T16:25:29.0000000+00:00</time></trkpt><trkpt lat="64.13804627" lon="-20.3264637"><ele>71.2</ele><time>2012-07-20T16:25:34.0000000+00:00</time></trkpt><trkpt lat="64.13794708" lon="-20.32636833"><ele>70.8</ele><time>2012-07-20T16:25:39.0000000+00:00</time></trkpt><trkpt lat="64.13786316" lon="-20.32623482"><ele>69.1</ele><time>2012-07-20T16:25:44.0000000+00:00</time></trkpt><trkpt lat="64.13774872" lon="-20.32608223"><ele>68.7</ele><time>2012-07-20T16:25:49.0000000+00:00</time></trkpt><trkpt lat="64.13762665" lon="-20.32592773"><ele>68.3</ele><time>2012-07-20T16:25:54.0000000+00:00</time></trkpt><trkpt lat="64.1375351" lon="-20.32578278"><ele>67.8</ele><time>2012-07-20T16:25:59.0000000+00:00</time></trkpt><trkpt lat="64.13744354" lon="-20.32564926"><ele>67.8</ele><time>2012-07-20T16:26:04.0000000+00:00</time></trkpt><trkpt lat="64.1373291" lon="-20.32552338"><ele>69.7</ele><time>2012-07-20T16:26:09.0000000+00:00</time></trkpt><trkpt lat="64.1371994" lon="-20.32540131"><ele>69.3</ele><time>2012-07-20T16:26:14.0000000+00:00</time></trkpt><trkpt lat="64.1370697" lon="-20.32528305"><ele>68.5</ele><time>2012-07-20T16:26:19.0000000+00:00</time></trkpt><trkpt lat="64.13694763" lon="-20.32518578"><ele>68.2</ele><time>2012-07-20T16:26:24.0000000+00:00</time></trkpt><trkpt lat="64.13679504" lon="-20.32509613"><ele>68.1</ele><time>2012-07-20T16:26:29.0000000+00:00</time></trkpt><trkpt lat="64.13664246" lon="-20.32503128"><ele>74.1</ele><time>2012-07-20T16:26:34.0000000+00:00</time></trkpt><trkpt lat="64.13648224" lon="-20.3249855"><ele>73.4</ele><time>2012-07-20T16:26:39.0000000+00:00</time></trkpt><trkpt lat="64.13634491" lon="-20.32494164"><ele>73.7</ele><time>2012-07-20T16:26:44.0000000+00:00</time></trkpt><trkpt lat="64.13619995" lon="-20.32494164"><ele>79.4</ele><time>2012-07-20T16:26:49.0000000+00:00</time></trkpt><trkpt lat="64.13607025" lon="-20.32495499"><ele>78.8</ele><time>2012-07-20T16:26:54.0000000+00:00</time></trkpt><trkpt lat="64.13593292" lon="-20.32497215"><ele>78.3</ele><time>2012-07-20T16:26:59.0000000+00:00</time></trkpt><trkpt lat="64.13576508" lon="-20.32503319"><ele>77.3</ele><time>2012-07-20T16:27:04.0000000+00:00</time></trkpt><trkpt lat="64.13560486" lon="-20.32510376"><ele>77.3</ele><time>2012-07-20T16:27:09.0000000+00:00</time></trkpt><trkpt lat="64.13542175" lon="-20.32514954"><ele>77.1</ele><time>2012-07-20T16:27:14.0000000+00:00</time></trkpt><trkpt lat="64.13522339" lon="-20.32513619"><ele>76.6</ele><time>2012-07-20T16:27:19.0000000+00:00</time></trkpt><trkpt lat="64.1350174" lon="-20.32511139"><ele>75.4</ele><time>2012-07-20T16:27:24.0000000+00:00</time></trkpt><trkpt lat="64.13480377" lon="-20.32504463"><ele>74.1</ele><time>2012-07-20T16:27:29.0000000+00:00</time></trkpt><trkpt lat="64.13460541" lon="-20.32496643"><ele>73.7</ele><time>2012-07-20T16:27:34.0000000+00:00</time></trkpt><trkpt lat="64.13438416" lon="-20.32484245"><ele>73.0</ele><time>2012-07-20T16:27:39.0000000+00:00</time></trkpt><trkpt lat="64.13414002" lon="-20.32465172"><ele>69.4</ele><time>2012-07-20T16:27:44.0000000+00:00</time></trkpt><trkpt lat="64.13386536" lon="-20.32440567"><ele>66.6</ele><time>2012-07-20T16:27:49.0000000+00:00</time></trkpt><trkpt lat="64.13356018" lon="-20.32412911"><ele>63.3</ele><time>2012-07-20T16:27:54.0000000+00:00</time></trkpt><trkpt lat="64.13325501" lon="-20.32382584"><ele>59.0</ele><time>2012-07-20T16:27:59.0000000+00:00</time></trkpt><trkpt lat="64.13297272" lon="-20.32354546"><ele>55.6</ele><time>2012-07-20T16:28:04.0000000+00:00</time></trkpt><trkpt lat="64.13274384" lon="-20.32333374"><ele>56.6</ele><time>2012-07-20T16:28:09.0000000+00:00</time></trkpt><trkpt lat="64.13254547" lon="-20.32315826"><ele>58.9</ele><time>2012-07-20T16:28:14.0000000+00:00</time></trkpt><trkpt lat="64.13239288" lon="-20.32301712"><ele>61.2</ele><time>2012-07-20T16:28:19.0000000+00:00</time></trkpt><trkpt lat="64.1322937" lon="-20.32290077"><ele>64.1</ele><time>2012-07-20T16:28:24.0000000+00:00</time></trkpt><trkpt lat="64.13219452" lon="-20.32283402"><ele>67.4</ele><time>2012-07-20T16:28:29.0000000+00:00</time></trkpt><trkpt lat="64.13211823" lon="-20.32274246"><ele>67.0</ele><time>2012-07-20T16:28:34.0000000+00:00</time></trkpt><trkpt lat="64.1320343" lon="-20.32266998"><ele>69.3</ele><time>2012-07-20T16:28:39.0000000+00:00</time></trkpt><trkpt lat="64.13194275" lon="-20.32259178"><ele>68.3</ele><time>2012-07-20T16:28:44.0000000+00:00</time></trkpt><trkpt lat="64.13184357" lon="-20.32249832"><ele>70.4</ele><time>2012-07-20T16:28:49.0000000+00:00</time></trkpt><trkpt lat="64.13175201" lon="-20.32242203"><ele>71.5</ele><time>2012-07-20T16:28:54.0000000+00:00</time></trkpt><trkpt lat="64.13166046" lon="-20.32235146"><ele>74.0</ele><time>2012-07-20T16:28:59.0000000+00:00</time></trkpt><trkpt lat="64.13158417" lon="-20.32228661"><ele>75.4</ele><time>2012-07-20T16:29:04.0000000+00:00</time></trkpt><trkpt lat="64.13150024" lon="-20.32221603"><ele>75.8</ele><time>2012-07-20T16:29:09.0000000+00:00</time></trkpt><trkpt lat="64.13140869" lon="-20.32213593"><ele>77.5</ele><time>2012-07-20T16:29:14.0000000+00:00</time></trkpt><trkpt lat="64.13132477" lon="-20.32203102"><ele>77.4</ele><time>2012-07-20T16:29:19.0000000+00:00</time></trkpt><trkpt lat="64.13123322" lon="-20.32193565"><ele>78.6</ele><time>2012-07-20T16:29:24.0000000+00:00</time></trkpt><trkpt lat="64.13114166" lon="-20.32184982"><ele>79.0</ele><time>2012-07-20T16:29:29.0000000+00:00</time></trkpt><trkpt lat="64.13102722" lon="-20.32175827"><ele>79.0</ele><time>2012-07-20T16:29:34.0000000+00:00</time></trkpt><trkpt lat="64.13095093" lon="-20.3216877"><ele>78.6</ele><time>2012-07-20T16:29:39.0000000+00:00</time></trkpt><trkpt lat="64.13093567" lon="-20.3215332"><ele>80.5</ele><time>2012-07-20T16:29:44.0000000+00:00</time></trkpt><trkpt lat="64.13095093" lon="-20.32143593"><ele>82.7</ele><time>2012-07-20T16:29:49.0000000+00:00</time></trkpt><trkpt lat="64.13095856" lon="-20.32144547"><ele>82.8</ele><time>2012-07-20T16:29:54.0000000+00:00</time></trkpt><trkpt lat="64.13095856" lon="-20.32144547"><ele>82.7</ele><time>2012-07-20T16:29:59.0000000+00:00</time></trkpt><trkpt lat="64.13095856" lon="-20.32144547"><ele>82.7</ele><time>2012-07-20T16:30:04.0000000+00:00</time></trkpt><trkpt lat="64.13095856" lon="-20.321455"><ele>83.2</ele><time>2012-07-20T16:30:09.0000000+00:00</time></trkpt><trkpt lat="64.13095856" lon="-20.321455"><ele>83.4</ele><time>2012-07-20T16:30:14.0000000+00:00</time></trkpt><trkpt lat="64.13095856" lon="-20.32144928"><ele>83.3</ele><time>2012-07-20T16:30:19.0000000+00:00</time></trkpt><trkpt lat="64.13095856" lon="-20.32141686"><ele>83.3</ele><time>2012-07-20T16:30:24.0000000+00:00</time></trkpt><trkpt lat="64.1309433" lon="-20.3213768"><ele>83.3</ele><time>2012-07-20T16:30:29.0000000+00:00</time></trkpt><trkpt lat="64.13093567" lon="-20.32136345"><ele>83.3</ele><time>2012-07-20T16:30:34.0000000+00:00</time></trkpt><trkpt lat="64.13092804" lon="-20.32135963"><ele>83.3</ele><time>2012-07-20T16:30:39.0000000+00:00</time></trkpt><trkpt lat="64.13092804" lon="-20.32136345"><ele>83.3</ele><time>2012-07-20T16:30:44.0000000+00:00</time></trkpt><trkpt lat="64.13092804" lon="-20.32135963"><ele>83.3</ele><time>2012-07-20T16:30:49.0000000+00:00</time></trkpt><trkpt lat="64.13092804" lon="-20.32135582"><ele>83.2</ele><time>2012-07-20T16:30:54.0000000+00:00</time></trkpt><trkpt lat="64.13092804" lon="-20.32135582"><ele>83.2</ele><time>2012-07-20T16:30:59.0000000+00:00</time></trkpt><trkpt lat="64.13092804" lon="-20.32135582"><ele>83.2</ele><time>2012-07-20T16:31:04.0000000+00:00</time></trkpt><trkpt lat="64.13092804" lon="-20.32135391"><ele>83.2</ele><time>2012-07-20T16:31:09.0000000+00:00</time></trkpt><trkpt lat="64.13092804" lon="-20.32135582"><ele>83.2</ele><time>2012-07-20T16:31:14.0000000+00:00</time></trkpt><trkpt lat="64.13092804" lon="-20.32135391"><ele>83.2</ele><time>2012-07-20T16:31:19.0000000+00:00</time></trkpt><trkpt lat="64.13092804" lon="-20.32135391"><ele>83.2</ele><time>2012-07-20T16:31:24.0000000+00:00</time></trkpt><trkpt lat="64.13092804" lon="-20.32135773"><ele>83.3</ele><time>2012-07-20T16:31:29.0000000+00:00</time></trkpt><trkpt lat="64.13092804" lon="-20.32135773"><ele>83.3</ele><time>2012-07-20T16:31:34.0000000+00:00</time></trkpt><trkpt lat="64.13092804" lon="-20.32135963"><ele>83.3</ele><time>2012-07-20T16:31:39.0000000+00:00</time></trkpt><trkpt lat="64.13092804" lon="-20.32135963"><ele>83.3</ele><time>2012-07-20T16:31:44.0000000+00:00</time></trkpt><trkpt lat="64.13092804" lon="-20.32135773"><ele>83.3</ele><time>2012-07-20T16:31:49.0000000+00:00</time></trkpt><trkpt lat="64.13092804" lon="-20.32135773"><ele>83.3</ele><time>2012-07-20T16:31:54.0000000+00:00</time></trkpt><trkpt lat="64.13092804" lon="-20.32135773"><ele>83.3</ele><time>2012-07-20T16:31:59.0000000+00:00</time></trkpt><trkpt lat="64.13092804" lon="-20.32135773"><ele>83.3</ele><time>2012-07-20T16:32:04.0000000+00:00</time></trkpt><trkpt lat="64.13092804" lon="-20.32135773"><ele>83.3</ele><time>2012-07-20T16:32:09.0000000+00:00</time></trkpt><trkpt lat="64.13092804" lon="-20.32135773"><ele>83.3</ele><time>2012-07-20T16:32:14.0000000+00:00</time></trkpt><trkpt lat="64.13092804" lon="-20.32135773"><ele>83.3</ele><time>2012-07-20T16:32:19.0000000+00:00</time></trkpt><trkpt lat="64.13092804" lon="-20.32135773"><ele>83.3</ele><time>2012-07-20T16:32:24.0000000+00:00</time></trkpt><trkpt lat="64.13092804" lon="-20.32135773"><ele>83.3</ele><time>2012-07-20T16:32:29.0000000+00:00</time></trkpt><trkpt lat="64.13092804" lon="-20.32135773"><ele>83.2</ele><time>2012-07-20T16:32:34.0000000+00:00</time></trkpt><trkpt lat="64.13092804" lon="-20.32135963"><ele>83.2</ele><time>2012-07-20T16:32:39.0000000+00:00</time></trkpt><trkpt lat="64.13092804" lon="-20.32135773"><ele>83.2</ele><time>2012-07-20T16:32:44.0000000+00:00</time></trkpt><trkpt lat="64.13092804" lon="-20.32135773"><ele>83.2</ele><time>2012-07-20T16:32:49.0000000+00:00</time></trkpt><trkpt lat="64.13092804" lon="-20.32135773"><ele>83.2</ele><time>2012-07-20T16:32:54.0000000+00:00</time></trkpt><trkpt lat="64.13092804" lon="-20.32135773"><ele>83.1</ele><time>2012-07-20T16:32:59.0000000+00:00</time></trkpt><trkpt lat="64.13092804" lon="-20.32135582"><ele>83.1</ele><time>2012-07-20T16:33:04.0000000+00:00</time></trkpt><trkpt lat="64.13092804" lon="-20.32135582"><ele>83.1</ele><time>2012-07-20T16:33:09.0000000+00:00</time></trkpt><trkpt lat="64.13092804" lon="-20.32135391"><ele>83.1</ele><time>2012-07-20T16:33:14.0000000+00:00</time></trkpt><trkpt lat="64.13092804" lon="-20.32135391"><ele>83.0</ele><time>2012-07-20T16:33:19.0000000+00:00</time></trkpt><trkpt lat="64.13092804" lon="-20.32135391"><ele>83.0</ele><time>2012-07-20T16:33:24.0000000+00:00</time></trkpt><trkpt lat="64.13092804" lon="-20.32135201"><ele>83.0</ele><time>2012-07-20T16:33:29.0000000+00:00</time></trkpt><trkpt lat="64.13092804" lon="-20.32135201"><ele>83.0</ele><time>2012-07-20T16:33:34.0000000+00:00</time></trkpt><trkpt lat="64.13092804" lon="-20.32135201"><ele>83.0</ele><time>2012-07-20T16:33:39.0000000+00:00</time></trkpt><trkpt lat="64.13092804" lon="-20.32135201"><ele>83.0</ele><time>2012-07-20T16:33:44.0000000+00:00</time></trkpt><trkpt lat="64.13092804" lon="-20.32135201"><ele>82.9</ele><time>2012-07-20T16:33:49.0000000+00:00</time></trkpt><trkpt lat="64.13092804" lon="-20.32135391"><ele>82.9</ele><time>2012-07-20T16:33:54.0000000+00:00</time></trkpt><trkpt lat="64.13092804" lon="-20.32135391"><ele>82.9</ele><time>2012-07-20T16:33:59.0000000+00:00</time></trkpt><trkpt lat="64.13092804" lon="-20.32135391"><ele>82.9</ele><time>2012-07-20T16:34:04.0000000+00:00</time></trkpt><trkpt lat="64.13092804" lon="-20.32135391"><ele>82.9</ele><time>2012-07-20T16:34:09.0000000+00:00</time></trkpt><trkpt lat="64.13092804" lon="-20.32135391"><ele>82.9</ele><time>2012-07-20T16:34:14.0000000+00:00</time></trkpt><trkpt lat="64.13092804" lon="-20.32135391"><ele>82.9</ele><time>2012-07-20T16:34:19.0000000+00:00</time></trkpt><trkpt lat="64.13092804" lon="-20.32135391"><ele>82.9</ele><time>2012-07-20T16:34:24.0000000+00:00</time></trkpt><trkpt lat="64.13092804" lon="-20.32135391"><ele>82.9</ele><time>2012-07-20T16:34:29.0000000+00:00</time></trkpt><trkpt lat="64.13092804" lon="-20.32135391"><ele>83.0</ele><time>2012-07-20T16:34:34.0000000+00:00</time></trkpt><trkpt lat="64.13092804" lon="-20.32135391"><ele>83.0</ele><time>2012-07-20T16:34:39.0000000+00:00</time></trkpt><trkpt lat="64.13092804" lon="-20.32135391"><ele>83.0</ele><time>2012-07-20T16:34:44.0000000+00:00</time></trkpt><trkpt lat="64.13092804" lon="-20.32135391"><ele>83.0</ele><time>2012-07-20T16:34:49.0000000+00:00</time></trkpt><trkpt lat="64.13092804" lon="-20.32135391"><ele>83.0</ele><time>2012-07-20T16:34:54.0000000+00:00</time></trkpt><trkpt lat="64.13092804" lon="-20.32135391"><ele>83.0</ele><time>2012-07-20T16:34:59.0000000+00:00</time></trkpt><trkpt lat="64.13092804" lon="-20.32135391"><ele>83.0</ele><time>2012-07-20T16:35:04.0000000+00:00</time></trkpt><trkpt lat="64.13092804" lon="-20.32135201"><ele>83.0</ele><time>2012-07-20T16:35:09.0000000+00:00</time></trkpt><trkpt lat="64.13092804" lon="-20.32135201"><ele>83.0</ele><time>2012-07-20T16:35:14.0000000+00:00</time></trkpt><trkpt lat="64.13092804" lon="-20.32135201"><ele>83.0</ele><time>2012-07-20T16:35:19.0000000+00:00</time></trkpt><trkpt lat="64.13092804" lon="-20.32135201"><ele>83.0</ele><time>2012-07-20T16:35:24.0000000+00:00</time></trkpt><trkpt lat="64.13092804" lon="-20.32135201"><ele>83.0</ele><time>2012-07-20T16:35:29.0000000+00:00</time></trkpt><trkpt lat="64.13092804" lon="-20.3213501"><ele>83.0</ele><time>2012-07-20T16:35:34.0000000+00:00</time></trkpt><trkpt lat="64.13092804" lon="-20.3213501"><ele>83.0</ele><time>2012-07-20T16:35:39.0000000+00:00</time></trkpt><trkpt lat="64.13092804" lon="-20.3213501"><ele>83.0</ele><time>2012-07-20T16:35:44.0000000+00:00</time></trkpt><trkpt lat="64.13092804" lon="-20.3213501"><ele>83.0</ele><time>2012-07-20T16:35:49.0000000+00:00</time></trkpt><trkpt lat="64.13092804" lon="-20.32134247"><ele>82.4</ele><time>2012-07-20T16:35:54.0000000+00:00</time></trkpt><trkpt lat="64.13092804" lon="-20.32134056"><ele>82.4</ele><time>2012-07-20T16:35:59.0000000+00:00</time></trkpt><trkpt lat="64.13092804" lon="-20.32134056"><ele>82.4</ele><time>2012-07-20T16:36:04.0000000+00:00</time></trkpt><trkpt lat="64.13092804" lon="-20.32131577"><ele>82.3</ele><time>2012-07-20T16:36:09.0000000+00:00</time></trkpt><trkpt lat="64.13092804" lon="-20.32131577"><ele>82.3</ele><time>2012-07-20T16:36:14.0000000+00:00</time></trkpt><trkpt lat="64.13092804" lon="-20.32131386"><ele>82.3</ele><time>2012-07-20T16:36:19.0000000+00:00</time></trkpt><trkpt lat="64.13092804" lon="-20.32131386"><ele>82.3</ele><time>2012-07-20T16:36:24.0000000+00:00</time></trkpt><trkpt lat="64.13092804" lon="-20.32131577"><ele>82.3</ele><time>2012-07-20T16:36:29.0000000+00:00</time></trkpt><trkpt lat="64.13092804" lon="-20.32131577"><ele>82.3</ele><time>2012-07-20T16:36:34.0000000+00:00</time></trkpt><trkpt lat="64.13092804" lon="-20.32131386"><ele>82.4</ele><time>2012-07-20T16:36:39.0000000+00:00</time></trkpt><trkpt lat="64.13092804" lon="-20.32131386"><ele>82.4</ele><time>2012-07-20T16:36:44.0000000+00:00</time></trkpt><trkpt lat="64.13092804" lon="-20.32131386"><ele>82.4</ele><time>2012-07-20T16:36:49.0000000+00:00</time></trkpt><trkpt lat="64.13092804" lon="-20.32131386"><ele>82.4</ele><time>2012-07-20T16:36:54.0000000+00:00</time></trkpt><trkpt lat="64.13092804" lon="-20.32131195"><ele>82.4</ele><time>2012-07-20T16:36:59.0000000+00:00</time></trkpt><trkpt lat="64.13092804" lon="-20.32131195"><ele>82.4</ele><time>2012-07-20T16:37:04.0000000+00:00</time></trkpt><trkpt lat="64.13092804" lon="-20.32131195"><ele>82.4</ele><time>2012-07-20T16:37:09.0000000+00:00</time></trkpt><trkpt lat="64.13092804" lon="-20.32131195"><ele>82.4</ele><time>2012-07-20T16:37:14.0000000+00:00</time></trkpt><trkpt lat="64.13092804" lon="-20.32131195"><ele>82.4</ele><time>2012-07-20T16:37:19.0000000+00:00</time></trkpt><trkpt lat="64.13092804" lon="-20.32131004"><ele>82.4</ele><time>2012-07-20T16:37:24.0000000+00:00</time></trkpt><trkpt lat="64.13092804" lon="-20.32131004"><ele>82.4</ele><time>2012-07-20T16:37:29.0000000+00:00</time></trkpt><trkpt lat="64.13092804" lon="-20.32131004"><ele>82.4</ele><time>2012-07-20T16:37:34.0000000+00:00</time></trkpt><trkpt lat="64.13092804" lon="-20.32131004"><ele>82.4</ele><time>2012-07-20T16:37:39.0000000+00:00</time></trkpt><trkpt lat="64.13092804" lon="-20.32131004"><ele>82.4</ele><time>2012-07-20T16:37:44.0000000+00:00</time></trkpt><trkpt lat="64.13092804" lon="-20.32131004"><ele>82.4</ele><time>2012-07-20T16:37:49.0000000+00:00</time></trkpt><trkpt lat="64.13092804" lon="-20.32131004"><ele>82.4</ele><time>2012-07-20T16:37:54.0000000+00:00</time></trkpt><trkpt lat="64.13092804" lon="-20.32131195"><ele>82.4</ele><time>2012-07-20T16:37:59.0000000+00:00</time></trkpt><trkpt lat="64.13092804" lon="-20.32131195"><ele>82.4</ele><time>2012-07-20T16:38:04.0000000+00:00</time></trkpt><trkpt lat="64.13092804" lon="-20.32131195"><ele>82.4</ele><time>2012-07-20T16:38:09.0000000+00:00</time></trkpt><trkpt lat="64.13092804" lon="-20.32131195"><ele>82.4</ele><time>2012-07-20T16:38:14.0000000+00:00</time></trkpt><trkpt lat="64.13092804" lon="-20.32131195"><ele>82.4</ele><time>2012-07-20T16:38:19.0000000+00:00</time></trkpt><trkpt lat="64.13092804" lon="-20.32131386"><ele>82.4</ele><time>2012-07-20T16:38:24.0000000+00:00</time></trkpt><trkpt lat="64.13092804" lon="-20.32131386"><ele>82.5</ele><time>2012-07-20T16:38:29.0000000+00:00</time></trkpt><trkpt lat="64.13092804" lon="-20.32131195"><ele>82.5</ele><time>2012-07-20T16:38:34.0000000+00:00</time></trkpt><trkpt lat="64.13092804" lon="-20.32131195"><ele>82.5</ele><time>2012-07-20T16:38:39.0000000+00:00</time></trkpt><trkpt lat="64.13092804" lon="-20.32131195"><ele>82.5</ele><time>2012-07-20T16:38:44.0000000+00:00</time></trkpt><trkpt lat="64.13092804" lon="-20.32131004"><ele>82.5</ele><time>2012-07-20T16:38:49.0000000+00:00</time></trkpt><trkpt lat="64.13092804" lon="-20.32131004"><ele>82.4</ele><time>2012-07-20T16:38:54.0000000+00:00</time></trkpt><trkpt lat="64.13092804" lon="-20.32130814"><ele>82.4</ele><time>2012-07-20T16:38:59.0000000+00:00</time></trkpt><trkpt lat="64.13092804" lon="-20.32130814"><ele>82.4</ele><time>2012-07-20T16:39:04.0000000+00:00</time></trkpt><trkpt lat="64.13092804" lon="-20.32130814"><ele>82.4</ele><time>2012-07-20T16:39:09.0000000+00:00</time></trkpt><trkpt lat="64.13092804" lon="-20.32130814"><ele>82.4</ele><time>2012-07-20T16:39:14.0000000+00:00</time></trkpt><trkpt lat="64.13092804" lon="-20.32130814"><ele>82.3</ele><time>2012-07-20T16:39:19.0000000+00:00</time></trkpt><trkpt lat="64.13092804" lon="-20.32130814"><ele>82.3</ele><time>2012-07-20T16:39:24.0000000+00:00</time></trkpt><trkpt lat="64.13092804" lon="-20.32130623"><ele>82.3</ele><time>2012-07-20T16:39:29.0000000+00:00</time></trkpt><trkpt lat="64.13092804" lon="-20.32130623"><ele>82.3</ele><time>2012-07-20T16:39:34.0000000+00:00</time></trkpt><trkpt lat="64.13092804" lon="-20.32130623"><ele>82.3</ele><time>2012-07-20T16:39:39.0000000+00:00</time></trkpt><trkpt lat="64.13092804" lon="-20.32130623"><ele>82.3</ele><time>2012-07-20T16:39:44.0000000+00:00</time></trkpt><trkpt lat="64.13092804" lon="-20.32130432"><ele>82.3</ele><time>2012-07-20T16:39:49.0000000+00:00</time></trkpt><trkpt lat="64.13092804" lon="-20.32130241"><ele>82.3</ele><time>2012-07-20T16:39:54.0000000+00:00</time></trkpt><trkpt lat="64.13092804" lon="-20.32130241"><ele>82.3</ele><time>2012-07-20T16:39:59.0000000+00:00</time></trkpt><trkpt lat="64.13092804" lon="-20.32130241"><ele>82.3</ele><time>2012-07-20T16:40:04.0000000+00:00</time></trkpt><trkpt lat="64.13092804" lon="-20.32130241"><ele>82.3</ele><time>2012-07-20T16:40:09.0000000+00:00</time></trkpt><trkpt lat="64.13092804" lon="-20.32130051"><ele>82.3</ele><time>2012-07-20T16:40:14.0000000+00:00</time></trkpt><trkpt lat="64.13092804" lon="-20.32130051"><ele>82.3</ele><time>2012-07-20T16:40:19.0000000+00:00</time></trkpt><trkpt lat="64.13092804" lon="-20.32130051"><ele>82.3</ele><time>2012-07-20T16:40:24.0000000+00:00</time></trkpt><trkpt lat="64.13092804" lon="-20.32130051"><ele>82.3</ele><time>2012-07-20T16:40:29.0000000+00:00</time></trkpt><trkpt lat="64.13092804" lon="-20.32130051"><ele>82.3</ele><time>2012-07-20T16:40:34.0000000+00:00</time></trkpt><trkpt lat="64.13092804" lon="-20.32130051"><ele>82.3</ele><time>2012-07-20T16:40:39.0000000+00:00</time></trkpt><trkpt lat="64.13092041" lon="-20.32130051"><ele>82.3</ele><time>2012-07-20T16:40:44.0000000+00:00</time></trkpt><trkpt lat="64.13092041" lon="-20.32130051"><ele>82.3</ele><time>2012-07-20T16:40:49.0000000+00:00</time></trkpt><trkpt lat="64.13092041" lon="-20.3212986"><ele>82.4</ele><time>2012-07-20T16:40:54.0000000+00:00</time></trkpt><trkpt lat="64.13092041" lon="-20.3212986"><ele>82.4</ele><time>2012-07-20T16:40:59.0000000+00:00</time></trkpt><trkpt lat="64.13092041" lon="-20.3212986"><ele>82.4</ele><time>2012-07-20T16:41:04.0000000+00:00</time></trkpt><trkpt lat="64.13092041" lon="-20.3212986"><ele>82.3</ele><time>2012-07-20T16:41:09.0000000+00:00</time></trkpt><trkpt lat="64.13092041" lon="-20.3212986"><ele>82.3</ele><time>2012-07-20T16:41:14.0000000+00:00</time></trkpt><trkpt lat="64.13092041" lon="-20.32129669"><ele>82.3</ele><time>2012-07-20T16:41:19.0000000+00:00</time></trkpt><trkpt lat="64.13092041" lon="-20.3212986"><ele>82.3</ele><time>2012-07-20T16:41:24.0000000+00:00</time></trkpt><trkpt lat="64.13092041" lon="-20.3212986"><ele>82.3</ele><time>2012-07-20T16:41:29.0000000+00:00</time></trkpt><trkpt lat="64.13092041" lon="-20.3212986"><ele>82.3</ele><time>2012-07-20T16:41:34.0000000+00:00</time></trkpt><trkpt lat="64.13092041" lon="-20.3212986"><ele>82.2</ele><time>2012-07-20T16:41:39.0000000+00:00</time></trkpt><trkpt lat="64.13092041" lon="-20.3212986"><ele>82.2</ele><time>2012-07-20T16:41:44.0000000+00:00</time></trkpt><trkpt lat="64.13092041" lon="-20.3212986"><ele>82.3</ele><time>2012-07-20T16:41:49.0000000+00:00</time></trkpt><trkpt lat="64.13092041" lon="-20.3212986"><ele>82.3</ele><time>2012-07-20T16:41:54.0000000+00:00</time></trkpt><trkpt lat="64.13092041" lon="-20.32129669"><ele>82.3</ele><time>2012-07-20T16:41:59.0000000+00:00</time></trkpt><trkpt lat="64.13092041" lon="-20.32129669"><ele>82.3</ele><time>2012-07-20T16:42:04.0000000+00:00</time></trkpt><trkpt lat="64.13092041" lon="-20.32129669"><ele>82.3</ele><time>2012-07-20T16:42:09.0000000+00:00</time></trkpt><trkpt lat="64.13092041" lon="-20.32129669"><ele>82.3</ele><time>2012-07-20T16:42:14.0000000+00:00</time></trkpt><trkpt lat="64.13092041" lon="-20.32129669"><ele>82.2</ele><time>2012-07-20T16:42:19.0000000+00:00</time></trkpt><trkpt lat="64.13092041" lon="-20.32129669"><ele>82.2</ele><time>2012-07-20T16:42:24.0000000+00:00</time></trkpt><trkpt lat="64.13092041" lon="-20.32129669"><ele>82.2</ele><time>2012-07-20T16:42:29.0000000+00:00</time></trkpt><trkpt lat="64.13092041" lon="-20.32129669"><ele>82.2</ele><time>2012-07-20T16:42:34.0000000+00:00</time></trkpt><trkpt lat="64.13092041" lon="-20.32129669"><ele>82.2</ele><time>2012-07-20T16:42:39.0000000+00:00</time></trkpt><trkpt lat="64.13092041" lon="-20.3212986"><ele>82.2</ele><time>2012-07-20T16:42:44.0000000+00:00</time></trkpt><trkpt lat="64.13092041" lon="-20.3212986"><ele>82.2</ele><time>2012-07-20T16:42:49.0000000+00:00</time></trkpt><trkpt lat="64.13092041" lon="-20.3212986"><ele>82.1</ele><time>2012-07-20T16:42:54.0000000+00:00</time></trkpt><trkpt lat="64.13092041" lon="-20.3212986"><ele>82.1</ele><time>2012-07-20T16:42:59.0000000+00:00</time></trkpt><trkpt lat="64.13092041" lon="-20.3212986"><ele>82.1</ele><time>2012-07-20T16:43:04.0000000+00:00</time></trkpt><trkpt lat="64.13092041" lon="-20.32129669"><ele>82.2</ele><time>2012-07-20T16:43:09.0000000+00:00</time></trkpt><trkpt lat="64.13092041" lon="-20.32129669"><ele>82.2</ele><time>2012-07-20T16:43:14.0000000+00:00</time></trkpt><trkpt lat="64.13092041" lon="-20.32129479"><ele>82.1</ele><time>2012-07-20T16:43:19.0000000+00:00</time></trkpt><trkpt lat="64.13092041" lon="-20.32129479"><ele>82.1</ele><time>2012-07-20T16:43:24.0000000+00:00</time></trkpt><trkpt lat="64.13092041" lon="-20.32129479"><ele>82.1</ele><time>2012-07-20T16:43:29.0000000+00:00</time></trkpt><trkpt lat="64.13092041" lon="-20.32129479"><ele>82.1</ele><time>2012-07-20T16:43:34.0000000+00:00</time></trkpt><trkpt lat="64.13092041" lon="-20.32129479"><ele>82.1</ele><time>2012-07-20T16:43:39.0000000+00:00</time></trkpt><trkpt lat="64.13092041" lon="-20.32129288"><ele>82.1</ele><time>2012-07-20T16:43:44.0000000+00:00</time></trkpt><trkpt lat="64.13092041" lon="-20.32129097"><ele>82.1</ele><time>2012-07-20T16:43:49.0000000+00:00</time></trkpt><trkpt lat="64.13092041" lon="-20.32129097"><ele>82.1</ele><time>2012-07-20T16:43:54.0000000+00:00</time></trkpt><trkpt lat="64.13092041" lon="-20.32128906"><ele>82.1</ele><time>2012-07-20T16:43:59.0000000+00:00</time></trkpt><trkpt lat="64.13092041" lon="-20.32128906"><ele>82.1</ele><time>2012-07-20T16:44:04.0000000+00:00</time></trkpt><trkpt lat="64.13092041" lon="-20.32129097"><ele>82.0</ele><time>2012-07-20T16:44:09.0000000+00:00</time></trkpt><trkpt lat="64.13092041" lon="-20.32129097"><ele>82.0</ele><time>2012-07-20T16:44:14.0000000+00:00</time></trkpt><trkpt lat="64.13092041" lon="-20.32129288"><ele>82.0</ele><time>2012-07-20T16:44:19.0000000+00:00</time></trkpt><trkpt lat="64.13092041" lon="-20.32129288"><ele>82.0</ele><time>2012-07-20T16:44:24.0000000+00:00</time></trkpt><trkpt lat="64.13092041" lon="-20.32129288"><ele>82.0</ele><time>2012-07-20T16:44:29.0000000+00:00</time></trkpt><trkpt lat="64.13092041" lon="-20.32129288"><ele>82.0</ele><time>2012-07-20T16:44:34.0000000+00:00</time></trkpt><trkpt lat="64.13092041" lon="-20.32129479"><ele>82.0</ele><time>2012-07-20T16:44:39.0000000+00:00</time></trkpt><trkpt lat="64.13092041" lon="-20.32129479"><ele>82.0</ele><time>2012-07-20T16:44:44.0000000+00:00</time></trkpt><trkpt lat="64.13092041" lon="-20.32129479"><ele>81.9</ele><time>2012-07-20T16:44:49.0000000+00:00</time></trkpt><trkpt lat="64.13092041" lon="-20.32129669"><ele>81.9</ele><time>2012-07-20T16:44:54.0000000+00:00</time></trkpt><trkpt lat="64.13092041" lon="-20.32129479"><ele>81.9</ele><time>2012-07-20T16:44:59.0000000+00:00</time></trkpt><trkpt lat="64.13092041" lon="-20.32129669"><ele>81.8</ele><time>2012-07-20T16:45:04.0000000+00:00</time></trkpt><trkpt lat="64.13092041" lon="-20.32129669"><ele>81.8</ele><time>2012-07-20T16:45:09.0000000+00:00</time></trkpt><trkpt lat="64.13092041" lon="-20.32129669"><ele>81.8</ele><time>2012-07-20T16:45:14.0000000+00:00</time></trkpt><trkpt lat="64.13092041" lon="-20.32129669"><ele>81.8</ele><time>2012-07-20T16:45:19.0000000+00:00</time></trkpt><trkpt lat="64.13092041" lon="-20.32129669"><ele>81.7</ele><time>2012-07-20T16:45:24.0000000+00:00</time></trkpt><trkpt lat="64.13092041" lon="-20.32129669"><ele>81.7</ele><time>2012-07-20T16:45:29.0000000+00:00</time></trkpt><trkpt lat="64.13092041" lon="-20.32129669"><ele>81.7</ele><time>2012-07-20T16:45:34.0000000+00:00</time></trkpt><trkpt lat="64.13092041" lon="-20.32129669"><ele>81.7</ele><time>2012-07-20T16:45:39.0000000+00:00</time></trkpt><trkpt lat="64.13092041" lon="-20.32129669"><ele>81.7</ele><time>2012-07-20T16:45:44.0000000+00:00</time></trkpt><trkpt lat="64.13092041" lon="-20.32129669"><ele>81.7</ele><time>2012-07-20T16:45:49.0000000+00:00</time></trkpt><trkpt lat="64.13092041" lon="-20.32129669"><ele>81.6</ele><time>2012-07-20T16:45:54.0000000+00:00</time></trkpt><trkpt lat="64.13092041" lon="-20.32129669"><ele>81.6</ele><time>2012-07-20T16:45:59.0000000+00:00</time></trkpt><trkpt lat="64.13092041" lon="-20.32129669"><ele>81.6</ele><time>2012-07-20T16:46:04.0000000+00:00</time></trkpt><trkpt lat="64.13092041" lon="-20.32129669"><ele>81.6</ele><time>2012-07-20T16:46:09.0000000+00:00</time></trkpt><trkpt lat="64.13092041" lon="-20.32129669"><ele>81.6</ele><time>2012-07-20T16:46:14.0000000+00:00</time></trkpt><trkpt lat="64.13092041" lon="-20.32129669"><ele>81.6</ele><time>2012-07-20T16:46:19.0000000+00:00</time></trkpt><trkpt lat="64.13092041" lon="-20.32129669"><ele>81.5</ele><time>2012-07-20T16:46:24.0000000+00:00</time></trkpt><trkpt lat="64.13092041" lon="-20.32129479"><ele>81.5</ele><time>2012-07-20T16:46:29.0000000+00:00</time></trkpt><trkpt lat="64.13092041" lon="-20.32129479"><ele>81.5</ele><time>2012-07-20T16:46:34.0000000+00:00</time></trkpt><trkpt lat="64.13092041" lon="-20.32129479"><ele>81.5</ele><time>2012-07-20T16:46:39.0000000+00:00</time></trkpt><trkpt lat="64.13092041" lon="-20.32129479"><ele>81.5</ele><time>2012-07-20T16:46:44.0000000+00:00</time></trkpt><trkpt lat="64.13092041" lon="-20.32129479"><ele>81.5</ele><time>2012-07-20T16:46:49.0000000+00:00</time></trkpt><trkpt lat="64.13092041" lon="-20.32129479"><ele>81.5</ele><time>2012-07-20T16:46:54.0000000+00:00</time></trkpt><trkpt lat="64.13092041" lon="-20.32129479"><ele>81.5</ele><time>2012-07-20T16:46:59.0000000+00:00</time></trkpt><trkpt lat="64.13092041" lon="-20.32129479"><ele>81.5</ele><time>2012-07-20T16:47:04.0000000+00:00</time></trkpt><trkpt lat="64.13092041" lon="-20.32129479"><ele>81.4</ele><time>2012-07-20T16:47:09.0000000+00:00</time></trkpt><trkpt lat="64.13092041" lon="-20.32129479"><ele>81.4</ele><time>2012-07-20T16:47:14.0000000+00:00</time></trkpt><trkpt lat="64.13092041" lon="-20.32129479"><ele>81.4</ele><time>2012-07-20T16:47:19.0000000+00:00</time></trkpt><trkpt lat="64.13092041" lon="-20.32129479"><ele>81.4</ele><time>2012-07-20T16:47:24.0000000+00:00</time></trkpt><trkpt lat="64.13092041" lon="-20.32129479"><ele>81.4</ele><time>2012-07-20T16:47:29.0000000+00:00</time></trkpt><trkpt lat="64.13092041" lon="-20.32129479"><ele>81.3</ele><time>2012-07-20T16:47:34.0000000+00:00</time></trkpt><trkpt lat="64.13092041" lon="-20.32129479"><ele>81.3</ele><time>2012-07-20T16:47:39.0000000+00:00</time></trkpt><trkpt lat="64.13092041" lon="-20.32129479"><ele>81.3</ele><time>2012-07-20T16:47:44.0000000+00:00</time></trkpt><trkpt lat="64.13092041" lon="-20.32129479"><ele>81.3</ele><time>2012-07-20T16:47:49.0000000+00:00</time></trkpt><trkpt lat="64.13092041" lon="-20.32129479"><ele>81.3</ele><time>2012-07-20T16:47:54.0000000+00:00</time></trkpt><trkpt lat="64.13092041" lon="-20.32129288"><ele>81.3</ele><time>2012-07-20T16:47:59.0000000+00:00</time></trkpt><trkpt lat="64.13092041" lon="-20.32129288"><ele>81.2</ele><time>2012-07-20T16:48:04.0000000+00:00</time></trkpt><trkpt lat="64.13092041" lon="-20.32129288"><ele>81.2</ele><time>2012-07-20T16:48:09.0000000+00:00</time></trkpt><trkpt lat="64.13092041" lon="-20.32129288"><ele>81.2</ele><time>2012-07-20T16:48:14.0000000+00:00</time></trkpt><trkpt lat="64.13092041" lon="-20.32129288"><ele>81.2</ele><time>2012-07-20T16:48:19.0000000+00:00</time></trkpt><trkpt lat="64.13092041" lon="-20.32129288"><ele>81.2</ele><time>2012-07-20T16:48:24.0000000+00:00</time></trkpt><trkpt lat="64.13092041" lon="-20.32129288"><ele>81.2</ele><time>2012-07-20T16:48:29.0000000+00:00</time></trkpt><trkpt lat="64.13092041" lon="-20.32129288"><ele>81.2</ele><time>2012-07-20T16:48:34.0000000+00:00</time></trkpt><trkpt lat="64.13092041" lon="-20.32129288"><ele>81.2</ele><time>2012-07-20T16:48:39.0000000+00:00</time></trkpt><trkpt lat="64.13092041" lon="-20.32129288"><ele>81.2</ele><time>2012-07-20T16:48:44.0000000+00:00</time></trkpt><trkpt lat="64.13092041" lon="-20.32129288"><ele>81.2</ele><time>2012-07-20T16:48:49.0000000+00:00</time></trkpt><trkpt lat="64.13092041" lon="-20.32129288"><ele>81.2</ele><time>2012-07-20T16:48:54.0000000+00:00</time></trkpt><trkpt lat="64.13092041" lon="-20.32129288"><ele>81.2</ele><time>2012-07-20T16:48:59.0000000+00:00</time></trkpt><trkpt lat="64.13092041" lon="-20.32129288"><ele>81.2</ele><time>2012-07-20T16:49:04.0000000+00:00</time></trkpt><trkpt lat="64.13092041" lon="-20.32129288"><ele>81.2</ele><time>2012-07-20T16:49:09.0000000+00:00</time></trkpt><trkpt lat="64.13092041" lon="-20.32129288"><ele>81.2</ele><time>2012-07-20T16:49:14.0000000+00:00</time></trkpt><trkpt lat="64.13092041" lon="-20.32129288"><ele>81.2</ele><time>2012-07-20T16:49:19.0000000+00:00</time></trkpt><trkpt lat="64.13092041" lon="-20.32129288"><ele>81.1</ele><time>2012-07-20T16:49:24.0000000+00:00</time></trkpt><trkpt lat="64.13092041" lon="-20.32129288"><ele>81.1</ele><time>2012-07-20T16:49:29.0000000+00:00</time></trkpt><trkpt lat="64.13092041" lon="-20.32129288"><ele>81.1</ele><time>2012-07-20T16:49:34.0000000+00:00</time></trkpt><trkpt lat="64.13092041" lon="-20.32129288"><ele>81.1</ele><time>2012-07-20T16:49:39.0000000+00:00</time></trkpt><trkpt lat="64.13092041" lon="-20.32129288"><ele>81.1</ele><time>2012-07-20T16:49:44.0000000+00:00</time></trkpt><trkpt lat="64.13092041" lon="-20.32129288"><ele>81.1</ele><time>2012-07-20T16:49:49.0000000+00:00</time></trkpt><trkpt lat="64.13092041" lon="-20.32129479"><ele>81.1</ele><time>2012-07-20T16:49:54.0000000+00:00</time></trkpt><trkpt lat="64.13092041" lon="-20.32129479"><ele>81.1</ele><time>2012-07-20T16:49:59.0000000+00:00</time></trkpt><trkpt lat="64.13092041" lon="-20.32129479"><ele>81.1</ele><time>2012-07-20T16:50:04.0000000+00:00</time></trkpt><trkpt lat="64.13092041" lon="-20.32129479"><ele>81.1</ele><time>2012-07-20T16:50:09.0000000+00:00</time></trkpt><trkpt lat="64.13092041" lon="-20.32129479"><ele>81.1</ele><time>2012-07-20T16:50:14.0000000+00:00</time></trkpt><trkpt lat="64.13092041" lon="-20.32129479"><ele>81.1</ele><time>2012-07-20T16:50:19.0000000+00:00</time></trkpt><trkpt lat="64.13092041" lon="-20.32129479"><ele>81.1</ele><time>2012-07-20T16:50:24.0000000+00:00</time></trkpt><trkpt lat="64.13092041" lon="-20.32129479"><ele>81.1</ele><time>2012-07-20T16:50:29.0000000+00:00</time></trkpt><trkpt lat="64.13092041" lon="-20.32129669"><ele>81.1</ele><time>2012-07-20T16:50:34.0000000+00:00</time></trkpt><trkpt lat="64.13092041" lon="-20.32129669"><ele>81.1</ele><time>2012-07-20T16:50:39.0000000+00:00</time></trkpt><trkpt lat="64.13092041" lon="-20.32129669"><ele>81.1</ele><time>2012-07-20T16:50:44.0000000+00:00</time></trkpt><trkpt lat="64.13092041" lon="-20.32129669"><ele>81.1</ele><time>2012-07-20T16:50:49.0000000+00:00</time></trkpt><trkpt lat="64.13092041" lon="-20.32129669"><ele>81.1</ele><time>2012-07-20T16:50:54.0000000+00:00</time></trkpt><trkpt lat="64.13092041" lon="-20.32129669"><ele>81.1</ele><time>2012-07-20T16:50:59.0000000+00:00</time></trkpt><trkpt lat="64.13092041" lon="-20.32129669"><ele>81.1</ele><time>2012-07-20T16:51:04.0000000+00:00</time></trkpt><trkpt lat="64.13092041" lon="-20.3212986"><ele>81.1</ele><time>2012-07-20T16:51:09.0000000+00:00</time></trkpt><trkpt lat="64.13092041" lon="-20.3212986"><ele>81.1</ele><time>2012-07-20T16:51:14.0000000+00:00</time></trkpt><trkpt lat="64.13092041" lon="-20.3212986"><ele>81.1</ele><time>2012-07-20T16:51:19.0000000+00:00</time></trkpt><trkpt lat="64.13092041" lon="-20.3212986"><ele>81.1</ele><time>2012-07-20T16:51:24.0000000+00:00</time></trkpt><trkpt lat="64.13092041" lon="-20.32130051"><ele>81.1</ele><time>2012-07-20T16:51:29.0000000+00:00</time></trkpt><trkpt lat="64.13092041" lon="-20.32130051"><ele>81.1</ele><time>2012-07-20T16:51:34.0000000+00:00</time></trkpt><trkpt lat="64.13092041" lon="-20.32130051"><ele>81.0</ele><time>2012-07-20T16:51:39.0000000+00:00</time></trkpt><trkpt lat="64.13092041" lon="-20.32130051"><ele>81.0</ele><time>2012-07-20T16:51:44.0000000+00:00</time></trkpt><trkpt lat="64.13092041" lon="-20.32130051"><ele>81.0</ele><time>2012-07-20T16:51:49.0000000+00:00</time></trkpt><trkpt lat="64.13092041" lon="-20.32130051"><ele>81.0</ele><time>2012-07-20T16:51:54.0000000+00:00</time></trkpt><trkpt lat="64.13092041" lon="-20.32130051"><ele>81.0</ele><time>2012-07-20T16:51:59.0000000+00:00</time></trkpt><trkpt lat="64.13092041" lon="-20.32130241"><ele>81.0</ele><time>2012-07-20T16:52:04.0000000+00:00</time></trkpt><trkpt lat="64.13092041" lon="-20.32130241"><ele>81.0</ele><time>2012-07-20T16:52:09.0000000+00:00</time></trkpt><trkpt lat="64.13092041" lon="-20.32130241"><ele>81.0</ele><time>2012-07-20T16:52:14.0000000+00:00</time></trkpt><trkpt lat="64.13092041" lon="-20.32130241"><ele>81.0</ele><time>2012-07-20T16:52:19.0000000+00:00</time></trkpt><trkpt lat="64.13092041" lon="-20.32130432"><ele>81.0</ele><time>2012-07-20T16:52:24.0000000+00:00</time></trkpt><trkpt lat="64.13092041" lon="-20.32130432"><ele>81.0</ele><time>2012-07-20T16:52:29.0000000+00:00</time></trkpt><trkpt lat="64.13092041" lon="-20.32130432"><ele>81.0</ele><time>2012-07-20T16:52:34.0000000+00:00</time></trkpt><trkpt lat="64.13092041" lon="-20.32130432"><ele>81.0</ele><time>2012-07-20T16:52:39.0000000+00:00</time></trkpt><trkpt lat="64.13092041" lon="-20.32130623"><ele>81.0</ele><time>2012-07-20T16:52:44.0000000+00:00</time></trkpt><trkpt lat="64.13092041" lon="-20.32130623"><ele>81.0</ele><time>2012-07-20T16:52:49.0000000+00:00</time></trkpt><trkpt lat="64.13092041" lon="-20.32130432"><ele>80.9</ele><time>2012-07-20T16:52:54.0000000+00:00</time></trkpt><trkpt lat="64.13092041" lon="-20.32130432"><ele>80.9</ele><time>2012-07-20T16:52:59.0000000+00:00</time></trkpt><trkpt lat="64.13092041" lon="-20.32130432"><ele>80.9</ele><time>2012-07-20T16:53:04.0000000+00:00</time></trkpt><trkpt lat="64.13092041" lon="-20.32130432"><ele>80.9</ele><time>2012-07-20T16:53:09.0000000+00:00</time></trkpt><trkpt lat="64.13092041" lon="-20.32130432"><ele>80.9</ele><time>2012-07-20T16:53:14.0000000+00:00</time></trkpt><trkpt lat="64.13092041" lon="-20.32130432"><ele>80.9</ele><time>2012-07-20T16:53:19.0000000+00:00</time></trkpt><trkpt lat="64.13092041" lon="-20.32130432"><ele>80.9</ele><time>2012-07-20T16:53:24.0000000+00:00</time></trkpt><trkpt lat="64.13092041" lon="-20.32130432"><ele>80.9</ele><time>2012-07-20T16:53:29.0000000+00:00</time></trkpt><trkpt lat="64.13092041" lon="-20.32130432"><ele>80.9</ele><time>2012-07-20T16:53:34.0000000+00:00</time></trkpt><trkpt lat="64.13092041" lon="-20.32130432"><ele>80.9</ele><time>2012-07-20T16:53:39.0000000+00:00</time></trkpt><trkpt lat="64.13092041" lon="-20.32130623"><ele>80.9</ele><time>2012-07-20T16:53:44.0000000+00:00</time></trkpt><trkpt lat="64.13092041" lon="-20.32130623"><ele>80.8</ele><time>2012-07-20T16:53:49.0000000+00:00</time></trkpt><trkpt lat="64.13092041" lon="-20.32130623"><ele>80.8</ele><time>2012-07-20T16:53:54.0000000+00:00</time></trkpt><trkpt lat="64.13092041" lon="-20.32130623"><ele>80.8</ele><time>2012-07-20T16:53:59.0000000+00:00</time></trkpt><trkpt lat="64.13092041" lon="-20.32130623"><ele>80.8</ele><time>2012-07-20T16:54:04.0000000+00:00</time></trkpt><trkpt lat="64.13092041" lon="-20.32130814"><ele>80.8</ele><time>2012-07-20T16:54:09.0000000+00:00</time></trkpt><trkpt lat="64.13092041" lon="-20.32130814"><ele>80.8</ele><time>2012-07-20T16:54:14.0000000+00:00</time></trkpt><trkpt lat="64.13092041" lon="-20.32130814"><ele>80.8</ele><time>2012-07-20T16:54:19.0000000+00:00</time></trkpt><trkpt lat="64.13092041" lon="-20.32130814"><ele>80.8</ele><time>2012-07-20T16:54:24.0000000+00:00</time></trkpt><trkpt lat="64.13092041" lon="-20.32130814"><ele>80.8</ele><time>2012-07-20T16:54:29.0000000+00:00</time></trkpt><trkpt lat="64.13092041" lon="-20.32130814"><ele>80.8</ele><time>2012-07-20T16:54:34.0000000+00:00</time></trkpt><trkpt lat="64.13092041" lon="-20.32130814"><ele>80.8</ele><time>2012-07-20T16:54:39.0000000+00:00</time></trkpt><trkpt lat="64.13092041" lon="-20.32130814"><ele>80.8</ele><time>2012-07-20T16:54:44.0000000+00:00</time></trkpt><trkpt lat="64.13092041" lon="-20.32130814"><ele>80.8</ele><time>2012-07-20T16:54:49.0000000+00:00</time></trkpt><trkpt lat="64.13092041" lon="-20.32130814"><ele>80.8</ele><time>2012-07-20T16:54:54.0000000+00:00</time></trkpt><trkpt lat="64.13092041" lon="-20.32130814"><ele>80.8</ele><time>2012-07-20T16:54:59.0000000+00:00</time></trkpt><trkpt lat="64.13092041" lon="-20.32130814"><ele>80.8</ele><time>2012-07-20T16:55:04.0000000+00:00</time></trkpt><trkpt lat="64.13092041" lon="-20.32130814"><ele>80.8</ele><time>2012-07-20T16:55:09.0000000+00:00</time></trkpt><trkpt lat="64.13092041" lon="-20.32130814"><ele>80.8</ele><time>2012-07-20T16:55:14.0000000+00:00</time></trkpt><trkpt lat="64.13092041" lon="-20.32130814"><ele>80.8</ele><time>2012-07-20T16:55:19.0000000+00:00</time></trkpt><trkpt lat="64.13092041" lon="-20.32130814"><ele>80.8</ele><time>2012-07-20T16:55:24.0000000+00:00</time></trkpt><trkpt lat="64.13092041" lon="-20.32130814"><ele>80.8</ele><time>2012-07-20T16:55:29.0000000+00:00</time></trkpt><trkpt lat="64.13092041" lon="-20.32130814"><ele>80.8</ele><time>2012-07-20T16:55:34.0000000+00:00</time></trkpt><trkpt lat="64.13092041" lon="-20.32130814"><ele>80.8</ele><time>2012-07-20T16:55:39.0000000+00:00</time></trkpt><trkpt lat="64.13092041" lon="-20.32130814"><ele>80.8</ele><time>2012-07-20T16:55:44.0000000+00:00</time></trkpt><trkpt lat="64.13092041" lon="-20.32130814"><ele>80.8</ele><time>2012-07-20T16:55:49.0000000+00:00</time></trkpt><trkpt lat="64.13092041" lon="-20.32130814"><ele>80.8</ele><time>2012-07-20T16:55:54.0000000+00:00</time></trkpt><trkpt lat="64.13092041" lon="-20.32130814"><ele>80.8</ele><time>2012-07-20T16:55:59.0000000+00:00</time></trkpt><trkpt lat="64.13092041" lon="-20.32130814"><ele>80.8</ele><time>2012-07-20T16:56:04.0000000+00:00</time></trkpt><trkpt lat="64.13092041" lon="-20.32130814"><ele>80.7</ele><time>2012-07-20T16:56:09.0000000+00:00</time></trkpt><trkpt lat="64.13092041" lon="-20.32130814"><ele>80.7</ele><time>2012-07-20T16:56:14.0000000+00:00</time></trkpt><trkpt lat="64.13092041" lon="-20.32130814"><ele>80.7</ele><time>2012-07-20T16:56:19.0000000+00:00</time></trkpt><trkpt lat="64.13092041" lon="-20.32130814"><ele>80.7</ele><time>2012-07-20T16:56:24.0000000+00:00</time></trkpt><trkpt lat="64.13092041" lon="-20.32130814"><ele>80.7</ele><time>2012-07-20T16:56:29.0000000+00:00</time></trkpt><trkpt lat="64.13092041" lon="-20.32130814"><ele>80.6</ele><time>2012-07-20T16:56:34.0000000+00:00</time></trkpt><trkpt lat="64.13092041" lon="-20.32130814"><ele>80.6</ele><time>2012-07-20T16:56:39.0000000+00:00</time></trkpt><trkpt lat="64.13092041" lon="-20.32131004"><ele>80.6</ele><time>2012-07-20T16:56:44.0000000+00:00</time></trkpt><trkpt lat="64.13092041" lon="-20.32131004"><ele>80.6</ele><time>2012-07-20T16:56:49.0000000+00:00</time></trkpt><trkpt lat="64.13092041" lon="-20.32131004"><ele>80.6</ele><time>2012-07-20T16:56:54.0000000+00:00</time></trkpt><trkpt lat="64.13092041" lon="-20.32131195"><ele>80.6</ele><time>2012-07-20T16:56:59.0000000+00:00</time></trkpt><trkpt lat="64.13092041" lon="-20.32131195"><ele>80.6</ele><time>2012-07-20T16:57:04.0000000+00:00</time></trkpt><trkpt lat="64.13092041" lon="-20.32131195"><ele>80.6</ele><time>2012-07-20T16:57:09.0000000+00:00</time></trkpt><trkpt lat="64.13092041" lon="-20.32131195"><ele>80.6</ele><time>2012-07-20T16:57:14.0000000+00:00</time></trkpt><trkpt lat="64.13092041" lon="-20.32131195"><ele>80.5</ele><time>2012-07-20T16:57:19.0000000+00:00</time></trkpt><trkpt lat="64.13092041" lon="-20.32131386"><ele>80.5</ele><time>2012-07-20T16:57:24.0000000+00:00</time></trkpt><trkpt lat="64.13092041" lon="-20.32131386"><ele>80.5</ele><time>2012-07-20T16:57:29.0000000+00:00</time></trkpt><trkpt lat="64.13092041" lon="-20.32131386"><ele>80.5</ele><time>2012-07-20T16:57:34.0000000+00:00</time></trkpt><trkpt lat="64.13092041" lon="-20.32131386"><ele>80.5</ele><time>2012-07-20T16:57:39.0000000+00:00</time></trkpt><trkpt lat="64.13092041" lon="-20.32131386"><ele>80.5</ele><time>2012-07-20T16:57:44.0000000+00:00</time></trkpt><trkpt lat="64.13092041" lon="-20.32131386"><ele>80.5</ele><time>2012-07-20T16:57:49.0000000+00:00</time></trkpt><trkpt lat="64.13092041" lon="-20.32131386"><ele>80.5</ele><time>2012-07-20T16:57:54.0000000+00:00</time></trkpt><trkpt lat="64.13092041" lon="-20.32131386"><ele>80.5</ele><time>2012-07-20T16:57:59.0000000+00:00</time></trkpt><trkpt lat="64.13092041" lon="-20.32131386"><ele>80.5</ele><time>2012-07-20T16:58:04.0000000+00:00</time></trkpt><trkpt lat="64.13092041" lon="-20.32131386"><ele>80.5</ele><time>2012-07-20T16:58:09.0000000+00:00</time></trkpt><trkpt lat="64.13092041" lon="-20.32131386"><ele>80.5</ele><time>2012-07-20T16:58:14.0000000+00:00</time></trkpt><trkpt lat="64.13092041" lon="-20.32131386"><ele>80.5</ele><time>2012-07-20T16:58:19.0000000+00:00</time></trkpt><trkpt lat="64.13092041" lon="-20.32131386"><ele>80.5</ele><time>2012-07-20T16:58:24.0000000+00:00</time></trkpt><trkpt lat="64.13091278" lon="-20.32131386"><ele>80.4</ele><time>2012-07-20T16:58:29.0000000+00:00</time></trkpt><trkpt lat="64.13091278" lon="-20.32131195"><ele>80.4</ele><time>2012-07-20T16:58:34.0000000+00:00</time></trkpt><trkpt lat="64.13091278" lon="-20.32131195"><ele>80.3</ele><time>2012-07-20T16:58:39.0000000+00:00</time></trkpt><trkpt lat="64.13091278" lon="-20.32131195"><ele>80.3</ele><time>2012-07-20T16:58:44.0000000+00:00</time></trkpt><trkpt lat="64.13091278" lon="-20.32131004"><ele>80.3</ele><time>2012-07-20T16:58:49.0000000+00:00</time></trkpt><trkpt lat="64.13091278" lon="-20.32131004"><ele>80.3</ele><time>2012-07-20T16:58:54.0000000+00:00</time></trkpt><trkpt lat="64.13091278" lon="-20.32131004"><ele>80.3</ele><time>2012-07-20T16:58:59.0000000+00:00</time></trkpt><trkpt lat="64.13091278" lon="-20.32131004"><ele>80.3</ele><time>2012-07-20T16:59:04.0000000+00:00</time></trkpt><trkpt lat="64.13091278" lon="-20.32131004"><ele>80.3</ele><time>2012-07-20T16:59:09.0000000+00:00</time></trkpt><trkpt lat="64.13091278" lon="-20.32131004"><ele>80.3</ele><time>2012-07-20T16:59:14.0000000+00:00</time></trkpt><trkpt lat="64.13091278" lon="-20.32131004"><ele>80.2</ele><time>2012-07-20T16:59:19.0000000+00:00</time></trkpt><trkpt lat="64.13091278" lon="-20.32131004"><ele>80.1</ele><time>2012-07-20T16:59:24.0000000+00:00</time></trkpt><trkpt lat="64.13091278" lon="-20.32131004"><ele>80.1</ele><time>2012-07-20T16:59:29.0000000+00:00</time></trkpt><trkpt lat="64.13091278" lon="-20.32131004"><ele>80.1</ele><time>2012-07-20T16:59:34.0000000+00:00</time></trkpt><trkpt lat="64.13091278" lon="-20.32131004"><ele>80.1</ele><time>2012-07-20T16:59:39.0000000+00:00</time></trkpt><trkpt lat="64.13091278" lon="-20.32131195"><ele>80.1</ele><time>2012-07-20T16:59:44.0000000+00:00</time></trkpt><trkpt lat="64.13091278" lon="-20.32131195"><ele>80.2</ele><time>2012-07-20T16:59:49.0000000+00:00</time></trkpt><trkpt lat="64.13091278" lon="-20.32131195"><ele>80.2</ele><time>2012-07-20T16:59:54.0000000+00:00</time></trkpt><trkpt lat="64.13091278" lon="-20.32131386"><ele>80.2</ele><time>2012-07-20T16:59:59.0000000+00:00</time></trkpt><trkpt lat="64.13091278" lon="-20.32131386"><ele>80.1</ele><time>2012-07-20T17:00:04.0000000+00:00</time></trkpt><trkpt lat="64.13091278" lon="-20.32131577"><ele>80.1</ele><time>2012-07-20T17:00:09.0000000+00:00</time></trkpt><trkpt lat="64.13091278" lon="-20.32131577"><ele>80.1</ele><time>2012-07-20T17:00:14.0000000+00:00</time></trkpt><trkpt lat="64.13091278" lon="-20.32131767"><ele>80.1</ele><time>2012-07-20T17:00:19.0000000+00:00</time></trkpt><trkpt lat="64.13091278" lon="-20.32131958"><ele>80.1</ele><time>2012-07-20T17:00:24.0000000+00:00</time></trkpt><trkpt lat="64.13091278" lon="-20.32131958"><ele>80.1</ele><time>2012-07-20T17:00:29.0000000+00:00</time></trkpt><trkpt lat="64.13091278" lon="-20.32131958"><ele>80.1</ele><time>2012-07-20T17:00:34.0000000+00:00</time></trkpt><trkpt lat="64.13091278" lon="-20.32132149"><ele>80.1</ele><time>2012-07-20T17:00:39.0000000+00:00</time></trkpt><trkpt lat="64.13091278" lon="-20.32131958"><ele>80.1</ele><time>2012-07-20T17:00:44.0000000+00:00</time></trkpt><trkpt lat="64.13091278" lon="-20.32131958"><ele>80.1</ele><time>2012-07-20T17:00:49.0000000+00:00</time></trkpt><trkpt lat="64.13091278" lon="-20.32131958"><ele>80.1</ele><time>2012-07-20T17:00:54.0000000+00:00</time></trkpt><trkpt lat="64.13091278" lon="-20.32131958"><ele>80.2</ele><time>2012-07-20T17:00:59.0000000+00:00</time></trkpt><trkpt lat="64.13091278" lon="-20.32131958"><ele>80.2</ele><time>2012-07-20T17:01:04.0000000+00:00</time></trkpt><trkpt lat="64.13091278" lon="-20.32131958"><ele>80.3</ele><time>2012-07-20T17:01:09.0000000+00:00</time></trkpt><trkpt lat="64.13091278" lon="-20.32131958"><ele>80.4</ele><time>2012-07-20T17:01:14.0000000+00:00</time></trkpt><trkpt lat="64.13091278" lon="-20.32131958"><ele>80.4</ele><time>2012-07-20T17:01:19.0000000+00:00</time></trkpt><trkpt lat="64.13091278" lon="-20.32131958"><ele>80.5</ele><time>2012-07-20T17:01:24.0000000+00:00</time></trkpt><trkpt lat="64.13092041" lon="-20.32132149"><ele>80.5</ele><time>2012-07-20T17:01:29.0000000+00:00</time></trkpt><trkpt lat="64.13092041" lon="-20.32132149"><ele>80.6</ele><time>2012-07-20T17:01:34.0000000+00:00</time></trkpt><trkpt lat="64.13092041" lon="-20.32132149"><ele>80.7</ele><time>2012-07-20T17:01:39.0000000+00:00</time></trkpt><trkpt lat="64.13092041" lon="-20.32132149"><ele>80.7</ele><time>2012-07-20T17:01:44.0000000+00:00</time></trkpt><trkpt lat="64.13092041" lon="-20.32132149"><ele>80.8</ele><time>2012-07-20T17:01:49.0000000+00:00</time></trkpt><trkpt lat="64.13092041" lon="-20.32132149"><ele>80.8</ele><time>2012-07-20T17:01:54.0000000+00:00</time></trkpt><trkpt lat="64.13092041" lon="-20.32132149"><ele>80.8</ele><time>2012-07-20T17:01:59.0000000+00:00</time></trkpt><trkpt lat="64.13092041" lon="-20.32132149"><ele>80.8</ele><time>2012-07-20T17:02:04.0000000+00:00</time></trkpt><trkpt lat="64.13092041" lon="-20.32132149"><ele>80.9</ele><time>2012-07-20T17:02:09.0000000+00:00</time></trkpt><trkpt lat="64.13092041" lon="-20.32132149"><ele>80.9</ele><time>2012-07-20T17:02:14.0000000+00:00</time></trkpt><trkpt lat="64.13092041" lon="-20.32132149"><ele>80.9</ele><time>2012-07-20T17:02:19.0000000+00:00</time></trkpt><trkpt lat="64.13092041" lon="-20.3213234"><ele>80.9</ele><time>2012-07-20T17:02:24.0000000+00:00</time></trkpt><trkpt lat="64.13092041" lon="-20.3213234"><ele>80.9</ele><time>2012-07-20T17:02:29.0000000+00:00</time></trkpt><trkpt lat="64.13092041" lon="-20.32132149"><ele>80.9</ele><time>2012-07-20T17:02:34.0000000+00:00</time></trkpt><trkpt lat="64.13092041" lon="-20.32132149"><ele>80.9</ele><time>2012-07-20T17:02:39.0000000+00:00</time></trkpt><trkpt lat="64.13092041" lon="-20.32132149"><ele>80.9</ele><time>2012-07-20T17:02:44.0000000+00:00</time></trkpt><trkpt lat="64.13092041" lon="-20.32132149"><ele>80.9</ele><time>2012-07-20T17:02:49.0000000+00:00</time></trkpt><trkpt lat="64.13092041" lon="-20.32131958"><ele>81.0</ele><time>2012-07-20T17:02:54.0000000+00:00</time></trkpt><trkpt lat="64.13092041" lon="-20.32131958"><ele>81.0</ele><time>2012-07-20T17:02:59.0000000+00:00</time></trkpt><trkpt lat="64.13092041" lon="-20.32131958"><ele>80.9</ele><time>2012-07-20T17:03:04.0000000+00:00</time></trkpt><trkpt lat="64.13092041" lon="-20.32132149"><ele>80.9</ele><time>2012-07-20T17:03:09.0000000+00:00</time></trkpt><trkpt lat="64.13092041" lon="-20.32132149"><ele>80.9</ele><time>2012-07-20T17:03:14.0000000+00:00</time></trkpt><trkpt lat="64.13092041" lon="-20.32132149"><ele>80.8</ele><time>2012-07-20T17:03:19.0000000+00:00</time></trkpt><trkpt lat="64.13092041" lon="-20.32132149"><ele>80.8</ele><time>2012-07-20T17:03:24.0000000+00:00</time></trkpt><trkpt lat="64.13092041" lon="-20.32132149"><ele>80.8</ele><time>2012-07-20T17:03:29.0000000+00:00</time></trkpt><trkpt lat="64.13092041" lon="-20.32132149"><ele>80.8</ele><time>2012-07-20T17:03:34.0000000+00:00</time></trkpt><trkpt lat="64.13092041" lon="-20.32132149"><ele>80.8</ele><time>2012-07-20T17:03:39.0000000+00:00</time></trkpt><trkpt lat="64.13092041" lon="-20.32132149"><ele>80.8</ele><time>2012-07-20T17:03:44.0000000+00:00</time></trkpt><trkpt lat="64.13091278" lon="-20.32131958"><ele>80.8</ele><time>2012-07-20T17:03:49.0000000+00:00</time></trkpt><trkpt lat="64.13091278" lon="-20.32131958"><ele>80.8</ele><time>2012-07-20T17:03:54.0000000+00:00</time></trkpt><trkpt lat="64.13091278" lon="-20.32131958"><ele>80.8</ele><time>2012-07-20T17:03:59.0000000+00:00</time></trkpt><trkpt lat="64.13091278" lon="-20.32131958"><ele>80.8</ele><time>2012-07-20T17:04:04.0000000+00:00</time></trkpt><trkpt lat="64.13092041" lon="-20.32131958"><ele>80.8</ele><time>2012-07-20T17:04:09.0000000+00:00</time></trkpt><trkpt lat="64.13092041" lon="-20.32131958"><ele>80.9</ele><time>2012-07-20T17:04:14.0000000+00:00</time></trkpt><trkpt lat="64.13091278" lon="-20.32131958"><ele>80.9</ele><time>2012-07-20T17:04:19.0000000+00:00</time></trkpt><trkpt lat="64.13091278" lon="-20.32131958"><ele>80.9</ele><time>2012-07-20T17:04:24.0000000+00:00</time></trkpt><trkpt lat="64.13091278" lon="-20.32131958"><ele>80.9</ele><time>2012-07-20T17:04:29.0000000+00:00</time></trkpt><trkpt lat="64.13091278" lon="-20.32131958"><ele>80.9</ele><time>2012-07-20T17:04:34.0000000+00:00</time></trkpt><trkpt lat="64.13092041" lon="-20.32131958"><ele>80.8</ele><time>2012-07-20T17:04:39.0000000+00:00</time></trkpt><trkpt lat="64.13092041" lon="-20.32131958"><ele>80.8</ele><time>2012-07-20T17:04:44.0000000+00:00</time></trkpt><trkpt lat="64.13092041" lon="-20.32131958"><ele>80.8</ele><time>2012-07-20T17:04:49.0000000+00:00</time></trkpt><trkpt lat="64.13092041" lon="-20.32131958"><ele>80.8</ele><time>2012-07-20T17:04:54.0000000+00:00</time></trkpt><trkpt lat="64.13092041" lon="-20.32131767"><ele>80.8</ele><time>2012-07-20T17:04:59.0000000+00:00</time></trkpt><trkpt lat="64.13092041" lon="-20.32131767"><ele>80.8</ele><time>2012-07-20T17:05:04.0000000+00:00</time></trkpt><trkpt lat="64.13091278" lon="-20.32131577"><ele>80.8</ele><time>2012-07-20T17:05:09.0000000+00:00</time></trkpt><trkpt lat="64.13091278" lon="-20.32131577"><ele>80.8</ele><time>2012-07-20T17:05:14.0000000+00:00</time></trkpt><trkpt lat="64.13091278" lon="-20.32131577"><ele>80.8</ele><time>2012-07-20T17:05:19.0000000+00:00</time></trkpt><trkpt lat="64.13091278" lon="-20.32131577"><ele>80.8</ele><time>2012-07-20T17:05:24.0000000+00:00</time></trkpt><trkpt lat="64.13092041" lon="-20.32131386"><ele>80.9</ele><time>2012-07-20T17:05:29.0000000+00:00</time></trkpt><trkpt lat="64.13092041" lon="-20.32131386"><ele>80.9</ele><time>2012-07-20T17:05:34.0000000+00:00</time></trkpt><trkpt lat="64.13092041" lon="-20.32131386"><ele>80.9</ele><time>2012-07-20T17:05:39.0000000+00:00</time></trkpt><trkpt lat="64.13092041" lon="-20.32131386"><ele>81.0</ele><time>2012-07-20T17:05:44.0000000+00:00</time></trkpt><trkpt lat="64.13092041" lon="-20.32131386"><ele>81.0</ele><time>2012-07-20T17:05:49.0000000+00:00</time></trkpt><trkpt lat="64.13091278" lon="-20.32131386"><ele>81.0</ele><time>2012-07-20T17:05:54.0000000+00:00</time></trkpt><trkpt lat="64.13091278" lon="-20.32131386"><ele>81.1</ele><time>2012-07-20T17:05:59.0000000+00:00</time></trkpt><trkpt lat="64.13091278" lon="-20.32131386"><ele>81.1</ele><time>2012-07-20T17:06:04.0000000+00:00</time></trkpt><trkpt lat="64.13091278" lon="-20.32131386"><ele>81.1</ele><time>2012-07-20T17:06:09.0000000+00:00</time></trkpt><trkpt lat="64.13091278" lon="-20.32131386"><ele>81.1</ele><time>2012-07-20T17:06:14.0000000+00:00</time></trkpt><trkpt lat="64.13091278" lon="-20.32131386"><ele>81.1</ele><time>2012-07-20T17:06:19.0000000+00:00</time></trkpt><trkpt lat="64.13091278" lon="-20.32131386"><ele>81.1</ele><time>2012-07-20T17:06:24.0000000+00:00</time></trkpt><trkpt lat="64.13091278" lon="-20.32131577"><ele>81.1</ele><time>2012-07-20T17:06:29.0000000+00:00</time></trkpt><trkpt lat="64.13091278" lon="-20.32131577"><ele>81.1</ele><time>2012-07-20T17:06:34.0000000+00:00</time></trkpt><trkpt lat="64.13091278" lon="-20.32131577"><ele>81.2</ele><time>2012-07-20T17:06:39.0000000+00:00</time></trkpt><trkpt lat="64.13091278" lon="-20.32131386"><ele>81.3</ele><time>2012-07-20T17:06:44.0000000+00:00</time></trkpt><trkpt lat="64.13091278" lon="-20.32131386"><ele>81.3</ele><time>2012-07-20T17:06:49.0000000+00:00</time></trkpt><trkpt lat="64.13091278" lon="-20.32131386"><ele>81.4</ele><time>2012-07-20T17:06:54.0000000+00:00</time></trkpt><trkpt lat="64.13091278" lon="-20.32131386"><ele>81.4</ele><time>2012-07-20T17:06:59.0000000+00:00</time></trkpt><trkpt lat="64.13092041" lon="-20.32131386"><ele>81.5</ele><time>2012-07-20T17:07:04.0000000+00:00</time></trkpt><trkpt lat="64.13092041" lon="-20.32131386"><ele>81.5</ele><time>2012-07-20T17:07:09.0000000+00:00</time></trkpt><trkpt lat="64.13092041" lon="-20.32131386"><ele>81.6</ele><time>2012-07-20T17:07:14.0000000+00:00</time></trkpt><trkpt lat="64.13092041" lon="-20.32131577"><ele>81.6</ele><time>2012-07-20T17:07:19.0000000+00:00</time></trkpt><trkpt lat="64.13092041" lon="-20.32131577"><ele>81.7</ele><time>2012-07-20T17:07:24.0000000+00:00</time></trkpt><trkpt lat="64.13092041" lon="-20.32131577"><ele>81.7</ele><time>2012-07-20T17:07:29.0000000+00:00</time></trkpt><trkpt lat="64.13092041" lon="-20.32131577"><ele>81.7</ele><time>2012-07-20T17:07:34.0000000+00:00</time></trkpt><trkpt lat="64.13092041" lon="-20.32131386"><ele>81.7</ele><time>2012-07-20T17:07:39.0000000+00:00</time></trkpt><trkpt lat="64.13092041" lon="-20.32131386"><ele>81.7</ele><time>2012-07-20T17:07:44.0000000+00:00</time></trkpt><trkpt lat="64.13092041" lon="-20.32131386"><ele>81.8</ele><time>2012-07-20T17:07:49.0000000+00:00</time></trkpt><trkpt lat="64.13092041" lon="-20.32131386"><ele>81.8</ele><time>2012-07-20T17:07:54.0000000+00:00</time></trkpt><trkpt lat="64.13092041" lon="-20.32131386"><ele>81.8</ele><time>2012-07-20T17:07:59.0000000+00:00</time></trkpt><trkpt lat="64.13092041" lon="-20.32131386"><ele>81.9</ele><time>2012-07-20T17:08:04.0000000+00:00</time></trkpt><trkpt lat="64.13092041" lon="-20.32131386"><ele>81.9</ele><time>2012-07-20T17:08:09.0000000+00:00</time></trkpt><trkpt lat="64.13092041" lon="-20.32131386"><ele>81.9</ele><time>2012-07-20T17:08:14.0000000+00:00</time></trkpt><trkpt lat="64.13092041" lon="-20.32131386"><ele>82.0</ele><time>2012-07-20T17:08:19.0000000+00:00</time></trkpt><trkpt lat="64.13092041" lon="-20.32131386"><ele>82.0</ele><time>2012-07-20T17:08:24.0000000+00:00</time></trkpt><trkpt lat="64.13092041" lon="-20.32131386"><ele>82.0</ele><time>2012-07-20T17:08:29.0000000+00:00</time></trkpt><trkpt lat="64.13092041" lon="-20.32131386"><ele>82.0</ele><time>2012-07-20T17:08:34.0000000+00:00</time></trkpt><trkpt lat="64.13092041" lon="-20.32131386"><ele>82.0</ele><time>2012-07-20T17:08:39.0000000+00:00</time></trkpt><trkpt lat="64.13092041" lon="-20.32131386"><ele>82.0</ele><time>2012-07-20T17:08:44.0000000+00:00</time></trkpt><trkpt lat="64.13092041" lon="-20.32131386"><ele>82.0</ele><time>2012-07-20T17:08:49.0000000+00:00</time></trkpt><trkpt lat="64.13092041" lon="-20.32131386"><ele>82.0</ele><time>2012-07-20T17:08:54.0000000+00:00</time></trkpt><trkpt lat="64.13092041" lon="-20.32131386"><ele>82.0</ele><time>2012-07-20T17:08:59.0000000+00:00</time></trkpt><trkpt lat="64.13092041" lon="-20.32131386"><ele>82.0</ele><time>2012-07-20T17:09:04.0000000+00:00</time></trkpt><trkpt lat="64.13092041" lon="-20.32131386"><ele>82.1</ele><time>2012-07-20T17:09:09.0000000+00:00</time></trkpt><trkpt lat="64.13092041" lon="-20.32131386"><ele>82.1</ele><time>2012-07-20T17:09:14.0000000+00:00</time></trkpt><trkpt lat="64.13092041" lon="-20.32131386"><ele>82.2</ele><time>2012-07-20T17:09:19.0000000+00:00</time></trkpt><trkpt lat="64.13092041" lon="-20.32131386"><ele>82.2</ele><time>2012-07-20T17:09:24.0000000+00:00</time></trkpt><trkpt lat="64.13092041" lon="-20.32131386"><ele>82.3</ele><time>2012-07-20T17:09:29.0000000+00:00</time></trkpt><trkpt lat="64.13092041" lon="-20.32131386"><ele>82.4</ele><time>2012-07-20T17:09:34.0000000+00:00</time></trkpt><trkpt lat="64.13092041" lon="-20.32131386"><ele>82.4</ele><time>2012-07-20T17:09:39.0000000+00:00</time></trkpt><trkpt lat="64.13092041" lon="-20.32131195"><ele>82.5</ele><time>2012-07-20T17:09:44.0000000+00:00</time></trkpt><trkpt lat="64.13092804" lon="-20.32131195"><ele>82.6</ele><time>2012-07-20T17:09:49.0000000+00:00</time></trkpt><trkpt lat="64.13092804" lon="-20.32131195"><ele>82.6</ele><time>2012-07-20T17:09:54.0000000+00:00</time></trkpt><trkpt lat="64.13092804" lon="-20.32131195"><ele>82.7</ele><time>2012-07-20T17:09:59.0000000+00:00</time></trkpt><trkpt lat="64.13092804" lon="-20.32131004"><ele>82.8</ele><time>2012-07-20T17:10:04.0000000+00:00</time></trkpt><trkpt lat="64.13092804" lon="-20.32131004"><ele>82.9</ele><time>2012-07-20T17:10:09.0000000+00:00</time></trkpt><trkpt lat="64.13092804" lon="-20.32130814"><ele>83.0</ele><time>2012-07-20T17:10:14.0000000+00:00</time></trkpt><trkpt lat="64.13092804" lon="-20.32131004"><ele>83.0</ele><time>2012-07-20T17:10:19.0000000+00:00</time></trkpt><trkpt lat="64.13092804" lon="-20.32131004"><ele>83.0</ele><time>2012-07-20T17:10:24.0000000+00:00</time></trkpt><trkpt lat="64.13092804" lon="-20.32131004"><ele>83.1</ele><time>2012-07-20T17:10:29.0000000+00:00</time></trkpt><trkpt lat="64.13092804" lon="-20.32130814"><ele>83.1</ele><time>2012-07-20T17:10:34.0000000+00:00</time></trkpt><trkpt lat="64.13092804" lon="-20.32130814"><ele>83.1</ele><time>2012-07-20T17:10:39.0000000+00:00</time></trkpt><trkpt lat="64.13092804" lon="-20.32131004"><ele>83.2</ele><time>2012-07-20T17:10:44.0000000+00:00</time></trkpt><trkpt lat="64.13092804" lon="-20.32131004"><ele>83.2</ele><time>2012-07-20T17:10:49.0000000+00:00</time></trkpt><trkpt lat="64.13092804" lon="-20.32131004"><ele>83.2</ele><time>2012-07-20T17:10:54.0000000+00:00</time></trkpt><trkpt lat="64.13092804" lon="-20.32131004"><ele>83.2</ele><time>2012-07-20T17:10:59.0000000+00:00</time></trkpt><trkpt lat="64.13092804" lon="-20.32131195"><ele>83.2</ele><time>2012-07-20T17:11:04.0000000+00:00</time></trkpt><trkpt lat="64.13092804" lon="-20.32131195"><ele>83.2</ele><time>2012-07-20T17:11:09.0000000+00:00</time></trkpt><trkpt lat="64.13092804" lon="-20.32131386"><ele>83.2</ele><time>2012-07-20T17:11:14.0000000+00:00</time></trkpt><trkpt lat="64.13092804" lon="-20.32131386"><ele>83.3</ele><time>2012-07-20T17:11:19.0000000+00:00</time></trkpt><trkpt lat="64.13092804" lon="-20.32131386"><ele>83.3</ele><time>2012-07-20T17:11:24.0000000+00:00</time></trkpt><trkpt lat="64.13092804" lon="-20.32131195"><ele>83.4</ele><time>2012-07-20T17:11:29.0000000+00:00</time></trkpt><trkpt lat="64.13092804" lon="-20.32131195"><ele>83.5</ele><time>2012-07-20T17:11:34.0000000+00:00</time></trkpt><trkpt lat="64.13092804" lon="-20.32131195"><ele>83.5</ele><time>2012-07-20T17:11:39.0000000+00:00</time></trkpt><trkpt lat="64.13092804" lon="-20.32131195"><ele>83.6</ele><time>2012-07-20T17:11:44.0000000+00:00</time></trkpt><trkpt lat="64.13092804" lon="-20.32131195"><ele>83.7</ele><time>2012-07-20T17:11:49.0000000+00:00</time></trkpt><trkpt lat="64.13092804" lon="-20.32131386"><ele>83.8</ele><time>2012-07-20T17:11:54.0000000+00:00</time></trkpt><trkpt lat="64.13092804" lon="-20.32131386"><ele>83.9</ele><time>2012-07-20T17:11:59.0000000+00:00</time></trkpt><trkpt lat="64.13092804" lon="-20.32131577"><ele>83.9</ele><time>2012-07-20T17:12:04.0000000+00:00</time></trkpt><trkpt lat="64.13092804" lon="-20.32131577"><ele>83.9</ele><time>2012-07-20T17:12:09.0000000+00:00</time></trkpt><trkpt lat="64.13092804" lon="-20.32131767"><ele>84.0</ele><time>2012-07-20T17:12:14.0000000+00:00</time></trkpt><trkpt lat="64.13092804" lon="-20.32131958"><ele>84.1</ele><time>2012-07-20T17:12:19.0000000+00:00</time></trkpt><trkpt lat="64.13092804" lon="-20.32131958"><ele>84.1</ele><time>2012-07-20T17:12:24.0000000+00:00</time></trkpt><trkpt lat="64.13092804" lon="-20.32131958"><ele>84.0</ele><time>2012-07-20T17:12:29.0000000+00:00</time></trkpt><trkpt lat="64.13092804" lon="-20.32131767"><ele>84.0</ele><time>2012-07-20T17:12:34.0000000+00:00</time></trkpt><trkpt lat="64.13092804" lon="-20.32131767"><ele>84.1</ele><time>2012-07-20T17:12:39.0000000+00:00</time></trkpt><trkpt lat="64.13092804" lon="-20.32131767"><ele>84.1</ele><time>2012-07-20T17:12:44.0000000+00:00</time></trkpt><trkpt lat="64.13092804" lon="-20.32131577"><ele>84.1</ele><time>2012-07-20T17:12:49.0000000+00:00</time></trkpt><trkpt lat="64.13092804" lon="-20.32131577"><ele>84.2</ele><time>2012-07-20T17:12:54.0000000+00:00</time></trkpt><trkpt lat="64.13092804" lon="-20.32131577"><ele>84.2</ele><time>2012-07-20T17:12:59.0000000+00:00</time></trkpt><trkpt lat="64.13092804" lon="-20.32131577"><ele>84.2</ele><time>2012-07-20T17:13:04.0000000+00:00</time></trkpt><trkpt lat="64.13092804" lon="-20.32131386"><ele>84.2</ele><time>2012-07-20T17:13:09.0000000+00:00</time></trkpt><trkpt lat="64.13092804" lon="-20.32131386"><ele>84.3</ele><time>2012-07-20T17:13:14.0000000+00:00</time></trkpt><trkpt lat="64.13092804" lon="-20.32131195"><ele>84.3</ele><time>2012-07-20T17:13:19.0000000+00:00</time></trkpt><trkpt lat="64.13092804" lon="-20.32131195"><ele>84.3</ele><time>2012-07-20T17:13:24.0000000+00:00</time></trkpt><trkpt lat="64.13092804" lon="-20.32131195"><ele>84.3</ele><time>2012-07-20T17:13:29.0000000+00:00</time></trkpt><trkpt lat="64.13092804" lon="-20.32131195"><ele>84.3</ele><time>2012-07-20T17:13:34.0000000+00:00</time></trkpt><trkpt lat="64.13092804" lon="-20.32131195"><ele>84.3</ele><time>2012-07-20T17:13:39.0000000+00:00</time></trkpt><trkpt lat="64.13092804" lon="-20.32131386"><ele>84.3</ele><time>2012-07-20T17:13:44.0000000+00:00</time></trkpt><trkpt lat="64.13092804" lon="-20.32131386"><ele>84.4</ele><time>2012-07-20T17:13:49.0000000+00:00</time></trkpt><trkpt lat="64.13092804" lon="-20.32131386"><ele>84.4</ele><time>2012-07-20T17:13:54.0000000+00:00</time></trkpt><trkpt lat="64.13092804" lon="-20.32131386"><ele>84.5</ele><time>2012-07-20T17:13:59.0000000+00:00</time></trkpt><trkpt lat="64.13092804" lon="-20.32131195"><ele>84.5</ele><time>2012-07-20T17:14:04.0000000+00:00</time></trkpt><trkpt lat="64.13092804" lon="-20.32131195"><ele>84.5</ele><time>2012-07-20T17:14:09.0000000+00:00</time></trkpt><trkpt lat="64.13092804" lon="-20.32131195"><ele>84.5</ele><time>2012-07-20T17:14:14.0000000+00:00</time></trkpt><trkpt lat="64.13092804" lon="-20.32131195"><ele>84.5</ele><time>2012-07-20T17:14:19.0000000+00:00</time></trkpt><trkpt lat="64.13092804" lon="-20.32131386"><ele>84.5</ele><time>2012-07-20T17:14:24.0000000+00:00</time></trkpt><trkpt lat="64.13092804" lon="-20.32131386"><ele>84.6</ele><time>2012-07-20T17:14:29.0000000+00:00</time></trkpt><trkpt lat="64.13092804" lon="-20.32131195"><ele>84.6</ele><time>2012-07-20T17:14:34.0000000+00:00</time></trkpt><trkpt lat="64.13092804" lon="-20.32131195"><ele>84.7</ele><time>2012-07-20T17:14:39.0000000+00:00</time></trkpt><trkpt lat="64.13092804" lon="-20.32131004"><ele>84.8</ele><time>2012-07-20T17:14:44.0000000+00:00</time></trkpt><trkpt lat="64.13092804" lon="-20.32131004"><ele>84.8</ele><time>2012-07-20T17:14:49.0000000+00:00</time></trkpt><trkpt lat="64.13092804" lon="-20.32131004"><ele>84.9</ele><time>2012-07-20T17:14:54.0000000+00:00</time></trkpt><trkpt lat="64.13092804" lon="-20.32130814"><ele>84.9</ele><time>2012-07-20T17:14:59.0000000+00:00</time></trkpt><trkpt lat="64.13093567" lon="-20.32130814"><ele>85.0</ele><time>2012-07-20T17:15:04.0000000+00:00</time></trkpt><trkpt lat="64.13093567" lon="-20.32130814"><ele>85.0</ele><time>2012-07-20T17:15:09.0000000+00:00</time></trkpt><trkpt lat="64.13093567" lon="-20.32130814"><ele>85.1</ele><time>2012-07-20T17:15:14.0000000+00:00</time></trkpt><trkpt lat="64.13093567" lon="-20.32130814"><ele>85.1</ele><time>2012-07-20T17:15:19.0000000+00:00</time></trkpt><trkpt lat="64.13093567" lon="-20.32130814"><ele>85.1</ele><time>2012-07-20T17:15:24.0000000+00:00</time></trkpt><trkpt lat="64.13093567" lon="-20.32130814"><ele>85.2</ele><time>2012-07-20T17:15:29.0000000+00:00</time></trkpt><trkpt lat="64.13093567" lon="-20.32130814"><ele>85.2</ele><time>2012-07-20T17:15:34.0000000+00:00</time></trkpt><trkpt lat="64.13093567" lon="-20.32130814"><ele>85.2</ele><time>2012-07-20T17:15:39.0000000+00:00</time></trkpt><trkpt lat="64.13093567" lon="-20.32130814"><ele>85.3</ele><time>2012-07-20T17:15:44.0000000+00:00</time></trkpt><trkpt lat="64.13093567" lon="-20.32131004"><ele>85.3</ele><time>2012-07-20T17:15:49.0000000+00:00</time></trkpt><trkpt lat="64.13093567" lon="-20.32131004"><ele>85.4</ele><time>2012-07-20T17:15:54.0000000+00:00</time></trkpt><trkpt lat="64.13093567" lon="-20.32131004"><ele>85.4</ele><time>2012-07-20T17:15:59.0000000+00:00</time></trkpt><trkpt lat="64.13093567" lon="-20.32131004"><ele>85.4</ele><time>2012-07-20T17:16:04.0000000+00:00</time></trkpt><trkpt lat="64.13093567" lon="-20.32131004"><ele>85.5</ele><time>2012-07-20T17:16:09.0000000+00:00</time></trkpt><trkpt lat="64.13093567" lon="-20.32130814"><ele>85.5</ele><time>2012-07-20T17:16:14.0000000+00:00</time></trkpt><trkpt lat="64.13093567" lon="-20.32130814"><ele>85.5</ele><time>2012-07-20T17:16:19.0000000+00:00</time></trkpt><trkpt lat="64.13093567" lon="-20.32130623"><ele>85.6</ele><time>2012-07-20T17:16:24.0000000+00:00</time></trkpt><trkpt lat="64.13093567" lon="-20.32130623"><ele>85.6</ele><time>2012-07-20T17:16:29.0000000+00:00</time></trkpt><trkpt lat="64.13093567" lon="-20.32130623"><ele>85.6</ele><time>2012-07-20T17:16:34.0000000+00:00</time></trkpt><trkpt lat="64.13093567" lon="-20.32130623"><ele>85.7</ele><time>2012-07-20T17:16:39.0000000+00:00</time></trkpt><trkpt lat="64.13093567" lon="-20.32130623"><ele>85.8</ele><time>2012-07-20T17:16:44.0000000+00:00</time></trkpt><trkpt lat="64.1309433" lon="-20.32130814"><ele>85.9</ele><time>2012-07-20T17:16:49.0000000+00:00</time></trkpt><trkpt lat="64.13093567" lon="-20.32130814"><ele>85.9</ele><time>2012-07-20T17:16:54.0000000+00:00</time></trkpt><trkpt lat="64.13093567" lon="-20.32130814"><ele>85.9</ele><time>2012-07-20T17:16:59.0000000+00:00</time></trkpt><trkpt lat="64.13093567" lon="-20.32130814"><ele>85.8</ele><time>2012-07-20T17:17:04.0000000+00:00</time></trkpt><trkpt lat="64.13093567" lon="-20.32131004"><ele>85.8</ele><time>2012-07-20T17:17:09.0000000+00:00</time></trkpt><trkpt lat="64.13093567" lon="-20.32131004"><ele>85.8</ele><time>2012-07-20T17:17:14.0000000+00:00</time></trkpt><trkpt lat="64.13093567" lon="-20.32131004"><ele>85.7</ele><time>2012-07-20T17:17:19.0000000+00:00</time></trkpt><trkpt lat="64.13093567" lon="-20.32131004"><ele>85.7</ele><time>2012-07-20T17:17:24.0000000+00:00</time></trkpt><trkpt lat="64.13093567" lon="-20.32131004"><ele>85.6</ele><time>2012-07-20T17:17:29.0000000+00:00</time></trkpt><trkpt lat="64.13093567" lon="-20.32131004"><ele>85.6</ele><time>2012-07-20T17:17:34.0000000+00:00</time></trkpt><trkpt lat="64.13093567" lon="-20.32131004"><ele>85.6</ele><time>2012-07-20T17:17:39.0000000+00:00</time></trkpt><trkpt lat="64.13093567" lon="-20.32131004"><ele>85.5</ele><time>2012-07-20T17:17:44.0000000+00:00</time></trkpt><trkpt lat="64.13093567" lon="-20.32131004"><ele>85.4</ele><time>2012-07-20T17:17:49.0000000+00:00</time></trkpt><trkpt lat="64.13093567" lon="-20.32131195"><ele>85.3</ele><time>2012-07-20T17:17:54.0000000+00:00</time></trkpt><trkpt lat="64.13093567" lon="-20.32131195"><ele>85.2</ele><time>2012-07-20T17:17:59.0000000+00:00</time></trkpt><trkpt lat="64.13093567" lon="-20.32131195"><ele>85.2</ele><time>2012-07-20T17:18:04.0000000+00:00</time></trkpt><trkpt lat="64.13093567" lon="-20.32131195"><ele>85.1</ele><time>2012-07-20T17:18:09.0000000+00:00</time></trkpt><trkpt lat="64.13093567" lon="-20.32131386"><ele>85.1</ele><time>2012-07-20T17:18:14.0000000+00:00</time></trkpt><trkpt lat="64.13093567" lon="-20.32131386"><ele>85.1</ele><time>2012-07-20T17:18:19.0000000+00:00</time></trkpt><trkpt lat="64.13093567" lon="-20.32131386"><ele>85.1</ele><time>2012-07-20T17:18:24.0000000+00:00</time></trkpt><trkpt lat="64.13093567" lon="-20.32131386"><ele>85.0</ele><time>2012-07-20T17:18:29.0000000+00:00</time></trkpt><trkpt lat="64.13093567" lon="-20.32131577"><ele>85.0</ele><time>2012-07-20T17:18:34.0000000+00:00</time></trkpt><trkpt lat="64.13093567" lon="-20.32131386"><ele>84.9</ele><time>2012-07-20T17:18:39.0000000+00:00</time></trkpt><trkpt lat="64.13093567" lon="-20.32131386"><ele>84.9</ele><time>2012-07-20T17:18:44.0000000+00:00</time></trkpt><trkpt lat="64.13093567" lon="-20.32131386"><ele>84.9</ele><time>2012-07-20T17:18:49.0000000+00:00</time></trkpt><trkpt lat="64.13093567" lon="-20.32131577"><ele>84.9</ele><time>2012-07-20T17:18:54.0000000+00:00</time></trkpt><trkpt lat="64.13093567" lon="-20.32131577"><ele>84.9</ele><time>2012-07-20T17:18:59.0000000+00:00</time></trkpt><trkpt lat="64.13093567" lon="-20.32131577"><ele>84.9</ele><time>2012-07-20T17:19:04.0000000+00:00</time></trkpt><trkpt lat="64.13093567" lon="-20.32131577"><ele>84.9</ele><time>2012-07-20T17:19:09.0000000+00:00</time></trkpt><trkpt lat="64.13092804" lon="-20.32131767"><ele>84.9</ele><time>2012-07-20T17:19:14.0000000+00:00</time></trkpt><trkpt lat="64.13092804" lon="-20.32131767"><ele>84.9</ele><time>2012-07-20T17:19:19.0000000+00:00</time></trkpt><trkpt lat="64.13092804" lon="-20.32131767"><ele>84.9</ele><time>2012-07-20T17:19:24.0000000+00:00</time></trkpt><trkpt lat="64.13092804" lon="-20.32131767"><ele>84.8</ele><time>2012-07-20T17:19:29.0000000+00:00</time></trkpt><trkpt lat="64.13092804" lon="-20.32131767"><ele>84.8</ele><time>2012-07-20T17:19:34.0000000+00:00</time></trkpt><trkpt lat="64.13092804" lon="-20.32131767"><ele>84.8</ele><time>2012-07-20T17:19:39.0000000+00:00</time></trkpt><trkpt lat="64.13092804" lon="-20.32131767"><ele>84.8</ele><time>2012-07-20T17:19:44.0000000+00:00</time></trkpt><trkpt lat="64.13092804" lon="-20.32131767"><ele>84.8</ele><time>2012-07-20T17:19:49.0000000+00:00</time></trkpt><trkpt lat="64.13092804" lon="-20.32131767"><ele>84.7</ele><time>2012-07-20T17:19:54.0000000+00:00</time></trkpt><trkpt lat="64.13092804" lon="-20.32131767"><ele>84.7</ele><time>2012-07-20T17:19:59.0000000+00:00</time></trkpt><trkpt lat="64.13092804" lon="-20.32131958"><ele>84.6</ele><time>2012-07-20T17:20:04.0000000+00:00</time></trkpt><trkpt lat="64.13092804" lon="-20.32131958"><ele>84.5</ele><time>2012-07-20T17:20:09.0000000+00:00</time></trkpt><trkpt lat="64.13092804" lon="-20.32131958"><ele>84.5</ele><time>2012-07-20T17:20:14.0000000+00:00</time></trkpt><trkpt lat="64.13092804" lon="-20.32131958"><ele>84.5</ele><time>2012-07-20T17:20:19.0000000+00:00</time></trkpt><trkpt lat="64.13092804" lon="-20.32131958"><ele>84.4</ele><time>2012-07-20T17:20:24.0000000+00:00</time></trkpt><trkpt lat="64.13092804" lon="-20.32132149"><ele>84.4</ele><time>2012-07-20T17:20:29.0000000+00:00</time></trkpt><trkpt lat="64.13092804" lon="-20.32132149"><ele>84.4</ele><time>2012-07-20T17:20:34.0000000+00:00</time></trkpt><trkpt lat="64.13092804" lon="-20.32132149"><ele>84.4</ele><time>2012-07-20T17:20:39.0000000+00:00</time></trkpt><trkpt lat="64.13092804" lon="-20.32132149"><ele>84.4</ele><time>2012-07-20T17:20:44.0000000+00:00</time></trkpt><trkpt lat="64.13092804" lon="-20.3213234"><ele>84.4</ele><time>2012-07-20T17:20:49.0000000+00:00</time></trkpt><trkpt lat="64.13092804" lon="-20.3213234"><ele>84.4</ele><time>2012-07-20T17:20:54.0000000+00:00</time></trkpt><trkpt lat="64.13092804" lon="-20.3213234"><ele>84.4</ele><time>2012-07-20T17:20:59.0000000+00:00</time></trkpt><trkpt lat="64.13092804" lon="-20.3213253"><ele>84.4</ele><time>2012-07-20T17:21:04.0000000+00:00</time></trkpt><trkpt lat="64.13092804" lon="-20.3213253"><ele>84.4</ele><time>2012-07-20T17:21:09.0000000+00:00</time></trkpt><trkpt lat="64.13092804" lon="-20.3213253"><ele>84.4</ele><time>2012-07-20T17:21:14.0000000+00:00</time></trkpt><trkpt lat="64.13092804" lon="-20.32132721"><ele>84.4</ele><time>2012-07-20T17:21:19.0000000+00:00</time></trkpt><trkpt lat="64.13092804" lon="-20.32132721"><ele>84.4</ele><time>2012-07-20T17:21:24.0000000+00:00</time></trkpt><trkpt lat="64.13092804" lon="-20.32132721"><ele>84.4</ele><time>2012-07-20T17:21:29.0000000+00:00</time></trkpt><trkpt lat="64.13092804" lon="-20.32132721"><ele>84.4</ele><time>2012-07-20T17:21:34.0000000+00:00</time></trkpt><trkpt lat="64.13092804" lon="-20.32132721"><ele>84.4</ele><time>2012-07-20T17:21:39.0000000+00:00</time></trkpt><trkpt lat="64.13092804" lon="-20.3213253"><ele>84.3</ele><time>2012-07-20T17:21:44.0000000+00:00</time></trkpt><trkpt lat="64.13092804" lon="-20.3213253"><ele>84.3</ele><time>2012-07-20T17:21:49.0000000+00:00</time></trkpt><trkpt lat="64.13092804" lon="-20.3213234"><ele>84.3</ele><time>2012-07-20T17:21:54.0000000+00:00</time></trkpt><trkpt lat="64.13092804" lon="-20.3213234"><ele>84.3</ele><time>2012-07-20T17:21:59.0000000+00:00</time></trkpt><trkpt lat="64.13092804" lon="-20.3213234"><ele>84.2</ele><time>2012-07-20T17:22:04.0000000+00:00</time></trkpt><trkpt lat="64.13092804" lon="-20.3213234"><ele>84.2</ele><time>2012-07-20T17:22:09.0000000+00:00</time></trkpt><trkpt lat="64.13092804" lon="-20.3213234"><ele>84.2</ele><time>2012-07-20T17:22:14.0000000+00:00</time></trkpt><trkpt lat="64.13092804" lon="-20.3213234"><ele>84.2</ele><time>2012-07-20T17:22:19.0000000+00:00</time></trkpt><trkpt lat="64.13092804" lon="-20.3213234"><ele>84.2</ele><time>2012-07-20T17:22:24.0000000+00:00</time></trkpt><trkpt lat="64.13092804" lon="-20.3213234"><ele>84.1</ele><time>2012-07-20T17:22:29.0000000+00:00</time></trkpt><trkpt lat="64.13092804" lon="-20.3213234"><ele>84.1</ele><time>2012-07-20T17:22:34.0000000+00:00</time></trkpt><trkpt lat="64.13092804" lon="-20.3213234"><ele>84.1</ele><time>2012-07-20T17:22:39.0000000+00:00</time></trkpt><trkpt lat="64.13092804" lon="-20.3213234"><ele>84.0</ele><time>2012-07-20T17:22:44.0000000+00:00</time></trkpt><trkpt lat="64.13092804" lon="-20.3213234"><ele>84.0</ele><time>2012-07-20T17:22:49.0000000+00:00</time></trkpt><trkpt lat="64.13092804" lon="-20.3213234"><ele>83.9</ele><time>2012-07-20T17:22:54.0000000+00:00</time></trkpt><trkpt lat="64.13092804" lon="-20.3213234"><ele>83.9</ele><time>2012-07-20T17:22:59.0000000+00:00</time></trkpt><trkpt lat="64.13092804" lon="-20.3213234"><ele>83.9</ele><time>2012-07-20T17:23:04.0000000+00:00</time></trkpt><trkpt lat="64.13092804" lon="-20.3213253"><ele>83.8</ele><time>2012-07-20T17:23:09.0000000+00:00</time></trkpt><trkpt lat="64.13092804" lon="-20.3213234"><ele>83.8</ele><time>2012-07-20T17:23:14.0000000+00:00</time></trkpt><trkpt lat="64.13092804" lon="-20.3213234"><ele>83.7</ele><time>2012-07-20T17:23:19.0000000+00:00</time></trkpt><trkpt lat="64.13092804" lon="-20.3213234"><ele>83.7</ele><time>2012-07-20T17:23:24.0000000+00:00</time></trkpt><trkpt lat="64.13092804" lon="-20.3213234"><ele>83.6</ele><time>2012-07-20T17:23:29.0000000+00:00</time></trkpt><trkpt lat="64.13092804" lon="-20.3213234"><ele>83.5</ele><time>2012-07-20T17:23:34.0000000+00:00</time></trkpt><trkpt lat="64.13092804" lon="-20.3213234"><ele>83.5</ele><time>2012-07-20T17:23:39.0000000+00:00</time></trkpt><trkpt lat="64.13092804" lon="-20.3213234"><ele>83.5</ele><time>2012-07-20T17:23:44.0000000+00:00</time></trkpt><trkpt lat="64.13092804" lon="-20.3213234"><ele>83.4</ele><time>2012-07-20T17:23:49.0000000+00:00</time></trkpt><trkpt lat="64.13092804" lon="-20.32132149"><ele>83.4</ele><time>2012-07-20T17:23:54.0000000+00:00</time></trkpt><trkpt lat="64.13092804" lon="-20.32132149"><ele>83.4</ele><time>2012-07-20T17:23:59.0000000+00:00</time></trkpt><trkpt lat="64.13092804" lon="-20.32132149"><ele>83.4</ele><time>2012-07-20T17:24:04.0000000+00:00</time></trkpt><trkpt lat="64.13092804" lon="-20.32132149"><ele>83.4</ele><time>2012-07-20T17:24:09.0000000+00:00</time></trkpt><trkpt lat="64.13092804" lon="-20.32132149"><ele>83.4</ele><time>2012-07-20T17:24:14.0000000+00:00</time></trkpt><trkpt lat="64.13092804" lon="-20.32132149"><ele>83.4</ele><time>2012-07-20T17:24:19.0000000+00:00</time></trkpt><trkpt lat="64.13092804" lon="-20.32132149"><ele>83.4</ele><time>2012-07-20T17:24:24.0000000+00:00</time></trkpt><trkpt lat="64.13092804" lon="-20.32132149"><ele>83.4</ele><time>2012-07-20T17:24:29.0000000+00:00</time></trkpt><trkpt lat="64.13092804" lon="-20.32132149"><ele>83.4</ele><time>2012-07-20T17:24:34.0000000+00:00</time></trkpt><trkpt lat="64.13092804" lon="-20.32132149"><ele>83.4</ele><time>2012-07-20T17:24:39.0000000+00:00</time></trkpt><trkpt lat="64.13092804" lon="-20.32132149"><ele>83.4</ele><time>2012-07-20T17:24:44.0000000+00:00</time></trkpt><trkpt lat="64.13092804" lon="-20.32132149"><ele>83.4</ele><time>2012-07-20T17:24:49.0000000+00:00</time></trkpt><trkpt lat="64.13092804" lon="-20.32132149"><ele>83.4</ele><time>2012-07-20T17:24:54.0000000+00:00</time></trkpt><trkpt lat="64.13092804" lon="-20.32132149"><ele>83.4</ele><time>2012-07-20T17:24:59.0000000+00:00</time></trkpt><trkpt lat="64.13092804" lon="-20.32132149"><ele>83.4</ele><time>2012-07-20T17:25:04.0000000+00:00</time></trkpt><trkpt lat="64.13092804" lon="-20.32132149"><ele>83.4</ele><time>2012-07-20T17:25:09.0000000+00:00</time></trkpt><trkpt lat="64.13092804" lon="-20.32132149"><ele>83.3</ele><time>2012-07-20T17:25:14.0000000+00:00</time></trkpt><trkpt lat="64.13092804" lon="-20.32132149"><ele>83.3</ele><time>2012-07-20T17:25:19.0000000+00:00</time></trkpt><trkpt lat="64.13092804" lon="-20.32132149"><ele>83.3</ele><time>2012-07-20T17:25:24.0000000+00:00</time></trkpt><trkpt lat="64.13092804" lon="-20.3213234"><ele>83.3</ele><time>2012-07-20T17:25:29.0000000+00:00</time></trkpt><trkpt lat="64.13092804" lon="-20.3213234"><ele>83.3</ele><time>2012-07-20T17:25:34.0000000+00:00</time></trkpt><trkpt lat="64.13092804" lon="-20.3213234"><ele>83.3</ele><time>2012-07-20T17:25:39.0000000+00:00</time></trkpt><trkpt lat="64.13092804" lon="-20.3213234"><ele>83.3</ele><time>2012-07-20T17:25:44.0000000+00:00</time></trkpt><trkpt lat="64.13092804" lon="-20.3213234"><ele>83.3</ele><time>2012-07-20T17:25:49.0000000+00:00</time></trkpt><trkpt lat="64.13092041" lon="-20.3213234"><ele>83.3</ele><time>2012-07-20T17:25:54.0000000+00:00</time></trkpt><trkpt lat="64.13092041" lon="-20.3213234"><ele>83.3</ele><time>2012-07-20T17:25:59.0000000+00:00</time></trkpt><trkpt lat="64.13092041" lon="-20.3213234"><ele>83.3</ele><time>2012-07-20T17:26:04.0000000+00:00</time></trkpt><trkpt lat="64.13092041" lon="-20.32132149"><ele>83.3</ele><time>2012-07-20T17:26:09.0000000+00:00</time></trkpt><trkpt lat="64.13092041" lon="-20.32132149"><ele>83.3</ele><time>2012-07-20T17:26:14.0000000+00:00</time></trkpt><trkpt lat="64.13092041" lon="-20.32132149"><ele>83.3</ele><time>2012-07-20T17:26:19.0000000+00:00</time></trkpt><trkpt lat="64.13092041" lon="-20.32132149"><ele>83.2</ele><time>2012-07-20T17:26:24.0000000+00:00</time></trkpt><trkpt lat="64.13092041" lon="-20.32132149"><ele>83.2</ele><time>2012-07-20T17:26:29.0000000+00:00</time></trkpt><trkpt lat="64.13092041" lon="-20.32132149"><ele>83.2</ele><time>2012-07-20T17:26:34.0000000+00:00</time></trkpt><trkpt lat="64.13092041" lon="-20.32132149"><ele>83.2</ele><time>2012-07-20T17:26:39.0000000+00:00</time></trkpt><trkpt lat="64.13092041" lon="-20.32132149"><ele>83.2</ele><time>2012-07-20T17:26:44.0000000+00:00</time></trkpt><trkpt lat="64.13092041" lon="-20.32132149"><ele>83.2</ele><time>2012-07-20T17:26:49.0000000+00:00</time></trkpt><trkpt lat="64.13092041" lon="-20.32132149"><ele>83.2</ele><time>2012-07-20T17:26:54.0000000+00:00</time></trkpt><trkpt lat="64.13092041" lon="-20.32132149"><ele>83.2</ele><time>2012-07-20T17:26:59.0000000+00:00</time></trkpt><trkpt lat="64.13092041" lon="-20.32132149"><ele>83.2</ele><time>2012-07-20T17:27:04.0000000+00:00</time></trkpt><trkpt lat="64.13092041" lon="-20.32132149"><ele>83.2</ele><time>2012-07-20T17:27:09.0000000+00:00</time></trkpt><trkpt lat="64.13092041" lon="-20.32132149"><ele>83.1</ele><time>2012-07-20T17:27:14.0000000+00:00</time></trkpt><trkpt lat="64.13092041" lon="-20.32132149"><ele>83.1</ele><time>2012-07-20T17:27:19.0000000+00:00</time></trkpt><trkpt lat="64.13092041" lon="-20.32132149"><ele>83.1</ele><time>2012-07-20T17:27:24.0000000+00:00</time></trkpt><trkpt lat="64.13092041" lon="-20.32132149"><ele>83.1</ele><time>2012-07-20T17:27:29.0000000+00:00</time></trkpt><trkpt lat="64.13092041" lon="-20.32132149"><ele>83.1</ele><time>2012-07-20T17:27:34.0000000+00:00</time></trkpt><trkpt lat="64.13092041" lon="-20.32132149"><ele>83.1</ele><time>2012-07-20T17:27:39.0000000+00:00</time></trkpt><trkpt lat="64.13092041" lon="-20.32132149"><ele>83.1</ele><time>2012-07-20T17:27:44.0000000+00:00</time></trkpt><trkpt lat="64.13092041" lon="-20.32132149"><ele>83.1</ele><time>2012-07-20T17:27:49.0000000+00:00</time></trkpt><trkpt lat="64.13092041" lon="-20.32132149"><ele>83.1</ele><time>2012-07-20T17:27:54.0000000+00:00</time></trkpt><trkpt lat="64.13092041" lon="-20.3213234"><ele>83.1</ele><time>2012-07-20T17:27:59.0000000+00:00</time></trkpt><trkpt lat="64.13092041" lon="-20.3213234"><ele>83.1</ele><time>2012-07-20T17:28:04.0000000+00:00</time></trkpt><trkpt lat="64.13092041" lon="-20.3213234"><ele>83.1</ele><time>2012-07-20T17:28:09.0000000+00:00</time></trkpt><trkpt lat="64.13092041" lon="-20.3213234"><ele>83.1</ele><time>2012-07-20T17:28:14.0000000+00:00</time></trkpt><trkpt lat="64.13092041" lon="-20.3213234"><ele>83.1</ele><time>2012-07-20T17:28:19.0000000+00:00</time></trkpt><trkpt lat="64.13092041" lon="-20.3213234"><ele>83.1</ele><time>2012-07-20T17:28:24.0000000+00:00</time></trkpt><trkpt lat="64.13092041" lon="-20.3213234"><ele>83.1</ele><time>2012-07-20T17:28:29.0000000+00:00</time></trkpt><trkpt lat="64.13092041" lon="-20.3213234"><ele>83.1</ele><time>2012-07-20T17:28:34.0000000+00:00</time></trkpt><trkpt lat="64.13092041" lon="-20.3213234"><ele>83.1</ele><time>2012-07-20T17:28:39.0000000+00:00</time></trkpt><trkpt lat="64.13092041" lon="-20.3213234"><ele>83.1</ele><time>2012-07-20T17:28:44.0000000+00:00</time></trkpt><trkpt lat="64.13092041" lon="-20.3213234"><ele>83.1</ele><time>2012-07-20T17:28:49.0000000+00:00</time></trkpt><trkpt lat="64.13092041" lon="-20.3213234"><ele>83.1</ele><time>2012-07-20T17:28:54.0000000+00:00</time></trkpt><trkpt lat="64.13092041" lon="-20.3213234"><ele>83.0</ele><time>2012-07-20T17:28:59.0000000+00:00</time></trkpt><trkpt lat="64.13092041" lon="-20.3213234"><ele>83.0</ele><time>2012-07-20T17:29:04.0000000+00:00</time></trkpt><trkpt lat="64.13092041" lon="-20.3213234"><ele>83.0</ele><time>2012-07-20T17:29:09.0000000+00:00</time></trkpt><trkpt lat="64.13092041" lon="-20.3213234"><ele>83.0</ele><time>2012-07-20T17:29:14.0000000+00:00</time></trkpt><trkpt lat="64.13092041" lon="-20.3213234"><ele>83.0</ele><time>2012-07-20T17:29:19.0000000+00:00</time></trkpt><trkpt lat="64.13092041" lon="-20.3213234"><ele>83.0</ele><time>2012-07-20T17:29:24.0000000+00:00</time></trkpt><trkpt lat="64.13092041" lon="-20.3213234"><ele>83.0</ele><time>2012-07-20T17:29:29.0000000+00:00</time></trkpt><trkpt lat="64.13092041" lon="-20.3213234"><ele>83.0</ele><time>2012-07-20T17:29:34.0000000+00:00</time></trkpt><trkpt lat="64.13092041" lon="-20.3213253"><ele>83.0</ele><time>2012-07-20T17:29:39.0000000+00:00</time></trkpt><trkpt lat="64.13092041" lon="-20.3213234"><ele>83.0</ele><time>2012-07-20T17:29:44.0000000+00:00</time></trkpt><trkpt lat="64.13092041" lon="-20.3213234"><ele>83.0</ele><time>2012-07-20T17:29:49.0000000+00:00</time></trkpt><trkpt lat="64.13092041" lon="-20.3213234"><ele>83.0</ele><time>2012-07-20T17:29:54.0000000+00:00</time></trkpt><trkpt lat="64.13092041" lon="-20.3213234"><ele>83.0</ele><time>2012-07-20T17:29:59.0000000+00:00</time></trkpt><trkpt lat="64.13092041" lon="-20.3213234"><ele>83.0</ele><time>2012-07-20T17:30:04.0000000+00:00</time></trkpt><trkpt lat="64.13092041" lon="-20.3213234"><ele>83.0</ele><time>2012-07-20T17:30:09.0000000+00:00</time></trkpt><trkpt lat="64.13092041" lon="-20.3213234"><ele>83.0</ele><time>2012-07-20T17:30:14.0000000+00:00</time></trkpt><trkpt lat="64.13092041" lon="-20.3213234"><ele>83.0</ele><time>2012-07-20T17:30:19.0000000+00:00</time></trkpt><trkpt lat="64.13092041" lon="-20.3213234"><ele>83.0</ele><time>2012-07-20T17:30:24.0000000+00:00</time></trkpt><trkpt lat="64.13092041" lon="-20.3213234"><ele>83.0</ele><time>2012-07-20T17:30:29.0000000+00:00</time></trkpt><trkpt lat="64.13092041" lon="-20.3213234"><ele>83.0</ele><time>2012-07-20T17:30:34.0000000+00:00</time></trkpt><trkpt lat="64.13092041" lon="-20.3213234"><ele>82.9</ele><time>2012-07-20T17:30:39.0000000+00:00</time></trkpt><trkpt lat="64.13092041" lon="-20.3213234"><ele>82.9</ele><time>2012-07-20T17:30:44.0000000+00:00</time></trkpt><trkpt lat="64.13092041" lon="-20.3213234"><ele>82.9</ele><time>2012-07-20T17:30:49.0000000+00:00</time></trkpt><trkpt lat="64.13092041" lon="-20.32132149"><ele>82.9</ele><time>2012-07-20T17:30:54.0000000+00:00</time></trkpt><trkpt lat="64.13092041" lon="-20.32132149"><ele>82.9</ele><time>2012-07-20T17:30:59.0000000+00:00</time></trkpt><trkpt lat="64.13092041" lon="-20.3213234"><ele>82.9</ele><time>2012-07-20T17:31:04.0000000+00:00</time></trkpt><trkpt lat="64.13092041" lon="-20.3213234"><ele>82.9</ele><time>2012-07-20T17:31:09.0000000+00:00</time></trkpt><trkpt lat="64.13092041" lon="-20.3213234"><ele>82.8</ele><time>2012-07-20T17:31:14.0000000+00:00</time></trkpt><trkpt lat="64.13092041" lon="-20.3213234"><ele>82.8</ele><time>2012-07-20T17:31:19.0000000+00:00</time></trkpt><trkpt lat="64.13092041" lon="-20.3213234"><ele>82.8</ele><time>2012-07-20T17:31:24.0000000+00:00</time></trkpt><trkpt lat="64.13092041" lon="-20.3213234"><ele>82.8</ele><time>2012-07-20T17:31:29.0000000+00:00</time></trkpt><trkpt lat="64.13092041" lon="-20.3213234"><ele>82.8</ele><time>2012-07-20T17:31:34.0000000+00:00</time></trkpt><trkpt lat="64.13092041" lon="-20.3213234"><ele>82.8</ele><time>2012-07-20T17:31:39.0000000+00:00</time></trkpt><trkpt lat="64.13092041" lon="-20.3213234"><ele>82.7</ele><time>2012-07-20T17:31:44.0000000+00:00</time></trkpt><trkpt lat="64.13092041" lon="-20.3213234"><ele>82.7</ele><time>2012-07-20T17:31:49.0000000+00:00</time></trkpt><trkpt lat="64.13092041" lon="-20.3213234"><ele>82.7</ele><time>2012-07-20T17:31:54.0000000+00:00</time></trkpt><trkpt lat="64.13092041" lon="-20.3213234"><ele>82.7</ele><time>2012-07-20T17:31:59.0000000+00:00</time></trkpt><trkpt lat="64.13092041" lon="-20.3213234"><ele>82.6</ele><time>2012-07-20T17:32:04.0000000+00:00</time></trkpt><trkpt lat="64.13091278" lon="-20.3213234"><ele>82.6</ele><time>2012-07-20T17:32:09.0000000+00:00</time></trkpt><trkpt lat="64.13090515" lon="-20.32131958"><ele>82.6</ele><time>2012-07-20T17:32:14.0000000+00:00</time></trkpt><trkpt lat="64.13088226" lon="-20.32133102"><ele>82.2</ele><time>2012-07-20T17:32:19.0000000+00:00</time></trkpt><trkpt lat="64.13087463" lon="-20.32133484"><ele>81.9</ele><time>2012-07-20T17:32:24.0000000+00:00</time></trkpt><trkpt lat="64.13083649" lon="-20.32127762"><ele>82.0</ele><time>2012-07-20T17:32:29.0000000+00:00</time></trkpt><trkpt lat="64.13078308" lon="-20.32120705"><ele>82.0</ele><time>2012-07-20T17:32:34.0000000+00:00</time></trkpt><trkpt lat="64.13067627" lon="-20.32116318"><ele>81.8</ele><time>2012-07-20T17:32:39.0000000+00:00</time></trkpt><trkpt lat="64.13056946" lon="-20.32112694"><ele>82.5</ele><time>2012-07-20T17:32:44.0000000+00:00</time></trkpt><trkpt lat="64.13047028" lon="-20.32102966"><ele>83.8</ele><time>2012-07-20T17:32:49.0000000+00:00</time></trkpt><trkpt lat="64.13051605" lon="-20.32081986"><ele>85.6</ele><time>2012-07-20T17:32:54.0000000+00:00</time></trkpt><trkpt lat="64.1305542" lon="-20.32073212"><ele>85.3</ele><time>2012-07-20T17:32:59.0000000+00:00</time></trkpt><trkpt lat="64.13056183" lon="-20.32074165"><ele>85.2</ele><time>2012-07-20T17:33:04.0000000+00:00</time></trkpt><trkpt lat="64.1305542" lon="-20.32074547"><ele>85.3</ele><time>2012-07-20T17:33:09.0000000+00:00</time></trkpt><trkpt lat="64.1305542" lon="-20.32073784"><ele>85.4</ele><time>2012-07-20T17:33:14.0000000+00:00</time></trkpt><trkpt lat="64.1305542" lon="-20.32073975"><ele>85.4</ele><time>2012-07-20T17:33:19.0000000+00:00</time></trkpt><trkpt lat="64.1305542" lon="-20.32073784"><ele>85.4</ele><time>2012-07-20T17:33:24.0000000+00:00</time></trkpt><trkpt lat="64.1305542" lon="-20.32073593"><ele>85.4</ele><time>2012-07-20T17:33:29.0000000+00:00</time></trkpt><trkpt lat="64.1305542" lon="-20.32073593"><ele>85.3</ele><time>2012-07-20T17:33:34.0000000+00:00</time></trkpt><trkpt lat="64.1305542" lon="-20.32073402"><ele>85.3</ele><time>2012-07-20T17:33:39.0000000+00:00</time></trkpt><trkpt lat="64.1305542" lon="-20.32073402"><ele>85.3</ele><time>2012-07-20T17:33:44.0000000+00:00</time></trkpt><trkpt lat="64.1305542" lon="-20.32073402"><ele>85.3</ele><time>2012-07-20T17:33:49.0000000+00:00</time></trkpt><trkpt lat="64.1305542" lon="-20.32073212"><ele>85.3</ele><time>2012-07-20T17:33:54.0000000+00:00</time></trkpt><trkpt lat="64.1305542" lon="-20.32073212"><ele>85.3</ele><time>2012-07-20T17:33:59.0000000+00:00</time></trkpt><trkpt lat="64.1305542" lon="-20.32073212"><ele>85.3</ele><time>2012-07-20T17:34:04.0000000+00:00</time></trkpt><trkpt lat="64.1305542" lon="-20.32073212"><ele>85.3</ele><time>2012-07-20T17:34:09.0000000+00:00</time></trkpt><trkpt lat="64.1305542" lon="-20.32073402"><ele>85.4</ele><time>2012-07-20T17:34:14.0000000+00:00</time></trkpt><trkpt lat="64.1305542" lon="-20.32073402"><ele>85.4</ele><time>2012-07-20T17:34:19.0000000+00:00</time></trkpt><trkpt lat="64.1305542" lon="-20.32073402"><ele>85.4</ele><time>2012-07-20T17:34:24.0000000+00:00</time></trkpt><trkpt lat="64.13056183" lon="-20.32073402"><ele>85.4</ele><time>2012-07-20T17:34:29.0000000+00:00</time></trkpt><trkpt lat="64.13056183" lon="-20.32073402"><ele>85.4</ele><time>2012-07-20T17:34:34.0000000+00:00</time></trkpt><trkpt lat="64.13056183" lon="-20.32073402"><ele>85.4</ele><time>2012-07-20T17:34:39.0000000+00:00</time></trkpt><trkpt lat="64.13059235" lon="-20.3207531"><ele>85.5</ele><time>2012-07-20T17:34:44.0000000+00:00</time></trkpt><trkpt lat="64.13066864" lon="-20.32087898"><ele>85.4</ele><time>2012-07-20T17:34:49.0000000+00:00</time></trkpt><trkpt lat="64.13062286" lon="-20.32102394"><ele>85.6</ele><time>2012-07-20T17:34:54.0000000+00:00</time></trkpt><trkpt lat="64.13049316" lon="-20.32100678"><ele>85.1</ele><time>2012-07-20T17:34:59.0000000+00:00</time></trkpt><trkpt lat="64.13053131" lon="-20.32116699"><ele>84.9</ele><time>2012-07-20T17:35:04.0000000+00:00</time></trkpt><trkpt lat="64.13061523" lon="-20.32116699"><ele>88.5</ele><time>2012-07-20T17:35:09.0000000+00:00</time></trkpt><trkpt lat="64.13065338" lon="-20.32115364"><ele>89.1</ele><time>2012-07-20T17:35:14.0000000+00:00</time></trkpt><trkpt lat="64.13065338" lon="-20.32112312"><ele>88.3</ele><time>2012-07-20T17:35:19.0000000+00:00</time></trkpt><trkpt lat="64.13065338" lon="-20.32112503"><ele>88.5</ele><time>2012-07-20T17:35:24.0000000+00:00</time></trkpt><trkpt lat="64.13065338" lon="-20.32112503"><ele>88.4</ele><time>2012-07-20T17:35:29.0000000+00:00</time></trkpt><trkpt lat="64.13065338" lon="-20.32112503"><ele>88.4</ele><time>2012-07-20T17:35:34.0000000+00:00</time></trkpt><trkpt lat="64.13065338" lon="-20.32112503"><ele>88.4</ele><time>2012-07-20T17:35:39.0000000+00:00</time></trkpt><trkpt lat="64.13065338" lon="-20.32112503"><ele>88.3</ele><time>2012-07-20T17:35:44.0000000+00:00</time></trkpt><trkpt lat="64.13065338" lon="-20.32112503"><ele>88.3</ele><time>2012-07-20T17:35:49.0000000+00:00</time></trkpt><trkpt lat="64.13065338" lon="-20.32112694"><ele>88.3</ele><time>2012-07-20T17:35:54.0000000+00:00</time></trkpt><trkpt lat="64.13070679" lon="-20.32116318"><ele>87.7</ele><time>2012-07-20T17:35:59.0000000+00:00</time></trkpt><trkpt lat="64.13074493" lon="-20.32097054"><ele>86.4</ele><time>2012-07-20T17:36:04.0000000+00:00</time></trkpt><trkpt lat="64.13075256" lon="-20.32074928"><ele>85.8</ele><time>2012-07-20T17:36:09.0000000+00:00</time></trkpt><trkpt lat="64.13076019" lon="-20.32057762"><ele>84.9</ele><time>2012-07-20T17:36:14.0000000+00:00</time></trkpt><trkpt lat="64.13076019" lon="-20.3203392"><ele>84.1</ele><time>2012-07-20T17:36:19.0000000+00:00</time></trkpt><trkpt lat="64.13076019" lon="-20.32008362"><ele>84.4</ele><time>2012-07-20T17:36:24.0000000+00:00</time></trkpt><trkpt lat="64.13071442" lon="-20.31979179"><ele>81.5</ele><time>2012-07-20T17:36:29.0000000+00:00</time></trkpt><trkpt lat="64.13069153" lon="-20.31942177"><ele>82.0</ele><time>2012-07-20T17:36:34.0000000+00:00</time></trkpt><trkpt lat="64.13066101" lon="-20.31904602"><ele>82.1</ele><time>2012-07-20T17:36:39.0000000+00:00</time></trkpt><trkpt lat="64.13061523" lon="-20.31868172"><ele>82.9</ele><time>2012-07-20T17:36:44.0000000+00:00</time></trkpt><trkpt lat="64.1305542" lon="-20.31825256"><ele>83.0</ele><time>2012-07-20T17:36:49.0000000+00:00</time></trkpt><trkpt lat="64.13047028" lon="-20.31785011"><ele>82.5</ele><time>2012-07-20T17:36:54.0000000+00:00</time></trkpt><trkpt lat="64.13034821" lon="-20.31744957"><ele>81.0</ele><time>2012-07-20T17:36:59.0000000+00:00</time></trkpt><trkpt lat="64.13019562" lon="-20.31705475"><ele>80.6</ele><time>2012-07-20T17:37:04.0000000+00:00</time></trkpt><trkpt lat="64.13002777" lon="-20.3167305"><ele>80.5</ele><time>2012-07-20T17:37:09.0000000+00:00</time></trkpt><trkpt lat="64.12982941" lon="-20.31643295"><ele>80.8</ele><time>2012-07-20T17:37:14.0000000+00:00</time></trkpt><trkpt lat="64.12961578" lon="-20.31632042"><ele>81.5</ele><time>2012-07-20T17:37:19.0000000+00:00</time></trkpt><trkpt lat="64.12940216" lon="-20.31634522"><ele>79.8</ele><time>2012-07-20T17:37:24.0000000+00:00</time></trkpt><trkpt lat="64.12919617" lon="-20.31647873"><ele>79.7</ele><time>2012-07-20T17:37:29.0000000+00:00</time></trkpt><trkpt lat="64.12897492" lon="-20.3166256"><ele>79.3</ele><time>2012-07-20T17:37:34.0000000+00:00</time></trkpt><trkpt lat="64.12871552" lon="-20.31673431"><ele>79.3</ele><time>2012-07-20T17:37:39.0000000+00:00</time></trkpt><trkpt lat="64.12846375" lon="-20.3167572"><ele>80.5</ele><time>2012-07-20T17:37:44.0000000+00:00</time></trkpt><trkpt lat="64.12822723" lon="-20.3167038"><ele>83.2</ele><time>2012-07-20T17:37:49.0000000+00:00</time></trkpt><trkpt lat="64.12798309" lon="-20.31658363"><ele>83.7</ele><time>2012-07-20T17:37:54.0000000+00:00</time></trkpt><trkpt lat="64.12774658" lon="-20.3164959"><ele>83.8</ele><time>2012-07-20T17:37:59.0000000+00:00</time></trkpt><trkpt lat="64.1275177" lon="-20.31645775"><ele>82.8</ele><time>2012-07-20T17:38:04.0000000+00:00</time></trkpt><trkpt lat="64.12729645" lon="-20.31649399"><ele>83.6</ele><time>2012-07-20T17:38:09.0000000+00:00</time></trkpt><trkpt lat="64.12709808" lon="-20.31656265"><ele>85.2</ele><time>2012-07-20T17:38:14.0000000+00:00</time></trkpt><trkpt lat="64.12688446" lon="-20.31667519"><ele>86.1</ele><time>2012-07-20T17:38:19.0000000+00:00</time></trkpt><trkpt lat="64.12669373" lon="-20.31684303"><ele>85.2</ele><time>2012-07-20T17:38:24.0000000+00:00</time></trkpt><trkpt lat="64.12649536" lon="-20.31704521"><ele>84.8</ele><time>2012-07-20T17:38:29.0000000+00:00</time></trkpt><trkpt lat="64.12631989" lon="-20.31721306"><ele>85.4</ele><time>2012-07-20T17:38:34.0000000+00:00</time></trkpt><trkpt lat="64.12613678" lon="-20.31736755"><ele>85.9</ele><time>2012-07-20T17:38:39.0000000+00:00</time></trkpt><trkpt lat="64.12591553" lon="-20.31748581"><ele>85.7</ele><time>2012-07-20T17:38:44.0000000+00:00</time></trkpt><trkpt lat="64.12574005" lon="-20.31757164"><ele>85.6</ele><time>2012-07-20T17:38:49.0000000+00:00</time></trkpt><trkpt lat="64.12554932" lon="-20.31761169"><ele>85.2</ele><time>2012-07-20T17:38:54.0000000+00:00</time></trkpt><trkpt lat="64.12534332" lon="-20.31760788"><ele>85.2</ele><time>2012-07-20T17:38:59.0000000+00:00</time></trkpt><trkpt lat="64.12516785" lon="-20.31761551"><ele>85.9</ele><time>2012-07-20T17:39:04.0000000+00:00</time></trkpt><trkpt lat="64.12499237" lon="-20.31759453"><ele>85.1</ele><time>2012-07-20T17:39:09.0000000+00:00</time></trkpt><trkpt lat="64.12480927" lon="-20.31759262"><ele>85.0</ele><time>2012-07-20T17:39:14.0000000+00:00</time></trkpt><trkpt lat="64.12458801" lon="-20.31758308"><ele>85.0</ele><time>2012-07-20T17:39:19.0000000+00:00</time></trkpt><trkpt lat="64.12437439" lon="-20.31757927"><ele>84.7</ele><time>2012-07-20T17:39:24.0000000+00:00</time></trkpt><trkpt lat="64.12416077" lon="-20.31759834"><ele>86.0</ele><time>2012-07-20T17:39:29.0000000+00:00</time></trkpt><trkpt lat="64.12392426" lon="-20.3176136"><ele>86.6</ele><time>2012-07-20T17:39:34.0000000+00:00</time></trkpt><trkpt lat="64.12368774" lon="-20.31760788"><ele>86.7</ele><time>2012-07-20T17:39:39.0000000+00:00</time></trkpt><trkpt lat="64.12348938" lon="-20.31760407"><ele>86.4</ele><time>2012-07-20T17:39:44.0000000+00:00</time></trkpt><trkpt lat="64.12329102" lon="-20.31760597"><ele>86.1</ele><time>2012-07-20T17:39:49.0000000+00:00</time></trkpt><trkpt lat="64.12306213" lon="-20.3176136"><ele>85.6</ele><time>2012-07-20T17:39:54.0000000+00:00</time></trkpt><trkpt lat="64.12284851" lon="-20.31759071"><ele>84.8</ele><time>2012-07-20T17:39:59.0000000+00:00</time></trkpt><trkpt lat="64.12261963" lon="-20.31758499"><ele>84.3</ele><time>2012-07-20T17:40:04.0000000+00:00</time></trkpt><trkpt lat="64.12241364" lon="-20.31756401"><ele>84.1</ele><time>2012-07-20T17:40:09.0000000+00:00</time></trkpt><trkpt lat="64.12220001" lon="-20.31756592"><ele>84.0</ele><time>2012-07-20T17:40:14.0000000+00:00</time></trkpt><trkpt lat="64.12202454" lon="-20.31756592"><ele>84.1</ele><time>2012-07-20T17:40:19.0000000+00:00</time></trkpt><trkpt lat="64.12184143" lon="-20.31756783"><ele>83.8</ele><time>2012-07-20T17:40:24.0000000+00:00</time></trkpt><trkpt lat="64.12162781" lon="-20.31755066"><ele>83.7</ele><time>2012-07-20T17:40:29.0000000+00:00</time></trkpt><trkpt lat="64.12141419" lon="-20.31755638"><ele>84.8</ele><time>2012-07-20T17:40:34.0000000+00:00</time></trkpt><trkpt lat="64.12120056" lon="-20.31756973"><ele>85.1</ele><time>2012-07-20T17:40:39.0000000+00:00</time></trkpt><trkpt lat="64.12104034" lon="-20.31756592"><ele>85.3</ele><time>2012-07-20T17:40:44.0000000+00:00</time></trkpt><trkpt lat="64.12088013" lon="-20.31755066"><ele>85.7</ele><time>2012-07-20T17:40:49.0000000+00:00</time></trkpt><trkpt lat="64.12068939" lon="-20.31753922"><ele>85.5</ele><time>2012-07-20T17:40:54.0000000+00:00</time></trkpt><trkpt lat="64.12046814" lon="-20.31751823"><ele>84.5</ele><time>2012-07-20T17:40:59.0000000+00:00</time></trkpt><trkpt lat="64.12023926" lon="-20.31750488"><ele>84.6</ele><time>2012-07-20T17:41:04.0000000+00:00</time></trkpt><trkpt lat="64.12000275" lon="-20.31750107"><ele>85.2</ele><time>2012-07-20T17:41:09.0000000+00:00</time></trkpt><trkpt lat="64.11981964" lon="-20.31750488"><ele>85.4</ele><time>2012-07-20T17:41:14.0000000+00:00</time></trkpt><trkpt lat="64.11965942" lon="-20.31750679"><ele>86.4</ele><time>2012-07-20T17:41:19.0000000+00:00</time></trkpt><trkpt lat="64.11947632" lon="-20.31751633"><ele>86.8</ele><time>2012-07-20T17:41:24.0000000+00:00</time></trkpt><trkpt lat="64.11929321" lon="-20.31752014"><ele>88.1</ele><time>2012-07-20T17:41:29.0000000+00:00</time></trkpt><trkpt lat="64.11911011" lon="-20.31751061"><ele>89.0</ele><time>2012-07-20T17:41:34.0000000+00:00</time></trkpt><trkpt lat="64.118927" lon="-20.31749344"><ele>88.9</ele><time>2012-07-20T17:41:39.0000000+00:00</time></trkpt><trkpt lat="64.11875153" lon="-20.31748581"><ele>88.0</ele><time>2012-07-20T17:41:44.0000000+00:00</time></trkpt><trkpt lat="64.11856079" lon="-20.31748009"><ele>90.1</ele><time>2012-07-20T17:41:49.0000000+00:00</time></trkpt><trkpt lat="64.11840057" lon="-20.31749725"><ele>91.8</ele><time>2012-07-20T17:41:54.0000000+00:00</time></trkpt><trkpt lat="64.11820984" lon="-20.31751061"><ele>91.9</ele><time>2012-07-20T17:41:59.0000000+00:00</time></trkpt><trkpt lat="64.11803436" lon="-20.31754303"><ele>92.3</ele><time>2012-07-20T17:42:04.0000000+00:00</time></trkpt><trkpt lat="64.11786652" lon="-20.31758308"><ele>93.3</ele><time>2012-07-20T17:42:09.0000000+00:00</time></trkpt><trkpt lat="64.11772156" lon="-20.31762123"><ele>91.6</ele><time>2012-07-20T17:42:14.0000000+00:00</time></trkpt><trkpt lat="64.11755371" lon="-20.31764793"><ele>91.1</ele><time>2012-07-20T17:42:19.0000000+00:00</time></trkpt><trkpt lat="64.11739349" lon="-20.31770897"><ele>91.3</ele><time>2012-07-20T17:42:24.0000000+00:00</time></trkpt><trkpt lat="64.11719513" lon="-20.31778526"><ele>91.5</ele><time>2012-07-20T17:42:29.0000000+00:00</time></trkpt><trkpt lat="64.11699677" lon="-20.31785965"><ele>89.1</ele><time>2012-07-20T17:42:34.0000000+00:00</time></trkpt><trkpt lat="64.11682892" lon="-20.31795502"><ele>89.4</ele><time>2012-07-20T17:42:39.0000000+00:00</time></trkpt><trkpt lat="64.11663055" lon="-20.31804657"><ele>90.0</ele><time>2012-07-20T17:42:44.0000000+00:00</time></trkpt><trkpt lat="64.11642456" lon="-20.31812286"><ele>88.8</ele><time>2012-07-20T17:42:49.0000000+00:00</time></trkpt><trkpt lat="64.11628723" lon="-20.31818962"><ele>88.9</ele><time>2012-07-20T17:42:54.0000000+00:00</time></trkpt><trkpt lat="64.11611939" lon="-20.31826401"><ele>88.4</ele><time>2012-07-20T17:42:59.0000000+00:00</time></trkpt><trkpt lat="64.11595154" lon="-20.31833839"><ele>88.2</ele><time>2012-07-20T17:43:04.0000000+00:00</time></trkpt><trkpt lat="64.11582947" lon="-20.31837273"><ele>87.4</ele><time>2012-07-20T17:43:09.0000000+00:00</time></trkpt><trkpt lat="64.11572266" lon="-20.31843758"><ele>87.4</ele><time>2012-07-20T17:43:14.0000000+00:00</time></trkpt><trkpt lat="64.1155777" lon="-20.31851006"><ele>86.5</ele><time>2012-07-20T17:43:19.0000000+00:00</time></trkpt><trkpt lat="64.11539459" lon="-20.31860733"><ele>87.9</ele><time>2012-07-20T17:43:24.0000000+00:00</time></trkpt><trkpt lat="64.11521149" lon="-20.31869316"><ele>88.0</ele><time>2012-07-20T17:43:29.0000000+00:00</time></trkpt><trkpt lat="64.11501312" lon="-20.31878281"><ele>88.2</ele><time>2012-07-20T17:43:34.0000000+00:00</time></trkpt><trkpt lat="64.11485291" lon="-20.31884766"><ele>87.6</ele><time>2012-07-20T17:43:39.0000000+00:00</time></trkpt><trkpt lat="64.11467743" lon="-20.31892014"><ele>87.5</ele><time>2012-07-20T17:43:44.0000000+00:00</time></trkpt><trkpt lat="64.11448669" lon="-20.31899643"><ele>89.4</ele><time>2012-07-20T17:43:49.0000000+00:00</time></trkpt><trkpt lat="64.11431122" lon="-20.31908798"><ele>91.3</ele><time>2012-07-20T17:43:54.0000000+00:00</time></trkpt><trkpt lat="64.11413574" lon="-20.31916046"><ele>91.8</ele><time>2012-07-20T17:43:59.0000000+00:00</time></trkpt><trkpt lat="64.11393738" lon="-20.31922913"><ele>92.1</ele><time>2012-07-20T17:44:04.0000000+00:00</time></trkpt><trkpt lat="64.11377716" lon="-20.31931114"><ele>92.0</ele><time>2012-07-20T17:44:09.0000000+00:00</time></trkpt><trkpt lat="64.11359406" lon="-20.31941223"><ele>92.4</ele><time>2012-07-20T17:44:14.0000000+00:00</time></trkpt><trkpt lat="64.11343384" lon="-20.31953812"><ele>91.6</ele><time>2012-07-20T17:44:19.0000000+00:00</time></trkpt><trkpt lat="64.11329651" lon="-20.31963921"><ele>92.9</ele><time>2012-07-20T17:44:24.0000000+00:00</time></trkpt><trkpt lat="64.11313629" lon="-20.31978035"><ele>93.6</ele><time>2012-07-20T17:44:29.0000000+00:00</time></trkpt><trkpt lat="64.1129837" lon="-20.31993675"><ele>94.6</ele><time>2012-07-20T17:44:34.0000000+00:00</time></trkpt><trkpt lat="64.11283875" lon="-20.32011032"><ele>94.5</ele><time>2012-07-20T17:44:39.0000000+00:00</time></trkpt><trkpt lat="64.11268616" lon="-20.32030869"><ele>94.6</ele><time>2012-07-20T17:44:44.0000000+00:00</time></trkpt><trkpt lat="64.11255646" lon="-20.32048988"><ele>94.8</ele><time>2012-07-20T17:44:49.0000000+00:00</time></trkpt><trkpt lat="64.11247253" lon="-20.32057381"><ele>94.9</ele><time>2012-07-20T17:44:54.0000000+00:00</time></trkpt><trkpt lat="64.11245728" lon="-20.32058334"><ele>94.9</ele><time>2012-07-20T17:44:59.0000000+00:00</time></trkpt><trkpt lat="64.11245728" lon="-20.32058334"><ele>95.0</ele><time>2012-07-20T17:45:04.0000000+00:00</time></trkpt><trkpt lat="64.11243439" lon="-20.32063103"><ele>95.3</ele><time>2012-07-20T17:45:09.0000000+00:00</time></trkpt><trkpt lat="64.11233521" lon="-20.32079315"><ele>95.5</ele><time>2012-07-20T17:45:14.0000000+00:00</time></trkpt><trkpt lat="64.11219025" lon="-20.32099152"><ele>94.1</ele><time>2012-07-20T17:45:19.0000000+00:00</time></trkpt><trkpt lat="64.11206818" lon="-20.32116127"><ele>94.0</ele><time>2012-07-20T17:45:24.0000000+00:00</time></trkpt><trkpt lat="64.11195374" lon="-20.3213234"><ele>94.2</ele><time>2012-07-20T17:45:29.0000000+00:00</time></trkpt><trkpt lat="64.11182404" lon="-20.32152557"><ele>94.6</ele><time>2012-07-20T17:45:34.0000000+00:00</time></trkpt><trkpt lat="64.11169434" lon="-20.32168961"><ele>94.2</ele><time>2012-07-20T17:45:39.0000000+00:00</time></trkpt><trkpt lat="64.1115799" lon="-20.32182884"><ele>93.9</ele><time>2012-07-20T17:45:44.0000000+00:00</time></trkpt><trkpt lat="64.1114502" lon="-20.32202721"><ele>94.8</ele><time>2012-07-20T17:45:49.0000000+00:00</time></trkpt><trkpt lat="64.11135101" lon="-20.32217217"><ele>94.5</ele><time>2012-07-20T17:45:54.0000000+00:00</time></trkpt><trkpt lat="64.11133575" lon="-20.32217217"><ele>94.4</ele><time>2012-07-20T17:45:59.0000000+00:00</time></trkpt><trkpt lat="64.11133575" lon="-20.32217407"><ele>94.5</ele><time>2012-07-20T17:46:04.0000000+00:00</time></trkpt><trkpt lat="64.11133575" lon="-20.32217407"><ele>94.5</ele><time>2012-07-20T17:46:09.0000000+00:00</time></trkpt><trkpt lat="64.11133575" lon="-20.32217217"><ele>94.4</ele><time>2012-07-20T17:46:14.0000000+00:00</time></trkpt><trkpt lat="64.11133575" lon="-20.32217217"><ele>94.3</ele><time>2012-07-20T17:46:19.0000000+00:00</time></trkpt><trkpt lat="64.11133575" lon="-20.32217217"><ele>94.2</ele><time>2012-07-20T17:46:24.0000000+00:00</time></trkpt><trkpt lat="64.11133575" lon="-20.32217217"><ele>94.2</ele><time>2012-07-20T17:46:29.0000000+00:00</time></trkpt><trkpt lat="64.11133575" lon="-20.32217026"><ele>94.2</ele><time>2012-07-20T17:46:34.0000000+00:00</time></trkpt><trkpt lat="64.11133575" lon="-20.32217026"><ele>94.2</ele><time>2012-07-20T17:46:39.0000000+00:00</time></trkpt><trkpt lat="64.11133575" lon="-20.32217026"><ele>94.2</ele><time>2012-07-20T17:46:44.0000000+00:00</time></trkpt><trkpt lat="64.11133575" lon="-20.32217026"><ele>94.2</ele><time>2012-07-20T17:46:49.0000000+00:00</time></trkpt><trkpt lat="64.11133575" lon="-20.32216835"><ele>94.1</ele><time>2012-07-20T17:46:54.0000000+00:00</time></trkpt><trkpt lat="64.1113205" lon="-20.3221817"><ele>94.4</ele><time>2012-07-20T17:46:59.0000000+00:00</time></trkpt><trkpt lat="64.11122131" lon="-20.32232094"><ele>94.8</ele><time>2012-07-20T17:47:04.0000000+00:00</time></trkpt><trkpt lat="64.11113739" lon="-20.32244682"><ele>95.1</ele><time>2012-07-20T17:47:09.0000000+00:00</time></trkpt><trkpt lat="64.11103821" lon="-20.32257462"><ele>94.9</ele><time>2012-07-20T17:47:14.0000000+00:00</time></trkpt><trkpt lat="64.11095429" lon="-20.32269669"><ele>95.6</ele><time>2012-07-20T17:47:19.0000000+00:00</time></trkpt><trkpt lat="64.1108551" lon="-20.322855"><ele>96.6</ele><time>2012-07-20T17:47:24.0000000+00:00</time></trkpt><trkpt lat="64.11077118" lon="-20.32297134"><ele>96.9</ele><time>2012-07-20T17:47:29.0000000+00:00</time></trkpt><trkpt lat="64.1107254" lon="-20.32303619"><ele>97.5</ele><time>2012-07-20T17:47:34.0000000+00:00</time></trkpt><trkpt lat="64.1107254" lon="-20.32303429"><ele>97.5</ele><time>2012-07-20T17:47:39.0000000+00:00</time></trkpt><trkpt lat="64.1107254" lon="-20.32303429"><ele>97.6</ele><time>2012-07-20T17:47:44.0000000+00:00</time></trkpt><trkpt lat="64.1107254" lon="-20.32303429"><ele>97.6</ele><time>2012-07-20T17:47:49.0000000+00:00</time></trkpt><trkpt lat="64.1107254" lon="-20.32303429"><ele>97.5</ele><time>2012-07-20T17:47:54.0000000+00:00</time></trkpt><trkpt lat="64.1107254" lon="-20.32303429"><ele>97.5</ele><time>2012-07-20T17:47:59.0000000+00:00</time></trkpt><trkpt lat="64.11071014" lon="-20.32304764"><ele>97.4</ele><time>2012-07-20T17:48:04.0000000+00:00</time></trkpt><trkpt lat="64.11057282" lon="-20.32323837"><ele>97.8</ele><time>2012-07-20T17:48:09.0000000+00:00</time></trkpt><trkpt lat="64.1104126" lon="-20.32345772"><ele>97.4</ele><time>2012-07-20T17:48:14.0000000+00:00</time></trkpt><trkpt lat="64.11026001" lon="-20.3236599"><ele>97.1</ele><time>2012-07-20T17:48:19.0000000+00:00</time></trkpt><trkpt lat="64.11009979" lon="-20.32387543"><ele>96.6</ele><time>2012-07-20T17:48:24.0000000+00:00</time></trkpt><trkpt lat="64.10993195" lon="-20.32411003"><ele>96.2</ele><time>2012-07-20T17:48:29.0000000+00:00</time></trkpt><trkpt lat="64.10977173" lon="-20.32433319"><ele>95.6</ele><time>2012-07-20T17:48:34.0000000+00:00</time></trkpt><trkpt lat="64.10958862" lon="-20.32456589"><ele>95.0</ele><time>2012-07-20T17:48:39.0000000+00:00</time></trkpt><trkpt lat="64.10942841" lon="-20.32478333"><ele>95.0</ele><time>2012-07-20T17:48:44.0000000+00:00</time></trkpt><trkpt lat="64.10923767" lon="-20.3250351"><ele>95.0</ele><time>2012-07-20T17:48:49.0000000+00:00</time></trkpt><trkpt lat="64.10904694" lon="-20.3252964"><ele>94.9</ele><time>2012-07-20T17:48:54.0000000+00:00</time></trkpt><trkpt lat="64.1088562" lon="-20.32557869"><ele>95.8</ele><time>2012-07-20T17:48:59.0000000+00:00</time></trkpt><trkpt lat="64.10866547" lon="-20.32582474"><ele>95.0</ele><time>2012-07-20T17:49:04.0000000+00:00</time></trkpt><trkpt lat="64.1084671" lon="-20.3260994"><ele>95.2</ele><time>2012-07-20T17:49:09.0000000+00:00</time></trkpt><trkpt lat="64.10826874" lon="-20.32635498"><ele>94.8</ele><time>2012-07-20T17:49:14.0000000+00:00</time></trkpt><trkpt lat="64.10810089" lon="-20.32657814"><ele>94.2</ele><time>2012-07-20T17:49:19.0000000+00:00</time></trkpt><trkpt lat="64.10791779" lon="-20.32683754"><ele>93.4</ele><time>2012-07-20T17:49:24.0000000+00:00</time></trkpt><trkpt lat="64.10777283" lon="-20.32703972"><ele>93.9</ele><time>2012-07-20T17:49:29.0000000+00:00</time></trkpt><trkpt lat="64.10762787" lon="-20.32722855"><ele>94.6</ele><time>2012-07-20T17:49:34.0000000+00:00</time></trkpt><trkpt lat="64.10747528" lon="-20.32743263"><ele>95.0</ele><time>2012-07-20T17:49:39.0000000+00:00</time></trkpt><trkpt lat="64.10731506" lon="-20.32764053"><ele>96.4</ele><time>2012-07-20T17:49:44.0000000+00:00</time></trkpt><trkpt lat="64.10716248" lon="-20.32785225"><ele>96.6</ele><time>2012-07-20T17:49:49.0000000+00:00</time></trkpt><trkpt lat="64.10704041" lon="-20.32803345"><ele>97.4</ele><time>2012-07-20T17:49:54.0000000+00:00</time></trkpt><trkpt lat="64.10689545" lon="-20.32823181"><ele>97.8</ele><time>2012-07-20T17:49:59.0000000+00:00</time></trkpt><trkpt lat="64.10675049" lon="-20.32843208"><ele>98.0</ele><time>2012-07-20T17:50:04.0000000+00:00</time></trkpt><trkpt lat="64.10664368" lon="-20.32854652"><ele>98.8</ele><time>2012-07-20T17:50:09.0000000+00:00</time></trkpt><trkpt lat="64.10653687" lon="-20.32870102"><ele>99.5</ele><time>2012-07-20T17:50:14.0000000+00:00</time></trkpt><trkpt lat="64.10639954" lon="-20.32888031"><ele>100.4</ele><time>2012-07-20T17:50:19.0000000+00:00</time></trkpt><trkpt lat="64.10632324" lon="-20.32897186"><ele>101.3</ele><time>2012-07-20T17:50:24.0000000+00:00</time></trkpt><trkpt lat="64.10623169" lon="-20.32908249"><ele>101.9</ele><time>2012-07-20T17:50:29.0000000+00:00</time></trkpt><trkpt lat="64.10612488" lon="-20.32922363"><ele>103.0</ele><time>2012-07-20T17:50:34.0000000+00:00</time></trkpt><trkpt lat="64.10601044" lon="-20.32937813"><ele>103.6</ele><time>2012-07-20T17:50:39.0000000+00:00</time></trkpt><trkpt lat="64.10591126" lon="-20.32948685"><ele>104.5</ele><time>2012-07-20T17:50:44.0000000+00:00</time></trkpt><trkpt lat="64.1058197" lon="-20.32958603"><ele>105.4</ele><time>2012-07-20T17:50:49.0000000+00:00</time></trkpt><trkpt lat="64.10569" lon="-20.32972717"><ele>106.2</ele><time>2012-07-20T17:50:54.0000000+00:00</time></trkpt><trkpt lat="64.10557556" lon="-20.32986069"><ele>107.4</ele><time>2012-07-20T17:50:59.0000000+00:00</time></trkpt><trkpt lat="64.10547638" lon="-20.32995033"><ele>108.6</ele><time>2012-07-20T17:51:04.0000000+00:00</time></trkpt><trkpt lat="64.10536957" lon="-20.3300724"><ele>109.6</ele><time>2012-07-20T17:51:09.0000000+00:00</time></trkpt><trkpt lat="64.10527802" lon="-20.3301487"><ele>110.9</ele><time>2012-07-20T17:51:14.0000000+00:00</time></trkpt><trkpt lat="64.1051712" lon="-20.33024216"><ele>112.1</ele><time>2012-07-20T17:51:19.0000000+00:00</time></trkpt><trkpt lat="64.10504913" lon="-20.33033371"><ele>113.7</ele><time>2012-07-20T17:51:24.0000000+00:00</time></trkpt><trkpt lat="64.1049118" lon="-20.33042717"><ele>115.2</ele><time>2012-07-20T17:51:29.0000000+00:00</time></trkpt><trkpt lat="64.10480499" lon="-20.33048248"><ele>116.8</ele><time>2012-07-20T17:51:34.0000000+00:00</time></trkpt><trkpt lat="64.10470581" lon="-20.33052254"><ele>119.1</ele><time>2012-07-20T17:51:39.0000000+00:00</time></trkpt><trkpt lat="64.10457611" lon="-20.33057022"><ele>122.2</ele><time>2012-07-20T17:51:44.0000000+00:00</time></trkpt><trkpt lat="64.10444641" lon="-20.33063889"><ele>120.3</ele><time>2012-07-20T17:51:49.0000000+00:00</time></trkpt><trkpt lat="64.10437012" lon="-20.3306694"><ele>120.7</ele><time>2012-07-20T17:51:54.0000000+00:00</time></trkpt><trkpt lat="64.10424042" lon="-20.33069611"><ele>121.8</ele><time>2012-07-20T17:51:59.0000000+00:00</time></trkpt><trkpt lat="64.1040802" lon="-20.33072281"><ele>121.7</ele><time>2012-07-20T17:52:04.0000000+00:00</time></trkpt><trkpt lat="64.10390472" lon="-20.33073044"><ele>123.2</ele><time>2012-07-20T17:52:09.0000000+00:00</time></trkpt><trkpt lat="64.10375214" lon="-20.33073807"><ele>124.0</ele><time>2012-07-20T17:52:14.0000000+00:00</time></trkpt><trkpt lat="64.10363007" lon="-20.33075142"><ele>122.7</ele><time>2012-07-20T17:52:19.0000000+00:00</time></trkpt><trkpt lat="64.10347748" lon="-20.33070755"><ele>119.9</ele><time>2012-07-20T17:52:24.0000000+00:00</time></trkpt><trkpt lat="64.103302" lon="-20.33066368"><ele>118.9</ele><time>2012-07-20T17:52:29.0000000+00:00</time></trkpt><trkpt lat="64.10314179" lon="-20.330616"><ele>118.1</ele><time>2012-07-20T17:52:34.0000000+00:00</time></trkpt><trkpt lat="64.10297394" lon="-20.33050346"><ele>115.5</ele><time>2012-07-20T17:52:39.0000000+00:00</time></trkpt><trkpt lat="64.10283661" lon="-20.33041"><ele>113.1</ele><time>2012-07-20T17:52:44.0000000+00:00</time></trkpt><trkpt lat="64.1027298" lon="-20.33033752"><ele>112.6</ele><time>2012-07-20T17:52:49.0000000+00:00</time></trkpt><trkpt lat="64.10259247" lon="-20.33024025"><ele>111.0</ele><time>2012-07-20T17:52:54.0000000+00:00</time></trkpt><trkpt lat="64.1025238" lon="-20.33019066"><ele>111.2</ele><time>2012-07-20T17:52:59.0000000+00:00</time></trkpt><trkpt lat="64.10253143" lon="-20.33018494"><ele>112.0</ele><time>2012-07-20T17:53:04.0000000+00:00</time></trkpt><trkpt lat="64.10253143" lon="-20.33018494"><ele>111.9</ele><time>2012-07-20T17:53:09.0000000+00:00</time></trkpt><trkpt lat="64.10253143" lon="-20.33018303"><ele>111.9</ele><time>2012-07-20T17:53:14.0000000+00:00</time></trkpt><trkpt lat="64.10253143" lon="-20.33018303"><ele>111.8</ele><time>2012-07-20T17:53:19.0000000+00:00</time></trkpt><trkpt lat="64.10253143" lon="-20.33018303"><ele>111.9</ele><time>2012-07-20T17:53:24.0000000+00:00</time></trkpt><trkpt lat="64.10253143" lon="-20.33018494"><ele>111.9</ele><time>2012-07-20T17:53:29.0000000+00:00</time></trkpt><trkpt lat="64.10253143" lon="-20.33018684"><ele>111.9</ele><time>2012-07-20T17:53:34.0000000+00:00</time></trkpt><trkpt lat="64.10253143" lon="-20.33018494"><ele>111.9</ele><time>2012-07-20T17:53:39.0000000+00:00</time></trkpt><trkpt lat="64.10253143" lon="-20.33018494"><ele>111.9</ele><time>2012-07-20T17:53:44.0000000+00:00</time></trkpt><trkpt lat="64.10253143" lon="-20.33018494"><ele>111.9</ele><time>2012-07-20T17:53:49.0000000+00:00</time></trkpt><trkpt lat="64.10253143" lon="-20.33018494"><ele>111.9</ele><time>2012-07-20T17:53:54.0000000+00:00</time></trkpt><trkpt lat="64.10253143" lon="-20.33018494"><ele>111.8</ele><time>2012-07-20T17:53:59.0000000+00:00</time></trkpt><trkpt lat="64.10253143" lon="-20.33018494"><ele>111.8</ele><time>2012-07-20T17:54:04.0000000+00:00</time></trkpt><trkpt lat="64.10253143" lon="-20.33018494"><ele>111.8</ele><time>2012-07-20T17:54:09.0000000+00:00</time></trkpt><trkpt lat="64.10253143" lon="-20.33018494"><ele>111.8</ele><time>2012-07-20T17:54:14.0000000+00:00</time></trkpt><trkpt lat="64.10253143" lon="-20.33018494"><ele>111.8</ele><time>2012-07-20T17:54:19.0000000+00:00</time></trkpt><trkpt lat="64.10253143" lon="-20.33018494"><ele>111.8</ele><time>2012-07-20T17:54:24.0000000+00:00</time></trkpt><trkpt lat="64.10253143" lon="-20.33018494"><ele>111.8</ele><time>2012-07-20T17:54:29.0000000+00:00</time></trkpt><trkpt lat="64.10253143" lon="-20.33018494"><ele>111.8</ele><time>2012-07-20T17:54:34.0000000+00:00</time></trkpt><trkpt lat="64.10253143" lon="-20.33018494"><ele>111.8</ele><time>2012-07-20T17:54:39.0000000+00:00</time></trkpt><trkpt lat="64.10253143" lon="-20.33018494"><ele>111.8</ele><time>2012-07-20T17:54:44.0000000+00:00</time></trkpt><trkpt lat="64.10253143" lon="-20.33018494"><ele>111.8</ele><time>2012-07-20T17:54:49.0000000+00:00</time></trkpt><trkpt lat="64.10253143" lon="-20.33018494"><ele>111.7</ele><time>2012-07-20T17:54:54.0000000+00:00</time></trkpt><trkpt lat="64.10253143" lon="-20.33018494"><ele>111.7</ele><time>2012-07-20T17:54:59.0000000+00:00</time></trkpt><trkpt lat="64.10253143" lon="-20.33018494"><ele>111.7</ele><time>2012-07-20T17:55:04.0000000+00:00</time></trkpt><trkpt lat="64.10253143" lon="-20.33018494"><ele>111.7</ele><time>2012-07-20T17:55:09.0000000+00:00</time></trkpt><trkpt lat="64.10253143" lon="-20.33018684"><ele>111.7</ele><time>2012-07-20T17:55:14.0000000+00:00</time></trkpt><trkpt lat="64.10253143" lon="-20.33018684"><ele>111.7</ele><time>2012-07-20T17:55:19.0000000+00:00</time></trkpt><trkpt lat="64.10253143" lon="-20.33018684"><ele>111.7</ele><time>2012-07-20T17:55:24.0000000+00:00</time></trkpt><trkpt lat="64.10253143" lon="-20.33018684"><ele>111.7</ele><time>2012-07-20T17:55:29.0000000+00:00</time></trkpt><trkpt lat="64.10253143" lon="-20.33018684"><ele>111.7</ele><time>2012-07-20T17:55:34.0000000+00:00</time></trkpt><trkpt lat="64.10251617" lon="-20.33016586"><ele>111.5</ele><time>2012-07-20T17:55:39.0000000+00:00</time></trkpt><trkpt lat="64.10240936" lon="-20.33008003"><ele>110.9</ele><time>2012-07-20T17:55:44.0000000+00:00</time></trkpt><trkpt lat="64.10230255" lon="-20.33000946"><ele>110.8</ele><time>2012-07-20T17:55:49.0000000+00:00</time></trkpt><trkpt lat="64.10215759" lon="-20.32990265"><ele>111.6</ele><time>2012-07-20T17:55:54.0000000+00:00</time></trkpt><trkpt lat="64.10200501" lon="-20.32980347"><ele>112.8</ele><time>2012-07-20T17:55:59.0000000+00:00</time></trkpt><trkpt lat="64.10187531" lon="-20.32970047"><ele>111.0</ele><time>2012-07-20T17:56:04.0000000+00:00</time></trkpt><trkpt lat="64.10176086" lon="-20.32959747"><ele>109.9</ele><time>2012-07-20T17:56:09.0000000+00:00</time></trkpt><trkpt lat="64.10163117" lon="-20.32949638"><ele>109.6</ele><time>2012-07-20T17:56:14.0000000+00:00</time></trkpt><trkpt lat="64.10147858" lon="-20.32940102"><ele>108.2</ele><time>2012-07-20T17:56:19.0000000+00:00</time></trkpt><trkpt lat="64.10132599" lon="-20.32928467"><ele>108.7</ele><time>2012-07-20T17:56:24.0000000+00:00</time></trkpt><trkpt lat="64.10118103" lon="-20.32916641"><ele>110.8</ele><time>2012-07-20T17:56:29.0000000+00:00</time></trkpt><trkpt lat="64.10102081" lon="-20.32905006"><ele>109.1</ele><time>2012-07-20T17:56:34.0000000+00:00</time></trkpt><trkpt lat="64.10083008" lon="-20.32891464"><ele>105.7</ele><time>2012-07-20T17:56:39.0000000+00:00</time></trkpt><trkpt lat="64.10060883" lon="-20.32874107"><ele>102.4</ele><time>2012-07-20T17:56:44.0000000+00:00</time></trkpt><trkpt lat="64.10035706" lon="-20.32852173"><ele>100.3</ele><time>2012-07-20T17:56:49.0000000+00:00</time></trkpt><trkpt lat="64.10005188" lon="-20.32827759"><ele>96.2</ele><time>2012-07-20T17:56:54.0000000+00:00</time></trkpt><trkpt lat="64.09973908" lon="-20.32802963"><ele>95.4</ele><time>2012-07-20T17:56:59.0000000+00:00</time></trkpt><trkpt lat="64.09938812" lon="-20.32774162"><ele>94.2</ele><time>2012-07-20T17:57:04.0000000+00:00</time></trkpt><trkpt lat="64.09902191" lon="-20.32746506"><ele>93.2</ele><time>2012-07-20T17:57:09.0000000+00:00</time></trkpt><trkpt lat="64.09868622" lon="-20.32721329"><ele>93.4</ele><time>2012-07-20T17:57:14.0000000+00:00</time></trkpt><trkpt lat="64.09838867" lon="-20.32697296"><ele>93.9</ele><time>2012-07-20T17:57:19.0000000+00:00</time></trkpt><trkpt lat="64.09814453" lon="-20.32679558"><ele>95.6</ele><time>2012-07-20T17:57:24.0000000+00:00</time></trkpt><trkpt lat="64.09790802" lon="-20.32662392"><ele>100.1</ele><time>2012-07-20T17:57:29.0000000+00:00</time></trkpt><trkpt lat="64.09768677" lon="-20.32642746"><ele>102.8</ele><time>2012-07-20T17:57:34.0000000+00:00</time></trkpt><trkpt lat="64.09750366" lon="-20.3262825"><ele>104.5</ele><time>2012-07-20T17:57:39.0000000+00:00</time></trkpt><trkpt lat="64.09728241" lon="-20.32614327"><ele>102.4</ele><time>2012-07-20T17:57:44.0000000+00:00</time></trkpt><trkpt lat="64.0970459" lon="-20.32593536"><ele>100.9</ele><time>2012-07-20T17:57:49.0000000+00:00</time></trkpt><trkpt lat="64.09682465" lon="-20.32576942"><ele>102.3</ele><time>2012-07-20T17:57:54.0000000+00:00</time></trkpt><trkpt lat="64.09661865" lon="-20.32562447"><ele>103.9</ele><time>2012-07-20T17:57:59.0000000+00:00</time></trkpt><trkpt lat="64.0963974" lon="-20.32546043"><ele>104.9</ele><time>2012-07-20T17:58:04.0000000+00:00</time></trkpt><trkpt lat="64.09617615" lon="-20.32528687"><ele>103.3</ele><time>2012-07-20T17:58:09.0000000+00:00</time></trkpt><trkpt lat="64.09597015" lon="-20.3251133"><ele>104.0</ele><time>2012-07-20T17:58:14.0000000+00:00</time></trkpt><trkpt lat="64.09574127" lon="-20.32494354"><ele>105.0</ele><time>2012-07-20T17:58:19.0000000+00:00</time></trkpt><trkpt lat="64.09553528" lon="-20.3248024"><ele>104.9</ele><time>2012-07-20T17:58:24.0000000+00:00</time></trkpt><trkpt lat="64.09532166" lon="-20.32463074"><ele>107.6</ele><time>2012-07-20T17:58:29.0000000+00:00</time></trkpt><trkpt lat="64.09512329" lon="-20.32446861"><ele>106.7</ele><time>2012-07-20T17:58:34.0000000+00:00</time></trkpt><trkpt lat="64.09490204" lon="-20.32429886"><ele>107.2</ele><time>2012-07-20T17:58:39.0000000+00:00</time></trkpt><trkpt lat="64.09470367" lon="-20.32415962"><ele>109.2</ele><time>2012-07-20T17:58:44.0000000+00:00</time></trkpt><trkpt lat="64.09450531" lon="-20.32401085"><ele>108.9</ele><time>2012-07-20T17:58:49.0000000+00:00</time></trkpt><trkpt lat="64.09428406" lon="-20.32385445"><ele>111.3</ele><time>2012-07-20T17:58:54.0000000+00:00</time></trkpt><trkpt lat="64.09409332" lon="-20.32373238"><ele>109.9</ele><time>2012-07-20T17:58:59.0000000+00:00</time></trkpt><trkpt lat="64.09384918" lon="-20.32356453"><ele>108.5</ele><time>2012-07-20T17:59:04.0000000+00:00</time></trkpt><trkpt lat="64.0936203" lon="-20.32341766"><ele>108.8</ele><time>2012-07-20T17:59:09.0000000+00:00</time></trkpt><trkpt lat="64.0933609" lon="-20.32323265"><ele>109.0</ele><time>2012-07-20T17:59:14.0000000+00:00</time></trkpt><trkpt lat="64.09313965" lon="-20.32309914"><ele>109.1</ele><time>2012-07-20T17:59:19.0000000+00:00</time></trkpt><trkpt lat="64.09292603" lon="-20.3229847"><ele>109.6</ele><time>2012-07-20T17:59:24.0000000+00:00</time></trkpt><trkpt lat="64.09272766" lon="-20.32285881"><ele>108.9</ele><time>2012-07-20T17:59:29.0000000+00:00</time></trkpt><trkpt lat="64.09251404" lon="-20.322752"><ele>111.1</ele><time>2012-07-20T17:59:34.0000000+00:00</time></trkpt><trkpt lat="64.0923233" lon="-20.32264137"><ele>111.6</ele><time>2012-07-20T17:59:39.0000000+00:00</time></trkpt><trkpt lat="64.09214783" lon="-20.32252693"><ele>113.1</ele><time>2012-07-20T17:59:44.0000000+00:00</time></trkpt><trkpt lat="64.09195709" lon="-20.32244682"><ele>113.6</ele><time>2012-07-20T17:59:49.0000000+00:00</time></trkpt><trkpt lat="64.0917511" lon="-20.32233238"><ele>113.8</ele><time>2012-07-20T17:59:54.0000000+00:00</time></trkpt><trkpt lat="64.09153748" lon="-20.32224083"><ele>113.4</ele><time>2012-07-20T17:59:59.0000000+00:00</time></trkpt><trkpt lat="64.09133148" lon="-20.32214165"><ele>112.9</ele><time>2012-07-20T18:00:04.0000000+00:00</time></trkpt><trkpt lat="64.09113312" lon="-20.32204437"><ele>110.0</ele><time>2012-07-20T18:00:09.0000000+00:00</time></trkpt><trkpt lat="64.09092712" lon="-20.3219471"><ele>108.2</ele><time>2012-07-20T18:00:14.0000000+00:00</time></trkpt><trkpt lat="64.0907135" lon="-20.3218441"><ele>108.2</ele><time>2012-07-20T18:00:19.0000000+00:00</time></trkpt><trkpt lat="64.09052277" lon="-20.32174873"><ele>109.7</ele><time>2012-07-20T18:00:24.0000000+00:00</time></trkpt><trkpt lat="64.09031677" lon="-20.32166481"><ele>112.5</ele><time>2012-07-20T18:00:29.0000000+00:00</time></trkpt><trkpt lat="64.09011841" lon="-20.32155037"><ele>113.3</ele><time>2012-07-20T18:00:34.0000000+00:00</time></trkpt><trkpt lat="64.08991242" lon="-20.32144547"><ele>112.1</ele><time>2012-07-20T18:00:39.0000000+00:00</time></trkpt><trkpt lat="64.08971405" lon="-20.32136154"><ele>109.2</ele><time>2012-07-20T18:00:44.0000000+00:00</time></trkpt><trkpt lat="64.08952332" lon="-20.3212719"><ele>109.3</ele><time>2012-07-20T18:00:49.0000000+00:00</time></trkpt><trkpt lat="64.08932495" lon="-20.32118797"><ele>110.5</ele><time>2012-07-20T18:00:54.0000000+00:00</time></trkpt><trkpt lat="64.08911133" lon="-20.32107353"><ele>111.5</ele><time>2012-07-20T18:00:59.0000000+00:00</time></trkpt><trkpt lat="64.08890533" lon="-20.32098579"><ele>111.0</ele><time>2012-07-20T18:01:04.0000000+00:00</time></trkpt><trkpt lat="64.08869171" lon="-20.32089424"><ele>111.5</ele><time>2012-07-20T18:01:09.0000000+00:00</time></trkpt><trkpt lat="64.08844757" lon="-20.32075691"><ele>109.9</ele><time>2012-07-20T18:01:14.0000000+00:00</time></trkpt><trkpt lat="64.08821869" lon="-20.32064819"><ele>108.1</ele><time>2012-07-20T18:01:19.0000000+00:00</time></trkpt><trkpt lat="64.08798981" lon="-20.3205452"><ele>110.0</ele><time>2012-07-20T18:01:24.0000000+00:00</time></trkpt><trkpt lat="64.08774567" lon="-20.32043839"><ele>108.5</ele><time>2012-07-20T18:01:29.0000000+00:00</time></trkpt><trkpt lat="64.08753204" lon="-20.32034683"><ele>110.0</ele><time>2012-07-20T18:01:34.0000000+00:00</time></trkpt><trkpt lat="64.08731842" lon="-20.32022858"><ele>113.6</ele><time>2012-07-20T18:01:39.0000000+00:00</time></trkpt><trkpt lat="64.08712769" lon="-20.32011795"><ele>110.1</ele><time>2012-07-20T18:01:44.0000000+00:00</time></trkpt><trkpt lat="64.08691406" lon="-20.31999397"><ele>110.1</ele><time>2012-07-20T18:01:49.0000000+00:00</time></trkpt><trkpt lat="64.08669281" lon="-20.31988907"><ele>109.5</ele><time>2012-07-20T18:01:54.0000000+00:00</time></trkpt><trkpt lat="64.08648682" lon="-20.31980705"><ele>110.2</ele><time>2012-07-20T18:01:59.0000000+00:00</time></trkpt><trkpt lat="64.08625031" lon="-20.31970406"><ele>110.5</ele><time>2012-07-20T18:02:04.0000000+00:00</time></trkpt><trkpt lat="64.08599091" lon="-20.31959915"><ele>109.3</ele><time>2012-07-20T18:02:09.0000000+00:00</time></trkpt><trkpt lat="64.08573914" lon="-20.3194561"><ele>108.1</ele><time>2012-07-20T18:02:14.0000000+00:00</time></trkpt><trkpt lat="64.08547211" lon="-20.31932449"><ele>106.3</ele><time>2012-07-20T18:02:19.0000000+00:00</time></trkpt><trkpt lat="64.08520508" lon="-20.31920815"><ele>106.9</ele><time>2012-07-20T18:02:24.0000000+00:00</time></trkpt><trkpt lat="64.08493805" lon="-20.31910133"><ele>107.0</ele><time>2012-07-20T18:02:29.0000000+00:00</time></trkpt><trkpt lat="64.08469391" lon="-20.31898117"><ele>107.3</ele><time>2012-07-20T18:02:34.0000000+00:00</time></trkpt><trkpt lat="64.08446503" lon="-20.31883431"><ele>107.2</ele><time>2012-07-20T18:02:39.0000000+00:00</time></trkpt><trkpt lat="64.0842514" lon="-20.31874657"><ele>108.2</ele><time>2012-07-20T18:02:44.0000000+00:00</time></trkpt><trkpt lat="64.08402252" lon="-20.3186512"><ele>108.2</ele><time>2012-07-20T18:02:49.0000000+00:00</time></trkpt><trkpt lat="64.08380127" lon="-20.31855774"><ele>109.0</ele><time>2012-07-20T18:02:54.0000000+00:00</time></trkpt><trkpt lat="64.08357239" lon="-20.31850052"><ele>108.6</ele><time>2012-07-20T18:02:59.0000000+00:00</time></trkpt><trkpt lat="64.08336639" lon="-20.31845856"><ele>108.8</ele><time>2012-07-20T18:03:04.0000000+00:00</time></trkpt><trkpt lat="64.08319092" lon="-20.31842232"><ele>110.1</ele><time>2012-07-20T18:03:09.0000000+00:00</time></trkpt><trkpt lat="64.08304596" lon="-20.31838608"><ele>110.6</ele><time>2012-07-20T18:03:14.0000000+00:00</time></trkpt><trkpt lat="64.08287811" lon="-20.31837273"><ele>111.3</ele><time>2012-07-20T18:03:19.0000000+00:00</time></trkpt><trkpt lat="64.08270264" lon="-20.31835938"><ele>113.7</ele><time>2012-07-20T18:03:24.0000000+00:00</time></trkpt><trkpt lat="64.08254242" lon="-20.31835747"><ele>114.2</ele><time>2012-07-20T18:03:29.0000000+00:00</time></trkpt><trkpt lat="64.08238983" lon="-20.31835365"><ele>115.0</ele><time>2012-07-20T18:03:34.0000000+00:00</time></trkpt><trkpt lat="64.08222961" lon="-20.31838036"><ele>115.6</ele><time>2012-07-20T18:03:39.0000000+00:00</time></trkpt><trkpt lat="64.08205414" lon="-20.31841469"><ele>116.5</ele><time>2012-07-20T18:03:44.0000000+00:00</time></trkpt><trkpt lat="64.08187103" lon="-20.31846046"><ele>117.0</ele><time>2012-07-20T18:03:49.0000000+00:00</time></trkpt><trkpt lat="64.08168793" lon="-20.31850052"><ele>116.7</ele><time>2012-07-20T18:03:54.0000000+00:00</time></trkpt><trkpt lat="64.08149719" lon="-20.31856346"><ele>116.4</ele><time>2012-07-20T18:03:59.0000000+00:00</time></trkpt><trkpt lat="64.08130646" lon="-20.31864166"><ele>116.8</ele><time>2012-07-20T18:04:04.0000000+00:00</time></trkpt><trkpt lat="64.08113098" lon="-20.31873894"><ele>116.0</ele><time>2012-07-20T18:04:09.0000000+00:00</time></trkpt><trkpt lat="64.08094788" lon="-20.3188057"><ele>115.8</ele><time>2012-07-20T18:04:14.0000000+00:00</time></trkpt><trkpt lat="64.0807724" lon="-20.3189106"><ele>115.1</ele><time>2012-07-20T18:04:19.0000000+00:00</time></trkpt><trkpt lat="64.08061218" lon="-20.31902695"><ele>114.8</ele><time>2012-07-20T18:04:24.0000000+00:00</time></trkpt><trkpt lat="64.08043671" lon="-20.31915283"><ele>114.4</ele><time>2012-07-20T18:04:29.0000000+00:00</time></trkpt><trkpt lat="64.08023834" lon="-20.31930924"><ele>112.6</ele><time>2012-07-20T18:04:34.0000000+00:00</time></trkpt><trkpt lat="64.08002472" lon="-20.31948471"><ele>111.4</ele><time>2012-07-20T18:04:39.0000000+00:00</time></trkpt><trkpt lat="64.07980347" lon="-20.31970596"><ele>110.2</ele><time>2012-07-20T18:04:44.0000000+00:00</time></trkpt><trkpt lat="64.07956696" lon="-20.31995583"><ele>109.3</ele><time>2012-07-20T18:04:49.0000000+00:00</time></trkpt><trkpt lat="64.07931519" lon="-20.32025147"><ele>108.2</ele><time>2012-07-20T18:04:54.0000000+00:00</time></trkpt><trkpt lat="64.0790329" lon="-20.3205967"><ele>108.2</ele><time>2012-07-20T18:04:59.0000000+00:00</time></trkpt><trkpt lat="64.07874298" lon="-20.32099533"><ele>106.6</ele><time>2012-07-20T18:05:04.0000000+00:00</time></trkpt><trkpt lat="64.07843781" lon="-20.32139397"><ele>106.2</ele><time>2012-07-20T18:05:09.0000000+00:00</time></trkpt><trkpt lat="64.078125" lon="-20.32181358"><ele>104.2</ele><time>2012-07-20T18:05:14.0000000+00:00</time></trkpt><trkpt lat="64.07781982" lon="-20.32224655"><ele>100.5</ele><time>2012-07-20T18:05:19.0000000+00:00</time></trkpt><trkpt lat="64.07751465" lon="-20.32265472"><ele>98.5</ele><time>2012-07-20T18:05:24.0000000+00:00</time></trkpt><trkpt lat="64.07723999" lon="-20.3230114"><ele>94.3</ele><time>2012-07-20T18:05:29.0000000+00:00</time></trkpt><trkpt lat="64.07699585" lon="-20.32333183"><ele>93.1</ele><time>2012-07-20T18:05:34.0000000+00:00</time></trkpt><trkpt lat="64.07676697" lon="-20.32363892"><ele>90.4</ele><time>2012-07-20T18:05:39.0000000+00:00</time></trkpt><trkpt lat="64.07655335" lon="-20.3239212"><ele>89.6</ele><time>2012-07-20T18:05:44.0000000+00:00</time></trkpt><trkpt lat="64.07636261" lon="-20.32415581"><ele>91.0</ele><time>2012-07-20T18:05:49.0000000+00:00</time></trkpt><trkpt lat="64.07621002" lon="-20.32435989"><ele>90.2</ele><time>2012-07-20T18:05:54.0000000+00:00</time></trkpt><trkpt lat="64.07605743" lon="-20.32457733"><ele>89.8</ele><time>2012-07-20T18:05:59.0000000+00:00</time></trkpt><trkpt lat="64.0758667" lon="-20.32480812"><ele>93.3</ele><time>2012-07-20T18:06:04.0000000+00:00</time></trkpt><trkpt lat="64.07566834" lon="-20.32504845"><ele>94.4</ele><time>2012-07-20T18:06:09.0000000+00:00</time></trkpt><trkpt lat="64.07545471" lon="-20.32532501"><ele>94.8</ele><time>2012-07-20T18:06:14.0000000+00:00</time></trkpt><trkpt lat="64.07524109" lon="-20.3256073"><ele>93.2</ele><time>2012-07-20T18:06:19.0000000+00:00</time></trkpt><trkpt lat="64.07502747" lon="-20.32587814"><ele>92.8</ele><time>2012-07-20T18:06:24.0000000+00:00</time></trkpt><trkpt lat="64.07483673" lon="-20.32614136"><ele>93.5</ele><time>2012-07-20T18:06:29.0000000+00:00</time></trkpt><trkpt lat="64.07463074" lon="-20.32640648"><ele>92.5</ele><time>2012-07-20T18:06:34.0000000+00:00</time></trkpt><trkpt lat="64.07441711" lon="-20.3266716"><ele>93.4</ele><time>2012-07-20T18:06:39.0000000+00:00</time></trkpt><trkpt lat="64.07424164" lon="-20.32688332"><ele>92.8</ele><time>2012-07-20T18:06:44.0000000+00:00</time></trkpt><trkpt lat="64.07405853" lon="-20.32710266"><ele>90.2</ele><time>2012-07-20T18:06:49.0000000+00:00</time></trkpt><trkpt lat="64.07387543" lon="-20.32735252"><ele>89.0</ele><time>2012-07-20T18:06:54.0000000+00:00</time></trkpt><trkpt lat="64.07366943" lon="-20.32761002"><ele>89.2</ele><time>2012-07-20T18:06:59.0000000+00:00</time></trkpt><trkpt lat="64.07344818" lon="-20.32788277"><ele>89.6</ele><time>2012-07-20T18:07:04.0000000+00:00</time></trkpt><trkpt lat="64.07323456" lon="-20.32816315"><ele>90.3</ele><time>2012-07-20T18:07:09.0000000+00:00</time></trkpt><trkpt lat="64.07303619" lon="-20.32844544"><ele>89.9</ele><time>2012-07-20T18:07:14.0000000+00:00</time></trkpt><trkpt lat="64.07287598" lon="-20.32864571"><ele>91.4</ele><time>2012-07-20T18:07:19.0000000+00:00</time></trkpt><trkpt lat="64.07273865" lon="-20.32881737"><ele>91.2</ele><time>2012-07-20T18:07:24.0000000+00:00</time></trkpt><trkpt lat="64.07260132" lon="-20.32898331"><ele>91.9</ele><time>2012-07-20T18:07:29.0000000+00:00</time></trkpt><trkpt lat="64.07245636" lon="-20.32917976"><ele>92.3</ele><time>2012-07-20T18:07:34.0000000+00:00</time></trkpt><trkpt lat="64.07231903" lon="-20.32935715"><ele>93.2</ele><time>2012-07-20T18:07:39.0000000+00:00</time></trkpt><trkpt lat="64.07217407" lon="-20.32954788"><ele>95.4</ele><time>2012-07-20T18:07:44.0000000+00:00</time></trkpt><trkpt lat="64.07203674" lon="-20.32970619"><ele>95.7</ele><time>2012-07-20T18:07:49.0000000+00:00</time></trkpt><trkpt lat="64.07190704" lon="-20.32987404"><ele>95.1</ele><time>2012-07-20T18:07:54.0000000+00:00</time></trkpt><trkpt lat="64.07176971" lon="-20.33005524"><ele>95.6</ele><time>2012-07-20T18:07:59.0000000+00:00</time></trkpt><trkpt lat="64.07165527" lon="-20.33021545"><ele>96.8</ele><time>2012-07-20T18:08:04.0000000+00:00</time></trkpt><trkpt lat="64.07152557" lon="-20.33037567"><ele>96.2</ele><time>2012-07-20T18:08:09.0000000+00:00</time></trkpt><trkpt lat="64.07138825" lon="-20.33055878"><ele>96.8</ele><time>2012-07-20T18:08:14.0000000+00:00</time></trkpt><trkpt lat="64.07126617" lon="-20.33071327"><ele>98.7</ele><time>2012-07-20T18:08:19.0000000+00:00</time></trkpt><trkpt lat="64.07112885" lon="-20.33088493"><ele>100.0</ele><time>2012-07-20T18:08:24.0000000+00:00</time></trkpt><trkpt lat="64.07099152" lon="-20.33106422"><ele>99.1</ele><time>2012-07-20T18:08:29.0000000+00:00</time></trkpt><trkpt lat="64.07085419" lon="-20.33124542"><ele>99.1</ele><time>2012-07-20T18:08:34.0000000+00:00</time></trkpt><trkpt lat="64.07071686" lon="-20.33142281"><ele>99.9</ele><time>2012-07-20T18:08:39.0000000+00:00</time></trkpt><trkpt lat="64.07061005" lon="-20.33153725"><ele>100.6</ele><time>2012-07-20T18:08:44.0000000+00:00</time></trkpt><trkpt lat="64.07049561" lon="-20.3316555"><ele>102.2</ele><time>2012-07-20T18:08:49.0000000+00:00</time></trkpt><trkpt lat="64.07034302" lon="-20.33184624"><ele>100.2</ele><time>2012-07-20T18:08:54.0000000+00:00</time></trkpt><trkpt lat="64.07016754" lon="-20.33205986"><ele>99.6</ele><time>2012-07-20T18:08:59.0000000+00:00</time></trkpt><trkpt lat="64.07001495" lon="-20.33223915"><ele>99.8</ele><time>2012-07-20T18:09:04.0000000+00:00</time></trkpt><trkpt lat="64.06984711" lon="-20.33240318"><ele>98.0</ele><time>2012-07-20T18:09:09.0000000+00:00</time></trkpt><trkpt lat="64.06967926" lon="-20.33260536"><ele>97.4</ele><time>2012-07-20T18:09:14.0000000+00:00</time></trkpt><trkpt lat="64.06946564" lon="-20.33282089"><ele>96.1</ele><time>2012-07-20T18:09:19.0000000+00:00</time></trkpt><trkpt lat="64.06923676" lon="-20.3330574"><ele>95.2</ele><time>2012-07-20T18:09:24.0000000+00:00</time></trkpt><trkpt lat="64.06900024" lon="-20.33329582"><ele>94.7</ele><time>2012-07-20T18:09:29.0000000+00:00</time></trkpt><trkpt lat="64.06879425" lon="-20.33353233"><ele>93.4</ele><time>2012-07-20T18:09:34.0000000+00:00</time></trkpt><trkpt lat="64.06855774" lon="-20.33377647"><ele>93.3</ele><time>2012-07-20T18:09:39.0000000+00:00</time></trkpt><trkpt lat="64.06830597" lon="-20.33402634"><ele>93.7</ele><time>2012-07-20T18:09:44.0000000+00:00</time></trkpt><trkpt lat="64.06803131" lon="-20.33429718"><ele>93.0</ele><time>2012-07-20T18:09:49.0000000+00:00</time></trkpt><trkpt lat="64.06774902" lon="-20.33459091"><ele>92.6</ele><time>2012-07-20T18:09:54.0000000+00:00</time></trkpt><trkpt lat="64.06745911" lon="-20.33489609"><ele>91.7</ele><time>2012-07-20T18:09:59.0000000+00:00</time></trkpt><trkpt lat="64.06716156" lon="-20.33519173"><ele>90.3</ele><time>2012-07-20T18:10:04.0000000+00:00</time></trkpt><trkpt lat="64.0668335" lon="-20.33552742"><ele>89.0</ele><time>2012-07-20T18:10:09.0000000+00:00</time></trkpt><trkpt lat="64.06651306" lon="-20.33586121"><ele>87.8</ele><time>2012-07-20T18:10:14.0000000+00:00</time></trkpt><trkpt lat="64.06620026" lon="-20.33617783"><ele>86.4</ele><time>2012-07-20T18:10:19.0000000+00:00</time></trkpt><trkpt lat="64.06588745" lon="-20.33649254"><ele>87.1</ele><time>2012-07-20T18:10:24.0000000+00:00</time></trkpt><trkpt lat="64.06558228" lon="-20.33679581"><ele>87.0</ele><time>2012-07-20T18:10:29.0000000+00:00</time></trkpt><trkpt lat="64.06532288" lon="-20.33706856"><ele>87.3</ele><time>2012-07-20T18:10:34.0000000+00:00</time></trkpt><trkpt lat="64.06506348" lon="-20.33734512"><ele>88.7</ele><time>2012-07-20T18:10:39.0000000+00:00</time></trkpt><trkpt lat="64.06479645" lon="-20.3376236"><ele>89.1</ele><time>2012-07-20T18:10:44.0000000+00:00</time></trkpt><trkpt lat="64.06453705" lon="-20.33793449"><ele>89.5</ele><time>2012-07-20T18:10:49.0000000+00:00</time></trkpt><trkpt lat="64.0643158" lon="-20.33819962"><ele>87.6</ele><time>2012-07-20T18:10:54.0000000+00:00</time></trkpt><trkpt lat="64.0641098" lon="-20.3384819"><ele>87.4</ele><time>2012-07-20T18:10:59.0000000+00:00</time></trkpt><trkpt lat="64.06388855" lon="-20.3388195"><ele>85.1</ele><time>2012-07-20T18:11:04.0000000+00:00</time></trkpt><trkpt lat="64.06365967" lon="-20.33918381"><ele>85.6</ele><time>2012-07-20T18:11:09.0000000+00:00</time></trkpt><trkpt lat="64.06345367" lon="-20.33954239"><ele>83.4</ele><time>2012-07-20T18:11:14.0000000+00:00</time></trkpt><trkpt lat="64.0632782" lon="-20.33987236"><ele>80.9</ele><time>2012-07-20T18:11:19.0000000+00:00</time></trkpt><trkpt lat="64.06311798" lon="-20.34019089"><ele>79.9</ele><time>2012-07-20T18:11:24.0000000+00:00</time></trkpt><trkpt lat="64.06296539" lon="-20.34047699"><ele>80.5</ele><time>2012-07-20T18:11:29.0000000+00:00</time></trkpt><trkpt lat="64.06282806" lon="-20.34075165"><ele>80.2</ele><time>2012-07-20T18:11:34.0000000+00:00</time></trkpt><trkpt lat="64.06269074" lon="-20.3410511"><ele>78.8</ele><time>2012-07-20T18:11:39.0000000+00:00</time></trkpt><trkpt lat="64.06255341" lon="-20.341362"><ele>78.6</ele><time>2012-07-20T18:11:44.0000000+00:00</time></trkpt><trkpt lat="64.06242371" lon="-20.34168053"><ele>77.6</ele><time>2012-07-20T18:11:49.0000000+00:00</time></trkpt><trkpt lat="64.06228638" lon="-20.34204674"><ele>76.5</ele><time>2012-07-20T18:11:54.0000000+00:00</time></trkpt><trkpt lat="64.06214142" lon="-20.34243584"><ele>75.7</ele><time>2012-07-20T18:11:59.0000000+00:00</time></trkpt><trkpt lat="64.06200409" lon="-20.34281731"><ele>74.8</ele><time>2012-07-20T18:12:04.0000000+00:00</time></trkpt><trkpt lat="64.06186676" lon="-20.34321022"><ele>72.8</ele><time>2012-07-20T18:12:09.0000000+00:00</time></trkpt><trkpt lat="64.06172943" lon="-20.34364128"><ele>70.8</ele><time>2012-07-20T18:12:14.0000000+00:00</time></trkpt><trkpt lat="64.0615921" lon="-20.34408188"><ele>70.2</ele><time>2012-07-20T18:12:19.0000000+00:00</time></trkpt><trkpt lat="64.0614624" lon="-20.3445797"><ele>68.9</ele><time>2012-07-20T18:12:24.0000000+00:00</time></trkpt><trkpt lat="64.06131744" lon="-20.34514427"><ele>68.5</ele><time>2012-07-20T18:12:29.0000000+00:00</time></trkpt><trkpt lat="64.06118774" lon="-20.34571075"><ele>68.0</ele><time>2012-07-20T18:12:34.0000000+00:00</time></trkpt><trkpt lat="64.06105804" lon="-20.34625435"><ele>66.1</ele><time>2012-07-20T18:12:39.0000000+00:00</time></trkpt><trkpt lat="64.06095123" lon="-20.34676933"><ele>66.2</ele><time>2012-07-20T18:12:44.0000000+00:00</time></trkpt><trkpt lat="64.06083679" lon="-20.34729385"><ele>66.1</ele><time>2012-07-20T18:12:49.0000000+00:00</time></trkpt><trkpt lat="64.06073761" lon="-20.34778214"><ele>65.9</ele><time>2012-07-20T18:12:54.0000000+00:00</time></trkpt><trkpt lat="64.06064606" lon="-20.34824753"><ele>66.2</ele><time>2012-07-20T18:12:59.0000000+00:00</time></trkpt><trkpt lat="64.06056213" lon="-20.34867668"><ele>66.6</ele><time>2012-07-20T18:13:04.0000000+00:00</time></trkpt><trkpt lat="64.06045532" lon="-20.34918022"><ele>66.1</ele><time>2012-07-20T18:13:09.0000000+00:00</time></trkpt><trkpt lat="64.06036377" lon="-20.34968567"><ele>65.4</ele><time>2012-07-20T18:13:14.0000000+00:00</time></trkpt><trkpt lat="64.06025696" lon="-20.35016632"><ele>67.3</ele><time>2012-07-20T18:13:19.0000000+00:00</time></trkpt><trkpt lat="64.06016541" lon="-20.35062599"><ele>69.5</ele><time>2012-07-20T18:13:24.0000000+00:00</time></trkpt><trkpt lat="64.06008148" lon="-20.35106087"><ele>71.9</ele><time>2012-07-20T18:13:29.0000000+00:00</time></trkpt><trkpt lat="64.05999756" lon="-20.3514576"><ele>75.3</ele><time>2012-07-20T18:13:34.0000000+00:00</time></trkpt><trkpt lat="64.05990601" lon="-20.35185051"><ele>75.7</ele><time>2012-07-20T18:13:39.0000000+00:00</time></trkpt><trkpt lat="64.05982208" lon="-20.3522892"><ele>76.2</ele><time>2012-07-20T18:13:44.0000000+00:00</time></trkpt><trkpt lat="64.05973053" lon="-20.35271645"><ele>76.3</ele><time>2012-07-20T18:13:49.0000000+00:00</time></trkpt><trkpt lat="64.05966187" lon="-20.35302925"><ele>75.8</ele><time>2012-07-20T18:13:54.0000000+00:00</time></trkpt><trkpt lat="64.05960083" lon="-20.35328674"><ele>72.6</ele><time>2012-07-20T18:13:59.0000000+00:00</time></trkpt><trkpt lat="64.05955505" lon="-20.35353661"><ele>73.1</ele><time>2012-07-20T18:14:04.0000000+00:00</time></trkpt><trkpt lat="64.05947876" lon="-20.35379982"><ele>73.2</ele><time>2012-07-20T18:14:09.0000000+00:00</time></trkpt><trkpt lat="64.05941773" lon="-20.35401344"><ele>73.2</ele><time>2012-07-20T18:14:14.0000000+00:00</time></trkpt><trkpt lat="64.05935669" lon="-20.35428047"><ele>72.2</ele><time>2012-07-20T18:14:19.0000000+00:00</time></trkpt><trkpt lat="64.0592804" lon="-20.35458756"><ele>72.7</ele><time>2012-07-20T18:14:24.0000000+00:00</time></trkpt><trkpt lat="64.05918884" lon="-20.35490036"><ele>71.4</ele><time>2012-07-20T18:14:29.0000000+00:00</time></trkpt><trkpt lat="64.05908966" lon="-20.35527802"><ele>72.5</ele><time>2012-07-20T18:14:34.0000000+00:00</time></trkpt><trkpt lat="64.05900574" lon="-20.35561943"><ele>73.8</ele><time>2012-07-20T18:14:39.0000000+00:00</time></trkpt><trkpt lat="64.05892181" lon="-20.35591698"><ele>73.4</ele><time>2012-07-20T18:14:44.0000000+00:00</time></trkpt><trkpt lat="64.05882263" lon="-20.356287"><ele>71.8</ele><time>2012-07-20T18:14:49.0000000+00:00</time></trkpt><trkpt lat="64.05870819" lon="-20.35666847"><ele>70.8</ele><time>2012-07-20T18:14:54.0000000+00:00</time></trkpt><trkpt lat="64.05862427" lon="-20.35698319"><ele>70.6</ele><time>2012-07-20T18:14:59.0000000+00:00</time></trkpt><trkpt lat="64.05850983" lon="-20.35731697"><ele>71.6</ele><time>2012-07-20T18:15:04.0000000+00:00</time></trkpt><trkpt lat="64.05839539" lon="-20.35767555"><ele>72.2</ele><time>2012-07-20T18:15:09.0000000+00:00</time></trkpt><trkpt lat="64.05827332" lon="-20.35804749"><ele>71.7</ele><time>2012-07-20T18:15:14.0000000+00:00</time></trkpt><trkpt lat="64.05815888" lon="-20.35840225"><ele>71.3</ele><time>2012-07-20T18:15:19.0000000+00:00</time></trkpt><trkpt lat="64.05805206" lon="-20.35872841"><ele>70.9</ele><time>2012-07-20T18:15:24.0000000+00:00</time></trkpt><trkpt lat="64.05792236" lon="-20.3590889"><ele>70.9</ele><time>2012-07-20T18:15:29.0000000+00:00</time></trkpt><trkpt lat="64.05780792" lon="-20.35943413"><ele>71.0</ele><time>2012-07-20T18:15:34.0000000+00:00</time></trkpt><trkpt lat="64.05767822" lon="-20.35978317"><ele>70.6</ele><time>2012-07-20T18:15:39.0000000+00:00</time></trkpt><trkpt lat="64.05757904" lon="-20.36006737"><ele>72.3</ele><time>2012-07-20T18:15:44.0000000+00:00</time></trkpt><trkpt lat="64.0574646" lon="-20.36034584"><ele>72.2</ele><time>2012-07-20T18:15:49.0000000+00:00</time></trkpt><trkpt lat="64.05737305" lon="-20.36058617"><ele>71.3</ele><time>2012-07-20T18:15:54.0000000+00:00</time></trkpt><trkpt lat="64.05735016" lon="-20.36065102"><ele>70.1</ele><time>2012-07-20T18:15:59.0000000+00:00</time></trkpt><trkpt lat="64.05735016" lon="-20.36065102"><ele>70.2</ele><time>2012-07-20T18:16:04.0000000+00:00</time></trkpt><trkpt lat="64.05734253" lon="-20.36065674"><ele>70.3</ele><time>2012-07-20T18:16:09.0000000+00:00</time></trkpt><trkpt lat="64.05727387" lon="-20.3608551"><ele>71.0</ele><time>2012-07-20T18:16:14.0000000+00:00</time></trkpt><trkpt lat="64.05716705" lon="-20.36113358"><ele>70.8</ele><time>2012-07-20T18:16:19.0000000+00:00</time></trkpt><trkpt lat="64.05704498" lon="-20.36141968"><ele>69.6</ele><time>2012-07-20T18:16:24.0000000+00:00</time></trkpt><trkpt lat="64.05691528" lon="-20.36173439"><ele>69.4</ele><time>2012-07-20T18:16:29.0000000+00:00</time></trkpt><trkpt lat="64.05679321" lon="-20.3620472"><ele>69.7</ele><time>2012-07-20T18:16:34.0000000+00:00</time></trkpt><trkpt lat="64.05667877" lon="-20.36231613"><ele>70.4</ele><time>2012-07-20T18:16:39.0000000+00:00</time></trkpt><trkpt lat="64.05661774" lon="-20.36246872"><ele>70.5</ele><time>2012-07-20T18:16:44.0000000+00:00</time></trkpt><trkpt lat="64.05654144" lon="-20.36267853"><ele>71.5</ele><time>2012-07-20T18:16:49.0000000+00:00</time></trkpt><trkpt lat="64.05653381" lon="-20.36270142"><ele>71.4</ele><time>2012-07-20T18:16:54.0000000+00:00</time></trkpt><trkpt lat="64.05653381" lon="-20.36270142"><ele>71.4</ele><time>2012-07-20T18:16:59.0000000+00:00</time></trkpt><trkpt lat="64.05653381" lon="-20.36269951"><ele>71.5</ele><time>2012-07-20T18:17:04.0000000+00:00</time></trkpt><trkpt lat="64.05653381" lon="-20.36269951"><ele>71.6</ele><time>2012-07-20T18:17:09.0000000+00:00</time></trkpt><trkpt lat="64.05653381" lon="-20.36270142"><ele>71.6</ele><time>2012-07-20T18:17:14.0000000+00:00</time></trkpt><trkpt lat="64.05653381" lon="-20.36270142"><ele>71.6</ele><time>2012-07-20T18:17:19.0000000+00:00</time></trkpt><trkpt lat="64.05653381" lon="-20.36269951"><ele>71.7</ele><time>2012-07-20T18:17:24.0000000+00:00</time></trkpt><trkpt lat="64.05653381" lon="-20.36269951"><ele>71.7</ele><time>2012-07-20T18:17:29.0000000+00:00</time></trkpt><trkpt lat="64.05653381" lon="-20.36269951"><ele>71.7</ele><time>2012-07-20T18:17:34.0000000+00:00</time></trkpt><trkpt lat="64.05653381" lon="-20.36269951"><ele>71.7</ele><time>2012-07-20T18:17:39.0000000+00:00</time></trkpt><trkpt lat="64.05653381" lon="-20.36269951"><ele>71.7</ele><time>2012-07-20T18:17:44.0000000+00:00</time></trkpt><trkpt lat="64.05653381" lon="-20.36269951"><ele>71.7</ele><time>2012-07-20T18:17:49.0000000+00:00</time></trkpt><trkpt lat="64.05653381" lon="-20.36269951"><ele>71.7</ele><time>2012-07-20T18:17:54.0000000+00:00</time></trkpt><trkpt lat="64.05653381" lon="-20.36269951"><ele>71.7</ele><time>2012-07-20T18:17:59.0000000+00:00</time></trkpt><trkpt lat="64.05653381" lon="-20.36269951"><ele>71.7</ele><time>2012-07-20T18:18:04.0000000+00:00</time></trkpt><trkpt lat="64.05653381" lon="-20.36269951"><ele>71.7</ele><time>2012-07-20T18:18:09.0000000+00:00</time></trkpt><trkpt lat="64.05653381" lon="-20.36269951"><ele>71.7</ele><time>2012-07-20T18:18:14.0000000+00:00</time></trkpt><trkpt lat="64.05653381" lon="-20.36269951"><ele>71.7</ele><time>2012-07-20T18:18:19.0000000+00:00</time></trkpt><trkpt lat="64.05653381" lon="-20.36269951"><ele>71.7</ele><time>2012-07-20T18:18:24.0000000+00:00</time></trkpt><trkpt lat="64.05653381" lon="-20.36269951"><ele>71.7</ele><time>2012-07-20T18:18:29.0000000+00:00</time></trkpt><trkpt lat="64.05653381" lon="-20.36269951"><ele>71.7</ele><time>2012-07-20T18:18:34.0000000+00:00</time></trkpt><trkpt lat="64.05653381" lon="-20.36269951"><ele>71.7</ele><time>2012-07-20T18:18:39.0000000+00:00</time></trkpt><trkpt lat="64.05653381" lon="-20.36269951"><ele>71.7</ele><time>2012-07-20T18:18:44.0000000+00:00</time></trkpt><trkpt lat="64.05653381" lon="-20.36269951"><ele>71.7</ele><time>2012-07-20T18:18:49.0000000+00:00</time></trkpt><trkpt lat="64.05653381" lon="-20.36269951"><ele>71.7</ele><time>2012-07-20T18:18:54.0000000+00:00</time></trkpt><trkpt lat="64.05653381" lon="-20.36269951"><ele>71.7</ele><time>2012-07-20T18:18:59.0000000+00:00</time></trkpt><trkpt lat="64.05652618" lon="-20.36270905"><ele>71.7</ele><time>2012-07-20T18:19:04.0000000+00:00</time></trkpt><trkpt lat="64.05647278" lon="-20.36283875"><ele>72.1</ele><time>2012-07-20T18:19:09.0000000+00:00</time></trkpt><trkpt lat="64.05641937" lon="-20.36295319"><ele>72.1</ele><time>2012-07-20T18:19:14.0000000+00:00</time></trkpt><trkpt lat="64.05634308" lon="-20.36315155"><ele>72.6</ele><time>2012-07-20T18:19:19.0000000+00:00</time></trkpt><trkpt lat="64.0562439" lon="-20.36339569"><ele>72.7</ele><time>2012-07-20T18:19:24.0000000+00:00</time></trkpt><trkpt lat="64.05613709" lon="-20.36362076"><ele>73.2</ele><time>2012-07-20T18:19:29.0000000+00:00</time></trkpt><trkpt lat="64.05603027" lon="-20.36385536"><ele>73.5</ele><time>2012-07-20T18:19:34.0000000+00:00</time></trkpt><trkpt lat="64.05596161" lon="-20.36401177"><ele>73.8</ele><time>2012-07-20T18:19:39.0000000+00:00</time></trkpt><trkpt lat="64.0558548" lon="-20.36423683"><ele>74.4</ele><time>2012-07-20T18:19:44.0000000+00:00</time></trkpt><trkpt lat="64.0557251" lon="-20.36452103"><ele>75.4</ele><time>2012-07-20T18:19:49.0000000+00:00</time></trkpt><trkpt lat="64.05561829" lon="-20.36475754"><ele>75.3</ele><time>2012-07-20T18:19:54.0000000+00:00</time></trkpt><trkpt lat="64.05549622" lon="-20.36500359"><ele>75.5</ele><time>2012-07-20T18:19:59.0000000+00:00</time></trkpt><trkpt lat="64.05536652" lon="-20.36529732"><ele>75.6</ele><time>2012-07-20T18:20:04.0000000+00:00</time></trkpt><trkpt lat="64.05525208" lon="-20.36555672"><ele>75.8</ele><time>2012-07-20T18:20:09.0000000+00:00</time></trkpt><trkpt lat="64.05513001" lon="-20.3658123"><ele>76.1</ele><time>2012-07-20T18:20:14.0000000+00:00</time></trkpt><trkpt lat="64.05499268" lon="-20.36613464"><ele>76.3</ele><time>2012-07-20T18:20:19.0000000+00:00</time></trkpt><trkpt lat="64.05487061" lon="-20.36645126"><ele>76.8</ele><time>2012-07-20T18:20:24.0000000+00:00</time></trkpt><trkpt lat="64.05477905" lon="-20.36666298"><ele>77.2</ele><time>2012-07-20T18:20:29.0000000+00:00</time></trkpt><trkpt lat="64.05469513" lon="-20.36692047"><ele>77.6</ele><time>2012-07-20T18:20:34.0000000+00:00</time></trkpt><trkpt lat="64.05458832" lon="-20.36722755"><ele>78.2</ele><time>2012-07-20T18:20:39.0000000+00:00</time></trkpt><trkpt lat="64.05448914" lon="-20.36756134"><ele>79.2</ele><time>2012-07-20T18:20:44.0000000+00:00</time></trkpt><trkpt lat="64.05440521" lon="-20.36785698"><ele>79.9</ele><time>2012-07-20T18:20:49.0000000+00:00</time></trkpt><trkpt lat="64.0542984" lon="-20.36821175"><ele>79.1</ele><time>2012-07-20T18:20:54.0000000+00:00</time></trkpt><trkpt lat="64.05419159" lon="-20.36862373"><ele>79.2</ele><time>2012-07-20T18:20:59.0000000+00:00</time></trkpt><trkpt lat="64.0541153" lon="-20.36898232"><ele>79.3</ele><time>2012-07-20T18:21:04.0000000+00:00</time></trkpt><trkpt lat="64.05405426" lon="-20.36927223"><ele>79.1</ele><time>2012-07-20T18:21:09.0000000+00:00</time></trkpt><trkpt lat="64.05397034" lon="-20.36964798"><ele>78.9</ele><time>2012-07-20T18:21:14.0000000+00:00</time></trkpt><trkpt lat="64.05388641" lon="-20.3700695"><ele>79.2</ele><time>2012-07-20T18:21:19.0000000+00:00</time></trkpt><trkpt lat="64.05382538" lon="-20.37043572"><ele>79.3</ele><time>2012-07-20T18:21:24.0000000+00:00</time></trkpt><trkpt lat="64.05375671" lon="-20.37077713"><ele>79.5</ele><time>2012-07-20T18:21:29.0000000+00:00</time></trkpt><trkpt lat="64.05369568" lon="-20.37114143"><ele>79.7</ele><time>2012-07-20T18:21:34.0000000+00:00</time></trkpt><trkpt lat="64.05362701" lon="-20.37153053"><ele>79.8</ele><time>2012-07-20T18:21:39.0000000+00:00</time></trkpt><trkpt lat="64.05357361" lon="-20.37188149"><ele>79.5</ele><time>2012-07-20T18:21:44.0000000+00:00</time></trkpt><trkpt lat="64.05352783" lon="-20.37211227"><ele>79.3</ele><time>2012-07-20T18:21:49.0000000+00:00</time></trkpt><trkpt lat="64.05347443" lon="-20.37240219"><ele>79.9</ele><time>2012-07-20T18:21:54.0000000+00:00</time></trkpt><trkpt lat="64.05340576" lon="-20.37277985"><ele>80.0</ele><time>2012-07-20T18:21:59.0000000+00:00</time></trkpt><trkpt lat="64.05334473" lon="-20.37317467"><ele>80.8</ele><time>2012-07-20T18:22:04.0000000+00:00</time></trkpt><trkpt lat="64.05327606" lon="-20.37360191"><ele>80.1</ele><time>2012-07-20T18:22:09.0000000+00:00</time></trkpt><trkpt lat="64.05321503" lon="-20.37395859"><ele>79.8</ele><time>2012-07-20T18:22:14.0000000+00:00</time></trkpt><trkpt lat="64.05313873" lon="-20.37434959"><ele>79.7</ele><time>2012-07-20T18:22:19.0000000+00:00</time></trkpt><trkpt lat="64.05308533" lon="-20.3746891"><ele>80.4</ele><time>2012-07-20T18:22:24.0000000+00:00</time></trkpt><trkpt lat="64.05303192" lon="-20.37500191"><ele>79.4</ele><time>2012-07-20T18:22:29.0000000+00:00</time></trkpt><trkpt lat="64.05297089" lon="-20.37536812"><ele>79.0</ele><time>2012-07-20T18:22:34.0000000+00:00</time></trkpt><trkpt lat="64.05290222" lon="-20.37570953"><ele>78.8</ele><time>2012-07-20T18:22:39.0000000+00:00</time></trkpt><trkpt lat="64.05283356" lon="-20.37610054"><ele>78.7</ele><time>2012-07-20T18:22:44.0000000+00:00</time></trkpt><trkpt lat="64.05277252" lon="-20.37644768"><ele>78.3</ele><time>2012-07-20T18:22:49.0000000+00:00</time></trkpt><trkpt lat="64.05271149" lon="-20.37682533"><ele>78.4</ele><time>2012-07-20T18:22:54.0000000+00:00</time></trkpt><trkpt lat="64.05264282" lon="-20.37719345"><ele>78.8</ele><time>2012-07-20T18:22:59.0000000+00:00</time></trkpt><trkpt lat="64.05256653" lon="-20.37758446"><ele>78.3</ele><time>2012-07-20T18:23:04.0000000+00:00</time></trkpt><trkpt lat="64.05249023" lon="-20.37799645"><ele>78.0</ele><time>2012-07-20T18:23:09.0000000+00:00</time></trkpt><trkpt lat="64.0524292" lon="-20.37834358"><ele>77.9</ele><time>2012-07-20T18:23:14.0000000+00:00</time></trkpt><trkpt lat="64.05236816" lon="-20.37873268"><ele>78.3</ele><time>2012-07-20T18:23:19.0000000+00:00</time></trkpt><trkpt lat="64.05229187" lon="-20.37915802"><ele>78.3</ele><time>2012-07-20T18:23:24.0000000+00:00</time></trkpt><trkpt lat="64.05223084" lon="-20.37955093"><ele>78.1</ele><time>2012-07-20T18:23:29.0000000+00:00</time></trkpt><trkpt lat="64.0521698" lon="-20.37987328"><ele>78.8</ele><time>2012-07-20T18:23:34.0000000+00:00</time></trkpt><trkpt lat="64.05210114" lon="-20.38023567"><ele>78.8</ele><time>2012-07-20T18:23:39.0000000+00:00</time></trkpt><trkpt lat="64.05203247" lon="-20.38060379"><ele>78.3</ele><time>2012-07-20T18:23:44.0000000+00:00</time></trkpt><trkpt lat="64.05197907" lon="-20.38093185"><ele>77.3</ele><time>2012-07-20T18:23:49.0000000+00:00</time></trkpt><trkpt lat="64.05193329" lon="-20.38120842"><ele>77.3</ele><time>2012-07-20T18:23:54.0000000+00:00</time></trkpt><trkpt lat="64.05187225" lon="-20.38155556"><ele>77.3</ele><time>2012-07-20T18:23:59.0000000+00:00</time></trkpt><trkpt lat="64.05181885" lon="-20.38190079"><ele>77.3</ele><time>2012-07-20T18:24:04.0000000+00:00</time></trkpt><trkpt lat="64.05177307" lon="-20.38216782"><ele>78.2</ele><time>2012-07-20T18:24:09.0000000+00:00</time></trkpt><trkpt lat="64.05171204" lon="-20.38249588"><ele>79.1</ele><time>2012-07-20T18:24:14.0000000+00:00</time></trkpt><trkpt lat="64.05165863" lon="-20.38283539"><ele>80.0</ele><time>2012-07-20T18:24:19.0000000+00:00</time></trkpt><trkpt lat="64.05160523" lon="-20.38308907"><ele>79.0</ele><time>2012-07-20T18:24:24.0000000+00:00</time></trkpt><trkpt lat="64.05154419" lon="-20.38341904"><ele>79.1</ele><time>2012-07-20T18:24:29.0000000+00:00</time></trkpt><trkpt lat="64.05149078" lon="-20.38373756"><ele>78.2</ele><time>2012-07-20T18:24:34.0000000+00:00</time></trkpt><trkpt lat="64.05146027" lon="-20.38394165"><ele>79.6</ele><time>2012-07-20T18:24:39.0000000+00:00</time></trkpt><trkpt lat="64.05142212" lon="-20.38417053"><ele>79.6</ele><time>2012-07-20T18:24:44.0000000+00:00</time></trkpt><trkpt lat="64.05136871" lon="-20.38446617"><ele>80.2</ele><time>2012-07-20T18:24:49.0000000+00:00</time></trkpt><trkpt lat="64.05130768" lon="-20.38480568"><ele>81.2</ele><time>2012-07-20T18:24:54.0000000+00:00</time></trkpt><trkpt lat="64.05123901" lon="-20.38518333"><ele>81.2</ele><time>2012-07-20T18:24:59.0000000+00:00</time></trkpt><trkpt lat="64.05117798" lon="-20.38554764"><ele>79.5</ele><time>2012-07-20T18:25:04.0000000+00:00</time></trkpt><trkpt lat="64.05110931" lon="-20.38587761"><ele>78.7</ele><time>2012-07-20T18:25:09.0000000+00:00</time></trkpt><trkpt lat="64.05104828" lon="-20.38625908"><ele>77.3</ele><time>2012-07-20T18:25:14.0000000+00:00</time></trkpt><trkpt lat="64.05098724" lon="-20.38661385"><ele>77.6</ele><time>2012-07-20T18:25:19.0000000+00:00</time></trkpt><trkpt lat="64.05093384" lon="-20.38687706"><ele>77.1</ele><time>2012-07-20T18:25:24.0000000+00:00</time></trkpt><trkpt lat="64.05089569" lon="-20.3871727"><ele>77.6</ele><time>2012-07-20T18:25:29.0000000+00:00</time></trkpt><trkpt lat="64.05084992" lon="-20.38742638"><ele>77.5</ele><time>2012-07-20T18:25:34.0000000+00:00</time></trkpt><trkpt lat="64.05078125" lon="-20.38773918"><ele>76.3</ele><time>2012-07-20T18:25:39.0000000+00:00</time></trkpt><trkpt lat="64.05072022" lon="-20.38806152"><ele>74.6</ele><time>2012-07-20T18:25:44.0000000+00:00</time></trkpt><trkpt lat="64.05072022" lon="-20.38809967"><ele>74.4</ele><time>2012-07-20T18:25:49.0000000+00:00</time></trkpt><trkpt lat="64.05070496" lon="-20.38820267"><ele>74.3</ele><time>2012-07-20T18:25:54.0000000+00:00</time></trkpt><trkpt lat="64.05069733" lon="-20.38824081"><ele>75.9</ele><time>2012-07-20T18:25:59.0000000+00:00</time></trkpt><trkpt lat="64.05070496" lon="-20.38823891"><ele>76.2</ele><time>2012-07-20T18:26:04.0000000+00:00</time></trkpt><trkpt lat="64.05070496" lon="-20.388237"><ele>76.2</ele><time>2012-07-20T18:26:09.0000000+00:00</time></trkpt><trkpt lat="64.05070496" lon="-20.38823891"><ele>76.2</ele><time>2012-07-20T18:26:14.0000000+00:00</time></trkpt><trkpt lat="64.05070496" lon="-20.38823891"><ele>76.2</ele><time>2012-07-20T18:26:19.0000000+00:00</time></trkpt><trkpt lat="64.05070496" lon="-20.38823891"><ele>76.2</ele><time>2012-07-20T18:26:24.0000000+00:00</time></trkpt><trkpt lat="64.05070496" lon="-20.38823891"><ele>76.2</ele><time>2012-07-20T18:26:29.0000000+00:00</time></trkpt><trkpt lat="64.05070496" lon="-20.38823891"><ele>76.2</ele><time>2012-07-20T18:26:34.0000000+00:00</time></trkpt><trkpt lat="64.05070496" lon="-20.38823891"><ele>76.2</ele><time>2012-07-20T18:26:39.0000000+00:00</time></trkpt><trkpt lat="64.05070496" lon="-20.38824463"><ele>76.2</ele><time>2012-07-20T18:26:44.0000000+00:00</time></trkpt><trkpt lat="64.05065155" lon="-20.38850021"><ele>76.1</ele><time>2012-07-20T18:26:49.0000000+00:00</time></trkpt><trkpt lat="64.05059052" lon="-20.38891602"><ele>75.9</ele><time>2012-07-20T18:26:54.0000000+00:00</time></trkpt><trkpt lat="64.05052185" lon="-20.389328"><ele>77.5</ele><time>2012-07-20T18:26:59.0000000+00:00</time></trkpt><trkpt lat="64.05045319" lon="-20.3897171"><ele>77.4</ele><time>2012-07-20T18:27:04.0000000+00:00</time></trkpt><trkpt lat="64.05039978" lon="-20.39007759"><ele>78.9</ele><time>2012-07-20T18:27:09.0000000+00:00</time></trkpt><trkpt lat="64.05033112" lon="-20.39047432"><ele>78.7</ele><time>2012-07-20T18:27:14.0000000+00:00</time></trkpt><trkpt lat="64.05025482" lon="-20.39082909"><ele>78.7</ele><time>2012-07-20T18:27:19.0000000+00:00</time></trkpt><trkpt lat="64.05017853" lon="-20.39117813"><ele>78.7</ele><time>2012-07-20T18:27:24.0000000+00:00</time></trkpt><trkpt lat="64.05012512" lon="-20.39154053"><ele>78.8</ele><time>2012-07-20T18:27:29.0000000+00:00</time></trkpt><trkpt lat="64.05007172" lon="-20.3918438"><ele>78.6</ele><time>2012-07-20T18:27:34.0000000+00:00</time></trkpt><trkpt lat="64.05000305" lon="-20.39221954"><ele>79.2</ele><time>2012-07-20T18:27:39.0000000+00:00</time></trkpt><trkpt lat="64.04992676" lon="-20.39264107"><ele>80.1</ele><time>2012-07-20T18:27:44.0000000+00:00</time></trkpt><trkpt lat="64.04985809" lon="-20.39305687"><ele>81.1</ele><time>2012-07-20T18:27:49.0000000+00:00</time></trkpt><trkpt lat="64.04978943" lon="-20.39346695"><ele>81.3</ele><time>2012-07-20T18:27:54.0000000+00:00</time></trkpt><trkpt lat="64.04972076" lon="-20.39385033"><ele>81.6</ele><time>2012-07-20T18:27:59.0000000+00:00</time></trkpt><trkpt lat="64.04964447" lon="-20.39427948"><ele>81.6</ele><time>2012-07-20T18:28:04.0000000+00:00</time></trkpt><trkpt lat="64.04959106" lon="-20.39462471"><ele>80.5</ele><time>2012-07-20T18:28:09.0000000+00:00</time></trkpt><trkpt lat="64.0495224" lon="-20.39496422"><ele>76.1</ele><time>2012-07-20T18:28:14.0000000+00:00</time></trkpt><trkpt lat="64.04946137" lon="-20.39531136"><ele>75.9</ele><time>2012-07-20T18:28:19.0000000+00:00</time></trkpt><trkpt lat="64.04940033" lon="-20.39567566"><ele>76.3</ele><time>2012-07-20T18:28:24.0000000+00:00</time></trkpt><trkpt lat="64.04932404" lon="-20.39604759"><ele>79.4</ele><time>2012-07-20T18:28:29.0000000+00:00</time></trkpt><trkpt lat="64.049263" lon="-20.39642906"><ele>81.2</ele><time>2012-07-20T18:28:34.0000000+00:00</time></trkpt><trkpt lat="64.04919434" lon="-20.3968277"><ele>82.0</ele><time>2012-07-20T18:28:39.0000000+00:00</time></trkpt><trkpt lat="64.04912567" lon="-20.39723587"><ele>80.8</ele><time>2012-07-20T18:28:44.0000000+00:00</time></trkpt><trkpt lat="64.04904938" lon="-20.39766312"><ele>81.2</ele><time>2012-07-20T18:28:49.0000000+00:00</time></trkpt><trkpt lat="64.04897308" lon="-20.39810562"><ele>81.3</ele><time>2012-07-20T18:28:54.0000000+00:00</time></trkpt><trkpt lat="64.04891205" lon="-20.39849281"><ele>80.0</ele><time>2012-07-20T18:28:59.0000000+00:00</time></trkpt><trkpt lat="64.04886627" lon="-20.39877319"><ele>80.8</ele><time>2012-07-20T18:29:04.0000000+00:00</time></trkpt><trkpt lat="64.04880524" lon="-20.39907265"><ele>80.8</ele><time>2012-07-20T18:29:09.0000000+00:00</time></trkpt><trkpt lat="64.04875183" lon="-20.39941597"><ele>79.7</ele><time>2012-07-20T18:29:14.0000000+00:00</time></trkpt><trkpt lat="64.04868317" lon="-20.39978409"><ele>79.1</ele><time>2012-07-20T18:29:19.0000000+00:00</time></trkpt><trkpt lat="64.0486145" lon="-20.40019608"><ele>79.4</ele><time>2012-07-20T18:29:24.0000000+00:00</time></trkpt><trkpt lat="64.04853821" lon="-20.40060043"><ele>79.8</ele><time>2012-07-20T18:29:29.0000000+00:00</time></trkpt><trkpt lat="64.04846954" lon="-20.4010067"><ele>80.5</ele><time>2012-07-20T18:29:34.0000000+00:00</time></trkpt><trkpt lat="64.04839325" lon="-20.40141487"><ele>80.5</ele><time>2012-07-20T18:29:39.0000000+00:00</time></trkpt><trkpt lat="64.04832459" lon="-20.40181732"><ele>81.0</ele><time>2012-07-20T18:29:44.0000000+00:00</time></trkpt><trkpt lat="64.04825592" lon="-20.40223312"><ele>80.7</ele><time>2012-07-20T18:29:49.0000000+00:00</time></trkpt><trkpt lat="64.04817963" lon="-20.40262795"><ele>81.1</ele><time>2012-07-20T18:29:54.0000000+00:00</time></trkpt><trkpt lat="64.04811859" lon="-20.40300942"><ele>81.6</ele><time>2012-07-20T18:29:59.0000000+00:00</time></trkpt><trkpt lat="64.0480423" lon="-20.40342522"><ele>81.3</ele><time>2012-07-20T18:30:04.0000000+00:00</time></trkpt><trkpt lat="64.04797363" lon="-20.40380096"><ele>80.7</ele><time>2012-07-20T18:30:09.0000000+00:00</time></trkpt><trkpt lat="64.0479126" lon="-20.40405464"><ele>80.4</ele><time>2012-07-20T18:30:14.0000000+00:00</time></trkpt><trkpt lat="64.04788971" lon="-20.40418434"><ele>79.2</ele><time>2012-07-20T18:30:19.0000000+00:00</time></trkpt><trkpt lat="64.04788208" lon="-20.40418243"><ele>78.5</ele><time>2012-07-20T18:30:24.0000000+00:00</time></trkpt><trkpt lat="64.04788208" lon="-20.40418243"><ele>78.4</ele><time>2012-07-20T18:30:29.0000000+00:00</time></trkpt><trkpt lat="64.04788208" lon="-20.40418243"><ele>78.4</ele><time>2012-07-20T18:30:34.0000000+00:00</time></trkpt><trkpt lat="64.04788208" lon="-20.40418243"><ele>78.3</ele><time>2012-07-20T18:30:39.0000000+00:00</time></trkpt><trkpt lat="64.04788208" lon="-20.40419006"><ele>78.3</ele><time>2012-07-20T18:30:44.0000000+00:00</time></trkpt><trkpt lat="64.04788971" lon="-20.40424728"><ele>78.3</ele><time>2012-07-20T18:30:49.0000000+00:00</time></trkpt><trkpt lat="64.04789734" lon="-20.40426064"><ele>78.6</ele><time>2012-07-20T18:30:54.0000000+00:00</time></trkpt><trkpt lat="64.04789734" lon="-20.40425873"><ele>78.6</ele><time>2012-07-20T18:30:59.0000000+00:00</time></trkpt><trkpt lat="64.04789734" lon="-20.40425873"><ele>78.7</ele><time>2012-07-20T18:31:04.0000000+00:00</time></trkpt><trkpt lat="64.04789734" lon="-20.40425873"><ele>78.7</ele><time>2012-07-20T18:31:09.0000000+00:00</time></trkpt><trkpt lat="64.04789734" lon="-20.40425873"><ele>78.7</ele><time>2012-07-20T18:31:14.0000000+00:00</time></trkpt><trkpt lat="64.04789734" lon="-20.40425682"><ele>78.7</ele><time>2012-07-20T18:31:19.0000000+00:00</time></trkpt><trkpt lat="64.04789734" lon="-20.40425682"><ele>78.7</ele><time>2012-07-20T18:31:24.0000000+00:00</time></trkpt><trkpt lat="64.04789734" lon="-20.40425682"><ele>78.7</ele><time>2012-07-20T18:31:29.0000000+00:00</time></trkpt><trkpt lat="64.04789734" lon="-20.40425682"><ele>78.8</ele><time>2012-07-20T18:31:34.0000000+00:00</time></trkpt><trkpt lat="64.04789734" lon="-20.40425682"><ele>78.7</ele><time>2012-07-20T18:31:39.0000000+00:00</time></trkpt><trkpt lat="64.04789734" lon="-20.40425682"><ele>78.7</ele><time>2012-07-20T18:31:44.0000000+00:00</time></trkpt><trkpt lat="64.04789734" lon="-20.40425682"><ele>78.7</ele><time>2012-07-20T18:31:49.0000000+00:00</time></trkpt><trkpt lat="64.04789734" lon="-20.40425682"><ele>78.7</ele><time>2012-07-20T18:31:54.0000000+00:00</time></trkpt><trkpt lat="64.04789734" lon="-20.40425873"><ele>78.7</ele><time>2012-07-20T18:31:59.0000000+00:00</time></trkpt><trkpt lat="64.04789734" lon="-20.40425873"><ele>78.7</ele><time>2012-07-20T18:32:04.0000000+00:00</time></trkpt><trkpt lat="64.04789734" lon="-20.40425873"><ele>78.6</ele><time>2012-07-20T18:32:09.0000000+00:00</time></trkpt><trkpt lat="64.04789734" lon="-20.40425873"><ele>78.6</ele><time>2012-07-20T18:32:14.0000000+00:00</time></trkpt><trkpt lat="64.04789734" lon="-20.40425873"><ele>78.6</ele><time>2012-07-20T18:32:19.0000000+00:00</time></trkpt><trkpt lat="64.04789734" lon="-20.40427208"><ele>78.4</ele><time>2012-07-20T18:32:24.0000000+00:00</time></trkpt><trkpt lat="64.04787445" lon="-20.404356"><ele>79.3</ele><time>2012-07-20T18:32:29.0000000+00:00</time></trkpt><trkpt lat="64.04782867" lon="-20.40463448"><ele>80.2</ele><time>2012-07-20T18:32:34.0000000+00:00</time></trkpt><trkpt lat="64.04777527" lon="-20.40492058"><ele>81.0</ele><time>2012-07-20T18:32:39.0000000+00:00</time></trkpt><trkpt lat="64.04772186" lon="-20.40524101"><ele>80.1</ele><time>2012-07-20T18:32:44.0000000+00:00</time></trkpt><trkpt lat="64.04766083" lon="-20.40558624"><ele>79.7</ele><time>2012-07-20T18:32:49.0000000+00:00</time></trkpt><trkpt lat="64.04759216" lon="-20.40597153"><ele>79.0</ele><time>2012-07-20T18:32:54.0000000+00:00</time></trkpt><trkpt lat="64.0475235" lon="-20.40636063"><ele>79.2</ele><time>2012-07-20T18:32:59.0000000+00:00</time></trkpt><trkpt lat="64.04745483" lon="-20.40675545"><ele>80.7</ele><time>2012-07-20T18:33:04.0000000+00:00</time></trkpt><trkpt lat="64.04738617" lon="-20.40714073"><ele>81.2</ele><time>2012-07-20T18:33:09.0000000+00:00</time></trkpt><trkpt lat="64.04732513" lon="-20.40749741"><ele>81.1</ele><time>2012-07-20T18:33:14.0000000+00:00</time></trkpt><trkpt lat="64.0472641" lon="-20.40782356"><ele>83.3</ele><time>2012-07-20T18:33:19.0000000+00:00</time></trkpt><trkpt lat="64.04719544" lon="-20.40810967"><ele>83.6</ele><time>2012-07-20T18:33:24.0000000+00:00</time></trkpt><trkpt lat="64.04711914" lon="-20.40842629"><ele>82.9</ele><time>2012-07-20T18:33:29.0000000+00:00</time></trkpt><trkpt lat="64.04705048" lon="-20.40871429"><ele>83.0</ele><time>2012-07-20T18:33:34.0000000+00:00</time></trkpt><trkpt lat="64.04697418" lon="-20.40900421"><ele>83.3</ele><time>2012-07-20T18:33:39.0000000+00:00</time></trkpt><trkpt lat="64.04688263" lon="-20.40930939"><ele>82.8</ele><time>2012-07-20T18:33:44.0000000+00:00</time></trkpt><trkpt lat="64.04680634" lon="-20.40956688"><ele>81.9</ele><time>2012-07-20T18:33:49.0000000+00:00</time></trkpt><trkpt lat="64.04671478" lon="-20.40984535"><ele>81.3</ele><time>2012-07-20T18:33:54.0000000+00:00</time></trkpt><trkpt lat="64.04660797" lon="-20.41015053"><ele>81.4</ele><time>2012-07-20T18:33:59.0000000+00:00</time></trkpt><trkpt lat="64.0464859" lon="-20.4104557"><ele>80.6</ele><time>2012-07-20T18:34:04.0000000+00:00</time></trkpt><trkpt lat="64.04637909" lon="-20.41073227"><ele>80.4</ele><time>2012-07-20T18:34:09.0000000+00:00</time></trkpt><trkpt lat="64.04627228" lon="-20.41098213"><ele>80.1</ele><time>2012-07-20T18:34:14.0000000+00:00</time></trkpt><trkpt lat="64.04618073" lon="-20.41116905"><ele>80.0</ele><time>2012-07-20T18:34:19.0000000+00:00</time></trkpt><trkpt lat="64.04612732" lon="-20.41128922"><ele>79.7</ele><time>2012-07-20T18:34:24.0000000+00:00</time></trkpt><trkpt lat="64.04607391" lon="-20.41140175"><ele>79.8</ele><time>2012-07-20T18:34:29.0000000+00:00</time></trkpt><trkpt lat="64.0460434" lon="-20.41148186"><ele>80.2</ele><time>2012-07-20T18:34:34.0000000+00:00</time></trkpt><trkpt lat="64.04598236" lon="-20.41144943"><ele>81.0</ele><time>2012-07-20T18:34:39.0000000+00:00</time></trkpt><trkpt lat="64.04590607" lon="-20.41125679"><ele>79.9</ele><time>2012-07-20T18:34:44.0000000+00:00</time></trkpt><trkpt lat="64.0458374" lon="-20.41103935"><ele>79.5</ele><time>2012-07-20T18:34:49.0000000+00:00</time></trkpt><trkpt lat="64.04579163" lon="-20.41084671"><ele>77.7</ele><time>2012-07-20T18:34:54.0000000+00:00</time></trkpt><trkpt lat="64.04579163" lon="-20.41082764"><ele>77.9</ele><time>2012-07-20T18:34:59.0000000+00:00</time></trkpt><trkpt lat="64.04579163" lon="-20.41082954"><ele>77.8</ele><time>2012-07-20T18:35:04.0000000+00:00</time></trkpt><trkpt lat="64.04579163" lon="-20.41082954"><ele>77.7</ele><time>2012-07-20T18:35:09.0000000+00:00</time></trkpt><trkpt lat="64.04579163" lon="-20.41082954"><ele>77.7</ele><time>2012-07-20T18:35:14.0000000+00:00</time></trkpt><trkpt lat="64.04579163" lon="-20.41082954"><ele>77.7</ele><time>2012-07-20T18:35:19.0000000+00:00</time></trkpt><trkpt lat="64.04579163" lon="-20.41082954"><ele>77.6</ele><time>2012-07-20T18:35:24.0000000+00:00</time></trkpt><trkpt lat="64.04579163" lon="-20.41082764"><ele>77.6</ele><time>2012-07-20T18:35:29.0000000+00:00</time></trkpt><trkpt lat="64.04579163" lon="-20.41082573"><ele>77.6</ele><time>2012-07-20T18:35:34.0000000+00:00</time></trkpt><trkpt lat="64.04579163" lon="-20.41082573"><ele>77.6</ele><time>2012-07-20T18:35:39.0000000+00:00</time></trkpt><trkpt lat="64.04579163" lon="-20.41082573"><ele>77.6</ele><time>2012-07-20T18:35:44.0000000+00:00</time></trkpt><trkpt lat="64.04579163" lon="-20.41082573"><ele>77.5</ele><time>2012-07-20T18:35:49.0000000+00:00</time></trkpt><trkpt lat="64.04579163" lon="-20.41082764"><ele>77.5</ele><time>2012-07-20T18:35:54.0000000+00:00</time></trkpt><trkpt lat="64.04579163" lon="-20.41082764"><ele>77.5</ele><time>2012-07-20T18:35:59.0000000+00:00</time></trkpt><trkpt lat="64.045784" lon="-20.41082764"><ele>77.5</ele><time>2012-07-20T18:36:04.0000000+00:00</time></trkpt><trkpt lat="64.045784" lon="-20.41082764"><ele>77.4</ele><time>2012-07-20T18:36:09.0000000+00:00</time></trkpt><trkpt lat="64.045784" lon="-20.41082954"><ele>77.4</ele><time>2012-07-20T18:36:14.0000000+00:00</time></trkpt><trkpt lat="64.045784" lon="-20.41082954"><ele>77.4</ele><time>2012-07-20T18:36:19.0000000+00:00</time></trkpt><trkpt lat="64.045784" lon="-20.41083145"><ele>77.3</ele><time>2012-07-20T18:36:24.0000000+00:00</time></trkpt><trkpt lat="64.045784" lon="-20.41083145"><ele>77.3</ele><time>2012-07-20T18:36:29.0000000+00:00</time></trkpt><trkpt lat="64.045784" lon="-20.41083145"><ele>77.3</ele><time>2012-07-20T18:36:34.0000000+00:00</time></trkpt><trkpt lat="64.045784" lon="-20.41083145"><ele>77.3</ele><time>2012-07-20T18:36:39.0000000+00:00</time></trkpt><trkpt lat="64.045784" lon="-20.41081238"><ele>77.2</ele><time>2012-07-20T18:36:44.0000000+00:00</time></trkpt><trkpt lat="64.04576874" lon="-20.41069412"><ele>76.3</ele><time>2012-07-20T18:36:49.0000000+00:00</time></trkpt><trkpt lat="64.04573822" lon="-20.41048241"><ele>76.9</ele><time>2012-07-20T18:36:54.0000000+00:00</time></trkpt><trkpt lat="64.04567719" lon="-20.41017914"><ele>77.8</ele><time>2012-07-20T18:36:59.0000000+00:00</time></trkpt><trkpt lat="64.04560089" lon="-20.40987015"><ele>77.8</ele><time>2012-07-20T18:37:04.0000000+00:00</time></trkpt><trkpt lat="64.04553223" lon="-20.4095211"><ele>76.8</ele><time>2012-07-20T18:37:09.0000000+00:00</time></trkpt><trkpt lat="64.0454483" lon="-20.40919113"><ele>75.5</ele><time>2012-07-20T18:37:14.0000000+00:00</time></trkpt><trkpt lat="64.04537201" lon="-20.4088726"><ele>73.4</ele><time>2012-07-20T18:37:19.0000000+00:00</time></trkpt><trkpt lat="64.04528809" lon="-20.40855026"><ele>72.0</ele><time>2012-07-20T18:37:24.0000000+00:00</time></trkpt><trkpt lat="64.04519653" lon="-20.40818977"><ele>72.3</ele><time>2012-07-20T18:37:29.0000000+00:00</time></trkpt><trkpt lat="64.04510498" lon="-20.4077816"><ele>72.5</ele><time>2012-07-20T18:37:34.0000000+00:00</time></trkpt><trkpt lat="64.04499817" lon="-20.40732193"><ele>70.5</ele><time>2012-07-20T18:37:39.0000000+00:00</time></trkpt><trkpt lat="64.0448761" lon="-20.40679932"><ele>68.0</ele><time>2012-07-20T18:37:44.0000000+00:00</time></trkpt><trkpt lat="64.04473877" lon="-20.40620422"><ele>64.3</ele><time>2012-07-20T18:37:49.0000000+00:00</time></trkpt><trkpt lat="64.04458618" lon="-20.40558052"><ele>61.3</ele><time>2012-07-20T18:37:54.0000000+00:00</time></trkpt><trkpt lat="64.04444885" lon="-20.40496445"><ele>61.8</ele><time>2012-07-20T18:37:59.0000000+00:00</time></trkpt><trkpt lat="64.04434204" lon="-20.40442276"><ele>63.9</ele><time>2012-07-20T18:38:04.0000000+00:00</time></trkpt><trkpt lat="64.0442276" lon="-20.40394974"><ele>63.0</ele><time>2012-07-20T18:38:09.0000000+00:00</time></trkpt><trkpt lat="64.04412079" lon="-20.40345955"><ele>63.2</ele><time>2012-07-20T18:38:14.0000000+00:00</time></trkpt><trkpt lat="64.04401398" lon="-20.40299034"><ele>65.3</ele><time>2012-07-20T18:38:19.0000000+00:00</time></trkpt><trkpt lat="64.04390717" lon="-20.4025631"><ele>62.9</ele><time>2012-07-20T18:38:24.0000000+00:00</time></trkpt><trkpt lat="64.04382324" lon="-20.40212059"><ele>65.1</ele><time>2012-07-20T18:38:29.0000000+00:00</time></trkpt><trkpt lat="64.04372406" lon="-20.40168953"><ele>65.6</ele><time>2012-07-20T18:38:34.0000000+00:00</time></trkpt><trkpt lat="64.04361725" lon="-20.40126801"><ele>64.3</ele><time>2012-07-20T18:38:39.0000000+00:00</time></trkpt><trkpt lat="64.04350281" lon="-20.40083313"><ele>63.5</ele><time>2012-07-20T18:38:44.0000000+00:00</time></trkpt><trkpt lat="64.04340363" lon="-20.40035057"><ele>63.6</ele><time>2012-07-20T18:38:49.0000000+00:00</time></trkpt><trkpt lat="64.04329681" lon="-20.39988899"><ele>63.8</ele><time>2012-07-20T18:38:54.0000000+00:00</time></trkpt><trkpt lat="64.04319" lon="-20.39941597"><ele>63.8</ele><time>2012-07-20T18:38:59.0000000+00:00</time></trkpt><trkpt lat="64.04308319" lon="-20.39895058"><ele>64.8</ele><time>2012-07-20T18:39:04.0000000+00:00</time></trkpt><trkpt lat="64.04298401" lon="-20.39850044"><ele>65.1</ele><time>2012-07-20T18:39:09.0000000+00:00</time></trkpt><trkpt lat="64.04288483" lon="-20.39806366"><ele>63.6</ele><time>2012-07-20T18:39:14.0000000+00:00</time></trkpt><trkpt lat="64.04277802" lon="-20.39764977"><ele>61.0</ele><time>2012-07-20T18:39:19.0000000+00:00</time></trkpt><trkpt lat="64.04267883" lon="-20.39722824"><ele>61.6</ele><time>2012-07-20T18:39:24.0000000+00:00</time></trkpt><trkpt lat="64.04257202" lon="-20.3967762"><ele>61.4</ele><time>2012-07-20T18:39:29.0000000+00:00</time></trkpt><trkpt lat="64.04247284" lon="-20.39632034"><ele>61.5</ele><time>2012-07-20T18:39:34.0000000+00:00</time></trkpt><trkpt lat="64.04237366" lon="-20.39587212"><ele>62.6</ele><time>2012-07-20T18:39:39.0000000+00:00</time></trkpt><trkpt lat="64.04226685" lon="-20.39544678"><ele>61.4</ele><time>2012-07-20T18:39:44.0000000+00:00</time></trkpt><trkpt lat="64.04216766" lon="-20.39500618"><ele>62.1</ele><time>2012-07-20T18:39:49.0000000+00:00</time></trkpt><trkpt lat="64.04207611" lon="-20.39455223"><ele>61.6</ele><time>2012-07-20T18:39:54.0000000+00:00</time></trkpt><trkpt lat="64.04198456" lon="-20.39414215"><ele>61.4</ele><time>2012-07-20T18:39:59.0000000+00:00</time></trkpt><trkpt lat="64.04189301" lon="-20.39375496"><ele>61.6</ele><time>2012-07-20T18:40:04.0000000+00:00</time></trkpt><trkpt lat="64.04180908" lon="-20.39334679"><ele>62.6</ele><time>2012-07-20T18:40:09.0000000+00:00</time></trkpt><trkpt lat="64.04171753" lon="-20.39300156"><ele>63.7</ele><time>2012-07-20T18:40:14.0000000+00:00</time></trkpt><trkpt lat="64.04163361" lon="-20.39260864"><ele>65.0</ele><time>2012-07-20T18:40:19.0000000+00:00</time></trkpt><trkpt lat="64.04154205" lon="-20.39225006"><ele>65.6</ele><time>2012-07-20T18:40:24.0000000+00:00</time></trkpt><trkpt lat="64.04147339" lon="-20.39191055"><ele>66.8</ele><time>2012-07-20T18:40:29.0000000+00:00</time></trkpt><trkpt lat="64.0413971" lon="-20.39160538"><ele>67.9</ele><time>2012-07-20T18:40:34.0000000+00:00</time></trkpt><trkpt lat="64.04134369" lon="-20.3913517"><ele>68.9</ele><time>2012-07-20T18:40:39.0000000+00:00</time></trkpt><trkpt lat="64.04129791" lon="-20.39113808"><ele>70.3</ele><time>2012-07-20T18:40:44.0000000+00:00</time></trkpt><trkpt lat="64.04123688" lon="-20.39089775"><ele>70.9</ele><time>2012-07-20T18:40:49.0000000+00:00</time></trkpt><trkpt lat="64.04117584" lon="-20.39062882"><ele>70.7</ele><time>2012-07-20T18:40:54.0000000+00:00</time></trkpt><trkpt lat="64.04112244" lon="-20.39035034"><ele>72.2</ele><time>2012-07-20T18:40:59.0000000+00:00</time></trkpt><trkpt lat="64.0410614" lon="-20.39009476"><ele>71.7</ele><time>2012-07-20T18:41:04.0000000+00:00</time></trkpt><trkpt lat="64.04098511" lon="-20.38982391"><ele>71.8</ele><time>2012-07-20T18:41:09.0000000+00:00</time></trkpt><trkpt lat="64.04092407" lon="-20.38952446"><ele>71.1</ele><time>2012-07-20T18:41:14.0000000+00:00</time></trkpt><trkpt lat="64.04086304" lon="-20.38923073"><ele>71.0</ele><time>2012-07-20T18:41:19.0000000+00:00</time></trkpt><trkpt lat="64.04078674" lon="-20.38890457"><ele>69.9</ele><time>2012-07-20T18:41:24.0000000+00:00</time></trkpt><trkpt lat="64.04071045" lon="-20.38857269"><ele>69.0</ele><time>2012-07-20T18:41:29.0000000+00:00</time></trkpt><trkpt lat="64.04064179" lon="-20.38824844"><ele>70.3</ele><time>2012-07-20T18:41:34.0000000+00:00</time></trkpt><trkpt lat="64.04055023" lon="-20.38792038"><ele>69.9</ele><time>2012-07-20T18:41:39.0000000+00:00</time></trkpt><trkpt lat="64.04047394" lon="-20.38754845"><ele>71.0</ele><time>2012-07-20T18:41:44.0000000+00:00</time></trkpt><trkpt lat="64.04039764" lon="-20.38717461"><ele>71.9</ele><time>2012-07-20T18:41:49.0000000+00:00</time></trkpt><trkpt lat="64.04031372" lon="-20.38680458"><ele>71.9</ele><time>2012-07-20T18:41:54.0000000+00:00</time></trkpt><trkpt lat="64.04021454" lon="-20.38644409"><ele>71.4</ele><time>2012-07-20T18:41:59.0000000+00:00</time></trkpt><trkpt lat="64.04013825" lon="-20.3860836"><ele>70.9</ele><time>2012-07-20T18:42:04.0000000+00:00</time></trkpt><trkpt lat="64.04005432" lon="-20.38570976"><ele>71.2</ele><time>2012-07-20T18:42:09.0000000+00:00</time></trkpt><trkpt lat="64.03996277" lon="-20.38533402"><ele>71.4</ele><time>2012-07-20T18:42:14.0000000+00:00</time></trkpt><trkpt lat="64.03987885" lon="-20.3849659"><ele>71.4</ele><time>2012-07-20T18:42:19.0000000+00:00</time></trkpt><trkpt lat="64.03979492" lon="-20.3845768"><ele>71.2</ele><time>2012-07-20T18:42:24.0000000+00:00</time></trkpt><trkpt lat="64.03970337" lon="-20.3841877"><ele>71.1</ele><time>2012-07-20T18:42:29.0000000+00:00</time></trkpt><trkpt lat="64.03961182" lon="-20.38379669"><ele>71.1</ele><time>2012-07-20T18:42:34.0000000+00:00</time></trkpt><trkpt lat="64.03953552" lon="-20.38341904"><ele>70.8</ele><time>2012-07-20T18:42:39.0000000+00:00</time></trkpt><trkpt lat="64.03944397" lon="-20.38305855"><ele>70.4</ele><time>2012-07-20T18:42:44.0000000+00:00</time></trkpt><trkpt lat="64.03935242" lon="-20.38266182"><ele>71.1</ele><time>2012-07-20T18:42:49.0000000+00:00</time></trkpt><trkpt lat="64.03926849" lon="-20.38227081"><ele>70.6</ele><time>2012-07-20T18:42:54.0000000+00:00</time></trkpt><trkpt lat="64.03916931" lon="-20.38186455"><ele>70.4</ele><time>2012-07-20T18:42:59.0000000+00:00</time></trkpt><trkpt lat="64.03908539" lon="-20.38144302"><ele>69.4</ele><time>2012-07-20T18:43:04.0000000+00:00</time></trkpt><trkpt lat="64.03898621" lon="-20.38101387"><ele>69.1</ele><time>2012-07-20T18:43:09.0000000+00:00</time></trkpt><trkpt lat="64.03888702" lon="-20.38059044"><ele>67.7</ele><time>2012-07-20T18:43:14.0000000+00:00</time></trkpt><trkpt lat="64.03877258" lon="-20.38018036"><ele>67.7</ele><time>2012-07-20T18:43:19.0000000+00:00</time></trkpt><trkpt lat="64.03868103" lon="-20.37975693"><ele>67.7</ele><time>2012-07-20T18:43:24.0000000+00:00</time></trkpt><trkpt lat="64.03858185" lon="-20.37934113"><ele>68.5</ele><time>2012-07-20T18:43:29.0000000+00:00</time></trkpt><trkpt lat="64.0384903" lon="-20.37892723"><ele>67.9</ele><time>2012-07-20T18:43:34.0000000+00:00</time></trkpt><trkpt lat="64.03839111" lon="-20.37850571"><ele>68.4</ele><time>2012-07-20T18:43:39.0000000+00:00</time></trkpt><trkpt lat="64.03829956" lon="-20.37808037"><ele>69.5</ele><time>2012-07-20T18:43:44.0000000+00:00</time></trkpt><trkpt lat="64.03820801" lon="-20.3776722"><ele>68.8</ele><time>2012-07-20T18:43:49.0000000+00:00</time></trkpt><trkpt lat="64.03810883" lon="-20.37725258"><ele>68.6</ele><time>2012-07-20T18:43:54.0000000+00:00</time></trkpt><trkpt lat="64.03801727" lon="-20.37684631"><ele>69.2</ele><time>2012-07-20T18:43:59.0000000+00:00</time></trkpt><trkpt lat="64.03791809" lon="-20.37642288"><ele>69.4</ele><time>2012-07-20T18:44:04.0000000+00:00</time></trkpt><trkpt lat="64.03782654" lon="-20.3760109"><ele>68.6</ele><time>2012-07-20T18:44:09.0000000+00:00</time></trkpt><trkpt lat="64.03772736" lon="-20.37559891"><ele>68.1</ele><time>2012-07-20T18:44:14.0000000+00:00</time></trkpt><trkpt lat="64.03764343" lon="-20.37518311"><ele>68.7</ele><time>2012-07-20T18:44:19.0000000+00:00</time></trkpt><trkpt lat="64.03755188" lon="-20.37475967"><ele>68.4</ele><time>2012-07-20T18:44:24.0000000+00:00</time></trkpt><trkpt lat="64.03746033" lon="-20.37434959"><ele>67.9</ele><time>2012-07-20T18:44:29.0000000+00:00</time></trkpt><trkpt lat="64.03736115" lon="-20.37395477"><ele>67.9</ele><time>2012-07-20T18:44:34.0000000+00:00</time></trkpt><trkpt lat="64.03726196" lon="-20.3735466"><ele>68.5</ele><time>2012-07-20T18:44:39.0000000+00:00</time></trkpt><trkpt lat="64.03716278" lon="-20.37314224"><ele>68.2</ele><time>2012-07-20T18:44:44.0000000+00:00</time></trkpt><trkpt lat="64.0370636" lon="-20.37270546"><ele>67.8</ele><time>2012-07-20T18:44:49.0000000+00:00</time></trkpt><trkpt lat="64.03697205" lon="-20.37229157"><ele>68.9</ele><time>2012-07-20T18:44:54.0000000+00:00</time></trkpt><trkpt lat="64.03688812" lon="-20.37188911"><ele>69.5</ele><time>2012-07-20T18:44:59.0000000+00:00</time></trkpt><trkpt lat="64.03678131" lon="-20.37149429"><ele>68.7</ele><time>2012-07-20T18:45:04.0000000+00:00</time></trkpt><trkpt lat="64.03668213" lon="-20.37109757"><ele>68.2</ele><time>2012-07-20T18:45:09.0000000+00:00</time></trkpt><trkpt lat="64.03660584" lon="-20.37070084"><ele>68.9</ele><time>2012-07-20T18:45:14.0000000+00:00</time></trkpt><trkpt lat="64.03652191" lon="-20.37031364"><ele>69.3</ele><time>2012-07-20T18:45:19.0000000+00:00</time></trkpt><trkpt lat="64.03643036" lon="-20.36993408"><ele>68.3</ele><time>2012-07-20T18:45:24.0000000+00:00</time></trkpt><trkpt lat="64.03635407" lon="-20.36957741"><ele>67.1</ele><time>2012-07-20T18:45:29.0000000+00:00</time></trkpt><trkpt lat="64.03627014" lon="-20.36919785"><ele>68.3</ele><time>2012-07-20T18:45:34.0000000+00:00</time></trkpt><trkpt lat="64.03617859" lon="-20.36882973"><ele>69.4</ele><time>2012-07-20T18:45:39.0000000+00:00</time></trkpt><trkpt lat="64.0361023" lon="-20.36847687"><ele>70.5</ele><time>2012-07-20T18:45:44.0000000+00:00</time></trkpt><trkpt lat="64.03601837" lon="-20.36811638"><ele>70.5</ele><time>2012-07-20T18:45:49.0000000+00:00</time></trkpt><trkpt lat="64.03594971" lon="-20.36776543"><ele>71.1</ele><time>2012-07-20T18:45:54.0000000+00:00</time></trkpt><trkpt lat="64.03585815" lon="-20.36740875"><ele>70.8</ele><time>2012-07-20T18:45:59.0000000+00:00</time></trkpt><trkpt lat="64.03578186" lon="-20.36706352"><ele>72.2</ele><time>2012-07-20T18:46:04.0000000+00:00</time></trkpt><trkpt lat="64.03570557" lon="-20.36672401"><ele>72.5</ele><time>2012-07-20T18:46:09.0000000+00:00</time></trkpt><trkpt lat="64.03562927" lon="-20.36641693"><ele>73.9</ele><time>2012-07-20T18:46:14.0000000+00:00</time></trkpt><trkpt lat="64.03556061" lon="-20.36610031"><ele>73.5</ele><time>2012-07-20T18:46:19.0000000+00:00</time></trkpt><trkpt lat="64.03549194" lon="-20.36576653"><ele>74.1</ele><time>2012-07-20T18:46:24.0000000+00:00</time></trkpt><trkpt lat="64.03540802" lon="-20.36543846"><ele>73.5</ele><time>2012-07-20T18:46:29.0000000+00:00</time></trkpt><trkpt lat="64.03533173" lon="-20.36509895"><ele>74.3</ele><time>2012-07-20T18:46:34.0000000+00:00</time></trkpt><trkpt lat="64.03525543" lon="-20.36474609"><ele>73.5</ele><time>2012-07-20T18:46:39.0000000+00:00</time></trkpt><trkpt lat="64.03516388" lon="-20.36439323"><ele>74.4</ele><time>2012-07-20T18:46:44.0000000+00:00</time></trkpt><trkpt lat="64.03510284" lon="-20.36409187"><ele>74.2</ele><time>2012-07-20T18:46:49.0000000+00:00</time></trkpt><trkpt lat="64.03504181" lon="-20.36380577"><ele>74.8</ele><time>2012-07-20T18:46:54.0000000+00:00</time></trkpt><trkpt lat="64.03496552" lon="-20.36349297"><ele>75.5</ele><time>2012-07-20T18:46:59.0000000+00:00</time></trkpt><trkpt lat="64.03489685" lon="-20.36316872"><ele>75.3</ele><time>2012-07-20T18:47:04.0000000+00:00</time></trkpt><trkpt lat="64.03481293" lon="-20.36281967"><ele>74.1</ele><time>2012-07-20T18:47:09.0000000+00:00</time></trkpt><trkpt lat="64.03472138" lon="-20.36243248"><ele>74.6</ele><time>2012-07-20T18:47:14.0000000+00:00</time></trkpt><trkpt lat="64.03463745" lon="-20.36203384"><ele>74.7</ele><time>2012-07-20T18:47:19.0000000+00:00</time></trkpt><trkpt lat="64.0345459" lon="-20.36165237"><ele>75.7</ele><time>2012-07-20T18:47:24.0000000+00:00</time></trkpt><trkpt lat="64.03445435" lon="-20.3612442"><ele>76.2</ele><time>2012-07-20T18:47:29.0000000+00:00</time></trkpt><trkpt lat="64.03436279" lon="-20.36083221"><ele>76.5</ele><time>2012-07-20T18:47:34.0000000+00:00</time></trkpt><trkpt lat="64.03427887" lon="-20.36046028"><ele>76.5</ele><time>2012-07-20T18:47:39.0000000+00:00</time></trkpt><trkpt lat="64.03421783" lon="-20.36016464"><ele>76.6</ele><time>2012-07-20T18:47:44.0000000+00:00</time></trkpt><trkpt lat="64.03413391" lon="-20.35982513"><ele>76.6</ele><time>2012-07-20T18:47:49.0000000+00:00</time></trkpt><trkpt lat="64.03404999" lon="-20.35945702"><ele>76.6</ele><time>2012-07-20T18:47:54.0000000+00:00</time></trkpt><trkpt lat="64.03396606" lon="-20.35907936"><ele>77.0</ele><time>2012-07-20T18:47:59.0000000+00:00</time></trkpt><trkpt lat="64.03388214" lon="-20.35866928"><ele>78.5</ele><time>2012-07-20T18:48:04.0000000+00:00</time></trkpt><trkpt lat="64.03378296" lon="-20.35825539"><ele>77.8</ele><time>2012-07-20T18:48:09.0000000+00:00</time></trkpt><trkpt lat="64.03368378" lon="-20.35784912"><ele>76.0</ele><time>2012-07-20T18:48:14.0000000+00:00</time></trkpt><trkpt lat="64.03360748" lon="-20.35742378"><ele>74.6</ele><time>2012-07-20T18:48:19.0000000+00:00</time></trkpt><trkpt lat="64.03354645" lon="-20.35692978"><ele>73.4</ele><time>2012-07-20T18:48:24.0000000+00:00</time></trkpt><trkpt lat="64.03349304" lon="-20.35645104"><ele>74.7</ele><time>2012-07-20T18:48:29.0000000+00:00</time></trkpt><trkpt lat="64.03344727" lon="-20.35604477"><ele>75.0</ele><time>2012-07-20T18:48:34.0000000+00:00</time></trkpt><trkpt lat="64.03341675" lon="-20.35559654"><ele>76.1</ele><time>2012-07-20T18:48:39.0000000+00:00</time></trkpt><trkpt lat="64.03340912" lon="-20.35512924"><ele>77.0</ele><time>2012-07-20T18:48:44.0000000+00:00</time></trkpt><trkpt lat="64.03340912" lon="-20.35463524"><ele>77.6</ele><time>2012-07-20T18:48:49.0000000+00:00</time></trkpt><trkpt lat="64.03340912" lon="-20.35415459"><ele>77.6</ele><time>2012-07-20T18:48:54.0000000+00:00</time></trkpt><trkpt lat="64.03343201" lon="-20.35377693"><ele>77.9</ele><time>2012-07-20T18:48:59.0000000+00:00</time></trkpt><trkpt lat="64.03346252" lon="-20.35337067"><ele>77.4</ele><time>2012-07-20T18:49:04.0000000+00:00</time></trkpt><trkpt lat="64.03351593" lon="-20.35297775"><ele>76.6</ele><time>2012-07-20T18:49:09.0000000+00:00</time></trkpt><trkpt lat="64.03355408" lon="-20.35259247"><ele>76.4</ele><time>2012-07-20T18:49:14.0000000+00:00</time></trkpt><trkpt lat="64.03360748" lon="-20.3521862"><ele>76.7</ele><time>2012-07-20T18:49:19.0000000+00:00</time></trkpt><trkpt lat="64.03366852" lon="-20.35175133"><ele>77.4</ele><time>2012-07-20T18:49:24.0000000+00:00</time></trkpt><trkpt lat="64.03373718" lon="-20.35129356"><ele>77.7</ele><time>2012-07-20T18:49:29.0000000+00:00</time></trkpt><trkpt lat="64.03379059" lon="-20.35088158"><ele>76.9</ele><time>2012-07-20T18:49:34.0000000+00:00</time></trkpt><trkpt lat="64.03385162" lon="-20.35045433"><ele>76.2</ele><time>2012-07-20T18:49:39.0000000+00:00</time></trkpt><trkpt lat="64.03392029" lon="-20.35001946"><ele>76.5</ele><time>2012-07-20T18:49:44.0000000+00:00</time></trkpt><trkpt lat="64.03398132" lon="-20.34959412"><ele>77.1</ele><time>2012-07-20T18:49:49.0000000+00:00</time></trkpt><trkpt lat="64.03403473" lon="-20.34918213"><ele>77.0</ele><time>2012-07-20T18:49:54.0000000+00:00</time></trkpt><trkpt lat="64.03409576" lon="-20.34875679"><ele>78.2</ele><time>2012-07-20T18:49:59.0000000+00:00</time></trkpt><trkpt lat="64.03414917" lon="-20.34832954"><ele>78.4</ele><time>2012-07-20T18:50:04.0000000+00:00</time></trkpt><trkpt lat="64.03420258" lon="-20.34788513"><ele>80.1</ele><time>2012-07-20T18:50:09.0000000+00:00</time></trkpt><trkpt lat="64.03425598" lon="-20.34742737"><ele>81.6</ele><time>2012-07-20T18:50:14.0000000+00:00</time></trkpt><trkpt lat="64.03430939" lon="-20.34698105"><ele>80.5</ele><time>2012-07-20T18:50:19.0000000+00:00</time></trkpt><trkpt lat="64.03433991" lon="-20.34653664"><ele>79.5</ele><time>2012-07-20T18:50:24.0000000+00:00</time></trkpt><trkpt lat="64.03437042" lon="-20.3460865"><ele>78.7</ele><time>2012-07-20T18:50:29.0000000+00:00</time></trkpt><trkpt lat="64.03438568" lon="-20.34562683"><ele>78.4</ele><time>2012-07-20T18:50:34.0000000+00:00</time></trkpt><trkpt lat="64.03440857" lon="-20.3452034"><ele>78.3</ele><time>2012-07-20T18:50:39.0000000+00:00</time></trkpt><trkpt lat="64.0344162" lon="-20.34479332"><ele>79.1</ele><time>2012-07-20T18:50:44.0000000+00:00</time></trkpt><trkpt lat="64.03442383" lon="-20.34439278"><ele>79.6</ele><time>2012-07-20T18:50:49.0000000+00:00</time></trkpt><trkpt lat="64.03443909" lon="-20.34398842"><ele>79.1</ele><time>2012-07-20T18:50:54.0000000+00:00</time></trkpt><trkpt lat="64.03443909" lon="-20.34360886"><ele>79.0</ele><time>2012-07-20T18:50:59.0000000+00:00</time></trkpt><trkpt lat="64.03443909" lon="-20.34319305"><ele>78.9</ele><time>2012-07-20T18:51:04.0000000+00:00</time></trkpt><trkpt lat="64.03443909" lon="-20.34272385"><ele>77.9</ele><time>2012-07-20T18:51:09.0000000+00:00</time></trkpt><trkpt lat="64.03443146" lon="-20.34222412"><ele>77.4</ele><time>2012-07-20T18:51:14.0000000+00:00</time></trkpt><trkpt lat="64.03443909" lon="-20.34165192"><ele>77.2</ele><time>2012-07-20T18:51:19.0000000+00:00</time></trkpt><trkpt lat="64.03442383" lon="-20.34106445"><ele>77.5</ele><time>2012-07-20T18:51:24.0000000+00:00</time></trkpt><trkpt lat="64.03440857" lon="-20.34051132"><ele>77.6</ele><time>2012-07-20T18:51:29.0000000+00:00</time></trkpt><trkpt lat="64.03439331" lon="-20.33998108"><ele>77.5</ele><time>2012-07-20T18:51:34.0000000+00:00</time></trkpt><trkpt lat="64.03437805" lon="-20.33943749"><ele>77.9</ele><time>2012-07-20T18:51:39.0000000+00:00</time></trkpt><trkpt lat="64.03437042" lon="-20.33895683"><ele>78.7</ele><time>2012-07-20T18:51:44.0000000+00:00</time></trkpt><trkpt lat="64.03435516" lon="-20.3385334"><ele>79.4</ele><time>2012-07-20T18:51:49.0000000+00:00</time></trkpt><trkpt lat="64.03433991" lon="-20.33813286"><ele>80.1</ele><time>2012-07-20T18:51:54.0000000+00:00</time></trkpt><trkpt lat="64.03433991" lon="-20.33773041"><ele>81.5</ele><time>2012-07-20T18:51:59.0000000+00:00</time></trkpt><trkpt lat="64.03433228" lon="-20.33732605"><ele>81.9</ele><time>2012-07-20T18:52:04.0000000+00:00</time></trkpt><trkpt lat="64.03432465" lon="-20.33690643"><ele>82.3</ele><time>2012-07-20T18:52:09.0000000+00:00</time></trkpt><trkpt lat="64.03431702" lon="-20.33649063"><ele>82.5</ele><time>2012-07-20T18:52:14.0000000+00:00</time></trkpt><trkpt lat="64.03430939" lon="-20.33612251"><ele>82.7</ele><time>2012-07-20T18:52:19.0000000+00:00</time></trkpt><trkpt lat="64.03430939" lon="-20.33571053"><ele>82.5</ele><time>2012-07-20T18:52:24.0000000+00:00</time></trkpt><trkpt lat="64.03430939" lon="-20.33529282"><ele>82.3</ele><time>2012-07-20T18:52:29.0000000+00:00</time></trkpt><trkpt lat="64.03433991" lon="-20.33486939"><ele>81.0</ele><time>2012-07-20T18:52:34.0000000+00:00</time></trkpt><trkpt lat="64.03436279" lon="-20.33441544"><ele>80.0</ele><time>2012-07-20T18:52:39.0000000+00:00</time></trkpt><trkpt lat="64.03439331" lon="-20.3339386"><ele>79.4</ele><time>2012-07-20T18:52:44.0000000+00:00</time></trkpt><trkpt lat="64.03443146" lon="-20.33348274"><ele>79.3</ele><time>2012-07-20T18:52:49.0000000+00:00</time></trkpt><trkpt lat="64.0344696" lon="-20.33303833"><ele>82.1</ele><time>2012-07-20T18:52:54.0000000+00:00</time></trkpt><trkpt lat="64.03450775" lon="-20.33259392"><ele>82.6</ele><time>2012-07-20T18:52:59.0000000+00:00</time></trkpt><trkpt lat="64.03455353" lon="-20.33219147"><ele>84.2</ele><time>2012-07-20T18:53:04.0000000+00:00</time></trkpt><trkpt lat="64.0345993" lon="-20.33175659"><ele>85.1</ele><time>2012-07-20T18:53:09.0000000+00:00</time></trkpt><trkpt lat="64.03465271" lon="-20.33132935"><ele>87.0</ele><time>2012-07-20T18:53:14.0000000+00:00</time></trkpt><trkpt lat="64.03469849" lon="-20.33088875"><ele>87.3</ele><time>2012-07-20T18:53:19.0000000+00:00</time></trkpt><trkpt lat="64.03475189" lon="-20.33044624"><ele>88.4</ele><time>2012-07-20T18:53:24.0000000+00:00</time></trkpt><trkpt lat="64.03479767" lon="-20.33002472"><ele>89.0</ele><time>2012-07-20T18:53:29.0000000+00:00</time></trkpt><trkpt lat="64.03482819" lon="-20.32965469"><ele>89.5</ele><time>2012-07-20T18:53:34.0000000+00:00</time></trkpt><trkpt lat="64.03486633" lon="-20.32928848"><ele>90.5</ele><time>2012-07-20T18:53:39.0000000+00:00</time></trkpt><trkpt lat="64.03489685" lon="-20.32893181"><ele>88.6</ele><time>2012-07-20T18:53:44.0000000+00:00</time></trkpt><trkpt lat="64.03494263" lon="-20.32855034"><ele>88.5</ele><time>2012-07-20T18:53:49.0000000+00:00</time></trkpt><trkpt lat="64.03498077" lon="-20.32812119"><ele>89.6</ele><time>2012-07-20T18:53:54.0000000+00:00</time></trkpt><trkpt lat="64.03501892" lon="-20.32774353"><ele>90.8</ele><time>2012-07-20T18:53:59.0000000+00:00</time></trkpt><trkpt lat="64.0350647" lon="-20.3273983"><ele>90.1</ele><time>2012-07-20T18:54:04.0000000+00:00</time></trkpt><trkpt lat="64.03511047" lon="-20.32707596"><ele>88.7</ele><time>2012-07-20T18:54:09.0000000+00:00</time></trkpt><trkpt lat="64.03516388" lon="-20.32673836"><ele>87.9</ele><time>2012-07-20T18:54:14.0000000+00:00</time></trkpt><trkpt lat="64.0351944" lon="-20.32639885"><ele>88.1</ele><time>2012-07-20T18:54:19.0000000+00:00</time></trkpt><trkpt lat="64.0352478" lon="-20.32604599"><ele>87.6</ele><time>2012-07-20T18:54:24.0000000+00:00</time></trkpt><trkpt lat="64.03530121" lon="-20.32567406"><ele>87.9</ele><time>2012-07-20T18:54:29.0000000+00:00</time></trkpt><trkpt lat="64.03536224" lon="-20.32531166"><ele>88.2</ele><time>2012-07-20T18:54:34.0000000+00:00</time></trkpt><trkpt lat="64.03542328" lon="-20.32495689"><ele>88.6</ele><time>2012-07-20T18:54:39.0000000+00:00</time></trkpt><trkpt lat="64.03549957" lon="-20.32457161"><ele>88.2</ele><time>2012-07-20T18:54:44.0000000+00:00</time></trkpt><trkpt lat="64.03556824" lon="-20.32418251"><ele>86.7</ele><time>2012-07-20T18:54:49.0000000+00:00</time></trkpt><trkpt lat="64.03564453" lon="-20.32377243"><ele>87.1</ele><time>2012-07-20T18:54:54.0000000+00:00</time></trkpt><trkpt lat="64.03572083" lon="-20.3233738"><ele>85.8</ele><time>2012-07-20T18:54:59.0000000+00:00</time></trkpt><trkpt lat="64.03579712" lon="-20.32296181"><ele>85.0</ele><time>2012-07-20T18:55:04.0000000+00:00</time></trkpt><trkpt lat="64.03588867" lon="-20.32248116"><ele>84.0</ele><time>2012-07-20T18:55:09.0000000+00:00</time></trkpt><trkpt lat="64.03599548" lon="-20.32194901"><ele>84.0</ele><time>2012-07-20T18:55:14.0000000+00:00</time></trkpt><trkpt lat="64.03610992" lon="-20.32131958"><ele>84.0</ele><time>2012-07-20T18:55:19.0000000+00:00</time></trkpt><trkpt lat="64.036232" lon="-20.32058716"><ele>82.1</ele><time>2012-07-20T18:55:24.0000000+00:00</time></trkpt><trkpt lat="64.03635407" lon="-20.31967926"><ele>81.0</ele><time>2012-07-20T18:55:29.0000000+00:00</time></trkpt><trkpt lat="64.03648377" lon="-20.3187294"><ele>80.8</ele><time>2012-07-20T18:55:34.0000000+00:00</time></trkpt><trkpt lat="64.03658295" lon="-20.31772232"><ele>78.8</ele><time>2012-07-20T18:55:39.0000000+00:00</time></trkpt><trkpt lat="64.03669739" lon="-20.31665039"><ele>77.7</ele><time>2012-07-20T18:55:44.0000000+00:00</time></trkpt><trkpt lat="64.03681183" lon="-20.31561852"><ele>77.2</ele><time>2012-07-20T18:55:49.0000000+00:00</time></trkpt><trkpt lat="64.03691101" lon="-20.3147068"><ele>77.3</ele><time>2012-07-20T18:55:54.0000000+00:00</time></trkpt><trkpt lat="64.03700256" lon="-20.31391907"><ele>76.7</ele><time>2012-07-20T18:55:59.0000000+00:00</time></trkpt><trkpt lat="64.03708649" lon="-20.31315613"><ele>76.4</ele><time>2012-07-20T18:56:04.0000000+00:00</time></trkpt><trkpt lat="64.03717041" lon="-20.31243515"><ele>75.5</ele><time>2012-07-20T18:56:09.0000000+00:00</time></trkpt><trkpt lat="64.03725433" lon="-20.31176949"><ele>75.2</ele><time>2012-07-20T18:56:14.0000000+00:00</time></trkpt><trkpt lat="64.03733826" lon="-20.31110191"><ele>75.1</ele><time>2012-07-20T18:56:19.0000000+00:00</time></trkpt><trkpt lat="64.03742981" lon="-20.31046486"><ele>75.3</ele><time>2012-07-20T18:56:24.0000000+00:00</time></trkpt><trkpt lat="64.03752899" lon="-20.30990601"><ele>74.7</ele><time>2012-07-20T18:56:29.0000000+00:00</time></trkpt><trkpt lat="64.03762817" lon="-20.30937195"><ele>72.1</ele><time>2012-07-20T18:56:34.0000000+00:00</time></trkpt><trkpt lat="64.03774262" lon="-20.30877876"><ele>72.9</ele><time>2012-07-20T18:56:39.0000000+00:00</time></trkpt><trkpt lat="64.03787994" lon="-20.30815315"><ele>73.2</ele><time>2012-07-20T18:56:44.0000000+00:00</time></trkpt><trkpt lat="64.03800964" lon="-20.3075428"><ele>72.7</ele><time>2012-07-20T18:56:49.0000000+00:00</time></trkpt><trkpt lat="64.03816223" lon="-20.30696106"><ele>72.1</ele><time>2012-07-20T18:56:54.0000000+00:00</time></trkpt><trkpt lat="64.03830719" lon="-20.30640793"><ele>72.1</ele><time>2012-07-20T18:56:59.0000000+00:00</time></trkpt><trkpt lat="64.03843689" lon="-20.30595017"><ele>71.5</ele><time>2012-07-20T18:57:04.0000000+00:00</time></trkpt><trkpt lat="64.03853607" lon="-20.30555916"><ele>71.6</ele><time>2012-07-20T18:57:09.0000000+00:00</time></trkpt><trkpt lat="64.03862" lon="-20.30524635"><ele>71.9</ele><time>2012-07-20T18:57:14.0000000+00:00</time></trkpt><trkpt lat="64.03871155" lon="-20.30501366"><ele>73.3</ele><time>2012-07-20T18:57:19.0000000+00:00</time></trkpt><trkpt lat="64.0387497" lon="-20.30480385"><ele>74.1</ele><time>2012-07-20T18:57:24.0000000+00:00</time></trkpt><trkpt lat="64.03881836" lon="-20.3045311"><ele>75.0</ele><time>2012-07-20T18:57:29.0000000+00:00</time></trkpt><trkpt lat="64.03892517" lon="-20.30416107"><ele>74.8</ele><time>2012-07-20T18:57:34.0000000+00:00</time></trkpt><trkpt lat="64.03903961" lon="-20.30375671"><ele>75.0</ele><time>2012-07-20T18:57:39.0000000+00:00</time></trkpt><trkpt lat="64.03914642" lon="-20.30330467"><ele>75.1</ele><time>2012-07-20T18:57:44.0000000+00:00</time></trkpt><trkpt lat="64.03926086" lon="-20.30285072"><ele>73.8</ele><time>2012-07-20T18:57:49.0000000+00:00</time></trkpt><trkpt lat="64.03937531" lon="-20.30234909"><ele>72.8</ele><time>2012-07-20T18:57:54.0000000+00:00</time></trkpt><trkpt lat="64.03948212" lon="-20.30181885"><ele>71.6</ele><time>2012-07-20T18:57:59.0000000+00:00</time></trkpt><trkpt lat="64.03960419" lon="-20.30124283"><ele>70.6</ele><time>2012-07-20T18:58:04.0000000+00:00</time></trkpt><trkpt lat="64.03969574" lon="-20.30073547"><ele>71.2</ele><time>2012-07-20T18:58:09.0000000+00:00</time></trkpt><trkpt lat="64.03979492" lon="-20.30017471"><ele>71.9</ele><time>2012-07-20T18:58:14.0000000+00:00</time></trkpt><trkpt lat="64.03987122" lon="-20.29965591"><ele>71.1</ele><time>2012-07-20T18:58:19.0000000+00:00</time></trkpt><trkpt lat="64.03993988" lon="-20.29917526"><ele>71.5</ele><time>2012-07-20T18:58:24.0000000+00:00</time></trkpt><trkpt lat="64.04003143" lon="-20.29856682"><ele>77.4</ele><time>2012-07-20T18:58:29.0000000+00:00</time></trkpt><trkpt lat="64.04010773" lon="-20.29797745"><ele>81.3</ele><time>2012-07-20T18:58:34.0000000+00:00</time></trkpt><trkpt lat="64.04016876" lon="-20.29738617"><ele>82.6</ele><time>2012-07-20T18:58:39.0000000+00:00</time></trkpt><trkpt lat="64.04022217" lon="-20.29687119"><ele>84.2</ele><time>2012-07-20T18:58:44.0000000+00:00</time></trkpt><trkpt lat="64.04025269" lon="-20.29640961"><ele>83.8</ele><time>2012-07-20T18:58:49.0000000+00:00</time></trkpt><trkpt lat="64.04029083" lon="-20.29594803"><ele>82.7</ele><time>2012-07-20T18:58:54.0000000+00:00</time></trkpt><trkpt lat="64.04030609" lon="-20.295578"><ele>81.5</ele><time>2012-07-20T18:58:59.0000000+00:00</time></trkpt><trkpt lat="64.04032898" lon="-20.29527664"><ele>82.6</ele><time>2012-07-20T18:59:04.0000000+00:00</time></trkpt><trkpt lat="64.04033661" lon="-20.29496384"><ele>80.6</ele><time>2012-07-20T18:59:09.0000000+00:00</time></trkpt><trkpt lat="64.0403595" lon="-20.29454422"><ele>79.7</ele><time>2012-07-20T18:59:14.0000000+00:00</time></trkpt><trkpt lat="64.04039002" lon="-20.29405212"><ele>78.1</ele><time>2012-07-20T18:59:19.0000000+00:00</time></trkpt><trkpt lat="64.04042816" lon="-20.29348946"><ele>77.5</ele><time>2012-07-20T18:59:24.0000000+00:00</time></trkpt><trkpt lat="64.04045868" lon="-20.29290962"><ele>78.0</ele><time>2012-07-20T18:59:29.0000000+00:00</time></trkpt><trkpt lat="64.0404892" lon="-20.29241562"><ele>79.6</ele><time>2012-07-20T18:59:34.0000000+00:00</time></trkpt><trkpt lat="64.04051209" lon="-20.29201317"><ele>79.9</ele><time>2012-07-20T18:59:39.0000000+00:00</time></trkpt><trkpt lat="64.04053497" lon="-20.29160118"><ele>78.6</ele><time>2012-07-20T18:59:44.0000000+00:00</time></trkpt><trkpt lat="64.04055023" lon="-20.29124641"><ele>79.2</ele><time>2012-07-20T18:59:49.0000000+00:00</time></trkpt><trkpt lat="64.04056549" lon="-20.2908535"><ele>79.8</ele><time>2012-07-20T18:59:54.0000000+00:00</time></trkpt><trkpt lat="64.04058075" lon="-20.29050446"><ele>79.8</ele><time>2012-07-20T18:59:59.0000000+00:00</time></trkpt><trkpt lat="64.04061127" lon="-20.29014778"><ele>78.3</ele><time>2012-07-20T19:00:04.0000000+00:00</time></trkpt><trkpt lat="64.04064179" lon="-20.28971291"><ele>77.3</ele><time>2012-07-20T19:00:09.0000000+00:00</time></trkpt><trkpt lat="64.0406723" lon="-20.28928375"><ele>77.7</ele><time>2012-07-20T19:00:14.0000000+00:00</time></trkpt><trkpt lat="64.04071808" lon="-20.28884506"><ele>78.2</ele><time>2012-07-20T19:00:19.0000000+00:00</time></trkpt><trkpt lat="64.04077911" lon="-20.28836823"><ele>79.7</ele><time>2012-07-20T19:00:24.0000000+00:00</time></trkpt><trkpt lat="64.04084015" lon="-20.2878952"><ele>81.1</ele><time>2012-07-20T19:00:29.0000000+00:00</time></trkpt><trkpt lat="64.04092407" lon="-20.28745651"><ele>79.8</ele><time>2012-07-20T19:00:34.0000000+00:00</time></trkpt><trkpt lat="64.041008" lon="-20.28703308"><ele>78.6</ele><time>2012-07-20T19:00:39.0000000+00:00</time></trkpt><trkpt lat="64.04111481" lon="-20.28666496"><ele>79.5</ele><time>2012-07-20T19:00:44.0000000+00:00</time></trkpt><trkpt lat="64.04123688" lon="-20.28630447"><ele>78.7</ele><time>2012-07-20T19:00:49.0000000+00:00</time></trkpt><trkpt lat="64.04133606" lon="-20.28592873"><ele>79.2</ele><time>2012-07-20T19:00:54.0000000+00:00</time></trkpt><trkpt lat="64.04143524" lon="-20.28558922"><ele>80.2</ele><time>2012-07-20T19:00:59.0000000+00:00</time></trkpt><trkpt lat="64.04151917" lon="-20.2852726"><ele>81.1</ele><time>2012-07-20T19:01:04.0000000+00:00</time></trkpt><trkpt lat="64.04158783" lon="-20.28492165"><ele>80.6</ele><time>2012-07-20T19:01:09.0000000+00:00</time></trkpt><trkpt lat="64.04164887" lon="-20.28454971"><ele>80.3</ele><time>2012-07-20T19:01:14.0000000+00:00</time></trkpt><trkpt lat="64.04171753" lon="-20.28415108"><ele>83.2</ele><time>2012-07-20T19:01:19.0000000+00:00</time></trkpt><trkpt lat="64.04177856" lon="-20.28369904"><ele>84.1</ele><time>2012-07-20T19:01:24.0000000+00:00</time></trkpt><trkpt lat="64.04183197" lon="-20.28323364"><ele>87.4</ele><time>2012-07-20T19:01:29.0000000+00:00</time></trkpt><trkpt lat="64.04185486" lon="-20.2827549"><ele>87.8</ele><time>2012-07-20T19:01:34.0000000+00:00</time></trkpt><trkpt lat="64.04187775" lon="-20.28222656"><ele>87.4</ele><time>2012-07-20T19:01:39.0000000+00:00</time></trkpt><trkpt lat="64.04188538" lon="-20.28167725"><ele>87.0</ele><time>2012-07-20T19:01:44.0000000+00:00</time></trkpt><trkpt lat="64.04189301" lon="-20.28110123"><ele>86.5</ele><time>2012-07-20T19:01:49.0000000+00:00</time></trkpt><trkpt lat="64.04188538" lon="-20.28058624"><ele>86.9</ele><time>2012-07-20T19:01:54.0000000+00:00</time></trkpt><trkpt lat="64.04189301" lon="-20.28006363"><ele>87.8</ele><time>2012-07-20T19:01:59.0000000+00:00</time></trkpt><trkpt lat="64.04188538" lon="-20.27960968"><ele>87.7</ele><time>2012-07-20T19:02:04.0000000+00:00</time></trkpt><trkpt lat="64.04187012" lon="-20.27919006"><ele>88.1</ele><time>2012-07-20T19:02:09.0000000+00:00</time></trkpt><trkpt lat="64.04185486" lon="-20.27879334"><ele>88.4</ele><time>2012-07-20T19:02:14.0000000+00:00</time></trkpt><trkpt lat="64.04184723" lon="-20.27844429"><ele>88.9</ele><time>2012-07-20T19:02:19.0000000+00:00</time></trkpt><trkpt lat="64.04184723" lon="-20.27810288"><ele>89.5</ele><time>2012-07-20T19:02:24.0000000+00:00</time></trkpt><trkpt lat="64.0418396" lon="-20.27774811"><ele>89.6</ele><time>2012-07-20T19:02:29.0000000+00:00</time></trkpt><trkpt lat="64.04183197" lon="-20.2773819"><ele>89.8</ele><time>2012-07-20T19:02:34.0000000+00:00</time></trkpt><trkpt lat="64.04183197" lon="-20.27700615"><ele>89.9</ele><time>2012-07-20T19:02:39.0000000+00:00</time></trkpt><trkpt lat="64.04183197" lon="-20.276577"><ele>89.7</ele><time>2012-07-20T19:02:44.0000000+00:00</time></trkpt><trkpt lat="64.04180908" lon="-20.2761116"><ele>91.3</ele><time>2012-07-20T19:02:49.0000000+00:00</time></trkpt><trkpt lat="64.04179382" lon="-20.27562141"><ele>89.8</ele><time>2012-07-20T19:02:54.0000000+00:00</time></trkpt><trkpt lat="64.04178619" lon="-20.27518082"><ele>90.0</ele><time>2012-07-20T19:02:59.0000000+00:00</time></trkpt><trkpt lat="64.04177856" lon="-20.27476883"><ele>90.5</ele><time>2012-07-20T19:03:04.0000000+00:00</time></trkpt><trkpt lat="64.04177094" lon="-20.27434921"><ele>91.8</ele><time>2012-07-20T19:03:09.0000000+00:00</time></trkpt><trkpt lat="64.04176331" lon="-20.27393723"><ele>93.5</ele><time>2012-07-20T19:03:14.0000000+00:00</time></trkpt><trkpt lat="64.04175568" lon="-20.27348518"><ele>95.1</ele><time>2012-07-20T19:03:19.0000000+00:00</time></trkpt><trkpt lat="64.04175568" lon="-20.27301979"><ele>93.7</ele><time>2012-07-20T19:03:24.0000000+00:00</time></trkpt><trkpt lat="64.04174805" lon="-20.27264595"><ele>94.4</ele><time>2012-07-20T19:03:29.0000000+00:00</time></trkpt><trkpt lat="64.04174042" lon="-20.27224159"><ele>94.4</ele><time>2012-07-20T19:03:34.0000000+00:00</time></trkpt><trkpt lat="64.04173279" lon="-20.27183723"><ele>93.8</ele><time>2012-07-20T19:03:39.0000000+00:00</time></trkpt><trkpt lat="64.04172516" lon="-20.27142716"><ele>93.0</ele><time>2012-07-20T19:03:44.0000000+00:00</time></trkpt><trkpt lat="64.04171753" lon="-20.27093887"><ele>92.6</ele><time>2012-07-20T19:03:49.0000000+00:00</time></trkpt><trkpt lat="64.0417099" lon="-20.27041245"><ele>91.6</ele><time>2012-07-20T19:03:54.0000000+00:00</time></trkpt><trkpt lat="64.04168701" lon="-20.2698307"><ele>91.3</ele><time>2012-07-20T19:03:59.0000000+00:00</time></trkpt><trkpt lat="64.04166412" lon="-20.26917648"><ele>90.5</ele><time>2012-07-20T19:04:04.0000000+00:00</time></trkpt><trkpt lat="64.04161835" lon="-20.26848412"><ele>90.7</ele><time>2012-07-20T19:04:09.0000000+00:00</time></trkpt><trkpt lat="64.04158783" lon="-20.26784706"><ele>89.1</ele><time>2012-07-20T19:04:14.0000000+00:00</time></trkpt><trkpt lat="64.04155731" lon="-20.26730347"><ele>88.0</ele><time>2012-07-20T19:04:19.0000000+00:00</time></trkpt><trkpt lat="64.04153442" lon="-20.26677513"><ele>88.5</ele><time>2012-07-20T19:04:24.0000000+00:00</time></trkpt><trkpt lat="64.04151154" lon="-20.2663002"><ele>89.8</ele><time>2012-07-20T19:04:29.0000000+00:00</time></trkpt><trkpt lat="64.04148865" lon="-20.26587105"><ele>88.4</ele><time>2012-07-20T19:04:34.0000000+00:00</time></trkpt><trkpt lat="64.04146576" lon="-20.26541328"><ele>88.6</ele><time>2012-07-20T19:04:39.0000000+00:00</time></trkpt><trkpt lat="64.04145813" lon="-20.26497078"><ele>87.7</ele><time>2012-07-20T19:04:44.0000000+00:00</time></trkpt><trkpt lat="64.04142761" lon="-20.26453781"><ele>89.3</ele><time>2012-07-20T19:04:49.0000000+00:00</time></trkpt><trkpt lat="64.0413971" lon="-20.26410484"><ele>90.3</ele><time>2012-07-20T19:04:54.0000000+00:00</time></trkpt><trkpt lat="64.04136658" lon="-20.26366806"><ele>93.1</ele><time>2012-07-20T19:04:59.0000000+00:00</time></trkpt><trkpt lat="64.04135895" lon="-20.26324463"><ele>94.5</ele><time>2012-07-20T19:05:04.0000000+00:00</time></trkpt><trkpt lat="64.04133606" lon="-20.26282501"><ele>95.5</ele><time>2012-07-20T19:05:09.0000000+00:00</time></trkpt><trkpt lat="64.04131317" lon="-20.26238442"><ele>97.0</ele><time>2012-07-20T19:05:14.0000000+00:00</time></trkpt><trkpt lat="64.04129791" lon="-20.26194572"><ele>99.5</ele><time>2012-07-20T19:05:19.0000000+00:00</time></trkpt><trkpt lat="64.0412674" lon="-20.26156807"><ele>98.4</ele><time>2012-07-20T19:05:24.0000000+00:00</time></trkpt><trkpt lat="64.04124451" lon="-20.26117325"><ele>98.3</ele><time>2012-07-20T19:05:29.0000000+00:00</time></trkpt><trkpt lat="64.04121399" lon="-20.2606945"><ele>97.5</ele><time>2012-07-20T19:05:34.0000000+00:00</time></trkpt><trkpt lat="64.04119873" lon="-20.2602272"><ele>98.4</ele><time>2012-07-20T19:05:39.0000000+00:00</time></trkpt><trkpt lat="64.04118347" lon="-20.25986099"><ele>98.0</ele><time>2012-07-20T19:05:44.0000000+00:00</time></trkpt><trkpt lat="64.04116058" lon="-20.25945091"><ele>98.6</ele><time>2012-07-20T19:05:49.0000000+00:00</time></trkpt><trkpt lat="64.04114533" lon="-20.2590313"><ele>99.0</ele><time>2012-07-20T19:05:54.0000000+00:00</time></trkpt><trkpt lat="64.04112244" lon="-20.25861549"><ele>104.0</ele><time>2012-07-20T19:05:59.0000000+00:00</time></trkpt><trkpt lat="64.04109955" lon="-20.25815964"><ele>102.5</ele><time>2012-07-20T19:06:04.0000000+00:00</time></trkpt><trkpt lat="64.04107666" lon="-20.25772858"><ele>103.4</ele><time>2012-07-20T19:06:09.0000000+00:00</time></trkpt><trkpt lat="64.04105377" lon="-20.25730705"><ele>103.1</ele><time>2012-07-20T19:06:14.0000000+00:00</time></trkpt><trkpt lat="64.04103851" lon="-20.25690079"><ele>102.9</ele><time>2012-07-20T19:06:19.0000000+00:00</time></trkpt><trkpt lat="64.04101563" lon="-20.25646782"><ele>101.9</ele><time>2012-07-20T19:06:24.0000000+00:00</time></trkpt><trkpt lat="64.041008" lon="-20.25603485"><ele>100.8</ele><time>2012-07-20T19:06:29.0000000+00:00</time></trkpt><trkpt lat="64.04099274" lon="-20.25560379"><ele>99.3</ele><time>2012-07-20T19:06:34.0000000+00:00</time></trkpt><trkpt lat="64.04099274" lon="-20.25515556"><ele>98.2</ele><time>2012-07-20T19:06:39.0000000+00:00</time></trkpt><trkpt lat="64.04097748" lon="-20.25468254"><ele>97.9</ele><time>2012-07-20T19:06:44.0000000+00:00</time></trkpt><trkpt lat="64.04096985" lon="-20.25422096"><ele>96.7</ele><time>2012-07-20T19:06:49.0000000+00:00</time></trkpt><trkpt lat="64.04097748" lon="-20.25376511"><ele>97.4</ele><time>2012-07-20T19:06:54.0000000+00:00</time></trkpt><trkpt lat="64.04096985" lon="-20.25329208"><ele>97.7</ele><time>2012-07-20T19:06:59.0000000+00:00</time></trkpt><trkpt lat="64.04096985" lon="-20.25286102"><ele>97.1</ele><time>2012-07-20T19:07:04.0000000+00:00</time></trkpt><trkpt lat="64.04096222" lon="-20.2524662"><ele>97.5</ele><time>2012-07-20T19:07:09.0000000+00:00</time></trkpt><trkpt lat="64.04096222" lon="-20.25214768"><ele>97.2</ele><time>2012-07-20T19:07:14.0000000+00:00</time></trkpt><trkpt lat="64.04095459" lon="-20.25185013"><ele>96.0</ele><time>2012-07-20T19:07:19.0000000+00:00</time></trkpt><trkpt lat="64.04095459" lon="-20.25151825"><ele>95.9</ele><time>2012-07-20T19:07:24.0000000+00:00</time></trkpt><trkpt lat="64.04096222" lon="-20.25118637"><ele>95.6</ele><time>2012-07-20T19:07:29.0000000+00:00</time></trkpt><trkpt lat="64.04096985" lon="-20.25085068"><ele>95.5</ele><time>2012-07-20T19:07:34.0000000+00:00</time></trkpt><trkpt lat="64.04096985" lon="-20.25050354"><ele>94.6</ele><time>2012-07-20T19:07:39.0000000+00:00</time></trkpt><trkpt lat="64.04096985" lon="-20.25014305"><ele>94.4</ele><time>2012-07-20T19:07:44.0000000+00:00</time></trkpt><trkpt lat="64.04096985" lon="-20.24982643"><ele>94.9</ele><time>2012-07-20T19:07:49.0000000+00:00</time></trkpt><trkpt lat="64.04096985" lon="-20.24945831"><ele>94.3</ele><time>2012-07-20T19:07:54.0000000+00:00</time></trkpt><trkpt lat="64.04096222" lon="-20.24899864"><ele>94.8</ele><time>2012-07-20T19:07:59.0000000+00:00</time></trkpt><trkpt lat="64.04096985" lon="-20.24849892"><ele>94.7</ele><time>2012-07-20T19:08:04.0000000+00:00</time></trkpt><trkpt lat="64.04096985" lon="-20.24798393"><ele>94.7</ele><time>2012-07-20T19:08:09.0000000+00:00</time></trkpt><trkpt lat="64.04096985" lon="-20.24744988"><ele>94.4</ele><time>2012-07-20T19:08:14.0000000+00:00</time></trkpt><trkpt lat="64.04096985" lon="-20.24688721"><ele>94.1</ele><time>2012-07-20T19:08:19.0000000+00:00</time></trkpt><trkpt lat="64.04097748" lon="-20.24634171"><ele>94.3</ele><time>2012-07-20T19:08:24.0000000+00:00</time></trkpt><trkpt lat="64.04097748" lon="-20.2457943"><ele>94.3</ele><time>2012-07-20T19:08:29.0000000+00:00</time></trkpt><trkpt lat="64.04096985" lon="-20.2453022"><ele>94.3</ele><time>2012-07-20T19:08:34.0000000+00:00</time></trkpt><trkpt lat="64.04096985" lon="-20.24482727"><ele>94.9</ele><time>2012-07-20T19:08:39.0000000+00:00</time></trkpt><trkpt lat="64.04096985" lon="-20.24434662"><ele>95.2</ele><time>2012-07-20T19:08:44.0000000+00:00</time></trkpt><trkpt lat="64.04097748" lon="-20.24386215"><ele>95.5</ele><time>2012-07-20T19:08:49.0000000+00:00</time></trkpt><trkpt lat="64.04096985" lon="-20.24336815"><ele>95.7</ele><time>2012-07-20T19:08:54.0000000+00:00</time></trkpt><trkpt lat="64.04097748" lon="-20.24287605"><ele>95.6</ele><time>2012-07-20T19:08:59.0000000+00:00</time></trkpt><trkpt lat="64.04099274" lon="-20.24240303"><ele>96.9</ele><time>2012-07-20T19:09:04.0000000+00:00</time></trkpt><trkpt lat="64.04099274" lon="-20.24195671"><ele>96.9</ele><time>2012-07-20T19:09:09.0000000+00:00</time></trkpt><trkpt lat="64.04099274" lon="-20.24151802"><ele>97.0</ele><time>2012-07-20T19:09:14.0000000+00:00</time></trkpt><trkpt lat="64.04098511" lon="-20.2410717"><ele>97.5</ele><time>2012-07-20T19:09:19.0000000+00:00</time></trkpt><trkpt lat="64.04099274" lon="-20.2406826"><ele>97.3</ele><time>2012-07-20T19:09:24.0000000+00:00</time></trkpt><trkpt lat="64.04098511" lon="-20.24027443"><ele>97.2</ele><time>2012-07-20T19:09:29.0000000+00:00</time></trkpt><trkpt lat="64.04099274" lon="-20.23986816"><ele>97.1</ele><time>2012-07-20T19:09:34.0000000+00:00</time></trkpt><trkpt lat="64.04099274" lon="-20.23950958"><ele>97.3</ele><time>2012-07-20T19:09:39.0000000+00:00</time></trkpt><trkpt lat="64.04099274" lon="-20.23913193"><ele>97.5</ele><time>2012-07-20T19:09:44.0000000+00:00</time></trkpt><trkpt lat="64.04099274" lon="-20.23875809"><ele>98.3</ele><time>2012-07-20T19:09:49.0000000+00:00</time></trkpt><trkpt lat="64.04099274" lon="-20.23835945"><ele>98.6</ele><time>2012-07-20T19:09:54.0000000+00:00</time></trkpt><trkpt lat="64.04099274" lon="-20.23794556"><ele>99.1</ele><time>2012-07-20T19:09:59.0000000+00:00</time></trkpt><trkpt lat="64.04099274" lon="-20.23751831"><ele>99.0</ele><time>2012-07-20T19:10:04.0000000+00:00</time></trkpt><trkpt lat="64.04100037" lon="-20.23706245"><ele>99.0</ele><time>2012-07-20T19:10:09.0000000+00:00</time></trkpt><trkpt lat="64.04100037" lon="-20.23664093"><ele>99.8</ele><time>2012-07-20T19:10:14.0000000+00:00</time></trkpt><trkpt lat="64.041008" lon="-20.23626328"><ele>100.3</ele><time>2012-07-20T19:10:19.0000000+00:00</time></trkpt><trkpt lat="64.041008" lon="-20.23581505"><ele>100.3</ele><time>2012-07-20T19:10:24.0000000+00:00</time></trkpt><trkpt lat="64.041008" lon="-20.2353363"><ele>99.6</ele><time>2012-07-20T19:10:29.0000000+00:00</time></trkpt><trkpt lat="64.04099274" lon="-20.23485947"><ele>100.4</ele><time>2012-07-20T19:10:34.0000000+00:00</time></trkpt><trkpt lat="64.04099274" lon="-20.23439598"><ele>100.2</ele><time>2012-07-20T19:10:39.0000000+00:00</time></trkpt><trkpt lat="64.04099274" lon="-20.23392677"><ele>99.9</ele><time>2012-07-20T19:10:44.0000000+00:00</time></trkpt><trkpt lat="64.04100037" lon="-20.23347282"><ele>99.8</ele><time>2012-07-20T19:10:49.0000000+00:00</time></trkpt><trkpt lat="64.04100037" lon="-20.23303223"><ele>100.2</ele><time>2012-07-20T19:10:54.0000000+00:00</time></trkpt><trkpt lat="64.04100037" lon="-20.23259735"><ele>100.9</ele><time>2012-07-20T19:10:59.0000000+00:00</time></trkpt><trkpt lat="64.04100037" lon="-20.23216057"><ele>101.1</ele><time>2012-07-20T19:11:04.0000000+00:00</time></trkpt><trkpt lat="64.04100037" lon="-20.23172188"><ele>101.2</ele><time>2012-07-20T19:11:09.0000000+00:00</time></trkpt><trkpt lat="64.04100037" lon="-20.231287"><ele>101.8</ele><time>2012-07-20T19:11:14.0000000+00:00</time></trkpt><trkpt lat="64.04101563" lon="-20.23087502"><ele>102.8</ele><time>2012-07-20T19:11:19.0000000+00:00</time></trkpt><trkpt lat="64.04101563" lon="-20.23044777"><ele>102.7</ele><time>2012-07-20T19:11:24.0000000+00:00</time></trkpt><trkpt lat="64.041008" lon="-20.23001289"><ele>102.8</ele><time>2012-07-20T19:11:29.0000000+00:00</time></trkpt><trkpt lat="64.04100037" lon="-20.22958756"><ele>103.1</ele><time>2012-07-20T19:11:34.0000000+00:00</time></trkpt><trkpt lat="64.041008" lon="-20.22915077"><ele>103.9</ele><time>2012-07-20T19:11:39.0000000+00:00</time></trkpt><trkpt lat="64.04101563" lon="-20.22871971"><ele>103.4</ele><time>2012-07-20T19:11:44.0000000+00:00</time></trkpt><trkpt lat="64.04101563" lon="-20.22826576"><ele>103.9</ele><time>2012-07-20T19:11:49.0000000+00:00</time></trkpt><trkpt lat="64.04101563" lon="-20.22781754"><ele>104.3</ele><time>2012-07-20T19:11:54.0000000+00:00</time></trkpt><trkpt lat="64.04102325" lon="-20.22736359"><ele>104.3</ele><time>2012-07-20T19:11:59.0000000+00:00</time></trkpt><trkpt lat="64.04101563" lon="-20.22688675"><ele>104.6</ele><time>2012-07-20T19:12:04.0000000+00:00</time></trkpt><trkpt lat="64.04102325" lon="-20.22644234"><ele>104.8</ele><time>2012-07-20T19:12:09.0000000+00:00</time></trkpt><trkpt lat="64.04101563" lon="-20.2259922"><ele>104.4</ele><time>2012-07-20T19:12:14.0000000+00:00</time></trkpt><trkpt lat="64.04102325" lon="-20.22556114"><ele>104.3</ele><time>2012-07-20T19:12:19.0000000+00:00</time></trkpt><trkpt lat="64.04103088" lon="-20.22511292"><ele>104.1</ele><time>2012-07-20T19:12:24.0000000+00:00</time></trkpt><trkpt lat="64.04103088" lon="-20.22465897"><ele>103.5</ele><time>2012-07-20T19:12:29.0000000+00:00</time></trkpt><trkpt lat="64.04103088" lon="-20.22420883"><ele>102.9</ele><time>2012-07-20T19:12:34.0000000+00:00</time></trkpt><trkpt lat="64.04103088" lon="-20.22375488"><ele>102.6</ele><time>2012-07-20T19:12:39.0000000+00:00</time></trkpt><trkpt lat="64.04103851" lon="-20.22330856"><ele>102.4</ele><time>2012-07-20T19:12:44.0000000+00:00</time></trkpt><trkpt lat="64.04103851" lon="-20.2228508"><ele>102.3</ele><time>2012-07-20T19:12:49.0000000+00:00</time></trkpt><trkpt lat="64.04103088" lon="-20.22238159"><ele>102.1</ele><time>2012-07-20T19:12:54.0000000+00:00</time></trkpt><trkpt lat="64.04103851" lon="-20.2219162"><ele>101.8</ele><time>2012-07-20T19:12:59.0000000+00:00</time></trkpt><trkpt lat="64.04103851" lon="-20.22144508"><ele>101.3</ele><time>2012-07-20T19:13:04.0000000+00:00</time></trkpt><trkpt lat="64.04103851" lon="-20.22096252"><ele>101.7</ele><time>2012-07-20T19:13:09.0000000+00:00</time></trkpt><trkpt lat="64.04103851" lon="-20.22047043"><ele>102.0</ele><time>2012-07-20T19:13:14.0000000+00:00</time></trkpt><trkpt lat="64.04103851" lon="-20.21999741"><ele>102.0</ele><time>2012-07-20T19:13:19.0000000+00:00</time></trkpt><trkpt lat="64.04104614" lon="-20.21959114"><ele>102.6</ele><time>2012-07-20T19:13:24.0000000+00:00</time></trkpt><trkpt lat="64.04104614" lon="-20.21921539"><ele>101.7</ele><time>2012-07-20T19:13:29.0000000+00:00</time></trkpt><trkpt lat="64.04105377" lon="-20.2188015"><ele>100.6</ele><time>2012-07-20T19:13:34.0000000+00:00</time></trkpt><trkpt lat="64.04105377" lon="-20.21837997"><ele>101.1</ele><time>2012-07-20T19:13:39.0000000+00:00</time></trkpt><trkpt lat="64.04104614" lon="-20.21796799"><ele>101.6</ele><time>2012-07-20T19:13:44.0000000+00:00</time></trkpt><trkpt lat="64.04105377" lon="-20.21753502"><ele>102.0</ele><time>2012-07-20T19:13:49.0000000+00:00</time></trkpt><trkpt lat="64.04105377" lon="-20.21710587"><ele>101.6</ele><time>2012-07-20T19:13:54.0000000+00:00</time></trkpt><trkpt lat="64.04104614" lon="-20.21670151"><ele>101.5</ele><time>2012-07-20T19:13:59.0000000+00:00</time></trkpt><trkpt lat="64.04105377" lon="-20.2163105"><ele>101.3</ele><time>2012-07-20T19:14:04.0000000+00:00</time></trkpt><trkpt lat="64.04104614" lon="-20.21591187"><ele>101.7</ele><time>2012-07-20T19:14:09.0000000+00:00</time></trkpt><trkpt lat="64.04105377" lon="-20.21550942"><ele>101.3</ele><time>2012-07-20T19:14:14.0000000+00:00</time></trkpt><trkpt lat="64.04105377" lon="-20.2150631"><ele>101.0</ele><time>2012-07-20T19:14:19.0000000+00:00</time></trkpt><trkpt lat="64.04105377" lon="-20.21461296"><ele>101.3</ele><time>2012-07-20T19:14:24.0000000+00:00</time></trkpt><trkpt lat="64.04105377" lon="-20.21415329"><ele>102.0</ele><time>2012-07-20T19:14:29.0000000+00:00</time></trkpt><trkpt lat="64.0410614" lon="-20.21371269"><ele>102.3</ele><time>2012-07-20T19:14:34.0000000+00:00</time></trkpt><trkpt lat="64.0410614" lon="-20.21326637"><ele>102.9</ele><time>2012-07-20T19:14:39.0000000+00:00</time></trkpt><trkpt lat="64.04106903" lon="-20.21283722"><ele>103.4</ele><time>2012-07-20T19:14:44.0000000+00:00</time></trkpt><trkpt lat="64.0410614" lon="-20.21238518"><ele>104.1</ele><time>2012-07-20T19:14:49.0000000+00:00</time></trkpt><trkpt lat="64.0410614" lon="-20.21191025"><ele>104.5</ele><time>2012-07-20T19:14:54.0000000+00:00</time></trkpt><trkpt lat="64.04105377" lon="-20.21146202"><ele>105.0</ele><time>2012-07-20T19:14:59.0000000+00:00</time></trkpt><trkpt lat="64.04105377" lon="-20.21100617"><ele>105.4</ele><time>2012-07-20T19:15:04.0000000+00:00</time></trkpt><trkpt lat="64.0410614" lon="-20.21054077"><ele>105.3</ele><time>2012-07-20T19:15:09.0000000+00:00</time></trkpt><trkpt lat="64.0410614" lon="-20.21009827"><ele>105.6</ele><time>2012-07-20T19:15:14.0000000+00:00</time></trkpt><trkpt lat="64.04106903" lon="-20.20965576"><ele>105.5</ele><time>2012-07-20T19:15:19.0000000+00:00</time></trkpt><trkpt lat="64.0410614" lon="-20.20919609"><ele>105.2</ele><time>2012-07-20T19:15:24.0000000+00:00</time></trkpt><trkpt lat="64.04106903" lon="-20.20872879"><ele>105.0</ele><time>2012-07-20T19:15:29.0000000+00:00</time></trkpt><trkpt lat="64.04107666" lon="-20.20825577"><ele>105.3</ele><time>2012-07-20T19:15:34.0000000+00:00</time></trkpt><trkpt lat="64.04107666" lon="-20.20776558"><ele>104.9</ele><time>2012-07-20T19:15:39.0000000+00:00</time></trkpt><trkpt lat="64.04108429" lon="-20.20727921"><ele>104.9</ele><time>2012-07-20T19:15:44.0000000+00:00</time></trkpt><trkpt lat="64.04109192" lon="-20.20679665"><ele>105.3</ele><time>2012-07-20T19:15:49.0000000+00:00</time></trkpt><trkpt lat="64.04109955" lon="-20.20632362"><ele>105.0</ele><time>2012-07-20T19:15:54.0000000+00:00</time></trkpt><trkpt lat="64.04112244" lon="-20.20581627"><ele>104.6</ele><time>2012-07-20T19:15:59.0000000+00:00</time></trkpt><trkpt lat="64.04113007" lon="-20.20534134"><ele>104.9</ele><time>2012-07-20T19:16:04.0000000+00:00</time></trkpt><trkpt lat="64.04115295" lon="-20.20490074"><ele>105.0</ele><time>2012-07-20T19:16:09.0000000+00:00</time></trkpt><trkpt lat="64.04117584" lon="-20.20445824"><ele>105.5</ele><time>2012-07-20T19:16:14.0000000+00:00</time></trkpt><trkpt lat="64.04120636" lon="-20.20400238"><ele>105.9</ele><time>2012-07-20T19:16:19.0000000+00:00</time></trkpt><trkpt lat="64.04122925" lon="-20.2035389"><ele>106.2</ele><time>2012-07-20T19:16:24.0000000+00:00</time></trkpt><trkpt lat="64.04125214" lon="-20.20308685"><ele>105.8</ele><time>2012-07-20T19:16:29.0000000+00:00</time></trkpt><trkpt lat="64.04127502" lon="-20.20262146"><ele>105.7</ele><time>2012-07-20T19:16:34.0000000+00:00</time></trkpt><trkpt lat="64.04130554" lon="-20.2021637"><ele>106.0</ele><time>2012-07-20T19:16:39.0000000+00:00</time></trkpt><trkpt lat="64.04133606" lon="-20.20170784"><ele>106.0</ele><time>2012-07-20T19:16:44.0000000+00:00</time></trkpt><trkpt lat="64.04137421" lon="-20.20122719"><ele>106.0</ele><time>2012-07-20T19:16:49.0000000+00:00</time></trkpt><trkpt lat="64.04141235" lon="-20.20076752"><ele>106.2</ele><time>2012-07-20T19:16:54.0000000+00:00</time></trkpt><trkpt lat="64.04145813" lon="-20.20031738"><ele>105.9</ele><time>2012-07-20T19:16:59.0000000+00:00</time></trkpt><trkpt lat="64.04148865" lon="-20.19987679"><ele>106.6</ele><time>2012-07-20T19:17:04.0000000+00:00</time></trkpt><trkpt lat="64.04153442" lon="-20.19943047"><ele>106.2</ele><time>2012-07-20T19:17:09.0000000+00:00</time></trkpt><trkpt lat="64.0415802" lon="-20.19896698"><ele>106.9</ele><time>2012-07-20T19:17:14.0000000+00:00</time></trkpt><trkpt lat="64.04161835" lon="-20.19851112"><ele>106.8</ele><time>2012-07-20T19:17:19.0000000+00:00</time></trkpt><trkpt lat="64.04165649" lon="-20.19805527"><ele>106.9</ele><time>2012-07-20T19:17:24.0000000+00:00</time></trkpt><trkpt lat="64.04170227" lon="-20.19760513"><ele>108.1</ele><time>2012-07-20T19:17:29.0000000+00:00</time></trkpt><trkpt lat="64.04174805" lon="-20.1971283"><ele>108.6</ele><time>2012-07-20T19:17:34.0000000+00:00</time></trkpt><trkpt lat="64.04180145" lon="-20.1966629"><ele>109.1</ele><time>2012-07-20T19:17:39.0000000+00:00</time></trkpt><trkpt lat="64.04184723" lon="-20.19621086"><ele>111.0</ele><time>2012-07-20T19:17:44.0000000+00:00</time></trkpt><trkpt lat="64.04188538" lon="-20.19576645"><ele>110.5</ele><time>2012-07-20T19:17:49.0000000+00:00</time></trkpt><trkpt lat="64.04191589" lon="-20.19538689"><ele>107.1</ele><time>2012-07-20T19:17:54.0000000+00:00</time></trkpt><trkpt lat="64.04195404" lon="-20.19496727"><ele>108.2</ele><time>2012-07-20T19:17:59.0000000+00:00</time></trkpt><trkpt lat="64.04199982" lon="-20.19454956"><ele>110.2</ele><time>2012-07-20T19:18:04.0000000+00:00</time></trkpt><trkpt lat="64.04204559" lon="-20.19412231"><ele>110.8</ele><time>2012-07-20T19:18:09.0000000+00:00</time></trkpt><trkpt lat="64.04209137" lon="-20.19370651"><ele>113.3</ele><time>2012-07-20T19:18:14.0000000+00:00</time></trkpt><trkpt lat="64.04213715" lon="-20.19326592"><ele>110.9</ele><time>2012-07-20T19:18:19.0000000+00:00</time></trkpt><trkpt lat="64.04217529" lon="-20.19281387"><ele>108.3</ele><time>2012-07-20T19:18:24.0000000+00:00</time></trkpt><trkpt lat="64.04220581" lon="-20.19235039"><ele>107.3</ele><time>2012-07-20T19:18:29.0000000+00:00</time></trkpt><trkpt lat="64.04224396" lon="-20.19191933"><ele>107.0</ele><time>2012-07-20T19:18:34.0000000+00:00</time></trkpt><trkpt lat="64.04229736" lon="-20.19145966"><ele>108.3</ele><time>2012-07-20T19:18:39.0000000+00:00</time></trkpt><trkpt lat="64.04234314" lon="-20.19100571"><ele>111.9</ele><time>2012-07-20T19:18:44.0000000+00:00</time></trkpt><trkpt lat="64.04238892" lon="-20.19054604"><ele>113.6</ele><time>2012-07-20T19:18:49.0000000+00:00</time></trkpt><trkpt lat="64.04242706" lon="-20.19007874"><ele>114.4</ele><time>2012-07-20T19:18:54.0000000+00:00</time></trkpt><trkpt lat="64.04247284" lon="-20.18960953"><ele>116.7</ele><time>2012-07-20T19:18:59.0000000+00:00</time></trkpt><trkpt lat="64.04251862" lon="-20.18914604"><ele>116.8</ele><time>2012-07-20T19:19:04.0000000+00:00</time></trkpt><trkpt lat="64.04256439" lon="-20.18867874"><ele>116.7</ele><time>2012-07-20T19:19:09.0000000+00:00</time></trkpt><trkpt lat="64.0426178" lon="-20.18820953"><ele>115.4</ele><time>2012-07-20T19:19:14.0000000+00:00</time></trkpt><trkpt lat="64.04266357" lon="-20.18772316"><ele>117.9</ele><time>2012-07-20T19:19:19.0000000+00:00</time></trkpt><trkpt lat="64.04270935" lon="-20.18721962"><ele>116.0</ele><time>2012-07-20T19:19:24.0000000+00:00</time></trkpt><trkpt lat="64.0427475" lon="-20.18673325"><ele>114.2</ele><time>2012-07-20T19:19:29.0000000+00:00</time></trkpt><trkpt lat="64.04278565" lon="-20.18627167"><ele>113.4</ele><time>2012-07-20T19:19:34.0000000+00:00</time></trkpt><trkpt lat="64.04283142" lon="-20.18581009"><ele>113.3</ele><time>2012-07-20T19:19:39.0000000+00:00</time></trkpt><trkpt lat="64.0428772" lon="-20.18534088"><ele>112.4</ele><time>2012-07-20T19:19:44.0000000+00:00</time></trkpt><trkpt lat="64.04292297" lon="-20.18487549"><ele>112.2</ele><time>2012-07-20T19:19:49.0000000+00:00</time></trkpt><trkpt lat="64.04296112" lon="-20.18439484"><ele>112.5</ele><time>2012-07-20T19:19:54.0000000+00:00</time></trkpt><trkpt lat="64.0430069" lon="-20.18388176"><ele>113.6</ele><time>2012-07-20T19:19:59.0000000+00:00</time></trkpt><trkpt lat="64.0430603" lon="-20.18335533"><ele>113.6</ele><time>2012-07-20T19:20:04.0000000+00:00</time></trkpt><trkpt lat="64.04311371" lon="-20.18284988"><ele>110.9</ele><time>2012-07-20T19:20:09.0000000+00:00</time></trkpt><trkpt lat="64.04315949" lon="-20.18235207"><ele>109.8</ele><time>2012-07-20T19:20:14.0000000+00:00</time></trkpt><trkpt lat="64.04319" lon="-20.18190765"><ele>110.9</ele><time>2012-07-20T19:20:19.0000000+00:00</time></trkpt><trkpt lat="64.04323578" lon="-20.18146515"><ele>112.3</ele><time>2012-07-20T19:20:24.0000000+00:00</time></trkpt><trkpt lat="64.04327393" lon="-20.18104363"><ele>111.5</ele><time>2012-07-20T19:20:29.0000000+00:00</time></trkpt><trkpt lat="64.04330444" lon="-20.18062401"><ele>112.6</ele><time>2012-07-20T19:20:34.0000000+00:00</time></trkpt><trkpt lat="64.04335785" lon="-20.18016815"><ele>112.0</ele><time>2012-07-20T19:20:39.0000000+00:00</time></trkpt><trkpt lat="64.043396" lon="-20.17972565"><ele>113.1</ele><time>2012-07-20T19:20:44.0000000+00:00</time></trkpt><trkpt lat="64.0434494" lon="-20.17925263"><ele>115.7</ele><time>2012-07-20T19:20:49.0000000+00:00</time></trkpt><trkpt lat="64.04349518" lon="-20.17877007"><ele>115.2</ele><time>2012-07-20T19:20:54.0000000+00:00</time></trkpt><trkpt lat="64.04354858" lon="-20.17830086"><ele>114.4</ele><time>2012-07-20T19:20:59.0000000+00:00</time></trkpt><trkpt lat="64.04358673" lon="-20.17779923"><ele>113.3</ele><time>2012-07-20T19:21:04.0000000+00:00</time></trkpt><trkpt lat="64.04364014" lon="-20.17726898"><ele>113.5</ele><time>2012-07-20T19:21:09.0000000+00:00</time></trkpt><trkpt lat="64.04368591" lon="-20.17673111"><ele>112.4</ele><time>2012-07-20T19:21:14.0000000+00:00</time></trkpt><trkpt lat="64.04373932" lon="-20.17622185"><ele>112.2</ele><time>2012-07-20T19:21:19.0000000+00:00</time></trkpt><trkpt lat="64.0437851" lon="-20.17567825"><ele>112.0</ele><time>2012-07-20T19:21:24.0000000+00:00</time></trkpt><trkpt lat="64.04384613" lon="-20.17512512"><ele>111.3</ele><time>2012-07-20T19:21:29.0000000+00:00</time></trkpt><trkpt lat="64.04388428" lon="-20.17464066"><ele>111.9</ele><time>2012-07-20T19:21:34.0000000+00:00</time></trkpt><trkpt lat="64.04392242" lon="-20.17418861"><ele>112.0</ele><time>2012-07-20T19:21:39.0000000+00:00</time></trkpt><trkpt lat="64.04396057" lon="-20.17374992"><ele>112.3</ele><time>2012-07-20T19:21:44.0000000+00:00</time></trkpt><trkpt lat="64.04400635" lon="-20.17333603"><ele>112.5</ele><time>2012-07-20T19:21:49.0000000+00:00</time></trkpt><trkpt lat="64.04405212" lon="-20.17290497"><ele>112.9</ele><time>2012-07-20T19:21:54.0000000+00:00</time></trkpt><trkpt lat="64.04409027" lon="-20.172472"><ele>113.0</ele><time>2012-07-20T19:21:59.0000000+00:00</time></trkpt><trkpt lat="64.04412842" lon="-20.17203903"><ele>113.5</ele><time>2012-07-20T19:22:04.0000000+00:00</time></trkpt><trkpt lat="64.04417419" lon="-20.17160988"><ele>113.1</ele><time>2012-07-20T19:22:09.0000000+00:00</time></trkpt><trkpt lat="64.04421997" lon="-20.17116928"><ele>112.3</ele><time>2012-07-20T19:22:14.0000000+00:00</time></trkpt><trkpt lat="64.04427338" lon="-20.17072296"><ele>113.2</ele><time>2012-07-20T19:22:19.0000000+00:00</time></trkpt><trkpt lat="64.04431915" lon="-20.17028236"><ele>113.3</ele><time>2012-07-20T19:22:24.0000000+00:00</time></trkpt><trkpt lat="64.04437256" lon="-20.16983604"><ele>113.1</ele><time>2012-07-20T19:22:29.0000000+00:00</time></trkpt><trkpt lat="64.04442596" lon="-20.16938782"><ele>112.7</ele><time>2012-07-20T19:22:34.0000000+00:00</time></trkpt><trkpt lat="64.04447174" lon="-20.16894341"><ele>112.6</ele><time>2012-07-20T19:22:39.0000000+00:00</time></trkpt><trkpt lat="64.04452515" lon="-20.16850853"><ele>112.8</ele><time>2012-07-20T19:22:44.0000000+00:00</time></trkpt><trkpt lat="64.04458618" lon="-20.16805649"><ele>113.9</ele><time>2012-07-20T19:22:49.0000000+00:00</time></trkpt><trkpt lat="64.04464722" lon="-20.1675911"><ele>114.3</ele><time>2012-07-20T19:22:54.0000000+00:00</time></trkpt><trkpt lat="64.04470825" lon="-20.16718674"><ele>114.6</ele><time>2012-07-20T19:22:59.0000000+00:00</time></trkpt><trkpt lat="64.04476929" lon="-20.16677284"><ele>114.9</ele><time>2012-07-20T19:23:04.0000000+00:00</time></trkpt><trkpt lat="64.04483032" lon="-20.16632843"><ele>115.4</ele><time>2012-07-20T19:23:09.0000000+00:00</time></trkpt><trkpt lat="64.04490662" lon="-20.16587257"><ele>115.3</ele><time>2012-07-20T19:23:14.0000000+00:00</time></trkpt><trkpt lat="64.04497528" lon="-20.16543961"><ele>115.8</ele><time>2012-07-20T19:23:19.0000000+00:00</time></trkpt><trkpt lat="64.04505158" lon="-20.16499901"><ele>115.4</ele><time>2012-07-20T19:23:24.0000000+00:00</time></trkpt><trkpt lat="64.04512024" lon="-20.16455078"><ele>114.6</ele><time>2012-07-20T19:23:29.0000000+00:00</time></trkpt><trkpt lat="64.0451889" lon="-20.16406822"><ele>113.8</ele><time>2012-07-20T19:23:34.0000000+00:00</time></trkpt><trkpt lat="64.0452652" lon="-20.16358185"><ele>113.7</ele><time>2012-07-20T19:23:39.0000000+00:00</time></trkpt><trkpt lat="64.04534912" lon="-20.16308022"><ele>113.5</ele><time>2012-07-20T19:23:44.0000000+00:00</time></trkpt><trkpt lat="64.04543304" lon="-20.16258621"><ele>113.2</ele><time>2012-07-20T19:23:49.0000000+00:00</time></trkpt><trkpt lat="64.04551697" lon="-20.16212082"><ele>111.9</ele><time>2012-07-20T19:23:54.0000000+00:00</time></trkpt><trkpt lat="64.04559326" lon="-20.16168976"><ele>111.9</ele><time>2012-07-20T19:23:59.0000000+00:00</time></trkpt><trkpt lat="64.0456543" lon="-20.16125488"><ele>112.2</ele><time>2012-07-20T19:24:04.0000000+00:00</time></trkpt><trkpt lat="64.04573059" lon="-20.16088295"><ele>113.4</ele><time>2012-07-20T19:24:09.0000000+00:00</time></trkpt><trkpt lat="64.04579163" lon="-20.16053009"><ele>114.9</ele><time>2012-07-20T19:24:14.0000000+00:00</time></trkpt><trkpt lat="64.04584503" lon="-20.16023445"><ele>116.6</ele><time>2012-07-20T19:24:19.0000000+00:00</time></trkpt><trkpt lat="64.04589081" lon="-20.16001511"><ele>118.3</ele><time>2012-07-20T19:24:24.0000000+00:00</time></trkpt><trkpt lat="64.0459137" lon="-20.15981674"><ele>119.7</ele><time>2012-07-20T19:24:29.0000000+00:00</time></trkpt><trkpt lat="64.0459137" lon="-20.15980148"><ele>120.1</ele><time>2012-07-20T19:24:34.0000000+00:00</time></trkpt><trkpt lat="64.04592896" lon="-20.15969086"><ele>120.4</ele><time>2012-07-20T19:24:39.0000000+00:00</time></trkpt><trkpt lat="64.04595184" lon="-20.15958023"><ele>121.5</ele><time>2012-07-20T19:24:44.0000000+00:00</time></trkpt><trkpt lat="64.0459671" lon="-20.15945625"><ele>121.8</ele><time>2012-07-20T19:24:49.0000000+00:00</time></trkpt><trkpt lat="64.04598236" lon="-20.15936661"><ele>122.4</ele><time>2012-07-20T19:24:54.0000000+00:00</time></trkpt><trkpt lat="64.04600525" lon="-20.15926361"><ele>123.5</ele><time>2012-07-20T19:24:59.0000000+00:00</time></trkpt><trkpt lat="64.04601288" lon="-20.1591568"><ele>124.2</ele><time>2012-07-20T19:25:04.0000000+00:00</time></trkpt><trkpt lat="64.04603577" lon="-20.15904236"><ele>124.2</ele><time>2012-07-20T19:25:09.0000000+00:00</time></trkpt><trkpt lat="64.04605103" lon="-20.15894127"><ele>124.4</ele><time>2012-07-20T19:25:14.0000000+00:00</time></trkpt><trkpt lat="64.04607391" lon="-20.15882111"><ele>124.7</ele><time>2012-07-20T19:25:19.0000000+00:00</time></trkpt><trkpt lat="64.04608917" lon="-20.15871811"><ele>124.8</ele><time>2012-07-20T19:25:24.0000000+00:00</time></trkpt><trkpt lat="64.04611206" lon="-20.15860939"><ele>124.3</ele><time>2012-07-20T19:25:29.0000000+00:00</time></trkpt><trkpt lat="64.04612732" lon="-20.15849495"><ele>124.9</ele><time>2012-07-20T19:25:34.0000000+00:00</time></trkpt><trkpt lat="64.04615021" lon="-20.15840721"><ele>126.7</ele><time>2012-07-20T19:25:39.0000000+00:00</time></trkpt><trkpt lat="64.04616547" lon="-20.15829659"><ele>127.1</ele><time>2012-07-20T19:25:44.0000000+00:00</time></trkpt><trkpt lat="64.04618073" lon="-20.15818977"><ele>127.2</ele><time>2012-07-20T19:25:49.0000000+00:00</time></trkpt><trkpt lat="64.04619598" lon="-20.15808106"><ele>127.6</ele><time>2012-07-20T19:25:54.0000000+00:00</time></trkpt><trkpt lat="64.04621887" lon="-20.1579895"><ele>127.9</ele><time>2012-07-20T19:25:59.0000000+00:00</time></trkpt><trkpt lat="64.04624176" lon="-20.15786552"><ele>126.1</ele><time>2012-07-20T19:26:04.0000000+00:00</time></trkpt><trkpt lat="64.04626465" lon="-20.1577549"><ele>125.3</ele><time>2012-07-20T19:26:09.0000000+00:00</time></trkpt><trkpt lat="64.04627991" lon="-20.15765762"><ele>125.2</ele><time>2012-07-20T19:26:14.0000000+00:00</time></trkpt><trkpt lat="64.0463028" lon="-20.157547"><ele>123.2</ele><time>2012-07-20T19:26:19.0000000+00:00</time></trkpt><trkpt lat="64.04631805" lon="-20.15746117"><ele>123.1</ele><time>2012-07-20T19:26:24.0000000+00:00</time></trkpt><trkpt lat="64.04633331" lon="-20.15734291"><ele>123.6</ele><time>2012-07-20T19:26:29.0000000+00:00</time></trkpt><trkpt lat="64.04634857" lon="-20.15721512"><ele>123.5</ele><time>2012-07-20T19:26:34.0000000+00:00</time></trkpt><trkpt lat="64.04636383" lon="-20.15709114"><ele>124.7</ele><time>2012-07-20T19:26:39.0000000+00:00</time></trkpt><trkpt lat="64.04637909" lon="-20.15698433"><ele>125.4</ele><time>2012-07-20T19:26:44.0000000+00:00</time></trkpt><trkpt lat="64.04639435" lon="-20.15687943"><ele>125.8</ele><time>2012-07-20T19:26:49.0000000+00:00</time></trkpt><trkpt lat="64.04641724" lon="-20.15675736"><ele>125.7</ele><time>2012-07-20T19:26:54.0000000+00:00</time></trkpt><trkpt lat="64.04644013" lon="-20.1566391"><ele>126.1</ele><time>2012-07-20T19:26:59.0000000+00:00</time></trkpt><trkpt lat="64.04646301" lon="-20.15649223"><ele>126.2</ele><time>2012-07-20T19:27:04.0000000+00:00</time></trkpt><trkpt lat="64.0464859" lon="-20.15636635"><ele>126.6</ele><time>2012-07-20T19:27:09.0000000+00:00</time></trkpt><trkpt lat="64.04650879" lon="-20.15624809"><ele>127.6</ele><time>2012-07-20T19:27:14.0000000+00:00</time></trkpt><trkpt lat="64.04652405" lon="-20.15611267"><ele>127.3</ele><time>2012-07-20T19:27:19.0000000+00:00</time></trkpt><trkpt lat="64.04653168" lon="-20.15606117"><ele>127.4</ele><time>2012-07-20T19:27:24.0000000+00:00</time></trkpt><trkpt lat="64.04655457" lon="-20.15594101"><ele>127.5</ele><time>2012-07-20T19:27:29.0000000+00:00</time></trkpt><trkpt lat="64.04656982" lon="-20.15581513"><ele>127.9</ele><time>2012-07-20T19:27:34.0000000+00:00</time></trkpt><trkpt lat="64.04659271" lon="-20.15569496"><ele>128.5</ele><time>2012-07-20T19:27:39.0000000+00:00</time></trkpt><trkpt lat="64.0466156" lon="-20.1555748"><ele>128.3</ele><time>2012-07-20T19:27:44.0000000+00:00</time></trkpt><trkpt lat="64.04662323" lon="-20.15545273"><ele>129.0</ele><time>2012-07-20T19:27:49.0000000+00:00</time></trkpt><trkpt lat="64.04665375" lon="-20.15535164"><ele>129.1</ele><time>2012-07-20T19:27:54.0000000+00:00</time></trkpt><trkpt lat="64.04667664" lon="-20.15522575"><ele>130.7</ele><time>2012-07-20T19:27:59.0000000+00:00</time></trkpt><trkpt lat="64.04670715" lon="-20.15508843"><ele>131.1</ele><time>2012-07-20T19:28:04.0000000+00:00</time></trkpt><trkpt lat="64.04673004" lon="-20.15495873"><ele>132.0</ele><time>2012-07-20T19:28:09.0000000+00:00</time></trkpt><trkpt lat="64.04675293" lon="-20.15484619"><ele>131.7</ele><time>2012-07-20T19:28:14.0000000+00:00</time></trkpt><trkpt lat="64.04677582" lon="-20.15470505"><ele>132.3</ele><time>2012-07-20T19:28:19.0000000+00:00</time></trkpt><trkpt lat="64.04679871" lon="-20.1545887"><ele>133.2</ele><time>2012-07-20T19:28:24.0000000+00:00</time></trkpt><trkpt lat="64.04682922" lon="-20.15447235"><ele>133.4</ele><time>2012-07-20T19:28:29.0000000+00:00</time></trkpt><trkpt lat="64.04685211" lon="-20.15433121"><ele>134.2</ele><time>2012-07-20T19:28:34.0000000+00:00</time></trkpt><trkpt lat="64.046875" lon="-20.15420151"><ele>133.9</ele><time>2012-07-20T19:28:39.0000000+00:00</time></trkpt><trkpt lat="64.04690552" lon="-20.15407372"><ele>134.8</ele><time>2012-07-20T19:28:44.0000000+00:00</time></trkpt><trkpt lat="64.04692841" lon="-20.15395546"><ele>133.8</ele><time>2012-07-20T19:28:49.0000000+00:00</time></trkpt><trkpt lat="64.04694367" lon="-20.15382195"><ele>132.8</ele><time>2012-07-20T19:28:54.0000000+00:00</time></trkpt><trkpt lat="64.04697418" lon="-20.15370941"><ele>133.0</ele><time>2012-07-20T19:28:59.0000000+00:00</time></trkpt><trkpt lat="64.04698181" lon="-20.15357018"><ele>131.5</ele><time>2012-07-20T19:29:04.0000000+00:00</time></trkpt><trkpt lat="64.04701233" lon="-20.15345383"><ele>132.6</ele><time>2012-07-20T19:29:09.0000000+00:00</time></trkpt><trkpt lat="64.04703522" lon="-20.15330124"><ele>132.1</ele><time>2012-07-20T19:29:14.0000000+00:00</time></trkpt><trkpt lat="64.04706574" lon="-20.15315628"><ele>131.7</ele><time>2012-07-20T19:29:19.0000000+00:00</time></trkpt><trkpt lat="64.04708862" lon="-20.15304375"><ele>132.9</ele><time>2012-07-20T19:29:24.0000000+00:00</time></trkpt><trkpt lat="64.04710388" lon="-20.15292168"><ele>132.8</ele><time>2012-07-20T19:29:29.0000000+00:00</time></trkpt><trkpt lat="64.04711914" lon="-20.15276909"><ele>131.4</ele><time>2012-07-20T19:29:34.0000000+00:00</time></trkpt><trkpt lat="64.04714203" lon="-20.15265083"><ele>129.8</ele><time>2012-07-20T19:29:39.0000000+00:00</time></trkpt><trkpt lat="64.04717255" lon="-20.15252113"><ele>130.2</ele><time>2012-07-20T19:29:44.0000000+00:00</time></trkpt><trkpt lat="64.04721069" lon="-20.15241623"><ele>131.4</ele><time>2012-07-20T19:29:49.0000000+00:00</time></trkpt><trkpt lat="64.04724884" lon="-20.15229607"><ele>132.1</ele><time>2012-07-20T19:29:54.0000000+00:00</time></trkpt><trkpt lat="64.04727936" lon="-20.15218353"><ele>133.5</ele><time>2012-07-20T19:29:59.0000000+00:00</time></trkpt><trkpt lat="64.04730988" lon="-20.15205002"><ele>133.5</ele><time>2012-07-20T19:30:04.0000000+00:00</time></trkpt><trkpt lat="64.04734039" lon="-20.15190697"><ele>134.0</ele><time>2012-07-20T19:30:09.0000000+00:00</time></trkpt><trkpt lat="64.04736328" lon="-20.15177918"><ele>134.2</ele><time>2012-07-20T19:30:14.0000000+00:00</time></trkpt><trkpt lat="64.04738617" lon="-20.15164566"><ele>133.5</ele><time>2012-07-20T19:30:19.0000000+00:00</time></trkpt><trkpt lat="64.04740906" lon="-20.15154839"><ele>133.9</ele><time>2012-07-20T19:30:24.0000000+00:00</time></trkpt><trkpt lat="64.04742432" lon="-20.15158081"><ele>135.5</ele><time>2012-07-20T19:30:29.0000000+00:00</time></trkpt><trkpt lat="64.04742432" lon="-20.151577"><ele>135.6</ele><time>2012-07-20T19:30:34.0000000+00:00</time></trkpt><trkpt lat="64.04743958" lon="-20.1515255"><ele>135.5</ele><time>2012-07-20T19:30:39.0000000+00:00</time></trkpt><trkpt lat="64.04749298" lon="-20.15136528"><ele>136.6</ele><time>2012-07-20T19:30:44.0000000+00:00</time></trkpt><trkpt lat="64.04755402" lon="-20.15112495"><ele>136.7</ele><time>2012-07-20T19:30:49.0000000+00:00</time></trkpt><trkpt lat="64.04763031" lon="-20.15086937"><ele>137.3</ele><time>2012-07-20T19:30:54.0000000+00:00</time></trkpt><trkpt lat="64.04772186" lon="-20.15062523"><ele>137.7</ele><time>2012-07-20T19:30:59.0000000+00:00</time></trkpt><trkpt lat="64.04782105" lon="-20.15037346"><ele>138.1</ele><time>2012-07-20T19:31:04.0000000+00:00</time></trkpt><trkpt lat="64.0479126" lon="-20.15011787"><ele>138.2</ele><time>2012-07-20T19:31:09.0000000+00:00</time></trkpt><trkpt lat="64.04801178" lon="-20.1498642"><ele>138.5</ele><time>2012-07-20T19:31:14.0000000+00:00</time></trkpt><trkpt lat="64.04811859" lon="-20.14957809"><ele>139.1</ele><time>2012-07-20T19:31:19.0000000+00:00</time></trkpt><trkpt lat="64.04820252" lon="-20.14936829"><ele>138.8</ele><time>2012-07-20T19:31:24.0000000+00:00</time></trkpt><trkpt lat="64.04831696" lon="-20.14916611"><ele>138.8</ele><time>2012-07-20T19:31:29.0000000+00:00</time></trkpt><trkpt lat="64.04842377" lon="-20.14889336"><ele>139.4</ele><time>2012-07-20T19:31:34.0000000+00:00</time></trkpt><trkpt lat="64.04853058" lon="-20.14861488"><ele>139.5</ele><time>2012-07-20T19:31:39.0000000+00:00</time></trkpt><trkpt lat="64.04866028" lon="-20.14833641"><ele>139.2</ele><time>2012-07-20T19:31:44.0000000+00:00</time></trkpt><trkpt lat="64.04879761" lon="-20.14804649"><ele>138.9</ele><time>2012-07-20T19:31:49.0000000+00:00</time></trkpt><trkpt lat="64.04893494" lon="-20.14775467"><ele>138.1</ele><time>2012-07-20T19:31:54.0000000+00:00</time></trkpt><trkpt lat="64.04908752" lon="-20.14740944"><ele>137.3</ele><time>2012-07-20T19:31:59.0000000+00:00</time></trkpt><trkpt lat="64.04924774" lon="-20.14704704"><ele>136.7</ele><time>2012-07-20T19:32:04.0000000+00:00</time></trkpt><trkpt lat="64.04943848" lon="-20.14661408"><ele>136.2</ele><time>2012-07-20T19:32:09.0000000+00:00</time></trkpt><trkpt lat="64.0496521" lon="-20.14611435"><ele>135.9</ele><time>2012-07-20T19:32:14.0000000+00:00</time></trkpt><trkpt lat="64.04985809" lon="-20.14560318"><ele>135.3</ele><time>2012-07-20T19:32:19.0000000+00:00</time></trkpt><trkpt lat="64.05005646" lon="-20.14507484"><ele>134.1</ele><time>2012-07-20T19:32:24.0000000+00:00</time></trkpt><trkpt lat="64.05024719" lon="-20.14457512"><ele>133.6</ele><time>2012-07-20T19:32:29.0000000+00:00</time></trkpt><trkpt lat="64.05042267" lon="-20.14409638"><ele>133.4</ele><time>2012-07-20T19:32:34.0000000+00:00</time></trkpt><trkpt lat="64.05060577" lon="-20.14362717"><ele>133.5</ele><time>2012-07-20T19:32:39.0000000+00:00</time></trkpt><trkpt lat="64.05078125" lon="-20.14315796"><ele>133.8</ele><time>2012-07-20T19:32:44.0000000+00:00</time></trkpt><trkpt lat="64.0509491" lon="-20.14274406"><ele>133.8</ele><time>2012-07-20T19:32:49.0000000+00:00</time></trkpt><trkpt lat="64.05110931" lon="-20.14230537"><ele>133.2</ele><time>2012-07-20T19:32:54.0000000+00:00</time></trkpt><trkpt lat="64.05127716" lon="-20.14187622"><ele>133.6</ele><time>2012-07-20T19:32:59.0000000+00:00</time></trkpt><trkpt lat="64.05144501" lon="-20.14141655"><ele>133.6</ele><time>2012-07-20T19:33:04.0000000+00:00</time></trkpt><trkpt lat="64.05162048" lon="-20.1409626"><ele>133.3</ele><time>2012-07-20T19:33:09.0000000+00:00</time></trkpt><trkpt lat="64.05180359" lon="-20.14050865"><ele>133.4</ele><time>2012-07-20T19:33:14.0000000+00:00</time></trkpt><trkpt lat="64.05197907" lon="-20.14003944"><ele>133.1</ele><time>2012-07-20T19:33:19.0000000+00:00</time></trkpt><trkpt lat="64.05216217" lon="-20.13953781"><ele>132.9</ele><time>2012-07-20T19:33:24.0000000+00:00</time></trkpt><trkpt lat="64.05233765" lon="-20.13906097"><ele>133.2</ele><time>2012-07-20T19:33:29.0000000+00:00</time></trkpt><trkpt lat="64.05251312" lon="-20.13858604"><ele>133.7</ele><time>2012-07-20T19:33:34.0000000+00:00</time></trkpt><trkpt lat="64.0526886" lon="-20.13814926"><ele>134.2</ele><time>2012-07-20T19:33:39.0000000+00:00</time></trkpt><trkpt lat="64.05285645" lon="-20.13772011"><ele>133.7</ele><time>2012-07-20T19:33:44.0000000+00:00</time></trkpt><trkpt lat="64.05301666" lon="-20.13731003"><ele>133.5</ele><time>2012-07-20T19:33:49.0000000+00:00</time></trkpt><trkpt lat="64.05317688" lon="-20.1368885"><ele>133.6</ele><time>2012-07-20T19:33:54.0000000+00:00</time></trkpt><trkpt lat="64.05334473" lon="-20.13646317"><ele>133.5</ele><time>2012-07-20T19:33:59.0000000+00:00</time></trkpt><trkpt lat="64.05349731" lon="-20.13604927"><ele>133.1</ele><time>2012-07-20T19:34:04.0000000+00:00</time></trkpt><trkpt lat="64.05365753" lon="-20.13563156"><ele>132.9</ele><time>2012-07-20T19:34:09.0000000+00:00</time></trkpt><trkpt lat="64.05381775" lon="-20.13521195"><ele>132.1</ele><time>2012-07-20T19:34:14.0000000+00:00</time></trkpt><trkpt lat="64.0539856" lon="-20.13477516"><ele>131.6</ele><time>2012-07-20T19:34:19.0000000+00:00</time></trkpt><trkpt lat="64.05417633" lon="-20.13428116"><ele>130.5</ele><time>2012-07-20T19:34:24.0000000+00:00</time></trkpt><trkpt lat="64.05438232" lon="-20.13374901"><ele>129.6</ele><time>2012-07-20T19:34:29.0000000+00:00</time></trkpt><trkpt lat="64.05460358" lon="-20.13316727"><ele>128.5</ele><time>2012-07-20T19:34:34.0000000+00:00</time></trkpt><trkpt lat="64.05484009" lon="-20.13255501"><ele>127.7</ele><time>2012-07-20T19:34:39.0000000+00:00</time></trkpt><trkpt lat="64.05506897" lon="-20.13194275"><ele>126.9</ele><time>2012-07-20T19:34:44.0000000+00:00</time></trkpt><trkpt lat="64.05530548" lon="-20.13128471"><ele>125.9</ele><time>2012-07-20T19:34:49.0000000+00:00</time></trkpt><trkpt lat="64.05552673" lon="-20.13061905"><ele>124.6</ele><time>2012-07-20T19:34:54.0000000+00:00</time></trkpt><trkpt lat="64.05575562" lon="-20.12993431"><ele>123.0</ele><time>2012-07-20T19:34:59.0000000+00:00</time></trkpt><trkpt lat="64.05599213" lon="-20.12924385"><ele>122.2</ele><time>2012-07-20T19:35:04.0000000+00:00</time></trkpt><trkpt lat="64.05622101" lon="-20.12857819"><ele>122.0</ele><time>2012-07-20T19:35:09.0000000+00:00</time></trkpt><trkpt lat="64.05644226" lon="-20.12793541"><ele>122.0</ele><time>2012-07-20T19:35:14.0000000+00:00</time></trkpt><trkpt lat="64.05664825" lon="-20.12732506"><ele>122.7</ele><time>2012-07-20T19:35:19.0000000+00:00</time></trkpt><trkpt lat="64.05683136" lon="-20.12679863"><ele>122.8</ele><time>2012-07-20T19:35:24.0000000+00:00</time></trkpt><trkpt lat="64.05698395" lon="-20.12634087"><ele>122.5</ele><time>2012-07-20T19:35:29.0000000+00:00</time></trkpt><trkpt lat="64.05713654" lon="-20.12591362"><ele>122.5</ele><time>2012-07-20T19:35:34.0000000+00:00</time></trkpt><trkpt lat="64.05729675" lon="-20.1254673"><ele>122.5</ele><time>2012-07-20T19:35:39.0000000+00:00</time></trkpt><trkpt lat="64.05744171" lon="-20.1250248"><ele>122.3</ele><time>2012-07-20T19:35:44.0000000+00:00</time></trkpt><trkpt lat="64.05758667" lon="-20.12458611"><ele>122.4</ele><time>2012-07-20T19:35:49.0000000+00:00</time></trkpt><trkpt lat="64.05774689" lon="-20.12415505"><ele>121.9</ele><time>2012-07-20T19:35:54.0000000+00:00</time></trkpt><trkpt lat="64.05789185" lon="-20.12373734"><ele>121.9</ele><time>2012-07-20T19:35:59.0000000+00:00</time></trkpt><trkpt lat="64.05802918" lon="-20.12333298"><ele>122.9</ele><time>2012-07-20T19:36:04.0000000+00:00</time></trkpt><trkpt lat="64.05817413" lon="-20.12295532"><ele>123.9</ele><time>2012-07-20T19:36:09.0000000+00:00</time></trkpt><trkpt lat="64.05830383" lon="-20.12259102"><ele>123.9</ele><time>2012-07-20T19:36:14.0000000+00:00</time></trkpt><trkpt lat="64.05844879" lon="-20.12223625"><ele>124.4</ele><time>2012-07-20T19:36:19.0000000+00:00</time></trkpt><trkpt lat="64.05860138" lon="-20.12184906"><ele>124.1</ele><time>2012-07-20T19:36:24.0000000+00:00</time></trkpt><trkpt lat="64.05875397" lon="-20.12149048"><ele>124.3</ele><time>2012-07-20T19:36:29.0000000+00:00</time></trkpt><trkpt lat="64.05890656" lon="-20.12115097"><ele>123.6</ele><time>2012-07-20T19:36:34.0000000+00:00</time></trkpt><trkpt lat="64.05906677" lon="-20.120821"><ele>123.1</ele><time>2012-07-20T19:36:39.0000000+00:00</time></trkpt><trkpt lat="64.05922699" lon="-20.12049103"><ele>123.2</ele><time>2012-07-20T19:36:44.0000000+00:00</time></trkpt><trkpt lat="64.05938721" lon="-20.12015533"><ele>123.6</ele><time>2012-07-20T19:36:49.0000000+00:00</time></trkpt><trkpt lat="64.05955505" lon="-20.1198349"><ele>123.6</ele><time>2012-07-20T19:36:54.0000000+00:00</time></trkpt><trkpt lat="64.05973816" lon="-20.11952782"><ele>124.0</ele><time>2012-07-20T19:36:59.0000000+00:00</time></trkpt><trkpt lat="64.05989838" lon="-20.11926651"><ele>124.3</ele><time>2012-07-20T19:37:04.0000000+00:00</time></trkpt><trkpt lat="64.06006622" lon="-20.11900139"><ele>124.4</ele><time>2012-07-20T19:37:09.0000000+00:00</time></trkpt><trkpt lat="64.0602417" lon="-20.11873436"><ele>125.3</ele><time>2012-07-20T19:37:14.0000000+00:00</time></trkpt><trkpt lat="64.06042481" lon="-20.1184845"><ele>125.3</ele><time>2012-07-20T19:37:19.0000000+00:00</time></trkpt><trkpt lat="64.06061554" lon="-20.11820602"><ele>125.1</ele><time>2012-07-20T19:37:24.0000000+00:00</time></trkpt><trkpt lat="64.06079102" lon="-20.11794663"><ele>125.6</ele><time>2012-07-20T19:37:29.0000000+00:00</time></trkpt><trkpt lat="64.06098175" lon="-20.1176796"><ele>125.3</ele><time>2012-07-20T19:37:34.0000000+00:00</time></trkpt><trkpt lat="64.06116486" lon="-20.11743355"><ele>125.3</ele><time>2012-07-20T19:37:39.0000000+00:00</time></trkpt><trkpt lat="64.0613327" lon="-20.11721611"><ele>125.1</ele><time>2012-07-20T19:37:44.0000000+00:00</time></trkpt><trkpt lat="64.06148529" lon="-20.11700821"><ele>124.7</ele><time>2012-07-20T19:37:49.0000000+00:00</time></trkpt><trkpt lat="64.06162262" lon="-20.11681175"><ele>124.5</ele><time>2012-07-20T19:37:54.0000000+00:00</time></trkpt><trkpt lat="64.06174469" lon="-20.11665916"><ele>124.5</ele><time>2012-07-20T19:37:59.0000000+00:00</time></trkpt><trkpt lat="64.06189728" lon="-20.11643982"><ele>123.5</ele><time>2012-07-20T19:38:04.0000000+00:00</time></trkpt><trkpt lat="64.0620575" lon="-20.11623192"><ele>123.2</ele><time>2012-07-20T19:38:09.0000000+00:00</time></trkpt><trkpt lat="64.0622406" lon="-20.11597061"><ele>123.6</ele><time>2012-07-20T19:38:14.0000000+00:00</time></trkpt><trkpt lat="64.06243134" lon="-20.11572456"><ele>123.7</ele><time>2012-07-20T19:38:19.0000000+00:00</time></trkpt><trkpt lat="64.06261444" lon="-20.11544037"><ele>123.5</ele><time>2012-07-20T19:38:24.0000000+00:00</time></trkpt><trkpt lat="64.06280518" lon="-20.11516762"><ele>124.7</ele><time>2012-07-20T19:38:29.0000000+00:00</time></trkpt><trkpt lat="64.06300354" lon="-20.11492348"><ele>125.0</ele><time>2012-07-20T19:38:34.0000000+00:00</time></trkpt><trkpt lat="64.06319428" lon="-20.11463738"><ele>124.5</ele><time>2012-07-20T19:38:39.0000000+00:00</time></trkpt><trkpt lat="64.06337738" lon="-20.11435509"><ele>124.3</ele><time>2012-07-20T19:38:44.0000000+00:00</time></trkpt><trkpt lat="64.06354523" lon="-20.11401749"><ele>124.1</ele><time>2012-07-20T19:38:49.0000000+00:00</time></trkpt><trkpt lat="64.06369019" lon="-20.11363602"><ele>124.6</ele><time>2012-07-20T19:38:54.0000000+00:00</time></trkpt><trkpt lat="64.06381989" lon="-20.11318588"><ele>124.9</ele><time>2012-07-20T19:38:59.0000000+00:00</time></trkpt><trkpt lat="64.06391907" lon="-20.11273193"><ele>125.1</ele><time>2012-07-20T19:39:04.0000000+00:00</time></trkpt><trkpt lat="64.06399536" lon="-20.11222076"><ele>124.6</ele><time>2012-07-20T19:39:09.0000000+00:00</time></trkpt><trkpt lat="64.06401825" lon="-20.11171913"><ele>125.0</ele><time>2012-07-20T19:39:14.0000000+00:00</time></trkpt><trkpt lat="64.06402588" lon="-20.11124802"><ele>124.6</ele><time>2012-07-20T19:39:19.0000000+00:00</time></trkpt><trkpt lat="64.06401825" lon="-20.11085892"><ele>123.9</ele><time>2012-07-20T19:39:24.0000000+00:00</time></trkpt><trkpt lat="64.06400299" lon="-20.11053276"><ele>123.0</ele><time>2012-07-20T19:39:29.0000000+00:00</time></trkpt><trkpt lat="64.06398773" lon="-20.11023903"><ele>123.4</ele><time>2012-07-20T19:39:34.0000000+00:00</time></trkpt><trkpt lat="64.06397247" lon="-20.10997963"><ele>123.4</ele><time>2012-07-20T19:39:39.0000000+00:00</time></trkpt><trkpt lat="64.06394196" lon="-20.10974503"><ele>124.5</ele><time>2012-07-20T19:39:44.0000000+00:00</time></trkpt><trkpt lat="64.0639267" lon="-20.10947609"><ele>124.9</ele><time>2012-07-20T19:39:49.0000000+00:00</time></trkpt><trkpt lat="64.06388855" lon="-20.10926819"><ele>125.3</ele><time>2012-07-20T19:39:54.0000000+00:00</time></trkpt><trkpt lat="64.06388092" lon="-20.10906601"><ele>126.0</ele><time>2012-07-20T19:39:59.0000000+00:00</time></trkpt><trkpt lat="64.06383514" lon="-20.10878754"><ele>126.2</ele><time>2012-07-20T19:40:04.0000000+00:00</time></trkpt><trkpt lat="64.06381226" lon="-20.10843849"><ele>125.1</ele><time>2012-07-20T19:40:09.0000000+00:00</time></trkpt><trkpt lat="64.06377411" lon="-20.10809517"><ele>124.7</ele><time>2012-07-20T19:40:14.0000000+00:00</time></trkpt><trkpt lat="64.06374359" lon="-20.10774612"><ele>124.1</ele><time>2012-07-20T19:40:19.0000000+00:00</time></trkpt><trkpt lat="64.06370544" lon="-20.10739517"><ele>124.7</ele><time>2012-07-20T19:40:24.0000000+00:00</time></trkpt><trkpt lat="64.06368256" lon="-20.10709953"><ele>125.4</ele><time>2012-07-20T19:40:29.0000000+00:00</time></trkpt><trkpt lat="64.06365967" lon="-20.10672951"><ele>125.6</ele><time>2012-07-20T19:40:34.0000000+00:00</time></trkpt><trkpt lat="64.06363678" lon="-20.1063385"><ele>124.9</ele><time>2012-07-20T19:40:39.0000000+00:00</time></trkpt><trkpt lat="64.06362915" lon="-20.10601234"><ele>125.9</ele><time>2012-07-20T19:40:44.0000000+00:00</time></trkpt><trkpt lat="64.06363678" lon="-20.10565186"><ele>126.4</ele><time>2012-07-20T19:40:49.0000000+00:00</time></trkpt><trkpt lat="64.06363678" lon="-20.10538483"><ele>126.3</ele><time>2012-07-20T19:40:54.0000000+00:00</time></trkpt><trkpt lat="64.06362915" lon="-20.10535622"><ele>126.8</ele><time>2012-07-20T19:40:59.0000000+00:00</time></trkpt><trkpt lat="64.06362915" lon="-20.10534668"><ele>126.9</ele><time>2012-07-20T19:41:04.0000000+00:00</time></trkpt><trkpt lat="64.06362152" lon="-20.1053257"><ele>126.8</ele><time>2012-07-20T19:41:09.0000000+00:00</time></trkpt><trkpt lat="64.06362152" lon="-20.1053257"><ele>126.8</ele><time>2012-07-20T19:41:14.0000000+00:00</time></trkpt><trkpt lat="64.06362152" lon="-20.1053257"><ele>126.8</ele><time>2012-07-20T19:41:19.0000000+00:00</time></trkpt><trkpt lat="64.06362152" lon="-20.1053257"><ele>126.7</ele><time>2012-07-20T19:41:24.0000000+00:00</time></trkpt><trkpt lat="64.06362152" lon="-20.1053257"><ele>126.7</ele><time>2012-07-20T19:41:29.0000000+00:00</time></trkpt><trkpt lat="64.06362152" lon="-20.1053257"><ele>126.8</ele><time>2012-07-20T19:41:34.0000000+00:00</time></trkpt><trkpt lat="64.06362152" lon="-20.1053257"><ele>126.7</ele><time>2012-07-20T19:41:39.0000000+00:00</time></trkpt><trkpt lat="64.06362915" lon="-20.10529327"><ele>126.3</ele><time>2012-07-20T19:41:44.0000000+00:00</time></trkpt><trkpt lat="64.06364441" lon="-20.10525131"><ele>126.4</ele><time>2012-07-20T19:41:49.0000000+00:00</time></trkpt><trkpt lat="64.06365204" lon="-20.10495377"><ele>126.6</ele><time>2012-07-20T19:41:54.0000000+00:00</time></trkpt><trkpt lat="64.0636673" lon="-20.10454941"><ele>126.1</ele><time>2012-07-20T19:41:59.0000000+00:00</time></trkpt><trkpt lat="64.06372833" lon="-20.10410309"><ele>126.8</ele><time>2012-07-20T19:42:04.0000000+00:00</time></trkpt><trkpt lat="64.063797" lon="-20.10365295"><ele>127.0</ele><time>2012-07-20T19:42:09.0000000+00:00</time></trkpt><trkpt lat="64.06386566" lon="-20.10321236"><ele>127.1</ele><time>2012-07-20T19:42:14.0000000+00:00</time></trkpt><trkpt lat="64.06395721" lon="-20.10283089"><ele>127.8</ele><time>2012-07-20T19:42:19.0000000+00:00</time></trkpt><trkpt lat="64.06399536" lon="-20.10257149"><ele>127.9</ele><time>2012-07-20T19:42:24.0000000+00:00</time></trkpt><trkpt lat="64.06401825" lon="-20.10230446"><ele>125.8</ele><time>2012-07-20T19:42:29.0000000+00:00</time></trkpt><trkpt lat="64.0640564" lon="-20.10196877"><ele>125.8</ele><time>2012-07-20T19:42:34.0000000+00:00</time></trkpt><trkpt lat="64.06410217" lon="-20.10158157"><ele>125.2</ele><time>2012-07-20T19:42:39.0000000+00:00</time></trkpt><trkpt lat="64.06414032" lon="-20.10120773"><ele>125.3</ele><time>2012-07-20T19:42:44.0000000+00:00</time></trkpt><trkpt lat="64.06415558" lon="-20.10074806"><ele>125.8</ele><time>2012-07-20T19:42:49.0000000+00:00</time></trkpt><trkpt lat="64.06417847" lon="-20.10031319"><ele>126.3</ele><time>2012-07-20T19:42:54.0000000+00:00</time></trkpt><trkpt lat="64.06417847" lon="-20.09992027"><ele>126.1</ele><time>2012-07-20T19:42:59.0000000+00:00</time></trkpt><trkpt lat="64.06417084" lon="-20.09954262"><ele>126.8</ele><time>2012-07-20T19:43:04.0000000+00:00</time></trkpt><trkpt lat="64.06417084" lon="-20.09913063"><ele>127.3</ele><time>2012-07-20T19:43:09.0000000+00:00</time></trkpt><trkpt lat="64.06415558" lon="-20.0987854"><ele>127.7</ele><time>2012-07-20T19:43:14.0000000+00:00</time></trkpt><trkpt lat="64.06414032" lon="-20.09848213"><ele>127.8</ele><time>2012-07-20T19:43:19.0000000+00:00</time></trkpt><trkpt lat="64.06411743" lon="-20.09820557"><ele>128.0</ele><time>2012-07-20T19:43:24.0000000+00:00</time></trkpt><trkpt lat="64.06409454" lon="-20.09796524"><ele>128.3</ele><time>2012-07-20T19:43:29.0000000+00:00</time></trkpt><trkpt lat="64.06407929" lon="-20.09769821"><ele>128.7</ele><time>2012-07-20T19:43:34.0000000+00:00</time></trkpt><trkpt lat="64.0640564" lon="-20.09742165"><ele>128.8</ele><time>2012-07-20T19:43:39.0000000+00:00</time></trkpt><trkpt lat="64.06402588" lon="-20.09711266"><ele>128.3</ele><time>2012-07-20T19:43:44.0000000+00:00</time></trkpt><trkpt lat="64.06399536" lon="-20.0968132"><ele>127.4</ele><time>2012-07-20T19:43:49.0000000+00:00</time></trkpt><trkpt lat="64.06397247" lon="-20.09651375"><ele>126.3</ele><time>2012-07-20T19:43:54.0000000+00:00</time></trkpt><trkpt lat="64.06396484" lon="-20.09619904"><ele>125.4</ele><time>2012-07-20T19:43:59.0000000+00:00</time></trkpt><trkpt lat="64.0639267" lon="-20.09588051"><ele>124.1</ele><time>2012-07-20T19:44:04.0000000+00:00</time></trkpt><trkpt lat="64.06390381" lon="-20.09557915"><ele>123.3</ele><time>2012-07-20T19:44:09.0000000+00:00</time></trkpt><trkpt lat="64.06388855" lon="-20.09529305"><ele>122.9</ele><time>2012-07-20T19:44:14.0000000+00:00</time></trkpt><trkpt lat="64.06387329" lon="-20.09500885"><ele>122.7</ele><time>2012-07-20T19:44:19.0000000+00:00</time></trkpt><trkpt lat="64.0638504" lon="-20.0947609"><ele>122.6</ele><time>2012-07-20T19:44:24.0000000+00:00</time></trkpt><trkpt lat="64.06383514" lon="-20.0945282"><ele>122.5</ele><time>2012-07-20T19:44:29.0000000+00:00</time></trkpt><trkpt lat="64.06382752" lon="-20.09423256"><ele>121.8</ele><time>2012-07-20T19:44:34.0000000+00:00</time></trkpt><trkpt lat="64.06381226" lon="-20.09389877"><ele>123.0</ele><time>2012-07-20T19:44:39.0000000+00:00</time></trkpt><trkpt lat="64.06380463" lon="-20.09357071"><ele>122.6</ele><time>2012-07-20T19:44:44.0000000+00:00</time></trkpt><trkpt lat="64.06378937" lon="-20.09322739"><ele>122.1</ele><time>2012-07-20T19:44:49.0000000+00:00</time></trkpt><trkpt lat="64.06378937" lon="-20.0929184"><ele>122.8</ele><time>2012-07-20T19:44:54.0000000+00:00</time></trkpt><trkpt lat="64.06378937" lon="-20.09257126"><ele>125.2</ele><time>2012-07-20T19:44:59.0000000+00:00</time></trkpt><trkpt lat="64.06378174" lon="-20.09223747"><ele>125.1</ele><time>2012-07-20T19:45:04.0000000+00:00</time></trkpt><trkpt lat="64.06378174" lon="-20.09190369"><ele>124.8</ele><time>2012-07-20T19:45:09.0000000+00:00</time></trkpt><trkpt lat="64.063797" lon="-20.09160805"><ele>125.9</ele><time>2012-07-20T19:45:14.0000000+00:00</time></trkpt><trkpt lat="64.063797" lon="-20.09130669"><ele>124.8</ele><time>2012-07-20T19:45:19.0000000+00:00</time></trkpt><trkpt lat="64.06380463" lon="-20.09105682"><ele>124.6</ele><time>2012-07-20T19:45:24.0000000+00:00</time></trkpt><trkpt lat="64.06381989" lon="-20.09079552"><ele>123.9</ele><time>2012-07-20T19:45:29.0000000+00:00</time></trkpt><trkpt lat="64.06381989" lon="-20.09054184"><ele>122.5</ele><time>2012-07-20T19:45:34.0000000+00:00</time></trkpt><trkpt lat="64.06382752" lon="-20.09026337"><ele>121.3</ele><time>2012-07-20T19:45:39.0000000+00:00</time></trkpt><trkpt lat="64.06384277" lon="-20.09001923"><ele>118.6</ele><time>2012-07-20T19:45:44.0000000+00:00</time></trkpt><trkpt lat="64.06385803" lon="-20.08968926"><ele>115.1</ele><time>2012-07-20T19:45:49.0000000+00:00</time></trkpt><trkpt lat="64.06386566" lon="-20.08943939"><ele>116.5</ele><time>2012-07-20T19:45:54.0000000+00:00</time></trkpt><trkpt lat="64.06387329" lon="-20.08940888"><ele>117.7</ele><time>2012-07-20T19:45:59.0000000+00:00</time></trkpt><trkpt lat="64.06387329" lon="-20.08940888"><ele>117.7</ele><time>2012-07-20T19:46:04.0000000+00:00</time></trkpt><trkpt lat="64.06387329" lon="-20.08940888"><ele>117.7</ele><time>2012-07-20T19:46:09.0000000+00:00</time></trkpt><trkpt lat="64.06387329" lon="-20.08940888"><ele>117.9</ele><time>2012-07-20T19:46:14.0000000+00:00</time></trkpt><trkpt lat="64.06387329" lon="-20.08941078"><ele>118.4</ele><time>2012-07-20T19:46:19.0000000+00:00</time></trkpt><trkpt lat="64.06387329" lon="-20.08940888"><ele>118.4</ele><time>2012-07-20T19:46:24.0000000+00:00</time></trkpt><trkpt lat="64.06386566" lon="-20.08941078"><ele>118.7</ele><time>2012-07-20T19:46:29.0000000+00:00</time></trkpt><trkpt lat="64.06387329" lon="-20.08941078"><ele>119.0</ele><time>2012-07-20T19:46:34.0000000+00:00</time></trkpt><trkpt lat="64.06387329" lon="-20.08941078"><ele>119.0</ele><time>2012-07-20T19:46:39.0000000+00:00</time></trkpt><trkpt lat="64.06386566" lon="-20.08939362"><ele>118.9</ele><time>2012-07-20T19:46:44.0000000+00:00</time></trkpt><trkpt lat="64.06388092" lon="-20.08919907"><ele>119.2</ele><time>2012-07-20T19:46:49.0000000+00:00</time></trkpt><trkpt lat="64.06390381" lon="-20.08895683"><ele>119.8</ele><time>2012-07-20T19:46:54.0000000+00:00</time></trkpt><trkpt lat="64.0639267" lon="-20.08867073"><ele>120.4</ele><time>2012-07-20T19:46:59.0000000+00:00</time></trkpt><trkpt lat="64.06396484" lon="-20.08837891"><ele>121.5</ele><time>2012-07-20T19:47:04.0000000+00:00</time></trkpt><trkpt lat="64.06399536" lon="-20.08810806"><ele>122.2</ele><time>2012-07-20T19:47:09.0000000+00:00</time></trkpt><trkpt lat="64.06401825" lon="-20.08779717"><ele>122.1</ele><time>2012-07-20T19:47:14.0000000+00:00</time></trkpt><trkpt lat="64.06403351" lon="-20.08748055"><ele>121.1</ele><time>2012-07-20T19:47:19.0000000+00:00</time></trkpt><trkpt lat="64.06406403" lon="-20.08707237"><ele>119.6</ele><time>2012-07-20T19:47:24.0000000+00:00</time></trkpt><trkpt lat="64.06409454" lon="-20.0866375"><ele>119.8</ele><time>2012-07-20T19:47:29.0000000+00:00</time></trkpt><trkpt lat="64.06412506" lon="-20.08623505"><ele>120.3</ele><time>2012-07-20T19:47:34.0000000+00:00</time></trkpt><trkpt lat="64.06416321" lon="-20.08581543"><ele>120.3</ele><time>2012-07-20T19:47:39.0000000+00:00</time></trkpt><trkpt lat="64.06419373" lon="-20.08537674"><ele>120.5</ele><time>2012-07-20T19:47:44.0000000+00:00</time></trkpt><trkpt lat="64.0642395" lon="-20.08496857"><ele>121.5</ele><time>2012-07-20T19:47:49.0000000+00:00</time></trkpt><trkpt lat="64.06426239" lon="-20.08459663"><ele>122.4</ele><time>2012-07-20T19:47:54.0000000+00:00</time></trkpt><trkpt lat="64.06428528" lon="-20.0842247"><ele>121.6</ele><time>2012-07-20T19:47:59.0000000+00:00</time></trkpt><trkpt lat="64.0643158" lon="-20.08382988"><ele>121.9</ele><time>2012-07-20T19:48:04.0000000+00:00</time></trkpt><trkpt lat="64.06434631" lon="-20.08342743"><ele>121.9</ele><time>2012-07-20T19:48:09.0000000+00:00</time></trkpt><trkpt lat="64.0643692" lon="-20.08301544"><ele>121.1</ele><time>2012-07-20T19:48:14.0000000+00:00</time></trkpt><trkpt lat="64.06439209" lon="-20.08259583"><ele>121.4</ele><time>2012-07-20T19:48:19.0000000+00:00</time></trkpt><trkpt lat="64.06441498" lon="-20.08218193"><ele>121.7</ele><time>2012-07-20T19:48:24.0000000+00:00</time></trkpt><trkpt lat="64.06443024" lon="-20.08172607"><ele>121.0</ele><time>2012-07-20T19:48:29.0000000+00:00</time></trkpt><trkpt lat="64.06443787" lon="-20.08134079"><ele>120.7</ele><time>2012-07-20T19:48:34.0000000+00:00</time></trkpt><trkpt lat="64.0644455" lon="-20.08093453"><ele>121.9</ele><time>2012-07-20T19:48:39.0000000+00:00</time></trkpt><trkpt lat="64.06445313" lon="-20.08050156"><ele>122.7</ele><time>2012-07-20T19:48:44.0000000+00:00</time></trkpt><trkpt lat="64.06446075" lon="-20.08004952"><ele>123.4</ele><time>2012-07-20T19:48:49.0000000+00:00</time></trkpt><trkpt lat="64.06446838" lon="-20.07959366"><ele>123.8</ele><time>2012-07-20T19:48:54.0000000+00:00</time></trkpt><trkpt lat="64.06446075" lon="-20.07913399"><ele>124.6</ele><time>2012-07-20T19:48:59.0000000+00:00</time></trkpt><trkpt lat="64.06446075" lon="-20.07871437"><ele>125.2</ele><time>2012-07-20T19:49:04.0000000+00:00</time></trkpt><trkpt lat="64.0644455" lon="-20.07831574"><ele>125.6</ele><time>2012-07-20T19:49:09.0000000+00:00</time></trkpt><trkpt lat="64.0644455" lon="-20.07788086"><ele>126.3</ele><time>2012-07-20T19:49:14.0000000+00:00</time></trkpt><trkpt lat="64.06443787" lon="-20.07744026"><ele>126.8</ele><time>2012-07-20T19:49:19.0000000+00:00</time></trkpt><trkpt lat="64.06443024" lon="-20.07700539"><ele>127.7</ele><time>2012-07-20T19:49:24.0000000+00:00</time></trkpt><trkpt lat="64.06443024" lon="-20.07656097"><ele>128.0</ele><time>2012-07-20T19:49:29.0000000+00:00</time></trkpt><trkpt lat="64.06440735" lon="-20.07608414"><ele>127.8</ele><time>2012-07-20T19:49:34.0000000+00:00</time></trkpt><trkpt lat="64.06439972" lon="-20.07557678"><ele>127.9</ele><time>2012-07-20T19:49:39.0000000+00:00</time></trkpt><trkpt lat="64.06439209" lon="-20.07505417"><ele>128.0</ele><time>2012-07-20T19:49:44.0000000+00:00</time></trkpt><trkpt lat="64.06438446" lon="-20.07452583"><ele>127.5</ele><time>2012-07-20T19:49:49.0000000+00:00</time></trkpt><trkpt lat="64.06438446" lon="-20.07404327"><ele>127.7</ele><time>2012-07-20T19:49:54.0000000+00:00</time></trkpt><trkpt lat="64.06439209" lon="-20.07354355"><ele>127.0</ele><time>2012-07-20T19:49:59.0000000+00:00</time></trkpt><trkpt lat="64.06440735" lon="-20.07305527"><ele>126.5</ele><time>2012-07-20T19:50:04.0000000+00:00</time></trkpt><trkpt lat="64.0644455" lon="-20.07254219"><ele>125.7</ele><time>2012-07-20T19:50:09.0000000+00:00</time></trkpt><trkpt lat="64.06449127" lon="-20.07201958"><ele>124.9</ele><time>2012-07-20T19:50:14.0000000+00:00</time></trkpt><trkpt lat="64.06453705" lon="-20.0716114"><ele>124.9</ele><time>2012-07-20T19:50:19.0000000+00:00</time></trkpt><trkpt lat="64.06458283" lon="-20.07124901"><ele>125.3</ele><time>2012-07-20T19:50:24.0000000+00:00</time></trkpt><trkpt lat="64.06463623" lon="-20.07090569"><ele>124.0</ele><time>2012-07-20T19:50:29.0000000+00:00</time></trkpt><trkpt lat="64.06469727" lon="-20.07055855"><ele>127.1</ele><time>2012-07-20T19:50:34.0000000+00:00</time></trkpt><trkpt lat="64.06476593" lon="-20.0702076"><ele>127.8</ele><time>2012-07-20T19:50:39.0000000+00:00</time></trkpt><trkpt lat="64.06482697" lon="-20.06985092"><ele>129.9</ele><time>2012-07-20T19:50:44.0000000+00:00</time></trkpt><trkpt lat="64.06490326" lon="-20.06947517"><ele>132.5</ele><time>2012-07-20T19:50:49.0000000+00:00</time></trkpt><trkpt lat="64.06497955" lon="-20.06906128"><ele>131.7</ele><time>2012-07-20T19:50:54.0000000+00:00</time></trkpt><trkpt lat="64.06507111" lon="-20.06867409"><ele>131.8</ele><time>2012-07-20T19:50:59.0000000+00:00</time></trkpt><trkpt lat="64.06515503" lon="-20.06822968"><ele>132.6</ele><time>2012-07-20T19:51:04.0000000+00:00</time></trkpt><trkpt lat="64.06523895" lon="-20.06786537"><ele>133.4</ele><time>2012-07-20T19:51:09.0000000+00:00</time></trkpt><trkpt lat="64.06532288" lon="-20.06747246"><ele>133.1</ele><time>2012-07-20T19:51:14.0000000+00:00</time></trkpt><trkpt lat="64.0654068" lon="-20.06706238"><ele>132.1</ele><time>2012-07-20T19:51:19.0000000+00:00</time></trkpt><trkpt lat="64.06547546" lon="-20.06669426"><ele>131.5</ele><time>2012-07-20T19:51:24.0000000+00:00</time></trkpt><trkpt lat="64.06555176" lon="-20.06629562"><ele>131.0</ele><time>2012-07-20T19:51:29.0000000+00:00</time></trkpt><trkpt lat="64.06562042" lon="-20.0658989"><ele>129.9</ele><time>2012-07-20T19:51:34.0000000+00:00</time></trkpt><trkpt lat="64.06571198" lon="-20.06548119"><ele>130.7</ele><time>2012-07-20T19:51:39.0000000+00:00</time></trkpt><trkpt lat="64.06580353" lon="-20.06500816"><ele>130.5</ele><time>2012-07-20T19:51:44.0000000+00:00</time></trkpt><trkpt lat="64.06591034" lon="-20.0644989"><ele>131.0</ele><time>2012-07-20T19:51:49.0000000+00:00</time></trkpt><trkpt lat="64.06601715" lon="-20.06398201"><ele>131.2</ele><time>2012-07-20T19:51:54.0000000+00:00</time></trkpt><trkpt lat="64.06611633" lon="-20.06347656"><ele>130.4</ele><time>2012-07-20T19:51:59.0000000+00:00</time></trkpt><trkpt lat="64.06620026" lon="-20.06301689"><ele>129.3</ele><time>2012-07-20T19:52:04.0000000+00:00</time></trkpt><trkpt lat="64.06628418" lon="-20.06255913"><ele>129.0</ele><time>2012-07-20T19:52:09.0000000+00:00</time></trkpt><trkpt lat="64.06638336" lon="-20.06207275"><ele>129.0</ele><time>2012-07-20T19:52:14.0000000+00:00</time></trkpt><trkpt lat="64.06648254" lon="-20.06156921"><ele>127.7</ele><time>2012-07-20T19:52:19.0000000+00:00</time></trkpt><trkpt lat="64.06658173" lon="-20.06108666"><ele>127.7</ele><time>2012-07-20T19:52:24.0000000+00:00</time></trkpt><trkpt lat="64.06668854" lon="-20.06059456"><ele>128.3</ele><time>2012-07-20T19:52:29.0000000+00:00</time></trkpt><trkpt lat="64.06678009" lon="-20.06011581"><ele>129.0</ele><time>2012-07-20T19:52:34.0000000+00:00</time></trkpt><trkpt lat="64.06687927" lon="-20.05963707"><ele>130.0</ele><time>2012-07-20T19:52:39.0000000+00:00</time></trkpt><trkpt lat="64.0669632" lon="-20.05917931"><ele>128.8</ele><time>2012-07-20T19:52:44.0000000+00:00</time></trkpt><trkpt lat="64.06706238" lon="-20.05871391"><ele>126.4</ele><time>2012-07-20T19:52:49.0000000+00:00</time></trkpt><trkpt lat="64.06713867" lon="-20.05828857"><ele>128.2</ele><time>2012-07-20T19:52:54.0000000+00:00</time></trkpt><trkpt lat="64.06723023" lon="-20.05789185"><ele>130.5</ele><time>2012-07-20T19:52:59.0000000+00:00</time></trkpt><trkpt lat="64.06731415" lon="-20.05745697"><ele>130.3</ele><time>2012-07-20T19:53:04.0000000+00:00</time></trkpt><trkpt lat="64.06739044" lon="-20.05704498"><ele>129.9</ele><time>2012-07-20T19:53:09.0000000+00:00</time></trkpt><trkpt lat="64.06747437" lon="-20.05661202"><ele>129.8</ele><time>2012-07-20T19:53:14.0000000+00:00</time></trkpt><trkpt lat="64.06755829" lon="-20.05621147"><ele>129.0</ele><time>2012-07-20T19:53:19.0000000+00:00</time></trkpt><trkpt lat="64.06763458" lon="-20.05580902"><ele>129.5</ele><time>2012-07-20T19:53:24.0000000+00:00</time></trkpt><trkpt lat="64.06771851" lon="-20.05539703"><ele>128.4</ele><time>2012-07-20T19:53:29.0000000+00:00</time></trkpt><trkpt lat="64.06780243" lon="-20.05496788"><ele>127.9</ele><time>2012-07-20T19:53:34.0000000+00:00</time></trkpt><trkpt lat="64.06787872" lon="-20.05452347"><ele>126.2</ele><time>2012-07-20T19:53:39.0000000+00:00</time></trkpt><trkpt lat="64.06796265" lon="-20.05408478"><ele>125.6</ele><time>2012-07-20T19:53:44.0000000+00:00</time></trkpt><trkpt lat="64.06803894" lon="-20.05366707"><ele>124.4</ele><time>2012-07-20T19:53:49.0000000+00:00</time></trkpt><trkpt lat="64.06813049" lon="-20.05327034"><ele>125.4</ele><time>2012-07-20T19:53:54.0000000+00:00</time></trkpt><trkpt lat="64.06822205" lon="-20.05287552"><ele>125.4</ele><time>2012-07-20T19:53:59.0000000+00:00</time></trkpt><trkpt lat="64.06829834" lon="-20.05245781"><ele>123.6</ele><time>2012-07-20T19:54:04.0000000+00:00</time></trkpt><trkpt lat="64.06838226" lon="-20.05207443"><ele>121.8</ele><time>2012-07-20T19:54:09.0000000+00:00</time></trkpt><trkpt lat="64.06845856" lon="-20.05168343"><ele>120.8</ele><time>2012-07-20T19:54:14.0000000+00:00</time></trkpt><trkpt lat="64.06854248" lon="-20.05133438"><ele>122.5</ele><time>2012-07-20T19:54:19.0000000+00:00</time></trkpt><trkpt lat="64.0686264" lon="-20.0509243"><ele>121.8</ele><time>2012-07-20T19:54:24.0000000+00:00</time></trkpt><trkpt lat="64.06873322" lon="-20.05047798"><ele>123.3</ele><time>2012-07-20T19:54:29.0000000+00:00</time></trkpt><trkpt lat="64.06884003" lon="-20.05001068"><ele>123.1</ele><time>2012-07-20T19:54:34.0000000+00:00</time></trkpt><trkpt lat="64.0689621" lon="-20.04950333"><ele>123.2</ele><time>2012-07-20T19:54:39.0000000+00:00</time></trkpt><trkpt lat="64.0690918" lon="-20.04894447"><ele>122.8</ele><time>2012-07-20T19:54:44.0000000+00:00</time></trkpt><trkpt lat="64.06920624" lon="-20.04833984"><ele>124.5</ele><time>2012-07-20T19:54:49.0000000+00:00</time></trkpt><trkpt lat="64.0693512" lon="-20.04772568"><ele>125.6</ele><time>2012-07-20T19:54:54.0000000+00:00</time></trkpt><trkpt lat="64.06948853" lon="-20.04710579"><ele>126.4</ele><time>2012-07-20T19:54:59.0000000+00:00</time></trkpt><trkpt lat="64.06962585" lon="-20.04654312"><ele>126.5</ele><time>2012-07-20T19:55:04.0000000+00:00</time></trkpt><trkpt lat="64.06975555" lon="-20.04600906"><ele>126.9</ele><time>2012-07-20T19:55:09.0000000+00:00</time></trkpt><trkpt lat="64.06990051" lon="-20.04547501"><ele>125.3</ele><time>2012-07-20T19:55:14.0000000+00:00</time></trkpt><trkpt lat="64.07002258" lon="-20.04495621"><ele>125.8</ele><time>2012-07-20T19:55:19.0000000+00:00</time></trkpt><trkpt lat="64.07015991" lon="-20.04441643"><ele>126.1</ele><time>2012-07-20T19:55:24.0000000+00:00</time></trkpt><trkpt lat="64.0703125" lon="-20.04381752"><ele>126.3</ele><time>2012-07-20T19:55:29.0000000+00:00</time></trkpt><trkpt lat="64.07045746" lon="-20.04320717"><ele>127.5</ele><time>2012-07-20T19:55:34.0000000+00:00</time></trkpt><trkpt lat="64.07060242" lon="-20.04262543"><ele>126.8</ele><time>2012-07-20T19:55:39.0000000+00:00</time></trkpt><trkpt lat="64.07076263" lon="-20.04205513"><ele>126.6</ele><time>2012-07-20T19:55:44.0000000+00:00</time></trkpt><trkpt lat="64.07092285" lon="-20.04149818"><ele>126.2</ele><time>2012-07-20T19:55:49.0000000+00:00</time></trkpt><trkpt lat="64.07107544" lon="-20.04089737"><ele>126.1</ele><time>2012-07-20T19:55:54.0000000+00:00</time></trkpt><trkpt lat="64.07119751" lon="-20.04036903"><ele>127.5</ele><time>2012-07-20T19:55:59.0000000+00:00</time></trkpt><trkpt lat="64.0713501" lon="-20.03982353"><ele>128.3</ele><time>2012-07-20T19:56:04.0000000+00:00</time></trkpt><trkpt lat="64.07150269" lon="-20.03924751"><ele>128.3</ele><time>2012-07-20T19:56:09.0000000+00:00</time></trkpt><trkpt lat="64.07164002" lon="-20.03875732"><ele>129.7</ele><time>2012-07-20T19:56:14.0000000+00:00</time></trkpt><trkpt lat="64.07176209" lon="-20.03832245"><ele>129.9</ele><time>2012-07-20T19:56:19.0000000+00:00</time></trkpt><trkpt lat="64.07187653" lon="-20.03787422"><ele>128.9</ele><time>2012-07-20T19:56:24.0000000+00:00</time></trkpt><trkpt lat="64.0719986" lon="-20.03747749"><ele>129.0</ele><time>2012-07-20T19:56:29.0000000+00:00</time></trkpt><trkpt lat="64.07209015" lon="-20.03715515"><ele>129.3</ele><time>2012-07-20T19:56:34.0000000+00:00</time></trkpt><trkpt lat="64.07217407" lon="-20.0368557"><ele>129.6</ele><time>2012-07-20T19:56:39.0000000+00:00</time></trkpt><trkpt lat="64.07228851" lon="-20.03644943"><ele>129.2</ele><time>2012-07-20T19:56:44.0000000+00:00</time></trkpt><trkpt lat="64.07240295" lon="-20.03600502"><ele>130.2</ele><time>2012-07-20T19:56:49.0000000+00:00</time></trkpt><trkpt lat="64.07252502" lon="-20.03555107"><ele>130.9</ele><time>2012-07-20T19:56:54.0000000+00:00</time></trkpt><trkpt lat="64.07265472" lon="-20.03510857"><ele>131.5</ele><time>2012-07-20T19:56:59.0000000+00:00</time></trkpt><trkpt lat="64.07277679" lon="-20.03466034"><ele>132.4</ele><time>2012-07-20T19:57:04.0000000+00:00</time></trkpt><trkpt lat="64.07289887" lon="-20.03420448"><ele>133.0</ele><time>2012-07-20T19:57:09.0000000+00:00</time></trkpt><trkpt lat="64.07301331" lon="-20.03377152"><ele>133.4</ele><time>2012-07-20T19:57:14.0000000+00:00</time></trkpt><trkpt lat="64.07313538" lon="-20.0332756"><ele>133.6</ele><time>2012-07-20T19:57:19.0000000+00:00</time></trkpt><trkpt lat="64.07325745" lon="-20.03281403"><ele>133.1</ele><time>2012-07-20T19:57:24.0000000+00:00</time></trkpt><trkpt lat="64.07340241" lon="-20.03232575"><ele>133.4</ele><time>2012-07-20T19:57:29.0000000+00:00</time></trkpt><trkpt lat="64.0735321" lon="-20.03189087"><ele>133.4</ele><time>2012-07-20T19:57:34.0000000+00:00</time></trkpt><trkpt lat="64.07365418" lon="-20.0314064"><ele>132.7</ele><time>2012-07-20T19:57:39.0000000+00:00</time></trkpt><trkpt lat="64.07379913" lon="-20.03087616"><ele>131.8</ele><time>2012-07-20T19:57:44.0000000+00:00</time></trkpt><trkpt lat="64.0739212" lon="-20.03038216"><ele>131.1</ele><time>2012-07-20T19:57:49.0000000+00:00</time></trkpt><trkpt lat="64.07405853" lon="-20.02993584"><ele>130.9</ele><time>2012-07-20T19:57:54.0000000+00:00</time></trkpt><trkpt lat="64.07419586" lon="-20.02949905"><ele>129.9</ele><time>2012-07-20T19:57:59.0000000+00:00</time></trkpt><trkpt lat="64.07437897" lon="-20.02899933"><ele>128.8</ele><time>2012-07-20T19:58:04.0000000+00:00</time></trkpt><trkpt lat="64.0745697" lon="-20.02852631"><ele>128.8</ele><time>2012-07-20T19:58:09.0000000+00:00</time></trkpt><trkpt lat="64.07475281" lon="-20.02805328"><ele>128.4</ele><time>2012-07-20T19:58:14.0000000+00:00</time></trkpt><trkpt lat="64.07498169" lon="-20.02755928"><ele>128.4</ele><time>2012-07-20T19:58:19.0000000+00:00</time></trkpt><trkpt lat="64.07522583" lon="-20.02708626"><ele>128.3</ele><time>2012-07-20T19:58:24.0000000+00:00</time></trkpt><trkpt lat="64.07544708" lon="-20.02662277"><ele>128.1</ele><time>2012-07-20T19:58:29.0000000+00:00</time></trkpt><trkpt lat="64.07567596" lon="-20.0261879"><ele>127.9</ele><time>2012-07-20T19:58:34.0000000+00:00</time></trkpt><trkpt lat="64.07592773" lon="-20.02593994"><ele>127.9</ele><time>2012-07-20T19:58:39.0000000+00:00</time></trkpt><trkpt lat="64.07614136" lon="-20.02626038"><ele>127.9</ele><time>2012-07-20T19:58:44.0000000+00:00</time></trkpt><trkpt lat="64.07632446" lon="-20.02636528"><ele>128.6</ele><time>2012-07-20T19:58:49.0000000+00:00</time></trkpt><trkpt lat="64.0764389" lon="-20.02613831"><ele>130.0</ele><time>2012-07-20T19:58:54.0000000+00:00</time></trkpt><trkpt lat="64.07653046" lon="-20.02593613"><ele>130.9</ele><time>2012-07-20T19:58:59.0000000+00:00</time></trkpt><trkpt lat="64.07662964" lon="-20.02571487"><ele>131.2</ele><time>2012-07-20T19:59:04.0000000+00:00</time></trkpt><trkpt lat="64.07673645" lon="-20.02547836"><ele>131.7</ele><time>2012-07-20T19:59:09.0000000+00:00</time></trkpt><trkpt lat="64.07685089" lon="-20.02524948"><ele>131.3</ele><time>2012-07-20T19:59:14.0000000+00:00</time></trkpt><trkpt lat="64.07697296" lon="-20.02500916"><ele>132.3</ele><time>2012-07-20T19:59:19.0000000+00:00</time></trkpt><trkpt lat="64.0770874" lon="-20.02477074"><ele>133.3</ele><time>2012-07-20T19:59:24.0000000+00:00</time></trkpt><trkpt lat="64.07718658" lon="-20.02456284"><ele>134.1</ele><time>2012-07-20T19:59:29.0000000+00:00</time></trkpt><trkpt lat="64.07725525" lon="-20.02444649"><ele>135.5</ele><time>2012-07-20T19:59:34.0000000+00:00</time></trkpt><trkpt lat="64.07730866" lon="-20.02430344"><ele>135.5</ele><time>2012-07-20T19:59:39.0000000+00:00</time></trkpt><trkpt lat="64.07737732" lon="-20.02415085"><ele>136.6</ele><time>2012-07-20T19:59:44.0000000+00:00</time></trkpt><trkpt lat="64.07744598" lon="-20.0240078"><ele>138.5</ele><time>2012-07-20T19:59:49.0000000+00:00</time></trkpt><trkpt lat="64.07749939" lon="-20.02385521"><ele>139.8</ele><time>2012-07-20T19:59:54.0000000+00:00</time></trkpt><trkpt lat="64.07756043" lon="-20.02368355"><ele>141.1</ele><time>2012-07-20T19:59:59.0000000+00:00</time></trkpt><trkpt lat="64.07761383" lon="-20.02351761"><ele>141.5</ele><time>2012-07-20T20:00:04.0000000+00:00</time></trkpt><trkpt lat="64.07767487" lon="-20.02338982"><ele>141.8</ele><time>2012-07-20T20:00:09.0000000+00:00</time></trkpt><trkpt lat="64.07774353" lon="-20.02321434"><ele>141.9</ele><time>2012-07-20T20:00:14.0000000+00:00</time></trkpt><trkpt lat="64.07778931" lon="-20.02311325"><ele>142.6</ele><time>2012-07-20T20:00:19.0000000+00:00</time></trkpt><trkpt lat="64.07785797" lon="-20.02298546"><ele>143.2</ele><time>2012-07-20T20:00:24.0000000+00:00</time></trkpt><trkpt lat="64.07793427" lon="-20.02285957"><ele>143.7</ele><time>2012-07-20T20:00:29.0000000+00:00</time></trkpt><trkpt lat="64.07800293" lon="-20.02272606"><ele>144.6</ele><time>2012-07-20T20:00:34.0000000+00:00</time></trkpt><trkpt lat="64.07808685" lon="-20.02261734"><ele>144.8</ele><time>2012-07-20T20:00:39.0000000+00:00</time></trkpt><trkpt lat="64.07807922" lon="-20.02262116"><ele>144.7</ele><time>2012-07-20T20:00:44.0000000+00:00</time></trkpt><trkpt lat="64.07810211" lon="-20.02258492"><ele>144.5</ele><time>2012-07-20T20:00:49.0000000+00:00</time></trkpt><trkpt lat="64.07814789" lon="-20.02250671"><ele>144.9</ele><time>2012-07-20T20:00:54.0000000+00:00</time></trkpt><trkpt lat="64.07820129" lon="-20.02243424"><ele>145.1</ele><time>2012-07-20T20:00:59.0000000+00:00</time></trkpt><trkpt lat="64.07824707" lon="-20.0223732"><ele>145.5</ele><time>2012-07-20T20:01:04.0000000+00:00</time></trkpt><trkpt lat="64.07828522" lon="-20.02230835"><ele>146.6</ele><time>2012-07-20T20:01:09.0000000+00:00</time></trkpt><trkpt lat="64.07833099" lon="-20.02223778"><ele>146.9</ele><time>2012-07-20T20:01:14.0000000+00:00</time></trkpt><trkpt lat="64.07837677" lon="-20.02217293"><ele>148.4</ele><time>2012-07-20T20:01:19.0000000+00:00</time></trkpt><trkpt lat="64.07843018" lon="-20.02210045"><ele>149.5</ele><time>2012-07-20T20:01:24.0000000+00:00</time></trkpt><trkpt lat="64.07846832" lon="-20.02201653"><ele>149.6</ele><time>2012-07-20T20:01:29.0000000+00:00</time></trkpt><trkpt lat="64.07849884" lon="-20.0219326"><ele>150.8</ele><time>2012-07-20T20:01:34.0000000+00:00</time></trkpt><trkpt lat="64.07853699" lon="-20.02185059"><ele>150.9</ele><time>2012-07-20T20:01:39.0000000+00:00</time></trkpt><trkpt lat="64.07858276" lon="-20.02176476"><ele>150.9</ele><time>2012-07-20T20:01:44.0000000+00:00</time></trkpt><trkpt lat="64.07861328" lon="-20.02167702"><ele>150.9</ele><time>2012-07-20T20:01:49.0000000+00:00</time></trkpt><trkpt lat="64.07865143" lon="-20.02160263"><ele>152.1</ele><time>2012-07-20T20:01:54.0000000+00:00</time></trkpt><trkpt lat="64.07869721" lon="-20.02149963"><ele>152.3</ele><time>2012-07-20T20:01:59.0000000+00:00</time></trkpt><trkpt lat="64.07873535" lon="-20.02140045"><ele>153.1</ele><time>2012-07-20T20:02:04.0000000+00:00</time></trkpt><trkpt lat="64.07878876" lon="-20.02129555"><ele>153.8</ele><time>2012-07-20T20:02:09.0000000+00:00</time></trkpt><trkpt lat="64.07884216" lon="-20.02118874"><ele>155.7</ele><time>2012-07-20T20:02:14.0000000+00:00</time></trkpt><trkpt lat="64.07888031" lon="-20.02109337"><ele>156.4</ele><time>2012-07-20T20:02:19.0000000+00:00</time></trkpt><trkpt lat="64.07892609" lon="-20.02100563"><ele>157.6</ele><time>2012-07-20T20:02:24.0000000+00:00</time></trkpt><trkpt lat="64.07897186" lon="-20.02090836"><ele>158.8</ele><time>2012-07-20T20:02:29.0000000+00:00</time></trkpt><trkpt lat="64.07898712" lon="-20.02087021"><ele>159.7</ele><time>2012-07-20T20:02:34.0000000+00:00</time></trkpt><trkpt lat="64.07897949" lon="-20.0208683"><ele>159.9</ele><time>2012-07-20T20:02:39.0000000+00:00</time></trkpt><trkpt lat="64.07897949" lon="-20.0208683"><ele>159.8</ele><time>2012-07-20T20:02:44.0000000+00:00</time></trkpt><trkpt lat="64.07897949" lon="-20.02087021"><ele>159.8</ele><time>2012-07-20T20:02:49.0000000+00:00</time></trkpt><trkpt lat="64.07897949" lon="-20.02087021"><ele>159.8</ele><time>2012-07-20T20:02:54.0000000+00:00</time></trkpt><trkpt lat="64.07897949" lon="-20.02087021"><ele>159.8</ele><time>2012-07-20T20:02:59.0000000+00:00</time></trkpt><trkpt lat="64.07897949" lon="-20.02087021"><ele>159.8</ele><time>2012-07-20T20:03:04.0000000+00:00</time></trkpt><trkpt lat="64.07897949" lon="-20.02087021"><ele>159.8</ele><time>2012-07-20T20:03:09.0000000+00:00</time></trkpt><trkpt lat="64.07899475" lon="-20.02085114"><ele>159.9</ele><time>2012-07-20T20:03:14.0000000+00:00</time></trkpt><trkpt lat="64.07904816" lon="-20.02077103"><ele>160.6</ele><time>2012-07-20T20:03:19.0000000+00:00</time></trkpt><trkpt lat="64.07909393" lon="-20.02067947"><ele>161.0</ele><time>2012-07-20T20:03:24.0000000+00:00</time></trkpt><trkpt lat="64.07913971" lon="-20.02062035"><ele>161.2</ele><time>2012-07-20T20:03:29.0000000+00:00</time></trkpt><trkpt lat="64.07917786" lon="-20.02054977"><ele>161.4</ele><time>2012-07-20T20:03:34.0000000+00:00</time></trkpt><trkpt lat="64.07923126" lon="-20.02047157"><ele>161.7</ele><time>2012-07-20T20:03:39.0000000+00:00</time></trkpt><trkpt lat="64.0792923" lon="-20.02040863"><ele>162.5</ele><time>2012-07-20T20:03:44.0000000+00:00</time></trkpt><trkpt lat="64.07933807" lon="-20.02033997"><ele>163.4</ele><time>2012-07-20T20:03:49.0000000+00:00</time></trkpt><trkpt lat="64.07938385" lon="-20.02027321"><ele>164.1</ele><time>2012-07-20T20:03:54.0000000+00:00</time></trkpt><trkpt lat="64.07942963" lon="-20.02022934"><ele>165.0</ele><time>2012-07-20T20:03:59.0000000+00:00</time></trkpt><trkpt lat="64.0794754" lon="-20.02017021"><ele>165.6</ele><time>2012-07-20T20:04:04.0000000+00:00</time></trkpt><trkpt lat="64.07952118" lon="-20.02012062"><ele>166.8</ele><time>2012-07-20T20:04:09.0000000+00:00</time></trkpt><trkpt lat="64.07956696" lon="-20.02006149"><ele>168.2</ele><time>2012-07-20T20:04:14.0000000+00:00</time></trkpt><trkpt lat="64.07962036" lon="-20.01999664"><ele>169.6</ele><time>2012-07-20T20:04:19.0000000+00:00</time></trkpt><trkpt lat="64.07965088" lon="-20.01994896"><ele>171.6</ele><time>2012-07-20T20:04:24.0000000+00:00</time></trkpt><trkpt lat="64.0796814" lon="-20.01989555"><ele>173.6</ele><time>2012-07-20T20:04:29.0000000+00:00</time></trkpt><trkpt lat="64.07970429" lon="-20.01983643"><ele>175.3</ele><time>2012-07-20T20:04:34.0000000+00:00</time></trkpt><trkpt lat="64.07975769" lon="-20.01976967"><ele>177.2</ele><time>2012-07-20T20:04:39.0000000+00:00</time></trkpt><trkpt lat="64.07985687" lon="-20.01961327"><ele>179.3</ele><time>2012-07-20T20:04:44.0000000+00:00</time></trkpt><trkpt lat="64.0799408" lon="-20.01944542"><ele>180.4</ele><time>2012-07-20T20:04:49.0000000+00:00</time></trkpt><trkpt lat="64.08003998" lon="-20.01925468"><ele>182.7</ele><time>2012-07-20T20:04:54.0000000+00:00</time></trkpt><trkpt lat="64.0801239" lon="-20.01906967"><ele>182.8</ele><time>2012-07-20T20:04:59.0000000+00:00</time></trkpt><trkpt lat="64.08021545" lon="-20.01889992"><ele>183.7</ele><time>2012-07-20T20:05:04.0000000+00:00</time></trkpt><trkpt lat="64.0803299" lon="-20.01867104"><ele>185.3</ele><time>2012-07-20T20:05:09.0000000+00:00</time></trkpt><trkpt lat="64.08043671" lon="-20.01851082"><ele>185.6</ele><time>2012-07-20T20:05:14.0000000+00:00</time></trkpt><trkpt lat="64.08055878" lon="-20.01836014"><ele>186.9</ele><time>2012-07-20T20:05:19.0000000+00:00</time></trkpt><trkpt lat="64.08068085" lon="-20.01821327"><ele>186.4</ele><time>2012-07-20T20:05:24.0000000+00:00</time></trkpt><trkpt lat="64.0807724" lon="-20.01807404"><ele>185.2</ele><time>2012-07-20T20:05:29.0000000+00:00</time></trkpt><trkpt lat="64.08084106" lon="-20.0179348"><ele>184.4</ele><time>2012-07-20T20:05:34.0000000+00:00</time></trkpt><trkpt lat="64.08082581" lon="-20.0177269"><ele>182.2</ele><time>2012-07-20T20:05:39.0000000+00:00</time></trkpt><trkpt lat="64.08081818" lon="-20.01765633"><ele>180.4</ele><time>2012-07-20T20:05:44.0000000+00:00</time></trkpt><trkpt lat="64.08081055" lon="-20.0176487"><ele>180.6</ele><time>2012-07-20T20:05:49.0000000+00:00</time></trkpt><trkpt lat="64.08081055" lon="-20.0176487"><ele>180.7</ele><time>2012-07-20T20:05:54.0000000+00:00</time></trkpt><trkpt lat="64.08081055" lon="-20.0176487"><ele>180.7</ele><time>2012-07-20T20:05:59.0000000+00:00</time></trkpt><trkpt lat="64.08081055" lon="-20.0176487"><ele>180.7</ele><time>2012-07-20T20:06:04.0000000+00:00</time></trkpt><trkpt lat="64.08081055" lon="-20.0176487"><ele>180.7</ele><time>2012-07-20T20:06:09.0000000+00:00</time></trkpt><trkpt lat="64.08081055" lon="-20.0176487"><ele>180.6</ele><time>2012-07-20T20:06:14.0000000+00:00</time></trkpt><trkpt lat="64.08081055" lon="-20.0176487"><ele>180.6</ele><time>2012-07-20T20:06:19.0000000+00:00</time></trkpt><trkpt lat="64.08081055" lon="-20.01764107"><ele>180.3</ele><time>2012-07-20T20:06:24.0000000+00:00</time></trkpt><trkpt lat="64.08081055" lon="-20.01763535"><ele>180.4</ele><time>2012-07-20T20:06:29.0000000+00:00</time></trkpt><trkpt lat="64.08081055" lon="-20.01763344"><ele>180.3</ele><time>2012-07-20T20:06:34.0000000+00:00</time></trkpt><trkpt lat="64.08081055" lon="-20.01763725"><ele>180.1</ele><time>2012-07-20T20:06:39.0000000+00:00</time></trkpt><trkpt lat="64.08081055" lon="-20.01763725"><ele>180.1</ele><time>2012-07-20T20:06:44.0000000+00:00</time></trkpt><trkpt lat="64.08081055" lon="-20.01763725"><ele>180.0</ele><time>2012-07-20T20:06:49.0000000+00:00</time></trkpt><trkpt lat="64.08081055" lon="-20.01763725"><ele>180.0</ele><time>2012-07-20T20:06:54.0000000+00:00</time></trkpt><trkpt lat="64.08081055" lon="-20.01763725"><ele>179.9</ele><time>2012-07-20T20:06:59.0000000+00:00</time></trkpt><trkpt lat="64.08081055" lon="-20.01763916"><ele>179.9</ele><time>2012-07-20T20:07:04.0000000+00:00</time></trkpt><trkpt lat="64.08081055" lon="-20.01763916"><ele>179.9</ele><time>2012-07-20T20:07:09.0000000+00:00</time></trkpt><trkpt lat="64.08081055" lon="-20.01763916"><ele>179.8</ele><time>2012-07-20T20:07:14.0000000+00:00</time></trkpt><trkpt lat="64.08081055" lon="-20.01763916"><ele>179.8</ele><time>2012-07-20T20:07:19.0000000+00:00</time></trkpt><trkpt lat="64.08081055" lon="-20.01763916"><ele>179.8</ele><time>2012-07-20T20:07:24.0000000+00:00</time></trkpt><trkpt lat="64.08081055" lon="-20.01764107"><ele>179.8</ele><time>2012-07-20T20:07:29.0000000+00:00</time></trkpt><trkpt lat="64.08081055" lon="-20.01764107"><ele>179.7</ele><time>2012-07-20T20:07:34.0000000+00:00</time></trkpt><trkpt lat="64.08081055" lon="-20.01764107"><ele>179.7</ele><time>2012-07-20T20:07:39.0000000+00:00</time></trkpt><trkpt lat="64.08081055" lon="-20.01764107"><ele>179.7</ele><time>2012-07-20T20:07:44.0000000+00:00</time></trkpt><trkpt lat="64.08081055" lon="-20.01764107"><ele>179.6</ele><time>2012-07-20T20:07:49.0000000+00:00</time></trkpt><trkpt lat="64.08081055" lon="-20.01764107"><ele>179.6</ele><time>2012-07-20T20:07:54.0000000+00:00</time></trkpt><trkpt lat="64.08081055" lon="-20.01763916"><ele>179.6</ele><time>2012-07-20T20:07:59.0000000+00:00</time></trkpt><trkpt lat="64.08081055" lon="-20.01763916"><ele>179.6</ele><time>2012-07-20T20:08:04.0000000+00:00</time></trkpt><trkpt lat="64.08081055" lon="-20.01763916"><ele>179.6</ele><time>2012-07-20T20:08:09.0000000+00:00</time></trkpt><trkpt lat="64.08081055" lon="-20.01763916"><ele>179.6</ele><time>2012-07-20T20:08:14.0000000+00:00</time></trkpt><trkpt lat="64.08081055" lon="-20.01764107"><ele>179.5</ele><time>2012-07-20T20:08:19.0000000+00:00</time></trkpt><trkpt lat="64.08081055" lon="-20.01764107"><ele>179.5</ele><time>2012-07-20T20:08:24.0000000+00:00</time></trkpt><trkpt lat="64.08081055" lon="-20.01764107"><ele>179.5</ele><time>2012-07-20T20:08:29.0000000+00:00</time></trkpt><trkpt lat="64.08081055" lon="-20.01764107"><ele>179.4</ele><time>2012-07-20T20:08:34.0000000+00:00</time></trkpt><trkpt lat="64.08081055" lon="-20.01764107"><ele>179.4</ele><time>2012-07-20T20:08:39.0000000+00:00</time></trkpt><trkpt lat="64.08081055" lon="-20.01764298"><ele>179.3</ele><time>2012-07-20T20:08:44.0000000+00:00</time></trkpt><trkpt lat="64.08081055" lon="-20.01764298"><ele>179.3</ele><time>2012-07-20T20:08:49.0000000+00:00</time></trkpt><trkpt lat="64.08081055" lon="-20.01764298"><ele>179.3</ele><time>2012-07-20T20:08:54.0000000+00:00</time></trkpt><trkpt lat="64.08081055" lon="-20.01764488"><ele>179.2</ele><time>2012-07-20T20:08:59.0000000+00:00</time></trkpt><trkpt lat="64.08081055" lon="-20.01764488"><ele>179.2</ele><time>2012-07-20T20:09:04.0000000+00:00</time></trkpt><trkpt lat="64.08081055" lon="-20.01764488"><ele>179.2</ele><time>2012-07-20T20:09:09.0000000+00:00</time></trkpt><trkpt lat="64.08081055" lon="-20.01764679"><ele>179.2</ele><time>2012-07-20T20:09:14.0000000+00:00</time></trkpt><trkpt lat="64.08081055" lon="-20.01764679"><ele>179.2</ele><time>2012-07-20T20:09:19.0000000+00:00</time></trkpt><trkpt lat="64.08081055" lon="-20.01764679"><ele>179.1</ele><time>2012-07-20T20:09:24.0000000+00:00</time></trkpt><trkpt lat="64.08081055" lon="-20.01764679"><ele>179.1</ele><time>2012-07-20T20:09:29.0000000+00:00</time></trkpt><trkpt lat="64.08081055" lon="-20.01764488"><ele>179.1</ele><time>2012-07-20T20:09:34.0000000+00:00</time></trkpt><trkpt lat="64.08081055" lon="-20.01764488"><ele>179.0</ele><time>2012-07-20T20:09:39.0000000+00:00</time></trkpt><trkpt lat="64.08081055" lon="-20.01764679"><ele>179.0</ele><time>2012-07-20T20:09:44.0000000+00:00</time></trkpt><trkpt lat="64.08081055" lon="-20.01764679"><ele>179.0</ele><time>2012-07-20T20:09:49.0000000+00:00</time></trkpt><trkpt lat="64.08081055" lon="-20.0176487"><ele>179.0</ele><time>2012-07-20T20:09:54.0000000+00:00</time></trkpt><trkpt lat="64.08081055" lon="-20.0176487"><ele>178.9</ele><time>2012-07-20T20:09:59.0000000+00:00</time></trkpt><trkpt lat="64.08081055" lon="-20.0176487"><ele>178.9</ele><time>2012-07-20T20:10:04.0000000+00:00</time></trkpt><trkpt lat="64.08081055" lon="-20.0176487"><ele>178.9</ele><time>2012-07-20T20:10:09.0000000+00:00</time></trkpt><trkpt lat="64.08081055" lon="-20.0176506"><ele>178.8</ele><time>2012-07-20T20:10:14.0000000+00:00</time></trkpt><trkpt lat="64.08081055" lon="-20.0176506"><ele>178.8</ele><time>2012-07-20T20:10:19.0000000+00:00</time></trkpt><trkpt lat="64.08081055" lon="-20.0176506"><ele>178.8</ele><time>2012-07-20T20:10:24.0000000+00:00</time></trkpt><trkpt lat="64.08081055" lon="-20.0176506"><ele>178.8</ele><time>2012-07-20T20:10:29.0000000+00:00</time></trkpt><trkpt lat="64.08081055" lon="-20.01765251"><ele>178.7</ele><time>2012-07-20T20:10:34.0000000+00:00</time></trkpt><trkpt lat="64.08081055" lon="-20.01765251"><ele>178.7</ele><time>2012-07-20T20:10:39.0000000+00:00</time></trkpt><trkpt lat="64.08081055" lon="-20.01765251"><ele>178.7</ele><time>2012-07-20T20:10:44.0000000+00:00</time></trkpt><trkpt lat="64.08081055" lon="-20.01765251"><ele>178.6</ele><time>2012-07-20T20:10:49.0000000+00:00</time></trkpt><trkpt lat="64.08081055" lon="-20.01765251"><ele>178.6</ele><time>2012-07-20T20:10:54.0000000+00:00</time></trkpt><trkpt lat="64.08081055" lon="-20.01765251"><ele>178.6</ele><time>2012-07-20T20:10:59.0000000+00:00</time></trkpt><trkpt lat="64.08081055" lon="-20.01765442"><ele>178.5</ele><time>2012-07-20T20:11:04.0000000+00:00</time></trkpt><trkpt lat="64.08081055" lon="-20.01765442"><ele>178.5</ele><time>2012-07-20T20:11:09.0000000+00:00</time></trkpt><trkpt lat="64.08081055" lon="-20.01765442"><ele>178.5</ele><time>2012-07-20T20:11:14.0000000+00:00</time></trkpt><trkpt lat="64.08081055" lon="-20.01765442"><ele>178.5</ele><time>2012-07-20T20:11:19.0000000+00:00</time></trkpt><trkpt lat="64.08081055" lon="-20.01765442"><ele>178.5</ele><time>2012-07-20T20:11:24.0000000+00:00</time></trkpt><trkpt lat="64.08081055" lon="-20.01765442"><ele>178.5</ele><time>2012-07-20T20:11:29.0000000+00:00</time></trkpt><trkpt lat="64.08081055" lon="-20.01765442"><ele>178.4</ele><time>2012-07-20T20:11:34.0000000+00:00</time></trkpt><trkpt lat="64.08081055" lon="-20.01765442"><ele>178.4</ele><time>2012-07-20T20:11:39.0000000+00:00</time></trkpt><trkpt lat="64.08081055" lon="-20.01765442"><ele>178.4</ele><time>2012-07-20T20:11:44.0000000+00:00</time></trkpt><trkpt lat="64.08081055" lon="-20.01765442"><ele>178.3</ele><time>2012-07-20T20:11:49.0000000+00:00</time></trkpt><trkpt lat="64.08081055" lon="-20.01765442"><ele>178.3</ele><time>2012-07-20T20:11:54.0000000+00:00</time></trkpt><trkpt lat="64.08081055" lon="-20.01765442"><ele>178.3</ele><time>2012-07-20T20:11:59.0000000+00:00</time></trkpt><trkpt lat="64.08081055" lon="-20.01765442"><ele>178.3</ele><time>2012-07-20T20:12:04.0000000+00:00</time></trkpt><trkpt lat="64.08081055" lon="-20.01765633"><ele>178.2</ele><time>2012-07-20T20:12:09.0000000+00:00</time></trkpt><trkpt lat="64.08081055" lon="-20.01765633"><ele>178.2</ele><time>2012-07-20T20:12:14.0000000+00:00</time></trkpt><trkpt lat="64.08081055" lon="-20.01765633"><ele>178.2</ele><time>2012-07-20T20:12:19.0000000+00:00</time></trkpt><trkpt lat="64.08081055" lon="-20.01765633"><ele>178.2</ele><time>2012-07-20T20:12:24.0000000+00:00</time></trkpt><trkpt lat="64.08081055" lon="-20.01765633"><ele>178.2</ele><time>2012-07-20T20:12:29.0000000+00:00</time></trkpt><trkpt lat="64.08081055" lon="-20.01765633"><ele>178.1</ele><time>2012-07-20T20:12:34.0000000+00:00</time></trkpt><trkpt lat="64.08081055" lon="-20.01765633"><ele>178.1</ele><time>2012-07-20T20:12:39.0000000+00:00</time></trkpt><trkpt lat="64.08081055" lon="-20.01765633"><ele>178.1</ele><time>2012-07-20T20:12:44.0000000+00:00</time></trkpt><trkpt lat="64.08081055" lon="-20.01765633"><ele>178.1</ele><time>2012-07-20T20:12:49.0000000+00:00</time></trkpt><trkpt lat="64.08081055" lon="-20.01765823"><ele>178.0</ele><time>2012-07-20T20:12:54.0000000+00:00</time></trkpt><trkpt lat="64.08081055" lon="-20.01765823"><ele>178.0</ele><time>2012-07-20T20:12:59.0000000+00:00</time></trkpt><trkpt lat="64.08081055" lon="-20.01765823"><ele>178.0</ele><time>2012-07-20T20:13:04.0000000+00:00</time></trkpt><trkpt lat="64.08081055" lon="-20.01765823"><ele>178.0</ele><time>2012-07-20T20:13:09.0000000+00:00</time></trkpt><trkpt lat="64.08081055" lon="-20.01766014"><ele>178.0</ele><time>2012-07-20T20:13:14.0000000+00:00</time></trkpt><trkpt lat="64.08081055" lon="-20.01766014"><ele>178.0</ele><time>2012-07-20T20:13:19.0000000+00:00</time></trkpt><trkpt lat="64.08081055" lon="-20.01766014"><ele>178.0</ele><time>2012-07-20T20:13:24.0000000+00:00</time></trkpt><trkpt lat="64.08081055" lon="-20.01766014"><ele>177.9</ele><time>2012-07-20T20:13:29.0000000+00:00</time></trkpt><trkpt lat="64.08081055" lon="-20.01766014"><ele>177.9</ele><time>2012-07-20T20:13:34.0000000+00:00</time></trkpt><trkpt lat="64.08081055" lon="-20.01766014"><ele>177.9</ele><time>2012-07-20T20:13:39.0000000+00:00</time></trkpt><trkpt lat="64.08081055" lon="-20.01766014"><ele>177.8</ele><time>2012-07-20T20:13:44.0000000+00:00</time></trkpt><trkpt lat="64.08081055" lon="-20.01766014"><ele>177.8</ele><time>2012-07-20T20:13:49.0000000+00:00</time></trkpt><trkpt lat="64.08081055" lon="-20.01766014"><ele>177.8</ele><time>2012-07-20T20:13:54.0000000+00:00</time></trkpt><trkpt lat="64.08081055" lon="-20.01766014"><ele>177.8</ele><time>2012-07-20T20:13:59.0000000+00:00</time></trkpt><trkpt lat="64.08081055" lon="-20.01765823"><ele>177.8</ele><time>2012-07-20T20:14:04.0000000+00:00</time></trkpt><trkpt lat="64.08081055" lon="-20.01765823"><ele>177.7</ele><time>2012-07-20T20:14:09.0000000+00:00</time></trkpt><trkpt lat="64.08081055" lon="-20.01765823"><ele>177.8</ele><time>2012-07-20T20:14:14.0000000+00:00</time></trkpt><trkpt lat="64.08081055" lon="-20.01765823"><ele>177.7</ele><time>2012-07-20T20:14:19.0000000+00:00</time></trkpt><trkpt lat="64.08081055" lon="-20.01765823"><ele>177.7</ele><time>2012-07-20T20:14:24.0000000+00:00</time></trkpt><trkpt lat="64.08081055" lon="-20.01765823"><ele>177.7</ele><time>2012-07-20T20:14:29.0000000+00:00</time></trkpt><trkpt lat="64.08081055" lon="-20.01765823"><ele>177.7</ele><time>2012-07-20T20:14:34.0000000+00:00</time></trkpt><trkpt lat="64.08081055" lon="-20.01765633"><ele>177.6</ele><time>2012-07-20T20:14:39.0000000+00:00</time></trkpt><trkpt lat="64.08081055" lon="-20.01765633"><ele>177.6</ele><time>2012-07-20T20:14:44.0000000+00:00</time></trkpt><trkpt lat="64.08081055" lon="-20.01765633"><ele>177.6</ele><time>2012-07-20T20:14:49.0000000+00:00</time></trkpt><trkpt lat="64.08081055" lon="-20.01765633"><ele>177.6</ele><time>2012-07-20T20:14:54.0000000+00:00</time></trkpt><trkpt lat="64.08081055" lon="-20.01765633"><ele>177.5</ele><time>2012-07-20T20:14:59.0000000+00:00</time></trkpt><trkpt lat="64.08081055" lon="-20.01765633"><ele>177.5</ele><time>2012-07-20T20:15:04.0000000+00:00</time></trkpt><trkpt lat="64.08081055" lon="-20.01765633"><ele>177.5</ele><time>2012-07-20T20:15:09.0000000+00:00</time></trkpt><trkpt lat="64.08081055" lon="-20.01765633"><ele>177.5</ele><time>2012-07-20T20:15:14.0000000+00:00</time></trkpt><trkpt lat="64.08081055" lon="-20.01765442"><ele>177.5</ele><time>2012-07-20T20:15:19.0000000+00:00</time></trkpt><trkpt lat="64.08081055" lon="-20.01765442"><ele>177.5</ele><time>2012-07-20T20:15:24.0000000+00:00</time></trkpt><trkpt lat="64.08081055" lon="-20.01765442"><ele>177.5</ele><time>2012-07-20T20:15:29.0000000+00:00</time></trkpt><trkpt lat="64.08081055" lon="-20.01764679"><ele>177.4</ele><time>2012-07-20T20:15:34.0000000+00:00</time></trkpt><trkpt lat="64.08082581" lon="-20.01766205"><ele>176.2</ele><time>2012-07-20T20:15:39.0000000+00:00</time></trkpt><trkpt lat="64.08084869" lon="-20.01775551"><ele>175.4</ele><time>2012-07-20T20:15:44.0000000+00:00</time></trkpt><trkpt lat="64.08094788" lon="-20.01778221"><ele>175.8</ele><time>2012-07-20T20:15:49.0000000+00:00</time></trkpt><trkpt lat="64.08106995" lon="-20.01769257"><ele>175.5</ele><time>2012-07-20T20:15:54.0000000+00:00</time></trkpt><trkpt lat="64.08119202" lon="-20.01759529"><ele>175.9</ele><time>2012-07-20T20:15:59.0000000+00:00</time></trkpt><trkpt lat="64.08132172" lon="-20.01739311"><ele>175.3</ele><time>2012-07-20T20:16:04.0000000+00:00</time></trkpt><trkpt lat="64.08143616" lon="-20.01711655"><ele>174.4</ele><time>2012-07-20T20:16:09.0000000+00:00</time></trkpt><trkpt lat="64.08155823" lon="-20.01682854"><ele>173.9</ele><time>2012-07-20T20:16:14.0000000+00:00</time></trkpt><trkpt lat="64.08166504" lon="-20.01657105"><ele>173.2</ele><time>2012-07-20T20:16:19.0000000+00:00</time></trkpt><trkpt lat="64.08177948" lon="-20.01633072"><ele>172.5</ele><time>2012-07-20T20:16:24.0000000+00:00</time></trkpt><trkpt lat="64.08192444" lon="-20.01602173"><ele>172.4</ele><time>2012-07-20T20:16:29.0000000+00:00</time></trkpt><trkpt lat="64.08208466" lon="-20.01571083"><ele>171.7</ele><time>2012-07-20T20:16:34.0000000+00:00</time></trkpt><trkpt lat="64.08222961" lon="-20.01541138"><ele>170.7</ele><time>2012-07-20T20:16:39.0000000+00:00</time></trkpt><trkpt lat="64.0823822" lon="-20.01512909"><ele>169.3</ele><time>2012-07-20T20:16:44.0000000+00:00</time></trkpt><trkpt lat="64.08255768" lon="-20.01480484"><ele>170.0</ele><time>2012-07-20T20:16:49.0000000+00:00</time></trkpt><trkpt lat="64.08276367" lon="-20.01440239"><ele>168.1</ele><time>2012-07-20T20:16:54.0000000+00:00</time></trkpt><trkpt lat="64.08298492" lon="-20.01394081"><ele>165.6</ele><time>2012-07-20T20:16:59.0000000+00:00</time></trkpt><trkpt lat="64.08324432" lon="-20.01343346"><ele>158.3</ele><time>2012-07-20T20:17:04.0000000+00:00</time></trkpt><trkpt lat="64.08353424" lon="-20.01286507"><ele>152.9</ele><time>2012-07-20T20:17:09.0000000+00:00</time></trkpt><trkpt lat="64.08382416" lon="-20.01218605"><ele>148.9</ele><time>2012-07-20T20:17:14.0000000+00:00</time></trkpt><trkpt lat="64.08403015" lon="-20.01159859"><ele>146.4</ele><time>2012-07-20T20:17:19.0000000+00:00</time></trkpt><trkpt lat="64.08422852" lon="-20.01102638"><ele>143.0</ele><time>2012-07-20T20:17:24.0000000+00:00</time></trkpt><trkpt lat="64.08447266" lon="-20.01047134"><ele>138.1</ele><time>2012-07-20T20:17:29.0000000+00:00</time></trkpt><trkpt lat="64.08479309" lon="-20.00998306"><ele>132.8</ele><time>2012-07-20T20:17:34.0000000+00:00</time></trkpt><trkpt lat="64.08511353" lon="-20.00967979"><ele>129.9</ele><time>2012-07-20T20:17:39.0000000+00:00</time></trkpt><trkpt lat="64.08528137" lon="-20.00931549"><ele>132.4</ele><time>2012-07-20T20:17:44.0000000+00:00</time></trkpt><trkpt lat="64.08526611" lon="-20.00864029"><ele>130.7</ele><time>2012-07-20T20:17:49.0000000+00:00</time></trkpt><trkpt lat="64.08527374" lon="-20.00810814"><ele>132.0</ele><time>2012-07-20T20:17:54.0000000+00:00</time></trkpt><trkpt lat="64.08540344" lon="-20.00788117"><ele>130.5</ele><time>2012-07-20T20:17:59.0000000+00:00</time></trkpt><trkpt lat="64.08556366" lon="-20.00774956"><ele>129.1</ele><time>2012-07-20T20:18:04.0000000+00:00</time></trkpt><trkpt lat="64.08573151" lon="-20.00758171"><ele>130.4</ele><time>2012-07-20T20:18:09.0000000+00:00</time></trkpt><trkpt lat="64.08588409" lon="-20.00741577"><ele>130.6</ele><time>2012-07-20T20:18:14.0000000+00:00</time></trkpt><trkpt lat="64.08608246" lon="-20.00723648"><ele>131.9</ele><time>2012-07-20T20:18:19.0000000+00:00</time></trkpt><trkpt lat="64.08627319" lon="-20.00704384"><ele>132.1</ele><time>2012-07-20T20:18:24.0000000+00:00</time></trkpt><trkpt lat="64.08642578" lon="-20.00687599"><ele>129.4</ele><time>2012-07-20T20:18:29.0000000+00:00</time></trkpt><trkpt lat="64.08660126" lon="-20.00666046"><ele>128.0</ele><time>2012-07-20T20:18:34.0000000+00:00</time></trkpt><trkpt lat="64.08676148" lon="-20.00647736"><ele>128.5</ele><time>2012-07-20T20:18:39.0000000+00:00</time></trkpt><trkpt lat="64.08692169" lon="-20.00627708"><ele>128.9</ele><time>2012-07-20T20:18:44.0000000+00:00</time></trkpt><trkpt lat="64.08709717" lon="-20.00601959"><ele>127.3</ele><time>2012-07-20T20:18:49.0000000+00:00</time></trkpt><trkpt lat="64.08728027" lon="-20.00579453"><ele>127.4</ele><time>2012-07-20T20:18:54.0000000+00:00</time></trkpt><trkpt lat="64.08746338" lon="-20.00551224"><ele>127.2</ele><time>2012-07-20T20:18:59.0000000+00:00</time></trkpt><trkpt lat="64.08766937" lon="-20.00520325"><ele>125.3</ele><time>2012-07-20T20:19:04.0000000+00:00</time></trkpt><trkpt lat="64.08786011" lon="-20.00492668"><ele>125.0</ele><time>2012-07-20T20:19:09.0000000+00:00</time></trkpt><trkpt lat="64.08805847" lon="-20.00462341"><ele>125.1</ele><time>2012-07-20T20:19:14.0000000+00:00</time></trkpt><trkpt lat="64.08824158" lon="-20.00430679"><ele>125.5</ele><time>2012-07-20T20:19:19.0000000+00:00</time></trkpt><trkpt lat="64.08840942" lon="-20.00396919"><ele>124.3</ele><time>2012-07-20T20:19:24.0000000+00:00</time></trkpt><trkpt lat="64.08856201" lon="-20.00367165"><ele>124.0</ele><time>2012-07-20T20:19:29.0000000+00:00</time></trkpt><trkpt lat="64.08872986" lon="-20.00332451"><ele>123.3</ele><time>2012-07-20T20:19:34.0000000+00:00</time></trkpt><trkpt lat="64.08890533" lon="-20.00296402"><ele>122.1</ele><time>2012-07-20T20:19:39.0000000+00:00</time></trkpt><trkpt lat="64.08908844" lon="-20.0025959"><ele>121.2</ele><time>2012-07-20T20:19:44.0000000+00:00</time></trkpt><trkpt lat="64.08927155" lon="-20.00219345"><ele>121.2</ele><time>2012-07-20T20:19:49.0000000+00:00</time></trkpt><trkpt lat="64.08944702" lon="-20.00184441"><ele>125.5</ele><time>2012-07-20T20:19:54.0000000+00:00</time></trkpt><trkpt lat="64.08961487" lon="-20.00141335"><ele>126.9</ele><time>2012-07-20T20:19:59.0000000+00:00</time></trkpt><trkpt lat="64.08979034" lon="-20.00098038"><ele>127.1</ele><time>2012-07-20T20:20:04.0000000+00:00</time></trkpt><trkpt lat="64.08995056" lon="-20.00053024"><ele>125.7</ele><time>2012-07-20T20:20:09.0000000+00:00</time></trkpt><trkpt lat="64.09011841" lon="-20.00009918"><ele>125.0</ele><time>2012-07-20T20:20:14.0000000+00:00</time></trkpt><trkpt lat="64.09028626" lon="-19.99964523"><ele>125.7</ele><time>2012-07-20T20:20:19.0000000+00:00</time></trkpt><trkpt lat="64.09046173" lon="-19.9991436"><ele>126.0</ele><time>2012-07-20T20:20:24.0000000+00:00</time></trkpt><trkpt lat="64.09062195" lon="-19.99865341"><ele>126.7</ele><time>2012-07-20T20:20:29.0000000+00:00</time></trkpt><trkpt lat="64.0907898" lon="-19.9981823"><ele>127.3</ele><time>2012-07-20T20:20:34.0000000+00:00</time></trkpt><trkpt lat="64.09096527" lon="-19.99772072"><ele>129.5</ele><time>2012-07-20T20:20:39.0000000+00:00</time></trkpt><trkpt lat="64.09112549" lon="-19.99722481"><ele>130.6</ele><time>2012-07-20T20:20:44.0000000+00:00</time></trkpt><trkpt lat="64.09126282" lon="-19.99677658"><ele>131.5</ele><time>2012-07-20T20:20:49.0000000+00:00</time></trkpt><trkpt lat="64.09140015" lon="-19.99638939"><ele>131.1</ele><time>2012-07-20T20:20:54.0000000+00:00</time></trkpt><trkpt lat="64.09153748" lon="-19.99599457"><ele>133.0</ele><time>2012-07-20T20:20:59.0000000+00:00</time></trkpt><trkpt lat="64.09167481" lon="-19.99557686"><ele>134.7</ele><time>2012-07-20T20:21:04.0000000+00:00</time></trkpt><trkpt lat="64.09183502" lon="-19.99516106"><ele>134.6</ele><time>2012-07-20T20:21:09.0000000+00:00</time></trkpt><trkpt lat="64.09197235" lon="-19.99473572"><ele>134.3</ele><time>2012-07-20T20:21:14.0000000+00:00</time></trkpt><trkpt lat="64.09212494" lon="-19.99429321"><ele>134.9</ele><time>2012-07-20T20:21:19.0000000+00:00</time></trkpt><trkpt lat="64.09228516" lon="-19.99385071"><ele>135.1</ele><time>2012-07-20T20:21:24.0000000+00:00</time></trkpt><trkpt lat="64.09244537" lon="-19.99339104"><ele>135.5</ele><time>2012-07-20T20:21:29.0000000+00:00</time></trkpt><trkpt lat="64.09262085" lon="-19.99292564"><ele>135.1</ele><time>2012-07-20T20:21:34.0000000+00:00</time></trkpt><trkpt lat="64.0927887" lon="-19.99249077"><ele>135.1</ele><time>2012-07-20T20:21:39.0000000+00:00</time></trkpt><trkpt lat="64.09296417" lon="-19.99208641"><ele>134.6</ele><time>2012-07-20T20:21:44.0000000+00:00</time></trkpt><trkpt lat="64.09312439" lon="-19.9917202"><ele>134.6</ele><time>2012-07-20T20:21:49.0000000+00:00</time></trkpt><trkpt lat="64.09326172" lon="-19.99143028"><ele>134.4</ele><time>2012-07-20T20:21:54.0000000+00:00</time></trkpt><trkpt lat="64.09338379" lon="-19.99115562"><ele>134.6</ele><time>2012-07-20T20:21:59.0000000+00:00</time></trkpt><trkpt lat="64.09352875" lon="-19.99086189"><ele>135.5</ele><time>2012-07-20T20:22:04.0000000+00:00</time></trkpt><trkpt lat="64.09368897" lon="-19.99054527"><ele>135.2</ele><time>2012-07-20T20:22:09.0000000+00:00</time></trkpt><trkpt lat="64.09385681" lon="-19.99022102"><ele>135.5</ele><time>2012-07-20T20:22:14.0000000+00:00</time></trkpt><trkpt lat="64.09402466" lon="-19.98990631"><ele>135.6</ele><time>2012-07-20T20:22:19.0000000+00:00</time></trkpt><trkpt lat="64.09420013" lon="-19.98962784"><ele>136.1</ele><time>2012-07-20T20:22:24.0000000+00:00</time></trkpt><trkpt lat="64.09436035" lon="-19.98937988"><ele>136.9</ele><time>2012-07-20T20:22:29.0000000+00:00</time></trkpt><trkpt lat="64.09451294" lon="-19.98913956"><ele>136.6</ele><time>2012-07-20T20:22:34.0000000+00:00</time></trkpt><trkpt lat="64.09466553" lon="-19.98889351"><ele>136.5</ele><time>2012-07-20T20:22:39.0000000+00:00</time></trkpt><trkpt lat="64.09477997" lon="-19.98868179"><ele>136.1</ele><time>2012-07-20T20:22:44.0000000+00:00</time></trkpt><trkpt lat="64.09492493" lon="-19.98845863"><ele>136.7</ele><time>2012-07-20T20:22:49.0000000+00:00</time></trkpt><trkpt lat="64.09506226" lon="-19.98825836"><ele>141.0</ele><time>2012-07-20T20:22:54.0000000+00:00</time></trkpt><trkpt lat="64.09514618" lon="-19.98814392"><ele>140.9</ele><time>2012-07-20T20:22:59.0000000+00:00</time></trkpt><trkpt lat="64.09519959" lon="-19.98805237"><ele>141.5</ele><time>2012-07-20T20:23:04.0000000+00:00</time></trkpt><trkpt lat="64.09527588" lon="-19.98789406"><ele>142.7</ele><time>2012-07-20T20:23:09.0000000+00:00</time></trkpt><trkpt lat="64.09534454" lon="-19.98772812"><ele>141.2</ele><time>2012-07-20T20:23:14.0000000+00:00</time></trkpt><trkpt lat="64.0954361" lon="-19.9875679"><ele>139.4</ele><time>2012-07-20T20:23:19.0000000+00:00</time></trkpt><trkpt lat="64.09555817" lon="-19.98733521"><ele>138.7</ele><time>2012-07-20T20:23:24.0000000+00:00</time></trkpt><trkpt lat="64.09568024" lon="-19.98709297"><ele>138.7</ele><time>2012-07-20T20:23:29.0000000+00:00</time></trkpt><trkpt lat="64.09578705" lon="-19.98686409"><ele>137.6</ele><time>2012-07-20T20:23:34.0000000+00:00</time></trkpt><trkpt lat="64.09592438" lon="-19.98655319"><ele>136.8</ele><time>2012-07-20T20:23:39.0000000+00:00</time></trkpt><trkpt lat="64.09606171" lon="-19.98626137"><ele>137.3</ele><time>2012-07-20T20:23:44.0000000+00:00</time></trkpt><trkpt lat="64.09619904" lon="-19.98595429"><ele>137.0</ele><time>2012-07-20T20:23:49.0000000+00:00</time></trkpt><trkpt lat="64.09634399" lon="-19.98560906"><ele>137.7</ele><time>2012-07-20T20:23:54.0000000+00:00</time></trkpt><trkpt lat="64.09647369" lon="-19.98526001"><ele>137.0</ele><time>2012-07-20T20:23:59.0000000+00:00</time></trkpt><trkpt lat="64.09659576" lon="-19.9848938"><ele>137.1</ele><time>2012-07-20T20:24:04.0000000+00:00</time></trkpt><trkpt lat="64.09672546" lon="-19.98449516"><ele>137.3</ele><time>2012-07-20T20:24:09.0000000+00:00</time></trkpt><trkpt lat="64.09686279" lon="-19.98407936"><ele>136.2</ele><time>2012-07-20T20:24:14.0000000+00:00</time></trkpt><trkpt lat="64.09700012" lon="-19.98365784"><ele>135.5</ele><time>2012-07-20T20:24:19.0000000+00:00</time></trkpt><trkpt lat="64.09712982" lon="-19.98319054"><ele>135.3</ele><time>2012-07-20T20:24:24.0000000+00:00</time></trkpt><trkpt lat="64.09728241" lon="-19.98266792"><ele>134.5</ele><time>2012-07-20T20:24:29.0000000+00:00</time></trkpt><trkpt lat="64.09741211" lon="-19.98218155"><ele>134.4</ele><time>2012-07-20T20:24:34.0000000+00:00</time></trkpt><trkpt lat="64.09757233" lon="-19.98164368"><ele>134.2</ele><time>2012-07-20T20:24:39.0000000+00:00</time></trkpt><trkpt lat="64.09773254" lon="-19.98106575"><ele>134.7</ele><time>2012-07-20T20:24:44.0000000+00:00</time></trkpt><trkpt lat="64.0978775" lon="-19.98053932"><ele>134.5</ele><time>2012-07-20T20:24:49.0000000+00:00</time></trkpt><trkpt lat="64.09803772" lon="-19.97999001"><ele>134.0</ele><time>2012-07-20T20:24:54.0000000+00:00</time></trkpt><trkpt lat="64.09817505" lon="-19.97944069"><ele>134.1</ele><time>2012-07-20T20:24:59.0000000+00:00</time></trkpt><trkpt lat="64.09832764" lon="-19.97891045"><ele>133.6</ele><time>2012-07-20T20:25:04.0000000+00:00</time></trkpt><trkpt lat="64.09848785" lon="-19.97838783"><ele>132.5</ele><time>2012-07-20T20:25:09.0000000+00:00</time></trkpt><trkpt lat="64.09863281" lon="-19.97786331"><ele>133.0</ele><time>2012-07-20T20:25:14.0000000+00:00</time></trkpt><trkpt lat="64.09877014" lon="-19.97734642"><ele>132.9</ele><time>2012-07-20T20:25:19.0000000+00:00</time></trkpt><trkpt lat="64.09892273" lon="-19.97683144"><ele>132.8</ele><time>2012-07-20T20:25:24.0000000+00:00</time></trkpt><trkpt lat="64.09906769" lon="-19.97632599"><ele>132.9</ele><time>2012-07-20T20:25:29.0000000+00:00</time></trkpt><trkpt lat="64.09920502" lon="-19.97578239"><ele>132.6</ele><time>2012-07-20T20:25:34.0000000+00:00</time></trkpt><trkpt lat="64.09932709" lon="-19.9752636"><ele>132.8</ele><time>2012-07-20T20:25:39.0000000+00:00</time></trkpt><trkpt lat="64.09944916" lon="-19.97469521"><ele>133.2</ele><time>2012-07-20T20:25:44.0000000+00:00</time></trkpt><trkpt lat="64.0995636" lon="-19.97405815"><ele>132.6</ele><time>2012-07-20T20:25:49.0000000+00:00</time></trkpt><trkpt lat="64.09965515" lon="-19.97347832"><ele>132.3</ele><time>2012-07-20T20:25:54.0000000+00:00</time></trkpt><trkpt lat="64.09973145" lon="-19.97289467"><ele>132.2</ele><time>2012-07-20T20:25:59.0000000+00:00</time></trkpt><trkpt lat="64.09980011" lon="-19.97233391"><ele>131.3</ele><time>2012-07-20T20:26:04.0000000+00:00</time></trkpt><trkpt lat="64.09985352" lon="-19.97179413"><ele>131.3</ele><time>2012-07-20T20:26:09.0000000+00:00</time></trkpt><trkpt lat="64.09989929" lon="-19.97117806"><ele>131.4</ele><time>2012-07-20T20:26:14.0000000+00:00</time></trkpt><trkpt lat="64.09992981" lon="-19.97061539"><ele>131.7</ele><time>2012-07-20T20:26:19.0000000+00:00</time></trkpt><trkpt lat="64.0999527" lon="-19.97001648"><ele>130.8</ele><time>2012-07-20T20:26:24.0000000+00:00</time></trkpt><trkpt lat="64.09996796" lon="-19.96940994"><ele>129.4</ele><time>2012-07-20T20:26:29.0000000+00:00</time></trkpt><trkpt lat="64.09997559" lon="-19.96886063"><ele>128.5</ele><time>2012-07-20T20:26:34.0000000+00:00</time></trkpt><trkpt lat="64.09998322" lon="-19.96830177"><ele>121.0</ele><time>2012-07-20T20:26:39.0000000+00:00</time></trkpt><trkpt lat="64.09998322" lon="-19.96772385"><ele>117.7</ele><time>2012-07-20T20:26:44.0000000+00:00</time></trkpt><trkpt lat="64.09997559" lon="-19.96722603"><ele>116.8</ele><time>2012-07-20T20:26:49.0000000+00:00</time></trkpt><trkpt lat="64.09996796" lon="-19.96685219"><ele>122.5</ele><time>2012-07-20T20:26:54.0000000+00:00</time></trkpt><trkpt lat="64.09996796" lon="-19.96647453"><ele>126.3</ele><time>2012-07-20T20:26:59.0000000+00:00</time></trkpt><trkpt lat="64.09996796" lon="-19.96611786"><ele>127.8</ele><time>2012-07-20T20:27:04.0000000+00:00</time></trkpt><trkpt lat="64.09996796" lon="-19.96589851"><ele>130.1</ele><time>2012-07-20T20:27:09.0000000+00:00</time></trkpt><trkpt lat="64.09997559" lon="-19.96559906"><ele>131.5</ele><time>2012-07-20T20:27:14.0000000+00:00</time></trkpt><trkpt lat="64.09998322" lon="-19.96531868"><ele>132.5</ele><time>2012-07-20T20:27:19.0000000+00:00</time></trkpt><trkpt lat="64.09999085" lon="-19.96499062"><ele>133.9</ele><time>2012-07-20T20:27:24.0000000+00:00</time></trkpt><trkpt lat="64.1000061" lon="-19.96460533"><ele>135.4</ele><time>2012-07-20T20:27:29.0000000+00:00</time></trkpt><trkpt lat="64.10002136" lon="-19.96424294"><ele>136.3</ele><time>2012-07-20T20:27:34.0000000+00:00</time></trkpt><trkpt lat="64.10003662" lon="-19.96384049"><ele>139.8</ele><time>2012-07-20T20:27:39.0000000+00:00</time></trkpt><trkpt lat="64.10004425" lon="-19.96356392"><ele>140.1</ele><time>2012-07-20T20:27:44.0000000+00:00</time></trkpt><trkpt lat="64.10005951" lon="-19.96330833"><ele>139.2</ele><time>2012-07-20T20:27:49.0000000+00:00</time></trkpt><trkpt lat="64.10007477" lon="-19.96297455"><ele>139.6</ele><time>2012-07-20T20:27:54.0000000+00:00</time></trkpt><trkpt lat="64.10009003" lon="-19.96261787"><ele>141.6</ele><time>2012-07-20T20:27:59.0000000+00:00</time></trkpt><trkpt lat="64.10012054" lon="-19.96224976"><ele>139.6</ele><time>2012-07-20T20:28:04.0000000+00:00</time></trkpt><trkpt lat="64.10015869" lon="-19.96185494"><ele>139.9</ele><time>2012-07-20T20:28:09.0000000+00:00</time></trkpt><trkpt lat="64.10020447" lon="-19.96146202"><ele>139.4</ele><time>2012-07-20T20:28:14.0000000+00:00</time></trkpt><trkpt lat="64.10025787" lon="-19.96103478"><ele>138.3</ele><time>2012-07-20T20:28:19.0000000+00:00</time></trkpt><trkpt lat="64.10031891" lon="-19.96060944"><ele>141.3</ele><time>2012-07-20T20:28:24.0000000+00:00</time></trkpt><trkpt lat="64.10038757" lon="-19.96021843"><ele>141.3</ele><time>2012-07-20T20:28:29.0000000+00:00</time></trkpt><trkpt lat="64.10044861" lon="-19.95978546"><ele>142.5</ele><time>2012-07-20T20:28:34.0000000+00:00</time></trkpt><trkpt lat="64.1005249" lon="-19.95938683"><ele>144.2</ele><time>2012-07-20T20:28:39.0000000+00:00</time></trkpt><trkpt lat="64.10058594" lon="-19.95900536"><ele>145.1</ele><time>2012-07-20T20:28:44.0000000+00:00</time></trkpt><trkpt lat="64.10066986" lon="-19.95858002"><ele>144.2</ele><time>2012-07-20T20:28:49.0000000+00:00</time></trkpt><trkpt lat="64.10076141" lon="-19.95815849"><ele>142.2</ele><time>2012-07-20T20:28:54.0000000+00:00</time></trkpt><trkpt lat="64.10086823" lon="-19.95772362"><ele>141.3</ele><time>2012-07-20T20:28:59.0000000+00:00</time></trkpt><trkpt lat="64.10098267" lon="-19.95726395"><ele>142.3</ele><time>2012-07-20T20:29:04.0000000+00:00</time></trkpt><trkpt lat="64.10111237" lon="-19.95678902"><ele>142.9</ele><time>2012-07-20T20:29:09.0000000+00:00</time></trkpt><trkpt lat="64.10124207" lon="-19.95635796"><ele>142.8</ele><time>2012-07-20T20:29:14.0000000+00:00</time></trkpt><trkpt lat="64.1013794" lon="-19.95596504"><ele>143.6</ele><time>2012-07-20T20:29:19.0000000+00:00</time></trkpt><trkpt lat="64.10149384" lon="-19.95559883"><ele>143.8</ele><time>2012-07-20T20:29:24.0000000+00:00</time></trkpt><trkpt lat="64.10163117" lon="-19.95521545"><ele>144.7</ele><time>2012-07-20T20:29:29.0000000+00:00</time></trkpt><trkpt lat="64.10179138" lon="-19.95479965"><ele>145.6</ele><time>2012-07-20T20:29:34.0000000+00:00</time></trkpt><trkpt lat="64.10193634" lon="-19.95438767"><ele>146.4</ele><time>2012-07-20T20:29:39.0000000+00:00</time></trkpt><trkpt lat="64.10208893" lon="-19.95402145"><ele>146.6</ele><time>2012-07-20T20:29:44.0000000+00:00</time></trkpt><trkpt lat="64.10222626" lon="-19.95365906"><ele>146.8</ele><time>2012-07-20T20:29:49.0000000+00:00</time></trkpt><trkpt lat="64.10237885" lon="-19.95331001"><ele>146.9</ele><time>2012-07-20T20:29:54.0000000+00:00</time></trkpt><trkpt lat="64.1025238" lon="-19.95294571"><ele>147.1</ele><time>2012-07-20T20:29:59.0000000+00:00</time></trkpt><trkpt lat="64.10268402" lon="-19.95253372"><ele>147.2</ele><time>2012-07-20T20:30:04.0000000+00:00</time></trkpt><trkpt lat="64.10283661" lon="-19.95215988"><ele>147.1</ele><time>2012-07-20T20:30:09.0000000+00:00</time></trkpt><trkpt lat="64.10296631" lon="-19.95183754"><ele>147.0</ele><time>2012-07-20T20:30:14.0000000+00:00</time></trkpt><trkpt lat="64.10310364" lon="-19.95152473"><ele>146.9</ele><time>2012-07-20T20:30:19.0000000+00:00</time></trkpt><trkpt lat="64.10323334" lon="-19.95133972"><ele>147.1</ele><time>2012-07-20T20:30:24.0000000+00:00</time></trkpt><trkpt lat="64.10334778" lon="-19.95136833"><ele>147.2</ele><time>2012-07-20T20:30:29.0000000+00:00</time></trkpt><trkpt lat="64.10346985" lon="-19.95153427"><ele>145.7</ele><time>2012-07-20T20:30:34.0000000+00:00</time></trkpt><trkpt lat="64.10359192" lon="-19.95171356"><ele>145.8</ele><time>2012-07-20T20:30:39.0000000+00:00</time></trkpt><trkpt lat="64.10372925" lon="-19.95191383"><ele>145.6</ele><time>2012-07-20T20:30:44.0000000+00:00</time></trkpt><trkpt lat="64.10385895" lon="-19.95209312"><ele>145.3</ele><time>2012-07-20T20:30:49.0000000+00:00</time></trkpt><trkpt lat="64.10398102" lon="-19.95224381"><ele>146.1</ele><time>2012-07-20T20:30:54.0000000+00:00</time></trkpt><trkpt lat="64.10404205" lon="-19.9523468"><ele>146.9</ele><time>2012-07-20T20:30:59.0000000+00:00</time></trkpt><trkpt lat="64.10414124" lon="-19.95247269"><ele>148.9</ele><time>2012-07-20T20:31:04.0000000+00:00</time></trkpt><trkpt lat="64.1042099" lon="-19.9525795"><ele>148.1</ele><time>2012-07-20T20:31:09.0000000+00:00</time></trkpt><trkpt lat="64.10430908" lon="-19.9527359"><ele>147.2</ele><time>2012-07-20T20:31:14.0000000+00:00</time></trkpt><trkpt lat="64.10444641" lon="-19.95293617"><ele>146.2</ele><time>2012-07-20T20:31:19.0000000+00:00</time></trkpt><trkpt lat="64.10460663" lon="-19.9530983"><ele>145.7</ele><time>2012-07-20T20:31:24.0000000+00:00</time></trkpt><trkpt lat="64.10475922" lon="-19.95321846"><ele>146.3</ele><time>2012-07-20T20:31:29.0000000+00:00</time></trkpt><trkpt lat="64.10488129" lon="-19.95336723"><ele>145.6</ele><time>2012-07-20T20:31:34.0000000+00:00</time></trkpt><trkpt lat="64.10492706" lon="-19.95363045"><ele>146.1</ele><time>2012-07-20T20:31:39.0000000+00:00</time></trkpt><trkpt lat="64.1049118" lon="-19.9538765"><ele>146.2</ele><time>2012-07-20T20:31:44.0000000+00:00</time></trkpt><trkpt lat="64.10492706" lon="-19.95419884"><ele>145.6</ele><time>2012-07-20T20:31:49.0000000+00:00</time></trkpt><trkpt lat="64.10497284" lon="-19.95439911"><ele>144.3</ele><time>2012-07-20T20:31:54.0000000+00:00</time></trkpt><trkpt lat="64.10498047" lon="-19.9545002"><ele>144.3</ele><time>2012-07-20T20:31:59.0000000+00:00</time></trkpt><trkpt lat="64.10493469" lon="-19.95425034"><ele>144.9</ele><time>2012-07-20T20:32:04.0000000+00:00</time></trkpt><trkpt lat="64.10490418" lon="-19.95391083"><ele>145.3</ele><time>2012-07-20T20:32:09.0000000+00:00</time></trkpt><trkpt lat="64.10493469" lon="-19.95356178"><ele>144.5</ele><time>2012-07-20T20:32:14.0000000+00:00</time></trkpt><trkpt lat="64.10503388" lon="-19.95336914"><ele>145.1</ele><time>2012-07-20T20:32:19.0000000+00:00</time></trkpt><trkpt lat="64.10506439" lon="-19.95336533"><ele>145.9</ele><time>2012-07-20T20:32:24.0000000+00:00</time></trkpt><trkpt lat="64.10506439" lon="-19.9533577"><ele>146.1</ele><time>2012-07-20T20:32:29.0000000+00:00</time></trkpt><trkpt lat="64.10506439" lon="-19.9533577"><ele>146.2</ele><time>2012-07-20T20:32:34.0000000+00:00</time></trkpt><trkpt lat="64.10507202" lon="-19.9533596"><ele>146.2</ele><time>2012-07-20T20:32:39.0000000+00:00</time></trkpt><trkpt lat="64.10507202" lon="-19.9533596"><ele>146.2</ele><time>2012-07-20T20:32:44.0000000+00:00</time></trkpt><trkpt lat="64.10507202" lon="-19.9533596"><ele>146.3</ele><time>2012-07-20T20:32:49.0000000+00:00</time></trkpt><trkpt lat="64.10506439" lon="-19.95336151"><ele>146.3</ele><time>2012-07-20T20:32:54.0000000+00:00</time></trkpt><trkpt lat="64.10505676" lon="-19.9533596"><ele>146.3</ele><time>2012-07-20T20:32:59.0000000+00:00</time></trkpt><trkpt lat="64.10504913" lon="-19.9533577"><ele>146.3</ele><time>2012-07-20T20:33:04.0000000+00:00</time></trkpt><trkpt lat="64.1050415" lon="-19.9533577"><ele>146.3</ele><time>2012-07-20T20:33:09.0000000+00:00</time></trkpt><trkpt lat="64.10503388" lon="-19.95335197"><ele>146.3</ele><time>2012-07-20T20:33:14.0000000+00:00</time></trkpt><trkpt lat="64.10503388" lon="-19.95334625"><ele>146.4</ele><time>2012-07-20T20:33:19.0000000+00:00</time></trkpt><trkpt lat="64.10503388" lon="-19.95334625"><ele>146.4</ele><time>2012-07-20T20:33:24.0000000+00:00</time></trkpt><trkpt lat="64.10503388" lon="-19.95334625"><ele>146.4</ele><time>2012-07-20T20:33:29.0000000+00:00</time></trkpt><trkpt lat="64.10503388" lon="-19.95334625"><ele>146.4</ele><time>2012-07-20T20:33:34.0000000+00:00</time></trkpt><trkpt lat="64.10503388" lon="-19.95334625"><ele>146.4</ele><time>2012-07-20T20:33:39.0000000+00:00</time></trkpt><trkpt lat="64.10503388" lon="-19.95334625"><ele>146.4</ele><time>2012-07-20T20:33:44.0000000+00:00</time></trkpt><trkpt lat="64.10503388" lon="-19.95334625"><ele>146.4</ele><time>2012-07-20T20:33:49.0000000+00:00</time></trkpt><trkpt lat="64.10503388" lon="-19.95334625"><ele>146.5</ele><time>2012-07-20T20:33:54.0000000+00:00</time></trkpt><trkpt lat="64.10503388" lon="-19.95334625"><ele>146.5</ele><time>2012-07-20T20:33:59.0000000+00:00</time></trkpt><trkpt lat="64.10503388" lon="-19.95334625"><ele>146.5</ele><time>2012-07-20T20:34:04.0000000+00:00</time></trkpt><trkpt lat="64.10503388" lon="-19.95334625"><ele>146.5</ele><time>2012-07-20T20:34:09.0000000+00:00</time></trkpt><trkpt lat="64.10503388" lon="-19.95334625"><ele>146.5</ele><time>2012-07-20T20:34:14.0000000+00:00</time></trkpt><trkpt lat="64.10503388" lon="-19.95334625"><ele>146.5</ele><time>2012-07-20T20:34:19.0000000+00:00</time></trkpt><trkpt lat="64.10503388" lon="-19.95334625"><ele>146.5</ele><time>2012-07-20T20:34:24.0000000+00:00</time></trkpt><trkpt lat="64.10503388" lon="-19.95334625"><ele>146.5</ele><time>2012-07-20T20:34:29.0000000+00:00</time></trkpt><trkpt lat="64.10503388" lon="-19.95334816"><ele>146.5</ele><time>2012-07-20T20:34:34.0000000+00:00</time></trkpt><trkpt lat="64.10503388" lon="-19.95334816"><ele>146.5</ele><time>2012-07-20T20:34:39.0000000+00:00</time></trkpt><trkpt lat="64.10503388" lon="-19.95334816"><ele>146.6</ele><time>2012-07-20T20:34:44.0000000+00:00</time></trkpt><trkpt lat="64.10503388" lon="-19.95334816"><ele>146.6</ele><time>2012-07-20T20:34:49.0000000+00:00</time></trkpt><trkpt lat="64.10503388" lon="-19.95334816"><ele>146.6</ele><time>2012-07-20T20:34:54.0000000+00:00</time></trkpt><trkpt lat="64.10503388" lon="-19.95334816"><ele>146.6</ele><time>2012-07-20T20:34:59.0000000+00:00</time></trkpt><trkpt lat="64.10503388" lon="-19.95334816"><ele>146.6</ele><time>2012-07-20T20:35:04.0000000+00:00</time></trkpt><trkpt lat="64.10503388" lon="-19.95334816"><ele>146.6</ele><time>2012-07-20T20:35:09.0000000+00:00</time></trkpt><trkpt lat="64.10503388" lon="-19.95334816"><ele>146.6</ele><time>2012-07-20T20:35:14.0000000+00:00</time></trkpt><trkpt lat="64.10503388" lon="-19.95334816"><ele>146.6</ele><time>2012-07-20T20:35:19.0000000+00:00</time></trkpt><trkpt lat="64.10503388" lon="-19.95335007"><ele>146.6</ele><time>2012-07-20T20:35:24.0000000+00:00</time></trkpt><trkpt lat="64.10503388" lon="-19.95335007"><ele>146.6</ele><time>2012-07-20T20:35:29.0000000+00:00</time></trkpt><trkpt lat="64.10503388" lon="-19.95335007"><ele>146.6</ele><time>2012-07-20T20:35:34.0000000+00:00</time></trkpt><trkpt lat="64.10503388" lon="-19.95335007"><ele>146.6</ele><time>2012-07-20T20:35:39.0000000+00:00</time></trkpt><trkpt lat="64.10503388" lon="-19.95335007"><ele>146.6</ele><time>2012-07-20T20:35:44.0000000+00:00</time></trkpt><trkpt lat="64.10503388" lon="-19.95335007"><ele>146.6</ele><time>2012-07-20T20:35:49.0000000+00:00</time></trkpt><trkpt lat="64.10503388" lon="-19.95335007"><ele>146.6</ele><time>2012-07-20T20:35:54.0000000+00:00</time></trkpt><trkpt lat="64.10503388" lon="-19.95335197"><ele>146.6</ele><time>2012-07-20T20:35:59.0000000+00:00</time></trkpt><trkpt lat="64.10503388" lon="-19.95335197"><ele>146.6</ele><time>2012-07-20T20:36:04.0000000+00:00</time></trkpt><trkpt lat="64.10503388" lon="-19.95335197"><ele>146.6</ele><time>2012-07-20T20:36:09.0000000+00:00</time></trkpt><trkpt lat="64.10503388" lon="-19.95335197"><ele>146.6</ele><time>2012-07-20T20:36:14.0000000+00:00</time></trkpt><trkpt lat="64.10503388" lon="-19.95335197"><ele>146.6</ele><time>2012-07-20T20:36:19.0000000+00:00</time></trkpt><trkpt lat="64.10503388" lon="-19.95335197"><ele>146.6</ele><time>2012-07-20T20:36:24.0000000+00:00</time></trkpt><trkpt lat="64.10503388" lon="-19.95335197"><ele>146.6</ele><time>2012-07-20T20:36:29.0000000+00:00</time></trkpt><trkpt lat="64.10503388" lon="-19.95335197"><ele>146.7</ele><time>2012-07-20T20:36:34.0000000+00:00</time></trkpt><trkpt lat="64.10503388" lon="-19.95335197"><ele>146.7</ele><time>2012-07-20T20:36:39.0000000+00:00</time></trkpt><trkpt lat="64.10503388" lon="-19.95335197"><ele>146.7</ele><time>2012-07-20T20:36:44.0000000+00:00</time></trkpt><trkpt lat="64.10503388" lon="-19.95335388"><ele>146.8</ele><time>2012-07-20T20:36:49.0000000+00:00</time></trkpt><trkpt lat="64.10501099" lon="-19.95337105"><ele>146.8</ele><time>2012-07-20T20:36:54.0000000+00:00</time></trkpt><trkpt lat="64.10502625" lon="-19.95336533"><ele>146.8</ele><time>2012-07-20T20:36:59.0000000+00:00</time></trkpt><trkpt lat="64.10506439" lon="-19.95332909"><ele>147.3</ele><time>2012-07-20T20:37:04.0000000+00:00</time></trkpt><trkpt lat="64.10507965" lon="-19.95332909"><ele>148.6</ele><time>2012-07-20T20:37:09.0000000+00:00</time></trkpt><trkpt lat="64.10507965" lon="-19.95332336"><ele>147.9</ele><time>2012-07-20T20:37:14.0000000+00:00</time></trkpt><trkpt lat="64.1050415" lon="-19.95336723"><ele>147.8</ele><time>2012-07-20T20:37:19.0000000+00:00</time></trkpt><trkpt lat="64.10500336" lon="-19.95346451"><ele>147.6</ele><time>2012-07-20T20:37:24.0000000+00:00</time></trkpt><trkpt lat="64.10498047" lon="-19.95352364"><ele>147.3</ele><time>2012-07-20T20:37:29.0000000+00:00</time></trkpt><trkpt lat="64.10494995" lon="-19.95360565"><ele>146.8</ele><time>2012-07-20T20:37:34.0000000+00:00</time></trkpt><trkpt lat="64.10490418" lon="-19.95379067"><ele>146.8</ele><time>2012-07-20T20:37:39.0000000+00:00</time></trkpt><trkpt lat="64.10482788" lon="-19.95404053"><ele>146.9</ele><time>2012-07-20T20:37:44.0000000+00:00</time></trkpt><trkpt lat="64.10474396" lon="-19.95434189"><ele>146.1</ele><time>2012-07-20T20:37:49.0000000+00:00</time></trkpt><trkpt lat="64.10462189" lon="-19.95459175"><ele>142.3</ele><time>2012-07-20T20:37:54.0000000+00:00</time></trkpt><trkpt lat="64.10449982" lon="-19.95477295"><ele>141.3</ele><time>2012-07-20T20:37:59.0000000+00:00</time></trkpt><trkpt lat="64.10437012" lon="-19.95488167"><ele>141.1</ele><time>2012-07-20T20:38:04.0000000+00:00</time></trkpt><trkpt lat="64.10423279" lon="-19.95502091"><ele>141.4</ele><time>2012-07-20T20:38:09.0000000+00:00</time></trkpt><trkpt lat="64.10408783" lon="-19.95522499"><ele>143.2</ele><time>2012-07-20T20:38:14.0000000+00:00</time></trkpt><trkpt lat="64.1039505" lon="-19.95545197"><ele>145.5</ele><time>2012-07-20T20:38:19.0000000+00:00</time></trkpt><trkpt lat="64.10379791" lon="-19.95577812"><ele>144.0</ele><time>2012-07-20T20:38:24.0000000+00:00</time></trkpt><trkpt lat="64.10364533" lon="-19.95607185"><ele>142.3</ele><time>2012-07-20T20:38:29.0000000+00:00</time></trkpt><trkpt lat="64.10351563" lon="-19.95628929"><ele>143.4</ele><time>2012-07-20T20:38:34.0000000+00:00</time></trkpt><trkpt lat="64.10340118" lon="-19.95648384"><ele>142.3</ele><time>2012-07-20T20:38:39.0000000+00:00</time></trkpt><trkpt lat="64.10337067" lon="-19.95667267"><ele>143.0</ele><time>2012-07-20T20:38:44.0000000+00:00</time></trkpt><trkpt lat="64.1034317" lon="-19.95669556"><ele>143.0</ele><time>2012-07-20T20:38:49.0000000+00:00</time></trkpt><trkpt lat="64.10353088" lon="-19.95665741"><ele>143.4</ele><time>2012-07-20T20:38:54.0000000+00:00</time></trkpt><trkpt lat="64.10357666" lon="-19.95659638"><ele>142.7</ele><time>2012-07-20T20:38:59.0000000+00:00</time></trkpt><trkpt lat="64.1035614" lon="-19.95659447"><ele>143.2</ele><time>2012-07-20T20:39:04.0000000+00:00</time></trkpt><trkpt lat="64.10356903" lon="-19.9566288"><ele>143.2</ele><time>2012-07-20T20:39:09.0000000+00:00</time></trkpt><trkpt lat="64.10354614" lon="-19.95664597"><ele>143.4</ele><time>2012-07-20T20:39:14.0000000+00:00</time></trkpt><trkpt lat="64.10353088" lon="-19.9566288"><ele>144.3</ele><time>2012-07-20T20:39:19.0000000+00:00</time></trkpt><trkpt lat="64.10353088" lon="-19.95663261"><ele>144.7</ele><time>2012-07-20T20:39:24.0000000+00:00</time></trkpt><trkpt lat="64.10353088" lon="-19.95663261"><ele>144.7</ele><time>2012-07-20T20:39:29.0000000+00:00</time></trkpt><trkpt lat="64.10353088" lon="-19.95663452"><ele>144.7</ele><time>2012-07-20T20:39:34.0000000+00:00</time></trkpt><trkpt lat="64.10353088" lon="-19.95663452"><ele>144.7</ele><time>2012-07-20T20:39:39.0000000+00:00</time></trkpt><trkpt lat="64.10353088" lon="-19.95663452"><ele>144.7</ele><time>2012-07-20T20:39:44.0000000+00:00</time></trkpt><trkpt lat="64.10353088" lon="-19.95668793"><ele>144.6</ele><time>2012-07-20T20:39:49.0000000+00:00</time></trkpt><trkpt lat="64.10352325" lon="-19.95668984"><ele>145.6</ele><time>2012-07-20T20:39:54.0000000+00:00</time></trkpt><trkpt lat="64.10346222" lon="-19.95667458"><ele>146.6</ele><time>2012-07-20T20:39:59.0000000+00:00</time></trkpt><trkpt lat="64.10334778" lon="-19.95673561"><ele>147.5</ele><time>2012-07-20T20:40:04.0000000+00:00</time></trkpt><trkpt lat="64.10321808" lon="-19.95692062"><ele>147.9</ele><time>2012-07-20T20:40:09.0000000+00:00</time></trkpt><trkpt lat="64.10309601" lon="-19.95716095"><ele>146.8</ele><time>2012-07-20T20:40:14.0000000+00:00</time></trkpt><trkpt lat="64.10293579" lon="-19.95744324"><ele>144.4</ele><time>2012-07-20T20:40:19.0000000+00:00</time></trkpt><trkpt lat="64.10280609" lon="-19.95773697"><ele>145.6</ele><time>2012-07-20T20:40:24.0000000+00:00</time></trkpt><trkpt lat="64.10262299" lon="-19.95798111"><ele>145.3</ele><time>2012-07-20T20:40:29.0000000+00:00</time></trkpt><trkpt lat="64.10245514" lon="-19.95814896"><ele>143.8</ele><time>2012-07-20T20:40:34.0000000+00:00</time></trkpt><trkpt lat="64.10234833" lon="-19.95817947"><ele>144.2</ele><time>2012-07-20T20:40:39.0000000+00:00</time></trkpt><trkpt lat="64.10228729" lon="-19.9582901"><ele>144.0</ele><time>2012-07-20T20:40:44.0000000+00:00</time></trkpt><trkpt lat="64.10235596" lon="-19.9583168"><ele>144.2</ele><time>2012-07-20T20:40:49.0000000+00:00</time></trkpt><trkpt lat="64.1024704" lon="-19.95815086"><ele>144.8</ele><time>2012-07-20T20:40:54.0000000+00:00</time></trkpt><trkpt lat="64.10260773" lon="-19.95800591"><ele>146.0</ele><time>2012-07-20T20:40:59.0000000+00:00</time></trkpt><trkpt lat="64.10276032" lon="-19.95781136"><ele>147.0</ele><time>2012-07-20T20:41:04.0000000+00:00</time></trkpt><trkpt lat="64.10290527" lon="-19.95754242"><ele>147.4</ele><time>2012-07-20T20:41:09.0000000+00:00</time></trkpt><trkpt lat="64.1030426" lon="-19.95723152"><ele>149.3</ele><time>2012-07-20T20:41:14.0000000+00:00</time></trkpt><trkpt lat="64.10318756" lon="-19.9569397"><ele>150.5</ele><time>2012-07-20T20:41:19.0000000+00:00</time></trkpt><trkpt lat="64.10334015" lon="-19.95674706"><ele>152.6</ele><time>2012-07-20T20:41:24.0000000+00:00</time></trkpt><trkpt lat="64.10352325" lon="-19.95670509"><ele>148.9</ele><time>2012-07-20T20:41:29.0000000+00:00</time></trkpt><trkpt lat="64.10364533" lon="-19.95672989"><ele>148.6</ele><time>2012-07-20T20:41:34.0000000+00:00</time></trkpt><trkpt lat="64.10366821" lon="-19.95693779"><ele>146.4</ele><time>2012-07-20T20:41:39.0000000+00:00</time></trkpt><trkpt lat="64.10359955" lon="-19.9569664"><ele>147.5</ele><time>2012-07-20T20:41:44.0000000+00:00</time></trkpt><trkpt lat="64.10359955" lon="-19.9569664"><ele>147.2</ele><time>2012-07-20T20:41:49.0000000+00:00</time></trkpt><trkpt lat="64.10359955" lon="-19.95696449"><ele>147.2</ele><time>2012-07-20T20:41:54.0000000+00:00</time></trkpt><trkpt lat="64.10359955" lon="-19.95696449"><ele>147.2</ele><time>2012-07-20T20:41:59.0000000+00:00</time></trkpt><trkpt lat="64.10359955" lon="-19.95696449"><ele>147.1</ele><time>2012-07-20T20:42:04.0000000+00:00</time></trkpt><trkpt lat="64.10359955" lon="-19.95696449"><ele>147.1</ele><time>2012-07-20T20:42:09.0000000+00:00</time></trkpt><trkpt lat="64.10359955" lon="-19.95696259"><ele>147.1</ele><time>2012-07-20T20:42:14.0000000+00:00</time></trkpt><trkpt lat="64.10359955" lon="-19.95696259"><ele>147.0</ele><time>2012-07-20T20:42:19.0000000+00:00</time></trkpt><trkpt lat="64.10359955" lon="-19.95696449"><ele>146.8</ele><time>2012-07-20T20:42:24.0000000+00:00</time></trkpt><trkpt lat="64.10359955" lon="-19.95696449"><ele>146.8</ele><time>2012-07-20T20:42:29.0000000+00:00</time></trkpt><trkpt lat="64.10359955" lon="-19.95696449"><ele>146.8</ele><time>2012-07-20T20:42:34.0000000+00:00</time></trkpt><trkpt lat="64.10359955" lon="-19.95696449"><ele>146.7</ele><time>2012-07-20T20:42:39.0000000+00:00</time></trkpt><trkpt lat="64.10359955" lon="-19.95696259"><ele>146.7</ele><time>2012-07-20T20:42:44.0000000+00:00</time></trkpt><trkpt lat="64.10359955" lon="-19.95696259"><ele>146.7</ele><time>2012-07-20T20:42:49.0000000+00:00</time></trkpt><trkpt lat="64.10359955" lon="-19.95696259"><ele>146.7</ele><time>2012-07-20T20:42:54.0000000+00:00</time></trkpt><trkpt lat="64.10359955" lon="-19.95696259"><ele>146.7</ele><time>2012-07-20T20:42:59.0000000+00:00</time></trkpt><trkpt lat="64.10359955" lon="-19.95696259"><ele>146.6</ele><time>2012-07-20T20:43:04.0000000+00:00</time></trkpt><trkpt lat="64.10359955" lon="-19.95696259"><ele>146.6</ele><time>2012-07-20T20:43:09.0000000+00:00</time></trkpt><trkpt lat="64.10359955" lon="-19.95696259"><ele>146.6</ele><time>2012-07-20T20:43:14.0000000+00:00</time></trkpt><trkpt lat="64.10359955" lon="-19.95696259"><ele>146.6</ele><time>2012-07-20T20:43:19.0000000+00:00</time></trkpt><trkpt lat="64.10359955" lon="-19.95696259"><ele>146.6</ele><time>2012-07-20T20:43:24.0000000+00:00</time></trkpt><trkpt lat="64.10359955" lon="-19.95696259"><ele>146.6</ele><time>2012-07-20T20:43:29.0000000+00:00</time></trkpt><trkpt lat="64.10359955" lon="-19.95696259"><ele>146.6</ele><time>2012-07-20T20:43:34.0000000+00:00</time></trkpt><trkpt lat="64.10359955" lon="-19.95696259"><ele>146.6</ele><time>2012-07-20T20:43:39.0000000+00:00</time></trkpt><trkpt lat="64.10359955" lon="-19.95696259"><ele>146.6</ele><time>2012-07-20T20:43:44.0000000+00:00</time></trkpt><trkpt lat="64.10359955" lon="-19.95696259"><ele>146.6</ele><time>2012-07-20T20:43:49.0000000+00:00</time></trkpt><trkpt lat="64.10359955" lon="-19.95696259"><ele>146.6</ele><time>2012-07-20T20:43:54.0000000+00:00</time></trkpt><trkpt lat="64.10359955" lon="-19.95696259"><ele>146.6</ele><time>2012-07-20T20:43:59.0000000+00:00</time></trkpt><trkpt lat="64.10359955" lon="-19.95696259"><ele>146.6</ele><time>2012-07-20T20:44:04.0000000+00:00</time></trkpt><trkpt lat="64.10359955" lon="-19.95696259"><ele>146.6</ele><time>2012-07-20T20:44:09.0000000+00:00</time></trkpt><trkpt lat="64.10359955" lon="-19.95696068"><ele>146.5</ele><time>2012-07-20T20:44:14.0000000+00:00</time></trkpt><trkpt lat="64.10359955" lon="-19.95696068"><ele>146.5</ele><time>2012-07-20T20:44:19.0000000+00:00</time></trkpt><trkpt lat="64.10359955" lon="-19.95696068"><ele>146.5</ele><time>2012-07-20T20:44:24.0000000+00:00</time></trkpt><trkpt lat="64.10359955" lon="-19.95696068"><ele>146.5</ele><time>2012-07-20T20:44:29.0000000+00:00</time></trkpt><trkpt lat="64.10359955" lon="-19.95696068"><ele>146.5</ele><time>2012-07-20T20:44:34.0000000+00:00</time></trkpt><trkpt lat="64.10359955" lon="-19.95696068"><ele>146.5</ele><time>2012-07-20T20:44:39.0000000+00:00</time></trkpt><trkpt lat="64.10359955" lon="-19.95696068"><ele>146.5</ele><time>2012-07-20T20:44:44.0000000+00:00</time></trkpt><trkpt lat="64.10359955" lon="-19.95695877"><ele>146.5</ele><time>2012-07-20T20:44:49.0000000+00:00</time></trkpt><trkpt lat="64.10359955" lon="-19.95695877"><ele>146.6</ele><time>2012-07-20T20:44:54.0000000+00:00</time></trkpt><trkpt lat="64.10359955" lon="-19.95695877"><ele>146.6</ele><time>2012-07-20T20:44:59.0000000+00:00</time></trkpt><trkpt lat="64.10359955" lon="-19.95695877"><ele>146.5</ele><time>2012-07-20T20:45:04.0000000+00:00</time></trkpt><trkpt lat="64.10359955" lon="-19.95695877"><ele>146.5</ele><time>2012-07-20T20:45:09.0000000+00:00</time></trkpt><trkpt lat="64.10359955" lon="-19.95695686"><ele>146.5</ele><time>2012-07-20T20:45:14.0000000+00:00</time></trkpt><trkpt lat="64.10359955" lon="-19.95695686"><ele>146.5</ele><time>2012-07-20T20:45:19.0000000+00:00</time></trkpt><trkpt lat="64.10359955" lon="-19.95695686"><ele>146.5</ele><time>2012-07-20T20:45:24.0000000+00:00</time></trkpt><trkpt lat="64.10359955" lon="-19.95695686"><ele>146.5</ele><time>2012-07-20T20:45:29.0000000+00:00</time></trkpt><trkpt lat="64.10359955" lon="-19.95695496"><ele>146.5</ele><time>2012-07-20T20:45:34.0000000+00:00</time></trkpt><trkpt lat="64.10359955" lon="-19.95695496"><ele>146.5</ele><time>2012-07-20T20:45:39.0000000+00:00</time></trkpt><trkpt lat="64.10359955" lon="-19.95695496"><ele>146.5</ele><time>2012-07-20T20:45:44.0000000+00:00</time></trkpt><trkpt lat="64.10359955" lon="-19.95695496"><ele>146.5</ele><time>2012-07-20T20:45:49.0000000+00:00</time></trkpt><trkpt lat="64.10359955" lon="-19.95695496"><ele>146.5</ele><time>2012-07-20T20:45:54.0000000+00:00</time></trkpt><trkpt lat="64.10359955" lon="-19.95695305"><ele>146.5</ele><time>2012-07-20T20:45:59.0000000+00:00</time></trkpt><trkpt lat="64.10359955" lon="-19.95695305"><ele>146.4</ele><time>2012-07-20T20:46:04.0000000+00:00</time></trkpt><trkpt lat="64.10359955" lon="-19.95695305"><ele>146.4</ele><time>2012-07-20T20:46:09.0000000+00:00</time></trkpt><trkpt lat="64.10359955" lon="-19.95695305"><ele>146.4</ele><time>2012-07-20T20:46:14.0000000+00:00</time></trkpt><trkpt lat="64.10359955" lon="-19.95695305"><ele>146.4</ele><time>2012-07-20T20:46:19.0000000+00:00</time></trkpt><trkpt lat="64.10359192" lon="-19.95695305"><ele>146.3</ele><time>2012-07-20T20:46:24.0000000+00:00</time></trkpt><trkpt lat="64.10359955" lon="-19.95695305"><ele>146.3</ele><time>2012-07-20T20:46:29.0000000+00:00</time></trkpt><trkpt lat="64.10359955" lon="-19.95695114"><ele>146.3</ele><time>2012-07-20T20:46:34.0000000+00:00</time></trkpt><trkpt lat="64.10359192" lon="-19.95695114"><ele>146.3</ele><time>2012-07-20T20:46:39.0000000+00:00</time></trkpt></trkseg><trkseg><trkpt lat="64.10371399" lon="-19.95693588"><ele>146.4</ele><time>2012-07-21T11:10:34.0000000+00:00</time></trkpt><trkpt lat="64.10368347" lon="-19.95694351"><ele>146.2</ele><time>2012-07-21T11:10:39.0000000+00:00</time></trkpt><trkpt lat="64.1036911" lon="-19.95693779"><ele>145.4</ele><time>2012-07-21T11:10:44.0000000+00:00</time></trkpt><trkpt lat="64.10369873" lon="-19.9569397"><ele>145.9</ele><time>2012-07-21T11:10:49.0000000+00:00</time></trkpt><trkpt lat="64.10369873" lon="-19.95693779"><ele>145.7</ele><time>2012-07-21T11:10:54.0000000+00:00</time></trkpt><trkpt lat="64.10369873" lon="-19.95693588"><ele>145.5</ele><time>2012-07-21T11:10:59.0000000+00:00</time></trkpt><trkpt lat="64.1036911" lon="-19.95693779"><ele>145.3</ele><time>2012-07-21T11:11:04.0000000+00:00</time></trkpt><trkpt lat="64.1036911" lon="-19.95693588"><ele>145.2</ele><time>2012-07-21T11:11:09.0000000+00:00</time></trkpt><trkpt lat="64.1036911" lon="-19.95693588"><ele>145.2</ele><time>2012-07-21T11:11:14.0000000+00:00</time></trkpt><trkpt lat="64.1036911" lon="-19.95693588"><ele>145.2</ele><time>2012-07-21T11:11:19.0000000+00:00</time></trkpt><trkpt lat="64.1036911" lon="-19.95689774"><ele>145.1</ele><time>2012-07-21T11:11:24.0000000+00:00</time></trkpt><trkpt lat="64.10368347" lon="-19.95689583"><ele>144.6</ele><time>2012-07-21T11:11:29.0000000+00:00</time></trkpt><trkpt lat="64.10369873" lon="-19.95682335"><ele>143.7</ele><time>2012-07-21T11:11:34.0000000+00:00</time></trkpt><trkpt lat="64.10374451" lon="-19.95668602"><ele>143.2</ele><time>2012-07-21T11:11:39.0000000+00:00</time></trkpt><trkpt lat="64.10383606" lon="-19.95658684"><ele>142.6</ele><time>2012-07-21T11:11:44.0000000+00:00</time></trkpt><trkpt lat="64.10393524" lon="-19.95653915"><ele>142.2</ele><time>2012-07-21T11:11:49.0000000+00:00</time></trkpt><trkpt lat="64.10401917" lon="-19.9564476"><ele>142.2</ele><time>2012-07-21T11:11:54.0000000+00:00</time></trkpt><trkpt lat="64.10411072" lon="-19.95633125"><ele>142.3</ele><time>2012-07-21T11:11:59.0000000+00:00</time></trkpt><trkpt lat="64.10418701" lon="-19.95621681"><ele>142.5</ele><time>2012-07-21T11:12:04.0000000+00:00</time></trkpt><trkpt lat="64.10426331" lon="-19.95611"><ele>142.6</ele><time>2012-07-21T11:12:09.0000000+00:00</time></trkpt><trkpt lat="64.10432434" lon="-19.95600128"><ele>142.4</ele><time>2012-07-21T11:12:14.0000000+00:00</time></trkpt><trkpt lat="64.10437775" lon="-19.95581436"><ele>142.9</ele><time>2012-07-21T11:12:19.0000000+00:00</time></trkpt><trkpt lat="64.10440826" lon="-19.95557213"><ele>142.7</ele><time>2012-07-21T11:12:24.0000000+00:00</time></trkpt><trkpt lat="64.1044693" lon="-19.95535278"><ele>142.6</ele><time>2012-07-21T11:12:29.0000000+00:00</time></trkpt><trkpt lat="64.10452271" lon="-19.95512199"><ele>142.4</ele><time>2012-07-21T11:12:34.0000000+00:00</time></trkpt><trkpt lat="64.10458374" lon="-19.95490456"><ele>143.1</ele><time>2012-07-21T11:12:39.0000000+00:00</time></trkpt><trkpt lat="64.10461426" lon="-19.95461083"><ele>143.8</ele><time>2012-07-21T11:12:44.0000000+00:00</time></trkpt><trkpt lat="64.10471344" lon="-19.95434761"><ele>144.1</ele><time>2012-07-21T11:12:49.0000000+00:00</time></trkpt><trkpt lat="64.10480499" lon="-19.95405388"><ele>144.2</ele><time>2012-07-21T11:12:54.0000000+00:00</time></trkpt><trkpt lat="64.10487366" lon="-19.95372009"><ele>145.4</ele><time>2012-07-21T11:12:59.0000000+00:00</time></trkpt><trkpt lat="64.10487366" lon="-19.95344162"><ele>145.2</ele><time>2012-07-21T11:13:04.0000000+00:00</time></trkpt><trkpt lat="64.10484314" lon="-19.9533329"><ele>144.6</ele><time>2012-07-21T11:13:09.0000000+00:00</time></trkpt><trkpt lat="64.10470581" lon="-19.95324707"><ele>144.2</ele><time>2012-07-21T11:13:14.0000000+00:00</time></trkpt><trkpt lat="64.10456848" lon="-19.95314407"><ele>145.6</ele><time>2012-07-21T11:13:19.0000000+00:00</time></trkpt><trkpt lat="64.10443878" lon="-19.95303345"><ele>146.5</ele><time>2012-07-21T11:13:24.0000000+00:00</time></trkpt><trkpt lat="64.10432434" lon="-19.95290184"><ele>147.7</ele><time>2012-07-21T11:13:29.0000000+00:00</time></trkpt><trkpt lat="64.1042099" lon="-19.95276642"><ele>148.6</ele><time>2012-07-21T11:13:34.0000000+00:00</time></trkpt><trkpt lat="64.10411835" lon="-19.95264626"><ele>147.5</ele><time>2012-07-21T11:13:39.0000000+00:00</time></trkpt><trkpt lat="64.10395813" lon="-19.95246315"><ele>146.2</ele><time>2012-07-21T11:13:44.0000000+00:00</time></trkpt><trkpt lat="64.10375977" lon="-19.95221329"><ele>145.3</ele><time>2012-07-21T11:13:49.0000000+00:00</time></trkpt><trkpt lat="64.10359192" lon="-19.95199776"><ele>145.0</ele><time>2012-07-21T11:13:54.0000000+00:00</time></trkpt><trkpt lat="64.10344696" lon="-19.95181274"><ele>144.8</ele><time>2012-07-21T11:13:59.0000000+00:00</time></trkpt><trkpt lat="64.103302" lon="-19.95162201"><ele>144.9</ele><time>2012-07-21T11:14:04.0000000+00:00</time></trkpt><trkpt lat="64.1032486" lon="-19.95151711"><ele>146.0</ele><time>2012-07-21T11:14:09.0000000+00:00</time></trkpt><trkpt lat="64.10324097" lon="-19.95150375"><ele>145.9</ele><time>2012-07-21T11:14:14.0000000+00:00</time></trkpt><trkpt lat="64.10324097" lon="-19.95149803"><ele>145.8</ele><time>2012-07-21T11:14:19.0000000+00:00</time></trkpt><trkpt lat="64.10323334" lon="-19.95146942"><ele>145.8</ele><time>2012-07-21T11:14:24.0000000+00:00</time></trkpt><trkpt lat="64.10321808" lon="-19.95141792"><ele>145.7</ele><time>2012-07-21T11:14:29.0000000+00:00</time></trkpt><trkpt lat="64.10324097" lon="-19.95120239"><ele>144.5</ele><time>2012-07-21T11:14:34.0000000+00:00</time></trkpt><trkpt lat="64.10324097" lon="-19.95116234"><ele>143.9</ele><time>2012-07-21T11:14:39.0000000+00:00</time></trkpt><trkpt lat="64.10324097" lon="-19.95116043"><ele>143.8</ele><time>2012-07-21T11:14:44.0000000+00:00</time></trkpt><trkpt lat="64.10324097" lon="-19.95116043"><ele>143.7</ele><time>2012-07-21T11:14:49.0000000+00:00</time></trkpt><trkpt lat="64.10324097" lon="-19.95115852"><ele>143.7</ele><time>2012-07-21T11:14:54.0000000+00:00</time></trkpt><trkpt lat="64.10324097" lon="-19.95115852"><ele>143.7</ele><time>2012-07-21T11:14:59.0000000+00:00</time></trkpt><trkpt lat="64.10324097" lon="-19.95114136"><ele>143.3</ele><time>2012-07-21T11:15:04.0000000+00:00</time></trkpt><trkpt lat="64.10328674" lon="-19.95099449"><ele>142.5</ele><time>2012-07-21T11:15:09.0000000+00:00</time></trkpt><trkpt lat="64.10334778" lon="-19.95082665"><ele>141.9</ele><time>2012-07-21T11:15:14.0000000+00:00</time></trkpt><trkpt lat="64.10340118" lon="-19.95070267"><ele>141.8</ele><time>2012-07-21T11:15:19.0000000+00:00</time></trkpt><trkpt lat="64.10344696" lon="-19.9505806"><ele>141.7</ele><time>2012-07-21T11:15:24.0000000+00:00</time></trkpt><trkpt lat="64.10351563" lon="-19.95043182"><ele>141.7</ele><time>2012-07-21T11:15:29.0000000+00:00</time></trkpt><trkpt lat="64.10361481" lon="-19.95018959"><ele>141.4</ele><time>2012-07-21T11:15:34.0000000+00:00</time></trkpt><trkpt lat="64.10371399" lon="-19.94992256"><ele>141.1</ele><time>2012-07-21T11:15:39.0000000+00:00</time></trkpt><trkpt lat="64.10382843" lon="-19.94964981"><ele>140.9</ele><time>2012-07-21T11:15:44.0000000+00:00</time></trkpt><trkpt lat="64.10393524" lon="-19.94936943"><ele>140.7</ele><time>2012-07-21T11:15:49.0000000+00:00</time></trkpt><trkpt lat="64.10402679" lon="-19.9491787"><ele>140.6</ele><time>2012-07-21T11:15:54.0000000+00:00</time></trkpt><trkpt lat="64.10408783" lon="-19.94903183"><ele>140.6</ele><time>2012-07-21T11:15:59.0000000+00:00</time></trkpt><trkpt lat="64.10417175" lon="-19.94883537"><ele>140.3</ele><time>2012-07-21T11:16:04.0000000+00:00</time></trkpt><trkpt lat="64.10424805" lon="-19.94864845"><ele>140.2</ele><time>2012-07-21T11:16:09.0000000+00:00</time></trkpt><trkpt lat="64.10431671" lon="-19.94849014"><ele>139.9</ele><time>2012-07-21T11:16:14.0000000+00:00</time></trkpt><trkpt lat="64.10438538" lon="-19.94831085"><ele>139.7</ele><time>2012-07-21T11:16:19.0000000+00:00</time></trkpt><trkpt lat="64.10448456" lon="-19.94807243"><ele>139.1</ele><time>2012-07-21T11:16:24.0000000+00:00</time></trkpt><trkpt lat="64.10459137" lon="-19.94778633"><ele>139.1</ele><time>2012-07-21T11:16:29.0000000+00:00</time></trkpt><trkpt lat="64.10472107" lon="-19.94747162"><ele>139.1</ele><time>2012-07-21T11:16:34.0000000+00:00</time></trkpt><trkpt lat="64.10484314" lon="-19.947155"><ele>139.2</ele><time>2012-07-21T11:16:39.0000000+00:00</time></trkpt><trkpt lat="64.10498047" lon="-19.94680023"><ele>138.9</ele><time>2012-07-21T11:16:44.0000000+00:00</time></trkpt><trkpt lat="64.10512543" lon="-19.94642639"><ele>138.6</ele><time>2012-07-21T11:16:49.0000000+00:00</time></trkpt><trkpt lat="64.10527802" lon="-19.94606209"><ele>139.2</ele><time>2012-07-21T11:16:54.0000000+00:00</time></trkpt><trkpt lat="64.10544586" lon="-19.9456768"><ele>139.0</ele><time>2012-07-21T11:16:59.0000000+00:00</time></trkpt><trkpt lat="64.10559845" lon="-19.94528198"><ele>138.8</ele><time>2012-07-21T11:17:04.0000000+00:00</time></trkpt><trkpt lat="64.1057663" lon="-19.94487953"><ele>138.7</ele><time>2012-07-21T11:17:09.0000000+00:00</time></trkpt><trkpt lat="64.10593414" lon="-19.94447899"><ele>138.7</ele><time>2012-07-21T11:17:14.0000000+00:00</time></trkpt><trkpt lat="64.10610199" lon="-19.94406509"><ele>138.7</ele><time>2012-07-21T11:17:19.0000000+00:00</time></trkpt><trkpt lat="64.10627747" lon="-19.94364357"><ele>138.6</ele><time>2012-07-21T11:17:24.0000000+00:00</time></trkpt><trkpt lat="64.10645294" lon="-19.94322395"><ele>138.7</ele><time>2012-07-21T11:17:29.0000000+00:00</time></trkpt><trkpt lat="64.10662079" lon="-19.94278526"><ele>138.7</ele><time>2012-07-21T11:17:34.0000000+00:00</time></trkpt><trkpt lat="64.10679627" lon="-19.94236946"><ele>138.7</ele><time>2012-07-21T11:17:39.0000000+00:00</time></trkpt><trkpt lat="64.10697174" lon="-19.94192886"><ele>138.9</ele><time>2012-07-21T11:17:44.0000000+00:00</time></trkpt><trkpt lat="64.10716248" lon="-19.94147492"><ele>138.6</ele><time>2012-07-21T11:17:49.0000000+00:00</time></trkpt><trkpt lat="64.10734558" lon="-19.94104004"><ele>138.9</ele><time>2012-07-21T11:17:54.0000000+00:00</time></trkpt><trkpt lat="64.10749817" lon="-19.94064522"><ele>138.7</ele><time>2012-07-21T11:17:59.0000000+00:00</time></trkpt><trkpt lat="64.10767365" lon="-19.94021797"><ele>138.7</ele><time>2012-07-21T11:18:04.0000000+00:00</time></trkpt><trkpt lat="64.10784149" lon="-19.93981934"><ele>139.0</ele><time>2012-07-21T11:18:09.0000000+00:00</time></trkpt><trkpt lat="64.10800171" lon="-19.93942833"><ele>139.2</ele><time>2012-07-21T11:18:14.0000000+00:00</time></trkpt><trkpt lat="64.10816956" lon="-19.93900299"><ele>139.4</ele><time>2012-07-21T11:18:19.0000000+00:00</time></trkpt><trkpt lat="64.10834503" lon="-19.93858528"><ele>139.6</ele><time>2012-07-21T11:18:24.0000000+00:00</time></trkpt><trkpt lat="64.10850525" lon="-19.93817902"><ele>139.6</ele><time>2012-07-21T11:18:29.0000000+00:00</time></trkpt><trkpt lat="64.10868073" lon="-19.93776321"><ele>139.6</ele><time>2012-07-21T11:18:34.0000000+00:00</time></trkpt><trkpt lat="64.10884857" lon="-19.93735504"><ele>140.4</ele><time>2012-07-21T11:18:39.0000000+00:00</time></trkpt><trkpt lat="64.10901642" lon="-19.93693543"><ele>140.8</ele><time>2012-07-21T11:18:44.0000000+00:00</time></trkpt><trkpt lat="64.10918427" lon="-19.93652344"><ele>140.7</ele><time>2012-07-21T11:18:49.0000000+00:00</time></trkpt><trkpt lat="64.10933685" lon="-19.93614006"><ele>140.8</ele><time>2012-07-21T11:18:54.0000000+00:00</time></trkpt><trkpt lat="64.10949707" lon="-19.93572617"><ele>141.0</ele><time>2012-07-21T11:18:59.0000000+00:00</time></trkpt><trkpt lat="64.10965729" lon="-19.93529701"><ele>141.2</ele><time>2012-07-21T11:19:04.0000000+00:00</time></trkpt><trkpt lat="64.10981751" lon="-19.93485832"><ele>141.2</ele><time>2012-07-21T11:19:09.0000000+00:00</time></trkpt><trkpt lat="64.10997009" lon="-19.93443298"><ele>141.3</ele><time>2012-07-21T11:19:14.0000000+00:00</time></trkpt><trkpt lat="64.11011505" lon="-19.93400192"><ele>141.5</ele><time>2012-07-21T11:19:19.0000000+00:00</time></trkpt><trkpt lat="64.11026764" lon="-19.93356133"><ele>141.9</ele><time>2012-07-21T11:19:24.0000000+00:00</time></trkpt><trkpt lat="64.1104126" lon="-19.93311882"><ele>142.0</ele><time>2012-07-21T11:19:29.0000000+00:00</time></trkpt><trkpt lat="64.11054993" lon="-19.9326973"><ele>142.7</ele><time>2012-07-21T11:19:34.0000000+00:00</time></trkpt><trkpt lat="64.11068726" lon="-19.93227577"><ele>142.9</ele><time>2012-07-21T11:19:39.0000000+00:00</time></trkpt><trkpt lat="64.11081696" lon="-19.93183899"><ele>142.9</ele><time>2012-07-21T11:19:44.0000000+00:00</time></trkpt><trkpt lat="64.11095429" lon="-19.9314003"><ele>143.0</ele><time>2012-07-21T11:19:49.0000000+00:00</time></trkpt><trkpt lat="64.11108398" lon="-19.93097496"><ele>142.9</ele><time>2012-07-21T11:19:54.0000000+00:00</time></trkpt><trkpt lat="64.11121368" lon="-19.93053818"><ele>142.9</ele><time>2012-07-21T11:19:59.0000000+00:00</time></trkpt><trkpt lat="64.11133575" lon="-19.9301033"><ele>142.9</ele><time>2012-07-21T11:20:04.0000000+00:00</time></trkpt><trkpt lat="64.11147308" lon="-19.92965698"><ele>142.8</ele><time>2012-07-21T11:20:09.0000000+00:00</time></trkpt><trkpt lat="64.11161041" lon="-19.92921448"><ele>142.8</ele><time>2012-07-21T11:20:14.0000000+00:00</time></trkpt><trkpt lat="64.11174774" lon="-19.92877579"><ele>143.0</ele><time>2012-07-21T11:20:19.0000000+00:00</time></trkpt><trkpt lat="64.11186981" lon="-19.92834663"><ele>143.7</ele><time>2012-07-21T11:20:24.0000000+00:00</time></trkpt><trkpt lat="64.11199951" lon="-19.92791748"><ele>144.0</ele><time>2012-07-21T11:20:29.0000000+00:00</time></trkpt><trkpt lat="64.11214447" lon="-19.92747116"><ele>144.1</ele><time>2012-07-21T11:20:34.0000000+00:00</time></trkpt><trkpt lat="64.11226654" lon="-19.92702293"><ele>144.3</ele><time>2012-07-21T11:20:39.0000000+00:00</time></trkpt><trkpt lat="64.1124115" lon="-19.92657661"><ele>144.0</ele><time>2012-07-21T11:20:44.0000000+00:00</time></trkpt><trkpt lat="64.11254883" lon="-19.92611122"><ele>144.3</ele><time>2012-07-21T11:20:49.0000000+00:00</time></trkpt><trkpt lat="64.11269379" lon="-19.92560768"><ele>144.9</ele><time>2012-07-21T11:20:54.0000000+00:00</time></trkpt><trkpt lat="64.11284638" lon="-19.92510223"><ele>145.2</ele><time>2012-07-21T11:20:59.0000000+00:00</time></trkpt><trkpt lat="64.11301422" lon="-19.92460632"><ele>145.3</ele><time>2012-07-21T11:21:04.0000000+00:00</time></trkpt><trkpt lat="64.11315155" lon="-19.92411041"><ele>145.4</ele><time>2012-07-21T11:21:09.0000000+00:00</time></trkpt><trkpt lat="64.11329651" lon="-19.92362022"><ele>145.6</ele><time>2012-07-21T11:21:14.0000000+00:00</time></trkpt><trkpt lat="64.1134491" lon="-19.92312241"><ele>145.8</ele><time>2012-07-21T11:21:19.0000000+00:00</time></trkpt><trkpt lat="64.11359406" lon="-19.92260933"><ele>145.7</ele><time>2012-07-21T11:21:24.0000000+00:00</time></trkpt><trkpt lat="64.11375427" lon="-19.92207909"><ele>145.5</ele><time>2012-07-21T11:21:29.0000000+00:00</time></trkpt><trkpt lat="64.11391449" lon="-19.92156792"><ele>145.8</ele><time>2012-07-21T11:21:34.0000000+00:00</time></trkpt><trkpt lat="64.11407471" lon="-19.92107773"><ele>145.9</ele><time>2012-07-21T11:21:39.0000000+00:00</time></trkpt><trkpt lat="64.11421967" lon="-19.92060089"><ele>146.2</ele><time>2012-07-21T11:21:44.0000000+00:00</time></trkpt><trkpt lat="64.11434174" lon="-19.92019463"><ele>146.1</ele><time>2012-07-21T11:21:49.0000000+00:00</time></trkpt><trkpt lat="64.11447907" lon="-19.91974831"><ele>146.8</ele><time>2012-07-21T11:21:54.0000000+00:00</time></trkpt><trkpt lat="64.11461639" lon="-19.91926384"><ele>146.9</ele><time>2012-07-21T11:21:59.0000000+00:00</time></trkpt><trkpt lat="64.11475372" lon="-19.91879654"><ele>147.3</ele><time>2012-07-21T11:22:04.0000000+00:00</time></trkpt><trkpt lat="64.11488342" lon="-19.91833115"><ele>147.1</ele><time>2012-07-21T11:22:09.0000000+00:00</time></trkpt><trkpt lat="64.11502075" lon="-19.91786957"><ele>146.7</ele><time>2012-07-21T11:22:14.0000000+00:00</time></trkpt><trkpt lat="64.11514282" lon="-19.91740608"><ele>147.1</ele><time>2012-07-21T11:22:19.0000000+00:00</time></trkpt><trkpt lat="64.11526489" lon="-19.91691589"><ele>147.2</ele><time>2012-07-21T11:22:24.0000000+00:00</time></trkpt><trkpt lat="64.11537933" lon="-19.91643333"><ele>147.0</ele><time>2012-07-21T11:22:29.0000000+00:00</time></trkpt><trkpt lat="64.11549377" lon="-19.9159565"><ele>146.9</ele><time>2012-07-21T11:22:34.0000000+00:00</time></trkpt><trkpt lat="64.11560059" lon="-19.91548157"><ele>147.0</ele><time>2012-07-21T11:22:39.0000000+00:00</time></trkpt><trkpt lat="64.1157074" lon="-19.91501045"><ele>147.4</ele><time>2012-07-21T11:22:44.0000000+00:00</time></trkpt><trkpt lat="64.11581421" lon="-19.91451263"><ele>147.6</ele><time>2012-07-21T11:22:49.0000000+00:00</time></trkpt><trkpt lat="64.11592102" lon="-19.91399956"><ele>148.5</ele><time>2012-07-21T11:22:54.0000000+00:00</time></trkpt><trkpt lat="64.11602783" lon="-19.91348076"><ele>148.6</ele><time>2012-07-21T11:22:59.0000000+00:00</time></trkpt><trkpt lat="64.11611939" lon="-19.9129715"><ele>149.5</ele><time>2012-07-21T11:23:04.0000000+00:00</time></trkpt><trkpt lat="64.1162262" lon="-19.91245842"><ele>149.9</ele><time>2012-07-21T11:23:09.0000000+00:00</time></trkpt><trkpt lat="64.11631775" lon="-19.91193771"><ele>150.4</ele><time>2012-07-21T11:23:14.0000000+00:00</time></trkpt><trkpt lat="64.1164093" lon="-19.91141129"><ele>150.6</ele><time>2012-07-21T11:23:19.0000000+00:00</time></trkpt><trkpt lat="64.11650085" lon="-19.91087914"><ele>151.0</ele><time>2012-07-21T11:23:24.0000000+00:00</time></trkpt><trkpt lat="64.11660004" lon="-19.91033173"><ele>151.7</ele><time>2012-07-21T11:23:29.0000000+00:00</time></trkpt><trkpt lat="64.11669922" lon="-19.90978432"><ele>151.6</ele><time>2012-07-21T11:23:34.0000000+00:00</time></trkpt><trkpt lat="64.11680603" lon="-19.90922928"><ele>151.7</ele><time>2012-07-21T11:23:39.0000000+00:00</time></trkpt><trkpt lat="64.11690521" lon="-19.90865517"><ele>151.5</ele><time>2012-07-21T11:23:44.0000000+00:00</time></trkpt><trkpt lat="64.1170044" lon="-19.90808296"><ele>151.0</ele><time>2012-07-21T11:23:49.0000000+00:00</time></trkpt><trkpt lat="64.11711121" lon="-19.90750885"><ele>151.1</ele><time>2012-07-21T11:23:54.0000000+00:00</time></trkpt><trkpt lat="64.11722565" lon="-19.90690231"><ele>151.3</ele><time>2012-07-21T11:23:59.0000000+00:00</time></trkpt><trkpt lat="64.11733246" lon="-19.90629768"><ele>151.7</ele><time>2012-07-21T11:24:04.0000000+00:00</time></trkpt><trkpt lat="64.11743927" lon="-19.9057045"><ele>151.8</ele><time>2012-07-21T11:24:09.0000000+00:00</time></trkpt><trkpt lat="64.11753845" lon="-19.90518189"><ele>151.9</ele><time>2012-07-21T11:24:14.0000000+00:00</time></trkpt><trkpt lat="64.11763763" lon="-19.9046154"><ele>152.0</ele><time>2012-07-21T11:24:19.0000000+00:00</time></trkpt><trkpt lat="64.11773682" lon="-19.90404511"><ele>152.0</ele><time>2012-07-21T11:24:24.0000000+00:00</time></trkpt><trkpt lat="64.117836" lon="-19.90350151"><ele>151.6</ele><time>2012-07-21T11:24:29.0000000+00:00</time></trkpt><trkpt lat="64.11793518" lon="-19.90297318"><ele>152.0</ele><time>2012-07-21T11:24:34.0000000+00:00</time></trkpt><trkpt lat="64.11802673" lon="-19.90245056"><ele>152.0</ele><time>2012-07-21T11:24:39.0000000+00:00</time></trkpt><trkpt lat="64.11812592" lon="-19.90191269"><ele>152.1</ele><time>2012-07-21T11:24:44.0000000+00:00</time></trkpt><trkpt lat="64.11821747" lon="-19.90138245"><ele>152.2</ele><time>2012-07-21T11:24:49.0000000+00:00</time></trkpt><trkpt lat="64.11831665" lon="-19.90086937"><ele>152.1</ele><time>2012-07-21T11:24:54.0000000+00:00</time></trkpt><trkpt lat="64.11841583" lon="-19.90034485"><ele>151.9</ele><time>2012-07-21T11:24:59.0000000+00:00</time></trkpt><trkpt lat="64.11851502" lon="-19.89982987"><ele>152.2</ele><time>2012-07-21T11:25:04.0000000+00:00</time></trkpt><trkpt lat="64.11860657" lon="-19.89930534"><ele>152.2</ele><time>2012-07-21T11:25:09.0000000+00:00</time></trkpt><trkpt lat="64.11869812" lon="-19.89879417"><ele>152.1</ele><time>2012-07-21T11:25:14.0000000+00:00</time></trkpt><trkpt lat="64.1187973" lon="-19.89827347"><ele>152.4</ele><time>2012-07-21T11:25:19.0000000+00:00</time></trkpt><trkpt lat="64.11890411" lon="-19.89773941"><ele>152.6</ele><time>2012-07-21T11:25:24.0000000+00:00</time></trkpt><trkpt lat="64.11901093" lon="-19.89721298"><ele>152.5</ele><time>2012-07-21T11:25:29.0000000+00:00</time></trkpt><trkpt lat="64.11909485" lon="-19.89669418"><ele>152.2</ele><time>2012-07-21T11:25:34.0000000+00:00</time></trkpt><trkpt lat="64.11917877" lon="-19.8961792"><ele>152.1</ele><time>2012-07-21T11:25:39.0000000+00:00</time></trkpt><trkpt lat="64.11927033" lon="-19.89567184"><ele>152.5</ele><time>2012-07-21T11:25:44.0000000+00:00</time></trkpt><trkpt lat="64.11936951" lon="-19.89513397"><ele>152.6</ele><time>2012-07-21T11:25:49.0000000+00:00</time></trkpt><trkpt lat="64.11946869" lon="-19.89460754"><ele>152.4</ele><time>2012-07-21T11:25:54.0000000+00:00</time></trkpt><trkpt lat="64.11956024" lon="-19.89408112"><ele>152.5</ele><time>2012-07-21T11:25:59.0000000+00:00</time></trkpt><trkpt lat="64.11965942" lon="-19.89353752"><ele>152.5</ele><time>2012-07-21T11:26:04.0000000+00:00</time></trkpt><trkpt lat="64.11975098" lon="-19.89300728"><ele>152.4</ele><time>2012-07-21T11:26:09.0000000+00:00</time></trkpt><trkpt lat="64.11984253" lon="-19.89251137"><ele>152.8</ele><time>2012-07-21T11:26:14.0000000+00:00</time></trkpt><trkpt lat="64.11992645" lon="-19.89200592"><ele>153.3</ele><time>2012-07-21T11:26:19.0000000+00:00</time></trkpt><trkpt lat="64.12002564" lon="-19.89151764"><ele>153.8</ele><time>2012-07-21T11:26:24.0000000+00:00</time></trkpt><trkpt lat="64.12010956" lon="-19.8910389"><ele>153.7</ele><time>2012-07-21T11:26:29.0000000+00:00</time></trkpt><trkpt lat="64.12019348" lon="-19.89055443"><ele>153.8</ele><time>2012-07-21T11:26:34.0000000+00:00</time></trkpt><trkpt lat="64.12028503" lon="-19.89006043"><ele>153.7</ele><time>2012-07-21T11:26:39.0000000+00:00</time></trkpt><trkpt lat="64.12037659" lon="-19.88953972"><ele>153.7</ele><time>2012-07-21T11:26:44.0000000+00:00</time></trkpt><trkpt lat="64.12047577" lon="-19.88900566"><ele>153.7</ele><time>2012-07-21T11:26:49.0000000+00:00</time></trkpt><trkpt lat="64.12056732" lon="-19.88849068"><ele>153.6</ele><time>2012-07-21T11:26:54.0000000+00:00</time></trkpt><trkpt lat="64.12065888" lon="-19.88795853"><ele>153.3</ele><time>2012-07-21T11:26:59.0000000+00:00</time></trkpt><trkpt lat="64.12075043" lon="-19.88744164"><ele>153.1</ele><time>2012-07-21T11:27:04.0000000+00:00</time></trkpt><trkpt lat="64.12084198" lon="-19.88691902"><ele>153.6</ele><time>2012-07-21T11:27:09.0000000+00:00</time></trkpt><trkpt lat="64.12091827" lon="-19.88641357"><ele>153.8</ele><time>2012-07-21T11:27:14.0000000+00:00</time></trkpt><trkpt lat="64.12099457" lon="-19.88591957"><ele>154.2</ele><time>2012-07-21T11:27:19.0000000+00:00</time></trkpt><trkpt lat="64.12107086" lon="-19.88543892"><ele>154.4</ele><time>2012-07-21T11:27:24.0000000+00:00</time></trkpt><trkpt lat="64.12112427" lon="-19.88496399"><ele>155.2</ele><time>2012-07-21T11:27:29.0000000+00:00</time></trkpt><trkpt lat="64.12120056" lon="-19.88446999"><ele>155.3</ele><time>2012-07-21T11:27:34.0000000+00:00</time></trkpt><trkpt lat="64.1212616" lon="-19.88398743"><ele>155.9</ele><time>2012-07-21T11:27:39.0000000+00:00</time></trkpt><trkpt lat="64.12129974" lon="-19.88350296"><ele>155.8</ele><time>2012-07-21T11:27:44.0000000+00:00</time></trkpt><trkpt lat="64.12135315" lon="-19.88301277"><ele>156.5</ele><time>2012-07-21T11:27:49.0000000+00:00</time></trkpt><trkpt lat="64.12139893" lon="-19.88252068"><ele>155.8</ele><time>2012-07-21T11:27:54.0000000+00:00</time></trkpt><trkpt lat="64.1214447" lon="-19.88200951"><ele>155.0</ele><time>2012-07-21T11:27:59.0000000+00:00</time></trkpt><trkpt lat="64.12148285" lon="-19.88148499"><ele>155.2</ele><time>2012-07-21T11:28:04.0000000+00:00</time></trkpt><trkpt lat="64.12151337" lon="-19.88093758"><ele>155.0</ele><time>2012-07-21T11:28:09.0000000+00:00</time></trkpt><trkpt lat="64.12155151" lon="-19.88038063"><ele>154.1</ele><time>2012-07-21T11:28:14.0000000+00:00</time></trkpt><trkpt lat="64.1215744" lon="-19.87982559"><ele>153.3</ele><time>2012-07-21T11:28:19.0000000+00:00</time></trkpt><trkpt lat="64.12159729" lon="-19.87927437"><ele>153.4</ele><time>2012-07-21T11:28:24.0000000+00:00</time></trkpt><trkpt lat="64.12161255" lon="-19.87871361"><ele>153.0</ele><time>2012-07-21T11:28:29.0000000+00:00</time></trkpt><trkpt lat="64.12162781" lon="-19.87814522"><ele>152.6</ele><time>2012-07-21T11:28:34.0000000+00:00</time></trkpt><trkpt lat="64.12162781" lon="-19.8775177"><ele>152.7</ele><time>2012-07-21T11:28:39.0000000+00:00</time></trkpt><trkpt lat="64.12162018" lon="-19.87687111"><ele>152.6</ele><time>2012-07-21T11:28:44.0000000+00:00</time></trkpt><trkpt lat="64.12161255" lon="-19.87624359"><ele>153.5</ele><time>2012-07-21T11:28:49.0000000+00:00</time></trkpt><trkpt lat="64.12159729" lon="-19.87560463"><ele>153.0</ele><time>2012-07-21T11:28:54.0000000+00:00</time></trkpt><trkpt lat="64.12159729" lon="-19.87504005"><ele>153.2</ele><time>2012-07-21T11:28:59.0000000+00:00</time></trkpt><trkpt lat="64.12158203" lon="-19.87455177"><ele>154.0</ele><time>2012-07-21T11:29:04.0000000+00:00</time></trkpt><trkpt lat="64.12158203" lon="-19.87416458"><ele>154.2</ele><time>2012-07-21T11:29:09.0000000+00:00</time></trkpt><trkpt lat="64.1215744" lon="-19.87380981"><ele>153.8</ele><time>2012-07-21T11:29:14.0000000+00:00</time></trkpt><trkpt lat="64.12156677" lon="-19.87345314"><ele>153.0</ele><time>2012-07-21T11:29:19.0000000+00:00</time></trkpt><trkpt lat="64.12155914" lon="-19.87316895"><ele>152.8</ele><time>2012-07-21T11:29:24.0000000+00:00</time></trkpt><trkpt lat="64.12155151" lon="-19.87285233"><ele>153.2</ele><time>2012-07-21T11:29:29.0000000+00:00</time></trkpt><trkpt lat="64.12155151" lon="-19.8725338"><ele>152.6</ele><time>2012-07-21T11:29:34.0000000+00:00</time></trkpt><trkpt lat="64.12154388" lon="-19.87223434"><ele>152.7</ele><time>2012-07-21T11:29:39.0000000+00:00</time></trkpt><trkpt lat="64.12153626" lon="-19.8719883"><ele>153.0</ele><time>2012-07-21T11:29:44.0000000+00:00</time></trkpt><trkpt lat="64.12152863" lon="-19.87174797"><ele>153.1</ele><time>2012-07-21T11:29:49.0000000+00:00</time></trkpt><trkpt lat="64.121521" lon="-19.8714428"><ele>153.2</ele><time>2012-07-21T11:29:54.0000000+00:00</time></trkpt><trkpt lat="64.121521" lon="-19.87107468"><ele>153.2</ele><time>2012-07-21T11:29:59.0000000+00:00</time></trkpt><trkpt lat="64.12151337" lon="-19.87065697"><ele>153.6</ele><time>2012-07-21T11:30:04.0000000+00:00</time></trkpt><trkpt lat="64.121521" lon="-19.87018204"><ele>155.0</ele><time>2012-07-21T11:30:09.0000000+00:00</time></trkpt><trkpt lat="64.121521" lon="-19.86967659"><ele>154.6</ele><time>2012-07-21T11:30:14.0000000+00:00</time></trkpt><trkpt lat="64.12150574" lon="-19.86914635"><ele>154.2</ele><time>2012-07-21T11:30:19.0000000+00:00</time></trkpt><trkpt lat="64.12150574" lon="-19.8686161"><ele>154.4</ele><time>2012-07-21T11:30:24.0000000+00:00</time></trkpt><trkpt lat="64.12149811" lon="-19.86810494"><ele>154.4</ele><time>2012-07-21T11:30:29.0000000+00:00</time></trkpt><trkpt lat="64.12148285" lon="-19.86758804"><ele>154.6</ele><time>2012-07-21T11:30:34.0000000+00:00</time></trkpt><trkpt lat="64.12148285" lon="-19.86705971"><ele>155.2</ele><time>2012-07-21T11:30:39.0000000+00:00</time></trkpt><trkpt lat="64.12147522" lon="-19.86652947"><ele>155.2</ele><time>2012-07-21T11:30:44.0000000+00:00</time></trkpt><trkpt lat="64.12145996" lon="-19.86601257"><ele>155.1</ele><time>2012-07-21T11:30:49.0000000+00:00</time></trkpt><trkpt lat="64.12145233" lon="-19.86549759"><ele>154.4</ele><time>2012-07-21T11:30:54.0000000+00:00</time></trkpt><trkpt lat="64.1214447" lon="-19.86501312"><ele>155.1</ele><time>2012-07-21T11:30:59.0000000+00:00</time></trkpt><trkpt lat="64.1214447" lon="-19.86455727"><ele>158.4</ele><time>2012-07-21T11:31:04.0000000+00:00</time></trkpt><trkpt lat="64.12143707" lon="-19.8640976"><ele>158.0</ele><time>2012-07-21T11:31:09.0000000+00:00</time></trkpt><trkpt lat="64.12142944" lon="-19.86362457"><ele>157.4</ele><time>2012-07-21T11:31:14.0000000+00:00</time></trkpt><trkpt lat="64.12142944" lon="-19.8631382"><ele>157.3</ele><time>2012-07-21T11:31:19.0000000+00:00</time></trkpt><trkpt lat="64.12142181" lon="-19.8626461"><ele>157.7</ele><time>2012-07-21T11:31:24.0000000+00:00</time></trkpt><trkpt lat="64.12141419" lon="-19.86216545"><ele>157.7</ele><time>2012-07-21T11:31:29.0000000+00:00</time></trkpt><trkpt lat="64.12141419" lon="-19.86162186"><ele>157.2</ele><time>2012-07-21T11:31:34.0000000+00:00</time></trkpt><trkpt lat="64.12140656" lon="-19.86095429"><ele>155.3</ele><time>2012-07-21T11:31:39.0000000+00:00</time></trkpt><trkpt lat="64.12139893" lon="-19.86023903"><ele>154.1</ele><time>2012-07-21T11:31:44.0000000+00:00</time></trkpt><trkpt lat="64.12138367" lon="-19.85953522"><ele>153.9</ele><time>2012-07-21T11:31:49.0000000+00:00</time></trkpt><trkpt lat="64.12137604" lon="-19.85885048"><ele>153.8</ele><time>2012-07-21T11:31:54.0000000+00:00</time></trkpt><trkpt lat="64.12136078" lon="-19.85823441"><ele>153.8</ele><time>2012-07-21T11:31:59.0000000+00:00</time></trkpt><trkpt lat="64.12135315" lon="-19.85763168"><ele>153.4</ele><time>2012-07-21T11:32:04.0000000+00:00</time></trkpt><trkpt lat="64.12134552" lon="-19.85700989"><ele>153.3</ele><time>2012-07-21T11:32:09.0000000+00:00</time></trkpt><trkpt lat="64.12133789" lon="-19.85639763"><ele>153.5</ele><time>2012-07-21T11:32:14.0000000+00:00</time></trkpt><trkpt lat="64.12132263" lon="-19.855793"><ele>153.5</ele><time>2012-07-21T11:32:19.0000000+00:00</time></trkpt><trkpt lat="64.121315" lon="-19.85523415"><ele>154.1</ele><time>2012-07-21T11:32:24.0000000+00:00</time></trkpt><trkpt lat="64.12130737" lon="-19.85466003"><ele>153.9</ele><time>2012-07-21T11:32:29.0000000+00:00</time></trkpt><trkpt lat="64.12129974" lon="-19.85410881"><ele>153.8</ele><time>2012-07-21T11:32:34.0000000+00:00</time></trkpt><trkpt lat="64.12129211" lon="-19.85360146"><ele>153.2</ele><time>2012-07-21T11:32:39.0000000+00:00</time></trkpt><trkpt lat="64.12128449" lon="-19.85310364"><ele>152.9</ele><time>2012-07-21T11:32:44.0000000+00:00</time></trkpt><trkpt lat="64.12127686" lon="-19.85261917"><ele>153.4</ele><time>2012-07-21T11:32:49.0000000+00:00</time></trkpt><trkpt lat="64.1212616" lon="-19.85215187"><ele>152.7</ele><time>2012-07-21T11:32:54.0000000+00:00</time></trkpt><trkpt lat="64.12125397" lon="-19.85167885"><ele>152.9</ele><time>2012-07-21T11:32:59.0000000+00:00</time></trkpt><trkpt lat="64.12123108" lon="-19.85120773"><ele>153.0</ele><time>2012-07-21T11:33:04.0000000+00:00</time></trkpt><trkpt lat="64.12120819" lon="-19.85070992"><ele>152.7</ele><time>2012-07-21T11:33:09.0000000+00:00</time></trkpt><trkpt lat="64.12117767" lon="-19.85024071"><ele>152.5</ele><time>2012-07-21T11:33:14.0000000+00:00</time></trkpt><trkpt lat="64.12115479" lon="-19.84977913"><ele>151.8</ele><time>2012-07-21T11:33:19.0000000+00:00</time></trkpt><trkpt lat="64.1211319" lon="-19.84935951"><ele>151.6</ele><time>2012-07-21T11:33:24.0000000+00:00</time></trkpt><trkpt lat="64.12110901" lon="-19.84896278"><ele>151.2</ele><time>2012-07-21T11:33:29.0000000+00:00</time></trkpt><trkpt lat="64.12108612" lon="-19.84859085"><ele>151.3</ele><time>2012-07-21T11:33:34.0000000+00:00</time></trkpt><trkpt lat="64.1210556" lon="-19.8482151"><ele>151.4</ele><time>2012-07-21T11:33:39.0000000+00:00</time></trkpt><trkpt lat="64.12103272" lon="-19.84782982"><ele>150.8</ele><time>2012-07-21T11:33:44.0000000+00:00</time></trkpt><trkpt lat="64.12099457" lon="-19.84743881"><ele>150.5</ele><time>2012-07-21T11:33:49.0000000+00:00</time></trkpt><trkpt lat="64.12097168" lon="-19.84702873"><ele>149.9</ele><time>2012-07-21T11:33:54.0000000+00:00</time></trkpt><trkpt lat="64.12093353" lon="-19.84661293"><ele>149.0</ele><time>2012-07-21T11:33:59.0000000+00:00</time></trkpt><trkpt lat="64.12089539" lon="-19.8462162"><ele>149.1</ele><time>2012-07-21T11:34:04.0000000+00:00</time></trkpt><trkpt lat="64.12086487" lon="-19.84582329"><ele>148.3</ele><time>2012-07-21T11:34:09.0000000+00:00</time></trkpt><trkpt lat="64.12082672" lon="-19.84544563"><ele>148.0</ele><time>2012-07-21T11:34:14.0000000+00:00</time></trkpt><trkpt lat="64.12078857" lon="-19.84504128"><ele>147.7</ele><time>2012-07-21T11:34:19.0000000+00:00</time></trkpt><trkpt lat="64.12075043" lon="-19.84464645"><ele>147.2</ele><time>2012-07-21T11:34:24.0000000+00:00</time></trkpt><trkpt lat="64.12071228" lon="-19.84428978"><ele>147.2</ele><time>2012-07-21T11:34:29.0000000+00:00</time></trkpt><trkpt lat="64.12068939" lon="-19.84410095"><ele>147.4</ele><time>2012-07-21T11:34:34.0000000+00:00</time></trkpt><trkpt lat="64.12067413" lon="-19.8439827"><ele>147.4</ele><time>2012-07-21T11:34:39.0000000+00:00</time></trkpt><trkpt lat="64.12065888" lon="-19.84369278"><ele>147.5</ele><time>2012-07-21T11:34:44.0000000+00:00</time></trkpt><trkpt lat="64.12062073" lon="-19.84334183"><ele>147.2</ele><time>2012-07-21T11:34:49.0000000+00:00</time></trkpt><trkpt lat="64.12060547" lon="-19.84306526"><ele>147.5</ele><time>2012-07-21T11:34:54.0000000+00:00</time></trkpt><trkpt lat="64.12058258" lon="-19.84287071"><ele>147.5</ele><time>2012-07-21T11:34:59.0000000+00:00</time></trkpt><trkpt lat="64.12058258" lon="-19.84286308"><ele>147.7</ele><time>2012-07-21T11:35:04.0000000+00:00</time></trkpt><trkpt lat="64.12058258" lon="-19.84286308"><ele>147.7</ele><time>2012-07-21T11:35:09.0000000+00:00</time></trkpt><trkpt lat="64.12058258" lon="-19.84286308"><ele>147.7</ele><time>2012-07-21T11:35:14.0000000+00:00</time></trkpt><trkpt lat="64.12058258" lon="-19.84286308"><ele>147.7</ele><time>2012-07-21T11:35:19.0000000+00:00</time></trkpt><trkpt lat="64.12058258" lon="-19.84286308"><ele>147.7</ele><time>2012-07-21T11:35:24.0000000+00:00</time></trkpt><trkpt lat="64.12058258" lon="-19.84286308"><ele>147.7</ele><time>2012-07-21T11:35:29.0000000+00:00</time></trkpt><trkpt lat="64.12058258" lon="-19.84285355"><ele>147.8</ele><time>2012-07-21T11:35:34.0000000+00:00</time></trkpt><trkpt lat="64.12056732" lon="-19.84282303"><ele>148.4</ele><time>2012-07-21T11:35:39.0000000+00:00</time></trkpt><trkpt lat="64.12056732" lon="-19.84278488"><ele>148.6</ele><time>2012-07-21T11:35:44.0000000+00:00</time></trkpt><trkpt lat="64.1205368" lon="-19.84249878"><ele>148.9</ele><time>2012-07-21T11:35:49.0000000+00:00</time></trkpt><trkpt lat="64.12049866" lon="-19.84210968"><ele>148.7</ele><time>2012-07-21T11:35:54.0000000+00:00</time></trkpt><trkpt lat="64.12046051" lon="-19.84169769"><ele>148.7</ele><time>2012-07-21T11:35:59.0000000+00:00</time></trkpt><trkpt lat="64.12042236" lon="-19.84132385"><ele>148.8</ele><time>2012-07-21T11:36:04.0000000+00:00</time></trkpt><trkpt lat="64.12037659" lon="-19.84095764"><ele>149.2</ele><time>2012-07-21T11:36:09.0000000+00:00</time></trkpt><trkpt lat="64.12033844" lon="-19.84058571"><ele>149.3</ele><time>2012-07-21T11:36:14.0000000+00:00</time></trkpt><trkpt lat="64.12029266" lon="-19.84018898"><ele>149.4</ele><time>2012-07-21T11:36:19.0000000+00:00</time></trkpt><trkpt lat="64.12023926" lon="-19.83984184"><ele>149.2</ele><time>2012-07-21T11:36:24.0000000+00:00</time></trkpt><trkpt lat="64.12019348" lon="-19.83951759"><ele>149.0</ele><time>2012-07-21T11:36:29.0000000+00:00</time></trkpt><trkpt lat="64.12014771" lon="-19.83923149"><ele>149.1</ele><time>2012-07-21T11:36:34.0000000+00:00</time></trkpt><trkpt lat="64.12010193" lon="-19.83895683"><ele>148.9</ele><time>2012-07-21T11:36:39.0000000+00:00</time></trkpt><trkpt lat="64.12005615" lon="-19.83866119"><ele>148.6</ele><time>2012-07-21T11:36:44.0000000+00:00</time></trkpt><trkpt lat="64.12000275" lon="-19.83838844"><ele>148.9</ele><time>2012-07-21T11:36:49.0000000+00:00</time></trkpt><trkpt lat="64.1199646" lon="-19.83812332"><ele>148.9</ele><time>2012-07-21T11:36:54.0000000+00:00</time></trkpt><trkpt lat="64.11990356" lon="-19.83785248"><ele>149.5</ele><time>2012-07-21T11:36:59.0000000+00:00</time></trkpt><trkpt lat="64.11985016" lon="-19.8375721"><ele>149.9</ele><time>2012-07-21T11:37:04.0000000+00:00</time></trkpt><trkpt lat="64.11978912" lon="-19.83728981"><ele>150.6</ele><time>2012-07-21T11:37:09.0000000+00:00</time></trkpt><trkpt lat="64.11973572" lon="-19.83700752"><ele>151.0</ele><time>2012-07-21T11:37:14.0000000+00:00</time></trkpt><trkpt lat="64.11968231" lon="-19.8367157"><ele>151.3</ele><time>2012-07-21T11:37:19.0000000+00:00</time></trkpt><trkpt lat="64.11963654" lon="-19.8364296"><ele>151.5</ele><time>2012-07-21T11:37:24.0000000+00:00</time></trkpt><trkpt lat="64.11958313" lon="-19.83613777"><ele>151.2</ele><time>2012-07-21T11:37:29.0000000+00:00</time></trkpt><trkpt lat="64.11952972" lon="-19.83586693"><ele>151.7</ele><time>2012-07-21T11:37:34.0000000+00:00</time></trkpt><trkpt lat="64.11948395" lon="-19.83561516"><ele>152.0</ele><time>2012-07-21T11:37:39.0000000+00:00</time></trkpt><trkpt lat="64.1194458" lon="-19.83540535"><ele>152.2</ele><time>2012-07-21T11:37:44.0000000+00:00</time></trkpt><trkpt lat="64.11940002" lon="-19.83516693"><ele>152.8</ele><time>2012-07-21T11:37:49.0000000+00:00</time></trkpt><trkpt lat="64.11935425" lon="-19.83489609"><ele>153.2</ele><time>2012-07-21T11:37:54.0000000+00:00</time></trkpt><trkpt lat="64.11930847" lon="-19.83462524"><ele>153.8</ele><time>2012-07-21T11:37:59.0000000+00:00</time></trkpt><trkpt lat="64.11925507" lon="-19.83434677"><ele>154.3</ele><time>2012-07-21T11:38:04.0000000+00:00</time></trkpt><trkpt lat="64.11922455" lon="-19.83405876"><ele>154.6</ele><time>2012-07-21T11:38:09.0000000+00:00</time></trkpt><trkpt lat="64.11919403" lon="-19.83376694"><ele>154.7</ele><time>2012-07-21T11:38:14.0000000+00:00</time></trkpt><trkpt lat="64.11916351" lon="-19.83348846"><ele>154.6</ele><time>2012-07-21T11:38:19.0000000+00:00</time></trkpt><trkpt lat="64.11914825" lon="-19.83320618"><ele>154.6</ele><time>2012-07-21T11:38:24.0000000+00:00</time></trkpt><trkpt lat="64.11911774" lon="-19.83291817"><ele>154.8</ele><time>2012-07-21T11:38:29.0000000+00:00</time></trkpt><trkpt lat="64.11911011" lon="-19.83262444"><ele>154.7</ele><time>2012-07-21T11:38:34.0000000+00:00</time></trkpt><trkpt lat="64.11910248" lon="-19.83233261"><ele>154.5</ele><time>2012-07-21T11:38:39.0000000+00:00</time></trkpt><trkpt lat="64.11909485" lon="-19.83203697"><ele>154.6</ele><time>2012-07-21T11:38:44.0000000+00:00</time></trkpt><trkpt lat="64.11908722" lon="-19.83180618"><ele>154.4</ele><time>2012-07-21T11:38:49.0000000+00:00</time></trkpt><trkpt lat="64.11907959" lon="-19.83171272"><ele>154.6</ele><time>2012-07-21T11:38:54.0000000+00:00</time></trkpt><trkpt lat="64.11907959" lon="-19.83171463"><ele>154.7</ele><time>2012-07-21T11:38:59.0000000+00:00</time></trkpt><trkpt lat="64.11907959" lon="-19.83171463"><ele>154.7</ele><time>2012-07-21T11:39:04.0000000+00:00</time></trkpt><trkpt lat="64.11907196" lon="-19.83171272"><ele>154.7</ele><time>2012-07-21T11:39:09.0000000+00:00</time></trkpt><trkpt lat="64.11907196" lon="-19.83171082"><ele>154.7</ele><time>2012-07-21T11:39:14.0000000+00:00</time></trkpt><trkpt lat="64.11907196" lon="-19.83170891"><ele>154.6</ele><time>2012-07-21T11:39:19.0000000+00:00</time></trkpt><trkpt lat="64.11907196" lon="-19.83170319"><ele>154.7</ele><time>2012-07-21T11:39:24.0000000+00:00</time></trkpt><trkpt lat="64.11907196" lon="-19.83170319"><ele>154.6</ele><time>2012-07-21T11:39:29.0000000+00:00</time></trkpt><trkpt lat="64.11907196" lon="-19.83168602"><ele>154.6</ele><time>2012-07-21T11:39:34.0000000+00:00</time></trkpt><trkpt lat="64.11907196" lon="-19.83168793"><ele>154.5</ele><time>2012-07-21T11:39:39.0000000+00:00</time></trkpt><trkpt lat="64.11907196" lon="-19.83168793"><ele>154.5</ele><time>2012-07-21T11:39:44.0000000+00:00</time></trkpt><trkpt lat="64.11907196" lon="-19.83168793"><ele>154.5</ele><time>2012-07-21T11:39:49.0000000+00:00</time></trkpt><trkpt lat="64.11907196" lon="-19.83168793"><ele>154.5</ele><time>2012-07-21T11:39:54.0000000+00:00</time></trkpt><trkpt lat="64.11907196" lon="-19.83168793"><ele>154.5</ele><time>2012-07-21T11:39:59.0000000+00:00</time></trkpt><trkpt lat="64.11907196" lon="-19.83168793"><ele>154.5</ele><time>2012-07-21T11:40:04.0000000+00:00</time></trkpt><trkpt lat="64.11906433" lon="-19.83168221"><ele>154.5</ele><time>2012-07-21T11:40:09.0000000+00:00</time></trkpt><trkpt lat="64.11906433" lon="-19.83167458"><ele>154.4</ele><time>2012-07-21T11:40:14.0000000+00:00</time></trkpt><trkpt lat="64.11906433" lon="-19.83167458"><ele>154.4</ele><time>2012-07-21T11:40:19.0000000+00:00</time></trkpt><trkpt lat="64.11906433" lon="-19.83167076"><ele>154.4</ele><time>2012-07-21T11:40:24.0000000+00:00</time></trkpt><trkpt lat="64.11906433" lon="-19.83167076"><ele>154.5</ele><time>2012-07-21T11:40:29.0000000+00:00</time></trkpt><trkpt lat="64.11906433" lon="-19.83164978"><ele>154.5</ele><time>2012-07-21T11:40:34.0000000+00:00</time></trkpt><trkpt lat="64.11906433" lon="-19.83164978"><ele>154.6</ele><time>2012-07-21T11:40:39.0000000+00:00</time></trkpt><trkpt lat="64.11904144" lon="-19.83161354"><ele>154.4</ele><time>2012-07-21T11:40:44.0000000+00:00</time></trkpt><trkpt lat="64.11891937" lon="-19.83143616"><ele>154.2</ele><time>2012-07-21T11:40:49.0000000+00:00</time></trkpt><trkpt lat="64.11875916" lon="-19.83122063"><ele>154.0</ele><time>2012-07-21T11:40:54.0000000+00:00</time></trkpt><trkpt lat="64.11859894" lon="-19.83096695"><ele>154.2</ele><time>2012-07-21T11:40:59.0000000+00:00</time></trkpt><trkpt lat="64.11844635" lon="-19.83069038"><ele>154.2</ele><time>2012-07-21T11:41:04.0000000+00:00</time></trkpt><trkpt lat="64.11830139" lon="-19.83036995"><ele>154.2</ele><time>2012-07-21T11:41:09.0000000+00:00</time></trkpt><trkpt lat="64.11817169" lon="-19.83011246"><ele>154.1</ele><time>2012-07-21T11:41:14.0000000+00:00</time></trkpt><trkpt lat="64.11802673" lon="-19.82985306"><ele>154.3</ele><time>2012-07-21T11:41:19.0000000+00:00</time></trkpt><trkpt lat="64.11786652" lon="-19.82961083"><ele>154.7</ele><time>2012-07-21T11:41:24.0000000+00:00</time></trkpt><trkpt lat="64.11769104" lon="-19.82942581"><ele>154.6</ele><time>2012-07-21T11:41:29.0000000+00:00</time></trkpt><trkpt lat="64.11751556" lon="-19.82927132"><ele>153.5</ele><time>2012-07-21T11:41:34.0000000+00:00</time></trkpt><trkpt lat="64.1173172" lon="-19.82913017"><ele>152.2</ele><time>2012-07-21T11:41:39.0000000+00:00</time></trkpt><trkpt lat="64.11708832" lon="-19.8290329"><ele>150.7</ele><time>2012-07-21T11:41:44.0000000+00:00</time></trkpt><trkpt lat="64.11683655" lon="-19.82897949"><ele>149.1</ele><time>2012-07-21T11:41:49.0000000+00:00</time></trkpt><trkpt lat="64.11654663" lon="-19.82898521"><ele>147.2</ele><time>2012-07-21T11:41:54.0000000+00:00</time></trkpt><trkpt lat="64.11624908" lon="-19.82910729"><ele>145.6</ele><time>2012-07-21T11:41:59.0000000+00:00</time></trkpt><trkpt lat="64.11597443" lon="-19.82925224"><ele>144.6</ele><time>2012-07-21T11:42:04.0000000+00:00</time></trkpt><trkpt lat="64.11581421" lon="-19.82902527"><ele>143.7</ele><time>2012-07-21T11:42:09.0000000+00:00</time></trkpt><trkpt lat="64.1157608" lon="-19.82876587"><ele>143.4</ele><time>2012-07-21T11:42:14.0000000+00:00</time></trkpt><trkpt lat="64.11575317" lon="-19.82864952"><ele>143.4</ele><time>2012-07-21T11:42:19.0000000+00:00</time></trkpt><trkpt lat="64.11574554" lon="-19.82860375"><ele>143.4</ele><time>2012-07-21T11:42:24.0000000+00:00</time></trkpt><trkpt lat="64.11574554" lon="-19.82845688"><ele>143.1</ele><time>2012-07-21T11:42:29.0000000+00:00</time></trkpt><trkpt lat="64.11572266" lon="-19.82820892"><ele>143.3</ele><time>2012-07-21T11:42:34.0000000+00:00</time></trkpt><trkpt lat="64.11569977" lon="-19.82785416"><ele>141.8</ele><time>2012-07-21T11:42:39.0000000+00:00</time></trkpt><trkpt lat="64.11566162" lon="-19.82747269"><ele>141.2</ele><time>2012-07-21T11:42:44.0000000+00:00</time></trkpt><trkpt lat="64.1156311" lon="-19.82709122"><ele>141.2</ele><time>2012-07-21T11:42:49.0000000+00:00</time></trkpt><trkpt lat="64.11560059" lon="-19.82675743"><ele>142.4</ele><time>2012-07-21T11:42:54.0000000+00:00</time></trkpt><trkpt lat="64.11555481" lon="-19.82640457"><ele>142.5</ele><time>2012-07-21T11:42:59.0000000+00:00</time></trkpt><trkpt lat="64.11549377" lon="-19.82605743"><ele>142.1</ele><time>2012-07-21T11:43:04.0000000+00:00</time></trkpt><trkpt lat="64.11544037" lon="-19.82570267"><ele>142.0</ele><time>2012-07-21T11:43:09.0000000+00:00</time></trkpt><trkpt lat="64.11544037" lon="-19.82533455"><ele>141.9</ele><time>2012-07-21T11:43:14.0000000+00:00</time></trkpt><trkpt lat="64.11549377" lon="-19.82489204"><ele>141.5</ele><time>2012-07-21T11:43:19.0000000+00:00</time></trkpt><trkpt lat="64.11559296" lon="-19.82447243"><ele>141.3</ele><time>2012-07-21T11:43:24.0000000+00:00</time></trkpt><trkpt lat="64.11573029" lon="-19.82409668"><ele>140.9</ele><time>2012-07-21T11:43:29.0000000+00:00</time></trkpt><trkpt lat="64.11587524" lon="-19.82387734"><ele>141.7</ele><time>2012-07-21T11:43:34.0000000+00:00</time></trkpt><trkpt lat="64.11597443" lon="-19.82377815"><ele>142.0</ele><time>2012-07-21T11:43:39.0000000+00:00</time></trkpt><trkpt lat="64.11611176" lon="-19.82368088"><ele>142.2</ele><time>2012-07-21T11:43:44.0000000+00:00</time></trkpt><trkpt lat="64.11624908" lon="-19.82359886"><ele>142.8</ele><time>2012-07-21T11:43:49.0000000+00:00</time></trkpt><trkpt lat="64.11640167" lon="-19.82354546"><ele>143.0</ele><time>2012-07-21T11:43:54.0000000+00:00</time></trkpt><trkpt lat="64.11652374" lon="-19.82348633"><ele>143.6</ele><time>2012-07-21T11:43:59.0000000+00:00</time></trkpt><trkpt lat="64.11663818" lon="-19.82343292"><ele>144.2</ele><time>2012-07-21T11:44:04.0000000+00:00</time></trkpt><trkpt lat="64.11672974" lon="-19.8234005"><ele>144.9</ele><time>2012-07-21T11:44:09.0000000+00:00</time></trkpt><trkpt lat="64.1167984" lon="-19.82339668"><ele>145.3</ele><time>2012-07-21T11:44:14.0000000+00:00</time></trkpt><trkpt lat="64.1168747" lon="-19.82334709"><ele>145.8</ele><time>2012-07-21T11:44:19.0000000+00:00</time></trkpt><trkpt lat="64.11696625" lon="-19.82332802"><ele>146.2</ele><time>2012-07-21T11:44:24.0000000+00:00</time></trkpt><trkpt lat="64.11706543" lon="-19.82330895"><ele>146.9</ele><time>2012-07-21T11:44:29.0000000+00:00</time></trkpt><trkpt lat="64.11717224" lon="-19.8232708"><ele>147.5</ele><time>2012-07-21T11:44:34.0000000+00:00</time></trkpt><trkpt lat="64.11730194" lon="-19.82321739"><ele>147.7</ele><time>2012-07-21T11:44:39.0000000+00:00</time></trkpt><trkpt lat="64.11743164" lon="-19.82317162"><ele>147.7</ele><time>2012-07-21T11:44:44.0000000+00:00</time></trkpt><trkpt lat="64.11759949" lon="-19.82306671"><ele>147.9</ele><time>2012-07-21T11:44:49.0000000+00:00</time></trkpt><trkpt lat="64.11775971" lon="-19.82290459"><ele>148.0</ele><time>2012-07-21T11:44:54.0000000+00:00</time></trkpt><trkpt lat="64.11792755" lon="-19.82274056"><ele>148.4</ele><time>2012-07-21T11:44:59.0000000+00:00</time></trkpt><trkpt lat="64.11808014" lon="-19.82257843"><ele>148.6</ele><time>2012-07-21T11:45:04.0000000+00:00</time></trkpt><trkpt lat="64.11824036" lon="-19.82242966"><ele>149.4</ele><time>2012-07-21T11:45:09.0000000+00:00</time></trkpt><trkpt lat="64.11834717" lon="-19.82231522"><ele>149.8</ele><time>2012-07-21T11:45:14.0000000+00:00</time></trkpt><trkpt lat="64.11846161" lon="-19.82219315"><ele>149.6</ele><time>2012-07-21T11:45:19.0000000+00:00</time></trkpt><trkpt lat="64.11854553" lon="-19.82206535"><ele>149.2</ele><time>2012-07-21T11:45:24.0000000+00:00</time></trkpt><trkpt lat="64.11862183" lon="-19.82200241"><ele>149.5</ele><time>2012-07-21T11:45:29.0000000+00:00</time></trkpt><trkpt lat="64.11865234" lon="-19.82193375"><ele>150.6</ele><time>2012-07-21T11:45:34.0000000+00:00</time></trkpt><trkpt lat="64.11865234" lon="-19.82191658"><ele>151.3</ele><time>2012-07-21T11:45:39.0000000+00:00</time></trkpt><trkpt lat="64.11864471" lon="-19.82189179"><ele>150.0</ele><time>2012-07-21T11:45:44.0000000+00:00</time></trkpt><trkpt lat="64.11864471" lon="-19.82189179"><ele>150.0</ele><time>2012-07-21T11:45:49.0000000+00:00</time></trkpt><trkpt lat="64.11864471" lon="-19.82189179"><ele>149.9</ele><time>2012-07-21T11:45:54.0000000+00:00</time></trkpt><trkpt lat="64.11864471" lon="-19.82189179"><ele>149.9</ele><time>2012-07-21T11:45:59.0000000+00:00</time></trkpt><trkpt lat="64.11864471" lon="-19.82189179"><ele>149.9</ele><time>2012-07-21T11:46:04.0000000+00:00</time></trkpt><trkpt lat="64.11864471" lon="-19.82189179"><ele>149.9</ele><time>2012-07-21T11:46:09.0000000+00:00</time></trkpt><trkpt lat="64.11864471" lon="-19.82189179"><ele>149.9</ele><time>2012-07-21T11:46:14.0000000+00:00</time></trkpt><trkpt lat="64.11864471" lon="-19.82189179"><ele>149.9</ele><time>2012-07-21T11:46:19.0000000+00:00</time></trkpt><trkpt lat="64.11864471" lon="-19.82189179"><ele>149.9</ele><time>2012-07-21T11:46:24.0000000+00:00</time></trkpt><trkpt lat="64.11864471" lon="-19.82189179"><ele>149.9</ele><time>2012-07-21T11:46:29.0000000+00:00</time></trkpt><trkpt lat="64.11864471" lon="-19.82189179"><ele>149.9</ele><time>2012-07-21T11:46:34.0000000+00:00</time></trkpt><trkpt lat="64.11864471" lon="-19.82189179"><ele>149.9</ele><time>2012-07-21T11:46:39.0000000+00:00</time></trkpt><trkpt lat="64.11864471" lon="-19.82189179"><ele>150.0</ele><time>2012-07-21T11:46:44.0000000+00:00</time></trkpt><trkpt lat="64.11864471" lon="-19.82189179"><ele>150.0</ele><time>2012-07-21T11:46:49.0000000+00:00</time></trkpt><trkpt lat="64.11864471" lon="-19.82189179"><ele>150.0</ele><time>2012-07-21T11:46:54.0000000+00:00</time></trkpt><trkpt lat="64.11864471" lon="-19.82189179"><ele>150.0</ele><time>2012-07-21T11:46:59.0000000+00:00</time></trkpt><trkpt lat="64.11864471" lon="-19.82189179"><ele>150.0</ele><time>2012-07-21T11:47:04.0000000+00:00</time></trkpt><trkpt lat="64.11864471" lon="-19.82189179"><ele>150.0</ele><time>2012-07-21T11:47:09.0000000+00:00</time></trkpt><trkpt lat="64.11864471" lon="-19.82189179"><ele>150.0</ele><time>2012-07-21T11:47:14.0000000+00:00</time></trkpt><trkpt lat="64.11864471" lon="-19.82189179"><ele>150.0</ele><time>2012-07-21T11:47:19.0000000+00:00</time></trkpt><trkpt lat="64.11864471" lon="-19.82189179"><ele>150.0</ele><time>2012-07-21T11:47:24.0000000+00:00</time></trkpt><trkpt lat="64.11864471" lon="-19.82189179"><ele>150.0</ele><time>2012-07-21T11:47:29.0000000+00:00</time></trkpt><trkpt lat="64.11864471" lon="-19.82189179"><ele>150.0</ele><time>2012-07-21T11:47:34.0000000+00:00</time></trkpt><trkpt lat="64.11864471" lon="-19.82189179"><ele>150.0</ele><time>2012-07-21T11:47:39.0000000+00:00</time></trkpt><trkpt lat="64.11864471" lon="-19.82189179"><ele>150.0</ele><time>2012-07-21T11:47:44.0000000+00:00</time></trkpt><trkpt lat="64.11864471" lon="-19.82189179"><ele>150.0</ele><time>2012-07-21T11:47:49.0000000+00:00</time></trkpt><trkpt lat="64.11864471" lon="-19.82189179"><ele>150.0</ele><time>2012-07-21T11:47:54.0000000+00:00</time></trkpt><trkpt lat="64.11864471" lon="-19.82189179"><ele>150.0</ele><time>2012-07-21T11:47:59.0000000+00:00</time></trkpt><trkpt lat="64.11864471" lon="-19.82189179"><ele>150.0</ele><time>2012-07-21T11:48:04.0000000+00:00</time></trkpt><trkpt lat="64.11864471" lon="-19.82189179"><ele>150.0</ele><time>2012-07-21T11:48:09.0000000+00:00</time></trkpt><trkpt lat="64.11864471" lon="-19.82189179"><ele>150.1</ele><time>2012-07-21T11:48:14.0000000+00:00</time></trkpt><trkpt lat="64.11864471" lon="-19.82189179"><ele>150.1</ele><time>2012-07-21T11:48:19.0000000+00:00</time></trkpt><trkpt lat="64.11864471" lon="-19.82189179"><ele>150.1</ele><time>2012-07-21T11:48:24.0000000+00:00</time></trkpt><trkpt lat="64.11864471" lon="-19.82189179"><ele>150.1</ele><time>2012-07-21T11:48:29.0000000+00:00</time></trkpt><trkpt lat="64.11864471" lon="-19.82189179"><ele>150.1</ele><time>2012-07-21T11:48:34.0000000+00:00</time></trkpt><trkpt lat="64.11864471" lon="-19.82189179"><ele>150.1</ele><time>2012-07-21T11:48:39.0000000+00:00</time></trkpt><trkpt lat="64.11864471" lon="-19.82189179"><ele>150.1</ele><time>2012-07-21T11:48:44.0000000+00:00</time></trkpt><trkpt lat="64.11864471" lon="-19.82189179"><ele>150.1</ele><time>2012-07-21T11:48:49.0000000+00:00</time></trkpt><trkpt lat="64.11864471" lon="-19.82189179"><ele>150.1</ele><time>2012-07-21T11:48:54.0000000+00:00</time></trkpt><trkpt lat="64.11864471" lon="-19.82189179"><ele>150.1</ele><time>2012-07-21T11:48:59.0000000+00:00</time></trkpt><trkpt lat="64.11864471" lon="-19.82189179"><ele>150.1</ele><time>2012-07-21T11:49:04.0000000+00:00</time></trkpt><trkpt lat="64.11864471" lon="-19.82189179"><ele>150.1</ele><time>2012-07-21T11:49:09.0000000+00:00</time></trkpt><trkpt lat="64.11864471" lon="-19.82189179"><ele>150.1</ele><time>2012-07-21T11:49:14.0000000+00:00</time></trkpt><trkpt lat="64.11864471" lon="-19.82189179"><ele>150.1</ele><time>2012-07-21T11:49:19.0000000+00:00</time></trkpt><trkpt lat="64.11864471" lon="-19.82189179"><ele>150.1</ele><time>2012-07-21T11:49:24.0000000+00:00</time></trkpt><trkpt lat="64.11864471" lon="-19.82189179"><ele>150.1</ele><time>2012-07-21T11:49:29.0000000+00:00</time></trkpt><trkpt lat="64.11864471" lon="-19.82189179"><ele>150.1</ele><time>2012-07-21T11:49:34.0000000+00:00</time></trkpt><trkpt lat="64.11864471" lon="-19.82189179"><ele>150.1</ele><time>2012-07-21T11:49:39.0000000+00:00</time></trkpt><trkpt lat="64.11864471" lon="-19.82189179"><ele>150.1</ele><time>2012-07-21T11:49:44.0000000+00:00</time></trkpt><trkpt lat="64.11864471" lon="-19.82189179"><ele>150.2</ele><time>2012-07-21T11:49:49.0000000+00:00</time></trkpt><trkpt lat="64.11864471" lon="-19.82189179"><ele>150.2</ele><time>2012-07-21T11:49:54.0000000+00:00</time></trkpt><trkpt lat="64.11864471" lon="-19.82189179"><ele>150.2</ele><time>2012-07-21T11:49:59.0000000+00:00</time></trkpt><trkpt lat="64.11864471" lon="-19.82189179"><ele>150.2</ele><time>2012-07-21T11:50:04.0000000+00:00</time></trkpt><trkpt lat="64.11864471" lon="-19.82189179"><ele>150.2</ele><time>2012-07-21T11:50:09.0000000+00:00</time></trkpt><trkpt lat="64.11864471" lon="-19.82189179"><ele>150.2</ele><time>2012-07-21T11:50:14.0000000+00:00</time></trkpt><trkpt lat="64.11864471" lon="-19.82189179"><ele>150.2</ele><time>2012-07-21T11:50:19.0000000+00:00</time></trkpt><trkpt lat="64.11864471" lon="-19.82189179"><ele>150.2</ele><time>2012-07-21T11:50:24.0000000+00:00</time></trkpt><trkpt lat="64.11864471" lon="-19.82189179"><ele>150.2</ele><time>2012-07-21T11:50:29.0000000+00:00</time></trkpt><trkpt lat="64.11864471" lon="-19.82189179"><ele>150.2</ele><time>2012-07-21T11:50:34.0000000+00:00</time></trkpt><trkpt lat="64.11864471" lon="-19.82189179"><ele>150.2</ele><time>2012-07-21T11:50:39.0000000+00:00</time></trkpt><trkpt lat="64.11864471" lon="-19.82189179"><ele>150.2</ele><time>2012-07-21T11:50:44.0000000+00:00</time></trkpt><trkpt lat="64.11864471" lon="-19.82189179"><ele>150.2</ele><time>2012-07-21T11:50:49.0000000+00:00</time></trkpt><trkpt lat="64.11864471" lon="-19.82189179"><ele>150.2</ele><time>2012-07-21T11:50:54.0000000+00:00</time></trkpt><trkpt lat="64.11864471" lon="-19.82189179"><ele>150.2</ele><time>2012-07-21T11:50:59.0000000+00:00</time></trkpt><trkpt lat="64.11864471" lon="-19.82189179"><ele>150.2</ele><time>2012-07-21T11:51:04.0000000+00:00</time></trkpt><trkpt lat="64.11864471" lon="-19.82189179"><ele>150.3</ele><time>2012-07-21T11:51:09.0000000+00:00</time></trkpt><trkpt lat="64.11864471" lon="-19.82189179"><ele>150.3</ele><time>2012-07-21T11:51:14.0000000+00:00</time></trkpt><trkpt lat="64.11864471" lon="-19.82189179"><ele>150.3</ele><time>2012-07-21T11:51:19.0000000+00:00</time></trkpt><trkpt lat="64.11864471" lon="-19.82189179"><ele>150.3</ele><time>2012-07-21T11:51:24.0000000+00:00</time></trkpt><trkpt lat="64.11864471" lon="-19.82189179"><ele>150.3</ele><time>2012-07-21T11:51:29.0000000+00:00</time></trkpt><trkpt lat="64.11864471" lon="-19.82189179"><ele>150.3</ele><time>2012-07-21T11:51:34.0000000+00:00</time></trkpt><trkpt lat="64.11864471" lon="-19.82189179"><ele>150.3</ele><time>2012-07-21T11:51:39.0000000+00:00</time></trkpt><trkpt lat="64.11864471" lon="-19.82189179"><ele>150.3</ele><time>2012-07-21T11:51:44.0000000+00:00</time></trkpt><trkpt lat="64.11864471" lon="-19.82189179"><ele>150.3</ele><time>2012-07-21T11:51:49.0000000+00:00</time></trkpt><trkpt lat="64.11864471" lon="-19.82189179"><ele>150.3</ele><time>2012-07-21T11:51:54.0000000+00:00</time></trkpt><trkpt lat="64.11864471" lon="-19.82189179"><ele>150.3</ele><time>2012-07-21T11:51:59.0000000+00:00</time></trkpt><trkpt lat="64.11864471" lon="-19.82189179"><ele>150.3</ele><time>2012-07-21T11:52:04.0000000+00:00</time></trkpt><trkpt lat="64.11864471" lon="-19.82189179"><ele>150.3</ele><time>2012-07-21T11:52:09.0000000+00:00</time></trkpt><trkpt lat="64.11864471" lon="-19.82189179"><ele>150.3</ele><time>2012-07-21T11:52:14.0000000+00:00</time></trkpt><trkpt lat="64.11864471" lon="-19.82189179"><ele>150.3</ele><time>2012-07-21T11:52:19.0000000+00:00</time></trkpt><trkpt lat="64.11864471" lon="-19.82189179"><ele>150.3</ele><time>2012-07-21T11:52:24.0000000+00:00</time></trkpt><trkpt lat="64.11864471" lon="-19.82189179"><ele>150.3</ele><time>2012-07-21T11:52:29.0000000+00:00</time></trkpt><trkpt lat="64.11864471" lon="-19.82189179"><ele>150.3</ele><time>2012-07-21T11:52:34.0000000+00:00</time></trkpt><trkpt lat="64.11864471" lon="-19.82189179"><ele>150.3</ele><time>2012-07-21T11:52:39.0000000+00:00</time></trkpt><trkpt lat="64.11864471" lon="-19.82189179"><ele>150.3</ele><time>2012-07-21T11:52:44.0000000+00:00</time></trkpt><trkpt lat="64.11864471" lon="-19.82189179"><ele>150.3</ele><time>2012-07-21T11:52:49.0000000+00:00</time></trkpt><trkpt lat="64.11864471" lon="-19.82189179"><ele>150.4</ele><time>2012-07-21T11:52:54.0000000+00:00</time></trkpt><trkpt lat="64.11864471" lon="-19.82189179"><ele>150.4</ele><time>2012-07-21T11:52:59.0000000+00:00</time></trkpt><trkpt lat="64.11865234" lon="-19.82189179"><ele>150.4</ele><time>2012-07-21T11:53:04.0000000+00:00</time></trkpt><trkpt lat="64.11865234" lon="-19.82189179"><ele>150.4</ele><time>2012-07-21T11:53:09.0000000+00:00</time></trkpt><trkpt lat="64.11865234" lon="-19.82189179"><ele>150.4</ele><time>2012-07-21T11:53:14.0000000+00:00</time></trkpt><trkpt lat="64.11865234" lon="-19.82189179"><ele>150.4</ele><time>2012-07-21T11:53:19.0000000+00:00</time></trkpt><trkpt lat="64.11865234" lon="-19.82189179"><ele>150.4</ele><time>2012-07-21T11:53:24.0000000+00:00</time></trkpt><trkpt lat="64.11865234" lon="-19.82189179"><ele>150.5</ele><time>2012-07-21T11:53:29.0000000+00:00</time></trkpt><trkpt lat="64.11865234" lon="-19.82189179"><ele>150.5</ele><time>2012-07-21T11:53:34.0000000+00:00</time></trkpt><trkpt lat="64.11865234" lon="-19.82189179"><ele>150.5</ele><time>2012-07-21T11:53:39.0000000+00:00</time></trkpt><trkpt lat="64.11865234" lon="-19.82189179"><ele>150.5</ele><time>2012-07-21T11:53:44.0000000+00:00</time></trkpt><trkpt lat="64.11865234" lon="-19.82189179"><ele>150.5</ele><time>2012-07-21T11:53:49.0000000+00:00</time></trkpt><trkpt lat="64.11865234" lon="-19.82189179"><ele>150.5</ele><time>2012-07-21T11:53:54.0000000+00:00</time></trkpt><trkpt lat="64.11865234" lon="-19.82189179"><ele>150.5</ele><time>2012-07-21T11:53:59.0000000+00:00</time></trkpt><trkpt lat="64.11865234" lon="-19.82189179"><ele>150.5</ele><time>2012-07-21T11:54:04.0000000+00:00</time></trkpt><trkpt lat="64.11865234" lon="-19.82189179"><ele>150.6</ele><time>2012-07-21T11:54:09.0000000+00:00</time></trkpt><trkpt lat="64.11865234" lon="-19.82188988"><ele>150.6</ele><time>2012-07-21T11:54:14.0000000+00:00</time></trkpt><trkpt lat="64.11865234" lon="-19.82188988"><ele>150.6</ele><time>2012-07-21T11:54:19.0000000+00:00</time></trkpt><trkpt lat="64.11865234" lon="-19.82188988"><ele>150.6</ele><time>2012-07-21T11:54:24.0000000+00:00</time></trkpt><trkpt lat="64.11865234" lon="-19.82188988"><ele>150.6</ele><time>2012-07-21T11:54:29.0000000+00:00</time></trkpt><trkpt lat="64.11865234" lon="-19.82188988"><ele>150.6</ele><time>2012-07-21T11:54:34.0000000+00:00</time></trkpt><trkpt lat="64.11865234" lon="-19.82188988"><ele>150.7</ele><time>2012-07-21T11:54:39.0000000+00:00</time></trkpt><trkpt lat="64.11865234" lon="-19.82188988"><ele>150.7</ele><time>2012-07-21T11:54:44.0000000+00:00</time></trkpt><trkpt lat="64.11865234" lon="-19.82188988"><ele>150.7</ele><time>2012-07-21T11:54:49.0000000+00:00</time></trkpt><trkpt lat="64.11865234" lon="-19.82188797"><ele>150.7</ele><time>2012-07-21T11:54:54.0000000+00:00</time></trkpt><trkpt lat="64.11865234" lon="-19.82188797"><ele>150.7</ele><time>2012-07-21T11:54:59.0000000+00:00</time></trkpt><trkpt lat="64.11865234" lon="-19.82188797"><ele>150.7</ele><time>2012-07-21T11:55:04.0000000+00:00</time></trkpt><trkpt lat="64.11865234" lon="-19.82188797"><ele>150.7</ele><time>2012-07-21T11:55:09.0000000+00:00</time></trkpt><trkpt lat="64.11865234" lon="-19.82188797"><ele>150.8</ele><time>2012-07-21T11:55:14.0000000+00:00</time></trkpt><trkpt lat="64.11865234" lon="-19.82188797"><ele>150.8</ele><time>2012-07-21T11:55:19.0000000+00:00</time></trkpt><trkpt lat="64.11865234" lon="-19.82188797"><ele>150.8</ele><time>2012-07-21T11:55:24.0000000+00:00</time></trkpt><trkpt lat="64.11865234" lon="-19.82188797"><ele>150.8</ele><time>2012-07-21T11:55:29.0000000+00:00</time></trkpt><trkpt lat="64.11865234" lon="-19.82188797"><ele>150.8</ele><time>2012-07-21T11:55:34.0000000+00:00</time></trkpt><trkpt lat="64.11865234" lon="-19.82188797"><ele>150.8</ele><time>2012-07-21T11:55:39.0000000+00:00</time></trkpt><trkpt lat="64.11865234" lon="-19.82188797"><ele>150.8</ele><time>2012-07-21T11:55:44.0000000+00:00</time></trkpt><trkpt lat="64.11865234" lon="-19.82188797"><ele>150.8</ele><time>2012-07-21T11:55:49.0000000+00:00</time></trkpt><trkpt lat="64.11865234" lon="-19.82188797"><ele>150.8</ele><time>2012-07-21T11:55:54.0000000+00:00</time></trkpt><trkpt lat="64.11865234" lon="-19.82188797"><ele>150.8</ele><time>2012-07-21T11:55:59.0000000+00:00</time></trkpt><trkpt lat="64.11865234" lon="-19.82188797"><ele>150.8</ele><time>2012-07-21T11:56:04.0000000+00:00</time></trkpt><trkpt lat="64.11865234" lon="-19.82188606"><ele>150.8</ele><time>2012-07-21T11:56:09.0000000+00:00</time></trkpt><trkpt lat="64.11865234" lon="-19.82188606"><ele>150.8</ele><time>2012-07-21T11:56:14.0000000+00:00</time></trkpt><trkpt lat="64.11865234" lon="-19.82188606"><ele>150.8</ele><time>2012-07-21T11:56:19.0000000+00:00</time></trkpt><trkpt lat="64.11865234" lon="-19.82188606"><ele>150.8</ele><time>2012-07-21T11:56:24.0000000+00:00</time></trkpt><trkpt lat="64.11865234" lon="-19.82188606"><ele>150.9</ele><time>2012-07-21T11:56:29.0000000+00:00</time></trkpt><trkpt lat="64.11865234" lon="-19.82188606"><ele>150.9</ele><time>2012-07-21T11:56:34.0000000+00:00</time></trkpt><trkpt lat="64.11865234" lon="-19.82188606"><ele>150.9</ele><time>2012-07-21T11:56:39.0000000+00:00</time></trkpt><trkpt lat="64.11865234" lon="-19.82188606"><ele>150.9</ele><time>2012-07-21T11:56:44.0000000+00:00</time></trkpt><trkpt lat="64.11865234" lon="-19.82188606"><ele>150.9</ele><time>2012-07-21T11:56:49.0000000+00:00</time></trkpt><trkpt lat="64.11865234" lon="-19.82188606"><ele>150.9</ele><time>2012-07-21T11:56:54.0000000+00:00</time></trkpt><trkpt lat="64.11865234" lon="-19.82188606"><ele>150.9</ele><time>2012-07-21T11:56:59.0000000+00:00</time></trkpt><trkpt lat="64.11865234" lon="-19.82188606"><ele>150.9</ele><time>2012-07-21T11:57:04.0000000+00:00</time></trkpt><trkpt lat="64.11865234" lon="-19.82188606"><ele>150.9</ele><time>2012-07-21T11:57:09.0000000+00:00</time></trkpt><trkpt lat="64.11865234" lon="-19.82188606"><ele>150.9</ele><time>2012-07-21T11:57:14.0000000+00:00</time></trkpt><trkpt lat="64.11865234" lon="-19.82188606"><ele>150.9</ele><time>2012-07-21T11:57:19.0000000+00:00</time></trkpt><trkpt lat="64.11865234" lon="-19.82188606"><ele>150.9</ele><time>2012-07-21T11:57:24.0000000+00:00</time></trkpt><trkpt lat="64.11865234" lon="-19.82188606"><ele>150.9</ele><time>2012-07-21T11:57:29.0000000+00:00</time></trkpt><trkpt lat="64.11865234" lon="-19.82188606"><ele>150.9</ele><time>2012-07-21T11:57:34.0000000+00:00</time></trkpt><trkpt lat="64.11865234" lon="-19.82188606"><ele>150.9</ele><time>2012-07-21T11:57:39.0000000+00:00</time></trkpt><trkpt lat="64.11865234" lon="-19.82188606"><ele>150.9</ele><time>2012-07-21T11:57:44.0000000+00:00</time></trkpt><trkpt lat="64.11865234" lon="-19.82188606"><ele>150.9</ele><time>2012-07-21T11:57:49.0000000+00:00</time></trkpt><trkpt lat="64.11865234" lon="-19.82188606"><ele>150.9</ele><time>2012-07-21T11:57:54.0000000+00:00</time></trkpt><trkpt lat="64.11865234" lon="-19.82188606"><ele>150.9</ele><time>2012-07-21T11:57:59.0000000+00:00</time></trkpt><trkpt lat="64.11865234" lon="-19.82188606"><ele>150.9</ele><time>2012-07-21T11:58:04.0000000+00:00</time></trkpt><trkpt lat="64.11865234" lon="-19.82188606"><ele>150.9</ele><time>2012-07-21T11:58:09.0000000+00:00</time></trkpt><trkpt lat="64.11865234" lon="-19.82188606"><ele>150.9</ele><time>2012-07-21T11:58:14.0000000+00:00</time></trkpt><trkpt lat="64.11865234" lon="-19.82188416"><ele>150.9</ele><time>2012-07-21T11:58:19.0000000+00:00</time></trkpt><trkpt lat="64.11865234" lon="-19.82188416"><ele>150.9</ele><time>2012-07-21T11:58:24.0000000+00:00</time></trkpt><trkpt lat="64.11865234" lon="-19.82188416"><ele>150.9</ele><time>2012-07-21T11:58:29.0000000+00:00</time></trkpt><trkpt lat="64.11865234" lon="-19.82188416"><ele>150.9</ele><time>2012-07-21T11:58:34.0000000+00:00</time></trkpt><trkpt lat="64.11865234" lon="-19.82188416"><ele>150.9</ele><time>2012-07-21T11:58:39.0000000+00:00</time></trkpt><trkpt lat="64.11865234" lon="-19.82188416"><ele>150.9</ele><time>2012-07-21T11:58:44.0000000+00:00</time></trkpt><trkpt lat="64.11865234" lon="-19.82188416"><ele>151.0</ele><time>2012-07-21T11:58:49.0000000+00:00</time></trkpt><trkpt lat="64.11865234" lon="-19.82188416"><ele>151.0</ele><time>2012-07-21T11:58:54.0000000+00:00</time></trkpt><trkpt lat="64.11865234" lon="-19.82188416"><ele>151.0</ele><time>2012-07-21T11:58:59.0000000+00:00</time></trkpt><trkpt lat="64.11865234" lon="-19.82188416"><ele>151.0</ele><time>2012-07-21T11:59:04.0000000+00:00</time></trkpt><trkpt lat="64.11865234" lon="-19.82188416"><ele>151.0</ele><time>2012-07-21T11:59:09.0000000+00:00</time></trkpt><trkpt lat="64.11865234" lon="-19.82188416"><ele>151.0</ele><time>2012-07-21T11:59:14.0000000+00:00</time></trkpt><trkpt lat="64.11865234" lon="-19.82188416"><ele>151.0</ele><time>2012-07-21T11:59:19.0000000+00:00</time></trkpt><trkpt lat="64.11865234" lon="-19.82188416"><ele>151.0</ele><time>2012-07-21T11:59:24.0000000+00:00</time></trkpt><trkpt lat="64.11865234" lon="-19.82188416"><ele>151.0</ele><time>2012-07-21T11:59:29.0000000+00:00</time></trkpt><trkpt lat="64.11865234" lon="-19.82188416"><ele>151.0</ele><time>2012-07-21T11:59:34.0000000+00:00</time></trkpt><trkpt lat="64.11865234" lon="-19.82188416"><ele>151.0</ele><time>2012-07-21T11:59:39.0000000+00:00</time></trkpt><trkpt lat="64.11865234" lon="-19.82188416"><ele>151.0</ele><time>2012-07-21T11:59:44.0000000+00:00</time></trkpt><trkpt lat="64.11865234" lon="-19.82188416"><ele>151.0</ele><time>2012-07-21T11:59:49.0000000+00:00</time></trkpt><trkpt lat="64.11865234" lon="-19.82188416"><ele>151.0</ele><time>2012-07-21T11:59:54.0000000+00:00</time></trkpt><trkpt lat="64.11865234" lon="-19.82188416"><ele>151.0</ele><time>2012-07-21T11:59:59.0000000+00:00</time></trkpt><trkpt lat="64.11865234" lon="-19.82188416"><ele>151.0</ele><time>2012-07-21T12:00:04.0000000+00:00</time></trkpt><trkpt lat="64.11865234" lon="-19.82188416"><ele>151.0</ele><time>2012-07-21T12:00:09.0000000+00:00</time></trkpt><trkpt lat="64.11865234" lon="-19.82188416"><ele>151.0</ele><time>2012-07-21T12:00:14.0000000+00:00</time></trkpt><trkpt lat="64.11865234" lon="-19.82188416"><ele>151.0</ele><time>2012-07-21T12:00:19.0000000+00:00</time></trkpt><trkpt lat="64.11865234" lon="-19.82188416"><ele>151.0</ele><time>2012-07-21T12:00:24.0000000+00:00</time></trkpt><trkpt lat="64.11865234" lon="-19.82188416"><ele>151.0</ele><time>2012-07-21T12:00:29.0000000+00:00</time></trkpt><trkpt lat="64.11865234" lon="-19.82188416"><ele>151.0</ele><time>2012-07-21T12:00:34.0000000+00:00</time></trkpt><trkpt lat="64.11865234" lon="-19.82188416"><ele>151.0</ele><time>2012-07-21T12:00:39.0000000+00:00</time></trkpt><trkpt lat="64.11865234" lon="-19.82188416"><ele>151.0</ele><time>2012-07-21T12:00:44.0000000+00:00</time></trkpt><trkpt lat="64.11865234" lon="-19.82188416"><ele>151.1</ele><time>2012-07-21T12:00:49.0000000+00:00</time></trkpt><trkpt lat="64.11865234" lon="-19.82188416"><ele>151.1</ele><time>2012-07-21T12:00:54.0000000+00:00</time></trkpt><trkpt lat="64.11865234" lon="-19.82188416"><ele>151.1</ele><time>2012-07-21T12:00:59.0000000+00:00</time></trkpt><trkpt lat="64.11865234" lon="-19.82188416"><ele>151.1</ele><time>2012-07-21T12:01:04.0000000+00:00</time></trkpt><trkpt lat="64.11865234" lon="-19.82188416"><ele>151.1</ele><time>2012-07-21T12:01:09.0000000+00:00</time></trkpt><trkpt lat="64.11865234" lon="-19.82188416"><ele>151.1</ele><time>2012-07-21T12:01:14.0000000+00:00</time></trkpt><trkpt lat="64.11865234" lon="-19.82188416"><ele>151.1</ele><time>2012-07-21T12:01:19.0000000+00:00</time></trkpt><trkpt lat="64.11865234" lon="-19.82188225"><ele>151.1</ele><time>2012-07-21T12:01:24.0000000+00:00</time></trkpt><trkpt lat="64.11865234" lon="-19.82188225"><ele>151.1</ele><time>2012-07-21T12:01:29.0000000+00:00</time></trkpt><trkpt lat="64.11865234" lon="-19.82188225"><ele>151.1</ele><time>2012-07-21T12:01:34.0000000+00:00</time></trkpt><trkpt lat="64.11865234" lon="-19.82188225"><ele>151.1</ele><time>2012-07-21T12:01:39.0000000+00:00</time></trkpt><trkpt lat="64.11865234" lon="-19.82188225"><ele>151.1</ele><time>2012-07-21T12:01:44.0000000+00:00</time></trkpt><trkpt lat="64.11865234" lon="-19.82188225"><ele>151.1</ele><time>2012-07-21T12:01:49.0000000+00:00</time></trkpt><trkpt lat="64.11865234" lon="-19.82188225"><ele>151.1</ele><time>2012-07-21T12:01:54.0000000+00:00</time></trkpt><trkpt lat="64.11865997" lon="-19.82188225"><ele>151.2</ele><time>2012-07-21T12:01:59.0000000+00:00</time></trkpt><trkpt lat="64.11865997" lon="-19.82188225"><ele>151.2</ele><time>2012-07-21T12:02:04.0000000+00:00</time></trkpt><trkpt lat="64.11865997" lon="-19.82188225"><ele>151.2</ele><time>2012-07-21T12:02:09.0000000+00:00</time></trkpt><trkpt lat="64.11865997" lon="-19.82188225"><ele>151.2</ele><time>2012-07-21T12:02:14.0000000+00:00</time></trkpt><trkpt lat="64.11865997" lon="-19.82188225"><ele>151.2</ele><time>2012-07-21T12:02:19.0000000+00:00</time></trkpt><trkpt lat="64.11865997" lon="-19.82188225"><ele>151.2</ele><time>2012-07-21T12:02:24.0000000+00:00</time></trkpt><trkpt lat="64.11865997" lon="-19.82188225"><ele>151.2</ele><time>2012-07-21T12:02:29.0000000+00:00</time></trkpt><trkpt lat="64.11865997" lon="-19.82188225"><ele>151.2</ele><time>2012-07-21T12:02:34.0000000+00:00</time></trkpt><trkpt lat="64.11865997" lon="-19.82188225"><ele>151.2</ele><time>2012-07-21T12:02:39.0000000+00:00</time></trkpt><trkpt lat="64.11865997" lon="-19.82188225"><ele>151.2</ele><time>2012-07-21T12:02:44.0000000+00:00</time></trkpt><trkpt lat="64.11865997" lon="-19.82188225"><ele>151.2</ele><time>2012-07-21T12:02:49.0000000+00:00</time></trkpt><trkpt lat="64.11865997" lon="-19.82188225"><ele>151.2</ele><time>2012-07-21T12:02:54.0000000+00:00</time></trkpt><trkpt lat="64.11865997" lon="-19.82188225"><ele>151.2</ele><time>2012-07-21T12:02:59.0000000+00:00</time></trkpt><trkpt lat="64.11865997" lon="-19.82188225"><ele>151.2</ele><time>2012-07-21T12:03:04.0000000+00:00</time></trkpt><trkpt lat="64.11865997" lon="-19.82188034"><ele>151.2</ele><time>2012-07-21T12:03:09.0000000+00:00</time></trkpt><trkpt lat="64.11865997" lon="-19.82188034"><ele>151.2</ele><time>2012-07-21T12:03:14.0000000+00:00</time></trkpt><trkpt lat="64.11865997" lon="-19.82188034"><ele>151.2</ele><time>2012-07-21T12:03:19.0000000+00:00</time></trkpt><trkpt lat="64.11865997" lon="-19.82188034"><ele>151.2</ele><time>2012-07-21T12:03:24.0000000+00:00</time></trkpt><trkpt lat="64.11865997" lon="-19.82188034"><ele>151.2</ele><time>2012-07-21T12:03:29.0000000+00:00</time></trkpt><trkpt lat="64.11865997" lon="-19.82188034"><ele>151.2</ele><time>2012-07-21T12:03:34.0000000+00:00</time></trkpt><trkpt lat="64.11865997" lon="-19.82188034"><ele>151.3</ele><time>2012-07-21T12:03:39.0000000+00:00</time></trkpt><trkpt lat="64.11865997" lon="-19.82188034"><ele>151.3</ele><time>2012-07-21T12:03:44.0000000+00:00</time></trkpt><trkpt lat="64.11865997" lon="-19.82188034"><ele>151.3</ele><time>2012-07-21T12:03:49.0000000+00:00</time></trkpt><trkpt lat="64.11865997" lon="-19.82188034"><ele>151.3</ele><time>2012-07-21T12:03:54.0000000+00:00</time></trkpt><trkpt lat="64.11865997" lon="-19.82188034"><ele>151.3</ele><time>2012-07-21T12:03:59.0000000+00:00</time></trkpt><trkpt lat="64.11865997" lon="-19.82188034"><ele>151.3</ele><time>2012-07-21T12:04:04.0000000+00:00</time></trkpt><trkpt lat="64.11865997" lon="-19.82188034"><ele>151.3</ele><time>2012-07-21T12:04:09.0000000+00:00</time></trkpt><trkpt lat="64.11865997" lon="-19.82188034"><ele>151.3</ele><time>2012-07-21T12:04:14.0000000+00:00</time></trkpt><trkpt lat="64.11865997" lon="-19.82187843"><ele>151.3</ele><time>2012-07-21T12:04:19.0000000+00:00</time></trkpt><trkpt lat="64.11865997" lon="-19.82187843"><ele>151.3</ele><time>2012-07-21T12:04:24.0000000+00:00</time></trkpt><trkpt lat="64.11865997" lon="-19.82187843"><ele>151.3</ele><time>2012-07-21T12:04:29.0000000+00:00</time></trkpt><trkpt lat="64.11865997" lon="-19.82187843"><ele>151.3</ele><time>2012-07-21T12:04:34.0000000+00:00</time></trkpt><trkpt lat="64.11865997" lon="-19.82187843"><ele>151.3</ele><time>2012-07-21T12:04:39.0000000+00:00</time></trkpt><trkpt lat="64.11865997" lon="-19.82187843"><ele>151.3</ele><time>2012-07-21T12:04:44.0000000+00:00</time></trkpt><trkpt lat="64.11865997" lon="-19.82187843"><ele>151.3</ele><time>2012-07-21T12:04:49.0000000+00:00</time></trkpt><trkpt lat="64.11865997" lon="-19.82187843"><ele>151.3</ele><time>2012-07-21T12:04:54.0000000+00:00</time></trkpt><trkpt lat="64.11865997" lon="-19.82187843"><ele>151.3</ele><time>2012-07-21T12:04:59.0000000+00:00</time></trkpt><trkpt lat="64.11865997" lon="-19.82187843"><ele>151.3</ele><time>2012-07-21T12:05:04.0000000+00:00</time></trkpt><trkpt lat="64.11865997" lon="-19.82187653"><ele>151.3</ele><time>2012-07-21T12:05:09.0000000+00:00</time></trkpt><trkpt lat="64.11865997" lon="-19.82187653"><ele>151.4</ele><time>2012-07-21T12:05:14.0000000+00:00</time></trkpt><trkpt lat="64.11865997" lon="-19.82187653"><ele>151.4</ele><time>2012-07-21T12:05:19.0000000+00:00</time></trkpt><trkpt lat="64.11865997" lon="-19.82187653"><ele>151.4</ele><time>2012-07-21T12:05:24.0000000+00:00</time></trkpt><trkpt lat="64.11865997" lon="-19.82187653"><ele>151.4</ele><time>2012-07-21T12:05:29.0000000+00:00</time></trkpt><trkpt lat="64.11865997" lon="-19.82187653"><ele>151.4</ele><time>2012-07-21T12:05:34.0000000+00:00</time></trkpt><trkpt lat="64.11865997" lon="-19.82187462"><ele>151.4</ele><time>2012-07-21T12:05:39.0000000+00:00</time></trkpt><trkpt lat="64.11865997" lon="-19.82187462"><ele>151.4</ele><time>2012-07-21T12:05:44.0000000+00:00</time></trkpt><trkpt lat="64.11865997" lon="-19.82187462"><ele>151.4</ele><time>2012-07-21T12:05:49.0000000+00:00</time></trkpt><trkpt lat="64.11865997" lon="-19.82187462"><ele>151.4</ele><time>2012-07-21T12:05:54.0000000+00:00</time></trkpt><trkpt lat="64.11865997" lon="-19.82187462"><ele>151.4</ele><time>2012-07-21T12:05:59.0000000+00:00</time></trkpt><trkpt lat="64.11865997" lon="-19.82187462"><ele>151.5</ele><time>2012-07-21T12:06:04.0000000+00:00</time></trkpt><trkpt lat="64.11865997" lon="-19.82187271"><ele>151.5</ele><time>2012-07-21T12:06:09.0000000+00:00</time></trkpt><trkpt lat="64.11865997" lon="-19.82187271"><ele>151.5</ele><time>2012-07-21T12:06:14.0000000+00:00</time></trkpt><trkpt lat="64.11865997" lon="-19.82187271"><ele>151.5</ele><time>2012-07-21T12:06:19.0000000+00:00</time></trkpt><trkpt lat="64.11865997" lon="-19.82187271"><ele>151.5</ele><time>2012-07-21T12:06:24.0000000+00:00</time></trkpt><trkpt lat="64.11865997" lon="-19.82187271"><ele>151.5</ele><time>2012-07-21T12:06:29.0000000+00:00</time></trkpt><trkpt lat="64.11865997" lon="-19.82187271"><ele>151.5</ele><time>2012-07-21T12:06:34.0000000+00:00</time></trkpt><trkpt lat="64.11865997" lon="-19.82187271"><ele>151.5</ele><time>2012-07-21T12:06:39.0000000+00:00</time></trkpt><trkpt lat="64.11865997" lon="-19.8218708"><ele>151.5</ele><time>2012-07-21T12:06:44.0000000+00:00</time></trkpt><trkpt lat="64.11865997" lon="-19.8218708"><ele>151.6</ele><time>2012-07-21T12:06:49.0000000+00:00</time></trkpt><trkpt lat="64.11865997" lon="-19.8218708"><ele>151.6</ele><time>2012-07-21T12:06:54.0000000+00:00</time></trkpt><trkpt lat="64.11865997" lon="-19.8218708"><ele>151.6</ele><time>2012-07-21T12:06:59.0000000+00:00</time></trkpt><trkpt lat="64.11865997" lon="-19.8218708"><ele>151.6</ele><time>2012-07-21T12:07:04.0000000+00:00</time></trkpt><trkpt lat="64.11865997" lon="-19.8218708"><ele>151.6</ele><time>2012-07-21T12:07:09.0000000+00:00</time></trkpt><trkpt lat="64.11865997" lon="-19.8218708"><ele>151.6</ele><time>2012-07-21T12:07:14.0000000+00:00</time></trkpt><trkpt lat="64.11865997" lon="-19.8218708"><ele>151.6</ele><time>2012-07-21T12:07:19.0000000+00:00</time></trkpt><trkpt lat="64.11865997" lon="-19.8218689"><ele>151.6</ele><time>2012-07-21T12:07:24.0000000+00:00</time></trkpt><trkpt lat="64.11865997" lon="-19.8218689"><ele>151.6</ele><time>2012-07-21T12:07:29.0000000+00:00</time></trkpt><trkpt lat="64.11865997" lon="-19.8218689"><ele>151.6</ele><time>2012-07-21T12:07:34.0000000+00:00</time></trkpt><trkpt lat="64.11865997" lon="-19.8218689"><ele>151.6</ele><time>2012-07-21T12:07:39.0000000+00:00</time></trkpt><trkpt lat="64.11865997" lon="-19.8218689"><ele>151.6</ele><time>2012-07-21T12:07:44.0000000+00:00</time></trkpt><trkpt lat="64.11865997" lon="-19.8218689"><ele>151.6</ele><time>2012-07-21T12:07:49.0000000+00:00</time></trkpt><trkpt lat="64.11865997" lon="-19.8218689"><ele>151.6</ele><time>2012-07-21T12:07:54.0000000+00:00</time></trkpt><trkpt lat="64.11865997" lon="-19.8218689"><ele>151.6</ele><time>2012-07-21T12:07:59.0000000+00:00</time></trkpt><trkpt lat="64.11865997" lon="-19.8218689"><ele>151.7</ele><time>2012-07-21T12:08:04.0000000+00:00</time></trkpt><trkpt lat="64.11865997" lon="-19.8218689"><ele>151.7</ele><time>2012-07-21T12:08:09.0000000+00:00</time></trkpt><trkpt lat="64.11865997" lon="-19.8218689"><ele>151.7</ele><time>2012-07-21T12:08:14.0000000+00:00</time></trkpt><trkpt lat="64.11865997" lon="-19.8218689"><ele>151.7</ele><time>2012-07-21T12:08:19.0000000+00:00</time></trkpt><trkpt lat="64.11865997" lon="-19.82186699"><ele>151.7</ele><time>2012-07-21T12:08:24.0000000+00:00</time></trkpt><trkpt lat="64.11865997" lon="-19.82186699"><ele>151.7</ele><time>2012-07-21T12:08:29.0000000+00:00</time></trkpt><trkpt lat="64.11865997" lon="-19.82186699"><ele>151.7</ele><time>2012-07-21T12:08:34.0000000+00:00</time></trkpt><trkpt lat="64.11865997" lon="-19.82186699"><ele>151.7</ele><time>2012-07-21T12:08:39.0000000+00:00</time></trkpt><trkpt lat="64.11865997" lon="-19.82186699"><ele>151.7</ele><time>2012-07-21T12:08:44.0000000+00:00</time></trkpt><trkpt lat="64.11865997" lon="-19.82186699"><ele>151.7</ele><time>2012-07-21T12:08:49.0000000+00:00</time></trkpt><trkpt lat="64.11865997" lon="-19.82186699"><ele>151.7</ele><time>2012-07-21T12:08:54.0000000+00:00</time></trkpt><trkpt lat="64.11865997" lon="-19.82186699"><ele>151.8</ele><time>2012-07-21T12:08:59.0000000+00:00</time></trkpt><trkpt lat="64.11865997" lon="-19.82186699"><ele>151.8</ele><time>2012-07-21T12:09:04.0000000+00:00</time></trkpt><trkpt lat="64.11865997" lon="-19.82186699"><ele>151.8</ele><time>2012-07-21T12:09:09.0000000+00:00</time></trkpt><trkpt lat="64.11865997" lon="-19.82186699"><ele>151.8</ele><time>2012-07-21T12:09:14.0000000+00:00</time></trkpt><trkpt lat="64.11865997" lon="-19.82186699"><ele>151.8</ele><time>2012-07-21T12:09:19.0000000+00:00</time></trkpt><trkpt lat="64.11865997" lon="-19.82186508"><ele>151.8</ele><time>2012-07-21T12:09:24.0000000+00:00</time></trkpt><trkpt lat="64.11865997" lon="-19.82186508"><ele>151.8</ele><time>2012-07-21T12:09:29.0000000+00:00</time></trkpt><trkpt lat="64.11865997" lon="-19.82186508"><ele>151.8</ele><time>2012-07-21T12:09:34.0000000+00:00</time></trkpt><trkpt lat="64.11865997" lon="-19.82186508"><ele>151.8</ele><time>2012-07-21T12:09:39.0000000+00:00</time></trkpt><trkpt lat="64.11865997" lon="-19.82186699"><ele>151.8</ele><time>2012-07-21T12:09:44.0000000+00:00</time></trkpt><trkpt lat="64.11865997" lon="-19.82186508"><ele>151.8</ele><time>2012-07-21T12:09:49.0000000+00:00</time></trkpt><trkpt lat="64.11865997" lon="-19.82186508"><ele>151.8</ele><time>2012-07-21T12:09:54.0000000+00:00</time></trkpt><trkpt lat="64.11865997" lon="-19.82186508"><ele>151.8</ele><time>2012-07-21T12:09:59.0000000+00:00</time></trkpt><trkpt lat="64.11865997" lon="-19.82186508"><ele>151.9</ele><time>2012-07-21T12:10:04.0000000+00:00</time></trkpt><trkpt lat="64.11865997" lon="-19.82186508"><ele>151.9</ele><time>2012-07-21T12:10:09.0000000+00:00</time></trkpt><trkpt lat="64.11865997" lon="-19.82186508"><ele>151.9</ele><time>2012-07-21T12:10:14.0000000+00:00</time></trkpt><trkpt lat="64.11865997" lon="-19.82186508"><ele>151.9</ele><time>2012-07-21T12:10:19.0000000+00:00</time></trkpt><trkpt lat="64.11865997" lon="-19.82186508"><ele>151.9</ele><time>2012-07-21T12:10:24.0000000+00:00</time></trkpt><trkpt lat="64.11865997" lon="-19.82186508"><ele>151.9</ele><time>2012-07-21T12:10:29.0000000+00:00</time></trkpt><trkpt lat="64.11865997" lon="-19.82186508"><ele>151.9</ele><time>2012-07-21T12:10:34.0000000+00:00</time></trkpt><trkpt lat="64.11865997" lon="-19.82186508"><ele>151.9</ele><time>2012-07-21T12:10:39.0000000+00:00</time></trkpt><trkpt lat="64.11865997" lon="-19.82186508"><ele>151.9</ele><time>2012-07-21T12:10:44.0000000+00:00</time></trkpt><trkpt lat="64.11865997" lon="-19.82186699"><ele>151.9</ele><time>2012-07-21T12:10:49.0000000+00:00</time></trkpt><trkpt lat="64.11865997" lon="-19.82186699"><ele>151.9</ele><time>2012-07-21T12:10:54.0000000+00:00</time></trkpt><trkpt lat="64.11865997" lon="-19.82186699"><ele>151.9</ele><time>2012-07-21T12:10:59.0000000+00:00</time></trkpt><trkpt lat="64.11865997" lon="-19.82186699"><ele>152.0</ele><time>2012-07-21T12:11:04.0000000+00:00</time></trkpt><trkpt lat="64.11865997" lon="-19.82186699"><ele>152.0</ele><time>2012-07-21T12:11:09.0000000+00:00</time></trkpt><trkpt lat="64.11865997" lon="-19.82186699"><ele>152.0</ele><time>2012-07-21T12:11:14.0000000+00:00</time></trkpt><trkpt lat="64.11865997" lon="-19.82186699"><ele>152.0</ele><time>2012-07-21T12:11:19.0000000+00:00</time></trkpt><trkpt lat="64.11865997" lon="-19.82186699"><ele>152.0</ele><time>2012-07-21T12:11:24.0000000+00:00</time></trkpt><trkpt lat="64.11865997" lon="-19.82186699"><ele>152.0</ele><time>2012-07-21T12:11:29.0000000+00:00</time></trkpt><trkpt lat="64.11865997" lon="-19.82186699"><ele>152.0</ele><time>2012-07-21T12:11:34.0000000+00:00</time></trkpt><trkpt lat="64.11865997" lon="-19.82186699"><ele>152.0</ele><time>2012-07-21T12:11:39.0000000+00:00</time></trkpt><trkpt lat="64.11865997" lon="-19.82186699"><ele>152.0</ele><time>2012-07-21T12:11:44.0000000+00:00</time></trkpt><trkpt lat="64.11865997" lon="-19.82186699"><ele>152.0</ele><time>2012-07-21T12:11:49.0000000+00:00</time></trkpt><trkpt lat="64.11865997" lon="-19.82186699"><ele>152.0</ele><time>2012-07-21T12:11:54.0000000+00:00</time></trkpt><trkpt lat="64.11865997" lon="-19.82186699"><ele>152.0</ele><time>2012-07-21T12:11:59.0000000+00:00</time></trkpt><trkpt lat="64.11865997" lon="-19.82186699"><ele>152.0</ele><time>2012-07-21T12:12:04.0000000+00:00</time></trkpt><trkpt lat="64.11865997" lon="-19.82186699"><ele>152.0</ele><time>2012-07-21T12:12:09.0000000+00:00</time></trkpt><trkpt lat="64.11865997" lon="-19.8218689"><ele>152.0</ele><time>2012-07-21T12:12:14.0000000+00:00</time></trkpt><trkpt lat="64.11865997" lon="-19.8218689"><ele>152.0</ele><time>2012-07-21T12:12:19.0000000+00:00</time></trkpt><trkpt lat="64.11865997" lon="-19.8218689"><ele>152.0</ele><time>2012-07-21T12:12:24.0000000+00:00</time></trkpt><trkpt lat="64.11865997" lon="-19.8218689"><ele>152.0</ele><time>2012-07-21T12:12:29.0000000+00:00</time></trkpt><trkpt lat="64.11865997" lon="-19.8218689"><ele>152.0</ele><time>2012-07-21T12:12:34.0000000+00:00</time></trkpt><trkpt lat="64.11865997" lon="-19.8218689"><ele>152.1</ele><time>2012-07-21T12:12:39.0000000+00:00</time></trkpt><trkpt lat="64.11865997" lon="-19.8218689"><ele>152.1</ele><time>2012-07-21T12:12:44.0000000+00:00</time></trkpt><trkpt lat="64.11865997" lon="-19.8218689"><ele>152.1</ele><time>2012-07-21T12:12:49.0000000+00:00</time></trkpt><trkpt lat="64.11865997" lon="-19.8218689"><ele>152.1</ele><time>2012-07-21T12:12:54.0000000+00:00</time></trkpt><trkpt lat="64.11865997" lon="-19.8218689"><ele>152.1</ele><time>2012-07-21T12:12:59.0000000+00:00</time></trkpt><trkpt lat="64.11865997" lon="-19.8218689"><ele>152.1</ele><time>2012-07-21T12:13:04.0000000+00:00</time></trkpt><trkpt lat="64.11865997" lon="-19.8218689"><ele>152.1</ele><time>2012-07-21T12:13:09.0000000+00:00</time></trkpt><trkpt lat="64.11865997" lon="-19.8218689"><ele>152.1</ele><time>2012-07-21T12:13:14.0000000+00:00</time></trkpt><trkpt lat="64.11865997" lon="-19.8218689"><ele>152.1</ele><time>2012-07-21T12:13:19.0000000+00:00</time></trkpt><trkpt lat="64.11865997" lon="-19.8218708"><ele>152.1</ele><time>2012-07-21T12:13:24.0000000+00:00</time></trkpt><trkpt lat="64.11865997" lon="-19.8218708"><ele>152.1</ele><time>2012-07-21T12:13:29.0000000+00:00</time></trkpt><trkpt lat="64.11865997" lon="-19.8218708"><ele>152.2</ele><time>2012-07-21T12:13:34.0000000+00:00</time></trkpt><trkpt lat="64.11865997" lon="-19.8218708"><ele>152.2</ele><time>2012-07-21T12:13:39.0000000+00:00</time></trkpt><trkpt lat="64.11865997" lon="-19.8218708"><ele>152.2</ele><time>2012-07-21T12:13:44.0000000+00:00</time></trkpt><trkpt lat="64.11865997" lon="-19.8218708"><ele>152.3</ele><time>2012-07-21T12:13:49.0000000+00:00</time></trkpt><trkpt lat="64.11865997" lon="-19.8218708"><ele>152.3</ele><time>2012-07-21T12:13:54.0000000+00:00</time></trkpt><trkpt lat="64.11865997" lon="-19.8218708"><ele>152.3</ele><time>2012-07-21T12:13:59.0000000+00:00</time></trkpt><trkpt lat="64.11865997" lon="-19.8218708"><ele>152.4</ele><time>2012-07-21T12:14:04.0000000+00:00</time></trkpt><trkpt lat="64.11865997" lon="-19.8218708"><ele>152.4</ele><time>2012-07-21T12:14:09.0000000+00:00</time></trkpt><trkpt lat="64.11865997" lon="-19.82187271"><ele>152.4</ele><time>2012-07-21T12:14:14.0000000+00:00</time></trkpt><trkpt lat="64.11865997" lon="-19.82187271"><ele>152.4</ele><time>2012-07-21T12:14:19.0000000+00:00</time></trkpt><trkpt lat="64.11865997" lon="-19.82187271"><ele>152.4</ele><time>2012-07-21T12:14:24.0000000+00:00</time></trkpt><trkpt lat="64.11865997" lon="-19.82187271"><ele>152.5</ele><time>2012-07-21T12:14:29.0000000+00:00</time></trkpt><trkpt lat="64.11865997" lon="-19.82187271"><ele>152.5</ele><time>2012-07-21T12:14:34.0000000+00:00</time></trkpt><trkpt lat="64.11865997" lon="-19.82187271"><ele>152.5</ele><time>2012-07-21T12:14:39.0000000+00:00</time></trkpt><trkpt lat="64.11865997" lon="-19.82187271"><ele>152.5</ele><time>2012-07-21T12:14:44.0000000+00:00</time></trkpt><trkpt lat="64.1186676" lon="-19.82189751"><ele>153.4</ele><time>2012-07-21T12:14:49.0000000+00:00</time></trkpt><trkpt lat="64.11864471" lon="-19.82194901"><ele>154.4</ele><time>2012-07-21T12:14:54.0000000+00:00</time></trkpt><trkpt lat="64.11857605" lon="-19.82206726"><ele>154.7</ele><time>2012-07-21T12:14:59.0000000+00:00</time></trkpt><trkpt lat="64.11849976" lon="-19.82225037"><ele>154.5</ele><time>2012-07-21T12:15:04.0000000+00:00</time></trkpt><trkpt lat="64.1183548" lon="-19.82234955"><ele>154.6</ele><time>2012-07-21T12:15:09.0000000+00:00</time></trkpt><trkpt lat="64.11820984" lon="-19.82250404"><ele>154.4</ele><time>2012-07-21T12:15:14.0000000+00:00</time></trkpt><trkpt lat="64.11804199" lon="-19.82267571"><ele>154.2</ele><time>2012-07-21T12:15:19.0000000+00:00</time></trkpt><trkpt lat="64.1178894" lon="-19.82283783"><ele>154.1</ele><time>2012-07-21T12:15:24.0000000+00:00</time></trkpt><trkpt lat="64.11773682" lon="-19.82300568"><ele>154.2</ele><time>2012-07-21T12:15:29.0000000+00:00</time></trkpt><trkpt lat="64.11756134" lon="-19.82313538"><ele>154.4</ele><time>2012-07-21T12:15:34.0000000+00:00</time></trkpt><trkpt lat="64.11740875" lon="-19.82321739"><ele>154.4</ele><time>2012-07-21T12:15:39.0000000+00:00</time></trkpt><trkpt lat="64.11725617" lon="-19.82329369"><ele>154.3</ele><time>2012-07-21T12:15:44.0000000+00:00</time></trkpt><trkpt lat="64.11707306" lon="-19.82335854"><ele>153.4</ele><time>2012-07-21T12:15:49.0000000+00:00</time></trkpt><trkpt lat="64.11682892" lon="-19.82341957"><ele>152.0</ele><time>2012-07-21T12:15:54.0000000+00:00</time></trkpt><trkpt lat="64.11651611" lon="-19.82352638"><ele>150.3</ele><time>2012-07-21T12:15:59.0000000+00:00</time></trkpt><trkpt lat="64.11620331" lon="-19.82367706"><ele>148.9</ele><time>2012-07-21T12:16:04.0000000+00:00</time></trkpt><trkpt lat="64.11592865" lon="-19.82387161"><ele>148.5</ele><time>2012-07-21T12:16:09.0000000+00:00</time></trkpt><trkpt lat="64.11572266" lon="-19.82416344"><ele>147.5</ele><time>2012-07-21T12:16:14.0000000+00:00</time></trkpt><trkpt lat="64.1155777" lon="-19.82452583"><ele>147.0</ele><time>2012-07-21T12:16:19.0000000+00:00</time></trkpt><trkpt lat="64.11548615" lon="-19.82496643"><ele>147.6</ele><time>2012-07-21T12:16:24.0000000+00:00</time></trkpt><trkpt lat="64.115448" lon="-19.82549858"><ele>148.2</ele><time>2012-07-21T12:16:29.0000000+00:00</time></trkpt><trkpt lat="64.11549377" lon="-19.82602882"><ele>149.8</ele><time>2012-07-21T12:16:34.0000000+00:00</time></trkpt><trkpt lat="64.11557007" lon="-19.82648087"><ele>151.2</ele><time>2012-07-21T12:16:39.0000000+00:00</time></trkpt><trkpt lat="64.1156311" lon="-19.82696152"><ele>151.0</ele><time>2012-07-21T12:16:44.0000000+00:00</time></trkpt><trkpt lat="64.11569214" lon="-19.82752228"><ele>151.4</ele><time>2012-07-21T12:16:49.0000000+00:00</time></trkpt><trkpt lat="64.11574554" lon="-19.82808113"><ele>151.9</ele><time>2012-07-21T12:16:54.0000000+00:00</time></trkpt><trkpt lat="64.11579132" lon="-19.8285656"><ele>152.3</ele><time>2012-07-21T12:16:59.0000000+00:00</time></trkpt><trkpt lat="64.1158371" lon="-19.82900238"><ele>152.2</ele><time>2012-07-21T12:17:04.0000000+00:00</time></trkpt><trkpt lat="64.11580658" lon="-19.82940674"><ele>152.3</ele><time>2012-07-21T12:17:09.0000000+00:00</time></trkpt><trkpt lat="64.11560059" lon="-19.8296833"><ele>150.9</ele><time>2012-07-21T12:17:14.0000000+00:00</time></trkpt><trkpt lat="64.11530304" lon="-19.82995796"><ele>148.6</ele><time>2012-07-21T12:17:19.0000000+00:00</time></trkpt><trkpt lat="64.11498261" lon="-19.83024979"><ele>146.7</ele><time>2012-07-21T12:17:24.0000000+00:00</time></trkpt><trkpt lat="64.11466217" lon="-19.830513"><ele>145.6</ele><time>2012-07-21T12:17:29.0000000+00:00</time></trkpt><trkpt lat="64.11437225" lon="-19.83077622"><ele>145.8</ele><time>2012-07-21T12:17:34.0000000+00:00</time></trkpt><trkpt lat="64.11412048" lon="-19.83098412"><ele>145.7</ele><time>2012-07-21T12:17:39.0000000+00:00</time></trkpt><trkpt lat="64.11389923" lon="-19.8311367"><ele>144.6</ele><time>2012-07-21T12:17:44.0000000+00:00</time></trkpt><trkpt lat="64.11380005" lon="-19.83117676"><ele>143.8</ele><time>2012-07-21T12:17:49.0000000+00:00</time></trkpt><trkpt lat="64.1137085" lon="-19.83101082"><ele>142.9</ele><time>2012-07-21T12:17:54.0000000+00:00</time></trkpt><trkpt lat="64.1136322" lon="-19.83082581"><ele>142.8</ele><time>2012-07-21T12:17:59.0000000+00:00</time></trkpt><trkpt lat="64.11357117" lon="-19.83066177"><ele>141.6</ele><time>2012-07-21T12:18:04.0000000+00:00</time></trkpt><trkpt lat="64.11354828" lon="-19.83056641"><ele>140.7</ele><time>2012-07-21T12:18:09.0000000+00:00</time></trkpt><trkpt lat="64.11356354" lon="-19.83063889"><ele>141.0</ele><time>2012-07-21T12:18:14.0000000+00:00</time></trkpt><trkpt lat="64.11356354" lon="-19.83062744"><ele>141.0</ele><time>2012-07-21T12:18:19.0000000+00:00</time></trkpt><trkpt lat="64.11357117" lon="-19.83064079"><ele>140.9</ele><time>2012-07-21T12:18:24.0000000+00:00</time></trkpt><trkpt lat="64.1136322" lon="-19.8307991"><ele>141.8</ele><time>2012-07-21T12:18:29.0000000+00:00</time></trkpt><trkpt lat="64.11370087" lon="-19.83098984"><ele>142.9</ele><time>2012-07-21T12:18:34.0000000+00:00</time></trkpt><trkpt lat="64.1137085" lon="-19.83121872"><ele>142.8</ele><time>2012-07-21T12:18:39.0000000+00:00</time></trkpt><trkpt lat="64.11354828" lon="-19.83137512"><ele>141.4</ele><time>2012-07-21T12:18:44.0000000+00:00</time></trkpt><trkpt lat="64.11325836" lon="-19.83165169"><ele>138.8</ele><time>2012-07-21T12:18:49.0000000+00:00</time></trkpt><trkpt lat="64.112854" lon="-19.83204269"><ele>135.7</ele><time>2012-07-21T12:18:54.0000000+00:00</time></trkpt><trkpt lat="64.11241913" lon="-19.83244515"><ele>135.8</ele><time>2012-07-21T12:18:59.0000000+00:00</time></trkpt><trkpt lat="64.11206055" lon="-19.83284569"><ele>137.0</ele><time>2012-07-21T12:19:04.0000000+00:00</time></trkpt><trkpt lat="64.11181641" lon="-19.83322716"><ele>137.9</ele><time>2012-07-21T12:19:09.0000000+00:00</time></trkpt><trkpt lat="64.11161041" lon="-19.8336525"><ele>138.9</ele><time>2012-07-21T12:19:14.0000000+00:00</time></trkpt><trkpt lat="64.11140442" lon="-19.83408737"><ele>139.3</ele><time>2012-07-21T12:19:19.0000000+00:00</time></trkpt><trkpt lat="64.11119843" lon="-19.83452225"><ele>139.3</ele><time>2012-07-21T12:19:24.0000000+00:00</time></trkpt><trkpt lat="64.1109848" lon="-19.83496094"><ele>139.6</ele><time>2012-07-21T12:19:29.0000000+00:00</time></trkpt><trkpt lat="64.11074066" lon="-19.83533859"><ele>139.7</ele><time>2012-07-21T12:19:34.0000000+00:00</time></trkpt><trkpt lat="64.110466" lon="-19.8355732"><ele>139.8</ele><time>2012-07-21T12:19:39.0000000+00:00</time></trkpt><trkpt lat="64.11016846" lon="-19.8357029"><ele>139.2</ele><time>2012-07-21T12:19:44.0000000+00:00</time></trkpt><trkpt lat="64.10985565" lon="-19.83582878"><ele>139.1</ele><time>2012-07-21T12:19:49.0000000+00:00</time></trkpt><trkpt lat="64.10955048" lon="-19.83592987"><ele>139.2</ele><time>2012-07-21T12:19:54.0000000+00:00</time></trkpt><trkpt lat="64.1092453" lon="-19.8359642"><ele>139.1</ele><time>2012-07-21T12:19:59.0000000+00:00</time></trkpt><trkpt lat="64.10894775" lon="-19.83593941"><ele>137.6</ele><time>2012-07-21T12:20:04.0000000+00:00</time></trkpt><trkpt lat="64.10866547" lon="-19.835886"><ele>137.3</ele><time>2012-07-21T12:20:09.0000000+00:00</time></trkpt><trkpt lat="64.10836029" lon="-19.8358326"><ele>137.3</ele><time>2012-07-21T12:20:14.0000000+00:00</time></trkpt><trkpt lat="64.108078" lon="-19.8357811"><ele>137.5</ele><time>2012-07-21T12:20:19.0000000+00:00</time></trkpt><trkpt lat="64.1078186" lon="-19.83573914"><ele>137.3</ele><time>2012-07-21T12:20:24.0000000+00:00</time></trkpt><trkpt lat="64.10755158" lon="-19.83568573"><ele>136.9</ele><time>2012-07-21T12:20:29.0000000+00:00</time></trkpt><trkpt lat="64.10727692" lon="-19.83562279"><ele>136.5</ele><time>2012-07-21T12:20:34.0000000+00:00</time></trkpt><trkpt lat="64.10704041" lon="-19.83553124"><ele>136.2</ele><time>2012-07-21T12:20:39.0000000+00:00</time></trkpt><trkpt lat="64.10680389" lon="-19.83543015"><ele>136.0</ele><time>2012-07-21T12:20:44.0000000+00:00</time></trkpt><trkpt lat="64.10655212" lon="-19.83533287"><ele>136.0</ele><time>2012-07-21T12:20:49.0000000+00:00</time></trkpt><trkpt lat="64.10629273" lon="-19.83523941"><ele>135.7</ele><time>2012-07-21T12:20:54.0000000+00:00</time></trkpt><trkpt lat="64.10604858" lon="-19.8351326"><ele>135.1</ele><time>2012-07-21T12:20:59.0000000+00:00</time></trkpt><trkpt lat="64.10583496" lon="-19.83500862"><ele>135.0</ele><time>2012-07-21T12:21:04.0000000+00:00</time></trkpt><trkpt lat="64.10565186" lon="-19.83482552"><ele>134.6</ele><time>2012-07-21T12:21:09.0000000+00:00</time></trkpt><trkpt lat="64.10560608" lon="-19.83452034"><ele>134.3</ele><time>2012-07-21T12:21:14.0000000+00:00</time></trkpt><trkpt lat="64.10556793" lon="-19.83430481"><ele>134.3</ele><time>2012-07-21T12:21:19.0000000+00:00</time></trkpt><trkpt lat="64.10553742" lon="-19.8339901"><ele>134.1</ele><time>2012-07-21T12:21:24.0000000+00:00</time></trkpt><trkpt lat="64.10552979" lon="-19.83366966"><ele>134.5</ele><time>2012-07-21T12:21:29.0000000+00:00</time></trkpt><trkpt lat="64.10553742" lon="-19.83355331"><ele>135.0</ele><time>2012-07-21T12:21:34.0000000+00:00</time></trkpt><trkpt lat="64.10554504" lon="-19.8335743"><ele>135.1</ele><time>2012-07-21T12:21:39.0000000+00:00</time></trkpt><trkpt lat="64.10551453" lon="-19.83352089"><ele>135.8</ele><time>2012-07-21T12:21:44.0000000+00:00</time></trkpt><trkpt lat="64.1055069" lon="-19.83350372"><ele>136.0</ele><time>2012-07-21T12:21:49.0000000+00:00</time></trkpt><trkpt lat="64.1055069" lon="-19.83348084"><ele>136.2</ele><time>2012-07-21T12:21:54.0000000+00:00</time></trkpt><trkpt lat="64.10551453" lon="-19.8334465"><ele>136.3</ele><time>2012-07-21T12:21:59.0000000+00:00</time></trkpt><trkpt lat="64.10555267" lon="-19.83340645"><ele>136.4</ele><time>2012-07-21T12:22:04.0000000+00:00</time></trkpt><trkpt lat="64.10559845" lon="-19.8333149"><ele>136.4</ele><time>2012-07-21T12:22:09.0000000+00:00</time></trkpt><trkpt lat="64.10562134" lon="-19.83340454"><ele>136.6</ele><time>2012-07-21T12:22:14.0000000+00:00</time></trkpt><trkpt lat="64.10562134" lon="-19.83346748"><ele>136.7</ele><time>2012-07-21T12:22:19.0000000+00:00</time></trkpt><trkpt lat="64.10559845" lon="-19.83352852"><ele>136.8</ele><time>2012-07-21T12:22:24.0000000+00:00</time></trkpt><trkpt lat="64.10559082" lon="-19.83359909"><ele>136.9</ele><time>2012-07-21T12:22:29.0000000+00:00</time></trkpt><trkpt lat="64.10559082" lon="-19.83369064"><ele>136.8</ele><time>2012-07-21T12:22:34.0000000+00:00</time></trkpt><trkpt lat="64.10557556" lon="-19.83370972"><ele>136.9</ele><time>2012-07-21T12:22:39.0000000+00:00</time></trkpt><trkpt lat="64.10558319" lon="-19.8336792"><ele>137.0</ele><time>2012-07-21T12:22:44.0000000+00:00</time></trkpt><trkpt lat="64.10557556" lon="-19.83367157"><ele>137.1</ele><time>2012-07-21T12:22:49.0000000+00:00</time></trkpt><trkpt lat="64.1055603" lon="-19.83368683"><ele>137.1</ele><time>2012-07-21T12:22:54.0000000+00:00</time></trkpt><trkpt lat="64.10552216" lon="-19.83379746"><ele>137.4</ele><time>2012-07-21T12:22:59.0000000+00:00</time></trkpt><trkpt lat="64.10552216" lon="-19.83388138"><ele>137.8</ele><time>2012-07-21T12:23:04.0000000+00:00</time></trkpt><trkpt lat="64.10553742" lon="-19.83395386"><ele>138.3</ele><time>2012-07-21T12:23:09.0000000+00:00</time></trkpt><trkpt lat="64.10552979" lon="-19.83395767"><ele>138.7</ele><time>2012-07-21T12:23:14.0000000+00:00</time></trkpt><trkpt lat="64.10552979" lon="-19.83394623"><ele>139.0</ele><time>2012-07-21T12:23:19.0000000+00:00</time></trkpt><trkpt lat="64.1055069" lon="-19.83395958"><ele>139.3</ele><time>2012-07-21T12:23:24.0000000+00:00</time></trkpt><trkpt lat="64.10552216" lon="-19.83395577"><ele>139.8</ele><time>2012-07-21T12:23:29.0000000+00:00</time></trkpt><trkpt lat="64.10554504" lon="-19.83391571"><ele>140.1</ele><time>2012-07-21T12:23:34.0000000+00:00</time></trkpt><trkpt lat="64.10554504" lon="-19.83393097"><ele>140.4</ele><time>2012-07-21T12:23:39.0000000+00:00</time></trkpt><trkpt lat="64.10553742" lon="-19.8339138"><ele>140.5</ele><time>2012-07-21T12:23:44.0000000+00:00</time></trkpt><trkpt lat="64.10552979" lon="-19.83390045"><ele>140.5</ele><time>2012-07-21T12:23:49.0000000+00:00</time></trkpt><trkpt lat="64.10552979" lon="-19.83388138"><ele>140.5</ele><time>2012-07-21T12:23:54.0000000+00:00</time></trkpt><trkpt lat="64.10552979" lon="-19.83388329"><ele>140.9</ele><time>2012-07-21T12:23:59.0000000+00:00</time></trkpt><trkpt lat="64.10552216" lon="-19.83384132"><ele>141.1</ele><time>2012-07-21T12:24:04.0000000+00:00</time></trkpt><trkpt lat="64.10549927" lon="-19.83382416"><ele>141.2</ele><time>2012-07-21T12:24:09.0000000+00:00</time></trkpt><trkpt lat="64.10546112" lon="-19.83377266"><ele>141.2</ele><time>2012-07-21T12:24:14.0000000+00:00</time></trkpt><trkpt lat="64.10541534" lon="-19.83371735"><ele>141.2</ele><time>2012-07-21T12:24:19.0000000+00:00</time></trkpt><trkpt lat="64.10535431" lon="-19.83363342"><ele>141.0</ele><time>2012-07-21T12:24:24.0000000+00:00</time></trkpt><trkpt lat="64.10530853" lon="-19.83354569"><ele>140.7</ele><time>2012-07-21T12:24:29.0000000+00:00</time></trkpt><trkpt lat="64.10527802" lon="-19.83351708"><ele>140.5</ele><time>2012-07-21T12:24:34.0000000+00:00</time></trkpt><trkpt lat="64.10527039" lon="-19.83349037"><ele>140.3</ele><time>2012-07-21T12:24:39.0000000+00:00</time></trkpt><trkpt lat="64.10527802" lon="-19.83346939"><ele>140.1</ele><time>2012-07-21T12:24:44.0000000+00:00</time></trkpt><trkpt lat="64.10529327" lon="-19.83347321"><ele>139.8</ele><time>2012-07-21T12:24:49.0000000+00:00</time></trkpt><trkpt lat="64.10531616" lon="-19.8334446"><ele>139.5</ele><time>2012-07-21T12:24:54.0000000+00:00</time></trkpt><trkpt lat="64.1053772" lon="-19.83347321"><ele>139.3</ele><time>2012-07-21T12:24:59.0000000+00:00</time></trkpt><trkpt lat="64.10542297" lon="-19.83348274"><ele>139.0</ele><time>2012-07-21T12:25:04.0000000+00:00</time></trkpt><trkpt lat="64.10545349" lon="-19.83355522"><ele>138.8</ele><time>2012-07-21T12:25:09.0000000+00:00</time></trkpt><trkpt lat="64.10546875" lon="-19.83356667"><ele>138.4</ele><time>2012-07-21T12:25:14.0000000+00:00</time></trkpt><trkpt lat="64.10546112" lon="-19.83359146"><ele>138.2</ele><time>2012-07-21T12:25:19.0000000+00:00</time></trkpt><trkpt lat="64.10546875" lon="-19.8335743"><ele>137.8</ele><time>2012-07-21T12:25:24.0000000+00:00</time></trkpt><trkpt lat="64.10546875" lon="-19.83359909"><ele>137.8</ele><time>2012-07-21T12:25:29.0000000+00:00</time></trkpt><trkpt lat="64.10546112" lon="-19.83358955"><ele>137.8</ele><time>2012-07-21T12:25:34.0000000+00:00</time></trkpt><trkpt lat="64.10546875" lon="-19.83359146"><ele>137.7</ele><time>2012-07-21T12:25:39.0000000+00:00</time></trkpt><trkpt lat="64.10546875" lon="-19.83363152"><ele>137.7</ele><time>2012-07-21T12:25:44.0000000+00:00</time></trkpt><trkpt lat="64.10546875" lon="-19.83363152"><ele>137.7</ele><time>2012-07-21T12:25:49.0000000+00:00</time></trkpt><trkpt lat="64.1054306" lon="-19.83362007"><ele>137.7</ele><time>2012-07-21T12:25:54.0000000+00:00</time></trkpt><trkpt lat="64.10539246" lon="-19.83351326"><ele>137.3</ele><time>2012-07-21T12:25:59.0000000+00:00</time></trkpt><trkpt lat="64.1053772" lon="-19.83345223"><ele>137.1</ele><time>2012-07-21T12:26:04.0000000+00:00</time></trkpt><trkpt lat="64.10535431" lon="-19.83339691"><ele>136.9</ele><time>2012-07-21T12:26:09.0000000+00:00</time></trkpt><trkpt lat="64.10538483" lon="-19.83347511"><ele>137.4</ele><time>2012-07-21T12:26:14.0000000+00:00</time></trkpt><trkpt lat="64.1053772" lon="-19.83351135"><ele>137.4</ele><time>2012-07-21T12:26:19.0000000+00:00</time></trkpt><trkpt lat="64.1053772" lon="-19.83348846"><ele>137.2</ele><time>2012-07-21T12:26:24.0000000+00:00</time></trkpt><trkpt lat="64.10539246" lon="-19.8335743"><ele>137.4</ele><time>2012-07-21T12:26:29.0000000+00:00</time></trkpt><trkpt lat="64.10540772" lon="-19.83362961"><ele>137.7</ele><time>2012-07-21T12:26:34.0000000+00:00</time></trkpt><trkpt lat="64.10540009" lon="-19.83363724"><ele>137.7</ele><time>2012-07-21T12:26:39.0000000+00:00</time></trkpt><trkpt lat="64.10541534" lon="-19.8336792"><ele>138.1</ele><time>2012-07-21T12:26:44.0000000+00:00</time></trkpt><trkpt lat="64.1054306" lon="-19.83368301"><ele>138.5</ele><time>2012-07-21T12:26:49.0000000+00:00</time></trkpt><trkpt lat="64.10544586" lon="-19.83369637"><ele>138.8</ele><time>2012-07-21T12:26:54.0000000+00:00</time></trkpt><trkpt lat="64.10544586" lon="-19.8336792"><ele>138.9</ele><time>2012-07-21T12:26:59.0000000+00:00</time></trkpt><trkpt lat="64.10543823" lon="-19.83361816"><ele>138.5</ele><time>2012-07-21T12:27:04.0000000+00:00</time></trkpt><trkpt lat="64.10541534" lon="-19.83358765"><ele>138.2</ele><time>2012-07-21T12:27:09.0000000+00:00</time></trkpt><trkpt lat="64.10541534" lon="-19.8335743"><ele>138.1</ele><time>2012-07-21T12:27:14.0000000+00:00</time></trkpt><trkpt lat="64.10542297" lon="-19.83357239"><ele>138.0</ele><time>2012-07-21T12:27:19.0000000+00:00</time></trkpt><trkpt lat="64.10540009" lon="-19.83361054"><ele>138.1</ele><time>2012-07-21T12:27:24.0000000+00:00</time></trkpt><trkpt lat="64.10540772" lon="-19.83361244"><ele>138.0</ele><time>2012-07-21T12:27:29.0000000+00:00</time></trkpt><trkpt lat="64.10540009" lon="-19.8335495"><ele>137.5</ele><time>2012-07-21T12:27:34.0000000+00:00</time></trkpt><trkpt lat="64.10536957" lon="-19.83348084"><ele>136.9</ele><time>2012-07-21T12:27:39.0000000+00:00</time></trkpt><trkpt lat="64.10538483" lon="-19.8334713"><ele>136.6</ele><time>2012-07-21T12:27:44.0000000+00:00</time></trkpt><trkpt lat="64.1053772" lon="-19.83346558"><ele>136.3</ele><time>2012-07-21T12:27:49.0000000+00:00</time></trkpt><trkpt lat="64.1053772" lon="-19.83341026"><ele>135.9</ele><time>2012-07-21T12:27:54.0000000+00:00</time></trkpt><trkpt lat="64.10538483" lon="-19.83337021"><ele>135.5</ele><time>2012-07-21T12:27:59.0000000+00:00</time></trkpt><trkpt lat="64.10540009" lon="-19.83335304"><ele>135.3</ele><time>2012-07-21T12:28:04.0000000+00:00</time></trkpt><trkpt lat="64.10539246" lon="-19.83335114"><ele>134.9</ele><time>2012-07-21T12:28:09.0000000+00:00</time></trkpt><trkpt lat="64.10538483" lon="-19.83335686"><ele>134.3</ele><time>2012-07-21T12:28:14.0000000+00:00</time></trkpt><trkpt lat="64.10540009" lon="-19.83337212"><ele>133.7</ele><time>2012-07-21T12:28:19.0000000+00:00</time></trkpt><trkpt lat="64.10541534" lon="-19.83338165"><ele>133.6</ele><time>2012-07-21T12:28:24.0000000+00:00</time></trkpt><trkpt lat="64.10541534" lon="-19.83336067"><ele>133.5</ele><time>2012-07-21T12:28:29.0000000+00:00</time></trkpt><trkpt lat="64.10544586" lon="-19.83338356"><ele>133.7</ele><time>2012-07-21T12:28:34.0000000+00:00</time></trkpt><trkpt lat="64.10544586" lon="-19.8333683"><ele>133.7</ele><time>2012-07-21T12:28:39.0000000+00:00</time></trkpt><trkpt lat="64.10545349" lon="-19.83335495"><ele>133.7</ele><time>2012-07-21T12:28:44.0000000+00:00</time></trkpt><trkpt lat="64.10546112" lon="-19.83334351"><ele>133.8</ele><time>2012-07-21T12:28:49.0000000+00:00</time></trkpt><trkpt lat="64.10546875" lon="-19.83333588"><ele>133.9</ele><time>2012-07-21T12:28:54.0000000+00:00</time></trkpt><trkpt lat="64.10549927" lon="-19.83333015"><ele>134.6</ele><time>2012-07-21T12:28:59.0000000+00:00</time></trkpt><trkpt lat="64.1055069" lon="-19.83339119"><ele>136.0</ele><time>2012-07-21T12:29:04.0000000+00:00</time></trkpt><trkpt lat="64.10551453" lon="-19.83340454"><ele>136.1</ele><time>2012-07-21T12:29:09.0000000+00:00</time></trkpt><trkpt lat="64.1055603" lon="-19.83349228"><ele>137.9</ele><time>2012-07-21T12:29:14.0000000+00:00</time></trkpt><trkpt lat="64.10559845" lon="-19.83359718"><ele>139.8</ele><time>2012-07-21T12:29:19.0000000+00:00</time></trkpt><trkpt lat="64.10562134" lon="-19.8336544"><ele>141.3</ele><time>2012-07-21T12:29:24.0000000+00:00</time></trkpt><trkpt lat="64.10560608" lon="-19.83368301"><ele>142.4</ele><time>2012-07-21T12:29:29.0000000+00:00</time></trkpt><trkpt lat="64.10559845" lon="-19.83369255"><ele>142.4</ele><time>2012-07-21T12:29:34.0000000+00:00</time></trkpt><trkpt lat="64.10559082" lon="-19.83368874"><ele>142.4</ele><time>2012-07-21T12:29:39.0000000+00:00</time></trkpt><trkpt lat="64.10559845" lon="-19.83369064"><ele>142.4</ele><time>2012-07-21T12:29:44.0000000+00:00</time></trkpt><trkpt lat="64.10560608" lon="-19.83369064"><ele>142.5</ele><time>2012-07-21T12:29:49.0000000+00:00</time></trkpt><trkpt lat="64.10559845" lon="-19.83369064"><ele>142.5</ele><time>2012-07-21T12:29:54.0000000+00:00</time></trkpt><trkpt lat="64.10559845" lon="-19.83368683"><ele>142.6</ele><time>2012-07-21T12:29:59.0000000+00:00</time></trkpt><trkpt lat="64.10559082" lon="-19.83366966"><ele>142.6</ele><time>2012-07-21T12:30:04.0000000+00:00</time></trkpt><trkpt lat="64.1055603" lon="-19.83365059"><ele>142.8</ele><time>2012-07-21T12:30:09.0000000+00:00</time></trkpt><trkpt lat="64.10551453" lon="-19.83358002"><ele>143.2</ele><time>2012-07-21T12:30:14.0000000+00:00</time></trkpt><trkpt lat="64.10547638" lon="-19.83354378"><ele>143.5</ele><time>2012-07-21T12:30:19.0000000+00:00</time></trkpt><trkpt lat="64.10546112" lon="-19.83348656"><ele>143.4</ele><time>2012-07-21T12:30:24.0000000+00:00</time></trkpt><trkpt lat="64.10546112" lon="-19.83346367"><ele>143.1</ele><time>2012-07-21T12:30:29.0000000+00:00</time></trkpt><trkpt lat="64.10544586" lon="-19.83348846"><ele>142.9</ele><time>2012-07-21T12:30:34.0000000+00:00</time></trkpt><trkpt lat="64.10544586" lon="-19.83355141"><ele>142.9</ele><time>2012-07-21T12:30:39.0000000+00:00</time></trkpt><trkpt lat="64.10545349" lon="-19.83358955"><ele>142.6</ele><time>2012-07-21T12:30:44.0000000+00:00</time></trkpt><trkpt lat="64.10544586" lon="-19.83356285"><ele>142.4</ele><time>2012-07-21T12:30:49.0000000+00:00</time></trkpt><trkpt lat="64.10543823" lon="-19.83353996"><ele>142.3</ele><time>2012-07-21T12:30:54.0000000+00:00</time></trkpt><trkpt lat="64.10543823" lon="-19.83350563"><ele>142.2</ele><time>2012-07-21T12:30:59.0000000+00:00</time></trkpt><trkpt lat="64.10543823" lon="-19.83348274"><ele>142.2</ele><time>2012-07-21T12:31:04.0000000+00:00</time></trkpt><trkpt lat="64.1054306" lon="-19.83346176"><ele>142.1</ele><time>2012-07-21T12:31:09.0000000+00:00</time></trkpt><trkpt lat="64.10542297" lon="-19.83342743"><ele>142.1</ele><time>2012-07-21T12:31:14.0000000+00:00</time></trkpt><trkpt lat="64.10540772" lon="-19.83338928"><ele>141.8</ele><time>2012-07-21T12:31:19.0000000+00:00</time></trkpt><trkpt lat="64.10540009" lon="-19.83337402"><ele>141.8</ele><time>2012-07-21T12:31:24.0000000+00:00</time></trkpt><trkpt lat="64.10540772" lon="-19.83335304"><ele>141.5</ele><time>2012-07-21T12:31:29.0000000+00:00</time></trkpt><trkpt lat="64.10540772" lon="-19.83337021"><ele>141.2</ele><time>2012-07-21T12:31:34.0000000+00:00</time></trkpt><trkpt lat="64.10541534" lon="-19.83337021"><ele>141.1</ele><time>2012-07-21T12:31:39.0000000+00:00</time></trkpt><trkpt lat="64.10541534" lon="-19.83336639"><ele>140.9</ele><time>2012-07-21T12:31:44.0000000+00:00</time></trkpt><trkpt lat="64.10540009" lon="-19.83334351"><ele>140.6</ele><time>2012-07-21T12:31:49.0000000+00:00</time></trkpt><trkpt lat="64.1054306" lon="-19.83334351"><ele>140.8</ele><time>2012-07-21T12:31:54.0000000+00:00</time></trkpt><trkpt lat="64.10543823" lon="-19.83337021"><ele>140.9</ele><time>2012-07-21T12:31:59.0000000+00:00</time></trkpt><trkpt lat="64.10544586" lon="-19.83344841"><ele>141.0</ele><time>2012-07-21T12:32:04.0000000+00:00</time></trkpt><trkpt lat="64.10544586" lon="-19.83349419"><ele>141.0</ele><time>2012-07-21T12:32:09.0000000+00:00</time></trkpt><trkpt lat="64.10544586" lon="-19.83351517"><ele>141.0</ele><time>2012-07-21T12:32:14.0000000+00:00</time></trkpt><trkpt lat="64.10543823" lon="-19.83351326"><ele>141.0</ele><time>2012-07-21T12:32:19.0000000+00:00</time></trkpt><trkpt lat="64.10541534" lon="-19.83346558"><ele>141.0</ele><time>2012-07-21T12:32:24.0000000+00:00</time></trkpt><trkpt lat="64.10540772" lon="-19.83339882"><ele>140.9</ele><time>2012-07-21T12:32:29.0000000+00:00</time></trkpt><trkpt lat="64.10540009" lon="-19.83339119"><ele>140.9</ele><time>2012-07-21T12:32:34.0000000+00:00</time></trkpt><trkpt lat="64.1053772" lon="-19.83337212"><ele>140.8</ele><time>2012-07-21T12:32:39.0000000+00:00</time></trkpt><trkpt lat="64.10536957" lon="-19.83332634"><ele>140.7</ele><time>2012-07-21T12:32:44.0000000+00:00</time></trkpt><trkpt lat="64.10533142" lon="-19.83325005"><ele>140.4</ele><time>2012-07-21T12:32:49.0000000+00:00</time></trkpt><trkpt lat="64.10532379" lon="-19.83328247"><ele>140.4</ele><time>2012-07-21T12:32:54.0000000+00:00</time></trkpt><trkpt lat="64.10533142" lon="-19.83330727"><ele>140.4</ele><time>2012-07-21T12:32:59.0000000+00:00</time></trkpt><trkpt lat="64.10532379" lon="-19.83329582"><ele>140.3</ele><time>2012-07-21T12:33:04.0000000+00:00</time></trkpt><trkpt lat="64.10532379" lon="-19.83328819"><ele>140.3</ele><time>2012-07-21T12:33:09.0000000+00:00</time></trkpt><trkpt lat="64.10533142" lon="-19.83329773"><ele>140.3</ele><time>2012-07-21T12:33:14.0000000+00:00</time></trkpt><trkpt lat="64.10532379" lon="-19.83330917"><ele>140.3</ele><time>2012-07-21T12:33:19.0000000+00:00</time></trkpt><trkpt lat="64.10533142" lon="-19.8333149"><ele>140.2</ele><time>2012-07-21T12:33:24.0000000+00:00</time></trkpt><trkpt lat="64.10533142" lon="-19.83331871"><ele>140.2</ele><time>2012-07-21T12:33:29.0000000+00:00</time></trkpt><trkpt lat="64.10533142" lon="-19.83330727"><ele>140.2</ele><time>2012-07-21T12:33:34.0000000+00:00</time></trkpt><trkpt lat="64.10534668" lon="-19.83330727"><ele>140.2</ele><time>2012-07-21T12:33:39.0000000+00:00</time></trkpt><trkpt lat="64.1053772" lon="-19.83333397"><ele>140.8</ele><time>2012-07-21T12:33:44.0000000+00:00</time></trkpt><trkpt lat="64.10540009" lon="-19.83333015"><ele>141.0</ele><time>2012-07-21T12:33:49.0000000+00:00</time></trkpt><trkpt lat="64.10540772" lon="-19.8333168"><ele>141.0</ele><time>2012-07-21T12:33:54.0000000+00:00</time></trkpt><trkpt lat="64.10541534" lon="-19.83329582"><ele>141.0</ele><time>2012-07-21T12:33:59.0000000+00:00</time></trkpt><trkpt lat="64.10543823" lon="-19.83329201"><ele>142.5</ele><time>2012-07-21T12:34:04.0000000+00:00</time></trkpt><trkpt lat="64.10547638" lon="-19.83333969"><ele>144.1</ele><time>2012-07-21T12:34:09.0000000+00:00</time></trkpt><trkpt lat="64.10548401" lon="-19.83333015"><ele>144.1</ele><time>2012-07-21T12:34:14.0000000+00:00</time></trkpt><trkpt lat="64.10549164" lon="-19.83331871"><ele>144.1</ele><time>2012-07-21T12:34:19.0000000+00:00</time></trkpt><trkpt lat="64.10549927" lon="-19.83330727"><ele>144.1</ele><time>2012-07-21T12:34:24.0000000+00:00</time></trkpt><trkpt lat="64.1055069" lon="-19.83328819"><ele>144.2</ele><time>2012-07-21T12:34:29.0000000+00:00</time></trkpt><trkpt lat="64.10551453" lon="-19.83328056"><ele>144.2</ele><time>2012-07-21T12:34:34.0000000+00:00</time></trkpt><trkpt lat="64.10552216" lon="-19.83328629"><ele>144.8</ele><time>2012-07-21T12:34:39.0000000+00:00</time></trkpt><trkpt lat="64.10553742" lon="-19.83328629"><ele>145.1</ele><time>2012-07-21T12:34:44.0000000+00:00</time></trkpt><trkpt lat="64.10554504" lon="-19.83328247"><ele>145.1</ele><time>2012-07-21T12:34:49.0000000+00:00</time></trkpt><trkpt lat="64.10557556" lon="-19.83330917"><ele>146.0</ele><time>2012-07-21T12:34:54.0000000+00:00</time></trkpt><trkpt lat="64.10558319" lon="-19.83330917"><ele>146.0</ele><time>2012-07-21T12:34:59.0000000+00:00</time></trkpt><trkpt lat="64.10559082" lon="-19.8333149"><ele>146.4</ele><time>2012-07-21T12:35:04.0000000+00:00</time></trkpt><trkpt lat="64.10559845" lon="-19.83332825"><ele>146.9</ele><time>2012-07-21T12:35:09.0000000+00:00</time></trkpt><trkpt lat="64.10559845" lon="-19.83332825"><ele>146.9</ele><time>2012-07-21T12:35:14.0000000+00:00</time></trkpt><trkpt lat="64.10560608" lon="-19.83336639"><ele>147.2</ele><time>2012-07-21T12:35:19.0000000+00:00</time></trkpt><trkpt lat="64.10560608" lon="-19.83337784"><ele>147.3</ele><time>2012-07-21T12:35:24.0000000+00:00</time></trkpt><trkpt lat="64.10559845" lon="-19.833395"><ele>147.4</ele><time>2012-07-21T12:35:29.0000000+00:00</time></trkpt><trkpt lat="64.10559845" lon="-19.83341217"><ele>147.5</ele><time>2012-07-21T12:35:34.0000000+00:00</time></trkpt><trkpt lat="64.10559845" lon="-19.83341026"><ele>147.6</ele><time>2012-07-21T12:35:39.0000000+00:00</time></trkpt><trkpt lat="64.10559845" lon="-19.83340073"><ele>147.6</ele><time>2012-07-21T12:35:44.0000000+00:00</time></trkpt><trkpt lat="64.10558319" lon="-19.83340454"><ele>147.9</ele><time>2012-07-21T12:35:49.0000000+00:00</time></trkpt><trkpt lat="64.10555267" lon="-19.83342171"><ele>148.4</ele><time>2012-07-21T12:35:54.0000000+00:00</time></trkpt><trkpt lat="64.1055603" lon="-19.83341217"><ele>148.7</ele><time>2012-07-21T12:35:59.0000000+00:00</time></trkpt><trkpt lat="64.10554504" lon="-19.83341789"><ele>149.2</ele><time>2012-07-21T12:36:04.0000000+00:00</time></trkpt><trkpt lat="64.10549164" lon="-19.83343124"><ele>149.4</ele><time>2012-07-21T12:36:09.0000000+00:00</time></trkpt><trkpt lat="64.10544586" lon="-19.83348846"><ele>149.7</ele><time>2012-07-21T12:36:14.0000000+00:00</time></trkpt><trkpt lat="64.10540772" lon="-19.8335762"><ele>150.1</ele><time>2012-07-21T12:36:19.0000000+00:00</time></trkpt><trkpt lat="64.10539246" lon="-19.83359337"><ele>150.1</ele><time>2012-07-21T12:36:24.0000000+00:00</time></trkpt><trkpt lat="64.10539246" lon="-19.83358955"><ele>150.1</ele><time>2012-07-21T12:36:29.0000000+00:00</time></trkpt><trkpt lat="64.10540009" lon="-19.83358002"><ele>150.1</ele><time>2012-07-21T12:36:34.0000000+00:00</time></trkpt><trkpt lat="64.10540772" lon="-19.83357239"><ele>150.2</ele><time>2012-07-21T12:36:39.0000000+00:00</time></trkpt><trkpt lat="64.10540772" lon="-19.83357048"><ele>150.1</ele><time>2012-07-21T12:36:44.0000000+00:00</time></trkpt><trkpt lat="64.10540009" lon="-19.8335495"><ele>150.1</ele><time>2012-07-21T12:36:49.0000000+00:00</time></trkpt><trkpt lat="64.10538483" lon="-19.83349609"><ele>149.7</ele><time>2012-07-21T12:36:54.0000000+00:00</time></trkpt><trkpt lat="64.10539246" lon="-19.83352661"><ele>150.0</ele><time>2012-07-21T12:36:59.0000000+00:00</time></trkpt><trkpt lat="64.10536957" lon="-19.83354378"><ele>150.3</ele><time>2012-07-21T12:37:04.0000000+00:00</time></trkpt><trkpt lat="64.10536957" lon="-19.8335228"><ele>150.3</ele><time>2012-07-21T12:37:09.0000000+00:00</time></trkpt><trkpt lat="64.1053772" lon="-19.83351708"><ele>149.9</ele><time>2012-07-21T12:37:14.0000000+00:00</time></trkpt><trkpt lat="64.1053772" lon="-19.83351326"><ele>149.7</ele><time>2012-07-21T12:37:19.0000000+00:00</time></trkpt><trkpt lat="64.1053772" lon="-19.8335228"><ele>149.7</ele><time>2012-07-21T12:37:24.0000000+00:00</time></trkpt><trkpt lat="64.10542297" lon="-19.833498"><ele>149.6</ele><time>2012-07-21T12:37:29.0000000+00:00</time></trkpt><trkpt lat="64.10547638" lon="-19.83356094"><ele>150.1</ele><time>2012-07-21T12:37:34.0000000+00:00</time></trkpt><trkpt lat="64.1055069" lon="-19.83361244"><ele>149.9</ele><time>2012-07-21T12:37:39.0000000+00:00</time></trkpt><trkpt lat="64.10552216" lon="-19.8336277"><ele>149.9</ele><time>2012-07-21T12:37:44.0000000+00:00</time></trkpt><trkpt lat="64.10552979" lon="-19.83363915"><ele>150.2</ele><time>2012-07-21T12:37:49.0000000+00:00</time></trkpt><trkpt lat="64.10558319" lon="-19.83368683"><ele>152.0</ele><time>2012-07-21T12:37:54.0000000+00:00</time></trkpt><trkpt lat="64.10561371" lon="-19.83372116"><ele>153.3</ele><time>2012-07-21T12:37:59.0000000+00:00</time></trkpt><trkpt lat="64.10562134" lon="-19.83374977"><ele>153.6</ele><time>2012-07-21T12:38:04.0000000+00:00</time></trkpt><trkpt lat="64.10562134" lon="-19.83374023"><ele>153.8</ele><time>2012-07-21T12:38:09.0000000+00:00</time></trkpt><trkpt lat="64.10562134" lon="-19.83374214"><ele>153.9</ele><time>2012-07-21T12:38:14.0000000+00:00</time></trkpt><trkpt lat="64.10562134" lon="-19.83374023"><ele>153.9</ele><time>2012-07-21T12:38:19.0000000+00:00</time></trkpt><trkpt lat="64.10562134" lon="-19.83372498"><ele>153.9</ele><time>2012-07-21T12:38:24.0000000+00:00</time></trkpt><trkpt lat="64.10562897" lon="-19.83371162"><ele>154.7</ele><time>2012-07-21T12:38:29.0000000+00:00</time></trkpt><trkpt lat="64.10562134" lon="-19.833704"><ele>154.7</ele><time>2012-07-21T12:38:34.0000000+00:00</time></trkpt><trkpt lat="64.10561371" lon="-19.83369064"><ele>154.8</ele><time>2012-07-21T12:38:39.0000000+00:00</time></trkpt><trkpt lat="64.10560608" lon="-19.83367729"><ele>154.8</ele><time>2012-07-21T12:38:44.0000000+00:00</time></trkpt><trkpt lat="64.10560608" lon="-19.8336544"><ele>154.8</ele><time>2012-07-21T12:38:49.0000000+00:00</time></trkpt><trkpt lat="64.10560608" lon="-19.83364105"><ele>154.8</ele><time>2012-07-21T12:38:54.0000000+00:00</time></trkpt><trkpt lat="64.10559082" lon="-19.83361435"><ele>155.0</ele><time>2012-07-21T12:38:59.0000000+00:00</time></trkpt><trkpt lat="64.10552216" lon="-19.83361435"><ele>155.9</ele><time>2012-07-21T12:39:04.0000000+00:00</time></trkpt><trkpt lat="64.10546875" lon="-19.83366203"><ele>156.7</ele><time>2012-07-21T12:39:09.0000000+00:00</time></trkpt><trkpt lat="64.10545349" lon="-19.83366013"><ele>157.0</ele><time>2012-07-21T12:39:14.0000000+00:00</time></trkpt><trkpt lat="64.10545349" lon="-19.83365059"><ele>157.0</ele><time>2012-07-21T12:39:19.0000000+00:00</time></trkpt><trkpt lat="64.10545349" lon="-19.83356476"><ele>157.1</ele><time>2012-07-21T12:39:24.0000000+00:00</time></trkpt><trkpt lat="64.10547638" lon="-19.8335247"><ele>157.4</ele><time>2012-07-21T12:39:29.0000000+00:00</time></trkpt><trkpt lat="64.10549164" lon="-19.8335495"><ele>157.3</ele><time>2012-07-21T12:39:34.0000000+00:00</time></trkpt><trkpt lat="64.1055069" lon="-19.83356476"><ele>157.4</ele><time>2012-07-21T12:39:39.0000000+00:00</time></trkpt><trkpt lat="64.10551453" lon="-19.83355522"><ele>157.3</ele><time>2012-07-21T12:39:44.0000000+00:00</time></trkpt><trkpt lat="64.10552216" lon="-19.83354759"><ele>157.3</ele><time>2012-07-21T12:39:49.0000000+00:00</time></trkpt><trkpt lat="64.10552979" lon="-19.83353806"><ele>157.3</ele><time>2012-07-21T12:39:54.0000000+00:00</time></trkpt><trkpt lat="64.10552979" lon="-19.8335247"><ele>157.4</ele><time>2012-07-21T12:39:59.0000000+00:00</time></trkpt><trkpt lat="64.10552979" lon="-19.83350372"><ele>157.4</ele><time>2012-07-21T12:40:04.0000000+00:00</time></trkpt><trkpt lat="64.10557556" lon="-19.83347511"><ele>157.4</ele><time>2012-07-21T12:40:09.0000000+00:00</time></trkpt><trkpt lat="64.10556793" lon="-19.83345795"><ele>157.6</ele><time>2012-07-21T12:40:14.0000000+00:00</time></trkpt><trkpt lat="64.10556793" lon="-19.83342743"><ele>157.7</ele><time>2012-07-21T12:40:19.0000000+00:00</time></trkpt><trkpt lat="64.10556793" lon="-19.83341026"><ele>157.7</ele><time>2012-07-21T12:40:24.0000000+00:00</time></trkpt><trkpt lat="64.10556793" lon="-19.83338738"><ele>157.7</ele><time>2012-07-21T12:40:29.0000000+00:00</time></trkpt><trkpt lat="64.10556793" lon="-19.83337593"><ele>157.6</ele><time>2012-07-21T12:40:34.0000000+00:00</time></trkpt><trkpt lat="64.10556793" lon="-19.83336258"><ele>157.6</ele><time>2012-07-21T12:40:39.0000000+00:00</time></trkpt><trkpt lat="64.1055603" lon="-19.83336067"><ele>157.6</ele><time>2012-07-21T12:40:44.0000000+00:00</time></trkpt><trkpt lat="64.1055603" lon="-19.83336258"><ele>157.6</ele><time>2012-07-21T12:40:49.0000000+00:00</time></trkpt><trkpt lat="64.1055603" lon="-19.8333683"><ele>157.6</ele><time>2012-07-21T12:40:54.0000000+00:00</time></trkpt><trkpt lat="64.10556793" lon="-19.83338356"><ele>157.6</ele><time>2012-07-21T12:40:59.0000000+00:00</time></trkpt><trkpt lat="64.10557556" lon="-19.833395"><ele>157.6</ele><time>2012-07-21T12:41:04.0000000+00:00</time></trkpt><trkpt lat="64.10558319" lon="-19.83340263"><ele>157.6</ele><time>2012-07-21T12:41:09.0000000+00:00</time></trkpt><trkpt lat="64.10558319" lon="-19.83340836"><ele>157.6</ele><time>2012-07-21T12:41:14.0000000+00:00</time></trkpt><trkpt lat="64.10559082" lon="-19.83341599"><ele>157.5</ele><time>2012-07-21T12:41:19.0000000+00:00</time></trkpt><trkpt lat="64.10559082" lon="-19.83341408"><ele>157.5</ele><time>2012-07-21T12:41:24.0000000+00:00</time></trkpt><trkpt lat="64.10558319" lon="-19.83341408"><ele>157.5</ele><time>2012-07-21T12:41:29.0000000+00:00</time></trkpt><trkpt lat="64.10558319" lon="-19.83341026"><ele>157.5</ele><time>2012-07-21T12:41:34.0000000+00:00</time></trkpt><trkpt lat="64.10557556" lon="-19.83340073"><ele>157.4</ele><time>2012-07-21T12:41:39.0000000+00:00</time></trkpt><trkpt lat="64.10556793" lon="-19.83339691"><ele>157.4</ele><time>2012-07-21T12:41:44.0000000+00:00</time></trkpt><trkpt lat="64.10556793" lon="-19.83338547"><ele>157.3</ele><time>2012-07-21T12:41:49.0000000+00:00</time></trkpt><trkpt lat="64.10556793" lon="-19.8333683"><ele>157.3</ele><time>2012-07-21T12:41:54.0000000+00:00</time></trkpt><trkpt lat="64.10556793" lon="-19.83334541"><ele>157.2</ele><time>2012-07-21T12:41:59.0000000+00:00</time></trkpt><trkpt lat="64.10557556" lon="-19.83333778"><ele>157.2</ele><time>2012-07-21T12:42:04.0000000+00:00</time></trkpt><trkpt lat="64.10558319" lon="-19.83333015"><ele>157.1</ele><time>2012-07-21T12:42:09.0000000+00:00</time></trkpt><trkpt lat="64.10559082" lon="-19.83333969"><ele>156.9</ele><time>2012-07-21T12:42:14.0000000+00:00</time></trkpt><trkpt lat="64.10560608" lon="-19.83334732"><ele>156.8</ele><time>2012-07-21T12:42:19.0000000+00:00</time></trkpt><trkpt lat="64.10560608" lon="-19.83335114"><ele>156.7</ele><time>2012-07-21T12:42:24.0000000+00:00</time></trkpt><trkpt lat="64.10560608" lon="-19.83334923"><ele>156.7</ele><time>2012-07-21T12:42:29.0000000+00:00</time></trkpt><trkpt lat="64.10560608" lon="-19.83334541"><ele>156.7</ele><time>2012-07-21T12:42:34.0000000+00:00</time></trkpt><trkpt lat="64.10560608" lon="-19.83335114"><ele>156.8</ele><time>2012-07-21T12:42:39.0000000+00:00</time></trkpt><trkpt lat="64.10561371" lon="-19.83337402"><ele>156.8</ele><time>2012-07-21T12:42:44.0000000+00:00</time></trkpt><trkpt lat="64.10561371" lon="-19.83337021"><ele>157.3</ele><time>2012-07-21T12:42:49.0000000+00:00</time></trkpt><trkpt lat="64.1056366" lon="-19.83338356"><ele>158.1</ele><time>2012-07-21T12:42:54.0000000+00:00</time></trkpt><trkpt lat="64.1056366" lon="-19.83339119"><ele>158.1</ele><time>2012-07-21T12:42:59.0000000+00:00</time></trkpt><trkpt lat="64.1056366" lon="-19.83339882"><ele>158.2</ele><time>2012-07-21T12:43:04.0000000+00:00</time></trkpt><trkpt lat="64.10564423" lon="-19.83339882"><ele>158.2</ele><time>2012-07-21T12:43:09.0000000+00:00</time></trkpt><trkpt lat="64.1056366" lon="-19.8333931"><ele>158.2</ele><time>2012-07-21T12:43:14.0000000+00:00</time></trkpt><trkpt lat="64.10561371" lon="-19.8333683"><ele>157.8</ele><time>2012-07-21T12:43:19.0000000+00:00</time></trkpt><trkpt lat="64.10562897" lon="-19.83339119"><ele>158.0</ele><time>2012-07-21T12:43:24.0000000+00:00</time></trkpt><trkpt lat="64.10562897" lon="-19.83337784"><ele>158.8</ele><time>2012-07-21T12:43:29.0000000+00:00</time></trkpt><trkpt lat="64.10562897" lon="-19.83336258"><ele>158.8</ele><time>2012-07-21T12:43:34.0000000+00:00</time></trkpt><trkpt lat="64.10562897" lon="-19.83335686"><ele>158.8</ele><time>2012-07-21T12:43:39.0000000+00:00</time></trkpt><trkpt lat="64.10562897" lon="-19.83335304"><ele>158.8</ele><time>2012-07-21T12:43:44.0000000+00:00</time></trkpt><trkpt lat="64.10562134" lon="-19.83335304"><ele>158.7</ele><time>2012-07-21T12:43:49.0000000+00:00</time></trkpt><trkpt lat="64.10561371" lon="-19.83335114"><ele>158.7</ele><time>2012-07-21T12:43:54.0000000+00:00</time></trkpt><trkpt lat="64.10557556" lon="-19.83332253"><ele>157.5</ele><time>2012-07-21T12:43:59.0000000+00:00</time></trkpt><trkpt lat="64.10554504" lon="-19.83332443"><ele>156.6</ele><time>2012-07-21T12:44:04.0000000+00:00</time></trkpt><trkpt lat="64.10552216" lon="-19.8332901"><ele>155.9</ele><time>2012-07-21T12:44:09.0000000+00:00</time></trkpt><trkpt lat="64.10552216" lon="-19.83328819"><ele>155.8</ele><time>2012-07-21T12:44:14.0000000+00:00</time></trkpt><trkpt lat="64.10551453" lon="-19.83328629"><ele>155.8</ele><time>2012-07-21T12:44:19.0000000+00:00</time></trkpt><trkpt lat="64.1055069" lon="-19.8332634"><ele>156.3</ele><time>2012-07-21T12:44:24.0000000+00:00</time></trkpt><trkpt lat="64.1055069" lon="-19.83325958"><ele>156.4</ele><time>2012-07-21T12:44:29.0000000+00:00</time></trkpt><trkpt lat="64.1055069" lon="-19.83324432"><ele>157.0</ele><time>2012-07-21T12:44:34.0000000+00:00</time></trkpt><trkpt lat="64.10552979" lon="-19.83327103"><ele>157.9</ele><time>2012-07-21T12:44:39.0000000+00:00</time></trkpt><trkpt lat="64.10552979" lon="-19.83327675"><ele>157.9</ele><time>2012-07-21T12:44:44.0000000+00:00</time></trkpt><trkpt lat="64.10553742" lon="-19.83327866"><ele>157.9</ele><time>2012-07-21T12:44:49.0000000+00:00</time></trkpt><trkpt lat="64.10559845" lon="-19.83332443"><ele>158.7</ele><time>2012-07-21T12:44:54.0000000+00:00</time></trkpt><trkpt lat="64.1056366" lon="-19.83338356"><ele>159.7</ele><time>2012-07-21T12:44:59.0000000+00:00</time></trkpt><trkpt lat="64.10570526" lon="-19.83343124"><ele>161.0</ele><time>2012-07-21T12:45:04.0000000+00:00</time></trkpt><trkpt lat="64.10571289" lon="-19.83343887"><ele>161.9</ele><time>2012-07-21T12:45:09.0000000+00:00</time></trkpt><trkpt lat="64.1057663" lon="-19.83343506"><ele>163.5</ele><time>2012-07-21T12:45:14.0000000+00:00</time></trkpt><trkpt lat="64.10579681" lon="-19.83342743"><ele>164.8</ele><time>2012-07-21T12:45:19.0000000+00:00</time></trkpt><trkpt lat="64.10578919" lon="-19.83344078"><ele>166.0</ele><time>2012-07-21T12:45:24.0000000+00:00</time></trkpt><trkpt lat="64.10580444" lon="-19.83341408"><ele>166.5</ele><time>2012-07-21T12:45:29.0000000+00:00</time></trkpt><trkpt lat="64.10581207" lon="-19.83339882"><ele>166.7</ele><time>2012-07-21T12:45:34.0000000+00:00</time></trkpt><trkpt lat="64.10580444" lon="-19.83340263"><ele>166.7</ele><time>2012-07-21T12:45:39.0000000+00:00</time></trkpt><trkpt lat="64.1058197" lon="-19.83341217"><ele>166.8</ele><time>2012-07-21T12:45:44.0000000+00:00</time></trkpt><trkpt lat="64.10583496" lon="-19.83342552"><ele>167.0</ele><time>2012-07-21T12:45:49.0000000+00:00</time></trkpt><trkpt lat="64.10586548" lon="-19.8334446"><ele>167.3</ele><time>2012-07-21T12:45:54.0000000+00:00</time></trkpt><trkpt lat="64.10588837" lon="-19.83340263"><ele>167.2</ele><time>2012-07-21T12:45:59.0000000+00:00</time></trkpt><trkpt lat="64.10583496" lon="-19.83337784"><ele>165.9</ele><time>2012-07-21T12:46:04.0000000+00:00</time></trkpt><trkpt lat="64.10578919" lon="-19.83336067"><ele>164.5</ele><time>2012-07-21T12:46:09.0000000+00:00</time></trkpt><trkpt lat="64.10575104" lon="-19.83332825"><ele>163.2</ele><time>2012-07-21T12:46:14.0000000+00:00</time></trkpt><trkpt lat="64.10571289" lon="-19.8333149"><ele>161.2</ele><time>2012-07-21T12:46:19.0000000+00:00</time></trkpt><trkpt lat="64.10566711" lon="-19.8333149"><ele>160.6</ele><time>2012-07-21T12:46:24.0000000+00:00</time></trkpt><trkpt lat="64.10565949" lon="-19.83330536"><ele>160.0</ele><time>2012-07-21T12:46:29.0000000+00:00</time></trkpt><trkpt lat="64.10565186" lon="-19.83329964"><ele>159.9</ele><time>2012-07-21T12:46:34.0000000+00:00</time></trkpt><trkpt lat="64.10564423" lon="-19.83331299"><ele>159.8</ele><time>2012-07-21T12:46:39.0000000+00:00</time></trkpt><trkpt lat="64.1056366" lon="-19.83332062"><ele>159.8</ele><time>2012-07-21T12:46:44.0000000+00:00</time></trkpt><trkpt lat="64.10559082" lon="-19.83335114"><ele>159.4</ele><time>2012-07-21T12:46:49.0000000+00:00</time></trkpt><trkpt lat="64.10559845" lon="-19.83336639"><ele>159.0</ele><time>2012-07-21T12:46:54.0000000+00:00</time></trkpt><trkpt lat="64.10558319" lon="-19.83336067"><ele>159.0</ele><time>2012-07-21T12:46:59.0000000+00:00</time></trkpt><trkpt lat="64.10557556" lon="-19.83338356"><ele>159.1</ele><time>2012-07-21T12:47:04.0000000+00:00</time></trkpt><trkpt lat="64.10557556" lon="-19.83338356"><ele>159.1</ele><time>2012-07-21T12:47:09.0000000+00:00</time></trkpt><trkpt lat="64.10556793" lon="-19.83337212"><ele>159.1</ele><time>2012-07-21T12:47:14.0000000+00:00</time></trkpt><trkpt lat="64.10556793" lon="-19.8333683"><ele>159.0</ele><time>2012-07-21T12:47:19.0000000+00:00</time></trkpt><trkpt lat="64.10556793" lon="-19.83336449"><ele>159.0</ele><time>2012-07-21T12:47:24.0000000+00:00</time></trkpt><trkpt lat="64.10559082" lon="-19.83335114"><ele>158.9</ele><time>2012-07-21T12:47:29.0000000+00:00</time></trkpt><trkpt lat="64.10558319" lon="-19.8333416"><ele>158.4</ele><time>2012-07-21T12:47:34.0000000+00:00</time></trkpt><trkpt lat="64.10558319" lon="-19.83333969"><ele>158.4</ele><time>2012-07-21T12:47:39.0000000+00:00</time></trkpt><trkpt lat="64.10559082" lon="-19.83334541"><ele>158.4</ele><time>2012-07-21T12:47:44.0000000+00:00</time></trkpt><trkpt lat="64.10562897" lon="-19.83337975"><ele>157.9</ele><time>2012-07-21T12:47:49.0000000+00:00</time></trkpt><trkpt lat="64.10565949" lon="-19.83338356"><ele>156.6</ele><time>2012-07-21T12:47:54.0000000+00:00</time></trkpt><trkpt lat="64.10565949" lon="-19.83338547"><ele>156.2</ele><time>2012-07-21T12:47:59.0000000+00:00</time></trkpt><trkpt lat="64.10565949" lon="-19.83337402"><ele>156.2</ele><time>2012-07-21T12:48:04.0000000+00:00</time></trkpt><trkpt lat="64.10565949" lon="-19.83337975"><ele>156.2</ele><time>2012-07-21T12:48:09.0000000+00:00</time></trkpt><trkpt lat="64.10562897" lon="-19.83338928"><ele>155.2</ele><time>2012-07-21T12:48:14.0000000+00:00</time></trkpt><trkpt lat="64.1056366" lon="-19.83337402"><ele>155.1</ele><time>2012-07-21T12:48:19.0000000+00:00</time></trkpt><trkpt lat="64.10565186" lon="-19.83336449"><ele>155.0</ele><time>2012-07-21T12:48:24.0000000+00:00</time></trkpt><trkpt lat="64.10565949" lon="-19.83336258"><ele>154.8</ele><time>2012-07-21T12:48:29.0000000+00:00</time></trkpt><trkpt lat="64.10568237" lon="-19.83335877"><ele>154.4</ele><time>2012-07-21T12:48:34.0000000+00:00</time></trkpt><trkpt lat="64.10569" lon="-19.83337593"><ele>154.4</ele><time>2012-07-21T12:48:39.0000000+00:00</time></trkpt><trkpt lat="64.10570526" lon="-19.83336067"><ele>154.5</ele><time>2012-07-21T12:48:44.0000000+00:00</time></trkpt><trkpt lat="64.10572815" lon="-19.83330536"><ele>154.6</ele><time>2012-07-21T12:48:49.0000000+00:00</time></trkpt><trkpt lat="64.10572815" lon="-19.83329773"><ele>154.6</ele><time>2012-07-21T12:48:54.0000000+00:00</time></trkpt><trkpt lat="64.10572815" lon="-19.83330345"><ele>154.6</ele><time>2012-07-21T12:48:59.0000000+00:00</time></trkpt><trkpt lat="64.10572052" lon="-19.83331871"><ele>154.6</ele><time>2012-07-21T12:49:04.0000000+00:00</time></trkpt><trkpt lat="64.10567474" lon="-19.83334923"><ele>154.6</ele><time>2012-07-21T12:49:09.0000000+00:00</time></trkpt><trkpt lat="64.10556793" lon="-19.83337402"><ele>154.3</ele><time>2012-07-21T12:49:14.0000000+00:00</time></trkpt><trkpt lat="64.10546875" lon="-19.83341026"><ele>153.9</ele><time>2012-07-21T12:49:19.0000000+00:00</time></trkpt><trkpt lat="64.10545349" lon="-19.833395"><ele>153.6</ele><time>2012-07-21T12:49:24.0000000+00:00</time></trkpt><trkpt lat="64.10541534" lon="-19.83337975"><ele>152.6</ele><time>2012-07-21T12:49:29.0000000+00:00</time></trkpt><trkpt lat="64.10538483" lon="-19.83343124"><ele>151.5</ele><time>2012-07-21T12:49:34.0000000+00:00</time></trkpt><trkpt lat="64.10538483" lon="-19.83340836"><ele>150.3</ele><time>2012-07-21T12:49:39.0000000+00:00</time></trkpt><trkpt lat="64.10539246" lon="-19.83334732"><ele>149.2</ele><time>2012-07-21T12:49:44.0000000+00:00</time></trkpt><trkpt lat="64.10541534" lon="-19.83331108"><ele>148.2</ele><time>2012-07-21T12:49:49.0000000+00:00</time></trkpt><trkpt lat="64.10542297" lon="-19.83333206"><ele>147.5</ele><time>2012-07-21T12:49:54.0000000+00:00</time></trkpt><trkpt lat="64.1054306" lon="-19.83333206"><ele>147.4</ele><time>2012-07-21T12:49:59.0000000+00:00</time></trkpt><trkpt lat="64.10551453" lon="-19.83335686"><ele>147.3</ele><time>2012-07-21T12:50:04.0000000+00:00</time></trkpt><trkpt lat="64.1055603" lon="-19.8333931"><ele>146.5</ele><time>2012-07-21T12:50:09.0000000+00:00</time></trkpt><trkpt lat="64.10559845" lon="-19.83343887"><ele>146.3</ele><time>2012-07-21T12:50:14.0000000+00:00</time></trkpt><trkpt lat="64.10559845" lon="-19.83342171"><ele>146.2</ele><time>2012-07-21T12:50:19.0000000+00:00</time></trkpt><trkpt lat="64.10560608" lon="-19.83342552"><ele>146.4</ele><time>2012-07-21T12:50:24.0000000+00:00</time></trkpt><trkpt lat="64.10560608" lon="-19.83342934"><ele>146.5</ele><time>2012-07-21T12:50:29.0000000+00:00</time></trkpt><trkpt lat="64.10560608" lon="-19.83342743"><ele>146.5</ele><time>2012-07-21T12:50:34.0000000+00:00</time></trkpt><trkpt lat="64.10559845" lon="-19.83341599"><ele>146.5</ele><time>2012-07-21T12:50:39.0000000+00:00</time></trkpt><trkpt lat="64.10559845" lon="-19.83340836"><ele>146.5</ele><time>2012-07-21T12:50:44.0000000+00:00</time></trkpt><trkpt lat="64.10559082" lon="-19.83340263"><ele>146.6</ele><time>2012-07-21T12:50:49.0000000+00:00</time></trkpt><trkpt lat="64.10558319" lon="-19.83340263"><ele>146.6</ele><time>2012-07-21T12:50:54.0000000+00:00</time></trkpt><trkpt lat="64.10558319" lon="-19.83340836"><ele>146.6</ele><time>2012-07-21T12:50:59.0000000+00:00</time></trkpt><trkpt lat="64.10559082" lon="-19.83339119"><ele>146.6</ele><time>2012-07-21T12:51:04.0000000+00:00</time></trkpt><trkpt lat="64.10559082" lon="-19.83336258"><ele>146.2</ele><time>2012-07-21T12:51:09.0000000+00:00</time></trkpt><trkpt lat="64.10561371" lon="-19.83336449"><ele>146.1</ele><time>2012-07-21T12:51:14.0000000+00:00</time></trkpt><trkpt lat="64.10560608" lon="-19.83335304"><ele>146.1</ele><time>2012-07-21T12:51:19.0000000+00:00</time></trkpt><trkpt lat="64.10561371" lon="-19.83335304"><ele>146.0</ele><time>2012-07-21T12:51:24.0000000+00:00</time></trkpt><trkpt lat="64.10561371" lon="-19.83336067"><ele>145.9</ele><time>2012-07-21T12:51:29.0000000+00:00</time></trkpt><trkpt lat="64.10561371" lon="-19.83336639"><ele>145.9</ele><time>2012-07-21T12:51:34.0000000+00:00</time></trkpt><trkpt lat="64.10561371" lon="-19.83338356"><ele>145.9</ele><time>2012-07-21T12:51:39.0000000+00:00</time></trkpt><trkpt lat="64.10561371" lon="-19.83341408"><ele>146.5</ele><time>2012-07-21T12:51:44.0000000+00:00</time></trkpt><trkpt lat="64.10560608" lon="-19.8334198"><ele>147.0</ele><time>2012-07-21T12:51:49.0000000+00:00</time></trkpt><trkpt lat="64.10560608" lon="-19.83343887"><ele>147.0</ele><time>2012-07-21T12:51:54.0000000+00:00</time></trkpt><trkpt lat="64.10560608" lon="-19.8334465"><ele>147.0</ele><time>2012-07-21T12:51:59.0000000+00:00</time></trkpt><trkpt lat="64.10559845" lon="-19.8334446"><ele>147.0</ele><time>2012-07-21T12:52:04.0000000+00:00</time></trkpt><trkpt lat="64.10559845" lon="-19.8334446"><ele>147.0</ele><time>2012-07-21T12:52:09.0000000+00:00</time></trkpt><trkpt lat="64.10559082" lon="-19.8334465"><ele>147.0</ele><time>2012-07-21T12:52:14.0000000+00:00</time></trkpt><trkpt lat="64.10559082" lon="-19.83344269"><ele>147.0</ele><time>2012-07-21T12:52:19.0000000+00:00</time></trkpt><trkpt lat="64.10559082" lon="-19.83343315"><ele>147.0</ele><time>2012-07-21T12:52:24.0000000+00:00</time></trkpt><trkpt lat="64.10559082" lon="-19.83342552"><ele>147.0</ele><time>2012-07-21T12:52:29.0000000+00:00</time></trkpt><trkpt lat="64.10559845" lon="-19.83342171"><ele>146.9</ele><time>2012-07-21T12:52:34.0000000+00:00</time></trkpt><trkpt lat="64.10560608" lon="-19.83342362"><ele>146.9</ele><time>2012-07-21T12:52:39.0000000+00:00</time></trkpt><trkpt lat="64.10561371" lon="-19.83342743"><ele>146.9</ele><time>2012-07-21T12:52:44.0000000+00:00</time></trkpt><trkpt lat="64.10561371" lon="-19.83343315"><ele>146.9</ele><time>2012-07-21T12:52:49.0000000+00:00</time></trkpt><trkpt lat="64.10560608" lon="-19.83342743"><ele>146.9</ele><time>2012-07-21T12:52:54.0000000+00:00</time></trkpt><trkpt lat="64.10561371" lon="-19.83342934"><ele>146.9</ele><time>2012-07-21T12:52:59.0000000+00:00</time></trkpt><trkpt lat="64.10561371" lon="-19.83344269"><ele>146.9</ele><time>2012-07-21T12:53:04.0000000+00:00</time></trkpt><trkpt lat="64.10562134" lon="-19.83345413"><ele>146.9</ele><time>2012-07-21T12:53:09.0000000+00:00</time></trkpt><trkpt lat="64.10562134" lon="-19.83345413"><ele>146.9</ele><time>2012-07-21T12:53:14.0000000+00:00</time></trkpt><trkpt lat="64.10561371" lon="-19.83345604"><ele>146.8</ele><time>2012-07-21T12:53:19.0000000+00:00</time></trkpt><trkpt lat="64.10561371" lon="-19.8334465"><ele>146.8</ele><time>2012-07-21T12:53:24.0000000+00:00</time></trkpt><trkpt lat="64.10558319" lon="-19.83340836"><ele>146.6</ele><time>2012-07-21T12:53:29.0000000+00:00</time></trkpt><trkpt lat="64.10555267" lon="-19.83340073"><ele>146.3</ele><time>2012-07-21T12:53:34.0000000+00:00</time></trkpt><trkpt lat="64.10554504" lon="-19.833395"><ele>145.7</ele><time>2012-07-21T12:53:39.0000000+00:00</time></trkpt><trkpt lat="64.10554504" lon="-19.83338547"><ele>145.6</ele><time>2012-07-21T12:53:44.0000000+00:00</time></trkpt><trkpt lat="64.10554504" lon="-19.83337593"><ele>145.6</ele><time>2012-07-21T12:53:49.0000000+00:00</time></trkpt><trkpt lat="64.10553742" lon="-19.83337593"><ele>145.6</ele><time>2012-07-21T12:53:54.0000000+00:00</time></trkpt><trkpt lat="64.10554504" lon="-19.83336067"><ele>146.0</ele><time>2012-07-21T12:53:59.0000000+00:00</time></trkpt><trkpt lat="64.10555267" lon="-19.83333588"><ele>146.3</ele><time>2012-07-21T12:54:04.0000000+00:00</time></trkpt><trkpt lat="64.10557556" lon="-19.8333416"><ele>146.4</ele><time>2012-07-21T12:54:09.0000000+00:00</time></trkpt><trkpt lat="64.10557556" lon="-19.83334351"><ele>146.4</ele><time>2012-07-21T12:54:14.0000000+00:00</time></trkpt><trkpt lat="64.10557556" lon="-19.83333969"><ele>146.5</ele><time>2012-07-21T12:54:19.0000000+00:00</time></trkpt><trkpt lat="64.10557556" lon="-19.83333015"><ele>146.6</ele><time>2012-07-21T12:54:24.0000000+00:00</time></trkpt><trkpt lat="64.10558319" lon="-19.83333015"><ele>146.6</ele><time>2012-07-21T12:54:29.0000000+00:00</time></trkpt><trkpt lat="64.10560608" lon="-19.83331299"><ele>147.0</ele><time>2012-07-21T12:54:34.0000000+00:00</time></trkpt><trkpt lat="64.10561371" lon="-19.83334351"><ele>148.2</ele><time>2012-07-21T12:54:39.0000000+00:00</time></trkpt><trkpt lat="64.10562134" lon="-19.83332062"><ele>149.0</ele><time>2012-07-21T12:54:44.0000000+00:00</time></trkpt><trkpt lat="64.1056366" lon="-19.83332634"><ele>149.9</ele><time>2012-07-21T12:54:49.0000000+00:00</time></trkpt><trkpt lat="64.10564423" lon="-19.83341217"><ele>151.5</ele><time>2012-07-21T12:54:54.0000000+00:00</time></trkpt><trkpt lat="64.10564423" lon="-19.83342171"><ele>151.5</ele><time>2012-07-21T12:54:59.0000000+00:00</time></trkpt><trkpt lat="64.10565186" lon="-19.83342934"><ele>151.6</ele><time>2012-07-21T12:55:04.0000000+00:00</time></trkpt><trkpt lat="64.10565949" lon="-19.83343506"><ele>151.6</ele><time>2012-07-21T12:55:09.0000000+00:00</time></trkpt><trkpt lat="64.10566711" lon="-19.83343697"><ele>151.6</ele><time>2012-07-21T12:55:14.0000000+00:00</time></trkpt><trkpt lat="64.10567474" lon="-19.83342743"><ele>151.7</ele><time>2012-07-21T12:55:19.0000000+00:00</time></trkpt><trkpt lat="64.10568237" lon="-19.83341408"><ele>151.8</ele><time>2012-07-21T12:55:24.0000000+00:00</time></trkpt><trkpt lat="64.10569" lon="-19.83340454"><ele>151.8</ele><time>2012-07-21T12:55:29.0000000+00:00</time></trkpt><trkpt lat="64.10569" lon="-19.83340073"><ele>151.9</ele><time>2012-07-21T12:55:34.0000000+00:00</time></trkpt><trkpt lat="64.10569" lon="-19.83340073"><ele>151.9</ele><time>2012-07-21T12:55:39.0000000+00:00</time></trkpt><trkpt lat="64.10569" lon="-19.83340073"><ele>151.9</ele><time>2012-07-21T12:55:44.0000000+00:00</time></trkpt><trkpt lat="64.10569" lon="-19.83339882"><ele>151.9</ele><time>2012-07-21T12:55:49.0000000+00:00</time></trkpt><trkpt lat="64.10569" lon="-19.83339691"><ele>151.9</ele><time>2012-07-21T12:55:54.0000000+00:00</time></trkpt><trkpt lat="64.10568237" lon="-19.83338165"><ele>152.0</ele><time>2012-07-21T12:55:59.0000000+00:00</time></trkpt><trkpt lat="64.10567474" lon="-19.8333683"><ele>152.0</ele><time>2012-07-21T12:56:04.0000000+00:00</time></trkpt><trkpt lat="64.10565949" lon="-19.83337212"><ele>152.1</ele><time>2012-07-21T12:56:09.0000000+00:00</time></trkpt><trkpt lat="64.10565186" lon="-19.83336639"><ele>152.3</ele><time>2012-07-21T12:56:14.0000000+00:00</time></trkpt><trkpt lat="64.1056366" lon="-19.83338165"><ele>152.3</ele><time>2012-07-21T12:56:19.0000000+00:00</time></trkpt><trkpt lat="64.1056366" lon="-19.83335877"><ele>152.9</ele><time>2012-07-21T12:56:24.0000000+00:00</time></trkpt><trkpt lat="64.1056366" lon="-19.83335114"><ele>152.7</ele><time>2012-07-21T12:56:29.0000000+00:00</time></trkpt><trkpt lat="64.10564423" lon="-19.83337212"><ele>153.0</ele><time>2012-07-21T12:56:34.0000000+00:00</time></trkpt><trkpt lat="64.10564423" lon="-19.83338928"><ele>153.1</ele><time>2012-07-21T12:56:39.0000000+00:00</time></trkpt><trkpt lat="64.10564423" lon="-19.83338928"><ele>153.0</ele><time>2012-07-21T12:56:44.0000000+00:00</time></trkpt><trkpt lat="64.10564423" lon="-19.83338928"><ele>153.0</ele><time>2012-07-21T12:56:49.0000000+00:00</time></trkpt><trkpt lat="64.10564423" lon="-19.83339119"><ele>153.0</ele><time>2012-07-21T12:56:54.0000000+00:00</time></trkpt><trkpt lat="64.10564423" lon="-19.8333931"><ele>153.0</ele><time>2012-07-21T12:56:59.0000000+00:00</time></trkpt><trkpt lat="64.10564423" lon="-19.8333931"><ele>153.0</ele><time>2012-07-21T12:57:04.0000000+00:00</time></trkpt><trkpt lat="64.10564423" lon="-19.833395"><ele>153.0</ele><time>2012-07-21T12:57:09.0000000+00:00</time></trkpt><trkpt lat="64.10564423" lon="-19.833395"><ele>153.1</ele><time>2012-07-21T12:57:14.0000000+00:00</time></trkpt><trkpt lat="64.10564423" lon="-19.833395"><ele>153.1</ele><time>2012-07-21T12:57:19.0000000+00:00</time></trkpt><trkpt lat="64.10564423" lon="-19.833395"><ele>153.1</ele><time>2012-07-21T12:57:24.0000000+00:00</time></trkpt><trkpt lat="64.10564423" lon="-19.833395"><ele>153.1</ele><time>2012-07-21T12:57:29.0000000+00:00</time></trkpt><trkpt lat="64.10564423" lon="-19.833395"><ele>153.1</ele><time>2012-07-21T12:57:34.0000000+00:00</time></trkpt><trkpt lat="64.10564423" lon="-19.833395"><ele>153.1</ele><time>2012-07-21T12:57:39.0000000+00:00</time></trkpt><trkpt lat="64.10564423" lon="-19.833395"><ele>153.1</ele><time>2012-07-21T12:57:44.0000000+00:00</time></trkpt><trkpt lat="64.10564423" lon="-19.833395"><ele>153.2</ele><time>2012-07-21T12:57:49.0000000+00:00</time></trkpt><trkpt lat="64.10564423" lon="-19.833395"><ele>153.2</ele><time>2012-07-21T12:57:54.0000000+00:00</time></trkpt><trkpt lat="64.10565186" lon="-19.833395"><ele>153.3</ele><time>2012-07-21T12:57:59.0000000+00:00</time></trkpt><trkpt lat="64.10565186" lon="-19.83339119"><ele>153.4</ele><time>2012-07-21T12:58:04.0000000+00:00</time></trkpt><trkpt lat="64.10565949" lon="-19.83337975"><ele>153.8</ele><time>2012-07-21T12:58:09.0000000+00:00</time></trkpt><trkpt lat="64.10566711" lon="-19.83336449"><ele>154.3</ele><time>2012-07-21T12:58:14.0000000+00:00</time></trkpt><trkpt lat="64.10570526" lon="-19.83337212"><ele>156.9</ele><time>2012-07-21T12:58:19.0000000+00:00</time></trkpt><trkpt lat="64.10573578" lon="-19.83339882"><ele>158.1</ele><time>2012-07-21T12:58:24.0000000+00:00</time></trkpt><trkpt lat="64.10577393" lon="-19.83340263"><ele>160.7</ele><time>2012-07-21T12:58:29.0000000+00:00</time></trkpt><trkpt lat="64.10579681" lon="-19.83340645"><ele>162.3</ele><time>2012-07-21T12:58:34.0000000+00:00</time></trkpt><trkpt lat="64.10580444" lon="-19.83340454"><ele>163.3</ele><time>2012-07-21T12:58:39.0000000+00:00</time></trkpt><trkpt lat="64.10581207" lon="-19.83340454"><ele>164.2</ele><time>2012-07-21T12:58:44.0000000+00:00</time></trkpt><trkpt lat="64.10581207" lon="-19.83340073"><ele>165.1</ele><time>2012-07-21T12:58:49.0000000+00:00</time></trkpt><trkpt lat="64.1058197" lon="-19.83340645"><ele>166.0</ele><time>2012-07-21T12:58:54.0000000+00:00</time></trkpt><trkpt lat="64.10583496" lon="-19.83341217"><ele>166.9</ele><time>2012-07-21T12:58:59.0000000+00:00</time></trkpt><trkpt lat="64.10584259" lon="-19.83341599"><ele>167.7</ele><time>2012-07-21T12:59:04.0000000+00:00</time></trkpt><trkpt lat="64.10585785" lon="-19.83342171"><ele>167.8</ele><time>2012-07-21T12:59:09.0000000+00:00</time></trkpt><trkpt lat="64.10587311" lon="-19.83342934"><ele>166.2</ele><time>2012-07-21T12:59:14.0000000+00:00</time></trkpt><trkpt lat="64.10587311" lon="-19.8334465"><ele>163.5</ele><time>2012-07-21T12:59:19.0000000+00:00</time></trkpt><trkpt lat="64.10587311" lon="-19.83345985"><ele>163.0</ele><time>2012-07-21T12:59:24.0000000+00:00</time></trkpt><trkpt lat="64.10587311" lon="-19.83347893"><ele>163.3</ele><time>2012-07-21T12:59:29.0000000+00:00</time></trkpt><trkpt lat="64.10587311" lon="-19.83349609"><ele>163.7</ele><time>2012-07-21T12:59:34.0000000+00:00</time></trkpt><trkpt lat="64.10587311" lon="-19.83350372"><ele>164.1</ele><time>2012-07-21T12:59:39.0000000+00:00</time></trkpt><trkpt lat="64.10588074" lon="-19.83351517"><ele>164.4</ele><time>2012-07-21T12:59:44.0000000+00:00</time></trkpt><trkpt lat="64.10588837" lon="-19.8335247"><ele>164.6</ele><time>2012-07-21T12:59:49.0000000+00:00</time></trkpt><trkpt lat="64.10588837" lon="-19.83353424"><ele>164.7</ele><time>2012-07-21T12:59:54.0000000+00:00</time></trkpt><trkpt lat="64.10588837" lon="-19.83353996"><ele>164.8</ele><time>2012-07-21T12:59:59.0000000+00:00</time></trkpt><trkpt lat="64.10585022" lon="-19.83353233"><ele>164.5</ele><time>2012-07-21T13:00:04.0000000+00:00</time></trkpt><trkpt lat="64.10581207" lon="-19.83350945"><ele>162.9</ele><time>2012-07-21T13:00:09.0000000+00:00</time></trkpt><trkpt lat="64.10578919" lon="-19.83348465"><ele>162.0</ele><time>2012-07-21T13:00:14.0000000+00:00</time></trkpt><trkpt lat="64.10577393" lon="-19.83346939"><ele>161.5</ele><time>2012-07-21T13:00:19.0000000+00:00</time></trkpt><trkpt lat="64.1057663" lon="-19.83346558"><ele>161.2</ele><time>2012-07-21T13:00:24.0000000+00:00</time></trkpt><trkpt lat="64.10575867" lon="-19.83347321"><ele>160.9</ele><time>2012-07-21T13:00:29.0000000+00:00</time></trkpt><trkpt lat="64.10575104" lon="-19.83348084"><ele>160.5</ele><time>2012-07-21T13:00:34.0000000+00:00</time></trkpt><trkpt lat="64.10574341" lon="-19.83349228"><ele>160.1</ele><time>2012-07-21T13:00:39.0000000+00:00</time></trkpt><trkpt lat="64.10572052" lon="-19.8335247"><ele>158.9</ele><time>2012-07-21T13:00:44.0000000+00:00</time></trkpt><trkpt lat="64.10572052" lon="-19.83352852"><ele>156.8</ele><time>2012-07-21T13:00:49.0000000+00:00</time></trkpt><trkpt lat="64.10570526" lon="-19.83355141"><ele>156.6</ele><time>2012-07-21T13:00:54.0000000+00:00</time></trkpt><trkpt lat="64.10569" lon="-19.83355141"><ele>156.1</ele><time>2012-07-21T13:00:59.0000000+00:00</time></trkpt><trkpt lat="64.10568237" lon="-19.83353615"><ele>155.5</ele><time>2012-07-21T13:01:04.0000000+00:00</time></trkpt><trkpt lat="64.10568237" lon="-19.83351517"><ele>154.9</ele><time>2012-07-21T13:01:09.0000000+00:00</time></trkpt><trkpt lat="64.10568237" lon="-19.83349609"><ele>154.3</ele><time>2012-07-21T13:01:14.0000000+00:00</time></trkpt><trkpt lat="64.10568237" lon="-19.83348656"><ele>153.7</ele><time>2012-07-21T13:01:19.0000000+00:00</time></trkpt><trkpt lat="64.10568237" lon="-19.83348274"><ele>153.0</ele><time>2012-07-21T13:01:24.0000000+00:00</time></trkpt><trkpt lat="64.10568237" lon="-19.8334713"><ele>152.3</ele><time>2012-07-21T13:01:29.0000000+00:00</time></trkpt><trkpt lat="64.10569" lon="-19.83345413"><ele>151.4</ele><time>2012-07-21T13:01:34.0000000+00:00</time></trkpt><trkpt lat="64.10569" lon="-19.83343887"><ele>150.4</ele><time>2012-07-21T13:01:39.0000000+00:00</time></trkpt><trkpt lat="64.10570526" lon="-19.83343887"><ele>148.2</ele><time>2012-07-21T13:01:44.0000000+00:00</time></trkpt><trkpt lat="64.10570526" lon="-19.83343697"><ele>146.8</ele><time>2012-07-21T13:01:49.0000000+00:00</time></trkpt><trkpt lat="64.10570526" lon="-19.83343124"><ele>145.7</ele><time>2012-07-21T13:01:54.0000000+00:00</time></trkpt><trkpt lat="64.10571289" lon="-19.83342362"><ele>144.7</ele><time>2012-07-21T13:01:59.0000000+00:00</time></trkpt><trkpt lat="64.10572052" lon="-19.83341599"><ele>143.6</ele><time>2012-07-21T13:02:04.0000000+00:00</time></trkpt><trkpt lat="64.10572815" lon="-19.83341026"><ele>142.5</ele><time>2012-07-21T13:02:09.0000000+00:00</time></trkpt><trkpt lat="64.10574341" lon="-19.83339691"><ele>140.3</ele><time>2012-07-21T13:02:14.0000000+00:00</time></trkpt><trkpt lat="64.10575867" lon="-19.83336449"><ele>138.8</ele><time>2012-07-21T13:02:19.0000000+00:00</time></trkpt><trkpt lat="64.10575867" lon="-19.83335304"><ele>137.6</ele><time>2012-07-21T13:02:24.0000000+00:00</time></trkpt><trkpt lat="64.1057663" lon="-19.8333416"><ele>136.4</ele><time>2012-07-21T13:02:29.0000000+00:00</time></trkpt><trkpt lat="64.10575867" lon="-19.83332253"><ele>135.1</ele><time>2012-07-21T13:02:34.0000000+00:00</time></trkpt><trkpt lat="64.10575867" lon="-19.83331108"><ele>133.8</ele><time>2012-07-21T13:02:39.0000000+00:00</time></trkpt><trkpt lat="64.10575867" lon="-19.83330345"><ele>132.5</ele><time>2012-07-21T13:02:44.0000000+00:00</time></trkpt><trkpt lat="64.10575867" lon="-19.83329201"><ele>131.2</ele><time>2012-07-21T13:02:49.0000000+00:00</time></trkpt><trkpt lat="64.10575867" lon="-19.83328056"><ele>129.9</ele><time>2012-07-21T13:02:54.0000000+00:00</time></trkpt><trkpt lat="64.1057663" lon="-19.83328629"><ele>128.5</ele><time>2012-07-21T13:02:59.0000000+00:00</time></trkpt><trkpt lat="64.10577393" lon="-19.833395"><ele>126.8</ele><time>2012-07-21T13:03:04.0000000+00:00</time></trkpt><trkpt lat="64.10578919" lon="-19.83361626"><ele>125.3</ele><time>2012-07-21T13:03:09.0000000+00:00</time></trkpt><trkpt lat="64.10579681" lon="-19.83374596"><ele>123.9</ele><time>2012-07-21T13:03:14.0000000+00:00</time></trkpt><trkpt lat="64.10580444" lon="-19.83374023"><ele>122.8</ele><time>2012-07-21T13:03:19.0000000+00:00</time></trkpt><trkpt lat="64.10580444" lon="-19.83377838"><ele>120.9</ele><time>2012-07-21T13:03:24.0000000+00:00</time></trkpt><trkpt lat="64.10579681" lon="-19.8337574"><ele>119.1</ele><time>2012-07-21T13:03:29.0000000+00:00</time></trkpt><trkpt lat="64.10580444" lon="-19.83375549"><ele>117.8</ele><time>2012-07-21T13:03:34.0000000+00:00</time></trkpt><trkpt lat="64.10580444" lon="-19.83373833"><ele>116.5</ele><time>2012-07-21T13:03:39.0000000+00:00</time></trkpt><trkpt lat="64.10580444" lon="-19.83371353"><ele>115.3</ele><time>2012-07-21T13:03:44.0000000+00:00</time></trkpt><trkpt lat="64.10580444" lon="-19.83368683"><ele>114.2</ele><time>2012-07-21T13:03:49.0000000+00:00</time></trkpt><trkpt lat="64.10580444" lon="-19.83366776"><ele>113.3</ele><time>2012-07-21T13:03:54.0000000+00:00</time></trkpt><trkpt lat="64.10579681" lon="-19.8336544"><ele>113.0</ele><time>2012-07-21T13:03:59.0000000+00:00</time></trkpt><trkpt lat="64.10577393" lon="-19.83361435"><ele>112.1</ele><time>2012-07-21T13:04:04.0000000+00:00</time></trkpt><trkpt lat="64.10570526" lon="-19.83359909"><ele>112.2</ele><time>2012-07-21T13:04:09.0000000+00:00</time></trkpt><trkpt lat="64.10571289" lon="-19.83357239"><ele>114.9</ele><time>2012-07-21T13:04:14.0000000+00:00</time></trkpt><trkpt lat="64.10569763" lon="-19.83359718"><ele>116.4</ele><time>2012-07-21T13:04:19.0000000+00:00</time></trkpt><trkpt lat="64.10569" lon="-19.83362007"><ele>115.8</ele><time>2012-07-21T13:04:24.0000000+00:00</time></trkpt><trkpt lat="64.10567474" lon="-19.8336277"><ele>115.1</ele><time>2012-07-21T13:04:29.0000000+00:00</time></trkpt><trkpt lat="64.10566711" lon="-19.83363533"><ele>114.4</ele><time>2012-07-21T13:04:34.0000000+00:00</time></trkpt><trkpt lat="64.10565949" lon="-19.83363915"><ele>113.8</ele><time>2012-07-21T13:04:39.0000000+00:00</time></trkpt><trkpt lat="64.10565186" lon="-19.83364105"><ele>113.2</ele><time>2012-07-21T13:04:44.0000000+00:00</time></trkpt><trkpt lat="64.10564423" lon="-19.83364296"><ele>112.8</ele><time>2012-07-21T13:04:49.0000000+00:00</time></trkpt><trkpt lat="64.1056366" lon="-19.83364487"><ele>112.4</ele><time>2012-07-21T13:04:54.0000000+00:00</time></trkpt><trkpt lat="64.10562897" lon="-19.83364296"><ele>112.1</ele><time>2012-07-21T13:04:59.0000000+00:00</time></trkpt><trkpt lat="64.10562134" lon="-19.83363533"><ele>111.9</ele><time>2012-07-21T13:05:04.0000000+00:00</time></trkpt><trkpt lat="64.10561371" lon="-19.83363152"><ele>111.8</ele><time>2012-07-21T13:05:09.0000000+00:00</time></trkpt><trkpt lat="64.10559845" lon="-19.8336277"><ele>112.1</ele><time>2012-07-21T13:05:14.0000000+00:00</time></trkpt><trkpt lat="64.10557556" lon="-19.83361244"><ele>114.0</ele><time>2012-07-21T13:05:19.0000000+00:00</time></trkpt><trkpt lat="64.10556793" lon="-19.83360481"><ele>114.2</ele><time>2012-07-21T13:05:24.0000000+00:00</time></trkpt><trkpt lat="64.1055603" lon="-19.83359146"><ele>114.5</ele><time>2012-07-21T13:05:29.0000000+00:00</time></trkpt><trkpt lat="64.10555267" lon="-19.83358192"><ele>114.8</ele><time>2012-07-21T13:05:34.0000000+00:00</time></trkpt><trkpt lat="64.10554504" lon="-19.83356667"><ele>115.3</ele><time>2012-07-21T13:05:39.0000000+00:00</time></trkpt><trkpt lat="64.10553742" lon="-19.83353424"><ele>117.0</ele><time>2012-07-21T13:05:44.0000000+00:00</time></trkpt><trkpt lat="64.10552979" lon="-19.83350372"><ele>119.5</ele><time>2012-07-21T13:05:49.0000000+00:00</time></trkpt><trkpt lat="64.10554504" lon="-19.83350182"><ele>121.4</ele><time>2012-07-21T13:05:54.0000000+00:00</time></trkpt><trkpt lat="64.10553742" lon="-19.83349037"><ele>122.2</ele><time>2012-07-21T13:05:59.0000000+00:00</time></trkpt><trkpt lat="64.10553742" lon="-19.83348274"><ele>123.0</ele><time>2012-07-21T13:06:04.0000000+00:00</time></trkpt><trkpt lat="64.10552979" lon="-19.83346748"><ele>124.0</ele><time>2012-07-21T13:06:09.0000000+00:00</time></trkpt><trkpt lat="64.10552216" lon="-19.83345413"><ele>125.1</ele><time>2012-07-21T13:06:14.0000000+00:00</time></trkpt><trkpt lat="64.10552216" lon="-19.83345604"><ele>126.2</ele><time>2012-07-21T13:06:19.0000000+00:00</time></trkpt><trkpt lat="64.10551453" lon="-19.83346939"><ele>127.5</ele><time>2012-07-21T13:06:24.0000000+00:00</time></trkpt><trkpt lat="64.10551453" lon="-19.83348846"><ele>128.9</ele><time>2012-07-21T13:06:29.0000000+00:00</time></trkpt><trkpt lat="64.10551453" lon="-19.83351135"><ele>130.4</ele><time>2012-07-21T13:06:34.0000000+00:00</time></trkpt><trkpt lat="64.10552216" lon="-19.8335228"><ele>132.0</ele><time>2012-07-21T13:06:39.0000000+00:00</time></trkpt><trkpt lat="64.10552979" lon="-19.83352852"><ele>133.7</ele><time>2012-07-21T13:06:44.0000000+00:00</time></trkpt><trkpt lat="64.10555267" lon="-19.83352852"><ele>135.6</ele><time>2012-07-21T13:06:49.0000000+00:00</time></trkpt><trkpt lat="64.10556793" lon="-19.8335247"><ele>138.9</ele><time>2012-07-21T13:06:54.0000000+00:00</time></trkpt><trkpt lat="64.1055603" lon="-19.83349991"><ele>143.0</ele><time>2012-07-21T13:06:59.0000000+00:00</time></trkpt><trkpt lat="64.10556793" lon="-19.83348656"><ele>144.6</ele><time>2012-07-21T13:07:04.0000000+00:00</time></trkpt><trkpt lat="64.10557556" lon="-19.83346939"><ele>146.3</ele><time>2012-07-21T13:07:09.0000000+00:00</time></trkpt><trkpt lat="64.10558319" lon="-19.83345604"><ele>148.0</ele><time>2012-07-21T13:07:14.0000000+00:00</time></trkpt><trkpt lat="64.10559082" lon="-19.83344841"><ele>149.4</ele><time>2012-07-21T13:07:19.0000000+00:00</time></trkpt><trkpt lat="64.10559845" lon="-19.8334465"><ele>150.6</ele><time>2012-07-21T13:07:24.0000000+00:00</time></trkpt><trkpt lat="64.10560608" lon="-19.83345604"><ele>151.8</ele><time>2012-07-21T13:07:29.0000000+00:00</time></trkpt><trkpt lat="64.10561371" lon="-19.83347321"><ele>152.9</ele><time>2012-07-21T13:07:34.0000000+00:00</time></trkpt><trkpt lat="64.10562897" lon="-19.83350945"><ele>153.7</ele><time>2012-07-21T13:07:39.0000000+00:00</time></trkpt><trkpt lat="64.10565186" lon="-19.8335495"><ele>154.3</ele><time>2012-07-21T13:07:44.0000000+00:00</time></trkpt><trkpt lat="64.10564423" lon="-19.83356667"><ele>156.4</ele><time>2012-07-21T13:07:49.0000000+00:00</time></trkpt><trkpt lat="64.10565186" lon="-19.83357811"><ele>157.6</ele><time>2012-07-21T13:07:54.0000000+00:00</time></trkpt><trkpt lat="64.10565186" lon="-19.83358955"><ele>158.8</ele><time>2012-07-21T13:07:59.0000000+00:00</time></trkpt><trkpt lat="64.10565186" lon="-19.83360672"><ele>160.0</ele><time>2012-07-21T13:08:04.0000000+00:00</time></trkpt><trkpt lat="64.10564423" lon="-19.83361816"><ele>161.2</ele><time>2012-07-21T13:08:09.0000000+00:00</time></trkpt><trkpt lat="64.10564423" lon="-19.83362961"><ele>162.5</ele><time>2012-07-21T13:08:14.0000000+00:00</time></trkpt><trkpt lat="64.10564423" lon="-19.83363342"><ele>163.7</ele><time>2012-07-21T13:08:19.0000000+00:00</time></trkpt><trkpt lat="64.10565186" lon="-19.83362961"><ele>165.0</ele><time>2012-07-21T13:08:24.0000000+00:00</time></trkpt><trkpt lat="64.10565949" lon="-19.83362389"><ele>166.2</ele><time>2012-07-21T13:08:29.0000000+00:00</time></trkpt><trkpt lat="64.10565949" lon="-19.83362579"><ele>167.4</ele><time>2012-07-21T13:08:34.0000000+00:00</time></trkpt><trkpt lat="64.10566711" lon="-19.83362961"><ele>168.5</ele><time>2012-07-21T13:08:39.0000000+00:00</time></trkpt><trkpt lat="64.10567474" lon="-19.83363915"><ele>169.7</ele><time>2012-07-21T13:08:44.0000000+00:00</time></trkpt><trkpt lat="64.10570526" lon="-19.83365059"><ele>170.5</ele><time>2012-07-21T13:08:49.0000000+00:00</time></trkpt><trkpt lat="64.10572052" lon="-19.83366013"><ele>171.9</ele><time>2012-07-21T13:08:54.0000000+00:00</time></trkpt><trkpt lat="64.10574341" lon="-19.83371162"><ele>173.6</ele><time>2012-07-21T13:08:59.0000000+00:00</time></trkpt><trkpt lat="64.1057663" lon="-19.833704"><ele>175.2</ele><time>2012-07-21T13:09:04.0000000+00:00</time></trkpt><trkpt lat="64.10577393" lon="-19.83371162"><ele>176.5</ele><time>2012-07-21T13:09:09.0000000+00:00</time></trkpt><trkpt lat="64.10578156" lon="-19.83371353"><ele>177.7</ele><time>2012-07-21T13:09:14.0000000+00:00</time></trkpt><trkpt lat="64.10578156" lon="-19.83371544"><ele>179.0</ele><time>2012-07-21T13:09:19.0000000+00:00</time></trkpt><trkpt lat="64.10577393" lon="-19.83370972"><ele>180.2</ele><time>2012-07-21T13:09:24.0000000+00:00</time></trkpt><trkpt lat="64.10577393" lon="-19.83370781"><ele>181.4</ele><time>2012-07-21T13:09:29.0000000+00:00</time></trkpt><trkpt lat="64.10577393" lon="-19.8337059"><ele>182.2</ele><time>2012-07-21T13:09:34.0000000+00:00</time></trkpt><trkpt lat="64.10578156" lon="-19.83369827"><ele>182.9</ele><time>2012-07-21T13:09:39.0000000+00:00</time></trkpt><trkpt lat="64.10578156" lon="-19.83368492"><ele>183.6</ele><time>2012-07-21T13:09:44.0000000+00:00</time></trkpt><trkpt lat="64.10578919" lon="-19.83367348"><ele>184.2</ele><time>2012-07-21T13:09:49.0000000+00:00</time></trkpt><trkpt lat="64.10578919" lon="-19.83365822"><ele>184.8</ele><time>2012-07-21T13:09:54.0000000+00:00</time></trkpt><trkpt lat="64.10579681" lon="-19.83364868"><ele>185.3</ele><time>2012-07-21T13:09:59.0000000+00:00</time></trkpt><trkpt lat="64.10580444" lon="-19.83364105"><ele>185.7</ele><time>2012-07-21T13:10:04.0000000+00:00</time></trkpt><trkpt lat="64.10581207" lon="-19.83363533"><ele>186.1</ele><time>2012-07-21T13:10:09.0000000+00:00</time></trkpt><trkpt lat="64.1058197" lon="-19.83363152"><ele>186.3</ele><time>2012-07-21T13:10:14.0000000+00:00</time></trkpt><trkpt lat="64.10582733" lon="-19.83362389"><ele>186.6</ele><time>2012-07-21T13:10:19.0000000+00:00</time></trkpt><trkpt lat="64.10583496" lon="-19.83361816"><ele>186.8</ele><time>2012-07-21T13:10:24.0000000+00:00</time></trkpt><trkpt lat="64.10583496" lon="-19.83361435"><ele>186.9</ele><time>2012-07-21T13:10:29.0000000+00:00</time></trkpt><trkpt lat="64.10584259" lon="-19.83360863"><ele>187.1</ele><time>2012-07-21T13:10:34.0000000+00:00</time></trkpt><trkpt lat="64.10584259" lon="-19.83359528"><ele>187.2</ele><time>2012-07-21T13:10:39.0000000+00:00</time></trkpt><trkpt lat="64.10584259" lon="-19.83358002"><ele>187.2</ele><time>2012-07-21T13:10:44.0000000+00:00</time></trkpt><trkpt lat="64.10583496" lon="-19.83356667"><ele>187.2</ele><time>2012-07-21T13:10:49.0000000+00:00</time></trkpt><trkpt lat="64.10582733" lon="-19.83354759"><ele>187.1</ele><time>2012-07-21T13:10:54.0000000+00:00</time></trkpt><trkpt lat="64.1058197" lon="-19.83353233"><ele>186.9</ele><time>2012-07-21T13:10:59.0000000+00:00</time></trkpt><trkpt lat="64.1058197" lon="-19.83352089"><ele>186.5</ele><time>2012-07-21T13:11:04.0000000+00:00</time></trkpt><trkpt lat="64.10580444" lon="-19.8335247"><ele>186.1</ele><time>2012-07-21T13:11:09.0000000+00:00</time></trkpt><trkpt lat="64.10578919" lon="-19.83358002"><ele>183.8</ele><time>2012-07-21T13:11:14.0000000+00:00</time></trkpt><trkpt lat="64.10575867" lon="-19.83360672"><ele>181.8</ele><time>2012-07-21T13:11:19.0000000+00:00</time></trkpt><trkpt lat="64.10573578" lon="-19.83361626"><ele>180.6</ele><time>2012-07-21T13:11:24.0000000+00:00</time></trkpt><trkpt lat="64.10572815" lon="-19.83361816"><ele>179.8</ele><time>2012-07-21T13:11:29.0000000+00:00</time></trkpt><trkpt lat="64.10572052" lon="-19.83362007"><ele>179.0</ele><time>2012-07-21T13:11:34.0000000+00:00</time></trkpt><trkpt lat="64.10572052" lon="-19.8336277"><ele>178.1</ele><time>2012-07-21T13:11:39.0000000+00:00</time></trkpt><trkpt lat="64.10571289" lon="-19.8336277"><ele>177.2</ele><time>2012-07-21T13:11:44.0000000+00:00</time></trkpt><trkpt lat="64.10570526" lon="-19.83361244"><ele>176.3</ele><time>2012-07-21T13:11:49.0000000+00:00</time></trkpt><trkpt lat="64.10570526" lon="-19.83359337"><ele>175.4</ele><time>2012-07-21T13:11:54.0000000+00:00</time></trkpt><trkpt lat="64.10571289" lon="-19.83357239"><ele>174.3</ele><time>2012-07-21T13:11:59.0000000+00:00</time></trkpt><trkpt lat="64.10571289" lon="-19.83355141"><ele>173.2</ele><time>2012-07-21T13:12:04.0000000+00:00</time></trkpt><trkpt lat="64.10570526" lon="-19.83353043"><ele>172.0</ele><time>2012-07-21T13:12:09.0000000+00:00</time></trkpt><trkpt lat="64.10569763" lon="-19.83352089"><ele>170.6</ele><time>2012-07-21T13:12:14.0000000+00:00</time></trkpt><trkpt lat="64.10568237" lon="-19.833498"><ele>168.7</ele><time>2012-07-21T13:12:19.0000000+00:00</time></trkpt><trkpt lat="64.10567474" lon="-19.83342743"><ele>168.0</ele><time>2012-07-21T13:12:24.0000000+00:00</time></trkpt><trkpt lat="64.10567474" lon="-19.83335877"><ele>166.7</ele><time>2012-07-21T13:12:29.0000000+00:00</time></trkpt><trkpt lat="64.10566711" lon="-19.8333416"><ele>165.4</ele><time>2012-07-21T13:12:34.0000000+00:00</time></trkpt><trkpt lat="64.10566711" lon="-19.83332253"><ele>164.3</ele><time>2012-07-21T13:12:39.0000000+00:00</time></trkpt><trkpt lat="64.10565949" lon="-19.83330154"><ele>163.2</ele><time>2012-07-21T13:12:44.0000000+00:00</time></trkpt><trkpt lat="64.10565949" lon="-19.8332901"><ele>162.1</ele><time>2012-07-21T13:12:49.0000000+00:00</time></trkpt><trkpt lat="64.10566711" lon="-19.8332901"><ele>160.9</ele><time>2012-07-21T13:12:54.0000000+00:00</time></trkpt><trkpt lat="64.10566711" lon="-19.83329582"><ele>159.6</ele><time>2012-07-21T13:12:59.0000000+00:00</time></trkpt><trkpt lat="64.10565949" lon="-19.83330727"><ele>158.3</ele><time>2012-07-21T13:13:04.0000000+00:00</time></trkpt><trkpt lat="64.10565949" lon="-19.83331871"><ele>156.9</ele><time>2012-07-21T13:13:09.0000000+00:00</time></trkpt><trkpt lat="64.10565186" lon="-19.83333588"><ele>155.6</ele><time>2012-07-21T13:13:14.0000000+00:00</time></trkpt><trkpt lat="64.10564423" lon="-19.83335304"><ele>154.1</ele><time>2012-07-21T13:13:19.0000000+00:00</time></trkpt><trkpt lat="64.10562897" lon="-19.83338928"><ele>152.4</ele><time>2012-07-21T13:13:24.0000000+00:00</time></trkpt><trkpt lat="64.10558319" lon="-19.83355713"><ele>153.3</ele><time>2012-07-21T13:13:29.0000000+00:00</time></trkpt><trkpt lat="64.10553742" lon="-19.83369064"><ele>150.8</ele><time>2012-07-21T13:13:34.0000000+00:00</time></trkpt><trkpt lat="64.10552216" lon="-19.83379936"><ele>149.0</ele><time>2012-07-21T13:13:39.0000000+00:00</time></trkpt><trkpt lat="64.1055069" lon="-19.83389473"><ele>147.0</ele><time>2012-07-21T13:13:44.0000000+00:00</time></trkpt><trkpt lat="64.1055069" lon="-19.83390045"><ele>145.8</ele><time>2012-07-21T13:13:49.0000000+00:00</time></trkpt><trkpt lat="64.10549927" lon="-19.83391953"><ele>144.7</ele><time>2012-07-21T13:13:54.0000000+00:00</time></trkpt><trkpt lat="64.10549164" lon="-19.83393669"><ele>143.7</ele><time>2012-07-21T13:13:59.0000000+00:00</time></trkpt><trkpt lat="64.10547638" lon="-19.83395958"><ele>143.2</ele><time>2012-07-21T13:14:04.0000000+00:00</time></trkpt><trkpt lat="64.10546875" lon="-19.83397865"><ele>143.0</ele><time>2012-07-21T13:14:09.0000000+00:00</time></trkpt><trkpt lat="64.10546112" lon="-19.83396339"><ele>142.3</ele><time>2012-07-21T13:14:14.0000000+00:00</time></trkpt><trkpt lat="64.10546875" lon="-19.83396339"><ele>141.4</ele><time>2012-07-21T13:14:19.0000000+00:00</time></trkpt><trkpt lat="64.10546875" lon="-19.83395767"><ele>140.6</ele><time>2012-07-21T13:14:24.0000000+00:00</time></trkpt><trkpt lat="64.10546875" lon="-19.83396149"><ele>139.8</ele><time>2012-07-21T13:14:29.0000000+00:00</time></trkpt><trkpt lat="64.10546875" lon="-19.83396721"><ele>139.1</ele><time>2012-07-21T13:14:34.0000000+00:00</time></trkpt><trkpt lat="64.10547638" lon="-19.83396339"><ele>138.4</ele><time>2012-07-21T13:14:39.0000000+00:00</time></trkpt><trkpt lat="64.10547638" lon="-19.83395386"><ele>137.7</ele><time>2012-07-21T13:14:44.0000000+00:00</time></trkpt><trkpt lat="64.10548401" lon="-19.83393097"><ele>137.1</ele><time>2012-07-21T13:14:49.0000000+00:00</time></trkpt><trkpt lat="64.10549164" lon="-19.83390427"><ele>136.5</ele><time>2012-07-21T13:14:54.0000000+00:00</time></trkpt><trkpt lat="64.10549164" lon="-19.83387947"><ele>135.8</ele><time>2012-07-21T13:14:59.0000000+00:00</time></trkpt><trkpt lat="64.10549164" lon="-19.83385849"><ele>135.2</ele><time>2012-07-21T13:15:04.0000000+00:00</time></trkpt><trkpt lat="64.10549927" lon="-19.8338356"><ele>134.6</ele><time>2012-07-21T13:15:09.0000000+00:00</time></trkpt><trkpt lat="64.10549927" lon="-19.83378029"><ele>134.6</ele><time>2012-07-21T13:15:14.0000000+00:00</time></trkpt><trkpt lat="64.10546112" lon="-19.83371353"><ele>134.6</ele><time>2012-07-21T13:15:19.0000000+00:00</time></trkpt><trkpt lat="64.10540772" lon="-19.83359909"><ele>134.4</ele><time>2012-07-21T13:15:24.0000000+00:00</time></trkpt><trkpt lat="64.10535431" lon="-19.83349991"><ele>134.4</ele><time>2012-07-21T13:15:29.0000000+00:00</time></trkpt><trkpt lat="64.10531616" lon="-19.83345985"><ele>135.3</ele><time>2012-07-21T13:15:34.0000000+00:00</time></trkpt><trkpt lat="64.10533142" lon="-19.83348084"><ele>136.5</ele><time>2012-07-21T13:15:39.0000000+00:00</time></trkpt><trkpt lat="64.10536194" lon="-19.83350563"><ele>138.3</ele><time>2012-07-21T13:15:44.0000000+00:00</time></trkpt><trkpt lat="64.10536194" lon="-19.83349609"><ele>138.1</ele><time>2012-07-21T13:15:49.0000000+00:00</time></trkpt><trkpt lat="64.10536957" lon="-19.83350563"><ele>138.0</ele><time>2012-07-21T13:15:54.0000000+00:00</time></trkpt><trkpt lat="64.10541534" lon="-19.83354759"><ele>140.1</ele><time>2012-07-21T13:15:59.0000000+00:00</time></trkpt><trkpt lat="64.10546875" lon="-19.83361816"><ele>144.2</ele><time>2012-07-21T13:16:04.0000000+00:00</time></trkpt><trkpt lat="64.10549927" lon="-19.83364868"><ele>147.5</ele><time>2012-07-21T13:16:09.0000000+00:00</time></trkpt><trkpt lat="64.1055069" lon="-19.83365822"><ele>147.9</ele><time>2012-07-21T13:16:14.0000000+00:00</time></trkpt><trkpt lat="64.10551453" lon="-19.83366394"><ele>148.4</ele><time>2012-07-21T13:16:19.0000000+00:00</time></trkpt><trkpt lat="64.10552216" lon="-19.83366013"><ele>149.0</ele><time>2012-07-21T13:16:24.0000000+00:00</time></trkpt><trkpt lat="64.10552216" lon="-19.83365822"><ele>149.7</ele><time>2012-07-21T13:16:29.0000000+00:00</time></trkpt><trkpt lat="64.10552216" lon="-19.83365822"><ele>150.6</ele><time>2012-07-21T13:16:34.0000000+00:00</time></trkpt><trkpt lat="64.10552216" lon="-19.8336544"><ele>151.5</ele><time>2012-07-21T13:16:39.0000000+00:00</time></trkpt><trkpt lat="64.10551453" lon="-19.83364487"><ele>152.4</ele><time>2012-07-21T13:16:44.0000000+00:00</time></trkpt><trkpt lat="64.10551453" lon="-19.83363342"><ele>153.4</ele><time>2012-07-21T13:16:49.0000000+00:00</time></trkpt><trkpt lat="64.1055069" lon="-19.83362198"><ele>154.4</ele><time>2012-07-21T13:16:54.0000000+00:00</time></trkpt><trkpt lat="64.1055069" lon="-19.83361244"><ele>155.3</ele><time>2012-07-21T13:16:59.0000000+00:00</time></trkpt><trkpt lat="64.1055069" lon="-19.83360863"><ele>156.2</ele><time>2012-07-21T13:17:04.0000000+00:00</time></trkpt><trkpt lat="64.1055069" lon="-19.83361244"><ele>157.1</ele><time>2012-07-21T13:17:09.0000000+00:00</time></trkpt><trkpt lat="64.10551453" lon="-19.83362198"><ele>158.1</ele><time>2012-07-21T13:17:14.0000000+00:00</time></trkpt><trkpt lat="64.10552979" lon="-19.83363724"><ele>158.9</ele><time>2012-07-21T13:17:19.0000000+00:00</time></trkpt><trkpt lat="64.10553742" lon="-19.83364487"><ele>159.9</ele><time>2012-07-21T13:17:24.0000000+00:00</time></trkpt><trkpt lat="64.10557556" lon="-19.8336792"><ele>163.2</ele><time>2012-07-21T13:17:29.0000000+00:00</time></trkpt><trkpt lat="64.10561371" lon="-19.8337059"><ele>166.3</ele><time>2012-07-21T13:17:34.0000000+00:00</time></trkpt><trkpt lat="64.1056366" lon="-19.83374596"><ele>169.8</ele><time>2012-07-21T13:17:39.0000000+00:00</time></trkpt><trkpt lat="64.10567474" lon="-19.8337822"><ele>172.4</ele><time>2012-07-21T13:17:44.0000000+00:00</time></trkpt><trkpt lat="64.10569763" lon="-19.83381081"><ele>175.1</ele><time>2012-07-21T13:17:49.0000000+00:00</time></trkpt><trkpt lat="64.10569763" lon="-19.83380318"><ele>176.2</ele><time>2012-07-21T13:17:54.0000000+00:00</time></trkpt><trkpt lat="64.10569763" lon="-19.83382988"><ele>176.7</ele><time>2012-07-21T13:17:59.0000000+00:00</time></trkpt><trkpt lat="64.10568237" lon="-19.83382607"><ele>177.1</ele><time>2012-07-21T13:18:04.0000000+00:00</time></trkpt><trkpt lat="64.10569" lon="-19.83382607"><ele>178.4</ele><time>2012-07-21T13:18:09.0000000+00:00</time></trkpt><trkpt lat="64.10569763" lon="-19.83382225"><ele>179.6</ele><time>2012-07-21T13:18:14.0000000+00:00</time></trkpt><trkpt lat="64.10569763" lon="-19.83381653"><ele>180.8</ele><time>2012-07-21T13:18:19.0000000+00:00</time></trkpt><trkpt lat="64.10569763" lon="-19.8338089"><ele>181.7</ele><time>2012-07-21T13:18:24.0000000+00:00</time></trkpt><trkpt lat="64.10569" lon="-19.83379936"><ele>182.5</ele><time>2012-07-21T13:18:29.0000000+00:00</time></trkpt><trkpt lat="64.10569" lon="-19.83379746"><ele>182.9</ele><time>2012-07-21T13:18:34.0000000+00:00</time></trkpt><trkpt lat="64.10568237" lon="-19.83380127"><ele>183.2</ele><time>2012-07-21T13:18:39.0000000+00:00</time></trkpt><trkpt lat="64.10567474" lon="-19.83380127"><ele>183.3</ele><time>2012-07-21T13:18:44.0000000+00:00</time></trkpt><trkpt lat="64.10566711" lon="-19.83380127"><ele>183.3</ele><time>2012-07-21T13:18:49.0000000+00:00</time></trkpt><trkpt lat="64.10565949" lon="-19.83380699"><ele>183.1</ele><time>2012-07-21T13:18:54.0000000+00:00</time></trkpt><trkpt lat="64.10565186" lon="-19.83381462"><ele>182.7</ele><time>2012-07-21T13:18:59.0000000+00:00</time></trkpt><trkpt lat="64.10564423" lon="-19.83381844"><ele>182.3</ele><time>2012-07-21T13:19:04.0000000+00:00</time></trkpt><trkpt lat="64.10562897" lon="-19.83382034"><ele>181.6</ele><time>2012-07-21T13:19:09.0000000+00:00</time></trkpt><trkpt lat="64.10562134" lon="-19.83381653"><ele>180.8</ele><time>2012-07-21T13:19:14.0000000+00:00</time></trkpt><trkpt lat="64.10561371" lon="-19.8338089"><ele>179.8</ele><time>2012-07-21T13:19:19.0000000+00:00</time></trkpt><trkpt lat="64.10559845" lon="-19.83380318"><ele>178.8</ele><time>2012-07-21T13:19:24.0000000+00:00</time></trkpt><trkpt lat="64.10559082" lon="-19.83379555"><ele>177.8</ele><time>2012-07-21T13:19:29.0000000+00:00</time></trkpt><trkpt lat="64.10558319" lon="-19.83378601"><ele>176.8</ele><time>2012-07-21T13:19:34.0000000+00:00</time></trkpt><trkpt lat="64.10556793" lon="-19.83377647"><ele>175.8</ele><time>2012-07-21T13:19:39.0000000+00:00</time></trkpt><trkpt lat="64.1055603" lon="-19.83376694"><ele>174.9</ele><time>2012-07-21T13:19:44.0000000+00:00</time></trkpt><trkpt lat="64.10555267" lon="-19.83375931"><ele>174.0</ele><time>2012-07-21T13:19:49.0000000+00:00</time></trkpt><trkpt lat="64.10553742" lon="-19.83374786"><ele>172.1</ele><time>2012-07-21T13:19:54.0000000+00:00</time></trkpt><trkpt lat="64.10552979" lon="-19.83374786"><ele>170.8</ele><time>2012-07-21T13:19:59.0000000+00:00</time></trkpt><trkpt lat="64.10552216" lon="-19.83375931"><ele>169.8</ele><time>2012-07-21T13:20:04.0000000+00:00</time></trkpt><trkpt lat="64.10551453" lon="-19.83375168"><ele>168.8</ele><time>2012-07-21T13:20:09.0000000+00:00</time></trkpt><trkpt lat="64.10551453" lon="-19.83374405"><ele>168.2</ele><time>2012-07-21T13:20:14.0000000+00:00</time></trkpt><trkpt lat="64.1055069" lon="-19.83373451"><ele>167.7</ele><time>2012-07-21T13:20:19.0000000+00:00</time></trkpt><trkpt lat="64.10549927" lon="-19.8337307"><ele>167.2</ele><time>2012-07-21T13:20:24.0000000+00:00</time></trkpt><trkpt lat="64.10549927" lon="-19.83372688"><ele>166.8</ele><time>2012-07-21T13:20:29.0000000+00:00</time></trkpt><trkpt lat="64.10549164" lon="-19.83372498"><ele>166.4</ele><time>2012-07-21T13:20:34.0000000+00:00</time></trkpt><trkpt lat="64.10549164" lon="-19.83372116"><ele>166.0</ele><time>2012-07-21T13:20:39.0000000+00:00</time></trkpt><trkpt lat="64.10548401" lon="-19.83371925"><ele>165.7</ele><time>2012-07-21T13:20:44.0000000+00:00</time></trkpt><trkpt lat="64.10548401" lon="-19.83371162"><ele>165.3</ele><time>2012-07-21T13:20:49.0000000+00:00</time></trkpt><trkpt lat="64.10548401" lon="-19.833704"><ele>165.0</ele><time>2012-07-21T13:20:54.0000000+00:00</time></trkpt><trkpt lat="64.10548401" lon="-19.83369255"><ele>164.8</ele><time>2012-07-21T13:20:59.0000000+00:00</time></trkpt><trkpt lat="64.10548401" lon="-19.83368111"><ele>164.6</ele><time>2012-07-21T13:21:04.0000000+00:00</time></trkpt><trkpt lat="64.10547638" lon="-19.83367157"><ele>164.5</ele><time>2012-07-21T13:21:09.0000000+00:00</time></trkpt><trkpt lat="64.10547638" lon="-19.83366966"><ele>164.4</ele><time>2012-07-21T13:21:14.0000000+00:00</time></trkpt><trkpt lat="64.10546875" lon="-19.83367729"><ele>164.3</ele><time>2012-07-21T13:21:19.0000000+00:00</time></trkpt><trkpt lat="64.10547638" lon="-19.83368874"><ele>164.3</ele><time>2012-07-21T13:21:24.0000000+00:00</time></trkpt><trkpt lat="64.10547638" lon="-19.83369064"><ele>164.4</ele><time>2012-07-21T13:21:29.0000000+00:00</time></trkpt><trkpt lat="64.10548401" lon="-19.83368683"><ele>164.7</ele><time>2012-07-21T13:21:34.0000000+00:00</time></trkpt><trkpt lat="64.10554504" lon="-19.83370781"><ele>167.2</ele><time>2012-07-21T13:21:39.0000000+00:00</time></trkpt><trkpt lat="64.10557556" lon="-19.83374023"><ele>168.8</ele><time>2012-07-21T13:21:44.0000000+00:00</time></trkpt><trkpt lat="64.10561371" lon="-19.83377266"><ele>170.8</ele><time>2012-07-21T13:21:49.0000000+00:00</time></trkpt><trkpt lat="64.10561371" lon="-19.83383369"><ele>172.3</ele><time>2012-07-21T13:21:54.0000000+00:00</time></trkpt><trkpt lat="64.10562134" lon="-19.8338604"><ele>172.1</ele><time>2012-07-21T13:21:59.0000000+00:00</time></trkpt><trkpt lat="64.10562897" lon="-19.83387184"><ele>172.8</ele><time>2012-07-21T13:22:04.0000000+00:00</time></trkpt><trkpt lat="64.1056366" lon="-19.8338604"><ele>172.0</ele><time>2012-07-21T13:22:09.0000000+00:00</time></trkpt><trkpt lat="64.10564423" lon="-19.83384514"><ele>172.6</ele><time>2012-07-21T13:22:14.0000000+00:00</time></trkpt><trkpt lat="64.10564423" lon="-19.83384323"><ele>172.8</ele><time>2012-07-21T13:22:19.0000000+00:00</time></trkpt><trkpt lat="64.10565186" lon="-19.83384323"><ele>173.1</ele><time>2012-07-21T13:22:24.0000000+00:00</time></trkpt><trkpt lat="64.10565186" lon="-19.83385086"><ele>173.2</ele><time>2012-07-21T13:22:29.0000000+00:00</time></trkpt><trkpt lat="64.10565186" lon="-19.83385277"><ele>173.3</ele><time>2012-07-21T13:22:34.0000000+00:00</time></trkpt><trkpt lat="64.10565186" lon="-19.83385658"><ele>173.4</ele><time>2012-07-21T13:22:39.0000000+00:00</time></trkpt><trkpt lat="64.10565186" lon="-19.8338604"><ele>173.4</ele><time>2012-07-21T13:22:44.0000000+00:00</time></trkpt><trkpt lat="64.10565186" lon="-19.83386612"><ele>173.4</ele><time>2012-07-21T13:22:49.0000000+00:00</time></trkpt><trkpt lat="64.10564423" lon="-19.83388138"><ele>173.5</ele><time>2012-07-21T13:22:54.0000000+00:00</time></trkpt><trkpt lat="64.1056366" lon="-19.83390045"><ele>173.5</ele><time>2012-07-21T13:22:59.0000000+00:00</time></trkpt><trkpt lat="64.10561371" lon="-19.83393288"><ele>172.5</ele><time>2012-07-21T13:23:04.0000000+00:00</time></trkpt><trkpt lat="64.10562134" lon="-19.8339386"><ele>171.9</ele><time>2012-07-21T13:23:09.0000000+00:00</time></trkpt><trkpt lat="64.10562134" lon="-19.83394814"><ele>171.9</ele><time>2012-07-21T13:23:14.0000000+00:00</time></trkpt><trkpt lat="64.10562134" lon="-19.83395386"><ele>171.8</ele><time>2012-07-21T13:23:19.0000000+00:00</time></trkpt><trkpt lat="64.10562134" lon="-19.83394623"><ele>171.8</ele><time>2012-07-21T13:23:24.0000000+00:00</time></trkpt><trkpt lat="64.10562897" lon="-19.83393478"><ele>171.7</ele><time>2012-07-21T13:23:29.0000000+00:00</time></trkpt><trkpt lat="64.10562897" lon="-19.83392143"><ele>171.7</ele><time>2012-07-21T13:23:34.0000000+00:00</time></trkpt><trkpt lat="64.10562897" lon="-19.83390236"><ele>171.8</ele><time>2012-07-21T13:23:39.0000000+00:00</time></trkpt><trkpt lat="64.10562897" lon="-19.83388519"><ele>171.8</ele><time>2012-07-21T13:23:44.0000000+00:00</time></trkpt><trkpt lat="64.10562897" lon="-19.83388138"><ele>171.8</ele><time>2012-07-21T13:23:49.0000000+00:00</time></trkpt><trkpt lat="64.1056366" lon="-19.83387756"><ele>171.9</ele><time>2012-07-21T13:23:54.0000000+00:00</time></trkpt><trkpt lat="64.10564423" lon="-19.83388519"><ele>171.9</ele><time>2012-07-21T13:23:59.0000000+00:00</time></trkpt><trkpt lat="64.10564423" lon="-19.83387375"><ele>171.9</ele><time>2012-07-21T13:24:04.0000000+00:00</time></trkpt><trkpt lat="64.10564423" lon="-19.83385277"><ele>171.9</ele><time>2012-07-21T13:24:09.0000000+00:00</time></trkpt><trkpt lat="64.10564423" lon="-19.83383369"><ele>171.7</ele><time>2012-07-21T13:24:14.0000000+00:00</time></trkpt><trkpt lat="64.10564423" lon="-19.83382988"><ele>171.6</ele><time>2012-07-21T13:24:19.0000000+00:00</time></trkpt><trkpt lat="64.1056366" lon="-19.83382034"><ele>171.4</ele><time>2012-07-21T13:24:24.0000000+00:00</time></trkpt><trkpt lat="64.10562897" lon="-19.83380318"><ele>171.3</ele><time>2012-07-21T13:24:29.0000000+00:00</time></trkpt><trkpt lat="64.10562134" lon="-19.83375549"><ele>170.6</ele><time>2012-07-21T13:24:34.0000000+00:00</time></trkpt><trkpt lat="64.10561371" lon="-19.83373833"><ele>169.8</ele><time>2012-07-21T13:24:39.0000000+00:00</time></trkpt><trkpt lat="64.10561371" lon="-19.83373833"><ele>169.5</ele><time>2012-07-21T13:24:44.0000000+00:00</time></trkpt><trkpt lat="64.10561371" lon="-19.83374405"><ele>169.2</ele><time>2012-07-21T13:24:49.0000000+00:00</time></trkpt><trkpt lat="64.10560608" lon="-19.83374977"><ele>168.9</ele><time>2012-07-21T13:24:54.0000000+00:00</time></trkpt><trkpt lat="64.10560608" lon="-19.83374214"><ele>168.6</ele><time>2012-07-21T13:24:59.0000000+00:00</time></trkpt><trkpt lat="64.10560608" lon="-19.83372498"><ele>168.2</ele><time>2012-07-21T13:25:04.0000000+00:00</time></trkpt><trkpt lat="64.10560608" lon="-19.83371925"><ele>167.5</ele><time>2012-07-21T13:25:09.0000000+00:00</time></trkpt><trkpt lat="64.10560608" lon="-19.83370972"><ele>167.1</ele><time>2012-07-21T13:25:14.0000000+00:00</time></trkpt><trkpt lat="64.10560608" lon="-19.83370781"><ele>166.8</ele><time>2012-07-21T13:25:19.0000000+00:00</time></trkpt><trkpt lat="64.10559845" lon="-19.83370781"><ele>166.5</ele><time>2012-07-21T13:25:24.0000000+00:00</time></trkpt><trkpt lat="64.10559845" lon="-19.83372879"><ele>166.2</ele><time>2012-07-21T13:25:29.0000000+00:00</time></trkpt><trkpt lat="64.10564423" lon="-19.83382416"><ele>167.1</ele><time>2012-07-21T13:25:34.0000000+00:00</time></trkpt><trkpt lat="64.10561371" lon="-19.83382797"><ele>164.1</ele><time>2012-07-21T13:25:39.0000000+00:00</time></trkpt><trkpt lat="64.10559082" lon="-19.83379555"><ele>162.6</ele><time>2012-07-21T13:25:44.0000000+00:00</time></trkpt><trkpt lat="64.10558319" lon="-19.83379936"><ele>162.2</ele><time>2012-07-21T13:25:49.0000000+00:00</time></trkpt><trkpt lat="64.10557556" lon="-19.83380508"><ele>161.7</ele><time>2012-07-21T13:25:54.0000000+00:00</time></trkpt><trkpt lat="64.1055603" lon="-19.83381081"><ele>161.1</ele><time>2012-07-21T13:25:59.0000000+00:00</time></trkpt><trkpt lat="64.10555267" lon="-19.83381653"><ele>160.5</ele><time>2012-07-21T13:26:04.0000000+00:00</time></trkpt><trkpt lat="64.10552216" lon="-19.83382034"><ele>160.5</ele><time>2012-07-21T13:26:09.0000000+00:00</time></trkpt><trkpt lat="64.10549927" lon="-19.83377457"><ele>159.8</ele><time>2012-07-21T13:26:14.0000000+00:00</time></trkpt><trkpt lat="64.10549164" lon="-19.8337059"><ele>159.3</ele><time>2012-07-21T13:26:19.0000000+00:00</time></trkpt><trkpt lat="64.10549164" lon="-19.83369064"><ele>159.4</ele><time>2012-07-21T13:26:24.0000000+00:00</time></trkpt><trkpt lat="64.10549927" lon="-19.83368683"><ele>159.8</ele><time>2012-07-21T13:26:29.0000000+00:00</time></trkpt><trkpt lat="64.10549164" lon="-19.83368111"><ele>159.4</ele><time>2012-07-21T13:26:34.0000000+00:00</time></trkpt><trkpt lat="64.10549927" lon="-19.83369064"><ele>159.0</ele><time>2012-07-21T13:26:39.0000000+00:00</time></trkpt><trkpt lat="64.10567474" lon="-19.83378601"><ele>158.0</ele><time>2012-07-21T13:26:44.0000000+00:00</time></trkpt><trkpt lat="64.10568237" lon="-19.83374977"><ele>156.6</ele><time>2012-07-21T13:26:49.0000000+00:00</time></trkpt><trkpt lat="64.10568237" lon="-19.83374023"><ele>156.0</ele><time>2012-07-21T13:26:54.0000000+00:00</time></trkpt><trkpt lat="64.10561371" lon="-19.83364677"><ele>154.8</ele><time>2012-07-21T13:26:59.0000000+00:00</time></trkpt><trkpt lat="64.10561371" lon="-19.83362961"><ele>155.8</ele><time>2012-07-21T13:27:04.0000000+00:00</time></trkpt><trkpt lat="64.10561371" lon="-19.83362961"><ele>156.1</ele><time>2012-07-21T13:27:09.0000000+00:00</time></trkpt><trkpt lat="64.10561371" lon="-19.83362961"><ele>156.2</ele><time>2012-07-21T13:27:14.0000000+00:00</time></trkpt><trkpt lat="64.10561371" lon="-19.83362961"><ele>156.2</ele><time>2012-07-21T13:27:19.0000000+00:00</time></trkpt><trkpt lat="64.10561371" lon="-19.83362961"><ele>156.2</ele><time>2012-07-21T13:27:24.0000000+00:00</time></trkpt><trkpt lat="64.10561371" lon="-19.83362961"><ele>156.2</ele><time>2012-07-21T13:27:29.0000000+00:00</time></trkpt><trkpt lat="64.10561371" lon="-19.83362961"><ele>156.2</ele><time>2012-07-21T13:27:34.0000000+00:00</time></trkpt><trkpt lat="64.10561371" lon="-19.83362961"><ele>156.2</ele><time>2012-07-21T13:27:39.0000000+00:00</time></trkpt><trkpt lat="64.10561371" lon="-19.83362961"><ele>156.2</ele><time>2012-07-21T13:27:44.0000000+00:00</time></trkpt><trkpt lat="64.10561371" lon="-19.83362961"><ele>156.2</ele><time>2012-07-21T13:27:49.0000000+00:00</time></trkpt><trkpt lat="64.10561371" lon="-19.83362961"><ele>156.2</ele><time>2012-07-21T13:27:54.0000000+00:00</time></trkpt><trkpt lat="64.10561371" lon="-19.8336277"><ele>156.3</ele><time>2012-07-21T13:27:59.0000000+00:00</time></trkpt><trkpt lat="64.10561371" lon="-19.83362961"><ele>156.4</ele><time>2012-07-21T13:28:04.0000000+00:00</time></trkpt><trkpt lat="64.10562134" lon="-19.83375359"><ele>157.6</ele><time>2012-07-21T13:28:09.0000000+00:00</time></trkpt><trkpt lat="64.1056366" lon="-19.83392716"><ele>157.4</ele><time>2012-07-21T13:28:14.0000000+00:00</time></trkpt><trkpt lat="64.10565949" lon="-19.8342495"><ele>156.0</ele><time>2012-07-21T13:28:19.0000000+00:00</time></trkpt><trkpt lat="64.10569" lon="-19.83454514"><ele>154.1</ele><time>2012-07-21T13:28:24.0000000+00:00</time></trkpt><trkpt lat="64.10575104" lon="-19.83480644"><ele>153.0</ele><time>2012-07-21T13:28:29.0000000+00:00</time></trkpt><trkpt lat="64.10587311" lon="-19.83495331"><ele>150.7</ele><time>2012-07-21T13:28:34.0000000+00:00</time></trkpt><trkpt lat="64.10601807" lon="-19.83501244"><ele>147.2</ele><time>2012-07-21T13:28:39.0000000+00:00</time></trkpt><trkpt lat="64.10618591" lon="-19.83506966"><ele>144.9</ele><time>2012-07-21T13:28:44.0000000+00:00</time></trkpt><trkpt lat="64.10638428" lon="-19.83514023"><ele>143.0</ele><time>2012-07-21T13:28:49.0000000+00:00</time></trkpt><trkpt lat="64.10659027" lon="-19.83522797"><ele>141.9</ele><time>2012-07-21T13:28:54.0000000+00:00</time></trkpt><trkpt lat="64.10680389" lon="-19.83533287"><ele>141.1</ele><time>2012-07-21T13:28:59.0000000+00:00</time></trkpt><trkpt lat="64.10697937" lon="-19.83537102"><ele>138.7</ele><time>2012-07-21T13:29:04.0000000+00:00</time></trkpt><trkpt lat="64.10697937" lon="-19.83536911"><ele>136.7</ele><time>2012-07-21T13:29:09.0000000+00:00</time></trkpt><trkpt lat="64.10697937" lon="-19.83536911"><ele>136.6</ele><time>2012-07-21T13:29:14.0000000+00:00</time></trkpt><trkpt lat="64.10697937" lon="-19.83536911"><ele>136.6</ele><time>2012-07-21T13:29:19.0000000+00:00</time></trkpt><trkpt lat="64.106987" lon="-19.8353672"><ele>136.6</ele><time>2012-07-21T13:29:24.0000000+00:00</time></trkpt><trkpt lat="64.10697937" lon="-19.8353672"><ele>136.6</ele><time>2012-07-21T13:29:29.0000000+00:00</time></trkpt><trkpt lat="64.10701752" lon="-19.83536911"><ele>135.9</ele><time>2012-07-21T13:29:34.0000000+00:00</time></trkpt><trkpt lat="64.10715485" lon="-19.83543205"><ele>135.0</ele><time>2012-07-21T13:29:39.0000000+00:00</time></trkpt><trkpt lat="64.10733032" lon="-19.835495"><ele>134.5</ele><time>2012-07-21T13:29:44.0000000+00:00</time></trkpt><trkpt lat="64.10754395" lon="-19.83554077"><ele>134.0</ele><time>2012-07-21T13:29:49.0000000+00:00</time></trkpt><trkpt lat="64.10777283" lon="-19.83558083"><ele>133.6</ele><time>2012-07-21T13:29:54.0000000+00:00</time></trkpt><trkpt lat="64.10800171" lon="-19.83563995"><ele>133.2</ele><time>2012-07-21T13:29:59.0000000+00:00</time></trkpt><trkpt lat="64.10823822" lon="-19.83568192"><ele>132.9</ele><time>2012-07-21T13:30:04.0000000+00:00</time></trkpt><trkpt lat="64.10848236" lon="-19.83572578"><ele>132.0</ele><time>2012-07-21T13:30:09.0000000+00:00</time></trkpt><trkpt lat="64.10871887" lon="-19.83576012"><ele>131.5</ele><time>2012-07-21T13:30:14.0000000+00:00</time></trkpt><trkpt lat="64.10896301" lon="-19.8357811"><ele>131.0</ele><time>2012-07-21T13:30:19.0000000+00:00</time></trkpt><trkpt lat="64.10918427" lon="-19.83579826"><ele>130.9</ele><time>2012-07-21T13:30:24.0000000+00:00</time></trkpt><trkpt lat="64.10940552" lon="-19.8357811"><ele>130.9</ele><time>2012-07-21T13:30:29.0000000+00:00</time></trkpt><trkpt lat="64.10960388" lon="-19.8357296"><ele>130.5</ele><time>2012-07-21T13:30:34.0000000+00:00</time></trkpt><trkpt lat="64.10982513" lon="-19.83566475"><ele>130.0</ele><time>2012-07-21T13:30:39.0000000+00:00</time></trkpt><trkpt lat="64.11001587" lon="-19.83559227"><ele>129.8</ele><time>2012-07-21T13:30:44.0000000+00:00</time></trkpt><trkpt lat="64.1102066" lon="-19.83553124"><ele>129.7</ele><time>2012-07-21T13:30:49.0000000+00:00</time></trkpt><trkpt lat="64.11038208" lon="-19.8354435"><ele>129.6</ele><time>2012-07-21T13:30:54.0000000+00:00</time></trkpt><trkpt lat="64.11054993" lon="-19.83535957"><ele>129.4</ele><time>2012-07-21T13:30:59.0000000+00:00</time></trkpt><trkpt lat="64.1107254" lon="-19.83521271"><ele>129.2</ele><time>2012-07-21T13:31:04.0000000+00:00</time></trkpt><trkpt lat="64.11087799" lon="-19.83499146"><ele>129.2</ele><time>2012-07-21T13:31:09.0000000+00:00</time></trkpt><trkpt lat="64.11103058" lon="-19.83473396"><ele>130.0</ele><time>2012-07-21T13:31:14.0000000+00:00</time></trkpt><trkpt lat="64.11115265" lon="-19.83446312"><ele>130.0</ele><time>2012-07-21T13:31:19.0000000+00:00</time></trkpt><trkpt lat="64.11125946" lon="-19.8342247"><ele>129.9</ele><time>2012-07-21T13:31:24.0000000+00:00</time></trkpt><trkpt lat="64.1113739" lon="-19.83402634"><ele>130.3</ele><time>2012-07-21T13:31:29.0000000+00:00</time></trkpt><trkpt lat="64.11145783" lon="-19.83382416"><ele>130.1</ele><time>2012-07-21T13:31:34.0000000+00:00</time></trkpt><trkpt lat="64.11155701" lon="-19.83361626"><ele>129.7</ele><time>2012-07-21T13:31:39.0000000+00:00</time></trkpt><trkpt lat="64.11165619" lon="-19.83340073"><ele>129.4</ele><time>2012-07-21T13:31:44.0000000+00:00</time></trkpt><trkpt lat="64.11175537" lon="-19.83321381"><ele>128.3</ele><time>2012-07-21T13:31:49.0000000+00:00</time></trkpt><trkpt lat="64.11186218" lon="-19.8330307"><ele>128.3</ele><time>2012-07-21T13:31:54.0000000+00:00</time></trkpt><trkpt lat="64.11198425" lon="-19.83285141"><ele>127.9</ele><time>2012-07-21T13:31:59.0000000+00:00</time></trkpt><trkpt lat="64.11213684" lon="-19.83262634"><ele>127.6</ele><time>2012-07-21T13:32:04.0000000+00:00</time></trkpt><trkpt lat="64.11228943" lon="-19.83245277"><ele>127.7</ele><time>2012-07-21T13:32:09.0000000+00:00</time></trkpt><trkpt lat="64.11243439" lon="-19.83230209"><ele>128.3</ele><time>2012-07-21T13:32:14.0000000+00:00</time></trkpt><trkpt lat="64.11255646" lon="-19.83217812"><ele>128.2</ele><time>2012-07-21T13:32:19.0000000+00:00</time></trkpt><trkpt lat="64.1126709" lon="-19.83209229"><ele>128.6</ele><time>2012-07-21T13:32:24.0000000+00:00</time></trkpt><trkpt lat="64.11275482" lon="-19.83199692"><ele>128.3</ele><time>2012-07-21T13:32:29.0000000+00:00</time></trkpt><trkpt lat="64.11284638" lon="-19.8319149"><ele>128.7</ele><time>2012-07-21T13:32:34.0000000+00:00</time></trkpt><trkpt lat="64.11295319" lon="-19.83181381"><ele>129.4</ele><time>2012-07-21T13:32:39.0000000+00:00</time></trkpt><trkpt lat="64.11304474" lon="-19.83172226"><ele>130.3</ele><time>2012-07-21T13:32:44.0000000+00:00</time></trkpt><trkpt lat="64.11313629" lon="-19.8316555"><ele>130.9</ele><time>2012-07-21T13:32:49.0000000+00:00</time></trkpt><trkpt lat="64.11322022" lon="-19.8315773"><ele>131.4</ele><time>2012-07-21T13:32:54.0000000+00:00</time></trkpt><trkpt lat="64.11330414" lon="-19.83152771"><ele>131.8</ele><time>2012-07-21T13:32:59.0000000+00:00</time></trkpt><trkpt lat="64.11338043" lon="-19.83146858"><ele>132.3</ele><time>2012-07-21T13:33:04.0000000+00:00</time></trkpt><trkpt lat="64.11347199" lon="-19.83138657"><ele>133.1</ele><time>2012-07-21T13:33:09.0000000+00:00</time></trkpt><trkpt lat="64.11356354" lon="-19.83129883"><ele>133.8</ele><time>2012-07-21T13:33:14.0000000+00:00</time></trkpt><trkpt lat="64.11366272" lon="-19.83119774"><ele>134.5</ele><time>2012-07-21T13:33:19.0000000+00:00</time></trkpt><trkpt lat="64.11375427" lon="-19.83111"><ele>134.7</ele><time>2012-07-21T13:33:24.0000000+00:00</time></trkpt><trkpt lat="64.11383057" lon="-19.83103371"><ele>135.1</ele><time>2012-07-21T13:33:29.0000000+00:00</time></trkpt><trkpt lat="64.11392975" lon="-19.83095741"><ele>135.8</ele><time>2012-07-21T13:33:34.0000000+00:00</time></trkpt><trkpt lat="64.1140213" lon="-19.83087349"><ele>135.2</ele><time>2012-07-21T13:33:39.0000000+00:00</time></trkpt><trkpt lat="64.11412048" lon="-19.8307972"><ele>135.8</ele><time>2012-07-21T13:33:44.0000000+00:00</time></trkpt><trkpt lat="64.11421967" lon="-19.83069611"><ele>133.8</ele><time>2012-07-21T13:33:49.0000000+00:00</time></trkpt><trkpt lat="64.11431122" lon="-19.83059692"><ele>131.5</ele><time>2012-07-21T13:33:54.0000000+00:00</time></trkpt><trkpt lat="64.11442566" lon="-19.83050346"><ele>130.3</ele><time>2012-07-21T13:33:59.0000000+00:00</time></trkpt><trkpt lat="64.1145401" lon="-19.83044624"><ele>131.4</ele><time>2012-07-21T13:34:04.0000000+00:00</time></trkpt><trkpt lat="64.11465454" lon="-19.83033752"><ele>131.9</ele><time>2012-07-21T13:34:09.0000000+00:00</time></trkpt><trkpt lat="64.11476898" lon="-19.83025551"><ele>132.1</ele><time>2012-07-21T13:34:14.0000000+00:00</time></trkpt><trkpt lat="64.11486816" lon="-19.83018684"><ele>133.5</ele><time>2012-07-21T13:34:19.0000000+00:00</time></trkpt><trkpt lat="64.11493683" lon="-19.8301487"><ele>134.5</ele><time>2012-07-21T13:34:24.0000000+00:00</time></trkpt><trkpt lat="64.11502075" lon="-19.8300457"><ele>134.8</ele><time>2012-07-21T13:34:29.0000000+00:00</time></trkpt><trkpt lat="64.11511231" lon="-19.82997322"><ele>135.1</ele><time>2012-07-21T13:34:34.0000000+00:00</time></trkpt><trkpt lat="64.11517334" lon="-19.82991219"><ele>135.6</ele><time>2012-07-21T13:34:39.0000000+00:00</time></trkpt><trkpt lat="64.11524963" lon="-19.82983017"><ele>135.8</ele><time>2012-07-21T13:34:44.0000000+00:00</time></trkpt><trkpt lat="64.11534119" lon="-19.82974815"><ele>136.3</ele><time>2012-07-21T13:34:49.0000000+00:00</time></trkpt><trkpt lat="64.11543274" lon="-19.82970047"><ele>137.4</ele><time>2012-07-21T13:34:54.0000000+00:00</time></trkpt><trkpt lat="64.11550903" lon="-19.82962036"><ele>137.8</ele><time>2012-07-21T13:34:59.0000000+00:00</time></trkpt><trkpt lat="64.11558533" lon="-19.82954025"><ele>138.7</ele><time>2012-07-21T13:35:04.0000000+00:00</time></trkpt><trkpt lat="64.11566925" lon="-19.82946587"><ele>139.9</ele><time>2012-07-21T13:35:09.0000000+00:00</time></trkpt><trkpt lat="64.11574554" lon="-19.82937622"><ele>140.5</ele><time>2012-07-21T13:35:14.0000000+00:00</time></trkpt><trkpt lat="64.11579895" lon="-19.82933235"><ele>140.6</ele><time>2012-07-21T13:35:19.0000000+00:00</time></trkpt><trkpt lat="64.11588287" lon="-19.8292675"><ele>141.3</ele><time>2012-07-21T13:35:24.0000000+00:00</time></trkpt><trkpt lat="64.11595917" lon="-19.82922745"><ele>141.8</ele><time>2012-07-21T13:35:29.0000000+00:00</time></trkpt><trkpt lat="64.11603546" lon="-19.82914734"><ele>142.7</ele><time>2012-07-21T13:35:34.0000000+00:00</time></trkpt><trkpt lat="64.11611939" lon="-19.82907105"><ele>143.2</ele><time>2012-07-21T13:35:39.0000000+00:00</time></trkpt><trkpt lat="64.11620331" lon="-19.82901955"><ele>143.5</ele><time>2012-07-21T13:35:44.0000000+00:00</time></trkpt><trkpt lat="64.11628723" lon="-19.82896042"><ele>144.1</ele><time>2012-07-21T13:35:49.0000000+00:00</time></trkpt><trkpt lat="64.11638641" lon="-19.82892799"><ele>144.8</ele><time>2012-07-21T13:35:54.0000000+00:00</time></trkpt><trkpt lat="64.11647797" lon="-19.82890129"><ele>145.4</ele><time>2012-07-21T13:35:59.0000000+00:00</time></trkpt><trkpt lat="64.11656952" lon="-19.8288784"><ele>145.9</ele><time>2012-07-21T13:36:04.0000000+00:00</time></trkpt><trkpt lat="64.11667633" lon="-19.82884789"><ele>146.7</ele><time>2012-07-21T13:36:09.0000000+00:00</time></trkpt><trkpt lat="64.11677551" lon="-19.82884598"><ele>147.3</ele><time>2012-07-21T13:36:14.0000000+00:00</time></trkpt><trkpt lat="64.11686707" lon="-19.82885552"><ele>148.1</ele><time>2012-07-21T13:36:19.0000000+00:00</time></trkpt><trkpt lat="64.11695862" lon="-19.82887077"><ele>148.8</ele><time>2012-07-21T13:36:24.0000000+00:00</time></trkpt><trkpt lat="64.1170578" lon="-19.82891274"><ele>149.6</ele><time>2012-07-21T13:36:29.0000000+00:00</time></trkpt><trkpt lat="64.11716461" lon="-19.8289299"><ele>150.5</ele><time>2012-07-21T13:36:34.0000000+00:00</time></trkpt><trkpt lat="64.11726379" lon="-19.82898712"><ele>151.0</ele><time>2012-07-21T13:36:39.0000000+00:00</time></trkpt><trkpt lat="64.11736298" lon="-19.82905769"><ele>151.6</ele><time>2012-07-21T13:36:44.0000000+00:00</time></trkpt><trkpt lat="64.11746216" lon="-19.82912445"><ele>152.4</ele><time>2012-07-21T13:36:49.0000000+00:00</time></trkpt><trkpt lat="64.11753082" lon="-19.82915497"><ele>153.1</ele><time>2012-07-21T13:36:54.0000000+00:00</time></trkpt><trkpt lat="64.11760712" lon="-19.82922745"><ele>153.7</ele><time>2012-07-21T13:36:59.0000000+00:00</time></trkpt><trkpt lat="64.11769104" lon="-19.829319"><ele>154.6</ele><time>2012-07-21T13:37:04.0000000+00:00</time></trkpt><trkpt lat="64.11779022" lon="-19.82940483"><ele>155.2</ele><time>2012-07-21T13:37:09.0000000+00:00</time></trkpt><trkpt lat="64.11790466" lon="-19.82953835"><ele>155.5</ele><time>2012-07-21T13:37:14.0000000+00:00</time></trkpt><trkpt lat="64.11802673" lon="-19.82972527"><ele>155.6</ele><time>2012-07-21T13:37:19.0000000+00:00</time></trkpt><trkpt lat="64.11817169" lon="-19.82994461"><ele>155.7</ele><time>2012-07-21T13:37:24.0000000+00:00</time></trkpt><trkpt lat="64.11833191" lon="-19.83023453"><ele>155.9</ele><time>2012-07-21T13:37:29.0000000+00:00</time></trkpt><trkpt lat="64.11847687" lon="-19.83055496"><ele>156.0</ele><time>2012-07-21T13:37:34.0000000+00:00</time></trkpt><trkpt lat="64.11862946" lon="-19.83085442"><ele>157.6</ele><time>2012-07-21T13:37:39.0000000+00:00</time></trkpt><trkpt lat="64.1187973" lon="-19.83112335"><ele>157.7</ele><time>2012-07-21T13:37:44.0000000+00:00</time></trkpt><trkpt lat="64.11895752" lon="-19.8313446"><ele>157.7</ele><time>2012-07-21T13:37:49.0000000+00:00</time></trkpt><trkpt lat="64.11908722" lon="-19.83137131"><ele>158.3</ele><time>2012-07-21T13:37:54.0000000+00:00</time></trkpt><trkpt lat="64.11916351" lon="-19.83120728"><ele>158.6</ele><time>2012-07-21T13:37:59.0000000+00:00</time></trkpt><trkpt lat="64.11917877" lon="-19.8309021"><ele>157.7</ele><time>2012-07-21T13:38:04.0000000+00:00</time></trkpt><trkpt lat="64.11919403" lon="-19.83059502"><ele>158.6</ele><time>2012-07-21T13:38:09.0000000+00:00</time></trkpt><trkpt lat="64.11921692" lon="-19.83032608"><ele>158.7</ele><time>2012-07-21T13:38:14.0000000+00:00</time></trkpt><trkpt lat="64.11925507" lon="-19.83002091"><ele>159.0</ele><time>2012-07-21T13:38:19.0000000+00:00</time></trkpt><trkpt lat="64.11929321" lon="-19.82971954"><ele>159.8</ele><time>2012-07-21T13:38:24.0000000+00:00</time></trkpt><trkpt lat="64.11933136" lon="-19.82948113"><ele>159.8</ele><time>2012-07-21T13:38:29.0000000+00:00</time></trkpt><trkpt lat="64.11937714" lon="-19.829216"><ele>159.7</ele><time>2012-07-21T13:38:34.0000000+00:00</time></trkpt><trkpt lat="64.11942291" lon="-19.82900238"><ele>160.1</ele><time>2012-07-21T13:38:39.0000000+00:00</time></trkpt><trkpt lat="64.11947632" lon="-19.8287468"><ele>160.1</ele><time>2012-07-21T13:38:44.0000000+00:00</time></trkpt><trkpt lat="64.1195221" lon="-19.82850838"><ele>160.1</ele><time>2012-07-21T13:38:49.0000000+00:00</time></trkpt><trkpt lat="64.11959839" lon="-19.82824707"><ele>160.4</ele><time>2012-07-21T13:38:54.0000000+00:00</time></trkpt><trkpt lat="64.11966705" lon="-19.8279953"><ele>160.8</ele><time>2012-07-21T13:38:59.0000000+00:00</time></trkpt><trkpt lat="64.11972809" lon="-19.82777023"><ele>161.3</ele><time>2012-07-21T13:39:04.0000000+00:00</time></trkpt><trkpt lat="64.11978912" lon="-19.82762146"><ele>160.9</ele><time>2012-07-21T13:39:09.0000000+00:00</time></trkpt><trkpt lat="64.11985016" lon="-19.82744598"><ele>161.1</ele><time>2012-07-21T13:39:14.0000000+00:00</time></trkpt><trkpt lat="64.11990356" lon="-19.82728767"><ele>161.7</ele><time>2012-07-21T13:39:19.0000000+00:00</time></trkpt><trkpt lat="64.11994934" lon="-19.82718468"><ele>161.7</ele><time>2012-07-21T13:39:24.0000000+00:00</time></trkpt><trkpt lat="64.12002564" lon="-19.82700729"><ele>162.1</ele><time>2012-07-21T13:39:29.0000000+00:00</time></trkpt><trkpt lat="64.12010193" lon="-19.82683373"><ele>162.6</ele><time>2012-07-21T13:39:34.0000000+00:00</time></trkpt><trkpt lat="64.12017059" lon="-19.82666588"><ele>163.1</ele><time>2012-07-21T13:39:39.0000000+00:00</time></trkpt><trkpt lat="64.12023163" lon="-19.82655335"><ele>163.3</ele><time>2012-07-21T13:39:44.0000000+00:00</time></trkpt><trkpt lat="64.12030029" lon="-19.82641029"><ele>163.8</ele><time>2012-07-21T13:39:49.0000000+00:00</time></trkpt><trkpt lat="64.12037659" lon="-19.82625389"><ele>164.1</ele><time>2012-07-21T13:39:54.0000000+00:00</time></trkpt><trkpt lat="64.12046814" lon="-19.82609558"><ele>164.5</ele><time>2012-07-21T13:39:59.0000000+00:00</time></trkpt><trkpt lat="64.1205368" lon="-19.82602692"><ele>165.0</ele><time>2012-07-21T13:40:04.0000000+00:00</time></trkpt><trkpt lat="64.12060547" lon="-19.82595444"><ele>165.2</ele><time>2012-07-21T13:40:09.0000000+00:00</time></trkpt><trkpt lat="64.12068939" lon="-19.8258152"><ele>165.5</ele><time>2012-07-21T13:40:14.0000000+00:00</time></trkpt><trkpt lat="64.12078095" lon="-19.82567406"><ele>165.7</ele><time>2012-07-21T13:40:19.0000000+00:00</time></trkpt><trkpt lat="64.12088776" lon="-19.82554436"><ele>166.7</ele><time>2012-07-21T13:40:24.0000000+00:00</time></trkpt><trkpt lat="64.12099457" lon="-19.82542419"><ele>167.2</ele><time>2012-07-21T13:40:29.0000000+00:00</time></trkpt><trkpt lat="64.12110138" lon="-19.82531929"><ele>167.8</ele><time>2012-07-21T13:40:34.0000000+00:00</time></trkpt><trkpt lat="64.12119293" lon="-19.82523155"><ele>168.4</ele><time>2012-07-21T13:40:39.0000000+00:00</time></trkpt><trkpt lat="64.12129211" lon="-19.82516289"><ele>168.7</ele><time>2012-07-21T13:40:44.0000000+00:00</time></trkpt><trkpt lat="64.1213913" lon="-19.82509041"><ele>169.1</ele><time>2012-07-21T13:40:49.0000000+00:00</time></trkpt><trkpt lat="64.12147522" lon="-19.8250351"><ele>169.2</ele><time>2012-07-21T13:40:54.0000000+00:00</time></trkpt><trkpt lat="64.12156677" lon="-19.82493782"><ele>169.7</ele><time>2012-07-21T13:40:59.0000000+00:00</time></trkpt><trkpt lat="64.12165833" lon="-19.82486534"><ele>170.0</ele><time>2012-07-21T13:41:04.0000000+00:00</time></trkpt><trkpt lat="64.12174225" lon="-19.82479096"><ele>170.5</ele><time>2012-07-21T13:41:09.0000000+00:00</time></trkpt><trkpt lat="64.1218338" lon="-19.82471657"><ele>171.4</ele><time>2012-07-21T13:41:14.0000000+00:00</time></trkpt><trkpt lat="64.12192535" lon="-19.82464409"><ele>172.0</ele><time>2012-07-21T13:41:19.0000000+00:00</time></trkpt><trkpt lat="64.12201691" lon="-19.82458115"><ele>172.7</ele><time>2012-07-21T13:41:24.0000000+00:00</time></trkpt><trkpt lat="64.12210846" lon="-19.82450676"><ele>173.0</ele><time>2012-07-21T13:41:29.0000000+00:00</time></trkpt><trkpt lat="64.12217712" lon="-19.82443619"><ele>172.7</ele><time>2012-07-21T13:41:34.0000000+00:00</time></trkpt><trkpt lat="64.12224579" lon="-19.82437515"><ele>172.6</ele><time>2012-07-21T13:41:39.0000000+00:00</time></trkpt><trkpt lat="64.12234497" lon="-19.82430649"><ele>173.5</ele><time>2012-07-21T13:41:44.0000000+00:00</time></trkpt><trkpt lat="64.12243652" lon="-19.82423592"><ele>174.0</ele><time>2012-07-21T13:41:49.0000000+00:00</time></trkpt><trkpt lat="64.12251282" lon="-19.82417679"><ele>174.5</ele><time>2012-07-21T13:41:54.0000000+00:00</time></trkpt><trkpt lat="64.12257385" lon="-19.8241272"><ele>174.9</ele><time>2012-07-21T13:41:59.0000000+00:00</time></trkpt><trkpt lat="64.12262726" lon="-19.82406044"><ele>175.3</ele><time>2012-07-21T13:42:04.0000000+00:00</time></trkpt><trkpt lat="64.12268829" lon="-19.82403565"><ele>176.6</ele><time>2012-07-21T13:42:09.0000000+00:00</time></trkpt><trkpt lat="64.1227417" lon="-19.82400703"><ele>176.8</ele><time>2012-07-21T13:42:14.0000000+00:00</time></trkpt><trkpt lat="64.12280273" lon="-19.82395935"><ele>177.1</ele><time>2012-07-21T13:42:19.0000000+00:00</time></trkpt><trkpt lat="64.1228714" lon="-19.82388878"><ele>177.6</ele><time>2012-07-21T13:42:24.0000000+00:00</time></trkpt><trkpt lat="64.12294006" lon="-19.82381821"><ele>178.1</ele><time>2012-07-21T13:42:29.0000000+00:00</time></trkpt><trkpt lat="64.12300873" lon="-19.82376099"><ele>178.8</ele><time>2012-07-21T13:42:34.0000000+00:00</time></trkpt><trkpt lat="64.12308502" lon="-19.82369804"><ele>179.8</ele><time>2012-07-21T13:42:39.0000000+00:00</time></trkpt><trkpt lat="64.12315369" lon="-19.82361412"><ele>179.7</ele><time>2012-07-21T13:42:44.0000000+00:00</time></trkpt><trkpt lat="64.12322998" lon="-19.82354546"><ele>180.2</ele><time>2012-07-21T13:42:49.0000000+00:00</time></trkpt><trkpt lat="64.12329102" lon="-19.82347298"><ele>180.3</ele><time>2012-07-21T13:42:54.0000000+00:00</time></trkpt><trkpt lat="64.12336731" lon="-19.82338905"><ele>181.8</ele><time>2012-07-21T13:42:59.0000000+00:00</time></trkpt><trkpt lat="64.1234436" lon="-19.82330513"><ele>182.7</ele><time>2012-07-21T13:43:04.0000000+00:00</time></trkpt><trkpt lat="64.12349701" lon="-19.82325554"><ele>182.8</ele><time>2012-07-21T13:43:09.0000000+00:00</time></trkpt><trkpt lat="64.12355042" lon="-19.82317925"><ele>183.8</ele><time>2012-07-21T13:43:14.0000000+00:00</time></trkpt><trkpt lat="64.12361145" lon="-19.82309723"><ele>184.6</ele><time>2012-07-21T13:43:19.0000000+00:00</time></trkpt><trkpt lat="64.12367249" lon="-19.8230381"><ele>185.1</ele><time>2012-07-21T13:43:24.0000000+00:00</time></trkpt><trkpt lat="64.12375641" lon="-19.82297516"><ele>186.1</ele><time>2012-07-21T13:43:29.0000000+00:00</time></trkpt><trkpt lat="64.12382507" lon="-19.82290077"><ele>187.1</ele><time>2012-07-21T13:43:34.0000000+00:00</time></trkpt><trkpt lat="64.12387848" lon="-19.82283974"><ele>188.0</ele><time>2012-07-21T13:43:39.0000000+00:00</time></trkpt><trkpt lat="64.12394714" lon="-19.82276917"><ele>188.5</ele><time>2012-07-21T13:43:44.0000000+00:00</time></trkpt><trkpt lat="64.12395477" lon="-19.82273102"><ele>189.0</ele><time>2012-07-21T13:43:49.0000000+00:00</time></trkpt><trkpt lat="64.12399292" lon="-19.82269859"><ele>189.1</ele><time>2012-07-21T13:43:54.0000000+00:00</time></trkpt><trkpt lat="64.1240387" lon="-19.82263947"><ele>189.3</ele><time>2012-07-21T13:43:59.0000000+00:00</time></trkpt><trkpt lat="64.12408447" lon="-19.82256317"><ele>189.3</ele><time>2012-07-21T13:44:04.0000000+00:00</time></trkpt><trkpt lat="64.12413025" lon="-19.82252884"><ele>189.1</ele><time>2012-07-21T13:44:09.0000000+00:00</time></trkpt><trkpt lat="64.12417603" lon="-19.82247353"><ele>189.0</ele><time>2012-07-21T13:44:14.0000000+00:00</time></trkpt><trkpt lat="64.1242218" lon="-19.82242203"><ele>189.5</ele><time>2012-07-21T13:44:19.0000000+00:00</time></trkpt><trkpt lat="64.12426758" lon="-19.8223896"><ele>189.7</ele><time>2012-07-21T13:44:24.0000000+00:00</time></trkpt><trkpt lat="64.12431335" lon="-19.82233238"><ele>190.0</ele><time>2012-07-21T13:44:29.0000000+00:00</time></trkpt><trkpt lat="64.12436676" lon="-19.82230759"><ele>190.5</ele><time>2012-07-21T13:44:34.0000000+00:00</time></trkpt><trkpt lat="64.12441254" lon="-19.82227707"><ele>191.0</ele><time>2012-07-21T13:44:39.0000000+00:00</time></trkpt><trkpt lat="64.12445068" lon="-19.82224464"><ele>191.1</ele><time>2012-07-21T13:44:44.0000000+00:00</time></trkpt><trkpt lat="64.12450409" lon="-19.82221222"><ele>191.3</ele><time>2012-07-21T13:44:49.0000000+00:00</time></trkpt><trkpt lat="64.1245575" lon="-19.82217789"><ele>190.9</ele><time>2012-07-21T13:44:54.0000000+00:00</time></trkpt><trkpt lat="64.12460327" lon="-19.822155"><ele>190.9</ele><time>2012-07-21T13:44:59.0000000+00:00</time></trkpt><trkpt lat="64.12465668" lon="-19.82212448"><ele>190.7</ele><time>2012-07-21T13:45:04.0000000+00:00</time></trkpt><trkpt lat="64.12471771" lon="-19.82211113"><ele>191.4</ele><time>2012-07-21T13:45:09.0000000+00:00</time></trkpt><trkpt lat="64.12477112" lon="-19.82208061"><ele>191.9</ele><time>2012-07-21T13:45:14.0000000+00:00</time></trkpt><trkpt lat="64.12482452" lon="-19.822052"><ele>191.1</ele><time>2012-07-21T13:45:19.0000000+00:00</time></trkpt><trkpt lat="64.12486267" lon="-19.82205772"><ele>191.3</ele><time>2012-07-21T13:45:24.0000000+00:00</time></trkpt><trkpt lat="64.12486267" lon="-19.82206345"><ele>191.6</ele><time>2012-07-21T13:45:29.0000000+00:00</time></trkpt><trkpt lat="64.12486267" lon="-19.82206345"><ele>191.6</ele><time>2012-07-21T13:45:34.0000000+00:00</time></trkpt><trkpt lat="64.12492371" lon="-19.82207108"><ele>192.3</ele><time>2012-07-21T13:45:39.0000000+00:00</time></trkpt><trkpt lat="64.12497711" lon="-19.82205582"><ele>192.9</ele><time>2012-07-21T13:45:44.0000000+00:00</time></trkpt><trkpt lat="64.12503815" lon="-19.8220501"><ele>193.3</ele><time>2012-07-21T13:45:49.0000000+00:00</time></trkpt><trkpt lat="64.12508392" lon="-19.82204056"><ele>193.6</ele><time>2012-07-21T13:45:54.0000000+00:00</time></trkpt><trkpt lat="64.12513733" lon="-19.82202911"><ele>194.1</ele><time>2012-07-21T13:45:59.0000000+00:00</time></trkpt><trkpt lat="64.12519074" lon="-19.82200241"><ele>193.9</ele><time>2012-07-21T13:46:04.0000000+00:00</time></trkpt><trkpt lat="64.12524414" lon="-19.82198143"><ele>194.6</ele><time>2012-07-21T13:46:09.0000000+00:00</time></trkpt><trkpt lat="64.12529755" lon="-19.82195091"><ele>195.2</ele><time>2012-07-21T13:46:14.0000000+00:00</time></trkpt><trkpt lat="64.12535095" lon="-19.82191849"><ele>195.3</ele><time>2012-07-21T13:46:19.0000000+00:00</time></trkpt><trkpt lat="64.12539673" lon="-19.82186508"><ele>196.1</ele><time>2012-07-21T13:46:24.0000000+00:00</time></trkpt><trkpt lat="64.12545013" lon="-19.82180214"><ele>196.9</ele><time>2012-07-21T13:46:29.0000000+00:00</time></trkpt><trkpt lat="64.12548828" lon="-19.82172966"><ele>197.3</ele><time>2012-07-21T13:46:34.0000000+00:00</time></trkpt><trkpt lat="64.12552643" lon="-19.82162476"><ele>198.1</ele><time>2012-07-21T13:46:39.0000000+00:00</time></trkpt><trkpt lat="64.12555695" lon="-19.82149315"><ele>198.9</ele><time>2012-07-21T13:46:44.0000000+00:00</time></trkpt><trkpt lat="64.12556458" lon="-19.82135773"><ele>199.4</ele><time>2012-07-21T13:46:49.0000000+00:00</time></trkpt><trkpt lat="64.12556458" lon="-19.82121277"><ele>199.9</ele><time>2012-07-21T13:46:54.0000000+00:00</time></trkpt><trkpt lat="64.12555695" lon="-19.82108116"><ele>200.6</ele><time>2012-07-21T13:46:59.0000000+00:00</time></trkpt><trkpt lat="64.1255188" lon="-19.82095146"><ele>201.3</ele><time>2012-07-21T13:47:04.0000000+00:00</time></trkpt><trkpt lat="64.12548065" lon="-19.82086372"><ele>202.0</ele><time>2012-07-21T13:47:09.0000000+00:00</time></trkpt><trkpt lat="64.12543488" lon="-19.82077026"><ele>202.8</ele><time>2012-07-21T13:47:14.0000000+00:00</time></trkpt><trkpt lat="64.1253891" lon="-19.82070923"><ele>204.1</ele><time>2012-07-21T13:47:19.0000000+00:00</time></trkpt><trkpt lat="64.12534332" lon="-19.8206749"><ele>205.1</ele><time>2012-07-21T13:47:24.0000000+00:00</time></trkpt><trkpt lat="64.12529755" lon="-19.82065964"><ele>205.7</ele><time>2012-07-21T13:47:29.0000000+00:00</time></trkpt><trkpt lat="64.12524414" lon="-19.82066727"><ele>206.5</ele><time>2012-07-21T13:47:34.0000000+00:00</time></trkpt><trkpt lat="64.12519074" lon="-19.8207016"><ele>207.5</ele><time>2012-07-21T13:47:39.0000000+00:00</time></trkpt><trkpt lat="64.1251297" lon="-19.82071686"><ele>208.0</ele><time>2012-07-21T13:47:44.0000000+00:00</time></trkpt><trkpt lat="64.12507629" lon="-19.82075882"><ele>209.5</ele><time>2012-07-21T13:47:49.0000000+00:00</time></trkpt><trkpt lat="64.12501526" lon="-19.82075882"><ele>211.1</ele><time>2012-07-21T13:47:54.0000000+00:00</time></trkpt><trkpt lat="64.12494659" lon="-19.82077408"><ele>212.7</ele><time>2012-07-21T13:47:59.0000000+00:00</time></trkpt><trkpt lat="64.12489319" lon="-19.82078934"><ele>213.9</ele><time>2012-07-21T13:48:04.0000000+00:00</time></trkpt><trkpt lat="64.12483215" lon="-19.82081032"><ele>214.3</ele><time>2012-07-21T13:48:09.0000000+00:00</time></trkpt><trkpt lat="64.12477875" lon="-19.82082176"><ele>214.7</ele><time>2012-07-21T13:48:14.0000000+00:00</time></trkpt><trkpt lat="64.12471008" lon="-19.82084274"><ele>214.8</ele><time>2012-07-21T13:48:19.0000000+00:00</time></trkpt><trkpt lat="64.12464905" lon="-19.82081986"><ele>215.2</ele><time>2012-07-21T13:48:24.0000000+00:00</time></trkpt><trkpt lat="64.12459564" lon="-19.82084465"><ele>215.6</ele><time>2012-07-21T13:48:29.0000000+00:00</time></trkpt><trkpt lat="64.12453461" lon="-19.82083321"><ele>216.1</ele><time>2012-07-21T13:48:34.0000000+00:00</time></trkpt><trkpt lat="64.12447357" lon="-19.82083702"><ele>216.5</ele><time>2012-07-21T13:48:39.0000000+00:00</time></trkpt><trkpt lat="64.12441254" lon="-19.820858"><ele>217.1</ele><time>2012-07-21T13:48:44.0000000+00:00</time></trkpt><trkpt lat="64.1243515" lon="-19.82085419"><ele>217.7</ele><time>2012-07-21T13:48:49.0000000+00:00</time></trkpt><trkpt lat="64.1242981" lon="-19.82084465"><ele>218.0</ele><time>2012-07-21T13:48:54.0000000+00:00</time></trkpt><trkpt lat="64.12422943" lon="-19.82084084"><ele>218.8</ele><time>2012-07-21T13:48:59.0000000+00:00</time></trkpt><trkpt lat="64.1241684" lon="-19.82083321"><ele>219.2</ele><time>2012-07-21T13:49:04.0000000+00:00</time></trkpt><trkpt lat="64.12412262" lon="-19.82083702"><ele>219.8</ele><time>2012-07-21T13:49:09.0000000+00:00</time></trkpt><trkpt lat="64.12406921" lon="-19.82084084"><ele>220.7</ele><time>2012-07-21T13:49:14.0000000+00:00</time></trkpt><trkpt lat="64.12400818" lon="-19.82083321"><ele>221.1</ele><time>2012-07-21T13:49:19.0000000+00:00</time></trkpt><trkpt lat="64.12395477" lon="-19.82082939"><ele>222.2</ele><time>2012-07-21T13:49:24.0000000+00:00</time></trkpt><trkpt lat="64.12389374" lon="-19.82081795"><ele>223.0</ele><time>2012-07-21T13:49:29.0000000+00:00</time></trkpt><trkpt lat="64.12384033" lon="-19.82084847"><ele>223.4</ele><time>2012-07-21T13:49:34.0000000+00:00</time></trkpt><trkpt lat="64.12377167" lon="-19.82081223"><ele>223.8</ele><time>2012-07-21T13:49:39.0000000+00:00</time></trkpt><trkpt lat="64.12371063" lon="-19.82079125"><ele>224.1</ele><time>2012-07-21T13:49:44.0000000+00:00</time></trkpt><trkpt lat="64.1236496" lon="-19.82077026"><ele>224.7</ele><time>2012-07-21T13:49:49.0000000+00:00</time></trkpt><trkpt lat="64.12358093" lon="-19.82072067"><ele>225.3</ele><time>2012-07-21T13:49:54.0000000+00:00</time></trkpt><trkpt lat="64.1235199" lon="-19.8206501"><ele>225.8</ele><time>2012-07-21T13:49:59.0000000+00:00</time></trkpt><trkpt lat="64.12345886" lon="-19.82058334"><ele>226.5</ele><time>2012-07-21T13:50:04.0000000+00:00</time></trkpt><trkpt lat="64.12341309" lon="-19.82051849"><ele>227.1</ele><time>2012-07-21T13:50:09.0000000+00:00</time></trkpt><trkpt lat="64.12335968" lon="-19.82043648"><ele>227.9</ele><time>2012-07-21T13:50:14.0000000+00:00</time></trkpt><trkpt lat="64.1233139" lon="-19.82032776"><ele>228.4</ele><time>2012-07-21T13:50:19.0000000+00:00</time></trkpt><trkpt lat="64.12326813" lon="-19.82022286"><ele>229.0</ele><time>2012-07-21T13:50:24.0000000+00:00</time></trkpt><trkpt lat="64.12323761" lon="-19.8201313"><ele>229.8</ele><time>2012-07-21T13:50:29.0000000+00:00</time></trkpt><trkpt lat="64.12319946" lon="-19.82005882"><ele>230.1</ele><time>2012-07-21T13:50:34.0000000+00:00</time></trkpt><trkpt lat="64.12316132" lon="-19.81996918"><ele>230.5</ele><time>2012-07-21T13:50:39.0000000+00:00</time></trkpt><trkpt lat="64.12313843" lon="-19.8198204"><ele>231.5</ele><time>2012-07-21T13:50:44.0000000+00:00</time></trkpt><trkpt lat="64.12310028" lon="-19.81969643"><ele>232.0</ele><time>2012-07-21T13:50:49.0000000+00:00</time></trkpt><trkpt lat="64.12307739" lon="-19.81960678"><ele>232.3</ele><time>2012-07-21T13:50:54.0000000+00:00</time></trkpt><trkpt lat="64.12306976" lon="-19.81954765"><ele>231.6</ele><time>2012-07-21T13:50:59.0000000+00:00</time></trkpt><trkpt lat="64.12303925" lon="-19.8194027"><ele>231.5</ele><time>2012-07-21T13:51:04.0000000+00:00</time></trkpt><trkpt lat="64.12302399" lon="-19.81926918"><ele>231.5</ele><time>2012-07-21T13:51:09.0000000+00:00</time></trkpt><trkpt lat="64.12300873" lon="-19.81915474"><ele>231.4</ele><time>2012-07-21T13:51:14.0000000+00:00</time></trkpt><trkpt lat="64.12297821" lon="-19.81903458"><ele>231.2</ele><time>2012-07-21T13:51:19.0000000+00:00</time></trkpt><trkpt lat="64.12296295" lon="-19.81889534"><ele>231.4</ele><time>2012-07-21T13:51:24.0000000+00:00</time></trkpt><trkpt lat="64.12294006" lon="-19.81875801"><ele>231.2</ele><time>2012-07-21T13:51:29.0000000+00:00</time></trkpt><trkpt lat="64.12292481" lon="-19.81860352"><ele>231.6</ele><time>2012-07-21T13:51:34.0000000+00:00</time></trkpt><trkpt lat="64.12290955" lon="-19.81844711"><ele>231.8</ele><time>2012-07-21T13:51:39.0000000+00:00</time></trkpt><trkpt lat="64.12289429" lon="-19.81828308"><ele>231.7</ele><time>2012-07-21T13:51:44.0000000+00:00</time></trkpt><trkpt lat="64.12287903" lon="-19.81814957"><ele>231.2</ele><time>2012-07-21T13:51:49.0000000+00:00</time></trkpt><trkpt lat="64.1228714" lon="-19.81801033"><ele>231.7</ele><time>2012-07-21T13:51:54.0000000+00:00</time></trkpt><trkpt lat="64.12285614" lon="-19.81786156"><ele>232.0</ele><time>2012-07-21T13:51:59.0000000+00:00</time></trkpt><trkpt lat="64.12284088" lon="-19.8177166"><ele>232.0</ele><time>2012-07-21T13:52:04.0000000+00:00</time></trkpt><trkpt lat="64.12282562" lon="-19.81758308"><ele>231.0</ele><time>2012-07-21T13:52:09.0000000+00:00</time></trkpt><trkpt lat="64.12281036" lon="-19.81744957"><ele>230.7</ele><time>2012-07-21T13:52:14.0000000+00:00</time></trkpt><trkpt lat="64.12279511" lon="-19.81731224"><ele>231.2</ele><time>2012-07-21T13:52:19.0000000+00:00</time></trkpt><trkpt lat="64.12278748" lon="-19.81719017"><ele>231.1</ele><time>2012-07-21T13:52:24.0000000+00:00</time></trkpt><trkpt lat="64.12276459" lon="-19.81706047"><ele>231.4</ele><time>2012-07-21T13:52:29.0000000+00:00</time></trkpt><trkpt lat="64.1227417" lon="-19.81693268"><ele>231.7</ele><time>2012-07-21T13:52:34.0000000+00:00</time></trkpt><trkpt lat="64.12272644" lon="-19.81683731"><ele>232.3</ele><time>2012-07-21T13:52:39.0000000+00:00</time></trkpt><trkpt lat="64.12271118" lon="-19.81674004"><ele>232.8</ele><time>2012-07-21T13:52:44.0000000+00:00</time></trkpt><trkpt lat="64.12268066" lon="-19.8166256"><ele>233.3</ele><time>2012-07-21T13:52:49.0000000+00:00</time></trkpt><trkpt lat="64.12265778" lon="-19.81656265"><ele>233.5</ele><time>2012-07-21T13:52:54.0000000+00:00</time></trkpt><trkpt lat="64.12263489" lon="-19.8164711"><ele>234.0</ele><time>2012-07-21T13:52:59.0000000+00:00</time></trkpt><trkpt lat="64.12259674" lon="-19.81632996"><ele>234.8</ele><time>2012-07-21T13:53:04.0000000+00:00</time></trkpt><trkpt lat="64.12256622" lon="-19.81624794"><ele>235.3</ele><time>2012-07-21T13:53:09.0000000+00:00</time></trkpt><trkpt lat="64.12252808" lon="-19.81612396"><ele>236.3</ele><time>2012-07-21T13:53:14.0000000+00:00</time></trkpt><trkpt lat="64.12249756" lon="-19.81601143"><ele>237.3</ele><time>2012-07-21T13:53:19.0000000+00:00</time></trkpt><trkpt lat="64.12246704" lon="-19.81593132"><ele>238.3</ele><time>2012-07-21T13:53:24.0000000+00:00</time></trkpt><trkpt lat="64.12244415" lon="-19.81583595"><ele>239.5</ele><time>2012-07-21T13:53:29.0000000+00:00</time></trkpt><trkpt lat="64.12240601" lon="-19.81577301"><ele>240.3</ele><time>2012-07-21T13:53:34.0000000+00:00</time></trkpt><trkpt lat="64.12237549" lon="-19.81570435"><ele>241.1</ele><time>2012-07-21T13:53:39.0000000+00:00</time></trkpt><trkpt lat="64.12234497" lon="-19.81562424"><ele>241.8</ele><time>2012-07-21T13:53:44.0000000+00:00</time></trkpt><trkpt lat="64.12231445" lon="-19.81554413"><ele>242.6</ele><time>2012-07-21T13:53:49.0000000+00:00</time></trkpt><trkpt lat="64.12228394" lon="-19.81546021"><ele>243.7</ele><time>2012-07-21T13:53:54.0000000+00:00</time></trkpt><trkpt lat="64.12225342" lon="-19.81538582"><ele>244.4</ele><time>2012-07-21T13:53:59.0000000+00:00</time></trkpt><trkpt lat="64.12221527" lon="-19.81531906"><ele>245.2</ele><time>2012-07-21T13:54:04.0000000+00:00</time></trkpt><trkpt lat="64.12218475" lon="-19.81524086"><ele>245.9</ele><time>2012-07-21T13:54:09.0000000+00:00</time></trkpt><trkpt lat="64.12215424" lon="-19.81514549"><ele>246.7</ele><time>2012-07-21T13:54:14.0000000+00:00</time></trkpt><trkpt lat="64.12211609" lon="-19.81505966"><ele>247.6</ele><time>2012-07-21T13:54:19.0000000+00:00</time></trkpt><trkpt lat="64.12208557" lon="-19.81499863"><ele>247.9</ele><time>2012-07-21T13:54:24.0000000+00:00</time></trkpt><trkpt lat="64.12204742" lon="-19.81493378"><ele>248.6</ele><time>2012-07-21T13:54:29.0000000+00:00</time></trkpt><trkpt lat="64.12201691" lon="-19.81487083"><ele>248.8</ele><time>2012-07-21T13:54:34.0000000+00:00</time></trkpt><trkpt lat="64.12197876" lon="-19.81477928"><ele>249.3</ele><time>2012-07-21T13:54:39.0000000+00:00</time></trkpt><trkpt lat="64.12194061" lon="-19.81468964"><ele>249.5</ele><time>2012-07-21T13:54:44.0000000+00:00</time></trkpt><trkpt lat="64.1219101" lon="-19.8145504"><ele>250.7</ele><time>2012-07-21T13:54:49.0000000+00:00</time></trkpt><trkpt lat="64.12187958" lon="-19.81446457"><ele>251.7</ele><time>2012-07-21T13:54:54.0000000+00:00</time></trkpt><trkpt lat="64.12184143" lon="-19.81436539"><ele>253.0</ele><time>2012-07-21T13:54:59.0000000+00:00</time></trkpt><trkpt lat="64.12181854" lon="-19.81426811"><ele>254.1</ele><time>2012-07-21T13:55:04.0000000+00:00</time></trkpt><trkpt lat="64.12178803" lon="-19.81416321"><ele>255.1</ele><time>2012-07-21T13:55:09.0000000+00:00</time></trkpt><trkpt lat="64.12175751" lon="-19.81407166"><ele>255.7</ele><time>2012-07-21T13:55:14.0000000+00:00</time></trkpt><trkpt lat="64.12172699" lon="-19.81395721"><ele>256.4</ele><time>2012-07-21T13:55:19.0000000+00:00</time></trkpt><trkpt lat="64.1217041" lon="-19.81384468"><ele>257.1</ele><time>2012-07-21T13:55:24.0000000+00:00</time></trkpt><trkpt lat="64.12168121" lon="-19.81375694"><ele>257.0</ele><time>2012-07-21T13:55:29.0000000+00:00</time></trkpt><trkpt lat="64.12166596" lon="-19.81366158"><ele>257.2</ele><time>2012-07-21T13:55:34.0000000+00:00</time></trkpt><trkpt lat="64.12165833" lon="-19.81361008"><ele>256.9</ele><time>2012-07-21T13:55:39.0000000+00:00</time></trkpt><trkpt lat="64.12164307" lon="-19.81350517"><ele>257.2</ele><time>2012-07-21T13:55:44.0000000+00:00</time></trkpt><trkpt lat="64.12162781" lon="-19.81339264"><ele>257.0</ele><time>2012-07-21T13:55:49.0000000+00:00</time></trkpt><trkpt lat="64.12161255" lon="-19.81330681"><ele>256.4</ele><time>2012-07-21T13:55:54.0000000+00:00</time></trkpt><trkpt lat="64.12159729" lon="-19.8132"><ele>256.2</ele><time>2012-07-21T13:55:59.0000000+00:00</time></trkpt><trkpt lat="64.12158203" lon="-19.81308556"><ele>255.9</ele><time>2012-07-21T13:56:04.0000000+00:00</time></trkpt><trkpt lat="64.1215744" lon="-19.81295776"><ele>255.8</ele><time>2012-07-21T13:56:09.0000000+00:00</time></trkpt><trkpt lat="64.1215744" lon="-19.81282997"><ele>256.1</ele><time>2012-07-21T13:56:14.0000000+00:00</time></trkpt><trkpt lat="64.12155914" lon="-19.81268692"><ele>256.3</ele><time>2012-07-21T13:56:19.0000000+00:00</time></trkpt><trkpt lat="64.12155914" lon="-19.81255531"><ele>256.7</ele><time>2012-07-21T13:56:24.0000000+00:00</time></trkpt><trkpt lat="64.12155151" lon="-19.81241798"><ele>257.1</ele><time>2012-07-21T13:56:29.0000000+00:00</time></trkpt><trkpt lat="64.12155151" lon="-19.81227493"><ele>257.2</ele><time>2012-07-21T13:56:34.0000000+00:00</time></trkpt><trkpt lat="64.12155914" lon="-19.81214142"><ele>256.6</ele><time>2012-07-21T13:56:39.0000000+00:00</time></trkpt><trkpt lat="64.12155914" lon="-19.81201172"><ele>256.5</ele><time>2012-07-21T13:56:44.0000000+00:00</time></trkpt><trkpt lat="64.12154388" lon="-19.81187248"><ele>256.1</ele><time>2012-07-21T13:56:49.0000000+00:00</time></trkpt><trkpt lat="64.12153626" lon="-19.81173897"><ele>255.4</ele><time>2012-07-21T13:56:54.0000000+00:00</time></trkpt><trkpt lat="64.121521" lon="-19.81160164"><ele>255.0</ele><time>2012-07-21T13:56:59.0000000+00:00</time></trkpt><trkpt lat="64.12151337" lon="-19.8114872"><ele>254.9</ele><time>2012-07-21T13:57:04.0000000+00:00</time></trkpt><trkpt lat="64.12151337" lon="-19.81147575"><ele>256.1</ele><time>2012-07-21T13:57:09.0000000+00:00</time></trkpt><trkpt lat="64.12150574" lon="-19.81144524"><ele>255.9</ele><time>2012-07-21T13:57:14.0000000+00:00</time></trkpt><trkpt lat="64.12150574" lon="-19.81142426"><ele>255.7</ele><time>2012-07-21T13:57:19.0000000+00:00</time></trkpt><trkpt lat="64.12149811" lon="-19.81126785"><ele>256.1</ele><time>2012-07-21T13:57:24.0000000+00:00</time></trkpt><trkpt lat="64.12147522" lon="-19.81104279"><ele>256.5</ele><time>2012-07-21T13:57:29.0000000+00:00</time></trkpt><trkpt lat="64.12142181" lon="-19.81081009"><ele>256.9</ele><time>2012-07-21T13:57:34.0000000+00:00</time></trkpt><trkpt lat="64.12137604" lon="-19.8105545"><ele>257.6</ele><time>2012-07-21T13:57:39.0000000+00:00</time></trkpt><trkpt lat="64.121315" lon="-19.81030273"><ele>257.8</ele><time>2012-07-21T13:57:44.0000000+00:00</time></trkpt><trkpt lat="64.12123108" lon="-19.81004715"><ele>258.5</ele><time>2012-07-21T13:57:49.0000000+00:00</time></trkpt><trkpt lat="64.12114716" lon="-19.80980492"><ele>258.6</ele><time>2012-07-21T13:57:54.0000000+00:00</time></trkpt><trkpt lat="64.1210556" lon="-19.8095932"><ele>258.9</ele><time>2012-07-21T13:57:59.0000000+00:00</time></trkpt><trkpt lat="64.12097168" lon="-19.8094101"><ele>259.2</ele><time>2012-07-21T13:58:04.0000000+00:00</time></trkpt><trkpt lat="64.12088013" lon="-19.80925179"><ele>259.2</ele><time>2012-07-21T13:58:09.0000000+00:00</time></trkpt><trkpt lat="64.12078095" lon="-19.8090725"><ele>259.8</ele><time>2012-07-21T13:58:14.0000000+00:00</time></trkpt><trkpt lat="64.12065125" lon="-19.80891228"><ele>260.3</ele><time>2012-07-21T13:58:19.0000000+00:00</time></trkpt><trkpt lat="64.12052155" lon="-19.80874252"><ele>260.5</ele><time>2012-07-21T13:58:24.0000000+00:00</time></trkpt><trkpt lat="64.12039948" lon="-19.80862045"><ele>261.0</ele><time>2012-07-21T13:58:29.0000000+00:00</time></trkpt><trkpt lat="64.12026978" lon="-19.80854607"><ele>261.2</ele><time>2012-07-21T13:58:34.0000000+00:00</time></trkpt><trkpt lat="64.12013245" lon="-19.80850601"><ele>261.8</ele><time>2012-07-21T13:58:39.0000000+00:00</time></trkpt><trkpt lat="64.11999512" lon="-19.80846214"><ele>262.3</ele><time>2012-07-21T13:58:44.0000000+00:00</time></trkpt><trkpt lat="64.11984253" lon="-19.80840111"><ele>262.6</ele><time>2012-07-21T13:58:49.0000000+00:00</time></trkpt><trkpt lat="64.11969757" lon="-19.80838013"><ele>262.7</ele><time>2012-07-21T13:58:54.0000000+00:00</time></trkpt><trkpt lat="64.11958313" lon="-19.80831528"><ele>263.4</ele><time>2012-07-21T13:58:59.0000000+00:00</time></trkpt><trkpt lat="64.11947632" lon="-19.80826187"><ele>263.2</ele><time>2012-07-21T13:59:04.0000000+00:00</time></trkpt><trkpt lat="64.11936188" lon="-19.8081665"><ele>263.4</ele><time>2012-07-21T13:59:09.0000000+00:00</time></trkpt><trkpt lat="64.11924744" lon="-19.80805016"><ele>264.7</ele><time>2012-07-21T13:59:14.0000000+00:00</time></trkpt><trkpt lat="64.11914063" lon="-19.80794334"><ele>266.2</ele><time>2012-07-21T13:59:19.0000000+00:00</time></trkpt><trkpt lat="64.11904144" lon="-19.80785942"><ele>267.4</ele><time>2012-07-21T13:59:24.0000000+00:00</time></trkpt><trkpt lat="64.11894989" lon="-19.80777359"><ele>268.1</ele><time>2012-07-21T13:59:29.0000000+00:00</time></trkpt><trkpt lat="64.11885834" lon="-19.80770111"><ele>269.3</ele><time>2012-07-21T13:59:34.0000000+00:00</time></trkpt><trkpt lat="64.11878967" lon="-19.80757332"><ele>270.5</ele><time>2012-07-21T13:59:39.0000000+00:00</time></trkpt><trkpt lat="64.11870575" lon="-19.80748177"><ele>271.5</ele><time>2012-07-21T13:59:44.0000000+00:00</time></trkpt><trkpt lat="64.11863709" lon="-19.80738449"><ele>272.5</ele><time>2012-07-21T13:59:49.0000000+00:00</time></trkpt><trkpt lat="64.11856842" lon="-19.80729294"><ele>273.2</ele><time>2012-07-21T13:59:54.0000000+00:00</time></trkpt><trkpt lat="64.11849213" lon="-19.80720329"><ele>273.9</ele><time>2012-07-21T13:59:59.0000000+00:00</time></trkpt><trkpt lat="64.11841583" lon="-19.80712509"><ele>274.6</ele><time>2012-07-21T14:00:04.0000000+00:00</time></trkpt><trkpt lat="64.11836243" lon="-19.80705261"><ele>275.4</ele><time>2012-07-21T14:00:09.0000000+00:00</time></trkpt><trkpt lat="64.11833191" lon="-19.8069973"><ele>276.0</ele><time>2012-07-21T14:00:14.0000000+00:00</time></trkpt><trkpt lat="64.11825562" lon="-19.80690575"><ele>276.6</ele><time>2012-07-21T14:00:19.0000000+00:00</time></trkpt><trkpt lat="64.11820984" lon="-19.80681419"><ele>277.0</ele><time>2012-07-21T14:00:24.0000000+00:00</time></trkpt><trkpt lat="64.11815643" lon="-19.80674171"><ele>276.6</ele><time>2012-07-21T14:00:29.0000000+00:00</time></trkpt><trkpt lat="64.11810303" lon="-19.80663872"><ele>276.8</ele><time>2012-07-21T14:00:34.0000000+00:00</time></trkpt><trkpt lat="64.11804199" lon="-19.80653381"><ele>277.3</ele><time>2012-07-21T14:00:39.0000000+00:00</time></trkpt><trkpt lat="64.11797333" lon="-19.80640984"><ele>277.8</ele><time>2012-07-21T14:00:44.0000000+00:00</time></trkpt><trkpt lat="64.11790466" lon="-19.80629158"><ele>278.3</ele><time>2012-07-21T14:00:49.0000000+00:00</time></trkpt><trkpt lat="64.117836" lon="-19.80612373"><ele>279.1</ele><time>2012-07-21T14:00:54.0000000+00:00</time></trkpt><trkpt lat="64.11778259" lon="-19.80602455"><ele>279.6</ele><time>2012-07-21T14:00:59.0000000+00:00</time></trkpt><trkpt lat="64.11772156" lon="-19.80587578"><ele>280.6</ele><time>2012-07-21T14:01:04.0000000+00:00</time></trkpt><trkpt lat="64.11766052" lon="-19.80573273"><ele>281.4</ele><time>2012-07-21T14:01:09.0000000+00:00</time></trkpt><trkpt lat="64.11760712" lon="-19.80560112"><ele>282.5</ele><time>2012-07-21T14:01:14.0000000+00:00</time></trkpt><trkpt lat="64.11756897" lon="-19.80548096"><ele>283.4</ele><time>2012-07-21T14:01:19.0000000+00:00</time></trkpt><trkpt lat="64.11752319" lon="-19.80535507"><ele>284.1</ele><time>2012-07-21T14:01:24.0000000+00:00</time></trkpt><trkpt lat="64.11748505" lon="-19.80522156"><ele>284.2</ele><time>2012-07-21T14:01:29.0000000+00:00</time></trkpt><trkpt lat="64.11743927" lon="-19.80510712"><ele>284.6</ele><time>2012-07-21T14:01:34.0000000+00:00</time></trkpt><trkpt lat="64.11740112" lon="-19.80503845"><ele>284.3</ele><time>2012-07-21T14:01:39.0000000+00:00</time></trkpt><trkpt lat="64.11737061" lon="-19.80494881"><ele>284.6</ele><time>2012-07-21T14:01:44.0000000+00:00</time></trkpt><trkpt lat="64.11734009" lon="-19.80485153"><ele>285.1</ele><time>2012-07-21T14:01:49.0000000+00:00</time></trkpt><trkpt lat="64.11730194" lon="-19.80470276"><ele>285.7</ele><time>2012-07-21T14:01:54.0000000+00:00</time></trkpt><trkpt lat="64.11725617" lon="-19.80455017"><ele>285.8</ele><time>2012-07-21T14:01:59.0000000+00:00</time></trkpt><trkpt lat="64.11721802" lon="-19.80445671"><ele>286.1</ele><time>2012-07-21T14:02:04.0000000+00:00</time></trkpt><trkpt lat="64.11717987" lon="-19.80432892"><ele>286.6</ele><time>2012-07-21T14:02:09.0000000+00:00</time></trkpt><trkpt lat="64.11715698" lon="-19.80421829"><ele>286.5</ele><time>2012-07-21T14:02:14.0000000+00:00</time></trkpt><trkpt lat="64.11711121" lon="-19.8041153"><ele>286.9</ele><time>2012-07-21T14:02:19.0000000+00:00</time></trkpt><trkpt lat="64.11708069" lon="-19.80400085"><ele>287.5</ele><time>2012-07-21T14:02:24.0000000+00:00</time></trkpt><trkpt lat="64.11705017" lon="-19.80389023"><ele>287.7</ele><time>2012-07-21T14:02:29.0000000+00:00</time></trkpt><trkpt lat="64.11701202" lon="-19.80374718"><ele>288.2</ele><time>2012-07-21T14:02:34.0000000+00:00</time></trkpt><trkpt lat="64.11697388" lon="-19.80360222"><ele>288.3</ele><time>2012-07-21T14:02:39.0000000+00:00</time></trkpt><trkpt lat="64.11693573" lon="-19.80344772"><ele>288.6</ele><time>2012-07-21T14:02:44.0000000+00:00</time></trkpt><trkpt lat="64.11690521" lon="-19.80329132"><ele>289.1</ele><time>2012-07-21T14:02:49.0000000+00:00</time></trkpt><trkpt lat="64.11689758" lon="-19.80320931"><ele>289.4</ele><time>2012-07-21T14:02:54.0000000+00:00</time></trkpt><trkpt lat="64.11686707" lon="-19.80306816"><ele>289.8</ele><time>2012-07-21T14:02:59.0000000+00:00</time></trkpt><trkpt lat="64.11683655" lon="-19.80294609"><ele>290.2</ele><time>2012-07-21T14:03:04.0000000+00:00</time></trkpt><trkpt lat="64.11681366" lon="-19.80279923"><ele>291.0</ele><time>2012-07-21T14:03:09.0000000+00:00</time></trkpt><trkpt lat="64.1167984" lon="-19.80270004"><ele>291.4</ele><time>2012-07-21T14:03:14.0000000+00:00</time></trkpt><trkpt lat="64.1167984" lon="-19.80269814"><ele>291.5</ele><time>2012-07-21T14:03:19.0000000+00:00</time></trkpt><trkpt lat="64.11679077" lon="-19.80262756"><ele>291.8</ele><time>2012-07-21T14:03:24.0000000+00:00</time></trkpt><trkpt lat="64.11677551" lon="-19.80250549"><ele>292.4</ele><time>2012-07-21T14:03:29.0000000+00:00</time></trkpt><trkpt lat="64.11675263" lon="-19.80238915"><ele>292.9</ele><time>2012-07-21T14:03:34.0000000+00:00</time></trkpt><trkpt lat="64.11672974" lon="-19.80224419"><ele>293.7</ele><time>2012-07-21T14:03:39.0000000+00:00</time></trkpt><trkpt lat="64.11671448" lon="-19.80209732"><ele>294.5</ele><time>2012-07-21T14:03:44.0000000+00:00</time></trkpt><trkpt lat="64.11669922" lon="-19.80197334"><ele>295.0</ele><time>2012-07-21T14:03:49.0000000+00:00</time></trkpt><trkpt lat="64.11668396" lon="-19.80183601"><ele>295.9</ele><time>2012-07-21T14:03:54.0000000+00:00</time></trkpt><trkpt lat="64.1166687" lon="-19.80170059"><ele>296.3</ele><time>2012-07-21T14:03:59.0000000+00:00</time></trkpt><trkpt lat="64.11664581" lon="-19.8015461"><ele>297.4</ele><time>2012-07-21T14:04:04.0000000+00:00</time></trkpt><trkpt lat="64.11663055" lon="-19.80141068"><ele>297.9</ele><time>2012-07-21T14:04:09.0000000+00:00</time></trkpt><trkpt lat="64.11660767" lon="-19.80127335"><ele>298.3</ele><time>2012-07-21T14:04:14.0000000+00:00</time></trkpt><trkpt lat="64.11660004" lon="-19.80114174"><ele>298.6</ele><time>2012-07-21T14:04:19.0000000+00:00</time></trkpt><trkpt lat="64.11657715" lon="-19.80099678"><ele>299.0</ele><time>2012-07-21T14:04:24.0000000+00:00</time></trkpt><trkpt lat="64.11656952" lon="-19.80086708"><ele>299.3</ele><time>2012-07-21T14:04:29.0000000+00:00</time></trkpt><trkpt lat="64.11655426" lon="-19.80073166"><ele>299.7</ele><time>2012-07-21T14:04:34.0000000+00:00</time></trkpt><trkpt lat="64.116539" lon="-19.80059815"><ele>300.0</ele><time>2012-07-21T14:04:39.0000000+00:00</time></trkpt><trkpt lat="64.11652374" lon="-19.80045891"><ele>300.6</ele><time>2012-07-21T14:04:44.0000000+00:00</time></trkpt><trkpt lat="64.11650848" lon="-19.80032158"><ele>300.8</ele><time>2012-07-21T14:04:49.0000000+00:00</time></trkpt><trkpt lat="64.1164856" lon="-19.80020142"><ele>300.5</ele><time>2012-07-21T14:04:54.0000000+00:00</time></trkpt><trkpt lat="64.11647797" lon="-19.80010414"><ele>300.5</ele><time>2012-07-21T14:04:59.0000000+00:00</time></trkpt><trkpt lat="64.11645508" lon="-19.79997444"><ele>300.8</ele><time>2012-07-21T14:05:04.0000000+00:00</time></trkpt><trkpt lat="64.11644745" lon="-19.79983521"><ele>300.7</ele><time>2012-07-21T14:05:09.0000000+00:00</time></trkpt><trkpt lat="64.11643219" lon="-19.79970169"><ele>300.9</ele><time>2012-07-21T14:05:14.0000000+00:00</time></trkpt><trkpt lat="64.11641693" lon="-19.79956818"><ele>301.0</ele><time>2012-07-21T14:05:19.0000000+00:00</time></trkpt><trkpt lat="64.11640167" lon="-19.79944801"><ele>301.1</ele><time>2012-07-21T14:05:24.0000000+00:00</time></trkpt><trkpt lat="64.11637878" lon="-19.79932213"><ele>301.2</ele><time>2012-07-21T14:05:29.0000000+00:00</time></trkpt><trkpt lat="64.11637116" lon="-19.79917908"><ele>301.1</ele><time>2012-07-21T14:05:34.0000000+00:00</time></trkpt><trkpt lat="64.11634827" lon="-19.79904556"><ele>301.4</ele><time>2012-07-21T14:05:39.0000000+00:00</time></trkpt><trkpt lat="64.11633301" lon="-19.79893684"><ele>301.9</ele><time>2012-07-21T14:05:44.0000000+00:00</time></trkpt><trkpt lat="64.11631775" lon="-19.79881859"><ele>302.5</ele><time>2012-07-21T14:05:49.0000000+00:00</time></trkpt><trkpt lat="64.11630249" lon="-19.79867363"><ele>302.3</ele><time>2012-07-21T14:05:54.0000000+00:00</time></trkpt><trkpt lat="64.1162796" lon="-19.79852486"><ele>302.6</ele><time>2012-07-21T14:05:59.0000000+00:00</time></trkpt><trkpt lat="64.11625671" lon="-19.79837418"><ele>302.4</ele><time>2012-07-21T14:06:04.0000000+00:00</time></trkpt><trkpt lat="64.11624146" lon="-19.79821014"><ele>302.6</ele><time>2012-07-21T14:06:09.0000000+00:00</time></trkpt><trkpt lat="64.11624146" lon="-19.79811287"><ele>302.0</ele><time>2012-07-21T14:06:14.0000000+00:00</time></trkpt><trkpt lat="64.11623383" lon="-19.7980423"><ele>302.0</ele><time>2012-07-21T14:06:19.0000000+00:00</time></trkpt><trkpt lat="64.11621857" lon="-19.79779053"><ele>302.4</ele><time>2012-07-21T14:06:24.0000000+00:00</time></trkpt><trkpt lat="64.11619568" lon="-19.79753876"><ele>303.1</ele><time>2012-07-21T14:06:29.0000000+00:00</time></trkpt><trkpt lat="64.11617279" lon="-19.79728508"><ele>303.6</ele><time>2012-07-21T14:06:34.0000000+00:00</time></trkpt><trkpt lat="64.11616516" lon="-19.79705238"><ele>303.9</ele><time>2012-07-21T14:06:39.0000000+00:00</time></trkpt><trkpt lat="64.11615753" lon="-19.79680252"><ele>303.8</ele><time>2012-07-21T14:06:44.0000000+00:00</time></trkpt><trkpt lat="64.1161499" lon="-19.79660034"><ele>303.7</ele><time>2012-07-21T14:06:49.0000000+00:00</time></trkpt><trkpt lat="64.1161499" lon="-19.79640198"><ele>303.5</ele><time>2012-07-21T14:06:54.0000000+00:00</time></trkpt><trkpt lat="64.11614227" lon="-19.79619789"><ele>303.6</ele><time>2012-07-21T14:06:59.0000000+00:00</time></trkpt><trkpt lat="64.11614227" lon="-19.79594994"><ele>303.9</ele><time>2012-07-21T14:07:04.0000000+00:00</time></trkpt><trkpt lat="64.11615753" lon="-19.79568672"><ele>303.9</ele><time>2012-07-21T14:07:09.0000000+00:00</time></trkpt><trkpt lat="64.11616516" lon="-19.79542923"><ele>303.9</ele><time>2012-07-21T14:07:14.0000000+00:00</time></trkpt><trkpt lat="64.11617279" lon="-19.79516602"><ele>303.9</ele><time>2012-07-21T14:07:19.0000000+00:00</time></trkpt><trkpt lat="64.11619568" lon="-19.79490852"><ele>303.8</ele><time>2012-07-21T14:07:24.0000000+00:00</time></trkpt><trkpt lat="64.11621094" lon="-19.79463768"><ele>303.4</ele><time>2012-07-21T14:07:29.0000000+00:00</time></trkpt><trkpt lat="64.11624146" lon="-19.79438591"><ele>303.2</ele><time>2012-07-21T14:07:34.0000000+00:00</time></trkpt><trkpt lat="64.11627197" lon="-19.79414368"><ele>302.7</ele><time>2012-07-21T14:07:39.0000000+00:00</time></trkpt><trkpt lat="64.11630249" lon="-19.79388428"><ele>302.9</ele><time>2012-07-21T14:07:44.0000000+00:00</time></trkpt><trkpt lat="64.11634827" lon="-19.79360199"><ele>302.6</ele><time>2012-07-21T14:07:49.0000000+00:00</time></trkpt><trkpt lat="64.11640167" lon="-19.79333305"><ele>302.2</ele><time>2012-07-21T14:07:54.0000000+00:00</time></trkpt><trkpt lat="64.11643982" lon="-19.79304886"><ele>301.6</ele><time>2012-07-21T14:07:59.0000000+00:00</time></trkpt><trkpt lat="64.11649323" lon="-19.79277611"><ele>301.2</ele><time>2012-07-21T14:08:04.0000000+00:00</time></trkpt><trkpt lat="64.11654663" lon="-19.79252815"><ele>300.5</ele><time>2012-07-21T14:08:09.0000000+00:00</time></trkpt><trkpt lat="64.11660004" lon="-19.7922821"><ele>300.1</ele><time>2012-07-21T14:08:14.0000000+00:00</time></trkpt><trkpt lat="64.1166687" lon="-19.79200935"><ele>299.7</ele><time>2012-07-21T14:08:19.0000000+00:00</time></trkpt><trkpt lat="64.11672974" lon="-19.79174614"><ele>299.0</ele><time>2012-07-21T14:08:24.0000000+00:00</time></trkpt><trkpt lat="64.11682129" lon="-19.79147339"><ele>298.5</ele><time>2012-07-21T14:08:29.0000000+00:00</time></trkpt><trkpt lat="64.11689758" lon="-19.79121971"><ele>297.7</ele><time>2012-07-21T14:08:34.0000000+00:00</time></trkpt><trkpt lat="64.11699677" lon="-19.79096031"><ele>297.1</ele><time>2012-07-21T14:08:39.0000000+00:00</time></trkpt><trkpt lat="64.11711121" lon="-19.79065132"><ele>296.3</ele><time>2012-07-21T14:08:44.0000000+00:00</time></trkpt><trkpt lat="64.11724854" lon="-19.79035187"><ele>295.6</ele><time>2012-07-21T14:08:49.0000000+00:00</time></trkpt><trkpt lat="64.11739349" lon="-19.7900486"><ele>294.8</ele><time>2012-07-21T14:08:54.0000000+00:00</time></trkpt><trkpt lat="64.11753845" lon="-19.78975105"><ele>293.6</ele><time>2012-07-21T14:08:59.0000000+00:00</time></trkpt><trkpt lat="64.1177063" lon="-19.78943825"><ele>292.6</ele><time>2012-07-21T14:09:04.0000000+00:00</time></trkpt><trkpt lat="64.11788178" lon="-19.78910255"><ele>291.5</ele><time>2012-07-21T14:09:09.0000000+00:00</time></trkpt><trkpt lat="64.11804199" lon="-19.78878403"><ele>290.3</ele><time>2012-07-21T14:09:14.0000000+00:00</time></trkpt><trkpt lat="64.11820984" lon="-19.78846169"><ele>289.3</ele><time>2012-07-21T14:09:19.0000000+00:00</time></trkpt><trkpt lat="64.11840057" lon="-19.78809547"><ele>287.9</ele><time>2012-07-21T14:09:24.0000000+00:00</time></trkpt><trkpt lat="64.11857605" lon="-19.78774643"><ele>286.5</ele><time>2012-07-21T14:09:29.0000000+00:00</time></trkpt><trkpt lat="64.1187439" lon="-19.78740501"><ele>285.1</ele><time>2012-07-21T14:09:34.0000000+00:00</time></trkpt><trkpt lat="64.11890411" lon="-19.78702164"><ele>283.8</ele><time>2012-07-21T14:09:39.0000000+00:00</time></trkpt><trkpt lat="64.11907959" lon="-19.78657913"><ele>282.3</ele><time>2012-07-21T14:09:44.0000000+00:00</time></trkpt><trkpt lat="64.11923981" lon="-19.786129"><ele>281.1</ele><time>2012-07-21T14:09:49.0000000+00:00</time></trkpt><trkpt lat="64.11937714" lon="-19.78569412"><ele>279.4</ele><time>2012-07-21T14:09:54.0000000+00:00</time></trkpt><trkpt lat="64.11949921" lon="-19.78530312"><ele>278.2</ele><time>2012-07-21T14:09:59.0000000+00:00</time></trkpt><trkpt lat="64.11960602" lon="-19.78490639"><ele>277.1</ele><time>2012-07-21T14:10:04.0000000+00:00</time></trkpt><trkpt lat="64.11972046" lon="-19.78451538"><ele>276.1</ele><time>2012-07-21T14:10:09.0000000+00:00</time></trkpt><trkpt lat="64.11981964" lon="-19.78414536"><ele>275.1</ele><time>2012-07-21T14:10:14.0000000+00:00</time></trkpt><trkpt lat="64.11992645" lon="-19.78375053"><ele>274.1</ele><time>2012-07-21T14:10:19.0000000+00:00</time></trkpt><trkpt lat="64.12003326" lon="-19.78336906"><ele>273.3</ele><time>2012-07-21T14:10:24.0000000+00:00</time></trkpt><trkpt lat="64.12013245" lon="-19.78300667"><ele>272.3</ele><time>2012-07-21T14:10:29.0000000+00:00</time></trkpt><trkpt lat="64.12021637" lon="-19.78265572"><ele>271.9</ele><time>2012-07-21T14:10:34.0000000+00:00</time></trkpt><trkpt lat="64.12029266" lon="-19.78232765"><ele>270.6</ele><time>2012-07-21T14:10:39.0000000+00:00</time></trkpt><trkpt lat="64.12038422" lon="-19.78197861"><ele>270.3</ele><time>2012-07-21T14:10:44.0000000+00:00</time></trkpt><trkpt lat="64.1204834" lon="-19.78162193"><ele>269.8</ele><time>2012-07-21T14:10:49.0000000+00:00</time></trkpt><trkpt lat="64.12057495" lon="-19.78131294"><ele>269.2</ele><time>2012-07-21T14:10:54.0000000+00:00</time></trkpt><trkpt lat="64.12063599" lon="-19.7810669"><ele>269.1</ele><time>2012-07-21T14:10:59.0000000+00:00</time></trkpt><trkpt lat="64.12071991" lon="-19.78076553"><ele>269.0</ele><time>2012-07-21T14:11:04.0000000+00:00</time></trkpt><trkpt lat="64.12080383" lon="-19.78047752"><ele>268.8</ele><time>2012-07-21T14:11:09.0000000+00:00</time></trkpt><trkpt lat="64.12085724" lon="-19.7802639"><ele>268.7</ele><time>2012-07-21T14:11:14.0000000+00:00</time></trkpt><trkpt lat="64.12091065" lon="-19.78006172"><ele>269.5</ele><time>2012-07-21T14:11:19.0000000+00:00</time></trkpt><trkpt lat="64.12094879" lon="-19.77994156"><ele>269.8</ele><time>2012-07-21T14:11:24.0000000+00:00</time></trkpt><trkpt lat="64.1210022" lon="-19.77979279"><ele>270.0</ele><time>2012-07-21T14:11:29.0000000+00:00</time></trkpt><trkpt lat="64.12104034" lon="-19.77961731"><ele>270.0</ele><time>2012-07-21T14:11:34.0000000+00:00</time></trkpt><trkpt lat="64.12108612" lon="-19.77945328"><ele>269.7</ele><time>2012-07-21T14:11:39.0000000+00:00</time></trkpt><trkpt lat="64.1211319" lon="-19.77927208"><ele>269.6</ele><time>2012-07-21T14:11:44.0000000+00:00</time></trkpt><trkpt lat="64.12117767" lon="-19.7790947"><ele>269.9</ele><time>2012-07-21T14:11:49.0000000+00:00</time></trkpt><trkpt lat="64.12122345" lon="-19.7788868"><ele>270.1</ele><time>2012-07-21T14:11:54.0000000+00:00</time></trkpt><trkpt lat="64.12126923" lon="-19.77867508"><ele>269.4</ele><time>2012-07-21T14:11:59.0000000+00:00</time></trkpt><trkpt lat="64.12133026" lon="-19.77845383"><ele>269.2</ele><time>2012-07-21T14:12:04.0000000+00:00</time></trkpt><trkpt lat="64.12137604" lon="-19.7782402"><ele>269.1</ele><time>2012-07-21T14:12:09.0000000+00:00</time></trkpt><trkpt lat="64.12142181" lon="-19.77801514"><ele>269.7</ele><time>2012-07-21T14:12:14.0000000+00:00</time></trkpt><trkpt lat="64.12147522" lon="-19.77775002"><ele>269.5</ele><time>2012-07-21T14:12:19.0000000+00:00</time></trkpt><trkpt lat="64.12152863" lon="-19.7775116"><ele>269.7</ele><time>2012-07-21T14:12:24.0000000+00:00</time></trkpt><trkpt lat="64.1215744" lon="-19.77729416"><ele>270.1</ele><time>2012-07-21T14:12:29.0000000+00:00</time></trkpt><trkpt lat="64.12162018" lon="-19.77706909"><ele>270.3</ele><time>2012-07-21T14:12:34.0000000+00:00</time></trkpt><trkpt lat="64.12165833" lon="-19.77687264"><ele>270.5</ele><time>2012-07-21T14:12:39.0000000+00:00</time></trkpt><trkpt lat="64.12168121" lon="-19.77667046"><ele>270.7</ele><time>2012-07-21T14:12:44.0000000+00:00</time></trkpt><trkpt lat="64.12171173" lon="-19.77645493"><ele>271.1</ele><time>2012-07-21T14:12:49.0000000+00:00</time></trkpt><trkpt lat="64.12174225" lon="-19.77624512"><ele>271.2</ele><time>2012-07-21T14:12:54.0000000+00:00</time></trkpt><trkpt lat="64.12176514" lon="-19.7760067"><ele>271.3</ele><time>2012-07-21T14:12:59.0000000+00:00</time></trkpt><trkpt lat="64.12178803" lon="-19.77577782"><ele>271.4</ele><time>2012-07-21T14:13:04.0000000+00:00</time></trkpt><trkpt lat="64.12180328" lon="-19.77553749"><ele>271.8</ele><time>2012-07-21T14:13:09.0000000+00:00</time></trkpt><trkpt lat="64.12181854" lon="-19.77528763"><ele>271.6</ele><time>2012-07-21T14:13:14.0000000+00:00</time></trkpt><trkpt lat="64.1218338" lon="-19.77502632"><ele>271.7</ele><time>2012-07-21T14:13:19.0000000+00:00</time></trkpt><trkpt lat="64.12184906" lon="-19.77474022"><ele>272.1</ele><time>2012-07-21T14:13:24.0000000+00:00</time></trkpt><trkpt lat="64.12184906" lon="-19.77441979"><ele>272.3</ele><time>2012-07-21T14:13:29.0000000+00:00</time></trkpt><trkpt lat="64.12185669" lon="-19.77408409"><ele>273.1</ele><time>2012-07-21T14:13:34.0000000+00:00</time></trkpt><trkpt lat="64.12186432" lon="-19.77376556"><ele>273.0</ele><time>2012-07-21T14:13:39.0000000+00:00</time></trkpt><trkpt lat="64.12187195" lon="-19.77347374"><ele>273.6</ele><time>2012-07-21T14:13:44.0000000+00:00</time></trkpt><trkpt lat="64.12186432" lon="-19.77321053"><ele>273.6</ele><time>2012-07-21T14:13:49.0000000+00:00</time></trkpt><trkpt lat="64.12184906" lon="-19.77293205"><ele>273.6</ele><time>2012-07-21T14:13:54.0000000+00:00</time></trkpt><trkpt lat="64.1218338" lon="-19.77266121"><ele>273.8</ele><time>2012-07-21T14:13:59.0000000+00:00</time></trkpt><trkpt lat="64.12182617" lon="-19.77237892"><ele>273.5</ele><time>2012-07-21T14:14:04.0000000+00:00</time></trkpt><trkpt lat="64.12181854" lon="-19.77212143"><ele>274.0</ele><time>2012-07-21T14:14:09.0000000+00:00</time></trkpt><trkpt lat="64.12179565" lon="-19.77190018"><ele>274.1</ele><time>2012-07-21T14:14:14.0000000+00:00</time></trkpt><trkpt lat="64.1217804" lon="-19.77166367"><ele>274.4</ele><time>2012-07-21T14:14:19.0000000+00:00</time></trkpt><trkpt lat="64.12175751" lon="-19.77144623"><ele>274.6</ele><time>2012-07-21T14:14:24.0000000+00:00</time></trkpt><trkpt lat="64.12172699" lon="-19.77122498"><ele>274.6</ele><time>2012-07-21T14:14:29.0000000+00:00</time></trkpt><trkpt lat="64.12169647" lon="-19.77096176"><ele>274.7</ele><time>2012-07-21T14:14:34.0000000+00:00</time></trkpt><trkpt lat="64.12167358" lon="-19.7707119"><ele>275.1</ele><time>2012-07-21T14:14:39.0000000+00:00</time></trkpt><trkpt lat="64.1216507" lon="-19.7704773"><ele>275.4</ele><time>2012-07-21T14:14:44.0000000+00:00</time></trkpt><trkpt lat="64.12160492" lon="-19.77024078"><ele>275.5</ele><time>2012-07-21T14:14:49.0000000+00:00</time></trkpt><trkpt lat="64.1215744" lon="-19.76999474"><ele>276.0</ele><time>2012-07-21T14:14:54.0000000+00:00</time></trkpt><trkpt lat="64.121521" lon="-19.76975441"><ele>276.4</ele><time>2012-07-21T14:14:59.0000000+00:00</time></trkpt><trkpt lat="64.12147522" lon="-19.76951981"><ele>276.4</ele><time>2012-07-21T14:15:04.0000000+00:00</time></trkpt><trkpt lat="64.12142944" lon="-19.76930046"><ele>276.7</ele><time>2012-07-21T14:15:09.0000000+00:00</time></trkpt><trkpt lat="64.12138367" lon="-19.76907158"><ele>276.9</ele><time>2012-07-21T14:15:14.0000000+00:00</time></trkpt><trkpt lat="64.12133026" lon="-19.76881599"><ele>276.8</ele><time>2012-07-21T14:15:19.0000000+00:00</time></trkpt><trkpt lat="64.12126923" lon="-19.76856995"><ele>277.1</ele><time>2012-07-21T14:15:24.0000000+00:00</time></trkpt><trkpt lat="64.12120819" lon="-19.76830483"><ele>276.9</ele><time>2012-07-21T14:15:29.0000000+00:00</time></trkpt><trkpt lat="64.12114716" lon="-19.76802826"><ele>276.8</ele><time>2012-07-21T14:15:34.0000000+00:00</time></trkpt><trkpt lat="64.12109375" lon="-19.76774406"><ele>276.8</ele><time>2012-07-21T14:15:39.0000000+00:00</time></trkpt><trkpt lat="64.12103272" lon="-19.76748085"><ele>276.8</ele><time>2012-07-21T14:15:44.0000000+00:00</time></trkpt><trkpt lat="64.12097168" lon="-19.76721001"><ele>276.2</ele><time>2012-07-21T14:15:49.0000000+00:00</time></trkpt><trkpt lat="64.12091827" lon="-19.76693153"><ele>275.9</ele><time>2012-07-21T14:15:54.0000000+00:00</time></trkpt><trkpt lat="64.12085724" lon="-19.76668167"><ele>276.0</ele><time>2012-07-21T14:15:59.0000000+00:00</time></trkpt><trkpt lat="64.1207962" lon="-19.76640892"><ele>275.9</ele><time>2012-07-21T14:16:04.0000000+00:00</time></trkpt><trkpt lat="64.12073517" lon="-19.76612473"><ele>275.6</ele><time>2012-07-21T14:16:09.0000000+00:00</time></trkpt><trkpt lat="64.1206665" lon="-19.76583862"><ele>275.0</ele><time>2012-07-21T14:16:14.0000000+00:00</time></trkpt><trkpt lat="64.12060547" lon="-19.76554871"><ele>274.8</ele><time>2012-07-21T14:16:19.0000000+00:00</time></trkpt><trkpt lat="64.1205368" lon="-19.76524735"><ele>274.5</ele><time>2012-07-21T14:16:24.0000000+00:00</time></trkpt><trkpt lat="64.12046814" lon="-19.76493645"><ele>274.7</ele><time>2012-07-21T14:16:29.0000000+00:00</time></trkpt><trkpt lat="64.1204071" lon="-19.76467514"><ele>274.4</ele><time>2012-07-21T14:16:34.0000000+00:00</time></trkpt><trkpt lat="64.12034607" lon="-19.76438904"><ele>274.2</ele><time>2012-07-21T14:16:39.0000000+00:00</time></trkpt><trkpt lat="64.12028503" lon="-19.7641182"><ele>274.1</ele><time>2012-07-21T14:16:44.0000000+00:00</time></trkpt><trkpt lat="64.120224" lon="-19.76385117"><ele>274.1</ele><time>2012-07-21T14:16:49.0000000+00:00</time></trkpt><trkpt lat="64.12016296" lon="-19.76355171"><ele>273.5</ele><time>2012-07-21T14:16:54.0000000+00:00</time></trkpt><trkpt lat="64.1200943" lon="-19.76321602"><ele>272.6</ele><time>2012-07-21T14:16:59.0000000+00:00</time></trkpt><trkpt lat="64.12001801" lon="-19.76286697"><ele>271.8</ele><time>2012-07-21T14:17:04.0000000+00:00</time></trkpt><trkpt lat="64.11994934" lon="-19.76250267"><ele>270.7</ele><time>2012-07-21T14:17:09.0000000+00:00</time></trkpt><trkpt lat="64.11988831" lon="-19.76216888"><ele>269.9</ele><time>2012-07-21T14:17:14.0000000+00:00</time></trkpt><trkpt lat="64.11981201" lon="-19.76182175"><ele>268.6</ele><time>2012-07-21T14:17:19.0000000+00:00</time></trkpt><trkpt lat="64.11975861" lon="-19.76149941"><ele>268.3</ele><time>2012-07-21T14:17:24.0000000+00:00</time></trkpt><trkpt lat="64.1197052" lon="-19.76119614"><ele>267.7</ele><time>2012-07-21T14:17:29.0000000+00:00</time></trkpt><trkpt lat="64.11964417" lon="-19.76086998"><ele>267.3</ele><time>2012-07-21T14:17:34.0000000+00:00</time></trkpt><trkpt lat="64.11960602" lon="-19.76055145"><ele>267.3</ele><time>2012-07-21T14:17:39.0000000+00:00</time></trkpt><trkpt lat="64.11956024" lon="-19.76026344"><ele>267.1</ele><time>2012-07-21T14:17:44.0000000+00:00</time></trkpt><trkpt lat="64.11950684" lon="-19.75992584"><ele>266.8</ele><time>2012-07-21T14:17:49.0000000+00:00</time></trkpt><trkpt lat="64.11946106" lon="-19.75958061"><ele>266.1</ele><time>2012-07-21T14:17:54.0000000+00:00</time></trkpt><trkpt lat="64.11941528" lon="-19.75922012"><ele>266.0</ele><time>2012-07-21T14:17:59.0000000+00:00</time></trkpt><trkpt lat="64.11937714" lon="-19.75884438"><ele>265.0</ele><time>2012-07-21T14:18:04.0000000+00:00</time></trkpt><trkpt lat="64.11933136" lon="-19.75847817"><ele>264.5</ele><time>2012-07-21T14:18:09.0000000+00:00</time></trkpt><trkpt lat="64.11929321" lon="-19.75808334"><ele>263.7</ele><time>2012-07-21T14:18:14.0000000+00:00</time></trkpt><trkpt lat="64.1192627" lon="-19.75769234"><ele>262.8</ele><time>2012-07-21T14:18:19.0000000+00:00</time></trkpt><trkpt lat="64.11922455" lon="-19.75732803"><ele>262.2</ele><time>2012-07-21T14:18:24.0000000+00:00</time></trkpt><trkpt lat="64.11919403" lon="-19.75693703"><ele>261.2</ele><time>2012-07-21T14:18:29.0000000+00:00</time></trkpt><trkpt lat="64.11916351" lon="-19.75650787"><ele>260.1</ele><time>2012-07-21T14:18:34.0000000+00:00</time></trkpt><trkpt lat="64.11914063" lon="-19.756073"><ele>259.5</ele><time>2012-07-21T14:18:39.0000000+00:00</time></trkpt><trkpt lat="64.11912537" lon="-19.75569153"><ele>258.8</ele><time>2012-07-21T14:18:44.0000000+00:00</time></trkpt><trkpt lat="64.11911011" lon="-19.75528526"><ele>258.0</ele><time>2012-07-21T14:18:49.0000000+00:00</time></trkpt><trkpt lat="64.11909485" lon="-19.7549057"><ele>257.5</ele><time>2012-07-21T14:18:54.0000000+00:00</time></trkpt><trkpt lat="64.11907959" lon="-19.75451088"><ele>256.9</ele><time>2012-07-21T14:18:59.0000000+00:00</time></trkpt><trkpt lat="64.11907196" lon="-19.75409317"><ele>256.3</ele><time>2012-07-21T14:19:04.0000000+00:00</time></trkpt><trkpt lat="64.11907196" lon="-19.75367737"><ele>255.8</ele><time>2012-07-21T14:19:09.0000000+00:00</time></trkpt><trkpt lat="64.11907959" lon="-19.75329018"><ele>255.2</ele><time>2012-07-21T14:19:14.0000000+00:00</time></trkpt><trkpt lat="64.11907959" lon="-19.75286675"><ele>254.6</ele><time>2012-07-21T14:19:19.0000000+00:00</time></trkpt><trkpt lat="64.11908722" lon="-19.75240135"><ele>253.7</ele><time>2012-07-21T14:19:24.0000000+00:00</time></trkpt><trkpt lat="64.11909485" lon="-19.75196075"><ele>253.1</ele><time>2012-07-21T14:19:29.0000000+00:00</time></trkpt><trkpt lat="64.11911774" lon="-19.75152779"><ele>252.7</ele><time>2012-07-21T14:19:34.0000000+00:00</time></trkpt><trkpt lat="64.11914063" lon="-19.75118256"><ele>252.5</ele><time>2012-07-21T14:19:39.0000000+00:00</time></trkpt><trkpt lat="64.11915588" lon="-19.75087929"><ele>251.8</ele><time>2012-07-21T14:19:44.0000000+00:00</time></trkpt><trkpt lat="64.11917877" lon="-19.75056648"><ele>251.3</ele><time>2012-07-21T14:19:49.0000000+00:00</time></trkpt><trkpt lat="64.11920166" lon="-19.75025368"><ele>250.9</ele><time>2012-07-21T14:19:54.0000000+00:00</time></trkpt><trkpt lat="64.11922455" lon="-19.74995995"><ele>251.0</ele><time>2012-07-21T14:19:59.0000000+00:00</time></trkpt><trkpt lat="64.11924744" lon="-19.74965477"><ele>251.5</ele><time>2012-07-21T14:20:04.0000000+00:00</time></trkpt><trkpt lat="64.11927795" lon="-19.74942398"><ele>251.2</ele><time>2012-07-21T14:20:09.0000000+00:00</time></trkpt><trkpt lat="64.11928558" lon="-19.74922562"><ele>251.9</ele><time>2012-07-21T14:20:14.0000000+00:00</time></trkpt><trkpt lat="64.11930847" lon="-19.74900436"><ele>251.9</ele><time>2012-07-21T14:20:19.0000000+00:00</time></trkpt><trkpt lat="64.11933899" lon="-19.74881172"><ele>252.7</ele><time>2012-07-21T14:20:24.0000000+00:00</time></trkpt><trkpt lat="64.11936951" lon="-19.74859428"><ele>252.7</ele><time>2012-07-21T14:20:29.0000000+00:00</time></trkpt><trkpt lat="64.11938477" lon="-19.74842644"><ele>252.2</ele><time>2012-07-21T14:20:34.0000000+00:00</time></trkpt><trkpt lat="64.11938477" lon="-19.74838257"><ele>252.3</ele><time>2012-07-21T14:20:39.0000000+00:00</time></trkpt><trkpt lat="64.11938477" lon="-19.74837494"><ele>252.3</ele><time>2012-07-21T14:20:44.0000000+00:00</time></trkpt><trkpt lat="64.11938477" lon="-19.74835587"><ele>252.3</ele><time>2012-07-21T14:20:49.0000000+00:00</time></trkpt><trkpt lat="64.11938477" lon="-19.74835587"><ele>252.3</ele><time>2012-07-21T14:20:54.0000000+00:00</time></trkpt><trkpt lat="64.11938477" lon="-19.74835587"><ele>252.3</ele><time>2012-07-21T14:20:59.0000000+00:00</time></trkpt><trkpt lat="64.11938477" lon="-19.74835587"><ele>252.3</ele><time>2012-07-21T14:21:04.0000000+00:00</time></trkpt><trkpt lat="64.11938477" lon="-19.74835587"><ele>252.3</ele><time>2012-07-21T14:21:09.0000000+00:00</time></trkpt><trkpt lat="64.11938477" lon="-19.74835777"><ele>252.3</ele><time>2012-07-21T14:21:14.0000000+00:00</time></trkpt><trkpt lat="64.11938477" lon="-19.74835777"><ele>252.3</ele><time>2012-07-21T14:21:19.0000000+00:00</time></trkpt><trkpt lat="64.11938477" lon="-19.74835777"><ele>252.3</ele><time>2012-07-21T14:21:24.0000000+00:00</time></trkpt><trkpt lat="64.11938477" lon="-19.74835777"><ele>252.3</ele><time>2012-07-21T14:21:29.0000000+00:00</time></trkpt><trkpt lat="64.11938477" lon="-19.74835777"><ele>252.3</ele><time>2012-07-21T14:21:34.0000000+00:00</time></trkpt><trkpt lat="64.11938477" lon="-19.74835777"><ele>252.4</ele><time>2012-07-21T14:21:39.0000000+00:00</time></trkpt><trkpt lat="64.11938477" lon="-19.74835777"><ele>252.3</ele><time>2012-07-21T14:21:44.0000000+00:00</time></trkpt><trkpt lat="64.11938477" lon="-19.74835777"><ele>252.3</ele><time>2012-07-21T14:21:49.0000000+00:00</time></trkpt><trkpt lat="64.11938477" lon="-19.74835777"><ele>252.3</ele><time>2012-07-21T14:21:54.0000000+00:00</time></trkpt><trkpt lat="64.11938477" lon="-19.74835777"><ele>252.4</ele><time>2012-07-21T14:21:59.0000000+00:00</time></trkpt><trkpt lat="64.11938477" lon="-19.74835777"><ele>252.4</ele><time>2012-07-21T14:22:04.0000000+00:00</time></trkpt><trkpt lat="64.11938477" lon="-19.74835968"><ele>252.4</ele><time>2012-07-21T14:22:09.0000000+00:00</time></trkpt><trkpt lat="64.11938477" lon="-19.74835968"><ele>252.4</ele><time>2012-07-21T14:22:14.0000000+00:00</time></trkpt><trkpt lat="64.11938477" lon="-19.74835968"><ele>252.4</ele><time>2012-07-21T14:22:19.0000000+00:00</time></trkpt><trkpt lat="64.11938477" lon="-19.74835968"><ele>252.4</ele><time>2012-07-21T14:22:24.0000000+00:00</time></trkpt><trkpt lat="64.11938477" lon="-19.74835968"><ele>252.4</ele><time>2012-07-21T14:22:29.0000000+00:00</time></trkpt><trkpt lat="64.11938477" lon="-19.74835968"><ele>252.4</ele><time>2012-07-21T14:22:34.0000000+00:00</time></trkpt><trkpt lat="64.11938477" lon="-19.74835968"><ele>252.4</ele><time>2012-07-21T14:22:39.0000000+00:00</time></trkpt><trkpt lat="64.11938477" lon="-19.74836159"><ele>252.3</ele><time>2012-07-21T14:22:44.0000000+00:00</time></trkpt><trkpt lat="64.11940002" lon="-19.74826431"><ele>252.5</ele><time>2012-07-21T14:22:49.0000000+00:00</time></trkpt><trkpt lat="64.11941528" lon="-19.74817276"><ele>252.6</ele><time>2012-07-21T14:22:54.0000000+00:00</time></trkpt><trkpt lat="64.11936951" lon="-19.74812317"><ele>252.9</ele><time>2012-07-21T14:22:59.0000000+00:00</time></trkpt><trkpt lat="64.11932373" lon="-19.74806976"><ele>252.7</ele><time>2012-07-21T14:23:04.0000000+00:00</time></trkpt><trkpt lat="64.11921692" lon="-19.74792862"><ele>251.8</ele><time>2012-07-21T14:23:09.0000000+00:00</time></trkpt><trkpt lat="64.11901093" lon="-19.74768257"><ele>249.4</ele><time>2012-07-21T14:23:14.0000000+00:00</time></trkpt><trkpt lat="64.11875153" lon="-19.74736595"><ele>246.6</ele><time>2012-07-21T14:23:19.0000000+00:00</time></trkpt><trkpt lat="64.11859131" lon="-19.74714088"><ele>246.4</ele><time>2012-07-21T14:23:24.0000000+00:00</time></trkpt><trkpt lat="64.11859131" lon="-19.74714088"><ele>246.6</ele><time>2012-07-21T14:23:29.0000000+00:00</time></trkpt><trkpt lat="64.11859131" lon="-19.74714279"><ele>246.4</ele><time>2012-07-21T14:23:34.0000000+00:00</time></trkpt><trkpt lat="64.11859131" lon="-19.74715042"><ele>246.4</ele><time>2012-07-21T14:23:39.0000000+00:00</time></trkpt><trkpt lat="64.11858368" lon="-19.74714661"><ele>246.5</ele><time>2012-07-21T14:23:44.0000000+00:00</time></trkpt><trkpt lat="64.11858368" lon="-19.74715042"><ele>246.4</ele><time>2012-07-21T14:23:49.0000000+00:00</time></trkpt><trkpt lat="64.11858368" lon="-19.74715042"><ele>246.4</ele><time>2012-07-21T14:23:54.0000000+00:00</time></trkpt><trkpt lat="64.11858368" lon="-19.74715042"><ele>246.4</ele><time>2012-07-21T14:23:59.0000000+00:00</time></trkpt><trkpt lat="64.11858368" lon="-19.74715233"><ele>246.4</ele><time>2012-07-21T14:24:04.0000000+00:00</time></trkpt><trkpt lat="64.11858368" lon="-19.74715233"><ele>246.4</ele><time>2012-07-21T14:24:09.0000000+00:00</time></trkpt><trkpt lat="64.11858368" lon="-19.74715233"><ele>246.5</ele><time>2012-07-21T14:24:14.0000000+00:00</time></trkpt><trkpt lat="64.11858368" lon="-19.74715614"><ele>246.5</ele><time>2012-07-21T14:24:19.0000000+00:00</time></trkpt><trkpt lat="64.11857605" lon="-19.74715805"><ele>246.6</ele><time>2012-07-21T14:24:24.0000000+00:00</time></trkpt><trkpt lat="64.11857605" lon="-19.74715996"><ele>246.6</ele><time>2012-07-21T14:24:29.0000000+00:00</time></trkpt><trkpt lat="64.11857605" lon="-19.74716377"><ele>246.6</ele><time>2012-07-21T14:24:34.0000000+00:00</time></trkpt><trkpt lat="64.11857605" lon="-19.74716377"><ele>246.7</ele><time>2012-07-21T14:24:39.0000000+00:00</time></trkpt><trkpt lat="64.11857605" lon="-19.74716377"><ele>246.7</ele><time>2012-07-21T14:24:44.0000000+00:00</time></trkpt><trkpt lat="64.11857605" lon="-19.74716568"><ele>246.7</ele><time>2012-07-21T14:24:49.0000000+00:00</time></trkpt><trkpt lat="64.11857605" lon="-19.74716568"><ele>246.8</ele><time>2012-07-21T14:24:54.0000000+00:00</time></trkpt><trkpt lat="64.11857605" lon="-19.74716759"><ele>246.8</ele><time>2012-07-21T14:24:59.0000000+00:00</time></trkpt><trkpt lat="64.11857605" lon="-19.74716759"><ele>246.9</ele><time>2012-07-21T14:25:04.0000000+00:00</time></trkpt><trkpt lat="64.11857605" lon="-19.74716759"><ele>246.9</ele><time>2012-07-21T14:25:09.0000000+00:00</time></trkpt><trkpt lat="64.11857605" lon="-19.74716759"><ele>246.9</ele><time>2012-07-21T14:25:14.0000000+00:00</time></trkpt><trkpt lat="64.11857605" lon="-19.74716759"><ele>246.9</ele><time>2012-07-21T14:25:19.0000000+00:00</time></trkpt><trkpt lat="64.11857605" lon="-19.7471695"><ele>246.9</ele><time>2012-07-21T14:25:24.0000000+00:00</time></trkpt><trkpt lat="64.11857605" lon="-19.7471695"><ele>246.9</ele><time>2012-07-21T14:25:29.0000000+00:00</time></trkpt><trkpt lat="64.11857605" lon="-19.7471695"><ele>247.0</ele><time>2012-07-21T14:25:34.0000000+00:00</time></trkpt><trkpt lat="64.11857605" lon="-19.7471695"><ele>247.0</ele><time>2012-07-21T14:25:39.0000000+00:00</time></trkpt><trkpt lat="64.11857605" lon="-19.7471695"><ele>247.0</ele><time>2012-07-21T14:25:44.0000000+00:00</time></trkpt><trkpt lat="64.11857605" lon="-19.7471695"><ele>247.0</ele><time>2012-07-21T14:25:49.0000000+00:00</time></trkpt><trkpt lat="64.11857605" lon="-19.7471714"><ele>247.0</ele><time>2012-07-21T14:25:54.0000000+00:00</time></trkpt><trkpt lat="64.11857605" lon="-19.7471714"><ele>247.1</ele><time>2012-07-21T14:25:59.0000000+00:00</time></trkpt><trkpt lat="64.11857605" lon="-19.7471714"><ele>247.1</ele><time>2012-07-21T14:26:04.0000000+00:00</time></trkpt><trkpt lat="64.11857605" lon="-19.7471714"><ele>247.1</ele><time>2012-07-21T14:26:09.0000000+00:00</time></trkpt><trkpt lat="64.11857605" lon="-19.7471714"><ele>247.1</ele><time>2012-07-21T14:26:14.0000000+00:00</time></trkpt><trkpt lat="64.11857605" lon="-19.7471714"><ele>247.1</ele><time>2012-07-21T14:26:19.0000000+00:00</time></trkpt><trkpt lat="64.11857605" lon="-19.7471714"><ele>247.1</ele><time>2012-07-21T14:26:24.0000000+00:00</time></trkpt><trkpt lat="64.11857605" lon="-19.7471714"><ele>247.1</ele><time>2012-07-21T14:26:29.0000000+00:00</time></trkpt><trkpt lat="64.11857605" lon="-19.7471695"><ele>247.1</ele><time>2012-07-21T14:26:34.0000000+00:00</time></trkpt><trkpt lat="64.11857605" lon="-19.7471695"><ele>247.1</ele><time>2012-07-21T14:26:39.0000000+00:00</time></trkpt><trkpt lat="64.11857605" lon="-19.7471695"><ele>247.2</ele><time>2012-07-21T14:26:44.0000000+00:00</time></trkpt><trkpt lat="64.11857605" lon="-19.7471695"><ele>247.2</ele><time>2012-07-21T14:26:49.0000000+00:00</time></trkpt><trkpt lat="64.11857605" lon="-19.7471695"><ele>247.2</ele><time>2012-07-21T14:26:54.0000000+00:00</time></trkpt><trkpt lat="64.11857605" lon="-19.7471695"><ele>247.2</ele><time>2012-07-21T14:26:59.0000000+00:00</time></trkpt><trkpt lat="64.11857605" lon="-19.7471695"><ele>247.2</ele><time>2012-07-21T14:27:04.0000000+00:00</time></trkpt><trkpt lat="64.11856842" lon="-19.74716759"><ele>247.2</ele><time>2012-07-21T14:27:09.0000000+00:00</time></trkpt><trkpt lat="64.11856842" lon="-19.74716759"><ele>247.2</ele><time>2012-07-21T14:27:14.0000000+00:00</time></trkpt><trkpt lat="64.11856842" lon="-19.74716759"><ele>247.2</ele><time>2012-07-21T14:27:19.0000000+00:00</time></trkpt><trkpt lat="64.11856842" lon="-19.74716759"><ele>247.3</ele><time>2012-07-21T14:27:24.0000000+00:00</time></trkpt><trkpt lat="64.11856842" lon="-19.74716759"><ele>247.3</ele><time>2012-07-21T14:27:29.0000000+00:00</time></trkpt><trkpt lat="64.11856842" lon="-19.74716759"><ele>247.3</ele><time>2012-07-21T14:27:34.0000000+00:00</time></trkpt><trkpt lat="64.11856842" lon="-19.74716759"><ele>247.4</ele><time>2012-07-21T14:27:39.0000000+00:00</time></trkpt><trkpt lat="64.11856842" lon="-19.7471695"><ele>247.4</ele><time>2012-07-21T14:27:44.0000000+00:00</time></trkpt><trkpt lat="64.11856842" lon="-19.7471695"><ele>247.4</ele><time>2012-07-21T14:27:49.0000000+00:00</time></trkpt><trkpt lat="64.11856842" lon="-19.74716759"><ele>247.4</ele><time>2012-07-21T14:27:54.0000000+00:00</time></trkpt><trkpt lat="64.11857605" lon="-19.74716759"><ele>247.5</ele><time>2012-07-21T14:27:59.0000000+00:00</time></trkpt><trkpt lat="64.11856842" lon="-19.7471695"><ele>247.5</ele><time>2012-07-21T14:28:04.0000000+00:00</time></trkpt><trkpt lat="64.11857605" lon="-19.7471695"><ele>247.5</ele><time>2012-07-21T14:28:09.0000000+00:00</time></trkpt><trkpt lat="64.11857605" lon="-19.7471695"><ele>247.6</ele><time>2012-07-21T14:28:14.0000000+00:00</time></trkpt><trkpt lat="64.11857605" lon="-19.7471695"><ele>247.6</ele><time>2012-07-21T14:28:19.0000000+00:00</time></trkpt><trkpt lat="64.11857605" lon="-19.7471695"><ele>247.6</ele><time>2012-07-21T14:28:24.0000000+00:00</time></trkpt><trkpt lat="64.11857605" lon="-19.7471695"><ele>247.7</ele><time>2012-07-21T14:28:29.0000000+00:00</time></trkpt><trkpt lat="64.11857605" lon="-19.7471695"><ele>247.7</ele><time>2012-07-21T14:28:34.0000000+00:00</time></trkpt><trkpt lat="64.11857605" lon="-19.7471695"><ele>247.7</ele><time>2012-07-21T14:28:39.0000000+00:00</time></trkpt><trkpt lat="64.11857605" lon="-19.7471695"><ele>247.7</ele><time>2012-07-21T14:28:44.0000000+00:00</time></trkpt><trkpt lat="64.11857605" lon="-19.7471695"><ele>247.8</ele><time>2012-07-21T14:28:49.0000000+00:00</time></trkpt><trkpt lat="64.11857605" lon="-19.7471695"><ele>247.8</ele><time>2012-07-21T14:28:54.0000000+00:00</time></trkpt><trkpt lat="64.11857605" lon="-19.7471695"><ele>247.8</ele><time>2012-07-21T14:28:59.0000000+00:00</time></trkpt><trkpt lat="64.11857605" lon="-19.7471695"><ele>247.8</ele><time>2012-07-21T14:29:04.0000000+00:00</time></trkpt><trkpt lat="64.11857605" lon="-19.7471695"><ele>247.8</ele><time>2012-07-21T14:29:09.0000000+00:00</time></trkpt><trkpt lat="64.11857605" lon="-19.7471695"><ele>247.9</ele><time>2012-07-21T14:29:14.0000000+00:00</time></trkpt><trkpt lat="64.11857605" lon="-19.74716759"><ele>247.9</ele><time>2012-07-21T14:29:19.0000000+00:00</time></trkpt><trkpt lat="64.11857605" lon="-19.74716759"><ele>247.9</ele><time>2012-07-21T14:29:24.0000000+00:00</time></trkpt><trkpt lat="64.11857605" lon="-19.74716759"><ele>247.9</ele><time>2012-07-21T14:29:29.0000000+00:00</time></trkpt><trkpt lat="64.11857605" lon="-19.74716759"><ele>247.9</ele><time>2012-07-21T14:29:34.0000000+00:00</time></trkpt><trkpt lat="64.11857605" lon="-19.74716759"><ele>248.0</ele><time>2012-07-21T14:29:39.0000000+00:00</time></trkpt><trkpt lat="64.11857605" lon="-19.74716759"><ele>248.0</ele><time>2012-07-21T14:29:44.0000000+00:00</time></trkpt><trkpt lat="64.11857605" lon="-19.74716759"><ele>248.0</ele><time>2012-07-21T14:29:49.0000000+00:00</time></trkpt><trkpt lat="64.11857605" lon="-19.74716759"><ele>248.1</ele><time>2012-07-21T14:29:54.0000000+00:00</time></trkpt><trkpt lat="64.11857605" lon="-19.74716759"><ele>248.1</ele><time>2012-07-21T14:29:59.0000000+00:00</time></trkpt><trkpt lat="64.11857605" lon="-19.74716568"><ele>248.1</ele><time>2012-07-21T14:30:04.0000000+00:00</time></trkpt><trkpt lat="64.11857605" lon="-19.74716568"><ele>248.1</ele><time>2012-07-21T14:30:09.0000000+00:00</time></trkpt><trkpt lat="64.11857605" lon="-19.74716568"><ele>248.2</ele><time>2012-07-21T14:30:14.0000000+00:00</time></trkpt><trkpt lat="64.11857605" lon="-19.74716759"><ele>248.2</ele><time>2012-07-21T14:30:19.0000000+00:00</time></trkpt><trkpt lat="64.11857605" lon="-19.74716759"><ele>248.2</ele><time>2012-07-21T14:30:24.0000000+00:00</time></trkpt><trkpt lat="64.11857605" lon="-19.74716759"><ele>248.3</ele><time>2012-07-21T14:30:29.0000000+00:00</time></trkpt><trkpt lat="64.11857605" lon="-19.74716759"><ele>248.3</ele><time>2012-07-21T14:30:34.0000000+00:00</time></trkpt><trkpt lat="64.11856842" lon="-19.74716759"><ele>248.3</ele><time>2012-07-21T14:30:39.0000000+00:00</time></trkpt><trkpt lat="64.11856842" lon="-19.74716759"><ele>248.4</ele><time>2012-07-21T14:30:44.0000000+00:00</time></trkpt><trkpt lat="64.11856842" lon="-19.74716759"><ele>248.4</ele><time>2012-07-21T14:30:49.0000000+00:00</time></trkpt><trkpt lat="64.11856842" lon="-19.74716759"><ele>248.4</ele><time>2012-07-21T14:30:54.0000000+00:00</time></trkpt><trkpt lat="64.11856842" lon="-19.74716759"><ele>248.4</ele><time>2012-07-21T14:30:59.0000000+00:00</time></trkpt><trkpt lat="64.11856842" lon="-19.7471695"><ele>248.4</ele><time>2012-07-21T14:31:04.0000000+00:00</time></trkpt><trkpt lat="64.11856842" lon="-19.7471695"><ele>248.4</ele><time>2012-07-21T14:31:09.0000000+00:00</time></trkpt><trkpt lat="64.11856842" lon="-19.7471695"><ele>248.5</ele><time>2012-07-21T14:31:14.0000000+00:00</time></trkpt><trkpt lat="64.11856842" lon="-19.7471695"><ele>248.5</ele><time>2012-07-21T14:31:19.0000000+00:00</time></trkpt><trkpt lat="64.11856842" lon="-19.7471695"><ele>248.5</ele><time>2012-07-21T14:31:24.0000000+00:00</time></trkpt><trkpt lat="64.11856842" lon="-19.7471695"><ele>248.5</ele><time>2012-07-21T14:31:29.0000000+00:00</time></trkpt><trkpt lat="64.11856842" lon="-19.7471695"><ele>248.5</ele><time>2012-07-21T14:31:34.0000000+00:00</time></trkpt><trkpt lat="64.11856842" lon="-19.7471695"><ele>248.5</ele><time>2012-07-21T14:31:39.0000000+00:00</time></trkpt><trkpt lat="64.11856842" lon="-19.7471695"><ele>248.5</ele><time>2012-07-21T14:31:44.0000000+00:00</time></trkpt><trkpt lat="64.11856842" lon="-19.7471695"><ele>248.5</ele><time>2012-07-21T14:31:49.0000000+00:00</time></trkpt><trkpt lat="64.11856842" lon="-19.7471714"><ele>248.5</ele><time>2012-07-21T14:31:54.0000000+00:00</time></trkpt><trkpt lat="64.11856842" lon="-19.7471714"><ele>248.6</ele><time>2012-07-21T14:31:59.0000000+00:00</time></trkpt><trkpt lat="64.11857605" lon="-19.7471714"><ele>248.6</ele><time>2012-07-21T14:32:04.0000000+00:00</time></trkpt><trkpt lat="64.11857605" lon="-19.7471714"><ele>248.6</ele><time>2012-07-21T14:32:09.0000000+00:00</time></trkpt><trkpt lat="64.11857605" lon="-19.7471714"><ele>248.6</ele><time>2012-07-21T14:32:14.0000000+00:00</time></trkpt><trkpt lat="64.11857605" lon="-19.74717331"><ele>248.6</ele><time>2012-07-21T14:32:19.0000000+00:00</time></trkpt><trkpt lat="64.11857605" lon="-19.74717331"><ele>248.6</ele><time>2012-07-21T14:32:24.0000000+00:00</time></trkpt><trkpt lat="64.11857605" lon="-19.74717331"><ele>248.6</ele><time>2012-07-21T14:32:29.0000000+00:00</time></trkpt><trkpt lat="64.11857605" lon="-19.74717331"><ele>248.6</ele><time>2012-07-21T14:32:34.0000000+00:00</time></trkpt><trkpt lat="64.11857605" lon="-19.74717522"><ele>248.7</ele><time>2012-07-21T14:32:39.0000000+00:00</time></trkpt><trkpt lat="64.11857605" lon="-19.74717522"><ele>248.7</ele><time>2012-07-21T14:32:44.0000000+00:00</time></trkpt><trkpt lat="64.11857605" lon="-19.74717522"><ele>248.7</ele><time>2012-07-21T14:32:49.0000000+00:00</time></trkpt><trkpt lat="64.11857605" lon="-19.74717522"><ele>248.7</ele><time>2012-07-21T14:32:54.0000000+00:00</time></trkpt><trkpt lat="64.11857605" lon="-19.74717522"><ele>248.7</ele><time>2012-07-21T14:32:59.0000000+00:00</time></trkpt><trkpt lat="64.11857605" lon="-19.74717712"><ele>248.7</ele><time>2012-07-21T14:33:04.0000000+00:00</time></trkpt><trkpt lat="64.11857605" lon="-19.74717712"><ele>248.7</ele><time>2012-07-21T14:33:09.0000000+00:00</time></trkpt><trkpt lat="64.11857605" lon="-19.74717712"><ele>248.7</ele><time>2012-07-21T14:33:14.0000000+00:00</time></trkpt><trkpt lat="64.11857605" lon="-19.74717712"><ele>248.7</ele><time>2012-07-21T14:33:19.0000000+00:00</time></trkpt><trkpt lat="64.11857605" lon="-19.74717712"><ele>248.7</ele><time>2012-07-21T14:33:24.0000000+00:00</time></trkpt><trkpt lat="64.11857605" lon="-19.74717712"><ele>248.7</ele><time>2012-07-21T14:33:29.0000000+00:00</time></trkpt><trkpt lat="64.11857605" lon="-19.74717712"><ele>248.7</ele><time>2012-07-21T14:33:34.0000000+00:00</time></trkpt><trkpt lat="64.11857605" lon="-19.74717712"><ele>248.7</ele><time>2012-07-21T14:33:39.0000000+00:00</time></trkpt><trkpt lat="64.11857605" lon="-19.74717712"><ele>248.8</ele><time>2012-07-21T14:33:44.0000000+00:00</time></trkpt><trkpt lat="64.11857605" lon="-19.74717712"><ele>248.8</ele><time>2012-07-21T14:33:49.0000000+00:00</time></trkpt><trkpt lat="64.11857605" lon="-19.74717712"><ele>248.8</ele><time>2012-07-21T14:33:54.0000000+00:00</time></trkpt><trkpt lat="64.11857605" lon="-19.74717712"><ele>248.8</ele><time>2012-07-21T14:33:59.0000000+00:00</time></trkpt><trkpt lat="64.11857605" lon="-19.74717712"><ele>248.8</ele><time>2012-07-21T14:34:04.0000000+00:00</time></trkpt><trkpt lat="64.11857605" lon="-19.74717712"><ele>248.8</ele><time>2012-07-21T14:34:09.0000000+00:00</time></trkpt><trkpt lat="64.11857605" lon="-19.74717712"><ele>248.8</ele><time>2012-07-21T14:34:14.0000000+00:00</time></trkpt><trkpt lat="64.11857605" lon="-19.74717712"><ele>248.8</ele><time>2012-07-21T14:34:19.0000000+00:00</time></trkpt><trkpt lat="64.11857605" lon="-19.74717712"><ele>248.8</ele><time>2012-07-21T14:34:24.0000000+00:00</time></trkpt><trkpt lat="64.11857605" lon="-19.74717712"><ele>248.8</ele><time>2012-07-21T14:34:29.0000000+00:00</time></trkpt><trkpt lat="64.11857605" lon="-19.74717712"><ele>248.8</ele><time>2012-07-21T14:34:34.0000000+00:00</time></trkpt><trkpt lat="64.11857605" lon="-19.74717712"><ele>248.8</ele><time>2012-07-21T14:34:39.0000000+00:00</time></trkpt><trkpt lat="64.11857605" lon="-19.74717712"><ele>248.8</ele><time>2012-07-21T14:34:44.0000000+00:00</time></trkpt><trkpt lat="64.11857605" lon="-19.74717712"><ele>248.8</ele><time>2012-07-21T14:34:49.0000000+00:00</time></trkpt><trkpt lat="64.11857605" lon="-19.74717712"><ele>248.8</ele><time>2012-07-21T14:34:54.0000000+00:00</time></trkpt><trkpt lat="64.11857605" lon="-19.74717712"><ele>248.8</ele><time>2012-07-21T14:34:59.0000000+00:00</time></trkpt><trkpt lat="64.11857605" lon="-19.74717712"><ele>248.8</ele><time>2012-07-21T14:35:04.0000000+00:00</time></trkpt><trkpt lat="64.11857605" lon="-19.74717712"><ele>248.8</ele><time>2012-07-21T14:35:09.0000000+00:00</time></trkpt><trkpt lat="64.11857605" lon="-19.74717712"><ele>248.8</ele><time>2012-07-21T14:35:14.0000000+00:00</time></trkpt><trkpt lat="64.11857605" lon="-19.74717712"><ele>248.8</ele><time>2012-07-21T14:35:19.0000000+00:00</time></trkpt><trkpt lat="64.11857605" lon="-19.74717712"><ele>248.9</ele><time>2012-07-21T14:35:24.0000000+00:00</time></trkpt><trkpt lat="64.11857605" lon="-19.74717712"><ele>248.9</ele><time>2012-07-21T14:35:29.0000000+00:00</time></trkpt><trkpt lat="64.11857605" lon="-19.74717712"><ele>248.9</ele><time>2012-07-21T14:35:34.0000000+00:00</time></trkpt><trkpt lat="64.11857605" lon="-19.74717712"><ele>248.9</ele><time>2012-07-21T14:35:39.0000000+00:00</time></trkpt><trkpt lat="64.11857605" lon="-19.74717712"><ele>248.9</ele><time>2012-07-21T14:35:44.0000000+00:00</time></trkpt><trkpt lat="64.11857605" lon="-19.74717712"><ele>248.9</ele><time>2012-07-21T14:35:49.0000000+00:00</time></trkpt><trkpt lat="64.11857605" lon="-19.74717712"><ele>248.9</ele><time>2012-07-21T14:35:54.0000000+00:00</time></trkpt><trkpt lat="64.11857605" lon="-19.74717903"><ele>248.9</ele><time>2012-07-21T14:35:59.0000000+00:00</time></trkpt><trkpt lat="64.11857605" lon="-19.74717903"><ele>249.0</ele><time>2012-07-21T14:36:04.0000000+00:00</time></trkpt><trkpt lat="64.11857605" lon="-19.74717903"><ele>249.0</ele><time>2012-07-21T14:36:09.0000000+00:00</time></trkpt><trkpt lat="64.11857605" lon="-19.74717903"><ele>249.0</ele><time>2012-07-21T14:36:14.0000000+00:00</time></trkpt><trkpt lat="64.11857605" lon="-19.74717903"><ele>249.0</ele><time>2012-07-21T14:36:19.0000000+00:00</time></trkpt><trkpt lat="64.11857605" lon="-19.74717903"><ele>249.0</ele><time>2012-07-21T14:36:24.0000000+00:00</time></trkpt><trkpt lat="64.11857605" lon="-19.74718094"><ele>249.0</ele><time>2012-07-21T14:36:29.0000000+00:00</time></trkpt><trkpt lat="64.11857605" lon="-19.74718094"><ele>249.0</ele><time>2012-07-21T14:36:34.0000000+00:00</time></trkpt><trkpt lat="64.11857605" lon="-19.74718094"><ele>249.0</ele><time>2012-07-21T14:36:39.0000000+00:00</time></trkpt><trkpt lat="64.11857605" lon="-19.74718094"><ele>249.0</ele><time>2012-07-21T14:36:44.0000000+00:00</time></trkpt><trkpt lat="64.11857605" lon="-19.74718094"><ele>249.0</ele><time>2012-07-21T14:36:49.0000000+00:00</time></trkpt><trkpt lat="64.11857605" lon="-19.74718094"><ele>249.0</ele><time>2012-07-21T14:36:54.0000000+00:00</time></trkpt><trkpt lat="64.11857605" lon="-19.74718094"><ele>249.0</ele><time>2012-07-21T14:36:59.0000000+00:00</time></trkpt><trkpt lat="64.11857605" lon="-19.74717903"><ele>249.0</ele><time>2012-07-21T14:37:04.0000000+00:00</time></trkpt><trkpt lat="64.11857605" lon="-19.74717903"><ele>249.0</ele><time>2012-07-21T14:37:09.0000000+00:00</time></trkpt><trkpt lat="64.11857605" lon="-19.74717903"><ele>249.0</ele><time>2012-07-21T14:37:14.0000000+00:00</time></trkpt><trkpt lat="64.11857605" lon="-19.74717903"><ele>249.0</ele><time>2012-07-21T14:37:19.0000000+00:00</time></trkpt><trkpt lat="64.11857605" lon="-19.74717903"><ele>249.0</ele><time>2012-07-21T14:37:24.0000000+00:00</time></trkpt><trkpt lat="64.11857605" lon="-19.74717903"><ele>249.0</ele><time>2012-07-21T14:37:29.0000000+00:00</time></trkpt><trkpt lat="64.11857605" lon="-19.74717903"><ele>249.1</ele><time>2012-07-21T14:37:34.0000000+00:00</time></trkpt><trkpt lat="64.11857605" lon="-19.74717903"><ele>249.1</ele><time>2012-07-21T14:37:39.0000000+00:00</time></trkpt><trkpt lat="64.11856842" lon="-19.74718094"><ele>249.1</ele><time>2012-07-21T14:37:44.0000000+00:00</time></trkpt><trkpt lat="64.11856842" lon="-19.74718094"><ele>249.1</ele><time>2012-07-21T14:37:49.0000000+00:00</time></trkpt><trkpt lat="64.11856842" lon="-19.74718094"><ele>249.1</ele><time>2012-07-21T14:37:54.0000000+00:00</time></trkpt><trkpt lat="64.11856842" lon="-19.74718094"><ele>249.2</ele><time>2012-07-21T14:37:59.0000000+00:00</time></trkpt><trkpt lat="64.11856842" lon="-19.74718094"><ele>249.2</ele><time>2012-07-21T14:38:04.0000000+00:00</time></trkpt><trkpt lat="64.11856842" lon="-19.74718285"><ele>249.2</ele><time>2012-07-21T14:38:09.0000000+00:00</time></trkpt><trkpt lat="64.11856842" lon="-19.74718285"><ele>249.2</ele><time>2012-07-21T14:38:14.0000000+00:00</time></trkpt><trkpt lat="64.11856842" lon="-19.74718285"><ele>249.2</ele><time>2012-07-21T14:38:19.0000000+00:00</time></trkpt><trkpt lat="64.11856842" lon="-19.74718285"><ele>249.2</ele><time>2012-07-21T14:38:24.0000000+00:00</time></trkpt><trkpt lat="64.11856842" lon="-19.74718285"><ele>249.2</ele><time>2012-07-21T14:38:29.0000000+00:00</time></trkpt><trkpt lat="64.11856842" lon="-19.74718475"><ele>249.2</ele><time>2012-07-21T14:38:34.0000000+00:00</time></trkpt><trkpt lat="64.11856842" lon="-19.74718475"><ele>249.3</ele><time>2012-07-21T14:38:39.0000000+00:00</time></trkpt><trkpt lat="64.11856842" lon="-19.74718475"><ele>249.3</ele><time>2012-07-21T14:38:44.0000000+00:00</time></trkpt><trkpt lat="64.11856842" lon="-19.74718475"><ele>249.3</ele><time>2012-07-21T14:38:49.0000000+00:00</time></trkpt><trkpt lat="64.11856842" lon="-19.74718475"><ele>249.3</ele><time>2012-07-21T14:38:54.0000000+00:00</time></trkpt><trkpt lat="64.11856842" lon="-19.74718475"><ele>249.3</ele><time>2012-07-21T14:38:59.0000000+00:00</time></trkpt><trkpt lat="64.11856842" lon="-19.74718475"><ele>249.4</ele><time>2012-07-21T14:39:04.0000000+00:00</time></trkpt><trkpt lat="64.11856842" lon="-19.74718666"><ele>249.4</ele><time>2012-07-21T14:39:09.0000000+00:00</time></trkpt><trkpt lat="64.11856842" lon="-19.74718666"><ele>249.4</ele><time>2012-07-21T14:39:14.0000000+00:00</time></trkpt><trkpt lat="64.11856842" lon="-19.74718666"><ele>249.4</ele><time>2012-07-21T14:39:19.0000000+00:00</time></trkpt><trkpt lat="64.11856842" lon="-19.74718666"><ele>249.4</ele><time>2012-07-21T14:39:24.0000000+00:00</time></trkpt><trkpt lat="64.11856842" lon="-19.74718666"><ele>249.4</ele><time>2012-07-21T14:39:29.0000000+00:00</time></trkpt><trkpt lat="64.11856842" lon="-19.74718666"><ele>249.5</ele><time>2012-07-21T14:39:34.0000000+00:00</time></trkpt><trkpt lat="64.11856842" lon="-19.74718666"><ele>249.5</ele><time>2012-07-21T14:39:39.0000000+00:00</time></trkpt><trkpt lat="64.11856842" lon="-19.74718666"><ele>249.5</ele><time>2012-07-21T14:39:44.0000000+00:00</time></trkpt><trkpt lat="64.11856842" lon="-19.74718857"><ele>249.5</ele><time>2012-07-21T14:39:49.0000000+00:00</time></trkpt><trkpt lat="64.11856842" lon="-19.74718857"><ele>249.5</ele><time>2012-07-21T14:39:54.0000000+00:00</time></trkpt><trkpt lat="64.11856842" lon="-19.74718857"><ele>249.5</ele><time>2012-07-21T14:39:59.0000000+00:00</time></trkpt><trkpt lat="64.11856842" lon="-19.74718857"><ele>249.6</ele><time>2012-07-21T14:40:04.0000000+00:00</time></trkpt><trkpt lat="64.11856842" lon="-19.74719048"><ele>249.6</ele><time>2012-07-21T14:40:09.0000000+00:00</time></trkpt><trkpt lat="64.11856842" lon="-19.74719048"><ele>249.6</ele><time>2012-07-21T14:40:14.0000000+00:00</time></trkpt><trkpt lat="64.11856842" lon="-19.74719048"><ele>249.6</ele><time>2012-07-21T14:40:19.0000000+00:00</time></trkpt><trkpt lat="64.11856842" lon="-19.74719048"><ele>249.6</ele><time>2012-07-21T14:40:24.0000000+00:00</time></trkpt><trkpt lat="64.11856842" lon="-19.74719238"><ele>249.6</ele><time>2012-07-21T14:40:29.0000000+00:00</time></trkpt><trkpt lat="64.11856842" lon="-19.74719238"><ele>249.7</ele><time>2012-07-21T14:40:34.0000000+00:00</time></trkpt><trkpt lat="64.11856842" lon="-19.74719238"><ele>249.7</ele><time>2012-07-21T14:40:39.0000000+00:00</time></trkpt><trkpt lat="64.11856842" lon="-19.74719238"><ele>249.7</ele><time>2012-07-21T14:40:44.0000000+00:00</time></trkpt><trkpt lat="64.11856842" lon="-19.74719238"><ele>249.7</ele><time>2012-07-21T14:40:49.0000000+00:00</time></trkpt><trkpt lat="64.11856842" lon="-19.74719429"><ele>249.7</ele><time>2012-07-21T14:40:54.0000000+00:00</time></trkpt><trkpt lat="64.11856842" lon="-19.74719429"><ele>249.7</ele><time>2012-07-21T14:40:59.0000000+00:00</time></trkpt><trkpt lat="64.11856842" lon="-19.74719429"><ele>249.7</ele><time>2012-07-21T14:41:04.0000000+00:00</time></trkpt><trkpt lat="64.11856842" lon="-19.74719429"><ele>249.8</ele><time>2012-07-21T14:41:09.0000000+00:00</time></trkpt><trkpt lat="64.11856842" lon="-19.74719429"><ele>249.8</ele><time>2012-07-21T14:41:14.0000000+00:00</time></trkpt><trkpt lat="64.11856842" lon="-19.74719429"><ele>249.8</ele><time>2012-07-21T14:41:19.0000000+00:00</time></trkpt><trkpt lat="64.11856842" lon="-19.74719429"><ele>249.8</ele><time>2012-07-21T14:41:24.0000000+00:00</time></trkpt><trkpt lat="64.11856842" lon="-19.7471962"><ele>249.9</ele><time>2012-07-21T14:41:29.0000000+00:00</time></trkpt><trkpt lat="64.11856842" lon="-19.7471962"><ele>249.9</ele><time>2012-07-21T14:41:34.0000000+00:00</time></trkpt><trkpt lat="64.11856842" lon="-19.7471962"><ele>249.9</ele><time>2012-07-21T14:41:39.0000000+00:00</time></trkpt><trkpt lat="64.11856842" lon="-19.7471962"><ele>249.9</ele><time>2012-07-21T14:41:44.0000000+00:00</time></trkpt><trkpt lat="64.11856842" lon="-19.7471962"><ele>249.9</ele><time>2012-07-21T14:41:49.0000000+00:00</time></trkpt><trkpt lat="64.11856842" lon="-19.7471962"><ele>249.9</ele><time>2012-07-21T14:41:54.0000000+00:00</time></trkpt><trkpt lat="64.11856842" lon="-19.7471962"><ele>249.9</ele><time>2012-07-21T14:41:59.0000000+00:00</time></trkpt><trkpt lat="64.11856842" lon="-19.7471962"><ele>250.0</ele><time>2012-07-21T14:42:04.0000000+00:00</time></trkpt><trkpt lat="64.11856842" lon="-19.7471962"><ele>250.0</ele><time>2012-07-21T14:42:09.0000000+00:00</time></trkpt><trkpt lat="64.11856842" lon="-19.74719811"><ele>250.0</ele><time>2012-07-21T14:42:14.0000000+00:00</time></trkpt><trkpt lat="64.11856842" lon="-19.74719811"><ele>250.1</ele><time>2012-07-21T14:42:19.0000000+00:00</time></trkpt><trkpt lat="64.11856842" lon="-19.74720001"><ele>250.1</ele><time>2012-07-21T14:42:24.0000000+00:00</time></trkpt><trkpt lat="64.11856842" lon="-19.74720001"><ele>250.1</ele><time>2012-07-21T14:42:29.0000000+00:00</time></trkpt><trkpt lat="64.11857605" lon="-19.74720192"><ele>250.2</ele><time>2012-07-21T14:42:34.0000000+00:00</time></trkpt><trkpt lat="64.11857605" lon="-19.74720383"><ele>250.2</ele><time>2012-07-21T14:42:39.0000000+00:00</time></trkpt><trkpt lat="64.11857605" lon="-19.74720764"><ele>250.4</ele><time>2012-07-21T14:42:44.0000000+00:00</time></trkpt><trkpt lat="64.11857605" lon="-19.74721527"><ele>250.5</ele><time>2012-07-21T14:42:49.0000000+00:00</time></trkpt><trkpt lat="64.11857605" lon="-19.74722099"><ele>250.7</ele><time>2012-07-21T14:42:54.0000000+00:00</time></trkpt><trkpt lat="64.11858368" lon="-19.74723053"><ele>250.9</ele><time>2012-07-21T14:42:59.0000000+00:00</time></trkpt><trkpt lat="64.11858368" lon="-19.74724388"><ele>251.1</ele><time>2012-07-21T14:43:04.0000000+00:00</time></trkpt><trkpt lat="64.11858368" lon="-19.74725342"><ele>251.2</ele><time>2012-07-21T14:43:09.0000000+00:00</time></trkpt><trkpt lat="64.11858368" lon="-19.74726486"><ele>251.4</ele><time>2012-07-21T14:43:14.0000000+00:00</time></trkpt><trkpt lat="64.11858368" lon="-19.7472744"><ele>251.6</ele><time>2012-07-21T14:43:19.0000000+00:00</time></trkpt><trkpt lat="64.11859131" lon="-19.74728012"><ele>251.8</ele><time>2012-07-21T14:43:24.0000000+00:00</time></trkpt><trkpt lat="64.11859131" lon="-19.74728966"><ele>252.0</ele><time>2012-07-21T14:43:29.0000000+00:00</time></trkpt><trkpt lat="64.11859131" lon="-19.74729729"><ele>252.1</ele><time>2012-07-21T14:43:34.0000000+00:00</time></trkpt><trkpt lat="64.11859131" lon="-19.74729919"><ele>252.4</ele><time>2012-07-21T14:43:39.0000000+00:00</time></trkpt><trkpt lat="64.11859131" lon="-19.7473011"><ele>252.5</ele><time>2012-07-21T14:43:44.0000000+00:00</time></trkpt><trkpt lat="64.11859131" lon="-19.74730301"><ele>252.7</ele><time>2012-07-21T14:43:49.0000000+00:00</time></trkpt><trkpt lat="64.11859131" lon="-19.74730492"><ele>252.8</ele><time>2012-07-21T14:43:54.0000000+00:00</time></trkpt><trkpt lat="64.11859131" lon="-19.74730301"><ele>252.8</ele><time>2012-07-21T14:43:59.0000000+00:00</time></trkpt><trkpt lat="64.11859131" lon="-19.74730492"><ele>252.9</ele><time>2012-07-21T14:44:04.0000000+00:00</time></trkpt><trkpt lat="64.11859131" lon="-19.74730682"><ele>252.9</ele><time>2012-07-21T14:44:09.0000000+00:00</time></trkpt><trkpt lat="64.11859131" lon="-19.74730682"><ele>252.9</ele><time>2012-07-21T14:44:14.0000000+00:00</time></trkpt><trkpt lat="64.11859131" lon="-19.74730682"><ele>252.9</ele><time>2012-07-21T14:44:19.0000000+00:00</time></trkpt><trkpt lat="64.11859131" lon="-19.74730682"><ele>253.0</ele><time>2012-07-21T14:44:24.0000000+00:00</time></trkpt><trkpt lat="64.11859131" lon="-19.74730873"><ele>253.0</ele><time>2012-07-21T14:44:29.0000000+00:00</time></trkpt><trkpt lat="64.11859131" lon="-19.74730873"><ele>253.0</ele><time>2012-07-21T14:44:34.0000000+00:00</time></trkpt><trkpt lat="64.11859131" lon="-19.74730873"><ele>253.0</ele><time>2012-07-21T14:44:39.0000000+00:00</time></trkpt><trkpt lat="64.11859131" lon="-19.74730873"><ele>253.0</ele><time>2012-07-21T14:44:44.0000000+00:00</time></trkpt><trkpt lat="64.11859131" lon="-19.74731064"><ele>253.0</ele><time>2012-07-21T14:44:49.0000000+00:00</time></trkpt><trkpt lat="64.11859131" lon="-19.74731064"><ele>253.0</ele><time>2012-07-21T14:44:54.0000000+00:00</time></trkpt><trkpt lat="64.11859131" lon="-19.74731064"><ele>253.1</ele><time>2012-07-21T14:44:59.0000000+00:00</time></trkpt><trkpt lat="64.11859131" lon="-19.74731255"><ele>253.1</ele><time>2012-07-21T14:45:04.0000000+00:00</time></trkpt><trkpt lat="64.11859131" lon="-19.74731255"><ele>253.1</ele><time>2012-07-21T14:45:09.0000000+00:00</time></trkpt><trkpt lat="64.11859131" lon="-19.74731255"><ele>253.1</ele><time>2012-07-21T14:45:14.0000000+00:00</time></trkpt><trkpt lat="64.11859131" lon="-19.74731255"><ele>253.0</ele><time>2012-07-21T14:45:19.0000000+00:00</time></trkpt><trkpt lat="64.11859131" lon="-19.74731255"><ele>253.0</ele><time>2012-07-21T14:45:24.0000000+00:00</time></trkpt><trkpt lat="64.11859131" lon="-19.74731255"><ele>253.0</ele><time>2012-07-21T14:45:29.0000000+00:00</time></trkpt><trkpt lat="64.11859131" lon="-19.74731255"><ele>253.0</ele><time>2012-07-21T14:45:34.0000000+00:00</time></trkpt><trkpt lat="64.11859131" lon="-19.74731255"><ele>253.0</ele><time>2012-07-21T14:45:39.0000000+00:00</time></trkpt><trkpt lat="64.11859131" lon="-19.74731255"><ele>253.0</ele><time>2012-07-21T14:45:44.0000000+00:00</time></trkpt><trkpt lat="64.11859131" lon="-19.74731255"><ele>253.0</ele><time>2012-07-21T14:45:49.0000000+00:00</time></trkpt><trkpt lat="64.11859131" lon="-19.74731255"><ele>253.0</ele><time>2012-07-21T14:45:54.0000000+00:00</time></trkpt><trkpt lat="64.11859131" lon="-19.74731255"><ele>253.0</ele><time>2012-07-21T14:45:59.0000000+00:00</time></trkpt><trkpt lat="64.11859131" lon="-19.74731255"><ele>252.9</ele><time>2012-07-21T14:46:04.0000000+00:00</time></trkpt><trkpt lat="64.11859131" lon="-19.74731255"><ele>253.0</ele><time>2012-07-21T14:46:09.0000000+00:00</time></trkpt><trkpt lat="64.11859131" lon="-19.74731255"><ele>253.0</ele><time>2012-07-21T14:46:14.0000000+00:00</time></trkpt><trkpt lat="64.11859131" lon="-19.74731064"><ele>253.0</ele><time>2012-07-21T14:46:19.0000000+00:00</time></trkpt><trkpt lat="64.11859131" lon="-19.74731064"><ele>253.0</ele><time>2012-07-21T14:46:24.0000000+00:00</time></trkpt><trkpt lat="64.11859131" lon="-19.74731064"><ele>253.0</ele><time>2012-07-21T14:46:29.0000000+00:00</time></trkpt><trkpt lat="64.11859131" lon="-19.74731064"><ele>253.0</ele><time>2012-07-21T14:46:34.0000000+00:00</time></trkpt><trkpt lat="64.11859131" lon="-19.74731064"><ele>253.0</ele><time>2012-07-21T14:46:39.0000000+00:00</time></trkpt><trkpt lat="64.11859131" lon="-19.74731064"><ele>253.0</ele><time>2012-07-21T14:46:44.0000000+00:00</time></trkpt><trkpt lat="64.11859131" lon="-19.74731064"><ele>253.0</ele><time>2012-07-21T14:46:49.0000000+00:00</time></trkpt><trkpt lat="64.11859131" lon="-19.74731064"><ele>253.0</ele><time>2012-07-21T14:46:54.0000000+00:00</time></trkpt><trkpt lat="64.11859131" lon="-19.74731064"><ele>253.0</ele><time>2012-07-21T14:46:59.0000000+00:00</time></trkpt><trkpt lat="64.11859131" lon="-19.74731064"><ele>253.0</ele><time>2012-07-21T14:47:04.0000000+00:00</time></trkpt><trkpt lat="64.11859131" lon="-19.74730873"><ele>253.0</ele><time>2012-07-21T14:47:09.0000000+00:00</time></trkpt><trkpt lat="64.11859131" lon="-19.74730873"><ele>253.1</ele><time>2012-07-21T14:47:14.0000000+00:00</time></trkpt><trkpt lat="64.11859131" lon="-19.74730873"><ele>253.2</ele><time>2012-07-21T14:47:19.0000000+00:00</time></trkpt><trkpt lat="64.11859131" lon="-19.74730682"><ele>253.2</ele><time>2012-07-21T14:47:24.0000000+00:00</time></trkpt><trkpt lat="64.11859131" lon="-19.74730682"><ele>253.3</ele><time>2012-07-21T14:47:29.0000000+00:00</time></trkpt><trkpt lat="64.11859131" lon="-19.74730682"><ele>253.3</ele><time>2012-07-21T14:47:34.0000000+00:00</time></trkpt><trkpt lat="64.11859131" lon="-19.74730682"><ele>253.3</ele><time>2012-07-21T14:47:39.0000000+00:00</time></trkpt><trkpt lat="64.11859131" lon="-19.74730682"><ele>253.3</ele><time>2012-07-21T14:47:44.0000000+00:00</time></trkpt><trkpt lat="64.11859131" lon="-19.74730682"><ele>253.3</ele><time>2012-07-21T14:47:49.0000000+00:00</time></trkpt><trkpt lat="64.11858368" lon="-19.74730873"><ele>253.0</ele><time>2012-07-21T14:47:54.0000000+00:00</time></trkpt><trkpt lat="64.11858368" lon="-19.74728966"><ele>249.6</ele><time>2012-07-21T14:47:59.0000000+00:00</time></trkpt><trkpt lat="64.1186142" lon="-19.74730682"><ele>248.2</ele><time>2012-07-21T14:48:04.0000000+00:00</time></trkpt><trkpt lat="64.11875153" lon="-19.74742508"><ele>247.7</ele><time>2012-07-21T14:48:09.0000000+00:00</time></trkpt><trkpt lat="64.11886597" lon="-19.74753761"><ele>248.7</ele><time>2012-07-21T14:48:14.0000000+00:00</time></trkpt><trkpt lat="64.11895752" lon="-19.74762344"><ele>248.7</ele><time>2012-07-21T14:48:19.0000000+00:00</time></trkpt><trkpt lat="64.1190567" lon="-19.74773979"><ele>250.2</ele><time>2012-07-21T14:48:24.0000000+00:00</time></trkpt><trkpt lat="64.11915588" lon="-19.74785996"><ele>251.5</ele><time>2012-07-21T14:48:29.0000000+00:00</time></trkpt><trkpt lat="64.11923981" lon="-19.74798393"><ele>252.4</ele><time>2012-07-21T14:48:34.0000000+00:00</time></trkpt><trkpt lat="64.11930084" lon="-19.74808884"><ele>253.1</ele><time>2012-07-21T14:48:39.0000000+00:00</time></trkpt><trkpt lat="64.11936951" lon="-19.74811363"><ele>254.5</ele><time>2012-07-21T14:48:44.0000000+00:00</time></trkpt><trkpt lat="64.11943054" lon="-19.74804306"><ele>254.8</ele><time>2012-07-21T14:48:49.0000000+00:00</time></trkpt><trkpt lat="64.11945343" lon="-19.74785614"><ele>254.9</ele><time>2012-07-21T14:48:54.0000000+00:00</time></trkpt><trkpt lat="64.11946869" lon="-19.74766541"><ele>255.5</ele><time>2012-07-21T14:48:59.0000000+00:00</time></trkpt><trkpt lat="64.11949921" lon="-19.74746513"><ele>255.9</ele><time>2012-07-21T14:49:04.0000000+00:00</time></trkpt><trkpt lat="64.11952972" lon="-19.74720955"><ele>256.4</ele><time>2012-07-21T14:49:09.0000000+00:00</time></trkpt><trkpt lat="64.11956024" lon="-19.74695969"><ele>256.8</ele><time>2012-07-21T14:49:14.0000000+00:00</time></trkpt><trkpt lat="64.11959839" lon="-19.74671555"><ele>257.4</ele><time>2012-07-21T14:49:19.0000000+00:00</time></trkpt><trkpt lat="64.11963654" lon="-19.74650765"><ele>258.1</ele><time>2012-07-21T14:49:24.0000000+00:00</time></trkpt><trkpt lat="64.11967468" lon="-19.74627113"><ele>257.9</ele><time>2012-07-21T14:49:29.0000000+00:00</time></trkpt><trkpt lat="64.11971283" lon="-19.74604225"><ele>257.9</ele><time>2012-07-21T14:49:34.0000000+00:00</time></trkpt><trkpt lat="64.11975098" lon="-19.74581718"><ele>258.1</ele><time>2012-07-21T14:49:39.0000000+00:00</time></trkpt><trkpt lat="64.11979675" lon="-19.74558449"><ele>258.1</ele><time>2012-07-21T14:49:44.0000000+00:00</time></trkpt><trkpt lat="64.11984253" lon="-19.74536514"><ele>258.2</ele><time>2012-07-21T14:49:49.0000000+00:00</time></trkpt><trkpt lat="64.11988831" lon="-19.74512863"><ele>258.0</ele><time>2012-07-21T14:49:54.0000000+00:00</time></trkpt><trkpt lat="64.11993408" lon="-19.74489212"><ele>257.5</ele><time>2012-07-21T14:49:59.0000000+00:00</time></trkpt><trkpt lat="64.11997986" lon="-19.74464798"><ele>257.2</ele><time>2012-07-21T14:50:04.0000000+00:00</time></trkpt><trkpt lat="64.12002564" lon="-19.74438477"><ele>256.6</ele><time>2012-07-21T14:50:09.0000000+00:00</time></trkpt><trkpt lat="64.12008667" lon="-19.74412155"><ele>256.0</ele><time>2012-07-21T14:50:14.0000000+00:00</time></trkpt><trkpt lat="64.12014008" lon="-19.74385452"><ele>255.2</ele><time>2012-07-21T14:50:19.0000000+00:00</time></trkpt><trkpt lat="64.12020111" lon="-19.7435627"><ele>254.8</ele><time>2012-07-21T14:50:24.0000000+00:00</time></trkpt><trkpt lat="64.12025452" lon="-19.7432518"><ele>253.6</ele><time>2012-07-21T14:50:29.0000000+00:00</time></trkpt><trkpt lat="64.12031555" lon="-19.74295807"><ele>253.5</ele><time>2012-07-21T14:50:34.0000000+00:00</time></trkpt><trkpt lat="64.12036896" lon="-19.74264145"><ele>253.2</ele><time>2012-07-21T14:50:39.0000000+00:00</time></trkpt><trkpt lat="64.12042999" lon="-19.74235344"><ele>253.5</ele><time>2012-07-21T14:50:44.0000000+00:00</time></trkpt><trkpt lat="64.12049103" lon="-19.74207115"><ele>253.3</ele><time>2012-07-21T14:50:49.0000000+00:00</time></trkpt><trkpt lat="64.1205368" lon="-19.74177551"><ele>252.5</ele><time>2012-07-21T14:50:54.0000000+00:00</time></trkpt><trkpt lat="64.12058258" lon="-19.74153328"><ele>252.5</ele><time>2012-07-21T14:50:59.0000000+00:00</time></trkpt><trkpt lat="64.12062836" lon="-19.74132156"><ele>252.9</ele><time>2012-07-21T14:51:04.0000000+00:00</time></trkpt><trkpt lat="64.1206665" lon="-19.74113083"><ele>253.6</ele><time>2012-07-21T14:51:09.0000000+00:00</time></trkpt><trkpt lat="64.12071228" lon="-19.74092102"><ele>253.7</ele><time>2012-07-21T14:51:14.0000000+00:00</time></trkpt><trkpt lat="64.12075043" lon="-19.74071312"><ele>254.1</ele><time>2012-07-21T14:51:19.0000000+00:00</time></trkpt><trkpt lat="64.12078857" lon="-19.74051094"><ele>254.3</ele><time>2012-07-21T14:51:24.0000000+00:00</time></trkpt><trkpt lat="64.12082672" lon="-19.74030304"><ele>254.4</ele><time>2012-07-21T14:51:29.0000000+00:00</time></trkpt><trkpt lat="64.12086487" lon="-19.74012756"><ele>254.2</ele><time>2012-07-21T14:51:34.0000000+00:00</time></trkpt><trkpt lat="64.12091827" lon="-19.73992348"><ele>254.2</ele><time>2012-07-21T14:51:39.0000000+00:00</time></trkpt><trkpt lat="64.12096405" lon="-19.73968697"><ele>254.4</ele><time>2012-07-21T14:51:44.0000000+00:00</time></trkpt><trkpt lat="64.1210022" lon="-19.73946381"><ele>254.4</ele><time>2012-07-21T14:51:49.0000000+00:00</time></trkpt><trkpt lat="64.12104797" lon="-19.73923492"><ele>254.1</ele><time>2012-07-21T14:51:54.0000000+00:00</time></trkpt><trkpt lat="64.12108612" lon="-19.73899078"><ele>254.4</ele><time>2012-07-21T14:51:59.0000000+00:00</time></trkpt><trkpt lat="64.1211319" lon="-19.73877907"><ele>253.8</ele><time>2012-07-21T14:52:04.0000000+00:00</time></trkpt><trkpt lat="64.12117004" lon="-19.73857307"><ele>253.4</ele><time>2012-07-21T14:52:09.0000000+00:00</time></trkpt><trkpt lat="64.12121582" lon="-19.73834992"><ele>253.2</ele><time>2012-07-21T14:52:14.0000000+00:00</time></trkpt><trkpt lat="64.1212616" lon="-19.73812485"><ele>253.3</ele><time>2012-07-21T14:52:19.0000000+00:00</time></trkpt><trkpt lat="64.12130737" lon="-19.73790932"><ele>253.5</ele><time>2012-07-21T14:52:24.0000000+00:00</time></trkpt><trkpt lat="64.12134552" lon="-19.73769188"><ele>253.4</ele><time>2012-07-21T14:52:29.0000000+00:00</time></trkpt><trkpt lat="64.12138367" lon="-19.73747826"><ele>253.5</ele><time>2012-07-21T14:52:34.0000000+00:00</time></trkpt><trkpt lat="64.12142944" lon="-19.73724556"><ele>253.9</ele><time>2012-07-21T14:52:39.0000000+00:00</time></trkpt><trkpt lat="64.12146759" lon="-19.73698807"><ele>254.1</ele><time>2012-07-21T14:52:44.0000000+00:00</time></trkpt><trkpt lat="64.121521" lon="-19.73672867"><ele>254.5</ele><time>2012-07-21T14:52:49.0000000+00:00</time></trkpt><trkpt lat="64.12158203" lon="-19.73644447"><ele>254.9</ele><time>2012-07-21T14:52:54.0000000+00:00</time></trkpt><trkpt lat="64.12164307" lon="-19.73613739"><ele>255.5</ele><time>2012-07-21T14:52:59.0000000+00:00</time></trkpt><trkpt lat="64.1217041" lon="-19.7358551"><ele>255.9</ele><time>2012-07-21T14:53:04.0000000+00:00</time></trkpt><trkpt lat="64.12176514" lon="-19.73556519"><ele>255.9</ele><time>2012-07-21T14:53:09.0000000+00:00</time></trkpt><trkpt lat="64.12181854" lon="-19.73530769"><ele>255.9</ele><time>2012-07-21T14:53:14.0000000+00:00</time></trkpt><trkpt lat="64.12187195" lon="-19.73501968"><ele>256.0</ele><time>2012-07-21T14:53:19.0000000+00:00</time></trkpt><trkpt lat="64.12192535" lon="-19.73472595"><ele>256.0</ele><time>2012-07-21T14:53:24.0000000+00:00</time></trkpt><trkpt lat="64.12197876" lon="-19.73443794"><ele>256.0</ele><time>2012-07-21T14:53:29.0000000+00:00</time></trkpt><trkpt lat="64.1220398" lon="-19.73419952"><ele>255.5</ele><time>2012-07-21T14:53:34.0000000+00:00</time></trkpt><trkpt lat="64.1220932" lon="-19.73389816"><ele>255.6</ele><time>2012-07-21T14:53:39.0000000+00:00</time></trkpt><trkpt lat="64.12214661" lon="-19.73360634"><ele>255.9</ele><time>2012-07-21T14:53:44.0000000+00:00</time></trkpt><trkpt lat="64.12220001" lon="-19.73334122"><ele>255.5</ele><time>2012-07-21T14:53:49.0000000+00:00</time></trkpt><trkpt lat="64.12220001" lon="-19.73315048"><ele>255.6</ele><time>2012-07-21T14:53:54.0000000+00:00</time></trkpt><trkpt lat="64.12212372" lon="-19.73305702"><ele>254.8</ele><time>2012-07-21T14:53:59.0000000+00:00</time></trkpt><trkpt lat="64.12200928" lon="-19.73309326"><ele>254.0</ele><time>2012-07-21T14:54:04.0000000+00:00</time></trkpt><trkpt lat="64.12188721" lon="-19.73315048"><ele>253.4</ele><time>2012-07-21T14:54:09.0000000+00:00</time></trkpt><trkpt lat="64.12175751" lon="-19.73322868"><ele>253.5</ele><time>2012-07-21T14:54:14.0000000+00:00</time></trkpt><trkpt lat="64.12162018" lon="-19.73329353"><ele>252.9</ele><time>2012-07-21T14:54:19.0000000+00:00</time></trkpt><trkpt lat="64.12149048" lon="-19.73338318"><ele>252.7</ele><time>2012-07-21T14:54:24.0000000+00:00</time></trkpt><trkpt lat="64.12136078" lon="-19.73345184"><ele>251.6</ele><time>2012-07-21T14:54:29.0000000+00:00</time></trkpt><trkpt lat="64.12121582" lon="-19.73352814"><ele>252.1</ele><time>2012-07-21T14:54:34.0000000+00:00</time></trkpt><trkpt lat="64.12107849" lon="-19.73360062"><ele>252.6</ele><time>2012-07-21T14:54:39.0000000+00:00</time></trkpt><trkpt lat="64.12095642" lon="-19.73365784"><ele>252.5</ele><time>2012-07-21T14:54:44.0000000+00:00</time></trkpt><trkpt lat="64.12081909" lon="-19.73372459"><ele>252.6</ele><time>2012-07-21T14:54:49.0000000+00:00</time></trkpt><trkpt lat="64.12069702" lon="-19.73379135"><ele>252.3</ele><time>2012-07-21T14:54:54.0000000+00:00</time></trkpt><trkpt lat="64.12055206" lon="-19.73386002"><ele>252.7</ele><time>2012-07-21T14:54:59.0000000+00:00</time></trkpt><trkpt lat="64.12039185" lon="-19.73398781"><ele>251.5</ele><time>2012-07-21T14:55:04.0000000+00:00</time></trkpt><trkpt lat="64.12019348" lon="-19.73407745"><ele>250.6</ele><time>2012-07-21T14:55:09.0000000+00:00</time></trkpt><trkpt lat="64.12002564" lon="-19.73435783"><ele>250.7</ele><time>2012-07-21T14:55:14.0000000+00:00</time></trkpt><trkpt lat="64.11988068" lon="-19.73470879"><ele>252.4</ele><time>2012-07-21T14:55:19.0000000+00:00</time></trkpt><trkpt lat="64.11972809" lon="-19.7350769"><ele>254.6</ele><time>2012-07-21T14:55:24.0000000+00:00</time></trkpt><trkpt lat="64.11956787" lon="-19.7354641"><ele>256.1</ele><time>2012-07-21T14:55:29.0000000+00:00</time></trkpt><trkpt lat="64.11948395" lon="-19.73564911"><ele>256.3</ele><time>2012-07-21T14:55:34.0000000+00:00</time></trkpt><trkpt lat="64.11943054" lon="-19.73577309"><ele>257.5</ele><time>2012-07-21T14:55:39.0000000+00:00</time></trkpt><trkpt lat="64.11935425" lon="-19.73563576"><ele>259.8</ele><time>2012-07-21T14:55:44.0000000+00:00</time></trkpt><trkpt lat="64.11930847" lon="-19.73547173"><ele>261.0</ele><time>2012-07-21T14:55:49.0000000+00:00</time></trkpt><trkpt lat="64.11925507" lon="-19.73528671"><ele>261.5</ele><time>2012-07-21T14:55:54.0000000+00:00</time></trkpt><trkpt lat="64.11917114" lon="-19.73509789"><ele>261.0</ele><time>2012-07-21T14:55:59.0000000+00:00</time></trkpt><trkpt lat="64.11909485" lon="-19.73487091"><ele>257.8</ele><time>2012-07-21T14:56:04.0000000+00:00</time></trkpt><trkpt lat="64.11902618" lon="-19.73462105"><ele>259.3</ele><time>2012-07-21T14:56:09.0000000+00:00</time></trkpt><trkpt lat="64.11895752" lon="-19.73441887"><ele>259.5</ele><time>2012-07-21T14:56:14.0000000+00:00</time></trkpt><trkpt lat="64.11888123" lon="-19.73422623"><ele>256.5</ele><time>2012-07-21T14:56:19.0000000+00:00</time></trkpt><trkpt lat="64.11882019" lon="-19.73401451"><ele>259.0</ele><time>2012-07-21T14:56:24.0000000+00:00</time></trkpt><trkpt lat="64.11885071" lon="-19.73389435"><ele>259.8</ele><time>2012-07-21T14:56:29.0000000+00:00</time></trkpt><trkpt lat="64.11886597" lon="-19.7338562"><ele>258.4</ele><time>2012-07-21T14:56:34.0000000+00:00</time></trkpt><trkpt lat="64.11886597" lon="-19.7338562"><ele>258.4</ele><time>2012-07-21T14:56:39.0000000+00:00</time></trkpt><trkpt lat="64.11886597" lon="-19.7338562"><ele>258.4</ele><time>2012-07-21T14:56:44.0000000+00:00</time></trkpt><trkpt lat="64.11886597" lon="-19.7338562"><ele>258.4</ele><time>2012-07-21T14:56:49.0000000+00:00</time></trkpt><trkpt lat="64.11886597" lon="-19.7338562"><ele>258.4</ele><time>2012-07-21T14:56:54.0000000+00:00</time></trkpt><trkpt lat="64.11886597" lon="-19.7338562"><ele>258.4</ele><time>2012-07-21T14:56:59.0000000+00:00</time></trkpt><trkpt lat="64.11886597" lon="-19.73385239"><ele>258.5</ele><time>2012-07-21T14:57:04.0000000+00:00</time></trkpt><trkpt lat="64.11886597" lon="-19.73385048"><ele>258.6</ele><time>2012-07-21T14:57:09.0000000+00:00</time></trkpt><trkpt lat="64.11895752" lon="-19.733675"><ele>256.9</ele><time>2012-07-21T14:57:14.0000000+00:00</time></trkpt><trkpt lat="64.11898041" lon="-19.73334885"><ele>254.8</ele><time>2012-07-21T14:57:19.0000000+00:00</time></trkpt><trkpt lat="64.11890411" lon="-19.73305321"><ele>254.7</ele><time>2012-07-21T14:57:24.0000000+00:00</time></trkpt><trkpt lat="64.11881256" lon="-19.73284912"><ele>256.0</ele><time>2012-07-21T14:57:29.0000000+00:00</time></trkpt><trkpt lat="64.1187439" lon="-19.73271942"><ele>258.8</ele><time>2012-07-21T14:57:34.0000000+00:00</time></trkpt><trkpt lat="64.1186676" lon="-19.73252487"><ele>259.3</ele><time>2012-07-21T14:57:39.0000000+00:00</time></trkpt><trkpt lat="64.11858368" lon="-19.73230553"><ele>259.0</ele><time>2012-07-21T14:57:44.0000000+00:00</time></trkpt><trkpt lat="64.11849213" lon="-19.73209763"><ele>256.8</ele><time>2012-07-21T14:57:49.0000000+00:00</time></trkpt><trkpt lat="64.11843109" lon="-19.73187447"><ele>256.2</ele><time>2012-07-21T14:57:54.0000000+00:00</time></trkpt><trkpt lat="64.11833954" lon="-19.73163605"><ele>253.6</ele><time>2012-07-21T14:57:59.0000000+00:00</time></trkpt><trkpt lat="64.1182785" lon="-19.73139572"><ele>251.6</ele><time>2012-07-21T14:58:04.0000000+00:00</time></trkpt><trkpt lat="64.11823273" lon="-19.73113251"><ele>251.1</ele><time>2012-07-21T14:58:09.0000000+00:00</time></trkpt><trkpt lat="64.11818695" lon="-19.73093796"><ele>251.3</ele><time>2012-07-21T14:58:14.0000000+00:00</time></trkpt><trkpt lat="64.11814117" lon="-19.73069"><ele>251.3</ele><time>2012-07-21T14:58:19.0000000+00:00</time></trkpt><trkpt lat="64.11808014" lon="-19.73044014"><ele>249.8</ele><time>2012-07-21T14:58:24.0000000+00:00</time></trkpt><trkpt lat="64.11803436" lon="-19.73021317"><ele>248.9</ele><time>2012-07-21T14:58:29.0000000+00:00</time></trkpt><trkpt lat="64.11799622" lon="-19.73002625"><ele>248.8</ele><time>2012-07-21T14:58:34.0000000+00:00</time></trkpt><trkpt lat="64.11797333" lon="-19.72980118"><ele>251.0</ele><time>2012-07-21T14:58:39.0000000+00:00</time></trkpt><trkpt lat="64.11795044" lon="-19.72959518"><ele>249.8</ele><time>2012-07-21T14:58:44.0000000+00:00</time></trkpt><trkpt lat="64.11791992" lon="-19.72941208"><ele>250.3</ele><time>2012-07-21T14:58:49.0000000+00:00</time></trkpt><trkpt lat="64.1178894" lon="-19.72921944"><ele>250.8</ele><time>2012-07-21T14:58:54.0000000+00:00</time></trkpt><trkpt lat="64.11788178" lon="-19.72911263"><ele>251.7</ele><time>2012-07-21T14:58:59.0000000+00:00</time></trkpt><trkpt lat="64.11788178" lon="-19.72911835"><ele>251.4</ele><time>2012-07-21T14:59:04.0000000+00:00</time></trkpt><trkpt lat="64.11788178" lon="-19.72911835"><ele>251.4</ele><time>2012-07-21T14:59:09.0000000+00:00</time></trkpt><trkpt lat="64.11788178" lon="-19.72911835"><ele>251.4</ele><time>2012-07-21T14:59:14.0000000+00:00</time></trkpt><trkpt lat="64.11788178" lon="-19.72911835"><ele>251.4</ele><time>2012-07-21T14:59:19.0000000+00:00</time></trkpt><trkpt lat="64.11787415" lon="-19.72903252"><ele>251.3</ele><time>2012-07-21T14:59:24.0000000+00:00</time></trkpt><trkpt lat="64.11788178" lon="-19.72882271"><ele>249.5</ele><time>2012-07-21T14:59:29.0000000+00:00</time></trkpt><trkpt lat="64.1178894" lon="-19.72861099"><ele>248.4</ele><time>2012-07-21T14:59:34.0000000+00:00</time></trkpt><trkpt lat="64.11789703" lon="-19.72837257"><ele>246.9</ele><time>2012-07-21T14:59:39.0000000+00:00</time></trkpt><trkpt lat="64.11789703" lon="-19.72811317"><ele>247.9</ele><time>2012-07-21T14:59:44.0000000+00:00</time></trkpt><trkpt lat="64.11791992" lon="-19.72783661"><ele>248.9</ele><time>2012-07-21T14:59:49.0000000+00:00</time></trkpt><trkpt lat="64.11791992" lon="-19.72760391"><ele>247.6</ele><time>2012-07-21T14:59:54.0000000+00:00</time></trkpt><trkpt lat="64.11793518" lon="-19.72732163"><ele>247.9</ele><time>2012-07-21T14:59:59.0000000+00:00</time></trkpt><trkpt lat="64.11795044" lon="-19.72706223"><ele>249.6</ele><time>2012-07-21T15:00:04.0000000+00:00</time></trkpt><trkpt lat="64.11795807" lon="-19.72680664"><ele>248.9</ele><time>2012-07-21T15:00:09.0000000+00:00</time></trkpt><trkpt lat="64.11795807" lon="-19.72654915"><ele>248.0</ele><time>2012-07-21T15:00:14.0000000+00:00</time></trkpt><trkpt lat="64.11791992" lon="-19.7263298"><ele>247.1</ele><time>2012-07-21T15:00:19.0000000+00:00</time></trkpt><trkpt lat="64.11790466" lon="-19.72626114"><ele>247.2</ele><time>2012-07-21T15:00:24.0000000+00:00</time></trkpt><trkpt lat="64.11790466" lon="-19.72625923"><ele>246.2</ele><time>2012-07-21T15:00:29.0000000+00:00</time></trkpt><trkpt lat="64.11790466" lon="-19.72625542"><ele>246.2</ele><time>2012-07-21T15:00:34.0000000+00:00</time></trkpt><trkpt lat="64.11791229" lon="-19.7262516"><ele>246.3</ele><time>2012-07-21T15:00:39.0000000+00:00</time></trkpt><trkpt lat="64.11791229" lon="-19.7262516"><ele>246.3</ele><time>2012-07-21T15:00:44.0000000+00:00</time></trkpt><trkpt lat="64.11791229" lon="-19.72625351"><ele>246.4</ele><time>2012-07-21T15:00:49.0000000+00:00</time></trkpt><trkpt lat="64.11790466" lon="-19.72625732"><ele>246.4</ele><time>2012-07-21T15:00:54.0000000+00:00</time></trkpt><trkpt lat="64.11788178" lon="-19.72618294"><ele>246.3</ele><time>2012-07-21T15:00:59.0000000+00:00</time></trkpt><trkpt lat="64.11781311" lon="-19.72598839"><ele>247.2</ele><time>2012-07-21T15:01:04.0000000+00:00</time></trkpt><trkpt lat="64.11771393" lon="-19.72595024"><ele>247.3</ele><time>2012-07-21T15:01:09.0000000+00:00</time></trkpt><trkpt lat="64.11760712" lon="-19.7259903"><ele>247.8</ele><time>2012-07-21T15:01:14.0000000+00:00</time></trkpt><trkpt lat="64.11746216" lon="-19.72600555"><ele>248.1</ele><time>2012-07-21T15:01:19.0000000+00:00</time></trkpt><trkpt lat="64.11732483" lon="-19.72603416"><ele>249.7</ele><time>2012-07-21T15:01:24.0000000+00:00</time></trkpt><trkpt lat="64.11721802" lon="-19.72595215"><ele>249.8</ele><time>2012-07-21T15:01:29.0000000+00:00</time></trkpt><trkpt lat="64.11715698" lon="-19.72580719"><ele>249.9</ele><time>2012-07-21T15:01:34.0000000+00:00</time></trkpt><trkpt lat="64.11714935" lon="-19.72577095"><ele>250.3</ele><time>2012-07-21T15:01:39.0000000+00:00</time></trkpt><trkpt lat="64.11714935" lon="-19.72576904"><ele>250.2</ele><time>2012-07-21T15:01:44.0000000+00:00</time></trkpt><trkpt lat="64.11714935" lon="-19.72576904"><ele>250.0</ele><time>2012-07-21T15:01:49.0000000+00:00</time></trkpt><trkpt lat="64.11714935" lon="-19.72576714"><ele>249.9</ele><time>2012-07-21T15:01:54.0000000+00:00</time></trkpt><trkpt lat="64.11714935" lon="-19.72576714"><ele>249.9</ele><time>2012-07-21T15:01:59.0000000+00:00</time></trkpt><trkpt lat="64.11714935" lon="-19.72576714"><ele>250.0</ele><time>2012-07-21T15:02:04.0000000+00:00</time></trkpt><trkpt lat="64.11714935" lon="-19.72576714"><ele>250.0</ele><time>2012-07-21T15:02:09.0000000+00:00</time></trkpt><trkpt lat="64.11714935" lon="-19.72576714"><ele>250.0</ele><time>2012-07-21T15:02:14.0000000+00:00</time></trkpt><trkpt lat="64.11714935" lon="-19.72576714"><ele>250.0</ele><time>2012-07-21T15:02:19.0000000+00:00</time></trkpt><trkpt lat="64.11714935" lon="-19.72576714"><ele>250.0</ele><time>2012-07-21T15:02:24.0000000+00:00</time></trkpt><trkpt lat="64.11714935" lon="-19.72576714"><ele>250.0</ele><time>2012-07-21T15:02:29.0000000+00:00</time></trkpt><trkpt lat="64.11714935" lon="-19.72576714"><ele>250.0</ele><time>2012-07-21T15:02:34.0000000+00:00</time></trkpt><trkpt lat="64.11714935" lon="-19.72576714"><ele>250.0</ele><time>2012-07-21T15:02:39.0000000+00:00</time></trkpt><trkpt lat="64.11714935" lon="-19.72576714"><ele>250.0</ele><time>2012-07-21T15:02:44.0000000+00:00</time></trkpt><trkpt lat="64.11714935" lon="-19.72576714"><ele>250.0</ele><time>2012-07-21T15:02:49.0000000+00:00</time></trkpt><trkpt lat="64.11714935" lon="-19.72576714"><ele>250.0</ele><time>2012-07-21T15:02:54.0000000+00:00</time></trkpt><trkpt lat="64.11714935" lon="-19.72576714"><ele>250.0</ele><time>2012-07-21T15:02:59.0000000+00:00</time></trkpt><trkpt lat="64.11714935" lon="-19.72576714"><ele>250.0</ele><time>2012-07-21T15:03:04.0000000+00:00</time></trkpt><trkpt lat="64.11714935" lon="-19.72576714"><ele>250.0</ele><time>2012-07-21T15:03:09.0000000+00:00</time></trkpt><trkpt lat="64.11714935" lon="-19.72576714"><ele>250.0</ele><time>2012-07-21T15:03:14.0000000+00:00</time></trkpt><trkpt lat="64.11714935" lon="-19.72576714"><ele>250.0</ele><time>2012-07-21T15:03:19.0000000+00:00</time></trkpt><trkpt lat="64.11714935" lon="-19.72576714"><ele>250.0</ele><time>2012-07-21T15:03:24.0000000+00:00</time></trkpt><trkpt lat="64.11714935" lon="-19.72576523"><ele>250.0</ele><time>2012-07-21T15:03:29.0000000+00:00</time></trkpt><trkpt lat="64.11714935" lon="-19.72576523"><ele>250.0</ele><time>2012-07-21T15:03:34.0000000+00:00</time></trkpt><trkpt lat="64.11714172" lon="-19.72560501"><ele>250.1</ele><time>2012-07-21T15:03:39.0000000+00:00</time></trkpt><trkpt lat="64.11713409" lon="-19.7254982"><ele>250.7</ele><time>2012-07-21T15:03:44.0000000+00:00</time></trkpt><trkpt lat="64.11713409" lon="-19.72530365"><ele>251.1</ele><time>2012-07-21T15:03:49.0000000+00:00</time></trkpt><trkpt lat="64.11711884" lon="-19.72506905"><ele>251.9</ele><time>2012-07-21T15:03:54.0000000+00:00</time></trkpt><trkpt lat="64.11711121" lon="-19.72481728"><ele>253.2</ele><time>2012-07-21T15:03:59.0000000+00:00</time></trkpt><trkpt lat="64.11710358" lon="-19.72456932"><ele>255.3</ele><time>2012-07-21T15:04:04.0000000+00:00</time></trkpt><trkpt lat="64.11708069" lon="-19.72430611"><ele>255.8</ele><time>2012-07-21T15:04:09.0000000+00:00</time></trkpt><trkpt lat="64.11706543" lon="-19.72401619"><ele>255.0</ele><time>2012-07-21T15:04:14.0000000+00:00</time></trkpt><trkpt lat="64.11704254" lon="-19.72375488"><ele>254.6</ele><time>2012-07-21T15:04:19.0000000+00:00</time></trkpt><trkpt lat="64.11702728" lon="-19.72346878"><ele>253.8</ele><time>2012-07-21T15:04:24.0000000+00:00</time></trkpt><trkpt lat="64.11701202" lon="-19.72315788"><ele>254.7</ele><time>2012-07-21T15:04:29.0000000+00:00</time></trkpt><trkpt lat="64.11701202" lon="-19.72283936"><ele>254.9</ele><time>2012-07-21T15:04:34.0000000+00:00</time></trkpt><trkpt lat="64.11698914" lon="-19.72255516"><ele>254.8</ele><time>2012-07-21T15:04:39.0000000+00:00</time></trkpt><trkpt lat="64.11698151" lon="-19.72224808"><ele>254.5</ele><time>2012-07-21T15:04:44.0000000+00:00</time></trkpt><trkpt lat="64.11696625" lon="-19.72194672"><ele>255.5</ele><time>2012-07-21T15:04:49.0000000+00:00</time></trkpt><trkpt lat="64.11695099" lon="-19.72165108"><ele>254.4</ele><time>2012-07-21T15:04:54.0000000+00:00</time></trkpt><trkpt lat="64.11693573" lon="-19.7213459"><ele>254.2</ele><time>2012-07-21T15:04:59.0000000+00:00</time></trkpt><trkpt lat="64.11692047" lon="-19.72104645"><ele>254.7</ele><time>2012-07-21T15:05:04.0000000+00:00</time></trkpt><trkpt lat="64.11690521" lon="-19.7207489"><ele>254.4</ele><time>2012-07-21T15:05:09.0000000+00:00</time></trkpt><trkpt lat="64.11688995" lon="-19.72045517"><ele>254.7</ele><time>2012-07-21T15:05:14.0000000+00:00</time></trkpt><trkpt lat="64.11686707" lon="-19.72018814"><ele>254.3</ele><time>2012-07-21T15:05:19.0000000+00:00</time></trkpt><trkpt lat="64.11685944" lon="-19.71990204"><ele>255.1</ele><time>2012-07-21T15:05:24.0000000+00:00</time></trkpt><trkpt lat="64.11684418" lon="-19.71959114"><ele>254.6</ele><time>2012-07-21T15:05:29.0000000+00:00</time></trkpt><trkpt lat="64.11682129" lon="-19.71926308"><ele>253.7</ele><time>2012-07-21T15:05:34.0000000+00:00</time></trkpt><trkpt lat="64.11680603" lon="-19.71895981"><ele>254.3</ele><time>2012-07-21T15:05:39.0000000+00:00</time></trkpt><trkpt lat="64.1167984" lon="-19.71869278"><ele>255.6</ele><time>2012-07-21T15:05:44.0000000+00:00</time></trkpt><trkpt lat="64.11679077" lon="-19.71841049"><ele>256.2</ele><time>2012-07-21T15:05:49.0000000+00:00</time></trkpt><trkpt lat="64.11677551" lon="-19.7181015"><ele>256.3</ele><time>2012-07-21T15:05:54.0000000+00:00</time></trkpt><trkpt lat="64.11676025" lon="-19.7177906"><ele>255.7</ele><time>2012-07-21T15:05:59.0000000+00:00</time></trkpt><trkpt lat="64.116745" lon="-19.71749115"><ele>256.4</ele><time>2012-07-21T15:06:04.0000000+00:00</time></trkpt><trkpt lat="64.11673737" lon="-19.71719742"><ele>257.4</ele><time>2012-07-21T15:06:09.0000000+00:00</time></trkpt><trkpt lat="64.11670685" lon="-19.71687508"><ele>256.5</ele><time>2012-07-21T15:06:14.0000000+00:00</time></trkpt><trkpt lat="64.11669159" lon="-19.71652603"><ele>256.2</ele><time>2012-07-21T15:06:19.0000000+00:00</time></trkpt><trkpt lat="64.11667633" lon="-19.71619225"><ele>255.0</ele><time>2012-07-21T15:06:24.0000000+00:00</time></trkpt><trkpt lat="64.11666107" lon="-19.71588516"><ele>255.5</ele><time>2012-07-21T15:06:29.0000000+00:00</time></trkpt><trkpt lat="64.11664581" lon="-19.71559715"><ele>256.0</ele><time>2012-07-21T15:06:34.0000000+00:00</time></trkpt><trkpt lat="64.1166153" lon="-19.71531487"><ele>254.6</ele><time>2012-07-21T15:06:39.0000000+00:00</time></trkpt><trkpt lat="64.11658478" lon="-19.71507263"><ele>254.6</ele><time>2012-07-21T15:06:44.0000000+00:00</time></trkpt><trkpt lat="64.116539" lon="-19.71493721"><ele>254.6</ele><time>2012-07-21T15:06:49.0000000+00:00</time></trkpt><trkpt lat="64.11647034" lon="-19.71492386"><ele>254.4</ele><time>2012-07-21T15:06:54.0000000+00:00</time></trkpt><trkpt lat="64.1164093" lon="-19.71499825"><ele>254.4</ele><time>2012-07-21T15:06:59.0000000+00:00</time></trkpt><trkpt lat="64.1163559" lon="-19.71508598"><ele>254.0</ele><time>2012-07-21T15:07:04.0000000+00:00</time></trkpt><trkpt lat="64.11629486" lon="-19.71519089"><ele>253.9</ele><time>2012-07-21T15:07:09.0000000+00:00</time></trkpt><trkpt lat="64.11623383" lon="-19.71528626"><ele>253.9</ele><time>2012-07-21T15:07:14.0000000+00:00</time></trkpt><trkpt lat="64.11618805" lon="-19.71537209"><ele>253.9</ele><time>2012-07-21T15:07:19.0000000+00:00</time></trkpt><trkpt lat="64.11611939" lon="-19.71548462"><ele>253.5</ele><time>2012-07-21T15:07:24.0000000+00:00</time></trkpt><trkpt lat="64.1160202" lon="-19.71561241"><ele>253.0</ele><time>2012-07-21T15:07:29.0000000+00:00</time></trkpt><trkpt lat="64.11591339" lon="-19.71577644"><ele>252.4</ele><time>2012-07-21T15:07:34.0000000+00:00</time></trkpt><trkpt lat="64.11579132" lon="-19.71594429"><ele>251.4</ele><time>2012-07-21T15:07:39.0000000+00:00</time></trkpt><trkpt lat="64.11566925" lon="-19.71613693"><ele>251.0</ele><time>2012-07-21T15:07:44.0000000+00:00</time></trkpt><trkpt lat="64.11555481" lon="-19.71630669"><ele>251.0</ele><time>2012-07-21T15:07:49.0000000+00:00</time></trkpt><trkpt lat="64.115448" lon="-19.7164917"><ele>250.9</ele><time>2012-07-21T15:07:54.0000000+00:00</time></trkpt><trkpt lat="64.11532593" lon="-19.71668625"><ele>250.8</ele><time>2012-07-21T15:07:59.0000000+00:00</time></trkpt><trkpt lat="64.1151886" lon="-19.71687698"><ele>250.1</ele><time>2012-07-21T15:08:04.0000000+00:00</time></trkpt><trkpt lat="64.1150589" lon="-19.71708107"><ele>249.8</ele><time>2012-07-21T15:08:09.0000000+00:00</time></trkpt><trkpt lat="64.11491394" lon="-19.71727753"><ele>249.1</ele><time>2012-07-21T15:08:14.0000000+00:00</time></trkpt><trkpt lat="64.11476898" lon="-19.71749687"><ele>248.9</ele><time>2012-07-21T15:08:19.0000000+00:00</time></trkpt><trkpt lat="64.11462402" lon="-19.7177124"><ele>248.4</ele><time>2012-07-21T15:08:24.0000000+00:00</time></trkpt><trkpt lat="64.11447907" lon="-19.71791077"><ele>247.6</ele><time>2012-07-21T15:08:29.0000000+00:00</time></trkpt><trkpt lat="64.114357" lon="-19.71809578"><ele>247.4</ele><time>2012-07-21T15:08:34.0000000+00:00</time></trkpt><trkpt lat="64.11421967" lon="-19.71829987"><ele>246.7</ele><time>2012-07-21T15:08:39.0000000+00:00</time></trkpt><trkpt lat="64.11407471" lon="-19.71852303"><ele>246.2</ele><time>2012-07-21T15:08:44.0000000+00:00</time></trkpt><trkpt lat="64.11392212" lon="-19.71874809"><ele>246.8</ele><time>2012-07-21T15:08:49.0000000+00:00</time></trkpt><trkpt lat="64.11378479" lon="-19.71895599"><ele>246.8</ele><time>2012-07-21T15:08:54.0000000+00:00</time></trkpt><trkpt lat="64.11363983" lon="-19.71917343"><ele>247.0</ele><time>2012-07-21T15:08:59.0000000+00:00</time></trkpt><trkpt lat="64.11348724" lon="-19.71941567"><ele>247.1</ele><time>2012-07-21T15:09:04.0000000+00:00</time></trkpt><trkpt lat="64.1133194" lon="-19.71965218"><ele>247.1</ele><time>2012-07-21T15:09:09.0000000+00:00</time></trkpt><trkpt lat="64.11315918" lon="-19.7198925"><ele>247.3</ele><time>2012-07-21T15:09:14.0000000+00:00</time></trkpt><trkpt lat="64.11299133" lon="-19.72014809"><ele>247.4</ele><time>2012-07-21T15:09:19.0000000+00:00</time></trkpt><trkpt lat="64.11283875" lon="-19.72039223"><ele>247.4</ele><time>2012-07-21T15:09:24.0000000+00:00</time></trkpt><trkpt lat="64.1126709" lon="-19.72064209"><ele>247.3</ele><time>2012-07-21T15:09:29.0000000+00:00</time></trkpt><trkpt lat="64.11250305" lon="-19.72090149"><ele>247.1</ele><time>2012-07-21T15:09:34.0000000+00:00</time></trkpt><trkpt lat="64.11231995" lon="-19.72117424"><ele>247.2</ele><time>2012-07-21T15:09:39.0000000+00:00</time></trkpt><trkpt lat="64.11214447" lon="-19.72143173"><ele>247.0</ele><time>2012-07-21T15:09:44.0000000+00:00</time></trkpt><trkpt lat="64.11204529" lon="-19.72161102"><ele>246.3</ele><time>2012-07-21T15:09:49.0000000+00:00</time></trkpt><trkpt lat="64.11203766" lon="-19.72161102"><ele>246.2</ele><time>2012-07-21T15:09:54.0000000+00:00</time></trkpt><trkpt lat="64.11203766" lon="-19.72160912"><ele>246.1</ele><time>2012-07-21T15:09:59.0000000+00:00</time></trkpt><trkpt lat="64.11203766" lon="-19.72160912"><ele>246.1</ele><time>2012-07-21T15:10:04.0000000+00:00</time></trkpt><trkpt lat="64.11201477" lon="-19.72162628"><ele>246.1</ele><time>2012-07-21T15:10:09.0000000+00:00</time></trkpt><trkpt lat="64.11192322" lon="-19.72173882"><ele>245.8</ele><time>2012-07-21T15:10:14.0000000+00:00</time></trkpt><trkpt lat="64.11178589" lon="-19.72195244"><ele>245.5</ele><time>2012-07-21T15:10:19.0000000+00:00</time></trkpt><trkpt lat="64.1116333" lon="-19.72218514"><ele>246.2</ele><time>2012-07-21T15:10:24.0000000+00:00</time></trkpt><trkpt lat="64.11148834" lon="-19.72239494"><ele>246.3</ele><time>2012-07-21T15:10:29.0000000+00:00</time></trkpt><trkpt lat="64.11134338" lon="-19.72262001"><ele>246.2</ele><time>2012-07-21T15:10:34.0000000+00:00</time></trkpt><trkpt lat="64.11118317" lon="-19.72286606"><ele>246.0</ele><time>2012-07-21T15:10:39.0000000+00:00</time></trkpt><trkpt lat="64.11100769" lon="-19.72311974"><ele>245.8</ele><time>2012-07-21T15:10:44.0000000+00:00</time></trkpt><trkpt lat="64.11083221" lon="-19.72337151"><ele>245.5</ele><time>2012-07-21T15:10:49.0000000+00:00</time></trkpt><trkpt lat="64.11064911" lon="-19.72363281"><ele>245.2</ele><time>2012-07-21T15:10:54.0000000+00:00</time></trkpt><trkpt lat="64.11048126" lon="-19.72387886"><ele>245.3</ele><time>2012-07-21T15:10:59.0000000+00:00</time></trkpt><trkpt lat="64.11031342" lon="-19.72413254"><ele>245.3</ele><time>2012-07-21T15:11:04.0000000+00:00</time></trkpt><trkpt lat="64.11013031" lon="-19.72439385"><ele>245.0</ele><time>2012-07-21T15:11:09.0000000+00:00</time></trkpt><trkpt lat="64.10996246" lon="-19.72465515"><ele>244.9</ele><time>2012-07-21T15:11:14.0000000+00:00</time></trkpt><trkpt lat="64.10978699" lon="-19.72491264"><ele>244.7</ele><time>2012-07-21T15:11:19.0000000+00:00</time></trkpt><trkpt lat="64.10962677" lon="-19.72517204"><ele>244.8</ele><time>2012-07-21T15:11:24.0000000+00:00</time></trkpt><trkpt lat="64.10946655" lon="-19.72541428"><ele>244.5</ele><time>2012-07-21T15:11:29.0000000+00:00</time></trkpt><trkpt lat="64.10929871" lon="-19.72568512"><ele>245.2</ele><time>2012-07-21T15:11:34.0000000+00:00</time></trkpt><trkpt lat="64.1091156" lon="-19.72594643"><ele>245.0</ele><time>2012-07-21T15:11:39.0000000+00:00</time></trkpt><trkpt lat="64.10894775" lon="-19.72619057"><ele>245.0</ele><time>2012-07-21T15:11:44.0000000+00:00</time></trkpt><trkpt lat="64.10877991" lon="-19.72644997"><ele>244.8</ele><time>2012-07-21T15:11:49.0000000+00:00</time></trkpt><trkpt lat="64.10861206" lon="-19.72669029"><ele>244.6</ele><time>2012-07-21T15:11:54.0000000+00:00</time></trkpt><trkpt lat="64.10845184" lon="-19.72693634"><ele>244.4</ele><time>2012-07-21T15:11:59.0000000+00:00</time></trkpt><trkpt lat="64.10827637" lon="-19.72717857"><ele>244.3</ele><time>2012-07-21T15:12:04.0000000+00:00</time></trkpt><trkpt lat="64.10811615" lon="-19.7274437"><ele>245.1</ele><time>2012-07-21T15:12:09.0000000+00:00</time></trkpt><trkpt lat="64.10794067" lon="-19.72771072"><ele>245.4</ele><time>2012-07-21T15:12:14.0000000+00:00</time></trkpt><trkpt lat="64.10777283" lon="-19.72795296"><ele>245.2</ele><time>2012-07-21T15:12:19.0000000+00:00</time></trkpt><trkpt lat="64.10760498" lon="-19.72820091"><ele>245.8</ele><time>2012-07-21T15:12:24.0000000+00:00</time></trkpt><trkpt lat="64.10743713" lon="-19.7284565"><ele>245.8</ele><time>2012-07-21T15:12:29.0000000+00:00</time></trkpt><trkpt lat="64.10727692" lon="-19.72869873"><ele>245.7</ele><time>2012-07-21T15:12:34.0000000+00:00</time></trkpt><trkpt lat="64.10710907" lon="-19.72894669"><ele>245.2</ele><time>2012-07-21T15:12:39.0000000+00:00</time></trkpt><trkpt lat="64.10693359" lon="-19.72920418"><ele>244.7</ele><time>2012-07-21T15:12:44.0000000+00:00</time></trkpt><trkpt lat="64.10676575" lon="-19.72944641"><ele>244.0</ele><time>2012-07-21T15:12:49.0000000+00:00</time></trkpt><trkpt lat="64.1065979" lon="-19.72969818"><ele>243.8</ele><time>2012-07-21T15:12:54.0000000+00:00</time></trkpt><trkpt lat="64.10643768" lon="-19.72993469"><ele>243.9</ele><time>2012-07-21T15:12:59.0000000+00:00</time></trkpt><trkpt lat="64.1062851" lon="-19.73018074"><ele>244.8</ele><time>2012-07-21T15:13:04.0000000+00:00</time></trkpt><trkpt lat="64.10613251" lon="-19.73040962"><ele>244.6</ele><time>2012-07-21T15:13:09.0000000+00:00</time></trkpt><trkpt lat="64.10597992" lon="-19.73061943"><ele>243.5</ele><time>2012-07-21T15:13:14.0000000+00:00</time></trkpt><trkpt lat="64.1058197" lon="-19.73085785"><ele>243.4</ele><time>2012-07-21T15:13:19.0000000+00:00</time></trkpt><trkpt lat="64.10566711" lon="-19.73108673"><ele>243.4</ele><time>2012-07-21T15:13:24.0000000+00:00</time></trkpt><trkpt lat="64.10551453" lon="-19.73133087"><ele>243.5</ele><time>2012-07-21T15:13:29.0000000+00:00</time></trkpt><trkpt lat="64.10533905" lon="-19.73156738"><ele>243.2</ele><time>2012-07-21T15:13:34.0000000+00:00</time></trkpt><trkpt lat="64.10516357" lon="-19.73183823"><ele>243.0</ele><time>2012-07-21T15:13:39.0000000+00:00</time></trkpt><trkpt lat="64.10500336" lon="-19.73209572"><ele>243.1</ele><time>2012-07-21T15:13:44.0000000+00:00</time></trkpt><trkpt lat="64.10482025" lon="-19.73233604"><ele>242.9</ele><time>2012-07-21T15:13:49.0000000+00:00</time></trkpt><trkpt lat="64.10466003" lon="-19.73261452"><ele>243.4</ele><time>2012-07-21T15:13:54.0000000+00:00</time></trkpt><trkpt lat="64.10449219" lon="-19.73284531"><ele>242.2</ele><time>2012-07-21T15:13:59.0000000+00:00</time></trkpt><trkpt lat="64.10434723" lon="-19.73308182"><ele>242.8</ele><time>2012-07-21T15:14:04.0000000+00:00</time></trkpt><trkpt lat="64.10418701" lon="-19.73331451"><ele>242.9</ele><time>2012-07-21T15:14:09.0000000+00:00</time></trkpt><trkpt lat="64.10401154" lon="-19.73353958"><ele>243.6</ele><time>2012-07-21T15:14:14.0000000+00:00</time></trkpt><trkpt lat="64.10385895" lon="-19.73376656"><ele>244.5</ele><time>2012-07-21T15:14:19.0000000+00:00</time></trkpt><trkpt lat="64.10370636" lon="-19.73400116"><ele>245.6</ele><time>2012-07-21T15:14:24.0000000+00:00</time></trkpt><trkpt lat="64.10356903" lon="-19.73420334"><ele>246.1</ele><time>2012-07-21T15:14:29.0000000+00:00</time></trkpt><trkpt lat="64.1034317" lon="-19.7344017"><ele>245.9</ele><time>2012-07-21T15:14:34.0000000+00:00</time></trkpt><trkpt lat="64.10328674" lon="-19.73459053"><ele>246.9</ele><time>2012-07-21T15:14:39.0000000+00:00</time></trkpt><trkpt lat="64.10314179" lon="-19.73479462"><ele>246.1</ele><time>2012-07-21T15:14:44.0000000+00:00</time></trkpt><trkpt lat="64.1029892" lon="-19.73502541"><ele>245.3</ele><time>2012-07-21T15:14:49.0000000+00:00</time></trkpt><trkpt lat="64.1028595" lon="-19.73525047"><ele>245.8</ele><time>2012-07-21T15:14:54.0000000+00:00</time></trkpt><trkpt lat="64.1027298" lon="-19.73546982"><ele>245.3</ele><time>2012-07-21T15:14:59.0000000+00:00</time></trkpt><trkpt lat="64.1026001" lon="-19.73568535"><ele>245.5</ele><time>2012-07-21T15:15:04.0000000+00:00</time></trkpt><trkpt lat="64.10250092" lon="-19.73583221"><ele>244.7</ele><time>2012-07-21T15:15:09.0000000+00:00</time></trkpt><trkpt lat="64.10237885" lon="-19.7359848"><ele>244.5</ele><time>2012-07-21T15:15:14.0000000+00:00</time></trkpt><trkpt lat="64.10224152" lon="-19.73622513"><ele>244.2</ele><time>2012-07-21T15:15:19.0000000+00:00</time></trkpt><trkpt lat="64.10209656" lon="-19.73643684"><ele>243.8</ele><time>2012-07-21T15:15:24.0000000+00:00</time></trkpt><trkpt lat="64.10195923" lon="-19.73665428"><ele>244.3</ele><time>2012-07-21T15:15:29.0000000+00:00</time></trkpt><trkpt lat="64.10179901" lon="-19.73688126"><ele>243.9</ele><time>2012-07-21T15:15:34.0000000+00:00</time></trkpt><trkpt lat="64.10165405" lon="-19.73710442"><ele>243.8</ele><time>2012-07-21T15:15:39.0000000+00:00</time></trkpt><trkpt lat="64.10150147" lon="-19.73731232"><ele>243.3</ele><time>2012-07-21T15:15:44.0000000+00:00</time></trkpt><trkpt lat="64.10135651" lon="-19.73755264"><ele>243.6</ele><time>2012-07-21T15:15:49.0000000+00:00</time></trkpt><trkpt lat="64.10121155" lon="-19.73776817"><ele>243.4</ele><time>2012-07-21T15:15:54.0000000+00:00</time></trkpt><trkpt lat="64.1010437" lon="-19.73799515"><ele>243.3</ele><time>2012-07-21T15:15:59.0000000+00:00</time></trkpt><trkpt lat="64.10089111" lon="-19.73822594"><ele>243.6</ele><time>2012-07-21T15:16:04.0000000+00:00</time></trkpt><trkpt lat="64.10075378" lon="-19.73844338"><ele>243.9</ele><time>2012-07-21T15:16:09.0000000+00:00</time></trkpt><trkpt lat="64.10059357" lon="-19.73868179"><ele>244.2</ele><time>2012-07-21T15:16:14.0000000+00:00</time></trkpt><trkpt lat="64.10043335" lon="-19.7389183"><ele>244.1</ele><time>2012-07-21T15:16:19.0000000+00:00</time></trkpt><trkpt lat="64.10027313" lon="-19.73916626"><ele>244.3</ele><time>2012-07-21T15:16:24.0000000+00:00</time></trkpt><trkpt lat="64.10012817" lon="-19.73938561"><ele>244.4</ele><time>2012-07-21T15:16:29.0000000+00:00</time></trkpt><trkpt lat="64.09998322" lon="-19.73961449"><ele>244.8</ele><time>2012-07-21T15:16:34.0000000+00:00</time></trkpt><trkpt lat="64.099823" lon="-19.73984146"><ele>245.2</ele><time>2012-07-21T15:16:39.0000000+00:00</time></trkpt><trkpt lat="64.09967041" lon="-19.74008942"><ele>245.4</ele><time>2012-07-21T15:16:44.0000000+00:00</time></trkpt><trkpt lat="64.09951019" lon="-19.74033165"><ele>245.4</ele><time>2012-07-21T15:16:49.0000000+00:00</time></trkpt><trkpt lat="64.09932709" lon="-19.74058342"><ele>245.1</ele><time>2012-07-21T15:16:54.0000000+00:00</time></trkpt><trkpt lat="64.09915161" lon="-19.74083519"><ele>244.6</ele><time>2012-07-21T15:16:59.0000000+00:00</time></trkpt><trkpt lat="64.09897614" lon="-19.74110222"><ele>244.5</ele><time>2012-07-21T15:17:04.0000000+00:00</time></trkpt><trkpt lat="64.09879303" lon="-19.74137306"><ele>244.2</ele><time>2012-07-21T15:17:09.0000000+00:00</time></trkpt><trkpt lat="64.09860992" lon="-19.74164009"><ele>244.4</ele><time>2012-07-21T15:17:14.0000000+00:00</time></trkpt><trkpt lat="64.09841156" lon="-19.74192047"><ele>244.7</ele><time>2012-07-21T15:17:19.0000000+00:00</time></trkpt><trkpt lat="64.09823608" lon="-19.74216652"><ele>244.7</ele><time>2012-07-21T15:17:24.0000000+00:00</time></trkpt><trkpt lat="64.09806824" lon="-19.74240494"><ele>245.3</ele><time>2012-07-21T15:17:29.0000000+00:00</time></trkpt><trkpt lat="64.09786987" lon="-19.74265671"><ele>245.2</ele><time>2012-07-21T15:17:34.0000000+00:00</time></trkpt><trkpt lat="64.09767151" lon="-19.74289322"><ele>244.5</ele><time>2012-07-21T15:17:39.0000000+00:00</time></trkpt><trkpt lat="64.097435" lon="-19.74313545"><ele>244.7</ele><time>2012-07-21T15:17:44.0000000+00:00</time></trkpt><trkpt lat="64.09722138" lon="-19.74336433"><ele>244.3</ele><time>2012-07-21T15:17:49.0000000+00:00</time></trkpt><trkpt lat="64.09703827" lon="-19.74356842"><ele>244.7</ele><time>2012-07-21T15:17:54.0000000+00:00</time></trkpt><trkpt lat="64.09683991" lon="-19.74377441"><ele>244.9</ele><time>2012-07-21T15:17:59.0000000+00:00</time></trkpt><trkpt lat="64.09662628" lon="-19.74396896"><ele>243.5</ele><time>2012-07-21T15:18:04.0000000+00:00</time></trkpt><trkpt lat="64.0963974" lon="-19.74419403"><ele>243.1</ele><time>2012-07-21T15:18:09.0000000+00:00</time></trkpt><trkpt lat="64.09616852" lon="-19.74441528"><ele>242.8</ele><time>2012-07-21T15:18:14.0000000+00:00</time></trkpt><trkpt lat="64.09592438" lon="-19.74461365"><ele>241.1</ele><time>2012-07-21T15:18:19.0000000+00:00</time></trkpt><trkpt lat="64.09566498" lon="-19.74483109"><ele>239.9</ele><time>2012-07-21T15:18:24.0000000+00:00</time></trkpt><trkpt lat="64.09544373" lon="-19.74502754"><ele>237.8</ele><time>2012-07-21T15:18:29.0000000+00:00</time></trkpt><trkpt lat="64.09522247" lon="-19.74520874"><ele>237.5</ele><time>2012-07-21T15:18:34.0000000+00:00</time></trkpt><trkpt lat="64.09499359" lon="-19.74538612"><ele>237.3</ele><time>2012-07-21T15:18:39.0000000+00:00</time></trkpt><trkpt lat="64.09477234" lon="-19.74557114"><ele>237.0</ele><time>2012-07-21T15:18:44.0000000+00:00</time></trkpt><trkpt lat="64.09460449" lon="-19.74573135"><ele>237.4</ele><time>2012-07-21T15:18:49.0000000+00:00</time></trkpt><trkpt lat="64.09445953" lon="-19.7458458"><ele>237.5</ele><time>2012-07-21T15:18:54.0000000+00:00</time></trkpt><trkpt lat="64.09430695" lon="-19.74597931"><ele>236.7</ele><time>2012-07-21T15:18:59.0000000+00:00</time></trkpt><trkpt lat="64.09417725" lon="-19.74608421"><ele>235.8</ele><time>2012-07-21T15:19:04.0000000+00:00</time></trkpt><trkpt lat="64.09403229" lon="-19.74623299"><ele>236.3</ele><time>2012-07-21T15:19:09.0000000+00:00</time></trkpt><trkpt lat="64.09386444" lon="-19.74637222"><ele>236.3</ele><time>2012-07-21T15:19:14.0000000+00:00</time></trkpt><trkpt lat="64.09369659" lon="-19.7465229"><ele>236.6</ele><time>2012-07-21T15:19:19.0000000+00:00</time></trkpt><trkpt lat="64.09350586" lon="-19.74668884"><ele>237.8</ele><time>2012-07-21T15:19:24.0000000+00:00</time></trkpt><trkpt lat="64.0933075" lon="-19.74687195"><ele>237.3</ele><time>2012-07-21T15:19:29.0000000+00:00</time></trkpt><trkpt lat="64.0931015" lon="-19.74706078"><ele>236.7</ele><time>2012-07-21T15:19:34.0000000+00:00</time></trkpt><trkpt lat="64.09293366" lon="-19.74723053"><ele>236.0</ele><time>2012-07-21T15:19:39.0000000+00:00</time></trkpt><trkpt lat="64.09275055" lon="-19.74738884"><ele>235.9</ele><time>2012-07-21T15:19:44.0000000+00:00</time></trkpt><trkpt lat="64.09257507" lon="-19.74754715"><ele>235.6</ele><time>2012-07-21T15:19:49.0000000+00:00</time></trkpt><trkpt lat="64.09243012" lon="-19.74767685"><ele>235.4</ele><time>2012-07-21T15:19:54.0000000+00:00</time></trkpt><trkpt lat="64.09231567" lon="-19.74774742"><ele>235.3</ele><time>2012-07-21T15:19:59.0000000+00:00</time></trkpt><trkpt lat="64.09226227" lon="-19.74767113"><ele>234.8</ele><time>2012-07-21T15:20:04.0000000+00:00</time></trkpt><trkpt lat="64.09223938" lon="-19.74736786"><ele>234.2</ele><time>2012-07-21T15:20:09.0000000+00:00</time></trkpt><trkpt lat="64.0922699" lon="-19.74707222"><ele>233.5</ele><time>2012-07-21T15:20:14.0000000+00:00</time></trkpt><trkpt lat="64.09228516" lon="-19.74685288"><ele>231.0</ele><time>2012-07-21T15:20:19.0000000+00:00</time></trkpt><trkpt lat="64.09227753" lon="-19.74662972"><ele>231.1</ele><time>2012-07-21T15:20:24.0000000+00:00</time></trkpt><trkpt lat="64.0922699" lon="-19.74658012"><ele>231.7</ele><time>2012-07-21T15:20:29.0000000+00:00</time></trkpt><trkpt lat="64.0922699" lon="-19.74656296"><ele>231.7</ele><time>2012-07-21T15:20:34.0000000+00:00</time></trkpt><trkpt lat="64.09226227" lon="-19.74654198"><ele>231.6</ele><time>2012-07-21T15:20:39.0000000+00:00</time></trkpt><trkpt lat="64.0922699" lon="-19.74654388"><ele>231.7</ele><time>2012-07-21T15:20:44.0000000+00:00</time></trkpt><trkpt lat="64.0922699" lon="-19.74650574"><ele>231.5</ele><time>2012-07-21T15:20:49.0000000+00:00</time></trkpt><trkpt lat="64.09228516" lon="-19.74646187"><ele>231.2</ele><time>2012-07-21T15:20:54.0000000+00:00</time></trkpt><trkpt lat="64.09228516" lon="-19.74646187"><ele>231.1</ele><time>2012-07-21T15:20:59.0000000+00:00</time></trkpt><trkpt lat="64.09228516" lon="-19.74646187"><ele>231.1</ele><time>2012-07-21T15:21:04.0000000+00:00</time></trkpt><trkpt lat="64.09228516" lon="-19.74646187"><ele>231.1</ele><time>2012-07-21T15:21:09.0000000+00:00</time></trkpt><trkpt lat="64.09228516" lon="-19.74645996"><ele>231.1</ele><time>2012-07-21T15:21:14.0000000+00:00</time></trkpt><trkpt lat="64.09228516" lon="-19.74645996"><ele>231.1</ele><time>2012-07-21T15:21:19.0000000+00:00</time></trkpt><trkpt lat="64.09228516" lon="-19.74645996"><ele>231.1</ele><time>2012-07-21T15:21:24.0000000+00:00</time></trkpt><trkpt lat="64.09228516" lon="-19.74645996"><ele>231.1</ele><time>2012-07-21T15:21:29.0000000+00:00</time></trkpt><trkpt lat="64.09228516" lon="-19.74645996"><ele>231.1</ele><time>2012-07-21T15:21:34.0000000+00:00</time></trkpt><trkpt lat="64.09228516" lon="-19.74645996"><ele>231.1</ele><time>2012-07-21T15:21:39.0000000+00:00</time></trkpt><trkpt lat="64.09228516" lon="-19.74645996"><ele>231.1</ele><time>2012-07-21T15:21:44.0000000+00:00</time></trkpt><trkpt lat="64.09228516" lon="-19.74645996"><ele>231.1</ele><time>2012-07-21T15:21:49.0000000+00:00</time></trkpt><trkpt lat="64.09228516" lon="-19.74645996"><ele>231.1</ele><time>2012-07-21T15:21:54.0000000+00:00</time></trkpt><trkpt lat="64.09228516" lon="-19.74645996"><ele>231.1</ele><time>2012-07-21T15:21:59.0000000+00:00</time></trkpt><trkpt lat="64.09228516" lon="-19.74645996"><ele>231.1</ele><time>2012-07-21T15:22:04.0000000+00:00</time></trkpt><trkpt lat="64.09228516" lon="-19.74645805"><ele>231.1</ele><time>2012-07-21T15:22:09.0000000+00:00</time></trkpt><trkpt lat="64.09228516" lon="-19.74645805"><ele>231.1</ele><time>2012-07-21T15:22:14.0000000+00:00</time></trkpt><trkpt lat="64.09228516" lon="-19.74645805"><ele>231.1</ele><time>2012-07-21T15:22:19.0000000+00:00</time></trkpt><trkpt lat="64.09228516" lon="-19.74645805"><ele>231.1</ele><time>2012-07-21T15:22:24.0000000+00:00</time></trkpt><trkpt lat="64.09228516" lon="-19.74645805"><ele>231.1</ele><time>2012-07-21T15:22:29.0000000+00:00</time></trkpt><trkpt lat="64.09228516" lon="-19.74645805"><ele>231.1</ele><time>2012-07-21T15:22:34.0000000+00:00</time></trkpt><trkpt lat="64.09228516" lon="-19.74645805"><ele>231.1</ele><time>2012-07-21T15:22:39.0000000+00:00</time></trkpt><trkpt lat="64.09228516" lon="-19.74645805"><ele>231.1</ele><time>2012-07-21T15:22:44.0000000+00:00</time></trkpt><trkpt lat="64.09228516" lon="-19.74645805"><ele>231.1</ele><time>2012-07-21T15:22:49.0000000+00:00</time></trkpt><trkpt lat="64.09228516" lon="-19.74645805"><ele>231.1</ele><time>2012-07-21T15:22:54.0000000+00:00</time></trkpt><trkpt lat="64.09228516" lon="-19.74645805"><ele>231.1</ele><time>2012-07-21T15:22:59.0000000+00:00</time></trkpt><trkpt lat="64.09228516" lon="-19.74645805"><ele>231.1</ele><time>2012-07-21T15:23:04.0000000+00:00</time></trkpt><trkpt lat="64.09228516" lon="-19.74645805"><ele>231.1</ele><time>2012-07-21T15:23:09.0000000+00:00</time></trkpt><trkpt lat="64.09228516" lon="-19.74645805"><ele>231.1</ele><time>2012-07-21T15:23:14.0000000+00:00</time></trkpt><trkpt lat="64.09228516" lon="-19.74645805"><ele>231.1</ele><time>2012-07-21T15:23:19.0000000+00:00</time></trkpt><trkpt lat="64.09228516" lon="-19.74645805"><ele>231.1</ele><time>2012-07-21T15:23:24.0000000+00:00</time></trkpt><trkpt lat="64.09228516" lon="-19.74645805"><ele>231.1</ele><time>2012-07-21T15:23:29.0000000+00:00</time></trkpt><trkpt lat="64.09228516" lon="-19.74645805"><ele>231.1</ele><time>2012-07-21T15:23:34.0000000+00:00</time></trkpt><trkpt lat="64.09228516" lon="-19.74645805"><ele>231.1</ele><time>2012-07-21T15:23:39.0000000+00:00</time></trkpt><trkpt lat="64.09228516" lon="-19.74645615"><ele>231.1</ele><time>2012-07-21T15:23:44.0000000+00:00</time></trkpt><trkpt lat="64.09228516" lon="-19.74645615"><ele>231.1</ele><time>2012-07-21T15:23:49.0000000+00:00</time></trkpt><trkpt lat="64.09228516" lon="-19.74645615"><ele>231.1</ele><time>2012-07-21T15:23:54.0000000+00:00</time></trkpt><trkpt lat="64.09228516" lon="-19.74645615"><ele>231.1</ele><time>2012-07-21T15:23:59.0000000+00:00</time></trkpt><trkpt lat="64.09228516" lon="-19.74645615"><ele>231.1</ele><time>2012-07-21T15:24:04.0000000+00:00</time></trkpt><trkpt lat="64.09228516" lon="-19.74645615"><ele>231.1</ele><time>2012-07-21T15:24:09.0000000+00:00</time></trkpt><trkpt lat="64.09228516" lon="-19.74645615"><ele>231.1</ele><time>2012-07-21T15:24:14.0000000+00:00</time></trkpt><trkpt lat="64.09228516" lon="-19.74645615"><ele>231.1</ele><time>2012-07-21T15:24:19.0000000+00:00</time></trkpt><trkpt lat="64.09228516" lon="-19.74645615"><ele>231.1</ele><time>2012-07-21T15:24:24.0000000+00:00</time></trkpt><trkpt lat="64.09228516" lon="-19.74645615"><ele>231.1</ele><time>2012-07-21T15:24:29.0000000+00:00</time></trkpt><trkpt lat="64.09228516" lon="-19.74645615"><ele>231.1</ele><time>2012-07-21T15:24:34.0000000+00:00</time></trkpt><trkpt lat="64.09228516" lon="-19.74645615"><ele>231.1</ele><time>2012-07-21T15:24:39.0000000+00:00</time></trkpt><trkpt lat="64.09228516" lon="-19.74645615"><ele>231.1</ele><time>2012-07-21T15:24:44.0000000+00:00</time></trkpt><trkpt lat="64.09228516" lon="-19.74645615"><ele>231.1</ele><time>2012-07-21T15:24:49.0000000+00:00</time></trkpt><trkpt lat="64.09228516" lon="-19.74645615"><ele>231.1</ele><time>2012-07-21T15:24:54.0000000+00:00</time></trkpt><trkpt lat="64.09228516" lon="-19.74645615"><ele>231.1</ele><time>2012-07-21T15:24:59.0000000+00:00</time></trkpt><trkpt lat="64.09228516" lon="-19.74645615"><ele>231.1</ele><time>2012-07-21T15:25:04.0000000+00:00</time></trkpt><trkpt lat="64.09228516" lon="-19.74645615"><ele>231.1</ele><time>2012-07-21T15:25:09.0000000+00:00</time></trkpt><trkpt lat="64.09228516" lon="-19.74645615"><ele>231.1</ele><time>2012-07-21T15:25:14.0000000+00:00</time></trkpt><trkpt lat="64.09228516" lon="-19.74645615"><ele>231.1</ele><time>2012-07-21T15:25:19.0000000+00:00</time></trkpt><trkpt lat="64.09228516" lon="-19.74645615"><ele>231.1</ele><time>2012-07-21T15:25:24.0000000+00:00</time></trkpt><trkpt lat="64.09228516" lon="-19.74645615"><ele>231.1</ele><time>2012-07-21T15:25:29.0000000+00:00</time></trkpt><trkpt lat="64.09228516" lon="-19.74645615"><ele>231.1</ele><time>2012-07-21T15:25:34.0000000+00:00</time></trkpt><trkpt lat="64.09228516" lon="-19.74645615"><ele>231.1</ele><time>2012-07-21T15:25:39.0000000+00:00</time></trkpt><trkpt lat="64.09228516" lon="-19.74645615"><ele>231.1</ele><time>2012-07-21T15:25:44.0000000+00:00</time></trkpt><trkpt lat="64.09228516" lon="-19.74645615"><ele>231.1</ele><time>2012-07-21T15:25:49.0000000+00:00</time></trkpt><trkpt lat="64.09228516" lon="-19.74645615"><ele>231.1</ele><time>2012-07-21T15:25:54.0000000+00:00</time></trkpt><trkpt lat="64.09228516" lon="-19.74645615"><ele>231.1</ele><time>2012-07-21T15:25:59.0000000+00:00</time></trkpt><trkpt lat="64.09228516" lon="-19.74645615"><ele>231.1</ele><time>2012-07-21T15:26:04.0000000+00:00</time></trkpt><trkpt lat="64.09228516" lon="-19.74645615"><ele>231.1</ele><time>2012-07-21T15:26:09.0000000+00:00</time></trkpt><trkpt lat="64.09228516" lon="-19.74645615"><ele>231.1</ele><time>2012-07-21T15:26:14.0000000+00:00</time></trkpt><trkpt lat="64.09228516" lon="-19.74645615"><ele>231.1</ele><time>2012-07-21T15:26:19.0000000+00:00</time></trkpt><trkpt lat="64.09228516" lon="-19.74645615"><ele>231.1</ele><time>2012-07-21T15:26:24.0000000+00:00</time></trkpt><trkpt lat="64.09228516" lon="-19.74645615"><ele>231.1</ele><time>2012-07-21T15:26:29.0000000+00:00</time></trkpt><trkpt lat="64.09228516" lon="-19.74645615"><ele>231.1</ele><time>2012-07-21T15:26:34.0000000+00:00</time></trkpt><trkpt lat="64.09228516" lon="-19.74645615"><ele>231.1</ele><time>2012-07-21T15:26:39.0000000+00:00</time></trkpt><trkpt lat="64.09228516" lon="-19.74645424"><ele>231.1</ele><time>2012-07-21T15:26:44.0000000+00:00</time></trkpt><trkpt lat="64.09228516" lon="-19.74645424"><ele>231.1</ele><time>2012-07-21T15:26:49.0000000+00:00</time></trkpt><trkpt lat="64.09228516" lon="-19.74645424"><ele>231.1</ele><time>2012-07-21T15:26:54.0000000+00:00</time></trkpt><trkpt lat="64.09228516" lon="-19.74645424"><ele>231.1</ele><time>2012-07-21T15:26:59.0000000+00:00</time></trkpt><trkpt lat="64.09228516" lon="-19.74645424"><ele>231.1</ele><time>2012-07-21T15:27:04.0000000+00:00</time></trkpt><trkpt lat="64.09228516" lon="-19.74645424"><ele>231.1</ele><time>2012-07-21T15:27:09.0000000+00:00</time></trkpt><trkpt lat="64.09228516" lon="-19.74645424"><ele>231.1</ele><time>2012-07-21T15:27:14.0000000+00:00</time></trkpt><trkpt lat="64.09228516" lon="-19.74645424"><ele>231.1</ele><time>2012-07-21T15:27:19.0000000+00:00</time></trkpt><trkpt lat="64.09228516" lon="-19.74645424"><ele>231.1</ele><time>2012-07-21T15:27:24.0000000+00:00</time></trkpt><trkpt lat="64.09228516" lon="-19.74645424"><ele>231.1</ele><time>2012-07-21T15:27:29.0000000+00:00</time></trkpt><trkpt lat="64.09228516" lon="-19.74645424"><ele>231.1</ele><time>2012-07-21T15:27:34.0000000+00:00</time></trkpt><trkpt lat="64.09228516" lon="-19.74645424"><ele>231.1</ele><time>2012-07-21T15:27:39.0000000+00:00</time></trkpt><trkpt lat="64.09228516" lon="-19.74645424"><ele>231.1</ele><time>2012-07-21T15:27:44.0000000+00:00</time></trkpt><trkpt lat="64.09228516" lon="-19.74645424"><ele>231.1</ele><time>2012-07-21T15:27:49.0000000+00:00</time></trkpt><trkpt lat="64.09228516" lon="-19.74645424"><ele>231.1</ele><time>2012-07-21T15:27:54.0000000+00:00</time></trkpt><trkpt lat="64.09228516" lon="-19.74645424"><ele>231.1</ele><time>2012-07-21T15:27:59.0000000+00:00</time></trkpt><trkpt lat="64.09228516" lon="-19.74645424"><ele>231.1</ele><time>2012-07-21T15:28:04.0000000+00:00</time></trkpt><trkpt lat="64.09228516" lon="-19.74645424"><ele>231.1</ele><time>2012-07-21T15:28:09.0000000+00:00</time></trkpt><trkpt lat="64.09228516" lon="-19.74645424"><ele>231.1</ele><time>2012-07-21T15:28:14.0000000+00:00</time></trkpt><trkpt lat="64.09228516" lon="-19.74645424"><ele>231.1</ele><time>2012-07-21T15:28:19.0000000+00:00</time></trkpt><trkpt lat="64.09229279" lon="-19.74645424"><ele>231.1</ele><time>2012-07-21T15:28:24.0000000+00:00</time></trkpt><trkpt lat="64.09229279" lon="-19.74645424"><ele>231.1</ele><time>2012-07-21T15:28:29.0000000+00:00</time></trkpt><trkpt lat="64.09229279" lon="-19.74645424"><ele>231.1</ele><time>2012-07-21T15:28:34.0000000+00:00</time></trkpt><trkpt lat="64.09229279" lon="-19.74645424"><ele>231.1</ele><time>2012-07-21T15:28:39.0000000+00:00</time></trkpt><trkpt lat="64.09229279" lon="-19.74645424"><ele>231.1</ele><time>2012-07-21T15:28:44.0000000+00:00</time></trkpt><trkpt lat="64.09229279" lon="-19.74645233"><ele>231.1</ele><time>2012-07-21T15:28:49.0000000+00:00</time></trkpt><trkpt lat="64.09229279" lon="-19.74645233"><ele>231.1</ele><time>2012-07-21T15:28:54.0000000+00:00</time></trkpt><trkpt lat="64.09229279" lon="-19.74645233"><ele>231.1</ele><time>2012-07-21T15:28:59.0000000+00:00</time></trkpt><trkpt lat="64.09229279" lon="-19.74645233"><ele>231.1</ele><time>2012-07-21T15:29:04.0000000+00:00</time></trkpt><trkpt lat="64.09229279" lon="-19.74645233"><ele>231.1</ele><time>2012-07-21T15:29:09.0000000+00:00</time></trkpt><trkpt lat="64.09229279" lon="-19.74645233"><ele>231.1</ele><time>2012-07-21T15:29:14.0000000+00:00</time></trkpt><trkpt lat="64.09229279" lon="-19.74645233"><ele>231.1</ele><time>2012-07-21T15:29:19.0000000+00:00</time></trkpt><trkpt lat="64.09229279" lon="-19.74645233"><ele>231.1</ele><time>2012-07-21T15:29:24.0000000+00:00</time></trkpt><trkpt lat="64.09229279" lon="-19.74645233"><ele>231.1</ele><time>2012-07-21T15:29:29.0000000+00:00</time></trkpt><trkpt lat="64.09229279" lon="-19.74645233"><ele>231.1</ele><time>2012-07-21T15:29:34.0000000+00:00</time></trkpt><trkpt lat="64.09229279" lon="-19.74645042"><ele>231.1</ele><time>2012-07-21T15:29:39.0000000+00:00</time></trkpt><trkpt lat="64.09229279" lon="-19.74645042"><ele>231.1</ele><time>2012-07-21T15:29:44.0000000+00:00</time></trkpt><trkpt lat="64.09229279" lon="-19.74644661"><ele>231.1</ele><time>2012-07-21T15:29:49.0000000+00:00</time></trkpt><trkpt lat="64.0923233" lon="-19.74642181"><ele>231.0</ele><time>2012-07-21T15:29:54.0000000+00:00</time></trkpt><trkpt lat="64.09233856" lon="-19.74641609"><ele>231.0</ele><time>2012-07-21T15:29:59.0000000+00:00</time></trkpt><trkpt lat="64.09240723" lon="-19.74637413"><ele>231.1</ele><time>2012-07-21T15:30:04.0000000+00:00</time></trkpt><trkpt lat="64.092453" lon="-19.74632645"><ele>231.3</ele><time>2012-07-21T15:30:09.0000000+00:00</time></trkpt><trkpt lat="64.09246826" lon="-19.74629974"><ele>231.2</ele><time>2012-07-21T15:30:14.0000000+00:00</time></trkpt><trkpt lat="64.09249115" lon="-19.74614716"><ele>231.5</ele><time>2012-07-21T15:30:19.0000000+00:00</time></trkpt><trkpt lat="64.09249878" lon="-19.74599838"><ele>231.5</ele><time>2012-07-21T15:30:24.0000000+00:00</time></trkpt><trkpt lat="64.09249878" lon="-19.74580765"><ele>231.7</ele><time>2012-07-21T15:30:29.0000000+00:00</time></trkpt><trkpt lat="64.09249115" lon="-19.74550438"><ele>231.5</ele><time>2012-07-21T15:30:34.0000000+00:00</time></trkpt><trkpt lat="64.09248352" lon="-19.74517059"><ele>232.1</ele><time>2012-07-21T15:30:39.0000000+00:00</time></trkpt><trkpt lat="64.09246826" lon="-19.7448101"><ele>232.5</ele><time>2012-07-21T15:30:44.0000000+00:00</time></trkpt><trkpt lat="64.09246826" lon="-19.74445725"><ele>233.1</ele><time>2012-07-21T15:30:49.0000000+00:00</time></trkpt><trkpt lat="64.09246063" lon="-19.7441082"><ele>233.7</ele><time>2012-07-21T15:30:54.0000000+00:00</time></trkpt><trkpt lat="64.09246063" lon="-19.74378777"><ele>235.6</ele><time>2012-07-21T15:30:59.0000000+00:00</time></trkpt><trkpt lat="64.09246063" lon="-19.74355888"><ele>236.2</ele><time>2012-07-21T15:31:04.0000000+00:00</time></trkpt><trkpt lat="64.09246826" lon="-19.74331093"><ele>236.5</ele><time>2012-07-21T15:31:09.0000000+00:00</time></trkpt><trkpt lat="64.09246826" lon="-19.74305916"><ele>236.5</ele><time>2012-07-21T15:31:14.0000000+00:00</time></trkpt><trkpt lat="64.09246063" lon="-19.74280357"><ele>236.3</ele><time>2012-07-21T15:31:19.0000000+00:00</time></trkpt><trkpt lat="64.092453" lon="-19.74251366"><ele>236.0</ele><time>2012-07-21T15:31:24.0000000+00:00</time></trkpt><trkpt lat="64.092453" lon="-19.74220467"><ele>236.1</ele><time>2012-07-21T15:31:29.0000000+00:00</time></trkpt><trkpt lat="64.09246063" lon="-19.74189377"><ele>236.1</ele><time>2012-07-21T15:31:34.0000000+00:00</time></trkpt><trkpt lat="64.09246826" lon="-19.74159813"><ele>236.8</ele><time>2012-07-21T15:31:39.0000000+00:00</time></trkpt><trkpt lat="64.09246826" lon="-19.74128914"><ele>236.4</ele><time>2012-07-21T15:31:44.0000000+00:00</time></trkpt><trkpt lat="64.09246826" lon="-19.74097824"><ele>237.0</ele><time>2012-07-21T15:31:49.0000000+00:00</time></trkpt><trkpt lat="64.09243012" lon="-19.74066734"><ele>237.0</ele><time>2012-07-21T15:31:54.0000000+00:00</time></trkpt><trkpt lat="64.09239197" lon="-19.74036789"><ele>237.1</ele><time>2012-07-21T15:31:59.0000000+00:00</time></trkpt><trkpt lat="64.09235382" lon="-19.74007225"><ele>237.1</ele><time>2012-07-21T15:32:04.0000000+00:00</time></trkpt><trkpt lat="64.09230042" lon="-19.73978615"><ele>236.6</ele><time>2012-07-21T15:32:09.0000000+00:00</time></trkpt><trkpt lat="64.09225464" lon="-19.73950768"><ele>236.2</ele><time>2012-07-21T15:32:14.0000000+00:00</time></trkpt><trkpt lat="64.09220123" lon="-19.73920822"><ele>236.2</ele><time>2012-07-21T15:32:19.0000000+00:00</time></trkpt><trkpt lat="64.0921402" lon="-19.73890877"><ele>236.5</ele><time>2012-07-21T15:32:24.0000000+00:00</time></trkpt><trkpt lat="64.09209442" lon="-19.7387085"><ele>236.6</ele><time>2012-07-21T15:32:29.0000000+00:00</time></trkpt><trkpt lat="64.09207916" lon="-19.73863792"><ele>236.3</ele><time>2012-07-21T15:32:34.0000000+00:00</time></trkpt><trkpt lat="64.09204102" lon="-19.73838997"><ele>236.4</ele><time>2012-07-21T15:32:39.0000000+00:00</time></trkpt><trkpt lat="64.09199524" lon="-19.73814964"><ele>236.5</ele><time>2012-07-21T15:32:44.0000000+00:00</time></trkpt><trkpt lat="64.0919342" lon="-19.7378788"><ele>236.9</ele><time>2012-07-21T15:32:49.0000000+00:00</time></trkpt><trkpt lat="64.0918808" lon="-19.73760796"><ele>237.3</ele><time>2012-07-21T15:32:54.0000000+00:00</time></trkpt><trkpt lat="64.09183502" lon="-19.73732948"><ele>237.5</ele><time>2012-07-21T15:32:59.0000000+00:00</time></trkpt><trkpt lat="64.09178162" lon="-19.73703384"><ele>237.6</ele><time>2012-07-21T15:33:04.0000000+00:00</time></trkpt><trkpt lat="64.09173584" lon="-19.73675728"><ele>237.9</ele><time>2012-07-21T15:33:09.0000000+00:00</time></trkpt><trkpt lat="64.09168243" lon="-19.73647308"><ele>238.3</ele><time>2012-07-21T15:33:14.0000000+00:00</time></trkpt><trkpt lat="64.0916214" lon="-19.73617554"><ele>238.5</ele><time>2012-07-21T15:33:19.0000000+00:00</time></trkpt><trkpt lat="64.09156799" lon="-19.73587227"><ele>238.6</ele><time>2012-07-21T15:33:24.0000000+00:00</time></trkpt><trkpt lat="64.09149933" lon="-19.73557472"><ele>239.2</ele><time>2012-07-21T15:33:29.0000000+00:00</time></trkpt><trkpt lat="64.09143829" lon="-19.73529244"><ele>239.4</ele><time>2012-07-21T15:33:34.0000000+00:00</time></trkpt><trkpt lat="64.09137726" lon="-19.73501587"><ele>239.3</ele><time>2012-07-21T15:33:39.0000000+00:00</time></trkpt><trkpt lat="64.09132385" lon="-19.73473358"><ele>239.3</ele><time>2012-07-21T15:33:44.0000000+00:00</time></trkpt><trkpt lat="64.09127808" lon="-19.73455048"><ele>239.5</ele><time>2012-07-21T15:33:49.0000000+00:00</time></trkpt><trkpt lat="64.09120941" lon="-19.73428726"><ele>239.3</ele><time>2012-07-21T15:33:54.0000000+00:00</time></trkpt><trkpt lat="64.09114838" lon="-19.73402977"><ele>239.9</ele><time>2012-07-21T15:33:59.0000000+00:00</time></trkpt><trkpt lat="64.09107971" lon="-19.73375702"><ele>240.1</ele><time>2012-07-21T15:34:04.0000000+00:00</time></trkpt><trkpt lat="64.09101868" lon="-19.73347092"><ele>240.5</ele><time>2012-07-21T15:34:09.0000000+00:00</time></trkpt><trkpt lat="64.09095001" lon="-19.73317528"><ele>240.5</ele><time>2012-07-21T15:34:14.0000000+00:00</time></trkpt><trkpt lat="64.09088898" lon="-19.7328701"><ele>240.6</ele><time>2012-07-21T15:34:19.0000000+00:00</time></trkpt><trkpt lat="64.09082031" lon="-19.73256874"><ele>240.7</ele><time>2012-07-21T15:34:24.0000000+00:00</time></trkpt><trkpt lat="64.09075928" lon="-19.73229408"><ele>240.7</ele><time>2012-07-21T15:34:29.0000000+00:00</time></trkpt><trkpt lat="64.09069061" lon="-19.73199844"><ele>240.8</ele><time>2012-07-21T15:34:34.0000000+00:00</time></trkpt><trkpt lat="64.09062195" lon="-19.73170853"><ele>240.9</ele><time>2012-07-21T15:34:39.0000000+00:00</time></trkpt><trkpt lat="64.09055328" lon="-19.7314415"><ele>240.7</ele><time>2012-07-21T15:34:44.0000000+00:00</time></trkpt><trkpt lat="64.09046936" lon="-19.73115921"><ele>240.8</ele><time>2012-07-21T15:34:49.0000000+00:00</time></trkpt><trkpt lat="64.09038544" lon="-19.73085785"><ele>240.9</ele><time>2012-07-21T15:34:54.0000000+00:00</time></trkpt><trkpt lat="64.09030914" lon="-19.73057175"><ele>240.7</ele><time>2012-07-21T15:34:59.0000000+00:00</time></trkpt><trkpt lat="64.09022522" lon="-19.73030663"><ele>240.6</ele><time>2012-07-21T15:35:04.0000000+00:00</time></trkpt><trkpt lat="64.09014893" lon="-19.73003769"><ele>240.5</ele><time>2012-07-21T15:35:09.0000000+00:00</time></trkpt><trkpt lat="64.09005737" lon="-19.72975731"><ele>240.4</ele><time>2012-07-21T15:35:14.0000000+00:00</time></trkpt><trkpt lat="64.08995056" lon="-19.72945213"><ele>240.2</ele><time>2012-07-21T15:35:19.0000000+00:00</time></trkpt><trkpt lat="64.08985901" lon="-19.72916985"><ele>239.9</ele><time>2012-07-21T15:35:24.0000000+00:00</time></trkpt><trkpt lat="64.0897522" lon="-19.7288475"><ele>239.9</ele><time>2012-07-21T15:35:29.0000000+00:00</time></trkpt><trkpt lat="64.08966827" lon="-19.72852707"><ele>239.8</ele><time>2012-07-21T15:35:34.0000000+00:00</time></trkpt><trkpt lat="64.08960724" lon="-19.72815514"><ele>239.1</ele><time>2012-07-21T15:35:39.0000000+00:00</time></trkpt><trkpt lat="64.08956909" lon="-19.72772217"><ele>238.0</ele><time>2012-07-21T15:35:44.0000000+00:00</time></trkpt><trkpt lat="64.08953095" lon="-19.7271843"><ele>236.5</ele><time>2012-07-21T15:35:49.0000000+00:00</time></trkpt><trkpt lat="64.08940888" lon="-19.72654152"><ele>234.4</ele><time>2012-07-21T15:35:54.0000000+00:00</time></trkpt><trkpt lat="64.08927918" lon="-19.72598457"><ele>233.2</ele><time>2012-07-21T15:35:59.0000000+00:00</time></trkpt><trkpt lat="64.08919525" lon="-19.72559929"><ele>233.6</ele><time>2012-07-21T15:36:04.0000000+00:00</time></trkpt><trkpt lat="64.08913422" lon="-19.72523117"><ele>233.7</ele><time>2012-07-21T15:36:09.0000000+00:00</time></trkpt><trkpt lat="64.08908081" lon="-19.72489166"><ele>233.9</ele><time>2012-07-21T15:36:14.0000000+00:00</time></trkpt><trkpt lat="64.08903503" lon="-19.72458267"><ele>234.0</ele><time>2012-07-21T15:36:19.0000000+00:00</time></trkpt><trkpt lat="64.08898926" lon="-19.72430801"><ele>234.2</ele><time>2012-07-21T15:36:24.0000000+00:00</time></trkpt><trkpt lat="64.08895874" lon="-19.72407532"><ele>234.7</ele><time>2012-07-21T15:36:29.0000000+00:00</time></trkpt><trkpt lat="64.08892059" lon="-19.72381401"><ele>235.5</ele><time>2012-07-21T15:36:34.0000000+00:00</time></trkpt><trkpt lat="64.08888245" lon="-19.72353745"><ele>235.8</ele><time>2012-07-21T15:36:39.0000000+00:00</time></trkpt><trkpt lat="64.0888443" lon="-19.72323799"><ele>234.8</ele><time>2012-07-21T15:36:44.0000000+00:00</time></trkpt><trkpt lat="64.08880615" lon="-19.72294617"><ele>235.3</ele><time>2012-07-21T15:36:49.0000000+00:00</time></trkpt><trkpt lat="64.08877564" lon="-19.72267532"><ele>235.6</ele><time>2012-07-21T15:36:54.0000000+00:00</time></trkpt><trkpt lat="64.08874512" lon="-19.72239685"><ele>236.0</ele><time>2012-07-21T15:36:59.0000000+00:00</time></trkpt><trkpt lat="64.08872986" lon="-19.72222519"><ele>236.7</ele><time>2012-07-21T15:37:04.0000000+00:00</time></trkpt><trkpt lat="64.08870697" lon="-19.72201347"><ele>236.7</ele><time>2012-07-21T15:37:09.0000000+00:00</time></trkpt><trkpt lat="64.08868408" lon="-19.72181511"><ele>237.3</ele><time>2012-07-21T15:37:14.0000000+00:00</time></trkpt><trkpt lat="64.08866882" lon="-19.72162247"><ele>237.4</ele><time>2012-07-21T15:37:19.0000000+00:00</time></trkpt><trkpt lat="64.08866119" lon="-19.72145462"><ele>237.4</ele><time>2012-07-21T15:37:24.0000000+00:00</time></trkpt><trkpt lat="64.08863831" lon="-19.72126007"><ele>238.3</ele><time>2012-07-21T15:37:29.0000000+00:00</time></trkpt><trkpt lat="64.08861542" lon="-19.72106361"><ele>238.5</ele><time>2012-07-21T15:37:34.0000000+00:00</time></trkpt><trkpt lat="64.08860016" lon="-19.72089577"><ele>238.5</ele><time>2012-07-21T15:37:39.0000000+00:00</time></trkpt><trkpt lat="64.08860016" lon="-19.7209053"><ele>238.7</ele><time>2012-07-21T15:37:44.0000000+00:00</time></trkpt><trkpt lat="64.08860016" lon="-19.72090721"><ele>238.8</ele><time>2012-07-21T15:37:49.0000000+00:00</time></trkpt><trkpt lat="64.08860016" lon="-19.72090721"><ele>238.8</ele><time>2012-07-21T15:37:54.0000000+00:00</time></trkpt><trkpt lat="64.08860016" lon="-19.72090721"><ele>238.8</ele><time>2012-07-21T15:37:59.0000000+00:00</time></trkpt><trkpt lat="64.0885849" lon="-19.72074509"><ele>238.7</ele><time>2012-07-21T15:38:04.0000000+00:00</time></trkpt><trkpt lat="64.08856201" lon="-19.72047615"><ele>239.1</ele><time>2012-07-21T15:38:09.0000000+00:00</time></trkpt><trkpt lat="64.08853149" lon="-19.72017288"><ele>239.2</ele><time>2012-07-21T15:38:14.0000000+00:00</time></trkpt><trkpt lat="64.08850861" lon="-19.7198658"><ele>239.4</ele><time>2012-07-21T15:38:19.0000000+00:00</time></trkpt><trkpt lat="64.08847809" lon="-19.71953964"><ele>239.8</ele><time>2012-07-21T15:38:24.0000000+00:00</time></trkpt><trkpt lat="64.08843994" lon="-19.71920204"><ele>240.2</ele><time>2012-07-21T15:38:29.0000000+00:00</time></trkpt><trkpt lat="64.08841705" lon="-19.71889114"><ele>240.7</ele><time>2012-07-21T15:38:34.0000000+00:00</time></trkpt><trkpt lat="64.08839417" lon="-19.71861649"><ele>241.3</ele><time>2012-07-21T15:38:39.0000000+00:00</time></trkpt><trkpt lat="64.08835602" lon="-19.71829414"><ele>242.0</ele><time>2012-07-21T15:38:44.0000000+00:00</time></trkpt><trkpt lat="64.0883255" lon="-19.71795273"><ele>242.4</ele><time>2012-07-21T15:38:49.0000000+00:00</time></trkpt><trkpt lat="64.08830261" lon="-19.71761894"><ele>242.6</ele><time>2012-07-21T15:38:54.0000000+00:00</time></trkpt><trkpt lat="64.08826447" lon="-19.71729851"><ele>243.6</ele><time>2012-07-21T15:38:59.0000000+00:00</time></trkpt><trkpt lat="64.08823395" lon="-19.71697807"><ele>244.0</ele><time>2012-07-21T15:39:04.0000000+00:00</time></trkpt><trkpt lat="64.08820343" lon="-19.71664619"><ele>244.3</ele><time>2012-07-21T15:39:09.0000000+00:00</time></trkpt><trkpt lat="64.08818054" lon="-19.71635246"><ele>244.8</ele><time>2012-07-21T15:39:14.0000000+00:00</time></trkpt><trkpt lat="64.08815002" lon="-19.71609688"><ele>245.4</ele><time>2012-07-21T15:39:19.0000000+00:00</time></trkpt><trkpt lat="64.08811951" lon="-19.71580505"><ele>246.3</ele><time>2012-07-21T15:39:24.0000000+00:00</time></trkpt><trkpt lat="64.08808899" lon="-19.7154789"><ele>246.8</ele><time>2012-07-21T15:39:29.0000000+00:00</time></trkpt><trkpt lat="64.0880661" lon="-19.71518135"><ele>246.7</ele><time>2012-07-21T15:39:34.0000000+00:00</time></trkpt><trkpt lat="64.08805084" lon="-19.71491432"><ele>246.7</ele><time>2012-07-21T15:39:39.0000000+00:00</time></trkpt><trkpt lat="64.08802033" lon="-19.71459198"><ele>246.9</ele><time>2012-07-21T15:39:44.0000000+00:00</time></trkpt><trkpt lat="64.08798981" lon="-19.71427345"><ele>247.3</ele><time>2012-07-21T15:39:49.0000000+00:00</time></trkpt><trkpt lat="64.08795929" lon="-19.71394539"><ele>247.6</ele><time>2012-07-21T15:39:54.0000000+00:00</time></trkpt><trkpt lat="64.08792114" lon="-19.71361923"><ele>248.1</ele><time>2012-07-21T15:39:59.0000000+00:00</time></trkpt><trkpt lat="64.08789063" lon="-19.71329498"><ele>248.2</ele><time>2012-07-21T15:40:04.0000000+00:00</time></trkpt><trkpt lat="64.08786011" lon="-19.7130146"><ele>247.8</ele><time>2012-07-21T15:40:09.0000000+00:00</time></trkpt><trkpt lat="64.08783722" lon="-19.71271706"><ele>247.6</ele><time>2012-07-21T15:40:14.0000000+00:00</time></trkpt><trkpt lat="64.0878067" lon="-19.71244049"><ele>247.9</ele><time>2012-07-21T15:40:19.0000000+00:00</time></trkpt><trkpt lat="64.08779144" lon="-19.71227646"><ele>247.7</ele><time>2012-07-21T15:40:24.0000000+00:00</time></trkpt><trkpt lat="64.08776856" lon="-19.71200562"><ele>248.0</ele><time>2012-07-21T15:40:29.0000000+00:00</time></trkpt><trkpt lat="64.08774567" lon="-19.71170425"><ele>248.0</ele><time>2012-07-21T15:40:34.0000000+00:00</time></trkpt><trkpt lat="64.08771515" lon="-19.7113781"><ele>248.1</ele><time>2012-07-21T15:40:39.0000000+00:00</time></trkpt><trkpt lat="64.08769226" lon="-19.7110939"><ele>248.0</ele><time>2012-07-21T15:40:44.0000000+00:00</time></trkpt><trkpt lat="64.087677" lon="-19.71089745"><ele>247.9</ele><time>2012-07-21T15:40:49.0000000+00:00</time></trkpt><trkpt lat="64.08765411" lon="-19.7105999"><ele>247.9</ele><time>2012-07-21T15:40:54.0000000+00:00</time></trkpt><trkpt lat="64.08763123" lon="-19.71027374"><ele>247.6</ele><time>2012-07-21T15:40:59.0000000+00:00</time></trkpt><trkpt lat="64.08760834" lon="-19.70993233"><ele>247.4</ele><time>2012-07-21T15:41:04.0000000+00:00</time></trkpt><trkpt lat="64.08759308" lon="-19.70957184"><ele>247.4</ele><time>2012-07-21T15:41:09.0000000+00:00</time></trkpt><trkpt lat="64.08757019" lon="-19.70928764"><ele>247.0</ele><time>2012-07-21T15:41:14.0000000+00:00</time></trkpt><trkpt lat="64.08755493" lon="-19.70893478"><ele>246.6</ele><time>2012-07-21T15:41:19.0000000+00:00</time></trkpt><trkpt lat="64.08753967" lon="-19.70856476"><ele>246.2</ele><time>2012-07-21T15:41:24.0000000+00:00</time></trkpt><trkpt lat="64.08751679" lon="-19.70817184"><ele>245.7</ele><time>2012-07-21T15:41:29.0000000+00:00</time></trkpt><trkpt lat="64.08748627" lon="-19.70774841"><ele>245.3</ele><time>2012-07-21T15:41:34.0000000+00:00</time></trkpt><trkpt lat="64.08746338" lon="-19.70735931"><ele>245.6</ele><time>2012-07-21T15:41:39.0000000+00:00</time></trkpt><trkpt lat="64.08744049" lon="-19.70709992"><ele>244.9</ele><time>2012-07-21T15:41:44.0000000+00:00</time></trkpt><trkpt lat="64.08742523" lon="-19.70691681"><ele>245.2</ele><time>2012-07-21T15:41:49.0000000+00:00</time></trkpt><trkpt lat="64.08740234" lon="-19.7067833"><ele>245.0</ele><time>2012-07-21T15:41:54.0000000+00:00</time></trkpt><trkpt lat="64.08740234" lon="-19.70660973"><ele>244.9</ele><time>2012-07-21T15:41:59.0000000+00:00</time></trkpt><trkpt lat="64.08739471" lon="-19.7064209"><ele>244.7</ele><time>2012-07-21T15:42:04.0000000+00:00</time></trkpt><trkpt lat="64.08739471" lon="-19.70620155"><ele>245.1</ele><time>2012-07-21T15:42:09.0000000+00:00</time></trkpt><trkpt lat="64.08738709" lon="-19.70599175"><ele>245.9</ele><time>2012-07-21T15:42:14.0000000+00:00</time></trkpt><trkpt lat="64.08737946" lon="-19.70577622"><ele>246.9</ele><time>2012-07-21T15:42:19.0000000+00:00</time></trkpt><trkpt lat="64.08737946" lon="-19.7055378"><ele>247.2</ele><time>2012-07-21T15:42:24.0000000+00:00</time></trkpt><trkpt lat="64.08737183" lon="-19.70527268"><ele>247.5</ele><time>2012-07-21T15:42:29.0000000+00:00</time></trkpt><trkpt lat="64.08737183" lon="-19.70499611"><ele>247.5</ele><time>2012-07-21T15:42:34.0000000+00:00</time></trkpt><trkpt lat="64.08737183" lon="-19.70472717"><ele>247.8</ele><time>2012-07-21T15:42:39.0000000+00:00</time></trkpt><trkpt lat="64.0873642" lon="-19.70445824"><ele>247.6</ele><time>2012-07-21T15:42:44.0000000+00:00</time></trkpt><trkpt lat="64.08737183" lon="-19.70422936"><ele>248.2</ele><time>2012-07-21T15:42:49.0000000+00:00</time></trkpt><trkpt lat="64.0873642" lon="-19.70398331"><ele>248.3</ele><time>2012-07-21T15:42:54.0000000+00:00</time></trkpt><trkpt lat="64.08737183" lon="-19.70371056"><ele>247.8</ele><time>2012-07-21T15:42:59.0000000+00:00</time></trkpt><trkpt lat="64.08737946" lon="-19.70339584"><ele>248.2</ele><time>2012-07-21T15:43:04.0000000+00:00</time></trkpt><trkpt lat="64.08739471" lon="-19.70307159"><ele>247.9</ele><time>2012-07-21T15:43:09.0000000+00:00</time></trkpt><trkpt lat="64.08740234" lon="-19.70281029"><ele>247.8</ele><time>2012-07-21T15:43:14.0000000+00:00</time></trkpt><trkpt lat="64.08740234" lon="-19.70257568"><ele>248.1</ele><time>2012-07-21T15:43:19.0000000+00:00</time></trkpt><trkpt lat="64.08738709" lon="-19.70235825"><ele>248.3</ele><time>2012-07-21T15:43:24.0000000+00:00</time></trkpt><trkpt lat="64.08740997" lon="-19.70216942"><ele>248.6</ele><time>2012-07-21T15:43:29.0000000+00:00</time></trkpt><trkpt lat="64.0874176" lon="-19.70198631"><ele>248.4</ele><time>2012-07-21T15:43:34.0000000+00:00</time></trkpt><trkpt lat="64.08744812" lon="-19.70180702"><ele>247.9</ele><time>2012-07-21T15:43:39.0000000+00:00</time></trkpt><trkpt lat="64.08746338" lon="-19.70159531"><ele>246.8</ele><time>2012-07-21T15:43:44.0000000+00:00</time></trkpt><trkpt lat="64.08746338" lon="-19.7013607"><ele>246.8</ele><time>2012-07-21T15:43:49.0000000+00:00</time></trkpt><trkpt lat="64.0874939" lon="-19.70115662"><ele>244.6</ele><time>2012-07-21T15:43:54.0000000+00:00</time></trkpt><trkpt lat="64.08750153" lon="-19.7008934"><ele>245.9</ele><time>2012-07-21T15:43:59.0000000+00:00</time></trkpt><trkpt lat="64.08750153" lon="-19.70061874"><ele>246.0</ele><time>2012-07-21T15:44:04.0000000+00:00</time></trkpt><trkpt lat="64.08750153" lon="-19.70034027"><ele>244.9</ele><time>2012-07-21T15:44:09.0000000+00:00</time></trkpt><trkpt lat="64.08750153" lon="-19.70005798"><ele>245.7</ele><time>2012-07-21T15:44:14.0000000+00:00</time></trkpt><trkpt lat="64.08750153" lon="-19.69979858"><ele>246.4</ele><time>2012-07-21T15:44:19.0000000+00:00</time></trkpt><trkpt lat="64.08748627" lon="-19.69950676"><ele>246.6</ele><time>2012-07-21T15:44:24.0000000+00:00</time></trkpt><trkpt lat="64.08747101" lon="-19.69923401"><ele>246.5</ele><time>2012-07-21T15:44:29.0000000+00:00</time></trkpt><trkpt lat="64.08746338" lon="-19.69905472"><ele>249.5</ele><time>2012-07-21T15:44:34.0000000+00:00</time></trkpt><trkpt lat="64.08744812" lon="-19.69880104"><ele>249.3</ele><time>2012-07-21T15:44:39.0000000+00:00</time></trkpt><trkpt lat="64.08744049" lon="-19.6985321"><ele>249.4</ele><time>2012-07-21T15:44:44.0000000+00:00</time></trkpt><trkpt lat="64.08743286" lon="-19.69826126"><ele>249.4</ele><time>2012-07-21T15:44:49.0000000+00:00</time></trkpt><trkpt lat="64.08742523" lon="-19.6979847"><ele>249.1</ele><time>2012-07-21T15:44:54.0000000+00:00</time></trkpt><trkpt lat="64.08740997" lon="-19.69769478"><ele>248.6</ele><time>2012-07-21T15:44:59.0000000+00:00</time></trkpt><trkpt lat="64.08739471" lon="-19.69735336"><ele>248.1</ele><time>2012-07-21T15:45:04.0000000+00:00</time></trkpt><trkpt lat="64.08737946" lon="-19.69704628"><ele>247.6</ele><time>2012-07-21T15:45:09.0000000+00:00</time></trkpt><trkpt lat="64.08737183" lon="-19.69678688"><ele>247.4</ele><time>2012-07-21T15:45:14.0000000+00:00</time></trkpt><trkpt lat="64.0873642" lon="-19.6964798"><ele>246.9</ele><time>2012-07-21T15:45:19.0000000+00:00</time></trkpt><trkpt lat="64.0873642" lon="-19.69614983"><ele>246.7</ele><time>2012-07-21T15:45:24.0000000+00:00</time></trkpt><trkpt lat="64.0873642" lon="-19.69584274"><ele>247.3</ele><time>2012-07-21T15:45:29.0000000+00:00</time></trkpt><trkpt lat="64.08737946" lon="-19.69552231"><ele>247.8</ele><time>2012-07-21T15:45:34.0000000+00:00</time></trkpt><trkpt lat="64.08738709" lon="-19.69522667"><ele>247.3</ele><time>2012-07-21T15:45:39.0000000+00:00</time></trkpt><trkpt lat="64.08738709" lon="-19.69505119"><ele>247.2</ele><time>2012-07-21T15:45:44.0000000+00:00</time></trkpt><trkpt lat="64.08739471" lon="-19.69481659"><ele>247.0</ele><time>2012-07-21T15:45:49.0000000+00:00</time></trkpt><trkpt lat="64.08738709" lon="-19.6945591"><ele>247.3</ele><time>2012-07-21T15:45:54.0000000+00:00</time></trkpt><trkpt lat="64.08739471" lon="-19.69433594"><ele>247.4</ele><time>2012-07-21T15:45:59.0000000+00:00</time></trkpt><trkpt lat="64.08739471" lon="-19.69413757"><ele>247.3</ele><time>2012-07-21T15:46:04.0000000+00:00</time></trkpt><trkpt lat="64.08739471" lon="-19.69389916"><ele>247.3</ele><time>2012-07-21T15:46:09.0000000+00:00</time></trkpt><trkpt lat="64.08739471" lon="-19.69367218"><ele>247.7</ele><time>2012-07-21T15:46:14.0000000+00:00</time></trkpt><trkpt lat="64.08740997" lon="-19.69345284"><ele>248.0</ele><time>2012-07-21T15:46:19.0000000+00:00</time></trkpt><trkpt lat="64.08740997" lon="-19.69323349"><ele>247.9</ele><time>2012-07-21T15:46:24.0000000+00:00</time></trkpt><trkpt lat="64.08740997" lon="-19.69299698"><ele>247.5</ele><time>2012-07-21T15:46:29.0000000+00:00</time></trkpt><trkpt lat="64.08738709" lon="-19.69277191"><ele>247.7</ele><time>2012-07-21T15:46:34.0000000+00:00</time></trkpt><trkpt lat="64.08738709" lon="-19.69252968"><ele>248.1</ele><time>2012-07-21T15:46:39.0000000+00:00</time></trkpt><trkpt lat="64.08737946" lon="-19.69228935"><ele>248.1</ele><time>2012-07-21T15:46:44.0000000+00:00</time></trkpt><trkpt lat="64.08737183" lon="-19.6920414"><ele>248.1</ele><time>2012-07-21T15:46:49.0000000+00:00</time></trkpt><trkpt lat="64.08737183" lon="-19.69179726"><ele>247.8</ele><time>2012-07-21T15:46:54.0000000+00:00</time></trkpt><trkpt lat="64.0873642" lon="-19.69156265"><ele>247.4</ele><time>2012-07-21T15:46:59.0000000+00:00</time></trkpt><trkpt lat="64.08735657" lon="-19.69132996"><ele>247.5</ele><time>2012-07-21T15:47:04.0000000+00:00</time></trkpt><trkpt lat="64.08734131" lon="-19.69112396"><ele>247.7</ele><time>2012-07-21T15:47:09.0000000+00:00</time></trkpt><trkpt lat="64.08728027" lon="-19.69099808"><ele>247.8</ele><time>2012-07-21T15:47:14.0000000+00:00</time></trkpt><trkpt lat="64.08729553" lon="-19.69078255"><ele>248.1</ele><time>2012-07-21T15:47:19.0000000+00:00</time></trkpt><trkpt lat="64.08727264" lon="-19.69054031"><ele>248.6</ele><time>2012-07-21T15:47:24.0000000+00:00</time></trkpt><trkpt lat="64.08726502" lon="-19.69032478"><ele>248.9</ele><time>2012-07-21T15:47:29.0000000+00:00</time></trkpt><trkpt lat="64.08725739" lon="-19.69012451"><ele>248.9</ele><time>2012-07-21T15:47:34.0000000+00:00</time></trkpt><trkpt lat="64.08722687" lon="-19.68994904"><ele>249.3</ele><time>2012-07-21T15:47:39.0000000+00:00</time></trkpt><trkpt lat="64.08721924" lon="-19.68976784"><ele>249.6</ele><time>2012-07-21T15:47:44.0000000+00:00</time></trkpt><trkpt lat="64.08720398" lon="-19.68958855"><ele>249.6</ele><time>2012-07-21T15:47:49.0000000+00:00</time></trkpt><trkpt lat="64.08718872" lon="-19.68940544"><ele>249.2</ele><time>2012-07-21T15:47:54.0000000+00:00</time></trkpt><trkpt lat="64.08718109" lon="-19.68923187"><ele>249.6</ele><time>2012-07-21T15:47:59.0000000+00:00</time></trkpt><trkpt lat="64.08716583" lon="-19.68902588"><ele>250.5</ele><time>2012-07-21T15:48:04.0000000+00:00</time></trkpt><trkpt lat="64.08715057" lon="-19.68882179"><ele>251.2</ele><time>2012-07-21T15:48:09.0000000+00:00</time></trkpt><trkpt lat="64.08714294" lon="-19.68861389"><ele>251.7</ele><time>2012-07-21T15:48:14.0000000+00:00</time></trkpt><trkpt lat="64.08714294" lon="-19.688591"><ele>251.7</ele><time>2012-07-21T15:48:19.0000000+00:00</time></trkpt><trkpt lat="64.08714294" lon="-19.68851852"><ele>251.6</ele><time>2012-07-21T15:48:24.0000000+00:00</time></trkpt><trkpt lat="64.08712769" lon="-19.68833923"><ele>252.3</ele><time>2012-07-21T15:48:29.0000000+00:00</time></trkpt><trkpt lat="64.08712006" lon="-19.68813515"><ele>253.1</ele><time>2012-07-21T15:48:34.0000000+00:00</time></trkpt><trkpt lat="64.0871048" lon="-19.68792534"><ele>253.6</ele><time>2012-07-21T15:48:39.0000000+00:00</time></trkpt><trkpt lat="64.0871048" lon="-19.68772697"><ele>253.9</ele><time>2012-07-21T15:48:44.0000000+00:00</time></trkpt><trkpt lat="64.0871048" lon="-19.68765831"><ele>254.1</ele><time>2012-07-21T15:48:49.0000000+00:00</time></trkpt><trkpt lat="64.08709717" lon="-19.68761063"><ele>253.8</ele><time>2012-07-21T15:48:54.0000000+00:00</time></trkpt><trkpt lat="64.08709717" lon="-19.68749809"><ele>253.9</ele><time>2012-07-21T15:48:59.0000000+00:00</time></trkpt><trkpt lat="64.08708954" lon="-19.68738365"><ele>254.5</ele><time>2012-07-21T15:49:04.0000000+00:00</time></trkpt><trkpt lat="64.08708954" lon="-19.68733025"><ele>254.1</ele><time>2012-07-21T15:49:09.0000000+00:00</time></trkpt><trkpt lat="64.08708191" lon="-19.68733025"><ele>253.8</ele><time>2012-07-21T15:49:14.0000000+00:00</time></trkpt><trkpt lat="64.08708191" lon="-19.68732643"><ele>253.8</ele><time>2012-07-21T15:49:19.0000000+00:00</time></trkpt><trkpt lat="64.08708191" lon="-19.6873188"><ele>254.1</ele><time>2012-07-21T15:49:24.0000000+00:00</time></trkpt><trkpt lat="64.08708191" lon="-19.68723679"><ele>254.4</ele><time>2012-07-21T15:49:29.0000000+00:00</time></trkpt><trkpt lat="64.08708191" lon="-19.68713951"><ele>254.4</ele><time>2012-07-21T15:49:34.0000000+00:00</time></trkpt><trkpt lat="64.08707428" lon="-19.68703079"><ele>254.6</ele><time>2012-07-21T15:49:39.0000000+00:00</time></trkpt><trkpt lat="64.08706665" lon="-19.68693733"><ele>255.4</ele><time>2012-07-21T15:49:44.0000000+00:00</time></trkpt><trkpt lat="64.08705902" lon="-19.68684578"><ele>256.2</ele><time>2012-07-21T15:49:49.0000000+00:00</time></trkpt><trkpt lat="64.08705902" lon="-19.6867733"><ele>257.2</ele><time>2012-07-21T15:49:54.0000000+00:00</time></trkpt><trkpt lat="64.08705902" lon="-19.68676376"><ele>256.9</ele><time>2012-07-21T15:49:59.0000000+00:00</time></trkpt><trkpt lat="64.08705902" lon="-19.68676376"><ele>257.0</ele><time>2012-07-21T15:50:04.0000000+00:00</time></trkpt><trkpt lat="64.08705902" lon="-19.68669319"><ele>257.7</ele><time>2012-07-21T15:50:09.0000000+00:00</time></trkpt><trkpt lat="64.08705139" lon="-19.68658257"><ele>258.6</ele><time>2012-07-21T15:50:14.0000000+00:00</time></trkpt><trkpt lat="64.08704376" lon="-19.68647957"><ele>259.2</ele><time>2012-07-21T15:50:19.0000000+00:00</time></trkpt><trkpt lat="64.08704376" lon="-19.68637276"><ele>259.7</ele><time>2012-07-21T15:50:24.0000000+00:00</time></trkpt><trkpt lat="64.08705139" lon="-19.6862545"><ele>260.8</ele><time>2012-07-21T15:50:29.0000000+00:00</time></trkpt><trkpt lat="64.08705139" lon="-19.68612671"><ele>261.3</ele><time>2012-07-21T15:50:34.0000000+00:00</time></trkpt><trkpt lat="64.08705902" lon="-19.6859951"><ele>261.4</ele><time>2012-07-21T15:50:39.0000000+00:00</time></trkpt><trkpt lat="64.08706665" lon="-19.68586159"><ele>261.4</ele><time>2012-07-21T15:50:44.0000000+00:00</time></trkpt><trkpt lat="64.08707428" lon="-19.68572998"><ele>261.7</ele><time>2012-07-21T15:50:49.0000000+00:00</time></trkpt><trkpt lat="64.08708954" lon="-19.685606"><ele>262.0</ele><time>2012-07-21T15:50:54.0000000+00:00</time></trkpt><trkpt lat="64.08709717" lon="-19.68548393"><ele>261.8</ele><time>2012-07-21T15:50:59.0000000+00:00</time></trkpt><trkpt lat="64.0871048" lon="-19.68535614"><ele>262.0</ele><time>2012-07-21T15:51:04.0000000+00:00</time></trkpt><trkpt lat="64.0871048" lon="-19.68524742"><ele>261.6</ele><time>2012-07-21T15:51:09.0000000+00:00</time></trkpt><trkpt lat="64.08709717" lon="-19.68513107"><ele>261.4</ele><time>2012-07-21T15:51:14.0000000+00:00</time></trkpt><trkpt lat="64.08708954" lon="-19.6850338"><ele>261.0</ele><time>2012-07-21T15:51:19.0000000+00:00</time></trkpt><trkpt lat="64.08708954" lon="-19.68503761"><ele>261.2</ele><time>2012-07-21T15:51:24.0000000+00:00</time></trkpt><trkpt lat="64.08707428" lon="-19.6849308"><ele>261.2</ele><time>2012-07-21T15:51:29.0000000+00:00</time></trkpt><trkpt lat="64.08705139" lon="-19.6847229"><ele>260.7</ele><time>2012-07-21T15:51:34.0000000+00:00</time></trkpt><trkpt lat="64.08703613" lon="-19.68453026"><ele>260.7</ele><time>2012-07-21T15:51:39.0000000+00:00</time></trkpt><trkpt lat="64.08702087" lon="-19.68436432"><ele>260.8</ele><time>2012-07-21T15:51:44.0000000+00:00</time></trkpt><trkpt lat="64.08700562" lon="-19.68422318"><ele>260.8</ele><time>2012-07-21T15:51:49.0000000+00:00</time></trkpt><trkpt lat="64.08699799" lon="-19.68406296"><ele>260.7</ele><time>2012-07-21T15:51:54.0000000+00:00</time></trkpt><trkpt lat="64.08699036" lon="-19.68385506"><ele>260.8</ele><time>2012-07-21T15:51:59.0000000+00:00</time></trkpt><trkpt lat="64.08698273" lon="-19.68365479"><ele>261.1</ele><time>2012-07-21T15:52:04.0000000+00:00</time></trkpt><trkpt lat="64.08696747" lon="-19.68344307"><ele>261.2</ele><time>2012-07-21T15:52:09.0000000+00:00</time></trkpt><trkpt lat="64.08695984" lon="-19.68321419"><ele>261.7</ele><time>2012-07-21T15:52:14.0000000+00:00</time></trkpt><trkpt lat="64.08694458" lon="-19.68305969"><ele>262.0</ele><time>2012-07-21T15:52:19.0000000+00:00</time></trkpt><trkpt lat="64.08694458" lon="-19.68289757"><ele>262.5</ele><time>2012-07-21T15:52:24.0000000+00:00</time></trkpt><trkpt lat="64.08693695" lon="-19.68273544"><ele>262.6</ele><time>2012-07-21T15:52:29.0000000+00:00</time></trkpt><trkpt lat="64.08692932" lon="-19.68254852"><ele>262.4</ele><time>2012-07-21T15:52:34.0000000+00:00</time></trkpt><trkpt lat="64.08692932" lon="-19.6823864"><ele>263.3</ele><time>2012-07-21T15:52:39.0000000+00:00</time></trkpt><trkpt lat="64.08690643" lon="-19.68219376"><ele>263.7</ele><time>2012-07-21T15:52:44.0000000+00:00</time></trkpt><trkpt lat="64.0868988" lon="-19.68199348"><ele>264.0</ele><time>2012-07-21T15:52:49.0000000+00:00</time></trkpt><trkpt lat="64.0868988" lon="-19.6819725"><ele>263.8</ele><time>2012-07-21T15:52:54.0000000+00:00</time></trkpt><trkpt lat="64.0868988" lon="-19.6819725"><ele>263.8</ele><time>2012-07-21T15:52:59.0000000+00:00</time></trkpt><trkpt lat="64.0868988" lon="-19.6819725"><ele>263.8</ele><time>2012-07-21T15:53:04.0000000+00:00</time></trkpt><trkpt lat="64.0868988" lon="-19.6819725"><ele>263.8</ele><time>2012-07-21T15:53:09.0000000+00:00</time></trkpt><trkpt lat="64.0868988" lon="-19.6819725"><ele>263.8</ele><time>2012-07-21T15:53:14.0000000+00:00</time></trkpt><trkpt lat="64.08689117" lon="-19.68187904"><ele>263.8</ele><time>2012-07-21T15:53:19.0000000+00:00</time></trkpt><trkpt lat="64.08687592" lon="-19.68169975"><ele>264.2</ele><time>2012-07-21T15:53:24.0000000+00:00</time></trkpt><trkpt lat="64.08686829" lon="-19.68151856"><ele>264.4</ele><time>2012-07-21T15:53:29.0000000+00:00</time></trkpt><trkpt lat="64.08686066" lon="-19.68133736"><ele>264.3</ele><time>2012-07-21T15:53:34.0000000+00:00</time></trkpt><trkpt lat="64.08685303" lon="-19.68118668"><ele>265.8</ele><time>2012-07-21T15:53:39.0000000+00:00</time></trkpt><trkpt lat="64.0868454" lon="-19.68100739"><ele>266.2</ele><time>2012-07-21T15:53:44.0000000+00:00</time></trkpt><trkpt lat="64.0868454" lon="-19.68082237"><ele>266.0</ele><time>2012-07-21T15:53:49.0000000+00:00</time></trkpt><trkpt lat="64.0868454" lon="-19.68064499"><ele>265.9</ele><time>2012-07-21T15:53:54.0000000+00:00</time></trkpt><trkpt lat="64.08683777" lon="-19.68052864"><ele>266.4</ele><time>2012-07-21T15:53:59.0000000+00:00</time></trkpt><trkpt lat="64.0868454" lon="-19.68037415"><ele>267.1</ele><time>2012-07-21T15:54:04.0000000+00:00</time></trkpt><trkpt lat="64.0868454" lon="-19.68019295"><ele>267.3</ele><time>2012-07-21T15:54:09.0000000+00:00</time></trkpt><trkpt lat="64.08685303" lon="-19.68006325"><ele>267.6</ele><time>2012-07-21T15:54:14.0000000+00:00</time></trkpt><trkpt lat="64.08686829" lon="-19.6799202"><ele>268.4</ele><time>2012-07-21T15:54:19.0000000+00:00</time></trkpt><trkpt lat="64.08687592" lon="-19.67975426"><ele>268.9</ele><time>2012-07-21T15:54:24.0000000+00:00</time></trkpt><trkpt lat="64.08689117" lon="-19.67957115"><ele>269.5</ele><time>2012-07-21T15:54:29.0000000+00:00</time></trkpt><trkpt lat="64.0868988" lon="-19.67942429"><ele>270.0</ele><time>2012-07-21T15:54:34.0000000+00:00</time></trkpt><trkpt lat="64.08692169" lon="-19.67924309"><ele>270.7</ele><time>2012-07-21T15:54:39.0000000+00:00</time></trkpt><trkpt lat="64.08694458" lon="-19.67904663"><ele>271.6</ele><time>2012-07-21T15:54:44.0000000+00:00</time></trkpt><trkpt lat="64.0869751" lon="-19.67892838"><ele>272.0</ele><time>2012-07-21T15:54:49.0000000+00:00</time></trkpt><trkpt lat="64.08701325" lon="-19.67877579"><ele>272.2</ele><time>2012-07-21T15:54:54.0000000+00:00</time></trkpt><trkpt lat="64.08705139" lon="-19.67861366"><ele>271.6</ele><time>2012-07-21T15:54:59.0000000+00:00</time></trkpt><trkpt lat="64.08708954" lon="-19.678442"><ele>271.9</ele><time>2012-07-21T15:55:04.0000000+00:00</time></trkpt><trkpt lat="64.08712769" lon="-19.6782856"><ele>272.9</ele><time>2012-07-21T15:55:09.0000000+00:00</time></trkpt><trkpt lat="64.08714294" lon="-19.67814636"><ele>274.0</ele><time>2012-07-21T15:55:14.0000000+00:00</time></trkpt><trkpt lat="64.08718109" lon="-19.67799187"><ele>274.2</ele><time>2012-07-21T15:55:19.0000000+00:00</time></trkpt><trkpt lat="64.08720398" lon="-19.67782974"><ele>275.5</ele><time>2012-07-21T15:55:24.0000000+00:00</time></trkpt><trkpt lat="64.08721924" lon="-19.6776619"><ele>276.9</ele><time>2012-07-21T15:55:29.0000000+00:00</time></trkpt><trkpt lat="64.08724976" lon="-19.67749596"><ele>278.3</ele><time>2012-07-21T15:55:34.0000000+00:00</time></trkpt><trkpt lat="64.08726502" lon="-19.67734528"><ele>278.0</ele><time>2012-07-21T15:55:39.0000000+00:00</time></trkpt><trkpt lat="64.0872879" lon="-19.67717934"><ele>277.9</ele><time>2012-07-21T15:55:44.0000000+00:00</time></trkpt><trkpt lat="64.08730316" lon="-19.67701149"><ele>278.0</ele><time>2012-07-21T15:55:49.0000000+00:00</time></trkpt><trkpt lat="64.08731842" lon="-19.67682457"><ele>277.9</ele><time>2012-07-21T15:55:54.0000000+00:00</time></trkpt><trkpt lat="64.08733368" lon="-19.67666054"><ele>277.3</ele><time>2012-07-21T15:55:59.0000000+00:00</time></trkpt><trkpt lat="64.08734131" lon="-19.6764946"><ele>277.4</ele><time>2012-07-21T15:56:04.0000000+00:00</time></trkpt><trkpt lat="64.08734131" lon="-19.67637825"><ele>276.9</ele><time>2012-07-21T15:56:09.0000000+00:00</time></trkpt><trkpt lat="64.08734131" lon="-19.67619515"><ele>277.6</ele><time>2012-07-21T15:56:14.0000000+00:00</time></trkpt><trkpt lat="64.08731079" lon="-19.67603493"><ele>278.0</ele><time>2012-07-21T15:56:19.0000000+00:00</time></trkpt><trkpt lat="64.08724213" lon="-19.67597961"><ele>277.5</ele><time>2012-07-21T15:56:24.0000000+00:00</time></trkpt><trkpt lat="64.08718109" lon="-19.67587471"><ele>277.6</ele><time>2012-07-21T15:56:29.0000000+00:00</time></trkpt><trkpt lat="64.08713532" lon="-19.67574501"><ele>277.4</ele><time>2012-07-21T15:56:34.0000000+00:00</time></trkpt><trkpt lat="64.0871048" lon="-19.67557907"><ele>277.1</ele><time>2012-07-21T15:56:39.0000000+00:00</time></trkpt><trkpt lat="64.08711243" lon="-19.67544937"><ele>277.4</ele><time>2012-07-21T15:56:44.0000000+00:00</time></trkpt><trkpt lat="64.08711243" lon="-19.67544174"><ele>277.2</ele><time>2012-07-21T15:56:49.0000000+00:00</time></trkpt><trkpt lat="64.08711243" lon="-19.67544746"><ele>276.8</ele><time>2012-07-21T15:56:54.0000000+00:00</time></trkpt><trkpt lat="64.08711243" lon="-19.67544937"><ele>276.0</ele><time>2012-07-21T15:56:59.0000000+00:00</time></trkpt><trkpt lat="64.08711243" lon="-19.67544937"><ele>275.9</ele><time>2012-07-21T15:57:04.0000000+00:00</time></trkpt><trkpt lat="64.08711243" lon="-19.67544937"><ele>276.0</ele><time>2012-07-21T15:57:09.0000000+00:00</time></trkpt><trkpt lat="64.08711243" lon="-19.67544937"><ele>276.0</ele><time>2012-07-21T15:57:14.0000000+00:00</time></trkpt><trkpt lat="64.08711243" lon="-19.67544937"><ele>276.0</ele><time>2012-07-21T15:57:19.0000000+00:00</time></trkpt><trkpt lat="64.08711243" lon="-19.67544937"><ele>276.0</ele><time>2012-07-21T15:57:24.0000000+00:00</time></trkpt><trkpt lat="64.08711243" lon="-19.67544937"><ele>276.0</ele><time>2012-07-21T15:57:29.0000000+00:00</time></trkpt><trkpt lat="64.08711243" lon="-19.67544937"><ele>276.0</ele><time>2012-07-21T15:57:34.0000000+00:00</time></trkpt><trkpt lat="64.08712006" lon="-19.67542458"><ele>276.1</ele><time>2012-07-21T15:57:39.0000000+00:00</time></trkpt><trkpt lat="64.08717346" lon="-19.67547417"><ele>276.4</ele><time>2012-07-21T15:57:44.0000000+00:00</time></trkpt><trkpt lat="64.08724213" lon="-19.67555809"><ele>276.7</ele><time>2012-07-21T15:57:49.0000000+00:00</time></trkpt><trkpt lat="64.08727264" lon="-19.6755085"><ele>278.2</ele><time>2012-07-21T15:57:54.0000000+00:00</time></trkpt><trkpt lat="64.08731842" lon="-19.67535591"><ele>277.9</ele><time>2012-07-21T15:57:59.0000000+00:00</time></trkpt><trkpt lat="64.08734131" lon="-19.67515373"><ele>278.3</ele><time>2012-07-21T15:58:04.0000000+00:00</time></trkpt><trkpt lat="64.0873642" lon="-19.67495346"><ele>277.7</ele><time>2012-07-21T15:58:09.0000000+00:00</time></trkpt><trkpt lat="64.08738709" lon="-19.67473221"><ele>277.2</ele><time>2012-07-21T15:58:14.0000000+00:00</time></trkpt><trkpt lat="64.08739471" lon="-19.6746769"><ele>276.9</ele><time>2012-07-21T15:58:19.0000000+00:00</time></trkpt><trkpt lat="64.08738709" lon="-19.67467499"><ele>276.8</ele><time>2012-07-21T15:58:24.0000000+00:00</time></trkpt><trkpt lat="64.08738709" lon="-19.67468071"><ele>277.0</ele><time>2012-07-21T15:58:29.0000000+00:00</time></trkpt><trkpt lat="64.08738709" lon="-19.67468262"><ele>277.2</ele><time>2012-07-21T15:58:34.0000000+00:00</time></trkpt><trkpt lat="64.08738709" lon="-19.67468262"><ele>277.2</ele><time>2012-07-21T15:58:39.0000000+00:00</time></trkpt><trkpt lat="64.08738709" lon="-19.67468262"><ele>277.2</ele><time>2012-07-21T15:58:44.0000000+00:00</time></trkpt><trkpt lat="64.08738709" lon="-19.67468262"><ele>277.2</ele><time>2012-07-21T15:58:49.0000000+00:00</time></trkpt><trkpt lat="64.08738709" lon="-19.67468262"><ele>277.2</ele><time>2012-07-21T15:58:54.0000000+00:00</time></trkpt><trkpt lat="64.08738709" lon="-19.67468262"><ele>277.2</ele><time>2012-07-21T15:58:59.0000000+00:00</time></trkpt><trkpt lat="64.08738709" lon="-19.67468262"><ele>277.2</ele><time>2012-07-21T15:59:04.0000000+00:00</time></trkpt><trkpt lat="64.08738709" lon="-19.67468262"><ele>277.2</ele><time>2012-07-21T15:59:09.0000000+00:00</time></trkpt><trkpt lat="64.08738709" lon="-19.67468262"><ele>277.1</ele><time>2012-07-21T15:59:14.0000000+00:00</time></trkpt><trkpt lat="64.08738709" lon="-19.67468071"><ele>277.1</ele><time>2012-07-21T15:59:19.0000000+00:00</time></trkpt><trkpt lat="64.08738709" lon="-19.67468071"><ele>277.1</ele><time>2012-07-21T15:59:24.0000000+00:00</time></trkpt><trkpt lat="64.08738709" lon="-19.67468071"><ele>277.1</ele><time>2012-07-21T15:59:29.0000000+00:00</time></trkpt><trkpt lat="64.08738709" lon="-19.67468071"><ele>277.0</ele><time>2012-07-21T15:59:34.0000000+00:00</time></trkpt><trkpt lat="64.08738709" lon="-19.67468071"><ele>277.0</ele><time>2012-07-21T15:59:39.0000000+00:00</time></trkpt><trkpt lat="64.08738709" lon="-19.67468071"><ele>277.0</ele><time>2012-07-21T15:59:44.0000000+00:00</time></trkpt><trkpt lat="64.08738709" lon="-19.67468071"><ele>277.0</ele><time>2012-07-21T15:59:49.0000000+00:00</time></trkpt><trkpt lat="64.08738709" lon="-19.67468071"><ele>277.0</ele><time>2012-07-21T15:59:54.0000000+00:00</time></trkpt><trkpt lat="64.08738709" lon="-19.67468071"><ele>277.0</ele><time>2012-07-21T15:59:59.0000000+00:00</time></trkpt><trkpt lat="64.08738709" lon="-19.67468071"><ele>277.0</ele><time>2012-07-21T16:00:04.0000000+00:00</time></trkpt><trkpt lat="64.08738709" lon="-19.67468071"><ele>277.0</ele><time>2012-07-21T16:00:09.0000000+00:00</time></trkpt><trkpt lat="64.08738709" lon="-19.67468071"><ele>276.9</ele><time>2012-07-21T16:00:14.0000000+00:00</time></trkpt><trkpt lat="64.08738709" lon="-19.67468071"><ele>276.9</ele><time>2012-07-21T16:00:19.0000000+00:00</time></trkpt><trkpt lat="64.08738709" lon="-19.6746788"><ele>276.9</ele><time>2012-07-21T16:00:24.0000000+00:00</time></trkpt><trkpt lat="64.08738709" lon="-19.67468071"><ele>276.9</ele><time>2012-07-21T16:00:29.0000000+00:00</time></trkpt><trkpt lat="64.08738709" lon="-19.67468071"><ele>276.9</ele><time>2012-07-21T16:00:34.0000000+00:00</time></trkpt><trkpt lat="64.08738709" lon="-19.6746788"><ele>276.9</ele><time>2012-07-21T16:00:39.0000000+00:00</time></trkpt><trkpt lat="64.08738709" lon="-19.6746788"><ele>276.8</ele><time>2012-07-21T16:00:44.0000000+00:00</time></trkpt><trkpt lat="64.08738709" lon="-19.6746788"><ele>276.8</ele><time>2012-07-21T16:00:49.0000000+00:00</time></trkpt><trkpt lat="64.08738709" lon="-19.6746788"><ele>276.8</ele><time>2012-07-21T16:00:54.0000000+00:00</time></trkpt><trkpt lat="64.08738709" lon="-19.6746788"><ele>276.8</ele><time>2012-07-21T16:00:59.0000000+00:00</time></trkpt><trkpt lat="64.08738709" lon="-19.6746788"><ele>276.8</ele><time>2012-07-21T16:01:04.0000000+00:00</time></trkpt><trkpt lat="64.08738709" lon="-19.6746788"><ele>276.7</ele><time>2012-07-21T16:01:09.0000000+00:00</time></trkpt><trkpt lat="64.08738709" lon="-19.6746788"><ele>276.7</ele><time>2012-07-21T16:01:14.0000000+00:00</time></trkpt><trkpt lat="64.08738709" lon="-19.6746788"><ele>276.7</ele><time>2012-07-21T16:01:19.0000000+00:00</time></trkpt><trkpt lat="64.08738709" lon="-19.6746788"><ele>276.7</ele><time>2012-07-21T16:01:24.0000000+00:00</time></trkpt><trkpt lat="64.08738709" lon="-19.6746788"><ele>276.7</ele><time>2012-07-21T16:01:29.0000000+00:00</time></trkpt><trkpt lat="64.08738709" lon="-19.6746788"><ele>276.6</ele><time>2012-07-21T16:01:34.0000000+00:00</time></trkpt><trkpt lat="64.08738709" lon="-19.6746788"><ele>276.6</ele><time>2012-07-21T16:01:39.0000000+00:00</time></trkpt><trkpt lat="64.08738709" lon="-19.6746788"><ele>276.6</ele><time>2012-07-21T16:01:44.0000000+00:00</time></trkpt><trkpt lat="64.08738709" lon="-19.6746788"><ele>276.6</ele><time>2012-07-21T16:01:49.0000000+00:00</time></trkpt><trkpt lat="64.08738709" lon="-19.6746788"><ele>276.6</ele><time>2012-07-21T16:01:54.0000000+00:00</time></trkpt><trkpt lat="64.08738709" lon="-19.6746788"><ele>276.6</ele><time>2012-07-21T16:01:59.0000000+00:00</time></trkpt><trkpt lat="64.08738709" lon="-19.6746788"><ele>276.6</ele><time>2012-07-21T16:02:04.0000000+00:00</time></trkpt><trkpt lat="64.08738709" lon="-19.6746788"><ele>276.5</ele><time>2012-07-21T16:02:09.0000000+00:00</time></trkpt><trkpt lat="64.08738709" lon="-19.6746788"><ele>276.5</ele><time>2012-07-21T16:02:14.0000000+00:00</time></trkpt><trkpt lat="64.08738709" lon="-19.6746788"><ele>276.5</ele><time>2012-07-21T16:02:19.0000000+00:00</time></trkpt><trkpt lat="64.08738709" lon="-19.6746788"><ele>276.5</ele><time>2012-07-21T16:02:24.0000000+00:00</time></trkpt><trkpt lat="64.08738709" lon="-19.6746788"><ele>276.5</ele><time>2012-07-21T16:02:29.0000000+00:00</time></trkpt><trkpt lat="64.08738709" lon="-19.6746788"><ele>276.5</ele><time>2012-07-21T16:02:34.0000000+00:00</time></trkpt><trkpt lat="64.08738709" lon="-19.6746788"><ele>276.5</ele><time>2012-07-21T16:02:39.0000000+00:00</time></trkpt><trkpt lat="64.08738709" lon="-19.6746788"><ele>276.5</ele><time>2012-07-21T16:02:44.0000000+00:00</time></trkpt><trkpt lat="64.08738709" lon="-19.6746788"><ele>276.5</ele><time>2012-07-21T16:02:49.0000000+00:00</time></trkpt><trkpt lat="64.08738709" lon="-19.6746788"><ele>276.5</ele><time>2012-07-21T16:02:54.0000000+00:00</time></trkpt><trkpt lat="64.08738709" lon="-19.6746788"><ele>276.5</ele><time>2012-07-21T16:02:59.0000000+00:00</time></trkpt><trkpt lat="64.08738709" lon="-19.6746788"><ele>276.4</ele><time>2012-07-21T16:03:04.0000000+00:00</time></trkpt><trkpt lat="64.08738709" lon="-19.6746788"><ele>276.4</ele><time>2012-07-21T16:03:09.0000000+00:00</time></trkpt><trkpt lat="64.08738709" lon="-19.6746788"><ele>276.4</ele><time>2012-07-21T16:03:14.0000000+00:00</time></trkpt><trkpt lat="64.08738709" lon="-19.6746788"><ele>276.4</ele><time>2012-07-21T16:03:19.0000000+00:00</time></trkpt><trkpt lat="64.08738709" lon="-19.6746788"><ele>276.4</ele><time>2012-07-21T16:03:24.0000000+00:00</time></trkpt><trkpt lat="64.08738709" lon="-19.6746788"><ele>276.4</ele><time>2012-07-21T16:03:29.0000000+00:00</time></trkpt><trkpt lat="64.08738709" lon="-19.6746788"><ele>276.4</ele><time>2012-07-21T16:03:34.0000000+00:00</time></trkpt><trkpt lat="64.08738709" lon="-19.6746788"><ele>276.4</ele><time>2012-07-21T16:03:39.0000000+00:00</time></trkpt><trkpt lat="64.08738709" lon="-19.6746788"><ele>276.4</ele><time>2012-07-21T16:03:44.0000000+00:00</time></trkpt><trkpt lat="64.08738709" lon="-19.6746788"><ele>276.3</ele><time>2012-07-21T16:03:49.0000000+00:00</time></trkpt><trkpt lat="64.08738709" lon="-19.6746788"><ele>276.3</ele><time>2012-07-21T16:03:54.0000000+00:00</time></trkpt><trkpt lat="64.08738709" lon="-19.6746788"><ele>276.3</ele><time>2012-07-21T16:03:59.0000000+00:00</time></trkpt><trkpt lat="64.08738709" lon="-19.6746788"><ele>276.3</ele><time>2012-07-21T16:04:04.0000000+00:00</time></trkpt><trkpt lat="64.08738709" lon="-19.6746788"><ele>276.3</ele><time>2012-07-21T16:04:09.0000000+00:00</time></trkpt><trkpt lat="64.08738709" lon="-19.6746788"><ele>276.3</ele><time>2012-07-21T16:04:14.0000000+00:00</time></trkpt><trkpt lat="64.08738709" lon="-19.6746788"><ele>276.3</ele><time>2012-07-21T16:04:19.0000000+00:00</time></trkpt><trkpt lat="64.08738709" lon="-19.6746788"><ele>276.3</ele><time>2012-07-21T16:04:24.0000000+00:00</time></trkpt><trkpt lat="64.08738709" lon="-19.6746788"><ele>276.3</ele><time>2012-07-21T16:04:29.0000000+00:00</time></trkpt><trkpt lat="64.08738709" lon="-19.6746788"><ele>276.3</ele><time>2012-07-21T16:04:34.0000000+00:00</time></trkpt><trkpt lat="64.08738709" lon="-19.6746788"><ele>276.3</ele><time>2012-07-21T16:04:39.0000000+00:00</time></trkpt><trkpt lat="64.08738709" lon="-19.6746788"><ele>276.2</ele><time>2012-07-21T16:04:44.0000000+00:00</time></trkpt><trkpt lat="64.08738709" lon="-19.6746788"><ele>276.2</ele><time>2012-07-21T16:04:49.0000000+00:00</time></trkpt><trkpt lat="64.08738709" lon="-19.6746788"><ele>276.2</ele><time>2012-07-21T16:04:54.0000000+00:00</time></trkpt><trkpt lat="64.08738709" lon="-19.6746788"><ele>276.2</ele><time>2012-07-21T16:04:59.0000000+00:00</time></trkpt><trkpt lat="64.08738709" lon="-19.67468071"><ele>276.2</ele><time>2012-07-21T16:05:04.0000000+00:00</time></trkpt><trkpt lat="64.08738709" lon="-19.67468071"><ele>276.2</ele><time>2012-07-21T16:05:09.0000000+00:00</time></trkpt><trkpt lat="64.08738709" lon="-19.67468071"><ele>276.2</ele><time>2012-07-21T16:05:14.0000000+00:00</time></trkpt><trkpt lat="64.08738709" lon="-19.67468071"><ele>276.2</ele><time>2012-07-21T16:05:19.0000000+00:00</time></trkpt><trkpt lat="64.08738709" lon="-19.67468071"><ele>276.2</ele><time>2012-07-21T16:05:24.0000000+00:00</time></trkpt><trkpt lat="64.08738709" lon="-19.67468071"><ele>276.1</ele><time>2012-07-21T16:05:29.0000000+00:00</time></trkpt><trkpt lat="64.08738709" lon="-19.67468071"><ele>276.1</ele><time>2012-07-21T16:05:34.0000000+00:00</time></trkpt><trkpt lat="64.08738709" lon="-19.67468071"><ele>276.1</ele><time>2012-07-21T16:05:39.0000000+00:00</time></trkpt><trkpt lat="64.08738709" lon="-19.67468071"><ele>276.1</ele><time>2012-07-21T16:05:44.0000000+00:00</time></trkpt><trkpt lat="64.08738709" lon="-19.67468071"><ele>276.1</ele><time>2012-07-21T16:05:49.0000000+00:00</time></trkpt><trkpt lat="64.08738709" lon="-19.67468071"><ele>276.1</ele><time>2012-07-21T16:05:54.0000000+00:00</time></trkpt><trkpt lat="64.08738709" lon="-19.67468071"><ele>276.1</ele><time>2012-07-21T16:05:59.0000000+00:00</time></trkpt><trkpt lat="64.08738709" lon="-19.67468262"><ele>276.1</ele><time>2012-07-21T16:06:04.0000000+00:00</time></trkpt><trkpt lat="64.08738709" lon="-19.67468262"><ele>276.1</ele><time>2012-07-21T16:06:09.0000000+00:00</time></trkpt><trkpt lat="64.08738709" lon="-19.67468262"><ele>276.1</ele><time>2012-07-21T16:06:14.0000000+00:00</time></trkpt><trkpt lat="64.08738709" lon="-19.67468262"><ele>276.1</ele><time>2012-07-21T16:06:19.0000000+00:00</time></trkpt><trkpt lat="64.08738709" lon="-19.67468262"><ele>276.1</ele><time>2012-07-21T16:06:24.0000000+00:00</time></trkpt><trkpt lat="64.08738709" lon="-19.67468262"><ele>276.1</ele><time>2012-07-21T16:06:29.0000000+00:00</time></trkpt><trkpt lat="64.08738709" lon="-19.67468262"><ele>276.1</ele><time>2012-07-21T16:06:34.0000000+00:00</time></trkpt><trkpt lat="64.08738709" lon="-19.67468262"><ele>276.1</ele><time>2012-07-21T16:06:39.0000000+00:00</time></trkpt><trkpt lat="64.08738709" lon="-19.67468262"><ele>276.0</ele><time>2012-07-21T16:06:44.0000000+00:00</time></trkpt><trkpt lat="64.08738709" lon="-19.67468262"><ele>276.0</ele><time>2012-07-21T16:06:49.0000000+00:00</time></trkpt><trkpt lat="64.08738709" lon="-19.67468262"><ele>276.0</ele><time>2012-07-21T16:06:54.0000000+00:00</time></trkpt><trkpt lat="64.08738709" lon="-19.67468453"><ele>276.0</ele><time>2012-07-21T16:06:59.0000000+00:00</time></trkpt><trkpt lat="64.08738709" lon="-19.67468453"><ele>276.0</ele><time>2012-07-21T16:07:04.0000000+00:00</time></trkpt><trkpt lat="64.08738709" lon="-19.67468453"><ele>276.0</ele><time>2012-07-21T16:07:09.0000000+00:00</time></trkpt><trkpt lat="64.08738709" lon="-19.67468453"><ele>276.0</ele><time>2012-07-21T16:07:14.0000000+00:00</time></trkpt><trkpt lat="64.08738709" lon="-19.67468453"><ele>276.0</ele><time>2012-07-21T16:07:19.0000000+00:00</time></trkpt><trkpt lat="64.08738709" lon="-19.67468453"><ele>276.0</ele><time>2012-07-21T16:07:24.0000000+00:00</time></trkpt><trkpt lat="64.08738709" lon="-19.67468262"><ele>276.0</ele><time>2012-07-21T16:07:29.0000000+00:00</time></trkpt><trkpt lat="64.08738709" lon="-19.67468262"><ele>276.0</ele><time>2012-07-21T16:07:34.0000000+00:00</time></trkpt><trkpt lat="64.08738709" lon="-19.67468262"><ele>276.0</ele><time>2012-07-21T16:07:39.0000000+00:00</time></trkpt><trkpt lat="64.08738709" lon="-19.67468453"><ele>276.0</ele><time>2012-07-21T16:07:44.0000000+00:00</time></trkpt><trkpt lat="64.08738709" lon="-19.67468453"><ele>276.0</ele><time>2012-07-21T16:07:49.0000000+00:00</time></trkpt><trkpt lat="64.08740234" lon="-19.67452622"><ele>276.2</ele><time>2012-07-21T16:07:54.0000000+00:00</time></trkpt><trkpt lat="64.08743286" lon="-19.67425919"><ele>275.6</ele><time>2012-07-21T16:07:59.0000000+00:00</time></trkpt><trkpt lat="64.08747864" lon="-19.67402649"><ele>274.9</ele><time>2012-07-21T16:08:04.0000000+00:00</time></trkpt><trkpt lat="64.08753967" lon="-19.67380142"><ele>275.0</ele><time>2012-07-21T16:08:09.0000000+00:00</time></trkpt><trkpt lat="64.08760071" lon="-19.67355919"><ele>274.4</ele><time>2012-07-21T16:08:14.0000000+00:00</time></trkpt><trkpt lat="64.08764648" lon="-19.67332459"><ele>274.9</ele><time>2012-07-21T16:08:19.0000000+00:00</time></trkpt><trkpt lat="64.08768463" lon="-19.6730938"><ele>273.3</ele><time>2012-07-21T16:08:24.0000000+00:00</time></trkpt><trkpt lat="64.08772278" lon="-19.67288017"><ele>271.1</ele><time>2012-07-21T16:08:29.0000000+00:00</time></trkpt><trkpt lat="64.08774567" lon="-19.67262459"><ele>272.8</ele><time>2012-07-21T16:08:34.0000000+00:00</time></trkpt><trkpt lat="64.08776093" lon="-19.67238998"><ele>272.3</ele><time>2012-07-21T16:08:39.0000000+00:00</time></trkpt><trkpt lat="64.08774567" lon="-19.67218399"><ele>272.2</ele><time>2012-07-21T16:08:44.0000000+00:00</time></trkpt><trkpt lat="64.08776093" lon="-19.67204666"><ele>272.1</ele><time>2012-07-21T16:08:49.0000000+00:00</time></trkpt><trkpt lat="64.08776093" lon="-19.67187882"><ele>272.0</ele><time>2012-07-21T16:08:54.0000000+00:00</time></trkpt><trkpt lat="64.08776093" lon="-19.6716919"><ele>272.0</ele><time>2012-07-21T16:08:59.0000000+00:00</time></trkpt><trkpt lat="64.08779144" lon="-19.67155075"><ele>273.1</ele><time>2012-07-21T16:09:04.0000000+00:00</time></trkpt><trkpt lat="64.08778381" lon="-19.67139626"><ele>273.4</ele><time>2012-07-21T16:09:09.0000000+00:00</time></trkpt><trkpt lat="64.08779144" lon="-19.67126083"><ele>273.3</ele><time>2012-07-21T16:09:14.0000000+00:00</time></trkpt><trkpt lat="64.08779907" lon="-19.67105293"><ele>272.7</ele><time>2012-07-21T16:09:19.0000000+00:00</time></trkpt><trkpt lat="64.08778381" lon="-19.67084694"><ele>272.4</ele><time>2012-07-21T16:09:24.0000000+00:00</time></trkpt><trkpt lat="64.08781433" lon="-19.67064476"><ele>272.3</ele><time>2012-07-21T16:09:29.0000000+00:00</time></trkpt><trkpt lat="64.08782959" lon="-19.67042732"><ele>272.1</ele><time>2012-07-21T16:09:34.0000000+00:00</time></trkpt><trkpt lat="64.08782959" lon="-19.67020035"><ele>272.3</ele><time>2012-07-21T16:09:39.0000000+00:00</time></trkpt><trkpt lat="64.08782959" lon="-19.66993332"><ele>272.8</ele><time>2012-07-21T16:09:44.0000000+00:00</time></trkpt><trkpt lat="64.08782196" lon="-19.66966248"><ele>272.9</ele><time>2012-07-21T16:09:49.0000000+00:00</time></trkpt><trkpt lat="64.08783722" lon="-19.6694088"><ele>272.7</ele><time>2012-07-21T16:09:54.0000000+00:00</time></trkpt><trkpt lat="64.08785248" lon="-19.6691246"><ele>273.0</ele><time>2012-07-21T16:09:59.0000000+00:00</time></trkpt><trkpt lat="64.08787537" lon="-19.66884613"><ele>272.7</ele><time>2012-07-21T16:10:04.0000000+00:00</time></trkpt><trkpt lat="64.08789825" lon="-19.66856194"><ele>273.0</ele><time>2012-07-21T16:10:09.0000000+00:00</time></trkpt><trkpt lat="64.08795166" lon="-19.66832352"><ele>272.7</ele><time>2012-07-21T16:10:14.0000000+00:00</time></trkpt><trkpt lat="64.08798218" lon="-19.66810799"><ele>274.0</ele><time>2012-07-21T16:10:19.0000000+00:00</time></trkpt><trkpt lat="64.08800507" lon="-19.66793633"><ele>275.0</ele><time>2012-07-21T16:10:24.0000000+00:00</time></trkpt><trkpt lat="64.08805084" lon="-19.66775513"><ele>275.8</ele><time>2012-07-21T16:10:29.0000000+00:00</time></trkpt><trkpt lat="64.08810425" lon="-19.66754913"><ele>275.1</ele><time>2012-07-21T16:10:34.0000000+00:00</time></trkpt><trkpt lat="64.08816528" lon="-19.66732788"><ele>274.7</ele><time>2012-07-21T16:10:39.0000000+00:00</time></trkpt><trkpt lat="64.08821869" lon="-19.66706085"><ele>274.8</ele><time>2012-07-21T16:10:44.0000000+00:00</time></trkpt><trkpt lat="64.08824921" lon="-19.6667614"><ele>274.8</ele><time>2012-07-21T16:10:49.0000000+00:00</time></trkpt><trkpt lat="64.08826447" lon="-19.66656494"><ele>274.5</ele><time>2012-07-21T16:10:54.0000000+00:00</time></trkpt><trkpt lat="64.0882721" lon="-19.66633415"><ele>274.5</ele><time>2012-07-21T16:10:59.0000000+00:00</time></trkpt><trkpt lat="64.08827972" lon="-19.66607857"><ele>274.7</ele><time>2012-07-21T16:11:04.0000000+00:00</time></trkpt><trkpt lat="64.08829498" lon="-19.66583061"><ele>274.2</ele><time>2012-07-21T16:11:09.0000000+00:00</time></trkpt><trkpt lat="64.08830261" lon="-19.66555405"><ele>273.8</ele><time>2012-07-21T16:11:14.0000000+00:00</time></trkpt><trkpt lat="64.08831787" lon="-19.66529083"><ele>274.0</ele><time>2012-07-21T16:11:19.0000000+00:00</time></trkpt><trkpt lat="64.08831787" lon="-19.66506577"><ele>273.2</ele><time>2012-07-21T16:11:24.0000000+00:00</time></trkpt><trkpt lat="64.0883255" lon="-19.66485214"><ele>273.6</ele><time>2012-07-21T16:11:29.0000000+00:00</time></trkpt><trkpt lat="64.0883255" lon="-19.66461945"><ele>273.3</ele><time>2012-07-21T16:11:34.0000000+00:00</time></trkpt><trkpt lat="64.0883255" lon="-19.66436958"><ele>273.2</ele><time>2012-07-21T16:11:39.0000000+00:00</time></trkpt><trkpt lat="64.08833313" lon="-19.66412735"><ele>273.1</ele><time>2012-07-21T16:11:44.0000000+00:00</time></trkpt><trkpt lat="64.08834076" lon="-19.66388893"><ele>273.1</ele><time>2012-07-21T16:11:49.0000000+00:00</time></trkpt><trkpt lat="64.08835602" lon="-19.66364098"><ele>273.1</ele><time>2012-07-21T16:11:54.0000000+00:00</time></trkpt><trkpt lat="64.08837128" lon="-19.66345596"><ele>273.2</ele><time>2012-07-21T16:11:59.0000000+00:00</time></trkpt><trkpt lat="64.08838654" lon="-19.66324997"><ele>273.5</ele><time>2012-07-21T16:12:04.0000000+00:00</time></trkpt><trkpt lat="64.08842468" lon="-19.66301727"><ele>272.9</ele><time>2012-07-21T16:12:09.0000000+00:00</time></trkpt><trkpt lat="64.08847046" lon="-19.66276932"><ele>272.1</ele><time>2012-07-21T16:12:14.0000000+00:00</time></trkpt><trkpt lat="64.08850098" lon="-19.6625042"><ele>272.1</ele><time>2012-07-21T16:12:19.0000000+00:00</time></trkpt><trkpt lat="64.08853149" lon="-19.66229439"><ele>272.6</ele><time>2012-07-21T16:12:24.0000000+00:00</time></trkpt><trkpt lat="64.08860016" lon="-19.66214371"><ele>269.0</ele><time>2012-07-21T16:12:29.0000000+00:00</time></trkpt><trkpt lat="64.08861542" lon="-19.66189957"><ele>269.4</ele><time>2012-07-21T16:12:34.0000000+00:00</time></trkpt><trkpt lat="64.08865356" lon="-19.66167259"><ele>269.2</ele><time>2012-07-21T16:12:39.0000000+00:00</time></trkpt><trkpt lat="64.08869934" lon="-19.66141892"><ele>270.4</ele><time>2012-07-21T16:12:44.0000000+00:00</time></trkpt><trkpt lat="64.08873749" lon="-19.6612339"><ele>270.4</ele><time>2012-07-21T16:12:49.0000000+00:00</time></trkpt><trkpt lat="64.08877564" lon="-19.66101456"><ele>272.0</ele><time>2012-07-21T16:12:54.0000000+00:00</time></trkpt><trkpt lat="64.08879852" lon="-19.6608181"><ele>273.5</ele><time>2012-07-21T16:12:59.0000000+00:00</time></trkpt><trkpt lat="64.08881378" lon="-19.66065788"><ele>273.6</ele><time>2012-07-21T16:13:04.0000000+00:00</time></trkpt><trkpt lat="64.08882141" lon="-19.6604805"><ele>273.6</ele><time>2012-07-21T16:13:09.0000000+00:00</time></trkpt><trkpt lat="64.08883667" lon="-19.66031456"><ele>273.6</ele><time>2012-07-21T16:13:14.0000000+00:00</time></trkpt><trkpt lat="64.08885193" lon="-19.66010094"><ele>273.4</ele><time>2012-07-21T16:13:19.0000000+00:00</time></trkpt><trkpt lat="64.08886719" lon="-19.65992165"><ele>272.5</ele><time>2012-07-21T16:13:24.0000000+00:00</time></trkpt><trkpt lat="64.08889008" lon="-19.65968895"><ele>272.6</ele><time>2012-07-21T16:13:29.0000000+00:00</time></trkpt><trkpt lat="64.08890533" lon="-19.65945816"><ele>273.8</ele><time>2012-07-21T16:13:34.0000000+00:00</time></trkpt><trkpt lat="64.08892822" lon="-19.65924263"><ele>273.3</ele><time>2012-07-21T16:13:39.0000000+00:00</time></trkpt><trkpt lat="64.08895111" lon="-19.65904236"><ele>272.6</ele><time>2012-07-21T16:13:44.0000000+00:00</time></trkpt><trkpt lat="64.08898163" lon="-19.6588459"><ele>272.8</ele><time>2012-07-21T16:13:49.0000000+00:00</time></trkpt><trkpt lat="64.08901215" lon="-19.65865517"><ele>274.1</ele><time>2012-07-21T16:13:54.0000000+00:00</time></trkpt><trkpt lat="64.08906555" lon="-19.65843201"><ele>274.1</ele><time>2012-07-21T16:13:59.0000000+00:00</time></trkpt><trkpt lat="64.0891037" lon="-19.65823364"><ele>274.0</ele><time>2012-07-21T16:14:04.0000000+00:00</time></trkpt><trkpt lat="64.08912659" lon="-19.65810394"><ele>273.2</ele><time>2012-07-21T16:14:09.0000000+00:00</time></trkpt><trkpt lat="64.08914948" lon="-19.65789795"><ele>272.2</ele><time>2012-07-21T16:14:14.0000000+00:00</time></trkpt><trkpt lat="64.08916473" lon="-19.65762329"><ele>271.8</ele><time>2012-07-21T16:14:19.0000000+00:00</time></trkpt><trkpt lat="64.08917236" lon="-19.65732956"><ele>272.8</ele><time>2012-07-21T16:14:24.0000000+00:00</time></trkpt><trkpt lat="64.08917236" lon="-19.65708733"><ele>273.5</ele><time>2012-07-21T16:14:29.0000000+00:00</time></trkpt><trkpt lat="64.08917999" lon="-19.65681648"><ele>274.2</ele><time>2012-07-21T16:14:34.0000000+00:00</time></trkpt><trkpt lat="64.08918762" lon="-19.65656281"><ele>273.9</ele><time>2012-07-21T16:14:39.0000000+00:00</time></trkpt><trkpt lat="64.08919525" lon="-19.65634155"><ele>274.2</ele><time>2012-07-21T16:14:44.0000000+00:00</time></trkpt><trkpt lat="64.08921814" lon="-19.65607071"><ele>273.9</ele><time>2012-07-21T16:14:49.0000000+00:00</time></trkpt><trkpt lat="64.0892334" lon="-19.65578461"><ele>273.8</ele><time>2012-07-21T16:14:54.0000000+00:00</time></trkpt><trkpt lat="64.08925629" lon="-19.6555233"><ele>271.2</ele><time>2012-07-21T16:14:59.0000000+00:00</time></trkpt><trkpt lat="64.08927918" lon="-19.65523338"><ele>271.5</ele><time>2012-07-21T16:15:04.0000000+00:00</time></trkpt><trkpt lat="64.08929443" lon="-19.65493965"><ele>271.9</ele><time>2012-07-21T16:15:09.0000000+00:00</time></trkpt><trkpt lat="64.08930206" lon="-19.65472412"><ele>272.2</ele><time>2012-07-21T16:15:14.0000000+00:00</time></trkpt><trkpt lat="64.08930969" lon="-19.65455246"><ele>272.1</ele><time>2012-07-21T16:15:19.0000000+00:00</time></trkpt><trkpt lat="64.08930206" lon="-19.65431213"><ele>272.1</ele><time>2012-07-21T16:15:24.0000000+00:00</time></trkpt><trkpt lat="64.08929443" lon="-19.65411758"><ele>271.4</ele><time>2012-07-21T16:15:29.0000000+00:00</time></trkpt><trkpt lat="64.08927918" lon="-19.65391731"><ele>271.5</ele><time>2012-07-21T16:15:34.0000000+00:00</time></trkpt><trkpt lat="64.08925629" lon="-19.65369988"><ele>272.1</ele><time>2012-07-21T16:15:39.0000000+00:00</time></trkpt><trkpt lat="64.08922577" lon="-19.65348244"><ele>272.9</ele><time>2012-07-21T16:15:44.0000000+00:00</time></trkpt><trkpt lat="64.08921051" lon="-19.65326881"><ele>273.6</ele><time>2012-07-21T16:15:49.0000000+00:00</time></trkpt><trkpt lat="64.08918762" lon="-19.6530304"><ele>273.7</ele><time>2012-07-21T16:15:54.0000000+00:00</time></trkpt><trkpt lat="64.08917236" lon="-19.65276909"><ele>272.9</ele><time>2012-07-21T16:15:59.0000000+00:00</time></trkpt><trkpt lat="64.08914948" lon="-19.65251923"><ele>273.2</ele><time>2012-07-21T16:16:04.0000000+00:00</time></trkpt><trkpt lat="64.08912659" lon="-19.65235519"><ele>272.7</ele><time>2012-07-21T16:16:09.0000000+00:00</time></trkpt><trkpt lat="64.08911896" lon="-19.65218353"><ele>273.0</ele><time>2012-07-21T16:16:14.0000000+00:00</time></trkpt><trkpt lat="64.08909607" lon="-19.65202522"><ele>272.9</ele><time>2012-07-21T16:16:19.0000000+00:00</time></trkpt><trkpt lat="64.08909607" lon="-19.65186882"><ele>272.6</ele><time>2012-07-21T16:16:24.0000000+00:00</time></trkpt><trkpt lat="64.08908081" lon="-19.65169334"><ele>273.7</ele><time>2012-07-21T16:16:29.0000000+00:00</time></trkpt><trkpt lat="64.08906555" lon="-19.6515255"><ele>273.9</ele><time>2012-07-21T16:16:34.0000000+00:00</time></trkpt><trkpt lat="64.08905029" lon="-19.65139008"><ele>273.8</ele><time>2012-07-21T16:16:39.0000000+00:00</time></trkpt><trkpt lat="64.08902741" lon="-19.65120888"><ele>273.6</ele><time>2012-07-21T16:16:44.0000000+00:00</time></trkpt><trkpt lat="64.08904266" lon="-19.65102959"><ele>272.1</ele><time>2012-07-21T16:16:49.0000000+00:00</time></trkpt><trkpt lat="64.08905029" lon="-19.65085983"><ele>271.7</ele><time>2012-07-21T16:16:54.0000000+00:00</time></trkpt><trkpt lat="64.08905029" lon="-19.65070915"><ele>272.3</ele><time>2012-07-21T16:16:59.0000000+00:00</time></trkpt><trkpt lat="64.08904266" lon="-19.65056229"><ele>273.1</ele><time>2012-07-21T16:17:04.0000000+00:00</time></trkpt><trkpt lat="64.08905029" lon="-19.65041161"><ele>272.0</ele><time>2012-07-21T16:17:09.0000000+00:00</time></trkpt><trkpt lat="64.08902741" lon="-19.65025711"><ele>272.4</ele><time>2012-07-21T16:17:14.0000000+00:00</time></trkpt><trkpt lat="64.08901215" lon="-19.65010071"><ele>273.2</ele><time>2012-07-21T16:17:19.0000000+00:00</time></trkpt><trkpt lat="64.08900452" lon="-19.64996529"><ele>273.7</ele><time>2012-07-21T16:17:24.0000000+00:00</time></trkpt><trkpt lat="64.08898163" lon="-19.64982033"><ele>274.9</ele><time>2012-07-21T16:17:29.0000000+00:00</time></trkpt><trkpt lat="64.08896637" lon="-19.64968109"><ele>275.4</ele><time>2012-07-21T16:17:34.0000000+00:00</time></trkpt><trkpt lat="64.08892059" lon="-19.64951515"><ele>276.1</ele><time>2012-07-21T16:17:39.0000000+00:00</time></trkpt><trkpt lat="64.08889771" lon="-19.64933968"><ele>276.7</ele><time>2012-07-21T16:17:44.0000000+00:00</time></trkpt><trkpt lat="64.0888443" lon="-19.6491642"><ele>277.5</ele><time>2012-07-21T16:17:49.0000000+00:00</time></trkpt><trkpt lat="64.08877564" lon="-19.64900208"><ele>277.6</ele><time>2012-07-21T16:17:54.0000000+00:00</time></trkpt><trkpt lat="64.08876038" lon="-19.64883995"><ele>278.8</ele><time>2012-07-21T16:17:59.0000000+00:00</time></trkpt><trkpt lat="64.08875275" lon="-19.64867973"><ele>279.1</ele><time>2012-07-21T16:18:04.0000000+00:00</time></trkpt><trkpt lat="64.08874512" lon="-19.64855766"><ele>279.6</ele><time>2012-07-21T16:18:09.0000000+00:00</time></trkpt><trkpt lat="64.08872223" lon="-19.648386"><ele>279.7</ele><time>2012-07-21T16:18:14.0000000+00:00</time></trkpt><trkpt lat="64.0887146" lon="-19.6481781"><ele>279.8</ele><time>2012-07-21T16:18:19.0000000+00:00</time></trkpt><trkpt lat="64.08868408" lon="-19.64794731"><ele>278.4</ele><time>2012-07-21T16:18:24.0000000+00:00</time></trkpt><trkpt lat="64.08867645" lon="-19.64772987"><ele>277.7</ele><time>2012-07-21T16:18:29.0000000+00:00</time></trkpt><trkpt lat="64.08866119" lon="-19.64745522"><ele>278.3</ele><time>2012-07-21T16:18:34.0000000+00:00</time></trkpt><trkpt lat="64.08863068" lon="-19.64719582"><ele>279.4</ele><time>2012-07-21T16:18:39.0000000+00:00</time></trkpt><trkpt lat="64.08860779" lon="-19.64702225"><ele>279.6</ele><time>2012-07-21T16:18:44.0000000+00:00</time></trkpt><trkpt lat="64.08860016" lon="-19.64684296"><ele>280.2</ele><time>2012-07-21T16:18:49.0000000+00:00</time></trkpt><trkpt lat="64.08859253" lon="-19.64684486"><ele>280.4</ele><time>2012-07-21T16:18:54.0000000+00:00</time></trkpt><trkpt lat="64.08860016" lon="-19.64684296"><ele>280.4</ele><time>2012-07-21T16:18:59.0000000+00:00</time></trkpt><trkpt lat="64.08860016" lon="-19.64684296"><ele>280.4</ele><time>2012-07-21T16:19:04.0000000+00:00</time></trkpt><trkpt lat="64.08860016" lon="-19.64684296"><ele>280.3</ele><time>2012-07-21T16:19:09.0000000+00:00</time></trkpt><trkpt lat="64.08860016" lon="-19.64684296"><ele>280.2</ele><time>2012-07-21T16:19:14.0000000+00:00</time></trkpt><trkpt lat="64.08860016" lon="-19.64684296"><ele>280.2</ele><time>2012-07-21T16:19:19.0000000+00:00</time></trkpt><trkpt lat="64.08860016" lon="-19.64684105"><ele>280.2</ele><time>2012-07-21T16:19:24.0000000+00:00</time></trkpt><trkpt lat="64.08860016" lon="-19.64684105"><ele>280.2</ele><time>2012-07-21T16:19:29.0000000+00:00</time></trkpt><trkpt lat="64.08860016" lon="-19.64684105"><ele>280.2</ele><time>2012-07-21T16:19:34.0000000+00:00</time></trkpt><trkpt lat="64.08859253" lon="-19.64684105"><ele>280.2</ele><time>2012-07-21T16:19:39.0000000+00:00</time></trkpt><trkpt lat="64.08859253" lon="-19.64684105"><ele>280.2</ele><time>2012-07-21T16:19:44.0000000+00:00</time></trkpt><trkpt lat="64.08859253" lon="-19.64684105"><ele>280.2</ele><time>2012-07-21T16:19:49.0000000+00:00</time></trkpt><trkpt lat="64.08859253" lon="-19.64684105"><ele>280.2</ele><time>2012-07-21T16:19:54.0000000+00:00</time></trkpt><trkpt lat="64.08859253" lon="-19.64684105"><ele>280.2</ele><time>2012-07-21T16:19:59.0000000+00:00</time></trkpt><trkpt lat="64.08859253" lon="-19.64684105"><ele>280.2</ele><time>2012-07-21T16:20:04.0000000+00:00</time></trkpt><trkpt lat="64.08859253" lon="-19.64684105"><ele>280.2</ele><time>2012-07-21T16:20:09.0000000+00:00</time></trkpt><trkpt lat="64.08859253" lon="-19.64684105"><ele>280.2</ele><time>2012-07-21T16:20:14.0000000+00:00</time></trkpt><trkpt lat="64.08859253" lon="-19.64684105"><ele>280.2</ele><time>2012-07-21T16:20:19.0000000+00:00</time></trkpt><trkpt lat="64.08859253" lon="-19.64684105"><ele>280.2</ele><time>2012-07-21T16:20:24.0000000+00:00</time></trkpt><trkpt lat="64.08859253" lon="-19.64684105"><ele>280.2</ele><time>2012-07-21T16:20:29.0000000+00:00</time></trkpt><trkpt lat="64.08859253" lon="-19.64684105"><ele>280.2</ele><time>2012-07-21T16:20:34.0000000+00:00</time></trkpt><trkpt lat="64.08859253" lon="-19.64684105"><ele>280.2</ele><time>2012-07-21T16:20:39.0000000+00:00</time></trkpt><trkpt lat="64.08859253" lon="-19.64684105"><ele>280.2</ele><time>2012-07-21T16:20:44.0000000+00:00</time></trkpt><trkpt lat="64.08859253" lon="-19.64684105"><ele>280.2</ele><time>2012-07-21T16:20:49.0000000+00:00</time></trkpt><trkpt lat="64.08859253" lon="-19.64684105"><ele>280.2</ele><time>2012-07-21T16:20:54.0000000+00:00</time></trkpt><trkpt lat="64.08859253" lon="-19.64684105"><ele>280.2</ele><time>2012-07-21T16:20:59.0000000+00:00</time></trkpt><trkpt lat="64.08859253" lon="-19.64684105"><ele>280.2</ele><time>2012-07-21T16:21:04.0000000+00:00</time></trkpt><trkpt lat="64.08859253" lon="-19.64684105"><ele>280.2</ele><time>2012-07-21T16:21:09.0000000+00:00</time></trkpt><trkpt lat="64.08859253" lon="-19.64684105"><ele>280.2</ele><time>2012-07-21T16:21:14.0000000+00:00</time></trkpt><trkpt lat="64.08859253" lon="-19.64684105"><ele>280.2</ele><time>2012-07-21T16:21:19.0000000+00:00</time></trkpt><trkpt lat="64.08859253" lon="-19.64684105"><ele>280.2</ele><time>2012-07-21T16:21:24.0000000+00:00</time></trkpt><trkpt lat="64.08859253" lon="-19.64684105"><ele>280.2</ele><time>2012-07-21T16:21:29.0000000+00:00</time></trkpt><trkpt lat="64.08859253" lon="-19.64684105"><ele>280.2</ele><time>2012-07-21T16:21:34.0000000+00:00</time></trkpt><trkpt lat="64.08859253" lon="-19.64684105"><ele>280.2</ele><time>2012-07-21T16:21:39.0000000+00:00</time></trkpt><trkpt lat="64.08859253" lon="-19.64684105"><ele>280.2</ele><time>2012-07-21T16:21:44.0000000+00:00</time></trkpt><trkpt lat="64.08859253" lon="-19.64684105"><ele>280.2</ele><time>2012-07-21T16:21:49.0000000+00:00</time></trkpt><trkpt lat="64.08860779" lon="-19.64669418"><ele>279.7</ele><time>2012-07-21T16:21:54.0000000+00:00</time></trkpt><trkpt lat="64.08860779" lon="-19.6464119"><ele>279.0</ele><time>2012-07-21T16:21:59.0000000+00:00</time></trkpt><trkpt lat="64.08863831" lon="-19.64619446"><ele>279.0</ele><time>2012-07-21T16:22:04.0000000+00:00</time></trkpt><trkpt lat="64.08866119" lon="-19.64601898"><ele>278.7</ele><time>2012-07-21T16:22:09.0000000+00:00</time></trkpt><trkpt lat="64.08867645" lon="-19.64588165"><ele>278.9</ele><time>2012-07-21T16:22:14.0000000+00:00</time></trkpt><trkpt lat="64.0887146" lon="-19.64571571"><ele>279.0</ele><time>2012-07-21T16:22:19.0000000+00:00</time></trkpt><trkpt lat="64.08876801" lon="-19.64550209"><ele>279.1</ele><time>2012-07-21T16:22:24.0000000+00:00</time></trkpt><trkpt lat="64.08879089" lon="-19.64528084"><ele>279.4</ele><time>2012-07-21T16:22:29.0000000+00:00</time></trkpt><trkpt lat="64.08882141" lon="-19.64514923"><ele>279.5</ele><time>2012-07-21T16:22:34.0000000+00:00</time></trkpt><trkpt lat="64.08886719" lon="-19.64498711"><ele>279.8</ele><time>2012-07-21T16:22:39.0000000+00:00</time></trkpt><trkpt lat="64.08890533" lon="-19.64480782"><ele>280.2</ele><time>2012-07-21T16:22:44.0000000+00:00</time></trkpt><trkpt lat="64.08892059" lon="-19.64463043"><ele>280.7</ele><time>2012-07-21T16:22:49.0000000+00:00</time></trkpt><trkpt lat="64.08892822" lon="-19.64443779"><ele>280.0</ele><time>2012-07-21T16:22:54.0000000+00:00</time></trkpt><trkpt lat="64.08892822" lon="-19.64425087"><ele>279.5</ele><time>2012-07-21T16:22:59.0000000+00:00</time></trkpt><trkpt lat="64.08894348" lon="-19.64409256"><ele>279.9</ele><time>2012-07-21T16:23:04.0000000+00:00</time></trkpt><trkpt lat="64.08895111" lon="-19.64392662"><ele>279.7</ele><time>2012-07-21T16:23:09.0000000+00:00</time></trkpt><trkpt lat="64.08895874" lon="-19.64378166"><ele>280.8</ele><time>2012-07-21T16:23:14.0000000+00:00</time></trkpt><trkpt lat="64.08896637" lon="-19.64362907"><ele>281.6</ele><time>2012-07-21T16:23:19.0000000+00:00</time></trkpt><trkpt lat="64.08895874" lon="-19.64348793"><ele>282.0</ele><time>2012-07-21T16:23:24.0000000+00:00</time></trkpt><trkpt lat="64.08896637" lon="-19.64336205"><ele>281.7</ele><time>2012-07-21T16:23:29.0000000+00:00</time></trkpt><trkpt lat="64.08895874" lon="-19.64317703"><ele>282.8</ele><time>2012-07-21T16:23:34.0000000+00:00</time></trkpt><trkpt lat="64.08893585" lon="-19.64303589"><ele>284.1</ele><time>2012-07-21T16:23:39.0000000+00:00</time></trkpt><trkpt lat="64.08891296" lon="-19.64286423"><ele>284.4</ele><time>2012-07-21T16:23:44.0000000+00:00</time></trkpt><trkpt lat="64.08889771" lon="-19.64267921"><ele>284.6</ele><time>2012-07-21T16:23:49.0000000+00:00</time></trkpt><trkpt lat="64.08887482" lon="-19.64253807"><ele>285.3</ele><time>2012-07-21T16:23:54.0000000+00:00</time></trkpt><trkpt lat="64.08885193" lon="-19.64247894"><ele>285.0</ele><time>2012-07-21T16:23:59.0000000+00:00</time></trkpt><trkpt lat="64.08882141" lon="-19.64236832"><ele>285.3</ele><time>2012-07-21T16:24:04.0000000+00:00</time></trkpt><trkpt lat="64.08876801" lon="-19.64226914"><ele>286.3</ele><time>2012-07-21T16:24:09.0000000+00:00</time></trkpt><trkpt lat="64.08873749" lon="-19.64214325"><ele>286.9</ele><time>2012-07-21T16:24:14.0000000+00:00</time></trkpt><trkpt lat="64.08869171" lon="-19.64201927"><ele>286.2</ele><time>2012-07-21T16:24:19.0000000+00:00</time></trkpt><trkpt lat="64.08865356" lon="-19.64187813"><ele>286.8</ele><time>2012-07-21T16:24:24.0000000+00:00</time></trkpt><trkpt lat="64.08860016" lon="-19.64173317"><ele>288.3</ele><time>2012-07-21T16:24:29.0000000+00:00</time></trkpt><trkpt lat="64.08855438" lon="-19.6415863"><ele>289.3</ele><time>2012-07-21T16:24:34.0000000+00:00</time></trkpt><trkpt lat="64.08850098" lon="-19.64148331"><ele>289.0</ele><time>2012-07-21T16:24:39.0000000+00:00</time></trkpt><trkpt lat="64.08850098" lon="-19.64149857"><ele>288.4</ele><time>2012-07-21T16:24:44.0000000+00:00</time></trkpt><trkpt lat="64.08850098" lon="-19.64150047"><ele>288.3</ele><time>2012-07-21T16:24:49.0000000+00:00</time></trkpt><trkpt lat="64.08850098" lon="-19.64150047"><ele>288.3</ele><time>2012-07-21T16:24:54.0000000+00:00</time></trkpt><trkpt lat="64.08850098" lon="-19.64150047"><ele>288.3</ele><time>2012-07-21T16:24:59.0000000+00:00</time></trkpt><trkpt lat="64.08850098" lon="-19.64150047"><ele>288.3</ele><time>2012-07-21T16:25:04.0000000+00:00</time></trkpt><trkpt lat="64.08850098" lon="-19.64150047"><ele>288.3</ele><time>2012-07-21T16:25:09.0000000+00:00</time></trkpt><trkpt lat="64.08850098" lon="-19.64150047"><ele>288.2</ele><time>2012-07-21T16:25:14.0000000+00:00</time></trkpt><trkpt lat="64.08850098" lon="-19.64150238"><ele>288.2</ele><time>2012-07-21T16:25:19.0000000+00:00</time></trkpt><trkpt lat="64.08849335" lon="-19.64149666"><ele>288.3</ele><time>2012-07-21T16:25:24.0000000+00:00</time></trkpt><trkpt lat="64.0884552" lon="-19.64135361"><ele>288.0</ele><time>2012-07-21T16:25:29.0000000+00:00</time></trkpt><trkpt lat="64.08841705" lon="-19.64112282"><ele>288.5</ele><time>2012-07-21T16:25:34.0000000+00:00</time></trkpt><trkpt lat="64.08836365" lon="-19.64092445"><ele>290.4</ele><time>2012-07-21T16:25:39.0000000+00:00</time></trkpt><trkpt lat="64.08831024" lon="-19.64070129"><ele>291.5</ele><time>2012-07-21T16:25:44.0000000+00:00</time></trkpt><trkpt lat="64.0882721" lon="-19.64048576"><ele>291.8</ele><time>2012-07-21T16:25:49.0000000+00:00</time></trkpt><trkpt lat="64.08824921" lon="-19.6402626"><ele>291.7</ele><time>2012-07-21T16:25:54.0000000+00:00</time></trkpt><trkpt lat="64.08824158" lon="-19.64006996"><ele>293.2</ele><time>2012-07-21T16:25:59.0000000+00:00</time></trkpt><trkpt lat="64.08822632" lon="-19.63990212"><ele>292.3</ele><time>2012-07-21T16:26:04.0000000+00:00</time></trkpt><trkpt lat="64.08820343" lon="-19.63971329"><ele>292.0</ele><time>2012-07-21T16:26:09.0000000+00:00</time></trkpt><trkpt lat="64.08817291" lon="-19.63959312"><ele>292.1</ele><time>2012-07-21T16:26:14.0000000+00:00</time></trkpt><trkpt lat="64.08813477" lon="-19.63946152"><ele>291.4</ele><time>2012-07-21T16:26:19.0000000+00:00</time></trkpt><trkpt lat="64.08810425" lon="-19.63932228"><ele>291.4</ele><time>2012-07-21T16:26:24.0000000+00:00</time></trkpt><trkpt lat="64.08808899" lon="-19.63915253"><ele>291.6</ele><time>2012-07-21T16:26:29.0000000+00:00</time></trkpt><trkpt lat="64.08807373" lon="-19.63897514"><ele>291.9</ele><time>2012-07-21T16:26:34.0000000+00:00</time></trkpt><trkpt lat="64.0880661" lon="-19.63882065"><ele>291.6</ele><time>2012-07-21T16:26:39.0000000+00:00</time></trkpt><trkpt lat="64.0880661" lon="-19.63865662"><ele>291.3</ele><time>2012-07-21T16:26:44.0000000+00:00</time></trkpt><trkpt lat="64.08805847" lon="-19.63848114"><ele>291.0</ele><time>2012-07-21T16:26:49.0000000+00:00</time></trkpt><trkpt lat="64.08805084" lon="-19.63829422"><ele>291.7</ele><time>2012-07-21T16:26:54.0000000+00:00</time></trkpt><trkpt lat="64.08804321" lon="-19.63812637"><ele>292.5</ele><time>2012-07-21T16:26:59.0000000+00:00</time></trkpt><trkpt lat="64.08802795" lon="-19.63796043"><ele>293.3</ele><time>2012-07-21T16:27:04.0000000+00:00</time></trkpt><trkpt lat="64.0880127" lon="-19.63783264"><ele>293.7</ele><time>2012-07-21T16:27:09.0000000+00:00</time></trkpt><trkpt lat="64.08798981" lon="-19.63767242"><ele>293.9</ele><time>2012-07-21T16:27:14.0000000+00:00</time></trkpt><trkpt lat="64.08795166" lon="-19.63753891"><ele>294.5</ele><time>2012-07-21T16:27:19.0000000+00:00</time></trkpt><trkpt lat="64.08791351" lon="-19.63739204"><ele>295.5</ele><time>2012-07-21T16:27:24.0000000+00:00</time></trkpt><trkpt lat="64.08786011" lon="-19.63724327"><ele>295.5</ele><time>2012-07-21T16:27:29.0000000+00:00</time></trkpt><trkpt lat="64.08779907" lon="-19.63708496"><ele>294.4</ele><time>2012-07-21T16:27:34.0000000+00:00</time></trkpt><trkpt lat="64.08773804" lon="-19.63693428"><ele>293.4</ele><time>2012-07-21T16:27:39.0000000+00:00</time></trkpt><trkpt lat="64.08769226" lon="-19.63679695"><ele>293.5</ele><time>2012-07-21T16:27:44.0000000+00:00</time></trkpt><trkpt lat="64.08763123" lon="-19.63664436"><ele>292.7</ele><time>2012-07-21T16:27:49.0000000+00:00</time></trkpt><trkpt lat="64.08757782" lon="-19.63648796"><ele>292.7</ele><time>2012-07-21T16:27:54.0000000+00:00</time></trkpt><trkpt lat="64.08752441" lon="-19.6363411"><ele>292.9</ele><time>2012-07-21T16:27:59.0000000+00:00</time></trkpt><trkpt lat="64.08747101" lon="-19.63618469"><ele>293.1</ele><time>2012-07-21T16:28:04.0000000+00:00</time></trkpt><trkpt lat="64.08742523" lon="-19.63605499"><ele>293.4</ele><time>2012-07-21T16:28:09.0000000+00:00</time></trkpt><trkpt lat="64.08739471" lon="-19.63593483"><ele>293.7</ele><time>2012-07-21T16:28:14.0000000+00:00</time></trkpt><trkpt lat="64.08735657" lon="-19.63580322"><ele>295.1</ele><time>2012-07-21T16:28:19.0000000+00:00</time></trkpt><trkpt lat="64.08731079" lon="-19.63564873"><ele>295.8</ele><time>2012-07-21T16:28:24.0000000+00:00</time></trkpt><trkpt lat="64.08726502" lon="-19.63552475"><ele>297.1</ele><time>2012-07-21T16:28:29.0000000+00:00</time></trkpt><trkpt lat="64.08722687" lon="-19.63541222"><ele>297.5</ele><time>2012-07-21T16:28:34.0000000+00:00</time></trkpt><trkpt lat="64.08718109" lon="-19.6353817"><ele>297.2</ele><time>2012-07-21T16:28:39.0000000+00:00</time></trkpt><trkpt lat="64.08718109" lon="-19.63537788"><ele>297.3</ele><time>2012-07-21T16:28:44.0000000+00:00</time></trkpt><trkpt lat="64.08718109" lon="-19.63537598"><ele>297.2</ele><time>2012-07-21T16:28:49.0000000+00:00</time></trkpt><trkpt lat="64.08718109" lon="-19.63537407"><ele>297.2</ele><time>2012-07-21T16:28:54.0000000+00:00</time></trkpt><trkpt lat="64.08718109" lon="-19.63537407"><ele>297.2</ele><time>2012-07-21T16:28:59.0000000+00:00</time></trkpt><trkpt lat="64.08718109" lon="-19.63537407"><ele>297.2</ele><time>2012-07-21T16:29:04.0000000+00:00</time></trkpt><trkpt lat="64.08718109" lon="-19.63537407"><ele>297.2</ele><time>2012-07-21T16:29:09.0000000+00:00</time></trkpt><trkpt lat="64.08718109" lon="-19.63537407"><ele>297.2</ele><time>2012-07-21T16:29:14.0000000+00:00</time></trkpt><trkpt lat="64.08718109" lon="-19.63537407"><ele>297.2</ele><time>2012-07-21T16:29:19.0000000+00:00</time></trkpt><trkpt lat="64.08718109" lon="-19.63537407"><ele>297.2</ele><time>2012-07-21T16:29:24.0000000+00:00</time></trkpt><trkpt lat="64.08718109" lon="-19.63537407"><ele>297.2</ele><time>2012-07-21T16:29:29.0000000+00:00</time></trkpt><trkpt lat="64.08718109" lon="-19.63537407"><ele>297.2</ele><time>2012-07-21T16:29:34.0000000+00:00</time></trkpt><trkpt lat="64.08718109" lon="-19.63537407"><ele>297.2</ele><time>2012-07-21T16:29:39.0000000+00:00</time></trkpt><trkpt lat="64.08718109" lon="-19.63537407"><ele>297.2</ele><time>2012-07-21T16:29:44.0000000+00:00</time></trkpt><trkpt lat="64.08718109" lon="-19.63537407"><ele>297.2</ele><time>2012-07-21T16:29:49.0000000+00:00</time></trkpt><trkpt lat="64.08718109" lon="-19.63537407"><ele>297.2</ele><time>2012-07-21T16:29:54.0000000+00:00</time></trkpt><trkpt lat="64.08718109" lon="-19.63537407"><ele>297.2</ele><time>2012-07-21T16:29:59.0000000+00:00</time></trkpt><trkpt lat="64.08718109" lon="-19.63537216"><ele>297.2</ele><time>2012-07-21T16:30:04.0000000+00:00</time></trkpt><trkpt lat="64.08718109" lon="-19.63536835"><ele>297.2</ele><time>2012-07-21T16:30:09.0000000+00:00</time></trkpt><trkpt lat="64.08714294" lon="-19.63522339"><ele>297.2</ele><time>2012-07-21T16:30:14.0000000+00:00</time></trkpt><trkpt lat="64.08708954" lon="-19.63505745"><ele>297.3</ele><time>2012-07-21T16:30:19.0000000+00:00</time></trkpt><trkpt lat="64.08703613" lon="-19.63489151"><ele>297.2</ele><time>2012-07-21T16:30:24.0000000+00:00</time></trkpt><trkpt lat="64.08698273" lon="-19.63474274"><ele>296.1</ele><time>2012-07-21T16:30:29.0000000+00:00</time></trkpt><trkpt lat="64.08695221" lon="-19.63460159"><ele>295.9</ele><time>2012-07-21T16:30:34.0000000+00:00</time></trkpt><trkpt lat="64.08692169" lon="-19.63444138"><ele>296.4</ele><time>2012-07-21T16:30:39.0000000+00:00</time></trkpt><trkpt lat="64.0868988" lon="-19.6342392"><ele>296.2</ele><time>2012-07-21T16:30:44.0000000+00:00</time></trkpt><trkpt lat="64.08688355" lon="-19.63406181"><ele>296.3</ele><time>2012-07-21T16:30:49.0000000+00:00</time></trkpt><trkpt lat="64.08688355" lon="-19.6338768"><ele>297.3</ele><time>2012-07-21T16:30:54.0000000+00:00</time></trkpt><trkpt lat="64.08689117" lon="-19.63365936"><ele>296.9</ele><time>2012-07-21T16:30:59.0000000+00:00</time></trkpt><trkpt lat="64.0868988" lon="-19.63344574"><ele>298.2</ele><time>2012-07-21T16:31:04.0000000+00:00</time></trkpt><trkpt lat="64.08690643" lon="-19.63322067"><ele>298.6</ele><time>2012-07-21T16:31:09.0000000+00:00</time></trkpt><trkpt lat="64.08691406" lon="-19.63300705"><ele>298.3</ele><time>2012-07-21T16:31:14.0000000+00:00</time></trkpt><trkpt lat="64.08691406" lon="-19.63285065"><ele>298.3</ele><time>2012-07-21T16:31:19.0000000+00:00</time></trkpt><trkpt lat="64.08692169" lon="-19.63266373"><ele>297.7</ele><time>2012-07-21T16:31:24.0000000+00:00</time></trkpt><trkpt lat="64.08692169" lon="-19.63246727"><ele>297.7</ele><time>2012-07-21T16:31:29.0000000+00:00</time></trkpt><trkpt lat="64.08692932" lon="-19.63228989"><ele>297.4</ele><time>2012-07-21T16:31:34.0000000+00:00</time></trkpt><trkpt lat="64.08692169" lon="-19.63216019"><ele>297.4</ele><time>2012-07-21T16:31:39.0000000+00:00</time></trkpt><trkpt lat="64.08692169" lon="-19.63196373"><ele>297.8</ele><time>2012-07-21T16:31:44.0000000+00:00</time></trkpt><trkpt lat="64.08692169" lon="-19.63175392"><ele>297.9</ele><time>2012-07-21T16:31:49.0000000+00:00</time></trkpt><trkpt lat="64.08692169" lon="-19.6315937"><ele>299.1</ele><time>2012-07-21T16:31:54.0000000+00:00</time></trkpt><trkpt lat="64.08694458" lon="-19.63144493"><ele>300.1</ele><time>2012-07-21T16:31:59.0000000+00:00</time></trkpt><trkpt lat="64.08695221" lon="-19.63125992"><ele>301.4</ele><time>2012-07-21T16:32:04.0000000+00:00</time></trkpt><trkpt lat="64.08694458" lon="-19.63105583"><ele>302.0</ele><time>2012-07-21T16:32:09.0000000+00:00</time></trkpt><trkpt lat="64.08691406" lon="-19.63086319"><ele>302.1</ele><time>2012-07-21T16:32:14.0000000+00:00</time></trkpt><trkpt lat="64.08686829" lon="-19.63069153"><ele>302.8</ele><time>2012-07-21T16:32:19.0000000+00:00</time></trkpt><trkpt lat="64.08682251" lon="-19.63052368"><ele>303.0</ele><time>2012-07-21T16:32:24.0000000+00:00</time></trkpt><trkpt lat="64.0867691" lon="-19.63038254"><ele>303.6</ele><time>2012-07-21T16:32:29.0000000+00:00</time></trkpt><trkpt lat="64.0867157" lon="-19.6302433"><ele>303.8</ele><time>2012-07-21T16:32:34.0000000+00:00</time></trkpt><trkpt lat="64.08664703" lon="-19.63010788"><ele>304.0</ele><time>2012-07-21T16:32:39.0000000+00:00</time></trkpt><trkpt lat="64.08660126" lon="-19.62997818"><ele>304.1</ele><time>2012-07-21T16:32:44.0000000+00:00</time></trkpt><trkpt lat="64.08654022" lon="-19.62985992"><ele>304.4</ele><time>2012-07-21T16:32:49.0000000+00:00</time></trkpt><trkpt lat="64.08648682" lon="-19.62974358"><ele>304.5</ele><time>2012-07-21T16:32:54.0000000+00:00</time></trkpt><trkpt lat="64.08643341" lon="-19.62963295"><ele>304.7</ele><time>2012-07-21T16:32:59.0000000+00:00</time></trkpt><trkpt lat="64.08638001" lon="-19.62952805"><ele>305.5</ele><time>2012-07-21T16:33:04.0000000+00:00</time></trkpt><trkpt lat="64.08631897" lon="-19.62940216"><ele>306.2</ele><time>2012-07-21T16:33:09.0000000+00:00</time></trkpt><trkpt lat="64.08627319" lon="-19.62932777"><ele>306.5</ele><time>2012-07-21T16:33:14.0000000+00:00</time></trkpt><trkpt lat="64.08621216" lon="-19.6292038"><ele>306.9</ele><time>2012-07-21T16:33:19.0000000+00:00</time></trkpt><trkpt lat="64.08615875" lon="-19.62907028"><ele>307.0</ele><time>2012-07-21T16:33:24.0000000+00:00</time></trkpt><trkpt lat="64.08609772" lon="-19.62896347"><ele>306.9</ele><time>2012-07-21T16:33:29.0000000+00:00</time></trkpt><trkpt lat="64.08609009" lon="-19.62895775"><ele>307.0</ele><time>2012-07-21T16:33:34.0000000+00:00</time></trkpt><trkpt lat="64.08609009" lon="-19.62895775"><ele>306.9</ele><time>2012-07-21T16:33:39.0000000+00:00</time></trkpt><trkpt lat="64.08609009" lon="-19.62895584"><ele>306.9</ele><time>2012-07-21T16:33:44.0000000+00:00</time></trkpt><trkpt lat="64.08609009" lon="-19.62895584"><ele>306.9</ele><time>2012-07-21T16:33:49.0000000+00:00</time></trkpt><trkpt lat="64.08609009" lon="-19.62895584"><ele>306.9</ele><time>2012-07-21T16:33:54.0000000+00:00</time></trkpt><trkpt lat="64.08609009" lon="-19.62895584"><ele>306.9</ele><time>2012-07-21T16:33:59.0000000+00:00</time></trkpt><trkpt lat="64.08609009" lon="-19.62895584"><ele>306.9</ele><time>2012-07-21T16:34:04.0000000+00:00</time></trkpt><trkpt lat="64.08608246" lon="-19.62892532"><ele>306.9</ele><time>2012-07-21T16:34:09.0000000+00:00</time></trkpt><trkpt lat="64.08603668" lon="-19.62882423"><ele>307.1</ele><time>2012-07-21T16:34:14.0000000+00:00</time></trkpt><trkpt lat="64.08598328" lon="-19.628685"><ele>307.4</ele><time>2012-07-21T16:34:19.0000000+00:00</time></trkpt><trkpt lat="64.08592987" lon="-19.62854576"><ele>307.8</ele><time>2012-07-21T16:34:24.0000000+00:00</time></trkpt><trkpt lat="64.08589172" lon="-19.62841034"><ele>307.8</ele><time>2012-07-21T16:34:29.0000000+00:00</time></trkpt><trkpt lat="64.08586121" lon="-19.62826538"><ele>308.2</ele><time>2012-07-21T16:34:34.0000000+00:00</time></trkpt><trkpt lat="64.08582306" lon="-19.62811279"><ele>308.1</ele><time>2012-07-21T16:34:39.0000000+00:00</time></trkpt><trkpt lat="64.08578491" lon="-19.62795258"><ele>309.4</ele><time>2012-07-21T16:34:44.0000000+00:00</time></trkpt><trkpt lat="64.0857544" lon="-19.62778282"><ele>309.4</ele><time>2012-07-21T16:34:49.0000000+00:00</time></trkpt><trkpt lat="64.08573914" lon="-19.62762642"><ele>308.6</ele><time>2012-07-21T16:34:54.0000000+00:00</time></trkpt><trkpt lat="64.08572388" lon="-19.62744713"><ele>308.4</ele><time>2012-07-21T16:34:59.0000000+00:00</time></trkpt><trkpt lat="64.08570099" lon="-19.627285"><ele>307.7</ele><time>2012-07-21T16:35:04.0000000+00:00</time></trkpt><trkpt lat="64.08570862" lon="-19.62714195"><ele>307.5</ele><time>2012-07-21T16:35:09.0000000+00:00</time></trkpt><trkpt lat="64.08571625" lon="-19.6269455"><ele>307.5</ele><time>2012-07-21T16:35:14.0000000+00:00</time></trkpt><trkpt lat="64.08571625" lon="-19.62675858"><ele>306.6</ele><time>2012-07-21T16:35:19.0000000+00:00</time></trkpt><trkpt lat="64.08572388" lon="-19.62658882"><ele>305.7</ele><time>2012-07-21T16:35:24.0000000+00:00</time></trkpt><trkpt lat="64.08573914" lon="-19.62638855"><ele>305.4</ele><time>2012-07-21T16:35:29.0000000+00:00</time></trkpt><trkpt lat="64.08573914" lon="-19.62621689"><ele>305.2</ele><time>2012-07-21T16:35:34.0000000+00:00</time></trkpt><trkpt lat="64.08572388" lon="-19.62603951"><ele>305.0</ele><time>2012-07-21T16:35:39.0000000+00:00</time></trkpt><trkpt lat="64.08571625" lon="-19.62586403"><ele>305.1</ele><time>2012-07-21T16:35:44.0000000+00:00</time></trkpt><trkpt lat="64.08570862" lon="-19.62566185"><ele>305.8</ele><time>2012-07-21T16:35:49.0000000+00:00</time></trkpt><trkpt lat="64.08569336" lon="-19.62546921"><ele>306.7</ele><time>2012-07-21T16:35:54.0000000+00:00</time></trkpt><trkpt lat="64.08568573" lon="-19.62533951"><ele>308.4</ele><time>2012-07-21T16:35:59.0000000+00:00</time></trkpt><trkpt lat="64.08568573" lon="-19.62519836"><ele>309.4</ele><time>2012-07-21T16:36:04.0000000+00:00</time></trkpt><trkpt lat="64.0856781" lon="-19.62507057"><ele>311.0</ele><time>2012-07-21T16:36:09.0000000+00:00</time></trkpt><trkpt lat="64.08565521" lon="-19.62494087"><ele>312.2</ele><time>2012-07-21T16:36:14.0000000+00:00</time></trkpt><trkpt lat="64.08563995" lon="-19.62479591"><ele>313.1</ele><time>2012-07-21T16:36:19.0000000+00:00</time></trkpt><trkpt lat="64.0856247" lon="-19.62461472"><ele>312.2</ele><time>2012-07-21T16:36:24.0000000+00:00</time></trkpt><trkpt lat="64.0856247" lon="-19.62443161"><ele>312.6</ele><time>2012-07-21T16:36:29.0000000+00:00</time></trkpt><trkpt lat="64.0856247" lon="-19.62422371"><ele>311.6</ele><time>2012-07-21T16:36:34.0000000+00:00</time></trkpt><trkpt lat="64.0856247" lon="-19.62404442"><ele>311.5</ele><time>2012-07-21T16:36:39.0000000+00:00</time></trkpt><trkpt lat="64.08564758" lon="-19.62394524"><ele>312.4</ele><time>2012-07-21T16:36:44.0000000+00:00</time></trkpt><trkpt lat="64.08564758" lon="-19.62376213"><ele>312.4</ele><time>2012-07-21T16:36:49.0000000+00:00</time></trkpt><trkpt lat="64.08565521" lon="-19.62356186"><ele>312.7</ele><time>2012-07-21T16:36:54.0000000+00:00</time></trkpt><trkpt lat="64.08565521" lon="-19.6233635"><ele>313.7</ele><time>2012-07-21T16:36:59.0000000+00:00</time></trkpt><trkpt lat="64.08565521" lon="-19.62314415"><ele>314.1</ele><time>2012-07-21T16:37:04.0000000+00:00</time></trkpt><trkpt lat="64.08564758" lon="-19.62301445"><ele>314.4</ele><time>2012-07-21T16:37:09.0000000+00:00</time></trkpt><trkpt lat="64.08563995" lon="-19.62286186"><ele>315.1</ele><time>2012-07-21T16:37:14.0000000+00:00</time></trkpt><trkpt lat="64.08564758" lon="-19.62269592"><ele>315.1</ele><time>2012-07-21T16:37:19.0000000+00:00</time></trkpt><trkpt lat="64.08564758" lon="-19.62252808"><ele>314.4</ele><time>2012-07-21T16:37:24.0000000+00:00</time></trkpt><trkpt lat="64.08563232" lon="-19.62233543"><ele>313.5</ele><time>2012-07-21T16:37:29.0000000+00:00</time></trkpt><trkpt lat="64.08561707" lon="-19.62213326"><ele>313.5</ele><time>2012-07-21T16:37:34.0000000+00:00</time></trkpt><trkpt lat="64.08559418" lon="-19.62195015"><ele>314.2</ele><time>2012-07-21T16:37:39.0000000+00:00</time></trkpt><trkpt lat="64.08557892" lon="-19.62177086"><ele>314.5</ele><time>2012-07-21T16:37:44.0000000+00:00</time></trkpt><trkpt lat="64.08556366" lon="-19.62160301"><ele>314.9</ele><time>2012-07-21T16:37:49.0000000+00:00</time></trkpt><trkpt lat="64.08554077" lon="-19.62143898"><ele>313.3</ele><time>2012-07-21T16:37:54.0000000+00:00</time></trkpt><trkpt lat="64.08553314" lon="-19.62126923"><ele>312.7</ele><time>2012-07-21T16:37:59.0000000+00:00</time></trkpt><trkpt lat="64.08551788" lon="-19.62111473"><ele>313.0</ele><time>2012-07-21T16:38:04.0000000+00:00</time></trkpt><trkpt lat="64.08550263" lon="-19.6209507"><ele>313.7</ele><time>2012-07-21T16:38:09.0000000+00:00</time></trkpt><trkpt lat="64.08548737" lon="-19.62075996"><ele>313.4</ele><time>2012-07-21T16:38:14.0000000+00:00</time></trkpt><trkpt lat="64.08547211" lon="-19.6205864"><ele>313.1</ele><time>2012-07-21T16:38:19.0000000+00:00</time></trkpt><trkpt lat="64.08546448" lon="-19.62043762"><ele>314.3</ele><time>2012-07-21T16:38:24.0000000+00:00</time></trkpt><trkpt lat="64.08544159" lon="-19.62026215"><ele>313.6</ele><time>2012-07-21T16:38:29.0000000+00:00</time></trkpt><trkpt lat="64.08542633" lon="-19.62008858"><ele>313.2</ele><time>2012-07-21T16:38:34.0000000+00:00</time></trkpt><trkpt lat="64.08538818" lon="-19.61992073"><ele>313.4</ele><time>2012-07-21T16:38:39.0000000+00:00</time></trkpt><trkpt lat="64.08538055" lon="-19.61975098"><ele>313.8</ele><time>2012-07-21T16:38:44.0000000+00:00</time></trkpt><trkpt lat="64.0853653" lon="-19.61961365"><ele>314.3</ele><time>2012-07-21T16:38:49.0000000+00:00</time></trkpt><trkpt lat="64.08533478" lon="-19.61952782"><ele>314.3</ele><time>2012-07-21T16:38:54.0000000+00:00</time></trkpt><trkpt lat="64.08531189" lon="-19.61937332"><ele>313.4</ele><time>2012-07-21T16:38:59.0000000+00:00</time></trkpt><trkpt lat="64.085289" lon="-19.61921501"><ele>314.1</ele><time>2012-07-21T16:39:04.0000000+00:00</time></trkpt><trkpt lat="64.08526611" lon="-19.61903763"><ele>314.4</ele><time>2012-07-21T16:39:09.0000000+00:00</time></trkpt><trkpt lat="64.08525085" lon="-19.61886025"><ele>314.8</ele><time>2012-07-21T16:39:14.0000000+00:00</time></trkpt><trkpt lat="64.0852356" lon="-19.61868286"><ele>315.1</ele><time>2012-07-21T16:39:19.0000000+00:00</time></trkpt><trkpt lat="64.08522034" lon="-19.61852074"><ele>315.7</ele><time>2012-07-21T16:39:24.0000000+00:00</time></trkpt><trkpt lat="64.08521271" lon="-19.61835671"><ele>315.5</ele><time>2012-07-21T16:39:29.0000000+00:00</time></trkpt><trkpt lat="64.08518982" lon="-19.6181984"><ele>315.7</ele><time>2012-07-21T16:39:34.0000000+00:00</time></trkpt><trkpt lat="64.08517456" lon="-19.61804199"><ele>316.2</ele><time>2012-07-21T16:39:39.0000000+00:00</time></trkpt><trkpt lat="64.08515167" lon="-19.61786461"><ele>316.4</ele><time>2012-07-21T16:39:44.0000000+00:00</time></trkpt><trkpt lat="64.08513641" lon="-19.61768341"><ele>317.7</ele><time>2012-07-21T16:39:49.0000000+00:00</time></trkpt><trkpt lat="64.08512116" lon="-19.61760902"><ele>317.8</ele><time>2012-07-21T16:39:54.0000000+00:00</time></trkpt><trkpt lat="64.08512116" lon="-19.61761475"><ele>318.0</ele><time>2012-07-21T16:39:59.0000000+00:00</time></trkpt><trkpt lat="64.08512116" lon="-19.61761284"><ele>318.1</ele><time>2012-07-21T16:40:04.0000000+00:00</time></trkpt><trkpt lat="64.08512116" lon="-19.61760521"><ele>318.3</ele><time>2012-07-21T16:40:09.0000000+00:00</time></trkpt><trkpt lat="64.08512116" lon="-19.6175766"><ele>317.6</ele><time>2012-07-21T16:40:14.0000000+00:00</time></trkpt><trkpt lat="64.08509827" lon="-19.6174717"><ele>317.3</ele><time>2012-07-21T16:40:19.0000000+00:00</time></trkpt><trkpt lat="64.08508301" lon="-19.61730576"><ele>318.1</ele><time>2012-07-21T16:40:24.0000000+00:00</time></trkpt><trkpt lat="64.08506775" lon="-19.61715126"><ele>319.6</ele><time>2012-07-21T16:40:29.0000000+00:00</time></trkpt><trkpt lat="64.08505249" lon="-19.61695671"><ele>320.6</ele><time>2012-07-21T16:40:34.0000000+00:00</time></trkpt><trkpt lat="64.08503723" lon="-19.61675644"><ele>321.3</ele><time>2012-07-21T16:40:39.0000000+00:00</time></trkpt><trkpt lat="64.08501434" lon="-19.61660767"><ele>322.6</ele><time>2012-07-21T16:40:44.0000000+00:00</time></trkpt><trkpt lat="64.08501434" lon="-19.61660957"><ele>323.0</ele><time>2012-07-21T16:40:49.0000000+00:00</time></trkpt><trkpt lat="64.08503723" lon="-19.61649132"><ele>324.6</ele><time>2012-07-21T16:40:54.0000000+00:00</time></trkpt><trkpt lat="64.08502197" lon="-19.61635208"><ele>324.6</ele><time>2012-07-21T16:40:59.0000000+00:00</time></trkpt><trkpt lat="64.08501434" lon="-19.61630058"><ele>324.0</ele><time>2012-07-21T16:41:04.0000000+00:00</time></trkpt><trkpt lat="64.08501434" lon="-19.61630631"><ele>323.8</ele><time>2012-07-21T16:41:09.0000000+00:00</time></trkpt><trkpt lat="64.08501434" lon="-19.61630631"><ele>323.8</ele><time>2012-07-21T16:41:14.0000000+00:00</time></trkpt><trkpt lat="64.08501434" lon="-19.61630631"><ele>323.8</ele><time>2012-07-21T16:41:19.0000000+00:00</time></trkpt><trkpt lat="64.08501434" lon="-19.61630631"><ele>323.8</ele><time>2012-07-21T16:41:24.0000000+00:00</time></trkpt><trkpt lat="64.08501434" lon="-19.61630821"><ele>323.8</ele><time>2012-07-21T16:41:29.0000000+00:00</time></trkpt><trkpt lat="64.08501434" lon="-19.61630821"><ele>323.8</ele><time>2012-07-21T16:41:34.0000000+00:00</time></trkpt><trkpt lat="64.08500671" lon="-19.61629677"><ele>323.9</ele><time>2012-07-21T16:41:39.0000000+00:00</time></trkpt><trkpt lat="64.08501434" lon="-19.61629295"><ele>323.9</ele><time>2012-07-21T16:41:44.0000000+00:00</time></trkpt><trkpt lat="64.08501434" lon="-19.61629295"><ele>323.9</ele><time>2012-07-21T16:41:49.0000000+00:00</time></trkpt><trkpt lat="64.08501434" lon="-19.61629295"><ele>323.9</ele><time>2012-07-21T16:41:54.0000000+00:00</time></trkpt><trkpt lat="64.08501434" lon="-19.61629295"><ele>323.9</ele><time>2012-07-21T16:41:59.0000000+00:00</time></trkpt><trkpt lat="64.08501434" lon="-19.61629295"><ele>323.9</ele><time>2012-07-21T16:42:04.0000000+00:00</time></trkpt><trkpt lat="64.08501434" lon="-19.61629295"><ele>323.9</ele><time>2012-07-21T16:42:09.0000000+00:00</time></trkpt><trkpt lat="64.08501434" lon="-19.61629295"><ele>323.9</ele><time>2012-07-21T16:42:14.0000000+00:00</time></trkpt><trkpt lat="64.08501434" lon="-19.61629295"><ele>323.9</ele><time>2012-07-21T16:42:19.0000000+00:00</time></trkpt><trkpt lat="64.08501434" lon="-19.61629295"><ele>323.8</ele><time>2012-07-21T16:42:24.0000000+00:00</time></trkpt><trkpt lat="64.08501434" lon="-19.61629295"><ele>323.8</ele><time>2012-07-21T16:42:29.0000000+00:00</time></trkpt><trkpt lat="64.08501434" lon="-19.61629295"><ele>323.8</ele><time>2012-07-21T16:42:34.0000000+00:00</time></trkpt><trkpt lat="64.08501434" lon="-19.61629486"><ele>323.8</ele><time>2012-07-21T16:42:39.0000000+00:00</time></trkpt><trkpt lat="64.08501434" lon="-19.61629486"><ele>323.8</ele><time>2012-07-21T16:42:44.0000000+00:00</time></trkpt><trkpt lat="64.08501434" lon="-19.61629486"><ele>323.8</ele><time>2012-07-21T16:42:49.0000000+00:00</time></trkpt><trkpt lat="64.08501434" lon="-19.61629486"><ele>323.8</ele><time>2012-07-21T16:42:54.0000000+00:00</time></trkpt><trkpt lat="64.08501434" lon="-19.61629486"><ele>323.8</ele><time>2012-07-21T16:42:59.0000000+00:00</time></trkpt><trkpt lat="64.08501434" lon="-19.61629486"><ele>323.8</ele><time>2012-07-21T16:43:04.0000000+00:00</time></trkpt><trkpt lat="64.08501434" lon="-19.61629486"><ele>323.8</ele><time>2012-07-21T16:43:09.0000000+00:00</time></trkpt><trkpt lat="64.08501434" lon="-19.61629486"><ele>323.8</ele><time>2012-07-21T16:43:14.0000000+00:00</time></trkpt><trkpt lat="64.08501434" lon="-19.61629486"><ele>323.8</ele><time>2012-07-21T16:43:19.0000000+00:00</time></trkpt><trkpt lat="64.0850296" lon="-19.61621857"><ele>323.8</ele><time>2012-07-21T16:43:24.0000000+00:00</time></trkpt><trkpt lat="64.08504486" lon="-19.61612511"><ele>324.4</ele><time>2012-07-21T16:43:29.0000000+00:00</time></trkpt><trkpt lat="64.08503723" lon="-19.61603546"><ele>324.1</ele><time>2012-07-21T16:43:34.0000000+00:00</time></trkpt><trkpt lat="64.08506012" lon="-19.61589241"><ele>324.7</ele><time>2012-07-21T16:43:39.0000000+00:00</time></trkpt><trkpt lat="64.08505249" lon="-19.61573601"><ele>324.7</ele><time>2012-07-21T16:43:44.0000000+00:00</time></trkpt><trkpt lat="64.08504486" lon="-19.61555672"><ele>324.4</ele><time>2012-07-21T16:43:49.0000000+00:00</time></trkpt><trkpt lat="64.08505249" lon="-19.61533546"><ele>323.9</ele><time>2012-07-21T16:43:54.0000000+00:00</time></trkpt><trkpt lat="64.08506012" lon="-19.61515427"><ele>323.8</ele><time>2012-07-21T16:43:59.0000000+00:00</time></trkpt><trkpt lat="64.08504486" lon="-19.61497116"><ele>323.7</ele><time>2012-07-21T16:44:04.0000000+00:00</time></trkpt><trkpt lat="64.08503723" lon="-19.61483002"><ele>324.0</ele><time>2012-07-21T16:44:09.0000000+00:00</time></trkpt><trkpt lat="64.08502197" lon="-19.61472511"><ele>322.5</ele><time>2012-07-21T16:44:14.0000000+00:00</time></trkpt><trkpt lat="64.08499908" lon="-19.61458588"><ele>322.7</ele><time>2012-07-21T16:44:19.0000000+00:00</time></trkpt><trkpt lat="64.08496857" lon="-19.61447525"><ele>323.2</ele><time>2012-07-21T16:44:24.0000000+00:00</time></trkpt><trkpt lat="64.08493805" lon="-19.61435509"><ele>323.4</ele><time>2012-07-21T16:44:29.0000000+00:00</time></trkpt><trkpt lat="64.08491516" lon="-19.61423874"><ele>323.7</ele><time>2012-07-21T16:44:34.0000000+00:00</time></trkpt><trkpt lat="64.08489227" lon="-19.61412239"><ele>323.9</ele><time>2012-07-21T16:44:39.0000000+00:00</time></trkpt><trkpt lat="64.08486939" lon="-19.61400223"><ele>324.2</ele><time>2012-07-21T16:44:44.0000000+00:00</time></trkpt><trkpt lat="64.08486176" lon="-19.61385155"><ele>323.8</ele><time>2012-07-21T16:44:49.0000000+00:00</time></trkpt><trkpt lat="64.0848465" lon="-19.61369896"><ele>324.4</ele><time>2012-07-21T16:44:54.0000000+00:00</time></trkpt><trkpt lat="64.08483124" lon="-19.61354256"><ele>325.3</ele><time>2012-07-21T16:44:59.0000000+00:00</time></trkpt><trkpt lat="64.08481598" lon="-19.61340141"><ele>325.8</ele><time>2012-07-21T16:45:04.0000000+00:00</time></trkpt><trkpt lat="64.08479309" lon="-19.6132412"><ele>326.5</ele><time>2012-07-21T16:45:09.0000000+00:00</time></trkpt><trkpt lat="64.0847702" lon="-19.61307907"><ele>326.8</ele><time>2012-07-21T16:45:14.0000000+00:00</time></trkpt><trkpt lat="64.08475494" lon="-19.6129055"><ele>326.6</ele><time>2012-07-21T16:45:19.0000000+00:00</time></trkpt><trkpt lat="64.08475494" lon="-19.61285591"><ele>326.3</ele><time>2012-07-21T16:45:24.0000000+00:00</time></trkpt><trkpt lat="64.08474731" lon="-19.61283684"><ele>326.1</ele><time>2012-07-21T16:45:29.0000000+00:00</time></trkpt><trkpt lat="64.08473206" lon="-19.61274147"><ele>326.4</ele><time>2012-07-21T16:45:34.0000000+00:00</time></trkpt><trkpt lat="64.0847168" lon="-19.61263847"><ele>326.9</ele><time>2012-07-21T16:45:39.0000000+00:00</time></trkpt><trkpt lat="64.0847168" lon="-19.61254883"><ele>327.5</ele><time>2012-07-21T16:45:44.0000000+00:00</time></trkpt><trkpt lat="64.0847168" lon="-19.61250496"><ele>328.1</ele><time>2012-07-21T16:45:49.0000000+00:00</time></trkpt><trkpt lat="64.08470154" lon="-19.61243248"><ele>328.6</ele><time>2012-07-21T16:45:54.0000000+00:00</time></trkpt><trkpt lat="64.08469391" lon="-19.61234856"><ele>328.5</ele><time>2012-07-21T16:45:59.0000000+00:00</time></trkpt><trkpt lat="64.08468628" lon="-19.61226273"><ele>328.7</ele><time>2012-07-21T16:46:04.0000000+00:00</time></trkpt><trkpt lat="64.08467865" lon="-19.61216545"><ele>329.2</ele><time>2012-07-21T16:46:09.0000000+00:00</time></trkpt><trkpt lat="64.08467102" lon="-19.61208916"><ele>329.2</ele><time>2012-07-21T16:46:14.0000000+00:00</time></trkpt><trkpt lat="64.08466339" lon="-19.61200905"><ele>329.7</ele><time>2012-07-21T16:46:19.0000000+00:00</time></trkpt><trkpt lat="64.0846405" lon="-19.61194801"><ele>330.2</ele><time>2012-07-21T16:46:24.0000000+00:00</time></trkpt><trkpt lat="64.08463287" lon="-19.61186409"><ele>330.5</ele><time>2012-07-21T16:46:29.0000000+00:00</time></trkpt><trkpt lat="64.08462524" lon="-19.61177635"><ele>330.9</ele><time>2012-07-21T16:46:34.0000000+00:00</time></trkpt><trkpt lat="64.08460999" lon="-19.61167526"><ele>331.3</ele><time>2012-07-21T16:46:39.0000000+00:00</time></trkpt><trkpt lat="64.08460999" lon="-19.61160851"><ele>331.7</ele><time>2012-07-21T16:46:44.0000000+00:00</time></trkpt><trkpt lat="64.08460999" lon="-19.61156845"><ele>331.7</ele><time>2012-07-21T16:46:49.0000000+00:00</time></trkpt><trkpt lat="64.08460236" lon="-19.6114502"><ele>331.0</ele><time>2012-07-21T16:46:54.0000000+00:00</time></trkpt><trkpt lat="64.08459473" lon="-19.61133575"><ele>331.3</ele><time>2012-07-21T16:46:59.0000000+00:00</time></trkpt><trkpt lat="64.08457947" lon="-19.61121368"><ele>331.5</ele><time>2012-07-21T16:47:04.0000000+00:00</time></trkpt><trkpt lat="64.08456421" lon="-19.61110115"><ele>332.1</ele><time>2012-07-21T16:47:09.0000000+00:00</time></trkpt><trkpt lat="64.08454132" lon="-19.61099052"><ele>332.3</ele><time>2012-07-21T16:47:14.0000000+00:00</time></trkpt><trkpt lat="64.08452606" lon="-19.61091232"><ele>333.1</ele><time>2012-07-21T16:47:19.0000000+00:00</time></trkpt><trkpt lat="64.08450317" lon="-19.61089516"><ele>333.2</ele><time>2012-07-21T16:47:24.0000000+00:00</time></trkpt><trkpt lat="64.08450317" lon="-19.61089706"><ele>333.3</ele><time>2012-07-21T16:47:29.0000000+00:00</time></trkpt><trkpt lat="64.08450317" lon="-19.61089897"><ele>333.4</ele><time>2012-07-21T16:47:34.0000000+00:00</time></trkpt><trkpt lat="64.08450317" lon="-19.61090088"><ele>333.4</ele><time>2012-07-21T16:47:39.0000000+00:00</time></trkpt><trkpt lat="64.08450317" lon="-19.61090088"><ele>333.4</ele><time>2012-07-21T16:47:44.0000000+00:00</time></trkpt><trkpt lat="64.08450317" lon="-19.61090088"><ele>333.4</ele><time>2012-07-21T16:47:49.0000000+00:00</time></trkpt><trkpt lat="64.08450317" lon="-19.61090088"><ele>333.4</ele><time>2012-07-21T16:47:54.0000000+00:00</time></trkpt><trkpt lat="64.08450317" lon="-19.61089516"><ele>333.4</ele><time>2012-07-21T16:47:59.0000000+00:00</time></trkpt><trkpt lat="64.08448029" lon="-19.61081886"><ele>333.3</ele><time>2012-07-21T16:48:04.0000000+00:00</time></trkpt><trkpt lat="64.08448792" lon="-19.61081886"><ele>333.6</ele><time>2012-07-21T16:48:09.0000000+00:00</time></trkpt><trkpt lat="64.08448029" lon="-19.61075974"><ele>333.6</ele><time>2012-07-21T16:48:14.0000000+00:00</time></trkpt><trkpt lat="64.08444977" lon="-19.61066437"><ele>333.7</ele><time>2012-07-21T16:48:19.0000000+00:00</time></trkpt><trkpt lat="64.08444214" lon="-19.61055756"><ele>333.8</ele><time>2012-07-21T16:48:24.0000000+00:00</time></trkpt><trkpt lat="64.08441162" lon="-19.61045265"><ele>334.0</ele><time>2012-07-21T16:48:29.0000000+00:00</time></trkpt><trkpt lat="64.08440399" lon="-19.61034966"><ele>335.1</ele><time>2012-07-21T16:48:34.0000000+00:00</time></trkpt><trkpt lat="64.0843811" lon="-19.61024284"><ele>335.7</ele><time>2012-07-21T16:48:39.0000000+00:00</time></trkpt><trkpt lat="64.08437347" lon="-19.61020279"><ele>336.1</ele><time>2012-07-21T16:48:44.0000000+00:00</time></trkpt><trkpt lat="64.08435822" lon="-19.61013413"><ele>336.6</ele><time>2012-07-21T16:48:49.0000000+00:00</time></trkpt><trkpt lat="64.08435059" lon="-19.61006737"><ele>337.3</ele><time>2012-07-21T16:48:54.0000000+00:00</time></trkpt><trkpt lat="64.08433533" lon="-19.60995293"><ele>337.1</ele><time>2012-07-21T16:48:59.0000000+00:00</time></trkpt><trkpt lat="64.0843277" lon="-19.60983658"><ele>337.2</ele><time>2012-07-21T16:49:04.0000000+00:00</time></trkpt><trkpt lat="64.08430481" lon="-19.60974503"><ele>337.5</ele><time>2012-07-21T16:49:09.0000000+00:00</time></trkpt><trkpt lat="64.08429718" lon="-19.60963821"><ele>337.7</ele><time>2012-07-21T16:49:14.0000000+00:00</time></trkpt><trkpt lat="64.08428192" lon="-19.60953903"><ele>338.2</ele><time>2012-07-21T16:49:19.0000000+00:00</time></trkpt><trkpt lat="64.08427429" lon="-19.6094265"><ele>338.5</ele><time>2012-07-21T16:49:24.0000000+00:00</time></trkpt><trkpt lat="64.08425903" lon="-19.60930824"><ele>338.3</ele><time>2012-07-21T16:49:29.0000000+00:00</time></trkpt><trkpt lat="64.08423615" lon="-19.6091938"><ele>337.6</ele><time>2012-07-21T16:49:34.0000000+00:00</time></trkpt><trkpt lat="64.08422089" lon="-19.60906792"><ele>337.4</ele><time>2012-07-21T16:49:39.0000000+00:00</time></trkpt><trkpt lat="64.08420563" lon="-19.6089592"><ele>336.8</ele><time>2012-07-21T16:49:44.0000000+00:00</time></trkpt><trkpt lat="64.08419037" lon="-19.60885239"><ele>336.9</ele><time>2012-07-21T16:49:49.0000000+00:00</time></trkpt><trkpt lat="64.08418274" lon="-19.60874558"><ele>337.2</ele><time>2012-07-21T16:49:54.0000000+00:00</time></trkpt><trkpt lat="64.08417511" lon="-19.60865593"><ele>336.6</ele><time>2012-07-21T16:49:59.0000000+00:00</time></trkpt><trkpt lat="64.08417511" lon="-19.60853958"><ele>337.3</ele><time>2012-07-21T16:50:04.0000000+00:00</time></trkpt><trkpt lat="64.08417511" lon="-19.60844421"><ele>338.0</ele><time>2012-07-21T16:50:09.0000000+00:00</time></trkpt><trkpt lat="64.08416748" lon="-19.60834312"><ele>337.4</ele><time>2012-07-21T16:50:14.0000000+00:00</time></trkpt><trkpt lat="64.08414459" lon="-19.60823631"><ele>336.4</ele><time>2012-07-21T16:50:19.0000000+00:00</time></trkpt><trkpt lat="64.08415222" lon="-19.60811806"><ele>337.4</ele><time>2012-07-21T16:50:24.0000000+00:00</time></trkpt><trkpt lat="64.08414459" lon="-19.60801506"><ele>338.3</ele><time>2012-07-21T16:50:29.0000000+00:00</time></trkpt><trkpt lat="64.08412933" lon="-19.60790253"><ele>338.3</ele><time>2012-07-21T16:50:34.0000000+00:00</time></trkpt><trkpt lat="64.08411408" lon="-19.60781097"><ele>338.9</ele><time>2012-07-21T16:50:39.0000000+00:00</time></trkpt><trkpt lat="64.08409882" lon="-19.60768127"><ele>338.8</ele><time>2012-07-21T16:50:44.0000000+00:00</time></trkpt><trkpt lat="64.08409882" lon="-19.60758209"><ele>339.7</ele><time>2012-07-21T16:50:49.0000000+00:00</time></trkpt><trkpt lat="64.08408356" lon="-19.60745621"><ele>339.0</ele><time>2012-07-21T16:50:54.0000000+00:00</time></trkpt><trkpt lat="64.08408356" lon="-19.60739517"><ele>338.5</ele><time>2012-07-21T16:50:59.0000000+00:00</time></trkpt><trkpt lat="64.08406067" lon="-19.60726357"><ele>338.1</ele><time>2012-07-21T16:51:04.0000000+00:00</time></trkpt><trkpt lat="64.08405304" lon="-19.60713768"><ele>337.9</ele><time>2012-07-21T16:51:09.0000000+00:00</time></trkpt><trkpt lat="64.08404541" lon="-19.60701942"><ele>337.7</ele><time>2012-07-21T16:51:14.0000000+00:00</time></trkpt><trkpt lat="64.08402252" lon="-19.60694313"><ele>337.4</ele><time>2012-07-21T16:51:19.0000000+00:00</time></trkpt><trkpt lat="64.08400726" lon="-19.6068573"><ele>337.3</ele><time>2012-07-21T16:51:24.0000000+00:00</time></trkpt><trkpt lat="64.08398438" lon="-19.60676575"><ele>337.5</ele><time>2012-07-21T16:51:29.0000000+00:00</time></trkpt><trkpt lat="64.08397675" lon="-19.60666275"><ele>337.8</ele><time>2012-07-21T16:51:34.0000000+00:00</time></trkpt><trkpt lat="64.08396912" lon="-19.60659981"><ele>338.9</ele><time>2012-07-21T16:51:39.0000000+00:00</time></trkpt><trkpt lat="64.08396149" lon="-19.60653687"><ele>338.6</ele><time>2012-07-21T16:51:44.0000000+00:00</time></trkpt><trkpt lat="64.08394623" lon="-19.60642052"><ele>338.3</ele><time>2012-07-21T16:51:49.0000000+00:00</time></trkpt><trkpt lat="64.0839386" lon="-19.60631371"><ele>339.1</ele><time>2012-07-21T16:51:54.0000000+00:00</time></trkpt><trkpt lat="64.08393097" lon="-19.60620499"><ele>339.2</ele><time>2012-07-21T16:51:59.0000000+00:00</time></trkpt><trkpt lat="64.08391571" lon="-19.60608673"><ele>339.5</ele><time>2012-07-21T16:52:04.0000000+00:00</time></trkpt><trkpt lat="64.08390045" lon="-19.60597229"><ele>339.2</ele><time>2012-07-21T16:52:09.0000000+00:00</time></trkpt><trkpt lat="64.08387756" lon="-19.60585403"><ele>338.7</ele><time>2012-07-21T16:52:14.0000000+00:00</time></trkpt><trkpt lat="64.08386231" lon="-19.60572624"><ele>338.0</ele><time>2012-07-21T16:52:19.0000000+00:00</time></trkpt><trkpt lat="64.08383942" lon="-19.6055851"><ele>336.9</ele><time>2012-07-21T16:52:24.0000000+00:00</time></trkpt><trkpt lat="64.08383179" lon="-19.60545731"><ele>336.7</ele><time>2012-07-21T16:52:29.0000000+00:00</time></trkpt><trkpt lat="64.08381653" lon="-19.60538673"><ele>336.9</ele><time>2012-07-21T16:52:34.0000000+00:00</time></trkpt><trkpt lat="64.0838089" lon="-19.60530663"><ele>337.7</ele><time>2012-07-21T16:52:39.0000000+00:00</time></trkpt><trkpt lat="64.08379364" lon="-19.60520744"><ele>337.3</ele><time>2012-07-21T16:52:44.0000000+00:00</time></trkpt><trkpt lat="64.08380127" lon="-19.60511208"><ele>338.2</ele><time>2012-07-21T16:52:49.0000000+00:00</time></trkpt><trkpt lat="64.08379364" lon="-19.60498619"><ele>338.3</ele><time>2012-07-21T16:52:54.0000000+00:00</time></trkpt><trkpt lat="64.08379364" lon="-19.60487747"><ele>338.2</ele><time>2012-07-21T16:52:59.0000000+00:00</time></trkpt><trkpt lat="64.08379364" lon="-19.60475731"><ele>338.1</ele><time>2012-07-21T16:53:04.0000000+00:00</time></trkpt><trkpt lat="64.08378601" lon="-19.60464859"><ele>338.4</ele><time>2012-07-21T16:53:09.0000000+00:00</time></trkpt><trkpt lat="64.08377075" lon="-19.60453415"><ele>339.1</ele><time>2012-07-21T16:53:14.0000000+00:00</time></trkpt><trkpt lat="64.08377075" lon="-19.60451889"><ele>339.3</ele><time>2012-07-21T16:53:19.0000000+00:00</time></trkpt><trkpt lat="64.08377075" lon="-19.6045208"><ele>339.3</ele><time>2012-07-21T16:53:24.0000000+00:00</time></trkpt><trkpt lat="64.08377075" lon="-19.6045208"><ele>339.2</ele><time>2012-07-21T16:53:29.0000000+00:00</time></trkpt><trkpt lat="64.08376312" lon="-19.60449982"><ele>339.6</ele><time>2012-07-21T16:53:34.0000000+00:00</time></trkpt><trkpt lat="64.08376312" lon="-19.60450745"><ele>339.8</ele><time>2012-07-21T16:53:39.0000000+00:00</time></trkpt><trkpt lat="64.08376312" lon="-19.60451317"><ele>339.9</ele><time>2012-07-21T16:53:44.0000000+00:00</time></trkpt><trkpt lat="64.08376312" lon="-19.60451317"><ele>339.9</ele><time>2012-07-21T16:53:49.0000000+00:00</time></trkpt><trkpt lat="64.08376312" lon="-19.60445595"><ele>339.9</ele><time>2012-07-21T16:53:54.0000000+00:00</time></trkpt><trkpt lat="64.08374786" lon="-19.60436249"><ele>340.0</ele><time>2012-07-21T16:53:59.0000000+00:00</time></trkpt><trkpt lat="64.08373261" lon="-19.60427666"><ele>340.6</ele><time>2012-07-21T16:54:04.0000000+00:00</time></trkpt><trkpt lat="64.08372498" lon="-19.60419846"><ele>341.3</ele><time>2012-07-21T16:54:09.0000000+00:00</time></trkpt><trkpt lat="64.08371735" lon="-19.60412026"><ele>342.5</ele><time>2012-07-21T16:54:14.0000000+00:00</time></trkpt><trkpt lat="64.08370209" lon="-19.60401154"><ele>343.1</ele><time>2012-07-21T16:54:19.0000000+00:00</time></trkpt><trkpt lat="64.0836792" lon="-19.60393524"><ele>344.0</ele><time>2012-07-21T16:54:24.0000000+00:00</time></trkpt><trkpt lat="64.08365631" lon="-19.60385513"><ele>344.7</ele><time>2012-07-21T16:54:29.0000000+00:00</time></trkpt><trkpt lat="64.08364105" lon="-19.60379028"><ele>345.5</ele><time>2012-07-21T16:54:34.0000000+00:00</time></trkpt><trkpt lat="64.08363342" lon="-19.60373116"><ele>345.8</ele><time>2012-07-21T16:54:39.0000000+00:00</time></trkpt><trkpt lat="64.08359528" lon="-19.60365295"><ele>346.5</ele><time>2012-07-21T16:54:44.0000000+00:00</time></trkpt><trkpt lat="64.08358002" lon="-19.60357094"><ele>346.9</ele><time>2012-07-21T16:54:49.0000000+00:00</time></trkpt><trkpt lat="64.08358002" lon="-19.60357094"><ele>346.6</ele><time>2012-07-21T16:54:54.0000000+00:00</time></trkpt><trkpt lat="64.08357239" lon="-19.60355759"><ele>346.6</ele><time>2012-07-21T16:54:59.0000000+00:00</time></trkpt><trkpt lat="64.08354187" lon="-19.60348129"><ele>347.0</ele><time>2012-07-21T16:55:04.0000000+00:00</time></trkpt><trkpt lat="64.08351135" lon="-19.60341644"><ele>347.7</ele><time>2012-07-21T16:55:09.0000000+00:00</time></trkpt><trkpt lat="64.08348084" lon="-19.60334015"><ele>347.8</ele><time>2012-07-21T16:55:14.0000000+00:00</time></trkpt><trkpt lat="64.08345795" lon="-19.6032486"><ele>347.3</ele><time>2012-07-21T16:55:19.0000000+00:00</time></trkpt><trkpt lat="64.08342743" lon="-19.60314941"><ele>347.5</ele><time>2012-07-21T16:55:24.0000000+00:00</time></trkpt><trkpt lat="64.08339691" lon="-19.60307312"><ele>348.5</ele><time>2012-07-21T16:55:29.0000000+00:00</time></trkpt><trkpt lat="64.08336639" lon="-19.60299683"><ele>349.1</ele><time>2012-07-21T16:55:34.0000000+00:00</time></trkpt><trkpt lat="64.08332825" lon="-19.60290527"><ele>348.7</ele><time>2012-07-21T16:55:39.0000000+00:00</time></trkpt><trkpt lat="64.08330536" lon="-19.60282707"><ele>348.8</ele><time>2012-07-21T16:55:44.0000000+00:00</time></trkpt><trkpt lat="64.08327484" lon="-19.60272026"><ele>348.5</ele><time>2012-07-21T16:55:49.0000000+00:00</time></trkpt><trkpt lat="64.08324432" lon="-19.60262108"><ele>348.5</ele><time>2012-07-21T16:55:54.0000000+00:00</time></trkpt><trkpt lat="64.08321381" lon="-19.60253525"><ele>348.6</ele><time>2012-07-21T16:55:59.0000000+00:00</time></trkpt><trkpt lat="64.08322144" lon="-19.6025219"><ele>347.9</ele><time>2012-07-21T16:56:04.0000000+00:00</time></trkpt><trkpt lat="64.08322144" lon="-19.6025238"><ele>347.9</ele><time>2012-07-21T16:56:09.0000000+00:00</time></trkpt><trkpt lat="64.08319855" lon="-19.60248375"><ele>347.7</ele><time>2012-07-21T16:56:14.0000000+00:00</time></trkpt><trkpt lat="64.08317566" lon="-19.60241127"><ele>347.8</ele><time>2012-07-21T16:56:19.0000000+00:00</time></trkpt><trkpt lat="64.08317566" lon="-19.60230827"><ele>347.6</ele><time>2012-07-21T16:56:24.0000000+00:00</time></trkpt><trkpt lat="64.0831604" lon="-19.60221291"><ele>347.9</ele><time>2012-07-21T16:56:29.0000000+00:00</time></trkpt><trkpt lat="64.08313751" lon="-19.60212326"><ele>348.1</ele><time>2012-07-21T16:56:34.0000000+00:00</time></trkpt><trkpt lat="64.08309937" lon="-19.60200882"><ele>349.0</ele><time>2012-07-21T16:56:39.0000000+00:00</time></trkpt><trkpt lat="64.08306885" lon="-19.6019001"><ele>349.3</ele><time>2012-07-21T16:56:44.0000000+00:00</time></trkpt><trkpt lat="64.08305359" lon="-19.60182762"><ele>348.2</ele><time>2012-07-21T16:56:49.0000000+00:00</time></trkpt><trkpt lat="64.08301544" lon="-19.60171127"><ele>349.3</ele><time>2012-07-21T16:56:54.0000000+00:00</time></trkpt><trkpt lat="64.08299255" lon="-19.60161591"><ele>349.2</ele><time>2012-07-21T16:56:59.0000000+00:00</time></trkpt><trkpt lat="64.08296204" lon="-19.60154343"><ele>349.2</ele><time>2012-07-21T16:57:04.0000000+00:00</time></trkpt><trkpt lat="64.08293915" lon="-19.60146904"><ele>349.1</ele><time>2012-07-21T16:57:09.0000000+00:00</time></trkpt><trkpt lat="64.08291626" lon="-19.60139275"><ele>349.0</ele><time>2012-07-21T16:57:14.0000000+00:00</time></trkpt><trkpt lat="64.082901" lon="-19.60135841"><ele>349.0</ele><time>2012-07-21T16:57:19.0000000+00:00</time></trkpt><trkpt lat="64.08287811" lon="-19.60128975"><ele>349.4</ele><time>2012-07-21T16:57:24.0000000+00:00</time></trkpt><trkpt lat="64.0828476" lon="-19.6012249"><ele>349.4</ele><time>2012-07-21T16:57:29.0000000+00:00</time></trkpt><trkpt lat="64.08281708" lon="-19.60113335"><ele>349.1</ele><time>2012-07-21T16:57:34.0000000+00:00</time></trkpt><trkpt lat="64.08279419" lon="-19.6010685"><ele>349.0</ele><time>2012-07-21T16:57:39.0000000+00:00</time></trkpt><trkpt lat="64.08276367" lon="-19.6009903"><ele>349.6</ele><time>2012-07-21T16:57:44.0000000+00:00</time></trkpt><trkpt lat="64.08273315" lon="-19.60092735"><ele>350.1</ele><time>2012-07-21T16:57:49.0000000+00:00</time></trkpt><trkpt lat="64.08271027" lon="-19.60086632"><ele>350.1</ele><time>2012-07-21T16:57:54.0000000+00:00</time></trkpt><trkpt lat="64.08270264" lon="-19.60087585"><ele>349.9</ele><time>2012-07-21T16:57:59.0000000+00:00</time></trkpt><trkpt lat="64.08270264" lon="-19.60087585"><ele>349.9</ele><time>2012-07-21T16:58:04.0000000+00:00</time></trkpt><trkpt lat="64.08268738" lon="-19.60081863"><ele>350.1</ele><time>2012-07-21T16:58:09.0000000+00:00</time></trkpt><trkpt lat="64.08265686" lon="-19.60072899"><ele>350.2</ele><time>2012-07-21T16:58:14.0000000+00:00</time></trkpt><trkpt lat="64.08263397" lon="-19.60061836"><ele>349.8</ele><time>2012-07-21T16:58:19.0000000+00:00</time></trkpt><trkpt lat="64.08261108" lon="-19.60053062"><ele>350.6</ele><time>2012-07-21T16:58:24.0000000+00:00</time></trkpt><trkpt lat="64.08261108" lon="-19.60041618"><ele>350.0</ele><time>2012-07-21T16:58:29.0000000+00:00</time></trkpt><trkpt lat="64.0825882" lon="-19.60029221"><ele>349.5</ele><time>2012-07-21T16:58:34.0000000+00:00</time></trkpt><trkpt lat="64.08257294" lon="-19.60017014"><ele>349.5</ele><time>2012-07-21T16:58:39.0000000+00:00</time></trkpt><trkpt lat="64.08256531" lon="-19.60001755"><ele>348.5</ele><time>2012-07-21T16:58:44.0000000+00:00</time></trkpt><trkpt lat="64.08255768" lon="-19.59989548"><ele>348.0</ele><time>2012-07-21T16:58:49.0000000+00:00</time></trkpt><trkpt lat="64.08255005" lon="-19.59980011"><ele>347.9</ele><time>2012-07-21T16:58:54.0000000+00:00</time></trkpt><trkpt lat="64.08254242" lon="-19.59968948"><ele>347.9</ele><time>2012-07-21T16:58:59.0000000+00:00</time></trkpt><trkpt lat="64.08253479" lon="-19.59959984"><ele>348.1</ele><time>2012-07-21T16:59:04.0000000+00:00</time></trkpt><trkpt lat="64.08252716" lon="-19.59962082"><ele>348.9</ele><time>2012-07-21T16:59:09.0000000+00:00</time></trkpt><trkpt lat="64.08252716" lon="-19.59962273"><ele>348.9</ele><time>2012-07-21T16:59:14.0000000+00:00</time></trkpt><trkpt lat="64.08252716" lon="-19.59962845"><ele>349.0</ele><time>2012-07-21T16:59:19.0000000+00:00</time></trkpt><trkpt lat="64.08251953" lon="-19.59954262"><ele>348.5</ele><time>2012-07-21T16:59:24.0000000+00:00</time></trkpt><trkpt lat="64.08251953" lon="-19.5994339"><ele>349.4</ele><time>2012-07-21T16:59:29.0000000+00:00</time></trkpt><trkpt lat="64.0825119" lon="-19.59932137"><ele>349.7</ele><time>2012-07-21T16:59:34.0000000+00:00</time></trkpt><trkpt lat="64.08249664" lon="-19.5991993"><ele>349.7</ele><time>2012-07-21T16:59:39.0000000+00:00</time></trkpt><trkpt lat="64.08248138" lon="-19.59906006"><ele>349.4</ele><time>2012-07-21T16:59:44.0000000+00:00</time></trkpt><trkpt lat="64.08248138" lon="-19.5989418"><ele>349.2</ele><time>2012-07-21T16:59:49.0000000+00:00</time></trkpt><trkpt lat="64.08248138" lon="-19.59883308"><ele>349.8</ele><time>2012-07-21T16:59:54.0000000+00:00</time></trkpt><trkpt lat="64.08246613" lon="-19.59871674"><ele>349.5</ele><time>2012-07-21T16:59:59.0000000+00:00</time></trkpt><trkpt lat="64.08246613" lon="-19.59858322"><ele>349.3</ele><time>2012-07-21T17:00:04.0000000+00:00</time></trkpt><trkpt lat="64.0824585" lon="-19.59845352"><ele>348.5</ele><time>2012-07-21T17:00:09.0000000+00:00</time></trkpt><trkpt lat="64.08245087" lon="-19.59834671"><ele>349.1</ele><time>2012-07-21T17:00:14.0000000+00:00</time></trkpt><trkpt lat="64.08243561" lon="-19.5982151"><ele>348.7</ele><time>2012-07-21T17:00:19.0000000+00:00</time></trkpt><trkpt lat="64.08243561" lon="-19.59809685"><ele>349.1</ele><time>2012-07-21T17:00:24.0000000+00:00</time></trkpt><trkpt lat="64.08243561" lon="-19.59808159"><ele>349.2</ele><time>2012-07-21T17:00:29.0000000+00:00</time></trkpt><trkpt lat="64.08243561" lon="-19.59808159"><ele>349.2</ele><time>2012-07-21T17:00:34.0000000+00:00</time></trkpt><trkpt lat="64.08243561" lon="-19.59804535"><ele>349.1</ele><time>2012-07-21T17:00:39.0000000+00:00</time></trkpt><trkpt lat="64.08242035" lon="-19.59794998"><ele>349.2</ele><time>2012-07-21T17:00:44.0000000+00:00</time></trkpt><trkpt lat="64.08242035" lon="-19.59782982"><ele>349.5</ele><time>2012-07-21T17:00:49.0000000+00:00</time></trkpt><trkpt lat="64.08242798" lon="-19.59778023"><ele>352.1</ele><time>2012-07-21T17:00:54.0000000+00:00</time></trkpt><trkpt lat="64.08242035" lon="-19.59766579"><ele>352.5</ele><time>2012-07-21T17:00:59.0000000+00:00</time></trkpt><trkpt lat="64.08240509" lon="-19.59757233"><ele>353.1</ele><time>2012-07-21T17:01:04.0000000+00:00</time></trkpt><trkpt lat="64.08239746" lon="-19.59745216"><ele>352.2</ele><time>2012-07-21T17:01:09.0000000+00:00</time></trkpt><trkpt lat="64.0823822" lon="-19.59734345"><ele>351.6</ele><time>2012-07-21T17:01:14.0000000+00:00</time></trkpt><trkpt lat="64.08237457" lon="-19.59723282"><ele>351.6</ele><time>2012-07-21T17:01:19.0000000+00:00</time></trkpt><trkpt lat="64.08237457" lon="-19.59720421"><ele>351.4</ele><time>2012-07-21T17:01:24.0000000+00:00</time></trkpt><trkpt lat="64.08237457" lon="-19.59718514"><ele>351.4</ele><time>2012-07-21T17:01:29.0000000+00:00</time></trkpt><trkpt lat="64.08235931" lon="-19.59710693"><ele>351.6</ele><time>2012-07-21T17:01:34.0000000+00:00</time></trkpt><trkpt lat="64.08236694" lon="-19.59699822"><ele>351.8</ele><time>2012-07-21T17:01:39.0000000+00:00</time></trkpt><trkpt lat="64.08236694" lon="-19.59690285"><ele>352.0</ele><time>2012-07-21T17:01:44.0000000+00:00</time></trkpt><trkpt lat="64.08235931" lon="-19.59681702"><ele>351.8</ele><time>2012-07-21T17:01:49.0000000+00:00</time></trkpt><trkpt lat="64.08235169" lon="-19.59671783"><ele>351.4</ele><time>2012-07-21T17:01:54.0000000+00:00</time></trkpt><trkpt lat="64.08234406" lon="-19.59661293"><ele>351.5</ele><time>2012-07-21T17:01:59.0000000+00:00</time></trkpt><trkpt lat="64.08235169" lon="-19.59650421"><ele>351.8</ele><time>2012-07-21T17:02:04.0000000+00:00</time></trkpt><trkpt lat="64.08234406" lon="-19.59646797"><ele>352.0</ele><time>2012-07-21T17:02:09.0000000+00:00</time></trkpt><trkpt lat="64.08234406" lon="-19.59647369"><ele>352.3</ele><time>2012-07-21T17:02:14.0000000+00:00</time></trkpt><trkpt lat="64.08234406" lon="-19.5964756"><ele>352.4</ele><time>2012-07-21T17:02:19.0000000+00:00</time></trkpt><trkpt lat="64.08234406" lon="-19.59647942"><ele>352.4</ele><time>2012-07-21T17:02:24.0000000+00:00</time></trkpt><trkpt lat="64.08234406" lon="-19.59646606"><ele>352.6</ele><time>2012-07-21T17:02:29.0000000+00:00</time></trkpt><trkpt lat="64.08233643" lon="-19.5963726"><ele>352.8</ele><time>2012-07-21T17:02:34.0000000+00:00</time></trkpt><trkpt lat="64.08233643" lon="-19.59627342"><ele>352.9</ele><time>2012-07-21T17:02:39.0000000+00:00</time></trkpt><trkpt lat="64.08235169" lon="-19.5961647"><ele>352.9</ele><time>2012-07-21T17:02:44.0000000+00:00</time></trkpt><trkpt lat="64.08235169" lon="-19.59605598"><ele>353.0</ele><time>2012-07-21T17:02:49.0000000+00:00</time></trkpt><trkpt lat="64.08235169" lon="-19.59592438"><ele>353.0</ele><time>2012-07-21T17:02:54.0000000+00:00</time></trkpt><trkpt lat="64.08235931" lon="-19.59581184"><ele>353.2</ele><time>2012-07-21T17:02:59.0000000+00:00</time></trkpt><trkpt lat="64.08236694" lon="-19.59568405"><ele>353.4</ele><time>2012-07-21T17:03:04.0000000+00:00</time></trkpt><trkpt lat="64.08235931" lon="-19.59555817"><ele>353.6</ele><time>2012-07-21T17:03:09.0000000+00:00</time></trkpt><trkpt lat="64.08235931" lon="-19.595438"><ele>354.0</ele><time>2012-07-21T17:03:14.0000000+00:00</time></trkpt><trkpt lat="64.08235169" lon="-19.59532547"><ele>354.0</ele><time>2012-07-21T17:03:19.0000000+00:00</time></trkpt><trkpt lat="64.08235169" lon="-19.59520531"><ele>353.8</ele><time>2012-07-21T17:03:24.0000000+00:00</time></trkpt><trkpt lat="64.08234406" lon="-19.59508705"><ele>354.0</ele><time>2012-07-21T17:03:29.0000000+00:00</time></trkpt><trkpt lat="64.08234406" lon="-19.59496498"><ele>354.3</ele><time>2012-07-21T17:03:34.0000000+00:00</time></trkpt><trkpt lat="64.08233643" lon="-19.59484673"><ele>354.7</ele><time>2012-07-21T17:03:39.0000000+00:00</time></trkpt><trkpt lat="64.08232117" lon="-19.59474373"><ele>355.3</ele><time>2012-07-21T17:03:44.0000000+00:00</time></trkpt><trkpt lat="64.08232117" lon="-19.59463692"><ele>355.8</ele><time>2012-07-21T17:03:49.0000000+00:00</time></trkpt><trkpt lat="64.08230591" lon="-19.59453392"><ele>356.1</ele><time>2012-07-21T17:03:54.0000000+00:00</time></trkpt><trkpt lat="64.08229065" lon="-19.59444809"><ele>356.6</ele><time>2012-07-21T17:03:59.0000000+00:00</time></trkpt><trkpt lat="64.08229065" lon="-19.59436417"><ele>356.4</ele><time>2012-07-21T17:04:04.0000000+00:00</time></trkpt><trkpt lat="64.08227539" lon="-19.59429169"><ele>357.3</ele><time>2012-07-21T17:04:09.0000000+00:00</time></trkpt><trkpt lat="64.08226013" lon="-19.59421921"><ele>359.2</ele><time>2012-07-21T17:04:14.0000000+00:00</time></trkpt><trkpt lat="64.0822525" lon="-19.59410095"><ele>360.9</ele><time>2012-07-21T17:04:19.0000000+00:00</time></trkpt><trkpt lat="64.08224487" lon="-19.59399796"><ele>362.3</ele><time>2012-07-21T17:04:24.0000000+00:00</time></trkpt><trkpt lat="64.08222199" lon="-19.59384728"><ele>361.1</ele><time>2012-07-21T17:04:29.0000000+00:00</time></trkpt><trkpt lat="64.08221436" lon="-19.59375191"><ele>360.6</ele><time>2012-07-21T17:04:34.0000000+00:00</time></trkpt><trkpt lat="64.08219147" lon="-19.59363365"><ele>359.7</ele><time>2012-07-21T17:04:39.0000000+00:00</time></trkpt><trkpt lat="64.08216095" lon="-19.59351349"><ele>358.8</ele><time>2012-07-21T17:04:44.0000000+00:00</time></trkpt><trkpt lat="64.08215332" lon="-19.59342766"><ele>359.0</ele><time>2012-07-21T17:04:49.0000000+00:00</time></trkpt><trkpt lat="64.08214569" lon="-19.59339714"><ele>359.5</ele><time>2012-07-21T17:04:54.0000000+00:00</time></trkpt><trkpt lat="64.08214569" lon="-19.59338951"><ele>359.7</ele><time>2012-07-21T17:04:59.0000000+00:00</time></trkpt><trkpt lat="64.0821228" lon="-19.59336281"><ele>360.4</ele><time>2012-07-21T17:05:04.0000000+00:00</time></trkpt><trkpt lat="64.08208466" lon="-19.59336281"><ele>362.1</ele><time>2012-07-21T17:05:09.0000000+00:00</time></trkpt><trkpt lat="64.08203888" lon="-19.59336281"><ele>364.5</ele><time>2012-07-21T17:05:14.0000000+00:00</time></trkpt><trkpt lat="64.08201599" lon="-19.59333229"><ele>364.8</ele><time>2012-07-21T17:05:19.0000000+00:00</time></trkpt><trkpt lat="64.08201599" lon="-19.59331703"><ele>365.0</ele><time>2012-07-21T17:05:24.0000000+00:00</time></trkpt><trkpt lat="64.08203125" lon="-19.59325409"><ele>364.8</ele><time>2012-07-21T17:05:29.0000000+00:00</time></trkpt><trkpt lat="64.08206177" lon="-19.593153"><ele>363.9</ele><time>2012-07-21T17:05:34.0000000+00:00</time></trkpt><trkpt lat="64.08205414" lon="-19.59304237"><ele>362.5</ele><time>2012-07-21T17:05:39.0000000+00:00</time></trkpt><trkpt lat="64.08203125" lon="-19.59294701"><ele>362.6</ele><time>2012-07-21T17:05:44.0000000+00:00</time></trkpt><trkpt lat="64.08200073" lon="-19.59286499"><ele>362.3</ele><time>2012-07-21T17:05:49.0000000+00:00</time></trkpt><trkpt lat="64.08197784" lon="-19.59276581"><ele>363.6</ele><time>2012-07-21T17:05:54.0000000+00:00</time></trkpt><trkpt lat="64.08197784" lon="-19.5926609"><ele>363.9</ele><time>2012-07-21T17:05:59.0000000+00:00</time></trkpt><trkpt lat="64.08198547" lon="-19.59254074"><ele>363.3</ele><time>2012-07-21T17:06:04.0000000+00:00</time></trkpt><trkpt lat="64.08197784" lon="-19.59242821"><ele>362.5</ele><time>2012-07-21T17:06:09.0000000+00:00</time></trkpt><trkpt lat="64.08196259" lon="-19.59231567"><ele>361.7</ele><time>2012-07-21T17:06:14.0000000+00:00</time></trkpt><trkpt lat="64.0819397" lon="-19.59220696"><ele>361.6</ele><time>2012-07-21T17:06:19.0000000+00:00</time></trkpt><trkpt lat="64.08191681" lon="-19.5921154"><ele>363.1</ele><time>2012-07-21T17:06:24.0000000+00:00</time></trkpt><trkpt lat="64.08190155" lon="-19.59203148"><ele>363.2</ele><time>2012-07-21T17:06:29.0000000+00:00</time></trkpt><trkpt lat="64.08187866" lon="-19.59197807"><ele>363.9</ele><time>2012-07-21T17:06:34.0000000+00:00</time></trkpt><trkpt lat="64.0818634" lon="-19.59191895"><ele>364.1</ele><time>2012-07-21T17:06:39.0000000+00:00</time></trkpt><trkpt lat="64.08183289" lon="-19.59180832"><ele>363.9</ele><time>2012-07-21T17:06:44.0000000+00:00</time></trkpt><trkpt lat="64.08181763" lon="-19.59168625"><ele>363.5</ele><time>2012-07-21T17:06:49.0000000+00:00</time></trkpt><trkpt lat="64.08178711" lon="-19.59158325"><ele>362.9</ele><time>2012-07-21T17:06:54.0000000+00:00</time></trkpt><trkpt lat="64.08177185" lon="-19.59152412"><ele>363.3</ele><time>2012-07-21T17:06:59.0000000+00:00</time></trkpt><trkpt lat="64.08177185" lon="-19.59142876"><ele>363.2</ele><time>2012-07-21T17:07:04.0000000+00:00</time></trkpt><trkpt lat="64.08179474" lon="-19.59132576"><ele>363.0</ele><time>2012-07-21T17:07:09.0000000+00:00</time></trkpt><trkpt lat="64.08182526" lon="-19.59122276"><ele>363.3</ele><time>2012-07-21T17:07:14.0000000+00:00</time></trkpt><trkpt lat="64.0818634" lon="-19.59112549"><ele>363.6</ele><time>2012-07-21T17:07:19.0000000+00:00</time></trkpt><trkpt lat="64.08190918" lon="-19.59108162"><ele>364.4</ele><time>2012-07-21T17:07:24.0000000+00:00</time></trkpt><trkpt lat="64.08194733" lon="-19.59109879"><ele>364.8</ele><time>2012-07-21T17:07:29.0000000+00:00</time></trkpt><trkpt lat="64.0819397" lon="-19.59109497"><ele>364.9</ele><time>2012-07-21T17:07:34.0000000+00:00</time></trkpt><trkpt lat="64.08194733" lon="-19.59110069"><ele>365.0</ele><time>2012-07-21T17:07:39.0000000+00:00</time></trkpt><trkpt lat="64.08196259" lon="-19.59111404"><ele>365.4</ele><time>2012-07-21T17:07:44.0000000+00:00</time></trkpt><trkpt lat="64.08197784" lon="-19.5911026"><ele>366.3</ele><time>2012-07-21T17:07:49.0000000+00:00</time></trkpt><trkpt lat="64.08197784" lon="-19.59110642"><ele>366.4</ele><time>2012-07-21T17:07:54.0000000+00:00</time></trkpt><trkpt lat="64.08197784" lon="-19.5911026"><ele>366.6</ele><time>2012-07-21T17:07:59.0000000+00:00</time></trkpt><trkpt lat="64.08197784" lon="-19.59109879"><ele>366.8</ele><time>2012-07-21T17:08:04.0000000+00:00</time></trkpt><trkpt lat="64.08198547" lon="-19.59109116"><ele>367.0</ele><time>2012-07-21T17:08:09.0000000+00:00</time></trkpt><trkpt lat="64.08198547" lon="-19.59109116"><ele>367.3</ele><time>2012-07-21T17:08:14.0000000+00:00</time></trkpt><trkpt lat="64.08198547" lon="-19.59109306"><ele>367.6</ele><time>2012-07-21T17:08:19.0000000+00:00</time></trkpt><trkpt lat="64.08198547" lon="-19.59109497"><ele>367.6</ele><time>2012-07-21T17:08:24.0000000+00:00</time></trkpt><trkpt lat="64.08198547" lon="-19.59109497"><ele>367.6</ele><time>2012-07-21T17:08:29.0000000+00:00</time></trkpt><trkpt lat="64.08198547" lon="-19.59109497"><ele>367.6</ele><time>2012-07-21T17:08:34.0000000+00:00</time></trkpt><trkpt lat="64.08198547" lon="-19.59109497"><ele>367.6</ele><time>2012-07-21T17:08:39.0000000+00:00</time></trkpt><trkpt lat="64.08198547" lon="-19.59109497"><ele>367.6</ele><time>2012-07-21T17:08:44.0000000+00:00</time></trkpt><trkpt lat="64.08198547" lon="-19.59109497"><ele>367.6</ele><time>2012-07-21T17:08:49.0000000+00:00</time></trkpt><trkpt lat="64.08198547" lon="-19.59109497"><ele>367.6</ele><time>2012-07-21T17:08:54.0000000+00:00</time></trkpt><trkpt lat="64.08198547" lon="-19.59109497"><ele>367.6</ele><time>2012-07-21T17:08:59.0000000+00:00</time></trkpt><trkpt lat="64.08198547" lon="-19.59109497"><ele>367.7</ele><time>2012-07-21T17:09:04.0000000+00:00</time></trkpt><trkpt lat="64.08198547" lon="-19.59109497"><ele>367.6</ele><time>2012-07-21T17:09:09.0000000+00:00</time></trkpt><trkpt lat="64.08198547" lon="-19.59109497"><ele>367.6</ele><time>2012-07-21T17:09:14.0000000+00:00</time></trkpt><trkpt lat="64.08198547" lon="-19.59109306"><ele>367.6</ele><time>2012-07-21T17:09:19.0000000+00:00</time></trkpt><trkpt lat="64.08198547" lon="-19.59109306"><ele>367.7</ele><time>2012-07-21T17:09:24.0000000+00:00</time></trkpt><trkpt lat="64.08198547" lon="-19.59109306"><ele>367.7</ele><time>2012-07-21T17:09:29.0000000+00:00</time></trkpt><trkpt lat="64.08198547" lon="-19.59109306"><ele>367.7</ele><time>2012-07-21T17:09:34.0000000+00:00</time></trkpt><trkpt lat="64.08198547" lon="-19.59109306"><ele>367.6</ele><time>2012-07-21T17:09:39.0000000+00:00</time></trkpt><trkpt lat="64.08198547" lon="-19.59109306"><ele>367.6</ele><time>2012-07-21T17:09:44.0000000+00:00</time></trkpt><trkpt lat="64.08198547" lon="-19.59109306"><ele>367.6</ele><time>2012-07-21T17:09:49.0000000+00:00</time></trkpt><trkpt lat="64.08198547" lon="-19.59109306"><ele>367.7</ele><time>2012-07-21T17:09:54.0000000+00:00</time></trkpt><trkpt lat="64.08198547" lon="-19.59109306"><ele>367.7</ele><time>2012-07-21T17:09:59.0000000+00:00</time></trkpt><trkpt lat="64.08198547" lon="-19.59109116"><ele>367.6</ele><time>2012-07-21T17:10:04.0000000+00:00</time></trkpt><trkpt lat="64.08198547" lon="-19.59109116"><ele>367.6</ele><time>2012-07-21T17:10:09.0000000+00:00</time></trkpt><trkpt lat="64.08198547" lon="-19.59109116"><ele>367.6</ele><time>2012-07-21T17:10:14.0000000+00:00</time></trkpt><trkpt lat="64.08198547" lon="-19.59109116"><ele>367.6</ele><time>2012-07-21T17:10:19.0000000+00:00</time></trkpt><trkpt lat="64.08198547" lon="-19.59108925"><ele>367.6</ele><time>2012-07-21T17:10:24.0000000+00:00</time></trkpt><trkpt lat="64.08198547" lon="-19.59108925"><ele>367.6</ele><time>2012-07-21T17:10:29.0000000+00:00</time></trkpt><trkpt lat="64.08198547" lon="-19.59108925"><ele>367.6</ele><time>2012-07-21T17:10:34.0000000+00:00</time></trkpt><trkpt lat="64.08198547" lon="-19.59108925"><ele>367.6</ele><time>2012-07-21T17:10:39.0000000+00:00</time></trkpt><trkpt lat="64.08198547" lon="-19.59108925"><ele>367.6</ele><time>2012-07-21T17:10:44.0000000+00:00</time></trkpt><trkpt lat="64.08198547" lon="-19.59108925"><ele>367.6</ele><time>2012-07-21T17:10:49.0000000+00:00</time></trkpt><trkpt lat="64.08198547" lon="-19.59108925"><ele>367.6</ele><time>2012-07-21T17:10:54.0000000+00:00</time></trkpt><trkpt lat="64.08198547" lon="-19.59108734"><ele>367.6</ele><time>2012-07-21T17:10:59.0000000+00:00</time></trkpt><trkpt lat="64.08198547" lon="-19.59108734"><ele>367.6</ele><time>2012-07-21T17:11:04.0000000+00:00</time></trkpt><trkpt lat="64.08198547" lon="-19.59108734"><ele>367.6</ele><time>2012-07-21T17:11:09.0000000+00:00</time></trkpt><trkpt lat="64.08198547" lon="-19.59108734"><ele>367.6</ele><time>2012-07-21T17:11:14.0000000+00:00</time></trkpt><trkpt lat="64.08198547" lon="-19.59108734"><ele>367.6</ele><time>2012-07-21T17:11:19.0000000+00:00</time></trkpt><trkpt lat="64.08198547" lon="-19.59108734"><ele>367.6</ele><time>2012-07-21T17:11:24.0000000+00:00</time></trkpt><trkpt lat="64.08198547" lon="-19.59108734"><ele>367.6</ele><time>2012-07-21T17:11:29.0000000+00:00</time></trkpt><trkpt lat="64.08198547" lon="-19.59108543"><ele>367.6</ele><time>2012-07-21T17:11:34.0000000+00:00</time></trkpt><trkpt lat="64.08198547" lon="-19.59108543"><ele>367.6</ele><time>2012-07-21T17:11:39.0000000+00:00</time></trkpt><trkpt lat="64.08198547" lon="-19.59108543"><ele>367.6</ele><time>2012-07-21T17:11:44.0000000+00:00</time></trkpt><trkpt lat="64.08198547" lon="-19.59108543"><ele>367.6</ele><time>2012-07-21T17:11:49.0000000+00:00</time></trkpt><trkpt lat="64.08198547" lon="-19.59108543"><ele>367.6</ele><time>2012-07-21T17:11:54.0000000+00:00</time></trkpt><trkpt lat="64.08198547" lon="-19.59108543"><ele>367.6</ele><time>2012-07-21T17:11:59.0000000+00:00</time></trkpt><trkpt lat="64.08198547" lon="-19.59108353"><ele>367.6</ele><time>2012-07-21T17:12:04.0000000+00:00</time></trkpt><trkpt lat="64.08198547" lon="-19.59108353"><ele>367.6</ele><time>2012-07-21T17:12:09.0000000+00:00</time></trkpt><trkpt lat="64.08198547" lon="-19.59108353"><ele>367.6</ele><time>2012-07-21T17:12:14.0000000+00:00</time></trkpt><trkpt lat="64.08198547" lon="-19.59108353"><ele>367.5</ele><time>2012-07-21T17:12:19.0000000+00:00</time></trkpt><trkpt lat="64.08198547" lon="-19.59108353"><ele>367.6</ele><time>2012-07-21T17:12:24.0000000+00:00</time></trkpt><trkpt lat="64.08198547" lon="-19.59108353"><ele>367.6</ele><time>2012-07-21T17:12:29.0000000+00:00</time></trkpt><trkpt lat="64.08197784" lon="-19.59108353"><ele>367.6</ele><time>2012-07-21T17:12:34.0000000+00:00</time></trkpt><trkpt lat="64.08197784" lon="-19.59108353"><ele>367.5</ele><time>2012-07-21T17:12:39.0000000+00:00</time></trkpt><trkpt lat="64.08197784" lon="-19.59108353"><ele>367.5</ele><time>2012-07-21T17:12:44.0000000+00:00</time></trkpt><trkpt lat="64.08197784" lon="-19.59108162"><ele>367.5</ele><time>2012-07-21T17:12:49.0000000+00:00</time></trkpt><trkpt lat="64.08197784" lon="-19.59108162"><ele>367.5</ele><time>2012-07-21T17:12:54.0000000+00:00</time></trkpt><trkpt lat="64.08197784" lon="-19.59108162"><ele>367.5</ele><time>2012-07-21T17:12:59.0000000+00:00</time></trkpt><trkpt lat="64.08197784" lon="-19.59108162"><ele>367.5</ele><time>2012-07-21T17:13:04.0000000+00:00</time></trkpt><trkpt lat="64.08197784" lon="-19.59108162"><ele>367.5</ele><time>2012-07-21T17:13:09.0000000+00:00</time></trkpt><trkpt lat="64.08197784" lon="-19.59108162"><ele>367.5</ele><time>2012-07-21T17:13:14.0000000+00:00</time></trkpt><trkpt lat="64.08197784" lon="-19.59108162"><ele>367.5</ele><time>2012-07-21T17:13:19.0000000+00:00</time></trkpt><trkpt lat="64.08197784" lon="-19.59107971"><ele>367.5</ele><time>2012-07-21T17:13:24.0000000+00:00</time></trkpt><trkpt lat="64.08197784" lon="-19.59107971"><ele>367.5</ele><time>2012-07-21T17:13:29.0000000+00:00</time></trkpt><trkpt lat="64.08197784" lon="-19.59107971"><ele>367.5</ele><time>2012-07-21T17:13:34.0000000+00:00</time></trkpt><trkpt lat="64.08197784" lon="-19.59107971"><ele>367.5</ele><time>2012-07-21T17:13:39.0000000+00:00</time></trkpt><trkpt lat="64.08197784" lon="-19.59107971"><ele>367.5</ele><time>2012-07-21T17:13:44.0000000+00:00</time></trkpt><trkpt lat="64.08197784" lon="-19.59107971"><ele>367.5</ele><time>2012-07-21T17:13:49.0000000+00:00</time></trkpt><trkpt lat="64.08197784" lon="-19.59108162"><ele>367.6</ele><time>2012-07-21T17:13:54.0000000+00:00</time></trkpt><trkpt lat="64.08197784" lon="-19.59107971"><ele>367.5</ele><time>2012-07-21T17:13:59.0000000+00:00</time></trkpt><trkpt lat="64.08197784" lon="-19.59107971"><ele>367.5</ele><time>2012-07-21T17:14:04.0000000+00:00</time></trkpt><trkpt lat="64.08197784" lon="-19.59107971"><ele>367.5</ele><time>2012-07-21T17:14:09.0000000+00:00</time></trkpt><trkpt lat="64.08197784" lon="-19.59107971"><ele>367.5</ele><time>2012-07-21T17:14:14.0000000+00:00</time></trkpt><trkpt lat="64.08197784" lon="-19.59107781"><ele>367.5</ele><time>2012-07-21T17:14:19.0000000+00:00</time></trkpt><trkpt lat="64.08197784" lon="-19.59107781"><ele>367.5</ele><time>2012-07-21T17:14:24.0000000+00:00</time></trkpt><trkpt lat="64.08197784" lon="-19.59107781"><ele>367.5</ele><time>2012-07-21T17:14:29.0000000+00:00</time></trkpt><trkpt lat="64.08197784" lon="-19.59107781"><ele>367.5</ele><time>2012-07-21T17:14:34.0000000+00:00</time></trkpt><trkpt lat="64.08197784" lon="-19.5910759"><ele>367.5</ele><time>2012-07-21T17:14:39.0000000+00:00</time></trkpt><trkpt lat="64.08197784" lon="-19.5910759"><ele>367.5</ele><time>2012-07-21T17:14:44.0000000+00:00</time></trkpt><trkpt lat="64.08197784" lon="-19.5910759"><ele>367.5</ele><time>2012-07-21T17:14:49.0000000+00:00</time></trkpt><trkpt lat="64.08197784" lon="-19.5910759"><ele>367.5</ele><time>2012-07-21T17:14:54.0000000+00:00</time></trkpt><trkpt lat="64.08197784" lon="-19.59107399"><ele>367.5</ele><time>2012-07-21T17:14:59.0000000+00:00</time></trkpt><trkpt lat="64.08197784" lon="-19.59107399"><ele>367.5</ele><time>2012-07-21T17:15:04.0000000+00:00</time></trkpt><trkpt lat="64.08197784" lon="-19.59107399"><ele>367.4</ele><time>2012-07-21T17:15:09.0000000+00:00</time></trkpt><trkpt lat="64.08197784" lon="-19.59107399"><ele>367.5</ele><time>2012-07-21T17:15:14.0000000+00:00</time></trkpt><trkpt lat="64.08197784" lon="-19.59107399"><ele>367.4</ele><time>2012-07-21T17:15:19.0000000+00:00</time></trkpt><trkpt lat="64.08197784" lon="-19.59107208"><ele>367.4</ele><time>2012-07-21T17:15:24.0000000+00:00</time></trkpt><trkpt lat="64.08197784" lon="-19.59107208"><ele>367.4</ele><time>2012-07-21T17:15:29.0000000+00:00</time></trkpt><trkpt lat="64.08197784" lon="-19.59107208"><ele>367.4</ele><time>2012-07-21T17:15:34.0000000+00:00</time></trkpt><trkpt lat="64.08197784" lon="-19.59107208"><ele>367.4</ele><time>2012-07-21T17:15:39.0000000+00:00</time></trkpt><trkpt lat="64.08197784" lon="-19.59107208"><ele>367.4</ele><time>2012-07-21T17:15:44.0000000+00:00</time></trkpt><trkpt lat="64.08197784" lon="-19.59107208"><ele>367.4</ele><time>2012-07-21T17:15:49.0000000+00:00</time></trkpt><trkpt lat="64.08197784" lon="-19.59107208"><ele>367.3</ele><time>2012-07-21T17:15:54.0000000+00:00</time></trkpt><trkpt lat="64.08197784" lon="-19.59107208"><ele>367.4</ele><time>2012-07-21T17:15:59.0000000+00:00</time></trkpt><trkpt lat="64.08197784" lon="-19.59107018"><ele>367.4</ele><time>2012-07-21T17:16:04.0000000+00:00</time></trkpt><trkpt lat="64.08197784" lon="-19.59107018"><ele>367.4</ele><time>2012-07-21T17:16:09.0000000+00:00</time></trkpt><trkpt lat="64.08197784" lon="-19.59107018"><ele>367.4</ele><time>2012-07-21T17:16:14.0000000+00:00</time></trkpt><trkpt lat="64.08197784" lon="-19.59107018"><ele>367.4</ele><time>2012-07-21T17:16:19.0000000+00:00</time></trkpt><trkpt lat="64.08197784" lon="-19.59107018"><ele>367.4</ele><time>2012-07-21T17:16:24.0000000+00:00</time></trkpt><trkpt lat="64.08197784" lon="-19.59107018"><ele>367.4</ele><time>2012-07-21T17:16:29.0000000+00:00</time></trkpt><trkpt lat="64.08197784" lon="-19.59107018"><ele>367.4</ele><time>2012-07-21T17:16:34.0000000+00:00</time></trkpt><trkpt lat="64.08197784" lon="-19.59107018"><ele>367.4</ele><time>2012-07-21T17:16:39.0000000+00:00</time></trkpt><trkpt lat="64.08197784" lon="-19.59107018"><ele>367.4</ele><time>2012-07-21T17:16:44.0000000+00:00</time></trkpt><trkpt lat="64.08197784" lon="-19.59106827"><ele>367.4</ele><time>2012-07-21T17:16:49.0000000+00:00</time></trkpt><trkpt lat="64.08197784" lon="-19.59106827"><ele>367.4</ele><time>2012-07-21T17:16:54.0000000+00:00</time></trkpt><trkpt lat="64.08197784" lon="-19.59106827"><ele>367.4</ele><time>2012-07-21T17:16:59.0000000+00:00</time></trkpt><trkpt lat="64.08197784" lon="-19.59106827"><ele>367.4</ele><time>2012-07-21T17:17:04.0000000+00:00</time></trkpt><trkpt lat="64.08197784" lon="-19.59106827"><ele>367.4</ele><time>2012-07-21T17:17:09.0000000+00:00</time></trkpt><trkpt lat="64.08197784" lon="-19.59106827"><ele>367.4</ele><time>2012-07-21T17:17:14.0000000+00:00</time></trkpt><trkpt lat="64.08197784" lon="-19.59106827"><ele>367.4</ele><time>2012-07-21T17:17:19.0000000+00:00</time></trkpt><trkpt lat="64.08197784" lon="-19.59106827"><ele>367.4</ele><time>2012-07-21T17:17:24.0000000+00:00</time></trkpt><trkpt lat="64.08197784" lon="-19.59106827"><ele>367.4</ele><time>2012-07-21T17:17:29.0000000+00:00</time></trkpt><trkpt lat="64.08197784" lon="-19.59106827"><ele>367.4</ele><time>2012-07-21T17:17:34.0000000+00:00</time></trkpt><trkpt lat="64.08197784" lon="-19.59106827"><ele>367.4</ele><time>2012-07-21T17:17:39.0000000+00:00</time></trkpt><trkpt lat="64.08197784" lon="-19.59106827"><ele>367.4</ele><time>2012-07-21T17:17:44.0000000+00:00</time></trkpt><trkpt lat="64.08197784" lon="-19.59106636"><ele>367.4</ele><time>2012-07-21T17:17:49.0000000+00:00</time></trkpt><trkpt lat="64.08197784" lon="-19.59106636"><ele>367.4</ele><time>2012-07-21T17:17:54.0000000+00:00</time></trkpt><trkpt lat="64.08197784" lon="-19.59106636"><ele>367.4</ele><time>2012-07-21T17:17:59.0000000+00:00</time></trkpt><trkpt lat="64.08197784" lon="-19.59106636"><ele>367.4</ele><time>2012-07-21T17:18:04.0000000+00:00</time></trkpt><trkpt lat="64.08197784" lon="-19.59106636"><ele>367.4</ele><time>2012-07-21T17:18:09.0000000+00:00</time></trkpt><trkpt lat="64.08197784" lon="-19.59106636"><ele>367.4</ele><time>2012-07-21T17:18:14.0000000+00:00</time></trkpt><trkpt lat="64.08197784" lon="-19.59106827"><ele>367.4</ele><time>2012-07-21T17:18:19.0000000+00:00</time></trkpt><trkpt lat="64.08196259" lon="-19.59116364"><ele>368.0</ele><time>2012-07-21T17:18:24.0000000+00:00</time></trkpt><trkpt lat="64.08191681" lon="-19.59128952"><ele>367.9</ele><time>2012-07-21T17:18:29.0000000+00:00</time></trkpt><trkpt lat="64.08187866" lon="-19.59137344"><ele>367.3</ele><time>2012-07-21T17:18:34.0000000+00:00</time></trkpt><trkpt lat="64.08185577" lon="-19.59141922"><ele>367.4</ele><time>2012-07-21T17:18:39.0000000+00:00</time></trkpt><trkpt lat="64.08181763" lon="-19.59144783"><ele>366.5</ele><time>2012-07-21T17:18:44.0000000+00:00</time></trkpt><trkpt lat="64.08179474" lon="-19.59148216"><ele>366.2</ele><time>2012-07-21T17:18:49.0000000+00:00</time></trkpt><trkpt lat="64.08178711" lon="-19.59150124"><ele>366.7</ele><time>2012-07-21T17:18:54.0000000+00:00</time></trkpt><trkpt lat="64.08178711" lon="-19.59150124"><ele>366.7</ele><time>2012-07-21T17:18:59.0000000+00:00</time></trkpt><trkpt lat="64.08178711" lon="-19.59150124"><ele>366.7</ele><time>2012-07-21T17:19:04.0000000+00:00</time></trkpt><trkpt lat="64.08178711" lon="-19.59150124"><ele>366.7</ele><time>2012-07-21T17:19:09.0000000+00:00</time></trkpt><trkpt lat="64.08178711" lon="-19.59150124"><ele>366.7</ele><time>2012-07-21T17:19:14.0000000+00:00</time></trkpt><trkpt lat="64.08178711" lon="-19.59150124"><ele>366.7</ele><time>2012-07-21T17:19:19.0000000+00:00</time></trkpt><trkpt lat="64.08178711" lon="-19.59151077"><ele>366.8</ele><time>2012-07-21T17:19:24.0000000+00:00</time></trkpt><trkpt lat="64.08177948" lon="-19.59142113"><ele>366.7</ele><time>2012-07-21T17:19:29.0000000+00:00</time></trkpt><trkpt lat="64.08177185" lon="-19.59131432"><ele>366.1</ele><time>2012-07-21T17:19:34.0000000+00:00</time></trkpt><trkpt lat="64.08174896" lon="-19.59124756"><ele>365.5</ele><time>2012-07-21T17:19:39.0000000+00:00</time></trkpt><trkpt lat="64.08172607" lon="-19.59118271"><ele>365.7</ele><time>2012-07-21T17:19:44.0000000+00:00</time></trkpt><trkpt lat="64.08170319" lon="-19.59106827"><ele>364.7</ele><time>2012-07-21T17:19:49.0000000+00:00</time></trkpt><trkpt lat="64.0816803" lon="-19.59096336"><ele>364.6</ele><time>2012-07-21T17:19:54.0000000+00:00</time></trkpt><trkpt lat="64.08166504" lon="-19.59088326"><ele>365.0</ele><time>2012-07-21T17:19:59.0000000+00:00</time></trkpt><trkpt lat="64.08164215" lon="-19.59080696"><ele>365.0</ele><time>2012-07-21T17:20:04.0000000+00:00</time></trkpt><trkpt lat="64.08161163" lon="-19.59072685"><ele>366.8</ele><time>2012-07-21T17:20:09.0000000+00:00</time></trkpt><trkpt lat="64.08159638" lon="-19.59062576"><ele>368.5</ele><time>2012-07-21T17:20:14.0000000+00:00</time></trkpt><trkpt lat="64.08158112" lon="-19.59049416"><ele>366.7</ele><time>2012-07-21T17:20:19.0000000+00:00</time></trkpt><trkpt lat="64.08156586" lon="-19.59036255"><ele>366.3</ele><time>2012-07-21T17:20:24.0000000+00:00</time></trkpt><trkpt lat="64.08153534" lon="-19.59026909"><ele>366.7</ele><time>2012-07-21T17:20:29.0000000+00:00</time></trkpt><trkpt lat="64.08152008" lon="-19.59015465"><ele>366.8</ele><time>2012-07-21T17:20:34.0000000+00:00</time></trkpt><trkpt lat="64.08149719" lon="-19.59006882"><ele>368.0</ele><time>2012-07-21T17:20:39.0000000+00:00</time></trkpt><trkpt lat="64.0814743" lon="-19.58998489"><ele>369.6</ele><time>2012-07-21T17:20:44.0000000+00:00</time></trkpt><trkpt lat="64.08145905" lon="-19.58988953"><ele>370.8</ele><time>2012-07-21T17:20:49.0000000+00:00</time></trkpt><trkpt lat="64.08144379" lon="-19.58979988"><ele>370.8</ele><time>2012-07-21T17:20:54.0000000+00:00</time></trkpt><trkpt lat="64.08143616" lon="-19.58968735"><ele>370.7</ele><time>2012-07-21T17:20:59.0000000+00:00</time></trkpt><trkpt lat="64.0814209" lon="-19.58960533"><ele>370.7</ele><time>2012-07-21T17:21:04.0000000+00:00</time></trkpt><trkpt lat="64.08140564" lon="-19.58949661"><ele>370.5</ele><time>2012-07-21T17:21:09.0000000+00:00</time></trkpt><trkpt lat="64.08139801" lon="-19.58939171"><ele>370.7</ele><time>2012-07-21T17:21:14.0000000+00:00</time></trkpt><trkpt lat="64.08139038" lon="-19.58930397"><ele>370.5</ele><time>2012-07-21T17:21:19.0000000+00:00</time></trkpt><trkpt lat="64.08138275" lon="-19.58918762"><ele>370.1</ele><time>2012-07-21T17:21:24.0000000+00:00</time></trkpt><trkpt lat="64.08135986" lon="-19.5890789"><ele>370.5</ele><time>2012-07-21T17:21:29.0000000+00:00</time></trkpt><trkpt lat="64.08135223" lon="-19.58896256"><ele>369.4</ele><time>2012-07-21T17:21:34.0000000+00:00</time></trkpt><trkpt lat="64.08133698" lon="-19.58885193"><ele>368.7</ele><time>2012-07-21T17:21:39.0000000+00:00</time></trkpt><trkpt lat="64.08132172" lon="-19.58874512"><ele>368.6</ele><time>2012-07-21T17:21:44.0000000+00:00</time></trkpt><trkpt lat="64.08132172" lon="-19.58862686"><ele>368.7</ele><time>2012-07-21T17:21:49.0000000+00:00</time></trkpt><trkpt lat="64.08130646" lon="-19.58850288"><ele>369.9</ele><time>2012-07-21T17:21:54.0000000+00:00</time></trkpt><trkpt lat="64.08129883" lon="-19.58845711"><ele>370.5</ele><time>2012-07-21T17:21:59.0000000+00:00</time></trkpt><trkpt lat="64.08128357" lon="-19.58833122"><ele>369.4</ele><time>2012-07-21T17:22:04.0000000+00:00</time></trkpt><trkpt lat="64.08126831" lon="-19.58820534"><ele>368.3</ele><time>2012-07-21T17:22:09.0000000+00:00</time></trkpt><trkpt lat="64.08125305" lon="-19.58809853"><ele>368.0</ele><time>2012-07-21T17:22:14.0000000+00:00</time></trkpt><trkpt lat="64.08124542" lon="-19.58797836"><ele>368.1</ele><time>2012-07-21T17:22:19.0000000+00:00</time></trkpt><trkpt lat="64.08124542" lon="-19.58786583"><ele>368.5</ele><time>2012-07-21T17:22:24.0000000+00:00</time></trkpt><trkpt lat="64.08123016" lon="-19.58781815"><ele>368.4</ele><time>2012-07-21T17:22:29.0000000+00:00</time></trkpt><trkpt lat="64.08121491" lon="-19.58770943"><ele>367.2</ele><time>2012-07-21T17:22:34.0000000+00:00</time></trkpt><trkpt lat="64.08121491" lon="-19.58769798"><ele>367.5</ele><time>2012-07-21T17:22:39.0000000+00:00</time></trkpt><trkpt lat="64.08120728" lon="-19.58759117"><ele>367.0</ele><time>2012-07-21T17:22:44.0000000+00:00</time></trkpt><trkpt lat="64.08120728" lon="-19.58732605"><ele>365.5</ele><time>2012-07-21T17:22:49.0000000+00:00</time></trkpt><trkpt lat="64.08119965" lon="-19.58707619"><ele>363.8</ele><time>2012-07-21T17:22:54.0000000+00:00</time></trkpt><trkpt lat="64.08119965" lon="-19.58686256"><ele>363.2</ele><time>2012-07-21T17:22:59.0000000+00:00</time></trkpt><trkpt lat="64.08119202" lon="-19.58663368"><ele>362.6</ele><time>2012-07-21T17:23:04.0000000+00:00</time></trkpt><trkpt lat="64.08119202" lon="-19.58643341"><ele>362.8</ele><time>2012-07-21T17:23:09.0000000+00:00</time></trkpt><trkpt lat="64.08119202" lon="-19.5862217"><ele>362.7</ele><time>2012-07-21T17:23:14.0000000+00:00</time></trkpt><trkpt lat="64.08117676" lon="-19.58604431"><ele>362.9</ele><time>2012-07-21T17:23:19.0000000+00:00</time></trkpt><trkpt lat="64.08116913" lon="-19.5858345"><ele>363.1</ele><time>2012-07-21T17:23:24.0000000+00:00</time></trkpt><trkpt lat="64.0811615" lon="-19.58565331"><ele>363.6</ele><time>2012-07-21T17:23:29.0000000+00:00</time></trkpt><trkpt lat="64.08114624" lon="-19.58548737"><ele>363.8</ele><time>2012-07-21T17:23:34.0000000+00:00</time></trkpt><trkpt lat="64.08114624" lon="-19.58548737"><ele>362.9</ele><time>2012-07-21T17:23:39.0000000+00:00</time></trkpt><trkpt lat="64.08115387" lon="-19.58550835"><ele>362.8</ele><time>2012-07-21T17:23:44.0000000+00:00</time></trkpt><trkpt lat="64.08115387" lon="-19.58548737"><ele>362.5</ele><time>2012-07-21T17:23:49.0000000+00:00</time></trkpt><trkpt lat="64.08114624" lon="-19.58539391"><ele>362.1</ele><time>2012-07-21T17:23:54.0000000+00:00</time></trkpt><trkpt lat="64.08113098" lon="-19.58528519"><ele>361.5</ele><time>2012-07-21T17:23:59.0000000+00:00</time></trkpt><trkpt lat="64.08111572" lon="-19.58517265"><ele>361.6</ele><time>2012-07-21T17:24:04.0000000+00:00</time></trkpt><trkpt lat="64.08111572" lon="-19.58505631"><ele>361.8</ele><time>2012-07-21T17:24:09.0000000+00:00</time></trkpt><trkpt lat="64.08110809" lon="-19.58494759"><ele>362.5</ele><time>2012-07-21T17:24:14.0000000+00:00</time></trkpt><trkpt lat="64.08110809" lon="-19.58483887"><ele>363.1</ele><time>2012-07-21T17:24:19.0000000+00:00</time></trkpt><trkpt lat="64.08110809" lon="-19.58477783"><ele>363.2</ele><time>2012-07-21T17:24:24.0000000+00:00</time></trkpt><trkpt lat="64.08109283" lon="-19.58468247"><ele>363.4</ele><time>2012-07-21T17:24:29.0000000+00:00</time></trkpt><trkpt lat="64.08110046" lon="-19.58456993"><ele>363.3</ele><time>2012-07-21T17:24:34.0000000+00:00</time></trkpt><trkpt lat="64.08110046" lon="-19.58446693"><ele>363.5</ele><time>2012-07-21T17:24:39.0000000+00:00</time></trkpt><trkpt lat="64.08108521" lon="-19.58433723"><ele>362.7</ele><time>2012-07-21T17:24:44.0000000+00:00</time></trkpt><trkpt lat="64.08108521" lon="-19.58420944"><ele>362.7</ele><time>2012-07-21T17:24:49.0000000+00:00</time></trkpt><trkpt lat="64.08106995" lon="-19.58409119"><ele>362.7</ele><time>2012-07-21T17:24:54.0000000+00:00</time></trkpt><trkpt lat="64.08107758" lon="-19.58398247"><ele>362.7</ele><time>2012-07-21T17:24:59.0000000+00:00</time></trkpt><trkpt lat="64.08107758" lon="-19.58389854"><ele>362.7</ele><time>2012-07-21T17:25:04.0000000+00:00</time></trkpt><trkpt lat="64.08107758" lon="-19.58386612"><ele>362.7</ele><time>2012-07-21T17:25:09.0000000+00:00</time></trkpt><trkpt lat="64.08107758" lon="-19.58378792"><ele>363.0</ele><time>2012-07-21T17:25:14.0000000+00:00</time></trkpt><trkpt lat="64.08108521" lon="-19.58367729"><ele>363.3</ele><time>2012-07-21T17:25:19.0000000+00:00</time></trkpt><trkpt lat="64.08108521" lon="-19.58356476"><ele>363.8</ele><time>2012-07-21T17:25:24.0000000+00:00</time></trkpt><trkpt lat="64.08106995" lon="-19.58344078"><ele>363.3</ele><time>2012-07-21T17:25:29.0000000+00:00</time></trkpt><trkpt lat="64.08107758" lon="-19.58330917"><ele>363.6</ele><time>2012-07-21T17:25:34.0000000+00:00</time></trkpt><trkpt lat="64.08107758" lon="-19.58316803"><ele>363.3</ele><time>2012-07-21T17:25:39.0000000+00:00</time></trkpt><trkpt lat="64.08106995" lon="-19.58312225"><ele>363.2</ele><time>2012-07-21T17:25:44.0000000+00:00</time></trkpt><trkpt lat="64.08106995" lon="-19.58305168"><ele>363.2</ele><time>2012-07-21T17:25:49.0000000+00:00</time></trkpt><trkpt lat="64.08107758" lon="-19.58291626"><ele>363.6</ele><time>2012-07-21T17:25:54.0000000+00:00</time></trkpt><trkpt lat="64.08107758" lon="-19.58278465"><ele>363.4</ele><time>2012-07-21T17:25:59.0000000+00:00</time></trkpt><trkpt lat="64.08108521" lon="-19.58267212"><ele>363.6</ele><time>2012-07-21T17:26:04.0000000+00:00</time></trkpt><trkpt lat="64.08108521" lon="-19.58254623"><ele>363.4</ele><time>2012-07-21T17:26:09.0000000+00:00</time></trkpt><trkpt lat="64.08108521" lon="-19.58243179"><ele>363.5</ele><time>2012-07-21T17:26:14.0000000+00:00</time></trkpt><trkpt lat="64.08108521" lon="-19.58230591"><ele>363.2</ele><time>2012-07-21T17:26:19.0000000+00:00</time></trkpt><trkpt lat="64.08109283" lon="-19.58219147"><ele>362.7</ele><time>2012-07-21T17:26:24.0000000+00:00</time></trkpt><trkpt lat="64.08110046" lon="-19.58208656"><ele>362.7</ele><time>2012-07-21T17:26:29.0000000+00:00</time></trkpt><trkpt lat="64.08111572" lon="-19.58198357"><ele>362.7</ele><time>2012-07-21T17:26:34.0000000+00:00</time></trkpt><trkpt lat="64.08112335" lon="-19.58198357"><ele>362.5</ele><time>2012-07-21T17:26:39.0000000+00:00</time></trkpt><trkpt lat="64.08112335" lon="-19.58194351"><ele>362.4</ele><time>2012-07-21T17:26:44.0000000+00:00</time></trkpt><trkpt lat="64.08112335" lon="-19.58194161"><ele>362.6</ele><time>2012-07-21T17:26:49.0000000+00:00</time></trkpt><trkpt lat="64.08112335" lon="-19.5819397"><ele>362.6</ele><time>2012-07-21T17:26:54.0000000+00:00</time></trkpt><trkpt lat="64.08112335" lon="-19.58192253"><ele>362.7</ele><time>2012-07-21T17:26:59.0000000+00:00</time></trkpt><trkpt lat="64.08113861" lon="-19.58179855"><ele>363.1</ele><time>2012-07-21T17:27:04.0000000+00:00</time></trkpt><trkpt lat="64.08114624" lon="-19.58168221"><ele>363.5</ele><time>2012-07-21T17:27:09.0000000+00:00</time></trkpt><trkpt lat="64.08116913" lon="-19.58156204"><ele>363.2</ele><time>2012-07-21T17:27:14.0000000+00:00</time></trkpt><trkpt lat="64.08119965" lon="-19.58144379"><ele>363.1</ele><time>2012-07-21T17:27:19.0000000+00:00</time></trkpt><trkpt lat="64.08122253" lon="-19.5813694"><ele>362.6</ele><time>2012-07-21T17:27:24.0000000+00:00</time></trkpt><trkpt lat="64.08124542" lon="-19.58130646"><ele>362.9</ele><time>2012-07-21T17:27:29.0000000+00:00</time></trkpt><trkpt lat="64.08128357" lon="-19.58120155"><ele>362.9</ele><time>2012-07-21T17:27:34.0000000+00:00</time></trkpt><trkpt lat="64.08131409" lon="-19.58110046"><ele>363.3</ele><time>2012-07-21T17:27:39.0000000+00:00</time></trkpt><trkpt lat="64.0813446" lon="-19.58102799"><ele>363.5</ele><time>2012-07-21T17:27:44.0000000+00:00</time></trkpt><trkpt lat="64.08138275" lon="-19.58093071"><ele>363.5</ele><time>2012-07-21T17:27:49.0000000+00:00</time></trkpt><trkpt lat="64.08139038" lon="-19.58089829"><ele>364.0</ele><time>2012-07-21T17:27:54.0000000+00:00</time></trkpt><trkpt lat="64.08139801" lon="-19.58089638"><ele>364.2</ele><time>2012-07-21T17:27:59.0000000+00:00</time></trkpt><trkpt lat="64.08140564" lon="-19.58089638"><ele>364.5</ele><time>2012-07-21T17:28:04.0000000+00:00</time></trkpt><trkpt lat="64.08141327" lon="-19.58089447"><ele>364.8</ele><time>2012-07-21T17:28:09.0000000+00:00</time></trkpt><trkpt lat="64.08141327" lon="-19.58089256"><ele>364.9</ele><time>2012-07-21T17:28:14.0000000+00:00</time></trkpt><trkpt lat="64.08141327" lon="-19.58089447"><ele>365.0</ele><time>2012-07-21T17:28:19.0000000+00:00</time></trkpt><trkpt lat="64.08141327" lon="-19.58089447"><ele>365.1</ele><time>2012-07-21T17:28:24.0000000+00:00</time></trkpt><trkpt lat="64.08141327" lon="-19.58089447"><ele>365.1</ele><time>2012-07-21T17:28:29.0000000+00:00</time></trkpt><trkpt lat="64.08141327" lon="-19.58089447"><ele>365.1</ele><time>2012-07-21T17:28:34.0000000+00:00</time></trkpt><trkpt lat="64.08141327" lon="-19.58089447"><ele>365.1</ele><time>2012-07-21T17:28:39.0000000+00:00</time></trkpt><trkpt lat="64.08141327" lon="-19.58089447"><ele>365.0</ele><time>2012-07-21T17:28:44.0000000+00:00</time></trkpt><trkpt lat="64.08141327" lon="-19.58089447"><ele>365.0</ele><time>2012-07-21T17:28:49.0000000+00:00</time></trkpt><trkpt lat="64.08141327" lon="-19.58089447"><ele>365.0</ele><time>2012-07-21T17:28:54.0000000+00:00</time></trkpt><trkpt lat="64.08141327" lon="-19.58089447"><ele>365.0</ele><time>2012-07-21T17:28:59.0000000+00:00</time></trkpt><trkpt lat="64.08144379" lon="-19.58083916"><ele>365.0</ele><time>2012-07-21T17:29:04.0000000+00:00</time></trkpt><trkpt lat="64.08151245" lon="-19.58072853"><ele>365.7</ele><time>2012-07-21T17:29:09.0000000+00:00</time></trkpt><trkpt lat="64.08155823" lon="-19.58060074"><ele>365.6</ele><time>2012-07-21T17:29:14.0000000+00:00</time></trkpt><trkpt lat="64.08159638" lon="-19.58048439"><ele>364.9</ele><time>2012-07-21T17:29:19.0000000+00:00</time></trkpt><trkpt lat="64.08166504" lon="-19.58038902"><ele>365.2</ele><time>2012-07-21T17:29:24.0000000+00:00</time></trkpt><trkpt lat="64.08169556" lon="-19.58034897"><ele>365.8</ele><time>2012-07-21T17:29:29.0000000+00:00</time></trkpt><trkpt lat="64.08175659" lon="-19.5802536"><ele>366.2</ele><time>2012-07-21T17:29:34.0000000+00:00</time></trkpt><trkpt lat="64.08185577" lon="-19.58008766"><ele>366.5</ele><time>2012-07-21T17:29:39.0000000+00:00</time></trkpt><trkpt lat="64.08197784" lon="-19.57992363"><ele>364.9</ele><time>2012-07-21T17:29:44.0000000+00:00</time></trkpt><trkpt lat="64.0820694" lon="-19.57982636"><ele>363.7</ele><time>2012-07-21T17:29:49.0000000+00:00</time></trkpt><trkpt lat="64.08217621" lon="-19.57966423"><ele>364.4</ele><time>2012-07-21T17:29:54.0000000+00:00</time></trkpt><trkpt lat="64.08227539" lon="-19.57952499"><ele>364.5</ele><time>2012-07-21T17:29:59.0000000+00:00</time></trkpt><trkpt lat="64.08236694" lon="-19.57940483"><ele>364.4</ele><time>2012-07-21T17:30:04.0000000+00:00</time></trkpt><trkpt lat="64.08247376" lon="-19.5792408"><ele>365.1</ele><time>2012-07-21T17:30:09.0000000+00:00</time></trkpt><trkpt lat="64.0825882" lon="-19.57909012"><ele>365.9</ele><time>2012-07-21T17:30:14.0000000+00:00</time></trkpt><trkpt lat="64.08269501" lon="-19.57893944"><ele>367.5</ele><time>2012-07-21T17:30:19.0000000+00:00</time></trkpt><trkpt lat="64.08278656" lon="-19.57876778"><ele>367.5</ele><time>2012-07-21T17:30:24.0000000+00:00</time></trkpt><trkpt lat="64.08290863" lon="-19.57861137"><ele>368.8</ele><time>2012-07-21T17:30:29.0000000+00:00</time></trkpt><trkpt lat="64.08301544" lon="-19.57842445"><ele>367.2</ele><time>2012-07-21T17:30:34.0000000+00:00</time></trkpt><trkpt lat="64.08314514" lon="-19.57825279"><ele>367.6</ele><time>2012-07-21T17:30:39.0000000+00:00</time></trkpt><trkpt lat="64.08325958" lon="-19.57803726"><ele>367.5</ele><time>2012-07-21T17:30:44.0000000+00:00</time></trkpt><trkpt lat="64.08332825" lon="-19.57785416"><ele>365.0</ele><time>2012-07-21T17:30:49.0000000+00:00</time></trkpt><trkpt lat="64.08339691" lon="-19.57766724"><ele>364.6</ele><time>2012-07-21T17:30:54.0000000+00:00</time></trkpt><trkpt lat="64.08345032" lon="-19.57751465"><ele>363.8</ele><time>2012-07-21T17:30:59.0000000+00:00</time></trkpt><trkpt lat="64.08351135" lon="-19.5773201"><ele>363.1</ele><time>2012-07-21T17:31:04.0000000+00:00</time></trkpt><trkpt lat="64.08354187" lon="-19.57718086"><ele>362.8</ele><time>2012-07-21T17:31:09.0000000+00:00</time></trkpt><trkpt lat="64.08358765" lon="-19.57704735"><ele>362.2</ele><time>2012-07-21T17:31:14.0000000+00:00</time></trkpt><trkpt lat="64.08362579" lon="-19.57688713"><ele>362.0</ele><time>2012-07-21T17:31:19.0000000+00:00</time></trkpt><trkpt lat="64.08366394" lon="-19.57671547"><ele>361.8</ele><time>2012-07-21T17:31:24.0000000+00:00</time></trkpt><trkpt lat="64.08369446" lon="-19.57651901"><ele>361.7</ele><time>2012-07-21T17:31:29.0000000+00:00</time></trkpt><trkpt lat="64.08373261" lon="-19.57632828"><ele>361.6</ele><time>2012-07-21T17:31:34.0000000+00:00</time></trkpt><trkpt lat="64.08376312" lon="-19.57615089"><ele>361.3</ele><time>2012-07-21T17:31:39.0000000+00:00</time></trkpt><trkpt lat="64.08379364" lon="-19.57598686"><ele>361.1</ele><time>2012-07-21T17:31:44.0000000+00:00</time></trkpt><trkpt lat="64.0838089" lon="-19.57584"><ele>361.0</ele><time>2012-07-21T17:31:49.0000000+00:00</time></trkpt><trkpt lat="64.08383942" lon="-19.57567787"><ele>361.1</ele><time>2012-07-21T17:31:54.0000000+00:00</time></trkpt><trkpt lat="64.08387756" lon="-19.57550812"><ele>361.0</ele><time>2012-07-21T17:31:59.0000000+00:00</time></trkpt><trkpt lat="64.08390045" lon="-19.57535172"><ele>361.4</ele><time>2012-07-21T17:32:04.0000000+00:00</time></trkpt><trkpt lat="64.0839386" lon="-19.57517815"><ele>361.4</ele><time>2012-07-21T17:32:09.0000000+00:00</time></trkpt><trkpt lat="64.08397675" lon="-19.57499313"><ele>361.5</ele><time>2012-07-21T17:32:14.0000000+00:00</time></trkpt><trkpt lat="64.08401489" lon="-19.57479668"><ele>361.9</ele><time>2012-07-21T17:32:19.0000000+00:00</time></trkpt><trkpt lat="64.08405304" lon="-19.57458878"><ele>361.4</ele><time>2012-07-21T17:32:24.0000000+00:00</time></trkpt><trkpt lat="64.08409119" lon="-19.57437515"><ele>361.3</ele><time>2012-07-21T17:32:29.0000000+00:00</time></trkpt><trkpt lat="64.08414459" lon="-19.5741806"><ele>361.5</ele><time>2012-07-21T17:32:34.0000000+00:00</time></trkpt><trkpt lat="64.08417511" lon="-19.57397461"><ele>361.6</ele><time>2012-07-21T17:32:39.0000000+00:00</time></trkpt><trkpt lat="64.08421326" lon="-19.57376289"><ele>361.4</ele><time>2012-07-21T17:32:44.0000000+00:00</time></trkpt><trkpt lat="64.08423615" lon="-19.57356834"><ele>361.3</ele><time>2012-07-21T17:32:49.0000000+00:00</time></trkpt><trkpt lat="64.08426666" lon="-19.57335472"><ele>360.7</ele><time>2012-07-21T17:32:54.0000000+00:00</time></trkpt><trkpt lat="64.08430481" lon="-19.57315254"><ele>360.9</ele><time>2012-07-21T17:32:59.0000000+00:00</time></trkpt><trkpt lat="64.08433533" lon="-19.57296944"><ele>360.8</ele><time>2012-07-21T17:33:04.0000000+00:00</time></trkpt><trkpt lat="64.08436585" lon="-19.57276917"><ele>360.6</ele><time>2012-07-21T17:33:09.0000000+00:00</time></trkpt><trkpt lat="64.08440399" lon="-19.57256508"><ele>360.2</ele><time>2012-07-21T17:33:14.0000000+00:00</time></trkpt><trkpt lat="64.08443451" lon="-19.57236099"><ele>360.3</ele><time>2012-07-21T17:33:19.0000000+00:00</time></trkpt><trkpt lat="64.08444214" lon="-19.57215691"><ele>360.8</ele><time>2012-07-21T17:33:24.0000000+00:00</time></trkpt><trkpt lat="64.08447266" lon="-19.57192802"><ele>360.7</ele><time>2012-07-21T17:33:29.0000000+00:00</time></trkpt><trkpt lat="64.0845108" lon="-19.57172203"><ele>360.7</ele><time>2012-07-21T17:33:34.0000000+00:00</time></trkpt><trkpt lat="64.08451843" lon="-19.57151985"><ele>361.5</ele><time>2012-07-21T17:33:39.0000000+00:00</time></trkpt><trkpt lat="64.08454132" lon="-19.57135773"><ele>361.7</ele><time>2012-07-21T17:33:44.0000000+00:00</time></trkpt><trkpt lat="64.08455658" lon="-19.5711937"><ele>361.7</ele><time>2012-07-21T17:33:49.0000000+00:00</time></trkpt><trkpt lat="64.08457184" lon="-19.57100868"><ele>361.2</ele><time>2012-07-21T17:33:54.0000000+00:00</time></trkpt><trkpt lat="64.0845871" lon="-19.57084847"><ele>361.2</ele><time>2012-07-21T17:33:59.0000000+00:00</time></trkpt><trkpt lat="64.08459473" lon="-19.5706749"><ele>361.1</ele><time>2012-07-21T17:34:04.0000000+00:00</time></trkpt><trkpt lat="64.08460999" lon="-19.57051086"><ele>360.8</ele><time>2012-07-21T17:34:09.0000000+00:00</time></trkpt><trkpt lat="64.08463287" lon="-19.57034302"><ele>360.7</ele><time>2012-07-21T17:34:14.0000000+00:00</time></trkpt><trkpt lat="64.08464813" lon="-19.57023239"><ele>360.5</ele><time>2012-07-21T17:34:19.0000000+00:00</time></trkpt><trkpt lat="64.08467865" lon="-19.57008934"><ele>361.1</ele><time>2012-07-21T17:34:24.0000000+00:00</time></trkpt><trkpt lat="64.08468628" lon="-19.56998062"><ele>361.2</ele><time>2012-07-21T17:34:29.0000000+00:00</time></trkpt><trkpt lat="64.08470917" lon="-19.56984329"><ele>361.3</ele><time>2012-07-21T17:34:34.0000000+00:00</time></trkpt><trkpt lat="64.08472443" lon="-19.56974602"><ele>361.6</ele><time>2012-07-21T17:34:39.0000000+00:00</time></trkpt><trkpt lat="64.0847168" lon="-19.56959724"><ele>361.5</ele><time>2012-07-21T17:34:44.0000000+00:00</time></trkpt><trkpt lat="64.08470917" lon="-19.56943893"><ele>362.1</ele><time>2012-07-21T17:34:49.0000000+00:00</time></trkpt><trkpt lat="64.08470917" lon="-19.56931686"><ele>362.5</ele><time>2012-07-21T17:34:54.0000000+00:00</time></trkpt><trkpt lat="64.08468628" lon="-19.56930161"><ele>362.6</ele><time>2012-07-21T17:34:59.0000000+00:00</time></trkpt><trkpt lat="64.08469391" lon="-19.56931496"><ele>362.2</ele><time>2012-07-21T17:35:04.0000000+00:00</time></trkpt><trkpt lat="64.08469391" lon="-19.56926346"><ele>361.1</ele><time>2012-07-21T17:35:09.0000000+00:00</time></trkpt><trkpt lat="64.0847168" lon="-19.56918716"><ele>360.4</ele><time>2012-07-21T17:35:14.0000000+00:00</time></trkpt><trkpt lat="64.0847168" lon="-19.5690918"><ele>360.2</ele><time>2012-07-21T17:35:19.0000000+00:00</time></trkpt><trkpt lat="64.08470154" lon="-19.5690155"><ele>360.2</ele><time>2012-07-21T17:35:24.0000000+00:00</time></trkpt><trkpt lat="64.08469391" lon="-19.56892395"><ele>360.0</ele><time>2012-07-21T17:35:29.0000000+00:00</time></trkpt><trkpt lat="64.08470154" lon="-19.56883431"><ele>359.9</ele><time>2012-07-21T17:35:34.0000000+00:00</time></trkpt><trkpt lat="64.08469391" lon="-19.56872368"><ele>360.3</ele><time>2012-07-21T17:35:39.0000000+00:00</time></trkpt><trkpt lat="64.08469391" lon="-19.56865311"><ele>360.9</ele><time>2012-07-21T17:35:44.0000000+00:00</time></trkpt><trkpt lat="64.08469391" lon="-19.56858254"><ele>361.7</ele><time>2012-07-21T17:35:49.0000000+00:00</time></trkpt><trkpt lat="64.08468628" lon="-19.56847191"><ele>362.5</ele><time>2012-07-21T17:35:54.0000000+00:00</time></trkpt><trkpt lat="64.08467102" lon="-19.56837082"><ele>363.2</ele><time>2012-07-21T17:35:59.0000000+00:00</time></trkpt><trkpt lat="64.08467865" lon="-19.5683136"><ele>364.0</ele><time>2012-07-21T17:36:04.0000000+00:00</time></trkpt><trkpt lat="64.08468628" lon="-19.56824303"><ele>363.8</ele><time>2012-07-21T17:36:09.0000000+00:00</time></trkpt><trkpt lat="64.08468628" lon="-19.5681057"><ele>363.7</ele><time>2012-07-21T17:36:14.0000000+00:00</time></trkpt><trkpt lat="64.08467865" lon="-19.56799507"><ele>363.8</ele><time>2012-07-21T17:36:19.0000000+00:00</time></trkpt><trkpt lat="64.08467865" lon="-19.56788445"><ele>364.1</ele><time>2012-07-21T17:36:24.0000000+00:00</time></trkpt><trkpt lat="64.08467865" lon="-19.56778336"><ele>364.5</ele><time>2012-07-21T17:36:29.0000000+00:00</time></trkpt><trkpt lat="64.08467865" lon="-19.56767464"><ele>363.7</ele><time>2012-07-21T17:36:34.0000000+00:00</time></trkpt><trkpt lat="64.08469391" lon="-19.56755829"><ele>364.5</ele><time>2012-07-21T17:36:39.0000000+00:00</time></trkpt><trkpt lat="64.08469391" lon="-19.56751251"><ele>364.6</ele><time>2012-07-21T17:36:44.0000000+00:00</time></trkpt><trkpt lat="64.08469391" lon="-19.56751251"><ele>364.1</ele><time>2012-07-21T17:36:49.0000000+00:00</time></trkpt><trkpt lat="64.08469391" lon="-19.56746101"><ele>364.3</ele><time>2012-07-21T17:36:54.0000000+00:00</time></trkpt><trkpt lat="64.08469391" lon="-19.56735802"><ele>364.9</ele><time>2012-07-21T17:36:59.0000000+00:00</time></trkpt><trkpt lat="64.08468628" lon="-19.56723213"><ele>364.2</ele><time>2012-07-21T17:37:04.0000000+00:00</time></trkpt><trkpt lat="64.08468628" lon="-19.56712723"><ele>365.1</ele><time>2012-07-21T17:37:09.0000000+00:00</time></trkpt><trkpt lat="64.08469391" lon="-19.56699181"><ele>366.0</ele><time>2012-07-21T17:37:14.0000000+00:00</time></trkpt><trkpt lat="64.08470154" lon="-19.56691742"><ele>365.2</ele><time>2012-07-21T17:37:19.0000000+00:00</time></trkpt><trkpt lat="64.08469391" lon="-19.56680107"><ele>365.0</ele><time>2012-07-21T17:37:24.0000000+00:00</time></trkpt><trkpt lat="64.08468628" lon="-19.56670189"><ele>364.8</ele><time>2012-07-21T17:37:29.0000000+00:00</time></trkpt><trkpt lat="64.08468628" lon="-19.56659126"><ele>364.6</ele><time>2012-07-21T17:37:34.0000000+00:00</time></trkpt><trkpt lat="64.08467865" lon="-19.56647492"><ele>364.7</ele><time>2012-07-21T17:37:39.0000000+00:00</time></trkpt><trkpt lat="64.08468628" lon="-19.5663662"><ele>364.6</ele><time>2012-07-21T17:37:44.0000000+00:00</time></trkpt><trkpt lat="64.08469391" lon="-19.56625938"><ele>364.7</ele><time>2012-07-21T17:37:49.0000000+00:00</time></trkpt><trkpt lat="64.08468628" lon="-19.56614876"><ele>364.1</ele><time>2012-07-21T17:37:54.0000000+00:00</time></trkpt><trkpt lat="64.08467865" lon="-19.56604958"><ele>363.2</ele><time>2012-07-21T17:37:59.0000000+00:00</time></trkpt><trkpt lat="64.08467865" lon="-19.5659523"><ele>363.2</ele><time>2012-07-21T17:38:04.0000000+00:00</time></trkpt><trkpt lat="64.08467865" lon="-19.56587982"><ele>363.0</ele><time>2012-07-21T17:38:09.0000000+00:00</time></trkpt><trkpt lat="64.08467102" lon="-19.56577683"><ele>361.8</ele><time>2012-07-21T17:38:14.0000000+00:00</time></trkpt><trkpt lat="64.08467865" lon="-19.56568909"><ele>361.9</ele><time>2012-07-21T17:38:19.0000000+00:00</time></trkpt><trkpt lat="64.08467865" lon="-19.56558418"><ele>361.5</ele><time>2012-07-21T17:38:24.0000000+00:00</time></trkpt><trkpt lat="64.08467865" lon="-19.56547165"><ele>362.0</ele><time>2012-07-21T17:38:29.0000000+00:00</time></trkpt><trkpt lat="64.08467865" lon="-19.56537247"><ele>362.5</ele><time>2012-07-21T17:38:34.0000000+00:00</time></trkpt><trkpt lat="64.08467865" lon="-19.56525421"><ele>362.3</ele><time>2012-07-21T17:38:39.0000000+00:00</time></trkpt><trkpt lat="64.08469391" lon="-19.56517601"><ele>362.2</ele><time>2012-07-21T17:38:44.0000000+00:00</time></trkpt><trkpt lat="64.08470154" lon="-19.56510925"><ele>363.7</ele><time>2012-07-21T17:38:49.0000000+00:00</time></trkpt><trkpt lat="64.08469391" lon="-19.56500626"><ele>364.5</ele><time>2012-07-21T17:38:54.0000000+00:00</time></trkpt><trkpt lat="64.08467865" lon="-19.56489754"><ele>364.6</ele><time>2012-07-21T17:38:59.0000000+00:00</time></trkpt><trkpt lat="64.08468628" lon="-19.56478691"><ele>365.3</ele><time>2012-07-21T17:39:04.0000000+00:00</time></trkpt><trkpt lat="64.08468628" lon="-19.56468201"><ele>363.8</ele><time>2012-07-21T17:39:09.0000000+00:00</time></trkpt><trkpt lat="64.08467865" lon="-19.56458092"><ele>363.7</ele><time>2012-07-21T17:39:14.0000000+00:00</time></trkpt><trkpt lat="64.08468628" lon="-19.56447792"><ele>363.9</ele><time>2012-07-21T17:39:19.0000000+00:00</time></trkpt><trkpt lat="64.08467865" lon="-19.56436348"><ele>363.8</ele><time>2012-07-21T17:39:24.0000000+00:00</time></trkpt><trkpt lat="64.08469391" lon="-19.56426048"><ele>364.4</ele><time>2012-07-21T17:39:29.0000000+00:00</time></trkpt><trkpt lat="64.08468628" lon="-19.5641861"><ele>364.4</ele><time>2012-07-21T17:39:34.0000000+00:00</time></trkpt><trkpt lat="64.08467865" lon="-19.56408691"><ele>364.9</ele><time>2012-07-21T17:39:39.0000000+00:00</time></trkpt><trkpt lat="64.08468628" lon="-19.5639801"><ele>364.9</ele><time>2012-07-21T17:39:44.0000000+00:00</time></trkpt><trkpt lat="64.08469391" lon="-19.56386375"><ele>366.1</ele><time>2012-07-21T17:39:49.0000000+00:00</time></trkpt><trkpt lat="64.08469391" lon="-19.56373406"><ele>366.2</ele><time>2012-07-21T17:39:54.0000000+00:00</time></trkpt><trkpt lat="64.08468628" lon="-19.56362724"><ele>366.2</ele><time>2012-07-21T17:39:59.0000000+00:00</time></trkpt><trkpt lat="64.08468628" lon="-19.56350327"><ele>366.3</ele><time>2012-07-21T17:40:04.0000000+00:00</time></trkpt><trkpt lat="64.08468628" lon="-19.56340027"><ele>366.1</ele><time>2012-07-21T17:40:09.0000000+00:00</time></trkpt><trkpt lat="64.08468628" lon="-19.56330872"><ele>366.0</ele><time>2012-07-21T17:40:14.0000000+00:00</time></trkpt><trkpt lat="64.08468628" lon="-19.56320953"><ele>365.0</ele><time>2012-07-21T17:40:19.0000000+00:00</time></trkpt><trkpt lat="64.08468628" lon="-19.563097"><ele>365.8</ele><time>2012-07-21T17:40:24.0000000+00:00</time></trkpt><trkpt lat="64.08468628" lon="-19.562994"><ele>366.2</ele><time>2012-07-21T17:40:29.0000000+00:00</time></trkpt><trkpt lat="64.08468628" lon="-19.56295586"><ele>366.0</ele><time>2012-07-21T17:40:34.0000000+00:00</time></trkpt><trkpt lat="64.08467865" lon="-19.56293678"><ele>366.8</ele><time>2012-07-21T17:40:39.0000000+00:00</time></trkpt><trkpt lat="64.08467865" lon="-19.56282997"><ele>367.1</ele><time>2012-07-21T17:40:44.0000000+00:00</time></trkpt><trkpt lat="64.08467102" lon="-19.56270218"><ele>367.4</ele><time>2012-07-21T17:40:49.0000000+00:00</time></trkpt><trkpt lat="64.08467865" lon="-19.56258774"><ele>366.8</ele><time>2012-07-21T17:40:54.0000000+00:00</time></trkpt><trkpt lat="64.08467865" lon="-19.56247139"><ele>366.8</ele><time>2012-07-21T17:40:59.0000000+00:00</time></trkpt><trkpt lat="64.08467865" lon="-19.56234551"><ele>367.4</ele><time>2012-07-21T17:41:04.0000000+00:00</time></trkpt><trkpt lat="64.08467102" lon="-19.56221962"><ele>367.0</ele><time>2012-07-21T17:41:09.0000000+00:00</time></trkpt><trkpt lat="64.08466339" lon="-19.56209946"><ele>367.2</ele><time>2012-07-21T17:41:14.0000000+00:00</time></trkpt><trkpt lat="64.08463287" lon="-19.56196976"><ele>366.7</ele><time>2012-07-21T17:41:19.0000000+00:00</time></trkpt><trkpt lat="64.08460999" lon="-19.56183815"><ele>366.4</ele><time>2012-07-21T17:41:24.0000000+00:00</time></trkpt><trkpt lat="64.08457947" lon="-19.56172752"><ele>367.2</ele><time>2012-07-21T17:41:29.0000000+00:00</time></trkpt><trkpt lat="64.08454895" lon="-19.56160545"><ele>366.6</ele><time>2012-07-21T17:41:34.0000000+00:00</time></trkpt><trkpt lat="64.08452606" lon="-19.56149483"><ele>365.7</ele><time>2012-07-21T17:41:39.0000000+00:00</time></trkpt><trkpt lat="64.08448792" lon="-19.56138992"><ele>366.3</ele><time>2012-07-21T17:41:44.0000000+00:00</time></trkpt><trkpt lat="64.08444977" lon="-19.56128311"><ele>366.5</ele><time>2012-07-21T17:41:49.0000000+00:00</time></trkpt><trkpt lat="64.08441162" lon="-19.56117058"><ele>366.8</ele><time>2012-07-21T17:41:54.0000000+00:00</time></trkpt><trkpt lat="64.08436585" lon="-19.56107712"><ele>367.1</ele><time>2012-07-21T17:41:59.0000000+00:00</time></trkpt><trkpt lat="64.08434296" lon="-19.56105232"><ele>367.3</ele><time>2012-07-21T17:42:04.0000000+00:00</time></trkpt><trkpt lat="64.08429718" lon="-19.56096268"><ele>367.4</ele><time>2012-07-21T17:42:09.0000000+00:00</time></trkpt><trkpt lat="64.08424377" lon="-19.56090164"><ele>367.4</ele><time>2012-07-21T17:42:14.0000000+00:00</time></trkpt><trkpt lat="64.084198" lon="-19.56085587"><ele>368.1</ele><time>2012-07-21T17:42:19.0000000+00:00</time></trkpt><trkpt lat="64.08413696" lon="-19.56081963"><ele>368.7</ele><time>2012-07-21T17:42:24.0000000+00:00</time></trkpt><trkpt lat="64.08408356" lon="-19.56077957"><ele>368.8</ele><time>2012-07-21T17:42:29.0000000+00:00</time></trkpt><trkpt lat="64.08402252" lon="-19.56076622"><ele>368.9</ele><time>2012-07-21T17:42:34.0000000+00:00</time></trkpt><trkpt lat="64.08396149" lon="-19.56073952"><ele>368.6</ele><time>2012-07-21T17:42:39.0000000+00:00</time></trkpt><trkpt lat="64.08390045" lon="-19.56071472"><ele>368.2</ele><time>2012-07-21T17:42:44.0000000+00:00</time></trkpt><trkpt lat="64.08384705" lon="-19.56070709"><ele>367.9</ele><time>2012-07-21T17:42:49.0000000+00:00</time></trkpt><trkpt lat="64.08378601" lon="-19.560709"><ele>367.7</ele><time>2012-07-21T17:42:54.0000000+00:00</time></trkpt><trkpt lat="64.08373261" lon="-19.56072426"><ele>368.1</ele><time>2012-07-21T17:42:59.0000000+00:00</time></trkpt><trkpt lat="64.08366394" lon="-19.56068802"><ele>368.4</ele><time>2012-07-21T17:43:04.0000000+00:00</time></trkpt><trkpt lat="64.08361054" lon="-19.5606823"><ele>368.3</ele><time>2012-07-21T17:43:09.0000000+00:00</time></trkpt><trkpt lat="64.0835495" lon="-19.56068039"><ele>368.4</ele><time>2012-07-21T17:43:14.0000000+00:00</time></trkpt><trkpt lat="64.08348846" lon="-19.5606823"><ele>368.3</ele><time>2012-07-21T17:43:19.0000000+00:00</time></trkpt><trkpt lat="64.08342743" lon="-19.56066322"><ele>368.5</ele><time>2012-07-21T17:43:24.0000000+00:00</time></trkpt><trkpt lat="64.08336639" lon="-19.56066132"><ele>368.8</ele><time>2012-07-21T17:43:29.0000000+00:00</time></trkpt><trkpt lat="64.08330536" lon="-19.56065178"><ele>369.0</ele><time>2012-07-21T17:43:34.0000000+00:00</time></trkpt><trkpt lat="64.08325958" lon="-19.56067467"><ele>369.4</ele><time>2012-07-21T17:43:39.0000000+00:00</time></trkpt><trkpt lat="64.08319092" lon="-19.56069565"><ele>369.6</ele><time>2012-07-21T17:43:44.0000000+00:00</time></trkpt><trkpt lat="64.08312225" lon="-19.560709"><ele>369.4</ele><time>2012-07-21T17:43:49.0000000+00:00</time></trkpt><trkpt lat="64.08307648" lon="-19.56073189"><ele>369.4</ele><time>2012-07-21T17:43:54.0000000+00:00</time></trkpt><trkpt lat="64.08302307" lon="-19.56079865"><ele>370.6</ele><time>2012-07-21T17:43:59.0000000+00:00</time></trkpt><trkpt lat="64.08300018" lon="-19.56081772"><ele>371.0</ele><time>2012-07-21T17:44:04.0000000+00:00</time></trkpt><trkpt lat="64.08299255" lon="-19.5608139"><ele>370.8</ele><time>2012-07-21T17:44:09.0000000+00:00</time></trkpt><trkpt lat="64.08296204" lon="-19.56085587"><ele>370.9</ele><time>2012-07-21T17:44:14.0000000+00:00</time></trkpt><trkpt lat="64.08287811" lon="-19.56097412"><ele>371.3</ele><time>2012-07-21T17:44:19.0000000+00:00</time></trkpt><trkpt lat="64.08276367" lon="-19.56109428"><ele>371.4</ele><time>2012-07-21T17:44:24.0000000+00:00</time></trkpt><trkpt lat="64.08266449" lon="-19.56123352"><ele>371.9</ele><time>2012-07-21T17:44:29.0000000+00:00</time></trkpt><trkpt lat="64.08256531" lon="-19.5613308"><ele>372.1</ele><time>2012-07-21T17:44:34.0000000+00:00</time></trkpt><trkpt lat="64.0824585" lon="-19.56139374"><ele>371.9</ele><time>2012-07-21T17:44:39.0000000+00:00</time></trkpt><trkpt lat="64.08235169" lon="-19.56143951"><ele>371.1</ele><time>2012-07-21T17:44:44.0000000+00:00</time></trkpt><trkpt lat="64.0822525" lon="-19.56142426"><ele>370.8</ele><time>2012-07-21T17:44:49.0000000+00:00</time></trkpt><trkpt lat="64.08216858" lon="-19.56141281"><ele>371.1</ele><time>2012-07-21T17:44:54.0000000+00:00</time></trkpt><trkpt lat="64.08216858" lon="-19.56140709"><ele>371.4</ele><time>2012-07-21T17:44:59.0000000+00:00</time></trkpt><trkpt lat="64.08210754" lon="-19.56142044"><ele>371.8</ele><time>2012-07-21T17:45:04.0000000+00:00</time></trkpt><trkpt lat="64.08205414" lon="-19.56138039"><ele>372.5</ele><time>2012-07-21T17:45:09.0000000+00:00</time></trkpt><trkpt lat="64.08200073" lon="-19.56134224"><ele>373.1</ele><time>2012-07-21T17:45:14.0000000+00:00</time></trkpt><trkpt lat="64.08195496" lon="-19.56131172"><ele>373.8</ele><time>2012-07-21T17:45:19.0000000+00:00</time></trkpt><trkpt lat="64.08191681" lon="-19.56129074"><ele>374.5</ele><time>2012-07-21T17:45:24.0000000+00:00</time></trkpt><trkpt lat="64.08187103" lon="-19.56124878"><ele>375.1</ele><time>2012-07-21T17:45:29.0000000+00:00</time></trkpt><trkpt lat="64.08183289" lon="-19.56119156"><ele>376.3</ele><time>2012-07-21T17:45:34.0000000+00:00</time></trkpt><trkpt lat="64.08179474" lon="-19.56115723"><ele>377.3</ele><time>2012-07-21T17:45:39.0000000+00:00</time></trkpt><trkpt lat="64.08176422" lon="-19.56111717"><ele>378.3</ele><time>2012-07-21T17:45:44.0000000+00:00</time></trkpt><trkpt lat="64.08174896" lon="-19.56105042"><ele>379.1</ele><time>2012-07-21T17:45:49.0000000+00:00</time></trkpt><trkpt lat="64.08174133" lon="-19.56102753"><ele>379.9</ele><time>2012-07-21T17:45:54.0000000+00:00</time></trkpt><trkpt lat="64.08171845" lon="-19.56097603"><ele>380.4</ele><time>2012-07-21T17:45:59.0000000+00:00</time></trkpt><trkpt lat="64.08170319" lon="-19.56093597"><ele>380.9</ele><time>2012-07-21T17:46:04.0000000+00:00</time></trkpt><trkpt lat="64.08168793" lon="-19.5608654"><ele>381.3</ele><time>2012-07-21T17:46:09.0000000+00:00</time></trkpt><trkpt lat="64.08167267" lon="-19.56080437"><ele>381.9</ele><time>2012-07-21T17:46:14.0000000+00:00</time></trkpt><trkpt lat="64.08164978" lon="-19.56075287"><ele>382.7</ele><time>2012-07-21T17:46:19.0000000+00:00</time></trkpt><trkpt lat="64.08163452" lon="-19.56066704"><ele>382.5</ele><time>2012-07-21T17:46:24.0000000+00:00</time></trkpt><trkpt lat="64.08161926" lon="-19.56059456"><ele>382.8</ele><time>2012-07-21T17:46:29.0000000+00:00</time></trkpt><trkpt lat="64.08159638" lon="-19.56054115"><ele>383.3</ele><time>2012-07-21T17:46:34.0000000+00:00</time></trkpt><trkpt lat="64.08158112" lon="-19.56045342"><ele>383.7</ele><time>2012-07-21T17:46:39.0000000+00:00</time></trkpt><trkpt lat="64.08157349" lon="-19.56039238"><ele>384.7</ele><time>2012-07-21T17:46:44.0000000+00:00</time></trkpt><trkpt lat="64.08155823" lon="-19.56035423"><ele>384.8</ele><time>2012-07-21T17:46:49.0000000+00:00</time></trkpt><trkpt lat="64.0815506" lon="-19.56027603"><ele>384.2</ele><time>2012-07-21T17:46:54.0000000+00:00</time></trkpt><trkpt lat="64.08156586" lon="-19.56018829"><ele>384.6</ele><time>2012-07-21T17:46:59.0000000+00:00</time></trkpt><trkpt lat="64.08156586" lon="-19.5600853"><ele>385.4</ele><time>2012-07-21T17:47:04.0000000+00:00</time></trkpt><trkpt lat="64.08157349" lon="-19.560009"><ele>386.0</ele><time>2012-07-21T17:47:09.0000000+00:00</time></trkpt><trkpt lat="64.08158112" lon="-19.55991936"><ele>386.4</ele><time>2012-07-21T17:47:14.0000000+00:00</time></trkpt><trkpt lat="64.08158875" lon="-19.55983543"><ele>386.6</ele><time>2012-07-21T17:47:19.0000000+00:00</time></trkpt><trkpt lat="64.08159638" lon="-19.5597496"><ele>386.3</ele><time>2012-07-21T17:47:24.0000000+00:00</time></trkpt><trkpt lat="64.08158875" lon="-19.55972481"><ele>386.1</ele><time>2012-07-21T17:47:29.0000000+00:00</time></trkpt><trkpt lat="64.08158875" lon="-19.55971718"><ele>385.8</ele><time>2012-07-21T17:47:34.0000000+00:00</time></trkpt><trkpt lat="64.08158875" lon="-19.55969429"><ele>385.9</ele><time>2012-07-21T17:47:39.0000000+00:00</time></trkpt><trkpt lat="64.08158875" lon="-19.559618"><ele>386.2</ele><time>2012-07-21T17:47:44.0000000+00:00</time></trkpt><trkpt lat="64.08158875" lon="-19.55954933"><ele>386.9</ele><time>2012-07-21T17:47:49.0000000+00:00</time></trkpt><trkpt lat="64.081604" lon="-19.55945778"><ele>387.4</ele><time>2012-07-21T17:47:54.0000000+00:00</time></trkpt><trkpt lat="64.08161163" lon="-19.55936432"><ele>388.2</ele><time>2012-07-21T17:47:59.0000000+00:00</time></trkpt><trkpt lat="64.08162689" lon="-19.55930901"><ele>389.9</ele><time>2012-07-21T17:48:04.0000000+00:00</time></trkpt><trkpt lat="64.08162689" lon="-19.55924225"><ele>389.6</ele><time>2012-07-21T17:48:09.0000000+00:00</time></trkpt><trkpt lat="64.08163452" lon="-19.5591526"><ele>390.4</ele><time>2012-07-21T17:48:14.0000000+00:00</time></trkpt><trkpt lat="64.08163452" lon="-19.55905914"><ele>390.5</ele><time>2012-07-21T17:48:19.0000000+00:00</time></trkpt><trkpt lat="64.08163452" lon="-19.55908203"><ele>390.7</ele><time>2012-07-21T17:48:24.0000000+00:00</time></trkpt><trkpt lat="64.08163452" lon="-19.55901337"><ele>391.0</ele><time>2012-07-21T17:48:29.0000000+00:00</time></trkpt><trkpt lat="64.08164215" lon="-19.55897331"><ele>391.1</ele><time>2012-07-21T17:48:34.0000000+00:00</time></trkpt><trkpt lat="64.08164978" lon="-19.55890465"><ele>391.8</ele><time>2012-07-21T17:48:39.0000000+00:00</time></trkpt><trkpt lat="64.08165741" lon="-19.55883408"><ele>392.2</ele><time>2012-07-21T17:48:44.0000000+00:00</time></trkpt><trkpt lat="64.08164978" lon="-19.55877686"><ele>391.6</ele><time>2012-07-21T17:48:49.0000000+00:00</time></trkpt><trkpt lat="64.08164978" lon="-19.55871582"><ele>391.8</ele><time>2012-07-21T17:48:54.0000000+00:00</time></trkpt><trkpt lat="64.08165741" lon="-19.55863571"><ele>392.6</ele><time>2012-07-21T17:48:59.0000000+00:00</time></trkpt><trkpt lat="64.08166504" lon="-19.55859184"><ele>392.5</ele><time>2012-07-21T17:49:04.0000000+00:00</time></trkpt><trkpt lat="64.08166504" lon="-19.55859375"><ele>392.5</ele><time>2012-07-21T17:49:09.0000000+00:00</time></trkpt><trkpt lat="64.08167267" lon="-19.5585289"><ele>393.0</ele><time>2012-07-21T17:49:14.0000000+00:00</time></trkpt><trkpt lat="64.0816803" lon="-19.55843926"><ele>393.4</ele><time>2012-07-21T17:49:19.0000000+00:00</time></trkpt><trkpt lat="64.08168793" lon="-19.55835152"><ele>392.9</ele><time>2012-07-21T17:49:24.0000000+00:00</time></trkpt><trkpt lat="64.08169556" lon="-19.55825806"><ele>393.3</ele><time>2012-07-21T17:49:29.0000000+00:00</time></trkpt><trkpt lat="64.08168793" lon="-19.55820656"><ele>395.2</ele><time>2012-07-21T17:49:34.0000000+00:00</time></trkpt><trkpt lat="64.0816803" lon="-19.55815888"><ele>394.9</ele><time>2012-07-21T17:49:39.0000000+00:00</time></trkpt><trkpt lat="64.0816803" lon="-19.55807114"><ele>394.4</ele><time>2012-07-21T17:49:44.0000000+00:00</time></trkpt><trkpt lat="64.08167267" lon="-19.55805206"><ele>394.2</ele><time>2012-07-21T17:49:49.0000000+00:00</time></trkpt><trkpt lat="64.08168793" lon="-19.55797195"><ele>395.3</ele><time>2012-07-21T17:49:54.0000000+00:00</time></trkpt><trkpt lat="64.08170319" lon="-19.55787087"><ele>395.4</ele><time>2012-07-21T17:49:59.0000000+00:00</time></trkpt><trkpt lat="64.08171845" lon="-19.55778503"><ele>396.9</ele><time>2012-07-21T17:50:04.0000000+00:00</time></trkpt><trkpt lat="64.08172607" lon="-19.55771637"><ele>397.4</ele><time>2012-07-21T17:50:09.0000000+00:00</time></trkpt><trkpt lat="64.0817337" lon="-19.55762672"><ele>399.1</ele><time>2012-07-21T17:50:14.0000000+00:00</time></trkpt><trkpt lat="64.0817337" lon="-19.55762291"><ele>399.9</ele><time>2012-07-21T17:50:19.0000000+00:00</time></trkpt><trkpt lat="64.0817337" lon="-19.55762482"><ele>399.7</ele><time>2012-07-21T17:50:24.0000000+00:00</time></trkpt><trkpt lat="64.0817337" lon="-19.55762482"><ele>399.6</ele><time>2012-07-21T17:50:29.0000000+00:00</time></trkpt><trkpt lat="64.08174133" lon="-19.55755997"><ele>400.0</ele><time>2012-07-21T17:50:34.0000000+00:00</time></trkpt><trkpt lat="64.08175659" lon="-19.55746079"><ele>399.9</ele><time>2012-07-21T17:50:39.0000000+00:00</time></trkpt><trkpt lat="64.08176422" lon="-19.5573864"><ele>400.4</ele><time>2012-07-21T17:50:44.0000000+00:00</time></trkpt><trkpt lat="64.08177948" lon="-19.55734253"><ele>399.3</ele><time>2012-07-21T17:50:49.0000000+00:00</time></trkpt><trkpt lat="64.08177185" lon="-19.55734253"><ele>399.2</ele><time>2012-07-21T17:50:54.0000000+00:00</time></trkpt><trkpt lat="64.08177185" lon="-19.55734634"><ele>399.1</ele><time>2012-07-21T17:50:59.0000000+00:00</time></trkpt><trkpt lat="64.08178711" lon="-19.55729675"><ele>399.6</ele><time>2012-07-21T17:51:04.0000000+00:00</time></trkpt><trkpt lat="64.08178711" lon="-19.55723763"><ele>400.2</ele><time>2012-07-21T17:51:09.0000000+00:00</time></trkpt><trkpt lat="64.08180237" lon="-19.5571537"><ele>400.9</ele><time>2012-07-21T17:51:14.0000000+00:00</time></trkpt><trkpt lat="64.08181" lon="-19.55707359"><ele>401.9</ele><time>2012-07-21T17:51:19.0000000+00:00</time></trkpt><trkpt lat="64.08182526" lon="-19.55700874"><ele>402.7</ele><time>2012-07-21T17:51:24.0000000+00:00</time></trkpt><trkpt lat="64.08183289" lon="-19.55690765"><ele>403.5</ele><time>2012-07-21T17:51:29.0000000+00:00</time></trkpt><trkpt lat="64.08184815" lon="-19.55685234"><ele>403.9</ele><time>2012-07-21T17:51:34.0000000+00:00</time></trkpt><trkpt lat="64.08184052" lon="-19.55680084"><ele>404.7</ele><time>2012-07-21T17:51:39.0000000+00:00</time></trkpt><trkpt lat="64.08184815" lon="-19.5567131"><ele>406.3</ele><time>2012-07-21T17:51:44.0000000+00:00</time></trkpt><trkpt lat="64.08185577" lon="-19.55663872"><ele>407.1</ele><time>2012-07-21T17:51:49.0000000+00:00</time></trkpt><trkpt lat="64.08185577" lon="-19.55660439"><ele>406.6</ele><time>2012-07-21T17:51:54.0000000+00:00</time></trkpt><trkpt lat="64.08184815" lon="-19.55660248"><ele>406.3</ele><time>2012-07-21T17:51:59.0000000+00:00</time></trkpt><trkpt lat="64.08184815" lon="-19.55660439"><ele>406.3</ele><time>2012-07-21T17:52:04.0000000+00:00</time></trkpt><trkpt lat="64.08185577" lon="-19.55658722"><ele>406.0</ele><time>2012-07-21T17:52:09.0000000+00:00</time></trkpt><trkpt lat="64.08187866" lon="-19.55649567"><ele>405.8</ele><time>2012-07-21T17:52:14.0000000+00:00</time></trkpt><trkpt lat="64.08190155" lon="-19.55640411"><ele>406.6</ele><time>2012-07-21T17:52:19.0000000+00:00</time></trkpt><trkpt lat="64.08192444" lon="-19.55628395"><ele>406.8</ele><time>2012-07-21T17:52:24.0000000+00:00</time></trkpt><trkpt lat="64.08193207" lon="-19.5561676"><ele>407.6</ele><time>2012-07-21T17:52:29.0000000+00:00</time></trkpt><trkpt lat="64.0819397" lon="-19.55614281"><ele>407.2</ele><time>2012-07-21T17:52:34.0000000+00:00</time></trkpt><trkpt lat="64.08195496" lon="-19.55607224"><ele>407.7</ele><time>2012-07-21T17:52:39.0000000+00:00</time></trkpt><trkpt lat="64.08196259" lon="-19.55598259"><ele>408.2</ele><time>2012-07-21T17:52:44.0000000+00:00</time></trkpt><trkpt lat="64.08197784" lon="-19.55590439"><ele>408.8</ele><time>2012-07-21T17:52:49.0000000+00:00</time></trkpt><trkpt lat="64.08200073" lon="-19.55584145"><ele>408.9</ele><time>2012-07-21T17:52:54.0000000+00:00</time></trkpt><trkpt lat="64.08201599" lon="-19.55578041"><ele>409.5</ele><time>2012-07-21T17:52:59.0000000+00:00</time></trkpt><trkpt lat="64.08202362" lon="-19.55567932"><ele>410.6</ele><time>2012-07-21T17:53:04.0000000+00:00</time></trkpt><trkpt lat="64.08203125" lon="-19.5556469"><ele>411.2</ele><time>2012-07-21T17:53:09.0000000+00:00</time></trkpt><trkpt lat="64.08202362" lon="-19.55565071"><ele>411.5</ele><time>2012-07-21T17:53:14.0000000+00:00</time></trkpt><trkpt lat="64.08201599" lon="-19.55565071"><ele>411.6</ele><time>2012-07-21T17:53:19.0000000+00:00</time></trkpt><trkpt lat="64.08201599" lon="-19.55565453"><ele>411.7</ele><time>2012-07-21T17:53:24.0000000+00:00</time></trkpt><trkpt lat="64.08201599" lon="-19.5556488"><ele>411.7</ele><time>2012-07-21T17:53:29.0000000+00:00</time></trkpt><trkpt lat="64.08201599" lon="-19.5556469"><ele>411.7</ele><time>2012-07-21T17:53:34.0000000+00:00</time></trkpt><trkpt lat="64.08200836" lon="-19.55564308"><ele>411.8</ele><time>2012-07-21T17:53:39.0000000+00:00</time></trkpt><trkpt lat="64.08200836" lon="-19.55564308"><ele>411.8</ele><time>2012-07-21T17:53:44.0000000+00:00</time></trkpt><trkpt lat="64.08200836" lon="-19.5556469"><ele>411.8</ele><time>2012-07-21T17:53:49.0000000+00:00</time></trkpt><trkpt lat="64.08200836" lon="-19.55564117"><ele>411.8</ele><time>2012-07-21T17:53:54.0000000+00:00</time></trkpt><trkpt lat="64.08200836" lon="-19.55563736"><ele>411.7</ele><time>2012-07-21T17:53:59.0000000+00:00</time></trkpt><trkpt lat="64.08200073" lon="-19.55563355"><ele>411.8</ele><time>2012-07-21T17:54:04.0000000+00:00</time></trkpt><trkpt lat="64.08200073" lon="-19.55562401"><ele>411.8</ele><time>2012-07-21T17:54:09.0000000+00:00</time></trkpt><trkpt lat="64.08200073" lon="-19.55563164"><ele>411.8</ele><time>2012-07-21T17:54:14.0000000+00:00</time></trkpt><trkpt lat="64.08200073" lon="-19.55563927"><ele>411.8</ele><time>2012-07-21T17:54:19.0000000+00:00</time></trkpt><trkpt lat="64.08200073" lon="-19.55563736"><ele>411.9</ele><time>2012-07-21T17:54:24.0000000+00:00</time></trkpt><trkpt lat="64.08200073" lon="-19.55563545"><ele>411.9</ele><time>2012-07-21T17:54:29.0000000+00:00</time></trkpt><trkpt lat="64.08200073" lon="-19.55564117"><ele>411.9</ele><time>2012-07-21T17:54:34.0000000+00:00</time></trkpt><trkpt lat="64.08200073" lon="-19.55564117"><ele>411.8</ele><time>2012-07-21T17:54:39.0000000+00:00</time></trkpt><trkpt lat="64.08200836" lon="-19.5556469"><ele>411.7</ele><time>2012-07-21T17:54:44.0000000+00:00</time></trkpt><trkpt lat="64.08200836" lon="-19.55565453"><ele>411.7</ele><time>2012-07-21T17:54:49.0000000+00:00</time></trkpt><trkpt lat="64.08201599" lon="-19.55565834"><ele>411.6</ele><time>2012-07-21T17:54:54.0000000+00:00</time></trkpt><trkpt lat="64.08200836" lon="-19.55565262"><ele>411.6</ele><time>2012-07-21T17:54:59.0000000+00:00</time></trkpt><trkpt lat="64.08200836" lon="-19.5556488"><ele>411.6</ele><time>2012-07-21T17:55:04.0000000+00:00</time></trkpt><trkpt lat="64.08200836" lon="-19.55564117"><ele>411.6</ele><time>2012-07-21T17:55:09.0000000+00:00</time></trkpt><trkpt lat="64.08200073" lon="-19.5556469"><ele>411.6</ele><time>2012-07-21T17:55:14.0000000+00:00</time></trkpt><trkpt lat="64.08200073" lon="-19.55565453"><ele>411.4</ele><time>2012-07-21T17:55:19.0000000+00:00</time></trkpt><trkpt lat="64.0819931" lon="-19.55565071"><ele>411.4</ele><time>2012-07-21T17:55:24.0000000+00:00</time></trkpt><trkpt lat="64.0819931" lon="-19.55566025"><ele>411.4</ele><time>2012-07-21T17:55:29.0000000+00:00</time></trkpt><trkpt lat="64.08198547" lon="-19.55566406"><ele>411.4</ele><time>2012-07-21T17:55:34.0000000+00:00</time></trkpt><trkpt lat="64.08198547" lon="-19.55566025"><ele>411.4</ele><time>2012-07-21T17:55:39.0000000+00:00</time></trkpt><trkpt lat="64.08198547" lon="-19.55565834"><ele>411.4</ele><time>2012-07-21T17:55:44.0000000+00:00</time></trkpt><trkpt lat="64.08198547" lon="-19.55565262"><ele>411.4</ele><time>2012-07-21T17:55:49.0000000+00:00</time></trkpt><trkpt lat="64.08198547" lon="-19.55565071"><ele>411.4</ele><time>2012-07-21T17:55:54.0000000+00:00</time></trkpt><trkpt lat="64.08198547" lon="-19.55562401"><ele>411.3</ele><time>2012-07-21T17:55:59.0000000+00:00</time></trkpt><trkpt lat="64.08197784" lon="-19.55560112"><ele>411.1</ele><time>2012-07-21T17:56:04.0000000+00:00</time></trkpt><trkpt lat="64.08198547" lon="-19.55559731"><ele>411.1</ele><time>2012-07-21T17:56:09.0000000+00:00</time></trkpt><trkpt lat="64.0819931" lon="-19.55560112"><ele>411.1</ele><time>2012-07-21T17:56:14.0000000+00:00</time></trkpt><trkpt lat="64.0819931" lon="-19.55560684"><ele>411.0</ele><time>2012-07-21T17:56:19.0000000+00:00</time></trkpt><trkpt lat="64.0819931" lon="-19.55560684"><ele>411.0</ele><time>2012-07-21T17:56:24.0000000+00:00</time></trkpt><trkpt lat="64.0819931" lon="-19.55562019"><ele>411.0</ele><time>2012-07-21T17:56:29.0000000+00:00</time></trkpt><trkpt lat="64.0819931" lon="-19.55563545"><ele>411.0</ele><time>2012-07-21T17:56:34.0000000+00:00</time></trkpt><trkpt lat="64.0819931" lon="-19.55564117"><ele>411.0</ele><time>2012-07-21T17:56:39.0000000+00:00</time></trkpt><trkpt lat="64.08198547" lon="-19.55563736"><ele>411.0</ele><time>2012-07-21T17:56:44.0000000+00:00</time></trkpt><trkpt lat="64.08198547" lon="-19.55563545"><ele>411.0</ele><time>2012-07-21T17:56:49.0000000+00:00</time></trkpt><trkpt lat="64.08198547" lon="-19.55563355"><ele>411.0</ele><time>2012-07-21T17:56:54.0000000+00:00</time></trkpt><trkpt lat="64.08198547" lon="-19.55562592"><ele>411.0</ele><time>2012-07-21T17:56:59.0000000+00:00</time></trkpt><trkpt lat="64.08198547" lon="-19.55563355"><ele>411.0</ele><time>2012-07-21T17:57:04.0000000+00:00</time></trkpt><trkpt lat="64.08198547" lon="-19.55565071"><ele>411.0</ele><time>2012-07-21T17:57:09.0000000+00:00</time></trkpt><trkpt lat="64.08198547" lon="-19.55565453"><ele>411.0</ele><time>2012-07-21T17:57:14.0000000+00:00</time></trkpt><trkpt lat="64.08198547" lon="-19.55566216"><ele>411.0</ele><time>2012-07-21T17:57:19.0000000+00:00</time></trkpt><trkpt lat="64.08198547" lon="-19.55566788"><ele>411.0</ele><time>2012-07-21T17:57:24.0000000+00:00</time></trkpt><trkpt lat="64.08198547" lon="-19.55566025"><ele>411.0</ele><time>2012-07-21T17:57:29.0000000+00:00</time></trkpt><trkpt lat="64.0819931" lon="-19.55566216"><ele>411.0</ele><time>2012-07-21T17:57:34.0000000+00:00</time></trkpt><trkpt lat="64.08198547" lon="-19.55566025"><ele>411.0</ele><time>2012-07-21T17:57:39.0000000+00:00</time></trkpt><trkpt lat="64.08198547" lon="-19.55566216"><ele>410.9</ele><time>2012-07-21T17:57:44.0000000+00:00</time></trkpt><trkpt lat="64.08198547" lon="-19.55566788"><ele>410.9</ele><time>2012-07-21T17:57:49.0000000+00:00</time></trkpt><trkpt lat="64.08198547" lon="-19.55567169"><ele>410.9</ele><time>2012-07-21T17:57:54.0000000+00:00</time></trkpt><trkpt lat="64.08198547" lon="-19.55568504"><ele>410.9</ele><time>2012-07-21T17:57:59.0000000+00:00</time></trkpt><trkpt lat="64.08198547" lon="-19.55566979"><ele>410.8</ele><time>2012-07-21T17:58:04.0000000+00:00</time></trkpt><trkpt lat="64.08198547" lon="-19.55568314"><ele>410.8</ele><time>2012-07-21T17:58:09.0000000+00:00</time></trkpt><trkpt lat="64.0819931" lon="-19.55568123"><ele>410.8</ele><time>2012-07-21T17:58:14.0000000+00:00</time></trkpt><trkpt lat="64.0819931" lon="-19.55568695"><ele>410.8</ele><time>2012-07-21T17:58:19.0000000+00:00</time></trkpt><trkpt lat="64.0819931" lon="-19.55568695"><ele>410.7</ele><time>2012-07-21T17:58:24.0000000+00:00</time></trkpt><trkpt lat="64.08200073" lon="-19.55568886"><ele>410.8</ele><time>2012-07-21T17:58:29.0000000+00:00</time></trkpt><trkpt lat="64.08200073" lon="-19.55568886"><ele>410.8</ele><time>2012-07-21T17:58:34.0000000+00:00</time></trkpt><trkpt lat="64.08200073" lon="-19.55568123"><ele>410.8</ele><time>2012-07-21T17:58:39.0000000+00:00</time></trkpt><trkpt lat="64.08200073" lon="-19.55568123"><ele>410.7</ele><time>2012-07-21T17:58:44.0000000+00:00</time></trkpt><trkpt lat="64.08200836" lon="-19.55568123"><ele>410.6</ele><time>2012-07-21T17:58:49.0000000+00:00</time></trkpt><trkpt lat="64.08200836" lon="-19.55568123"><ele>410.6</ele><time>2012-07-21T17:58:54.0000000+00:00</time></trkpt><trkpt lat="64.08200836" lon="-19.55568123"><ele>410.6</ele><time>2012-07-21T17:58:59.0000000+00:00</time></trkpt><trkpt lat="64.08200836" lon="-19.55568123"><ele>410.6</ele><time>2012-07-21T17:59:04.0000000+00:00</time></trkpt><trkpt lat="64.08200836" lon="-19.55568123"><ele>410.6</ele><time>2012-07-21T17:59:09.0000000+00:00</time></trkpt><trkpt lat="64.08200836" lon="-19.55568123"><ele>410.6</ele><time>2012-07-21T17:59:14.0000000+00:00</time></trkpt><trkpt lat="64.08200836" lon="-19.55568123"><ele>410.6</ele><time>2012-07-21T17:59:19.0000000+00:00</time></trkpt><trkpt lat="64.08200836" lon="-19.55568123"><ele>410.5</ele><time>2012-07-21T17:59:24.0000000+00:00</time></trkpt><trkpt lat="64.08200836" lon="-19.55568123"><ele>410.5</ele><time>2012-07-21T17:59:29.0000000+00:00</time></trkpt><trkpt lat="64.08200836" lon="-19.55568123"><ele>410.6</ele><time>2012-07-21T17:59:34.0000000+00:00</time></trkpt><trkpt lat="64.08200836" lon="-19.55568123"><ele>410.6</ele><time>2012-07-21T17:59:39.0000000+00:00</time></trkpt><trkpt lat="64.08200836" lon="-19.55568123"><ele>410.5</ele><time>2012-07-21T17:59:44.0000000+00:00</time></trkpt><trkpt lat="64.08200836" lon="-19.55568123"><ele>410.5</ele><time>2012-07-21T17:59:49.0000000+00:00</time></trkpt><trkpt lat="64.08200836" lon="-19.55568123"><ele>410.5</ele><time>2012-07-21T17:59:54.0000000+00:00</time></trkpt><trkpt lat="64.08200836" lon="-19.55568123"><ele>410.5</ele><time>2012-07-21T17:59:59.0000000+00:00</time></trkpt><trkpt lat="64.08200836" lon="-19.55568123"><ele>410.5</ele><time>2012-07-21T18:00:04.0000000+00:00</time></trkpt><trkpt lat="64.08200836" lon="-19.55568123"><ele>410.5</ele><time>2012-07-21T18:00:09.0000000+00:00</time></trkpt><trkpt lat="64.08200836" lon="-19.55568123"><ele>410.5</ele><time>2012-07-21T18:00:14.0000000+00:00</time></trkpt><trkpt lat="64.08200836" lon="-19.55568123"><ele>410.5</ele><time>2012-07-21T18:00:19.0000000+00:00</time></trkpt><trkpt lat="64.08200836" lon="-19.55568123"><ele>410.5</ele><time>2012-07-21T18:00:24.0000000+00:00</time></trkpt><trkpt lat="64.08200836" lon="-19.55568123"><ele>410.4</ele><time>2012-07-21T18:00:29.0000000+00:00</time></trkpt><trkpt lat="64.08200836" lon="-19.55568123"><ele>410.4</ele><time>2012-07-21T18:00:34.0000000+00:00</time></trkpt><trkpt lat="64.08200836" lon="-19.55568123"><ele>410.4</ele><time>2012-07-21T18:00:39.0000000+00:00</time></trkpt><trkpt lat="64.08200836" lon="-19.55568123"><ele>410.4</ele><time>2012-07-21T18:00:44.0000000+00:00</time></trkpt><trkpt lat="64.08200836" lon="-19.55568123"><ele>410.4</ele><time>2012-07-21T18:00:49.0000000+00:00</time></trkpt><trkpt lat="64.08200836" lon="-19.55568123"><ele>410.4</ele><time>2012-07-21T18:00:54.0000000+00:00</time></trkpt><trkpt lat="64.08200836" lon="-19.55568123"><ele>410.4</ele><time>2012-07-21T18:00:59.0000000+00:00</time></trkpt><trkpt lat="64.08200836" lon="-19.55567932"><ele>410.4</ele><time>2012-07-21T18:01:04.0000000+00:00</time></trkpt><trkpt lat="64.08200836" lon="-19.55567932"><ele>410.4</ele><time>2012-07-21T18:01:09.0000000+00:00</time></trkpt><trkpt lat="64.08200836" lon="-19.55568123"><ele>410.4</ele><time>2012-07-21T18:01:14.0000000+00:00</time></trkpt><trkpt lat="64.08200836" lon="-19.55568123"><ele>410.4</ele><time>2012-07-21T18:01:19.0000000+00:00</time></trkpt><trkpt lat="64.08200836" lon="-19.55568123"><ele>410.4</ele><time>2012-07-21T18:01:24.0000000+00:00</time></trkpt><trkpt lat="64.08200836" lon="-19.55568123"><ele>410.4</ele><time>2012-07-21T18:01:29.0000000+00:00</time></trkpt><trkpt lat="64.08200836" lon="-19.55568123"><ele>410.4</ele><time>2012-07-21T18:01:34.0000000+00:00</time></trkpt><trkpt lat="64.08200836" lon="-19.55568123"><ele>410.4</ele><time>2012-07-21T18:01:39.0000000+00:00</time></trkpt><trkpt lat="64.08200836" lon="-19.55567932"><ele>410.4</ele><time>2012-07-21T18:01:44.0000000+00:00</time></trkpt><trkpt lat="64.08200836" lon="-19.55567932"><ele>410.4</ele><time>2012-07-21T18:01:49.0000000+00:00</time></trkpt><trkpt lat="64.08200836" lon="-19.55567932"><ele>410.4</ele><time>2012-07-21T18:01:54.0000000+00:00</time></trkpt><trkpt lat="64.08200836" lon="-19.55567932"><ele>410.4</ele><time>2012-07-21T18:01:59.0000000+00:00</time></trkpt><trkpt lat="64.08200836" lon="-19.55567932"><ele>410.4</ele><time>2012-07-21T18:02:04.0000000+00:00</time></trkpt><trkpt lat="64.08200836" lon="-19.55567932"><ele>410.4</ele><time>2012-07-21T18:02:09.0000000+00:00</time></trkpt><trkpt lat="64.08200836" lon="-19.55567932"><ele>410.4</ele><time>2012-07-21T18:02:14.0000000+00:00</time></trkpt><trkpt lat="64.08200836" lon="-19.55567932"><ele>410.4</ele><time>2012-07-21T18:02:19.0000000+00:00</time></trkpt><trkpt lat="64.08200836" lon="-19.55567932"><ele>410.4</ele><time>2012-07-21T18:02:24.0000000+00:00</time></trkpt><trkpt lat="64.08200836" lon="-19.55567932"><ele>410.4</ele><time>2012-07-21T18:02:29.0000000+00:00</time></trkpt><trkpt lat="64.08200836" lon="-19.55567932"><ele>410.4</ele><time>2012-07-21T18:02:34.0000000+00:00</time></trkpt><trkpt lat="64.08200836" lon="-19.55567932"><ele>410.4</ele><time>2012-07-21T18:02:39.0000000+00:00</time></trkpt><trkpt lat="64.08200836" lon="-19.55567932"><ele>410.4</ele><time>2012-07-21T18:02:44.0000000+00:00</time></trkpt><trkpt lat="64.08200836" lon="-19.55567741"><ele>410.4</ele><time>2012-07-21T18:02:49.0000000+00:00</time></trkpt><trkpt lat="64.08200836" lon="-19.55567741"><ele>410.4</ele><time>2012-07-21T18:02:54.0000000+00:00</time></trkpt><trkpt lat="64.08200836" lon="-19.55567741"><ele>410.4</ele><time>2012-07-21T18:02:59.0000000+00:00</time></trkpt><trkpt lat="64.08200836" lon="-19.55567741"><ele>410.4</ele><time>2012-07-21T18:03:04.0000000+00:00</time></trkpt><trkpt lat="64.08200836" lon="-19.55567741"><ele>410.4</ele><time>2012-07-21T18:03:09.0000000+00:00</time></trkpt><trkpt lat="64.08200836" lon="-19.55567741"><ele>410.4</ele><time>2012-07-21T18:03:14.0000000+00:00</time></trkpt><trkpt lat="64.08200836" lon="-19.55567932"><ele>410.4</ele><time>2012-07-21T18:03:19.0000000+00:00</time></trkpt><trkpt lat="64.08200836" lon="-19.55567741"><ele>410.4</ele><time>2012-07-21T18:03:24.0000000+00:00</time></trkpt><trkpt lat="64.08200836" lon="-19.55567741"><ele>410.4</ele><time>2012-07-21T18:03:29.0000000+00:00</time></trkpt><trkpt lat="64.08200836" lon="-19.55567741"><ele>410.4</ele><time>2012-07-21T18:03:34.0000000+00:00</time></trkpt><trkpt lat="64.08200836" lon="-19.55567741"><ele>410.4</ele><time>2012-07-21T18:03:39.0000000+00:00</time></trkpt><trkpt lat="64.08200836" lon="-19.55567741"><ele>410.4</ele><time>2012-07-21T18:03:44.0000000+00:00</time></trkpt><trkpt lat="64.08200836" lon="-19.55567741"><ele>410.3</ele><time>2012-07-21T18:03:49.0000000+00:00</time></trkpt><trkpt lat="64.08200836" lon="-19.55567741"><ele>410.3</ele><time>2012-07-21T18:03:54.0000000+00:00</time></trkpt><trkpt lat="64.08200836" lon="-19.55567741"><ele>410.3</ele><time>2012-07-21T18:03:59.0000000+00:00</time></trkpt><trkpt lat="64.08200836" lon="-19.55567741"><ele>410.3</ele><time>2012-07-21T18:04:04.0000000+00:00</time></trkpt><trkpt lat="64.08200836" lon="-19.55567741"><ele>410.3</ele><time>2012-07-21T18:04:09.0000000+00:00</time></trkpt><trkpt lat="64.08200836" lon="-19.55567741"><ele>410.3</ele><time>2012-07-21T18:04:14.0000000+00:00</time></trkpt><trkpt lat="64.08200836" lon="-19.55567741"><ele>410.3</ele><time>2012-07-21T18:04:19.0000000+00:00</time></trkpt><trkpt lat="64.08200836" lon="-19.55567741"><ele>410.3</ele><time>2012-07-21T18:04:24.0000000+00:00</time></trkpt><trkpt lat="64.08200836" lon="-19.55567741"><ele>410.3</ele><time>2012-07-21T18:04:29.0000000+00:00</time></trkpt><trkpt lat="64.08200836" lon="-19.55567741"><ele>410.3</ele><time>2012-07-21T18:04:34.0000000+00:00</time></trkpt><trkpt lat="64.08200836" lon="-19.55567741"><ele>410.3</ele><time>2012-07-21T18:04:39.0000000+00:00</time></trkpt><trkpt lat="64.08200836" lon="-19.55567741"><ele>410.3</ele><time>2012-07-21T18:04:44.0000000+00:00</time></trkpt><trkpt lat="64.08200836" lon="-19.55567741"><ele>410.3</ele><time>2012-07-21T18:04:49.0000000+00:00</time></trkpt><trkpt lat="64.08200836" lon="-19.55567741"><ele>410.3</ele><time>2012-07-21T18:04:54.0000000+00:00</time></trkpt><trkpt lat="64.08200836" lon="-19.55567741"><ele>410.3</ele><time>2012-07-21T18:04:59.0000000+00:00</time></trkpt><trkpt lat="64.08200836" lon="-19.55567741"><ele>410.3</ele><time>2012-07-21T18:05:04.0000000+00:00</time></trkpt><trkpt lat="64.08200836" lon="-19.55567741"><ele>410.3</ele><time>2012-07-21T18:05:09.0000000+00:00</time></trkpt><trkpt lat="64.08200836" lon="-19.55567741"><ele>410.3</ele><time>2012-07-21T18:05:14.0000000+00:00</time></trkpt><trkpt lat="64.08200836" lon="-19.55567741"><ele>410.3</ele><time>2012-07-21T18:05:19.0000000+00:00</time></trkpt><trkpt lat="64.08200836" lon="-19.55567741"><ele>410.3</ele><time>2012-07-21T18:05:24.0000000+00:00</time></trkpt><trkpt lat="64.08200836" lon="-19.55567741"><ele>410.3</ele><time>2012-07-21T18:05:29.0000000+00:00</time></trkpt><trkpt lat="64.08200836" lon="-19.55567741"><ele>410.3</ele><time>2012-07-21T18:05:34.0000000+00:00</time></trkpt><trkpt lat="64.08200836" lon="-19.55567741"><ele>410.3</ele><time>2012-07-21T18:05:39.0000000+00:00</time></trkpt><trkpt lat="64.08200836" lon="-19.55567551"><ele>410.3</ele><time>2012-07-21T18:05:44.0000000+00:00</time></trkpt><trkpt lat="64.08200836" lon="-19.55567551"><ele>410.3</ele><time>2012-07-21T18:05:49.0000000+00:00</time></trkpt><trkpt lat="64.08200836" lon="-19.55567741"><ele>410.3</ele><time>2012-07-21T18:05:54.0000000+00:00</time></trkpt><trkpt lat="64.08200836" lon="-19.55567741"><ele>410.3</ele><time>2012-07-21T18:05:59.0000000+00:00</time></trkpt><trkpt lat="64.08200836" lon="-19.55567741"><ele>410.3</ele><time>2012-07-21T18:06:04.0000000+00:00</time></trkpt><trkpt lat="64.08200836" lon="-19.55567741"><ele>410.3</ele><time>2012-07-21T18:06:09.0000000+00:00</time></trkpt><trkpt lat="64.08200836" lon="-19.55567741"><ele>410.3</ele><time>2012-07-21T18:06:14.0000000+00:00</time></trkpt><trkpt lat="64.08200836" lon="-19.55567741"><ele>410.3</ele><time>2012-07-21T18:06:19.0000000+00:00</time></trkpt><trkpt lat="64.08200836" lon="-19.55567741"><ele>410.3</ele><time>2012-07-21T18:06:24.0000000+00:00</time></trkpt><trkpt lat="64.08200836" lon="-19.55567741"><ele>410.3</ele><time>2012-07-21T18:06:29.0000000+00:00</time></trkpt><trkpt lat="64.08200836" lon="-19.55567741"><ele>410.3</ele><time>2012-07-21T18:06:34.0000000+00:00</time></trkpt><trkpt lat="64.08200836" lon="-19.55567741"><ele>410.3</ele><time>2012-07-21T18:06:39.0000000+00:00</time></trkpt><trkpt lat="64.08200836" lon="-19.55567741"><ele>410.3</ele><time>2012-07-21T18:06:44.0000000+00:00</time></trkpt><trkpt lat="64.08200836" lon="-19.55567741"><ele>410.3</ele><time>2012-07-21T18:06:49.0000000+00:00</time></trkpt><trkpt lat="64.08200836" lon="-19.55567741"><ele>410.3</ele><time>2012-07-21T18:06:54.0000000+00:00</time></trkpt><trkpt lat="64.08200836" lon="-19.55567741"><ele>410.3</ele><time>2012-07-21T18:06:59.0000000+00:00</time></trkpt><trkpt lat="64.08200836" lon="-19.55567741"><ele>410.3</ele><time>2012-07-21T18:07:04.0000000+00:00</time></trkpt><trkpt lat="64.08200836" lon="-19.55567741"><ele>410.3</ele><time>2012-07-21T18:07:09.0000000+00:00</time></trkpt><trkpt lat="64.08200836" lon="-19.55567741"><ele>410.3</ele><time>2012-07-21T18:07:14.0000000+00:00</time></trkpt><trkpt lat="64.08200836" lon="-19.55567741"><ele>410.3</ele><time>2012-07-21T18:07:19.0000000+00:00</time></trkpt><trkpt lat="64.08200836" lon="-19.55567741"><ele>410.4</ele><time>2012-07-21T18:07:24.0000000+00:00</time></trkpt><trkpt lat="64.08200836" lon="-19.55567741"><ele>410.4</ele><time>2012-07-21T18:07:29.0000000+00:00</time></trkpt><trkpt lat="64.08200836" lon="-19.55567741"><ele>410.3</ele><time>2012-07-21T18:07:34.0000000+00:00</time></trkpt><trkpt lat="64.08200836" lon="-19.55567741"><ele>410.4</ele><time>2012-07-21T18:07:39.0000000+00:00</time></trkpt><trkpt lat="64.08200836" lon="-19.55567741"><ele>410.4</ele><time>2012-07-21T18:07:44.0000000+00:00</time></trkpt><trkpt lat="64.08200836" lon="-19.55567741"><ele>410.3</ele><time>2012-07-21T18:07:49.0000000+00:00</time></trkpt><trkpt lat="64.08200836" lon="-19.55567741"><ele>410.4</ele><time>2012-07-21T18:07:54.0000000+00:00</time></trkpt><trkpt lat="64.08200836" lon="-19.55567741"><ele>410.3</ele><time>2012-07-21T18:07:59.0000000+00:00</time></trkpt><trkpt lat="64.08200836" lon="-19.55567741"><ele>410.3</ele><time>2012-07-21T18:08:04.0000000+00:00</time></trkpt><trkpt lat="64.08200836" lon="-19.55567741"><ele>410.3</ele><time>2012-07-21T18:08:09.0000000+00:00</time></trkpt><trkpt lat="64.08200836" lon="-19.55567741"><ele>410.3</ele><time>2012-07-21T18:08:14.0000000+00:00</time></trkpt><trkpt lat="64.08200836" lon="-19.55567741"><ele>410.3</ele><time>2012-07-21T18:08:19.0000000+00:00</time></trkpt><trkpt lat="64.08200836" lon="-19.55567741"><ele>410.3</ele><time>2012-07-21T18:08:24.0000000+00:00</time></trkpt><trkpt lat="64.08200836" lon="-19.55567741"><ele>410.3</ele><time>2012-07-21T18:08:29.0000000+00:00</time></trkpt><trkpt lat="64.08200836" lon="-19.55567741"><ele>410.3</ele><time>2012-07-21T18:08:34.0000000+00:00</time></trkpt><trkpt lat="64.08200836" lon="-19.55567551"><ele>410.3</ele><time>2012-07-21T18:08:39.0000000+00:00</time></trkpt><trkpt lat="64.08200836" lon="-19.55567741"><ele>410.3</ele><time>2012-07-21T18:08:44.0000000+00:00</time></trkpt><trkpt lat="64.08200836" lon="-19.55567551"><ele>410.3</ele><time>2012-07-21T18:08:49.0000000+00:00</time></trkpt><trkpt lat="64.08200836" lon="-19.55567551"><ele>410.2</ele><time>2012-07-21T18:08:54.0000000+00:00</time></trkpt><trkpt lat="64.08200836" lon="-19.55567551"><ele>410.3</ele><time>2012-07-21T18:08:59.0000000+00:00</time></trkpt><trkpt lat="64.08200836" lon="-19.55567551"><ele>410.2</ele><time>2012-07-21T18:09:04.0000000+00:00</time></trkpt><trkpt lat="64.08200836" lon="-19.55567551"><ele>410.3</ele><time>2012-07-21T18:09:09.0000000+00:00</time></trkpt><trkpt lat="64.08200836" lon="-19.55567551"><ele>410.2</ele><time>2012-07-21T18:09:14.0000000+00:00</time></trkpt><trkpt lat="64.08200836" lon="-19.55567551"><ele>410.2</ele><time>2012-07-21T18:09:19.0000000+00:00</time></trkpt><trkpt lat="64.08200836" lon="-19.55567551"><ele>410.2</ele><time>2012-07-21T18:09:24.0000000+00:00</time></trkpt><trkpt lat="64.08200836" lon="-19.55567551"><ele>410.2</ele><time>2012-07-21T18:09:29.0000000+00:00</time></trkpt><trkpt lat="64.08200836" lon="-19.55567551"><ele>410.3</ele><time>2012-07-21T18:09:34.0000000+00:00</time></trkpt><trkpt lat="64.08200836" lon="-19.55567551"><ele>410.3</ele><time>2012-07-21T18:09:39.0000000+00:00</time></trkpt><trkpt lat="64.08200836" lon="-19.55567551"><ele>410.3</ele><time>2012-07-21T18:09:44.0000000+00:00</time></trkpt><trkpt lat="64.08200836" lon="-19.55567551"><ele>410.3</ele><time>2012-07-21T18:09:49.0000000+00:00</time></trkpt><trkpt lat="64.08200836" lon="-19.55567551"><ele>410.2</ele><time>2012-07-21T18:09:54.0000000+00:00</time></trkpt><trkpt lat="64.08200836" lon="-19.55567551"><ele>410.2</ele><time>2012-07-21T18:09:59.0000000+00:00</time></trkpt><trkpt lat="64.08200836" lon="-19.55567551"><ele>410.2</ele><time>2012-07-21T18:10:04.0000000+00:00</time></trkpt><trkpt lat="64.08200836" lon="-19.55567741"><ele>410.2</ele><time>2012-07-21T18:10:09.0000000+00:00</time></trkpt><trkpt lat="64.08200836" lon="-19.55567741"><ele>410.2</ele><time>2012-07-21T18:10:14.0000000+00:00</time></trkpt><trkpt lat="64.08200836" lon="-19.55567741"><ele>410.2</ele><time>2012-07-21T18:10:19.0000000+00:00</time></trkpt><trkpt lat="64.08200836" lon="-19.55567741"><ele>410.2</ele><time>2012-07-21T18:10:24.0000000+00:00</time></trkpt><trkpt lat="64.08200836" lon="-19.55567741"><ele>410.2</ele><time>2012-07-21T18:10:29.0000000+00:00</time></trkpt><trkpt lat="64.08200836" lon="-19.55567741"><ele>410.2</ele><time>2012-07-21T18:10:34.0000000+00:00</time></trkpt><trkpt lat="64.08200836" lon="-19.55567741"><ele>410.2</ele><time>2012-07-21T18:10:39.0000000+00:00</time></trkpt><trkpt lat="64.08200836" lon="-19.55567741"><ele>410.2</ele><time>2012-07-21T18:10:44.0000000+00:00</time></trkpt><trkpt lat="64.08200836" lon="-19.55567741"><ele>410.2</ele><time>2012-07-21T18:10:49.0000000+00:00</time></trkpt><trkpt lat="64.08200836" lon="-19.55567741"><ele>410.2</ele><time>2012-07-21T18:10:54.0000000+00:00</time></trkpt><trkpt lat="64.08200836" lon="-19.55567741"><ele>410.2</ele><time>2012-07-21T18:10:59.0000000+00:00</time></trkpt><trkpt lat="64.08200836" lon="-19.55567741"><ele>410.2</ele><time>2012-07-21T18:11:04.0000000+00:00</time></trkpt><trkpt lat="64.08200836" lon="-19.55567741"><ele>410.1</ele><time>2012-07-21T18:11:09.0000000+00:00</time></trkpt><trkpt lat="64.08200836" lon="-19.55567741"><ele>410.1</ele><time>2012-07-21T18:11:14.0000000+00:00</time></trkpt><trkpt lat="64.08200836" lon="-19.55567741"><ele>410.1</ele><time>2012-07-21T18:11:19.0000000+00:00</time></trkpt><trkpt lat="64.08200836" lon="-19.55567551"><ele>410.1</ele><time>2012-07-21T18:11:24.0000000+00:00</time></trkpt><trkpt lat="64.08200836" lon="-19.55567551"><ele>410.1</ele><time>2012-07-21T18:11:29.0000000+00:00</time></trkpt><trkpt lat="64.08200836" lon="-19.55567551"><ele>410.1</ele><time>2012-07-21T18:11:34.0000000+00:00</time></trkpt><trkpt lat="64.08200836" lon="-19.55567551"><ele>410.1</ele><time>2012-07-21T18:11:39.0000000+00:00</time></trkpt><trkpt lat="64.08200836" lon="-19.55567551"><ele>410.1</ele><time>2012-07-21T18:11:44.0000000+00:00</time></trkpt><trkpt lat="64.08200836" lon="-19.55567551"><ele>410.1</ele><time>2012-07-21T18:11:49.0000000+00:00</time></trkpt><trkpt lat="64.08200836" lon="-19.55567551"><ele>410.0</ele><time>2012-07-21T18:11:54.0000000+00:00</time></trkpt><trkpt lat="64.08200836" lon="-19.55567551"><ele>410.0</ele><time>2012-07-21T18:11:59.0000000+00:00</time></trkpt><trkpt lat="64.08200836" lon="-19.55567551"><ele>410.0</ele><time>2012-07-21T18:12:04.0000000+00:00</time></trkpt><trkpt lat="64.08200836" lon="-19.55567551"><ele>410.0</ele><time>2012-07-21T18:12:09.0000000+00:00</time></trkpt><trkpt lat="64.08200836" lon="-19.55567551"><ele>410.0</ele><time>2012-07-21T18:12:14.0000000+00:00</time></trkpt><trkpt lat="64.08200836" lon="-19.55567551"><ele>410.0</ele><time>2012-07-21T18:12:19.0000000+00:00</time></trkpt><trkpt lat="64.08200836" lon="-19.55567551"><ele>410.0</ele><time>2012-07-21T18:12:24.0000000+00:00</time></trkpt><trkpt lat="64.08200836" lon="-19.55567551"><ele>410.0</ele><time>2012-07-21T18:12:29.0000000+00:00</time></trkpt><trkpt lat="64.08200836" lon="-19.55567551"><ele>410.0</ele><time>2012-07-21T18:12:34.0000000+00:00</time></trkpt><trkpt lat="64.08200836" lon="-19.55567551"><ele>409.9</ele><time>2012-07-21T18:12:39.0000000+00:00</time></trkpt><trkpt lat="64.08200836" lon="-19.55567551"><ele>409.9</ele><time>2012-07-21T18:12:44.0000000+00:00</time></trkpt><trkpt lat="64.08200836" lon="-19.55567551"><ele>409.9</ele><time>2012-07-21T18:12:49.0000000+00:00</time></trkpt><trkpt lat="64.08200836" lon="-19.55567551"><ele>409.9</ele><time>2012-07-21T18:12:54.0000000+00:00</time></trkpt><trkpt lat="64.08200836" lon="-19.55567551"><ele>409.9</ele><time>2012-07-21T18:12:59.0000000+00:00</time></trkpt><trkpt lat="64.08200836" lon="-19.55567551"><ele>409.9</ele><time>2012-07-21T18:13:04.0000000+00:00</time></trkpt><trkpt lat="64.08200836" lon="-19.55567551"><ele>409.9</ele><time>2012-07-21T18:13:09.0000000+00:00</time></trkpt><trkpt lat="64.08200836" lon="-19.55567551"><ele>409.9</ele><time>2012-07-21T18:13:14.0000000+00:00</time></trkpt><trkpt lat="64.08200836" lon="-19.55567551"><ele>409.9</ele><time>2012-07-21T18:13:19.0000000+00:00</time></trkpt><trkpt lat="64.08200836" lon="-19.55567551"><ele>409.9</ele><time>2012-07-21T18:13:24.0000000+00:00</time></trkpt><trkpt lat="64.08200836" lon="-19.5556736"><ele>409.8</ele><time>2012-07-21T18:13:29.0000000+00:00</time></trkpt><trkpt lat="64.08200836" lon="-19.55567551"><ele>409.8</ele><time>2012-07-21T18:13:34.0000000+00:00</time></trkpt><trkpt lat="64.08200836" lon="-19.55567551"><ele>409.8</ele><time>2012-07-21T18:13:39.0000000+00:00</time></trkpt><trkpt lat="64.08200836" lon="-19.55567551"><ele>409.8</ele><time>2012-07-21T18:13:44.0000000+00:00</time></trkpt><trkpt lat="64.08200836" lon="-19.55567551"><ele>409.8</ele><time>2012-07-21T18:13:49.0000000+00:00</time></trkpt><trkpt lat="64.08200836" lon="-19.55567551"><ele>409.8</ele><time>2012-07-21T18:13:54.0000000+00:00</time></trkpt><trkpt lat="64.08200836" lon="-19.55567551"><ele>409.8</ele><time>2012-07-21T18:13:59.0000000+00:00</time></trkpt><trkpt lat="64.08200836" lon="-19.5556736"><ele>409.8</ele><time>2012-07-21T18:14:04.0000000+00:00</time></trkpt><trkpt lat="64.08200836" lon="-19.5556736"><ele>409.8</ele><time>2012-07-21T18:14:09.0000000+00:00</time></trkpt><trkpt lat="64.08200836" lon="-19.5556736"><ele>409.8</ele><time>2012-07-21T18:14:14.0000000+00:00</time></trkpt><trkpt lat="64.08200836" lon="-19.5556736"><ele>409.8</ele><time>2012-07-21T18:14:19.0000000+00:00</time></trkpt><trkpt lat="64.08200836" lon="-19.5556736"><ele>409.8</ele><time>2012-07-21T18:14:24.0000000+00:00</time></trkpt><trkpt lat="64.08200836" lon="-19.5556736"><ele>409.8</ele><time>2012-07-21T18:14:29.0000000+00:00</time></trkpt><trkpt lat="64.08200836" lon="-19.5556736"><ele>409.8</ele><time>2012-07-21T18:14:34.0000000+00:00</time></trkpt><trkpt lat="64.08200836" lon="-19.5556736"><ele>409.8</ele><time>2012-07-21T18:14:39.0000000+00:00</time></trkpt><trkpt lat="64.08200836" lon="-19.5556736"><ele>409.8</ele><time>2012-07-21T18:14:44.0000000+00:00</time></trkpt><trkpt lat="64.08200836" lon="-19.5556736"><ele>409.8</ele><time>2012-07-21T18:14:49.0000000+00:00</time></trkpt><trkpt lat="64.08200836" lon="-19.5556736"><ele>409.8</ele><time>2012-07-21T18:14:54.0000000+00:00</time></trkpt><trkpt lat="64.08200836" lon="-19.5556736"><ele>409.8</ele><time>2012-07-21T18:14:59.0000000+00:00</time></trkpt><trkpt lat="64.08200836" lon="-19.5556736"><ele>409.8</ele><time>2012-07-21T18:15:04.0000000+00:00</time></trkpt><trkpt lat="64.08200836" lon="-19.5556736"><ele>409.8</ele><time>2012-07-21T18:15:09.0000000+00:00</time></trkpt><trkpt lat="64.08200836" lon="-19.5556736"><ele>409.7</ele><time>2012-07-21T18:15:14.0000000+00:00</time></trkpt><trkpt lat="64.08200836" lon="-19.5556736"><ele>409.7</ele><time>2012-07-21T18:15:19.0000000+00:00</time></trkpt><trkpt lat="64.08200836" lon="-19.5556736"><ele>409.7</ele><time>2012-07-21T18:15:24.0000000+00:00</time></trkpt><trkpt lat="64.08200836" lon="-19.5556736"><ele>409.7</ele><time>2012-07-21T18:15:29.0000000+00:00</time></trkpt><trkpt lat="64.08200836" lon="-19.5556736"><ele>409.7</ele><time>2012-07-21T18:15:34.0000000+00:00</time></trkpt><trkpt lat="64.08200836" lon="-19.5556736"><ele>409.7</ele><time>2012-07-21T18:15:39.0000000+00:00</time></trkpt><trkpt lat="64.08200836" lon="-19.5556736"><ele>409.7</ele><time>2012-07-21T18:15:44.0000000+00:00</time></trkpt><trkpt lat="64.08200836" lon="-19.5556736"><ele>409.7</ele><time>2012-07-21T18:15:49.0000000+00:00</time></trkpt><trkpt lat="64.08200836" lon="-19.5556736"><ele>409.7</ele><time>2012-07-21T18:15:54.0000000+00:00</time></trkpt><trkpt lat="64.08200836" lon="-19.5556736"><ele>409.7</ele><time>2012-07-21T18:15:59.0000000+00:00</time></trkpt><trkpt lat="64.08200836" lon="-19.5556736"><ele>409.7</ele><time>2012-07-21T18:16:04.0000000+00:00</time></trkpt><trkpt lat="64.08200836" lon="-19.5556736"><ele>409.6</ele><time>2012-07-21T18:16:09.0000000+00:00</time></trkpt><trkpt lat="64.08200836" lon="-19.55567169"><ele>409.6</ele><time>2012-07-21T18:16:14.0000000+00:00</time></trkpt><trkpt lat="64.08200836" lon="-19.55567169"><ele>409.6</ele><time>2012-07-21T18:16:19.0000000+00:00</time></trkpt><trkpt lat="64.08200836" lon="-19.55567169"><ele>409.6</ele><time>2012-07-21T18:16:24.0000000+00:00</time></trkpt><trkpt lat="64.08200836" lon="-19.55567169"><ele>409.6</ele><time>2012-07-21T18:16:29.0000000+00:00</time></trkpt><trkpt lat="64.08200836" lon="-19.55567169"><ele>409.6</ele><time>2012-07-21T18:16:34.0000000+00:00</time></trkpt><trkpt lat="64.08200836" lon="-19.55567169"><ele>409.6</ele><time>2012-07-21T18:16:39.0000000+00:00</time></trkpt><trkpt lat="64.08200836" lon="-19.5556736"><ele>409.6</ele><time>2012-07-21T18:16:44.0000000+00:00</time></trkpt><trkpt lat="64.08200836" lon="-19.55567169"><ele>409.6</ele><time>2012-07-21T18:16:49.0000000+00:00</time></trkpt><trkpt lat="64.08200836" lon="-19.55567169"><ele>409.6</ele><time>2012-07-21T18:16:54.0000000+00:00</time></trkpt><trkpt lat="64.08200836" lon="-19.55567169"><ele>409.6</ele><time>2012-07-21T18:16:59.0000000+00:00</time></trkpt><trkpt lat="64.08200836" lon="-19.55567169"><ele>409.6</ele><time>2012-07-21T18:17:04.0000000+00:00</time></trkpt><trkpt lat="64.08200836" lon="-19.55567169"><ele>409.6</ele><time>2012-07-21T18:17:09.0000000+00:00</time></trkpt><trkpt lat="64.08200836" lon="-19.55567169"><ele>409.6</ele><time>2012-07-21T18:17:14.0000000+00:00</time></trkpt><trkpt lat="64.08200836" lon="-19.55567169"><ele>409.6</ele><time>2012-07-21T18:17:19.0000000+00:00</time></trkpt><trkpt lat="64.08200836" lon="-19.55567169"><ele>409.6</ele><time>2012-07-21T18:17:24.0000000+00:00</time></trkpt><trkpt lat="64.08200836" lon="-19.55567169"><ele>409.6</ele><time>2012-07-21T18:17:29.0000000+00:00</time></trkpt><trkpt lat="64.08200836" lon="-19.55567169"><ele>409.5</ele><time>2012-07-21T18:17:34.0000000+00:00</time></trkpt><trkpt lat="64.08200836" lon="-19.55567169"><ele>409.5</ele><time>2012-07-21T18:17:39.0000000+00:00</time></trkpt><trkpt lat="64.08200836" lon="-19.55567169"><ele>409.5</ele><time>2012-07-21T18:17:44.0000000+00:00</time></trkpt><trkpt lat="64.08200836" lon="-19.55566979"><ele>409.5</ele><time>2012-07-21T18:17:49.0000000+00:00</time></trkpt><trkpt lat="64.08200836" lon="-19.55566979"><ele>409.5</ele><time>2012-07-21T18:17:54.0000000+00:00</time></trkpt><trkpt lat="64.08200836" lon="-19.55567169"><ele>409.5</ele><time>2012-07-21T18:17:59.0000000+00:00</time></trkpt><trkpt lat="64.08200836" lon="-19.55567169"><ele>409.5</ele><time>2012-07-21T18:18:04.0000000+00:00</time></trkpt><trkpt lat="64.08200836" lon="-19.55567169"><ele>409.5</ele><time>2012-07-21T18:18:09.0000000+00:00</time></trkpt><trkpt lat="64.08200836" lon="-19.55566979"><ele>409.5</ele><time>2012-07-21T18:18:14.0000000+00:00</time></trkpt><trkpt lat="64.08200836" lon="-19.55566979"><ele>409.5</ele><time>2012-07-21T18:18:19.0000000+00:00</time></trkpt><trkpt lat="64.08200836" lon="-19.55566979"><ele>409.5</ele><time>2012-07-21T18:18:24.0000000+00:00</time></trkpt><trkpt lat="64.08200836" lon="-19.55566979"><ele>409.5</ele><time>2012-07-21T18:18:29.0000000+00:00</time></trkpt><trkpt lat="64.08200836" lon="-19.55566979"><ele>409.4</ele><time>2012-07-21T18:18:34.0000000+00:00</time></trkpt><trkpt lat="64.08200836" lon="-19.55566979"><ele>409.4</ele><time>2012-07-21T18:18:39.0000000+00:00</time></trkpt><trkpt lat="64.08200836" lon="-19.55566979"><ele>409.4</ele><time>2012-07-21T18:18:44.0000000+00:00</time></trkpt><trkpt lat="64.08200836" lon="-19.55566979"><ele>409.4</ele><time>2012-07-21T18:18:49.0000000+00:00</time></trkpt><trkpt lat="64.08200836" lon="-19.55566979"><ele>409.4</ele><time>2012-07-21T18:18:54.0000000+00:00</time></trkpt><trkpt lat="64.08200836" lon="-19.55566979"><ele>409.4</ele><time>2012-07-21T18:18:59.0000000+00:00</time></trkpt><trkpt lat="64.08200836" lon="-19.55566979"><ele>409.4</ele><time>2012-07-21T18:19:04.0000000+00:00</time></trkpt><trkpt lat="64.08200836" lon="-19.55566979"><ele>409.4</ele><time>2012-07-21T18:19:09.0000000+00:00</time></trkpt><trkpt lat="64.08200836" lon="-19.55566979"><ele>409.4</ele><time>2012-07-21T18:19:14.0000000+00:00</time></trkpt><trkpt lat="64.08200836" lon="-19.55566979"><ele>409.4</ele><time>2012-07-21T18:19:19.0000000+00:00</time></trkpt><trkpt lat="64.08200836" lon="-19.55566979"><ele>409.3</ele><time>2012-07-21T18:19:24.0000000+00:00</time></trkpt><trkpt lat="64.08200836" lon="-19.55566979"><ele>409.3</ele><time>2012-07-21T18:19:29.0000000+00:00</time></trkpt><trkpt lat="64.08200836" lon="-19.55566979"><ele>409.3</ele><time>2012-07-21T18:19:34.0000000+00:00</time></trkpt><trkpt lat="64.08200836" lon="-19.55566979"><ele>409.3</ele><time>2012-07-21T18:19:39.0000000+00:00</time></trkpt><trkpt lat="64.08200836" lon="-19.55566979"><ele>409.3</ele><time>2012-07-21T18:19:44.0000000+00:00</time></trkpt><trkpt lat="64.08200836" lon="-19.55566979"><ele>409.3</ele><time>2012-07-21T18:19:49.0000000+00:00</time></trkpt><trkpt lat="64.08200836" lon="-19.55566979"><ele>409.2</ele><time>2012-07-21T18:19:54.0000000+00:00</time></trkpt><trkpt lat="64.08200836" lon="-19.55566979"><ele>409.2</ele><time>2012-07-21T18:19:59.0000000+00:00</time></trkpt><trkpt lat="64.08200836" lon="-19.55566979"><ele>409.2</ele><time>2012-07-21T18:20:04.0000000+00:00</time></trkpt><trkpt lat="64.08200836" lon="-19.55566979"><ele>409.2</ele><time>2012-07-21T18:20:09.0000000+00:00</time></trkpt><trkpt lat="64.08200836" lon="-19.55566979"><ele>409.2</ele><time>2012-07-21T18:20:14.0000000+00:00</time></trkpt><trkpt lat="64.08200836" lon="-19.55566979"><ele>409.2</ele><time>2012-07-21T18:20:19.0000000+00:00</time></trkpt><trkpt lat="64.08200836" lon="-19.55566979"><ele>409.2</ele><time>2012-07-21T18:20:24.0000000+00:00</time></trkpt><trkpt lat="64.08200836" lon="-19.55566979"><ele>409.1</ele><time>2012-07-21T18:20:29.0000000+00:00</time></trkpt><trkpt lat="64.08200836" lon="-19.55566979"><ele>409.1</ele><time>2012-07-21T18:20:34.0000000+00:00</time></trkpt><trkpt lat="64.08200836" lon="-19.55566979"><ele>409.1</ele><time>2012-07-21T18:20:39.0000000+00:00</time></trkpt><trkpt lat="64.08200836" lon="-19.55566979"><ele>409.1</ele><time>2012-07-21T18:20:44.0000000+00:00</time></trkpt><trkpt lat="64.08200836" lon="-19.55566979"><ele>409.1</ele><time>2012-07-21T18:20:49.0000000+00:00</time></trkpt><trkpt lat="64.08200836" lon="-19.55566979"><ele>409.1</ele><time>2012-07-21T18:20:54.0000000+00:00</time></trkpt><trkpt lat="64.08200836" lon="-19.55566979"><ele>409.1</ele><time>2012-07-21T18:20:59.0000000+00:00</time></trkpt><trkpt lat="64.08200836" lon="-19.55566979"><ele>409.0</ele><time>2012-07-21T18:21:04.0000000+00:00</time></trkpt><trkpt lat="64.08200836" lon="-19.55566979"><ele>409.0</ele><time>2012-07-21T18:21:09.0000000+00:00</time></trkpt><trkpt lat="64.08200836" lon="-19.55566979"><ele>409.0</ele><time>2012-07-21T18:21:14.0000000+00:00</time></trkpt><trkpt lat="64.08200836" lon="-19.55566788"><ele>409.0</ele><time>2012-07-21T18:21:19.0000000+00:00</time></trkpt><trkpt lat="64.08200836" lon="-19.55566788"><ele>409.0</ele><time>2012-07-21T18:21:24.0000000+00:00</time></trkpt><trkpt lat="64.08200836" lon="-19.55566788"><ele>408.9</ele><time>2012-07-21T18:21:29.0000000+00:00</time></trkpt><trkpt lat="64.08200836" lon="-19.55566788"><ele>408.9</ele><time>2012-07-21T18:21:34.0000000+00:00</time></trkpt><trkpt lat="64.08200836" lon="-19.55566788"><ele>408.9</ele><time>2012-07-21T18:21:39.0000000+00:00</time></trkpt><trkpt lat="64.08200836" lon="-19.55566788"><ele>408.9</ele><time>2012-07-21T18:21:44.0000000+00:00</time></trkpt><trkpt lat="64.08200836" lon="-19.55566788"><ele>408.8</ele><time>2012-07-21T18:21:49.0000000+00:00</time></trkpt><trkpt lat="64.08200836" lon="-19.55566788"><ele>408.8</ele><time>2012-07-21T18:21:54.0000000+00:00</time></trkpt><trkpt lat="64.08200836" lon="-19.55566788"><ele>408.8</ele><time>2012-07-21T18:21:59.0000000+00:00</time></trkpt><trkpt lat="64.08200836" lon="-19.55566788"><ele>408.8</ele><time>2012-07-21T18:22:04.0000000+00:00</time></trkpt><trkpt lat="64.08200836" lon="-19.55566788"><ele>408.8</ele><time>2012-07-21T18:22:09.0000000+00:00</time></trkpt><trkpt lat="64.08200836" lon="-19.55566788"><ele>408.8</ele><time>2012-07-21T18:22:14.0000000+00:00</time></trkpt><trkpt lat="64.08200836" lon="-19.55566788"><ele>408.8</ele><time>2012-07-21T18:22:19.0000000+00:00</time></trkpt><trkpt lat="64.08200836" lon="-19.55566788"><ele>408.8</ele><time>2012-07-21T18:22:24.0000000+00:00</time></trkpt><trkpt lat="64.08200836" lon="-19.55566788"><ele>408.8</ele><time>2012-07-21T18:22:29.0000000+00:00</time></trkpt><trkpt lat="64.08200836" lon="-19.55566788"><ele>408.7</ele><time>2012-07-21T18:22:34.0000000+00:00</time></trkpt><trkpt lat="64.08200836" lon="-19.55566788"><ele>408.7</ele><time>2012-07-21T18:22:39.0000000+00:00</time></trkpt><trkpt lat="64.08200836" lon="-19.55566788"><ele>408.7</ele><time>2012-07-21T18:22:44.0000000+00:00</time></trkpt><trkpt lat="64.08200836" lon="-19.55566788"><ele>408.7</ele><time>2012-07-21T18:22:49.0000000+00:00</time></trkpt><trkpt lat="64.08200836" lon="-19.55566788"><ele>408.7</ele><time>2012-07-21T18:22:54.0000000+00:00</time></trkpt><trkpt lat="64.08200836" lon="-19.55566788"><ele>408.7</ele><time>2012-07-21T18:22:59.0000000+00:00</time></trkpt><trkpt lat="64.08200836" lon="-19.55566788"><ele>408.6</ele><time>2012-07-21T18:23:04.0000000+00:00</time></trkpt><trkpt lat="64.08200836" lon="-19.55566788"><ele>408.6</ele><time>2012-07-21T18:23:09.0000000+00:00</time></trkpt><trkpt lat="64.08200836" lon="-19.55566788"><ele>408.6</ele><time>2012-07-21T18:23:14.0000000+00:00</time></trkpt><trkpt lat="64.08200836" lon="-19.55566788"><ele>408.6</ele><time>2012-07-21T18:23:19.0000000+00:00</time></trkpt><trkpt lat="64.08200836" lon="-19.55566788"><ele>408.6</ele><time>2012-07-21T18:23:24.0000000+00:00</time></trkpt><trkpt lat="64.08200836" lon="-19.55566788"><ele>408.6</ele><time>2012-07-21T18:23:29.0000000+00:00</time></trkpt><trkpt lat="64.08200836" lon="-19.55566788"><ele>408.6</ele><time>2012-07-21T18:23:34.0000000+00:00</time></trkpt><trkpt lat="64.08200836" lon="-19.55566788"><ele>408.6</ele><time>2012-07-21T18:23:39.0000000+00:00</time></trkpt><trkpt lat="64.08200836" lon="-19.55566788"><ele>408.6</ele><time>2012-07-21T18:23:44.0000000+00:00</time></trkpt><trkpt lat="64.08200836" lon="-19.55566788"><ele>408.5</ele><time>2012-07-21T18:23:49.0000000+00:00</time></trkpt><trkpt lat="64.08200836" lon="-19.55566597"><ele>408.5</ele><time>2012-07-21T18:23:54.0000000+00:00</time></trkpt><trkpt lat="64.08200836" lon="-19.55566597"><ele>408.5</ele><time>2012-07-21T18:23:59.0000000+00:00</time></trkpt><trkpt lat="64.08200836" lon="-19.55566597"><ele>408.5</ele><time>2012-07-21T18:24:04.0000000+00:00</time></trkpt><trkpt lat="64.08200836" lon="-19.55566597"><ele>408.5</ele><time>2012-07-21T18:24:09.0000000+00:00</time></trkpt><trkpt lat="64.08200836" lon="-19.55566597"><ele>408.4</ele><time>2012-07-21T18:24:14.0000000+00:00</time></trkpt><trkpt lat="64.08200836" lon="-19.55566597"><ele>408.4</ele><time>2012-07-21T18:24:19.0000000+00:00</time></trkpt><trkpt lat="64.08200836" lon="-19.55566597"><ele>408.4</ele><time>2012-07-21T18:24:24.0000000+00:00</time></trkpt><trkpt lat="64.08200836" lon="-19.55566597"><ele>408.4</ele><time>2012-07-21T18:24:29.0000000+00:00</time></trkpt><trkpt lat="64.08200836" lon="-19.55566406"><ele>408.3</ele><time>2012-07-21T18:24:34.0000000+00:00</time></trkpt><trkpt lat="64.08200836" lon="-19.55566406"><ele>408.3</ele><time>2012-07-21T18:24:39.0000000+00:00</time></trkpt><trkpt lat="64.08200836" lon="-19.55566406"><ele>408.3</ele><time>2012-07-21T18:24:44.0000000+00:00</time></trkpt><trkpt lat="64.08200836" lon="-19.55566406"><ele>408.3</ele><time>2012-07-21T18:24:49.0000000+00:00</time></trkpt><trkpt lat="64.08200836" lon="-19.55566406"><ele>408.2</ele><time>2012-07-21T18:24:54.0000000+00:00</time></trkpt><trkpt lat="64.08200836" lon="-19.55566406"><ele>408.2</ele><time>2012-07-21T18:24:59.0000000+00:00</time></trkpt><trkpt lat="64.08200836" lon="-19.55566406"><ele>408.2</ele><time>2012-07-21T18:25:04.0000000+00:00</time></trkpt><trkpt lat="64.08200836" lon="-19.55566406"><ele>408.2</ele><time>2012-07-21T18:25:09.0000000+00:00</time></trkpt><trkpt lat="64.08200836" lon="-19.55566406"><ele>408.2</ele><time>2012-07-21T18:25:14.0000000+00:00</time></trkpt><trkpt lat="64.08200836" lon="-19.55566406"><ele>408.2</ele><time>2012-07-21T18:25:19.0000000+00:00</time></trkpt><trkpt lat="64.08200836" lon="-19.55566406"><ele>408.2</ele><time>2012-07-21T18:25:24.0000000+00:00</time></trkpt><trkpt lat="64.08200836" lon="-19.55566406"><ele>408.1</ele><time>2012-07-21T18:25:29.0000000+00:00</time></trkpt><trkpt lat="64.08200836" lon="-19.55566406"><ele>408.1</ele><time>2012-07-21T18:25:34.0000000+00:00</time></trkpt><trkpt lat="64.08200836" lon="-19.55566406"><ele>408.1</ele><time>2012-07-21T18:25:39.0000000+00:00</time></trkpt><trkpt lat="64.08200836" lon="-19.55566406"><ele>408.0</ele><time>2012-07-21T18:25:44.0000000+00:00</time></trkpt><trkpt lat="64.08200836" lon="-19.55566406"><ele>408.0</ele><time>2012-07-21T18:25:49.0000000+00:00</time></trkpt><trkpt lat="64.08200836" lon="-19.55566406"><ele>408.0</ele><time>2012-07-21T18:25:54.0000000+00:00</time></trkpt><trkpt lat="64.08200836" lon="-19.55566406"><ele>407.9</ele><time>2012-07-21T18:25:59.0000000+00:00</time></trkpt><trkpt lat="64.08200836" lon="-19.55566406"><ele>407.9</ele><time>2012-07-21T18:26:04.0000000+00:00</time></trkpt><trkpt lat="64.08200836" lon="-19.55566406"><ele>407.9</ele><time>2012-07-21T18:26:09.0000000+00:00</time></trkpt><trkpt lat="64.08200836" lon="-19.55566406"><ele>407.9</ele><time>2012-07-21T18:26:14.0000000+00:00</time></trkpt><trkpt lat="64.08200836" lon="-19.55566216"><ele>407.8</ele><time>2012-07-21T18:26:19.0000000+00:00</time></trkpt><trkpt lat="64.08200836" lon="-19.55566216"><ele>407.8</ele><time>2012-07-21T18:26:24.0000000+00:00</time></trkpt><trkpt lat="64.08200836" lon="-19.55566216"><ele>407.8</ele><time>2012-07-21T18:26:29.0000000+00:00</time></trkpt><trkpt lat="64.08200836" lon="-19.55566216"><ele>407.8</ele><time>2012-07-21T18:26:34.0000000+00:00</time></trkpt><trkpt lat="64.08200836" lon="-19.55566216"><ele>407.7</ele><time>2012-07-21T18:26:39.0000000+00:00</time></trkpt><trkpt lat="64.08200836" lon="-19.55566216"><ele>407.7</ele><time>2012-07-21T18:26:44.0000000+00:00</time></trkpt><trkpt lat="64.08200836" lon="-19.55566216"><ele>407.7</ele><time>2012-07-21T18:26:49.0000000+00:00</time></trkpt><trkpt lat="64.08200836" lon="-19.55566216"><ele>407.6</ele><time>2012-07-21T18:26:54.0000000+00:00</time></trkpt><trkpt lat="64.08200836" lon="-19.55566216"><ele>407.6</ele><time>2012-07-21T18:26:59.0000000+00:00</time></trkpt><trkpt lat="64.08200836" lon="-19.55566216"><ele>407.6</ele><time>2012-07-21T18:27:04.0000000+00:00</time></trkpt><trkpt lat="64.08200073" lon="-19.55566216"><ele>407.6</ele><time>2012-07-21T18:27:09.0000000+00:00</time></trkpt><trkpt lat="64.0819931" lon="-19.55566406"><ele>406.7</ele><time>2012-07-21T18:27:14.0000000+00:00</time></trkpt><trkpt lat="64.0819931" lon="-19.55566979"><ele>405.9</ele><time>2012-07-21T18:27:19.0000000+00:00</time></trkpt><trkpt lat="64.0819931" lon="-19.55567169"><ele>405.1</ele><time>2012-07-21T18:27:24.0000000+00:00</time></trkpt><trkpt lat="64.0819931" lon="-19.55566788"><ele>404.4</ele><time>2012-07-21T18:27:29.0000000+00:00</time></trkpt><trkpt lat="64.08198547" lon="-19.55566406"><ele>403.7</ele><time>2012-07-21T18:27:34.0000000+00:00</time></trkpt><trkpt lat="64.08198547" lon="-19.55566025"><ele>403.2</ele><time>2012-07-21T18:27:39.0000000+00:00</time></trkpt><trkpt lat="64.08198547" lon="-19.55565834"><ele>402.7</ele><time>2012-07-21T18:27:44.0000000+00:00</time></trkpt><trkpt lat="64.08198547" lon="-19.55565643"><ele>402.1</ele><time>2012-07-21T18:27:49.0000000+00:00</time></trkpt><trkpt lat="64.08198547" lon="-19.55565262"><ele>401.6</ele><time>2012-07-21T18:27:54.0000000+00:00</time></trkpt><trkpt lat="64.08197784" lon="-19.55565071"><ele>401.1</ele><time>2012-07-21T18:27:59.0000000+00:00</time></trkpt><trkpt lat="64.08197784" lon="-19.55565262"><ele>400.5</ele><time>2012-07-21T18:28:04.0000000+00:00</time></trkpt><trkpt lat="64.08197784" lon="-19.55565453"><ele>400.0</ele><time>2012-07-21T18:28:09.0000000+00:00</time></trkpt><trkpt lat="64.08197784" lon="-19.55565643"><ele>399.5</ele><time>2012-07-21T18:28:14.0000000+00:00</time></trkpt><trkpt lat="64.08197784" lon="-19.55565834"><ele>399.1</ele><time>2012-07-21T18:28:19.0000000+00:00</time></trkpt><trkpt lat="64.08197784" lon="-19.55566025"><ele>398.7</ele><time>2012-07-21T18:28:24.0000000+00:00</time></trkpt><trkpt lat="64.08197022" lon="-19.55566025"><ele>398.4</ele><time>2012-07-21T18:28:29.0000000+00:00</time></trkpt><trkpt lat="64.08197022" lon="-19.55566025"><ele>398.3</ele><time>2012-07-21T18:28:34.0000000+00:00</time></trkpt><trkpt lat="64.08197022" lon="-19.55566025"><ele>398.3</ele><time>2012-07-21T18:28:39.0000000+00:00</time></trkpt><trkpt lat="64.08197022" lon="-19.55566025"><ele>398.3</ele><time>2012-07-21T18:28:44.0000000+00:00</time></trkpt><trkpt lat="64.08197022" lon="-19.55566025"><ele>398.3</ele><time>2012-07-21T18:28:49.0000000+00:00</time></trkpt><trkpt lat="64.08197022" lon="-19.55566025"><ele>398.3</ele><time>2012-07-21T18:28:54.0000000+00:00</time></trkpt><trkpt lat="64.08197022" lon="-19.55566025"><ele>398.3</ele><time>2012-07-21T18:28:59.0000000+00:00</time></trkpt><trkpt lat="64.08197022" lon="-19.55566025"><ele>398.3</ele><time>2012-07-21T18:29:04.0000000+00:00</time></trkpt><trkpt lat="64.08197022" lon="-19.55566025"><ele>398.3</ele><time>2012-07-21T18:29:09.0000000+00:00</time></trkpt><trkpt lat="64.08197022" lon="-19.55566216"><ele>398.3</ele><time>2012-07-21T18:29:14.0000000+00:00</time></trkpt><trkpt lat="64.08197022" lon="-19.55566216"><ele>398.3</ele><time>2012-07-21T18:29:19.0000000+00:00</time></trkpt><trkpt lat="64.08197022" lon="-19.55566216"><ele>398.3</ele><time>2012-07-21T18:29:24.0000000+00:00</time></trkpt><trkpt lat="64.08197022" lon="-19.55566216"><ele>398.3</ele><time>2012-07-21T18:29:29.0000000+00:00</time></trkpt><trkpt lat="64.08197022" lon="-19.55566216"><ele>398.3</ele><time>2012-07-21T18:29:34.0000000+00:00</time></trkpt><trkpt lat="64.08197022" lon="-19.55566216"><ele>398.3</ele><time>2012-07-21T18:29:39.0000000+00:00</time></trkpt><trkpt lat="64.08197022" lon="-19.55566216"><ele>398.3</ele><time>2012-07-21T18:29:44.0000000+00:00</time></trkpt><trkpt lat="64.08197022" lon="-19.55566216"><ele>398.3</ele><time>2012-07-21T18:29:49.0000000+00:00</time></trkpt><trkpt lat="64.08197022" lon="-19.55566406"><ele>398.3</ele><time>2012-07-21T18:29:54.0000000+00:00</time></trkpt><trkpt lat="64.08197022" lon="-19.55566406"><ele>398.3</ele><time>2012-07-21T18:29:59.0000000+00:00</time></trkpt><trkpt lat="64.08197022" lon="-19.55566406"><ele>398.3</ele><time>2012-07-21T18:30:04.0000000+00:00</time></trkpt><trkpt lat="64.08197022" lon="-19.55566406"><ele>398.3</ele><time>2012-07-21T18:30:09.0000000+00:00</time></trkpt><trkpt lat="64.08197022" lon="-19.55566406"><ele>398.3</ele><time>2012-07-21T18:30:14.0000000+00:00</time></trkpt><trkpt lat="64.08197022" lon="-19.55566406"><ele>398.3</ele><time>2012-07-21T18:30:19.0000000+00:00</time></trkpt><trkpt lat="64.08197022" lon="-19.55566406"><ele>398.3</ele><time>2012-07-21T18:30:24.0000000+00:00</time></trkpt><trkpt lat="64.08197022" lon="-19.55566406"><ele>398.3</ele><time>2012-07-21T18:30:29.0000000+00:00</time></trkpt><trkpt lat="64.08197022" lon="-19.55566406"><ele>398.4</ele><time>2012-07-21T18:30:34.0000000+00:00</time></trkpt><trkpt lat="64.08197022" lon="-19.55566406"><ele>398.4</ele><time>2012-07-21T18:30:39.0000000+00:00</time></trkpt><trkpt lat="64.08197022" lon="-19.55566406"><ele>398.4</ele><time>2012-07-21T18:30:44.0000000+00:00</time></trkpt><trkpt lat="64.08197022" lon="-19.55566597"><ele>398.5</ele><time>2012-07-21T18:30:49.0000000+00:00</time></trkpt><trkpt lat="64.08197022" lon="-19.55566597"><ele>398.5</ele><time>2012-07-21T18:30:54.0000000+00:00</time></trkpt><trkpt lat="64.08197022" lon="-19.55566597"><ele>398.5</ele><time>2012-07-21T18:30:59.0000000+00:00</time></trkpt><trkpt lat="64.08197022" lon="-19.55566597"><ele>398.5</ele><time>2012-07-21T18:31:04.0000000+00:00</time></trkpt><trkpt lat="64.08197022" lon="-19.55566597"><ele>398.5</ele><time>2012-07-21T18:31:09.0000000+00:00</time></trkpt><trkpt lat="64.08197022" lon="-19.55566597"><ele>398.5</ele><time>2012-07-21T18:31:14.0000000+00:00</time></trkpt><trkpt lat="64.08197022" lon="-19.55566597"><ele>398.5</ele><time>2012-07-21T18:31:19.0000000+00:00</time></trkpt><trkpt lat="64.08197022" lon="-19.55566597"><ele>398.5</ele><time>2012-07-21T18:31:24.0000000+00:00</time></trkpt><trkpt lat="64.08197022" lon="-19.55566597"><ele>398.5</ele><time>2012-07-21T18:31:29.0000000+00:00</time></trkpt><trkpt lat="64.08197022" lon="-19.55566597"><ele>398.6</ele><time>2012-07-21T18:31:34.0000000+00:00</time></trkpt><trkpt lat="64.08197022" lon="-19.55566597"><ele>398.6</ele><time>2012-07-21T18:31:39.0000000+00:00</time></trkpt><trkpt lat="64.08197022" lon="-19.55566597"><ele>398.6</ele><time>2012-07-21T18:31:44.0000000+00:00</time></trkpt><trkpt lat="64.08197022" lon="-19.55566788"><ele>398.6</ele><time>2012-07-21T18:31:49.0000000+00:00</time></trkpt><trkpt lat="64.08197022" lon="-19.55566788"><ele>398.6</ele><time>2012-07-21T18:31:54.0000000+00:00</time></trkpt><trkpt lat="64.08197022" lon="-19.55566788"><ele>398.6</ele><time>2012-07-21T18:31:59.0000000+00:00</time></trkpt><trkpt lat="64.08197022" lon="-19.55566788"><ele>398.5</ele><time>2012-07-21T18:32:04.0000000+00:00</time></trkpt><trkpt lat="64.08197022" lon="-19.55566788"><ele>398.5</ele><time>2012-07-21T18:32:09.0000000+00:00</time></trkpt><trkpt lat="64.08197022" lon="-19.55566788"><ele>398.5</ele><time>2012-07-21T18:32:14.0000000+00:00</time></trkpt><trkpt lat="64.08197022" lon="-19.55566788"><ele>398.6</ele><time>2012-07-21T18:32:19.0000000+00:00</time></trkpt><trkpt lat="64.08197022" lon="-19.55566788"><ele>398.5</ele><time>2012-07-21T18:32:24.0000000+00:00</time></trkpt><trkpt lat="64.08197022" lon="-19.55566788"><ele>398.5</ele><time>2012-07-21T18:32:29.0000000+00:00</time></trkpt><trkpt lat="64.08197022" lon="-19.55566788"><ele>398.6</ele><time>2012-07-21T18:32:34.0000000+00:00</time></trkpt><trkpt lat="64.08197022" lon="-19.55566788"><ele>398.6</ele><time>2012-07-21T18:32:39.0000000+00:00</time></trkpt><trkpt lat="64.08197022" lon="-19.55566788"><ele>398.6</ele><time>2012-07-21T18:32:44.0000000+00:00</time></trkpt><trkpt lat="64.08197022" lon="-19.55566788"><ele>398.7</ele><time>2012-07-21T18:32:49.0000000+00:00</time></trkpt><trkpt lat="64.08197022" lon="-19.55566788"><ele>398.7</ele><time>2012-07-21T18:32:54.0000000+00:00</time></trkpt><trkpt lat="64.08197022" lon="-19.55566788"><ele>398.7</ele><time>2012-07-21T18:32:59.0000000+00:00</time></trkpt><trkpt lat="64.08197022" lon="-19.55566788"><ele>398.7</ele><time>2012-07-21T18:33:04.0000000+00:00</time></trkpt><trkpt lat="64.08197022" lon="-19.55566788"><ele>398.7</ele><time>2012-07-21T18:33:09.0000000+00:00</time></trkpt><trkpt lat="64.08197022" lon="-19.55566979"><ele>398.7</ele><time>2012-07-21T18:33:14.0000000+00:00</time></trkpt><trkpt lat="64.08197022" lon="-19.55566788"><ele>398.7</ele><time>2012-07-21T18:33:19.0000000+00:00</time></trkpt><trkpt lat="64.08197022" lon="-19.55566788"><ele>398.8</ele><time>2012-07-21T18:33:24.0000000+00:00</time></trkpt><trkpt lat="64.08197022" lon="-19.55566788"><ele>398.8</ele><time>2012-07-21T18:33:29.0000000+00:00</time></trkpt><trkpt lat="64.08197022" lon="-19.55566788"><ele>398.8</ele><time>2012-07-21T18:33:34.0000000+00:00</time></trkpt><trkpt lat="64.08197022" lon="-19.55566979"><ele>398.8</ele><time>2012-07-21T18:33:39.0000000+00:00</time></trkpt><trkpt lat="64.08197022" lon="-19.55566979"><ele>398.8</ele><time>2012-07-21T18:33:44.0000000+00:00</time></trkpt><trkpt lat="64.08197022" lon="-19.55566979"><ele>398.8</ele><time>2012-07-21T18:33:49.0000000+00:00</time></trkpt><trkpt lat="64.08197022" lon="-19.55566979"><ele>398.8</ele><time>2012-07-21T18:33:54.0000000+00:00</time></trkpt><trkpt lat="64.08197022" lon="-19.55566979"><ele>398.9</ele><time>2012-07-21T18:33:59.0000000+00:00</time></trkpt><trkpt lat="64.08197022" lon="-19.55566979"><ele>398.9</ele><time>2012-07-21T18:34:04.0000000+00:00</time></trkpt><trkpt lat="64.08197022" lon="-19.55566979"><ele>398.9</ele><time>2012-07-21T18:34:09.0000000+00:00</time></trkpt><trkpt lat="64.08197022" lon="-19.55566979"><ele>399.0</ele><time>2012-07-21T18:34:14.0000000+00:00</time></trkpt><trkpt lat="64.08197022" lon="-19.55566979"><ele>399.0</ele><time>2012-07-21T18:34:19.0000000+00:00</time></trkpt><trkpt lat="64.08197784" lon="-19.55566979"><ele>399.0</ele><time>2012-07-21T18:34:24.0000000+00:00</time></trkpt><trkpt lat="64.08197784" lon="-19.55566979"><ele>399.0</ele><time>2012-07-21T18:34:29.0000000+00:00</time></trkpt><trkpt lat="64.08197784" lon="-19.55566979"><ele>399.0</ele><time>2012-07-21T18:34:34.0000000+00:00</time></trkpt><trkpt lat="64.08197784" lon="-19.55566979"><ele>399.1</ele><time>2012-07-21T18:34:39.0000000+00:00</time></trkpt><trkpt lat="64.08197784" lon="-19.55566979"><ele>399.1</ele><time>2012-07-21T18:34:44.0000000+00:00</time></trkpt><trkpt lat="64.08197784" lon="-19.55566979"><ele>399.2</ele><time>2012-07-21T18:34:49.0000000+00:00</time></trkpt><trkpt lat="64.08197784" lon="-19.55566979"><ele>399.2</ele><time>2012-07-21T18:34:54.0000000+00:00</time></trkpt><trkpt lat="64.08197784" lon="-19.55566979"><ele>399.2</ele><time>2012-07-21T18:34:59.0000000+00:00</time></trkpt><trkpt lat="64.08197784" lon="-19.55566979"><ele>399.3</ele><time>2012-07-21T18:35:04.0000000+00:00</time></trkpt><trkpt lat="64.08197784" lon="-19.55566979"><ele>399.4</ele><time>2012-07-21T18:35:09.0000000+00:00</time></trkpt><trkpt lat="64.08197784" lon="-19.55566979"><ele>399.4</ele><time>2012-07-21T18:35:14.0000000+00:00</time></trkpt><trkpt lat="64.08197784" lon="-19.55566979"><ele>399.4</ele><time>2012-07-21T18:35:19.0000000+00:00</time></trkpt><trkpt lat="64.08197784" lon="-19.55566979"><ele>399.5</ele><time>2012-07-21T18:35:24.0000000+00:00</time></trkpt><trkpt lat="64.08197784" lon="-19.55566979"><ele>399.5</ele><time>2012-07-21T18:35:29.0000000+00:00</time></trkpt><trkpt lat="64.08197784" lon="-19.55566979"><ele>399.6</ele><time>2012-07-21T18:35:34.0000000+00:00</time></trkpt><trkpt lat="64.08197784" lon="-19.55566979"><ele>399.6</ele><time>2012-07-21T18:35:39.0000000+00:00</time></trkpt><trkpt lat="64.08197784" lon="-19.55566979"><ele>399.6</ele><time>2012-07-21T18:35:44.0000000+00:00</time></trkpt><trkpt lat="64.08197784" lon="-19.55566979"><ele>399.7</ele><time>2012-07-21T18:35:49.0000000+00:00</time></trkpt><trkpt lat="64.08197784" lon="-19.55566979"><ele>399.7</ele><time>2012-07-21T18:35:54.0000000+00:00</time></trkpt><trkpt lat="64.08197784" lon="-19.55566979"><ele>399.7</ele><time>2012-07-21T18:35:59.0000000+00:00</time></trkpt><trkpt lat="64.08198547" lon="-19.55566979"><ele>399.8</ele><time>2012-07-21T18:36:04.0000000+00:00</time></trkpt><trkpt lat="64.08198547" lon="-19.55566979"><ele>399.8</ele><time>2012-07-21T18:36:09.0000000+00:00</time></trkpt><trkpt lat="64.08198547" lon="-19.55566979"><ele>399.9</ele><time>2012-07-21T18:36:14.0000000+00:00</time></trkpt><trkpt lat="64.08198547" lon="-19.55566979"><ele>399.9</ele><time>2012-07-21T18:36:19.0000000+00:00</time></trkpt><trkpt lat="64.08198547" lon="-19.55566979"><ele>399.9</ele><time>2012-07-21T18:36:24.0000000+00:00</time></trkpt><trkpt lat="64.08198547" lon="-19.55566979"><ele>399.9</ele><time>2012-07-21T18:36:29.0000000+00:00</time></trkpt><trkpt lat="64.08198547" lon="-19.55566979"><ele>400.0</ele><time>2012-07-21T18:36:34.0000000+00:00</time></trkpt><trkpt lat="64.08198547" lon="-19.55566979"><ele>400.0</ele><time>2012-07-21T18:36:39.0000000+00:00</time></trkpt><trkpt lat="64.08198547" lon="-19.55566979"><ele>400.0</ele><time>2012-07-21T18:36:44.0000000+00:00</time></trkpt><trkpt lat="64.08198547" lon="-19.55566979"><ele>400.1</ele><time>2012-07-21T18:36:49.0000000+00:00</time></trkpt><trkpt lat="64.08198547" lon="-19.55566979"><ele>400.1</ele><time>2012-07-21T18:36:54.0000000+00:00</time></trkpt><trkpt lat="64.08198547" lon="-19.55566979"><ele>400.2</ele><time>2012-07-21T18:36:59.0000000+00:00</time></trkpt><trkpt lat="64.08198547" lon="-19.55566979"><ele>400.2</ele><time>2012-07-21T18:37:04.0000000+00:00</time></trkpt><trkpt lat="64.08198547" lon="-19.55566979"><ele>400.2</ele><time>2012-07-21T18:37:09.0000000+00:00</time></trkpt><trkpt lat="64.08198547" lon="-19.55566979"><ele>400.3</ele><time>2012-07-21T18:37:14.0000000+00:00</time></trkpt><trkpt lat="64.08198547" lon="-19.55566788"><ele>400.3</ele><time>2012-07-21T18:37:19.0000000+00:00</time></trkpt><trkpt lat="64.08198547" lon="-19.55566788"><ele>400.4</ele><time>2012-07-21T18:37:24.0000000+00:00</time></trkpt><trkpt lat="64.08198547" lon="-19.55566788"><ele>400.4</ele><time>2012-07-21T18:37:29.0000000+00:00</time></trkpt><trkpt lat="64.08198547" lon="-19.55566788"><ele>400.4</ele><time>2012-07-21T18:37:34.0000000+00:00</time></trkpt><trkpt lat="64.08198547" lon="-19.55566788"><ele>400.4</ele><time>2012-07-21T18:37:39.0000000+00:00</time></trkpt><trkpt lat="64.0819931" lon="-19.55566788"><ele>400.5</ele><time>2012-07-21T18:37:44.0000000+00:00</time></trkpt><trkpt lat="64.0819931" lon="-19.55566788"><ele>400.5</ele><time>2012-07-21T18:37:49.0000000+00:00</time></trkpt><trkpt lat="64.0819931" lon="-19.55566597"><ele>400.5</ele><time>2012-07-21T18:37:54.0000000+00:00</time></trkpt><trkpt lat="64.0819931" lon="-19.55566597"><ele>400.6</ele><time>2012-07-21T18:37:59.0000000+00:00</time></trkpt><trkpt lat="64.0819931" lon="-19.55566597"><ele>400.6</ele><time>2012-07-21T18:38:04.0000000+00:00</time></trkpt><trkpt lat="64.0819931" lon="-19.55566597"><ele>400.6</ele><time>2012-07-21T18:38:09.0000000+00:00</time></trkpt><trkpt lat="64.0819931" lon="-19.55566597"><ele>400.7</ele><time>2012-07-21T18:38:14.0000000+00:00</time></trkpt><trkpt lat="64.0819931" lon="-19.55566597"><ele>400.7</ele><time>2012-07-21T18:38:19.0000000+00:00</time></trkpt><trkpt lat="64.0819931" lon="-19.55566597"><ele>400.8</ele><time>2012-07-21T18:38:24.0000000+00:00</time></trkpt><trkpt lat="64.0819931" lon="-19.55566406"><ele>400.8</ele><time>2012-07-21T18:38:29.0000000+00:00</time></trkpt><trkpt lat="64.0819931" lon="-19.55566406"><ele>400.9</ele><time>2012-07-21T18:38:34.0000000+00:00</time></trkpt><trkpt lat="64.0819931" lon="-19.55566406"><ele>400.9</ele><time>2012-07-21T18:38:39.0000000+00:00</time></trkpt><trkpt lat="64.0819931" lon="-19.55566406"><ele>400.9</ele><time>2012-07-21T18:38:44.0000000+00:00</time></trkpt><trkpt lat="64.0819931" lon="-19.55566406"><ele>401.0</ele><time>2012-07-21T18:38:49.0000000+00:00</time></trkpt><trkpt lat="64.0819931" lon="-19.55566406"><ele>401.0</ele><time>2012-07-21T18:38:54.0000000+00:00</time></trkpt><trkpt lat="64.0819931" lon="-19.55566216"><ele>401.1</ele><time>2012-07-21T18:38:59.0000000+00:00</time></trkpt><trkpt lat="64.0819931" lon="-19.55566216"><ele>401.2</ele><time>2012-07-21T18:39:04.0000000+00:00</time></trkpt><trkpt lat="64.0819931" lon="-19.55566216"><ele>401.2</ele><time>2012-07-21T18:39:09.0000000+00:00</time></trkpt><trkpt lat="64.0819931" lon="-19.55566216"><ele>401.2</ele><time>2012-07-21T18:39:14.0000000+00:00</time></trkpt><trkpt lat="64.0819931" lon="-19.55566025"><ele>401.3</ele><time>2012-07-21T18:39:19.0000000+00:00</time></trkpt><trkpt lat="64.0819931" lon="-19.55566025"><ele>401.3</ele><time>2012-07-21T18:39:24.0000000+00:00</time></trkpt><trkpt lat="64.0819931" lon="-19.55566025"><ele>401.3</ele><time>2012-07-21T18:39:29.0000000+00:00</time></trkpt><trkpt lat="64.0819931" lon="-19.55566025"><ele>401.4</ele><time>2012-07-21T18:39:34.0000000+00:00</time></trkpt><trkpt lat="64.0819931" lon="-19.55566025"><ele>401.4</ele><time>2012-07-21T18:39:39.0000000+00:00</time></trkpt><trkpt lat="64.0819931" lon="-19.55566025"><ele>401.5</ele><time>2012-07-21T18:39:44.0000000+00:00</time></trkpt><trkpt lat="64.0819931" lon="-19.55566025"><ele>401.5</ele><time>2012-07-21T18:39:49.0000000+00:00</time></trkpt><trkpt lat="64.0819931" lon="-19.55566025"><ele>401.5</ele><time>2012-07-21T18:39:54.0000000+00:00</time></trkpt><trkpt lat="64.0819931" lon="-19.55565834"><ele>401.5</ele><time>2012-07-21T18:39:59.0000000+00:00</time></trkpt><trkpt lat="64.0819931" lon="-19.55565834"><ele>401.6</ele><time>2012-07-21T18:40:04.0000000+00:00</time></trkpt><trkpt lat="64.08200073" lon="-19.55565834"><ele>401.7</ele><time>2012-07-21T18:40:09.0000000+00:00</time></trkpt><trkpt lat="64.08200073" lon="-19.55565834"><ele>401.7</ele><time>2012-07-21T18:40:14.0000000+00:00</time></trkpt><trkpt lat="64.08200073" lon="-19.55565834"><ele>401.8</ele><time>2012-07-21T18:40:19.0000000+00:00</time></trkpt><trkpt lat="64.08200073" lon="-19.55565643"><ele>401.8</ele><time>2012-07-21T18:40:24.0000000+00:00</time></trkpt><trkpt lat="64.08200073" lon="-19.55565643"><ele>401.8</ele><time>2012-07-21T18:40:29.0000000+00:00</time></trkpt><trkpt lat="64.08200073" lon="-19.55565643"><ele>401.8</ele><time>2012-07-21T18:40:34.0000000+00:00</time></trkpt><trkpt lat="64.08200073" lon="-19.55565643"><ele>401.9</ele><time>2012-07-21T18:40:39.0000000+00:00</time></trkpt><trkpt lat="64.08200073" lon="-19.55565643"><ele>401.9</ele><time>2012-07-21T18:40:44.0000000+00:00</time></trkpt><trkpt lat="64.08200073" lon="-19.55565643"><ele>402.0</ele><time>2012-07-21T18:40:49.0000000+00:00</time></trkpt><trkpt lat="64.08200073" lon="-19.55565643"><ele>402.0</ele><time>2012-07-21T18:40:54.0000000+00:00</time></trkpt><trkpt lat="64.08200073" lon="-19.55565643"><ele>402.1</ele><time>2012-07-21T18:40:59.0000000+00:00</time></trkpt><trkpt lat="64.08200073" lon="-19.55565643"><ele>402.1</ele><time>2012-07-21T18:41:04.0000000+00:00</time></trkpt><trkpt lat="64.08200073" lon="-19.55565643"><ele>402.1</ele><time>2012-07-21T18:41:09.0000000+00:00</time></trkpt><trkpt lat="64.08200073" lon="-19.55565643"><ele>402.1</ele><time>2012-07-21T18:41:14.0000000+00:00</time></trkpt><trkpt lat="64.08200073" lon="-19.55565643"><ele>402.2</ele><time>2012-07-21T18:41:19.0000000+00:00</time></trkpt><trkpt lat="64.08200073" lon="-19.55565643"><ele>402.2</ele><time>2012-07-21T18:41:24.0000000+00:00</time></trkpt><trkpt lat="64.08200073" lon="-19.55565643"><ele>402.2</ele><time>2012-07-21T18:41:29.0000000+00:00</time></trkpt><trkpt lat="64.08200073" lon="-19.55565643"><ele>402.3</ele><time>2012-07-21T18:41:34.0000000+00:00</time></trkpt><trkpt lat="64.08200073" lon="-19.55565643"><ele>402.3</ele><time>2012-07-21T18:41:39.0000000+00:00</time></trkpt><trkpt lat="64.08200073" lon="-19.55565643"><ele>402.3</ele><time>2012-07-21T18:41:44.0000000+00:00</time></trkpt><trkpt lat="64.08200073" lon="-19.55565643"><ele>402.3</ele><time>2012-07-21T18:41:49.0000000+00:00</time></trkpt><trkpt lat="64.08200073" lon="-19.55565643"><ele>402.4</ele><time>2012-07-21T18:41:54.0000000+00:00</time></trkpt><trkpt lat="64.08200073" lon="-19.55565643"><ele>402.4</ele><time>2012-07-21T18:41:59.0000000+00:00</time></trkpt><trkpt lat="64.08200073" lon="-19.55565643"><ele>402.5</ele><time>2012-07-21T18:42:04.0000000+00:00</time></trkpt><trkpt lat="64.08200073" lon="-19.55565643"><ele>402.5</ele><time>2012-07-21T18:42:09.0000000+00:00</time></trkpt><trkpt lat="64.08200073" lon="-19.55565643"><ele>402.5</ele><time>2012-07-21T18:42:14.0000000+00:00</time></trkpt><trkpt lat="64.08200073" lon="-19.55565453"><ele>402.6</ele><time>2012-07-21T18:42:19.0000000+00:00</time></trkpt><trkpt lat="64.08200073" lon="-19.55565453"><ele>402.6</ele><time>2012-07-21T18:42:24.0000000+00:00</time></trkpt><trkpt lat="64.08200073" lon="-19.55565453"><ele>402.6</ele><time>2012-07-21T18:42:29.0000000+00:00</time></trkpt><trkpt lat="64.08200073" lon="-19.55565643"><ele>402.6</ele><time>2012-07-21T18:42:34.0000000+00:00</time></trkpt><trkpt lat="64.08200073" lon="-19.55565643"><ele>402.7</ele><time>2012-07-21T18:42:39.0000000+00:00</time></trkpt><trkpt lat="64.08200073" lon="-19.55565643"><ele>402.7</ele><time>2012-07-21T18:42:44.0000000+00:00</time></trkpt><trkpt lat="64.08200073" lon="-19.55565643"><ele>402.7</ele><time>2012-07-21T18:42:49.0000000+00:00</time></trkpt><trkpt lat="64.08200836" lon="-19.55565643"><ele>402.8</ele><time>2012-07-21T18:42:54.0000000+00:00</time></trkpt><trkpt lat="64.08200836" lon="-19.55565643"><ele>402.8</ele><time>2012-07-21T18:42:59.0000000+00:00</time></trkpt><trkpt lat="64.08200836" lon="-19.55565643"><ele>402.8</ele><time>2012-07-21T18:43:04.0000000+00:00</time></trkpt><trkpt lat="64.08200836" lon="-19.55565643"><ele>402.8</ele><time>2012-07-21T18:43:09.0000000+00:00</time></trkpt><trkpt lat="64.08200836" lon="-19.55565643"><ele>402.9</ele><time>2012-07-21T18:43:14.0000000+00:00</time></trkpt><trkpt lat="64.08200836" lon="-19.55565643"><ele>402.9</ele><time>2012-07-21T18:43:19.0000000+00:00</time></trkpt><trkpt lat="64.08200836" lon="-19.55565643"><ele>402.9</ele><time>2012-07-21T18:43:24.0000000+00:00</time></trkpt><trkpt lat="64.08200836" lon="-19.55565643"><ele>402.9</ele><time>2012-07-21T18:43:29.0000000+00:00</time></trkpt><trkpt lat="64.08200836" lon="-19.55565643"><ele>403.0</ele><time>2012-07-21T18:43:34.0000000+00:00</time></trkpt><trkpt lat="64.08200836" lon="-19.55565643"><ele>403.1</ele><time>2012-07-21T18:43:39.0000000+00:00</time></trkpt><trkpt lat="64.08200836" lon="-19.55565453"><ele>403.1</ele><time>2012-07-21T18:43:44.0000000+00:00</time></trkpt><trkpt lat="64.08200836" lon="-19.55565453"><ele>403.1</ele><time>2012-07-21T18:43:49.0000000+00:00</time></trkpt><trkpt lat="64.08200836" lon="-19.55565453"><ele>403.2</ele><time>2012-07-21T18:43:54.0000000+00:00</time></trkpt><trkpt lat="64.08200836" lon="-19.55565453"><ele>403.2</ele><time>2012-07-21T18:43:59.0000000+00:00</time></trkpt><trkpt lat="64.08200836" lon="-19.55565453"><ele>403.2</ele><time>2012-07-21T18:44:04.0000000+00:00</time></trkpt><trkpt lat="64.08200836" lon="-19.55565453"><ele>403.2</ele><time>2012-07-21T18:44:09.0000000+00:00</time></trkpt><trkpt lat="64.08200836" lon="-19.55565453"><ele>403.3</ele><time>2012-07-21T18:44:14.0000000+00:00</time></trkpt><trkpt lat="64.08200836" lon="-19.55565453"><ele>403.3</ele><time>2012-07-21T18:44:19.0000000+00:00</time></trkpt><trkpt lat="64.08200836" lon="-19.55565262"><ele>403.3</ele><time>2012-07-21T18:44:24.0000000+00:00</time></trkpt><trkpt lat="64.08200836" lon="-19.55565453"><ele>403.3</ele><time>2012-07-21T18:44:29.0000000+00:00</time></trkpt><trkpt lat="64.08200836" lon="-19.55565453"><ele>403.3</ele><time>2012-07-21T18:44:34.0000000+00:00</time></trkpt><trkpt lat="64.08200836" lon="-19.55565453"><ele>403.3</ele><time>2012-07-21T18:44:39.0000000+00:00</time></trkpt><trkpt lat="64.08200836" lon="-19.55565453"><ele>403.3</ele><time>2012-07-21T18:44:44.0000000+00:00</time></trkpt><trkpt lat="64.08200836" lon="-19.55565453"><ele>403.3</ele><time>2012-07-21T18:44:49.0000000+00:00</time></trkpt><trkpt lat="64.08200836" lon="-19.55565453"><ele>403.3</ele><time>2012-07-21T18:44:54.0000000+00:00</time></trkpt><trkpt lat="64.08200836" lon="-19.55565453"><ele>403.4</ele><time>2012-07-21T18:44:59.0000000+00:00</time></trkpt><trkpt lat="64.08200836" lon="-19.55565453"><ele>403.4</ele><time>2012-07-21T18:45:04.0000000+00:00</time></trkpt><trkpt lat="64.08200836" lon="-19.55565453"><ele>403.4</ele><time>2012-07-21T18:45:09.0000000+00:00</time></trkpt><trkpt lat="64.08200836" lon="-19.55565453"><ele>403.4</ele><time>2012-07-21T18:45:14.0000000+00:00</time></trkpt><trkpt lat="64.08200836" lon="-19.55565453"><ele>403.4</ele><time>2012-07-21T18:45:19.0000000+00:00</time></trkpt><trkpt lat="64.08200836" lon="-19.55565453"><ele>403.4</ele><time>2012-07-21T18:45:24.0000000+00:00</time></trkpt><trkpt lat="64.08200836" lon="-19.55565453"><ele>403.4</ele><time>2012-07-21T18:45:29.0000000+00:00</time></trkpt><trkpt lat="64.08200836" lon="-19.55565453"><ele>403.4</ele><time>2012-07-21T18:45:34.0000000+00:00</time></trkpt><trkpt lat="64.08200073" lon="-19.55565453"><ele>403.3</ele><time>2012-07-21T18:45:39.0000000+00:00</time></trkpt><trkpt lat="64.08200073" lon="-19.55565453"><ele>403.3</ele><time>2012-07-21T18:45:44.0000000+00:00</time></trkpt><trkpt lat="64.08200073" lon="-19.55565453"><ele>403.3</ele><time>2012-07-21T18:45:49.0000000+00:00</time></trkpt><trkpt lat="64.08200836" lon="-19.55565453"><ele>403.3</ele><time>2012-07-21T18:45:54.0000000+00:00</time></trkpt><trkpt lat="64.08200836" lon="-19.55565453"><ele>403.4</ele><time>2012-07-21T18:45:59.0000000+00:00</time></trkpt><trkpt lat="64.08200836" lon="-19.55565453"><ele>403.4</ele><time>2012-07-21T18:46:04.0000000+00:00</time></trkpt><trkpt lat="64.08200836" lon="-19.55565453"><ele>403.5</ele><time>2012-07-21T18:46:09.0000000+00:00</time></trkpt><trkpt lat="64.08200836" lon="-19.55565453"><ele>403.5</ele><time>2012-07-21T18:46:14.0000000+00:00</time></trkpt><trkpt lat="64.08200836" lon="-19.55565453"><ele>403.5</ele><time>2012-07-21T18:46:19.0000000+00:00</time></trkpt><trkpt lat="64.08200836" lon="-19.55565453"><ele>403.5</ele><time>2012-07-21T18:46:24.0000000+00:00</time></trkpt><trkpt lat="64.08200836" lon="-19.55565643"><ele>403.5</ele><time>2012-07-21T18:46:29.0000000+00:00</time></trkpt><trkpt lat="64.08200836" lon="-19.55565643"><ele>403.5</ele><time>2012-07-21T18:46:34.0000000+00:00</time></trkpt><trkpt lat="64.08200836" lon="-19.55565643"><ele>403.5</ele><time>2012-07-21T18:46:39.0000000+00:00</time></trkpt><trkpt lat="64.08200836" lon="-19.55565643"><ele>403.5</ele><time>2012-07-21T18:46:44.0000000+00:00</time></trkpt><trkpt lat="64.08200836" lon="-19.55565643"><ele>403.5</ele><time>2012-07-21T18:46:49.0000000+00:00</time></trkpt><trkpt lat="64.08200836" lon="-19.55565643"><ele>403.5</ele><time>2012-07-21T18:46:54.0000000+00:00</time></trkpt><trkpt lat="64.08200836" lon="-19.55565643"><ele>403.5</ele><time>2012-07-21T18:46:59.0000000+00:00</time></trkpt><trkpt lat="64.08200836" lon="-19.55565643"><ele>403.5</ele><time>2012-07-21T18:47:04.0000000+00:00</time></trkpt><trkpt lat="64.08200836" lon="-19.55565643"><ele>403.5</ele><time>2012-07-21T18:47:09.0000000+00:00</time></trkpt><trkpt lat="64.08200836" lon="-19.55566216"><ele>403.7</ele><time>2012-07-21T18:47:14.0000000+00:00</time></trkpt><trkpt lat="64.08200073" lon="-19.55569649"><ele>404.4</ele><time>2012-07-21T18:47:19.0000000+00:00</time></trkpt><trkpt lat="64.08200073" lon="-19.55569649"><ele>404.7</ele><time>2012-07-21T18:47:24.0000000+00:00</time></trkpt><trkpt lat="64.08196259" lon="-19.55573463"><ele>404.4</ele><time>2012-07-21T18:47:29.0000000+00:00</time></trkpt><trkpt lat="64.08195496" lon="-19.55573463"><ele>404.9</ele><time>2012-07-21T18:47:34.0000000+00:00</time></trkpt><trkpt lat="64.08195496" lon="-19.55573463"><ele>404.9</ele><time>2012-07-21T18:47:39.0000000+00:00</time></trkpt><trkpt lat="64.08195496" lon="-19.55573273"><ele>404.9</ele><time>2012-07-21T18:47:44.0000000+00:00</time></trkpt><trkpt lat="64.08195496" lon="-19.55573463"><ele>404.9</ele><time>2012-07-21T18:47:49.0000000+00:00</time></trkpt><trkpt lat="64.08190918" lon="-19.55579186"><ele>405.7</ele><time>2012-07-21T18:47:54.0000000+00:00</time></trkpt><trkpt lat="64.08188629" lon="-19.55587006"><ele>405.7</ele><time>2012-07-21T18:47:59.0000000+00:00</time></trkpt><trkpt lat="64.08184052" lon="-19.55597115"><ele>404.9</ele><time>2012-07-21T18:48:04.0000000+00:00</time></trkpt><trkpt lat="64.08178711" lon="-19.55604935"><ele>404.3</ele><time>2012-07-21T18:48:09.0000000+00:00</time></trkpt><trkpt lat="64.08174133" lon="-19.55613327"><ele>403.5</ele><time>2012-07-21T18:48:14.0000000+00:00</time></trkpt><trkpt lat="64.08172607" lon="-19.55615425"><ele>403.5</ele><time>2012-07-21T18:48:19.0000000+00:00</time></trkpt><trkpt lat="64.08168793" lon="-19.55615044"><ele>403.6</ele><time>2012-07-21T18:48:24.0000000+00:00</time></trkpt><trkpt lat="64.08168793" lon="-19.5561409"><ele>403.6</ele><time>2012-07-21T18:48:29.0000000+00:00</time></trkpt><trkpt lat="64.08168793" lon="-19.55613899"><ele>403.5</ele><time>2012-07-21T18:48:34.0000000+00:00</time></trkpt><trkpt lat="64.08166504" lon="-19.55610275"><ele>403.4</ele><time>2012-07-21T18:48:39.0000000+00:00</time></trkpt><trkpt lat="64.08161926" lon="-19.55602074"><ele>403.0</ele><time>2012-07-21T18:48:44.0000000+00:00</time></trkpt><trkpt lat="64.08161926" lon="-19.5560112"><ele>402.9</ele><time>2012-07-21T18:48:49.0000000+00:00</time></trkpt><trkpt lat="64.08161163" lon="-19.55597878"><ele>402.8</ele><time>2012-07-21T18:48:54.0000000+00:00</time></trkpt><trkpt lat="64.081604" lon="-19.55595589"><ele>403.0</ele><time>2012-07-21T18:48:59.0000000+00:00</time></trkpt><trkpt lat="64.08159638" lon="-19.55594063"><ele>402.9</ele><time>2012-07-21T18:49:04.0000000+00:00</time></trkpt><trkpt lat="64.08159638" lon="-19.555933"><ele>403.2</ele><time>2012-07-21T18:49:09.0000000+00:00</time></trkpt><trkpt lat="64.08158875" lon="-19.55593681"><ele>403.5</ele><time>2012-07-21T18:49:14.0000000+00:00</time></trkpt><trkpt lat="64.08158875" lon="-19.55593491"><ele>403.8</ele><time>2012-07-21T18:49:19.0000000+00:00</time></trkpt><trkpt lat="64.08158875" lon="-19.55593491"><ele>403.8</ele><time>2012-07-21T18:49:24.0000000+00:00</time></trkpt><trkpt lat="64.08158875" lon="-19.55592918"><ele>403.4</ele><time>2012-07-21T18:49:29.0000000+00:00</time></trkpt><trkpt lat="64.08159638" lon="-19.55592918"><ele>403.3</ele><time>2012-07-21T18:49:34.0000000+00:00</time></trkpt><trkpt lat="64.08159638" lon="-19.55592918"><ele>403.3</ele><time>2012-07-21T18:49:39.0000000+00:00</time></trkpt><trkpt lat="64.08159638" lon="-19.55592918"><ele>403.3</ele><time>2012-07-21T18:49:44.0000000+00:00</time></trkpt><trkpt lat="64.08157349" lon="-19.55581856"><ele>403.2</ele><time>2012-07-21T18:49:49.0000000+00:00</time></trkpt><trkpt lat="64.08155823" lon="-19.55566025"><ele>403.5</ele><time>2012-07-21T18:49:54.0000000+00:00</time></trkpt><trkpt lat="64.08154297" lon="-19.55550575"><ele>404.1</ele><time>2012-07-21T18:49:59.0000000+00:00</time></trkpt><trkpt lat="64.08153534" lon="-19.55536461"><ele>404.2</ele><time>2012-07-21T18:50:04.0000000+00:00</time></trkpt><trkpt lat="64.08154297" lon="-19.55521393"><ele>404.6</ele><time>2012-07-21T18:50:09.0000000+00:00</time></trkpt><trkpt lat="64.08153534" lon="-19.55507278"><ele>405.0</ele><time>2012-07-21T18:50:14.0000000+00:00</time></trkpt><trkpt lat="64.08154297" lon="-19.55493546"><ele>405.5</ele><time>2012-07-21T18:50:19.0000000+00:00</time></trkpt><trkpt lat="64.0815506" lon="-19.55480194"><ele>406.2</ele><time>2012-07-21T18:50:24.0000000+00:00</time></trkpt><trkpt lat="64.08155823" lon="-19.55464935"><ele>405.7</ele><time>2012-07-21T18:50:29.0000000+00:00</time></trkpt><trkpt lat="64.08156586" lon="-19.55453682"><ele>405.8</ele><time>2012-07-21T18:50:34.0000000+00:00</time></trkpt><trkpt lat="64.08157349" lon="-19.55438995"><ele>406.0</ele><time>2012-07-21T18:50:39.0000000+00:00</time></trkpt><trkpt lat="64.08157349" lon="-19.55423737"><ele>406.0</ele><time>2012-07-21T18:50:44.0000000+00:00</time></trkpt><trkpt lat="64.08157349" lon="-19.55405808"><ele>406.2</ele><time>2012-07-21T18:50:49.0000000+00:00</time></trkpt><trkpt lat="64.08157349" lon="-19.55391121"><ele>406.4</ele><time>2012-07-21T18:50:54.0000000+00:00</time></trkpt><trkpt lat="64.08158112" lon="-19.55376625"><ele>407.3</ele><time>2012-07-21T18:50:59.0000000+00:00</time></trkpt><trkpt lat="64.08157349" lon="-19.55361557"><ele>407.5</ele><time>2012-07-21T18:51:04.0000000+00:00</time></trkpt><trkpt lat="64.08157349" lon="-19.55346298"><ele>407.7</ele><time>2012-07-21T18:51:09.0000000+00:00</time></trkpt><trkpt lat="64.08158112" lon="-19.55331039"><ele>408.1</ele><time>2012-07-21T18:51:14.0000000+00:00</time></trkpt><trkpt lat="64.08158875" lon="-19.55316162"><ele>407.2</ele><time>2012-07-21T18:51:19.0000000+00:00</time></trkpt><trkpt lat="64.081604" lon="-19.55300713"><ele>403.4</ele><time>2012-07-21T18:51:24.0000000+00:00</time></trkpt><trkpt lat="64.081604" lon="-19.55285263"><ele>400.7</ele><time>2012-07-21T18:51:29.0000000+00:00</time></trkpt><trkpt lat="64.08158875" lon="-19.55272865"><ele>398.4</ele><time>2012-07-21T18:51:34.0000000+00:00</time></trkpt><trkpt lat="64.08158875" lon="-19.55258369"><ele>397.8</ele><time>2012-07-21T18:51:39.0000000+00:00</time></trkpt><trkpt lat="64.08158112" lon="-19.55244446"><ele>398.8</ele><time>2012-07-21T18:51:44.0000000+00:00</time></trkpt><trkpt lat="64.08158112" lon="-19.55230331"><ele>400.4</ele><time>2012-07-21T18:51:49.0000000+00:00</time></trkpt><trkpt lat="64.08157349" lon="-19.55216217"><ele>401.5</ele><time>2012-07-21T18:51:54.0000000+00:00</time></trkpt><trkpt lat="64.08158112" lon="-19.55201912"><ele>404.2</ele><time>2012-07-21T18:51:59.0000000+00:00</time></trkpt><trkpt lat="64.08158112" lon="-19.55189896"><ele>405.5</ele><time>2012-07-21T18:52:04.0000000+00:00</time></trkpt><trkpt lat="64.08158875" lon="-19.55186081"><ele>406.9</ele><time>2012-07-21T18:52:09.0000000+00:00</time></trkpt><trkpt lat="64.08158875" lon="-19.55186081"><ele>407.5</ele><time>2012-07-21T18:52:14.0000000+00:00</time></trkpt><trkpt lat="64.08158112" lon="-19.55182266"><ele>408.6</ele><time>2012-07-21T18:52:19.0000000+00:00</time></trkpt><trkpt lat="64.08158112" lon="-19.55182076"><ele>409.1</ele><time>2012-07-21T18:52:24.0000000+00:00</time></trkpt><trkpt lat="64.08158112" lon="-19.55181503"><ele>409.2</ele><time>2012-07-21T18:52:29.0000000+00:00</time></trkpt><trkpt lat="64.08158112" lon="-19.55176354"><ele>409.4</ele><time>2012-07-21T18:52:34.0000000+00:00</time></trkpt><trkpt lat="64.08158112" lon="-19.55160713"><ele>410.6</ele><time>2012-07-21T18:52:39.0000000+00:00</time></trkpt><trkpt lat="64.08158112" lon="-19.55149078"><ele>411.5</ele><time>2012-07-21T18:52:44.0000000+00:00</time></trkpt><trkpt lat="64.08157349" lon="-19.55136299"><ele>411.5</ele><time>2012-07-21T18:52:49.0000000+00:00</time></trkpt><trkpt lat="64.08155823" lon="-19.55123329"><ele>412.7</ele><time>2012-07-21T18:52:54.0000000+00:00</time></trkpt><trkpt lat="64.08155823" lon="-19.5510788"><ele>413.9</ele><time>2012-07-21T18:52:59.0000000+00:00</time></trkpt><trkpt lat="64.08155823" lon="-19.550951"><ele>414.9</ele><time>2012-07-21T18:53:04.0000000+00:00</time></trkpt><trkpt lat="64.08155823" lon="-19.55090714"><ele>415.1</ele><time>2012-07-21T18:53:09.0000000+00:00</time></trkpt><trkpt lat="64.08155823" lon="-19.55078888"><ele>415.2</ele><time>2012-07-21T18:53:14.0000000+00:00</time></trkpt><trkpt lat="64.08155823" lon="-19.55069923"><ele>416.4</ele><time>2012-07-21T18:53:19.0000000+00:00</time></trkpt><trkpt lat="64.0815506" lon="-19.55069351"><ele>416.3</ele><time>2012-07-21T18:53:24.0000000+00:00</time></trkpt><trkpt lat="64.0815506" lon="-19.55068016"><ele>416.4</ele><time>2012-07-21T18:53:29.0000000+00:00</time></trkpt><trkpt lat="64.0815506" lon="-19.55063629"><ele>416.7</ele><time>2012-07-21T18:53:34.0000000+00:00</time></trkpt><trkpt lat="64.08154297" lon="-19.55051422"><ele>416.9</ele><time>2012-07-21T18:53:39.0000000+00:00</time></trkpt><trkpt lat="64.08154297" lon="-19.55037117"><ele>417.0</ele><time>2012-07-21T18:53:44.0000000+00:00</time></trkpt><trkpt lat="64.0815506" lon="-19.55022049"><ele>417.4</ele><time>2012-07-21T18:53:49.0000000+00:00</time></trkpt><trkpt lat="64.08154297" lon="-19.55009842"><ele>417.8</ele><time>2012-07-21T18:53:54.0000000+00:00</time></trkpt><trkpt lat="64.0815506" lon="-19.54995728"><ele>418.5</ele><time>2012-07-21T18:53:59.0000000+00:00</time></trkpt><trkpt lat="64.08155823" lon="-19.54981804"><ele>419.2</ele><time>2012-07-21T18:54:04.0000000+00:00</time></trkpt><trkpt lat="64.08155823" lon="-19.54967117"><ele>419.6</ele><time>2012-07-21T18:54:09.0000000+00:00</time></trkpt><trkpt lat="64.08156586" lon="-19.54951668"><ele>420.0</ele><time>2012-07-21T18:54:14.0000000+00:00</time></trkpt><trkpt lat="64.08155823" lon="-19.549366"><ele>420.7</ele><time>2012-07-21T18:54:19.0000000+00:00</time></trkpt><trkpt lat="64.08156586" lon="-19.54924011"><ele>421.5</ele><time>2012-07-21T18:54:24.0000000+00:00</time></trkpt><trkpt lat="64.08157349" lon="-19.54911614"><ele>421.3</ele><time>2012-07-21T18:54:29.0000000+00:00</time></trkpt><trkpt lat="64.08157349" lon="-19.54899979"><ele>421.3</ele><time>2012-07-21T18:54:34.0000000+00:00</time></trkpt><trkpt lat="64.08158112" lon="-19.54886818"><ele>422.0</ele><time>2012-07-21T18:54:39.0000000+00:00</time></trkpt><trkpt lat="64.08158875" lon="-19.54873657"><ele>421.9</ele><time>2012-07-21T18:54:44.0000000+00:00</time></trkpt><trkpt lat="64.08158875" lon="-19.54860306"><ele>422.2</ele><time>2012-07-21T18:54:49.0000000+00:00</time></trkpt><trkpt lat="64.08158112" lon="-19.54846382"><ele>422.6</ele><time>2012-07-21T18:54:54.0000000+00:00</time></trkpt><trkpt lat="64.08158112" lon="-19.54831505"><ele>422.7</ele><time>2012-07-21T18:54:59.0000000+00:00</time></trkpt><trkpt lat="64.08158112" lon="-19.54817009"><ele>422.7</ele><time>2012-07-21T18:55:04.0000000+00:00</time></trkpt><trkpt lat="64.08158112" lon="-19.54803085"><ele>422.9</ele><time>2012-07-21T18:55:09.0000000+00:00</time></trkpt><trkpt lat="64.08158875" lon="-19.5478878"><ele>422.5</ele><time>2012-07-21T18:55:14.0000000+00:00</time></trkpt><trkpt lat="64.08158875" lon="-19.54776382"><ele>423.2</ele><time>2012-07-21T18:55:19.0000000+00:00</time></trkpt><trkpt lat="64.08159638" lon="-19.5476284"><ele>423.6</ele><time>2012-07-21T18:55:24.0000000+00:00</time></trkpt><trkpt lat="64.08159638" lon="-19.54748917"><ele>423.4</ele><time>2012-07-21T18:55:29.0000000+00:00</time></trkpt><trkpt lat="64.08158112" lon="-19.54738426"><ele>423.7</ele><time>2012-07-21T18:55:34.0000000+00:00</time></trkpt><trkpt lat="64.08158875" lon="-19.54725266"><ele>423.6</ele><time>2012-07-21T18:55:39.0000000+00:00</time></trkpt><trkpt lat="64.081604" lon="-19.54712105"><ele>424.2</ele><time>2012-07-21T18:55:44.0000000+00:00</time></trkpt><trkpt lat="64.08161163" lon="-19.54698753"><ele>423.9</ele><time>2012-07-21T18:55:49.0000000+00:00</time></trkpt><trkpt lat="64.081604" lon="-19.54690552"><ele>423.3</ele><time>2012-07-21T18:55:54.0000000+00:00</time></trkpt><trkpt lat="64.081604" lon="-19.54675674"><ele>423.4</ele><time>2012-07-21T18:55:59.0000000+00:00</time></trkpt><trkpt lat="64.08159638" lon="-19.54664421"><ele>423.5</ele><time>2012-07-21T18:56:04.0000000+00:00</time></trkpt><trkpt lat="64.08158875" lon="-19.54664421"><ele>423.7</ele><time>2012-07-21T18:56:09.0000000+00:00</time></trkpt><trkpt lat="64.08158875" lon="-19.54664993"><ele>423.7</ele><time>2012-07-21T18:56:14.0000000+00:00</time></trkpt><trkpt lat="64.08158112" lon="-19.5466671"><ele>423.6</ele><time>2012-07-21T18:56:19.0000000+00:00</time></trkpt><trkpt lat="64.08158112" lon="-19.5466671"><ele>423.6</ele><time>2012-07-21T18:56:24.0000000+00:00</time></trkpt><trkpt lat="64.08157349" lon="-19.54667473"><ele>423.6</ele><time>2012-07-21T18:56:29.0000000+00:00</time></trkpt><trkpt lat="64.08157349" lon="-19.54667664"><ele>423.8</ele><time>2012-07-21T18:56:34.0000000+00:00</time></trkpt><trkpt lat="64.08157349" lon="-19.54668045"><ele>424.0</ele><time>2012-07-21T18:56:39.0000000+00:00</time></trkpt><trkpt lat="64.08156586" lon="-19.54662514"><ele>423.9</ele><time>2012-07-21T18:56:44.0000000+00:00</time></trkpt><trkpt lat="64.08156586" lon="-19.54649925"><ele>423.7</ele><time>2012-07-21T18:56:49.0000000+00:00</time></trkpt><trkpt lat="64.08156586" lon="-19.54634666"><ele>423.2</ele><time>2012-07-21T18:56:54.0000000+00:00</time></trkpt><trkpt lat="64.08156586" lon="-19.54619598"><ele>423.0</ele><time>2012-07-21T18:56:59.0000000+00:00</time></trkpt><trkpt lat="64.08156586" lon="-19.5460434"><ele>422.9</ele><time>2012-07-21T18:57:04.0000000+00:00</time></trkpt><trkpt lat="64.0815506" lon="-19.54592323"><ele>422.7</ele><time>2012-07-21T18:57:09.0000000+00:00</time></trkpt><trkpt lat="64.08154297" lon="-19.54578209"><ele>422.6</ele><time>2012-07-21T18:57:14.0000000+00:00</time></trkpt><trkpt lat="64.08153534" lon="-19.5456295"><ele>422.3</ele><time>2012-07-21T18:57:19.0000000+00:00</time></trkpt><trkpt lat="64.08152771" lon="-19.54547119"><ele>421.9</ele><time>2012-07-21T18:57:24.0000000+00:00</time></trkpt><trkpt lat="64.08150482" lon="-19.54531097"><ele>421.7</ele><time>2012-07-21T18:57:29.0000000+00:00</time></trkpt><trkpt lat="64.08149719" lon="-19.54516411"><ele>421.5</ele><time>2012-07-21T18:57:34.0000000+00:00</time></trkpt><trkpt lat="64.08148956" lon="-19.54501343"><ele>422.2</ele><time>2012-07-21T18:57:39.0000000+00:00</time></trkpt><trkpt lat="64.08145905" lon="-19.54487801"><ele>422.3</ele><time>2012-07-21T18:57:44.0000000+00:00</time></trkpt><trkpt lat="64.08143616" lon="-19.54473114"><ele>422.4</ele><time>2012-07-21T18:57:49.0000000+00:00</time></trkpt><trkpt lat="64.08140564" lon="-19.54460716"><ele>422.6</ele><time>2012-07-21T18:57:54.0000000+00:00</time></trkpt><trkpt lat="64.08138275" lon="-19.54448891"><ele>422.2</ele><time>2012-07-21T18:57:59.0000000+00:00</time></trkpt><trkpt lat="64.08135223" lon="-19.54436302"><ele>422.1</ele><time>2012-07-21T18:58:04.0000000+00:00</time></trkpt><trkpt lat="64.08132172" lon="-19.54422951"><ele>422.4</ele><time>2012-07-21T18:58:09.0000000+00:00</time></trkpt><trkpt lat="64.0812912" lon="-19.54410362"><ele>422.4</ele><time>2012-07-21T18:58:14.0000000+00:00</time></trkpt><trkpt lat="64.08125305" lon="-19.54397011"><ele>422.6</ele><time>2012-07-21T18:58:19.0000000+00:00</time></trkpt><trkpt lat="64.08120728" lon="-19.54382134"><ele>422.4</ele><time>2012-07-21T18:58:24.0000000+00:00</time></trkpt><trkpt lat="64.08116913" lon="-19.54369164"><ele>422.0</ele><time>2012-07-21T18:58:29.0000000+00:00</time></trkpt><trkpt lat="64.08113098" lon="-19.54355431"><ele>422.1</ele><time>2012-07-21T18:58:34.0000000+00:00</time></trkpt><trkpt lat="64.08108521" lon="-19.54345131"><ele>422.5</ele><time>2012-07-21T18:58:39.0000000+00:00</time></trkpt><trkpt lat="64.08105469" lon="-19.54334259"><ele>422.5</ele><time>2012-07-21T18:58:44.0000000+00:00</time></trkpt><trkpt lat="64.08100891" lon="-19.54322243"><ele>422.3</ele><time>2012-07-21T18:58:49.0000000+00:00</time></trkpt><trkpt lat="64.08097076" lon="-19.54311752"><ele>422.0</ele><time>2012-07-21T18:58:54.0000000+00:00</time></trkpt><trkpt lat="64.08093262" lon="-19.54302216"><ele>421.7</ele><time>2012-07-21T18:58:59.0000000+00:00</time></trkpt><trkpt lat="64.0809021" lon="-19.54292488"><ele>421.4</ele><time>2012-07-21T18:59:04.0000000+00:00</time></trkpt><trkpt lat="64.08087921" lon="-19.54288101"><ele>421.5</ele><time>2012-07-21T18:59:09.0000000+00:00</time></trkpt><trkpt lat="64.08083344" lon="-19.54279137"><ele>422.0</ele><time>2012-07-21T18:59:14.0000000+00:00</time></trkpt><trkpt lat="64.08078766" lon="-19.54268837"><ele>422.5</ele><time>2012-07-21T18:59:19.0000000+00:00</time></trkpt><trkpt lat="64.08074951" lon="-19.542593"><ele>422.6</ele><time>2012-07-21T18:59:24.0000000+00:00</time></trkpt><trkpt lat="64.08072662" lon="-19.54254532"><ele>422.7</ele><time>2012-07-21T18:59:29.0000000+00:00</time></trkpt><trkpt lat="64.08069611" lon="-19.54249764"><ele>422.9</ele><time>2012-07-21T18:59:34.0000000+00:00</time></trkpt><trkpt lat="64.08067322" lon="-19.54244423"><ele>423.3</ele><time>2012-07-21T18:59:39.0000000+00:00</time></trkpt><trkpt lat="64.0806427" lon="-19.54237366"><ele>423.8</ele><time>2012-07-21T18:59:44.0000000+00:00</time></trkpt><trkpt lat="64.08059692" lon="-19.54227066"><ele>424.2</ele><time>2012-07-21T18:59:49.0000000+00:00</time></trkpt><trkpt lat="64.08055878" lon="-19.54219246"><ele>424.5</ele><time>2012-07-21T18:59:54.0000000+00:00</time></trkpt><trkpt lat="64.08052063" lon="-19.54208756"><ele>424.6</ele><time>2012-07-21T18:59:59.0000000+00:00</time></trkpt><trkpt lat="64.08048248" lon="-19.54201317"><ele>424.6</ele><time>2012-07-21T19:00:04.0000000+00:00</time></trkpt><trkpt lat="64.08045197" lon="-19.54191399"><ele>424.6</ele><time>2012-07-21T19:00:09.0000000+00:00</time></trkpt><trkpt lat="64.08040619" lon="-19.54179382"><ele>424.6</ele><time>2012-07-21T19:00:14.0000000+00:00</time></trkpt><trkpt lat="64.08037567" lon="-19.54167938"><ele>424.8</ele><time>2012-07-21T19:00:19.0000000+00:00</time></trkpt><trkpt lat="64.08034515" lon="-19.54156113"><ele>425.4</ele><time>2012-07-21T19:00:24.0000000+00:00</time></trkpt><trkpt lat="64.08030701" lon="-19.54148483"><ele>425.3</ele><time>2012-07-21T19:00:29.0000000+00:00</time></trkpt><trkpt lat="64.08029175" lon="-19.54138184"><ele>425.6</ele><time>2012-07-21T19:00:34.0000000+00:00</time></trkpt><trkpt lat="64.0802536" lon="-19.54129791"><ele>425.6</ele><time>2012-07-21T19:00:39.0000000+00:00</time></trkpt><trkpt lat="64.08022308" lon="-19.54117775"><ele>425.2</ele><time>2012-07-21T19:00:44.0000000+00:00</time></trkpt><trkpt lat="64.08019257" lon="-19.54109383"><ele>425.0</ele><time>2012-07-21T19:00:49.0000000+00:00</time></trkpt><trkpt lat="64.08019257" lon="-19.54106331"><ele>425.2</ele><time>2012-07-21T19:00:54.0000000+00:00</time></trkpt><trkpt lat="64.08018494" lon="-19.54104424"><ele>425.0</ele><time>2012-07-21T19:00:59.0000000+00:00</time></trkpt><trkpt lat="64.08016205" lon="-19.54095459"><ele>425.2</ele><time>2012-07-21T19:01:04.0000000+00:00</time></trkpt><trkpt lat="64.08014679" lon="-19.54087067"><ele>425.0</ele><time>2012-07-21T19:01:09.0000000+00:00</time></trkpt><trkpt lat="64.0801239" lon="-19.54079056"><ele>424.7</ele><time>2012-07-21T19:01:14.0000000+00:00</time></trkpt><trkpt lat="64.08010101" lon="-19.54070854"><ele>425.4</ele><time>2012-07-21T19:01:19.0000000+00:00</time></trkpt><trkpt lat="64.0800705" lon="-19.54064369"><ele>425.7</ele><time>2012-07-21T19:01:24.0000000+00:00</time></trkpt><trkpt lat="64.08004761" lon="-19.54055595"><ele>426.0</ele><time>2012-07-21T19:01:29.0000000+00:00</time></trkpt><trkpt lat="64.08001709" lon="-19.5404911"><ele>426.3</ele><time>2012-07-21T19:01:34.0000000+00:00</time></trkpt><trkpt lat="64.0799942" lon="-19.54043579"><ele>426.8</ele><time>2012-07-21T19:01:39.0000000+00:00</time></trkpt><trkpt lat="64.07994843" lon="-19.54038811"><ele>427.1</ele><time>2012-07-21T19:01:44.0000000+00:00</time></trkpt><trkpt lat="64.07991791" lon="-19.54034615"><ele>427.7</ele><time>2012-07-21T19:01:49.0000000+00:00</time></trkpt><trkpt lat="64.07988739" lon="-19.54028702"><ele>428.1</ele><time>2012-07-21T19:01:54.0000000+00:00</time></trkpt><trkpt lat="64.0798645" lon="-19.54025078"><ele>428.4</ele><time>2012-07-21T19:01:59.0000000+00:00</time></trkpt><trkpt lat="64.07982636" lon="-19.540205"><ele>428.8</ele><time>2012-07-21T19:02:04.0000000+00:00</time></trkpt><trkpt lat="64.07979584" lon="-19.54015541"><ele>429.2</ele><time>2012-07-21T19:02:09.0000000+00:00</time></trkpt><trkpt lat="64.07975006" lon="-19.54008675"><ele>428.8</ele><time>2012-07-21T19:02:14.0000000+00:00</time></trkpt><trkpt lat="64.07971191" lon="-19.54000473"><ele>428.7</ele><time>2012-07-21T19:02:19.0000000+00:00</time></trkpt><trkpt lat="64.07969666" lon="-19.53998756"><ele>428.9</ele><time>2012-07-21T19:02:24.0000000+00:00</time></trkpt><trkpt lat="64.07967377" lon="-19.53992271"><ele>428.7</ele><time>2012-07-21T19:02:29.0000000+00:00</time></trkpt><trkpt lat="64.07962799" lon="-19.53983688"><ele>428.4</ele><time>2012-07-21T19:02:34.0000000+00:00</time></trkpt><trkpt lat="64.07958984" lon="-19.53973198"><ele>428.1</ele><time>2012-07-21T19:02:39.0000000+00:00</time></trkpt><trkpt lat="64.07954407" lon="-19.53966522"><ele>428.0</ele><time>2012-07-21T19:02:44.0000000+00:00</time></trkpt><trkpt lat="64.07949829" lon="-19.53958321"><ele>428.1</ele><time>2012-07-21T19:02:49.0000000+00:00</time></trkpt><trkpt lat="64.07944489" lon="-19.53950119"><ele>428.2</ele><time>2012-07-21T19:02:54.0000000+00:00</time></trkpt><trkpt lat="64.07939911" lon="-19.53940773"><ele>428.1</ele><time>2012-07-21T19:02:59.0000000+00:00</time></trkpt><trkpt lat="64.07935333" lon="-19.53934479"><ele>428.3</ele><time>2012-07-21T19:03:04.0000000+00:00</time></trkpt><trkpt lat="64.07930756" lon="-19.53926277"><ele>428.5</ele><time>2012-07-21T19:03:09.0000000+00:00</time></trkpt><trkpt lat="64.07925415" lon="-19.53920746"><ele>428.8</ele><time>2012-07-21T19:03:14.0000000+00:00</time></trkpt><trkpt lat="64.07920837" lon="-19.53912926"><ele>428.7</ele><time>2012-07-21T19:03:19.0000000+00:00</time></trkpt><trkpt lat="64.07915497" lon="-19.53907204"><ele>428.8</ele><time>2012-07-21T19:03:24.0000000+00:00</time></trkpt><trkpt lat="64.07910156" lon="-19.53900147"><ele>428.7</ele><time>2012-07-21T19:03:29.0000000+00:00</time></trkpt><trkpt lat="64.07905579" lon="-19.53896523"><ele>428.9</ele><time>2012-07-21T19:03:34.0000000+00:00</time></trkpt><trkpt lat="64.07904053" lon="-19.53897095"><ele>428.6</ele><time>2012-07-21T19:03:39.0000000+00:00</time></trkpt><trkpt lat="64.07904053" lon="-19.53897095"><ele>428.6</ele><time>2012-07-21T19:03:44.0000000+00:00</time></trkpt><trkpt lat="64.07899475" lon="-19.53893471"><ele>428.9</ele><time>2012-07-21T19:03:49.0000000+00:00</time></trkpt><trkpt lat="64.07894898" lon="-19.53888702"><ele>429.5</ele><time>2012-07-21T19:03:54.0000000+00:00</time></trkpt><trkpt lat="64.07888794" lon="-19.53886032"><ele>429.7</ele><time>2012-07-21T19:03:59.0000000+00:00</time></trkpt><trkpt lat="64.07883453" lon="-19.53882599"><ele>429.8</ele><time>2012-07-21T19:04:04.0000000+00:00</time></trkpt><trkpt lat="64.07878113" lon="-19.53879356"><ele>429.5</ele><time>2012-07-21T19:04:09.0000000+00:00</time></trkpt><trkpt lat="64.07871246" lon="-19.53875351"><ele>429.6</ele><time>2012-07-21T19:04:14.0000000+00:00</time></trkpt><trkpt lat="64.07865906" lon="-19.53871346"><ele>429.6</ele><time>2012-07-21T19:04:19.0000000+00:00</time></trkpt><trkpt lat="64.07860565" lon="-19.53868294"><ele>429.4</ele><time>2012-07-21T19:04:24.0000000+00:00</time></trkpt><trkpt lat="64.07854462" lon="-19.53864098"><ele>429.2</ele><time>2012-07-21T19:04:29.0000000+00:00</time></trkpt><trkpt lat="64.07848358" lon="-19.5385952"><ele>429.1</ele><time>2012-07-21T19:04:34.0000000+00:00</time></trkpt><trkpt lat="64.07842255" lon="-19.53856087"><ele>429.3</ele><time>2012-07-21T19:04:39.0000000+00:00</time></trkpt><trkpt lat="64.07836151" lon="-19.53853798"><ele>429.4</ele><time>2012-07-21T19:04:44.0000000+00:00</time></trkpt><trkpt lat="64.07830811" lon="-19.53850937"><ele>429.6</ele><time>2012-07-21T19:04:49.0000000+00:00</time></trkpt><trkpt lat="64.07824707" lon="-19.53848457"><ele>429.5</ele><time>2012-07-21T19:04:54.0000000+00:00</time></trkpt><trkpt lat="64.07817841" lon="-19.53845406"><ele>429.5</ele><time>2012-07-21T19:04:59.0000000+00:00</time></trkpt><trkpt lat="64.07811737" lon="-19.538414"><ele>429.5</ele><time>2012-07-21T19:05:04.0000000+00:00</time></trkpt><trkpt lat="64.07804871" lon="-19.53838158"><ele>429.9</ele><time>2012-07-21T19:05:09.0000000+00:00</time></trkpt><trkpt lat="64.07798767" lon="-19.5383625"><ele>429.9</ele><time>2012-07-21T19:05:14.0000000+00:00</time></trkpt><trkpt lat="64.07791901" lon="-19.53833389"><ele>430.1</ele><time>2012-07-21T19:05:19.0000000+00:00</time></trkpt><trkpt lat="64.07785034" lon="-19.53829765"><ele>430.4</ele><time>2012-07-21T19:05:24.0000000+00:00</time></trkpt><trkpt lat="64.07778168" lon="-19.5382843"><ele>430.1</ele><time>2012-07-21T19:05:29.0000000+00:00</time></trkpt><trkpt lat="64.07775879" lon="-19.53829002"><ele>429.6</ele><time>2012-07-21T19:05:34.0000000+00:00</time></trkpt><trkpt lat="64.07774353" lon="-19.53828621"><ele>429.4</ele><time>2012-07-21T19:05:39.0000000+00:00</time></trkpt><trkpt lat="64.07769013" lon="-19.53827095"><ele>429.7</ele><time>2012-07-21T19:05:44.0000000+00:00</time></trkpt><trkpt lat="64.07763672" lon="-19.53824425"><ele>430.1</ele><time>2012-07-21T19:05:49.0000000+00:00</time></trkpt><trkpt lat="64.07758331" lon="-19.53823662"><ele>430.6</ele><time>2012-07-21T19:05:54.0000000+00:00</time></trkpt><trkpt lat="64.07752991" lon="-19.53819847"><ele>431.5</ele><time>2012-07-21T19:05:59.0000000+00:00</time></trkpt><trkpt lat="64.0774765" lon="-19.53821755"><ele>432.2</ele><time>2012-07-21T19:06:04.0000000+00:00</time></trkpt><trkpt lat="64.07745361" lon="-19.53820992"><ele>432.8</ele><time>2012-07-21T19:06:09.0000000+00:00</time></trkpt><trkpt lat="64.07745361" lon="-19.53820992"><ele>432.9</ele><time>2012-07-21T19:06:14.0000000+00:00</time></trkpt><trkpt lat="64.07745361" lon="-19.53820801"><ele>432.9</ele><time>2012-07-21T19:06:19.0000000+00:00</time></trkpt><trkpt lat="64.07745361" lon="-19.53820992"><ele>432.9</ele><time>2012-07-21T19:06:24.0000000+00:00</time></trkpt><trkpt lat="64.07745361" lon="-19.53820992"><ele>432.8</ele><time>2012-07-21T19:06:29.0000000+00:00</time></trkpt><trkpt lat="64.07745361" lon="-19.53820992"><ele>432.8</ele><time>2012-07-21T19:06:34.0000000+00:00</time></trkpt><trkpt lat="64.07745361" lon="-19.5382309"><ele>433.2</ele><time>2012-07-21T19:06:39.0000000+00:00</time></trkpt><trkpt lat="64.07745361" lon="-19.53823471"><ele>433.1</ele><time>2012-07-21T19:06:44.0000000+00:00</time></trkpt><trkpt lat="64.07743835" lon="-19.5382309"><ele>433.7</ele><time>2012-07-21T19:06:49.0000000+00:00</time></trkpt><trkpt lat="64.07740021" lon="-19.53824234"><ele>434.0</ele><time>2012-07-21T19:06:54.0000000+00:00</time></trkpt><trkpt lat="64.07735443" lon="-19.53822708"><ele>434.9</ele><time>2012-07-21T19:06:59.0000000+00:00</time></trkpt><trkpt lat="64.07730866" lon="-19.53824043"><ele>435.3</ele><time>2012-07-21T19:07:04.0000000+00:00</time></trkpt><trkpt lat="64.07726288" lon="-19.53823662"><ele>436.3</ele><time>2012-07-21T19:07:09.0000000+00:00</time></trkpt><trkpt lat="64.0772171" lon="-19.53822708"><ele>437.1</ele><time>2012-07-21T19:07:14.0000000+00:00</time></trkpt><trkpt lat="64.07717896" lon="-19.53829002"><ele>437.3</ele><time>2012-07-21T19:07:19.0000000+00:00</time></trkpt><trkpt lat="64.07714081" lon="-19.53831291"><ele>437.5</ele><time>2012-07-21T19:07:24.0000000+00:00</time></trkpt><trkpt lat="64.07709503" lon="-19.53831101"><ele>438.1</ele><time>2012-07-21T19:07:29.0000000+00:00</time></trkpt><trkpt lat="64.07704163" lon="-19.5383358"><ele>438.5</ele><time>2012-07-21T19:07:34.0000000+00:00</time></trkpt><trkpt lat="64.07699585" lon="-19.53835297"><ele>439.1</ele><time>2012-07-21T19:07:39.0000000+00:00</time></trkpt><trkpt lat="64.07693481" lon="-19.53839111"><ele>439.2</ele><time>2012-07-21T19:07:44.0000000+00:00</time></trkpt><trkpt lat="64.07689667" lon="-19.53839684"><ele>439.3</ele><time>2012-07-21T19:07:49.0000000+00:00</time></trkpt><trkpt lat="64.07684326" lon="-19.538414"><ele>439.5</ele><time>2012-07-21T19:07:54.0000000+00:00</time></trkpt><trkpt lat="64.07678223" lon="-19.53841782"><ele>439.6</ele><time>2012-07-21T19:07:59.0000000+00:00</time></trkpt><trkpt lat="64.07670593" lon="-19.53844643"><ele>439.5</ele><time>2012-07-21T19:08:04.0000000+00:00</time></trkpt><trkpt lat="64.07666016" lon="-19.53847694"><ele>439.1</ele><time>2012-07-21T19:08:09.0000000+00:00</time></trkpt><trkpt lat="64.07666016" lon="-19.53848839"><ele>438.6</ele><time>2012-07-21T19:08:14.0000000+00:00</time></trkpt><trkpt lat="64.07659912" lon="-19.53847122"><ele>438.8</ele><time>2012-07-21T19:08:19.0000000+00:00</time></trkpt><trkpt lat="64.07653046" lon="-19.53845024"><ele>439.5</ele><time>2012-07-21T19:08:24.0000000+00:00</time></trkpt><trkpt lat="64.07647705" lon="-19.53845215"><ele>439.7</ele><time>2012-07-21T19:08:29.0000000+00:00</time></trkpt><trkpt lat="64.07637024" lon="-19.53844833"><ele>440.5</ele><time>2012-07-21T19:08:34.0000000+00:00</time></trkpt><trkpt lat="64.07627869" lon="-19.53844833"><ele>440.6</ele><time>2012-07-21T19:08:39.0000000+00:00</time></trkpt><trkpt lat="64.07619476" lon="-19.53844452"><ele>440.6</ele><time>2012-07-21T19:08:44.0000000+00:00</time></trkpt><trkpt lat="64.07610321" lon="-19.53843689"><ele>441.0</ele><time>2012-07-21T19:08:49.0000000+00:00</time></trkpt><trkpt lat="64.07601166" lon="-19.53844261"><ele>441.6</ele><time>2012-07-21T19:08:54.0000000+00:00</time></trkpt><trkpt lat="64.07592011" lon="-19.53842545"><ele>441.8</ele><time>2012-07-21T19:08:59.0000000+00:00</time></trkpt><trkpt lat="64.07582855" lon="-19.53842545"><ele>441.9</ele><time>2012-07-21T19:09:04.0000000+00:00</time></trkpt><trkpt lat="64.075737" lon="-19.53842163"><ele>442.5</ele><time>2012-07-21T19:09:09.0000000+00:00</time></trkpt><trkpt lat="64.07565308" lon="-19.53840447"><ele>442.9</ele><time>2012-07-21T19:09:14.0000000+00:00</time></trkpt><trkpt lat="64.07558441" lon="-19.53839684"><ele>443.2</ele><time>2012-07-21T19:09:19.0000000+00:00</time></trkpt><trkpt lat="64.07551575" lon="-19.53838539"><ele>443.1</ele><time>2012-07-21T19:09:24.0000000+00:00</time></trkpt><trkpt lat="64.07543945" lon="-19.5383606"><ele>443.3</ele><time>2012-07-21T19:09:29.0000000+00:00</time></trkpt><trkpt lat="64.07537079" lon="-19.53834915"><ele>443.5</ele><time>2012-07-21T19:09:34.0000000+00:00</time></trkpt><trkpt lat="64.07527924" lon="-19.53834152"><ele>443.7</ele><time>2012-07-21T19:09:39.0000000+00:00</time></trkpt><trkpt lat="64.07518005" lon="-19.53834915"><ele>444.6</ele><time>2012-07-21T19:09:44.0000000+00:00</time></trkpt><trkpt lat="64.07506561" lon="-19.5383606"><ele>445.2</ele><time>2012-07-21T19:09:49.0000000+00:00</time></trkpt><trkpt lat="64.0749588" lon="-19.53833389"><ele>444.9</ele><time>2012-07-21T19:09:54.0000000+00:00</time></trkpt><trkpt lat="64.07485199" lon="-19.53833199"><ele>444.0</ele><time>2012-07-21T19:09:59.0000000+00:00</time></trkpt><trkpt lat="64.07475281" lon="-19.53827858"><ele>443.4</ele><time>2012-07-21T19:10:04.0000000+00:00</time></trkpt><trkpt lat="64.074646" lon="-19.53818512"><ele>442.9</ele><time>2012-07-21T19:10:09.0000000+00:00</time></trkpt><trkpt lat="64.0745697" lon="-19.53805733"><ele>443.1</ele><time>2012-07-21T19:10:14.0000000+00:00</time></trkpt><trkpt lat="64.07450104" lon="-19.53791428"><ele>443.3</ele><time>2012-07-21T19:10:19.0000000+00:00</time></trkpt><trkpt lat="64.07444" lon="-19.53776932"><ele>443.5</ele><time>2012-07-21T19:10:24.0000000+00:00</time></trkpt><trkpt lat="64.07440186" lon="-19.53764916"><ele>444.1</ele><time>2012-07-21T19:10:29.0000000+00:00</time></trkpt><trkpt lat="64.07436371" lon="-19.53749657"><ele>444.2</ele><time>2012-07-21T19:10:34.0000000+00:00</time></trkpt><trkpt lat="64.07431793" lon="-19.53730965"><ele>444.2</ele><time>2012-07-21T19:10:39.0000000+00:00</time></trkpt><trkpt lat="64.07427979" lon="-19.53713417"><ele>444.1</ele><time>2012-07-21T19:10:44.0000000+00:00</time></trkpt><trkpt lat="64.0742569" lon="-19.53697205"><ele>444.4</ele><time>2012-07-21T19:10:49.0000000+00:00</time></trkpt><trkpt lat="64.07424164" lon="-19.53682518"><ele>444.8</ele><time>2012-07-21T19:10:54.0000000+00:00</time></trkpt><trkpt lat="64.07423401" lon="-19.53673554"><ele>445.3</ele><time>2012-07-21T19:10:59.0000000+00:00</time></trkpt><trkpt lat="64.07423401" lon="-19.53674507"><ele>445.1</ele><time>2012-07-21T19:11:04.0000000+00:00</time></trkpt><trkpt lat="64.07421875" lon="-19.53667259"><ele>445.6</ele><time>2012-07-21T19:11:09.0000000+00:00</time></trkpt><trkpt lat="64.07419586" lon="-19.53659058"><ele>445.7</ele><time>2012-07-21T19:11:14.0000000+00:00</time></trkpt><trkpt lat="64.0741806" lon="-19.53647232"><ele>446.1</ele><time>2012-07-21T19:11:19.0000000+00:00</time></trkpt><trkpt lat="64.07415772" lon="-19.53635025"><ele>446.3</ele><time>2012-07-21T19:11:24.0000000+00:00</time></trkpt><trkpt lat="64.07415009" lon="-19.53629303"><ele>446.5</ele><time>2012-07-21T19:11:29.0000000+00:00</time></trkpt><trkpt lat="64.07413483" lon="-19.53626061"><ele>446.4</ele><time>2012-07-21T19:11:34.0000000+00:00</time></trkpt><trkpt lat="64.07411957" lon="-19.53615189"><ele>446.4</ele><time>2012-07-21T19:11:39.0000000+00:00</time></trkpt><trkpt lat="64.07408905" lon="-19.53603172"><ele>447.0</ele><time>2012-07-21T19:11:44.0000000+00:00</time></trkpt><trkpt lat="64.07408142" lon="-19.53589439"><ele>447.1</ele><time>2012-07-21T19:11:49.0000000+00:00</time></trkpt><trkpt lat="64.07406616" lon="-19.53579521"><ele>447.0</ele><time>2012-07-21T19:11:54.0000000+00:00</time></trkpt><trkpt lat="64.07405853" lon="-19.53570366"><ele>447.4</ele><time>2012-07-21T19:11:59.0000000+00:00</time></trkpt><trkpt lat="64.07404327" lon="-19.53556252"><ele>447.3</ele><time>2012-07-21T19:12:04.0000000+00:00</time></trkpt><trkpt lat="64.07402802" lon="-19.53547859"><ele>447.7</ele><time>2012-07-21T19:12:09.0000000+00:00</time></trkpt><trkpt lat="64.07401276" lon="-19.53536224"><ele>447.6</ele><time>2012-07-21T19:12:14.0000000+00:00</time></trkpt><trkpt lat="64.07400513" lon="-19.53525925"><ele>448.1</ele><time>2012-07-21T19:12:19.0000000+00:00</time></trkpt><trkpt lat="64.07398224" lon="-19.53512955"><ele>448.4</ele><time>2012-07-21T19:12:24.0000000+00:00</time></trkpt><trkpt lat="64.07397461" lon="-19.53501129"><ele>448.9</ele><time>2012-07-21T19:12:29.0000000+00:00</time></trkpt><trkpt lat="64.07395935" lon="-19.53487778"><ele>449.3</ele><time>2012-07-21T19:12:34.0000000+00:00</time></trkpt><trkpt lat="64.07395172" lon="-19.53475189"><ele>449.1</ele><time>2012-07-21T19:12:39.0000000+00:00</time></trkpt><trkpt lat="64.07393646" lon="-19.53462601"><ele>449.3</ele><time>2012-07-21T19:12:44.0000000+00:00</time></trkpt><trkpt lat="64.0739212" lon="-19.53449059"><ele>449.2</ele><time>2012-07-21T19:12:49.0000000+00:00</time></trkpt><trkpt lat="64.07390595" lon="-19.53435135"><ele>449.6</ele><time>2012-07-21T19:12:54.0000000+00:00</time></trkpt><trkpt lat="64.07389832" lon="-19.53421974"><ele>449.8</ele><time>2012-07-21T19:12:59.0000000+00:00</time></trkpt><trkpt lat="64.07388306" lon="-19.53409195"><ele>450.2</ele><time>2012-07-21T19:13:04.0000000+00:00</time></trkpt><trkpt lat="64.07388306" lon="-19.53398895"><ele>450.7</ele><time>2012-07-21T19:13:09.0000000+00:00</time></trkpt><trkpt lat="64.07388306" lon="-19.5338726"><ele>451.2</ele><time>2012-07-21T19:13:14.0000000+00:00</time></trkpt><trkpt lat="64.07387543" lon="-19.53383827"><ele>451.3</ele><time>2012-07-21T19:13:19.0000000+00:00</time></trkpt><trkpt lat="64.07387543" lon="-19.53383827"><ele>451.2</ele><time>2012-07-21T19:13:24.0000000+00:00</time></trkpt><trkpt lat="64.07387543" lon="-19.53380585"><ele>451.4</ele><time>2012-07-21T19:13:29.0000000+00:00</time></trkpt><trkpt lat="64.0738678" lon="-19.53369904"><ele>451.6</ele><time>2012-07-21T19:13:34.0000000+00:00</time></trkpt><trkpt lat="64.0738678" lon="-19.53358269"><ele>452.3</ele><time>2012-07-21T19:13:39.0000000+00:00</time></trkpt><trkpt lat="64.07386017" lon="-19.53345108"><ele>452.4</ele><time>2012-07-21T19:13:44.0000000+00:00</time></trkpt><trkpt lat="64.07386017" lon="-19.53332329"><ele>452.6</ele><time>2012-07-21T19:13:49.0000000+00:00</time></trkpt><trkpt lat="64.07385254" lon="-19.53318787"><ele>452.5</ele><time>2012-07-21T19:13:54.0000000+00:00</time></trkpt><trkpt lat="64.07384491" lon="-19.53307152"><ele>452.7</ele><time>2012-07-21T19:13:59.0000000+00:00</time></trkpt><trkpt lat="64.07383728" lon="-19.53292847"><ele>452.8</ele><time>2012-07-21T19:14:04.0000000+00:00</time></trkpt><trkpt lat="64.07384491" lon="-19.53279495"><ele>452.6</ele><time>2012-07-21T19:14:09.0000000+00:00</time></trkpt><trkpt lat="64.07383728" lon="-19.53265953"><ele>452.8</ele><time>2012-07-21T19:14:14.0000000+00:00</time></trkpt><trkpt lat="64.07383728" lon="-19.5325222"><ele>452.7</ele><time>2012-07-21T19:14:19.0000000+00:00</time></trkpt><trkpt lat="64.07382202" lon="-19.53237724"><ele>453.0</ele><time>2012-07-21T19:14:24.0000000+00:00</time></trkpt><trkpt lat="64.07382202" lon="-19.53223419"><ele>453.5</ele><time>2012-07-21T19:14:29.0000000+00:00</time></trkpt><trkpt lat="64.07381439" lon="-19.53210449"><ele>453.7</ele><time>2012-07-21T19:14:34.0000000+00:00</time></trkpt><trkpt lat="64.07381439" lon="-19.53196335"><ele>454.1</ele><time>2012-07-21T19:14:39.0000000+00:00</time></trkpt><trkpt lat="64.07380676" lon="-19.53183365"><ele>454.2</ele><time>2012-07-21T19:14:44.0000000+00:00</time></trkpt><trkpt lat="64.07380676" lon="-19.53171921"><ele>454.4</ele><time>2012-07-21T19:14:49.0000000+00:00</time></trkpt><trkpt lat="64.07380676" lon="-19.53168488"><ele>454.4</ele><time>2012-07-21T19:14:54.0000000+00:00</time></trkpt><trkpt lat="64.07381439" lon="-19.53159905"><ele>454.0</ele><time>2012-07-21T19:14:59.0000000+00:00</time></trkpt><trkpt lat="64.07379913" lon="-19.5314579"><ele>452.8</ele><time>2012-07-21T19:15:04.0000000+00:00</time></trkpt><trkpt lat="64.07379913" lon="-19.53132439"><ele>452.3</ele><time>2012-07-21T19:15:09.0000000+00:00</time></trkpt><trkpt lat="64.07379913" lon="-19.5311985"><ele>452.0</ele><time>2012-07-21T19:15:14.0000000+00:00</time></trkpt><trkpt lat="64.0737915" lon="-19.53106499"><ele>451.7</ele><time>2012-07-21T19:15:19.0000000+00:00</time></trkpt><trkpt lat="64.07378388" lon="-19.53091812"><ele>451.2</ele><time>2012-07-21T19:15:24.0000000+00:00</time></trkpt><trkpt lat="64.07377625" lon="-19.53077126"><ele>450.8</ele><time>2012-07-21T19:15:29.0000000+00:00</time></trkpt><trkpt lat="64.07376862" lon="-19.53063583"><ele>450.9</ele><time>2012-07-21T19:15:34.0000000+00:00</time></trkpt><trkpt lat="64.07375336" lon="-19.53050041"><ele>450.8</ele><time>2012-07-21T19:15:39.0000000+00:00</time></trkpt><trkpt lat="64.07374573" lon="-19.53038597"><ele>450.9</ele><time>2012-07-21T19:15:44.0000000+00:00</time></trkpt><trkpt lat="64.0737381" lon="-19.53025055"><ele>451.0</ele><time>2012-07-21T19:15:49.0000000+00:00</time></trkpt><trkpt lat="64.0737381" lon="-19.53012276"><ele>450.9</ele><time>2012-07-21T19:15:54.0000000+00:00</time></trkpt><trkpt lat="64.0737381" lon="-19.530056"><ele>450.8</ele><time>2012-07-21T19:15:59.0000000+00:00</time></trkpt><trkpt lat="64.0737381" lon="-19.53005981"><ele>450.7</ele><time>2012-07-21T19:16:04.0000000+00:00</time></trkpt><trkpt lat="64.0737381" lon="-19.53005981"><ele>450.7</ele><time>2012-07-21T19:16:09.0000000+00:00</time></trkpt><trkpt lat="64.0737381" lon="-19.53005981"><ele>450.7</ele><time>2012-07-21T19:16:14.0000000+00:00</time></trkpt><trkpt lat="64.0737381" lon="-19.53005981"><ele>450.7</ele><time>2012-07-21T19:16:19.0000000+00:00</time></trkpt><trkpt lat="64.0737381" lon="-19.53005981"><ele>450.7</ele><time>2012-07-21T19:16:24.0000000+00:00</time></trkpt><trkpt lat="64.0737381" lon="-19.53006172"><ele>450.7</ele><time>2012-07-21T19:16:29.0000000+00:00</time></trkpt><trkpt lat="64.07373047" lon="-19.52999306"><ele>450.6</ele><time>2012-07-21T19:16:34.0000000+00:00</time></trkpt><trkpt lat="64.07372284" lon="-19.52985954"><ele>450.6</ele><time>2012-07-21T19:16:39.0000000+00:00</time></trkpt><trkpt lat="64.07371521" lon="-19.5297184"><ele>450.3</ele><time>2012-07-21T19:16:44.0000000+00:00</time></trkpt><trkpt lat="64.07369995" lon="-19.52956963"><ele>450.1</ele><time>2012-07-21T19:16:49.0000000+00:00</time></trkpt><trkpt lat="64.07369995" lon="-19.52941704"><ele>449.9</ele><time>2012-07-21T19:16:54.0000000+00:00</time></trkpt><trkpt lat="64.07368469" lon="-19.52928162"><ele>449.9</ele><time>2012-07-21T19:16:59.0000000+00:00</time></trkpt><trkpt lat="64.07366943" lon="-19.52913666"><ele>449.6</ele><time>2012-07-21T19:17:04.0000000+00:00</time></trkpt><trkpt lat="64.07366943" lon="-19.52899933"><ele>449.2</ele><time>2012-07-21T19:17:09.0000000+00:00</time></trkpt><trkpt lat="64.0736618" lon="-19.5288887"><ele>449.6</ele><time>2012-07-21T19:17:14.0000000+00:00</time></trkpt><trkpt lat="64.0736618" lon="-19.52884293"><ele>450.0</ele><time>2012-07-21T19:17:19.0000000+00:00</time></trkpt><trkpt lat="64.07364655" lon="-19.52873421"><ele>450.2</ele><time>2012-07-21T19:17:24.0000000+00:00</time></trkpt><trkpt lat="64.07363892" lon="-19.52859879"><ele>450.9</ele><time>2012-07-21T19:17:29.0000000+00:00</time></trkpt><trkpt lat="64.07363892" lon="-19.52850914"><ele>452.7</ele><time>2012-07-21T19:17:34.0000000+00:00</time></trkpt><trkpt lat="64.07363892" lon="-19.5284462"><ele>451.7</ele><time>2012-07-21T19:17:39.0000000+00:00</time></trkpt><trkpt lat="64.07364655" lon="-19.5283432"><ele>452.2</ele><time>2012-07-21T19:17:44.0000000+00:00</time></trkpt><trkpt lat="64.07364655" lon="-19.52819061"><ele>452.6</ele><time>2012-07-21T19:17:49.0000000+00:00</time></trkpt><trkpt lat="64.0736618" lon="-19.52804375"><ele>453.2</ele><time>2012-07-21T19:17:54.0000000+00:00</time></trkpt><trkpt lat="64.07365418" lon="-19.52791023"><ele>453.4</ele><time>2012-07-21T19:17:59.0000000+00:00</time></trkpt><trkpt lat="64.07365418" lon="-19.52779007"><ele>453.5</ele><time>2012-07-21T19:18:04.0000000+00:00</time></trkpt><trkpt lat="64.07364655" lon="-19.52763367"><ele>453.7</ele><time>2012-07-21T19:18:09.0000000+00:00</time></trkpt><trkpt lat="64.07364655" lon="-19.52747345"><ele>454.1</ele><time>2012-07-21T19:18:14.0000000+00:00</time></trkpt><trkpt lat="64.07365418" lon="-19.5273037"><ele>454.2</ele><time>2012-07-21T19:18:19.0000000+00:00</time></trkpt><trkpt lat="64.07364655" lon="-19.52718926"><ele>454.3</ele><time>2012-07-21T19:18:24.0000000+00:00</time></trkpt><trkpt lat="64.07364655" lon="-19.52707481"><ele>454.3</ele><time>2012-07-21T19:18:29.0000000+00:00</time></trkpt><trkpt lat="64.07363892" lon="-19.52692223"><ele>454.3</ele><time>2012-07-21T19:18:34.0000000+00:00</time></trkpt><trkpt lat="64.07363892" lon="-19.52677536"><ele>454.1</ele><time>2012-07-21T19:18:39.0000000+00:00</time></trkpt><trkpt lat="64.07365418" lon="-19.52664375"><ele>454.3</ele><time>2012-07-21T19:18:44.0000000+00:00</time></trkpt><trkpt lat="64.07366943" lon="-19.52651787"><ele>454.8</ele><time>2012-07-21T19:18:49.0000000+00:00</time></trkpt><trkpt lat="64.07366943" lon="-19.52635384"><ele>455.1</ele><time>2012-07-21T19:18:54.0000000+00:00</time></trkpt><trkpt lat="64.07366943" lon="-19.52615547"><ele>455.7</ele><time>2012-07-21T19:18:59.0000000+00:00</time></trkpt><trkpt lat="64.07366943" lon="-19.52595139"><ele>456.0</ele><time>2012-07-21T19:19:04.0000000+00:00</time></trkpt><trkpt lat="64.07366943" lon="-19.52577972"><ele>456.2</ele><time>2012-07-21T19:19:09.0000000+00:00</time></trkpt><trkpt lat="64.07366943" lon="-19.52561569"><ele>456.3</ele><time>2012-07-21T19:19:14.0000000+00:00</time></trkpt><trkpt lat="64.07366943" lon="-19.52545548"><ele>456.9</ele><time>2012-07-21T19:19:19.0000000+00:00</time></trkpt><trkpt lat="64.0736618" lon="-19.52528381"><ele>457.1</ele><time>2012-07-21T19:19:24.0000000+00:00</time></trkpt><trkpt lat="64.07365418" lon="-19.52510262"><ele>457.2</ele><time>2012-07-21T19:19:29.0000000+00:00</time></trkpt><trkpt lat="64.07365418" lon="-19.52493286"><ele>457.5</ele><time>2012-07-21T19:19:34.0000000+00:00</time></trkpt><trkpt lat="64.07365418" lon="-19.52472878"><ele>457.7</ele><time>2012-07-21T19:19:39.0000000+00:00</time></trkpt><trkpt lat="64.07364655" lon="-19.52449989"><ele>457.7</ele><time>2012-07-21T19:19:44.0000000+00:00</time></trkpt><trkpt lat="64.07365418" lon="-19.52432632"><ele>457.8</ele><time>2012-07-21T19:19:49.0000000+00:00</time></trkpt><trkpt lat="64.07361603" lon="-19.52417755"><ele>458.1</ele><time>2012-07-21T19:19:54.0000000+00:00</time></trkpt><trkpt lat="64.0736084" lon="-19.52398109"><ele>458.0</ele><time>2012-07-21T19:19:59.0000000+00:00</time></trkpt><trkpt lat="64.0736084" lon="-19.52378464"><ele>457.5</ele><time>2012-07-21T19:20:04.0000000+00:00</time></trkpt><trkpt lat="64.0736084" lon="-19.52359581"><ele>457.0</ele><time>2012-07-21T19:20:09.0000000+00:00</time></trkpt><trkpt lat="64.07360077" lon="-19.52342033"><ele>456.1</ele><time>2012-07-21T19:20:14.0000000+00:00</time></trkpt><trkpt lat="64.07360077" lon="-19.52326202"><ele>456.1</ele><time>2012-07-21T19:20:19.0000000+00:00</time></trkpt><trkpt lat="64.07360077" lon="-19.52308846"><ele>456.5</ele><time>2012-07-21T19:20:24.0000000+00:00</time></trkpt><trkpt lat="64.07359314" lon="-19.52291298"><ele>456.8</ele><time>2012-07-21T19:20:29.0000000+00:00</time></trkpt><trkpt lat="64.07359314" lon="-19.52271843"><ele>456.5</ele><time>2012-07-21T19:20:34.0000000+00:00</time></trkpt><trkpt lat="64.07358551" lon="-19.52251244"><ele>456.4</ele><time>2012-07-21T19:20:39.0000000+00:00</time></trkpt><trkpt lat="64.07359314" lon="-19.52235603"><ele>456.9</ele><time>2012-07-21T19:20:44.0000000+00:00</time></trkpt><trkpt lat="64.07358551" lon="-19.52213669"><ele>456.8</ele><time>2012-07-21T19:20:49.0000000+00:00</time></trkpt><trkpt lat="64.07357788" lon="-19.52189064"><ele>456.6</ele><time>2012-07-21T19:20:54.0000000+00:00</time></trkpt><trkpt lat="64.07357788" lon="-19.52165604"><ele>456.7</ele><time>2012-07-21T19:20:59.0000000+00:00</time></trkpt><trkpt lat="64.07357025" lon="-19.52143288"><ele>456.9</ele><time>2012-07-21T19:21:04.0000000+00:00</time></trkpt><trkpt lat="64.07355499" lon="-19.52119637"><ele>456.6</ele><time>2012-07-21T19:21:09.0000000+00:00</time></trkpt><trkpt lat="64.07354736" lon="-19.52097321"><ele>456.5</ele><time>2012-07-21T19:21:14.0000000+00:00</time></trkpt><trkpt lat="64.07354736" lon="-19.52079201"><ele>457.0</ele><time>2012-07-21T19:21:19.0000000+00:00</time></trkpt><trkpt lat="64.07353973" lon="-19.52066422"><ele>457.2</ele><time>2012-07-21T19:21:24.0000000+00:00</time></trkpt><trkpt lat="64.07353973" lon="-19.52050209"><ele>456.9</ele><time>2012-07-21T19:21:29.0000000+00:00</time></trkpt><trkpt lat="64.07352448" lon="-19.5203476"><ele>457.1</ele><time>2012-07-21T19:21:34.0000000+00:00</time></trkpt><trkpt lat="64.07352448" lon="-19.52019692"><ele>457.0</ele><time>2012-07-21T19:21:39.0000000+00:00</time></trkpt><trkpt lat="64.07352448" lon="-19.52007294"><ele>457.3</ele><time>2012-07-21T19:21:44.0000000+00:00</time></trkpt><trkpt lat="64.0735321" lon="-19.52009201"><ele>458.0</ele><time>2012-07-21T19:21:49.0000000+00:00</time></trkpt><trkpt lat="64.07350922" lon="-19.51999283"><ele>459.0</ele><time>2012-07-21T19:21:54.0000000+00:00</time></trkpt><trkpt lat="64.07349396" lon="-19.51986885"><ele>459.4</ele><time>2012-07-21T19:21:59.0000000+00:00</time></trkpt><trkpt lat="64.07349396" lon="-19.5197525"><ele>459.5</ele><time>2012-07-21T19:22:04.0000000+00:00</time></trkpt><trkpt lat="64.07350159" lon="-19.51961708"><ele>460.1</ele><time>2012-07-21T19:22:09.0000000+00:00</time></trkpt><trkpt lat="64.07350922" lon="-19.51947784"><ele>460.3</ele><time>2012-07-21T19:22:14.0000000+00:00</time></trkpt><trkpt lat="64.07351685" lon="-19.5193367"><ele>460.8</ele><time>2012-07-21T19:22:19.0000000+00:00</time></trkpt><trkpt lat="64.0735321" lon="-19.51918793"><ele>461.7</ele><time>2012-07-21T19:22:24.0000000+00:00</time></trkpt><trkpt lat="64.07353973" lon="-19.51905823"><ele>462.2</ele><time>2012-07-21T19:22:29.0000000+00:00</time></trkpt><trkpt lat="64.07354736" lon="-19.51894379"><ele>462.5</ele><time>2012-07-21T19:22:34.0000000+00:00</time></trkpt><trkpt lat="64.07354736" lon="-19.51881409"><ele>462.6</ele><time>2012-07-21T19:22:39.0000000+00:00</time></trkpt><trkpt lat="64.07355499" lon="-19.51868248"><ele>462.8</ele><time>2012-07-21T19:22:44.0000000+00:00</time></trkpt><trkpt lat="64.07355499" lon="-19.51856995"><ele>463.3</ele><time>2012-07-21T19:22:49.0000000+00:00</time></trkpt><trkpt lat="64.07355499" lon="-19.51853752"><ele>462.7</ele><time>2012-07-21T19:22:54.0000000+00:00</time></trkpt><trkpt lat="64.07355499" lon="-19.51853943"><ele>462.5</ele><time>2012-07-21T19:22:59.0000000+00:00</time></trkpt><trkpt lat="64.07355499" lon="-19.51853943"><ele>462.5</ele><time>2012-07-21T19:23:04.0000000+00:00</time></trkpt><trkpt lat="64.07355499" lon="-19.51853943"><ele>462.5</ele><time>2012-07-21T19:23:09.0000000+00:00</time></trkpt><trkpt lat="64.07356262" lon="-19.51844788"><ele>463.2</ele><time>2012-07-21T19:23:14.0000000+00:00</time></trkpt><trkpt lat="64.07357025" lon="-19.51832581"><ele>463.9</ele><time>2012-07-21T19:23:19.0000000+00:00</time></trkpt><trkpt lat="64.07357788" lon="-19.5181942"><ele>464.3</ele><time>2012-07-21T19:23:24.0000000+00:00</time></trkpt><trkpt lat="64.07359314" lon="-19.51804543"><ele>464.7</ele><time>2012-07-21T19:23:29.0000000+00:00</time></trkpt><trkpt lat="64.07361603" lon="-19.51790047"><ele>465.1</ele><time>2012-07-21T19:23:34.0000000+00:00</time></trkpt><trkpt lat="64.07364655" lon="-19.51774788"><ele>465.2</ele><time>2012-07-21T19:23:39.0000000+00:00</time></trkpt><trkpt lat="64.07366943" lon="-19.51761437"><ele>465.1</ele><time>2012-07-21T19:23:44.0000000+00:00</time></trkpt><trkpt lat="64.07367706" lon="-19.51752663"><ele>464.7</ele><time>2012-07-21T19:23:49.0000000+00:00</time></trkpt><trkpt lat="64.07369232" lon="-19.51741791"><ele>464.0</ele><time>2012-07-21T19:23:54.0000000+00:00</time></trkpt><trkpt lat="64.07371521" lon="-19.51717377"><ele>463.5</ele><time>2012-07-21T19:23:59.0000000+00:00</time></trkpt><trkpt lat="64.07371521" lon="-19.51698494"><ele>463.4</ele><time>2012-07-21T19:24:04.0000000+00:00</time></trkpt><trkpt lat="64.07371521" lon="-19.51680756"><ele>463.5</ele><time>2012-07-21T19:24:09.0000000+00:00</time></trkpt><trkpt lat="64.07373047" lon="-19.51662636"><ele>463.7</ele><time>2012-07-21T19:24:14.0000000+00:00</time></trkpt><trkpt lat="64.0737381" lon="-19.51648331"><ele>463.7</ele><time>2012-07-21T19:24:19.0000000+00:00</time></trkpt><trkpt lat="64.07373047" lon="-19.51634407"><ele>463.6</ele><time>2012-07-21T19:24:24.0000000+00:00</time></trkpt><trkpt lat="64.07375336" lon="-19.51618576"><ele>461.4</ele><time>2012-07-21T19:24:29.0000000+00:00</time></trkpt><trkpt lat="64.07376862" lon="-19.51601791"><ele>461.4</ele><time>2012-07-21T19:24:34.0000000+00:00</time></trkpt><trkpt lat="64.07376099" lon="-19.51586151"><ele>462.1</ele><time>2012-07-21T19:24:39.0000000+00:00</time></trkpt><trkpt lat="64.07376099" lon="-19.51566696"><ele>461.9</ele><time>2012-07-21T19:24:44.0000000+00:00</time></trkpt><trkpt lat="64.07376099" lon="-19.51550484"><ele>462.6</ele><time>2012-07-21T19:24:49.0000000+00:00</time></trkpt><trkpt lat="64.07374573" lon="-19.51545143"><ele>463.0</ele><time>2012-07-21T19:24:54.0000000+00:00</time></trkpt><trkpt lat="64.07374573" lon="-19.51545143"><ele>463.2</ele><time>2012-07-21T19:24:59.0000000+00:00</time></trkpt><trkpt lat="64.07374573" lon="-19.51545143"><ele>463.9</ele><time>2012-07-21T19:25:04.0000000+00:00</time></trkpt><trkpt lat="64.07376099" lon="-19.51540756"><ele>463.4</ele><time>2012-07-21T19:25:09.0000000+00:00</time></trkpt><trkpt lat="64.07376862" lon="-19.51529884"><ele>463.4</ele><time>2012-07-21T19:25:14.0000000+00:00</time></trkpt><trkpt lat="64.07377625" lon="-19.51518059"><ele>463.6</ele><time>2012-07-21T19:25:19.0000000+00:00</time></trkpt><trkpt lat="64.07378388" lon="-19.51509666"><ele>464.2</ele><time>2012-07-21T19:25:24.0000000+00:00</time></trkpt><trkpt lat="64.07377625" lon="-19.5150032"><ele>465.1</ele><time>2012-07-21T19:25:29.0000000+00:00</time></trkpt><trkpt lat="64.07376862" lon="-19.51489067"><ele>465.5</ele><time>2012-07-21T19:25:34.0000000+00:00</time></trkpt><trkpt lat="64.07376862" lon="-19.51477814"><ele>465.7</ele><time>2012-07-21T19:25:39.0000000+00:00</time></trkpt><trkpt lat="64.07376099" lon="-19.51467896"><ele>466.4</ele><time>2012-07-21T19:25:44.0000000+00:00</time></trkpt><trkpt lat="64.07376862" lon="-19.5145607"><ele>466.8</ele><time>2012-07-21T19:25:49.0000000+00:00</time></trkpt><trkpt lat="64.07377625" lon="-19.51442146"><ele>467.0</ele><time>2012-07-21T19:25:54.0000000+00:00</time></trkpt><trkpt lat="64.0737915" lon="-19.51428795"><ele>467.3</ele><time>2012-07-21T19:25:59.0000000+00:00</time></trkpt><trkpt lat="64.07381439" lon="-19.51415634"><ele>467.6</ele><time>2012-07-21T19:26:04.0000000+00:00</time></trkpt><trkpt lat="64.07383728" lon="-19.51401329"><ele>467.5</ele><time>2012-07-21T19:26:09.0000000+00:00</time></trkpt><trkpt lat="64.07384491" lon="-19.5138855"><ele>467.6</ele><time>2012-07-21T19:26:14.0000000+00:00</time></trkpt><trkpt lat="64.07385254" lon="-19.51376724"><ele>467.8</ele><time>2012-07-21T19:26:19.0000000+00:00</time></trkpt><trkpt lat="64.07386017" lon="-19.51372337"><ele>468.2</ele><time>2012-07-21T19:26:24.0000000+00:00</time></trkpt><trkpt lat="64.07387543" lon="-19.51361084"><ele>468.1</ele><time>2012-07-21T19:26:29.0000000+00:00</time></trkpt><trkpt lat="64.07388306" lon="-19.51346016"><ele>467.7</ele><time>2012-07-21T19:26:34.0000000+00:00</time></trkpt><trkpt lat="64.07389832" lon="-19.51332665"><ele>467.9</ele><time>2012-07-21T19:26:39.0000000+00:00</time></trkpt><trkpt lat="64.07389069" lon="-19.51321411"><ele>467.9</ele><time>2012-07-21T19:26:44.0000000+00:00</time></trkpt><trkpt lat="64.07389832" lon="-19.51306152"><ele>468.3</ele><time>2012-07-21T19:26:49.0000000+00:00</time></trkpt><trkpt lat="64.07391357" lon="-19.51291275"><ele>468.3</ele><time>2012-07-21T19:26:54.0000000+00:00</time></trkpt><trkpt lat="64.07393646" lon="-19.51277161"><ele>468.4</ele><time>2012-07-21T19:26:59.0000000+00:00</time></trkpt><trkpt lat="64.07396698" lon="-19.51264"><ele>468.3</ele><time>2012-07-21T19:27:04.0000000+00:00</time></trkpt><trkpt lat="64.07398224" lon="-19.51250267"><ele>468.3</ele><time>2012-07-21T19:27:09.0000000+00:00</time></trkpt><trkpt lat="64.0739975" lon="-19.51235771"><ele>468.0</ele><time>2012-07-21T19:27:14.0000000+00:00</time></trkpt><trkpt lat="64.07400513" lon="-19.5121994"><ele>468.2</ele><time>2012-07-21T19:27:19.0000000+00:00</time></trkpt><trkpt lat="64.07401276" lon="-19.51206207"><ele>468.5</ele><time>2012-07-21T19:27:24.0000000+00:00</time></trkpt><trkpt lat="64.07402039" lon="-19.51198769"><ele>469.0</ele><time>2012-07-21T19:27:29.0000000+00:00</time></trkpt><trkpt lat="64.07402039" lon="-19.51190567"><ele>468.9</ele><time>2012-07-21T19:27:34.0000000+00:00</time></trkpt><trkpt lat="64.07402802" lon="-19.51184464"><ele>469.1</ele><time>2012-07-21T19:27:39.0000000+00:00</time></trkpt><trkpt lat="64.07402802" lon="-19.51184273"><ele>469.2</ele><time>2012-07-21T19:27:44.0000000+00:00</time></trkpt><trkpt lat="64.07403565" lon="-19.51177788"><ele>469.6</ele><time>2012-07-21T19:27:49.0000000+00:00</time></trkpt><trkpt lat="64.0740509" lon="-19.51166153"><ele>469.9</ele><time>2012-07-21T19:27:54.0000000+00:00</time></trkpt><trkpt lat="64.07406616" lon="-19.51152992"><ele>470.0</ele><time>2012-07-21T19:27:59.0000000+00:00</time></trkpt><trkpt lat="64.07407379" lon="-19.51142502"><ele>470.0</ele><time>2012-07-21T19:28:04.0000000+00:00</time></trkpt><trkpt lat="64.07409668" lon="-19.5112915"><ele>469.9</ele><time>2012-07-21T19:28:09.0000000+00:00</time></trkpt><trkpt lat="64.07411957" lon="-19.51118088"><ele>469.5</ele><time>2012-07-21T19:28:14.0000000+00:00</time></trkpt><trkpt lat="64.07414246" lon="-19.51105309"><ele>469.6</ele><time>2012-07-21T19:28:19.0000000+00:00</time></trkpt><trkpt lat="64.07415772" lon="-19.51089668"><ele>469.9</ele><time>2012-07-21T19:28:24.0000000+00:00</time></trkpt><trkpt lat="64.07418823" lon="-19.51076317"><ele>470.1</ele><time>2012-07-21T19:28:29.0000000+00:00</time></trkpt><trkpt lat="64.07421875" lon="-19.51063538"><ele>469.8</ele><time>2012-07-21T19:28:34.0000000+00:00</time></trkpt><trkpt lat="64.07422638" lon="-19.51057816"><ele>469.6</ele><time>2012-07-21T19:28:39.0000000+00:00</time></trkpt><trkpt lat="64.07426453" lon="-19.51044464"><ele>469.1</ele><time>2012-07-21T19:28:44.0000000+00:00</time></trkpt><trkpt lat="64.07431793" lon="-19.51028252"><ele>468.7</ele><time>2012-07-21T19:28:49.0000000+00:00</time></trkpt><trkpt lat="64.07435608" lon="-19.51010323"><ele>468.5</ele><time>2012-07-21T19:28:54.0000000+00:00</time></trkpt><trkpt lat="64.07437897" lon="-19.50994873"><ele>468.6</ele><time>2012-07-21T19:28:59.0000000+00:00</time></trkpt><trkpt lat="64.07440186" lon="-19.50980187"><ele>468.3</ele><time>2012-07-21T19:29:04.0000000+00:00</time></trkpt><trkpt lat="64.07442474" lon="-19.50959396"><ele>468.2</ele><time>2012-07-21T19:29:09.0000000+00:00</time></trkpt><trkpt lat="64.07445526" lon="-19.50941086"><ele>468.3</ele><time>2012-07-21T19:29:14.0000000+00:00</time></trkpt><trkpt lat="64.07449341" lon="-19.50926018"><ele>468.2</ele><time>2012-07-21T19:29:19.0000000+00:00</time></trkpt><trkpt lat="64.07452393" lon="-19.50908852"><ele>468.5</ele><time>2012-07-21T19:29:24.0000000+00:00</time></trkpt><trkpt lat="64.07456207" lon="-19.50892067"><ele>468.3</ele><time>2012-07-21T19:29:29.0000000+00:00</time></trkpt><trkpt lat="64.07461548" lon="-19.5087738"><ele>468.0</ele><time>2012-07-21T19:29:34.0000000+00:00</time></trkpt><trkpt lat="64.07466888" lon="-19.50865173"><ele>468.3</ele><time>2012-07-21T19:29:39.0000000+00:00</time></trkpt><trkpt lat="64.07471466" lon="-19.50850487"><ele>468.7</ele><time>2012-07-21T19:29:44.0000000+00:00</time></trkpt><trkpt lat="64.07476044" lon="-19.50837135"><ele>469.0</ele><time>2012-07-21T19:29:49.0000000+00:00</time></trkpt><trkpt lat="64.07480621" lon="-19.50820923"><ele>469.6</ele><time>2012-07-21T19:29:54.0000000+00:00</time></trkpt><trkpt lat="64.07485199" lon="-19.50805855"><ele>469.9</ele><time>2012-07-21T19:29:59.0000000+00:00</time></trkpt><trkpt lat="64.07489777" lon="-19.50790405"><ele>470.0</ele><time>2012-07-21T19:30:04.0000000+00:00</time></trkpt><trkpt lat="64.07496643" lon="-19.50774002"><ele>469.5</ele><time>2012-07-21T19:30:09.0000000+00:00</time></trkpt><trkpt lat="64.07501221" lon="-19.50754929"><ele>469.4</ele><time>2012-07-21T19:30:14.0000000+00:00</time></trkpt><trkpt lat="64.07506561" lon="-19.50736618"><ele>468.5</ele><time>2012-07-21T19:30:19.0000000+00:00</time></trkpt><trkpt lat="64.07511902" lon="-19.50716209"><ele>468.2</ele><time>2012-07-21T19:30:24.0000000+00:00</time></trkpt><trkpt lat="64.0751648" lon="-19.50697517"><ele>468.6</ele><time>2012-07-21T19:30:29.0000000+00:00</time></trkpt><trkpt lat="64.07520294" lon="-19.50679207"><ele>468.6</ele><time>2012-07-21T19:30:34.0000000+00:00</time></trkpt><trkpt lat="64.07524872" lon="-19.50666618"><ele>468.3</ele><time>2012-07-21T19:30:39.0000000+00:00</time></trkpt><trkpt lat="64.07527161" lon="-19.50651932"><ele>468.7</ele><time>2012-07-21T19:30:44.0000000+00:00</time></trkpt><trkpt lat="64.07530975" lon="-19.50637436"><ele>469.2</ele><time>2012-07-21T19:30:49.0000000+00:00</time></trkpt><trkpt lat="64.0753479" lon="-19.50624275"><ele>469.3</ele><time>2012-07-21T19:30:54.0000000+00:00</time></trkpt><trkpt lat="64.07538605" lon="-19.5060997"><ele>468.7</ele><time>2012-07-21T19:30:59.0000000+00:00</time></trkpt><trkpt lat="64.07543182" lon="-19.50591278"><ele>468.6</ele><time>2012-07-21T19:31:04.0000000+00:00</time></trkpt><trkpt lat="64.0754776" lon="-19.50575066"><ele>468.4</ele><time>2012-07-21T19:31:09.0000000+00:00</time></trkpt><trkpt lat="64.07550812" lon="-19.50562096"><ele>468.5</ele><time>2012-07-21T19:31:14.0000000+00:00</time></trkpt><trkpt lat="64.07552338" lon="-19.50547981"><ele>469.4</ele><time>2012-07-21T19:31:19.0000000+00:00</time></trkpt><trkpt lat="64.07555389" lon="-19.5053215"><ele>469.4</ele><time>2012-07-21T19:31:24.0000000+00:00</time></trkpt><trkpt lat="64.07556152" lon="-19.50516892"><ele>469.8</ele><time>2012-07-21T19:31:29.0000000+00:00</time></trkpt><trkpt lat="64.07556152" lon="-19.50501061"><ele>469.6</ele><time>2012-07-21T19:31:34.0000000+00:00</time></trkpt><trkpt lat="64.07555389" lon="-19.50485802"><ele>469.8</ele><time>2012-07-21T19:31:39.0000000+00:00</time></trkpt><trkpt lat="64.07554627" lon="-19.50471687"><ele>469.5</ele><time>2012-07-21T19:31:44.0000000+00:00</time></trkpt><trkpt lat="64.07555389" lon="-19.50453186"><ele>470.5</ele><time>2012-07-21T19:31:49.0000000+00:00</time></trkpt><trkpt lat="64.07557678" lon="-19.50429535"><ele>470.1</ele><time>2012-07-21T19:31:54.0000000+00:00</time></trkpt><trkpt lat="64.07559967" lon="-19.50409508"><ele>470.7</ele><time>2012-07-21T19:31:59.0000000+00:00</time></trkpt><trkpt lat="64.07562256" lon="-19.50390434"><ele>471.0</ele><time>2012-07-21T19:32:04.0000000+00:00</time></trkpt><trkpt lat="64.07563782" lon="-19.50372696"><ele>471.5</ele><time>2012-07-21T19:32:09.0000000+00:00</time></trkpt><trkpt lat="64.07565308" lon="-19.50358009"><ele>471.8</ele><time>2012-07-21T19:32:14.0000000+00:00</time></trkpt><trkpt lat="64.07565308" lon="-19.50359345"><ele>472.0</ele><time>2012-07-21T19:32:19.0000000+00:00</time></trkpt><trkpt lat="64.07565308" lon="-19.50359345"><ele>472.0</ele><time>2012-07-21T19:32:24.0000000+00:00</time></trkpt><trkpt lat="64.07565308" lon="-19.50354004"><ele>472.7</ele><time>2012-07-21T19:32:29.0000000+00:00</time></trkpt><trkpt lat="64.07566071" lon="-19.50348854"><ele>473.9</ele><time>2012-07-21T19:32:34.0000000+00:00</time></trkpt><trkpt lat="64.07567596" lon="-19.50337601"><ele>474.4</ele><time>2012-07-21T19:32:39.0000000+00:00</time></trkpt><trkpt lat="64.07568359" lon="-19.50326538"><ele>474.5</ele><time>2012-07-21T19:32:44.0000000+00:00</time></trkpt><trkpt lat="64.07570648" lon="-19.50315285"><ele>474.7</ele><time>2012-07-21T19:32:49.0000000+00:00</time></trkpt><trkpt lat="64.07572174" lon="-19.5030098"><ele>474.8</ele><time>2012-07-21T19:32:54.0000000+00:00</time></trkpt><trkpt lat="64.07574463" lon="-19.50289917"><ele>475.2</ele><time>2012-07-21T19:32:59.0000000+00:00</time></trkpt><trkpt lat="64.07578278" lon="-19.50277138"><ele>475.0</ele><time>2012-07-21T19:33:04.0000000+00:00</time></trkpt><trkpt lat="64.07581329" lon="-19.50265312"><ele>474.8</ele><time>2012-07-21T19:33:09.0000000+00:00</time></trkpt><trkpt lat="64.07583618" lon="-19.50252533"><ele>474.9</ele><time>2012-07-21T19:33:14.0000000+00:00</time></trkpt><trkpt lat="64.07587433" lon="-19.50239945"><ele>474.3</ele><time>2012-07-21T19:33:19.0000000+00:00</time></trkpt><trkpt lat="64.07590485" lon="-19.50230408"><ele>474.8</ele><time>2012-07-21T19:33:24.0000000+00:00</time></trkpt><trkpt lat="64.07592011" lon="-19.50226593"><ele>474.7</ele><time>2012-07-21T19:33:29.0000000+00:00</time></trkpt><trkpt lat="64.07596588" lon="-19.50211334"><ele>474.1</ele><time>2012-07-21T19:33:34.0000000+00:00</time></trkpt><trkpt lat="64.07603455" lon="-19.5019474"><ele>474.2</ele><time>2012-07-21T19:33:39.0000000+00:00</time></trkpt><trkpt lat="64.07611847" lon="-19.50176239"><ele>473.7</ele><time>2012-07-21T19:33:44.0000000+00:00</time></trkpt><trkpt lat="64.07621765" lon="-19.50158501"><ele>472.4</ele><time>2012-07-21T19:33:49.0000000+00:00</time></trkpt><trkpt lat="64.07636261" lon="-19.50132942"><ele>470.9</ele><time>2012-07-21T19:33:54.0000000+00:00</time></trkpt><trkpt lat="64.07647705" lon="-19.50110245"><ele>470.8</ele><time>2012-07-21T19:33:59.0000000+00:00</time></trkpt><trkpt lat="64.07656097" lon="-19.50095367"><ele>470.9</ele><time>2012-07-21T19:34:04.0000000+00:00</time></trkpt><trkpt lat="64.0766449" lon="-19.50081253"><ele>470.5</ele><time>2012-07-21T19:34:09.0000000+00:00</time></trkpt><trkpt lat="64.07672119" lon="-19.50066185"><ele>470.3</ele><time>2012-07-21T19:34:14.0000000+00:00</time></trkpt><trkpt lat="64.07681274" lon="-19.50058746"><ele>470.0</ele><time>2012-07-21T19:34:19.0000000+00:00</time></trkpt><trkpt lat="64.0769043" lon="-19.50043106"><ele>469.9</ele><time>2012-07-21T19:34:24.0000000+00:00</time></trkpt><trkpt lat="64.07699585" lon="-19.50026703"><ele>470.1</ele><time>2012-07-21T19:34:29.0000000+00:00</time></trkpt><trkpt lat="64.07707977" lon="-19.5001049"><ele>470.0</ele><time>2012-07-21T19:34:34.0000000+00:00</time></trkpt><trkpt lat="64.0771637" lon="-19.49994469"><ele>470.1</ele><time>2012-07-21T19:34:39.0000000+00:00</time></trkpt><trkpt lat="64.07723236" lon="-19.4997673"><ele>469.9</ele><time>2012-07-21T19:34:44.0000000+00:00</time></trkpt><trkpt lat="64.07728577" lon="-19.49959564"><ele>470.2</ele><time>2012-07-21T19:34:49.0000000+00:00</time></trkpt><trkpt lat="64.07730103" lon="-19.49953842"><ele>470.1</ele><time>2012-07-21T19:34:54.0000000+00:00</time></trkpt><trkpt lat="64.07730103" lon="-19.49954033"><ele>470.1</ele><time>2012-07-21T19:34:59.0000000+00:00</time></trkpt><trkpt lat="64.07730103" lon="-19.49954033"><ele>470.1</ele><time>2012-07-21T19:35:04.0000000+00:00</time></trkpt><trkpt lat="64.07730103" lon="-19.49954033"><ele>470.1</ele><time>2012-07-21T19:35:09.0000000+00:00</time></trkpt><trkpt lat="64.07730103" lon="-19.49953842"><ele>470.1</ele><time>2012-07-21T19:35:14.0000000+00:00</time></trkpt><trkpt lat="64.07730103" lon="-19.49953842"><ele>470.1</ele><time>2012-07-21T19:35:19.0000000+00:00</time></trkpt><trkpt lat="64.07730103" lon="-19.49953842"><ele>470.1</ele><time>2012-07-21T19:35:24.0000000+00:00</time></trkpt><trkpt lat="64.07730103" lon="-19.49953842"><ele>470.1</ele><time>2012-07-21T19:35:29.0000000+00:00</time></trkpt><trkpt lat="64.07730103" lon="-19.49953842"><ele>470.0</ele><time>2012-07-21T19:35:34.0000000+00:00</time></trkpt><trkpt lat="64.07730103" lon="-19.49953842"><ele>470.0</ele><time>2012-07-21T19:35:39.0000000+00:00</time></trkpt><trkpt lat="64.07730103" lon="-19.49953842"><ele>470.0</ele><time>2012-07-21T19:35:44.0000000+00:00</time></trkpt><trkpt lat="64.07730103" lon="-19.49953842"><ele>470.0</ele><time>2012-07-21T19:35:49.0000000+00:00</time></trkpt><trkpt lat="64.07730103" lon="-19.49953842"><ele>470.0</ele><time>2012-07-21T19:35:54.0000000+00:00</time></trkpt><trkpt lat="64.07730103" lon="-19.49953842"><ele>470.0</ele><time>2012-07-21T19:35:59.0000000+00:00</time></trkpt><trkpt lat="64.07730866" lon="-19.49948692"><ele>470.1</ele><time>2012-07-21T19:36:04.0000000+00:00</time></trkpt><trkpt lat="64.07733917" lon="-19.49928856"><ele>470.2</ele><time>2012-07-21T19:36:09.0000000+00:00</time></trkpt><trkpt lat="64.07733154" lon="-19.49905777"><ele>470.0</ele><time>2012-07-21T19:36:14.0000000+00:00</time></trkpt><trkpt lat="64.07730866" lon="-19.49885178"><ele>470.3</ele><time>2012-07-21T19:36:19.0000000+00:00</time></trkpt><trkpt lat="64.07727814" lon="-19.49863434"><ele>470.7</ele><time>2012-07-21T19:36:24.0000000+00:00</time></trkpt><trkpt lat="64.07723999" lon="-19.49842835"><ele>471.1</ele><time>2012-07-21T19:36:29.0000000+00:00</time></trkpt><trkpt lat="64.07720184" lon="-19.49822617"><ele>471.5</ele><time>2012-07-21T19:36:34.0000000+00:00</time></trkpt><trkpt lat="64.07717896" lon="-19.4980545"><ele>471.4</ele><time>2012-07-21T19:36:39.0000000+00:00</time></trkpt><trkpt lat="64.0771637" lon="-19.49787521"><ele>471.5</ele><time>2012-07-21T19:36:44.0000000+00:00</time></trkpt><trkpt lat="64.07712555" lon="-19.49771309"><ele>471.3</ele><time>2012-07-21T19:36:49.0000000+00:00</time></trkpt><trkpt lat="64.0770874" lon="-19.49754715"><ele>470.8</ele><time>2012-07-21T19:36:54.0000000+00:00</time></trkpt><trkpt lat="64.07705689" lon="-19.4973774"><ele>470.9</ele><time>2012-07-21T19:36:59.0000000+00:00</time></trkpt><trkpt lat="64.077034" lon="-19.49719811"><ele>470.6</ele><time>2012-07-21T19:37:04.0000000+00:00</time></trkpt><trkpt lat="64.07701111" lon="-19.49703789"><ele>470.4</ele><time>2012-07-21T19:37:09.0000000+00:00</time></trkpt><trkpt lat="64.07698059" lon="-19.49685288"><ele>470.7</ele><time>2012-07-21T19:37:14.0000000+00:00</time></trkpt><trkpt lat="64.07695007" lon="-19.49668312"><ele>470.7</ele><time>2012-07-21T19:37:19.0000000+00:00</time></trkpt><trkpt lat="64.07692719" lon="-19.49652481"><ele>470.7</ele><time>2012-07-21T19:37:24.0000000+00:00</time></trkpt><trkpt lat="64.0769043" lon="-19.49636459"><ele>470.4</ele><time>2012-07-21T19:37:29.0000000+00:00</time></trkpt><trkpt lat="64.07686615" lon="-19.49620247"><ele>470.3</ele><time>2012-07-21T19:37:34.0000000+00:00</time></trkpt><trkpt lat="64.07684326" lon="-19.49602699"><ele>470.9</ele><time>2012-07-21T19:37:39.0000000+00:00</time></trkpt><trkpt lat="64.07682037" lon="-19.49586296"><ele>471.2</ele><time>2012-07-21T19:37:44.0000000+00:00</time></trkpt><trkpt lat="64.07678986" lon="-19.49568939"><ele>471.2</ele><time>2012-07-21T19:37:49.0000000+00:00</time></trkpt><trkpt lat="64.07675934" lon="-19.49553299"><ele>471.1</ele><time>2012-07-21T19:37:54.0000000+00:00</time></trkpt><trkpt lat="64.07674408" lon="-19.49536324"><ele>471.9</ele><time>2012-07-21T19:37:59.0000000+00:00</time></trkpt><trkpt lat="64.07671356" lon="-19.49521637"><ele>472.2</ele><time>2012-07-21T19:38:04.0000000+00:00</time></trkpt><trkpt lat="64.07669067" lon="-19.49509239"><ele>471.9</ele><time>2012-07-21T19:38:09.0000000+00:00</time></trkpt><trkpt lat="64.07666016" lon="-19.49491692"><ele>472.1</ele><time>2012-07-21T19:38:14.0000000+00:00</time></trkpt><trkpt lat="64.07662964" lon="-19.49474335"><ele>471.9</ele><time>2012-07-21T19:38:19.0000000+00:00</time></trkpt><trkpt lat="64.07660675" lon="-19.4946537"><ele>472.2</ele><time>2012-07-21T19:38:24.0000000+00:00</time></trkpt><trkpt lat="64.07660675" lon="-19.49465179"><ele>471.6</ele><time>2012-07-21T19:38:29.0000000+00:00</time></trkpt><trkpt lat="64.07658386" lon="-19.49456215"><ele>471.8</ele><time>2012-07-21T19:38:34.0000000+00:00</time></trkpt><trkpt lat="64.07656097" lon="-19.49445343"><ele>472.2</ele><time>2012-07-21T19:38:39.0000000+00:00</time></trkpt><trkpt lat="64.07654572" lon="-19.49435043"><ele>472.3</ele><time>2012-07-21T19:38:44.0000000+00:00</time></trkpt><trkpt lat="64.07653046" lon="-19.4942646"><ele>472.3</ele><time>2012-07-21T19:38:49.0000000+00:00</time></trkpt><trkpt lat="64.07652283" lon="-19.49427223"><ele>472.5</ele><time>2012-07-21T19:38:54.0000000+00:00</time></trkpt><trkpt lat="64.07653046" lon="-19.49419975"><ele>472.8</ele><time>2012-07-21T19:38:59.0000000+00:00</time></trkpt><trkpt lat="64.07649994" lon="-19.4940815"><ele>473.1</ele><time>2012-07-21T19:39:04.0000000+00:00</time></trkpt><trkpt lat="64.07647705" lon="-19.49394608"><ele>473.0</ele><time>2012-07-21T19:39:09.0000000+00:00</time></trkpt><trkpt lat="64.07646179" lon="-19.49381447"><ele>472.6</ele><time>2012-07-21T19:39:14.0000000+00:00</time></trkpt><trkpt lat="64.0764389" lon="-19.49367714"><ele>472.2</ele><time>2012-07-21T19:39:19.0000000+00:00</time></trkpt><trkpt lat="64.07641602" lon="-19.49352264"><ele>473.2</ele><time>2012-07-21T19:39:24.0000000+00:00</time></trkpt><trkpt lat="64.07641602" lon="-19.49341583"><ele>473.2</ele><time>2012-07-21T19:39:29.0000000+00:00</time></trkpt><trkpt lat="64.07639313" lon="-19.49314308"><ele>472.9</ele><time>2012-07-21T19:39:34.0000000+00:00</time></trkpt><trkpt lat="64.07637024" lon="-19.49287224"><ele>473.8</ele><time>2012-07-21T19:39:39.0000000+00:00</time></trkpt><trkpt lat="64.07635498" lon="-19.49269486"><ele>474.2</ele><time>2012-07-21T19:39:44.0000000+00:00</time></trkpt><trkpt lat="64.07633972" lon="-19.4925251"><ele>474.7</ele><time>2012-07-21T19:39:49.0000000+00:00</time></trkpt><trkpt lat="64.07633209" lon="-19.49233246"><ele>474.8</ele><time>2012-07-21T19:39:54.0000000+00:00</time></trkpt><trkpt lat="64.0763092" lon="-19.49217987"><ele>475.5</ele><time>2012-07-21T19:39:59.0000000+00:00</time></trkpt><trkpt lat="64.0763092" lon="-19.49203491"><ele>474.9</ele><time>2012-07-21T19:40:04.0000000+00:00</time></trkpt><trkpt lat="64.07629395" lon="-19.49186516"><ele>475.8</ele><time>2012-07-21T19:40:09.0000000+00:00</time></trkpt><trkpt lat="64.07629395" lon="-19.49172211"><ele>476.3</ele><time>2012-07-21T19:40:14.0000000+00:00</time></trkpt><trkpt lat="64.07628632" lon="-19.49157143"><ele>476.3</ele><time>2012-07-21T19:40:19.0000000+00:00</time></trkpt><trkpt lat="64.07630158" lon="-19.4914341"><ele>476.2</ele><time>2012-07-21T19:40:24.0000000+00:00</time></trkpt><trkpt lat="64.07629395" lon="-19.49126053"><ele>476.3</ele><time>2012-07-21T19:40:29.0000000+00:00</time></trkpt><trkpt lat="64.07630158" lon="-19.49107742"><ele>476.6</ele><time>2012-07-21T19:40:34.0000000+00:00</time></trkpt><trkpt lat="64.07631683" lon="-19.49088287"><ele>477.1</ele><time>2012-07-21T19:40:39.0000000+00:00</time></trkpt><trkpt lat="64.07632446" lon="-19.49075508"><ele>476.5</ele><time>2012-07-21T19:40:44.0000000+00:00</time></trkpt><trkpt lat="64.07634735" lon="-19.49057961"><ele>475.3</ele><time>2012-07-21T19:40:49.0000000+00:00</time></trkpt><trkpt lat="64.07634735" lon="-19.49040985"><ele>474.9</ele><time>2012-07-21T19:40:54.0000000+00:00</time></trkpt><trkpt lat="64.07633209" lon="-19.49024391"><ele>474.7</ele><time>2012-07-21T19:40:59.0000000+00:00</time></trkpt><trkpt lat="64.07631683" lon="-19.49009132"><ele>475.4</ele><time>2012-07-21T19:41:04.0000000+00:00</time></trkpt><trkpt lat="64.07628632" lon="-19.48997307"><ele>475.0</ele><time>2012-07-21T19:41:09.0000000+00:00</time></trkpt><trkpt lat="64.07626343" lon="-19.48983765"><ele>475.9</ele><time>2012-07-21T19:41:14.0000000+00:00</time></trkpt><trkpt lat="64.07623291" lon="-19.48968697"><ele>477.6</ele><time>2012-07-21T19:41:19.0000000+00:00</time></trkpt><trkpt lat="64.07620239" lon="-19.48952866"><ele>478.6</ele><time>2012-07-21T19:41:24.0000000+00:00</time></trkpt><trkpt lat="64.07617188" lon="-19.48936653"><ele>479.8</ele><time>2012-07-21T19:41:29.0000000+00:00</time></trkpt><trkpt lat="64.07614899" lon="-19.48924446"><ele>479.1</ele><time>2012-07-21T19:41:34.0000000+00:00</time></trkpt><trkpt lat="64.0761261" lon="-19.48910523"><ele>479.2</ele><time>2012-07-21T19:41:39.0000000+00:00</time></trkpt><trkpt lat="64.07609558" lon="-19.48896599"><ele>480.1</ele><time>2012-07-21T19:41:44.0000000+00:00</time></trkpt><trkpt lat="64.07607269" lon="-19.48882866"><ele>479.8</ele><time>2012-07-21T19:41:49.0000000+00:00</time></trkpt><trkpt lat="64.07605743" lon="-19.48867416"><ele>481.0</ele><time>2012-07-21T19:41:54.0000000+00:00</time></trkpt><trkpt lat="64.07601929" lon="-19.48848724"><ele>482.3</ele><time>2012-07-21T19:41:59.0000000+00:00</time></trkpt><trkpt lat="64.07598877" lon="-19.48830795"><ele>482.1</ele><time>2012-07-21T19:42:04.0000000+00:00</time></trkpt><trkpt lat="64.07597351" lon="-19.48816299"><ele>482.9</ele><time>2012-07-21T19:42:09.0000000+00:00</time></trkpt><trkpt lat="64.07595825" lon="-19.48801231"><ele>483.3</ele><time>2012-07-21T19:42:14.0000000+00:00</time></trkpt><trkpt lat="64.07594299" lon="-19.48784638"><ele>482.7</ele><time>2012-07-21T19:42:19.0000000+00:00</time></trkpt><trkpt lat="64.07592011" lon="-19.48768616"><ele>483.6</ele><time>2012-07-21T19:42:24.0000000+00:00</time></trkpt><trkpt lat="64.07590485" lon="-19.48750687"><ele>484.1</ele><time>2012-07-21T19:42:29.0000000+00:00</time></trkpt><trkpt lat="64.07588196" lon="-19.48733139"><ele>484.6</ele><time>2012-07-21T19:42:34.0000000+00:00</time></trkpt><trkpt lat="64.0758667" lon="-19.4871769"><ele>485.5</ele><time>2012-07-21T19:42:39.0000000+00:00</time></trkpt><trkpt lat="64.07584381" lon="-19.48701477"><ele>484.9</ele><time>2012-07-21T19:42:44.0000000+00:00</time></trkpt><trkpt lat="64.07582855" lon="-19.48685455"><ele>484.7</ele><time>2012-07-21T19:42:49.0000000+00:00</time></trkpt><trkpt lat="64.07580566" lon="-19.48671341"><ele>484.7</ele><time>2012-07-21T19:42:54.0000000+00:00</time></trkpt><trkpt lat="64.07578278" lon="-19.48655891"><ele>485.0</ele><time>2012-07-21T19:42:59.0000000+00:00</time></trkpt><trkpt lat="64.07575989" lon="-19.48641205"><ele>484.1</ele><time>2012-07-21T19:43:04.0000000+00:00</time></trkpt><trkpt lat="64.075737" lon="-19.48623657"><ele>484.3</ele><time>2012-07-21T19:43:09.0000000+00:00</time></trkpt><trkpt lat="64.07571411" lon="-19.48607445"><ele>484.7</ele><time>2012-07-21T19:43:14.0000000+00:00</time></trkpt><trkpt lat="64.07569122" lon="-19.48591995"><ele>485.4</ele><time>2012-07-21T19:43:19.0000000+00:00</time></trkpt><trkpt lat="64.07566071" lon="-19.48575592"><ele>485.0</ele><time>2012-07-21T19:43:24.0000000+00:00</time></trkpt><trkpt lat="64.07563782" lon="-19.48560906"><ele>484.8</ele><time>2012-07-21T19:43:29.0000000+00:00</time></trkpt><trkpt lat="64.07561493" lon="-19.48542023"><ele>485.3</ele><time>2012-07-21T19:43:34.0000000+00:00</time></trkpt><trkpt lat="64.07559204" lon="-19.48524666"><ele>484.9</ele><time>2012-07-21T19:43:39.0000000+00:00</time></trkpt><trkpt lat="64.07556915" lon="-19.48512077"><ele>484.8</ele><time>2012-07-21T19:43:44.0000000+00:00</time></trkpt><trkpt lat="64.07554627" lon="-19.48494148"><ele>484.3</ele><time>2012-07-21T19:43:49.0000000+00:00</time></trkpt><trkpt lat="64.07552338" lon="-19.48476982"><ele>483.7</ele><time>2012-07-21T19:43:54.0000000+00:00</time></trkpt><trkpt lat="64.07550049" lon="-19.48462677"><ele>483.8</ele><time>2012-07-21T19:43:59.0000000+00:00</time></trkpt><trkpt lat="64.0754776" lon="-19.48446846"><ele>483.7</ele><time>2012-07-21T19:44:04.0000000+00:00</time></trkpt><trkpt lat="64.07545471" lon="-19.48432159"><ele>483.8</ele><time>2012-07-21T19:44:09.0000000+00:00</time></trkpt><trkpt lat="64.07543945" lon="-19.48418427"><ele>484.2</ele><time>2012-07-21T19:44:14.0000000+00:00</time></trkpt><trkpt lat="64.07540894" lon="-19.4840126"><ele>484.4</ele><time>2012-07-21T19:44:19.0000000+00:00</time></trkpt><trkpt lat="64.07539368" lon="-19.48382759"><ele>484.4</ele><time>2012-07-21T19:44:24.0000000+00:00</time></trkpt><trkpt lat="64.07536316" lon="-19.48363876"><ele>484.7</ele><time>2012-07-21T19:44:29.0000000+00:00</time></trkpt><trkpt lat="64.07533264" lon="-19.48347664"><ele>484.7</ele><time>2012-07-21T19:44:34.0000000+00:00</time></trkpt><trkpt lat="64.07531738" lon="-19.4834156"><ele>484.0</ele><time>2012-07-21T19:44:39.0000000+00:00</time></trkpt><trkpt lat="64.07531738" lon="-19.4834156"><ele>483.8</ele><time>2012-07-21T19:44:44.0000000+00:00</time></trkpt><trkpt lat="64.07530975" lon="-19.48341751"><ele>483.8</ele><time>2012-07-21T19:44:49.0000000+00:00</time></trkpt><trkpt lat="64.07530212" lon="-19.48335075"><ele>483.5</ele><time>2012-07-21T19:44:54.0000000+00:00</time></trkpt><trkpt lat="64.07527161" lon="-19.48318291"><ele>483.2</ele><time>2012-07-21T19:44:59.0000000+00:00</time></trkpt><trkpt lat="64.07524109" lon="-19.48301315"><ele>482.9</ele><time>2012-07-21T19:45:04.0000000+00:00</time></trkpt><trkpt lat="64.0752182" lon="-19.48287201"><ele>482.9</ele><time>2012-07-21T19:45:09.0000000+00:00</time></trkpt><trkpt lat="64.07518005" lon="-19.48269081"><ele>482.6</ele><time>2012-07-21T19:45:14.0000000+00:00</time></trkpt><trkpt lat="64.07514191" lon="-19.4825058"><ele>482.6</ele><time>2012-07-21T19:45:19.0000000+00:00</time></trkpt><trkpt lat="64.07510376" lon="-19.48230743"><ele>482.9</ele><time>2012-07-21T19:45:24.0000000+00:00</time></trkpt><trkpt lat="64.07506561" lon="-19.48212624"><ele>483.0</ele><time>2012-07-21T19:45:29.0000000+00:00</time></trkpt><trkpt lat="64.07502747" lon="-19.4819622"><ele>483.1</ele><time>2012-07-21T19:45:34.0000000+00:00</time></trkpt><trkpt lat="64.07497406" lon="-19.48176193"><ele>482.7</ele><time>2012-07-21T19:45:39.0000000+00:00</time></trkpt><trkpt lat="64.07492828" lon="-19.4815445"><ele>482.5</ele><time>2012-07-21T19:45:44.0000000+00:00</time></trkpt><trkpt lat="64.07487488" lon="-19.48132706"><ele>482.4</ele><time>2012-07-21T19:45:49.0000000+00:00</time></trkpt><trkpt lat="64.07482147" lon="-19.48111725"><ele>482.5</ele><time>2012-07-21T19:45:54.0000000+00:00</time></trkpt><trkpt lat="64.07478333" lon="-19.48096085"><ele>482.7</ele><time>2012-07-21T19:45:59.0000000+00:00</time></trkpt><trkpt lat="64.07472992" lon="-19.48076439"><ele>482.9</ele><time>2012-07-21T19:46:04.0000000+00:00</time></trkpt><trkpt lat="64.07468414" lon="-19.48057175"><ele>482.7</ele><time>2012-07-21T19:46:09.0000000+00:00</time></trkpt><trkpt lat="64.074646" lon="-19.48043251"><ele>482.5</ele><time>2012-07-21T19:46:14.0000000+00:00</time></trkpt><trkpt lat="64.07459259" lon="-19.48023605"><ele>482.4</ele><time>2012-07-21T19:46:19.0000000+00:00</time></trkpt><trkpt lat="64.07453919" lon="-19.48004532"><ele>482.5</ele><time>2012-07-21T19:46:24.0000000+00:00</time></trkpt><trkpt lat="64.07448578" lon="-19.4798317"><ele>482.9</ele><time>2012-07-21T19:46:29.0000000+00:00</time></trkpt><trkpt lat="64.07447815" lon="-19.47978783"><ele>482.6</ele><time>2012-07-21T19:46:34.0000000+00:00</time></trkpt><trkpt lat="64.07444763" lon="-19.47971344"><ele>482.6</ele><time>2012-07-21T19:46:39.0000000+00:00</time></trkpt><trkpt lat="64.07439423" lon="-19.47952461"><ele>482.9</ele><time>2012-07-21T19:46:44.0000000+00:00</time></trkpt><trkpt lat="64.07433319" lon="-19.47932243"><ele>485.3</ele><time>2012-07-21T19:46:49.0000000+00:00</time></trkpt><trkpt lat="64.07427979" lon="-19.47915077"><ele>485.8</ele><time>2012-07-21T19:46:54.0000000+00:00</time></trkpt><trkpt lat="64.07421875" lon="-19.47897148"><ele>485.8</ele><time>2012-07-21T19:46:59.0000000+00:00</time></trkpt><trkpt lat="64.07415772" lon="-19.47880173"><ele>485.9</ele><time>2012-07-21T19:47:04.0000000+00:00</time></trkpt><trkpt lat="64.07411194" lon="-19.47865295"><ele>486.0</ele><time>2012-07-21T19:47:09.0000000+00:00</time></trkpt><trkpt lat="64.07410431" lon="-19.47863388"><ele>486.3</ele><time>2012-07-21T19:47:14.0000000+00:00</time></trkpt><trkpt lat="64.07409668" lon="-19.47863007"><ele>485.2</ele><time>2012-07-21T19:47:19.0000000+00:00</time></trkpt><trkpt lat="64.07409668" lon="-19.47863197"><ele>485.0</ele><time>2012-07-21T19:47:24.0000000+00:00</time></trkpt><trkpt lat="64.07409668" lon="-19.47863197"><ele>484.9</ele><time>2012-07-21T19:47:29.0000000+00:00</time></trkpt><trkpt lat="64.07406616" lon="-19.47858429"><ele>485.0</ele><time>2012-07-21T19:47:34.0000000+00:00</time></trkpt><trkpt lat="64.07403565" lon="-19.47851944"><ele>485.0</ele><time>2012-07-21T19:47:39.0000000+00:00</time></trkpt><trkpt lat="64.07400513" lon="-19.47841454"><ele>484.6</ele><time>2012-07-21T19:47:44.0000000+00:00</time></trkpt><trkpt lat="64.07396698" lon="-19.47831154"><ele>485.0</ele><time>2012-07-21T19:47:49.0000000+00:00</time></trkpt><trkpt lat="64.07392883" lon="-19.47821617"><ele>485.1</ele><time>2012-07-21T19:47:54.0000000+00:00</time></trkpt><trkpt lat="64.07389832" lon="-19.47810936"><ele>485.3</ele><time>2012-07-21T19:47:59.0000000+00:00</time></trkpt><trkpt lat="64.07386017" lon="-19.47801399"><ele>484.9</ele><time>2012-07-21T19:48:04.0000000+00:00</time></trkpt><trkpt lat="64.07382965" lon="-19.47791481"><ele>484.4</ele><time>2012-07-21T19:48:09.0000000+00:00</time></trkpt><trkpt lat="64.07381439" lon="-19.47785759"><ele>484.8</ele><time>2012-07-21T19:48:14.0000000+00:00</time></trkpt><trkpt lat="64.07379913" lon="-19.47777748"><ele>484.4</ele><time>2012-07-21T19:48:19.0000000+00:00</time></trkpt><trkpt lat="64.07379913" lon="-19.47778511"><ele>484.5</ele><time>2012-07-21T19:48:24.0000000+00:00</time></trkpt><trkpt lat="64.07379913" lon="-19.47778511"><ele>484.5</ele><time>2012-07-21T19:48:29.0000000+00:00</time></trkpt><trkpt lat="64.07379913" lon="-19.47777748"><ele>484.6</ele><time>2012-07-21T19:48:34.0000000+00:00</time></trkpt><trkpt lat="64.07376862" lon="-19.47765732"><ele>484.3</ele><time>2012-07-21T19:48:39.0000000+00:00</time></trkpt><trkpt lat="64.07373047" lon="-19.47753143"><ele>483.8</ele><time>2012-07-21T19:48:44.0000000+00:00</time></trkpt><trkpt lat="64.07369232" lon="-19.47741509"><ele>482.7</ele><time>2012-07-21T19:48:49.0000000+00:00</time></trkpt><trkpt lat="64.07366943" lon="-19.4772892"><ele>482.4</ele><time>2012-07-21T19:48:54.0000000+00:00</time></trkpt><trkpt lat="64.07363892" lon="-19.47717094"><ele>482.1</ele><time>2012-07-21T19:48:59.0000000+00:00</time></trkpt><trkpt lat="64.07361603" lon="-19.47704315"><ele>481.8</ele><time>2012-07-21T19:49:04.0000000+00:00</time></trkpt><trkpt lat="64.07360077" lon="-19.47694206"><ele>481.7</ele><time>2012-07-21T19:49:09.0000000+00:00</time></trkpt><trkpt lat="64.07358551" lon="-19.47683144"><ele>481.9</ele><time>2012-07-21T19:49:14.0000000+00:00</time></trkpt><trkpt lat="64.07357025" lon="-19.4766922"><ele>482.0</ele><time>2012-07-21T19:49:19.0000000+00:00</time></trkpt><trkpt lat="64.07357025" lon="-19.4765625"><ele>482.4</ele><time>2012-07-21T19:49:24.0000000+00:00</time></trkpt><trkpt lat="64.07355499" lon="-19.47643471"><ele>482.6</ele><time>2012-07-21T19:49:29.0000000+00:00</time></trkpt><trkpt lat="64.07354736" lon="-19.47631836"><ele>483.2</ele><time>2012-07-21T19:49:34.0000000+00:00</time></trkpt><trkpt lat="64.0735321" lon="-19.47618485"><ele>484.2</ele><time>2012-07-21T19:49:39.0000000+00:00</time></trkpt><trkpt lat="64.07352448" lon="-19.47606087"><ele>484.6</ele><time>2012-07-21T19:49:44.0000000+00:00</time></trkpt><trkpt lat="64.07351685" lon="-19.47593689"><ele>484.5</ele><time>2012-07-21T19:49:49.0000000+00:00</time></trkpt><trkpt lat="64.07350159" lon="-19.47582817"><ele>484.9</ele><time>2012-07-21T19:49:54.0000000+00:00</time></trkpt><trkpt lat="64.07348633" lon="-19.4757309"><ele>484.0</ele><time>2012-07-21T19:49:59.0000000+00:00</time></trkpt><trkpt lat="64.07348633" lon="-19.47558785"><ele>484.2</ele><time>2012-07-21T19:50:04.0000000+00:00</time></trkpt><trkpt lat="64.07347107" lon="-19.47544861"><ele>484.8</ele><time>2012-07-21T19:50:09.0000000+00:00</time></trkpt><trkpt lat="64.07347107" lon="-19.475317"><ele>484.9</ele><time>2012-07-21T19:50:14.0000000+00:00</time></trkpt><trkpt lat="64.07346344" lon="-19.47517586"><ele>484.2</ele><time>2012-07-21T19:50:19.0000000+00:00</time></trkpt><trkpt lat="64.07345581" lon="-19.47502518"><ele>484.6</ele><time>2012-07-21T19:50:24.0000000+00:00</time></trkpt><trkpt lat="64.07345581" lon="-19.474926"><ele>485.0</ele><time>2012-07-21T19:50:29.0000000+00:00</time></trkpt><trkpt lat="64.07344818" lon="-19.47477531"><ele>485.1</ele><time>2012-07-21T19:50:34.0000000+00:00</time></trkpt><trkpt lat="64.07343292" lon="-19.47461891"><ele>486.3</ele><time>2012-07-21T19:50:39.0000000+00:00</time></trkpt><trkpt lat="64.07343292" lon="-19.47444916"><ele>485.9</ele><time>2012-07-21T19:50:44.0000000+00:00</time></trkpt><trkpt lat="64.07342529" lon="-19.47425652"><ele>486.7</ele><time>2012-07-21T19:50:49.0000000+00:00</time></trkpt><trkpt lat="64.07342529" lon="-19.47407913"><ele>486.6</ele><time>2012-07-21T19:50:54.0000000+00:00</time></trkpt><trkpt lat="64.07342529" lon="-19.47389412"><ele>486.4</ele><time>2012-07-21T19:50:59.0000000+00:00</time></trkpt><trkpt lat="64.07342529" lon="-19.47372055"><ele>486.3</ele><time>2012-07-21T19:51:04.0000000+00:00</time></trkpt><trkpt lat="64.07342529" lon="-19.47356224"><ele>486.1</ele><time>2012-07-21T19:51:09.0000000+00:00</time></trkpt><trkpt lat="64.07343292" lon="-19.47341156"><ele>485.8</ele><time>2012-07-21T19:51:14.0000000+00:00</time></trkpt><trkpt lat="64.07341766" lon="-19.47324371"><ele>486.3</ele><time>2012-07-21T19:51:19.0000000+00:00</time></trkpt><trkpt lat="64.07341003" lon="-19.47311401"><ele>486.8</ele><time>2012-07-21T19:51:24.0000000+00:00</time></trkpt><trkpt lat="64.07339478" lon="-19.47297859"><ele>487.1</ele><time>2012-07-21T19:51:29.0000000+00:00</time></trkpt><trkpt lat="64.07337952" lon="-19.47288132"><ele>487.1</ele><time>2012-07-21T19:51:34.0000000+00:00</time></trkpt><trkpt lat="64.073349" lon="-19.4727459"><ele>487.1</ele><time>2012-07-21T19:51:39.0000000+00:00</time></trkpt><trkpt lat="64.07333374" lon="-19.47262192"><ele>487.0</ele><time>2012-07-21T19:51:44.0000000+00:00</time></trkpt><trkpt lat="64.07331085" lon="-19.47246552"><ele>486.6</ele><time>2012-07-21T19:51:49.0000000+00:00</time></trkpt><trkpt lat="64.07328796" lon="-19.47231865"><ele>486.4</ele><time>2012-07-21T19:51:54.0000000+00:00</time></trkpt><trkpt lat="64.07327271" lon="-19.47219276"><ele>486.8</ele><time>2012-07-21T19:51:59.0000000+00:00</time></trkpt><trkpt lat="64.07325745" lon="-19.47205925"><ele>487.0</ele><time>2012-07-21T19:52:04.0000000+00:00</time></trkpt><trkpt lat="64.07323456" lon="-19.47189903"><ele>487.5</ele><time>2012-07-21T19:52:09.0000000+00:00</time></trkpt><trkpt lat="64.07321167" lon="-19.47174454"><ele>487.3</ele><time>2012-07-21T19:52:14.0000000+00:00</time></trkpt><trkpt lat="64.07318878" lon="-19.47157478"><ele>487.7</ele><time>2012-07-21T19:52:19.0000000+00:00</time></trkpt><trkpt lat="64.07316589" lon="-19.47141647"><ele>487.6</ele><time>2012-07-21T19:52:24.0000000+00:00</time></trkpt><trkpt lat="64.07313538" lon="-19.47128868"><ele>487.9</ele><time>2012-07-21T19:52:29.0000000+00:00</time></trkpt><trkpt lat="64.07311249" lon="-19.47115898"><ele>488.3</ele><time>2012-07-21T19:52:34.0000000+00:00</time></trkpt><trkpt lat="64.07309723" lon="-19.47102165"><ele>488.7</ele><time>2012-07-21T19:52:39.0000000+00:00</time></trkpt><trkpt lat="64.07306671" lon="-19.47089195"><ele>488.5</ele><time>2012-07-21T19:52:44.0000000+00:00</time></trkpt><trkpt lat="64.07305145" lon="-19.47075272"><ele>488.5</ele><time>2012-07-21T19:52:49.0000000+00:00</time></trkpt><trkpt lat="64.07302856" lon="-19.47066116"><ele>489.1</ele><time>2012-07-21T19:52:54.0000000+00:00</time></trkpt><trkpt lat="64.07301331" lon="-19.47055054"><ele>489.9</ele><time>2012-07-21T19:52:59.0000000+00:00</time></trkpt><trkpt lat="64.07298279" lon="-19.47045898"><ele>490.1</ele><time>2012-07-21T19:53:04.0000000+00:00</time></trkpt><trkpt lat="64.07294464" lon="-19.47033882"><ele>490.2</ele><time>2012-07-21T19:53:09.0000000+00:00</time></trkpt><trkpt lat="64.07289887" lon="-19.47021484"><ele>490.7</ele><time>2012-07-21T19:53:14.0000000+00:00</time></trkpt><trkpt lat="64.07286072" lon="-19.47007752"><ele>490.4</ele><time>2012-07-21T19:53:19.0000000+00:00</time></trkpt><trkpt lat="64.0728302" lon="-19.46995926"><ele>489.9</ele><time>2012-07-21T19:53:24.0000000+00:00</time></trkpt><trkpt lat="64.07278442" lon="-19.46983528"><ele>489.6</ele><time>2012-07-21T19:53:29.0000000+00:00</time></trkpt><trkpt lat="64.07274628" lon="-19.46971703"><ele>489.9</ele><time>2012-07-21T19:53:34.0000000+00:00</time></trkpt><trkpt lat="64.07270813" lon="-19.46955872"><ele>489.8</ele><time>2012-07-21T19:53:39.0000000+00:00</time></trkpt><trkpt lat="64.07267761" lon="-19.46940041"><ele>489.5</ele><time>2012-07-21T19:53:44.0000000+00:00</time></trkpt><trkpt lat="64.07263947" lon="-19.4692421"><ele>489.5</ele><time>2012-07-21T19:53:49.0000000+00:00</time></trkpt><trkpt lat="64.07261658" lon="-19.46910477"><ele>489.7</ele><time>2012-07-21T19:53:54.0000000+00:00</time></trkpt><trkpt lat="64.07259369" lon="-19.46894455"><ele>490.3</ele><time>2012-07-21T19:53:59.0000000+00:00</time></trkpt><trkpt lat="64.07256317" lon="-19.4687767"><ele>490.3</ele><time>2012-07-21T19:54:04.0000000+00:00</time></trkpt><trkpt lat="64.07256317" lon="-19.46874046"><ele>490.5</ele><time>2012-07-21T19:54:09.0000000+00:00</time></trkpt><trkpt lat="64.07256317" lon="-19.46871758"><ele>490.7</ele><time>2012-07-21T19:54:14.0000000+00:00</time></trkpt><trkpt lat="64.07255554" lon="-19.46870422"><ele>491.0</ele><time>2012-07-21T19:54:19.0000000+00:00</time></trkpt><trkpt lat="64.07255554" lon="-19.46870422"><ele>491.1</ele><time>2012-07-21T19:54:24.0000000+00:00</time></trkpt><trkpt lat="64.07254028" lon="-19.46862984"><ele>491.0</ele><time>2012-07-21T19:54:29.0000000+00:00</time></trkpt><trkpt lat="64.0725174" lon="-19.4685154"><ele>490.8</ele><time>2012-07-21T19:54:34.0000000+00:00</time></trkpt><trkpt lat="64.07249451" lon="-19.46841049"><ele>490.5</ele><time>2012-07-21T19:54:39.0000000+00:00</time></trkpt><trkpt lat="64.07245636" lon="-19.46829605"><ele>490.5</ele><time>2012-07-21T19:54:44.0000000+00:00</time></trkpt><trkpt lat="64.07243347" lon="-19.46817589"><ele>490.5</ele><time>2012-07-21T19:54:49.0000000+00:00</time></trkpt><trkpt lat="64.07241058" lon="-19.46806908"><ele>490.8</ele><time>2012-07-21T19:54:54.0000000+00:00</time></trkpt><trkpt lat="64.07238007" lon="-19.46796036"><ele>490.7</ele><time>2012-07-21T19:54:59.0000000+00:00</time></trkpt><trkpt lat="64.07235718" lon="-19.46786308"><ele>490.7</ele><time>2012-07-21T19:55:04.0000000+00:00</time></trkpt><trkpt lat="64.07233429" lon="-19.46774483"><ele>490.7</ele><time>2012-07-21T19:55:09.0000000+00:00</time></trkpt><trkpt lat="64.07230377" lon="-19.46763611"><ele>490.6</ele><time>2012-07-21T19:55:14.0000000+00:00</time></trkpt><trkpt lat="64.07227325" lon="-19.46751595"><ele>490.6</ele><time>2012-07-21T19:55:19.0000000+00:00</time></trkpt><trkpt lat="64.07224274" lon="-19.46741867"><ele>490.6</ele><time>2012-07-21T19:55:24.0000000+00:00</time></trkpt><trkpt lat="64.07221222" lon="-19.4673214"><ele>491.5</ele><time>2012-07-21T19:55:29.0000000+00:00</time></trkpt><trkpt lat="64.07218933" lon="-19.46721649"><ele>492.0</ele><time>2012-07-21T19:55:34.0000000+00:00</time></trkpt><trkpt lat="64.07216644" lon="-19.46711159"><ele>492.4</ele><time>2012-07-21T19:55:39.0000000+00:00</time></trkpt><trkpt lat="64.07213593" lon="-19.46702957"><ele>492.5</ele><time>2012-07-21T19:55:44.0000000+00:00</time></trkpt><trkpt lat="64.07211304" lon="-19.46694183"><ele>493.0</ele><time>2012-07-21T19:55:49.0000000+00:00</time></trkpt><trkpt lat="64.07209015" lon="-19.46685982"><ele>493.3</ele><time>2012-07-21T19:55:54.0000000+00:00</time></trkpt><trkpt lat="64.07206726" lon="-19.4667778"><ele>493.8</ele><time>2012-07-21T19:55:59.0000000+00:00</time></trkpt><trkpt lat="64.07203674" lon="-19.46667671"><ele>493.4</ele><time>2012-07-21T19:56:04.0000000+00:00</time></trkpt><trkpt lat="64.07200623" lon="-19.46658707"><ele>493.4</ele><time>2012-07-21T19:56:09.0000000+00:00</time></trkpt><trkpt lat="64.07197571" lon="-19.46649933"><ele>493.6</ele><time>2012-07-21T19:56:14.0000000+00:00</time></trkpt><trkpt lat="64.07194519" lon="-19.46640205"><ele>493.7</ele><time>2012-07-21T19:56:19.0000000+00:00</time></trkpt><trkpt lat="64.07191467" lon="-19.46633339"><ele>493.9</ele><time>2012-07-21T19:56:24.0000000+00:00</time></trkpt><trkpt lat="64.07188416" lon="-19.46625519"><ele>494.3</ele><time>2012-07-21T19:56:29.0000000+00:00</time></trkpt><trkpt lat="64.07185364" lon="-19.46616173"><ele>494.2</ele><time>2012-07-21T19:56:34.0000000+00:00</time></trkpt><trkpt lat="64.07183075" lon="-19.46606827"><ele>494.5</ele><time>2012-07-21T19:56:39.0000000+00:00</time></trkpt><trkpt lat="64.07180023" lon="-19.46598434"><ele>494.6</ele><time>2012-07-21T19:56:44.0000000+00:00</time></trkpt><trkpt lat="64.07177734" lon="-19.46588898"><ele>495.1</ele><time>2012-07-21T19:56:49.0000000+00:00</time></trkpt><trkpt lat="64.07175446" lon="-19.46577072"><ele>495.6</ele><time>2012-07-21T19:56:54.0000000+00:00</time></trkpt><trkpt lat="64.0717392" lon="-19.46568489"><ele>496.0</ele><time>2012-07-21T19:56:59.0000000+00:00</time></trkpt><trkpt lat="64.07171631" lon="-19.4655838"><ele>496.4</ele><time>2012-07-21T19:57:04.0000000+00:00</time></trkpt><trkpt lat="64.07169342" lon="-19.46546936"><ele>496.3</ele><time>2012-07-21T19:57:09.0000000+00:00</time></trkpt><trkpt lat="64.0716629" lon="-19.4653492"><ele>496.4</ele><time>2012-07-21T19:57:14.0000000+00:00</time></trkpt><trkpt lat="64.07164764" lon="-19.46526146"><ele>496.8</ele><time>2012-07-21T19:57:19.0000000+00:00</time></trkpt><trkpt lat="64.07161713" lon="-19.46517181"><ele>497.0</ele><time>2012-07-21T19:57:24.0000000+00:00</time></trkpt><trkpt lat="64.07157898" lon="-19.46509743"><ele>497.3</ele><time>2012-07-21T19:57:29.0000000+00:00</time></trkpt><trkpt lat="64.0715332" lon="-19.46505547"><ele>497.5</ele><time>2012-07-21T19:57:34.0000000+00:00</time></trkpt><trkpt lat="64.07148743" lon="-19.46498108"><ele>497.6</ele><time>2012-07-21T19:57:39.0000000+00:00</time></trkpt><trkpt lat="64.07144165" lon="-19.46491051"><ele>497.9</ele><time>2012-07-21T19:57:44.0000000+00:00</time></trkpt><trkpt lat="64.07138825" lon="-19.46484375"><ele>498.3</ele><time>2012-07-21T19:57:49.0000000+00:00</time></trkpt><trkpt lat="64.0713501" lon="-19.46479416"><ele>498.9</ele><time>2012-07-21T19:57:54.0000000+00:00</time></trkpt><trkpt lat="64.07129669" lon="-19.46473503"><ele>498.8</ele><time>2012-07-21T19:57:59.0000000+00:00</time></trkpt><trkpt lat="64.07125092" lon="-19.46471977"><ele>499.6</ele><time>2012-07-21T19:58:04.0000000+00:00</time></trkpt><trkpt lat="64.07120514" lon="-19.46469116"><ele>499.8</ele><time>2012-07-21T19:58:09.0000000+00:00</time></trkpt><trkpt lat="64.07115173" lon="-19.46466827"><ele>500.1</ele><time>2012-07-21T19:58:14.0000000+00:00</time></trkpt><trkpt lat="64.0710907" lon="-19.46464539"><ele>500.1</ele><time>2012-07-21T19:58:19.0000000+00:00</time></trkpt><trkpt lat="64.07102966" lon="-19.46462822"><ele>500.7</ele><time>2012-07-21T19:58:24.0000000+00:00</time></trkpt><trkpt lat="64.07096863" lon="-19.46462441"><ele>501.1</ele><time>2012-07-21T19:58:29.0000000+00:00</time></trkpt><trkpt lat="64.07090759" lon="-19.4646225"><ele>501.7</ele><time>2012-07-21T19:58:34.0000000+00:00</time></trkpt><trkpt lat="64.07083893" lon="-19.46462631"><ele>502.1</ele><time>2012-07-21T19:58:39.0000000+00:00</time></trkpt><trkpt lat="64.07077026" lon="-19.46465683"><ele>502.3</ele><time>2012-07-21T19:58:44.0000000+00:00</time></trkpt><trkpt lat="64.07070923" lon="-19.46467209"><ele>502.9</ele><time>2012-07-21T19:58:49.0000000+00:00</time></trkpt><trkpt lat="64.07066345" lon="-19.464674"><ele>503.2</ele><time>2012-07-21T19:58:54.0000000+00:00</time></trkpt><trkpt lat="64.07061768" lon="-19.46466637"><ele>503.0</ele><time>2012-07-21T19:58:59.0000000+00:00</time></trkpt><trkpt lat="64.0705719" lon="-19.46465874"><ele>502.8</ele><time>2012-07-21T19:59:04.0000000+00:00</time></trkpt><trkpt lat="64.07051849" lon="-19.46465302"><ele>503.1</ele><time>2012-07-21T19:59:09.0000000+00:00</time></trkpt><trkpt lat="64.07046509" lon="-19.46461868"><ele>503.0</ele><time>2012-07-21T19:59:14.0000000+00:00</time></trkpt><trkpt lat="64.07040405" lon="-19.46458626"><ele>502.9</ele><time>2012-07-21T19:59:19.0000000+00:00</time></trkpt><trkpt lat="64.07035065" lon="-19.46457291"><ele>503.0</ele><time>2012-07-21T19:59:24.0000000+00:00</time></trkpt><trkpt lat="64.07030487" lon="-19.46449852"><ele>503.0</ele><time>2012-07-21T19:59:29.0000000+00:00</time></trkpt><trkpt lat="64.07025147" lon="-19.4644413"><ele>503.5</ele><time>2012-07-21T19:59:34.0000000+00:00</time></trkpt><trkpt lat="64.07019806" lon="-19.46438789"><ele>503.1</ele><time>2012-07-21T19:59:39.0000000+00:00</time></trkpt><trkpt lat="64.07015991" lon="-19.46434593"><ele>502.4</ele><time>2012-07-21T19:59:44.0000000+00:00</time></trkpt><trkpt lat="64.0701294" lon="-19.46429253"><ele>502.5</ele><time>2012-07-21T19:59:49.0000000+00:00</time></trkpt><trkpt lat="64.07008362" lon="-19.46420479"><ele>502.5</ele><time>2012-07-21T19:59:54.0000000+00:00</time></trkpt><trkpt lat="64.07004547" lon="-19.46412087"><ele>502.5</ele><time>2012-07-21T19:59:59.0000000+00:00</time></trkpt><trkpt lat="64.07000732" lon="-19.46401596"><ele>502.3</ele><time>2012-07-21T20:00:04.0000000+00:00</time></trkpt><trkpt lat="64.06996918" lon="-19.46392059"><ele>502.1</ele><time>2012-07-21T20:00:09.0000000+00:00</time></trkpt><trkpt lat="64.06993103" lon="-19.46381569"><ele>501.9</ele><time>2012-07-21T20:00:14.0000000+00:00</time></trkpt><trkpt lat="64.06989288" lon="-19.46371079"><ele>501.6</ele><time>2012-07-21T20:00:19.0000000+00:00</time></trkpt><trkpt lat="64.06984711" lon="-19.46360016"><ele>501.4</ele><time>2012-07-21T20:00:24.0000000+00:00</time></trkpt><trkpt lat="64.06980896" lon="-19.46348763"><ele>501.6</ele><time>2012-07-21T20:00:29.0000000+00:00</time></trkpt><trkpt lat="64.06976318" lon="-19.46337128"><ele>501.4</ele><time>2012-07-21T20:00:34.0000000+00:00</time></trkpt><trkpt lat="64.06972504" lon="-19.46324921"><ele>501.7</ele><time>2012-07-21T20:00:39.0000000+00:00</time></trkpt><trkpt lat="64.06968689" lon="-19.46315002"><ele>502.2</ele><time>2012-07-21T20:00:44.0000000+00:00</time></trkpt><trkpt lat="64.06964874" lon="-19.46304894"><ele>502.5</ele><time>2012-07-21T20:00:49.0000000+00:00</time></trkpt><trkpt lat="64.06963348" lon="-19.46298599"><ele>502.6</ele><time>2012-07-21T20:00:54.0000000+00:00</time></trkpt><trkpt lat="64.06959534" lon="-19.462883"><ele>503.1</ele><time>2012-07-21T20:00:59.0000000+00:00</time></trkpt><trkpt lat="64.06956482" lon="-19.46277618"><ele>503.4</ele><time>2012-07-21T20:01:04.0000000+00:00</time></trkpt><trkpt lat="64.06952667" lon="-19.46268082"><ele>503.8</ele><time>2012-07-21T20:01:09.0000000+00:00</time></trkpt><trkpt lat="64.06948853" lon="-19.46259117"><ele>504.0</ele><time>2012-07-21T20:01:14.0000000+00:00</time></trkpt><trkpt lat="64.06945801" lon="-19.46248627"><ele>504.1</ele><time>2012-07-21T20:01:19.0000000+00:00</time></trkpt><trkpt lat="64.06941986" lon="-19.46238899"><ele>504.3</ele><time>2012-07-21T20:01:24.0000000+00:00</time></trkpt><trkpt lat="64.06938171" lon="-19.46227455"><ele>504.1</ele><time>2012-07-21T20:01:29.0000000+00:00</time></trkpt><trkpt lat="64.06934357" lon="-19.46216774"><ele>504.4</ele><time>2012-07-21T20:01:34.0000000+00:00</time></trkpt><trkpt lat="64.06931305" lon="-19.46207237"><ele>504.2</ele><time>2012-07-21T20:01:39.0000000+00:00</time></trkpt><trkpt lat="64.0692749" lon="-19.46196365"><ele>504.3</ele><time>2012-07-21T20:01:44.0000000+00:00</time></trkpt><trkpt lat="64.06923676" lon="-19.46185303"><ele>504.4</ele><time>2012-07-21T20:01:49.0000000+00:00</time></trkpt><trkpt lat="64.06920624" lon="-19.4617672"><ele>504.7</ele><time>2012-07-21T20:01:54.0000000+00:00</time></trkpt><trkpt lat="64.06917572" lon="-19.46168518"><ele>504.9</ele><time>2012-07-21T20:01:59.0000000+00:00</time></trkpt><trkpt lat="64.06913757" lon="-19.46158218"><ele>505.2</ele><time>2012-07-21T20:02:04.0000000+00:00</time></trkpt><trkpt lat="64.06909943" lon="-19.46148682"><ele>505.5</ele><time>2012-07-21T20:02:09.0000000+00:00</time></trkpt><trkpt lat="64.06906128" lon="-19.46138573"><ele>505.8</ele><time>2012-07-21T20:02:14.0000000+00:00</time></trkpt><trkpt lat="64.06902313" lon="-19.46128273"><ele>505.8</ele><time>2012-07-21T20:02:19.0000000+00:00</time></trkpt><trkpt lat="64.06899262" lon="-19.46118736"><ele>506.1</ele><time>2012-07-21T20:02:24.0000000+00:00</time></trkpt><trkpt lat="64.0689621" lon="-19.46110725"><ele>506.4</ele><time>2012-07-21T20:02:29.0000000+00:00</time></trkpt><trkpt lat="64.06894684" lon="-19.46103859"><ele>506.7</ele><time>2012-07-21T20:02:34.0000000+00:00</time></trkpt><trkpt lat="64.06893921" lon="-19.46097946"><ele>507.4</ele><time>2012-07-21T20:02:39.0000000+00:00</time></trkpt><trkpt lat="64.06890869" lon="-19.46092796"><ele>507.9</ele><time>2012-07-21T20:02:44.0000000+00:00</time></trkpt><trkpt lat="64.06889343" lon="-19.46088028"><ele>508.1</ele><time>2012-07-21T20:02:49.0000000+00:00</time></trkpt><trkpt lat="64.06886292" lon="-19.46080971"><ele>508.3</ele><time>2012-07-21T20:02:54.0000000+00:00</time></trkpt><trkpt lat="64.06884003" lon="-19.46071816"><ele>508.1</ele><time>2012-07-21T20:02:59.0000000+00:00</time></trkpt><trkpt lat="64.06880188" lon="-19.46063232"><ele>508.0</ele><time>2012-07-21T20:03:04.0000000+00:00</time></trkpt><trkpt lat="64.06876373" lon="-19.46053696"><ele>508.2</ele><time>2012-07-21T20:03:09.0000000+00:00</time></trkpt><trkpt lat="64.06873322" lon="-19.46045303"><ele>508.2</ele><time>2012-07-21T20:03:14.0000000+00:00</time></trkpt><trkpt lat="64.06871033" lon="-19.46039009"><ele>508.3</ele><time>2012-07-21T20:03:19.0000000+00:00</time></trkpt><trkpt lat="64.0687027" lon="-19.46035385"><ele>508.2</ele><time>2012-07-21T20:03:24.0000000+00:00</time></trkpt><trkpt lat="64.06868744" lon="-19.46029854"><ele>508.2</ele><time>2012-07-21T20:03:29.0000000+00:00</time></trkpt><trkpt lat="64.06865692" lon="-19.46020126"><ele>508.8</ele><time>2012-07-21T20:03:34.0000000+00:00</time></trkpt><trkpt lat="64.06863403" lon="-19.46010971"><ele>509.1</ele><time>2012-07-21T20:03:39.0000000+00:00</time></trkpt><trkpt lat="64.06861877" lon="-19.46002197"><ele>509.7</ele><time>2012-07-21T20:03:44.0000000+00:00</time></trkpt><trkpt lat="64.06861115" lon="-19.45998573"><ele>510.2</ele><time>2012-07-21T20:03:49.0000000+00:00</time></trkpt><trkpt lat="64.06861877" lon="-19.45998001"><ele>510.2</ele><time>2012-07-21T20:03:54.0000000+00:00</time></trkpt><trkpt lat="64.06861877" lon="-19.45998192"><ele>509.9</ele><time>2012-07-21T20:03:59.0000000+00:00</time></trkpt><trkpt lat="64.06861877" lon="-19.45998192"><ele>509.8</ele><time>2012-07-21T20:04:04.0000000+00:00</time></trkpt><trkpt lat="64.06861877" lon="-19.45998192"><ele>509.8</ele><time>2012-07-21T20:04:09.0000000+00:00</time></trkpt><trkpt lat="64.06861877" lon="-19.45998192"><ele>509.8</ele><time>2012-07-21T20:04:14.0000000+00:00</time></trkpt><trkpt lat="64.06861877" lon="-19.45998192"><ele>509.8</ele><time>2012-07-21T20:04:19.0000000+00:00</time></trkpt><trkpt lat="64.06861877" lon="-19.45998192"><ele>509.8</ele><time>2012-07-21T20:04:24.0000000+00:00</time></trkpt><trkpt lat="64.06861877" lon="-19.45998192"><ele>509.8</ele><time>2012-07-21T20:04:29.0000000+00:00</time></trkpt><trkpt lat="64.06861115" lon="-19.45997429"><ele>509.4</ele><time>2012-07-21T20:04:34.0000000+00:00</time></trkpt><trkpt lat="64.06861115" lon="-19.45997429"><ele>509.4</ele><time>2012-07-21T20:04:39.0000000+00:00</time></trkpt><trkpt lat="64.06861115" lon="-19.4599762"><ele>509.4</ele><time>2012-07-21T20:04:44.0000000+00:00</time></trkpt><trkpt lat="64.06861115" lon="-19.4599762"><ele>509.0</ele><time>2012-07-21T20:04:49.0000000+00:00</time></trkpt><trkpt lat="64.06860352" lon="-19.45993042"><ele>508.9</ele><time>2012-07-21T20:04:54.0000000+00:00</time></trkpt><trkpt lat="64.06858063" lon="-19.45982933"><ele>508.6</ele><time>2012-07-21T20:04:59.0000000+00:00</time></trkpt><trkpt lat="64.06856537" lon="-19.45970726"><ele>508.5</ele><time>2012-07-21T20:05:04.0000000+00:00</time></trkpt><trkpt lat="64.06855011" lon="-19.45959854"><ele>508.9</ele><time>2012-07-21T20:05:09.0000000+00:00</time></trkpt><trkpt lat="64.06854248" lon="-19.45948792"><ele>509.9</ele><time>2012-07-21T20:05:14.0000000+00:00</time></trkpt><trkpt lat="64.06851959" lon="-19.45934868"><ele>510.4</ele><time>2012-07-21T20:05:19.0000000+00:00</time></trkpt><trkpt lat="64.06850433" lon="-19.45923996"><ele>510.9</ele><time>2012-07-21T20:05:24.0000000+00:00</time></trkpt><trkpt lat="64.06850433" lon="-19.45920372"><ele>511.5</ele><time>2012-07-21T20:05:29.0000000+00:00</time></trkpt><trkpt lat="64.06850433" lon="-19.45920372"><ele>511.5</ele><time>2012-07-21T20:05:34.0000000+00:00</time></trkpt><trkpt lat="64.06850433" lon="-19.45920563"><ele>511.5</ele><time>2012-07-21T20:05:39.0000000+00:00</time></trkpt><trkpt lat="64.06850433" lon="-19.45920563"><ele>511.5</ele><time>2012-07-21T20:05:44.0000000+00:00</time></trkpt><trkpt lat="64.06850433" lon="-19.45920754"><ele>511.5</ele><time>2012-07-21T20:05:49.0000000+00:00</time></trkpt><trkpt lat="64.06850433" lon="-19.45920754"><ele>511.5</ele><time>2012-07-21T20:05:54.0000000+00:00</time></trkpt><trkpt lat="64.06850433" lon="-19.45920754"><ele>511.5</ele><time>2012-07-21T20:05:59.0000000+00:00</time></trkpt><trkpt lat="64.06850433" lon="-19.45920754"><ele>511.5</ele><time>2012-07-21T20:06:04.0000000+00:00</time></trkpt><trkpt lat="64.06850433" lon="-19.45918846"><ele>511.7</ele><time>2012-07-21T20:06:09.0000000+00:00</time></trkpt><trkpt lat="64.06848145" lon="-19.45907593"><ele>512.5</ele><time>2012-07-21T20:06:14.0000000+00:00</time></trkpt><trkpt lat="64.06846619" lon="-19.45895958"><ele>513.3</ele><time>2012-07-21T20:06:19.0000000+00:00</time></trkpt><trkpt lat="64.0684433" lon="-19.45884323"><ele>513.9</ele><time>2012-07-21T20:06:24.0000000+00:00</time></trkpt><trkpt lat="64.06842041" lon="-19.45875549"><ele>514.6</ele><time>2012-07-21T20:06:29.0000000+00:00</time></trkpt><trkpt lat="64.06840515" lon="-19.45866013"><ele>514.9</ele><time>2012-07-21T20:06:34.0000000+00:00</time></trkpt><trkpt lat="64.06838989" lon="-19.45856857"><ele>515.5</ele><time>2012-07-21T20:06:39.0000000+00:00</time></trkpt><trkpt lat="64.068367" lon="-19.45847321"><ele>515.8</ele><time>2012-07-21T20:06:44.0000000+00:00</time></trkpt><trkpt lat="64.068367" lon="-19.45843887"><ele>515.8</ele><time>2012-07-21T20:06:49.0000000+00:00</time></trkpt><trkpt lat="64.06835938" lon="-19.4583683"><ele>515.9</ele><time>2012-07-21T20:06:54.0000000+00:00</time></trkpt><trkpt lat="64.06835175" lon="-19.45830345"><ele>515.9</ele><time>2012-07-21T20:06:59.0000000+00:00</time></trkpt><trkpt lat="64.06834412" lon="-19.4581852"><ele>516.3</ele><time>2012-07-21T20:07:04.0000000+00:00</time></trkpt><trkpt lat="64.06833649" lon="-19.45809364"><ele>516.3</ele><time>2012-07-21T20:07:09.0000000+00:00</time></trkpt><trkpt lat="64.06832886" lon="-19.45802879"><ele>516.3</ele><time>2012-07-21T20:07:14.0000000+00:00</time></trkpt><trkpt lat="64.06832123" lon="-19.45791245"><ele>515.9</ele><time>2012-07-21T20:07:19.0000000+00:00</time></trkpt><trkpt lat="64.06832123" lon="-19.45780182"><ele>516.4</ele><time>2012-07-21T20:07:24.0000000+00:00</time></trkpt><trkpt lat="64.06832886" lon="-19.45768547"><ele>517.1</ele><time>2012-07-21T20:07:29.0000000+00:00</time></trkpt><trkpt lat="64.06832123" lon="-19.45764351"><ele>517.3</ele><time>2012-07-21T20:07:34.0000000+00:00</time></trkpt><trkpt lat="64.0683136" lon="-19.4575882"><ele>517.1</ele><time>2012-07-21T20:07:39.0000000+00:00</time></trkpt><trkpt lat="64.0683136" lon="-19.45750809"><ele>516.9</ele><time>2012-07-21T20:07:44.0000000+00:00</time></trkpt><trkpt lat="64.0683136" lon="-19.45744324"><ele>517.2</ele><time>2012-07-21T20:07:49.0000000+00:00</time></trkpt><trkpt lat="64.06830597" lon="-19.45736313"><ele>517.3</ele><time>2012-07-21T20:07:54.0000000+00:00</time></trkpt><trkpt lat="64.06829834" lon="-19.45729065"><ele>517.9</ele><time>2012-07-21T20:07:59.0000000+00:00</time></trkpt><trkpt lat="64.06829071" lon="-19.45718193"><ele>518.7</ele><time>2012-07-21T20:08:04.0000000+00:00</time></trkpt><trkpt lat="64.06828308" lon="-19.45710564"><ele>518.5</ele><time>2012-07-21T20:08:09.0000000+00:00</time></trkpt><trkpt lat="64.06826782" lon="-19.45702171"><ele>518.3</ele><time>2012-07-21T20:08:14.0000000+00:00</time></trkpt><trkpt lat="64.06826782" lon="-19.45692253"><ele>518.0</ele><time>2012-07-21T20:08:19.0000000+00:00</time></trkpt><trkpt lat="64.06825256" lon="-19.45684433"><ele>518.0</ele><time>2012-07-21T20:08:24.0000000+00:00</time></trkpt><trkpt lat="64.06824493" lon="-19.45681"><ele>518.2</ele><time>2012-07-21T20:08:29.0000000+00:00</time></trkpt><trkpt lat="64.06824493" lon="-19.45680237"><ele>517.8</ele><time>2012-07-21T20:08:34.0000000+00:00</time></trkpt><trkpt lat="64.06822205" lon="-19.45671272"><ele>517.5</ele><time>2012-07-21T20:08:39.0000000+00:00</time></trkpt><trkpt lat="64.06820679" lon="-19.45664978"><ele>517.7</ele><time>2012-07-21T20:08:44.0000000+00:00</time></trkpt><trkpt lat="64.06819153" lon="-19.45658112"><ele>518.3</ele><time>2012-07-21T20:08:49.0000000+00:00</time></trkpt><trkpt lat="64.0681839" lon="-19.45650864"><ele>519.4</ele><time>2012-07-21T20:08:54.0000000+00:00</time></trkpt><trkpt lat="64.06816864" lon="-19.45642281"><ele>520.0</ele><time>2012-07-21T20:08:59.0000000+00:00</time></trkpt><trkpt lat="64.06815338" lon="-19.45633316"><ele>521.1</ele><time>2012-07-21T20:09:04.0000000+00:00</time></trkpt><trkpt lat="64.06814575" lon="-19.45625687"><ele>522.1</ele><time>2012-07-21T20:09:09.0000000+00:00</time></trkpt><trkpt lat="64.06813812" lon="-19.45621491"><ele>523.0</ele><time>2012-07-21T20:09:14.0000000+00:00</time></trkpt><trkpt lat="64.06812286" lon="-19.45609474"><ele>522.8</ele><time>2012-07-21T20:09:19.0000000+00:00</time></trkpt><trkpt lat="64.06811523" lon="-19.45598793"><ele>522.8</ele><time>2012-07-21T20:09:24.0000000+00:00</time></trkpt><trkpt lat="64.06810761" lon="-19.45592117"><ele>522.3</ele><time>2012-07-21T20:09:29.0000000+00:00</time></trkpt><trkpt lat="64.06809998" lon="-19.45579338"><ele>521.6</ele><time>2012-07-21T20:09:34.0000000+00:00</time></trkpt><trkpt lat="64.06809998" lon="-19.45572281"><ele>520.8</ele><time>2012-07-21T20:09:39.0000000+00:00</time></trkpt><trkpt lat="64.06809998" lon="-19.4557209"><ele>521.1</ele><time>2012-07-21T20:09:44.0000000+00:00</time></trkpt><trkpt lat="64.06809998" lon="-19.45562553"><ele>520.1</ele><time>2012-07-21T20:09:49.0000000+00:00</time></trkpt><trkpt lat="64.06809998" lon="-19.45549011"><ele>519.6</ele><time>2012-07-21T20:09:54.0000000+00:00</time></trkpt><trkpt lat="64.06809998" lon="-19.45537567"><ele>519.1</ele><time>2012-07-21T20:09:59.0000000+00:00</time></trkpt><trkpt lat="64.06811523" lon="-19.45526695"><ele>518.6</ele><time>2012-07-21T20:10:04.0000000+00:00</time></trkpt><trkpt lat="64.06811523" lon="-19.45516586"><ele>517.3</ele><time>2012-07-21T20:10:09.0000000+00:00</time></trkpt><trkpt lat="64.06811523" lon="-19.45508003"><ele>517.5</ele><time>2012-07-21T20:10:14.0000000+00:00</time></trkpt><trkpt lat="64.06812286" lon="-19.45495224"><ele>517.2</ele><time>2012-07-21T20:10:19.0000000+00:00</time></trkpt><trkpt lat="64.06813049" lon="-19.45486641"><ele>516.7</ele><time>2012-07-21T20:10:24.0000000+00:00</time></trkpt><trkpt lat="64.06813049" lon="-19.45475769"><ele>516.2</ele><time>2012-07-21T20:10:29.0000000+00:00</time></trkpt><trkpt lat="64.06814575" lon="-19.45467758"><ele>515.5</ele><time>2012-07-21T20:10:34.0000000+00:00</time></trkpt><trkpt lat="64.06814575" lon="-19.45467949"><ele>514.8</ele><time>2012-07-21T20:10:39.0000000+00:00</time></trkpt><trkpt lat="64.06814575" lon="-19.45462418"><ele>514.8</ele><time>2012-07-21T20:10:44.0000000+00:00</time></trkpt><trkpt lat="64.06815338" lon="-19.45455742"><ele>515.3</ele><time>2012-07-21T20:10:49.0000000+00:00</time></trkpt><trkpt lat="64.06815338" lon="-19.45448685"><ele>515.7</ele><time>2012-07-21T20:10:54.0000000+00:00</time></trkpt><trkpt lat="64.06815338" lon="-19.4543972"><ele>515.1</ele><time>2012-07-21T20:10:59.0000000+00:00</time></trkpt><trkpt lat="64.06816101" lon="-19.45431519"><ele>514.1</ele><time>2012-07-21T20:11:04.0000000+00:00</time></trkpt><trkpt lat="64.06816864" lon="-19.45420265"><ele>513.5</ele><time>2012-07-21T20:11:09.0000000+00:00</time></trkpt><trkpt lat="64.06816864" lon="-19.45408821"><ele>512.5</ele><time>2012-07-21T20:11:14.0000000+00:00</time></trkpt><trkpt lat="64.06817627" lon="-19.45398903"><ele>513.0</ele><time>2012-07-21T20:11:19.0000000+00:00</time></trkpt><trkpt lat="64.06819153" lon="-19.45387459"><ele>512.9</ele><time>2012-07-21T20:11:24.0000000+00:00</time></trkpt><trkpt lat="64.06819916" lon="-19.45376396"><ele>512.2</ele><time>2012-07-21T20:11:29.0000000+00:00</time></trkpt><trkpt lat="64.06821442" lon="-19.45363808"><ele>511.6</ele><time>2012-07-21T20:11:34.0000000+00:00</time></trkpt><trkpt lat="64.06822205" lon="-19.45350456"><ele>511.4</ele><time>2012-07-21T20:11:39.0000000+00:00</time></trkpt><trkpt lat="64.06822968" lon="-19.45339394"><ele>510.9</ele><time>2012-07-21T20:11:44.0000000+00:00</time></trkpt><trkpt lat="64.06823731" lon="-19.45326424"><ele>510.2</ele><time>2012-07-21T20:11:49.0000000+00:00</time></trkpt><trkpt lat="64.06824493" lon="-19.45316696"><ele>509.9</ele><time>2012-07-21T20:11:54.0000000+00:00</time></trkpt><trkpt lat="64.06824493" lon="-19.45315933"><ele>509.2</ele><time>2012-07-21T20:11:59.0000000+00:00</time></trkpt><trkpt lat="64.06824493" lon="-19.45315933"><ele>509.1</ele><time>2012-07-21T20:12:04.0000000+00:00</time></trkpt><trkpt lat="64.06824493" lon="-19.45314598"><ele>508.9</ele><time>2012-07-21T20:12:09.0000000+00:00</time></trkpt><trkpt lat="64.06826019" lon="-19.45305061"><ele>508.0</ele><time>2012-07-21T20:12:14.0000000+00:00</time></trkpt><trkpt lat="64.06825256" lon="-19.45293427"><ele>507.7</ele><time>2012-07-21T20:12:19.0000000+00:00</time></trkpt><trkpt lat="64.06826019" lon="-19.45288467"><ele>507.6</ele><time>2012-07-21T20:12:24.0000000+00:00</time></trkpt><trkpt lat="64.06826782" lon="-19.45277214"><ele>507.5</ele><time>2012-07-21T20:12:29.0000000+00:00</time></trkpt><trkpt lat="64.06828308" lon="-19.4526329"><ele>507.5</ele><time>2012-07-21T20:12:34.0000000+00:00</time></trkpt><trkpt lat="64.06829071" lon="-19.45261192"><ele>507.4</ele><time>2012-07-21T20:12:39.0000000+00:00</time></trkpt><trkpt lat="64.06829071" lon="-19.45261192"><ele>507.4</ele><time>2012-07-21T20:12:44.0000000+00:00</time></trkpt><trkpt lat="64.06829071" lon="-19.45261192"><ele>507.4</ele><time>2012-07-21T20:12:49.0000000+00:00</time></trkpt><trkpt lat="64.06829071" lon="-19.45261192"><ele>507.4</ele><time>2012-07-21T20:12:54.0000000+00:00</time></trkpt><trkpt lat="64.06829834" lon="-19.45255852"><ele>507.0</ele><time>2012-07-21T20:12:59.0000000+00:00</time></trkpt><trkpt lat="64.0683136" lon="-19.45243454"><ele>506.2</ele><time>2012-07-21T20:13:04.0000000+00:00</time></trkpt><trkpt lat="64.0683136" lon="-19.45238113"><ele>505.8</ele><time>2012-07-21T20:13:09.0000000+00:00</time></trkpt><trkpt lat="64.06833649" lon="-19.45229912"><ele>505.8</ele><time>2012-07-21T20:13:14.0000000+00:00</time></trkpt><trkpt lat="64.06834412" lon="-19.45217514"><ele>505.3</ele><time>2012-07-21T20:13:19.0000000+00:00</time></trkpt><trkpt lat="64.06835938" lon="-19.45204163"><ele>504.9</ele><time>2012-07-21T20:13:24.0000000+00:00</time></trkpt><trkpt lat="64.06835938" lon="-19.45190811"><ele>504.6</ele><time>2012-07-21T20:13:29.0000000+00:00</time></trkpt><trkpt lat="64.068367" lon="-19.45177651"><ele>505.0</ele><time>2012-07-21T20:13:34.0000000+00:00</time></trkpt><trkpt lat="64.06838226" lon="-19.45165634"><ele>505.1</ele><time>2012-07-21T20:13:39.0000000+00:00</time></trkpt><trkpt lat="64.06837463" lon="-19.45150948"><ele>506.6</ele><time>2012-07-21T20:13:44.0000000+00:00</time></trkpt><trkpt lat="64.06839752" lon="-19.45136452"><ele>506.6</ele><time>2012-07-21T20:13:49.0000000+00:00</time></trkpt><trkpt lat="64.06841278" lon="-19.45126534"><ele>506.5</ele><time>2012-07-21T20:13:54.0000000+00:00</time></trkpt><trkpt lat="64.06843567" lon="-19.45114517"><ele>506.5</ele><time>2012-07-21T20:13:59.0000000+00:00</time></trkpt><trkpt lat="64.0684433" lon="-19.45100975"><ele>506.7</ele><time>2012-07-21T20:14:04.0000000+00:00</time></trkpt><trkpt lat="64.06846619" lon="-19.4508667"><ele>506.7</ele><time>2012-07-21T20:14:09.0000000+00:00</time></trkpt><trkpt lat="64.06848908" lon="-19.45072937"><ele>506.0</ele><time>2012-07-21T20:14:14.0000000+00:00</time></trkpt><trkpt lat="64.0684967" lon="-19.45059204"><ele>505.7</ele><time>2012-07-21T20:14:19.0000000+00:00</time></trkpt><trkpt lat="64.06848145" lon="-19.45048904"><ele>506.9</ele><time>2012-07-21T20:14:24.0000000+00:00</time></trkpt><trkpt lat="64.06847382" lon="-19.45048714"><ele>506.8</ele><time>2012-07-21T20:14:29.0000000+00:00</time></trkpt><trkpt lat="64.06847382" lon="-19.45048904"><ele>506.8</ele><time>2012-07-21T20:14:34.0000000+00:00</time></trkpt><trkpt lat="64.06847382" lon="-19.45048904"><ele>506.8</ele><time>2012-07-21T20:14:39.0000000+00:00</time></trkpt><trkpt lat="64.06848908" lon="-19.45038986"><ele>506.6</ele><time>2012-07-21T20:14:44.0000000+00:00</time></trkpt><trkpt lat="64.06848908" lon="-19.45026016"><ele>506.3</ele><time>2012-07-21T20:14:49.0000000+00:00</time></trkpt><trkpt lat="64.06851196" lon="-19.45012856"><ele>506.5</ele><time>2012-07-21T20:14:54.0000000+00:00</time></trkpt><trkpt lat="64.06851959" lon="-19.4499836"><ele>506.6</ele><time>2012-07-21T20:14:59.0000000+00:00</time></trkpt><trkpt lat="64.06853485" lon="-19.4498558"><ele>506.6</ele><time>2012-07-21T20:15:04.0000000+00:00</time></trkpt><trkpt lat="64.06853485" lon="-19.44978523"><ele>507.0</ele><time>2012-07-21T20:15:09.0000000+00:00</time></trkpt><trkpt lat="64.06853485" lon="-19.44978333"><ele>508.0</ele><time>2012-07-21T20:15:14.0000000+00:00</time></trkpt><trkpt lat="64.06853485" lon="-19.44978333"><ele>508.0</ele><time>2012-07-21T20:15:19.0000000+00:00</time></trkpt><trkpt lat="64.06853485" lon="-19.44978333"><ele>508.0</ele><time>2012-07-21T20:15:24.0000000+00:00</time></trkpt><trkpt lat="64.06853485" lon="-19.44978333"><ele>508.1</ele><time>2012-07-21T20:15:29.0000000+00:00</time></trkpt><trkpt lat="64.06853485" lon="-19.44978333"><ele>508.1</ele><time>2012-07-21T20:15:34.0000000+00:00</time></trkpt><trkpt lat="64.06853485" lon="-19.44978333"><ele>508.1</ele><time>2012-07-21T20:15:39.0000000+00:00</time></trkpt><trkpt lat="64.06853485" lon="-19.44978333"><ele>508.1</ele><time>2012-07-21T20:15:44.0000000+00:00</time></trkpt><trkpt lat="64.06853485" lon="-19.44978333"><ele>508.2</ele><time>2012-07-21T20:15:49.0000000+00:00</time></trkpt><trkpt lat="64.06853485" lon="-19.44978333"><ele>508.2</ele><time>2012-07-21T20:15:54.0000000+00:00</time></trkpt><trkpt lat="64.06853485" lon="-19.44978333"><ele>508.2</ele><time>2012-07-21T20:15:59.0000000+00:00</time></trkpt><trkpt lat="64.06853485" lon="-19.44978333"><ele>508.3</ele><time>2012-07-21T20:16:04.0000000+00:00</time></trkpt><trkpt lat="64.06853485" lon="-19.44978333"><ele>508.3</ele><time>2012-07-21T20:16:09.0000000+00:00</time></trkpt><trkpt lat="64.06853485" lon="-19.44978333"><ele>508.3</ele><time>2012-07-21T20:16:14.0000000+00:00</time></trkpt><trkpt lat="64.06853485" lon="-19.44978333"><ele>508.3</ele><time>2012-07-21T20:16:19.0000000+00:00</time></trkpt><trkpt lat="64.06853485" lon="-19.44978333"><ele>508.4</ele><time>2012-07-21T20:16:24.0000000+00:00</time></trkpt><trkpt lat="64.06853485" lon="-19.44978333"><ele>508.4</ele><time>2012-07-21T20:16:29.0000000+00:00</time></trkpt><trkpt lat="64.06853485" lon="-19.44978333"><ele>508.4</ele><time>2012-07-21T20:16:34.0000000+00:00</time></trkpt><trkpt lat="64.06853485" lon="-19.44978333"><ele>508.5</ele><time>2012-07-21T20:16:39.0000000+00:00</time></trkpt><trkpt lat="64.06853485" lon="-19.44978523"><ele>508.5</ele><time>2012-07-21T20:16:44.0000000+00:00</time></trkpt><trkpt lat="64.06853485" lon="-19.44978523"><ele>508.5</ele><time>2012-07-21T20:16:49.0000000+00:00</time></trkpt><trkpt lat="64.06853485" lon="-19.44978523"><ele>508.5</ele><time>2012-07-21T20:16:54.0000000+00:00</time></trkpt><trkpt lat="64.06853485" lon="-19.44978523"><ele>508.6</ele><time>2012-07-21T20:16:59.0000000+00:00</time></trkpt><trkpt lat="64.06853485" lon="-19.44978523"><ele>508.6</ele><time>2012-07-21T20:17:04.0000000+00:00</time></trkpt><trkpt lat="64.06853485" lon="-19.44978523"><ele>508.6</ele><time>2012-07-21T20:17:09.0000000+00:00</time></trkpt><trkpt lat="64.06853485" lon="-19.44978523"><ele>508.6</ele><time>2012-07-21T20:17:14.0000000+00:00</time></trkpt><trkpt lat="64.06853485" lon="-19.44978523"><ele>508.7</ele><time>2012-07-21T20:17:19.0000000+00:00</time></trkpt><trkpt lat="64.06853485" lon="-19.44978523"><ele>508.7</ele><time>2012-07-21T20:17:24.0000000+00:00</time></trkpt><trkpt lat="64.06853485" lon="-19.44978523"><ele>508.7</ele><time>2012-07-21T20:17:29.0000000+00:00</time></trkpt><trkpt lat="64.06853485" lon="-19.44978523"><ele>508.7</ele><time>2012-07-21T20:17:34.0000000+00:00</time></trkpt><trkpt lat="64.06853485" lon="-19.44978523"><ele>508.8</ele><time>2012-07-21T20:17:39.0000000+00:00</time></trkpt><trkpt lat="64.06853485" lon="-19.44978523"><ele>508.8</ele><time>2012-07-21T20:17:44.0000000+00:00</time></trkpt><trkpt lat="64.06855011" lon="-19.44970322"><ele>508.2</ele><time>2012-07-21T20:17:49.0000000+00:00</time></trkpt><trkpt lat="64.068573" lon="-19.44955063"><ele>508.7</ele><time>2012-07-21T20:17:54.0000000+00:00</time></trkpt><trkpt lat="64.06859589" lon="-19.44941902"><ele>508.8</ele><time>2012-07-21T20:17:59.0000000+00:00</time></trkpt><trkpt lat="64.06861877" lon="-19.44927597"><ele>508.9</ele><time>2012-07-21T20:18:04.0000000+00:00</time></trkpt><trkpt lat="64.06864929" lon="-19.44914818"><ele>508.8</ele><time>2012-07-21T20:18:09.0000000+00:00</time></trkpt><trkpt lat="64.06867981" lon="-19.44902992"><ele>508.6</ele><time>2012-07-21T20:18:14.0000000+00:00</time></trkpt><trkpt lat="64.06869507" lon="-19.44888878"><ele>508.6</ele><time>2012-07-21T20:18:19.0000000+00:00</time></trkpt><trkpt lat="64.06871796" lon="-19.44878006"><ele>508.7</ele><time>2012-07-21T20:18:24.0000000+00:00</time></trkpt><trkpt lat="64.06873322" lon="-19.44869614"><ele>508.3</ele><time>2012-07-21T20:18:29.0000000+00:00</time></trkpt><trkpt lat="64.06874085" lon="-19.44861031"><ele>508.6</ele><time>2012-07-21T20:18:34.0000000+00:00</time></trkpt><trkpt lat="64.06874847" lon="-19.44854927"><ele>508.7</ele><time>2012-07-21T20:18:39.0000000+00:00</time></trkpt><trkpt lat="64.0687561" lon="-19.44846344"><ele>508.6</ele><time>2012-07-21T20:18:44.0000000+00:00</time></trkpt><trkpt lat="64.06877899" lon="-19.44836235"><ele>508.6</ele><time>2012-07-21T20:18:49.0000000+00:00</time></trkpt><trkpt lat="64.06879425" lon="-19.44827652"><ele>508.8</ele><time>2012-07-21T20:18:54.0000000+00:00</time></trkpt><trkpt lat="64.06879425" lon="-19.44828796"><ele>508.8</ele><time>2012-07-21T20:18:59.0000000+00:00</time></trkpt><trkpt lat="64.06878662" lon="-19.44829178"><ele>508.8</ele><time>2012-07-21T20:19:04.0000000+00:00</time></trkpt><trkpt lat="64.06879425" lon="-19.44828224"><ele>508.7</ele><time>2012-07-21T20:19:09.0000000+00:00</time></trkpt><trkpt lat="64.06880188" lon="-19.44821358"><ele>508.6</ele><time>2012-07-21T20:19:14.0000000+00:00</time></trkpt><trkpt lat="64.06880951" lon="-19.44809914"><ele>508.3</ele><time>2012-07-21T20:19:19.0000000+00:00</time></trkpt><trkpt lat="64.06881714" lon="-19.44795799"><ele>507.6</ele><time>2012-07-21T20:19:24.0000000+00:00</time></trkpt><trkpt lat="64.06884003" lon="-19.44782066"><ele>507.9</ele><time>2012-07-21T20:19:29.0000000+00:00</time></trkpt><trkpt lat="64.06885529" lon="-19.44767952"><ele>508.1</ele><time>2012-07-21T20:19:34.0000000+00:00</time></trkpt><trkpt lat="64.0688858" lon="-19.44752693"><ele>508.4</ele><time>2012-07-21T20:19:39.0000000+00:00</time></trkpt><trkpt lat="64.06890869" lon="-19.44734764"><ele>508.5</ele><time>2012-07-21T20:19:44.0000000+00:00</time></trkpt><trkpt lat="64.06893158" lon="-19.44719887"><ele>508.7</ele><time>2012-07-21T20:19:49.0000000+00:00</time></trkpt><trkpt lat="64.06894684" lon="-19.44704628"><ele>509.0</ele><time>2012-07-21T20:19:54.0000000+00:00</time></trkpt><trkpt lat="64.06896973" lon="-19.44690895"><ele>509.4</ele><time>2012-07-21T20:19:59.0000000+00:00</time></trkpt><trkpt lat="64.06899262" lon="-19.44675827"><ele>509.9</ele><time>2012-07-21T20:20:04.0000000+00:00</time></trkpt><trkpt lat="64.0690155" lon="-19.44663429"><ele>510.3</ele><time>2012-07-21T20:20:09.0000000+00:00</time></trkpt><trkpt lat="64.06903839" lon="-19.44652176"><ele>510.5</ele><time>2012-07-21T20:20:14.0000000+00:00</time></trkpt><trkpt lat="64.06906891" lon="-19.44639778"><ele>511.1</ele><time>2012-07-21T20:20:19.0000000+00:00</time></trkpt><trkpt lat="64.0690918" lon="-19.44627571"><ele>511.4</ele><time>2012-07-21T20:20:24.0000000+00:00</time></trkpt><trkpt lat="64.06910706" lon="-19.44613266"><ele>511.4</ele><time>2012-07-21T20:20:29.0000000+00:00</time></trkpt><trkpt lat="64.06912231" lon="-19.44598198"><ele>511.6</ele><time>2012-07-21T20:20:34.0000000+00:00</time></trkpt><trkpt lat="64.0691452" lon="-19.44584656"><ele>511.1</ele><time>2012-07-21T20:20:39.0000000+00:00</time></trkpt><trkpt lat="64.06915283" lon="-19.44570732"><ele>511.2</ele><time>2012-07-21T20:20:44.0000000+00:00</time></trkpt><trkpt lat="64.06916046" lon="-19.44557381"><ele>510.6</ele><time>2012-07-21T20:20:49.0000000+00:00</time></trkpt><trkpt lat="64.06915283" lon="-19.44541168"><ele>511.4</ele><time>2012-07-21T20:20:54.0000000+00:00</time></trkpt><trkpt lat="64.06915283" lon="-19.44526291"><ele>512.1</ele><time>2012-07-21T20:20:59.0000000+00:00</time></trkpt><trkpt lat="64.06915283" lon="-19.44510841"><ele>513.2</ele><time>2012-07-21T20:21:04.0000000+00:00</time></trkpt><trkpt lat="64.06916046" lon="-19.4449482"><ele>513.7</ele><time>2012-07-21T20:21:09.0000000+00:00</time></trkpt><trkpt lat="64.06916809" lon="-19.44480324"><ele>514.5</ele><time>2012-07-21T20:21:14.0000000+00:00</time></trkpt><trkpt lat="64.06917572" lon="-19.44463348"><ele>515.2</ele><time>2012-07-21T20:21:19.0000000+00:00</time></trkpt><trkpt lat="64.06919098" lon="-19.44457054"><ele>515.4</ele><time>2012-07-21T20:21:24.0000000+00:00</time></trkpt><trkpt lat="64.06921387" lon="-19.44433212"><ele>514.7</ele><time>2012-07-21T20:21:29.0000000+00:00</time></trkpt><trkpt lat="64.06922913" lon="-19.44408226"><ele>514.8</ele><time>2012-07-21T20:21:34.0000000+00:00</time></trkpt><trkpt lat="64.06925964" lon="-19.44386482"><ele>515.3</ele><time>2012-07-21T20:21:39.0000000+00:00</time></trkpt><trkpt lat="64.0692749" lon="-19.44378662"><ele>514.4</ele><time>2012-07-21T20:21:44.0000000+00:00</time></trkpt><trkpt lat="64.06929779" lon="-19.44363976"><ele>514.3</ele><time>2012-07-21T20:21:49.0000000+00:00</time></trkpt><trkpt lat="64.06932068" lon="-19.44344711"><ele>514.6</ele><time>2012-07-21T20:21:54.0000000+00:00</time></trkpt><trkpt lat="64.06934357" lon="-19.4432621"><ele>515.0</ele><time>2012-07-21T20:21:59.0000000+00:00</time></trkpt><trkpt lat="64.06936646" lon="-19.44305801"><ele>515.4</ele><time>2012-07-21T20:22:04.0000000+00:00</time></trkpt><trkpt lat="64.06937408" lon="-19.44290161"><ele>515.6</ele><time>2012-07-21T20:22:09.0000000+00:00</time></trkpt><trkpt lat="64.06938934" lon="-19.4427166"><ele>516.4</ele><time>2012-07-21T20:22:14.0000000+00:00</time></trkpt><trkpt lat="64.0694046" lon="-19.44257546"><ele>516.8</ele><time>2012-07-21T20:22:19.0000000+00:00</time></trkpt><trkpt lat="64.06941223" lon="-19.4424305"><ele>517.2</ele><time>2012-07-21T20:22:24.0000000+00:00</time></trkpt><trkpt lat="64.06941986" lon="-19.44228554"><ele>517.5</ele><time>2012-07-21T20:22:29.0000000+00:00</time></trkpt><trkpt lat="64.06942749" lon="-19.44210815"><ele>517.7</ele><time>2012-07-21T20:22:34.0000000+00:00</time></trkpt><trkpt lat="64.06945038" lon="-19.44194603"><ele>518.2</ele><time>2012-07-21T20:22:39.0000000+00:00</time></trkpt><trkpt lat="64.06945801" lon="-19.44179153"><ele>518.7</ele><time>2012-07-21T20:22:44.0000000+00:00</time></trkpt><trkpt lat="64.06943512" lon="-19.44164848"><ele>519.0</ele><time>2012-07-21T20:22:49.0000000+00:00</time></trkpt><trkpt lat="64.06941986" lon="-19.4414959"><ele>519.0</ele><time>2012-07-21T20:22:54.0000000+00:00</time></trkpt><trkpt lat="64.0694046" lon="-19.44132805"><ele>519.6</ele><time>2012-07-21T20:22:59.0000000+00:00</time></trkpt><trkpt lat="64.0694046" lon="-19.44113922"><ele>520.1</ele><time>2012-07-21T20:23:04.0000000+00:00</time></trkpt><trkpt lat="64.06942749" lon="-19.44096947"><ele>519.4</ele><time>2012-07-21T20:23:09.0000000+00:00</time></trkpt><trkpt lat="64.06945801" lon="-19.44080353"><ele>518.9</ele><time>2012-07-21T20:23:14.0000000+00:00</time></trkpt><trkpt lat="64.06945038" lon="-19.4406414"><ele>518.9</ele><time>2012-07-21T20:23:19.0000000+00:00</time></trkpt><trkpt lat="64.06946564" lon="-19.44047356"><ele>518.3</ele><time>2012-07-21T20:23:24.0000000+00:00</time></trkpt><trkpt lat="64.06948853" lon="-19.44027138"><ele>518.2</ele><time>2012-07-21T20:23:29.0000000+00:00</time></trkpt><trkpt lat="64.06951141" lon="-19.44012833"><ele>519.0</ele><time>2012-07-21T20:23:34.0000000+00:00</time></trkpt><trkpt lat="64.0695343" lon="-19.43996239"><ele>518.6</ele><time>2012-07-21T20:23:39.0000000+00:00</time></trkpt><trkpt lat="64.06955719" lon="-19.43980789"><ele>518.8</ele><time>2012-07-21T20:23:44.0000000+00:00</time></trkpt><trkpt lat="64.06955719" lon="-19.43957901"><ele>518.9</ele><time>2012-07-21T20:23:49.0000000+00:00</time></trkpt><trkpt lat="64.06954956" lon="-19.43935013"><ele>518.9</ele><time>2012-07-21T20:23:54.0000000+00:00</time></trkpt><trkpt lat="64.06954193" lon="-19.43909264"><ele>518.3</ele><time>2012-07-21T20:23:59.0000000+00:00</time></trkpt><trkpt lat="64.06952667" lon="-19.43882179"><ele>517.8</ele><time>2012-07-21T20:24:04.0000000+00:00</time></trkpt><trkpt lat="64.06950378" lon="-19.43859482"><ele>517.7</ele><time>2012-07-21T20:24:09.0000000+00:00</time></trkpt><trkpt lat="64.06950378" lon="-19.43834686"><ele>517.5</ele><time>2012-07-21T20:24:14.0000000+00:00</time></trkpt><trkpt lat="64.06951141" lon="-19.43811607"><ele>517.3</ele><time>2012-07-21T20:24:19.0000000+00:00</time></trkpt><trkpt lat="64.06952667" lon="-19.43788719"><ele>517.0</ele><time>2012-07-21T20:24:24.0000000+00:00</time></trkpt><trkpt lat="64.0695343" lon="-19.4376545"><ele>516.5</ele><time>2012-07-21T20:24:29.0000000+00:00</time></trkpt><trkpt lat="64.06954956" lon="-19.43741036"><ele>516.3</ele><time>2012-07-21T20:24:34.0000000+00:00</time></trkpt><trkpt lat="64.06955719" lon="-19.43715286"><ele>515.5</ele><time>2012-07-21T20:24:39.0000000+00:00</time></trkpt><trkpt lat="64.06955719" lon="-19.43685913"><ele>514.9</ele><time>2012-07-21T20:24:44.0000000+00:00</time></trkpt><trkpt lat="64.06955719" lon="-19.43657112"><ele>514.7</ele><time>2012-07-21T20:24:49.0000000+00:00</time></trkpt><trkpt lat="64.06955719" lon="-19.43627739"><ele>514.5</ele><time>2012-07-21T20:24:54.0000000+00:00</time></trkpt><trkpt lat="64.06956482" lon="-19.4359932"><ele>514.4</ele><time>2012-07-21T20:24:59.0000000+00:00</time></trkpt><trkpt lat="64.06955719" lon="-19.43574524"><ele>514.3</ele><time>2012-07-21T20:25:04.0000000+00:00</time></trkpt><trkpt lat="64.06954956" lon="-19.43551064"><ele>514.5</ele><time>2012-07-21T20:25:09.0000000+00:00</time></trkpt><trkpt lat="64.06954956" lon="-19.43526077"><ele>514.5</ele><time>2012-07-21T20:25:14.0000000+00:00</time></trkpt><trkpt lat="64.06954193" lon="-19.4349823"><ele>514.5</ele><time>2012-07-21T20:25:19.0000000+00:00</time></trkpt><trkpt lat="64.06952667" lon="-19.43471146"><ele>514.1</ele><time>2012-07-21T20:25:24.0000000+00:00</time></trkpt><trkpt lat="64.06951904" lon="-19.43451309"><ele>514.2</ele><time>2012-07-21T20:25:29.0000000+00:00</time></trkpt><trkpt lat="64.06950378" lon="-19.43434143"><ele>514.6</ele><time>2012-07-21T20:25:34.0000000+00:00</time></trkpt><trkpt lat="64.06948853" lon="-19.43416214"><ele>514.7</ele><time>2012-07-21T20:25:39.0000000+00:00</time></trkpt><trkpt lat="64.06947327" lon="-19.43399048"><ele>514.4</ele><time>2012-07-21T20:25:44.0000000+00:00</time></trkpt><trkpt lat="64.06945801" lon="-19.43379402"><ele>514.3</ele><time>2012-07-21T20:25:49.0000000+00:00</time></trkpt><trkpt lat="64.06946564" lon="-19.43360329"><ele>513.8</ele><time>2012-07-21T20:25:54.0000000+00:00</time></trkpt><trkpt lat="64.06947327" lon="-19.43339539"><ele>513.9</ele><time>2012-07-21T20:25:59.0000000+00:00</time></trkpt><trkpt lat="64.06951141" lon="-19.43321228"><ele>514.0</ele><time>2012-07-21T20:26:04.0000000+00:00</time></trkpt><trkpt lat="64.06954193" lon="-19.43297386"><ele>513.5</ele><time>2012-07-21T20:26:09.0000000+00:00</time></trkpt><trkpt lat="64.06957245" lon="-19.43273735"><ele>512.9</ele><time>2012-07-21T20:26:14.0000000+00:00</time></trkpt><trkpt lat="64.06958771" lon="-19.43253899"><ele>512.6</ele><time>2012-07-21T20:26:19.0000000+00:00</time></trkpt><trkpt lat="64.06962585" lon="-19.43235207"><ele>512.4</ele><time>2012-07-21T20:26:24.0000000+00:00</time></trkpt><trkpt lat="64.06967163" lon="-19.43217659"><ele>512.4</ele><time>2012-07-21T20:26:29.0000000+00:00</time></trkpt><trkpt lat="64.06970215" lon="-19.43195343"><ele>511.6</ele><time>2012-07-21T20:26:34.0000000+00:00</time></trkpt><trkpt lat="64.06973267" lon="-19.43176842"><ele>511.2</ele><time>2012-07-21T20:26:39.0000000+00:00</time></trkpt><trkpt lat="64.06977081" lon="-19.43155479"><ele>510.7</ele><time>2012-07-21T20:26:44.0000000+00:00</time></trkpt><trkpt lat="64.06982422" lon="-19.43133736"><ele>510.3</ele><time>2012-07-21T20:26:49.0000000+00:00</time></trkpt><trkpt lat="64.06988525" lon="-19.43109894"><ele>510.0</ele><time>2012-07-21T20:26:54.0000000+00:00</time></trkpt><trkpt lat="64.06995392" lon="-19.43087578"><ele>510.0</ele><time>2012-07-21T20:26:59.0000000+00:00</time></trkpt><trkpt lat="64.07002258" lon="-19.43064117"><ele>509.5</ele><time>2012-07-21T20:27:04.0000000+00:00</time></trkpt><trkpt lat="64.07006836" lon="-19.43046761"><ele>509.1</ele><time>2012-07-21T20:27:09.0000000+00:00</time></trkpt><trkpt lat="64.0701294" lon="-19.43028259"><ele>509.1</ele><time>2012-07-21T20:27:14.0000000+00:00</time></trkpt><trkpt lat="64.07017517" lon="-19.43008995"><ele>509.4</ele><time>2012-07-21T20:27:19.0000000+00:00</time></trkpt><trkpt lat="64.07022858" lon="-19.42990112"><ele>509.3</ele><time>2012-07-21T20:27:24.0000000+00:00</time></trkpt><trkpt lat="64.07026672" lon="-19.42972374"><ele>509.6</ele><time>2012-07-21T20:27:29.0000000+00:00</time></trkpt><trkpt lat="64.07032013" lon="-19.42950249"><ele>509.7</ele><time>2012-07-21T20:27:34.0000000+00:00</time></trkpt><trkpt lat="64.07034302" lon="-19.42930603"><ele>509.2</ele><time>2012-07-21T20:27:39.0000000+00:00</time></trkpt><trkpt lat="64.07036591" lon="-19.4290905"><ele>508.3</ele><time>2012-07-21T20:27:44.0000000+00:00</time></trkpt><trkpt lat="64.07041168" lon="-19.4288559"><ele>507.8</ele><time>2012-07-21T20:27:49.0000000+00:00</time></trkpt><trkpt lat="64.07044983" lon="-19.42862129"><ele>507.8</ele><time>2012-07-21T20:27:54.0000000+00:00</time></trkpt><trkpt lat="64.07047272" lon="-19.42844582"><ele>507.5</ele><time>2012-07-21T20:27:59.0000000+00:00</time></trkpt><trkpt lat="64.07048798" lon="-19.42825508"><ele>507.0</ele><time>2012-07-21T20:28:04.0000000+00:00</time></trkpt><trkpt lat="64.07049561" lon="-19.42807388"><ele>507.1</ele><time>2012-07-21T20:28:09.0000000+00:00</time></trkpt><trkpt lat="64.07051086" lon="-19.42787361"><ele>507.3</ele><time>2012-07-21T20:28:14.0000000+00:00</time></trkpt><trkpt lat="64.07051849" lon="-19.42768288"><ele>506.3</ele><time>2012-07-21T20:28:19.0000000+00:00</time></trkpt><trkpt lat="64.07053375" lon="-19.42749786"><ele>506.5</ele><time>2012-07-21T20:28:24.0000000+00:00</time></trkpt><trkpt lat="64.07054138" lon="-19.42731476"><ele>507.2</ele><time>2012-07-21T20:28:29.0000000+00:00</time></trkpt><trkpt lat="64.07054901" lon="-19.42716789"><ele>507.5</ele><time>2012-07-21T20:28:34.0000000+00:00</time></trkpt><trkpt lat="64.07055664" lon="-19.42701149"><ele>507.1</ele><time>2012-07-21T20:28:39.0000000+00:00</time></trkpt><trkpt lat="64.07056427" lon="-19.4268322"><ele>507.2</ele><time>2012-07-21T20:28:44.0000000+00:00</time></trkpt><trkpt lat="64.0705719" lon="-19.42663002"><ele>507.4</ele><time>2012-07-21T20:28:49.0000000+00:00</time></trkpt><trkpt lat="64.07057953" lon="-19.42639732"><ele>507.0</ele><time>2012-07-21T20:28:54.0000000+00:00</time></trkpt><trkpt lat="64.0705719" lon="-19.42619705"><ele>506.4</ele><time>2012-07-21T20:28:59.0000000+00:00</time></trkpt><trkpt lat="64.0705719" lon="-19.42612839"><ele>506.9</ele><time>2012-07-21T20:29:04.0000000+00:00</time></trkpt><trkpt lat="64.07060242" lon="-19.4259758"><ele>507.1</ele><time>2012-07-21T20:29:09.0000000+00:00</time></trkpt><trkpt lat="64.07059479" lon="-19.42577171"><ele>506.8</ele><time>2012-07-21T20:29:14.0000000+00:00</time></trkpt><trkpt lat="64.07060242" lon="-19.42557526"><ele>506.6</ele><time>2012-07-21T20:29:19.0000000+00:00</time></trkpt><trkpt lat="64.07061005" lon="-19.42536354"><ele>506.0</ele><time>2012-07-21T20:29:24.0000000+00:00</time></trkpt><trkpt lat="64.07062531" lon="-19.42515183"><ele>505.6</ele><time>2012-07-21T20:29:29.0000000+00:00</time></trkpt><trkpt lat="64.07064056" lon="-19.42491722"><ele>505.5</ele><time>2012-07-21T20:29:34.0000000+00:00</time></trkpt><trkpt lat="64.07066345" lon="-19.42472839"><ele>504.6</ele><time>2012-07-21T20:29:39.0000000+00:00</time></trkpt><trkpt lat="64.07067108" lon="-19.4245224"><ele>503.6</ele><time>2012-07-21T20:29:44.0000000+00:00</time></trkpt><trkpt lat="64.07069397" lon="-19.42430115"><ele>503.7</ele><time>2012-07-21T20:29:49.0000000+00:00</time></trkpt><trkpt lat="64.07070923" lon="-19.42407799"><ele>503.5</ele><time>2012-07-21T20:29:54.0000000+00:00</time></trkpt><trkpt lat="64.07072449" lon="-19.42389679"><ele>503.3</ele><time>2012-07-21T20:29:59.0000000+00:00</time></trkpt><trkpt lat="64.07073212" lon="-19.42365837"><ele>502.9</ele><time>2012-07-21T20:30:04.0000000+00:00</time></trkpt><trkpt lat="64.07073975" lon="-19.42344475"><ele>502.3</ele><time>2012-07-21T20:30:09.0000000+00:00</time></trkpt><trkpt lat="64.07073212" lon="-19.42325401"><ele>502.1</ele><time>2012-07-21T20:30:14.0000000+00:00</time></trkpt><trkpt lat="64.07070923" lon="-19.42307091"><ele>502.7</ele><time>2012-07-21T20:30:19.0000000+00:00</time></trkpt><trkpt lat="64.07067871" lon="-19.42290306"><ele>502.6</ele><time>2012-07-21T20:30:24.0000000+00:00</time></trkpt><trkpt lat="64.07064819" lon="-19.42278481"><ele>503.6</ele><time>2012-07-21T20:30:29.0000000+00:00</time></trkpt><trkpt lat="64.07064819" lon="-19.42279244"><ele>504.2</ele><time>2012-07-21T20:30:34.0000000+00:00</time></trkpt><trkpt lat="64.07064056" lon="-19.42276573"><ele>504.3</ele><time>2012-07-21T20:30:39.0000000+00:00</time></trkpt><trkpt lat="64.07063294" lon="-19.42272759"><ele>504.5</ele><time>2012-07-21T20:30:44.0000000+00:00</time></trkpt><trkpt lat="64.07059479" lon="-19.42265129"><ele>505.0</ele><time>2012-07-21T20:30:49.0000000+00:00</time></trkpt><trkpt lat="64.07055664" lon="-19.42259979"><ele>506.2</ele><time>2012-07-21T20:30:54.0000000+00:00</time></trkpt><trkpt lat="64.07052612" lon="-19.42255402"><ele>507.0</ele><time>2012-07-21T20:30:59.0000000+00:00</time></trkpt><trkpt lat="64.07049561" lon="-19.42250633"><ele>507.8</ele><time>2012-07-21T20:31:04.0000000+00:00</time></trkpt><trkpt lat="64.07045746" lon="-19.42246628"><ele>507.6</ele><time>2012-07-21T20:31:09.0000000+00:00</time></trkpt><trkpt lat="64.07042694" lon="-19.42240334"><ele>507.3</ele><time>2012-07-21T20:31:14.0000000+00:00</time></trkpt><trkpt lat="64.07040405" lon="-19.42235756"><ele>507.5</ele><time>2012-07-21T20:31:19.0000000+00:00</time></trkpt><trkpt lat="64.07038117" lon="-19.42232513"><ele>507.1</ele><time>2012-07-21T20:31:24.0000000+00:00</time></trkpt><trkpt lat="64.07035065" lon="-19.42226982"><ele>506.0</ele><time>2012-07-21T20:31:29.0000000+00:00</time></trkpt><trkpt lat="64.07032013" lon="-19.42218971"><ele>506.8</ele><time>2012-07-21T20:31:34.0000000+00:00</time></trkpt><trkpt lat="64.07027435" lon="-19.42209435"><ele>507.0</ele><time>2012-07-21T20:31:39.0000000+00:00</time></trkpt><trkpt lat="64.07023621" lon="-19.42200851"><ele>507.0</ele><time>2012-07-21T20:31:44.0000000+00:00</time></trkpt><trkpt lat="64.07019806" lon="-19.42192078"><ele>507.9</ele><time>2012-07-21T20:31:49.0000000+00:00</time></trkpt><trkpt lat="64.07016754" lon="-19.42184258"><ele>508.8</ele><time>2012-07-21T20:31:54.0000000+00:00</time></trkpt><trkpt lat="64.0701294" lon="-19.42176247"><ele>509.7</ele><time>2012-07-21T20:31:59.0000000+00:00</time></trkpt><trkpt lat="64.07010651" lon="-19.42168427"><ele>510.2</ele><time>2012-07-21T20:32:04.0000000+00:00</time></trkpt><trkpt lat="64.07007599" lon="-19.42163277"><ele>510.2</ele><time>2012-07-21T20:32:09.0000000+00:00</time></trkpt><trkpt lat="64.07004547" lon="-19.42154503"><ele>511.3</ele><time>2012-07-21T20:32:14.0000000+00:00</time></trkpt><trkpt lat="64.07002258" lon="-19.42143059"><ele>511.9</ele><time>2012-07-21T20:32:19.0000000+00:00</time></trkpt><trkpt lat="64.0699997" lon="-19.42133331"><ele>512.3</ele><time>2012-07-21T20:32:24.0000000+00:00</time></trkpt><trkpt lat="64.06997681" lon="-19.42122269"><ele>512.4</ele><time>2012-07-21T20:32:29.0000000+00:00</time></trkpt><trkpt lat="64.06994629" lon="-19.42112541"><ele>513.6</ele><time>2012-07-21T20:32:34.0000000+00:00</time></trkpt><trkpt lat="64.06993103" lon="-19.42102432"><ele>514.0</ele><time>2012-07-21T20:32:39.0000000+00:00</time></trkpt><trkpt lat="64.06990814" lon="-19.42093658"><ele>514.2</ele><time>2012-07-21T20:32:44.0000000+00:00</time></trkpt><trkpt lat="64.06987763" lon="-19.42085075"><ele>514.2</ele><time>2012-07-21T20:32:49.0000000+00:00</time></trkpt><trkpt lat="64.06985474" lon="-19.42077637"><ele>514.5</ele><time>2012-07-21T20:32:54.0000000+00:00</time></trkpt><trkpt lat="64.06981659" lon="-19.42071915"><ele>515.1</ele><time>2012-07-21T20:32:59.0000000+00:00</time></trkpt><trkpt lat="64.06978607" lon="-19.42063141"><ele>516.1</ele><time>2012-07-21T20:33:04.0000000+00:00</time></trkpt><trkpt lat="64.06972504" lon="-19.42053413"><ele>511.7</ele><time>2012-07-21T20:33:09.0000000+00:00</time></trkpt><trkpt lat="64.069664" lon="-19.42048264"><ele>511.4</ele><time>2012-07-21T20:33:14.0000000+00:00</time></trkpt><trkpt lat="64.06961823" lon="-19.42042351"><ele>511.2</ele><time>2012-07-21T20:33:19.0000000+00:00</time></trkpt><trkpt lat="64.06955719" lon="-19.42034721"><ele>510.3</ele><time>2012-07-21T20:33:24.0000000+00:00</time></trkpt><trkpt lat="64.06950378" lon="-19.42026329"><ele>509.4</ele><time>2012-07-21T20:33:29.0000000+00:00</time></trkpt><trkpt lat="64.06945801" lon="-19.42014885"><ele>508.9</ele><time>2012-07-21T20:33:34.0000000+00:00</time></trkpt><trkpt lat="64.06941986" lon="-19.42003441"><ele>508.7</ele><time>2012-07-21T20:33:39.0000000+00:00</time></trkpt><trkpt lat="64.06937408" lon="-19.41993332"><ele>505.7</ele><time>2012-07-21T20:33:44.0000000+00:00</time></trkpt><trkpt lat="64.06932831" lon="-19.41981506"><ele>505.5</ele><time>2012-07-21T20:33:49.0000000+00:00</time></trkpt><trkpt lat="64.06932068" lon="-19.41976738"><ele>506.5</ele><time>2012-07-21T20:33:54.0000000+00:00</time></trkpt><trkpt lat="64.06932068" lon="-19.41976929"><ele>506.5</ele><time>2012-07-21T20:33:59.0000000+00:00</time></trkpt><trkpt lat="64.06932068" lon="-19.41976929"><ele>506.5</ele><time>2012-07-21T20:34:04.0000000+00:00</time></trkpt><trkpt lat="64.06932068" lon="-19.41976929"><ele>506.5</ele><time>2012-07-21T20:34:09.0000000+00:00</time></trkpt><trkpt lat="64.06932068" lon="-19.41976929"><ele>506.5</ele><time>2012-07-21T20:34:14.0000000+00:00</time></trkpt><trkpt lat="64.06932068" lon="-19.41976929"><ele>506.5</ele><time>2012-07-21T20:34:19.0000000+00:00</time></trkpt><trkpt lat="64.06932068" lon="-19.41976929"><ele>506.6</ele><time>2012-07-21T20:34:24.0000000+00:00</time></trkpt><trkpt lat="64.06932068" lon="-19.41976929"><ele>506.6</ele><time>2012-07-21T20:34:29.0000000+00:00</time></trkpt><trkpt lat="64.06932831" lon="-19.41976929"><ele>506.6</ele><time>2012-07-21T20:34:34.0000000+00:00</time></trkpt><trkpt lat="64.06932831" lon="-19.41976929"><ele>506.7</ele><time>2012-07-21T20:34:39.0000000+00:00</time></trkpt><trkpt lat="64.06932831" lon="-19.41977119"><ele>506.6</ele><time>2012-07-21T20:34:44.0000000+00:00</time></trkpt><trkpt lat="64.06932831" lon="-19.41976738"><ele>506.7</ele><time>2012-07-21T20:34:49.0000000+00:00</time></trkpt><trkpt lat="64.06932068" lon="-19.41975975"><ele>506.9</ele><time>2012-07-21T20:34:54.0000000+00:00</time></trkpt><trkpt lat="64.06929016" lon="-19.41966248"><ele>507.5</ele><time>2012-07-21T20:34:59.0000000+00:00</time></trkpt><trkpt lat="64.06925964" lon="-19.41956329"><ele>507.5</ele><time>2012-07-21T20:35:04.0000000+00:00</time></trkpt><trkpt lat="64.06923676" lon="-19.41950035"><ele>508.5</ele><time>2012-07-21T20:35:09.0000000+00:00</time></trkpt><trkpt lat="64.06919098" lon="-19.41932488"><ele>508.8</ele><time>2012-07-21T20:35:14.0000000+00:00</time></trkpt><trkpt lat="64.06912994" lon="-19.41921425"><ele>509.1</ele><time>2012-07-21T20:35:19.0000000+00:00</time></trkpt><trkpt lat="64.06907654" lon="-19.41908836"><ele>508.9</ele><time>2012-07-21T20:35:24.0000000+00:00</time></trkpt><trkpt lat="64.0690155" lon="-19.41898346"><ele>509.1</ele><time>2012-07-21T20:35:29.0000000+00:00</time></trkpt><trkpt lat="64.06895447" lon="-19.41885757"><ele>508.8</ele><time>2012-07-21T20:35:34.0000000+00:00</time></trkpt><trkpt lat="64.06889343" lon="-19.41874695"><ele>509.1</ele><time>2012-07-21T20:35:39.0000000+00:00</time></trkpt><trkpt lat="64.06884766" lon="-19.41859818"><ele>509.9</ele><time>2012-07-21T20:35:44.0000000+00:00</time></trkpt><trkpt lat="64.06879425" lon="-19.41843605"><ele>510.5</ele><time>2012-07-21T20:35:49.0000000+00:00</time></trkpt><trkpt lat="64.06877136" lon="-19.41824532"><ele>509.8</ele><time>2012-07-21T20:35:54.0000000+00:00</time></trkpt><trkpt lat="64.06876373" lon="-19.4180336"><ele>508.1</ele><time>2012-07-21T20:35:59.0000000+00:00</time></trkpt><trkpt lat="64.06874847" lon="-19.41774559"><ele>507.5</ele><time>2012-07-21T20:36:04.0000000+00:00</time></trkpt><trkpt lat="64.0687561" lon="-19.4174614"><ele>508.1</ele><time>2012-07-21T20:36:09.0000000+00:00</time></trkpt><trkpt lat="64.06874085" lon="-19.417202"><ele>508.6</ele><time>2012-07-21T20:36:14.0000000+00:00</time></trkpt><trkpt lat="64.06873322" lon="-19.41690445"><ele>508.2</ele><time>2012-07-21T20:36:19.0000000+00:00</time></trkpt><trkpt lat="64.06871033" lon="-19.41664505"><ele>507.6</ele><time>2012-07-21T20:36:24.0000000+00:00</time></trkpt><trkpt lat="64.06867981" lon="-19.41650963"><ele>507.4</ele><time>2012-07-21T20:36:29.0000000+00:00</time></trkpt><trkpt lat="64.06865692" lon="-19.41635513"><ele>507.6</ele><time>2012-07-21T20:36:34.0000000+00:00</time></trkpt><trkpt lat="64.06860352" lon="-19.41621208"><ele>508.1</ele><time>2012-07-21T20:36:39.0000000+00:00</time></trkpt><trkpt lat="64.06856537" lon="-19.41612625"><ele>508.4</ele><time>2012-07-21T20:36:44.0000000+00:00</time></trkpt><trkpt lat="64.06851959" lon="-19.41600609"><ele>508.8</ele><time>2012-07-21T20:36:49.0000000+00:00</time></trkpt><trkpt lat="64.06847382" lon="-19.41592789"><ele>508.6</ele><time>2012-07-21T20:36:54.0000000+00:00</time></trkpt><trkpt lat="64.0684433" lon="-19.41581345"><ele>508.3</ele><time>2012-07-21T20:36:59.0000000+00:00</time></trkpt><trkpt lat="64.06839752" lon="-19.41569138"><ele>508.6</ele><time>2012-07-21T20:37:04.0000000+00:00</time></trkpt><trkpt lat="64.06835175" lon="-19.41557884"><ele>509.1</ele><time>2012-07-21T20:37:09.0000000+00:00</time></trkpt><trkpt lat="64.06829071" lon="-19.41544342"><ele>508.7</ele><time>2012-07-21T20:37:14.0000000+00:00</time></trkpt><trkpt lat="64.06824493" lon="-19.41531372"><ele>508.9</ele><time>2012-07-21T20:37:19.0000000+00:00</time></trkpt><trkpt lat="64.06819153" lon="-19.41520309"><ele>509.0</ele><time>2012-07-21T20:37:24.0000000+00:00</time></trkpt><trkpt lat="64.06815338" lon="-19.41508675"><ele>509.3</ele><time>2012-07-21T20:37:29.0000000+00:00</time></trkpt><trkpt lat="64.06812286" lon="-19.41502762"><ele>509.0</ele><time>2012-07-21T20:37:34.0000000+00:00</time></trkpt><trkpt lat="64.06812286" lon="-19.41502762"><ele>508.9</ele><time>2012-07-21T20:37:39.0000000+00:00</time></trkpt><trkpt lat="64.06812286" lon="-19.41502762"><ele>508.9</ele><time>2012-07-21T20:37:44.0000000+00:00</time></trkpt><trkpt lat="64.06812286" lon="-19.41502953"><ele>508.9</ele><time>2012-07-21T20:37:49.0000000+00:00</time></trkpt><trkpt lat="64.06812286" lon="-19.41502953"><ele>509.0</ele><time>2012-07-21T20:37:54.0000000+00:00</time></trkpt><trkpt lat="64.06812286" lon="-19.41502953"><ele>508.9</ele><time>2012-07-21T20:37:59.0000000+00:00</time></trkpt><trkpt lat="64.06812286" lon="-19.41502953"><ele>508.9</ele><time>2012-07-21T20:38:04.0000000+00:00</time></trkpt><trkpt lat="64.06812286" lon="-19.41503143"><ele>508.8</ele><time>2012-07-21T20:38:09.0000000+00:00</time></trkpt><trkpt lat="64.06812286" lon="-19.41503906"><ele>509.0</ele><time>2012-07-21T20:38:14.0000000+00:00</time></trkpt><trkpt lat="64.06812286" lon="-19.41503716"><ele>508.8</ele><time>2012-07-21T20:38:19.0000000+00:00</time></trkpt><trkpt lat="64.06812286" lon="-19.41502762"><ele>508.8</ele><time>2012-07-21T20:38:24.0000000+00:00</time></trkpt><trkpt lat="64.06810761" lon="-19.41496849"><ele>509.5</ele><time>2012-07-21T20:38:29.0000000+00:00</time></trkpt><trkpt lat="64.06809235" lon="-19.41491318"><ele>509.0</ele><time>2012-07-21T20:38:34.0000000+00:00</time></trkpt><trkpt lat="64.06806946" lon="-19.41483116"><ele>508.6</ele><time>2012-07-21T20:38:39.0000000+00:00</time></trkpt><trkpt lat="64.06803894" lon="-19.41472626"><ele>508.6</ele><time>2012-07-21T20:38:44.0000000+00:00</time></trkpt><trkpt lat="64.06803131" lon="-19.41466522"><ele>508.3</ele><time>2012-07-21T20:38:49.0000000+00:00</time></trkpt><trkpt lat="64.06800842" lon="-19.41460419"><ele>508.5</ele><time>2012-07-21T20:38:54.0000000+00:00</time></trkpt><trkpt lat="64.06798554" lon="-19.41452026"><ele>509.2</ele><time>2012-07-21T20:38:59.0000000+00:00</time></trkpt><trkpt lat="64.06797028" lon="-19.41444206"><ele>509.3</ele><time>2012-07-21T20:39:04.0000000+00:00</time></trkpt><trkpt lat="64.06794739" lon="-19.41435814"><ele>509.4</ele><time>2012-07-21T20:39:09.0000000+00:00</time></trkpt><trkpt lat="64.0679245" lon="-19.41427231"><ele>509.4</ele><time>2012-07-21T20:39:14.0000000+00:00</time></trkpt><trkpt lat="64.06791687" lon="-19.4141674"><ele>509.5</ele><time>2012-07-21T20:39:19.0000000+00:00</time></trkpt><trkpt lat="64.06789398" lon="-19.41407394"><ele>509.5</ele><time>2012-07-21T20:39:24.0000000+00:00</time></trkpt><trkpt lat="64.06787872" lon="-19.41398048"><ele>509.5</ele><time>2012-07-21T20:39:29.0000000+00:00</time></trkpt><trkpt lat="64.06786346" lon="-19.41388321"><ele>509.2</ele><time>2012-07-21T20:39:34.0000000+00:00</time></trkpt><trkpt lat="64.06784058" lon="-19.41381455"><ele>508.8</ele><time>2012-07-21T20:39:39.0000000+00:00</time></trkpt><trkpt lat="64.06783295" lon="-19.41373825"><ele>508.0</ele><time>2012-07-21T20:39:44.0000000+00:00</time></trkpt><trkpt lat="64.06782532" lon="-19.41365624"><ele>508.1</ele><time>2012-07-21T20:39:49.0000000+00:00</time></trkpt><trkpt lat="64.0677948" lon="-19.41348648"><ele>507.9</ele><time>2012-07-21T20:39:54.0000000+00:00</time></trkpt><trkpt lat="64.06776428" lon="-19.41327667"><ele>507.8</ele><time>2012-07-21T20:39:59.0000000+00:00</time></trkpt><trkpt lat="64.06773377" lon="-19.41311455"><ele>507.0</ele><time>2012-07-21T20:40:04.0000000+00:00</time></trkpt><trkpt lat="64.06770325" lon="-19.41294289"><ele>506.9</ele><time>2012-07-21T20:40:09.0000000+00:00</time></trkpt><trkpt lat="64.06767273" lon="-19.4127121"><ele>505.9</ele><time>2012-07-21T20:40:14.0000000+00:00</time></trkpt><trkpt lat="64.0676651" lon="-19.4124527"><ele>504.5</ele><time>2012-07-21T20:40:19.0000000+00:00</time></trkpt><trkpt lat="64.0676651" lon="-19.41224098"><ele>503.7</ele><time>2012-07-21T20:40:24.0000000+00:00</time></trkpt><trkpt lat="64.06767273" lon="-19.41199875"><ele>503.2</ele><time>2012-07-21T20:40:29.0000000+00:00</time></trkpt><trkpt lat="64.06768799" lon="-19.41173172"><ele>503.2</ele><time>2012-07-21T20:40:34.0000000+00:00</time></trkpt><trkpt lat="64.06768799" lon="-19.41147041"><ele>503.2</ele><time>2012-07-21T20:40:39.0000000+00:00</time></trkpt><trkpt lat="64.06771088" lon="-19.41126442"><ele>503.6</ele><time>2012-07-21T20:40:44.0000000+00:00</time></trkpt><trkpt lat="64.06772614" lon="-19.41109848"><ele>503.3</ele><time>2012-07-21T20:40:49.0000000+00:00</time></trkpt><trkpt lat="64.06772614" lon="-19.41091728"><ele>503.8</ele><time>2012-07-21T20:40:54.0000000+00:00</time></trkpt><trkpt lat="64.06774139" lon="-19.41073036"><ele>504.0</ele><time>2012-07-21T20:40:59.0000000+00:00</time></trkpt><trkpt lat="64.06775665" lon="-19.410532"><ele>504.0</ele><time>2012-07-21T20:41:04.0000000+00:00</time></trkpt><trkpt lat="64.06776428" lon="-19.41033554"><ele>504.1</ele><time>2012-07-21T20:41:09.0000000+00:00</time></trkpt><trkpt lat="64.06777191" lon="-19.4101429"><ele>504.2</ele><time>2012-07-21T20:41:14.0000000+00:00</time></trkpt><trkpt lat="64.06778717" lon="-19.40996361"><ele>504.5</ele><time>2012-07-21T20:41:19.0000000+00:00</time></trkpt><trkpt lat="64.06780243" lon="-19.40979004"><ele>504.3</ele><time>2012-07-21T20:41:24.0000000+00:00</time></trkpt><trkpt lat="64.06780243" lon="-19.40961456"><ele>504.4</ele><time>2012-07-21T20:41:29.0000000+00:00</time></trkpt><trkpt lat="64.06780243" lon="-19.4094429"><ele>504.6</ele><time>2012-07-21T20:41:34.0000000+00:00</time></trkpt><trkpt lat="64.06781769" lon="-19.40937424"><ele>505.5</ele><time>2012-07-21T20:41:39.0000000+00:00</time></trkpt><trkpt lat="64.06781769" lon="-19.40937996"><ele>505.5</ele><time>2012-07-21T20:41:44.0000000+00:00</time></trkpt><trkpt lat="64.06781769" lon="-19.40937805"><ele>506.0</ele><time>2012-07-21T20:41:49.0000000+00:00</time></trkpt><trkpt lat="64.06781769" lon="-19.40937424"><ele>505.9</ele><time>2012-07-21T20:41:54.0000000+00:00</time></trkpt><trkpt lat="64.06781769" lon="-19.40937424"><ele>505.9</ele><time>2012-07-21T20:41:59.0000000+00:00</time></trkpt><trkpt lat="64.06781769" lon="-19.40936661"><ele>505.8</ele><time>2012-07-21T20:42:04.0000000+00:00</time></trkpt><trkpt lat="64.06781769" lon="-19.40936852"><ele>505.8</ele><time>2012-07-21T20:42:09.0000000+00:00</time></trkpt><trkpt lat="64.06781769" lon="-19.40936852"><ele>505.8</ele><time>2012-07-21T20:42:14.0000000+00:00</time></trkpt><trkpt lat="64.06781769" lon="-19.40936661"><ele>505.8</ele><time>2012-07-21T20:42:19.0000000+00:00</time></trkpt><trkpt lat="64.06781769" lon="-19.40922737"><ele>505.9</ele><time>2012-07-21T20:42:24.0000000+00:00</time></trkpt><trkpt lat="64.06781769" lon="-19.4091053"><ele>505.8</ele><time>2012-07-21T20:42:29.0000000+00:00</time></trkpt><trkpt lat="64.06781769" lon="-19.40900612"><ele>506.0</ele><time>2012-07-21T20:42:34.0000000+00:00</time></trkpt><trkpt lat="64.06781769" lon="-19.40890312"><ele>506.0</ele><time>2012-07-21T20:42:39.0000000+00:00</time></trkpt><trkpt lat="64.06781769" lon="-19.40881538"><ele>506.2</ele><time>2012-07-21T20:42:44.0000000+00:00</time></trkpt><trkpt lat="64.06781006" lon="-19.40869522"><ele>506.1</ele><time>2012-07-21T20:42:49.0000000+00:00</time></trkpt><trkpt lat="64.06781769" lon="-19.40856552"><ele>505.8</ele><time>2012-07-21T20:42:54.0000000+00:00</time></trkpt><trkpt lat="64.06781769" lon="-19.40844154"><ele>505.3</ele><time>2012-07-21T20:42:59.0000000+00:00</time></trkpt><trkpt lat="64.06782532" lon="-19.40830612"><ele>505.3</ele><time>2012-07-21T20:43:04.0000000+00:00</time></trkpt><trkpt lat="64.06781769" lon="-19.40827751"><ele>505.4</ele><time>2012-07-21T20:43:09.0000000+00:00</time></trkpt><trkpt lat="64.06781006" lon="-19.40814018"><ele>505.4</ele><time>2012-07-21T20:43:14.0000000+00:00</time></trkpt><trkpt lat="64.06780243" lon="-19.40802193"><ele>505.4</ele><time>2012-07-21T20:43:19.0000000+00:00</time></trkpt><trkpt lat="64.0677948" lon="-19.40788269"><ele>505.7</ele><time>2012-07-21T20:43:24.0000000+00:00</time></trkpt><trkpt lat="64.06777954" lon="-19.40774727"><ele>506.3</ele><time>2012-07-21T20:43:29.0000000+00:00</time></trkpt><trkpt lat="64.06778717" lon="-19.40761185"><ele>506.3</ele><time>2012-07-21T20:43:34.0000000+00:00</time></trkpt><trkpt lat="64.06777954" lon="-19.40748787"><ele>506.0</ele><time>2012-07-21T20:43:39.0000000+00:00</time></trkpt><trkpt lat="64.06777954" lon="-19.40735245"><ele>505.7</ele><time>2012-07-21T20:43:44.0000000+00:00</time></trkpt><trkpt lat="64.06777954" lon="-19.40723801"><ele>505.1</ele><time>2012-07-21T20:43:49.0000000+00:00</time></trkpt><trkpt lat="64.06778717" lon="-19.4071331"><ele>504.6</ele><time>2012-07-21T20:43:54.0000000+00:00</time></trkpt><trkpt lat="64.0677948" lon="-19.40701103"><ele>504.2</ele><time>2012-07-21T20:43:59.0000000+00:00</time></trkpt><trkpt lat="64.06781006" lon="-19.4068737"><ele>503.9</ele><time>2012-07-21T20:44:04.0000000+00:00</time></trkpt><trkpt lat="64.06781006" lon="-19.40672112"><ele>503.7</ele><time>2012-07-21T20:44:09.0000000+00:00</time></trkpt><trkpt lat="64.06781006" lon="-19.40663147"><ele>504.1</ele><time>2012-07-21T20:44:14.0000000+00:00</time></trkpt><trkpt lat="64.06781769" lon="-19.40650368"><ele>504.1</ele><time>2012-07-21T20:44:19.0000000+00:00</time></trkpt><trkpt lat="64.06783295" lon="-19.40636826"><ele>504.0</ele><time>2012-07-21T20:44:24.0000000+00:00</time></trkpt><trkpt lat="64.06784058" lon="-19.40623856"><ele>504.1</ele><time>2012-07-21T20:44:29.0000000+00:00</time></trkpt><trkpt lat="64.06785584" lon="-19.40608788"><ele>504.3</ele><time>2012-07-21T20:44:34.0000000+00:00</time></trkpt><trkpt lat="64.06786346" lon="-19.40595818"><ele>504.4</ele><time>2012-07-21T20:44:39.0000000+00:00</time></trkpt><trkpt lat="64.06786346" lon="-19.40583992"><ele>505.0</ele><time>2012-07-21T20:44:44.0000000+00:00</time></trkpt><trkpt lat="64.06786346" lon="-19.40579987"><ele>505.0</ele><time>2012-07-21T20:44:49.0000000+00:00</time></trkpt><trkpt lat="64.06786346" lon="-19.40572548"><ele>505.3</ele><time>2012-07-21T20:44:54.0000000+00:00</time></trkpt><trkpt lat="64.06785584" lon="-19.40559959"><ele>505.2</ele><time>2012-07-21T20:44:59.0000000+00:00</time></trkpt><trkpt lat="64.06784058" lon="-19.4054966"><ele>505.5</ele><time>2012-07-21T20:45:04.0000000+00:00</time></trkpt><trkpt lat="64.06783295" lon="-19.40539742"><ele>505.9</ele><time>2012-07-21T20:45:09.0000000+00:00</time></trkpt><trkpt lat="64.06781006" lon="-19.40529251"><ele>506.1</ele><time>2012-07-21T20:45:14.0000000+00:00</time></trkpt><trkpt lat="64.0677948" lon="-19.40517044"><ele>506.7</ele><time>2012-07-21T20:45:19.0000000+00:00</time></trkpt><trkpt lat="64.06776428" lon="-19.40509415"><ele>506.8</ele><time>2012-07-21T20:45:24.0000000+00:00</time></trkpt><trkpt lat="64.06774139" lon="-19.40502548"><ele>507.0</ele><time>2012-07-21T20:45:29.0000000+00:00</time></trkpt><trkpt lat="64.06774139" lon="-19.40501404"><ele>506.7</ele><time>2012-07-21T20:45:34.0000000+00:00</time></trkpt><trkpt lat="64.06774139" lon="-19.40501404"><ele>506.7</ele><time>2012-07-21T20:45:39.0000000+00:00</time></trkpt><trkpt lat="64.06774139" lon="-19.40503693"><ele>506.9</ele><time>2012-07-21T20:45:44.0000000+00:00</time></trkpt><trkpt lat="64.06774139" lon="-19.40503693"><ele>506.8</ele><time>2012-07-21T20:45:49.0000000+00:00</time></trkpt><trkpt lat="64.06774139" lon="-19.40503693"><ele>506.7</ele><time>2012-07-21T20:45:54.0000000+00:00</time></trkpt><trkpt lat="64.06774139" lon="-19.40503693"><ele>506.8</ele><time>2012-07-21T20:45:59.0000000+00:00</time></trkpt><trkpt lat="64.06774139" lon="-19.40503693"><ele>506.8</ele><time>2012-07-21T20:46:04.0000000+00:00</time></trkpt><trkpt lat="64.06774139" lon="-19.40503502"><ele>506.8</ele><time>2012-07-21T20:46:09.0000000+00:00</time></trkpt><trkpt lat="64.06774139" lon="-19.40503502"><ele>506.8</ele><time>2012-07-21T20:46:14.0000000+00:00</time></trkpt><trkpt lat="64.06774139" lon="-19.40503311"><ele>506.7</ele><time>2012-07-21T20:46:19.0000000+00:00</time></trkpt><trkpt lat="64.06771088" lon="-19.40499687"><ele>506.9</ele><time>2012-07-21T20:46:24.0000000+00:00</time></trkpt><trkpt lat="64.06771088" lon="-19.40499115"><ele>506.6</ele><time>2012-07-21T20:46:29.0000000+00:00</time></trkpt><trkpt lat="64.06771088" lon="-19.40499306"><ele>506.5</ele><time>2012-07-21T20:46:34.0000000+00:00</time></trkpt><trkpt lat="64.06771088" lon="-19.40499497"><ele>506.5</ele><time>2012-07-21T20:46:39.0000000+00:00</time></trkpt><trkpt lat="64.06771088" lon="-19.40499497"><ele>506.5</ele><time>2012-07-21T20:46:44.0000000+00:00</time></trkpt><trkpt lat="64.06768036" lon="-19.40493774"><ele>506.7</ele><time>2012-07-21T20:46:49.0000000+00:00</time></trkpt><trkpt lat="64.06764221" lon="-19.40487099"><ele>507.1</ele><time>2012-07-21T20:46:54.0000000+00:00</time></trkpt><trkpt lat="64.06759644" lon="-19.40483856"><ele>507.3</ele><time>2012-07-21T20:46:59.0000000+00:00</time></trkpt><trkpt lat="64.06755829" lon="-19.4047699"><ele>507.6</ele><time>2012-07-21T20:47:04.0000000+00:00</time></trkpt><trkpt lat="64.06755829" lon="-19.40476799"><ele>507.8</ele><time>2012-07-21T20:47:09.0000000+00:00</time></trkpt><trkpt lat="64.0675354" lon="-19.40473366"><ele>507.8</ele><time>2012-07-21T20:47:14.0000000+00:00</time></trkpt><trkpt lat="64.067482" lon="-19.40465355"><ele>507.0</ele><time>2012-07-21T20:47:19.0000000+00:00</time></trkpt><trkpt lat="64.06742096" lon="-19.40457726"><ele>506.3</ele><time>2012-07-21T20:47:24.0000000+00:00</time></trkpt><trkpt lat="64.06737518" lon="-19.40451431"><ele>505.6</ele><time>2012-07-21T20:47:29.0000000+00:00</time></trkpt><trkpt lat="64.06731415" lon="-19.40443993"><ele>505.2</ele><time>2012-07-21T20:47:34.0000000+00:00</time></trkpt><trkpt lat="64.06726074" lon="-19.40435219"><ele>504.8</ele><time>2012-07-21T20:47:39.0000000+00:00</time></trkpt><trkpt lat="64.06719971" lon="-19.4042511"><ele>504.6</ele><time>2012-07-21T20:47:44.0000000+00:00</time></trkpt><trkpt lat="64.0671463" lon="-19.40416145"><ele>504.5</ele><time>2012-07-21T20:47:49.0000000+00:00</time></trkpt><trkpt lat="64.06711578" lon="-19.40407562"><ele>504.0</ele><time>2012-07-21T20:47:54.0000000+00:00</time></trkpt><trkpt lat="64.06707764" lon="-19.4039917"><ele>504.0</ele><time>2012-07-21T20:47:59.0000000+00:00</time></trkpt><trkpt lat="64.06704712" lon="-19.40386009"><ele>504.8</ele><time>2012-07-21T20:48:04.0000000+00:00</time></trkpt><trkpt lat="64.0670166" lon="-19.40373039"><ele>504.8</ele><time>2012-07-21T20:48:09.0000000+00:00</time></trkpt><trkpt lat="64.06698608" lon="-19.40361595"><ele>504.8</ele><time>2012-07-21T20:48:14.0000000+00:00</time></trkpt><trkpt lat="64.0669632" lon="-19.40346909"><ele>505.7</ele><time>2012-07-21T20:48:19.0000000+00:00</time></trkpt><trkpt lat="64.06694031" lon="-19.40334129"><ele>506.1</ele><time>2012-07-21T20:48:24.0000000+00:00</time></trkpt><trkpt lat="64.06690979" lon="-19.40321541"><ele>506.0</ele><time>2012-07-21T20:48:29.0000000+00:00</time></trkpt><trkpt lat="64.06687927" lon="-19.40309334"><ele>506.1</ele><time>2012-07-21T20:48:34.0000000+00:00</time></trkpt><trkpt lat="64.06686401" lon="-19.40297508"><ele>506.0</ele><time>2012-07-21T20:48:39.0000000+00:00</time></trkpt><trkpt lat="64.0668335" lon="-19.4028759"><ele>504.3</ele><time>2012-07-21T20:48:44.0000000+00:00</time></trkpt><trkpt lat="64.0668335" lon="-19.40286827"><ele>504.3</ele><time>2012-07-21T20:48:49.0000000+00:00</time></trkpt><trkpt lat="64.0668335" lon="-19.40286446"><ele>504.3</ele><time>2012-07-21T20:48:54.0000000+00:00</time></trkpt><trkpt lat="64.06681061" lon="-19.40276718"><ele>504.3</ele><time>2012-07-21T20:48:59.0000000+00:00</time></trkpt><trkpt lat="64.06679535" lon="-19.4026165"><ele>504.3</ele><time>2012-07-21T20:49:04.0000000+00:00</time></trkpt><trkpt lat="64.06678009" lon="-19.40246773"><ele>504.3</ele><time>2012-07-21T20:49:09.0000000+00:00</time></trkpt><trkpt lat="64.06677246" lon="-19.40232277"><ele>504.4</ele><time>2012-07-21T20:49:14.0000000+00:00</time></trkpt><trkpt lat="64.0667572" lon="-19.40217972"><ele>504.0</ele><time>2012-07-21T20:49:19.0000000+00:00</time></trkpt><trkpt lat="64.06674194" lon="-19.40203476"><ele>504.5</ele><time>2012-07-21T20:49:24.0000000+00:00</time></trkpt><trkpt lat="64.06674194" lon="-19.40188599"><ele>504.4</ele><time>2012-07-21T20:49:29.0000000+00:00</time></trkpt><trkpt lat="64.06673431" lon="-19.40175057"><ele>505.0</ele><time>2012-07-21T20:49:34.0000000+00:00</time></trkpt><trkpt lat="64.06672669" lon="-19.40160561"><ele>505.1</ele><time>2012-07-21T20:49:39.0000000+00:00</time></trkpt><trkpt lat="64.06671906" lon="-19.40146446"><ele>505.0</ele><time>2012-07-21T20:49:44.0000000+00:00</time></trkpt><trkpt lat="64.06671143" lon="-19.40133286"><ele>505.2</ele><time>2012-07-21T20:49:49.0000000+00:00</time></trkpt><trkpt lat="64.0667038" lon="-19.40133286"><ele>505.2</ele><time>2012-07-21T20:49:54.0000000+00:00</time></trkpt><trkpt lat="64.0667038" lon="-19.40128899"><ele>505.6</ele><time>2012-07-21T20:49:59.0000000+00:00</time></trkpt><trkpt lat="64.06669617" lon="-19.40118027"><ele>505.6</ele><time>2012-07-21T20:50:04.0000000+00:00</time></trkpt><trkpt lat="64.06668854" lon="-19.40104675"><ele>506.4</ele><time>2012-07-21T20:50:09.0000000+00:00</time></trkpt><trkpt lat="64.06668091" lon="-19.40093422"><ele>506.7</ele><time>2012-07-21T20:50:14.0000000+00:00</time></trkpt><trkpt lat="64.06666565" lon="-19.40081596"><ele>507.0</ele><time>2012-07-21T20:50:19.0000000+00:00</time></trkpt><trkpt lat="64.06665802" lon="-19.40076256"><ele>507.6</ele><time>2012-07-21T20:50:24.0000000+00:00</time></trkpt><trkpt lat="64.06665039" lon="-19.40069008"><ele>507.8</ele><time>2012-07-21T20:50:29.0000000+00:00</time></trkpt><trkpt lat="64.06663513" lon="-19.40060043"><ele>508.4</ele><time>2012-07-21T20:50:34.0000000+00:00</time></trkpt><trkpt lat="64.0666275" lon="-19.4004879"><ele>508.8</ele><time>2012-07-21T20:50:39.0000000+00:00</time></trkpt><trkpt lat="64.06661224" lon="-19.40038109"><ele>509.1</ele><time>2012-07-21T20:50:44.0000000+00:00</time></trkpt><trkpt lat="64.06661224" lon="-19.40028572"><ele>509.5</ele><time>2012-07-21T20:50:49.0000000+00:00</time></trkpt><trkpt lat="64.06658936" lon="-19.40015793"><ele>509.6</ele><time>2012-07-21T20:50:54.0000000+00:00</time></trkpt><trkpt lat="64.06658936" lon="-19.40003204"><ele>509.5</ele><time>2012-07-21T20:50:59.0000000+00:00</time></trkpt><trkpt lat="64.06658173" lon="-19.39992142"><ele>509.5</ele><time>2012-07-21T20:51:04.0000000+00:00</time></trkpt><trkpt lat="64.06658173" lon="-19.39991951"><ele>509.4</ele><time>2012-07-21T20:51:09.0000000+00:00</time></trkpt><trkpt lat="64.06656647" lon="-19.39979744"><ele>509.9</ele><time>2012-07-21T20:51:14.0000000+00:00</time></trkpt><trkpt lat="64.06655121" lon="-19.39967537"><ele>509.8</ele><time>2012-07-21T20:51:19.0000000+00:00</time></trkpt><trkpt lat="64.06653595" lon="-19.39957428"><ele>509.9</ele><time>2012-07-21T20:51:24.0000000+00:00</time></trkpt><trkpt lat="64.06652069" lon="-19.3994484"><ele>510.4</ele><time>2012-07-21T20:51:29.0000000+00:00</time></trkpt><trkpt lat="64.06650543" lon="-19.39932442"><ele>510.9</ele><time>2012-07-21T20:51:34.0000000+00:00</time></trkpt><trkpt lat="64.06648254" lon="-19.39920235"><ele>511.3</ele><time>2012-07-21T20:51:39.0000000+00:00</time></trkpt><trkpt lat="64.06645966" lon="-19.39909172"><ele>512.1</ele><time>2012-07-21T20:51:44.0000000+00:00</time></trkpt><trkpt lat="64.06643677" lon="-19.39900971"><ele>511.6</ele><time>2012-07-21T20:51:49.0000000+00:00</time></trkpt><trkpt lat="64.06641388" lon="-19.39892197"><ele>511.7</ele><time>2012-07-21T20:51:54.0000000+00:00</time></trkpt><trkpt lat="64.06639862" lon="-19.39883232"><ele>512.0</ele><time>2012-07-21T20:51:59.0000000+00:00</time></trkpt><trkpt lat="64.06637573" lon="-19.39873886"><ele>512.7</ele><time>2012-07-21T20:52:04.0000000+00:00</time></trkpt><trkpt lat="64.0663681" lon="-19.39872932"><ele>513.9</ele><time>2012-07-21T20:52:09.0000000+00:00</time></trkpt><trkpt lat="64.0663681" lon="-19.39873314"><ele>513.8</ele><time>2012-07-21T20:52:14.0000000+00:00</time></trkpt><trkpt lat="64.06636047" lon="-19.39871979"><ele>513.8</ele><time>2012-07-21T20:52:19.0000000+00:00</time></trkpt><trkpt lat="64.06634522" lon="-19.39866447"><ele>513.6</ele><time>2012-07-21T20:52:24.0000000+00:00</time></trkpt><trkpt lat="64.06632996" lon="-19.39857674"><ele>513.2</ele><time>2012-07-21T20:52:29.0000000+00:00</time></trkpt><trkpt lat="64.06630707" lon="-19.39847374"><ele>513.5</ele><time>2012-07-21T20:52:34.0000000+00:00</time></trkpt><trkpt lat="64.06629181" lon="-19.39836311"><ele>514.5</ele><time>2012-07-21T20:52:39.0000000+00:00</time></trkpt><trkpt lat="64.06626129" lon="-19.39825821"><ele>515.0</ele><time>2012-07-21T20:52:44.0000000+00:00</time></trkpt><trkpt lat="64.0662384" lon="-19.39813995"><ele>515.9</ele><time>2012-07-21T20:52:49.0000000+00:00</time></trkpt><trkpt lat="64.06623077" lon="-19.39803696"><ele>517.8</ele><time>2012-07-21T20:52:54.0000000+00:00</time></trkpt><trkpt lat="64.06621552" lon="-19.39797401"><ele>518.2</ele><time>2012-07-21T20:52:59.0000000+00:00</time></trkpt><trkpt lat="64.06619263" lon="-19.39787102"><ele>518.5</ele><time>2012-07-21T20:53:04.0000000+00:00</time></trkpt><trkpt lat="64.06617737" lon="-19.39779282"><ele>518.4</ele><time>2012-07-21T20:53:09.0000000+00:00</time></trkpt><trkpt lat="64.06617737" lon="-19.39780426"><ele>518.2</ele><time>2012-07-21T20:53:14.0000000+00:00</time></trkpt><trkpt lat="64.06616211" lon="-19.39772797"><ele>519.0</ele><time>2012-07-21T20:53:19.0000000+00:00</time></trkpt><trkpt lat="64.06614685" lon="-19.39763451"><ele>519.6</ele><time>2012-07-21T20:53:24.0000000+00:00</time></trkpt><trkpt lat="64.06613159" lon="-19.39754105"><ele>519.4</ele><time>2012-07-21T20:53:29.0000000+00:00</time></trkpt><trkpt lat="64.06612396" lon="-19.39744568"><ele>519.9</ele><time>2012-07-21T20:53:34.0000000+00:00</time></trkpt><trkpt lat="64.06610107" lon="-19.39735794"><ele>521.1</ele><time>2012-07-21T20:53:39.0000000+00:00</time></trkpt><trkpt lat="64.06607819" lon="-19.39724731"><ele>521.3</ele><time>2012-07-21T20:53:44.0000000+00:00</time></trkpt><trkpt lat="64.06604767" lon="-19.39714432"><ele>522.2</ele><time>2012-07-21T20:53:49.0000000+00:00</time></trkpt><trkpt lat="64.06603241" lon="-19.39702606"><ele>522.0</ele><time>2012-07-21T20:53:54.0000000+00:00</time></trkpt><trkpt lat="64.06601715" lon="-19.39694595"><ele>521.6</ele><time>2012-07-21T20:53:59.0000000+00:00</time></trkpt><trkpt lat="64.06599426" lon="-19.39686585"><ele>521.6</ele><time>2012-07-21T20:54:04.0000000+00:00</time></trkpt><trkpt lat="64.065979" lon="-19.39678192"><ele>521.5</ele><time>2012-07-21T20:54:09.0000000+00:00</time></trkpt><trkpt lat="64.065979" lon="-19.39669228"><ele>521.3</ele><time>2012-07-21T20:54:14.0000000+00:00</time></trkpt><trkpt lat="64.06596375" lon="-19.39660645"><ele>520.8</ele><time>2012-07-21T20:54:19.0000000+00:00</time></trkpt><trkpt lat="64.06595612" lon="-19.39649773"><ele>521.5</ele><time>2012-07-21T20:54:24.0000000+00:00</time></trkpt><trkpt lat="64.06596375" lon="-19.39637375"><ele>521.5</ele><time>2012-07-21T20:54:29.0000000+00:00</time></trkpt><trkpt lat="64.06597138" lon="-19.39627838"><ele>521.1</ele><time>2012-07-21T20:54:34.0000000+00:00</time></trkpt><trkpt lat="64.06596375" lon="-19.39614677"><ele>521.3</ele><time>2012-07-21T20:54:39.0000000+00:00</time></trkpt><trkpt lat="64.06596375" lon="-19.39604378"><ele>521.8</ele><time>2012-07-21T20:54:44.0000000+00:00</time></trkpt><trkpt lat="64.06597138" lon="-19.39604378"><ele>521.8</ele><time>2012-07-21T20:54:49.0000000+00:00</time></trkpt><trkpt lat="64.06597138" lon="-19.39604569"><ele>521.8</ele><time>2012-07-21T20:54:54.0000000+00:00</time></trkpt><trkpt lat="64.065979" lon="-19.39600372"><ele>521.8</ele><time>2012-07-21T20:54:59.0000000+00:00</time></trkpt><trkpt lat="64.06598663" lon="-19.39588547"><ele>522.2</ele><time>2012-07-21T20:55:04.0000000+00:00</time></trkpt><trkpt lat="64.06598663" lon="-19.39575958"><ele>522.8</ele><time>2012-07-21T20:55:09.0000000+00:00</time></trkpt><trkpt lat="64.06599426" lon="-19.39562607"><ele>522.8</ele><time>2012-07-21T20:55:14.0000000+00:00</time></trkpt><trkpt lat="64.06600189" lon="-19.39559555"><ele>522.3</ele><time>2012-07-21T20:55:19.0000000+00:00</time></trkpt><trkpt lat="64.06600189" lon="-19.39559746"><ele>522.3</ele><time>2012-07-21T20:55:24.0000000+00:00</time></trkpt><trkpt lat="64.06600189" lon="-19.39559746"><ele>523.2</ele><time>2012-07-21T20:55:29.0000000+00:00</time></trkpt><trkpt lat="64.06600189" lon="-19.39559746"><ele>523.2</ele><time>2012-07-21T20:55:34.0000000+00:00</time></trkpt><trkpt lat="64.06600189" lon="-19.39559746"><ele>523.1</ele><time>2012-07-21T20:55:39.0000000+00:00</time></trkpt><trkpt lat="64.06600189" lon="-19.39559746"><ele>523.1</ele><time>2012-07-21T20:55:44.0000000+00:00</time></trkpt><trkpt lat="64.06600189" lon="-19.39559746"><ele>523.1</ele><time>2012-07-21T20:55:49.0000000+00:00</time></trkpt><trkpt lat="64.06600189" lon="-19.39559746"><ele>523.1</ele><time>2012-07-21T20:55:54.0000000+00:00</time></trkpt><trkpt lat="64.06600189" lon="-19.39559746"><ele>523.1</ele><time>2012-07-21T20:55:59.0000000+00:00</time></trkpt><trkpt lat="64.06600189" lon="-19.39559746"><ele>523.1</ele><time>2012-07-21T20:56:04.0000000+00:00</time></trkpt><trkpt lat="64.06600189" lon="-19.39559746"><ele>523.1</ele><time>2012-07-21T20:56:09.0000000+00:00</time></trkpt><trkpt lat="64.06600189" lon="-19.39559746"><ele>523.1</ele><time>2012-07-21T20:56:14.0000000+00:00</time></trkpt><trkpt lat="64.06600189" lon="-19.39559555"><ele>522.9</ele><time>2012-07-21T20:56:19.0000000+00:00</time></trkpt><trkpt lat="64.06600189" lon="-19.3954773"><ele>522.8</ele><time>2012-07-21T20:56:24.0000000+00:00</time></trkpt><trkpt lat="64.06599426" lon="-19.39535904"><ele>522.6</ele><time>2012-07-21T20:56:29.0000000+00:00</time></trkpt><trkpt lat="64.06598663" lon="-19.3952446"><ele>521.8</ele><time>2012-07-21T20:56:34.0000000+00:00</time></trkpt><trkpt lat="64.065979" lon="-19.39511871"><ele>521.4</ele><time>2012-07-21T20:56:39.0000000+00:00</time></trkpt><trkpt lat="64.06596375" lon="-19.39500046"><ele>521.3</ele><time>2012-07-21T20:56:44.0000000+00:00</time></trkpt><trkpt lat="64.06597138" lon="-19.3948555"><ele>522.0</ele><time>2012-07-21T20:56:49.0000000+00:00</time></trkpt><trkpt lat="64.06595612" lon="-19.39473343"><ele>522.6</ele><time>2012-07-21T20:56:54.0000000+00:00</time></trkpt><trkpt lat="64.06594086" lon="-19.3946228"><ele>521.3</ele><time>2012-07-21T20:56:59.0000000+00:00</time></trkpt><trkpt lat="64.06593323" lon="-19.3944931"><ele>521.3</ele><time>2012-07-21T20:57:04.0000000+00:00</time></trkpt><trkpt lat="64.06591797" lon="-19.39438438"><ele>520.5</ele><time>2012-07-21T20:57:09.0000000+00:00</time></trkpt><trkpt lat="64.06590271" lon="-19.39433289"><ele>519.4</ele><time>2012-07-21T20:57:14.0000000+00:00</time></trkpt><trkpt lat="64.06587982" lon="-19.39422607"><ele>518.6</ele><time>2012-07-21T20:57:19.0000000+00:00</time></trkpt><trkpt lat="64.06585693" lon="-19.39415169"><ele>518.2</ele><time>2012-07-21T20:57:24.0000000+00:00</time></trkpt><trkpt lat="64.06584168" lon="-19.39406967"><ele>517.6</ele><time>2012-07-21T20:57:29.0000000+00:00</time></trkpt><trkpt lat="64.06582642" lon="-19.39398003"><ele>516.8</ele><time>2012-07-21T20:57:34.0000000+00:00</time></trkpt><trkpt lat="64.06580353" lon="-19.39388847"><ele>516.2</ele><time>2012-07-21T20:57:39.0000000+00:00</time></trkpt><trkpt lat="64.06578827" lon="-19.39381981"><ele>515.7</ele><time>2012-07-21T20:57:44.0000000+00:00</time></trkpt><trkpt lat="64.06577301" lon="-19.39373398"><ele>515.0</ele><time>2012-07-21T20:57:49.0000000+00:00</time></trkpt><trkpt lat="64.06575012" lon="-19.3936348"><ele>514.8</ele><time>2012-07-21T20:57:54.0000000+00:00</time></trkpt><trkpt lat="64.0657196" lon="-19.39352989"><ele>515.3</ele><time>2012-07-21T20:57:59.0000000+00:00</time></trkpt><trkpt lat="64.06570435" lon="-19.39339829"><ele>514.3</ele><time>2012-07-21T20:58:04.0000000+00:00</time></trkpt><trkpt lat="64.06568909" lon="-19.39329147"><ele>514.8</ele><time>2012-07-21T20:58:09.0000000+00:00</time></trkpt><trkpt lat="64.0656662" lon="-19.39318276"><ele>515.5</ele><time>2012-07-21T20:58:14.0000000+00:00</time></trkpt><trkpt lat="64.06565094" lon="-19.39306641"><ele>515.3</ele><time>2012-07-21T20:58:19.0000000+00:00</time></trkpt><trkpt lat="64.06562805" lon="-19.39295197"><ele>514.6</ele><time>2012-07-21T20:58:24.0000000+00:00</time></trkpt><trkpt lat="64.06560516" lon="-19.39285851"><ele>514.4</ele><time>2012-07-21T20:58:29.0000000+00:00</time></trkpt><trkpt lat="64.06558991" lon="-19.39273071"><ele>514.2</ele><time>2012-07-21T20:58:34.0000000+00:00</time></trkpt><trkpt lat="64.06556702" lon="-19.39264298"><ele>514.1</ele><time>2012-07-21T20:58:39.0000000+00:00</time></trkpt><trkpt lat="64.0655365" lon="-19.39252281"><ele>514.2</ele><time>2012-07-21T20:58:44.0000000+00:00</time></trkpt><trkpt lat="64.06551361" lon="-19.39241219"><ele>514.6</ele><time>2012-07-21T20:58:49.0000000+00:00</time></trkpt><trkpt lat="64.06549072" lon="-19.3923111"><ele>514.6</ele><time>2012-07-21T20:58:54.0000000+00:00</time></trkpt><trkpt lat="64.06546021" lon="-19.39221191"><ele>514.3</ele><time>2012-07-21T20:58:59.0000000+00:00</time></trkpt><trkpt lat="64.06545258" lon="-19.39219856"><ele>514.2</ele><time>2012-07-21T20:59:04.0000000+00:00</time></trkpt><trkpt lat="64.06545258" lon="-19.39220047"><ele>514.1</ele><time>2012-07-21T20:59:09.0000000+00:00</time></trkpt><trkpt lat="64.06542969" lon="-19.39212799"><ele>514.5</ele><time>2012-07-21T20:59:14.0000000+00:00</time></trkpt><trkpt lat="64.0654068" lon="-19.39200783"><ele>514.1</ele><time>2012-07-21T20:59:19.0000000+00:00</time></trkpt><trkpt lat="64.06538391" lon="-19.39190483"><ele>514.0</ele><time>2012-07-21T20:59:24.0000000+00:00</time></trkpt><trkpt lat="64.06535339" lon="-19.39178848"><ele>514.0</ele><time>2012-07-21T20:59:29.0000000+00:00</time></trkpt><trkpt lat="64.06533051" lon="-19.39167404"><ele>513.8</ele><time>2012-07-21T20:59:34.0000000+00:00</time></trkpt><trkpt lat="64.06530762" lon="-19.39157677"><ele>513.9</ele><time>2012-07-21T20:59:39.0000000+00:00</time></trkpt><trkpt lat="64.06528473" lon="-19.39143372"><ele>513.3</ele><time>2012-07-21T20:59:44.0000000+00:00</time></trkpt><trkpt lat="64.06525421" lon="-19.39134026"><ele>513.4</ele><time>2012-07-21T20:59:49.0000000+00:00</time></trkpt><trkpt lat="64.06523132" lon="-19.39124298"><ele>512.8</ele><time>2012-07-21T20:59:54.0000000+00:00</time></trkpt><trkpt lat="64.06521606" lon="-19.39114189"><ele>512.2</ele><time>2012-07-21T20:59:59.0000000+00:00</time></trkpt><trkpt lat="64.06519318" lon="-19.39103317"><ele>512.4</ele><time>2012-07-21T21:00:04.0000000+00:00</time></trkpt><trkpt lat="64.06517029" lon="-19.39094353"><ele>512.3</ele><time>2012-07-21T21:00:09.0000000+00:00</time></trkpt><trkpt lat="64.06513977" lon="-19.39083862"><ele>512.3</ele><time>2012-07-21T21:00:14.0000000+00:00</time></trkpt><trkpt lat="64.06512451" lon="-19.3907299"><ele>512.2</ele><time>2012-07-21T21:00:19.0000000+00:00</time></trkpt><trkpt lat="64.06512451" lon="-19.39069367"><ele>512.1</ele><time>2012-07-21T21:00:24.0000000+00:00</time></trkpt><trkpt lat="64.06512451" lon="-19.39069748"><ele>512.1</ele><time>2012-07-21T21:00:29.0000000+00:00</time></trkpt><trkpt lat="64.06512451" lon="-19.39069748"><ele>512.1</ele><time>2012-07-21T21:00:34.0000000+00:00</time></trkpt><trkpt lat="64.06512451" lon="-19.39069748"><ele>512.1</ele><time>2012-07-21T21:00:39.0000000+00:00</time></trkpt><trkpt lat="64.06512451" lon="-19.39069748"><ele>512.1</ele><time>2012-07-21T21:00:44.0000000+00:00</time></trkpt><trkpt lat="64.06510162" lon="-19.39063835"><ele>512.0</ele><time>2012-07-21T21:00:49.0000000+00:00</time></trkpt><trkpt lat="64.06507111" lon="-19.39051056"><ele>512.9</ele><time>2012-07-21T21:00:54.0000000+00:00</time></trkpt><trkpt lat="64.06504822" lon="-19.39040375"><ele>512.4</ele><time>2012-07-21T21:00:59.0000000+00:00</time></trkpt><trkpt lat="64.06502533" lon="-19.39030838"><ele>512.3</ele><time>2012-07-21T21:01:04.0000000+00:00</time></trkpt><trkpt lat="64.06500244" lon="-19.39019966"><ele>511.6</ele><time>2012-07-21T21:01:09.0000000+00:00</time></trkpt><trkpt lat="64.06498718" lon="-19.39010429"><ele>511.5</ele><time>2012-07-21T21:01:14.0000000+00:00</time></trkpt><trkpt lat="64.06497192" lon="-19.39001274"><ele>511.4</ele><time>2012-07-21T21:01:19.0000000+00:00</time></trkpt><trkpt lat="64.06494904" lon="-19.38990402"><ele>511.6</ele><time>2012-07-21T21:01:24.0000000+00:00</time></trkpt><trkpt lat="64.06493378" lon="-19.38982964"><ele>512.0</ele><time>2012-07-21T21:01:29.0000000+00:00</time></trkpt><trkpt lat="64.06491852" lon="-19.38974571"><ele>511.9</ele><time>2012-07-21T21:01:34.0000000+00:00</time></trkpt><trkpt lat="64.06489563" lon="-19.38966942"><ele>512.0</ele><time>2012-07-21T21:01:39.0000000+00:00</time></trkpt><trkpt lat="64.06488037" lon="-19.38957405"><ele>511.7</ele><time>2012-07-21T21:01:44.0000000+00:00</time></trkpt><trkpt lat="64.06486511" lon="-19.38949204"><ele>511.7</ele><time>2012-07-21T21:01:49.0000000+00:00</time></trkpt><trkpt lat="64.06484222" lon="-19.38940239"><ele>511.9</ele><time>2012-07-21T21:01:54.0000000+00:00</time></trkpt><trkpt lat="64.06482697" lon="-19.38929367"><ele>512.1</ele><time>2012-07-21T21:01:59.0000000+00:00</time></trkpt><trkpt lat="64.06481934" lon="-19.3891983"><ele>511.7</ele><time>2012-07-21T21:02:04.0000000+00:00</time></trkpt><trkpt lat="64.06480408" lon="-19.38913727"><ele>511.8</ele><time>2012-07-21T21:02:09.0000000+00:00</time></trkpt><trkpt lat="64.06478882" lon="-19.38905525"><ele>511.8</ele><time>2012-07-21T21:02:14.0000000+00:00</time></trkpt><trkpt lat="64.06477356" lon="-19.38897133"><ele>511.1</ele><time>2012-07-21T21:02:19.0000000+00:00</time></trkpt><trkpt lat="64.0647583" lon="-19.38886643"><ele>510.9</ele><time>2012-07-21T21:02:24.0000000+00:00</time></trkpt><trkpt lat="64.06474304" lon="-19.38878632"><ele>510.7</ele><time>2012-07-21T21:02:29.0000000+00:00</time></trkpt><trkpt lat="64.06474304" lon="-19.38872528"><ele>511.1</ele><time>2012-07-21T21:02:34.0000000+00:00</time></trkpt><trkpt lat="64.06474304" lon="-19.38872337"><ele>511.5</ele><time>2012-07-21T21:02:39.0000000+00:00</time></trkpt><trkpt lat="64.06474304" lon="-19.38872337"><ele>511.5</ele><time>2012-07-21T21:02:44.0000000+00:00</time></trkpt><trkpt lat="64.06474304" lon="-19.38872337"><ele>511.5</ele><time>2012-07-21T21:02:49.0000000+00:00</time></trkpt><trkpt lat="64.06474304" lon="-19.38872337"><ele>511.5</ele><time>2012-07-21T21:02:54.0000000+00:00</time></trkpt><trkpt lat="64.06474304" lon="-19.38872147"><ele>511.5</ele><time>2012-07-21T21:02:59.0000000+00:00</time></trkpt><trkpt lat="64.06474304" lon="-19.38872147"><ele>511.5</ele><time>2012-07-21T21:03:04.0000000+00:00</time></trkpt><trkpt lat="64.06474304" lon="-19.38872147"><ele>511.5</ele><time>2012-07-21T21:03:09.0000000+00:00</time></trkpt><trkpt lat="64.06473541" lon="-19.38866043"><ele>511.3</ele><time>2012-07-21T21:03:14.0000000+00:00</time></trkpt><trkpt lat="64.06472015" lon="-19.38855553"><ele>511.6</ele><time>2012-07-21T21:03:19.0000000+00:00</time></trkpt><trkpt lat="64.0647049" lon="-19.38844872"><ele>512.0</ele><time>2012-07-21T21:03:24.0000000+00:00</time></trkpt><trkpt lat="64.06469727" lon="-19.38836479"><ele>513.1</ele><time>2012-07-21T21:03:29.0000000+00:00</time></trkpt><trkpt lat="64.06469727" lon="-19.38837433"><ele>513.9</ele><time>2012-07-21T21:03:34.0000000+00:00</time></trkpt><trkpt lat="64.06469727" lon="-19.38837433"><ele>513.9</ele><time>2012-07-21T21:03:39.0000000+00:00</time></trkpt><trkpt lat="64.06469727" lon="-19.38837624"><ele>513.9</ele><time>2012-07-21T21:03:44.0000000+00:00</time></trkpt><trkpt lat="64.06469727" lon="-19.38837624"><ele>513.8</ele><time>2012-07-21T21:03:49.0000000+00:00</time></trkpt><trkpt lat="64.06469727" lon="-19.38837624"><ele>513.8</ele><time>2012-07-21T21:03:54.0000000+00:00</time></trkpt><trkpt lat="64.06469727" lon="-19.38837624"><ele>513.8</ele><time>2012-07-21T21:03:59.0000000+00:00</time></trkpt><trkpt lat="64.06469727" lon="-19.38835526"><ele>513.8</ele><time>2012-07-21T21:04:04.0000000+00:00</time></trkpt><trkpt lat="64.06467438" lon="-19.38829041"><ele>513.3</ele><time>2012-07-21T21:04:09.0000000+00:00</time></trkpt><trkpt lat="64.06466675" lon="-19.38820076"><ele>513.5</ele><time>2012-07-21T21:04:14.0000000+00:00</time></trkpt><trkpt lat="64.06465149" lon="-19.38809204"><ele>513.4</ele><time>2012-07-21T21:04:19.0000000+00:00</time></trkpt><trkpt lat="64.06462097" lon="-19.38798142"><ele>513.3</ele><time>2012-07-21T21:04:24.0000000+00:00</time></trkpt><trkpt lat="64.06461334" lon="-19.38789558"><ele>512.1</ele><time>2012-07-21T21:04:29.0000000+00:00</time></trkpt><trkpt lat="64.06462097" lon="-19.38789368"><ele>512.2</ele><time>2012-07-21T21:04:34.0000000+00:00</time></trkpt><trkpt lat="64.06460571" lon="-19.38783836"><ele>512.0</ele><time>2012-07-21T21:04:39.0000000+00:00</time></trkpt><trkpt lat="64.06459808" lon="-19.38774109"><ele>511.9</ele><time>2012-07-21T21:04:44.0000000+00:00</time></trkpt><trkpt lat="64.0645752" lon="-19.38764572"><ele>511.9</ele><time>2012-07-21T21:04:49.0000000+00:00</time></trkpt><trkpt lat="64.06454468" lon="-19.38753891"><ele>512.0</ele><time>2012-07-21T21:04:54.0000000+00:00</time></trkpt><trkpt lat="64.06452179" lon="-19.3874321"><ele>512.8</ele><time>2012-07-21T21:04:59.0000000+00:00</time></trkpt><trkpt lat="64.06450653" lon="-19.38731194"><ele>512.7</ele><time>2012-07-21T21:05:04.0000000+00:00</time></trkpt><trkpt lat="64.0644989" lon="-19.38717079"><ele>512.6</ele><time>2012-07-21T21:05:09.0000000+00:00</time></trkpt><trkpt lat="64.06451416" lon="-19.38704681"><ele>512.8</ele><time>2012-07-21T21:05:14.0000000+00:00</time></trkpt><trkpt lat="64.06452942" lon="-19.38692856"><ele>512.2</ele><time>2012-07-21T21:05:19.0000000+00:00</time></trkpt><trkpt lat="64.06453705" lon="-19.38683891"><ele>512.0</ele><time>2012-07-21T21:05:24.0000000+00:00</time></trkpt><trkpt lat="64.06453705" lon="-19.38680649"><ele>513.0</ele><time>2012-07-21T21:05:29.0000000+00:00</time></trkpt><trkpt lat="64.06453705" lon="-19.38680649"><ele>513.0</ele><time>2012-07-21T21:05:34.0000000+00:00</time></trkpt><trkpt lat="64.06453705" lon="-19.38680649"><ele>513.0</ele><time>2012-07-21T21:05:39.0000000+00:00</time></trkpt><trkpt lat="64.06453705" lon="-19.38680649"><ele>513.0</ele><time>2012-07-21T21:05:44.0000000+00:00</time></trkpt><trkpt lat="64.06453705" lon="-19.38680649"><ele>513.1</ele><time>2012-07-21T21:05:49.0000000+00:00</time></trkpt><trkpt lat="64.06453705" lon="-19.38681221"><ele>513.2</ele><time>2012-07-21T21:05:54.0000000+00:00</time></trkpt><trkpt lat="64.06453705" lon="-19.38682556"><ele>511.9</ele><time>2012-07-21T21:05:59.0000000+00:00</time></trkpt><trkpt lat="64.06453705" lon="-19.38681412"><ele>512.3</ele><time>2012-07-21T21:06:04.0000000+00:00</time></trkpt><trkpt lat="64.06453705" lon="-19.38681412"><ele>512.3</ele><time>2012-07-21T21:06:09.0000000+00:00</time></trkpt><trkpt lat="64.06453705" lon="-19.38681412"><ele>512.3</ele><time>2012-07-21T21:06:14.0000000+00:00</time></trkpt><trkpt lat="64.06453705" lon="-19.38681221"><ele>512.3</ele><time>2012-07-21T21:06:19.0000000+00:00</time></trkpt><trkpt lat="64.06455231" lon="-19.38669205"><ele>514.3</ele><time>2012-07-21T21:06:24.0000000+00:00</time></trkpt><trkpt lat="64.06459808" lon="-19.38660049"><ele>515.0</ele><time>2012-07-21T21:06:29.0000000+00:00</time></trkpt><trkpt lat="64.0646286" lon="-19.38654137"><ele>515.2</ele><time>2012-07-21T21:06:34.0000000+00:00</time></trkpt><trkpt lat="64.06463623" lon="-19.38651276"><ele>515.6</ele><time>2012-07-21T21:06:39.0000000+00:00</time></trkpt><trkpt lat="64.06466675" lon="-19.38640785"><ele>516.4</ele><time>2012-07-21T21:06:44.0000000+00:00</time></trkpt><trkpt lat="64.06466675" lon="-19.38635445"><ele>517.0</ele><time>2012-07-21T21:06:49.0000000+00:00</time></trkpt><trkpt lat="64.06466675" lon="-19.38636208"><ele>517.6</ele><time>2012-07-21T21:06:54.0000000+00:00</time></trkpt><trkpt lat="64.06466675" lon="-19.38636017"><ele>517.6</ele><time>2012-07-21T21:06:59.0000000+00:00</time></trkpt><trkpt lat="64.06468201" lon="-19.38629341"><ele>517.4</ele><time>2012-07-21T21:07:04.0000000+00:00</time></trkpt><trkpt lat="64.06468201" lon="-19.38628769"><ele>517.1</ele><time>2012-07-21T21:07:09.0000000+00:00</time></trkpt><trkpt lat="64.06468964" lon="-19.38621903"><ele>516.3</ele><time>2012-07-21T21:07:14.0000000+00:00</time></trkpt><trkpt lat="64.06468964" lon="-19.3861351"><ele>516.2</ele><time>2012-07-21T21:07:19.0000000+00:00</time></trkpt><trkpt lat="64.06468964" lon="-19.38603783"><ele>515.6</ele><time>2012-07-21T21:07:24.0000000+00:00</time></trkpt><trkpt lat="64.06468964" lon="-19.38591957"><ele>515.4</ele><time>2012-07-21T21:07:29.0000000+00:00</time></trkpt><trkpt lat="64.06468964" lon="-19.3857975"><ele>515.3</ele><time>2012-07-21T21:07:34.0000000+00:00</time></trkpt><trkpt lat="64.06468201" lon="-19.38567734"><ele>514.9</ele><time>2012-07-21T21:07:39.0000000+00:00</time></trkpt><trkpt lat="64.06468201" lon="-19.38558388"><ele>515.0</ele><time>2012-07-21T21:07:44.0000000+00:00</time></trkpt><trkpt lat="64.06468964" lon="-19.38557816"><ele>516.1</ele><time>2012-07-21T21:07:49.0000000+00:00</time></trkpt><trkpt lat="64.06468964" lon="-19.38557053"><ele>516.5</ele><time>2012-07-21T21:07:54.0000000+00:00</time></trkpt><trkpt lat="64.06468964" lon="-19.38557053"><ele>516.6</ele><time>2012-07-21T21:07:59.0000000+00:00</time></trkpt><trkpt lat="64.06468201" lon="-19.38557243"><ele>516.5</ele><time>2012-07-21T21:08:04.0000000+00:00</time></trkpt><trkpt lat="64.06468964" lon="-19.38555336"><ele>516.5</ele><time>2012-07-21T21:08:09.0000000+00:00</time></trkpt><trkpt lat="64.06468964" lon="-19.38555336"><ele>516.5</ele><time>2012-07-21T21:08:14.0000000+00:00</time></trkpt><trkpt lat="64.06468964" lon="-19.38555336"><ele>516.3</ele><time>2012-07-21T21:08:19.0000000+00:00</time></trkpt><trkpt lat="64.06469727" lon="-19.38548851"><ele>516.1</ele><time>2012-07-21T21:08:24.0000000+00:00</time></trkpt><trkpt lat="64.06469727" lon="-19.38545418"><ele>515.9</ele><time>2012-07-21T21:08:29.0000000+00:00</time></trkpt><trkpt lat="64.06469727" lon="-19.38545609"><ele>515.8</ele><time>2012-07-21T21:08:34.0000000+00:00</time></trkpt><trkpt lat="64.06468964" lon="-19.38537026"><ele>515.5</ele><time>2012-07-21T21:08:39.0000000+00:00</time></trkpt><trkpt lat="64.0647049" lon="-19.38525581"><ele>515.1</ele><time>2012-07-21T21:08:44.0000000+00:00</time></trkpt><trkpt lat="64.06471252" lon="-19.38516998"><ele>515.7</ele><time>2012-07-21T21:08:49.0000000+00:00</time></trkpt><trkpt lat="64.06472015" lon="-19.38516808"><ele>515.7</ele><time>2012-07-21T21:08:54.0000000+00:00</time></trkpt><trkpt lat="64.06472015" lon="-19.38516998"><ele>515.6</ele><time>2012-07-21T21:08:59.0000000+00:00</time></trkpt><trkpt lat="64.06472015" lon="-19.38516998"><ele>515.6</ele><time>2012-07-21T21:09:04.0000000+00:00</time></trkpt><trkpt lat="64.06472015" lon="-19.38516998"><ele>515.6</ele><time>2012-07-21T21:09:09.0000000+00:00</time></trkpt><trkpt lat="64.06472015" lon="-19.38516998"><ele>515.6</ele><time>2012-07-21T21:09:14.0000000+00:00</time></trkpt><trkpt lat="64.06472015" lon="-19.38516998"><ele>515.7</ele><time>2012-07-21T21:09:19.0000000+00:00</time></trkpt><trkpt lat="64.06472015" lon="-19.38516998"><ele>515.7</ele><time>2012-07-21T21:09:24.0000000+00:00</time></trkpt><trkpt lat="64.06474304" lon="-19.38508415"><ele>515.8</ele><time>2012-07-21T21:09:29.0000000+00:00</time></trkpt><trkpt lat="64.0647583" lon="-19.38495255"><ele>516.0</ele><time>2012-07-21T21:09:34.0000000+00:00</time></trkpt><trkpt lat="64.06478882" lon="-19.38485146"><ele>515.8</ele><time>2012-07-21T21:09:39.0000000+00:00</time></trkpt><trkpt lat="64.06480408" lon="-19.38471985"><ele>516.1</ele><time>2012-07-21T21:09:44.0000000+00:00</time></trkpt><trkpt lat="64.0648346" lon="-19.38459206"><ele>516.1</ele><time>2012-07-21T21:09:49.0000000+00:00</time></trkpt><trkpt lat="64.06485748" lon="-19.38448143"><ele>517.4</ele><time>2012-07-21T21:09:54.0000000+00:00</time></trkpt><trkpt lat="64.064888" lon="-19.38440704"><ele>517.2</ele><time>2012-07-21T21:09:59.0000000+00:00</time></trkpt><trkpt lat="64.06491089" lon="-19.38429642"><ele>517.2</ele><time>2012-07-21T21:10:04.0000000+00:00</time></trkpt><trkpt lat="64.06494141" lon="-19.38418388"><ele>516.9</ele><time>2012-07-21T21:10:09.0000000+00:00</time></trkpt><trkpt lat="64.06497192" lon="-19.38409615"><ele>516.5</ele><time>2012-07-21T21:10:14.0000000+00:00</time></trkpt><trkpt lat="64.06499481" lon="-19.3840332"><ele>516.4</ele><time>2012-07-21T21:10:19.0000000+00:00</time></trkpt><trkpt lat="64.06502533" lon="-19.38391686"><ele>516.0</ele><time>2012-07-21T21:10:24.0000000+00:00</time></trkpt><trkpt lat="64.06505585" lon="-19.38380051"><ele>515.8</ele><time>2012-07-21T21:10:29.0000000+00:00</time></trkpt><trkpt lat="64.06505585" lon="-19.3837204"><ele>516.0</ele><time>2012-07-21T21:10:34.0000000+00:00</time></trkpt><trkpt lat="64.06507874" lon="-19.38363457"><ele>516.7</ele><time>2012-07-21T21:10:39.0000000+00:00</time></trkpt><trkpt lat="64.06507874" lon="-19.38350678"><ele>516.7</ele><time>2012-07-21T21:10:44.0000000+00:00</time></trkpt><trkpt lat="64.06509399" lon="-19.38337326"><ele>517.8</ele><time>2012-07-21T21:10:49.0000000+00:00</time></trkpt><trkpt lat="64.06510925" lon="-19.38329125"><ele>518.9</ele><time>2012-07-21T21:10:54.0000000+00:00</time></trkpt><trkpt lat="64.06511688" lon="-19.38323402"><ele>518.7</ele><time>2012-07-21T21:10:59.0000000+00:00</time></trkpt><trkpt lat="64.06510925" lon="-19.38319969"><ele>519.1</ele><time>2012-07-21T21:11:04.0000000+00:00</time></trkpt><trkpt lat="64.06510925" lon="-19.38316155"><ele>519.5</ele><time>2012-07-21T21:11:09.0000000+00:00</time></trkpt><trkpt lat="64.06511688" lon="-19.38306618"><ele>520.1</ele><time>2012-07-21T21:11:14.0000000+00:00</time></trkpt><trkpt lat="64.06513214" lon="-19.38298035"><ele>520.6</ele><time>2012-07-21T21:11:19.0000000+00:00</time></trkpt><trkpt lat="64.06513214" lon="-19.38287544"><ele>521.3</ele><time>2012-07-21T21:11:24.0000000+00:00</time></trkpt><trkpt lat="64.06513977" lon="-19.38280106"><ele>521.9</ele><time>2012-07-21T21:11:29.0000000+00:00</time></trkpt><trkpt lat="64.0651474" lon="-19.3828125"><ele>522.4</ele><time>2012-07-21T21:11:34.0000000+00:00</time></trkpt><trkpt lat="64.0651474" lon="-19.3828125"><ele>522.4</ele><time>2012-07-21T21:11:39.0000000+00:00</time></trkpt><trkpt lat="64.06513977" lon="-19.38281441"><ele>522.4</ele><time>2012-07-21T21:11:44.0000000+00:00</time></trkpt><trkpt lat="64.06513977" lon="-19.38281632"><ele>522.4</ele><time>2012-07-21T21:11:49.0000000+00:00</time></trkpt><trkpt lat="64.06513977" lon="-19.38281441"><ele>522.4</ele><time>2012-07-21T21:11:54.0000000+00:00</time></trkpt><trkpt lat="64.06513977" lon="-19.38278198"><ele>522.9</ele><time>2012-07-21T21:11:59.0000000+00:00</time></trkpt><trkpt lat="64.0651474" lon="-19.38269806"><ele>523.5</ele><time>2012-07-21T21:12:04.0000000+00:00</time></trkpt><trkpt lat="64.06515503" lon="-19.38257408"><ele>523.9</ele><time>2012-07-21T21:12:09.0000000+00:00</time></trkpt><trkpt lat="64.0651474" lon="-19.38246918"><ele>524.4</ele><time>2012-07-21T21:12:14.0000000+00:00</time></trkpt><trkpt lat="64.06515503" lon="-19.38234901"><ele>524.0</ele><time>2012-07-21T21:12:19.0000000+00:00</time></trkpt><trkpt lat="64.06515503" lon="-19.38227081"><ele>524.0</ele><time>2012-07-21T21:12:24.0000000+00:00</time></trkpt><trkpt lat="64.06515503" lon="-19.38226891"><ele>524.0</ele><time>2012-07-21T21:12:29.0000000+00:00</time></trkpt><trkpt lat="64.06515503" lon="-19.38226891"><ele>524.0</ele><time>2012-07-21T21:12:34.0000000+00:00</time></trkpt><trkpt lat="64.06515503" lon="-19.38226891"><ele>524.0</ele><time>2012-07-21T21:12:39.0000000+00:00</time></trkpt><trkpt lat="64.06515503" lon="-19.382267"><ele>524.0</ele><time>2012-07-21T21:12:44.0000000+00:00</time></trkpt><trkpt lat="64.06515503" lon="-19.38226891"><ele>524.0</ele><time>2012-07-21T21:12:49.0000000+00:00</time></trkpt><trkpt lat="64.06515503" lon="-19.38226891"><ele>524.0</ele><time>2012-07-21T21:12:54.0000000+00:00</time></trkpt><trkpt lat="64.06515503" lon="-19.38226891"><ele>524.0</ele><time>2012-07-21T21:12:59.0000000+00:00</time></trkpt><trkpt lat="64.06515503" lon="-19.382267"><ele>524.0</ele><time>2012-07-21T21:13:04.0000000+00:00</time></trkpt><trkpt lat="64.06515503" lon="-19.382267"><ele>524.0</ele><time>2012-07-21T21:13:09.0000000+00:00</time></trkpt><trkpt lat="64.06515503" lon="-19.38225365"><ele>524.0</ele><time>2012-07-21T21:13:14.0000000+00:00</time></trkpt><trkpt lat="64.0651474" lon="-19.38213158"><ele>524.5</ele><time>2012-07-21T21:13:19.0000000+00:00</time></trkpt><trkpt lat="64.0651474" lon="-19.38202286"><ele>524.3</ele><time>2012-07-21T21:13:24.0000000+00:00</time></trkpt><trkpt lat="64.06513977" lon="-19.38191032"><ele>524.3</ele><time>2012-07-21T21:13:29.0000000+00:00</time></trkpt><trkpt lat="64.06513977" lon="-19.38180733"><ele>523.8</ele><time>2012-07-21T21:13:34.0000000+00:00</time></trkpt><trkpt lat="64.06513977" lon="-19.38171005"><ele>523.3</ele><time>2012-07-21T21:13:39.0000000+00:00</time></trkpt><trkpt lat="64.06513214" lon="-19.38160896"><ele>523.1</ele><time>2012-07-21T21:13:44.0000000+00:00</time></trkpt><trkpt lat="64.06511688" lon="-19.3815155"><ele>523.1</ele><time>2012-07-21T21:13:49.0000000+00:00</time></trkpt><trkpt lat="64.06510925" lon="-19.38142395"><ele>522.6</ele><time>2012-07-21T21:13:54.0000000+00:00</time></trkpt><trkpt lat="64.06509399" lon="-19.3813324"><ele>522.0</ele><time>2012-07-21T21:13:59.0000000+00:00</time></trkpt><trkpt lat="64.06507874" lon="-19.38124847"><ele>521.6</ele><time>2012-07-21T21:14:04.0000000+00:00</time></trkpt><trkpt lat="64.06504822" lon="-19.38117218"><ele>520.5</ele><time>2012-07-21T21:14:09.0000000+00:00</time></trkpt><trkpt lat="64.06504059" lon="-19.38108063"><ele>520.7</ele><time>2012-07-21T21:14:14.0000000+00:00</time></trkpt><trkpt lat="64.06501007" lon="-19.38098145"><ele>520.2</ele><time>2012-07-21T21:14:19.0000000+00:00</time></trkpt><trkpt lat="64.06501007" lon="-19.38098335"><ele>519.6</ele><time>2012-07-21T21:14:24.0000000+00:00</time></trkpt><trkpt lat="64.06501007" lon="-19.38096619"><ele>519.4</ele><time>2012-07-21T21:14:29.0000000+00:00</time></trkpt><trkpt lat="64.06499481" lon="-19.38087082"><ele>518.5</ele><time>2012-07-21T21:14:34.0000000+00:00</time></trkpt><trkpt lat="64.06498718" lon="-19.38080978"><ele>518.8</ele><time>2012-07-21T21:14:39.0000000+00:00</time></trkpt><trkpt lat="64.06496429" lon="-19.38072968"><ele>518.5</ele><time>2012-07-21T21:14:44.0000000+00:00</time></trkpt><trkpt lat="64.06494904" lon="-19.38066483"><ele>517.9</ele><time>2012-07-21T21:14:49.0000000+00:00</time></trkpt><trkpt lat="64.06491852" lon="-19.38054276"><ele>517.8</ele><time>2012-07-21T21:14:54.0000000+00:00</time></trkpt><trkpt lat="64.06488037" lon="-19.38044357"><ele>517.5</ele><time>2012-07-21T21:14:59.0000000+00:00</time></trkpt><trkpt lat="64.06484222" lon="-19.38033295"><ele>517.9</ele><time>2012-07-21T21:15:04.0000000+00:00</time></trkpt><trkpt lat="64.06479645" lon="-19.38022232"><ele>518.4</ele><time>2012-07-21T21:15:09.0000000+00:00</time></trkpt><trkpt lat="64.06477356" lon="-19.3801136"><ele>518.6</ele><time>2012-07-21T21:15:14.0000000+00:00</time></trkpt><trkpt lat="64.06472778" lon="-19.38001251"><ele>519.3</ele><time>2012-07-21T21:15:19.0000000+00:00</time></trkpt><trkpt lat="64.06468964" lon="-19.37991333"><ele>521.2</ele><time>2012-07-21T21:15:24.0000000+00:00</time></trkpt><trkpt lat="64.06465149" lon="-19.37980843"><ele>521.7</ele><time>2012-07-21T21:15:29.0000000+00:00</time></trkpt><trkpt lat="64.06462097" lon="-19.37970543"><ele>522.1</ele><time>2012-07-21T21:15:34.0000000+00:00</time></trkpt><trkpt lat="64.06459045" lon="-19.37962151"><ele>523.0</ele><time>2012-07-21T21:15:39.0000000+00:00</time></trkpt><trkpt lat="64.06455994" lon="-19.37953949"><ele>523.2</ele><time>2012-07-21T21:15:44.0000000+00:00</time></trkpt><trkpt lat="64.06455231" lon="-19.37950707"><ele>523.3</ele><time>2012-07-21T21:15:49.0000000+00:00</time></trkpt><trkpt lat="64.06455231" lon="-19.37950325"><ele>523.6</ele><time>2012-07-21T21:15:54.0000000+00:00</time></trkpt><trkpt lat="64.06455231" lon="-19.37950325"><ele>523.6</ele><time>2012-07-21T21:15:59.0000000+00:00</time></trkpt><trkpt lat="64.06455231" lon="-19.37949944"><ele>523.6</ele><time>2012-07-21T21:16:04.0000000+00:00</time></trkpt><trkpt lat="64.06450653" lon="-19.3794384"><ele>524.2</ele><time>2012-07-21T21:16:09.0000000+00:00</time></trkpt><trkpt lat="64.0644989" lon="-19.37938118"><ele>524.5</ele><time>2012-07-21T21:16:14.0000000+00:00</time></trkpt><trkpt lat="64.06446838" lon="-19.37931442"><ele>524.2</ele><time>2012-07-21T21:16:19.0000000+00:00</time></trkpt><trkpt lat="64.06443024" lon="-19.37922287"><ele>523.8</ele><time>2012-07-21T21:16:24.0000000+00:00</time></trkpt><trkpt lat="64.06438446" lon="-19.37914276"><ele>524.3</ele><time>2012-07-21T21:16:29.0000000+00:00</time></trkpt><trkpt lat="64.06435394" lon="-19.37907028"><ele>523.9</ele><time>2012-07-21T21:16:34.0000000+00:00</time></trkpt><trkpt lat="64.06432343" lon="-19.37899208"><ele>523.8</ele><time>2012-07-21T21:16:39.0000000+00:00</time></trkpt><trkpt lat="64.0643158" lon="-19.37898636"><ele>524.0</ele><time>2012-07-21T21:16:44.0000000+00:00</time></trkpt><trkpt lat="64.06430817" lon="-19.37897301"><ele>524.0</ele><time>2012-07-21T21:16:49.0000000+00:00</time></trkpt><trkpt lat="64.06428528" lon="-19.37889862"><ele>523.7</ele><time>2012-07-21T21:16:54.0000000+00:00</time></trkpt><trkpt lat="64.06425476" lon="-19.37883377"><ele>523.5</ele><time>2012-07-21T21:16:59.0000000+00:00</time></trkpt><trkpt lat="64.06423187" lon="-19.37878418"><ele>523.1</ele><time>2012-07-21T21:17:04.0000000+00:00</time></trkpt><trkpt lat="64.06423187" lon="-19.37876701"><ele>522.8</ele><time>2012-07-21T21:17:09.0000000+00:00</time></trkpt><trkpt lat="64.06421661" lon="-19.37875557"><ele>523.6</ele><time>2012-07-21T21:17:14.0000000+00:00</time></trkpt><trkpt lat="64.06421661" lon="-19.37875366"><ele>524.0</ele><time>2012-07-21T21:17:19.0000000+00:00</time></trkpt><trkpt lat="64.0641861" lon="-19.37869644"><ele>524.3</ele><time>2012-07-21T21:17:24.0000000+00:00</time></trkpt><trkpt lat="64.06414032" lon="-19.37861824"><ele>524.6</ele><time>2012-07-21T21:17:29.0000000+00:00</time></trkpt><trkpt lat="64.0641098" lon="-19.37852097"><ele>523.9</ele><time>2012-07-21T21:17:34.0000000+00:00</time></trkpt><trkpt lat="64.06407166" lon="-19.37843514"><ele>523.3</ele><time>2012-07-21T21:17:39.0000000+00:00</time></trkpt><trkpt lat="64.06402588" lon="-19.37835503"><ele>523.3</ele><time>2012-07-21T21:17:44.0000000+00:00</time></trkpt><trkpt lat="64.0639801" lon="-19.37826729"><ele>523.5</ele><time>2012-07-21T21:17:49.0000000+00:00</time></trkpt><trkpt lat="64.06394959" lon="-19.37818337"><ele>524.0</ele><time>2012-07-21T21:17:54.0000000+00:00</time></trkpt><trkpt lat="64.06390381" lon="-19.37810898"><ele>525.1</ele><time>2012-07-21T21:17:59.0000000+00:00</time></trkpt><trkpt lat="64.06385803" lon="-19.37804222"><ele>525.8</ele><time>2012-07-21T21:18:04.0000000+00:00</time></trkpt><trkpt lat="64.06381226" lon="-19.37798119"><ele>526.0</ele><time>2012-07-21T21:18:09.0000000+00:00</time></trkpt><trkpt lat="64.06375885" lon="-19.37790489"><ele>527.0</ele><time>2012-07-21T21:18:14.0000000+00:00</time></trkpt><trkpt lat="64.06372833" lon="-19.37783241"><ele>527.2</ele><time>2012-07-21T21:18:19.0000000+00:00</time></trkpt><trkpt lat="64.06369019" lon="-19.37779999"><ele>527.5</ele><time>2012-07-21T21:18:24.0000000+00:00</time></trkpt><trkpt lat="64.06364441" lon="-19.37773132"><ele>528.3</ele><time>2012-07-21T21:18:29.0000000+00:00</time></trkpt><trkpt lat="64.06360626" lon="-19.37765884"><ele>528.9</ele><time>2012-07-21T21:18:34.0000000+00:00</time></trkpt><trkpt lat="64.06356812" lon="-19.37759018"><ele>529.6</ele><time>2012-07-21T21:18:39.0000000+00:00</time></trkpt><trkpt lat="64.06352234" lon="-19.37754059"><ele>530.3</ele><time>2012-07-21T21:18:44.0000000+00:00</time></trkpt><trkpt lat="64.06347656" lon="-19.37748718"><ele>530.6</ele><time>2012-07-21T21:18:49.0000000+00:00</time></trkpt><trkpt lat="64.06344605" lon="-19.37742615"><ele>529.9</ele><time>2012-07-21T21:18:54.0000000+00:00</time></trkpt><trkpt lat="64.0634079" lon="-19.37740135"><ele>531.0</ele><time>2012-07-21T21:18:59.0000000+00:00</time></trkpt><trkpt lat="64.06338501" lon="-19.37737656"><ele>531.5</ele><time>2012-07-21T21:19:04.0000000+00:00</time></trkpt><trkpt lat="64.06333923" lon="-19.37731743"><ele>531.8</ele><time>2012-07-21T21:19:09.0000000+00:00</time></trkpt><trkpt lat="64.06332398" lon="-19.37730026"><ele>532.1</ele><time>2012-07-21T21:19:14.0000000+00:00</time></trkpt><trkpt lat="64.06330109" lon="-19.37728119"><ele>532.4</ele><time>2012-07-21T21:19:19.0000000+00:00</time></trkpt><trkpt lat="64.06324768" lon="-19.37722969"><ele>532.4</ele><time>2012-07-21T21:19:24.0000000+00:00</time></trkpt><trkpt lat="64.06320953" lon="-19.37718391"><ele>532.1</ele><time>2012-07-21T21:19:29.0000000+00:00</time></trkpt><trkpt lat="64.06315613" lon="-19.37713242"><ele>532.7</ele><time>2012-07-21T21:19:34.0000000+00:00</time></trkpt><trkpt lat="64.06312561" lon="-19.37707329"><ele>532.8</ele><time>2012-07-21T21:19:39.0000000+00:00</time></trkpt><trkpt lat="64.06307983" lon="-19.37703514"><ele>532.8</ele><time>2012-07-21T21:19:44.0000000+00:00</time></trkpt><trkpt lat="64.06304932" lon="-19.37700462"><ele>532.4</ele><time>2012-07-21T21:19:49.0000000+00:00</time></trkpt><trkpt lat="64.0630188" lon="-19.37694931"><ele>532.8</ele><time>2012-07-21T21:19:54.0000000+00:00</time></trkpt><trkpt lat="64.06297302" lon="-19.37689209"><ele>533.0</ele><time>2012-07-21T21:19:59.0000000+00:00</time></trkpt><trkpt lat="64.06292725" lon="-19.37682724"><ele>534.0</ele><time>2012-07-21T21:20:04.0000000+00:00</time></trkpt><trkpt lat="64.06287384" lon="-19.37675285"><ele>534.1</ele><time>2012-07-21T21:20:09.0000000+00:00</time></trkpt><trkpt lat="64.06282044" lon="-19.37668991"><ele>534.5</ele><time>2012-07-21T21:20:14.0000000+00:00</time></trkpt><trkpt lat="64.06278229" lon="-19.37664795"><ele>534.6</ele><time>2012-07-21T21:20:19.0000000+00:00</time></trkpt><trkpt lat="64.06274414" lon="-19.37658501"><ele>535.3</ele><time>2012-07-21T21:20:24.0000000+00:00</time></trkpt><trkpt lat="64.06269836" lon="-19.37654305"><ele>535.7</ele><time>2012-07-21T21:20:29.0000000+00:00</time></trkpt><trkpt lat="64.06265259" lon="-19.37650299"><ele>535.4</ele><time>2012-07-21T21:20:34.0000000+00:00</time></trkpt><trkpt lat="64.06260681" lon="-19.37644577"><ele>535.6</ele><time>2012-07-21T21:20:39.0000000+00:00</time></trkpt><trkpt lat="64.06256104" lon="-19.37640381"><ele>534.9</ele><time>2012-07-21T21:20:44.0000000+00:00</time></trkpt><trkpt lat="64.06251526" lon="-19.37637901"><ele>533.8</ele><time>2012-07-21T21:20:49.0000000+00:00</time></trkpt><trkpt lat="64.06251526" lon="-19.37636185"><ele>533.3</ele><time>2012-07-21T21:20:54.0000000+00:00</time></trkpt><trkpt lat="64.06251526" lon="-19.37636375"><ele>533.3</ele><time>2012-07-21T21:20:59.0000000+00:00</time></trkpt><trkpt lat="64.06246948" lon="-19.37632179"><ele>533.3</ele><time>2012-07-21T21:21:04.0000000+00:00</time></trkpt><trkpt lat="64.06241608" lon="-19.37626839"><ele>533.3</ele><time>2012-07-21T21:21:09.0000000+00:00</time></trkpt><trkpt lat="64.0623703" lon="-19.37620544"><ele>534.0</ele><time>2012-07-21T21:21:14.0000000+00:00</time></trkpt><trkpt lat="64.0623169" lon="-19.37613869"><ele>534.1</ele><time>2012-07-21T21:21:19.0000000+00:00</time></trkpt><trkpt lat="64.06227112" lon="-19.376091"><ele>534.0</ele><time>2012-07-21T21:21:24.0000000+00:00</time></trkpt><trkpt lat="64.06221771" lon="-19.37604141"><ele>533.5</ele><time>2012-07-21T21:21:29.0000000+00:00</time></trkpt><trkpt lat="64.06217957" lon="-19.37600327"><ele>533.7</ele><time>2012-07-21T21:21:34.0000000+00:00</time></trkpt><trkpt lat="64.06214142" lon="-19.3759613"><ele>533.6</ele><time>2012-07-21T21:21:39.0000000+00:00</time></trkpt><trkpt lat="64.06213379" lon="-19.37595367"><ele>533.5</ele><time>2012-07-21T21:21:44.0000000+00:00</time></trkpt><trkpt lat="64.06208038" lon="-19.37592316"><ele>533.9</ele><time>2012-07-21T21:21:49.0000000+00:00</time></trkpt><trkpt lat="64.06203461" lon="-19.37587929"><ele>533.9</ele><time>2012-07-21T21:21:54.0000000+00:00</time></trkpt><trkpt lat="64.06199646" lon="-19.37581635"><ele>533.7</ele><time>2012-07-21T21:21:59.0000000+00:00</time></trkpt><trkpt lat="64.06201172" lon="-19.37580299"><ele>533.2</ele><time>2012-07-21T21:22:04.0000000+00:00</time></trkpt><trkpt lat="64.06200409" lon="-19.37579918"><ele>533.7</ele><time>2012-07-21T21:22:09.0000000+00:00</time></trkpt><trkpt lat="64.06200409" lon="-19.37579918"><ele>533.7</ele><time>2012-07-21T21:22:14.0000000+00:00</time></trkpt><trkpt lat="64.06200409" lon="-19.37580109"><ele>533.8</ele><time>2012-07-21T21:22:19.0000000+00:00</time></trkpt><trkpt lat="64.06200409" lon="-19.37579918"><ele>533.8</ele><time>2012-07-21T21:22:24.0000000+00:00</time></trkpt><trkpt lat="64.06200409" lon="-19.37579918"><ele>533.8</ele><time>2012-07-21T21:22:29.0000000+00:00</time></trkpt><trkpt lat="64.06200409" lon="-19.37579727"><ele>533.8</ele><time>2012-07-21T21:22:34.0000000+00:00</time></trkpt><trkpt lat="64.06195831" lon="-19.37574959"><ele>533.9</ele><time>2012-07-21T21:22:39.0000000+00:00</time></trkpt><trkpt lat="64.06195831" lon="-19.37574768"><ele>534.0</ele><time>2012-07-21T21:22:44.0000000+00:00</time></trkpt><trkpt lat="64.06196594" lon="-19.3757515"><ele>534.3</ele><time>2012-07-21T21:22:49.0000000+00:00</time></trkpt><trkpt lat="64.06191254" lon="-19.37572098"><ele>534.4</ele><time>2012-07-21T21:22:54.0000000+00:00</time></trkpt><trkpt lat="64.06187439" lon="-19.37566948"><ele>534.7</ele><time>2012-07-21T21:22:59.0000000+00:00</time></trkpt><trkpt lat="64.06182861" lon="-19.37560272"><ele>533.5</ele><time>2012-07-21T21:23:04.0000000+00:00</time></trkpt><trkpt lat="64.06179047" lon="-19.37555313"><ele>533.5</ele><time>2012-07-21T21:23:09.0000000+00:00</time></trkpt><trkpt lat="64.06175232" lon="-19.37553024"><ele>533.4</ele><time>2012-07-21T21:23:14.0000000+00:00</time></trkpt><trkpt lat="64.06171417" lon="-19.375494"><ele>533.3</ele><time>2012-07-21T21:23:19.0000000+00:00</time></trkpt><trkpt lat="64.06167603" lon="-19.37545395"><ele>534.0</ele><time>2012-07-21T21:23:24.0000000+00:00</time></trkpt><trkpt lat="64.06163025" lon="-19.37539291"><ele>534.7</ele><time>2012-07-21T21:23:29.0000000+00:00</time></trkpt><trkpt lat="64.06157684" lon="-19.37529945"><ele>534.7</ele><time>2012-07-21T21:23:34.0000000+00:00</time></trkpt><trkpt lat="64.06152344" lon="-19.37523842"><ele>534.9</ele><time>2012-07-21T21:23:39.0000000+00:00</time></trkpt><trkpt lat="64.06148529" lon="-19.37519264"><ele>535.3</ele><time>2012-07-21T21:23:44.0000000+00:00</time></trkpt><trkpt lat="64.06143951" lon="-19.37514877"><ele>536.1</ele><time>2012-07-21T21:23:49.0000000+00:00</time></trkpt><trkpt lat="64.06143189" lon="-19.37512589"><ele>535.7</ele><time>2012-07-21T21:23:54.0000000+00:00</time></trkpt><trkpt lat="64.06142426" lon="-19.37513161"><ele>536.0</ele><time>2012-07-21T21:23:59.0000000+00:00</time></trkpt><trkpt lat="64.06142426" lon="-19.37513161"><ele>536.0</ele><time>2012-07-21T21:24:04.0000000+00:00</time></trkpt><trkpt lat="64.06142426" lon="-19.37513161"><ele>536.0</ele><time>2012-07-21T21:24:09.0000000+00:00</time></trkpt><trkpt lat="64.06142426" lon="-19.37513161"><ele>536.0</ele><time>2012-07-21T21:24:14.0000000+00:00</time></trkpt><trkpt lat="64.061409" lon="-19.37512207"><ele>535.9</ele><time>2012-07-21T21:24:19.0000000+00:00</time></trkpt><trkpt lat="64.06137085" lon="-19.37506104"><ele>535.5</ele><time>2012-07-21T21:24:24.0000000+00:00</time></trkpt><trkpt lat="64.06132507" lon="-19.37496758"><ele>534.4</ele><time>2012-07-21T21:24:29.0000000+00:00</time></trkpt><trkpt lat="64.06128693" lon="-19.37490463"><ele>534.2</ele><time>2012-07-21T21:24:34.0000000+00:00</time></trkpt><trkpt lat="64.06126404" lon="-19.37490273"><ele>533.8</ele><time>2012-07-21T21:24:39.0000000+00:00</time></trkpt><trkpt lat="64.06126404" lon="-19.37490463"><ele>533.8</ele><time>2012-07-21T21:24:44.0000000+00:00</time></trkpt><trkpt lat="64.06126404" lon="-19.37490463"><ele>533.8</ele><time>2012-07-21T21:24:49.0000000+00:00</time></trkpt><trkpt lat="64.06123352" lon="-19.37483597"><ele>533.4</ele><time>2012-07-21T21:24:54.0000000+00:00</time></trkpt><trkpt lat="64.061203" lon="-19.37477303"><ele>532.7</ele><time>2012-07-21T21:24:59.0000000+00:00</time></trkpt><trkpt lat="64.06115723" lon="-19.37471199"><ele>532.5</ele><time>2012-07-21T21:25:04.0000000+00:00</time></trkpt><trkpt lat="64.06111908" lon="-19.37462616"><ele>532.6</ele><time>2012-07-21T21:25:09.0000000+00:00</time></trkpt><trkpt lat="64.06108856" lon="-19.37454224"><ele>532.1</ele><time>2012-07-21T21:25:14.0000000+00:00</time></trkpt><trkpt lat="64.06105042" lon="-19.3744812"><ele>532.5</ele><time>2012-07-21T21:25:19.0000000+00:00</time></trkpt><trkpt lat="64.06101227" lon="-19.37439537"><ele>532.4</ele><time>2012-07-21T21:25:24.0000000+00:00</time></trkpt><trkpt lat="64.06096649" lon="-19.37432671"><ele>532.6</ele><time>2012-07-21T21:25:29.0000000+00:00</time></trkpt><trkpt lat="64.06092072" lon="-19.37425041"><ele>532.7</ele><time>2012-07-21T21:25:34.0000000+00:00</time></trkpt><trkpt lat="64.06089783" lon="-19.37417793"><ele>532.5</ele><time>2012-07-21T21:25:39.0000000+00:00</time></trkpt><trkpt lat="64.0608902" lon="-19.37418938"><ele>532.1</ele><time>2012-07-21T21:25:44.0000000+00:00</time></trkpt><trkpt lat="64.06088257" lon="-19.37416267"><ele>532.3</ele><time>2012-07-21T21:25:49.0000000+00:00</time></trkpt><trkpt lat="64.06085205" lon="-19.37407303"><ele>530.6</ele><time>2012-07-21T21:25:54.0000000+00:00</time></trkpt><trkpt lat="64.06082153" lon="-19.37398338"><ele>530.6</ele><time>2012-07-21T21:25:59.0000000+00:00</time></trkpt><trkpt lat="64.06079102" lon="-19.37388802"><ele>531.6</ele><time>2012-07-21T21:26:04.0000000+00:00</time></trkpt><trkpt lat="64.06077576" lon="-19.37385559"><ele>531.8</ele><time>2012-07-21T21:26:09.0000000+00:00</time></trkpt><trkpt lat="64.06077576" lon="-19.37385941"><ele>532.0</ele><time>2012-07-21T21:26:14.0000000+00:00</time></trkpt><trkpt lat="64.06077576" lon="-19.37385941"><ele>532.0</ele><time>2012-07-21T21:26:19.0000000+00:00</time></trkpt><trkpt lat="64.06077576" lon="-19.3738575"><ele>532.0</ele><time>2012-07-21T21:26:24.0000000+00:00</time></trkpt><trkpt lat="64.06077576" lon="-19.3738575"><ele>532.0</ele><time>2012-07-21T21:26:29.0000000+00:00</time></trkpt><trkpt lat="64.0607605" lon="-19.37381363"><ele>532.2</ele><time>2012-07-21T21:26:34.0000000+00:00</time></trkpt><trkpt lat="64.06072998" lon="-19.37371826"><ele>532.9</ele><time>2012-07-21T21:26:39.0000000+00:00</time></trkpt><trkpt lat="64.06070709" lon="-19.37361336"><ele>534.8</ele><time>2012-07-21T21:26:44.0000000+00:00</time></trkpt><trkpt lat="64.06066895" lon="-19.37352562"><ele>533.6</ele><time>2012-07-21T21:26:49.0000000+00:00</time></trkpt><trkpt lat="64.06064606" lon="-19.37343788"><ele>534.2</ele><time>2012-07-21T21:26:54.0000000+00:00</time></trkpt><trkpt lat="64.06062317" lon="-19.37336922"><ele>534.4</ele><time>2012-07-21T21:26:59.0000000+00:00</time></trkpt><trkpt lat="64.06059265" lon="-19.37329102"><ele>535.2</ele><time>2012-07-21T21:27:04.0000000+00:00</time></trkpt><trkpt lat="64.06056213" lon="-19.37322235"><ele>535.7</ele><time>2012-07-21T21:27:09.0000000+00:00</time></trkpt><trkpt lat="64.06056213" lon="-19.37321663"><ele>534.6</ele><time>2012-07-21T21:27:14.0000000+00:00</time></trkpt><trkpt lat="64.06052399" lon="-19.37314606"><ele>535.0</ele><time>2012-07-21T21:27:19.0000000+00:00</time></trkpt><trkpt lat="64.06048584" lon="-19.37306786"><ele>534.5</ele><time>2012-07-21T21:27:24.0000000+00:00</time></trkpt><trkpt lat="64.06044769" lon="-19.37298203"><ele>534.9</ele><time>2012-07-21T21:27:29.0000000+00:00</time></trkpt><trkpt lat="64.06042481" lon="-19.37289619"><ele>534.0</ele><time>2012-07-21T21:27:34.0000000+00:00</time></trkpt><trkpt lat="64.06041718" lon="-19.37287521"><ele>532.0</ele><time>2012-07-21T21:27:39.0000000+00:00</time></trkpt><trkpt lat="64.06041718" lon="-19.37287521"><ele>532.0</ele><time>2012-07-21T21:27:44.0000000+00:00</time></trkpt><trkpt lat="64.06041718" lon="-19.37287521"><ele>531.9</ele><time>2012-07-21T21:27:49.0000000+00:00</time></trkpt><trkpt lat="64.06041718" lon="-19.37287521"><ele>532.0</ele><time>2012-07-21T21:27:54.0000000+00:00</time></trkpt><trkpt lat="64.06038666" lon="-19.37280655"><ele>532.3</ele><time>2012-07-21T21:27:59.0000000+00:00</time></trkpt><trkpt lat="64.06036377" lon="-19.37272835"><ele>531.7</ele><time>2012-07-21T21:28:04.0000000+00:00</time></trkpt><trkpt lat="64.06034088" lon="-19.37261963"><ele>531.4</ele><time>2012-07-21T21:28:09.0000000+00:00</time></trkpt><trkpt lat="64.06032562" lon="-19.37252617"><ele>531.7</ele><time>2012-07-21T21:28:14.0000000+00:00</time></trkpt><trkpt lat="64.06031799" lon="-19.37245178"><ele>531.3</ele><time>2012-07-21T21:28:19.0000000+00:00</time></trkpt><trkpt lat="64.06031036" lon="-19.37236595"><ele>531.8</ele><time>2012-07-21T21:28:24.0000000+00:00</time></trkpt><trkpt lat="64.06029511" lon="-19.37226868"><ele>532.4</ele><time>2012-07-21T21:28:29.0000000+00:00</time></trkpt><trkpt lat="64.06028748" lon="-19.37217903"><ele>533.0</ele><time>2012-07-21T21:28:34.0000000+00:00</time></trkpt><trkpt lat="64.06027985" lon="-19.37211037"><ele>534.0</ele><time>2012-07-21T21:28:39.0000000+00:00</time></trkpt><trkpt lat="64.06027222" lon="-19.37204552"><ele>534.4</ele><time>2012-07-21T21:28:44.0000000+00:00</time></trkpt><trkpt lat="64.06025696" lon="-19.37197304"><ele>534.8</ele><time>2012-07-21T21:28:49.0000000+00:00</time></trkpt><trkpt lat="64.06022644" lon="-19.37192726"><ele>534.8</ele><time>2012-07-21T21:28:54.0000000+00:00</time></trkpt><trkpt lat="64.06020355" lon="-19.37184334"><ele>535.2</ele><time>2012-07-21T21:28:59.0000000+00:00</time></trkpt><trkpt lat="64.06018829" lon="-19.37175942"><ele>536.0</ele><time>2012-07-21T21:29:04.0000000+00:00</time></trkpt><trkpt lat="64.06018829" lon="-19.37170982"><ele>536.6</ele><time>2012-07-21T21:29:09.0000000+00:00</time></trkpt><trkpt lat="64.06015778" lon="-19.37163925"><ele>536.8</ele><time>2012-07-21T21:29:14.0000000+00:00</time></trkpt><trkpt lat="64.06012726" lon="-19.37153626"><ele>536.9</ele><time>2012-07-21T21:29:19.0000000+00:00</time></trkpt><trkpt lat="64.06010437" lon="-19.37145615"><ele>537.5</ele><time>2012-07-21T21:29:24.0000000+00:00</time></trkpt><trkpt lat="64.06008911" lon="-19.37135887"><ele>537.7</ele><time>2012-07-21T21:29:29.0000000+00:00</time></trkpt><trkpt lat="64.06005859" lon="-19.37125397"><ele>537.7</ele><time>2012-07-21T21:29:34.0000000+00:00</time></trkpt><trkpt lat="64.06003571" lon="-19.37112427"><ele>537.7</ele><time>2012-07-21T21:29:39.0000000+00:00</time></trkpt><trkpt lat="64.06000519" lon="-19.3710289"><ele>538.0</ele><time>2012-07-21T21:29:44.0000000+00:00</time></trkpt><trkpt lat="64.05997467" lon="-19.37092209"><ele>538.5</ele><time>2012-07-21T21:29:49.0000000+00:00</time></trkpt><trkpt lat="64.05994415" lon="-19.370821"><ele>538.2</ele><time>2012-07-21T21:29:54.0000000+00:00</time></trkpt><trkpt lat="64.05992127" lon="-19.37071419"><ele>538.8</ele><time>2012-07-21T21:29:59.0000000+00:00</time></trkpt><trkpt lat="64.05988312" lon="-19.37062073"><ele>539.6</ele><time>2012-07-21T21:30:04.0000000+00:00</time></trkpt><trkpt lat="64.05984497" lon="-19.37050438"><ele>539.8</ele><time>2012-07-21T21:30:09.0000000+00:00</time></trkpt><trkpt lat="64.05979919" lon="-19.37042809"><ele>540.5</ele><time>2012-07-21T21:30:14.0000000+00:00</time></trkpt><trkpt lat="64.05975342" lon="-19.37034798"><ele>540.4</ele><time>2012-07-21T21:30:19.0000000+00:00</time></trkpt><trkpt lat="64.05970764" lon="-19.37024117"><ele>540.5</ele><time>2012-07-21T21:30:24.0000000+00:00</time></trkpt><trkpt lat="64.0596695" lon="-19.37013626"><ele>539.6</ele><time>2012-07-21T21:30:29.0000000+00:00</time></trkpt><trkpt lat="64.05963898" lon="-19.37003136"><ele>539.6</ele><time>2012-07-21T21:30:34.0000000+00:00</time></trkpt><trkpt lat="64.05963135" lon="-19.36990547"><ele>538.4</ele><time>2012-07-21T21:30:39.0000000+00:00</time></trkpt><trkpt lat="64.05962372" lon="-19.3697834"><ele>537.8</ele><time>2012-07-21T21:30:44.0000000+00:00</time></trkpt><trkpt lat="64.05962372" lon="-19.36966133"><ele>537.6</ele><time>2012-07-21T21:30:49.0000000+00:00</time></trkpt><trkpt lat="64.05961609" lon="-19.36955071"><ele>537.4</ele><time>2012-07-21T21:30:54.0000000+00:00</time></trkpt><trkpt lat="64.05961609" lon="-19.36950111"><ele>537.8</ele><time>2012-07-21T21:30:59.0000000+00:00</time></trkpt><trkpt lat="64.05960846" lon="-19.36937714"><ele>537.8</ele><time>2012-07-21T21:31:04.0000000+00:00</time></trkpt><trkpt lat="64.05960083" lon="-19.36925888"><ele>537.4</ele><time>2012-07-21T21:31:09.0000000+00:00</time></trkpt><trkpt lat="64.05960083" lon="-19.36919022"><ele>537.8</ele><time>2012-07-21T21:31:14.0000000+00:00</time></trkpt><trkpt lat="64.05960083" lon="-19.36914253"><ele>538.2</ele><time>2012-07-21T21:31:19.0000000+00:00</time></trkpt><trkpt lat="64.05960083" lon="-19.36903"><ele>537.7</ele><time>2012-07-21T21:31:24.0000000+00:00</time></trkpt><trkpt lat="64.05960083" lon="-19.36889839"><ele>537.4</ele><time>2012-07-21T21:31:29.0000000+00:00</time></trkpt><trkpt lat="64.05960083" lon="-19.36879349"><ele>537.3</ele><time>2012-07-21T21:31:34.0000000+00:00</time></trkpt><trkpt lat="64.05960083" lon="-19.36877823"><ele>537.8</ele><time>2012-07-21T21:31:39.0000000+00:00</time></trkpt><trkpt lat="64.0595932" lon="-19.36865807"><ele>537.6</ele><time>2012-07-21T21:31:44.0000000+00:00</time></trkpt><trkpt lat="64.05955505" lon="-19.36853027"><ele>537.9</ele><time>2012-07-21T21:31:49.0000000+00:00</time></trkpt><trkpt lat="64.05952454" lon="-19.36840248"><ele>538.1</ele><time>2012-07-21T21:31:54.0000000+00:00</time></trkpt><trkpt lat="64.05947876" lon="-19.36831665"><ele>538.8</ele><time>2012-07-21T21:31:59.0000000+00:00</time></trkpt><trkpt lat="64.05943298" lon="-19.36824989"><ele>539.7</ele><time>2012-07-21T21:32:04.0000000+00:00</time></trkpt><trkpt lat="64.05937958" lon="-19.36818886"><ele>540.5</ele><time>2012-07-21T21:32:09.0000000+00:00</time></trkpt><trkpt lat="64.05937195" lon="-19.36819077"><ele>540.6</ele><time>2012-07-21T21:32:14.0000000+00:00</time></trkpt><trkpt lat="64.05932617" lon="-19.36812401"><ele>541.8</ele><time>2012-07-21T21:32:19.0000000+00:00</time></trkpt><trkpt lat="64.05928803" lon="-19.3680439"><ele>542.6</ele><time>2012-07-21T21:32:24.0000000+00:00</time></trkpt><trkpt lat="64.05923462" lon="-19.36794853"><ele>543.5</ele><time>2012-07-21T21:32:29.0000000+00:00</time></trkpt><trkpt lat="64.05918884" lon="-19.36785507"><ele>544.5</ele><time>2012-07-21T21:32:34.0000000+00:00</time></trkpt><trkpt lat="64.05914307" lon="-19.36774635"><ele>544.5</ele><time>2012-07-21T21:32:39.0000000+00:00</time></trkpt><trkpt lat="64.05911255" lon="-19.36764908"><ele>543.9</ele><time>2012-07-21T21:32:44.0000000+00:00</time></trkpt><trkpt lat="64.05911255" lon="-19.36760521"><ele>543.5</ele><time>2012-07-21T21:32:49.0000000+00:00</time></trkpt><trkpt lat="64.05910492" lon="-19.36754608"><ele>542.8</ele><time>2012-07-21T21:32:54.0000000+00:00</time></trkpt><trkpt lat="64.05908966" lon="-19.36741257"><ele>542.9</ele><time>2012-07-21T21:32:59.0000000+00:00</time></trkpt><trkpt lat="64.0590744" lon="-19.3672905"><ele>542.1</ele><time>2012-07-21T21:33:04.0000000+00:00</time></trkpt><trkpt lat="64.05904388" lon="-19.36721802"><ele>542.1</ele><time>2012-07-21T21:33:09.0000000+00:00</time></trkpt><trkpt lat="64.05905151" lon="-19.3671875"><ele>542.2</ele><time>2012-07-21T21:33:14.0000000+00:00</time></trkpt><trkpt lat="64.05905914" lon="-19.36706734"><ele>542.4</ele><time>2012-07-21T21:33:19.0000000+00:00</time></trkpt><trkpt lat="64.05905151" lon="-19.36695671"><ele>541.7</ele><time>2012-07-21T21:33:24.0000000+00:00</time></trkpt><trkpt lat="64.05905151" lon="-19.36696816"><ele>541.8</ele><time>2012-07-21T21:33:29.0000000+00:00</time></trkpt><trkpt lat="64.05902863" lon="-19.36688805"><ele>541.3</ele><time>2012-07-21T21:33:34.0000000+00:00</time></trkpt><trkpt lat="64.05901337" lon="-19.36675835"><ele>541.1</ele><time>2012-07-21T21:33:39.0000000+00:00</time></trkpt><trkpt lat="64.05899048" lon="-19.36664772"><ele>541.1</ele><time>2012-07-21T21:33:44.0000000+00:00</time></trkpt><trkpt lat="64.05897522" lon="-19.36654091"><ele>540.7</ele><time>2012-07-21T21:33:49.0000000+00:00</time></trkpt><trkpt lat="64.05895233" lon="-19.36645508"><ele>540.5</ele><time>2012-07-21T21:33:54.0000000+00:00</time></trkpt><trkpt lat="64.05895233" lon="-19.36642838"><ele>540.4</ele><time>2012-07-21T21:33:59.0000000+00:00</time></trkpt><trkpt lat="64.05892181" lon="-19.36632919"><ele>540.8</ele><time>2012-07-21T21:34:04.0000000+00:00</time></trkpt><trkpt lat="64.05890656" lon="-19.36623001"><ele>541.3</ele><time>2012-07-21T21:34:09.0000000+00:00</time></trkpt><trkpt lat="64.05887604" lon="-19.3661499"><ele>541.1</ele><time>2012-07-21T21:34:14.0000000+00:00</time></trkpt><trkpt lat="64.05888367" lon="-19.3661232"><ele>541.2</ele><time>2012-07-21T21:34:19.0000000+00:00</time></trkpt><trkpt lat="64.05888367" lon="-19.36606598"><ele>541.0</ele><time>2012-07-21T21:34:24.0000000+00:00</time></trkpt><trkpt lat="64.05886078" lon="-19.36598206"><ele>540.9</ele><time>2012-07-21T21:34:29.0000000+00:00</time></trkpt><trkpt lat="64.05883026" lon="-19.36588478"><ele>541.1</ele><time>2012-07-21T21:34:34.0000000+00:00</time></trkpt><trkpt lat="64.05879974" lon="-19.36579704"><ele>541.3</ele><time>2012-07-21T21:34:39.0000000+00:00</time></trkpt><trkpt lat="64.05879211" lon="-19.36570168"><ele>542.0</ele><time>2012-07-21T21:34:44.0000000+00:00</time></trkpt><trkpt lat="64.05876923" lon="-19.36566544"><ele>542.4</ele><time>2012-07-21T21:34:49.0000000+00:00</time></trkpt><trkpt lat="64.05876923" lon="-19.36567307"><ele>542.4</ele><time>2012-07-21T21:34:54.0000000+00:00</time></trkpt><trkpt lat="64.05876923" lon="-19.36567497"><ele>542.4</ele><time>2012-07-21T21:34:59.0000000+00:00</time></trkpt><trkpt lat="64.05876923" lon="-19.36567307"><ele>542.4</ele><time>2012-07-21T21:35:04.0000000+00:00</time></trkpt><trkpt lat="64.05875397" lon="-19.36554337"><ele>543.2</ele><time>2012-07-21T21:35:09.0000000+00:00</time></trkpt><trkpt lat="64.05873871" lon="-19.36542893"><ele>544.1</ele><time>2012-07-21T21:35:14.0000000+00:00</time></trkpt><trkpt lat="64.05872345" lon="-19.36530685"><ele>544.6</ele><time>2012-07-21T21:35:19.0000000+00:00</time></trkpt><trkpt lat="64.05869293" lon="-19.36518097"><ele>545.2</ele><time>2012-07-21T21:35:24.0000000+00:00</time></trkpt><trkpt lat="64.05867767" lon="-19.36507988"><ele>545.2</ele><time>2012-07-21T21:35:29.0000000+00:00</time></trkpt><trkpt lat="64.05867004" lon="-19.36500359"><ele>544.7</ele><time>2012-07-21T21:35:34.0000000+00:00</time></trkpt><trkpt lat="64.05864716" lon="-19.36497116"><ele>545.0</ele><time>2012-07-21T21:35:39.0000000+00:00</time></trkpt><trkpt lat="64.05864716" lon="-19.36497116"><ele>545.0</ele><time>2012-07-21T21:35:44.0000000+00:00</time></trkpt><trkpt lat="64.05864716" lon="-19.36496735"><ele>545.0</ele><time>2012-07-21T21:35:49.0000000+00:00</time></trkpt><trkpt lat="64.0586319" lon="-19.36492348"><ele>545.2</ele><time>2012-07-21T21:35:54.0000000+00:00</time></trkpt><trkpt lat="64.05860901" lon="-19.36481285"><ele>545.2</ele><time>2012-07-21T21:35:59.0000000+00:00</time></trkpt><trkpt lat="64.05858612" lon="-19.36472321"><ele>545.1</ele><time>2012-07-21T21:36:04.0000000+00:00</time></trkpt><trkpt lat="64.05858612" lon="-19.36471176"><ele>545.5</ele><time>2012-07-21T21:36:09.0000000+00:00</time></trkpt><trkpt lat="64.05858612" lon="-19.36471748"><ele>545.5</ele><time>2012-07-21T21:36:14.0000000+00:00</time></trkpt><trkpt lat="64.05857086" lon="-19.3646946"><ele>546.1</ele><time>2012-07-21T21:36:19.0000000+00:00</time></trkpt><trkpt lat="64.05856323" lon="-19.36470413"><ele>545.1</ele><time>2012-07-21T21:36:24.0000000+00:00</time></trkpt><trkpt lat="64.05856323" lon="-19.36470413"><ele>545.1</ele><time>2012-07-21T21:36:29.0000000+00:00</time></trkpt><trkpt lat="64.05856323" lon="-19.36470413"><ele>545.1</ele><time>2012-07-21T21:36:34.0000000+00:00</time></trkpt><trkpt lat="64.05856323" lon="-19.36470223"><ele>545.1</ele><time>2012-07-21T21:36:39.0000000+00:00</time></trkpt><trkpt lat="64.05856323" lon="-19.36470223"><ele>545.1</ele><time>2012-07-21T21:36:44.0000000+00:00</time></trkpt><trkpt lat="64.05856323" lon="-19.36470223"><ele>545.1</ele><time>2012-07-21T21:36:49.0000000+00:00</time></trkpt><trkpt lat="64.05856323" lon="-19.36470223"><ele>545.2</ele><time>2012-07-21T21:36:54.0000000+00:00</time></trkpt><trkpt lat="64.05856323" lon="-19.36470223"><ele>545.2</ele><time>2012-07-21T21:36:59.0000000+00:00</time></trkpt><trkpt lat="64.05856323" lon="-19.36470223"><ele>545.2</ele><time>2012-07-21T21:37:04.0000000+00:00</time></trkpt><trkpt lat="64.05856323" lon="-19.36470223"><ele>545.2</ele><time>2012-07-21T21:37:09.0000000+00:00</time></trkpt><trkpt lat="64.05856323" lon="-19.36470223"><ele>545.2</ele><time>2012-07-21T21:37:14.0000000+00:00</time></trkpt><trkpt lat="64.05856323" lon="-19.36470223"><ele>545.2</ele><time>2012-07-21T21:37:19.0000000+00:00</time></trkpt><trkpt lat="64.05857086" lon="-19.36470223"><ele>545.2</ele><time>2012-07-21T21:37:24.0000000+00:00</time></trkpt><trkpt lat="64.05857086" lon="-19.36470223"><ele>545.3</ele><time>2012-07-21T21:37:29.0000000+00:00</time></trkpt><trkpt lat="64.05857086" lon="-19.36470223"><ele>545.3</ele><time>2012-07-21T21:37:34.0000000+00:00</time></trkpt><trkpt lat="64.05857086" lon="-19.36470223"><ele>545.3</ele><time>2012-07-21T21:37:39.0000000+00:00</time></trkpt><trkpt lat="64.05856323" lon="-19.36470223"><ele>545.3</ele><time>2012-07-21T21:37:44.0000000+00:00</time></trkpt><trkpt lat="64.05856323" lon="-19.36470223"><ele>545.3</ele><time>2012-07-21T21:37:49.0000000+00:00</time></trkpt><trkpt lat="64.05856323" lon="-19.36470223"><ele>545.3</ele><time>2012-07-21T21:37:54.0000000+00:00</time></trkpt><trkpt lat="64.05856323" lon="-19.36470223"><ele>545.3</ele><time>2012-07-21T21:37:59.0000000+00:00</time></trkpt><trkpt lat="64.05856323" lon="-19.36470223"><ele>545.3</ele><time>2012-07-21T21:38:04.0000000+00:00</time></trkpt><trkpt lat="64.05856323" lon="-19.36470223"><ele>545.4</ele><time>2012-07-21T21:38:09.0000000+00:00</time></trkpt><trkpt lat="64.05856323" lon="-19.36470223"><ele>545.4</ele><time>2012-07-21T21:38:14.0000000+00:00</time></trkpt><trkpt lat="64.05856323" lon="-19.36470223"><ele>545.4</ele><time>2012-07-21T21:38:19.0000000+00:00</time></trkpt><trkpt lat="64.05856323" lon="-19.36470223"><ele>545.4</ele><time>2012-07-21T21:38:24.0000000+00:00</time></trkpt><trkpt lat="64.05856323" lon="-19.36470223"><ele>545.4</ele><time>2012-07-21T21:38:29.0000000+00:00</time></trkpt><trkpt lat="64.05856323" lon="-19.36470223"><ele>545.4</ele><time>2012-07-21T21:38:34.0000000+00:00</time></trkpt><trkpt lat="64.05856323" lon="-19.36470223"><ele>545.5</ele><time>2012-07-21T21:38:39.0000000+00:00</time></trkpt><trkpt lat="64.05857086" lon="-19.36470223"><ele>545.5</ele><time>2012-07-21T21:38:44.0000000+00:00</time></trkpt><trkpt lat="64.05857086" lon="-19.36470223"><ele>545.5</ele><time>2012-07-21T21:38:49.0000000+00:00</time></trkpt><trkpt lat="64.05857086" lon="-19.36470223"><ele>545.5</ele><time>2012-07-21T21:38:54.0000000+00:00</time></trkpt><trkpt lat="64.05857086" lon="-19.36470223"><ele>545.5</ele><time>2012-07-21T21:38:59.0000000+00:00</time></trkpt><trkpt lat="64.05857086" lon="-19.36470223"><ele>545.5</ele><time>2012-07-21T21:39:04.0000000+00:00</time></trkpt><trkpt lat="64.05857086" lon="-19.36470223"><ele>545.5</ele><time>2012-07-21T21:39:09.0000000+00:00</time></trkpt><trkpt lat="64.05857086" lon="-19.36470223"><ele>545.6</ele><time>2012-07-21T21:39:14.0000000+00:00</time></trkpt><trkpt lat="64.05857086" lon="-19.36470223"><ele>545.6</ele><time>2012-07-21T21:39:19.0000000+00:00</time></trkpt><trkpt lat="64.05857086" lon="-19.36470223"><ele>545.6</ele><time>2012-07-21T21:39:24.0000000+00:00</time></trkpt><trkpt lat="64.05857086" lon="-19.36470223"><ele>545.6</ele><time>2012-07-21T21:39:29.0000000+00:00</time></trkpt><trkpt lat="64.05857086" lon="-19.36470223"><ele>545.6</ele><time>2012-07-21T21:39:34.0000000+00:00</time></trkpt><trkpt lat="64.05857086" lon="-19.36470223"><ele>545.6</ele><time>2012-07-21T21:39:39.0000000+00:00</time></trkpt><trkpt lat="64.05857086" lon="-19.36470223"><ele>545.7</ele><time>2012-07-21T21:39:44.0000000+00:00</time></trkpt><trkpt lat="64.05857086" lon="-19.36470413"><ele>545.7</ele><time>2012-07-21T21:39:49.0000000+00:00</time></trkpt><trkpt lat="64.05857086" lon="-19.36470413"><ele>545.7</ele><time>2012-07-21T21:39:54.0000000+00:00</time></trkpt><trkpt lat="64.05857086" lon="-19.36470413"><ele>545.7</ele><time>2012-07-21T21:39:59.0000000+00:00</time></trkpt><trkpt lat="64.05857086" lon="-19.36470413"><ele>545.7</ele><time>2012-07-21T21:40:04.0000000+00:00</time></trkpt><trkpt lat="64.05857086" lon="-19.36470413"><ele>545.7</ele><time>2012-07-21T21:40:09.0000000+00:00</time></trkpt><trkpt lat="64.05857086" lon="-19.36470413"><ele>545.8</ele><time>2012-07-21T21:40:14.0000000+00:00</time></trkpt><trkpt lat="64.05857086" lon="-19.36470413"><ele>545.8</ele><time>2012-07-21T21:40:19.0000000+00:00</time></trkpt><trkpt lat="64.05857086" lon="-19.36470413"><ele>545.8</ele><time>2012-07-21T21:40:24.0000000+00:00</time></trkpt><trkpt lat="64.05857086" lon="-19.36470413"><ele>545.8</ele><time>2012-07-21T21:40:29.0000000+00:00</time></trkpt><trkpt lat="64.05857086" lon="-19.36470413"><ele>545.8</ele><time>2012-07-21T21:40:34.0000000+00:00</time></trkpt><trkpt lat="64.05857086" lon="-19.36470413"><ele>545.8</ele><time>2012-07-21T21:40:39.0000000+00:00</time></trkpt><trkpt lat="64.05857086" lon="-19.36470413"><ele>545.8</ele><time>2012-07-21T21:40:44.0000000+00:00</time></trkpt><trkpt lat="64.05857086" lon="-19.36470413"><ele>545.8</ele><time>2012-07-21T21:40:49.0000000+00:00</time></trkpt><trkpt lat="64.05857086" lon="-19.36470413"><ele>545.9</ele><time>2012-07-21T21:40:54.0000000+00:00</time></trkpt><trkpt lat="64.05857086" lon="-19.36470413"><ele>545.9</ele><time>2012-07-21T21:40:59.0000000+00:00</time></trkpt><trkpt lat="64.05857086" lon="-19.36470413"><ele>545.9</ele><time>2012-07-21T21:41:04.0000000+00:00</time></trkpt><trkpt lat="64.05857086" lon="-19.36470413"><ele>545.9</ele><time>2012-07-21T21:41:09.0000000+00:00</time></trkpt><trkpt lat="64.05857086" lon="-19.36470413"><ele>545.9</ele><time>2012-07-21T21:41:14.0000000+00:00</time></trkpt><trkpt lat="64.05857086" lon="-19.36470413"><ele>546.0</ele><time>2012-07-21T21:41:19.0000000+00:00</time></trkpt><trkpt lat="64.05857086" lon="-19.36470413"><ele>546.0</ele><time>2012-07-21T21:41:24.0000000+00:00</time></trkpt><trkpt lat="64.05857086" lon="-19.36470413"><ele>546.0</ele><time>2012-07-21T21:41:29.0000000+00:00</time></trkpt><trkpt lat="64.05857086" lon="-19.36470413"><ele>546.0</ele><time>2012-07-21T21:41:34.0000000+00:00</time></trkpt><trkpt lat="64.05857086" lon="-19.36470413"><ele>546.1</ele><time>2012-07-21T21:41:39.0000000+00:00</time></trkpt><trkpt lat="64.05857086" lon="-19.36470604"><ele>546.1</ele><time>2012-07-21T21:41:44.0000000+00:00</time></trkpt><trkpt lat="64.05857086" lon="-19.36470604"><ele>546.1</ele><time>2012-07-21T21:41:49.0000000+00:00</time></trkpt><trkpt lat="64.05857086" lon="-19.36470604"><ele>546.1</ele><time>2012-07-21T21:41:54.0000000+00:00</time></trkpt><trkpt lat="64.05857086" lon="-19.36470604"><ele>546.2</ele><time>2012-07-21T21:41:59.0000000+00:00</time></trkpt><trkpt lat="64.05857086" lon="-19.36470604"><ele>546.2</ele><time>2012-07-21T21:42:04.0000000+00:00</time></trkpt><trkpt lat="64.05856323" lon="-19.36470604"><ele>546.2</ele><time>2012-07-21T21:42:09.0000000+00:00</time></trkpt><trkpt lat="64.05856323" lon="-19.36470604"><ele>546.2</ele><time>2012-07-21T21:42:14.0000000+00:00</time></trkpt><trkpt lat="64.05856323" lon="-19.36470604"><ele>546.2</ele><time>2012-07-21T21:42:19.0000000+00:00</time></trkpt><trkpt lat="64.05856323" lon="-19.36470604"><ele>546.2</ele><time>2012-07-21T21:42:24.0000000+00:00</time></trkpt><trkpt lat="64.05856323" lon="-19.36470604"><ele>546.2</ele><time>2012-07-21T21:42:29.0000000+00:00</time></trkpt><trkpt lat="64.05856323" lon="-19.36470604"><ele>546.3</ele><time>2012-07-21T21:42:34.0000000+00:00</time></trkpt><trkpt lat="64.05856323" lon="-19.36470604"><ele>546.3</ele><time>2012-07-21T21:42:39.0000000+00:00</time></trkpt><trkpt lat="64.05856323" lon="-19.36470604"><ele>546.3</ele><time>2012-07-21T21:42:44.0000000+00:00</time></trkpt><trkpt lat="64.05856323" lon="-19.36470604"><ele>546.3</ele><time>2012-07-21T21:42:49.0000000+00:00</time></trkpt><trkpt lat="64.05856323" lon="-19.36470604"><ele>546.3</ele><time>2012-07-21T21:42:54.0000000+00:00</time></trkpt><trkpt lat="64.05856323" lon="-19.36470795"><ele>546.3</ele><time>2012-07-21T21:42:59.0000000+00:00</time></trkpt><trkpt lat="64.05856323" lon="-19.36470795"><ele>546.3</ele><time>2012-07-21T21:43:04.0000000+00:00</time></trkpt><trkpt lat="64.05856323" lon="-19.36470604"><ele>546.4</ele><time>2012-07-21T21:43:09.0000000+00:00</time></trkpt><trkpt lat="64.05856323" lon="-19.36470795"><ele>546.4</ele><time>2012-07-21T21:43:14.0000000+00:00</time></trkpt><trkpt lat="64.05856323" lon="-19.36470795"><ele>546.4</ele><time>2012-07-21T21:43:19.0000000+00:00</time></trkpt><trkpt lat="64.05856323" lon="-19.36470795"><ele>546.4</ele><time>2012-07-21T21:43:24.0000000+00:00</time></trkpt><trkpt lat="64.05856323" lon="-19.36470795"><ele>546.4</ele><time>2012-07-21T21:43:29.0000000+00:00</time></trkpt><trkpt lat="64.05856323" lon="-19.36470795"><ele>546.4</ele><time>2012-07-21T21:43:34.0000000+00:00</time></trkpt><trkpt lat="64.05856323" lon="-19.36470795"><ele>546.5</ele><time>2012-07-21T21:43:39.0000000+00:00</time></trkpt><trkpt lat="64.05856323" lon="-19.36470795"><ele>546.5</ele><time>2012-07-21T21:43:44.0000000+00:00</time></trkpt><trkpt lat="64.05856323" lon="-19.36470795"><ele>546.5</ele><time>2012-07-21T21:43:49.0000000+00:00</time></trkpt><trkpt lat="64.05856323" lon="-19.36470795"><ele>546.5</ele><time>2012-07-21T21:43:54.0000000+00:00</time></trkpt><trkpt lat="64.05856323" lon="-19.36470795"><ele>546.5</ele><time>2012-07-21T21:43:59.0000000+00:00</time></trkpt><trkpt lat="64.05856323" lon="-19.36470795"><ele>546.5</ele><time>2012-07-21T21:44:04.0000000+00:00</time></trkpt><trkpt lat="64.05856323" lon="-19.36470795"><ele>546.5</ele><time>2012-07-21T21:44:09.0000000+00:00</time></trkpt><trkpt lat="64.05856323" lon="-19.36470795"><ele>546.5</ele><time>2012-07-21T21:44:14.0000000+00:00</time></trkpt><trkpt lat="64.05856323" lon="-19.36470795"><ele>546.5</ele><time>2012-07-21T21:44:19.0000000+00:00</time></trkpt><trkpt lat="64.05856323" lon="-19.36470795"><ele>546.6</ele><time>2012-07-21T21:44:24.0000000+00:00</time></trkpt><trkpt lat="64.05856323" lon="-19.36470795"><ele>546.6</ele><time>2012-07-21T21:44:29.0000000+00:00</time></trkpt><trkpt lat="64.05856323" lon="-19.36470795"><ele>546.6</ele><time>2012-07-21T21:44:34.0000000+00:00</time></trkpt><trkpt lat="64.05856323" lon="-19.36470795"><ele>546.6</ele><time>2012-07-21T21:44:39.0000000+00:00</time></trkpt><trkpt lat="64.05856323" lon="-19.36470795"><ele>546.6</ele><time>2012-07-21T21:44:44.0000000+00:00</time></trkpt><trkpt lat="64.05856323" lon="-19.36470795"><ele>546.7</ele><time>2012-07-21T21:44:49.0000000+00:00</time></trkpt><trkpt lat="64.05856323" lon="-19.36470795"><ele>546.7</ele><time>2012-07-21T21:44:54.0000000+00:00</time></trkpt><trkpt lat="64.05856323" lon="-19.36470795"><ele>546.7</ele><time>2012-07-21T21:44:59.0000000+00:00</time></trkpt><trkpt lat="64.05856323" lon="-19.36470795"><ele>546.7</ele><time>2012-07-21T21:45:04.0000000+00:00</time></trkpt><trkpt lat="64.05856323" lon="-19.36470985"><ele>546.7</ele><time>2012-07-21T21:45:09.0000000+00:00</time></trkpt><trkpt lat="64.05856323" lon="-19.36470985"><ele>546.7</ele><time>2012-07-21T21:45:14.0000000+00:00</time></trkpt><trkpt lat="64.05856323" lon="-19.36470985"><ele>546.7</ele><time>2012-07-21T21:45:19.0000000+00:00</time></trkpt><trkpt lat="64.05856323" lon="-19.36470985"><ele>546.8</ele><time>2012-07-21T21:45:24.0000000+00:00</time></trkpt><trkpt lat="64.05856323" lon="-19.36470985"><ele>546.8</ele><time>2012-07-21T21:45:29.0000000+00:00</time></trkpt><trkpt lat="64.05856323" lon="-19.36470985"><ele>546.8</ele><time>2012-07-21T21:45:34.0000000+00:00</time></trkpt><trkpt lat="64.05856323" lon="-19.36470985"><ele>546.8</ele><time>2012-07-21T21:45:39.0000000+00:00</time></trkpt><trkpt lat="64.05856323" lon="-19.36470985"><ele>546.8</ele><time>2012-07-21T21:45:44.0000000+00:00</time></trkpt><trkpt lat="64.05856323" lon="-19.36470985"><ele>546.8</ele><time>2012-07-21T21:45:49.0000000+00:00</time></trkpt><trkpt lat="64.05856323" lon="-19.36470985"><ele>546.8</ele><time>2012-07-21T21:45:54.0000000+00:00</time></trkpt><trkpt lat="64.05856323" lon="-19.36470985"><ele>546.9</ele><time>2012-07-21T21:45:59.0000000+00:00</time></trkpt><trkpt lat="64.05856323" lon="-19.36470985"><ele>546.9</ele><time>2012-07-21T21:46:04.0000000+00:00</time></trkpt><trkpt lat="64.05856323" lon="-19.36470985"><ele>546.9</ele><time>2012-07-21T21:46:09.0000000+00:00</time></trkpt><trkpt lat="64.05856323" lon="-19.36470985"><ele>546.9</ele><time>2012-07-21T21:46:14.0000000+00:00</time></trkpt><trkpt lat="64.05856323" lon="-19.36470985"><ele>546.9</ele><time>2012-07-21T21:46:19.0000000+00:00</time></trkpt><trkpt lat="64.05856323" lon="-19.36470985"><ele>546.9</ele><time>2012-07-21T21:46:24.0000000+00:00</time></trkpt><trkpt lat="64.05856323" lon="-19.36470985"><ele>547.0</ele><time>2012-07-21T21:46:29.0000000+00:00</time></trkpt><trkpt lat="64.05856323" lon="-19.36470985"><ele>547.0</ele><time>2012-07-21T21:46:34.0000000+00:00</time></trkpt><trkpt lat="64.05856323" lon="-19.36470985"><ele>547.0</ele><time>2012-07-21T21:46:39.0000000+00:00</time></trkpt><trkpt lat="64.05856323" lon="-19.36470985"><ele>547.0</ele><time>2012-07-21T21:46:44.0000000+00:00</time></trkpt><trkpt lat="64.05856323" lon="-19.36471176"><ele>547.0</ele><time>2012-07-21T21:46:49.0000000+00:00</time></trkpt><trkpt lat="64.05856323" lon="-19.36471176"><ele>547.0</ele><time>2012-07-21T21:46:54.0000000+00:00</time></trkpt><trkpt lat="64.05856323" lon="-19.36471176"><ele>547.0</ele><time>2012-07-21T21:46:59.0000000+00:00</time></trkpt><trkpt lat="64.05856323" lon="-19.36471176"><ele>547.0</ele><time>2012-07-21T21:47:04.0000000+00:00</time></trkpt><trkpt lat="64.05856323" lon="-19.36471176"><ele>547.1</ele><time>2012-07-21T21:47:09.0000000+00:00</time></trkpt><trkpt lat="64.05856323" lon="-19.36471176"><ele>547.1</ele><time>2012-07-21T21:47:14.0000000+00:00</time></trkpt><trkpt lat="64.05856323" lon="-19.36471176"><ele>547.1</ele><time>2012-07-21T21:47:19.0000000+00:00</time></trkpt><trkpt lat="64.05856323" lon="-19.36471176"><ele>547.1</ele><time>2012-07-21T21:47:24.0000000+00:00</time></trkpt><trkpt lat="64.05856323" lon="-19.36471176"><ele>547.1</ele><time>2012-07-21T21:47:29.0000000+00:00</time></trkpt><trkpt lat="64.05856323" lon="-19.36471176"><ele>547.1</ele><time>2012-07-21T21:47:34.0000000+00:00</time></trkpt><trkpt lat="64.05856323" lon="-19.36471176"><ele>547.1</ele><time>2012-07-21T21:47:39.0000000+00:00</time></trkpt><trkpt lat="64.05856323" lon="-19.36471367"><ele>547.3</ele><time>2012-07-21T21:47:44.0000000+00:00</time></trkpt><trkpt lat="64.0585556" lon="-19.36471367"><ele>547.6</ele><time>2012-07-21T21:47:49.0000000+00:00</time></trkpt><trkpt lat="64.05854034" lon="-19.36462975"><ele>548.5</ele><time>2012-07-21T21:47:54.0000000+00:00</time></trkpt><trkpt lat="64.05850983" lon="-19.3645401"><ele>548.4</ele><time>2012-07-21T21:47:59.0000000+00:00</time></trkpt><trkpt lat="64.05847168" lon="-19.36444855"><ele>548.4</ele><time>2012-07-21T21:48:04.0000000+00:00</time></trkpt><trkpt lat="64.05844116" lon="-19.36435318"><ele>548.2</ele><time>2012-07-21T21:48:09.0000000+00:00</time></trkpt><trkpt lat="64.05841827" lon="-19.36426163"><ele>547.9</ele><time>2012-07-21T21:48:14.0000000+00:00</time></trkpt><trkpt lat="64.05839539" lon="-19.36418152"><ele>547.7</ele><time>2012-07-21T21:48:19.0000000+00:00</time></trkpt><trkpt lat="64.05835724" lon="-19.36408043"><ele>547.5</ele><time>2012-07-21T21:48:24.0000000+00:00</time></trkpt><trkpt lat="64.05833435" lon="-19.36400414"><ele>547.3</ele><time>2012-07-21T21:48:29.0000000+00:00</time></trkpt><trkpt lat="64.05830383" lon="-19.36391068"><ele>547.8</ele><time>2012-07-21T21:48:34.0000000+00:00</time></trkpt><trkpt lat="64.05826569" lon="-19.36383247"><ele>546.8</ele><time>2012-07-21T21:48:39.0000000+00:00</time></trkpt><trkpt lat="64.05823517" lon="-19.36373329"><ele>547.8</ele><time>2012-07-21T21:48:44.0000000+00:00</time></trkpt><trkpt lat="64.05821991" lon="-19.36368942"><ele>547.9</ele><time>2012-07-21T21:48:49.0000000+00:00</time></trkpt><trkpt lat="64.05818939" lon="-19.36360931"><ele>547.4</ele><time>2012-07-21T21:48:54.0000000+00:00</time></trkpt><trkpt lat="64.05815125" lon="-19.36353874"><ele>547.7</ele><time>2012-07-21T21:48:59.0000000+00:00</time></trkpt><trkpt lat="64.05812836" lon="-19.36349869"><ele>548.1</ele><time>2012-07-21T21:49:04.0000000+00:00</time></trkpt><trkpt lat="64.05810547" lon="-19.36343765"><ele>549.0</ele><time>2012-07-21T21:49:09.0000000+00:00</time></trkpt><trkpt lat="64.05808258" lon="-19.36336327"><ele>550.0</ele><time>2012-07-21T21:49:14.0000000+00:00</time></trkpt><trkpt lat="64.05805206" lon="-19.3632946"><ele>551.2</ele><time>2012-07-21T21:49:19.0000000+00:00</time></trkpt><trkpt lat="64.05800629" lon="-19.36320114"><ele>551.9</ele><time>2012-07-21T21:49:24.0000000+00:00</time></trkpt><trkpt lat="64.05796814" lon="-19.36311531"><ele>552.1</ele><time>2012-07-21T21:49:29.0000000+00:00</time></trkpt><trkpt lat="64.05792236" lon="-19.36302567"><ele>551.7</ele><time>2012-07-21T21:49:34.0000000+00:00</time></trkpt><trkpt lat="64.05789185" lon="-19.36294746"><ele>552.3</ele><time>2012-07-21T21:49:39.0000000+00:00</time></trkpt><trkpt lat="64.05784607" lon="-19.36288261"><ele>552.6</ele><time>2012-07-21T21:49:44.0000000+00:00</time></trkpt><trkpt lat="64.05780792" lon="-19.3628006"><ele>552.3</ele><time>2012-07-21T21:49:49.0000000+00:00</time></trkpt><trkpt lat="64.05776978" lon="-19.36273575"><ele>552.3</ele><time>2012-07-21T21:49:54.0000000+00:00</time></trkpt><trkpt lat="64.05773926" lon="-19.36266518"><ele>552.5</ele><time>2012-07-21T21:49:59.0000000+00:00</time></trkpt><trkpt lat="64.05769348" lon="-19.36258888"><ele>552.7</ele><time>2012-07-21T21:50:04.0000000+00:00</time></trkpt><trkpt lat="64.05766296" lon="-19.36253357"><ele>554.4</ele><time>2012-07-21T21:50:09.0000000+00:00</time></trkpt><trkpt lat="64.05762482" lon="-19.3624382"><ele>556.9</ele><time>2012-07-21T21:50:14.0000000+00:00</time></trkpt><trkpt lat="64.05758667" lon="-19.36235237"><ele>557.0</ele><time>2012-07-21T21:50:19.0000000+00:00</time></trkpt><trkpt lat="64.05754852" lon="-19.36226654"><ele>556.7</ele><time>2012-07-21T21:50:24.0000000+00:00</time></trkpt><trkpt lat="64.05751038" lon="-19.36218453"><ele>556.2</ele><time>2012-07-21T21:50:29.0000000+00:00</time></trkpt><trkpt lat="64.05747223" lon="-19.36209297"><ele>555.9</ele><time>2012-07-21T21:50:34.0000000+00:00</time></trkpt><trkpt lat="64.05743408" lon="-19.36200523"><ele>555.7</ele><time>2012-07-21T21:50:39.0000000+00:00</time></trkpt><trkpt lat="64.05740356" lon="-19.36192894"><ele>555.4</ele><time>2012-07-21T21:50:44.0000000+00:00</time></trkpt><trkpt lat="64.05736542" lon="-19.36186409"><ele>555.2</ele><time>2012-07-21T21:50:49.0000000+00:00</time></trkpt><trkpt lat="64.0573349" lon="-19.36180687"><ele>555.3</ele><time>2012-07-21T21:50:54.0000000+00:00</time></trkpt><trkpt lat="64.05730438" lon="-19.36172295"><ele>555.0</ele><time>2012-07-21T21:50:59.0000000+00:00</time></trkpt><trkpt lat="64.05728149" lon="-19.36163521"><ele>554.0</ele><time>2012-07-21T21:51:04.0000000+00:00</time></trkpt><trkpt lat="64.05725861" lon="-19.3615818"><ele>554.1</ele><time>2012-07-21T21:51:09.0000000+00:00</time></trkpt><trkpt lat="64.05723572" lon="-19.36154556"><ele>555.0</ele><time>2012-07-21T21:51:14.0000000+00:00</time></trkpt><trkpt lat="64.0572052" lon="-19.36149406"><ele>554.6</ele><time>2012-07-21T21:51:19.0000000+00:00</time></trkpt><trkpt lat="64.05716705" lon="-19.3614254"><ele>554.5</ele><time>2012-07-21T21:51:24.0000000+00:00</time></trkpt><trkpt lat="64.05712128" lon="-19.36133385"><ele>554.5</ele><time>2012-07-21T21:51:29.0000000+00:00</time></trkpt><trkpt lat="64.0570755" lon="-19.36125374"><ele>554.3</ele><time>2012-07-21T21:51:34.0000000+00:00</time></trkpt><trkpt lat="64.05703735" lon="-19.36117172"><ele>553.5</ele><time>2012-07-21T21:51:39.0000000+00:00</time></trkpt><trkpt lat="64.05699158" lon="-19.36110687"><ele>552.8</ele><time>2012-07-21T21:51:44.0000000+00:00</time></trkpt><trkpt lat="64.05695343" lon="-19.36103439"><ele>552.1</ele><time>2012-07-21T21:51:49.0000000+00:00</time></trkpt><trkpt lat="64.05690765" lon="-19.36099625"><ele>552.6</ele><time>2012-07-21T21:51:54.0000000+00:00</time></trkpt><trkpt lat="64.05686188" lon="-19.36095047"><ele>551.9</ele><time>2012-07-21T21:51:59.0000000+00:00</time></trkpt><trkpt lat="64.0568161" lon="-19.36086083"><ele>552.2</ele><time>2012-07-21T21:52:04.0000000+00:00</time></trkpt><trkpt lat="64.0567627" lon="-19.36077881"><ele>551.9</ele><time>2012-07-21T21:52:09.0000000+00:00</time></trkpt><trkpt lat="64.05671692" lon="-19.36070252"><ele>553.7</ele><time>2012-07-21T21:52:14.0000000+00:00</time></trkpt><trkpt lat="64.05667114" lon="-19.36063004"><ele>554.0</ele><time>2012-07-21T21:52:19.0000000+00:00</time></trkpt><trkpt lat="64.056633" lon="-19.36055183"><ele>553.7</ele><time>2012-07-21T21:52:24.0000000+00:00</time></trkpt><trkpt lat="64.05659485" lon="-19.36048126"><ele>553.3</ele><time>2012-07-21T21:52:29.0000000+00:00</time></trkpt><trkpt lat="64.0565567" lon="-19.36040688"><ele>552.7</ele><time>2012-07-21T21:52:34.0000000+00:00</time></trkpt><trkpt lat="64.0565033" lon="-19.36032486"><ele>551.7</ele><time>2012-07-21T21:52:39.0000000+00:00</time></trkpt><trkpt lat="64.05644989" lon="-19.36026382"><ele>551.0</ele><time>2012-07-21T21:52:44.0000000+00:00</time></trkpt><trkpt lat="64.05640411" lon="-19.36018181"><ele>550.6</ele><time>2012-07-21T21:52:49.0000000+00:00</time></trkpt><trkpt lat="64.05635834" lon="-19.3601017"><ele>550.9</ele><time>2012-07-21T21:52:54.0000000+00:00</time></trkpt><trkpt lat="64.05632019" lon="-19.36004448"><ele>550.5</ele><time>2012-07-21T21:52:59.0000000+00:00</time></trkpt><trkpt lat="64.0562973" lon="-19.36000252"><ele>550.6</ele><time>2012-07-21T21:53:04.0000000+00:00</time></trkpt><trkpt lat="64.05625153" lon="-19.35992813"><ele>550.2</ele><time>2012-07-21T21:53:09.0000000+00:00</time></trkpt><trkpt lat="64.05619812" lon="-19.35984993"><ele>550.3</ele><time>2012-07-21T21:53:14.0000000+00:00</time></trkpt><trkpt lat="64.05615997" lon="-19.35976219"><ele>550.1</ele><time>2012-07-21T21:53:19.0000000+00:00</time></trkpt><trkpt lat="64.05612183" lon="-19.35969544"><ele>549.8</ele><time>2012-07-21T21:53:24.0000000+00:00</time></trkpt><trkpt lat="64.05608368" lon="-19.35962105"><ele>550.3</ele><time>2012-07-21T21:53:29.0000000+00:00</time></trkpt><trkpt lat="64.05604553" lon="-19.35955048"><ele>551.1</ele><time>2012-07-21T21:53:34.0000000+00:00</time></trkpt><trkpt lat="64.05601502" lon="-19.35948944"><ele>551.9</ele><time>2012-07-21T21:53:39.0000000+00:00</time></trkpt><trkpt lat="64.0559845" lon="-19.35942459"><ele>552.9</ele><time>2012-07-21T21:53:44.0000000+00:00</time></trkpt><trkpt lat="64.05593872" lon="-19.35933495"><ele>553.3</ele><time>2012-07-21T21:53:49.0000000+00:00</time></trkpt><trkpt lat="64.05589294" lon="-19.35927773"><ele>553.6</ele><time>2012-07-21T21:53:54.0000000+00:00</time></trkpt><trkpt lat="64.0558548" lon="-19.3592186"><ele>553.9</ele><time>2012-07-21T21:53:59.0000000+00:00</time></trkpt><trkpt lat="64.05581665" lon="-19.3591671"><ele>556.6</ele><time>2012-07-21T21:54:04.0000000+00:00</time></trkpt><trkpt lat="64.05578613" lon="-19.35912323"><ele>557.7</ele><time>2012-07-21T21:54:09.0000000+00:00</time></trkpt><trkpt lat="64.05573273" lon="-19.35908699"><ele>558.4</ele><time>2012-07-21T21:54:14.0000000+00:00</time></trkpt><trkpt lat="64.05568695" lon="-19.35904121"><ele>559.3</ele><time>2012-07-21T21:54:19.0000000+00:00</time></trkpt><trkpt lat="64.05563355" lon="-19.35900307"><ele>560.2</ele><time>2012-07-21T21:54:24.0000000+00:00</time></trkpt><trkpt lat="64.05557251" lon="-19.35897636"><ele>561.3</ele><time>2012-07-21T21:54:29.0000000+00:00</time></trkpt><trkpt lat="64.0555191" lon="-19.3589592"><ele>561.6</ele><time>2012-07-21T21:54:34.0000000+00:00</time></trkpt><trkpt lat="64.0554657" lon="-19.35893059"><ele>562.4</ele><time>2012-07-21T21:54:39.0000000+00:00</time></trkpt><trkpt lat="64.05540466" lon="-19.35892677"><ele>563.0</ele><time>2012-07-21T21:54:44.0000000+00:00</time></trkpt><trkpt lat="64.05535889" lon="-19.35892105"><ele>563.9</ele><time>2012-07-21T21:54:49.0000000+00:00</time></trkpt><trkpt lat="64.05529785" lon="-19.35891724"><ele>564.2</ele><time>2012-07-21T21:54:54.0000000+00:00</time></trkpt><trkpt lat="64.05524445" lon="-19.35894394"><ele>564.8</ele><time>2012-07-21T21:54:59.0000000+00:00</time></trkpt><trkpt lat="64.05518341" lon="-19.35896301"><ele>565.7</ele><time>2012-07-21T21:55:04.0000000+00:00</time></trkpt><trkpt lat="64.05513001" lon="-19.35898018"><ele>566.6</ele><time>2012-07-21T21:55:09.0000000+00:00</time></trkpt><trkpt lat="64.05508423" lon="-19.35901642"><ele>567.6</ele><time>2012-07-21T21:55:14.0000000+00:00</time></trkpt><trkpt lat="64.05508423" lon="-19.35900497"><ele>568.4</ele><time>2012-07-21T21:55:19.0000000+00:00</time></trkpt><trkpt lat="64.05506134" lon="-19.35901833"><ele>568.7</ele><time>2012-07-21T21:55:24.0000000+00:00</time></trkpt><trkpt lat="64.05500794" lon="-19.35903359"><ele>569.4</ele><time>2012-07-21T21:55:29.0000000+00:00</time></trkpt><trkpt lat="64.05499268" lon="-19.35904121"><ele>570.2</ele><time>2012-07-21T21:55:34.0000000+00:00</time></trkpt><trkpt lat="64.05490875" lon="-19.35909271"><ele>570.3</ele><time>2012-07-21T21:55:39.0000000+00:00</time></trkpt><trkpt lat="64.05477142" lon="-19.3591156"><ele>569.7</ele><time>2012-07-21T21:55:44.0000000+00:00</time></trkpt><trkpt lat="64.05462647" lon="-19.35914612"><ele>568.3</ele><time>2012-07-21T21:55:49.0000000+00:00</time></trkpt><trkpt lat="64.0545044" lon="-19.35910988"><ele>569.0</ele><time>2012-07-21T21:55:54.0000000+00:00</time></trkpt><trkpt lat="64.05441284" lon="-19.35906982"><ele>568.8</ele><time>2012-07-21T21:55:59.0000000+00:00</time></trkpt><trkpt lat="64.05434418" lon="-19.35902214"><ele>568.9</ele><time>2012-07-21T21:56:04.0000000+00:00</time></trkpt><trkpt lat="64.05427551" lon="-19.35895538"><ele>569.4</ele><time>2012-07-21T21:56:09.0000000+00:00</time></trkpt><trkpt lat="64.05419159" lon="-19.35891724"><ele>568.0</ele><time>2012-07-21T21:56:14.0000000+00:00</time></trkpt><trkpt lat="64.05410767" lon="-19.35888481"><ele>567.9</ele><time>2012-07-21T21:56:19.0000000+00:00</time></trkpt><trkpt lat="64.05402374" lon="-19.35881043"><ele>568.3</ele><time>2012-07-21T21:56:24.0000000+00:00</time></trkpt><trkpt lat="64.05393982" lon="-19.35874367"><ele>569.6</ele><time>2012-07-21T21:56:29.0000000+00:00</time></trkpt><trkpt lat="64.05384827" lon="-19.35869026"><ele>569.5</ele><time>2012-07-21T21:56:34.0000000+00:00</time></trkpt><trkpt lat="64.0537796" lon="-19.35864449"><ele>570.6</ele><time>2012-07-21T21:56:39.0000000+00:00</time></trkpt><trkpt lat="64.05371094" lon="-19.35860252"><ele>571.6</ele><time>2012-07-21T21:56:44.0000000+00:00</time></trkpt><trkpt lat="64.05363464" lon="-19.35860252"><ele>571.5</ele><time>2012-07-21T21:56:49.0000000+00:00</time></trkpt><trkpt lat="64.05355835" lon="-19.35856056"><ele>573.2</ele><time>2012-07-21T21:56:54.0000000+00:00</time></trkpt><trkpt lat="64.05348206" lon="-19.3585453"><ele>572.5</ele><time>2012-07-21T21:56:59.0000000+00:00</time></trkpt><trkpt lat="64.05340576" lon="-19.35853195"><ele>573.0</ele><time>2012-07-21T21:57:04.0000000+00:00</time></trkpt><trkpt lat="64.05332947" lon="-19.35858345"><ele>573.2</ele><time>2012-07-21T21:57:09.0000000+00:00</time></trkpt><trkpt lat="64.05322266" lon="-19.35869598"><ele>573.6</ele><time>2012-07-21T21:57:14.0000000+00:00</time></trkpt><trkpt lat="64.0531311" lon="-19.35878372"><ele>572.5</ele><time>2012-07-21T21:57:19.0000000+00:00</time></trkpt><trkpt lat="64.05304718" lon="-19.35886955"><ele>573.1</ele><time>2012-07-21T21:57:24.0000000+00:00</time></trkpt><trkpt lat="64.05291748" lon="-19.35889626"><ele>572.3</ele><time>2012-07-21T21:57:29.0000000+00:00</time></trkpt><trkpt lat="64.05278015" lon="-19.35884094"><ele>572.2</ele><time>2012-07-21T21:57:34.0000000+00:00</time></trkpt><trkpt lat="64.05263519" lon="-19.35871506"><ele>570.7</ele><time>2012-07-21T21:57:39.0000000+00:00</time></trkpt><trkpt lat="64.05249786" lon="-19.35851097"><ele>569.4</ele><time>2012-07-21T21:57:44.0000000+00:00</time></trkpt><trkpt lat="64.05235291" lon="-19.35836029"><ele>568.1</ele><time>2012-07-21T21:57:49.0000000+00:00</time></trkpt><trkpt lat="64.05220795" lon="-19.35823441"><ele>567.8</ele><time>2012-07-21T21:57:54.0000000+00:00</time></trkpt><trkpt lat="64.05204773" lon="-19.35815048"><ele>567.3</ele><time>2012-07-21T21:57:59.0000000+00:00</time></trkpt><trkpt lat="64.05191803" lon="-19.3580761"><ele>567.4</ele><time>2012-07-21T21:58:04.0000000+00:00</time></trkpt><trkpt lat="64.0517807" lon="-19.35801506"><ele>568.0</ele><time>2012-07-21T21:58:09.0000000+00:00</time></trkpt><trkpt lat="64.05167389" lon="-19.35793304"><ele>566.9</ele><time>2012-07-21T21:58:14.0000000+00:00</time></trkpt><trkpt lat="64.05157471" lon="-19.35789681"><ele>566.1</ele><time>2012-07-21T21:58:19.0000000+00:00</time></trkpt><trkpt lat="64.05147553" lon="-19.35788155"><ele>564.8</ele><time>2012-07-21T21:58:24.0000000+00:00</time></trkpt><trkpt lat="64.0513916" lon="-19.35784721"><ele>566.2</ele><time>2012-07-21T21:58:29.0000000+00:00</time></trkpt><trkpt lat="64.05132294" lon="-19.35785675"><ele>566.8</ele><time>2012-07-21T21:58:34.0000000+00:00</time></trkpt><trkpt lat="64.05131531" lon="-19.35784721"><ele>567.5</ele><time>2012-07-21T21:58:39.0000000+00:00</time></trkpt><trkpt lat="64.05131531" lon="-19.35784912"><ele>567.5</ele><time>2012-07-21T21:58:44.0000000+00:00</time></trkpt><trkpt lat="64.05131531" lon="-19.35784721"><ele>567.5</ele><time>2012-07-21T21:58:49.0000000+00:00</time></trkpt><trkpt lat="64.05131531" lon="-19.35784912"><ele>567.4</ele><time>2012-07-21T21:58:54.0000000+00:00</time></trkpt><trkpt lat="64.05130005" lon="-19.35779762"><ele>567.4</ele><time>2012-07-21T21:58:59.0000000+00:00</time></trkpt><trkpt lat="64.05123138" lon="-19.35775185"><ele>568.0</ele><time>2012-07-21T21:59:04.0000000+00:00</time></trkpt><trkpt lat="64.05114746" lon="-19.35773277"><ele>569.3</ele><time>2012-07-21T21:59:09.0000000+00:00</time></trkpt><trkpt lat="64.05104828" lon="-19.35774231"><ele>570.3</ele><time>2012-07-21T21:59:14.0000000+00:00</time></trkpt><trkpt lat="64.05095673" lon="-19.35775757"><ele>571.6</ele><time>2012-07-21T21:59:19.0000000+00:00</time></trkpt><trkpt lat="64.05088043" lon="-19.3577385"><ele>571.7</ele><time>2012-07-21T21:59:24.0000000+00:00</time></trkpt><trkpt lat="64.05082703" lon="-19.35773087"><ele>572.2</ele><time>2012-07-21T21:59:29.0000000+00:00</time></trkpt><trkpt lat="64.05073547" lon="-19.3577137"><ele>572.5</ele><time>2012-07-21T21:59:34.0000000+00:00</time></trkpt><trkpt lat="64.05065918" lon="-19.35768318"><ele>571.3</ele><time>2012-07-21T21:59:39.0000000+00:00</time></trkpt><trkpt lat="64.05058289" lon="-19.35765839"><ele>571.0</ele><time>2012-07-21T21:59:44.0000000+00:00</time></trkpt><trkpt lat="64.05050659" lon="-19.35761261"><ele>570.9</ele><time>2012-07-21T21:59:49.0000000+00:00</time></trkpt><trkpt lat="64.05042267" lon="-19.35758019"><ele>572.0</ele><time>2012-07-21T21:59:54.0000000+00:00</time></trkpt><trkpt lat="64.05034638" lon="-19.35751724"><ele>572.7</ele><time>2012-07-21T21:59:59.0000000+00:00</time></trkpt><trkpt lat="64.05025482" lon="-19.35748291"><ele>573.3</ele><time>2012-07-21T22:00:04.0000000+00:00</time></trkpt><trkpt lat="64.05017853" lon="-19.35745812"><ele>573.8</ele><time>2012-07-21T22:00:09.0000000+00:00</time></trkpt><trkpt lat="64.05011749" lon="-19.35741234"><ele>573.4</ele><time>2012-07-21T22:00:14.0000000+00:00</time></trkpt><trkpt lat="64.05003357" lon="-19.35739136"><ele>574.0</ele><time>2012-07-21T22:00:19.0000000+00:00</time></trkpt><trkpt lat="64.04994965" lon="-19.35735321"><ele>574.5</ele><time>2012-07-21T22:00:24.0000000+00:00</time></trkpt><trkpt lat="64.04988098" lon="-19.35731125"><ele>574.6</ele><time>2012-07-21T22:00:29.0000000+00:00</time></trkpt><trkpt lat="64.04979706" lon="-19.35725403"><ele>574.7</ele><time>2012-07-21T22:00:34.0000000+00:00</time></trkpt><trkpt lat="64.04970551" lon="-19.35720062"><ele>574.8</ele><time>2012-07-21T22:00:39.0000000+00:00</time></trkpt><trkpt lat="64.04962158" lon="-19.35712624"><ele>574.8</ele><time>2012-07-21T22:00:44.0000000+00:00</time></trkpt><trkpt lat="64.04953766" lon="-19.35705185"><ele>576.0</ele><time>2012-07-21T22:00:49.0000000+00:00</time></trkpt><trkpt lat="64.04945374" lon="-19.35698509"><ele>576.6</ele><time>2012-07-21T22:00:54.0000000+00:00</time></trkpt><trkpt lat="64.04937744" lon="-19.35690498"><ele>576.8</ele><time>2012-07-21T22:00:59.0000000+00:00</time></trkpt><trkpt lat="64.04931641" lon="-19.35684776"><ele>577.1</ele><time>2012-07-21T22:01:04.0000000+00:00</time></trkpt><trkpt lat="64.04931641" lon="-19.35685539"><ele>577.8</ele><time>2012-07-21T22:01:09.0000000+00:00</time></trkpt><trkpt lat="64.04931641" lon="-19.35685539"><ele>577.8</ele><time>2012-07-21T22:01:14.0000000+00:00</time></trkpt><trkpt lat="64.04927826" lon="-19.35680771"><ele>578.0</ele><time>2012-07-21T22:01:19.0000000+00:00</time></trkpt><trkpt lat="64.04917908" lon="-19.35670281"><ele>578.2</ele><time>2012-07-21T22:01:24.0000000+00:00</time></trkpt><trkpt lat="64.04907227" lon="-19.35656548"><ele>578.8</ele><time>2012-07-21T22:01:29.0000000+00:00</time></trkpt><trkpt lat="64.04899597" lon="-19.35647202"><ele>578.0</ele><time>2012-07-21T22:01:34.0000000+00:00</time></trkpt><trkpt lat="64.04893494" lon="-19.35639"><ele>577.5</ele><time>2012-07-21T22:01:39.0000000+00:00</time></trkpt><trkpt lat="64.04885864" lon="-19.35630798"><ele>575.7</ele><time>2012-07-21T22:01:44.0000000+00:00</time></trkpt><trkpt lat="64.04878235" lon="-19.35622597"><ele>576.0</ele><time>2012-07-21T22:01:49.0000000+00:00</time></trkpt><trkpt lat="64.04869843" lon="-19.35614777"><ele>576.0</ele><time>2012-07-21T22:01:54.0000000+00:00</time></trkpt><trkpt lat="64.0486145" lon="-19.35606384"><ele>576.5</ele><time>2012-07-21T22:01:59.0000000+00:00</time></trkpt><trkpt lat="64.04854584" lon="-19.35597229"><ele>577.5</ele><time>2012-07-21T22:02:04.0000000+00:00</time></trkpt><trkpt lat="64.04846191" lon="-19.35588455"><ele>577.2</ele><time>2012-07-21T22:02:09.0000000+00:00</time></trkpt><trkpt lat="64.04837036" lon="-19.355793"><ele>578.9</ele><time>2012-07-21T22:02:14.0000000+00:00</time></trkpt><trkpt lat="64.04828644" lon="-19.35572052"><ele>578.3</ele><time>2012-07-21T22:02:19.0000000+00:00</time></trkpt><trkpt lat="64.04820252" lon="-19.3556366"><ele>579.8</ele><time>2012-07-21T22:02:24.0000000+00:00</time></trkpt><trkpt lat="64.04813385" lon="-19.35557365"><ele>581.0</ele><time>2012-07-21T22:02:29.0000000+00:00</time></trkpt><trkpt lat="64.04806519" lon="-19.35549736"><ele>582.4</ele><time>2012-07-21T22:02:34.0000000+00:00</time></trkpt><trkpt lat="64.04798126" lon="-19.35544014"><ele>582.8</ele><time>2012-07-21T22:02:39.0000000+00:00</time></trkpt><trkpt lat="64.04790497" lon="-19.35537529"><ele>581.0</ele><time>2012-07-21T22:02:44.0000000+00:00</time></trkpt><trkpt lat="64.04785156" lon="-19.35529518"><ele>581.7</ele><time>2012-07-21T22:02:49.0000000+00:00</time></trkpt><trkpt lat="64.04776764" lon="-19.35521317"><ele>581.5</ele><time>2012-07-21T22:02:54.0000000+00:00</time></trkpt><trkpt lat="64.04767609" lon="-19.35513496"><ele>582.3</ele><time>2012-07-21T22:02:59.0000000+00:00</time></trkpt><trkpt lat="64.04759216" lon="-19.35500908"><ele>582.9</ele><time>2012-07-21T22:03:04.0000000+00:00</time></trkpt><trkpt lat="64.04750061" lon="-19.35488701"><ele>581.7</ele><time>2012-07-21T22:03:09.0000000+00:00</time></trkpt><trkpt lat="64.04740906" lon="-19.35477448"><ele>581.6</ele><time>2012-07-21T22:03:14.0000000+00:00</time></trkpt><trkpt lat="64.04734039" lon="-19.35469055"><ele>582.2</ele><time>2012-07-21T22:03:19.0000000+00:00</time></trkpt><trkpt lat="64.04727936" lon="-19.35456085"><ele>581.5</ele><time>2012-07-21T22:03:24.0000000+00:00</time></trkpt><trkpt lat="64.04718781" lon="-19.35443115"><ele>580.3</ele><time>2012-07-21T22:03:29.0000000+00:00</time></trkpt><trkpt lat="64.04710388" lon="-19.3543129"><ele>579.9</ele><time>2012-07-21T22:03:34.0000000+00:00</time></trkpt><trkpt lat="64.04702759" lon="-19.35418129"><ele>580.0</ele><time>2012-07-21T22:03:39.0000000+00:00</time></trkpt><trkpt lat="64.04694367" lon="-19.3540802"><ele>579.8</ele><time>2012-07-21T22:03:44.0000000+00:00</time></trkpt><trkpt lat="64.04686737" lon="-19.35403442"><ele>579.5</ele><time>2012-07-21T22:03:49.0000000+00:00</time></trkpt><trkpt lat="64.04678345" lon="-19.35396004"><ele>580.2</ele><time>2012-07-21T22:03:54.0000000+00:00</time></trkpt><trkpt lat="64.04669952" lon="-19.35394859"><ele>580.0</ele><time>2012-07-21T22:03:59.0000000+00:00</time></trkpt><trkpt lat="64.04660034" lon="-19.35397339"><ele>580.8</ele><time>2012-07-21T22:04:04.0000000+00:00</time></trkpt><trkpt lat="64.04651642" lon="-19.3540287"><ele>581.1</ele><time>2012-07-21T22:04:09.0000000+00:00</time></trkpt><trkpt lat="64.04642487" lon="-19.35407257"><ele>581.7</ele><time>2012-07-21T22:04:14.0000000+00:00</time></trkpt><trkpt lat="64.04632568" lon="-19.35411835"><ele>582.7</ele><time>2012-07-21T22:04:19.0000000+00:00</time></trkpt><trkpt lat="64.04621887" lon="-19.35415077"><ele>582.2</ele><time>2012-07-21T22:04:24.0000000+00:00</time></trkpt><trkpt lat="64.04611206" lon="-19.35421944"><ele>579.8</ele><time>2012-07-21T22:04:29.0000000+00:00</time></trkpt><trkpt lat="64.04598999" lon="-19.35427666"><ele>578.8</ele><time>2012-07-21T22:04:34.0000000+00:00</time></trkpt><trkpt lat="64.04587555" lon="-19.35431671"><ele>578.7</ele><time>2012-07-21T22:04:39.0000000+00:00</time></trkpt><trkpt lat="64.04577637" lon="-19.35429001"><ele>579.5</ele><time>2012-07-21T22:04:44.0000000+00:00</time></trkpt><trkpt lat="64.04567719" lon="-19.35420036"><ele>581.3</ele><time>2012-07-21T22:04:49.0000000+00:00</time></trkpt><trkpt lat="64.045578" lon="-19.35409355"><ele>581.6</ele><time>2012-07-21T22:04:54.0000000+00:00</time></trkpt><trkpt lat="64.04550171" lon="-19.35399056"><ele>581.8</ele><time>2012-07-21T22:04:59.0000000+00:00</time></trkpt><trkpt lat="64.04544067" lon="-19.35390854"><ele>582.9</ele><time>2012-07-21T22:05:04.0000000+00:00</time></trkpt><trkpt lat="64.04538727" lon="-19.3538208"><ele>583.0</ele><time>2012-07-21T22:05:09.0000000+00:00</time></trkpt><trkpt lat="64.04531097" lon="-19.35374832"><ele>582.1</ele><time>2012-07-21T22:05:14.0000000+00:00</time></trkpt><trkpt lat="64.04525757" lon="-19.35365677"><ele>581.5</ele><time>2012-07-21T22:05:19.0000000+00:00</time></trkpt><trkpt lat="64.04517365" lon="-19.35359192"><ele>581.4</ele><time>2012-07-21T22:05:24.0000000+00:00</time></trkpt><trkpt lat="64.04510498" lon="-19.35352135"><ele>581.4</ele><time>2012-07-21T22:05:29.0000000+00:00</time></trkpt><trkpt lat="64.04502869" lon="-19.35343361"><ele>581.9</ele><time>2012-07-21T22:05:34.0000000+00:00</time></trkpt><trkpt lat="64.04495239" lon="-19.35336876"><ele>579.5</ele><time>2012-07-21T22:05:39.0000000+00:00</time></trkpt><trkpt lat="64.04489136" lon="-19.3533001"><ele>577.8</ele><time>2012-07-21T22:05:44.0000000+00:00</time></trkpt><trkpt lat="64.04483032" lon="-19.35322189"><ele>578.7</ele><time>2012-07-21T22:05:49.0000000+00:00</time></trkpt><trkpt lat="64.04479218" lon="-19.35318756"><ele>578.9</ele><time>2012-07-21T22:05:54.0000000+00:00</time></trkpt><trkpt lat="64.0447464" lon="-19.35317993"><ele>578.0</ele><time>2012-07-21T22:05:59.0000000+00:00</time></trkpt><trkpt lat="64.04469299" lon="-19.3531208"><ele>576.9</ele><time>2012-07-21T22:06:04.0000000+00:00</time></trkpt><trkpt lat="64.04463959" lon="-19.35305214"><ele>576.6</ele><time>2012-07-21T22:06:09.0000000+00:00</time></trkpt><trkpt lat="64.04458618" lon="-19.3529911"><ele>575.7</ele><time>2012-07-21T22:06:14.0000000+00:00</time></trkpt><trkpt lat="64.04453278" lon="-19.35290337"><ele>573.8</ele><time>2012-07-21T22:06:19.0000000+00:00</time></trkpt><trkpt lat="64.044487" lon="-19.35285759"><ele>573.9</ele><time>2012-07-21T22:06:24.0000000+00:00</time></trkpt><trkpt lat="64.04443359" lon="-19.35277557"><ele>573.2</ele><time>2012-07-21T22:06:29.0000000+00:00</time></trkpt><trkpt lat="64.04438019" lon="-19.35268974"><ele>572.9</ele><time>2012-07-21T22:06:34.0000000+00:00</time></trkpt><trkpt lat="64.04432678" lon="-19.35260201"><ele>572.2</ele><time>2012-07-21T22:06:39.0000000+00:00</time></trkpt><trkpt lat="64.04428101" lon="-19.35254097"><ele>572.3</ele><time>2012-07-21T22:06:44.0000000+00:00</time></trkpt><trkpt lat="64.04425812" lon="-19.35249138"><ele>572.5</ele><time>2012-07-21T22:06:49.0000000+00:00</time></trkpt><trkpt lat="64.0442276" lon="-19.35243034"><ele>571.9</ele><time>2012-07-21T22:06:54.0000000+00:00</time></trkpt><trkpt lat="64.04418945" lon="-19.35234642"><ele>571.6</ele><time>2012-07-21T22:06:59.0000000+00:00</time></trkpt><trkpt lat="64.04414368" lon="-19.35229302"><ele>571.1</ele><time>2012-07-21T22:07:04.0000000+00:00</time></trkpt><trkpt lat="64.04411316" lon="-19.35223389"><ele>570.9</ele><time>2012-07-21T22:07:09.0000000+00:00</time></trkpt><trkpt lat="64.04408264" lon="-19.35219383"><ele>571.5</ele><time>2012-07-21T22:07:14.0000000+00:00</time></trkpt><trkpt lat="64.04407501" lon="-19.35219193"><ele>571.5</ele><time>2012-07-21T22:07:19.0000000+00:00</time></trkpt><trkpt lat="64.04405975" lon="-19.35215378"><ele>571.2</ele><time>2012-07-21T22:07:24.0000000+00:00</time></trkpt><trkpt lat="64.04405975" lon="-19.35215378"><ele>571.2</ele><time>2012-07-21T22:07:29.0000000+00:00</time></trkpt><trkpt lat="64.04405975" lon="-19.35215759"><ele>571.0</ele><time>2012-07-21T22:07:34.0000000+00:00</time></trkpt><trkpt lat="64.04405975" lon="-19.35215569"><ele>571.1</ele><time>2012-07-21T22:07:39.0000000+00:00</time></trkpt><trkpt lat="64.04405975" lon="-19.35215569"><ele>571.1</ele><time>2012-07-21T22:07:44.0000000+00:00</time></trkpt><trkpt lat="64.0440445" lon="-19.35212898"><ele>571.7</ele><time>2012-07-21T22:07:49.0000000+00:00</time></trkpt><trkpt lat="64.04400635" lon="-19.35204315"><ele>572.4</ele><time>2012-07-21T22:07:54.0000000+00:00</time></trkpt><trkpt lat="64.04395294" lon="-19.35194969"><ele>572.7</ele><time>2012-07-21T22:07:59.0000000+00:00</time></trkpt><trkpt lat="64.04390717" lon="-19.35186005"><ele>573.3</ele><time>2012-07-21T22:08:04.0000000+00:00</time></trkpt><trkpt lat="64.04385376" lon="-19.35177231"><ele>573.2</ele><time>2012-07-21T22:08:09.0000000+00:00</time></trkpt><trkpt lat="64.04380798" lon="-19.35169601"><ele>572.8</ele><time>2012-07-21T22:08:14.0000000+00:00</time></trkpt><trkpt lat="64.04376221" lon="-19.35162735"><ele>572.9</ele><time>2012-07-21T22:08:19.0000000+00:00</time></trkpt><trkpt lat="64.04371643" lon="-19.35155106"><ele>572.9</ele><time>2012-07-21T22:08:24.0000000+00:00</time></trkpt><trkpt lat="64.04367065" lon="-19.35148621"><ele>573.1</ele><time>2012-07-21T22:08:29.0000000+00:00</time></trkpt><trkpt lat="64.04363251" lon="-19.35141182"><ele>572.6</ele><time>2012-07-21T22:08:34.0000000+00:00</time></trkpt><trkpt lat="64.04362488" lon="-19.35139656"><ele>572.8</ele><time>2012-07-21T22:08:39.0000000+00:00</time></trkpt><trkpt lat="64.04362488" lon="-19.35139656"><ele>572.8</ele><time>2012-07-21T22:08:44.0000000+00:00</time></trkpt><trkpt lat="64.04362488" lon="-19.35139656"><ele>572.8</ele><time>2012-07-21T22:08:49.0000000+00:00</time></trkpt><trkpt lat="64.04358673" lon="-19.35134125"><ele>573.4</ele><time>2012-07-21T22:08:54.0000000+00:00</time></trkpt><trkpt lat="64.04354096" lon="-19.35126305"><ele>573.5</ele><time>2012-07-21T22:08:59.0000000+00:00</time></trkpt><trkpt lat="64.04348755" lon="-19.35118675"><ele>573.9</ele><time>2012-07-21T22:09:04.0000000+00:00</time></trkpt><trkpt lat="64.04343414" lon="-19.35109329"><ele>573.8</ele><time>2012-07-21T22:09:09.0000000+00:00</time></trkpt><trkpt lat="64.043396" lon="-19.35102654"><ele>574.2</ele><time>2012-07-21T22:09:14.0000000+00:00</time></trkpt><trkpt lat="64.04334259" lon="-19.35094452"><ele>575.2</ele><time>2012-07-21T22:09:19.0000000+00:00</time></trkpt><trkpt lat="64.04329681" lon="-19.35085487"><ele>575.9</ele><time>2012-07-21T22:09:24.0000000+00:00</time></trkpt><trkpt lat="64.04325104" lon="-19.35079575"><ele>576.3</ele><time>2012-07-21T22:09:29.0000000+00:00</time></trkpt><trkpt lat="64.04319" lon="-19.35073471"><ele>576.4</ele><time>2012-07-21T22:09:34.0000000+00:00</time></trkpt><trkpt lat="64.04312897" lon="-19.35068703"><ele>576.5</ele><time>2012-07-21T22:09:39.0000000+00:00</time></trkpt><trkpt lat="64.04306793" lon="-19.35063553"><ele>577.5</ele><time>2012-07-21T22:09:44.0000000+00:00</time></trkpt><trkpt lat="64.04302216" lon="-19.35062408"><ele>577.9</ele><time>2012-07-21T22:09:49.0000000+00:00</time></trkpt><trkpt lat="64.04296875" lon="-19.35057068"><ele>578.0</ele><time>2012-07-21T22:09:54.0000000+00:00</time></trkpt><trkpt lat="64.04291534" lon="-19.35053062"><ele>578.7</ele><time>2012-07-21T22:09:59.0000000+00:00</time></trkpt><trkpt lat="64.04286194" lon="-19.35048866"><ele>579.8</ele><time>2012-07-21T22:10:04.0000000+00:00</time></trkpt><trkpt lat="64.04281616" lon="-19.3504467"><ele>580.1</ele><time>2012-07-21T22:10:09.0000000+00:00</time></trkpt><trkpt lat="64.04277039" lon="-19.35038185"><ele>580.6</ele><time>2012-07-21T22:10:14.0000000+00:00</time></trkpt><trkpt lat="64.04276276" lon="-19.35036087"><ele>581.6</ele><time>2012-07-21T22:10:19.0000000+00:00</time></trkpt><trkpt lat="64.04276276" lon="-19.35036087"><ele>581.5</ele><time>2012-07-21T22:10:24.0000000+00:00</time></trkpt><trkpt lat="64.04275513" lon="-19.35035706"><ele>581.9</ele><time>2012-07-21T22:10:29.0000000+00:00</time></trkpt><trkpt lat="64.04270935" lon="-19.35030365"><ele>581.9</ele><time>2012-07-21T22:10:34.0000000+00:00</time></trkpt><trkpt lat="64.04264832" lon="-19.35025406"><ele>581.7</ele><time>2012-07-21T22:10:39.0000000+00:00</time></trkpt><trkpt lat="64.04260254" lon="-19.35019112"><ele>581.2</ele><time>2012-07-21T22:10:44.0000000+00:00</time></trkpt><trkpt lat="64.04255676" lon="-19.3501091"><ele>580.1</ele><time>2012-07-21T22:10:49.0000000+00:00</time></trkpt><trkpt lat="64.04251099" lon="-19.35002327"><ele>579.3</ele><time>2012-07-21T22:10:54.0000000+00:00</time></trkpt><trkpt lat="64.04249573" lon="-19.34999085"><ele>579.0</ele><time>2012-07-21T22:10:59.0000000+00:00</time></trkpt><trkpt lat="64.0424881" lon="-19.34997177"><ele>578.7</ele><time>2012-07-21T22:11:04.0000000+00:00</time></trkpt><trkpt lat="64.04246521" lon="-19.34994316"><ele>578.6</ele><time>2012-07-21T22:11:09.0000000+00:00</time></trkpt><trkpt lat="64.04243469" lon="-19.34988594"><ele>579.3</ele><time>2012-07-21T22:11:14.0000000+00:00</time></trkpt><trkpt lat="64.04239655" lon="-19.34981155"><ele>579.3</ele><time>2012-07-21T22:11:19.0000000+00:00</time></trkpt><trkpt lat="64.04236603" lon="-19.34973908"><ele>579.0</ele><time>2012-07-21T22:11:24.0000000+00:00</time></trkpt><trkpt lat="64.04231262" lon="-19.3496685"><ele>579.0</ele><time>2012-07-21T22:11:29.0000000+00:00</time></trkpt><trkpt lat="64.04226685" lon="-19.3495903"><ele>579.2</ele><time>2012-07-21T22:11:34.0000000+00:00</time></trkpt><trkpt lat="64.04222107" lon="-19.34952164"><ele>579.0</ele><time>2012-07-21T22:11:39.0000000+00:00</time></trkpt><trkpt lat="64.04217529" lon="-19.34947395"><ele>579.5</ele><time>2012-07-21T22:11:44.0000000+00:00</time></trkpt><trkpt lat="64.04212952" lon="-19.34939957"><ele>580.0</ele><time>2012-07-21T22:11:49.0000000+00:00</time></trkpt><trkpt lat="64.04209137" lon="-19.34933472"><ele>580.4</ele><time>2012-07-21T22:11:54.0000000+00:00</time></trkpt><trkpt lat="64.04206848" lon="-19.34930611"><ele>581.1</ele><time>2012-07-21T22:11:59.0000000+00:00</time></trkpt><trkpt lat="64.04206085" lon="-19.34930611"><ele>581.2</ele><time>2012-07-21T22:12:04.0000000+00:00</time></trkpt><trkpt lat="64.04202271" lon="-19.34927368"><ele>581.8</ele><time>2012-07-21T22:12:09.0000000+00:00</time></trkpt><trkpt lat="64.04198456" lon="-19.34921455"><ele>581.4</ele><time>2012-07-21T22:12:14.0000000+00:00</time></trkpt><trkpt lat="64.04193115" lon="-19.34916306"><ele>582.4</ele><time>2012-07-21T22:12:19.0000000+00:00</time></trkpt><trkpt lat="64.04188538" lon="-19.34910393"><ele>582.3</ele><time>2012-07-21T22:12:24.0000000+00:00</time></trkpt><trkpt lat="64.04184723" lon="-19.34903717"><ele>582.6</ele><time>2012-07-21T22:12:29.0000000+00:00</time></trkpt><trkpt lat="64.04180145" lon="-19.34897423"><ele>582.4</ele><time>2012-07-21T22:12:34.0000000+00:00</time></trkpt><trkpt lat="64.04174805" lon="-19.34891701"><ele>583.0</ele><time>2012-07-21T22:12:39.0000000+00:00</time></trkpt><trkpt lat="64.04170227" lon="-19.34887695"><ele>583.0</ele><time>2012-07-21T22:12:44.0000000+00:00</time></trkpt><trkpt lat="64.04164887" lon="-19.34880066"><ele>583.5</ele><time>2012-07-21T22:12:49.0000000+00:00</time></trkpt><trkpt lat="64.04158783" lon="-19.3487339"><ele>584.0</ele><time>2012-07-21T22:12:54.0000000+00:00</time></trkpt><trkpt lat="64.04153442" lon="-19.34867668"><ele>584.4</ele><time>2012-07-21T22:12:59.0000000+00:00</time></trkpt><trkpt lat="64.04148865" lon="-19.3486042"><ele>584.3</ele><time>2012-07-21T22:13:04.0000000+00:00</time></trkpt><trkpt lat="64.04143524" lon="-19.34853172"><ele>584.7</ele><time>2012-07-21T22:13:09.0000000+00:00</time></trkpt><trkpt lat="64.04138184" lon="-19.34845734"><ele>585.2</ele><time>2012-07-21T22:13:14.0000000+00:00</time></trkpt><trkpt lat="64.04136658" lon="-19.34843826"><ele>586.0</ele><time>2012-07-21T22:13:19.0000000+00:00</time></trkpt><trkpt lat="64.04135895" lon="-19.34843445"><ele>586.2</ele><time>2012-07-21T22:13:24.0000000+00:00</time></trkpt><trkpt lat="64.0413208" lon="-19.34837914"><ele>585.4</ele><time>2012-07-21T22:13:29.0000000+00:00</time></trkpt><trkpt lat="64.04128265" lon="-19.34832001"><ele>585.4</ele><time>2012-07-21T22:13:34.0000000+00:00</time></trkpt><trkpt lat="64.04124451" lon="-19.34825707"><ele>585.5</ele><time>2012-07-21T22:13:39.0000000+00:00</time></trkpt><trkpt lat="64.04119873" lon="-19.34818649"><ele>585.6</ele><time>2012-07-21T22:13:44.0000000+00:00</time></trkpt><trkpt lat="64.04114533" lon="-19.34812164"><ele>585.7</ele><time>2012-07-21T22:13:49.0000000+00:00</time></trkpt><trkpt lat="64.04109192" lon="-19.34807205"><ele>586.0</ele><time>2012-07-21T22:13:54.0000000+00:00</time></trkpt><trkpt lat="64.04105377" lon="-19.34800911"><ele>586.0</ele><time>2012-07-21T22:13:59.0000000+00:00</time></trkpt><trkpt lat="64.04101563" lon="-19.34795189"><ele>586.3</ele><time>2012-07-21T22:14:04.0000000+00:00</time></trkpt><trkpt lat="64.04095459" lon="-19.34790039"><ele>586.9</ele><time>2012-07-21T22:14:09.0000000+00:00</time></trkpt><trkpt lat="64.04090881" lon="-19.34782982"><ele>586.7</ele><time>2012-07-21T22:14:14.0000000+00:00</time></trkpt><trkpt lat="64.04086304" lon="-19.34776878"><ele>586.9</ele><time>2012-07-21T22:14:19.0000000+00:00</time></trkpt><trkpt lat="64.04081726" lon="-19.34768868"><ele>587.2</ele><time>2012-07-21T22:14:24.0000000+00:00</time></trkpt><trkpt lat="64.04077148" lon="-19.34762764"><ele>587.1</ele><time>2012-07-21T22:14:29.0000000+00:00</time></trkpt><trkpt lat="64.04072571" lon="-19.34756851"><ele>587.3</ele><time>2012-07-21T22:14:34.0000000+00:00</time></trkpt><trkpt lat="64.04067993" lon="-19.34750938"><ele>587.6</ele><time>2012-07-21T22:14:39.0000000+00:00</time></trkpt><trkpt lat="64.04062653" lon="-19.34745026"><ele>587.9</ele><time>2012-07-21T22:14:44.0000000+00:00</time></trkpt><trkpt lat="64.04058838" lon="-19.34736633"><ele>587.2</ele><time>2012-07-21T22:14:49.0000000+00:00</time></trkpt><trkpt lat="64.04056549" lon="-19.347332"><ele>587.0</ele><time>2012-07-21T22:14:54.0000000+00:00</time></trkpt><trkpt lat="64.0405426" lon="-19.34731293"><ele>587.6</ele><time>2012-07-21T22:14:59.0000000+00:00</time></trkpt><trkpt lat="64.04049683" lon="-19.347229"><ele>587.4</ele><time>2012-07-21T22:15:04.0000000+00:00</time></trkpt><trkpt lat="64.04045868" lon="-19.3471756"><ele>587.9</ele><time>2012-07-21T22:15:09.0000000+00:00</time></trkpt><trkpt lat="64.0404129" lon="-19.3470974"><ele>587.5</ele><time>2012-07-21T22:15:14.0000000+00:00</time></trkpt><trkpt lat="64.04036713" lon="-19.34702683"><ele>587.1</ele><time>2012-07-21T22:15:19.0000000+00:00</time></trkpt><trkpt lat="64.04031372" lon="-19.34695053"><ele>586.8</ele><time>2012-07-21T22:15:24.0000000+00:00</time></trkpt><trkpt lat="64.04026794" lon="-19.34687805"><ele>587.1</ele><time>2012-07-21T22:15:29.0000000+00:00</time></trkpt><trkpt lat="64.0402298" lon="-19.34679604"><ele>587.1</ele><time>2012-07-21T22:15:34.0000000+00:00</time></trkpt><trkpt lat="64.04018402" lon="-19.34672928"><ele>587.3</ele><time>2012-07-21T22:15:39.0000000+00:00</time></trkpt><trkpt lat="64.04013825" lon="-19.34663773"><ele>587.4</ele><time>2012-07-21T22:15:44.0000000+00:00</time></trkpt><trkpt lat="64.04013062" lon="-19.34658051"><ele>586.5</ele><time>2012-07-21T22:15:49.0000000+00:00</time></trkpt><trkpt lat="64.04013062" lon="-19.34659195"><ele>586.5</ele><time>2012-07-21T22:15:54.0000000+00:00</time></trkpt><trkpt lat="64.04013825" lon="-19.34658241"><ele>587.0</ele><time>2012-07-21T22:15:59.0000000+00:00</time></trkpt><trkpt lat="64.04013825" lon="-19.34658241"><ele>587.0</ele><time>2012-07-21T22:16:04.0000000+00:00</time></trkpt><trkpt lat="64.04013825" lon="-19.34658051"><ele>587.0</ele><time>2012-07-21T22:16:09.0000000+00:00</time></trkpt><trkpt lat="64.04013825" lon="-19.34658051"><ele>587.0</ele><time>2012-07-21T22:16:14.0000000+00:00</time></trkpt><trkpt lat="64.04013825" lon="-19.34658241"><ele>587.0</ele><time>2012-07-21T22:16:19.0000000+00:00</time></trkpt><trkpt lat="64.04013825" lon="-19.34658051"><ele>587.0</ele><time>2012-07-21T22:16:24.0000000+00:00</time></trkpt><trkpt lat="64.04013825" lon="-19.34658051"><ele>587.0</ele><time>2012-07-21T22:16:29.0000000+00:00</time></trkpt><trkpt lat="64.04013825" lon="-19.34658051"><ele>587.1</ele><time>2012-07-21T22:16:34.0000000+00:00</time></trkpt><trkpt lat="64.04013825" lon="-19.34658051"><ele>587.1</ele><time>2012-07-21T22:16:39.0000000+00:00</time></trkpt><trkpt lat="64.04013825" lon="-19.34658051"><ele>587.1</ele><time>2012-07-21T22:16:44.0000000+00:00</time></trkpt><trkpt lat="64.04013825" lon="-19.34658051"><ele>587.1</ele><time>2012-07-21T22:16:49.0000000+00:00</time></trkpt><trkpt lat="64.04013825" lon="-19.3465786"><ele>587.1</ele><time>2012-07-21T22:16:54.0000000+00:00</time></trkpt><trkpt lat="64.04013825" lon="-19.3465786"><ele>587.1</ele><time>2012-07-21T22:16:59.0000000+00:00</time></trkpt><trkpt lat="64.04013825" lon="-19.3465786"><ele>587.1</ele><time>2012-07-21T22:17:04.0000000+00:00</time></trkpt><trkpt lat="64.04013825" lon="-19.3465786"><ele>587.1</ele><time>2012-07-21T22:17:09.0000000+00:00</time></trkpt><trkpt lat="64.04013062" lon="-19.34655762"><ele>587.4</ele><time>2012-07-21T22:17:14.0000000+00:00</time></trkpt><trkpt lat="64.04008484" lon="-19.34646034"><ele>587.8</ele><time>2012-07-21T22:17:19.0000000+00:00</time></trkpt><trkpt lat="64.04003906" lon="-19.34636116"><ele>588.5</ele><time>2012-07-21T22:17:24.0000000+00:00</time></trkpt><trkpt lat="64.04000092" lon="-19.34628105"><ele>588.6</ele><time>2012-07-21T22:17:29.0000000+00:00</time></trkpt><trkpt lat="64.03996277" lon="-19.34618759"><ele>588.1</ele><time>2012-07-21T22:17:34.0000000+00:00</time></trkpt><trkpt lat="64.03992462" lon="-19.3460865"><ele>588.2</ele><time>2012-07-21T22:17:39.0000000+00:00</time></trkpt><trkpt lat="64.03988648" lon="-19.34598351"><ele>588.0</ele><time>2012-07-21T22:17:44.0000000+00:00</time></trkpt><trkpt lat="64.03985596" lon="-19.34588242"><ele>588.3</ele><time>2012-07-21T22:17:49.0000000+00:00</time></trkpt><trkpt lat="64.03981781" lon="-19.34581757"><ele>588.9</ele><time>2012-07-21T22:17:54.0000000+00:00</time></trkpt><trkpt lat="64.03977966" lon="-19.34569168"><ele>589.1</ele><time>2012-07-21T22:17:59.0000000+00:00</time></trkpt><trkpt lat="64.03974152" lon="-19.34560967"><ele>589.1</ele><time>2012-07-21T22:18:04.0000000+00:00</time></trkpt><trkpt lat="64.039711" lon="-19.34553337"><ele>589.8</ele><time>2012-07-21T22:18:09.0000000+00:00</time></trkpt><trkpt lat="64.03967285" lon="-19.34543991"><ele>590.5</ele><time>2012-07-21T22:18:14.0000000+00:00</time></trkpt><trkpt lat="64.03964233" lon="-19.34536743"><ele>591.2</ele><time>2012-07-21T22:18:19.0000000+00:00</time></trkpt><trkpt lat="64.03961945" lon="-19.34529495"><ele>591.5</ele><time>2012-07-21T22:18:24.0000000+00:00</time></trkpt><trkpt lat="64.0395813" lon="-19.34519768"><ele>590.8</ele><time>2012-07-21T22:18:29.0000000+00:00</time></trkpt><trkpt lat="64.03955841" lon="-19.34512138"><ele>590.5</ele><time>2012-07-21T22:18:34.0000000+00:00</time></trkpt><trkpt lat="64.03953552" lon="-19.34505653"><ele>590.6</ele><time>2012-07-21T22:18:39.0000000+00:00</time></trkpt><trkpt lat="64.03951263" lon="-19.34501076"><ele>591.0</ele><time>2012-07-21T22:18:44.0000000+00:00</time></trkpt><trkpt lat="64.03951263" lon="-19.34500885"><ele>590.7</ele><time>2012-07-21T22:18:49.0000000+00:00</time></trkpt><trkpt lat="64.03949738" lon="-19.34496307"><ele>590.8</ele><time>2012-07-21T22:18:54.0000000+00:00</time></trkpt><trkpt lat="64.03946686" lon="-19.34485245"><ele>591.3</ele><time>2012-07-21T22:18:59.0000000+00:00</time></trkpt><trkpt lat="64.03944397" lon="-19.3447609"><ele>591.5</ele><time>2012-07-21T22:19:04.0000000+00:00</time></trkpt><trkpt lat="64.03940582" lon="-19.34468842"><ele>591.1</ele><time>2012-07-21T22:19:09.0000000+00:00</time></trkpt><trkpt lat="64.03936768" lon="-19.34457588"><ele>589.6</ele><time>2012-07-21T22:19:14.0000000+00:00</time></trkpt><trkpt lat="64.03933716" lon="-19.34446335"><ele>589.1</ele><time>2012-07-21T22:19:19.0000000+00:00</time></trkpt><trkpt lat="64.03930664" lon="-19.34434319"><ele>588.6</ele><time>2012-07-21T22:19:24.0000000+00:00</time></trkpt><trkpt lat="64.03929138" lon="-19.34422684"><ele>589.0</ele><time>2012-07-21T22:19:29.0000000+00:00</time></trkpt><trkpt lat="64.03926086" lon="-19.34416771"><ele>589.1</ele><time>2012-07-21T22:19:34.0000000+00:00</time></trkpt><trkpt lat="64.03924561" lon="-19.34408188"><ele>589.7</ele><time>2012-07-21T22:19:39.0000000+00:00</time></trkpt><trkpt lat="64.03921509" lon="-19.3439827"><ele>590.2</ele><time>2012-07-21T22:19:44.0000000+00:00</time></trkpt><trkpt lat="64.03919983" lon="-19.3438797"><ele>590.8</ele><time>2012-07-21T22:19:49.0000000+00:00</time></trkpt><trkpt lat="64.03918457" lon="-19.34381676"><ele>591.0</ele><time>2012-07-21T22:19:54.0000000+00:00</time></trkpt><trkpt lat="64.03918457" lon="-19.34382439"><ele>591.2</ele><time>2012-07-21T22:19:59.0000000+00:00</time></trkpt><trkpt lat="64.03916931" lon="-19.34377289"><ele>590.7</ele><time>2012-07-21T22:20:04.0000000+00:00</time></trkpt><trkpt lat="64.03916168" lon="-19.34369469"><ele>590.0</ele><time>2012-07-21T22:20:09.0000000+00:00</time></trkpt><trkpt lat="64.03915405" lon="-19.34369278"><ele>589.8</ele><time>2012-07-21T22:20:14.0000000+00:00</time></trkpt><trkpt lat="64.03915405" lon="-19.34367943"><ele>589.8</ele><time>2012-07-21T22:20:19.0000000+00:00</time></trkpt><trkpt lat="64.03913879" lon="-19.34359169"><ele>590.2</ele><time>2012-07-21T22:20:24.0000000+00:00</time></trkpt><trkpt lat="64.03912354" lon="-19.34348106"><ele>590.6</ele><time>2012-07-21T22:20:29.0000000+00:00</time></trkpt><trkpt lat="64.03910828" lon="-19.34337425"><ele>590.3</ele><time>2012-07-21T22:20:34.0000000+00:00</time></trkpt><trkpt lat="64.03910065" lon="-19.34325218"><ele>590.8</ele><time>2012-07-21T22:20:39.0000000+00:00</time></trkpt><trkpt lat="64.03910065" lon="-19.34321022"><ele>591.0</ele><time>2012-07-21T22:20:44.0000000+00:00</time></trkpt><trkpt lat="64.03910065" lon="-19.34320641"><ele>591.0</ele><time>2012-07-21T22:20:49.0000000+00:00</time></trkpt><trkpt lat="64.03910065" lon="-19.34315872"><ele>590.7</ele><time>2012-07-21T22:20:54.0000000+00:00</time></trkpt><trkpt lat="64.03909302" lon="-19.34304237"><ele>590.6</ele><time>2012-07-21T22:20:59.0000000+00:00</time></trkpt><trkpt lat="64.03907013" lon="-19.34293175"><ele>590.2</ele><time>2012-07-21T22:21:04.0000000+00:00</time></trkpt><trkpt lat="64.0390625" lon="-19.34284592"><ele>589.8</ele><time>2012-07-21T22:21:09.0000000+00:00</time></trkpt><trkpt lat="64.03907013" lon="-19.34283447"><ele>589.7</ele><time>2012-07-21T22:21:14.0000000+00:00</time></trkpt><trkpt lat="64.03907013" lon="-19.34283447"><ele>589.7</ele><time>2012-07-21T22:21:19.0000000+00:00</time></trkpt><trkpt lat="64.03905487" lon="-19.34277153"><ele>590.0</ele><time>2012-07-21T22:21:24.0000000+00:00</time></trkpt><trkpt lat="64.03904724" lon="-19.34267044"><ele>590.4</ele><time>2012-07-21T22:21:29.0000000+00:00</time></trkpt><trkpt lat="64.03903961" lon="-19.34254646"><ele>591.4</ele><time>2012-07-21T22:21:34.0000000+00:00</time></trkpt><trkpt lat="64.03903198" lon="-19.34244156"><ele>590.9</ele><time>2012-07-21T22:21:39.0000000+00:00</time></trkpt><trkpt lat="64.03902435" lon="-19.34243965"><ele>591.0</ele><time>2012-07-21T22:21:44.0000000+00:00</time></trkpt><trkpt lat="64.03902435" lon="-19.34238052"><ele>590.7</ele><time>2012-07-21T22:21:49.0000000+00:00</time></trkpt><trkpt lat="64.03901672" lon="-19.34228134"><ele>591.0</ele><time>2012-07-21T22:21:54.0000000+00:00</time></trkpt><trkpt lat="64.03902435" lon="-19.34213638"><ele>590.8</ele><time>2012-07-21T22:21:59.0000000+00:00</time></trkpt><trkpt lat="64.03902435" lon="-19.34201431"><ele>590.8</ele><time>2012-07-21T22:22:04.0000000+00:00</time></trkpt><trkpt lat="64.03902435" lon="-19.34193802"><ele>591.4</ele><time>2012-07-21T22:22:09.0000000+00:00</time></trkpt><trkpt lat="64.03900909" lon="-19.34183884"><ele>591.8</ele><time>2012-07-21T22:22:14.0000000+00:00</time></trkpt><trkpt lat="64.03900909" lon="-19.34176064"><ele>592.0</ele><time>2012-07-21T22:22:19.0000000+00:00</time></trkpt><trkpt lat="64.03900147" lon="-19.34163284"><ele>591.8</ele><time>2012-07-21T22:22:24.0000000+00:00</time></trkpt><trkpt lat="64.03900909" lon="-19.34150505"><ele>593.8</ele><time>2012-07-21T22:22:29.0000000+00:00</time></trkpt><trkpt lat="64.03900909" lon="-19.34140587"><ele>593.8</ele><time>2012-07-21T22:22:34.0000000+00:00</time></trkpt><trkpt lat="64.03900909" lon="-19.34139061"><ele>593.4</ele><time>2012-07-21T22:22:39.0000000+00:00</time></trkpt><trkpt lat="64.03900909" lon="-19.3413868"><ele>593.3</ele><time>2012-07-21T22:22:44.0000000+00:00</time></trkpt><trkpt lat="64.03899384" lon="-19.34131622"><ele>593.4</ele><time>2012-07-21T22:22:49.0000000+00:00</time></trkpt><trkpt lat="64.03897095" lon="-19.34125137"><ele>593.5</ele><time>2012-07-21T22:22:54.0000000+00:00</time></trkpt><trkpt lat="64.03897095" lon="-19.34113312"><ele>594.2</ele><time>2012-07-21T22:22:59.0000000+00:00</time></trkpt><trkpt lat="64.03897095" lon="-19.3409977"><ele>593.9</ele><time>2012-07-21T22:23:04.0000000+00:00</time></trkpt><trkpt lat="64.03896332" lon="-19.34089279"><ele>593.7</ele><time>2012-07-21T22:23:09.0000000+00:00</time></trkpt><trkpt lat="64.03897095" lon="-19.34088898"><ele>593.7</ele><time>2012-07-21T22:23:14.0000000+00:00</time></trkpt><trkpt lat="64.03897095" lon="-19.34088707"><ele>593.6</ele><time>2012-07-21T22:23:19.0000000+00:00</time></trkpt><trkpt lat="64.03897095" lon="-19.34088898"><ele>593.5</ele><time>2012-07-21T22:23:24.0000000+00:00</time></trkpt><trkpt lat="64.03897095" lon="-19.34088707"><ele>593.5</ele><time>2012-07-21T22:23:29.0000000+00:00</time></trkpt><trkpt lat="64.03897095" lon="-19.34085465"><ele>593.8</ele><time>2012-07-21T22:23:34.0000000+00:00</time></trkpt><trkpt lat="64.03896332" lon="-19.3407383"><ele>594.6</ele><time>2012-07-21T22:23:39.0000000+00:00</time></trkpt><trkpt lat="64.03896332" lon="-19.34059906"><ele>594.5</ele><time>2012-07-21T22:23:44.0000000+00:00</time></trkpt><trkpt lat="64.03896332" lon="-19.34046364"><ele>594.1</ele><time>2012-07-21T22:23:49.0000000+00:00</time></trkpt><trkpt lat="64.03896332" lon="-19.34031868"><ele>594.1</ele><time>2012-07-21T22:23:54.0000000+00:00</time></trkpt><trkpt lat="64.03895569" lon="-19.34019852"><ele>594.5</ele><time>2012-07-21T22:23:59.0000000+00:00</time></trkpt><trkpt lat="64.03895569" lon="-19.34017754"><ele>594.4</ele><time>2012-07-21T22:24:04.0000000+00:00</time></trkpt><trkpt lat="64.03895569" lon="-19.34007263"><ele>594.4</ele><time>2012-07-21T22:24:09.0000000+00:00</time></trkpt><trkpt lat="64.03895569" lon="-19.33997345"><ele>595.0</ele><time>2012-07-21T22:24:14.0000000+00:00</time></trkpt><trkpt lat="64.03894806" lon="-19.33987618"><ele>595.4</ele><time>2012-07-21T22:24:19.0000000+00:00</time></trkpt><trkpt lat="64.03894043" lon="-19.3397789"><ele>595.7</ele><time>2012-07-21T22:24:24.0000000+00:00</time></trkpt><trkpt lat="64.03894043" lon="-19.33976555"><ele>595.7</ele><time>2012-07-21T22:24:29.0000000+00:00</time></trkpt><trkpt lat="64.0389328" lon="-19.3397007"><ele>595.2</ele><time>2012-07-21T22:24:34.0000000+00:00</time></trkpt><trkpt lat="64.0389328" lon="-19.33967018"><ele>595.1</ele><time>2012-07-21T22:24:39.0000000+00:00</time></trkpt><trkpt lat="64.03892517" lon="-19.33961105"><ele>595.0</ele><time>2012-07-21T22:24:44.0000000+00:00</time></trkpt><trkpt lat="64.03892517" lon="-19.33950043"><ele>595.0</ele><time>2012-07-21T22:24:49.0000000+00:00</time></trkpt><trkpt lat="64.03891754" lon="-19.33937836"><ele>594.6</ele><time>2012-07-21T22:24:54.0000000+00:00</time></trkpt><trkpt lat="64.03892517" lon="-19.33929443"><ele>594.3</ele><time>2012-07-21T22:24:59.0000000+00:00</time></trkpt><trkpt lat="64.03892517" lon="-19.33926392"><ele>594.4</ele><time>2012-07-21T22:25:04.0000000+00:00</time></trkpt><trkpt lat="64.03892517" lon="-19.33920479"><ele>594.1</ele><time>2012-07-21T22:25:09.0000000+00:00</time></trkpt><trkpt lat="64.03891754" lon="-19.33914375"><ele>593.8</ele><time>2012-07-21T22:25:14.0000000+00:00</time></trkpt><trkpt lat="64.03890991" lon="-19.33906174"><ele>593.3</ele><time>2012-07-21T22:25:19.0000000+00:00</time></trkpt><trkpt lat="64.03890991" lon="-19.33894539"><ele>593.1</ele><time>2012-07-21T22:25:24.0000000+00:00</time></trkpt><trkpt lat="64.03890228" lon="-19.33887482"><ele>593.0</ele><time>2012-07-21T22:25:29.0000000+00:00</time></trkpt><trkpt lat="64.03890228" lon="-19.33882904"><ele>593.1</ele><time>2012-07-21T22:25:34.0000000+00:00</time></trkpt><trkpt lat="64.03890228" lon="-19.33871651"><ele>592.8</ele><time>2012-07-21T22:25:39.0000000+00:00</time></trkpt><trkpt lat="64.03890991" lon="-19.33861733"><ele>592.8</ele><time>2012-07-21T22:25:44.0000000+00:00</time></trkpt><trkpt lat="64.03890228" lon="-19.33849716"><ele>592.4</ele><time>2012-07-21T22:25:49.0000000+00:00</time></trkpt><trkpt lat="64.03890228" lon="-19.33837891"><ele>592.4</ele><time>2012-07-21T22:25:54.0000000+00:00</time></trkpt><trkpt lat="64.03889465" lon="-19.33827972"><ele>592.8</ele><time>2012-07-21T22:25:59.0000000+00:00</time></trkpt><trkpt lat="64.03889465" lon="-19.33817864"><ele>593.5</ele><time>2012-07-21T22:26:04.0000000+00:00</time></trkpt><trkpt lat="64.03889465" lon="-19.3380661"><ele>593.6</ele><time>2012-07-21T22:26:09.0000000+00:00</time></trkpt><trkpt lat="64.03888702" lon="-19.33794594"><ele>593.9</ele><time>2012-07-21T22:26:14.0000000+00:00</time></trkpt><trkpt lat="64.03888702" lon="-19.33789635"><ele>594.6</ele><time>2012-07-21T22:26:19.0000000+00:00</time></trkpt><trkpt lat="64.03888702" lon="-19.33788872"><ele>594.9</ele><time>2012-07-21T22:26:24.0000000+00:00</time></trkpt><trkpt lat="64.0388794" lon="-19.33779144"><ele>594.9</ele><time>2012-07-21T22:26:29.0000000+00:00</time></trkpt><trkpt lat="64.03887177" lon="-19.33769798"><ele>595.0</ele><time>2012-07-21T22:26:34.0000000+00:00</time></trkpt><trkpt lat="64.03886414" lon="-19.33758354"><ele>595.1</ele><time>2012-07-21T22:26:39.0000000+00:00</time></trkpt><trkpt lat="64.03887177" lon="-19.33746338"><ele>595.5</ele><time>2012-07-21T22:26:44.0000000+00:00</time></trkpt><trkpt lat="64.03887177" lon="-19.33741951"><ele>596.0</ele><time>2012-07-21T22:26:49.0000000+00:00</time></trkpt><trkpt lat="64.03887177" lon="-19.33732796"><ele>596.2</ele><time>2012-07-21T22:26:54.0000000+00:00</time></trkpt><trkpt lat="64.03886414" lon="-19.33722496"><ele>596.0</ele><time>2012-07-21T22:26:59.0000000+00:00</time></trkpt><trkpt lat="64.03886414" lon="-19.3371048"><ele>596.3</ele><time>2012-07-21T22:27:04.0000000+00:00</time></trkpt><trkpt lat="64.03885651" lon="-19.33701134"><ele>596.5</ele><time>2012-07-21T22:27:09.0000000+00:00</time></trkpt><trkpt lat="64.03885651" lon="-19.33700562"><ele>596.8</ele><time>2012-07-21T22:27:14.0000000+00:00</time></trkpt><trkpt lat="64.03885651" lon="-19.33700562"><ele>596.8</ele><time>2012-07-21T22:27:19.0000000+00:00</time></trkpt><trkpt lat="64.03885651" lon="-19.33700562"><ele>596.8</ele><time>2012-07-21T22:27:24.0000000+00:00</time></trkpt><trkpt lat="64.03885651" lon="-19.33700562"><ele>596.8</ele><time>2012-07-21T22:27:29.0000000+00:00</time></trkpt><trkpt lat="64.03885651" lon="-19.33696175"><ele>596.7</ele><time>2012-07-21T22:27:34.0000000+00:00</time></trkpt><trkpt lat="64.03885651" lon="-19.33686256"><ele>596.8</ele><time>2012-07-21T22:27:39.0000000+00:00</time></trkpt><trkpt lat="64.03886414" lon="-19.33673859"><ele>597.0</ele><time>2012-07-21T22:27:44.0000000+00:00</time></trkpt><trkpt lat="64.03886414" lon="-19.33664322"><ele>597.0</ele><time>2012-07-21T22:27:49.0000000+00:00</time></trkpt><trkpt lat="64.03885651" lon="-19.33653832"><ele>597.0</ele><time>2012-07-21T22:27:54.0000000+00:00</time></trkpt><trkpt lat="64.03885651" lon="-19.33643723"><ele>597.3</ele><time>2012-07-21T22:27:59.0000000+00:00</time></trkpt><trkpt lat="64.03884125" lon="-19.33631897"><ele>597.5</ele><time>2012-07-21T22:28:04.0000000+00:00</time></trkpt><trkpt lat="64.03884125" lon="-19.33620644"><ele>597.7</ele><time>2012-07-21T22:28:09.0000000+00:00</time></trkpt><trkpt lat="64.03884125" lon="-19.33608627"><ele>598.3</ele><time>2012-07-21T22:28:14.0000000+00:00</time></trkpt><trkpt lat="64.03883362" lon="-19.33598709"><ele>598.7</ele><time>2012-07-21T22:28:19.0000000+00:00</time></trkpt><trkpt lat="64.03883362" lon="-19.335886"><ele>598.5</ele><time>2012-07-21T22:28:24.0000000+00:00</time></trkpt><trkpt lat="64.03883362" lon="-19.33577156"><ele>599.0</ele><time>2012-07-21T22:28:29.0000000+00:00</time></trkpt><trkpt lat="64.03883362" lon="-19.33566475"><ele>598.3</ele><time>2012-07-21T22:28:34.0000000+00:00</time></trkpt><trkpt lat="64.03883362" lon="-19.3356514"><ele>597.9</ele><time>2012-07-21T22:28:39.0000000+00:00</time></trkpt><trkpt lat="64.03883362" lon="-19.33560181"><ele>597.7</ele><time>2012-07-21T22:28:44.0000000+00:00</time></trkpt><trkpt lat="64.03883362" lon="-19.33549118"><ele>597.6</ele><time>2012-07-21T22:28:49.0000000+00:00</time></trkpt><trkpt lat="64.03881836" lon="-19.335392"><ele>597.1</ele><time>2012-07-21T22:28:54.0000000+00:00</time></trkpt><trkpt lat="64.03881836" lon="-19.335289"><ele>596.6</ele><time>2012-07-21T22:28:59.0000000+00:00</time></trkpt><trkpt lat="64.03881836" lon="-19.33517265"><ele>596.6</ele><time>2012-07-21T22:29:04.0000000+00:00</time></trkpt><trkpt lat="64.03881836" lon="-19.33504868"><ele>596.2</ele><time>2012-07-21T22:29:09.0000000+00:00</time></trkpt><trkpt lat="64.03881836" lon="-19.33494759"><ele>596.2</ele><time>2012-07-21T22:29:14.0000000+00:00</time></trkpt><trkpt lat="64.0388031" lon="-19.33483124"><ele>596.3</ele><time>2012-07-21T22:29:19.0000000+00:00</time></trkpt><trkpt lat="64.0388031" lon="-19.33472061"><ele>596.2</ele><time>2012-07-21T22:29:24.0000000+00:00</time></trkpt><trkpt lat="64.03881073" lon="-19.33465004"><ele>596.1</ele><time>2012-07-21T22:29:29.0000000+00:00</time></trkpt><trkpt lat="64.03879547" lon="-19.33454132"><ele>596.6</ele><time>2012-07-21T22:29:34.0000000+00:00</time></trkpt><trkpt lat="64.03879547" lon="-19.33444405"><ele>596.1</ele><time>2012-07-21T22:29:39.0000000+00:00</time></trkpt><trkpt lat="64.0388031" lon="-19.33433723"><ele>596.4</ele><time>2012-07-21T22:29:44.0000000+00:00</time></trkpt><trkpt lat="64.03881073" lon="-19.33420563"><ele>596.8</ele><time>2012-07-21T22:29:49.0000000+00:00</time></trkpt><trkpt lat="64.03881073" lon="-19.334095"><ele>597.3</ele><time>2012-07-21T22:29:54.0000000+00:00</time></trkpt><trkpt lat="64.03881836" lon="-19.3339901"><ele>597.3</ele><time>2012-07-21T22:29:59.0000000+00:00</time></trkpt><trkpt lat="64.03883362" lon="-19.33388138"><ele>597.5</ele><time>2012-07-21T22:30:04.0000000+00:00</time></trkpt><trkpt lat="64.03884125" lon="-19.33378029"><ele>597.7</ele><time>2012-07-21T22:30:09.0000000+00:00</time></trkpt><trkpt lat="64.03884888" lon="-19.33373833"><ele>598.0</ele><time>2012-07-21T22:30:14.0000000+00:00</time></trkpt><trkpt lat="64.03885651" lon="-19.33366776"><ele>597.8</ele><time>2012-07-21T22:30:19.0000000+00:00</time></trkpt><trkpt lat="64.03886414" lon="-19.33354759"><ele>597.1</ele><time>2012-07-21T22:30:24.0000000+00:00</time></trkpt><trkpt lat="64.03887177" lon="-19.33343887"><ele>596.5</ele><time>2012-07-21T22:30:29.0000000+00:00</time></trkpt><trkpt lat="64.0388794" lon="-19.33333969"><ele>596.3</ele><time>2012-07-21T22:30:34.0000000+00:00</time></trkpt><trkpt lat="64.03889465" lon="-19.33326721"><ele>595.9</ele><time>2012-07-21T22:30:39.0000000+00:00</time></trkpt><trkpt lat="64.03889465" lon="-19.33316422"><ele>594.8</ele><time>2012-07-21T22:30:44.0000000+00:00</time></trkpt><trkpt lat="64.03890228" lon="-19.33308601"><ele>594.1</ele><time>2012-07-21T22:30:49.0000000+00:00</time></trkpt><trkpt lat="64.03890991" lon="-19.33298683"><ele>594.1</ele><time>2012-07-21T22:30:54.0000000+00:00</time></trkpt><trkpt lat="64.03892517" lon="-19.3328743"><ele>593.9</ele><time>2012-07-21T22:30:59.0000000+00:00</time></trkpt><trkpt lat="64.03894806" lon="-19.33277893"><ele>592.4</ele><time>2012-07-21T22:31:04.0000000+00:00</time></trkpt><trkpt lat="64.03896332" lon="-19.3326664"><ele>591.6</ele><time>2012-07-21T22:31:09.0000000+00:00</time></trkpt><trkpt lat="64.03897858" lon="-19.33254433"><ele>591.2</ele><time>2012-07-21T22:31:14.0000000+00:00</time></trkpt><trkpt lat="64.03900147" lon="-19.33244324"><ele>590.5</ele><time>2012-07-21T22:31:19.0000000+00:00</time></trkpt><trkpt lat="64.03901672" lon="-19.33232117"><ele>590.7</ele><time>2012-07-21T22:31:24.0000000+00:00</time></trkpt><trkpt lat="64.03904724" lon="-19.33220863"><ele>590.4</ele><time>2012-07-21T22:31:29.0000000+00:00</time></trkpt><trkpt lat="64.03907776" lon="-19.33210564"><ele>589.4</ele><time>2012-07-21T22:31:34.0000000+00:00</time></trkpt><trkpt lat="64.03909302" lon="-19.33199501"><ele>589.3</ele><time>2012-07-21T22:31:39.0000000+00:00</time></trkpt><trkpt lat="64.03912354" lon="-19.33190537"><ele>588.7</ele><time>2012-07-21T22:31:44.0000000+00:00</time></trkpt><trkpt lat="64.03914642" lon="-19.33181191"><ele>588.3</ele><time>2012-07-21T22:31:49.0000000+00:00</time></trkpt><trkpt lat="64.03916168" lon="-19.33170891"><ele>587.3</ele><time>2012-07-21T22:31:54.0000000+00:00</time></trkpt><trkpt lat="64.03919983" lon="-19.33161545"><ele>586.9</ele><time>2012-07-21T22:31:59.0000000+00:00</time></trkpt><trkpt lat="64.03922272" lon="-19.33149719"><ele>586.8</ele><time>2012-07-21T22:32:04.0000000+00:00</time></trkpt><trkpt lat="64.03926849" lon="-19.33137131"><ele>587.3</ele><time>2012-07-21T22:32:09.0000000+00:00</time></trkpt><trkpt lat="64.03928375" lon="-19.33129883"><ele>587.8</ele><time>2012-07-21T22:32:14.0000000+00:00</time></trkpt><trkpt lat="64.03928375" lon="-19.33130264"><ele>587.6</ele><time>2012-07-21T22:32:19.0000000+00:00</time></trkpt><trkpt lat="64.03929901" lon="-19.33124542"><ele>587.4</ele><time>2012-07-21T22:32:24.0000000+00:00</time></trkpt><trkpt lat="64.03931427" lon="-19.3311863"><ele>587.6</ele><time>2012-07-21T22:32:29.0000000+00:00</time></trkpt><trkpt lat="64.03934479" lon="-19.33112526"><ele>587.9</ele><time>2012-07-21T22:32:34.0000000+00:00</time></trkpt><trkpt lat="64.03936005" lon="-19.33107376"><ele>587.5</ele><time>2012-07-21T22:32:39.0000000+00:00</time></trkpt><trkpt lat="64.03936005" lon="-19.33105469"><ele>587.8</ele><time>2012-07-21T22:32:44.0000000+00:00</time></trkpt><trkpt lat="64.03936005" lon="-19.33104706"><ele>587.7</ele><time>2012-07-21T22:32:49.0000000+00:00</time></trkpt><trkpt lat="64.03939056" lon="-19.33095551"><ele>587.8</ele><time>2012-07-21T22:32:54.0000000+00:00</time></trkpt><trkpt lat="64.03942871" lon="-19.33083344"><ele>587.8</ele><time>2012-07-21T22:32:59.0000000+00:00</time></trkpt><trkpt lat="64.03947449" lon="-19.3307209"><ele>587.6</ele><time>2012-07-21T22:33:04.0000000+00:00</time></trkpt><trkpt lat="64.03952026" lon="-19.33060074"><ele>587.6</ele><time>2012-07-21T22:33:09.0000000+00:00</time></trkpt><trkpt lat="64.03957367" lon="-19.33049583"><ele>587.6</ele><time>2012-07-21T22:33:14.0000000+00:00</time></trkpt><trkpt lat="64.03963471" lon="-19.33039284"><ele>587.2</ele><time>2012-07-21T22:33:19.0000000+00:00</time></trkpt><trkpt lat="64.03968048" lon="-19.33029366"><ele>587.7</ele><time>2012-07-21T22:33:24.0000000+00:00</time></trkpt><trkpt lat="64.03974152" lon="-19.3302021"><ele>588.1</ele><time>2012-07-21T22:33:29.0000000+00:00</time></trkpt><trkpt lat="64.03979492" lon="-19.33012199"><ele>588.3</ele><time>2012-07-21T22:33:34.0000000+00:00</time></trkpt><trkpt lat="64.03985596" lon="-19.33004761"><ele>588.9</ele><time>2012-07-21T22:33:39.0000000+00:00</time></trkpt><trkpt lat="64.03990936" lon="-19.32995224"><ele>588.7</ele><time>2012-07-21T22:33:44.0000000+00:00</time></trkpt><trkpt lat="64.03994751" lon="-19.32986832"><ele>589.1</ele><time>2012-07-21T22:33:49.0000000+00:00</time></trkpt><trkpt lat="64.03994751" lon="-19.32985497"><ele>589.1</ele><time>2012-07-21T22:33:54.0000000+00:00</time></trkpt><trkpt lat="64.03996277" lon="-19.32980537"><ele>588.5</ele><time>2012-07-21T22:33:59.0000000+00:00</time></trkpt><trkpt lat="64.04000092" lon="-19.32973099"><ele>588.3</ele><time>2012-07-21T22:34:04.0000000+00:00</time></trkpt><trkpt lat="64.04000855" lon="-19.3297329"><ele>589.0</ele><time>2012-07-21T22:34:09.0000000+00:00</time></trkpt><trkpt lat="64.0400238" lon="-19.32966423"><ele>588.8</ele><time>2012-07-21T22:34:14.0000000+00:00</time></trkpt><trkpt lat="64.04006195" lon="-19.32956123"><ele>589.1</ele><time>2012-07-21T22:34:19.0000000+00:00</time></trkpt><trkpt lat="64.04008484" lon="-19.32945633"><ele>589.4</ele><time>2012-07-21T22:34:24.0000000+00:00</time></trkpt><trkpt lat="64.04011536" lon="-19.32933998"><ele>589.5</ele><time>2012-07-21T22:34:29.0000000+00:00</time></trkpt><trkpt lat="64.04018402" lon="-19.32926369"><ele>589.3</ele><time>2012-07-21T22:34:34.0000000+00:00</time></trkpt><trkpt lat="64.0402298" lon="-19.32927704"><ele>588.4</ele><time>2012-07-21T22:34:39.0000000+00:00</time></trkpt><trkpt lat="64.0402832" lon="-19.32935524"><ele>588.0</ele><time>2012-07-21T22:34:44.0000000+00:00</time></trkpt><trkpt lat="64.04030609" lon="-19.32949257"><ele>587.9</ele><time>2012-07-21T22:34:49.0000000+00:00</time></trkpt><trkpt lat="64.04035187" lon="-19.32956314"><ele>588.0</ele><time>2012-07-21T22:34:54.0000000+00:00</time></trkpt><trkpt lat="64.04039764" lon="-19.32965279"><ele>588.2</ele><time>2012-07-21T22:34:59.0000000+00:00</time></trkpt><trkpt lat="64.04045105" lon="-19.32977104"><ele>588.9</ele><time>2012-07-21T22:35:04.0000000+00:00</time></trkpt><trkpt lat="64.0404892" lon="-19.32990837"><ele>588.2</ele><time>2012-07-21T22:35:09.0000000+00:00</time></trkpt><trkpt lat="64.04051971" lon="-19.32998657"><ele>588.0</ele><time>2012-07-21T22:35:14.0000000+00:00</time></trkpt><trkpt lat="64.04051971" lon="-19.32998085"><ele>588.0</ele><time>2012-07-21T22:35:19.0000000+00:00</time></trkpt><trkpt lat="64.0405426" lon="-19.33006287"><ele>587.9</ele><time>2012-07-21T22:35:24.0000000+00:00</time></trkpt><trkpt lat="64.04055023" lon="-19.3302002"><ele>587.6</ele><time>2012-07-21T22:35:29.0000000+00:00</time></trkpt><trkpt lat="64.04057312" lon="-19.33033752"><ele>587.4</ele><time>2012-07-21T22:35:34.0000000+00:00</time></trkpt><trkpt lat="64.04058075" lon="-19.33042908"><ele>587.1</ele><time>2012-07-21T22:35:39.0000000+00:00</time></trkpt><trkpt lat="64.04057312" lon="-19.33042717"><ele>586.9</ele><time>2012-07-21T22:35:44.0000000+00:00</time></trkpt><trkpt lat="64.04057312" lon="-19.33043671"><ele>586.9</ele><time>2012-07-21T22:35:49.0000000+00:00</time></trkpt><trkpt lat="64.04055786" lon="-19.33054161"><ele>587.0</ele><time>2012-07-21T22:35:54.0000000+00:00</time></trkpt><trkpt lat="64.04055023" lon="-19.33056641"><ele>587.0</ele><time>2012-07-21T22:35:59.0000000+00:00</time></trkpt><trkpt lat="64.04055023" lon="-19.33057594"><ele>587.3</ele><time>2012-07-21T22:36:04.0000000+00:00</time></trkpt><trkpt lat="64.04055023" lon="-19.33058167"><ele>587.8</ele><time>2012-07-21T22:36:09.0000000+00:00</time></trkpt><trkpt lat="64.0405426" lon="-19.33058357"><ele>588.2</ele><time>2012-07-21T22:36:14.0000000+00:00</time></trkpt><trkpt lat="64.0405426" lon="-19.33058548"><ele>588.4</ele><time>2012-07-21T22:36:19.0000000+00:00</time></trkpt><trkpt lat="64.0405426" lon="-19.33058548"><ele>588.4</ele><time>2012-07-21T22:36:24.0000000+00:00</time></trkpt><trkpt lat="64.0405426" lon="-19.33058548"><ele>588.3</ele><time>2012-07-21T22:36:29.0000000+00:00</time></trkpt><trkpt lat="64.0405426" lon="-19.33058548"><ele>588.3</ele><time>2012-07-21T22:36:34.0000000+00:00</time></trkpt><trkpt lat="64.0405426" lon="-19.33058548"><ele>588.3</ele><time>2012-07-21T22:36:39.0000000+00:00</time></trkpt><trkpt lat="64.0405426" lon="-19.33058548"><ele>588.3</ele><time>2012-07-21T22:36:44.0000000+00:00</time></trkpt><trkpt lat="64.0405426" lon="-19.33058548"><ele>588.3</ele><time>2012-07-21T22:36:49.0000000+00:00</time></trkpt><trkpt lat="64.0405426" lon="-19.33058548"><ele>588.2</ele><time>2012-07-21T22:36:54.0000000+00:00</time></trkpt><trkpt lat="64.0405426" lon="-19.33058548"><ele>588.2</ele><time>2012-07-21T22:36:59.0000000+00:00</time></trkpt><trkpt lat="64.0405426" lon="-19.33058548"><ele>588.2</ele><time>2012-07-21T22:37:04.0000000+00:00</time></trkpt><trkpt lat="64.0405426" lon="-19.33058548"><ele>588.2</ele><time>2012-07-21T22:37:09.0000000+00:00</time></trkpt><trkpt lat="64.0405426" lon="-19.33058548"><ele>588.1</ele><time>2012-07-21T22:37:14.0000000+00:00</time></trkpt><trkpt lat="64.0405426" lon="-19.33058548"><ele>588.1</ele><time>2012-07-21T22:37:19.0000000+00:00</time></trkpt><trkpt lat="64.0405426" lon="-19.33058548"><ele>588.0</ele><time>2012-07-21T22:37:24.0000000+00:00</time></trkpt><trkpt lat="64.0405426" lon="-19.33058548"><ele>588.0</ele><time>2012-07-21T22:37:29.0000000+00:00</time></trkpt><trkpt lat="64.0405426" lon="-19.33058548"><ele>588.0</ele><time>2012-07-21T22:37:34.0000000+00:00</time></trkpt><trkpt lat="64.0405426" lon="-19.33058548"><ele>588.0</ele><time>2012-07-21T22:37:39.0000000+00:00</time></trkpt><trkpt lat="64.0405426" lon="-19.33058357"><ele>587.9</ele><time>2012-07-21T22:37:44.0000000+00:00</time></trkpt><trkpt lat="64.0405426" lon="-19.33058357"><ele>587.9</ele><time>2012-07-21T22:37:49.0000000+00:00</time></trkpt><trkpt lat="64.0405426" lon="-19.33058548"><ele>587.9</ele><time>2012-07-21T22:37:54.0000000+00:00</time></trkpt><trkpt lat="64.0405426" lon="-19.33058357"><ele>587.8</ele><time>2012-07-21T22:37:59.0000000+00:00</time></trkpt><trkpt lat="64.0405426" lon="-19.33058357"><ele>587.8</ele><time>2012-07-21T22:38:04.0000000+00:00</time></trkpt><trkpt lat="64.0405426" lon="-19.33058357"><ele>587.8</ele><time>2012-07-21T22:38:09.0000000+00:00</time></trkpt><trkpt lat="64.0405426" lon="-19.33058357"><ele>587.8</ele><time>2012-07-21T22:38:14.0000000+00:00</time></trkpt><trkpt lat="64.0405426" lon="-19.33058357"><ele>587.8</ele><time>2012-07-21T22:38:19.0000000+00:00</time></trkpt><trkpt lat="64.0405426" lon="-19.33058357"><ele>587.7</ele><time>2012-07-21T22:38:24.0000000+00:00</time></trkpt><trkpt lat="64.0405426" lon="-19.33058357"><ele>587.7</ele><time>2012-07-21T22:38:29.0000000+00:00</time></trkpt><trkpt lat="64.0405426" lon="-19.33058357"><ele>587.7</ele><time>2012-07-21T22:38:34.0000000+00:00</time></trkpt><trkpt lat="64.0405426" lon="-19.33058357"><ele>587.7</ele><time>2012-07-21T22:38:39.0000000+00:00</time></trkpt><trkpt lat="64.0405426" lon="-19.33058357"><ele>587.7</ele><time>2012-07-21T22:38:44.0000000+00:00</time></trkpt><trkpt lat="64.0405426" lon="-19.33058357"><ele>587.7</ele><time>2012-07-21T22:38:49.0000000+00:00</time></trkpt><trkpt lat="64.0405426" lon="-19.33058357"><ele>587.6</ele><time>2012-07-21T22:38:54.0000000+00:00</time></trkpt><trkpt lat="64.0405426" lon="-19.33058357"><ele>587.6</ele><time>2012-07-21T22:38:59.0000000+00:00</time></trkpt><trkpt lat="64.0405426" lon="-19.33058357"><ele>587.6</ele><time>2012-07-21T22:39:04.0000000+00:00</time></trkpt><trkpt lat="64.0405426" lon="-19.33058357"><ele>587.6</ele><time>2012-07-21T22:39:09.0000000+00:00</time></trkpt><trkpt lat="64.0405426" lon="-19.33058357"><ele>587.6</ele><time>2012-07-21T22:39:14.0000000+00:00</time></trkpt><trkpt lat="64.0405426" lon="-19.33058357"><ele>587.6</ele><time>2012-07-21T22:39:19.0000000+00:00</time></trkpt><trkpt lat="64.0405426" lon="-19.33058357"><ele>587.6</ele><time>2012-07-21T22:39:24.0000000+00:00</time></trkpt><trkpt lat="64.0405426" lon="-19.33058357"><ele>587.5</ele><time>2012-07-21T22:39:29.0000000+00:00</time></trkpt><trkpt lat="64.0405426" lon="-19.33058357"><ele>587.5</ele><time>2012-07-21T22:39:34.0000000+00:00</time></trkpt><trkpt lat="64.0405426" lon="-19.33058357"><ele>587.5</ele><time>2012-07-21T22:39:39.0000000+00:00</time></trkpt><trkpt lat="64.0405426" lon="-19.33058357"><ele>587.5</ele><time>2012-07-21T22:39:44.0000000+00:00</time></trkpt><trkpt lat="64.0405426" lon="-19.33058357"><ele>587.5</ele><time>2012-07-21T22:39:49.0000000+00:00</time></trkpt><trkpt lat="64.0405426" lon="-19.33058167"><ele>587.5</ele><time>2012-07-21T22:39:54.0000000+00:00</time></trkpt><trkpt lat="64.0405426" lon="-19.33058167"><ele>587.5</ele><time>2012-07-21T22:39:59.0000000+00:00</time></trkpt><trkpt lat="64.0405426" lon="-19.33058167"><ele>587.5</ele><time>2012-07-21T22:40:04.0000000+00:00</time></trkpt><trkpt lat="64.0405426" lon="-19.33058167"><ele>587.5</ele><time>2012-07-21T22:40:09.0000000+00:00</time></trkpt><trkpt lat="64.0405426" lon="-19.33058167"><ele>587.5</ele><time>2012-07-21T22:40:14.0000000+00:00</time></trkpt><trkpt lat="64.0405426" lon="-19.33058167"><ele>587.4</ele><time>2012-07-21T22:40:19.0000000+00:00</time></trkpt><trkpt lat="64.0405426" lon="-19.33058167"><ele>587.4</ele><time>2012-07-21T22:40:24.0000000+00:00</time></trkpt><trkpt lat="64.0405426" lon="-19.33058167"><ele>587.4</ele><time>2012-07-21T22:40:29.0000000+00:00</time></trkpt><trkpt lat="64.0405426" lon="-19.33058167"><ele>587.4</ele><time>2012-07-21T22:40:34.0000000+00:00</time></trkpt><trkpt lat="64.0405426" lon="-19.33058167"><ele>587.4</ele><time>2012-07-21T22:40:39.0000000+00:00</time></trkpt><trkpt lat="64.0405426" lon="-19.33058167"><ele>587.4</ele><time>2012-07-21T22:40:44.0000000+00:00</time></trkpt><trkpt lat="64.0405426" lon="-19.33058167"><ele>587.4</ele><time>2012-07-21T22:40:49.0000000+00:00</time></trkpt><trkpt lat="64.0405426" lon="-19.33058167"><ele>587.4</ele><time>2012-07-21T22:40:54.0000000+00:00</time></trkpt><trkpt lat="64.0405426" lon="-19.33057976"><ele>587.4</ele><time>2012-07-21T22:40:59.0000000+00:00</time></trkpt><trkpt lat="64.0405426" lon="-19.33057976"><ele>587.4</ele><time>2012-07-21T22:41:04.0000000+00:00</time></trkpt><trkpt lat="64.0405426" lon="-19.33058167"><ele>587.4</ele><time>2012-07-21T22:41:09.0000000+00:00</time></trkpt><trkpt lat="64.0405426" lon="-19.33057976"><ele>587.4</ele><time>2012-07-21T22:41:14.0000000+00:00</time></trkpt><trkpt lat="64.0405426" lon="-19.33057976"><ele>587.3</ele><time>2012-07-21T22:41:19.0000000+00:00</time></trkpt><trkpt lat="64.0405426" lon="-19.33057976"><ele>587.3</ele><time>2012-07-21T22:41:24.0000000+00:00</time></trkpt><trkpt lat="64.0405426" lon="-19.33057976"><ele>587.3</ele><time>2012-07-21T22:41:29.0000000+00:00</time></trkpt><trkpt lat="64.0405426" lon="-19.33057976"><ele>587.3</ele><time>2012-07-21T22:41:34.0000000+00:00</time></trkpt><trkpt lat="64.0405426" lon="-19.33057785"><ele>587.3</ele><time>2012-07-21T22:41:39.0000000+00:00</time></trkpt><trkpt lat="64.0405426" lon="-19.33057785"><ele>587.3</ele><time>2012-07-21T22:41:44.0000000+00:00</time></trkpt><trkpt lat="64.04055023" lon="-19.3305912"><ele>586.9</ele><time>2012-07-21T22:41:49.0000000+00:00</time></trkpt><trkpt lat="64.04053497" lon="-19.33061218"><ele>587.4</ele><time>2012-07-21T22:41:54.0000000+00:00</time></trkpt><trkpt lat="64.04053497" lon="-19.33061028"><ele>587.2</ele><time>2012-07-21T22:41:59.0000000+00:00</time></trkpt><trkpt lat="64.04055023" lon="-19.33061028"><ele>587.6</ele><time>2012-07-21T22:42:04.0000000+00:00</time></trkpt><trkpt lat="64.04055023" lon="-19.33061409"><ele>588.3</ele><time>2012-07-21T22:42:09.0000000+00:00</time></trkpt><trkpt lat="64.04055786" lon="-19.330616"><ele>588.9</ele><time>2012-07-21T22:42:14.0000000+00:00</time></trkpt><trkpt lat="64.04055786" lon="-19.33061791"><ele>589.4</ele><time>2012-07-21T22:42:19.0000000+00:00</time></trkpt><trkpt lat="64.04055786" lon="-19.33061791"><ele>589.4</ele><time>2012-07-21T22:42:24.0000000+00:00</time></trkpt><trkpt lat="64.04055786" lon="-19.33061791"><ele>589.4</ele><time>2012-07-21T22:42:29.0000000+00:00</time></trkpt><trkpt lat="64.04055786" lon="-19.33061791"><ele>589.3</ele><time>2012-07-21T22:42:34.0000000+00:00</time></trkpt><trkpt lat="64.04055786" lon="-19.33061791"><ele>589.3</ele><time>2012-07-21T22:42:39.0000000+00:00</time></trkpt><trkpt lat="64.04055786" lon="-19.33061981"><ele>589.3</ele><time>2012-07-21T22:42:44.0000000+00:00</time></trkpt><trkpt lat="64.04055786" lon="-19.33061981"><ele>589.3</ele><time>2012-07-21T22:42:49.0000000+00:00</time></trkpt><trkpt lat="64.04055786" lon="-19.33061981"><ele>589.3</ele><time>2012-07-21T22:42:54.0000000+00:00</time></trkpt><trkpt lat="64.04055786" lon="-19.33061981"><ele>589.3</ele><time>2012-07-21T22:42:59.0000000+00:00</time></trkpt><trkpt lat="64.04055786" lon="-19.33061981"><ele>589.3</ele><time>2012-07-21T22:43:04.0000000+00:00</time></trkpt><trkpt lat="64.04055786" lon="-19.33061981"><ele>589.3</ele><time>2012-07-21T22:43:09.0000000+00:00</time></trkpt><trkpt lat="64.04055786" lon="-19.33061981"><ele>589.2</ele><time>2012-07-21T22:43:14.0000000+00:00</time></trkpt><trkpt lat="64.04055786" lon="-19.33061981"><ele>589.2</ele><time>2012-07-21T22:43:19.0000000+00:00</time></trkpt><trkpt lat="64.04055786" lon="-19.33062172"><ele>589.2</ele><time>2012-07-21T22:43:24.0000000+00:00</time></trkpt><trkpt lat="64.04055786" lon="-19.33062172"><ele>589.2</ele><time>2012-07-21T22:43:29.0000000+00:00</time></trkpt><trkpt lat="64.04055786" lon="-19.33062172"><ele>589.2</ele><time>2012-07-21T22:43:34.0000000+00:00</time></trkpt><trkpt lat="64.04055786" lon="-19.33062172"><ele>589.2</ele><time>2012-07-21T22:43:39.0000000+00:00</time></trkpt><trkpt lat="64.04055786" lon="-19.33062172"><ele>589.2</ele><time>2012-07-21T22:43:44.0000000+00:00</time></trkpt><trkpt lat="64.04055786" lon="-19.33062172"><ele>589.2</ele><time>2012-07-21T22:43:49.0000000+00:00</time></trkpt><trkpt lat="64.04055786" lon="-19.33062172"><ele>589.2</ele><time>2012-07-21T22:43:54.0000000+00:00</time></trkpt><trkpt lat="64.04055786" lon="-19.33062172"><ele>589.2</ele><time>2012-07-21T22:43:59.0000000+00:00</time></trkpt><trkpt lat="64.04055786" lon="-19.33062172"><ele>589.1</ele><time>2012-07-21T22:44:04.0000000+00:00</time></trkpt><trkpt lat="64.04055786" lon="-19.33062172"><ele>589.1</ele><time>2012-07-21T22:44:09.0000000+00:00</time></trkpt><trkpt lat="64.04055786" lon="-19.33062363"><ele>589.1</ele><time>2012-07-21T22:44:14.0000000+00:00</time></trkpt><trkpt lat="64.04055786" lon="-19.33062363"><ele>589.1</ele><time>2012-07-21T22:44:19.0000000+00:00</time></trkpt><trkpt lat="64.04055786" lon="-19.33062363"><ele>589.1</ele><time>2012-07-21T22:44:24.0000000+00:00</time></trkpt><trkpt lat="64.04055786" lon="-19.33062363"><ele>589.0</ele><time>2012-07-21T22:44:29.0000000+00:00</time></trkpt><trkpt lat="64.04055786" lon="-19.33062363"><ele>589.0</ele><time>2012-07-21T22:44:34.0000000+00:00</time></trkpt><trkpt lat="64.04055786" lon="-19.33062363"><ele>589.0</ele><time>2012-07-21T22:44:39.0000000+00:00</time></trkpt><trkpt lat="64.04055786" lon="-19.33062363"><ele>589.0</ele><time>2012-07-21T22:44:44.0000000+00:00</time></trkpt><trkpt lat="64.04055786" lon="-19.33062363"><ele>589.0</ele><time>2012-07-21T22:44:49.0000000+00:00</time></trkpt><trkpt lat="64.04055786" lon="-19.33062363"><ele>589.0</ele><time>2012-07-21T22:44:54.0000000+00:00</time></trkpt><trkpt lat="64.04055786" lon="-19.33062363"><ele>589.0</ele><time>2012-07-21T22:44:59.0000000+00:00</time></trkpt><trkpt lat="64.04055786" lon="-19.33062363"><ele>589.0</ele><time>2012-07-21T22:45:04.0000000+00:00</time></trkpt><trkpt lat="64.04055786" lon="-19.33062363"><ele>589.0</ele><time>2012-07-21T22:45:09.0000000+00:00</time></trkpt><trkpt lat="64.04055786" lon="-19.33062363"><ele>588.9</ele><time>2012-07-21T22:45:14.0000000+00:00</time></trkpt><trkpt lat="64.04055786" lon="-19.33062363"><ele>588.9</ele><time>2012-07-21T22:45:19.0000000+00:00</time></trkpt><trkpt lat="64.04055786" lon="-19.33062363"><ele>588.9</ele><time>2012-07-21T22:45:24.0000000+00:00</time></trkpt><trkpt lat="64.04055786" lon="-19.33062363"><ele>588.9</ele><time>2012-07-21T22:45:29.0000000+00:00</time></trkpt><trkpt lat="64.04055786" lon="-19.33062363"><ele>588.9</ele><time>2012-07-21T22:45:34.0000000+00:00</time></trkpt><trkpt lat="64.04055786" lon="-19.33062553"><ele>588.9</ele><time>2012-07-21T22:45:39.0000000+00:00</time></trkpt><trkpt lat="64.04055786" lon="-19.33062553"><ele>588.9</ele><time>2012-07-21T22:45:44.0000000+00:00</time></trkpt><trkpt lat="64.04055786" lon="-19.33062553"><ele>588.8</ele><time>2012-07-21T22:45:49.0000000+00:00</time></trkpt><trkpt lat="64.04055786" lon="-19.33062553"><ele>588.8</ele><time>2012-07-21T22:45:54.0000000+00:00</time></trkpt><trkpt lat="64.04055786" lon="-19.33062553"><ele>588.8</ele><time>2012-07-21T22:45:59.0000000+00:00</time></trkpt><trkpt lat="64.04055786" lon="-19.33062553"><ele>588.8</ele><time>2012-07-21T22:46:04.0000000+00:00</time></trkpt><trkpt lat="64.04055786" lon="-19.33062553"><ele>588.8</ele><time>2012-07-21T22:46:09.0000000+00:00</time></trkpt><trkpt lat="64.04055786" lon="-19.33062553"><ele>588.8</ele><time>2012-07-21T22:46:14.0000000+00:00</time></trkpt><trkpt lat="64.04055786" lon="-19.33062553"><ele>588.8</ele><time>2012-07-21T22:46:19.0000000+00:00</time></trkpt><trkpt lat="64.04055786" lon="-19.33062553"><ele>588.7</ele><time>2012-07-21T22:46:24.0000000+00:00</time></trkpt><trkpt lat="64.04055786" lon="-19.33062553"><ele>588.7</ele><time>2012-07-21T22:46:29.0000000+00:00</time></trkpt><trkpt lat="64.04055786" lon="-19.33062553"><ele>588.7</ele><time>2012-07-21T22:46:34.0000000+00:00</time></trkpt><trkpt lat="64.04055786" lon="-19.33062553"><ele>588.7</ele><time>2012-07-21T22:46:39.0000000+00:00</time></trkpt><trkpt lat="64.04055786" lon="-19.33062553"><ele>588.7</ele><time>2012-07-21T22:46:44.0000000+00:00</time></trkpt><trkpt lat="64.04055786" lon="-19.33062553"><ele>588.7</ele><time>2012-07-21T22:46:49.0000000+00:00</time></trkpt><trkpt lat="64.04055786" lon="-19.33062553"><ele>588.7</ele><time>2012-07-21T22:46:54.0000000+00:00</time></trkpt><trkpt lat="64.04055786" lon="-19.33062553"><ele>588.7</ele><time>2012-07-21T22:46:59.0000000+00:00</time></trkpt><trkpt lat="64.04056549" lon="-19.33062172"><ele>589.1</ele><time>2012-07-21T22:47:04.0000000+00:00</time></trkpt><trkpt lat="64.04055786" lon="-19.33061791"><ele>589.0</ele><time>2012-07-21T22:47:09.0000000+00:00</time></trkpt><trkpt lat="64.04055786" lon="-19.33061981"><ele>589.0</ele><time>2012-07-21T22:47:14.0000000+00:00</time></trkpt><trkpt lat="64.04055786" lon="-19.33061981"><ele>589.0</ele><time>2012-07-21T22:47:19.0000000+00:00</time></trkpt><trkpt lat="64.04055786" lon="-19.33062172"><ele>589.0</ele><time>2012-07-21T22:47:24.0000000+00:00</time></trkpt><trkpt lat="64.04055786" lon="-19.33062744"><ele>589.0</ele><time>2012-07-21T22:47:29.0000000+00:00</time></trkpt><trkpt lat="64.04055786" lon="-19.33062935"><ele>589.0</ele><time>2012-07-21T22:47:34.0000000+00:00</time></trkpt><trkpt lat="64.04057312" lon="-19.33056641"><ele>589.3</ele><time>2012-07-21T22:47:39.0000000+00:00</time></trkpt><trkpt lat="64.04057312" lon="-19.33056641"><ele>589.3</ele><time>2012-07-21T22:47:44.0000000+00:00</time></trkpt><trkpt lat="64.04057312" lon="-19.33056641"><ele>589.3</ele><time>2012-07-21T22:47:49.0000000+00:00</time></trkpt><trkpt lat="64.04057312" lon="-19.33056831"><ele>589.3</ele><time>2012-07-21T22:47:54.0000000+00:00</time></trkpt><trkpt lat="64.04057312" lon="-19.33056831"><ele>589.3</ele><time>2012-07-21T22:47:59.0000000+00:00</time></trkpt><trkpt lat="64.04057312" lon="-19.33056831"><ele>589.3</ele><time>2012-07-21T22:48:04.0000000+00:00</time></trkpt><trkpt lat="64.04057312" lon="-19.33056831"><ele>589.2</ele><time>2012-07-21T22:48:09.0000000+00:00</time></trkpt><trkpt lat="64.04057312" lon="-19.33056831"><ele>589.2</ele><time>2012-07-21T22:48:14.0000000+00:00</time></trkpt><trkpt lat="64.04057312" lon="-19.33057022"><ele>589.2</ele><time>2012-07-21T22:48:19.0000000+00:00</time></trkpt><trkpt lat="64.04057312" lon="-19.33057022"><ele>589.2</ele><time>2012-07-21T22:48:24.0000000+00:00</time></trkpt><trkpt lat="64.04056549" lon="-19.33057022"><ele>589.1</ele><time>2012-07-21T22:48:29.0000000+00:00</time></trkpt><trkpt lat="64.04056549" lon="-19.33057022"><ele>589.1</ele><time>2012-07-21T22:48:34.0000000+00:00</time></trkpt><trkpt lat="64.04056549" lon="-19.33057022"><ele>589.1</ele><time>2012-07-21T22:48:39.0000000+00:00</time></trkpt><trkpt lat="64.04056549" lon="-19.33057404"><ele>589.1</ele><time>2012-07-21T22:48:44.0000000+00:00</time></trkpt><trkpt lat="64.04056549" lon="-19.33057404"><ele>589.0</ele><time>2012-07-21T22:48:49.0000000+00:00</time></trkpt><trkpt lat="64.04056549" lon="-19.33057213"><ele>589.0</ele><time>2012-07-21T22:48:54.0000000+00:00</time></trkpt><trkpt lat="64.04055786" lon="-19.33057213"><ele>588.8</ele><time>2012-07-21T22:48:59.0000000+00:00</time></trkpt><trkpt lat="64.04056549" lon="-19.33059311"><ele>588.1</ele><time>2012-07-21T22:49:04.0000000+00:00</time></trkpt><trkpt lat="64.04061127" lon="-19.33060074"><ele>588.2</ele><time>2012-07-21T22:49:09.0000000+00:00</time></trkpt><trkpt lat="64.04062653" lon="-19.33055306"><ele>587.5</ele><time>2012-07-21T22:49:14.0000000+00:00</time></trkpt><trkpt lat="64.04064179" lon="-19.33050728"><ele>587.7</ele><time>2012-07-21T22:49:19.0000000+00:00</time></trkpt><trkpt lat="64.04065704" lon="-19.3304615"><ele>587.6</ele><time>2012-07-21T22:49:24.0000000+00:00</time></trkpt><trkpt lat="64.04065704" lon="-19.33041954"><ele>587.6</ele><time>2012-07-21T22:49:29.0000000+00:00</time></trkpt><trkpt lat="64.04066467" lon="-19.33043098"><ele>587.8</ele><time>2012-07-21T22:49:34.0000000+00:00</time></trkpt><trkpt lat="64.04066467" lon="-19.33042908"><ele>587.8</ele><time>2012-07-21T22:49:39.0000000+00:00</time></trkpt><trkpt lat="64.04065704" lon="-19.33042526"><ele>587.6</ele><time>2012-07-21T22:49:44.0000000+00:00</time></trkpt><trkpt lat="64.0406723" lon="-19.33036041"><ele>589.0</ele><time>2012-07-21T22:49:49.0000000+00:00</time></trkpt><trkpt lat="64.04067993" lon="-19.33033562"><ele>589.8</ele><time>2012-07-21T22:49:54.0000000+00:00</time></trkpt><trkpt lat="64.0406723" lon="-19.33034897"><ele>589.6</ele><time>2012-07-21T22:49:59.0000000+00:00</time></trkpt><trkpt lat="64.04067993" lon="-19.33030319"><ele>590.0</ele><time>2012-07-21T22:50:04.0000000+00:00</time></trkpt><trkpt lat="64.0406723" lon="-19.33029747"><ele>590.7</ele><time>2012-07-21T22:50:09.0000000+00:00</time></trkpt><trkpt lat="64.0406723" lon="-19.33029556"><ele>590.8</ele><time>2012-07-21T22:50:14.0000000+00:00</time></trkpt><trkpt lat="64.0406723" lon="-19.33028984"><ele>590.7</ele><time>2012-07-21T22:50:19.0000000+00:00</time></trkpt><trkpt lat="64.0406723" lon="-19.33028221"><ele>590.6</ele><time>2012-07-21T22:50:24.0000000+00:00</time></trkpt><trkpt lat="64.0406723" lon="-19.33028221"><ele>590.6</ele><time>2012-07-21T22:50:29.0000000+00:00</time></trkpt><trkpt lat="64.04065704" lon="-19.3302803"><ele>591.4</ele><time>2012-07-21T22:50:34.0000000+00:00</time></trkpt><trkpt lat="64.04064179" lon="-19.33030891"><ele>590.9</ele><time>2012-07-21T22:50:39.0000000+00:00</time></trkpt><trkpt lat="64.04064941" lon="-19.33044243"><ele>589.3</ele><time>2012-07-21T22:50:44.0000000+00:00</time></trkpt><trkpt lat="64.04064179" lon="-19.33049774"><ele>587.3</ele><time>2012-07-21T22:50:49.0000000+00:00</time></trkpt><trkpt lat="64.04064179" lon="-19.33050346"><ele>587.2</ele><time>2012-07-21T22:50:54.0000000+00:00</time></trkpt><trkpt lat="64.04066467" lon="-19.33063126"><ele>586.5</ele><time>2012-07-21T22:50:59.0000000+00:00</time></trkpt><trkpt lat="64.04068756" lon="-19.33079338"><ele>585.7</ele><time>2012-07-21T22:51:04.0000000+00:00</time></trkpt><trkpt lat="64.04074097" lon="-19.33093834"><ele>585.9</ele><time>2012-07-21T22:51:09.0000000+00:00</time></trkpt><trkpt lat="64.04076386" lon="-19.33102226"><ele>586.4</ele><time>2012-07-21T22:51:14.0000000+00:00</time></trkpt><trkpt lat="64.04075623" lon="-19.33102989"><ele>586.6</ele><time>2012-07-21T22:51:19.0000000+00:00</time></trkpt><trkpt lat="64.04075623" lon="-19.33102989"><ele>586.6</ele><time>2012-07-21T22:51:24.0000000+00:00</time></trkpt><trkpt lat="64.04075623" lon="-19.33102799"><ele>586.6</ele><time>2012-07-21T22:51:29.0000000+00:00</time></trkpt><trkpt lat="64.04077148" lon="-19.33109283"><ele>586.0</ele><time>2012-07-21T22:51:34.0000000+00:00</time></trkpt><trkpt lat="64.04081726" lon="-19.33116913"><ele>586.1</ele><time>2012-07-21T22:51:39.0000000+00:00</time></trkpt><trkpt lat="64.04084778" lon="-19.33120346"><ele>586.3</ele><time>2012-07-21T22:51:44.0000000+00:00</time></trkpt><trkpt lat="64.04084015" lon="-19.33122063"><ele>587.6</ele><time>2012-07-21T22:51:49.0000000+00:00</time></trkpt><trkpt lat="64.04085541" lon="-19.33121109"><ele>588.1</ele><time>2012-07-21T22:51:54.0000000+00:00</time></trkpt><trkpt lat="64.0408783" lon="-19.33121681"><ele>589.5</ele><time>2012-07-21T22:51:59.0000000+00:00</time></trkpt><trkpt lat="64.04087067" lon="-19.33124161"><ele>590.3</ele><time>2012-07-21T22:52:04.0000000+00:00</time></trkpt><trkpt lat="64.04087067" lon="-19.33123779"><ele>590.3</ele><time>2012-07-21T22:52:09.0000000+00:00</time></trkpt><trkpt lat="64.04087067" lon="-19.33123779"><ele>590.2</ele><time>2012-07-21T22:52:14.0000000+00:00</time></trkpt><trkpt lat="64.04087067" lon="-19.33123589"><ele>590.2</ele><time>2012-07-21T22:52:19.0000000+00:00</time></trkpt><trkpt lat="64.04087067" lon="-19.33123589"><ele>590.2</ele><time>2012-07-21T22:52:24.0000000+00:00</time></trkpt><trkpt lat="64.04087067" lon="-19.33123589"><ele>590.2</ele><time>2012-07-21T22:52:29.0000000+00:00</time></trkpt><trkpt lat="64.04087067" lon="-19.33123779"><ele>590.3</ele><time>2012-07-21T22:52:34.0000000+00:00</time></trkpt><trkpt lat="64.04087067" lon="-19.33123589"><ele>590.2</ele><time>2012-07-21T22:52:39.0000000+00:00</time></trkpt><trkpt lat="64.04087067" lon="-19.33123589"><ele>590.2</ele><time>2012-07-21T22:52:44.0000000+00:00</time></trkpt><trkpt lat="64.04087067" lon="-19.33123589"><ele>590.2</ele><time>2012-07-21T22:52:49.0000000+00:00</time></trkpt><trkpt lat="64.04087067" lon="-19.33123589"><ele>590.2</ele><time>2012-07-21T22:52:54.0000000+00:00</time></trkpt><trkpt lat="64.04087067" lon="-19.33123589"><ele>590.2</ele><time>2012-07-21T22:52:59.0000000+00:00</time></trkpt><trkpt lat="64.04087067" lon="-19.33123589"><ele>590.2</ele><time>2012-07-21T22:53:04.0000000+00:00</time></trkpt><trkpt lat="64.04087067" lon="-19.33123589"><ele>590.2</ele><time>2012-07-21T22:53:09.0000000+00:00</time></trkpt><trkpt lat="64.04087067" lon="-19.33123398"><ele>590.2</ele><time>2012-07-21T22:53:14.0000000+00:00</time></trkpt><trkpt lat="64.04087067" lon="-19.33123398"><ele>590.1</ele><time>2012-07-21T22:53:19.0000000+00:00</time></trkpt><trkpt lat="64.04087067" lon="-19.33123398"><ele>590.1</ele><time>2012-07-21T22:53:24.0000000+00:00</time></trkpt><trkpt lat="64.04087067" lon="-19.33123398"><ele>590.1</ele><time>2012-07-21T22:53:29.0000000+00:00</time></trkpt><trkpt lat="64.04087067" lon="-19.33123398"><ele>590.1</ele><time>2012-07-21T22:53:34.0000000+00:00</time></trkpt><trkpt lat="64.04087067" lon="-19.33123398"><ele>590.1</ele><time>2012-07-21T22:53:39.0000000+00:00</time></trkpt><trkpt lat="64.04087067" lon="-19.33123398"><ele>590.1</ele><time>2012-07-21T22:53:44.0000000+00:00</time></trkpt><trkpt lat="64.04087067" lon="-19.33123398"><ele>590.1</ele><time>2012-07-21T22:53:49.0000000+00:00</time></trkpt><trkpt lat="64.04087067" lon="-19.33123398"><ele>590.1</ele><time>2012-07-21T22:53:54.0000000+00:00</time></trkpt><trkpt lat="64.04087067" lon="-19.33123398"><ele>590.1</ele><time>2012-07-21T22:53:59.0000000+00:00</time></trkpt><trkpt lat="64.04087067" lon="-19.33123589"><ele>589.7</ele><time>2012-07-21T22:54:04.0000000+00:00</time></trkpt><trkpt lat="64.04087067" lon="-19.33123589"><ele>588.9</ele><time>2012-07-21T22:54:09.0000000+00:00</time></trkpt><trkpt lat="64.04087067" lon="-19.3312397"><ele>588.1</ele><time>2012-07-21T22:54:14.0000000+00:00</time></trkpt><trkpt lat="64.04086304" lon="-19.33124924"><ele>587.6</ele><time>2012-07-21T22:54:19.0000000+00:00</time></trkpt><trkpt lat="64.04085541" lon="-19.33125687"><ele>587.2</ele><time>2012-07-21T22:54:24.0000000+00:00</time></trkpt><trkpt lat="64.04086304" lon="-19.33124161"><ele>586.9</ele><time>2012-07-21T22:54:29.0000000+00:00</time></trkpt><trkpt lat="64.04086304" lon="-19.33122063"><ele>587.3</ele><time>2012-07-21T22:54:34.0000000+00:00</time></trkpt><trkpt lat="64.04086304" lon="-19.331213"><ele>587.5</ele><time>2012-07-21T22:54:39.0000000+00:00</time></trkpt><trkpt lat="64.04086304" lon="-19.33120728"><ele>587.3</ele><time>2012-07-21T22:54:44.0000000+00:00</time></trkpt><trkpt lat="64.04086304" lon="-19.33120918"><ele>587.3</ele><time>2012-07-21T22:54:49.0000000+00:00</time></trkpt><trkpt lat="64.04086304" lon="-19.33120728"><ele>587.3</ele><time>2012-07-21T22:54:54.0000000+00:00</time></trkpt><trkpt lat="64.04086304" lon="-19.33120728"><ele>587.3</ele><time>2012-07-21T22:54:59.0000000+00:00</time></trkpt><trkpt lat="64.04086304" lon="-19.33120728"><ele>587.3</ele><time>2012-07-21T22:55:04.0000000+00:00</time></trkpt><trkpt lat="64.04086304" lon="-19.33120728"><ele>587.3</ele><time>2012-07-21T22:55:09.0000000+00:00</time></trkpt><trkpt lat="64.04086304" lon="-19.33120728"><ele>587.3</ele><time>2012-07-21T22:55:14.0000000+00:00</time></trkpt><trkpt lat="64.04086304" lon="-19.33120728"><ele>587.3</ele><time>2012-07-21T22:55:19.0000000+00:00</time></trkpt><trkpt lat="64.04086304" lon="-19.33120728"><ele>587.3</ele><time>2012-07-21T22:55:24.0000000+00:00</time></trkpt><trkpt lat="64.04085541" lon="-19.33120537"><ele>587.3</ele><time>2012-07-21T22:55:29.0000000+00:00</time></trkpt><trkpt lat="64.04087067" lon="-19.33123589"><ele>587.1</ele><time>2012-07-21T22:55:34.0000000+00:00</time></trkpt><trkpt lat="64.04090118" lon="-19.33130646"><ele>587.2</ele><time>2012-07-21T22:55:39.0000000+00:00</time></trkpt><trkpt lat="64.04090118" lon="-19.33132172"><ele>587.2</ele><time>2012-07-21T22:55:44.0000000+00:00</time></trkpt><trkpt lat="64.04090118" lon="-19.33132172"><ele>587.3</ele><time>2012-07-21T22:55:49.0000000+00:00</time></trkpt><trkpt lat="64.04090118" lon="-19.33132172"><ele>587.3</ele><time>2012-07-21T22:55:54.0000000+00:00</time></trkpt><trkpt lat="64.04093933" lon="-19.33139038"><ele>587.0</ele><time>2012-07-21T22:55:59.0000000+00:00</time></trkpt><trkpt lat="64.04096222" lon="-19.33138847"><ele>587.2</ele><time>2012-07-21T22:56:04.0000000+00:00</time></trkpt><trkpt lat="64.04096985" lon="-19.33138084"><ele>587.8</ele><time>2012-07-21T22:56:09.0000000+00:00</time></trkpt><trkpt lat="64.04098511" lon="-19.33135223"><ele>588.8</ele><time>2012-07-21T22:56:14.0000000+00:00</time></trkpt><trkpt lat="64.04099274" lon="-19.33128357"><ele>588.6</ele><time>2012-07-21T22:56:19.0000000+00:00</time></trkpt><trkpt lat="64.04100037" lon="-19.3311882"><ele>588.9</ele><time>2012-07-21T22:56:24.0000000+00:00</time></trkpt><trkpt lat="64.04099274" lon="-19.33108521"><ele>588.4</ele><time>2012-07-21T22:56:29.0000000+00:00</time></trkpt><trkpt lat="64.04099274" lon="-19.33109283"><ele>588.5</ele><time>2012-07-21T22:56:34.0000000+00:00</time></trkpt><trkpt lat="64.04099274" lon="-19.33102417"><ele>588.5</ele><time>2012-07-21T22:56:39.0000000+00:00</time></trkpt><trkpt lat="64.04098511" lon="-19.33094406"><ele>588.0</ele><time>2012-07-21T22:56:44.0000000+00:00</time></trkpt><trkpt lat="64.041008" lon="-19.33083153"><ele>587.6</ele><time>2012-07-21T22:56:49.0000000+00:00</time></trkpt><trkpt lat="64.04102325" lon="-19.33077812"><ele>587.2</ele><time>2012-07-21T22:56:54.0000000+00:00</time></trkpt><trkpt lat="64.041008" lon="-19.33074379"><ele>587.1</ele><time>2012-07-21T22:56:59.0000000+00:00</time></trkpt><trkpt lat="64.04100037" lon="-19.33067322"><ele>587.0</ele><time>2012-07-21T22:57:04.0000000+00:00</time></trkpt><trkpt lat="64.04095459" lon="-19.33062363"><ele>587.0</ele><time>2012-07-21T22:57:09.0000000+00:00</time></trkpt><trkpt lat="64.04090881" lon="-19.33058167"><ele>586.6</ele><time>2012-07-21T22:57:14.0000000+00:00</time></trkpt><trkpt lat="64.04089356" lon="-19.33051491"><ele>586.0</ele><time>2012-07-21T22:57:19.0000000+00:00</time></trkpt><trkpt lat="64.04087067" lon="-19.33050728"><ele>585.7</ele><time>2012-07-21T22:57:24.0000000+00:00</time></trkpt><trkpt lat="64.04087067" lon="-19.33047295"><ele>585.3</ele><time>2012-07-21T22:57:29.0000000+00:00</time></trkpt><trkpt lat="64.0408783" lon="-19.33045578"><ele>584.9</ele><time>2012-07-21T22:57:34.0000000+00:00</time></trkpt><trkpt lat="64.0408783" lon="-19.33044243"><ele>584.6</ele><time>2012-07-21T22:57:39.0000000+00:00</time></trkpt><trkpt lat="64.04088593" lon="-19.3304081"><ele>584.3</ele><time>2012-07-21T22:57:44.0000000+00:00</time></trkpt><trkpt lat="64.04088593" lon="-19.33031654"><ele>584.4</ele><time>2012-07-21T22:57:49.0000000+00:00</time></trkpt><trkpt lat="64.04090118" lon="-19.33024025"><ele>584.4</ele><time>2012-07-21T22:57:54.0000000+00:00</time></trkpt><trkpt lat="64.04090118" lon="-19.3302002"><ele>584.3</ele><time>2012-07-21T22:57:59.0000000+00:00</time></trkpt><trkpt lat="64.04093933" lon="-19.3302021"><ele>584.0</ele><time>2012-07-21T22:58:04.0000000+00:00</time></trkpt><trkpt lat="64.04100037" lon="-19.33026886"><ele>584.0</ele><time>2012-07-21T22:58:09.0000000+00:00</time></trkpt><trkpt lat="64.04102325" lon="-19.33015442"><ele>585.1</ele><time>2012-07-21T22:58:14.0000000+00:00</time></trkpt><trkpt lat="64.041008" lon="-19.3300705"><ele>585.0</ele><time>2012-07-21T22:58:19.0000000+00:00</time></trkpt><trkpt lat="64.04100037" lon="-19.32996941"><ele>583.6</ele><time>2012-07-21T22:58:24.0000000+00:00</time></trkpt><trkpt lat="64.04098511" lon="-19.32987595"><ele>582.2</ele><time>2012-07-21T22:58:29.0000000+00:00</time></trkpt><trkpt lat="64.04097748" lon="-19.32977295"><ele>582.1</ele><time>2012-07-21T22:58:34.0000000+00:00</time></trkpt><trkpt lat="64.04095459" lon="-19.32973099"><ele>583.2</ele><time>2012-07-21T22:58:39.0000000+00:00</time></trkpt><trkpt lat="64.04093933" lon="-19.32966423"><ele>583.0</ele><time>2012-07-21T22:58:44.0000000+00:00</time></trkpt><trkpt lat="64.04090118" lon="-19.32958412"><ele>583.4</ele><time>2012-07-21T22:58:49.0000000+00:00</time></trkpt><trkpt lat="64.04088593" lon="-19.32949257"><ele>583.2</ele><time>2012-07-21T22:58:54.0000000+00:00</time></trkpt><trkpt lat="64.04085541" lon="-19.3294239"><ele>583.9</ele><time>2012-07-21T22:58:59.0000000+00:00</time></trkpt><trkpt lat="64.04085541" lon="-19.32932091"><ele>583.2</ele><time>2012-07-21T22:59:04.0000000+00:00</time></trkpt><trkpt lat="64.04084015" lon="-19.32924461"><ele>582.5</ele><time>2012-07-21T22:59:09.0000000+00:00</time></trkpt><trkpt lat="64.04085541" lon="-19.32916069"><ele>581.9</ele><time>2012-07-21T22:59:14.0000000+00:00</time></trkpt><trkpt lat="64.04087067" lon="-19.32907867"><ele>580.7</ele><time>2012-07-21T22:59:19.0000000+00:00</time></trkpt><trkpt lat="64.04088593" lon="-19.32904244"><ele>581.5</ele><time>2012-07-21T22:59:24.0000000+00:00</time></trkpt><trkpt lat="64.04088593" lon="-19.32897759"><ele>582.3</ele><time>2012-07-21T22:59:29.0000000+00:00</time></trkpt><trkpt lat="64.04090881" lon="-19.32894516"><ele>582.5</ele><time>2012-07-21T22:59:34.0000000+00:00</time></trkpt><trkpt lat="64.04090881" lon="-19.32894898"><ele>582.4</ele><time>2012-07-21T22:59:39.0000000+00:00</time></trkpt><trkpt lat="64.04090881" lon="-19.3289566"><ele>582.5</ele><time>2012-07-21T22:59:44.0000000+00:00</time></trkpt><trkpt lat="64.04091644" lon="-19.32896423"><ele>582.5</ele><time>2012-07-21T22:59:49.0000000+00:00</time></trkpt><trkpt lat="64.04088593" lon="-19.32890511"><ele>582.4</ele><time>2012-07-21T22:59:54.0000000+00:00</time></trkpt><trkpt lat="64.04088593" lon="-19.32879257"><ele>582.9</ele><time>2012-07-21T22:59:59.0000000+00:00</time></trkpt><trkpt lat="64.0408783" lon="-19.32865334"><ele>583.0</ele><time>2012-07-21T23:00:04.0000000+00:00</time></trkpt><trkpt lat="64.0408783" lon="-19.32854652"><ele>582.9</ele><time>2012-07-21T23:00:09.0000000+00:00</time></trkpt><trkpt lat="64.04086304" lon="-19.32852364"><ele>582.5</ele><time>2012-07-21T23:00:14.0000000+00:00</time></trkpt><trkpt lat="64.04086304" lon="-19.32852554"><ele>582.3</ele><time>2012-07-21T23:00:19.0000000+00:00</time></trkpt><trkpt lat="64.04086304" lon="-19.32852173"><ele>582.0</ele><time>2012-07-21T23:00:24.0000000+00:00</time></trkpt><trkpt lat="64.04086304" lon="-19.32848358"><ele>581.5</ele><time>2012-07-21T23:00:29.0000000+00:00</time></trkpt><trkpt lat="64.04087067" lon="-19.32845688"><ele>581.8</ele><time>2012-07-21T23:00:34.0000000+00:00</time></trkpt><trkpt lat="64.04087067" lon="-19.32844162"><ele>581.5</ele><time>2012-07-21T23:00:39.0000000+00:00</time></trkpt><trkpt lat="64.0408783" lon="-19.32843781"><ele>581.1</ele><time>2012-07-21T23:00:44.0000000+00:00</time></trkpt><trkpt lat="64.04089356" lon="-19.32841301"><ele>580.1</ele><time>2012-07-21T23:00:49.0000000+00:00</time></trkpt><trkpt lat="64.04090118" lon="-19.32839012"><ele>579.4</ele><time>2012-07-21T23:00:54.0000000+00:00</time></trkpt><trkpt lat="64.04089356" lon="-19.32839394"><ele>579.1</ele><time>2012-07-21T23:00:59.0000000+00:00</time></trkpt><trkpt lat="64.04088593" lon="-19.32837105"><ele>579.1</ele><time>2012-07-21T23:01:04.0000000+00:00</time></trkpt><trkpt lat="64.04087067" lon="-19.32831192"><ele>579.0</ele><time>2012-07-21T23:01:09.0000000+00:00</time></trkpt><trkpt lat="64.04087067" lon="-19.32827759"><ele>579.4</ele><time>2012-07-21T23:01:14.0000000+00:00</time></trkpt><trkpt lat="64.04086304" lon="-19.32826042"><ele>579.4</ele><time>2012-07-21T23:01:19.0000000+00:00</time></trkpt><trkpt lat="64.04086304" lon="-19.32825661"><ele>579.7</ele><time>2012-07-21T23:01:24.0000000+00:00</time></trkpt><trkpt lat="64.04086304" lon="-19.32825089"><ele>579.6</ele><time>2012-07-21T23:01:29.0000000+00:00</time></trkpt><trkpt lat="64.04086304" lon="-19.32825089"><ele>579.6</ele><time>2012-07-21T23:01:34.0000000+00:00</time></trkpt><trkpt lat="64.04086304" lon="-19.32825089"><ele>579.6</ele><time>2012-07-21T23:01:39.0000000+00:00</time></trkpt><trkpt lat="64.04086304" lon="-19.32824707"><ele>579.6</ele><time>2012-07-21T23:01:44.0000000+00:00</time></trkpt><trkpt lat="64.04086304" lon="-19.32819367"><ele>579.8</ele><time>2012-07-21T23:01:49.0000000+00:00</time></trkpt><trkpt lat="64.04085541" lon="-19.32812119"><ele>580.8</ele><time>2012-07-21T23:01:54.0000000+00:00</time></trkpt><trkpt lat="64.04087067" lon="-19.32805824"><ele>581.1</ele><time>2012-07-21T23:01:59.0000000+00:00</time></trkpt><trkpt lat="64.0409317" lon="-19.32800674"><ele>581.2</ele><time>2012-07-21T23:02:04.0000000+00:00</time></trkpt><trkpt lat="64.04100037" lon="-19.328022"><ele>581.3</ele><time>2012-07-21T23:02:09.0000000+00:00</time></trkpt><trkpt lat="64.04099274" lon="-19.32803536"><ele>581.2</ele><time>2012-07-21T23:02:14.0000000+00:00</time></trkpt><trkpt lat="64.04100037" lon="-19.32804108"><ele>580.7</ele><time>2012-07-21T23:02:19.0000000+00:00</time></trkpt><trkpt lat="64.04099274" lon="-19.3280468"><ele>580.6</ele><time>2012-07-21T23:02:24.0000000+00:00</time></trkpt><trkpt lat="64.04102325" lon="-19.32802582"><ele>581.2</ele><time>2012-07-21T23:02:29.0000000+00:00</time></trkpt><trkpt lat="64.04106903" lon="-19.32803154"><ele>582.0</ele><time>2012-07-21T23:02:34.0000000+00:00</time></trkpt><trkpt lat="64.04112244" lon="-19.3280735"><ele>582.7</ele><time>2012-07-21T23:02:39.0000000+00:00</time></trkpt><trkpt lat="64.04117584" lon="-19.32810593"><ele>583.7</ele><time>2012-07-21T23:02:44.0000000+00:00</time></trkpt><trkpt lat="64.04122162" lon="-19.32813454"><ele>584.5</ele><time>2012-07-21T23:02:49.0000000+00:00</time></trkpt><trkpt lat="64.0412674" lon="-19.32809067"><ele>583.5</ele><time>2012-07-21T23:02:54.0000000+00:00</time></trkpt><trkpt lat="64.04128265" lon="-19.32807922"><ele>584.8</ele><time>2012-07-21T23:02:59.0000000+00:00</time></trkpt><trkpt lat="64.0412674" lon="-19.32809258"><ele>583.6</ele><time>2012-07-21T23:03:04.0000000+00:00</time></trkpt><trkpt lat="64.0412674" lon="-19.32809258"><ele>583.2</ele><time>2012-07-21T23:03:09.0000000+00:00</time></trkpt><trkpt lat="64.0412674" lon="-19.32809258"><ele>583.2</ele><time>2012-07-21T23:03:14.0000000+00:00</time></trkpt><trkpt lat="64.0412674" lon="-19.32810211"><ele>583.0</ele><time>2012-07-21T23:03:19.0000000+00:00</time></trkpt><trkpt lat="64.04127502" lon="-19.32810974"><ele>584.0</ele><time>2012-07-21T23:03:24.0000000+00:00</time></trkpt><trkpt lat="64.04127502" lon="-19.32810974"><ele>584.0</ele><time>2012-07-21T23:03:29.0000000+00:00</time></trkpt><trkpt lat="64.04127502" lon="-19.32810974"><ele>584.1</ele><time>2012-07-21T23:03:34.0000000+00:00</time></trkpt><trkpt lat="64.04127502" lon="-19.32810974"><ele>584.1</ele><time>2012-07-21T23:03:39.0000000+00:00</time></trkpt><trkpt lat="64.04127502" lon="-19.32810974"><ele>584.1</ele><time>2012-07-21T23:03:44.0000000+00:00</time></trkpt><trkpt lat="64.04127502" lon="-19.32810974"><ele>584.1</ele><time>2012-07-21T23:03:49.0000000+00:00</time></trkpt><trkpt lat="64.04127502" lon="-19.32811165"><ele>584.1</ele><time>2012-07-21T23:03:54.0000000+00:00</time></trkpt><trkpt lat="64.04127502" lon="-19.32811165"><ele>584.2</ele><time>2012-07-21T23:03:59.0000000+00:00</time></trkpt><trkpt lat="64.04127502" lon="-19.32810974"><ele>584.2</ele><time>2012-07-21T23:04:04.0000000+00:00</time></trkpt><trkpt lat="64.04127502" lon="-19.32810974"><ele>584.2</ele><time>2012-07-21T23:04:09.0000000+00:00</time></trkpt><trkpt lat="64.04127502" lon="-19.32811165"><ele>584.2</ele><time>2012-07-21T23:04:14.0000000+00:00</time></trkpt><trkpt lat="64.04127502" lon="-19.32811165"><ele>584.2</ele><time>2012-07-21T23:04:19.0000000+00:00</time></trkpt><trkpt lat="64.04127502" lon="-19.32811165"><ele>584.3</ele><time>2012-07-21T23:04:24.0000000+00:00</time></trkpt><trkpt lat="64.04127502" lon="-19.32811165"><ele>584.3</ele><time>2012-07-21T23:04:29.0000000+00:00</time></trkpt><trkpt lat="64.04127502" lon="-19.32811165"><ele>584.3</ele><time>2012-07-21T23:04:34.0000000+00:00</time></trkpt><trkpt lat="64.04127502" lon="-19.32811165"><ele>584.3</ele><time>2012-07-21T23:04:39.0000000+00:00</time></trkpt><trkpt lat="64.04127502" lon="-19.32811165"><ele>584.3</ele><time>2012-07-21T23:04:44.0000000+00:00</time></trkpt><trkpt lat="64.04127502" lon="-19.32811165"><ele>584.3</ele><time>2012-07-21T23:04:49.0000000+00:00</time></trkpt><trkpt lat="64.04127502" lon="-19.32811165"><ele>584.3</ele><time>2012-07-21T23:04:54.0000000+00:00</time></trkpt><trkpt lat="64.04127502" lon="-19.32811165"><ele>584.4</ele><time>2012-07-21T23:04:59.0000000+00:00</time></trkpt><trkpt lat="64.04127502" lon="-19.32811165"><ele>584.4</ele><time>2012-07-21T23:05:04.0000000+00:00</time></trkpt><trkpt lat="64.04127502" lon="-19.32811165"><ele>584.4</ele><time>2012-07-21T23:05:09.0000000+00:00</time></trkpt><trkpt lat="64.04127502" lon="-19.32811165"><ele>584.4</ele><time>2012-07-21T23:05:14.0000000+00:00</time></trkpt><trkpt lat="64.04127502" lon="-19.32811165"><ele>584.4</ele><time>2012-07-21T23:05:19.0000000+00:00</time></trkpt><trkpt lat="64.04127502" lon="-19.32811165"><ele>584.5</ele><time>2012-07-21T23:05:24.0000000+00:00</time></trkpt><trkpt lat="64.04127502" lon="-19.32811165"><ele>584.5</ele><time>2012-07-21T23:05:29.0000000+00:00</time></trkpt><trkpt lat="64.04127502" lon="-19.32811165"><ele>584.5</ele><time>2012-07-21T23:05:34.0000000+00:00</time></trkpt><trkpt lat="64.04127502" lon="-19.32811165"><ele>584.5</ele><time>2012-07-21T23:05:39.0000000+00:00</time></trkpt><trkpt lat="64.04127502" lon="-19.32811165"><ele>584.5</ele><time>2012-07-21T23:05:44.0000000+00:00</time></trkpt><trkpt lat="64.04127502" lon="-19.32811165"><ele>584.5</ele><time>2012-07-21T23:05:49.0000000+00:00</time></trkpt><trkpt lat="64.04127502" lon="-19.32811165"><ele>584.6</ele><time>2012-07-21T23:05:54.0000000+00:00</time></trkpt><trkpt lat="64.04127502" lon="-19.32811165"><ele>584.6</ele><time>2012-07-21T23:05:59.0000000+00:00</time></trkpt><trkpt lat="64.04127502" lon="-19.32811165"><ele>584.6</ele><time>2012-07-21T23:06:04.0000000+00:00</time></trkpt><trkpt lat="64.04127502" lon="-19.32811165"><ele>584.6</ele><time>2012-07-21T23:06:09.0000000+00:00</time></trkpt><trkpt lat="64.04127502" lon="-19.32811165"><ele>584.6</ele><time>2012-07-21T23:06:14.0000000+00:00</time></trkpt><trkpt lat="64.04127502" lon="-19.32811165"><ele>584.6</ele><time>2012-07-21T23:06:19.0000000+00:00</time></trkpt><trkpt lat="64.04127502" lon="-19.32811165"><ele>584.6</ele><time>2012-07-21T23:06:24.0000000+00:00</time></trkpt><trkpt lat="64.04127502" lon="-19.32811165"><ele>584.7</ele><time>2012-07-21T23:06:29.0000000+00:00</time></trkpt><trkpt lat="64.04127502" lon="-19.32811165"><ele>584.7</ele><time>2012-07-21T23:06:34.0000000+00:00</time></trkpt><trkpt lat="64.04127502" lon="-19.32811165"><ele>584.7</ele><time>2012-07-21T23:06:39.0000000+00:00</time></trkpt><trkpt lat="64.04127502" lon="-19.32811165"><ele>584.7</ele><time>2012-07-21T23:06:44.0000000+00:00</time></trkpt><trkpt lat="64.04127502" lon="-19.32811165"><ele>584.7</ele><time>2012-07-21T23:06:49.0000000+00:00</time></trkpt><trkpt lat="64.04127502" lon="-19.32811165"><ele>584.7</ele><time>2012-07-21T23:06:54.0000000+00:00</time></trkpt><trkpt lat="64.04127502" lon="-19.32811165"><ele>584.7</ele><time>2012-07-21T23:06:59.0000000+00:00</time></trkpt><trkpt lat="64.04127502" lon="-19.32811165"><ele>584.7</ele><time>2012-07-21T23:07:04.0000000+00:00</time></trkpt><trkpt lat="64.04127502" lon="-19.32811165"><ele>584.7</ele><time>2012-07-21T23:07:09.0000000+00:00</time></trkpt><trkpt lat="64.04127502" lon="-19.32811165"><ele>584.7</ele><time>2012-07-21T23:07:14.0000000+00:00</time></trkpt><trkpt lat="64.04127502" lon="-19.32811165"><ele>584.8</ele><time>2012-07-21T23:07:19.0000000+00:00</time></trkpt><trkpt lat="64.04127502" lon="-19.32811165"><ele>584.8</ele><time>2012-07-21T23:07:24.0000000+00:00</time></trkpt><trkpt lat="64.04127502" lon="-19.32811165"><ele>584.8</ele><time>2012-07-21T23:07:29.0000000+00:00</time></trkpt><trkpt lat="64.04127502" lon="-19.32811165"><ele>584.8</ele><time>2012-07-21T23:07:34.0000000+00:00</time></trkpt><trkpt lat="64.04127502" lon="-19.32811356"><ele>584.8</ele><time>2012-07-21T23:07:39.0000000+00:00</time></trkpt><trkpt lat="64.04127502" lon="-19.32811356"><ele>584.8</ele><time>2012-07-21T23:07:44.0000000+00:00</time></trkpt><trkpt lat="64.04127502" lon="-19.32811356"><ele>584.8</ele><time>2012-07-21T23:07:49.0000000+00:00</time></trkpt><trkpt lat="64.04127502" lon="-19.32811356"><ele>584.8</ele><time>2012-07-21T23:07:54.0000000+00:00</time></trkpt><trkpt lat="64.04127502" lon="-19.32811356"><ele>584.8</ele><time>2012-07-21T23:07:59.0000000+00:00</time></trkpt><trkpt lat="64.04127502" lon="-19.32811165"><ele>584.8</ele><time>2012-07-21T23:08:04.0000000+00:00</time></trkpt><trkpt lat="64.04127502" lon="-19.32811165"><ele>584.8</ele><time>2012-07-21T23:08:09.0000000+00:00</time></trkpt><trkpt lat="64.04127502" lon="-19.32811165"><ele>584.9</ele><time>2012-07-21T23:08:14.0000000+00:00</time></trkpt><trkpt lat="64.04127502" lon="-19.32811165"><ele>584.9</ele><time>2012-07-21T23:08:19.0000000+00:00</time></trkpt><trkpt lat="64.04127502" lon="-19.32811165"><ele>584.9</ele><time>2012-07-21T23:08:24.0000000+00:00</time></trkpt><trkpt lat="64.04127502" lon="-19.32811165"><ele>584.9</ele><time>2012-07-21T23:08:29.0000000+00:00</time></trkpt><trkpt lat="64.04127502" lon="-19.32811165"><ele>584.9</ele><time>2012-07-21T23:08:34.0000000+00:00</time></trkpt><trkpt lat="64.04127502" lon="-19.32811165"><ele>584.9</ele><time>2012-07-21T23:08:39.0000000+00:00</time></trkpt><trkpt lat="64.04127502" lon="-19.32811165"><ele>585.0</ele><time>2012-07-21T23:08:44.0000000+00:00</time></trkpt><trkpt lat="64.04127502" lon="-19.32811165"><ele>585.0</ele><time>2012-07-21T23:08:49.0000000+00:00</time></trkpt><trkpt lat="64.04127502" lon="-19.32811165"><ele>585.0</ele><time>2012-07-21T23:08:54.0000000+00:00</time></trkpt><trkpt lat="64.04127502" lon="-19.32811165"><ele>585.0</ele><time>2012-07-21T23:08:59.0000000+00:00</time></trkpt><trkpt lat="64.04127502" lon="-19.32811165"><ele>585.0</ele><time>2012-07-21T23:09:04.0000000+00:00</time></trkpt><trkpt lat="64.04127502" lon="-19.32811165"><ele>585.0</ele><time>2012-07-21T23:09:09.0000000+00:00</time></trkpt><trkpt lat="64.04127502" lon="-19.32811165"><ele>585.1</ele><time>2012-07-21T23:09:14.0000000+00:00</time></trkpt><trkpt lat="64.04127502" lon="-19.32811165"><ele>585.1</ele><time>2012-07-21T23:09:19.0000000+00:00</time></trkpt><trkpt lat="64.04127502" lon="-19.32811165"><ele>585.1</ele><time>2012-07-21T23:09:24.0000000+00:00</time></trkpt><trkpt lat="64.04127502" lon="-19.32811165"><ele>585.1</ele><time>2012-07-21T23:09:29.0000000+00:00</time></trkpt><trkpt lat="64.04127502" lon="-19.32811356"><ele>585.1</ele><time>2012-07-21T23:09:34.0000000+00:00</time></trkpt><trkpt lat="64.04127502" lon="-19.32811356"><ele>585.1</ele><time>2012-07-21T23:09:39.0000000+00:00</time></trkpt><trkpt lat="64.04127502" lon="-19.32811356"><ele>585.2</ele><time>2012-07-21T23:09:44.0000000+00:00</time></trkpt><trkpt lat="64.04127502" lon="-19.32811356"><ele>585.2</ele><time>2012-07-21T23:09:49.0000000+00:00</time></trkpt><trkpt lat="64.04127502" lon="-19.32811356"><ele>585.2</ele><time>2012-07-21T23:09:54.0000000+00:00</time></trkpt><trkpt lat="64.04127502" lon="-19.32811356"><ele>585.2</ele><time>2012-07-21T23:09:59.0000000+00:00</time></trkpt><trkpt lat="64.04127502" lon="-19.32811356"><ele>585.2</ele><time>2012-07-21T23:10:04.0000000+00:00</time></trkpt><trkpt lat="64.04127502" lon="-19.32811356"><ele>585.2</ele><time>2012-07-21T23:10:09.0000000+00:00</time></trkpt><trkpt lat="64.04127502" lon="-19.32811356"><ele>585.2</ele><time>2012-07-21T23:10:14.0000000+00:00</time></trkpt><trkpt lat="64.04127502" lon="-19.32811356"><ele>585.2</ele><time>2012-07-21T23:10:19.0000000+00:00</time></trkpt><trkpt lat="64.04127502" lon="-19.32811356"><ele>585.2</ele><time>2012-07-21T23:10:24.0000000+00:00</time></trkpt><trkpt lat="64.04127502" lon="-19.32811356"><ele>585.3</ele><time>2012-07-21T23:10:29.0000000+00:00</time></trkpt><trkpt lat="64.04127502" lon="-19.32811356"><ele>585.3</ele><time>2012-07-21T23:10:34.0000000+00:00</time></trkpt><trkpt lat="64.04127502" lon="-19.32811356"><ele>585.3</ele><time>2012-07-21T23:10:39.0000000+00:00</time></trkpt><trkpt lat="64.04127502" lon="-19.32811356"><ele>585.3</ele><time>2012-07-21T23:10:44.0000000+00:00</time></trkpt><trkpt lat="64.04127502" lon="-19.32811356"><ele>585.3</ele><time>2012-07-21T23:10:49.0000000+00:00</time></trkpt><trkpt lat="64.04127502" lon="-19.32811356"><ele>585.3</ele><time>2012-07-21T23:10:54.0000000+00:00</time></trkpt><trkpt lat="64.04127502" lon="-19.32811356"><ele>585.3</ele><time>2012-07-21T23:10:59.0000000+00:00</time></trkpt><trkpt lat="64.04127502" lon="-19.32811356"><ele>585.3</ele><time>2012-07-21T23:11:04.0000000+00:00</time></trkpt><trkpt lat="64.04127502" lon="-19.32811356"><ele>585.3</ele><time>2012-07-21T23:11:09.0000000+00:00</time></trkpt><trkpt lat="64.04127502" lon="-19.32811546"><ele>585.3</ele><time>2012-07-21T23:11:14.0000000+00:00</time></trkpt><trkpt lat="64.04127502" lon="-19.32811546"><ele>585.3</ele><time>2012-07-21T23:11:19.0000000+00:00</time></trkpt><trkpt lat="64.04127502" lon="-19.32811546"><ele>585.3</ele><time>2012-07-21T23:11:24.0000000+00:00</time></trkpt><trkpt lat="64.04127502" lon="-19.32811546"><ele>585.3</ele><time>2012-07-21T23:11:29.0000000+00:00</time></trkpt><trkpt lat="64.04127502" lon="-19.32811546"><ele>585.3</ele><time>2012-07-21T23:11:34.0000000+00:00</time></trkpt><trkpt lat="64.04127502" lon="-19.32811546"><ele>585.3</ele><time>2012-07-21T23:11:39.0000000+00:00</time></trkpt><trkpt lat="64.04127502" lon="-19.32811546"><ele>585.3</ele><time>2012-07-21T23:11:44.0000000+00:00</time></trkpt><trkpt lat="64.0412674" lon="-19.32811546"><ele>584.9</ele><time>2012-07-21T23:11:49.0000000+00:00</time></trkpt><trkpt lat="64.04127502" lon="-19.32811356"><ele>585.0</ele><time>2012-07-21T23:11:54.0000000+00:00</time></trkpt><trkpt lat="64.04127502" lon="-19.32811356"><ele>585.1</ele><time>2012-07-21T23:11:59.0000000+00:00</time></trkpt><trkpt lat="64.04127502" lon="-19.32811165"><ele>585.1</ele><time>2012-07-21T23:12:04.0000000+00:00</time></trkpt><trkpt lat="64.04127502" lon="-19.32811165"><ele>585.1</ele><time>2012-07-21T23:12:09.0000000+00:00</time></trkpt><trkpt lat="64.04127502" lon="-19.32811165"><ele>585.1</ele><time>2012-07-21T23:12:14.0000000+00:00</time></trkpt><trkpt lat="64.04127502" lon="-19.32811165"><ele>585.1</ele><time>2012-07-21T23:12:19.0000000+00:00</time></trkpt><trkpt lat="64.04127502" lon="-19.32811165"><ele>585.1</ele><time>2012-07-21T23:12:24.0000000+00:00</time></trkpt><trkpt lat="64.04127502" lon="-19.32811165"><ele>585.1</ele><time>2012-07-21T23:12:29.0000000+00:00</time></trkpt><trkpt lat="64.04127502" lon="-19.32811165"><ele>585.1</ele><time>2012-07-21T23:12:34.0000000+00:00</time></trkpt><trkpt lat="64.04127502" lon="-19.32811165"><ele>585.1</ele><time>2012-07-21T23:12:39.0000000+00:00</time></trkpt><trkpt lat="64.04127502" lon="-19.32810783"><ele>585.3</ele><time>2012-07-21T23:12:44.0000000+00:00</time></trkpt><trkpt lat="64.0412674" lon="-19.3281002"><ele>585.3</ele><time>2012-07-21T23:12:49.0000000+00:00</time></trkpt><trkpt lat="64.0412674" lon="-19.32809258"><ele>585.4</ele><time>2012-07-21T23:12:54.0000000+00:00</time></trkpt><trkpt lat="64.04125977" lon="-19.32808685"><ele>585.5</ele><time>2012-07-21T23:12:59.0000000+00:00</time></trkpt><trkpt lat="64.0412674" lon="-19.32808113"><ele>585.3</ele><time>2012-07-21T23:13:04.0000000+00:00</time></trkpt><trkpt lat="64.04125977" lon="-19.32808113"><ele>585.3</ele><time>2012-07-21T23:13:09.0000000+00:00</time></trkpt><trkpt lat="64.0412674" lon="-19.32808113"><ele>585.4</ele><time>2012-07-21T23:13:14.0000000+00:00</time></trkpt><trkpt lat="64.04125214" lon="-19.32808685"><ele>585.5</ele><time>2012-07-21T23:13:19.0000000+00:00</time></trkpt><trkpt lat="64.04125214" lon="-19.32807541"><ele>585.3</ele><time>2012-07-21T23:13:24.0000000+00:00</time></trkpt><trkpt lat="64.04125214" lon="-19.32807541"><ele>585.3</ele><time>2012-07-21T23:13:29.0000000+00:00</time></trkpt><trkpt lat="64.04125214" lon="-19.32807541"><ele>585.3</ele><time>2012-07-21T23:13:34.0000000+00:00</time></trkpt><trkpt lat="64.04125214" lon="-19.32807541"><ele>585.3</ele><time>2012-07-21T23:13:39.0000000+00:00</time></trkpt><trkpt lat="64.04127502" lon="-19.32806587"><ele>585.5</ele><time>2012-07-21T23:13:44.0000000+00:00</time></trkpt><trkpt lat="64.04128265" lon="-19.32809448"><ele>585.5</ele><time>2012-07-21T23:13:49.0000000+00:00</time></trkpt><trkpt lat="64.04129028" lon="-19.3280983"><ele>585.6</ele><time>2012-07-21T23:13:54.0000000+00:00</time></trkpt><trkpt lat="64.04129028" lon="-19.32810783"><ele>585.7</ele><time>2012-07-21T23:13:59.0000000+00:00</time></trkpt><trkpt lat="64.04129028" lon="-19.32812119"><ele>585.8</ele><time>2012-07-21T23:14:04.0000000+00:00</time></trkpt><trkpt lat="64.04129791" lon="-19.32813072"><ele>586.0</ele><time>2012-07-21T23:14:09.0000000+00:00</time></trkpt><trkpt lat="64.04129791" lon="-19.32813454"><ele>586.1</ele><time>2012-07-21T23:14:14.0000000+00:00</time></trkpt><trkpt lat="64.04129791" lon="-19.32813072"><ele>586.2</ele><time>2012-07-21T23:14:19.0000000+00:00</time></trkpt><trkpt lat="64.04129791" lon="-19.32813072"><ele>586.3</ele><time>2012-07-21T23:14:24.0000000+00:00</time></trkpt><trkpt lat="64.04129791" lon="-19.32813072"><ele>586.3</ele><time>2012-07-21T23:14:29.0000000+00:00</time></trkpt><trkpt lat="64.04129791" lon="-19.32813072"><ele>586.3</ele><time>2012-07-21T23:14:34.0000000+00:00</time></trkpt><trkpt lat="64.04129791" lon="-19.32813072"><ele>586.3</ele><time>2012-07-21T23:14:39.0000000+00:00</time></trkpt><trkpt lat="64.04129791" lon="-19.32813072"><ele>586.3</ele><time>2012-07-21T23:14:44.0000000+00:00</time></trkpt><trkpt lat="64.04129791" lon="-19.32813072"><ele>586.3</ele><time>2012-07-21T23:14:49.0000000+00:00</time></trkpt><trkpt lat="64.04129791" lon="-19.32813072"><ele>586.3</ele><time>2012-07-21T23:14:54.0000000+00:00</time></trkpt><trkpt lat="64.04129791" lon="-19.32813072"><ele>586.4</ele><time>2012-07-21T23:14:59.0000000+00:00</time></trkpt><trkpt lat="64.04129791" lon="-19.32813072"><ele>586.4</ele><time>2012-07-21T23:15:04.0000000+00:00</time></trkpt><trkpt lat="64.04129791" lon="-19.32813263"><ele>586.4</ele><time>2012-07-21T23:15:09.0000000+00:00</time></trkpt><trkpt lat="64.04129791" lon="-19.32813263"><ele>586.4</ele><time>2012-07-21T23:15:14.0000000+00:00</time></trkpt><trkpt lat="64.04129791" lon="-19.32813263"><ele>586.4</ele><time>2012-07-21T23:15:19.0000000+00:00</time></trkpt><trkpt lat="64.04132843" lon="-19.32812882"><ele>586.2</ele><time>2012-07-21T23:15:24.0000000+00:00</time></trkpt><trkpt lat="64.04135132" lon="-19.32810783"><ele>586.7</ele><time>2012-07-21T23:15:29.0000000+00:00</time></trkpt><trkpt lat="64.04135132" lon="-19.32810974"><ele>586.4</ele><time>2012-07-21T23:15:34.0000000+00:00</time></trkpt><trkpt lat="64.04135132" lon="-19.32811165"><ele>586.2</ele><time>2012-07-21T23:15:39.0000000+00:00</time></trkpt><trkpt lat="64.04135895" lon="-19.32810211"><ele>586.2</ele><time>2012-07-21T23:15:44.0000000+00:00</time></trkpt><trkpt lat="64.04137421" lon="-19.32802391"><ele>587.0</ele><time>2012-07-21T23:15:49.0000000+00:00</time></trkpt><trkpt lat="64.0413971" lon="-19.32789803"><ele>587.7</ele><time>2012-07-21T23:15:54.0000000+00:00</time></trkpt><trkpt lat="64.04143524" lon="-19.32778931"><ele>587.8</ele><time>2012-07-21T23:15:59.0000000+00:00</time></trkpt><trkpt lat="64.04144287" lon="-19.32778931"><ele>587.6</ele><time>2012-07-21T23:16:04.0000000+00:00</time></trkpt><trkpt lat="64.04144287" lon="-19.32779121"><ele>587.6</ele><time>2012-07-21T23:16:09.0000000+00:00</time></trkpt><trkpt lat="64.04144287" lon="-19.32779121"><ele>587.6</ele><time>2012-07-21T23:16:14.0000000+00:00</time></trkpt><trkpt lat="64.04144287" lon="-19.32779121"><ele>587.6</ele><time>2012-07-21T23:16:19.0000000+00:00</time></trkpt><trkpt lat="64.04144287" lon="-19.32779121"><ele>587.6</ele><time>2012-07-21T23:16:24.0000000+00:00</time></trkpt><trkpt lat="64.04144287" lon="-19.32779121"><ele>587.6</ele><time>2012-07-21T23:16:29.0000000+00:00</time></trkpt><trkpt lat="64.04144287" lon="-19.32779121"><ele>587.6</ele><time>2012-07-21T23:16:34.0000000+00:00</time></trkpt><trkpt lat="64.04144287" lon="-19.32779121"><ele>587.6</ele><time>2012-07-21T23:16:39.0000000+00:00</time></trkpt><trkpt lat="64.04144287" lon="-19.32779121"><ele>587.6</ele><time>2012-07-21T23:16:44.0000000+00:00</time></trkpt><trkpt lat="64.04144287" lon="-19.32779121"><ele>587.6</ele><time>2012-07-21T23:16:49.0000000+00:00</time></trkpt><trkpt lat="64.04145813" lon="-19.32772636"><ele>587.2</ele><time>2012-07-21T23:16:54.0000000+00:00</time></trkpt><trkpt lat="64.04152679" lon="-19.32756996"><ele>586.6</ele><time>2012-07-21T23:16:59.0000000+00:00</time></trkpt><trkpt lat="64.04161072" lon="-19.32733536"><ele>587.0</ele><time>2012-07-21T23:17:04.0000000+00:00</time></trkpt><trkpt lat="64.04169464" lon="-19.32712555"><ele>587.5</ele><time>2012-07-21T23:17:09.0000000+00:00</time></trkpt><trkpt lat="64.04177856" lon="-19.32689667"><ele>588.1</ele><time>2012-07-21T23:17:14.0000000+00:00</time></trkpt><trkpt lat="64.04183197" lon="-19.3267498"><ele>588.9</ele><time>2012-07-21T23:17:19.0000000+00:00</time></trkpt><trkpt lat="64.04189301" lon="-19.32658196"><ele>589.9</ele><time>2012-07-21T23:17:24.0000000+00:00</time></trkpt><trkpt lat="64.04195404" lon="-19.32637787"><ele>590.4</ele><time>2012-07-21T23:17:29.0000000+00:00</time></trkpt><trkpt lat="64.04199982" lon="-19.32623863"><ele>590.8</ele><time>2012-07-21T23:17:34.0000000+00:00</time></trkpt><trkpt lat="64.04205322" lon="-19.32604981"><ele>590.9</ele><time>2012-07-21T23:17:39.0000000+00:00</time></trkpt><trkpt lat="64.04209137" lon="-19.3258915"><ele>591.5</ele><time>2012-07-21T23:17:44.0000000+00:00</time></trkpt><trkpt lat="64.04212952" lon="-19.32570458"><ele>592.0</ele><time>2012-07-21T23:17:49.0000000+00:00</time></trkpt><trkpt lat="64.04216766" lon="-19.32549477"><ele>592.6</ele><time>2012-07-21T23:17:54.0000000+00:00</time></trkpt><trkpt lat="64.04221344" lon="-19.32526588"><ele>592.8</ele><time>2012-07-21T23:17:59.0000000+00:00</time></trkpt><trkpt lat="64.04224396" lon="-19.32501793"><ele>593.0</ele><time>2012-07-21T23:18:04.0000000+00:00</time></trkpt><trkpt lat="64.0422821" lon="-19.32477951"><ele>592.1</ele><time>2012-07-21T23:18:09.0000000+00:00</time></trkpt><trkpt lat="64.04231262" lon="-19.32456207"><ele>591.6</ele><time>2012-07-21T23:18:14.0000000+00:00</time></trkpt><trkpt lat="64.04233551" lon="-19.3243351"><ele>591.8</ele><time>2012-07-21T23:18:19.0000000+00:00</time></trkpt><trkpt lat="64.04235077" lon="-19.32411194"><ele>592.8</ele><time>2012-07-21T23:18:24.0000000+00:00</time></trkpt><trkpt lat="64.04238129" lon="-19.3239193"><ele>591.9</ele><time>2012-07-21T23:18:29.0000000+00:00</time></trkpt><trkpt lat="64.04239655" lon="-19.3237133"><ele>591.9</ele><time>2012-07-21T23:18:34.0000000+00:00</time></trkpt><trkpt lat="64.04243469" lon="-19.32350922"><ele>591.2</ele><time>2012-07-21T23:18:39.0000000+00:00</time></trkpt><trkpt lat="64.04244995" lon="-19.32326698"><ele>591.4</ele><time>2012-07-21T23:18:44.0000000+00:00</time></trkpt><trkpt lat="64.04246521" lon="-19.32303238"><ele>590.4</ele><time>2012-07-21T23:18:49.0000000+00:00</time></trkpt><trkpt lat="64.04247284" lon="-19.32279205"><ele>590.6</ele><time>2012-07-21T23:18:54.0000000+00:00</time></trkpt><trkpt lat="64.04245758" lon="-19.32255936"><ele>590.6</ele><time>2012-07-21T23:18:59.0000000+00:00</time></trkpt><trkpt lat="64.04246521" lon="-19.32236099"><ele>589.1</ele><time>2012-07-21T23:19:04.0000000+00:00</time></trkpt><trkpt lat="64.04244995" lon="-19.3222065"><ele>590.4</ele><time>2012-07-21T23:19:09.0000000+00:00</time></trkpt><trkpt lat="64.04244232" lon="-19.32204247"><ele>591.0</ele><time>2012-07-21T23:19:14.0000000+00:00</time></trkpt><trkpt lat="64.04243469" lon="-19.32180023"><ele>591.2</ele><time>2012-07-21T23:19:19.0000000+00:00</time></trkpt><trkpt lat="64.0424118" lon="-19.3215332"><ele>591.0</ele><time>2012-07-21T23:19:24.0000000+00:00</time></trkpt><trkpt lat="64.04239655" lon="-19.3212719"><ele>591.3</ele><time>2012-07-21T23:19:29.0000000+00:00</time></trkpt><trkpt lat="64.04239655" lon="-19.32107544"><ele>590.4</ele><time>2012-07-21T23:19:34.0000000+00:00</time></trkpt><trkpt lat="64.04235077" lon="-19.32087517"><ele>590.0</ele><time>2012-07-21T23:19:39.0000000+00:00</time></trkpt><trkpt lat="64.0422821" lon="-19.32068825"><ele>593.2</ele><time>2012-07-21T23:19:44.0000000+00:00</time></trkpt><trkpt lat="64.04224396" lon="-19.32048035"><ele>593.4</ele><time>2012-07-21T23:19:49.0000000+00:00</time></trkpt><trkpt lat="64.04221344" lon="-19.32023621"><ele>594.0</ele><time>2012-07-21T23:19:54.0000000+00:00</time></trkpt><trkpt lat="64.04217529" lon="-19.32004166"><ele>594.8</ele><time>2012-07-21T23:19:59.0000000+00:00</time></trkpt><trkpt lat="64.04210663" lon="-19.31983566"><ele>595.9</ele><time>2012-07-21T23:20:04.0000000+00:00</time></trkpt><trkpt lat="64.04208374" lon="-19.31963158"><ele>596.9</ele><time>2012-07-21T23:20:09.0000000+00:00</time></trkpt><trkpt lat="64.04204559" lon="-19.31940842"><ele>593.4</ele><time>2012-07-21T23:20:14.0000000+00:00</time></trkpt><trkpt lat="64.04206085" lon="-19.31920242"><ele>589.8</ele><time>2012-07-21T23:20:19.0000000+00:00</time></trkpt><trkpt lat="64.04202271" lon="-19.31905174"><ele>587.3</ele><time>2012-07-21T23:20:24.0000000+00:00</time></trkpt><trkpt lat="64.04202271" lon="-19.31888962"><ele>585.1</ele><time>2012-07-21T23:20:29.0000000+00:00</time></trkpt><trkpt lat="64.04198456" lon="-19.3187809"><ele>585.9</ele><time>2012-07-21T23:20:34.0000000+00:00</time></trkpt><trkpt lat="64.04195404" lon="-19.31865692"><ele>588.6</ele><time>2012-07-21T23:20:39.0000000+00:00</time></trkpt><trkpt lat="64.04196167" lon="-19.31847382"><ele>588.6</ele><time>2012-07-21T23:20:44.0000000+00:00</time></trkpt><trkpt lat="64.04196167" lon="-19.31825638"><ele>587.3</ele><time>2012-07-21T23:20:49.0000000+00:00</time></trkpt><trkpt lat="64.04196167" lon="-19.31803131"><ele>586.7</ele><time>2012-07-21T23:20:54.0000000+00:00</time></trkpt><trkpt lat="64.04193115" lon="-19.31780434"><ele>586.1</ele><time>2012-07-21T23:20:59.0000000+00:00</time></trkpt><trkpt lat="64.04190826" lon="-19.31757546"><ele>584.7</ele><time>2012-07-21T23:21:04.0000000+00:00</time></trkpt><trkpt lat="64.04194641" lon="-19.31731033"><ele>583.6</ele><time>2012-07-21T23:21:09.0000000+00:00</time></trkpt><trkpt lat="64.04194641" lon="-19.31712341"><ele>584.1</ele><time>2012-07-21T23:21:14.0000000+00:00</time></trkpt><trkpt lat="64.04193115" lon="-19.31697273"><ele>585.9</ele><time>2012-07-21T23:21:19.0000000+00:00</time></trkpt><trkpt lat="64.04190826" lon="-19.31679916"><ele>589.5</ele><time>2012-07-21T23:21:24.0000000+00:00</time></trkpt><trkpt lat="64.04186249" lon="-19.31657982"><ele>593.0</ele><time>2012-07-21T23:21:29.0000000+00:00</time></trkpt><trkpt lat="64.04182434" lon="-19.31634712"><ele>594.6</ele><time>2012-07-21T23:21:34.0000000+00:00</time></trkpt><trkpt lat="64.04178619" lon="-19.31620979"><ele>598.7</ele><time>2012-07-21T23:21:39.0000000+00:00</time></trkpt><trkpt lat="64.04178619" lon="-19.31608009"><ele>599.9</ele><time>2012-07-21T23:21:44.0000000+00:00</time></trkpt><trkpt lat="64.04178619" lon="-19.31592369"><ele>601.1</ele><time>2012-07-21T23:21:49.0000000+00:00</time></trkpt><trkpt lat="64.04180145" lon="-19.31574822"><ele>600.9</ele><time>2012-07-21T23:21:54.0000000+00:00</time></trkpt><trkpt lat="64.04180145" lon="-19.31552696"><ele>600.3</ele><time>2012-07-21T23:21:59.0000000+00:00</time></trkpt><trkpt lat="64.04180908" lon="-19.31535149"><ele>600.1</ele><time>2012-07-21T23:22:04.0000000+00:00</time></trkpt><trkpt lat="64.04180908" lon="-19.31514549"><ele>598.7</ele><time>2012-07-21T23:22:09.0000000+00:00</time></trkpt><trkpt lat="64.04180908" lon="-19.31497574"><ele>598.8</ele><time>2012-07-21T23:22:14.0000000+00:00</time></trkpt><trkpt lat="64.04184723" lon="-19.31484795"><ele>593.5</ele><time>2012-07-21T23:22:19.0000000+00:00</time></trkpt><trkpt lat="64.04183197" lon="-19.31467056"><ele>592.7</ele><time>2012-07-21T23:22:24.0000000+00:00</time></trkpt><trkpt lat="64.04182434" lon="-19.31452942"><ele>592.2</ele><time>2012-07-21T23:22:29.0000000+00:00</time></trkpt><trkpt lat="64.04181671" lon="-19.31436729"><ele>590.6</ele><time>2012-07-21T23:22:34.0000000+00:00</time></trkpt><trkpt lat="64.04182434" lon="-19.31418991"><ele>589.5</ele><time>2012-07-21T23:22:39.0000000+00:00</time></trkpt><trkpt lat="64.04184723" lon="-19.31400299"><ele>588.4</ele><time>2012-07-21T23:22:44.0000000+00:00</time></trkpt><trkpt lat="64.04187012" lon="-19.31391907"><ele>589.3</ele><time>2012-07-21T23:22:49.0000000+00:00</time></trkpt><trkpt lat="64.04187012" lon="-19.31373787"><ele>588.5</ele><time>2012-07-21T23:22:54.0000000+00:00</time></trkpt><trkpt lat="64.04189301" lon="-19.31355858"><ele>588.4</ele><time>2012-07-21T23:22:59.0000000+00:00</time></trkpt><trkpt lat="64.04188538" lon="-19.31344032"><ele>588.6</ele><time>2012-07-21T23:23:04.0000000+00:00</time></trkpt><trkpt lat="64.04188538" lon="-19.31332016"><ele>591.3</ele><time>2012-07-21T23:23:09.0000000+00:00</time></trkpt><trkpt lat="64.04188538" lon="-19.31315422"><ele>592.3</ele><time>2012-07-21T23:23:14.0000000+00:00</time></trkpt><trkpt lat="64.04190826" lon="-19.31297875"><ele>589.7</ele><time>2012-07-21T23:23:19.0000000+00:00</time></trkpt><trkpt lat="64.04188538" lon="-19.31279564"><ele>587.7</ele><time>2012-07-21T23:23:24.0000000+00:00</time></trkpt><trkpt lat="64.04188538" lon="-19.31257439"><ele>586.4</ele><time>2012-07-21T23:23:29.0000000+00:00</time></trkpt><trkpt lat="64.04188538" lon="-19.31233597"><ele>585.7</ele><time>2012-07-21T23:23:34.0000000+00:00</time></trkpt><trkpt lat="64.04187012" lon="-19.31217957"><ele>586.1</ele><time>2012-07-21T23:23:39.0000000+00:00</time></trkpt><trkpt lat="64.04186249" lon="-19.31194496"><ele>585.3</ele><time>2012-07-21T23:23:44.0000000+00:00</time></trkpt><trkpt lat="64.04185486" lon="-19.31179428"><ele>587.5</ele><time>2012-07-21T23:23:49.0000000+00:00</time></trkpt><trkpt lat="64.04184723" lon="-19.31161118"><ele>586.9</ele><time>2012-07-21T23:23:54.0000000+00:00</time></trkpt><trkpt lat="64.04186249" lon="-19.31140328"><ele>587.4</ele><time>2012-07-21T23:23:59.0000000+00:00</time></trkpt><trkpt lat="64.04187012" lon="-19.31123924"><ele>588.3</ele><time>2012-07-21T23:24:04.0000000+00:00</time></trkpt><trkpt lat="64.04189301" lon="-19.31104279"><ele>588.8</ele><time>2012-07-21T23:24:09.0000000+00:00</time></trkpt><trkpt lat="64.04189301" lon="-19.31091499"><ele>588.8</ele><time>2012-07-21T23:24:14.0000000+00:00</time></trkpt><trkpt lat="64.04190064" lon="-19.31069183"><ele>589.2</ele><time>2012-07-21T23:24:19.0000000+00:00</time></trkpt><trkpt lat="64.04190064" lon="-19.31051445"><ele>588.0</ele><time>2012-07-21T23:24:24.0000000+00:00</time></trkpt><trkpt lat="64.04189301" lon="-19.31029892"><ele>587.8</ele><time>2012-07-21T23:24:29.0000000+00:00</time></trkpt><trkpt lat="64.04190064" lon="-19.31009865"><ele>588.8</ele><time>2012-07-21T23:24:34.0000000+00:00</time></trkpt><trkpt lat="64.04190826" lon="-19.31006622"><ele>588.8</ele><time>2012-07-21T23:24:39.0000000+00:00</time></trkpt><trkpt lat="64.04190826" lon="-19.31005096"><ele>588.9</ele><time>2012-07-21T23:24:44.0000000+00:00</time></trkpt><trkpt lat="64.04190826" lon="-19.31004524"><ele>588.9</ele><time>2012-07-21T23:24:49.0000000+00:00</time></trkpt><trkpt lat="64.04190826" lon="-19.31004334"><ele>588.9</ele><time>2012-07-21T23:24:54.0000000+00:00</time></trkpt><trkpt lat="64.04190826" lon="-19.31004524"><ele>589.0</ele><time>2012-07-21T23:24:59.0000000+00:00</time></trkpt><trkpt lat="64.04190826" lon="-19.31004715"><ele>588.9</ele><time>2012-07-21T23:25:04.0000000+00:00</time></trkpt><trkpt lat="64.04190064" lon="-19.31004715"><ele>589.0</ele><time>2012-07-21T23:25:09.0000000+00:00</time></trkpt><trkpt lat="64.04190826" lon="-19.30998421"><ele>588.5</ele><time>2012-07-21T23:25:14.0000000+00:00</time></trkpt><trkpt lat="64.04192352" lon="-19.30985069"><ele>589.1</ele><time>2012-07-21T23:25:19.0000000+00:00</time></trkpt><trkpt lat="64.04194641" lon="-19.30970001"><ele>588.7</ele><time>2012-07-21T23:25:24.0000000+00:00</time></trkpt><trkpt lat="64.04193878" lon="-19.30962181"><ele>589.0</ele><time>2012-07-21T23:25:29.0000000+00:00</time></trkpt><trkpt lat="64.04197693" lon="-19.30945969"><ele>589.7</ele><time>2012-07-21T23:25:34.0000000+00:00</time></trkpt><trkpt lat="64.04199982" lon="-19.30929947"><ele>590.6</ele><time>2012-07-21T23:25:39.0000000+00:00</time></trkpt><trkpt lat="64.04200745" lon="-19.30919647"><ele>591.8</ele><time>2012-07-21T23:25:44.0000000+00:00</time></trkpt><trkpt lat="64.04203033" lon="-19.30911636"><ele>593.2</ele><time>2012-07-21T23:25:49.0000000+00:00</time></trkpt><trkpt lat="64.04206085" lon="-19.30895615"><ele>592.8</ele><time>2012-07-21T23:25:54.0000000+00:00</time></trkpt><trkpt lat="64.04209137" lon="-19.30883217"><ele>591.9</ele><time>2012-07-21T23:25:59.0000000+00:00</time></trkpt><trkpt lat="64.04212189" lon="-19.3086834"><ele>591.9</ele><time>2012-07-21T23:26:04.0000000+00:00</time></trkpt><trkpt lat="64.04216003" lon="-19.30850411"><ele>591.3</ele><time>2012-07-21T23:26:09.0000000+00:00</time></trkpt><trkpt lat="64.04219818" lon="-19.30833244"><ele>591.4</ele><time>2012-07-21T23:26:14.0000000+00:00</time></trkpt><trkpt lat="64.04224396" lon="-19.30816269"><ele>590.8</ele><time>2012-07-21T23:26:19.0000000+00:00</time></trkpt><trkpt lat="64.04227448" lon="-19.30797577"><ele>590.7</ele><time>2012-07-21T23:26:24.0000000+00:00</time></trkpt><trkpt lat="64.04231262" lon="-19.30775261"><ele>590.3</ele><time>2012-07-21T23:26:29.0000000+00:00</time></trkpt><trkpt lat="64.04236603" lon="-19.30750847"><ele>587.6</ele><time>2012-07-21T23:26:34.0000000+00:00</time></trkpt><trkpt lat="64.04238892" lon="-19.30727768"><ele>588.8</ele><time>2012-07-21T23:26:39.0000000+00:00</time></trkpt><trkpt lat="64.0424118" lon="-19.30705452"><ele>587.7</ele><time>2012-07-21T23:26:44.0000000+00:00</time></trkpt><trkpt lat="64.04245758" lon="-19.30684853"><ele>589.0</ele><time>2012-07-21T23:26:49.0000000+00:00</time></trkpt><trkpt lat="64.04249573" lon="-19.30667496"><ele>589.7</ele><time>2012-07-21T23:26:54.0000000+00:00</time></trkpt><trkpt lat="64.04254913" lon="-19.30649757"><ele>589.5</ele><time>2012-07-21T23:26:59.0000000+00:00</time></trkpt><trkpt lat="64.04259491" lon="-19.30633926"><ele>590.2</ele><time>2012-07-21T23:27:04.0000000+00:00</time></trkpt><trkpt lat="64.04264832" lon="-19.30617142"><ele>591.0</ele><time>2012-07-21T23:27:09.0000000+00:00</time></trkpt><trkpt lat="64.04269409" lon="-19.3060112"><ele>591.1</ele><time>2012-07-21T23:27:14.0000000+00:00</time></trkpt><trkpt lat="64.04273987" lon="-19.30583763"><ele>591.6</ele><time>2012-07-21T23:27:19.0000000+00:00</time></trkpt><trkpt lat="64.04278565" lon="-19.30566788"><ele>591.3</ele><time>2012-07-21T23:27:24.0000000+00:00</time></trkpt><trkpt lat="64.04280853" lon="-19.30549431"><ele>590.7</ele><time>2012-07-21T23:27:29.0000000+00:00</time></trkpt><trkpt lat="64.04284668" lon="-19.30527687"><ele>590.8</ele><time>2012-07-21T23:27:34.0000000+00:00</time></trkpt><trkpt lat="64.04290009" lon="-19.30506325"><ele>590.2</ele><time>2012-07-21T23:27:39.0000000+00:00</time></trkpt><trkpt lat="64.04298401" lon="-19.30483246"><ele>590.4</ele><time>2012-07-21T23:27:44.0000000+00:00</time></trkpt><trkpt lat="64.04305267" lon="-19.30464172"><ele>590.0</ele><time>2012-07-21T23:27:49.0000000+00:00</time></trkpt><trkpt lat="64.04312897" lon="-19.30442619"><ele>589.5</ele><time>2012-07-21T23:27:54.0000000+00:00</time></trkpt><trkpt lat="64.04319763" lon="-19.30423737"><ele>588.9</ele><time>2012-07-21T23:27:59.0000000+00:00</time></trkpt><trkpt lat="64.04327393" lon="-19.30402565"><ele>588.5</ele><time>2012-07-21T23:28:04.0000000+00:00</time></trkpt><trkpt lat="64.043396" lon="-19.30380058"><ele>588.0</ele><time>2012-07-21T23:28:09.0000000+00:00</time></trkpt><trkpt lat="64.04347992" lon="-19.3035965"><ele>589.8</ele><time>2012-07-21T23:28:14.0000000+00:00</time></trkpt><trkpt lat="64.04355621" lon="-19.30340767"><ele>590.6</ele><time>2012-07-21T23:28:19.0000000+00:00</time></trkpt><trkpt lat="64.04364014" lon="-19.3031826"><ele>592.3</ele><time>2012-07-21T23:28:24.0000000+00:00</time></trkpt><trkpt lat="64.04371643" lon="-19.30298996"><ele>592.6</ele><time>2012-07-21T23:28:29.0000000+00:00</time></trkpt><trkpt lat="64.04379273" lon="-19.30280113"><ele>590.0</ele><time>2012-07-21T23:28:34.0000000+00:00</time></trkpt><trkpt lat="64.04387665" lon="-19.30260658"><ele>589.8</ele><time>2012-07-21T23:28:39.0000000+00:00</time></trkpt><trkpt lat="64.04397583" lon="-19.30240822"><ele>591.0</ele><time>2012-07-21T23:28:44.0000000+00:00</time></trkpt><trkpt lat="64.04408264" lon="-19.30223656"><ele>590.5</ele><time>2012-07-21T23:28:49.0000000+00:00</time></trkpt><trkpt lat="64.04418945" lon="-19.30207253"><ele>590.4</ele><time>2012-07-21T23:28:54.0000000+00:00</time></trkpt><trkpt lat="64.04429627" lon="-19.30193901"><ele>589.0</ele><time>2012-07-21T23:28:59.0000000+00:00</time></trkpt><trkpt lat="64.04441071" lon="-19.30178642"><ele>588.3</ele><time>2012-07-21T23:29:04.0000000+00:00</time></trkpt><trkpt lat="64.04454041" lon="-19.30162621"><ele>588.6</ele><time>2012-07-21T23:29:09.0000000+00:00</time></trkpt><trkpt lat="64.04466248" lon="-19.30145073"><ele>588.1</ele><time>2012-07-21T23:29:14.0000000+00:00</time></trkpt><trkpt lat="64.04479218" lon="-19.30127907"><ele>586.1</ele><time>2012-07-21T23:29:19.0000000+00:00</time></trkpt><trkpt lat="64.04492188" lon="-19.30107689"><ele>586.5</ele><time>2012-07-21T23:29:24.0000000+00:00</time></trkpt><trkpt lat="64.0450592" lon="-19.30091858"><ele>587.8</ele><time>2012-07-21T23:29:29.0000000+00:00</time></trkpt><trkpt lat="64.04522705" lon="-19.30077553"><ele>588.1</ele><time>2012-07-21T23:29:34.0000000+00:00</time></trkpt><trkpt lat="64.04540253" lon="-19.30060005"><ele>588.9</ele><time>2012-07-21T23:29:39.0000000+00:00</time></trkpt><trkpt lat="64.04554749" lon="-19.30041695"><ele>588.3</ele><time>2012-07-21T23:29:44.0000000+00:00</time></trkpt><trkpt lat="64.04569244" lon="-19.30022049"><ele>587.3</ele><time>2012-07-21T23:29:49.0000000+00:00</time></trkpt><trkpt lat="64.04584503" lon="-19.30003166"><ele>587.7</ele><time>2012-07-21T23:29:54.0000000+00:00</time></trkpt><trkpt lat="64.04598999" lon="-19.29985809"><ele>588.4</ele><time>2012-07-21T23:29:59.0000000+00:00</time></trkpt><trkpt lat="64.04614258" lon="-19.29970169"><ele>589.1</ele><time>2012-07-21T23:30:04.0000000+00:00</time></trkpt><trkpt lat="64.04629517" lon="-19.29961205"><ele>590.8</ele><time>2012-07-21T23:30:09.0000000+00:00</time></trkpt><trkpt lat="64.04644775" lon="-19.29954529"><ele>590.7</ele><time>2012-07-21T23:30:14.0000000+00:00</time></trkpt><trkpt lat="64.0466156" lon="-19.29950333"><ele>591.9</ele><time>2012-07-21T23:30:19.0000000+00:00</time></trkpt><trkpt lat="64.04680634" lon="-19.29946518"><ele>592.4</ele><time>2012-07-21T23:30:24.0000000+00:00</time></trkpt><trkpt lat="64.04698181" lon="-19.29937172"><ele>594.4</ele><time>2012-07-21T23:30:29.0000000+00:00</time></trkpt><trkpt lat="64.0471344" lon="-19.29916382"><ele>596.3</ele><time>2012-07-21T23:30:34.0000000+00:00</time></trkpt><trkpt lat="64.04728699" lon="-19.29893494"><ele>595.6</ele><time>2012-07-21T23:30:39.0000000+00:00</time></trkpt><trkpt lat="64.04743958" lon="-19.29863358"><ele>592.3</ele><time>2012-07-21T23:30:44.0000000+00:00</time></trkpt><trkpt lat="64.04756928" lon="-19.29826355"><ele>590.0</ele><time>2012-07-21T23:30:49.0000000+00:00</time></trkpt><trkpt lat="64.04767609" lon="-19.29791069"><ele>587.6</ele><time>2012-07-21T23:30:54.0000000+00:00</time></trkpt><trkpt lat="64.04776764" lon="-19.2975769"><ele>587.3</ele><time>2012-07-21T23:30:59.0000000+00:00</time></trkpt><trkpt lat="64.04785156" lon="-19.29729843"><ele>586.8</ele><time>2012-07-21T23:31:04.0000000+00:00</time></trkpt><trkpt lat="64.04792786" lon="-19.2970314"><ele>586.7</ele><time>2012-07-21T23:31:09.0000000+00:00</time></trkpt><trkpt lat="64.04799652" lon="-19.29679298"><ele>586.4</ele><time>2012-07-21T23:31:14.0000000+00:00</time></trkpt><trkpt lat="64.04804993" lon="-19.29663086"><ele>586.7</ele><time>2012-07-21T23:31:19.0000000+00:00</time></trkpt><trkpt lat="64.04808807" lon="-19.2964325"><ele>588.0</ele><time>2012-07-21T23:31:24.0000000+00:00</time></trkpt><trkpt lat="64.04813385" lon="-19.29628754"><ele>587.7</ele><time>2012-07-21T23:31:29.0000000+00:00</time></trkpt><trkpt lat="64.04817963" lon="-19.29608345"><ele>588.7</ele><time>2012-07-21T23:31:34.0000000+00:00</time></trkpt><trkpt lat="64.04821777" lon="-19.29589081"><ele>589.2</ele><time>2012-07-21T23:31:39.0000000+00:00</time></trkpt><trkpt lat="64.04826355" lon="-19.29571533"><ele>589.3</ele><time>2012-07-21T23:31:44.0000000+00:00</time></trkpt><trkpt lat="64.04830933" lon="-19.29554558"><ele>588.7</ele><time>2012-07-21T23:31:49.0000000+00:00</time></trkpt><trkpt lat="64.0483551" lon="-19.29537582"><ele>590.2</ele><time>2012-07-21T23:31:54.0000000+00:00</time></trkpt><trkpt lat="64.04840088" lon="-19.2952137"><ele>590.7</ele><time>2012-07-21T23:31:59.0000000+00:00</time></trkpt><trkpt lat="64.04844666" lon="-19.29499626"><ele>592.2</ele><time>2012-07-21T23:32:04.0000000+00:00</time></trkpt><trkpt lat="64.04850006" lon="-19.29483223"><ele>591.6</ele><time>2012-07-21T23:32:09.0000000+00:00</time></trkpt><trkpt lat="64.04854584" lon="-19.29462624"><ele>591.4</ele><time>2012-07-21T23:32:14.0000000+00:00</time></trkpt><trkpt lat="64.04860687" lon="-19.29440117"><ele>592.1</ele><time>2012-07-21T23:32:19.0000000+00:00</time></trkpt><trkpt lat="64.04866028" lon="-19.29419136"><ele>593.4</ele><time>2012-07-21T23:32:24.0000000+00:00</time></trkpt><trkpt lat="64.04873657" lon="-19.293993"><ele>593.3</ele><time>2012-07-21T23:32:29.0000000+00:00</time></trkpt><trkpt lat="64.04882813" lon="-19.29377365"><ele>593.9</ele><time>2012-07-21T23:32:34.0000000+00:00</time></trkpt><trkpt lat="64.04891968" lon="-19.2935791"><ele>594.3</ele><time>2012-07-21T23:32:39.0000000+00:00</time></trkpt><trkpt lat="64.0490036" lon="-19.29333496"><ele>594.6</ele><time>2012-07-21T23:32:44.0000000+00:00</time></trkpt><trkpt lat="64.04909515" lon="-19.29311943"><ele>594.4</ele><time>2012-07-21T23:32:49.0000000+00:00</time></trkpt><trkpt lat="64.04919434" lon="-19.29288292"><ele>594.9</ele><time>2012-07-21T23:32:54.0000000+00:00</time></trkpt><trkpt lat="64.04929352" lon="-19.29263687"><ele>594.6</ele><time>2012-07-21T23:32:59.0000000+00:00</time></trkpt><trkpt lat="64.04941559" lon="-19.29238319"><ele>594.5</ele><time>2012-07-21T23:33:04.0000000+00:00</time></trkpt><trkpt lat="64.04953003" lon="-19.2921257"><ele>594.8</ele><time>2012-07-21T23:33:09.0000000+00:00</time></trkpt><trkpt lat="64.04963684" lon="-19.29189873"><ele>595.2</ele><time>2012-07-21T23:33:14.0000000+00:00</time></trkpt><trkpt lat="64.04973602" lon="-19.29167938"><ele>595.2</ele><time>2012-07-21T23:33:19.0000000+00:00</time></trkpt><trkpt lat="64.04984283" lon="-19.29145241"><ele>595.8</ele><time>2012-07-21T23:33:24.0000000+00:00</time></trkpt><trkpt lat="64.04995728" lon="-19.29124832"><ele>595.3</ele><time>2012-07-21T23:33:29.0000000+00:00</time></trkpt><trkpt lat="64.05006409" lon="-19.29104042"><ele>594.8</ele><time>2012-07-21T23:33:34.0000000+00:00</time></trkpt><trkpt lat="64.0501709" lon="-19.29082871"><ele>596.1</ele><time>2012-07-21T23:33:39.0000000+00:00</time></trkpt><trkpt lat="64.05028534" lon="-19.29061508"><ele>596.2</ele><time>2012-07-21T23:33:44.0000000+00:00</time></trkpt><trkpt lat="64.05037689" lon="-19.29041863"><ele>595.7</ele><time>2012-07-21T23:33:49.0000000+00:00</time></trkpt><trkpt lat="64.05049133" lon="-19.29014587"><ele>594.7</ele><time>2012-07-21T23:33:54.0000000+00:00</time></trkpt><trkpt lat="64.0506134" lon="-19.28984451"><ele>593.9</ele><time>2012-07-21T23:33:59.0000000+00:00</time></trkpt><trkpt lat="64.05072784" lon="-19.28950882"><ele>593.1</ele><time>2012-07-21T23:34:04.0000000+00:00</time></trkpt><trkpt lat="64.05084229" lon="-19.28917503"><ele>592.4</ele><time>2012-07-21T23:34:09.0000000+00:00</time></trkpt><trkpt lat="64.0509491" lon="-19.28886986"><ele>592.0</ele><time>2012-07-21T23:34:14.0000000+00:00</time></trkpt><trkpt lat="64.05104828" lon="-19.28861427"><ele>591.3</ele><time>2012-07-21T23:34:19.0000000+00:00</time></trkpt><trkpt lat="64.05114746" lon="-19.28834343"><ele>590.9</ele><time>2012-07-21T23:34:24.0000000+00:00</time></trkpt><trkpt lat="64.05124664" lon="-19.28806686"><ele>591.4</ele><time>2012-07-21T23:34:29.0000000+00:00</time></trkpt><trkpt lat="64.0513382" lon="-19.28779793"><ele>591.3</ele><time>2012-07-21T23:34:34.0000000+00:00</time></trkpt><trkpt lat="64.05142975" lon="-19.28757668"><ele>591.3</ele><time>2012-07-21T23:34:39.0000000+00:00</time></trkpt><trkpt lat="64.05148315" lon="-19.28739166"><ele>591.7</ele><time>2012-07-21T23:34:44.0000000+00:00</time></trkpt><trkpt lat="64.05155182" lon="-19.28718376"><ele>591.8</ele><time>2012-07-21T23:34:49.0000000+00:00</time></trkpt><trkpt lat="64.05163574" lon="-19.28700829"><ele>591.9</ele><time>2012-07-21T23:34:54.0000000+00:00</time></trkpt><trkpt lat="64.05171967" lon="-19.28682327"><ele>592.7</ele><time>2012-07-21T23:34:59.0000000+00:00</time></trkpt><trkpt lat="64.0517807" lon="-19.28661919"><ele>593.0</ele><time>2012-07-21T23:35:04.0000000+00:00</time></trkpt><trkpt lat="64.05184937" lon="-19.28643417"><ele>593.4</ele><time>2012-07-21T23:35:09.0000000+00:00</time></trkpt><trkpt lat="64.05190277" lon="-19.2862854"><ele>593.1</ele><time>2012-07-21T23:35:14.0000000+00:00</time></trkpt><trkpt lat="64.05196381" lon="-19.28613854"><ele>592.9</ele><time>2012-07-21T23:35:19.0000000+00:00</time></trkpt><trkpt lat="64.05200958" lon="-19.28596115"><ele>592.5</ele><time>2012-07-21T23:35:24.0000000+00:00</time></trkpt><trkpt lat="64.05206299" lon="-19.2857666"><ele>592.9</ele><time>2012-07-21T23:35:29.0000000+00:00</time></trkpt><trkpt lat="64.05212402" lon="-19.28558159"><ele>592.5</ele><time>2012-07-21T23:35:34.0000000+00:00</time></trkpt><trkpt lat="64.05219269" lon="-19.28538132"><ele>593.2</ele><time>2012-07-21T23:35:39.0000000+00:00</time></trkpt><trkpt lat="64.05224609" lon="-19.28518105"><ele>592.3</ele><time>2012-07-21T23:35:44.0000000+00:00</time></trkpt><trkpt lat="64.05230713" lon="-19.28497696"><ele>591.5</ele><time>2012-07-21T23:35:49.0000000+00:00</time></trkpt><trkpt lat="64.05236816" lon="-19.28473663"><ele>591.3</ele><time>2012-07-21T23:35:54.0000000+00:00</time></trkpt><trkpt lat="64.05242157" lon="-19.28451538"><ele>590.9</ele><time>2012-07-21T23:35:59.0000000+00:00</time></trkpt><trkpt lat="64.05248261" lon="-19.28432655"><ele>591.2</ele><time>2012-07-21T23:36:04.0000000+00:00</time></trkpt><trkpt lat="64.05253601" lon="-19.28410339"><ele>591.1</ele><time>2012-07-21T23:36:09.0000000+00:00</time></trkpt><trkpt lat="64.05260468" lon="-19.28389168"><ele>590.7</ele><time>2012-07-21T23:36:14.0000000+00:00</time></trkpt><trkpt lat="64.05265808" lon="-19.28366089"><ele>590.9</ele><time>2012-07-21T23:36:19.0000000+00:00</time></trkpt><trkpt lat="64.05271912" lon="-19.28347397"><ele>590.7</ele><time>2012-07-21T23:36:24.0000000+00:00</time></trkpt><trkpt lat="64.05276489" lon="-19.28323746"><ele>590.3</ele><time>2012-07-21T23:36:29.0000000+00:00</time></trkpt><trkpt lat="64.0528183" lon="-19.28302765"><ele>590.0</ele><time>2012-07-21T23:36:34.0000000+00:00</time></trkpt><trkpt lat="64.0528717" lon="-19.2828064"><ele>589.1</ele><time>2012-07-21T23:36:39.0000000+00:00</time></trkpt><trkpt lat="64.05293274" lon="-19.28262711"><ele>588.7</ele><time>2012-07-21T23:36:44.0000000+00:00</time></trkpt><trkpt lat="64.05298615" lon="-19.28247452"><ele>588.6</ele><time>2012-07-21T23:36:49.0000000+00:00</time></trkpt><trkpt lat="64.05301666" lon="-19.28237152"><ele>589.9</ele><time>2012-07-21T23:36:54.0000000+00:00</time></trkpt><trkpt lat="64.05305481" lon="-19.28222466"><ele>590.0</ele><time>2012-07-21T23:36:59.0000000+00:00</time></trkpt><trkpt lat="64.05309296" lon="-19.28205872"><ele>589.8</ele><time>2012-07-21T23:37:04.0000000+00:00</time></trkpt><trkpt lat="64.05313873" lon="-19.28185463"><ele>589.7</ele><time>2012-07-21T23:37:09.0000000+00:00</time></trkpt><trkpt lat="64.05319214" lon="-19.28165627"><ele>588.8</ele><time>2012-07-21T23:37:14.0000000+00:00</time></trkpt><trkpt lat="64.05325317" lon="-19.28147697"><ele>587.6</ele><time>2012-07-21T23:37:19.0000000+00:00</time></trkpt><trkpt lat="64.05331421" lon="-19.28126717"><ele>586.6</ele><time>2012-07-21T23:37:24.0000000+00:00</time></trkpt><trkpt lat="64.05335999" lon="-19.28105927"><ele>586.4</ele><time>2012-07-21T23:37:29.0000000+00:00</time></trkpt><trkpt lat="64.05342865" lon="-19.28088188"><ele>584.3</ele><time>2012-07-21T23:37:34.0000000+00:00</time></trkpt><trkpt lat="64.05347443" lon="-19.28067017"><ele>584.6</ele><time>2012-07-21T23:37:39.0000000+00:00</time></trkpt><trkpt lat="64.05353546" lon="-19.28046227"><ele>585.9</ele><time>2012-07-21T23:37:44.0000000+00:00</time></trkpt><trkpt lat="64.05358124" lon="-19.2802906"><ele>586.2</ele><time>2012-07-21T23:37:49.0000000+00:00</time></trkpt><trkpt lat="64.05362701" lon="-19.28011322"><ele>586.5</ele><time>2012-07-21T23:37:54.0000000+00:00</time></trkpt><trkpt lat="64.05367279" lon="-19.27992249"><ele>587.4</ele><time>2012-07-21T23:37:59.0000000+00:00</time></trkpt><trkpt lat="64.0537262" lon="-19.27973747"><ele>587.5</ele><time>2012-07-21T23:38:04.0000000+00:00</time></trkpt><trkpt lat="64.05378723" lon="-19.27955818"><ele>586.9</ele><time>2012-07-21T23:38:09.0000000+00:00</time></trkpt><trkpt lat="64.05384064" lon="-19.27936173"><ele>586.5</ele><time>2012-07-21T23:38:14.0000000+00:00</time></trkpt><trkpt lat="64.05386353" lon="-19.27924538"><ele>586.8</ele><time>2012-07-21T23:38:19.0000000+00:00</time></trkpt><trkpt lat="64.05390167" lon="-19.27913094"><ele>586.3</ele><time>2012-07-21T23:38:24.0000000+00:00</time></trkpt><trkpt lat="64.05393982" lon="-19.27897835"><ele>586.0</ele><time>2012-07-21T23:38:29.0000000+00:00</time></trkpt><trkpt lat="64.05397797" lon="-19.27882385"><ele>586.0</ele><time>2012-07-21T23:38:34.0000000+00:00</time></trkpt><trkpt lat="64.0539856" lon="-19.2787838"><ele>586.3</ele><time>2012-07-21T23:38:39.0000000+00:00</time></trkpt><trkpt lat="64.0539856" lon="-19.2787838"><ele>586.3</ele><time>2012-07-21T23:38:44.0000000+00:00</time></trkpt><trkpt lat="64.05399323" lon="-19.27875519"><ele>586.3</ele><time>2012-07-21T23:38:49.0000000+00:00</time></trkpt><trkpt lat="64.05399323" lon="-19.27874756"><ele>585.0</ele><time>2012-07-21T23:38:54.0000000+00:00</time></trkpt><trkpt lat="64.05399323" lon="-19.27874947"><ele>584.8</ele><time>2012-07-21T23:38:59.0000000+00:00</time></trkpt><trkpt lat="64.05400085" lon="-19.27873421"><ele>584.9</ele><time>2012-07-21T23:39:04.0000000+00:00</time></trkpt><trkpt lat="64.05402374" lon="-19.2786293"><ele>585.8</ele><time>2012-07-21T23:39:09.0000000+00:00</time></trkpt><trkpt lat="64.05405426" lon="-19.27851105"><ele>584.7</ele><time>2012-07-21T23:39:14.0000000+00:00</time></trkpt><trkpt lat="64.05408478" lon="-19.27838707"><ele>585.2</ele><time>2012-07-21T23:39:19.0000000+00:00</time></trkpt><trkpt lat="64.0541153" lon="-19.27830315"><ele>586.1</ele><time>2012-07-21T23:39:24.0000000+00:00</time></trkpt><trkpt lat="64.05413818" lon="-19.27820587"><ele>586.3</ele><time>2012-07-21T23:39:29.0000000+00:00</time></trkpt><trkpt lat="64.0541687" lon="-19.27808189"><ele>585.9</ele><time>2012-07-21T23:39:34.0000000+00:00</time></trkpt><trkpt lat="64.05418396" lon="-19.27797318"><ele>586.3</ele><time>2012-07-21T23:39:39.0000000+00:00</time></trkpt><trkpt lat="64.05421448" lon="-19.2778759"><ele>586.4</ele><time>2012-07-21T23:39:44.0000000+00:00</time></trkpt><trkpt lat="64.05423737" lon="-19.27774811"><ele>584.9</ele><time>2012-07-21T23:39:49.0000000+00:00</time></trkpt><trkpt lat="64.05426788" lon="-19.27764511"><ele>585.2</ele><time>2012-07-21T23:39:54.0000000+00:00</time></trkpt><trkpt lat="64.05429077" lon="-19.27753639"><ele>585.4</ele><time>2012-07-21T23:39:59.0000000+00:00</time></trkpt><trkpt lat="64.0542984" lon="-19.27750588"><ele>584.8</ele><time>2012-07-21T23:40:04.0000000+00:00</time></trkpt><trkpt lat="64.05432129" lon="-19.27742577"><ele>585.3</ele><time>2012-07-21T23:40:09.0000000+00:00</time></trkpt><trkpt lat="64.05435181" lon="-19.27732086"><ele>585.3</ele><time>2012-07-21T23:40:14.0000000+00:00</time></trkpt><trkpt lat="64.05438232" lon="-19.27721787"><ele>585.7</ele><time>2012-07-21T23:40:19.0000000+00:00</time></trkpt><trkpt lat="64.05440521" lon="-19.27711678"><ele>585.3</ele><time>2012-07-21T23:40:24.0000000+00:00</time></trkpt><trkpt lat="64.05443573" lon="-19.27702522"><ele>585.1</ele><time>2012-07-21T23:40:29.0000000+00:00</time></trkpt><trkpt lat="64.05445099" lon="-19.27691078"><ele>585.2</ele><time>2012-07-21T23:40:34.0000000+00:00</time></trkpt><trkpt lat="64.05447388" lon="-19.27677536"><ele>585.4</ele><time>2012-07-21T23:40:39.0000000+00:00</time></trkpt><trkpt lat="64.05451202" lon="-19.2766552"><ele>585.9</ele><time>2012-07-21T23:40:44.0000000+00:00</time></trkpt><trkpt lat="64.05454254" lon="-19.27653885"><ele>586.1</ele><time>2012-07-21T23:40:49.0000000+00:00</time></trkpt><trkpt lat="64.05456543" lon="-19.27641487"><ele>586.3</ele><time>2012-07-21T23:40:54.0000000+00:00</time></trkpt><trkpt lat="64.05459595" lon="-19.27629662"><ele>587.3</ele><time>2012-07-21T23:40:59.0000000+00:00</time></trkpt><trkpt lat="64.05461884" lon="-19.27618599"><ele>588.1</ele><time>2012-07-21T23:41:04.0000000+00:00</time></trkpt><trkpt lat="64.05464935" lon="-19.2760849"><ele>589.3</ele><time>2012-07-21T23:41:09.0000000+00:00</time></trkpt><trkpt lat="64.05467987" lon="-19.27597618"><ele>589.4</ele><time>2012-07-21T23:41:14.0000000+00:00</time></trkpt><trkpt lat="64.05470276" lon="-19.27585602"><ele>590.8</ele><time>2012-07-21T23:41:19.0000000+00:00</time></trkpt><trkpt lat="64.05473328" lon="-19.27574158"><ele>591.4</ele><time>2012-07-21T23:41:24.0000000+00:00</time></trkpt><trkpt lat="64.05476379" lon="-19.2756424"><ele>591.2</ele><time>2012-07-21T23:41:29.0000000+00:00</time></trkpt><trkpt lat="64.05479431" lon="-19.27553749"><ele>591.9</ele><time>2012-07-21T23:41:34.0000000+00:00</time></trkpt><trkpt lat="64.05482483" lon="-19.27542305"><ele>592.3</ele><time>2012-07-21T23:41:39.0000000+00:00</time></trkpt><trkpt lat="64.05484772" lon="-19.27533913"><ele>593.2</ele><time>2012-07-21T23:41:44.0000000+00:00</time></trkpt><trkpt lat="64.05487824" lon="-19.27523613"><ele>593.1</ele><time>2012-07-21T23:41:49.0000000+00:00</time></trkpt><trkpt lat="64.05490875" lon="-19.27511787"><ele>593.7</ele><time>2012-07-21T23:41:54.0000000+00:00</time></trkpt><trkpt lat="64.05492401" lon="-19.27499008"><ele>594.4</ele><time>2012-07-21T23:41:59.0000000+00:00</time></trkpt><trkpt lat="64.05495453" lon="-19.27486992"><ele>594.7</ele><time>2012-07-21T23:42:04.0000000+00:00</time></trkpt><trkpt lat="64.05497742" lon="-19.27476883"><ele>593.5</ele><time>2012-07-21T23:42:09.0000000+00:00</time></trkpt><trkpt lat="64.05500031" lon="-19.27466202"><ele>593.5</ele><time>2012-07-21T23:42:14.0000000+00:00</time></trkpt><trkpt lat="64.05502319" lon="-19.27453613"><ele>592.6</ele><time>2012-07-21T23:42:19.0000000+00:00</time></trkpt><trkpt lat="64.05503845" lon="-19.27442169"><ele>592.5</ele><time>2012-07-21T23:42:24.0000000+00:00</time></trkpt><trkpt lat="64.05504608" lon="-19.27430725"><ele>592.3</ele><time>2012-07-21T23:42:29.0000000+00:00</time></trkpt><trkpt lat="64.05506134" lon="-19.27419663"><ele>593.0</ele><time>2012-07-21T23:42:34.0000000+00:00</time></trkpt><trkpt lat="64.05508423" lon="-19.27409744"><ele>593.0</ele><time>2012-07-21T23:42:39.0000000+00:00</time></trkpt><trkpt lat="64.05509949" lon="-19.27397728"><ele>594.5</ele><time>2012-07-21T23:42:44.0000000+00:00</time></trkpt><trkpt lat="64.05511475" lon="-19.27383614"><ele>594.4</ele><time>2012-07-21T23:42:49.0000000+00:00</time></trkpt><trkpt lat="64.05512238" lon="-19.27371216"><ele>594.9</ele><time>2012-07-21T23:42:54.0000000+00:00</time></trkpt><trkpt lat="64.05513763" lon="-19.27358627"><ele>595.3</ele><time>2012-07-21T23:42:59.0000000+00:00</time></trkpt><trkpt lat="64.05515289" lon="-19.27345657"><ele>595.9</ele><time>2012-07-21T23:43:04.0000000+00:00</time></trkpt><trkpt lat="64.05515289" lon="-19.27332306"><ele>595.5</ele><time>2012-07-21T23:43:09.0000000+00:00</time></trkpt><trkpt lat="64.05515289" lon="-19.27318382"><ele>595.5</ele><time>2012-07-21T23:43:14.0000000+00:00</time></trkpt><trkpt lat="64.05517578" lon="-19.27306366"><ele>596.2</ele><time>2012-07-21T23:43:19.0000000+00:00</time></trkpt><trkpt lat="64.05519104" lon="-19.27293205"><ele>596.0</ele><time>2012-07-21T23:43:24.0000000+00:00</time></trkpt><trkpt lat="64.05519867" lon="-19.27279472"><ele>595.5</ele><time>2012-07-21T23:43:29.0000000+00:00</time></trkpt><trkpt lat="64.0552063" lon="-19.27265739"><ele>595.1</ele><time>2012-07-21T23:43:34.0000000+00:00</time></trkpt><trkpt lat="64.0552063" lon="-19.27250862"><ele>595.3</ele><time>2012-07-21T23:43:39.0000000+00:00</time></trkpt><trkpt lat="64.05522156" lon="-19.27237129"><ele>595.8</ele><time>2012-07-21T23:43:44.0000000+00:00</time></trkpt><trkpt lat="64.05523682" lon="-19.27223778"><ele>597.0</ele><time>2012-07-21T23:43:49.0000000+00:00</time></trkpt><trkpt lat="64.05525208" lon="-19.27210808"><ele>597.6</ele><time>2012-07-21T23:43:54.0000000+00:00</time></trkpt><trkpt lat="64.05525208" lon="-19.27196312"><ele>598.4</ele><time>2012-07-21T23:43:59.0000000+00:00</time></trkpt><trkpt lat="64.05526733" lon="-19.27181625"><ele>599.8</ele><time>2012-07-21T23:44:04.0000000+00:00</time></trkpt><trkpt lat="64.05526733" lon="-19.27169228"><ele>600.7</ele><time>2012-07-21T23:44:09.0000000+00:00</time></trkpt><trkpt lat="64.05527496" lon="-19.27155304"><ele>600.3</ele><time>2012-07-21T23:44:14.0000000+00:00</time></trkpt><trkpt lat="64.05528259" lon="-19.27138901"><ele>600.5</ele><time>2012-07-21T23:44:19.0000000+00:00</time></trkpt><trkpt lat="64.05529022" lon="-19.27125168"><ele>600.2</ele><time>2012-07-21T23:44:24.0000000+00:00</time></trkpt><trkpt lat="64.05529785" lon="-19.27112007"><ele>600.0</ele><time>2012-07-21T23:44:29.0000000+00:00</time></trkpt><trkpt lat="64.05530548" lon="-19.27098465"><ele>600.7</ele><time>2012-07-21T23:44:34.0000000+00:00</time></trkpt><trkpt lat="64.05532074" lon="-19.27085114"><ele>601.5</ele><time>2012-07-21T23:44:39.0000000+00:00</time></trkpt><trkpt lat="64.05532074" lon="-19.27070618"><ele>601.3</ele><time>2012-07-21T23:44:44.0000000+00:00</time></trkpt><trkpt lat="64.05532837" lon="-19.27056122"><ele>601.5</ele><time>2012-07-21T23:44:49.0000000+00:00</time></trkpt><trkpt lat="64.05532837" lon="-19.27046013"><ele>601.9</ele><time>2012-07-21T23:44:54.0000000+00:00</time></trkpt><trkpt lat="64.055336" lon="-19.27042961"><ele>602.2</ele><time>2012-07-21T23:44:59.0000000+00:00</time></trkpt><trkpt lat="64.05534363" lon="-19.27023697"><ele>601.8</ele><time>2012-07-21T23:45:04.0000000+00:00</time></trkpt><trkpt lat="64.05535889" lon="-19.27002335"><ele>601.9</ele><time>2012-07-21T23:45:09.0000000+00:00</time></trkpt><trkpt lat="64.05537415" lon="-19.26986313"><ele>602.3</ele><time>2012-07-21T23:45:14.0000000+00:00</time></trkpt><trkpt lat="64.05538178" lon="-19.26972008"><ele>602.7</ele><time>2012-07-21T23:45:19.0000000+00:00</time></trkpt><trkpt lat="64.05538178" lon="-19.26952362"><ele>602.5</ele><time>2012-07-21T23:45:24.0000000+00:00</time></trkpt><trkpt lat="64.0553894" lon="-19.26933861"><ele>602.5</ele><time>2012-07-21T23:45:29.0000000+00:00</time></trkpt><trkpt lat="64.0553894" lon="-19.2691555"><ele>602.2</ele><time>2012-07-21T23:45:34.0000000+00:00</time></trkpt><trkpt lat="64.0553894" lon="-19.26895714"><ele>601.0</ele><time>2012-07-21T23:45:39.0000000+00:00</time></trkpt><trkpt lat="64.05539703" lon="-19.2687645"><ele>602.6</ele><time>2012-07-21T23:45:44.0000000+00:00</time></trkpt><trkpt lat="64.05540466" lon="-19.26856804"><ele>602.7</ele><time>2012-07-21T23:45:49.0000000+00:00</time></trkpt><trkpt lat="64.05539703" lon="-19.26836395"><ele>602.5</ele><time>2012-07-21T23:45:54.0000000+00:00</time></trkpt><trkpt lat="64.05539703" lon="-19.26815796"><ele>603.1</ele><time>2012-07-21T23:45:59.0000000+00:00</time></trkpt><trkpt lat="64.05540466" lon="-19.26798248"><ele>602.6</ele><time>2012-07-21T23:46:04.0000000+00:00</time></trkpt><trkpt lat="64.05541229" lon="-19.26776505"><ele>602.5</ele><time>2012-07-21T23:46:09.0000000+00:00</time></trkpt><trkpt lat="64.05541229" lon="-19.26754952"><ele>603.5</ele><time>2012-07-21T23:46:14.0000000+00:00</time></trkpt><trkpt lat="64.05541229" lon="-19.26734924"><ele>605.6</ele><time>2012-07-21T23:46:19.0000000+00:00</time></trkpt><trkpt lat="64.05541992" lon="-19.26714516"><ele>605.2</ele><time>2012-07-21T23:46:24.0000000+00:00</time></trkpt><trkpt lat="64.05542755" lon="-19.26694679"><ele>605.2</ele><time>2012-07-21T23:46:29.0000000+00:00</time></trkpt><trkpt lat="64.05544281" lon="-19.26677132"><ele>606.2</ele><time>2012-07-21T23:46:34.0000000+00:00</time></trkpt><trkpt lat="64.05545044" lon="-19.26657295"><ele>605.3</ele><time>2012-07-21T23:46:39.0000000+00:00</time></trkpt><trkpt lat="64.05544281" lon="-19.26641083"><ele>605.9</ele><time>2012-07-21T23:46:44.0000000+00:00</time></trkpt><trkpt lat="64.05544281" lon="-19.26623344"><ele>606.3</ele><time>2012-07-21T23:46:49.0000000+00:00</time></trkpt><trkpt lat="64.05545044" lon="-19.26604271"><ele>606.0</ele><time>2012-07-21T23:46:54.0000000+00:00</time></trkpt><trkpt lat="64.05545044" lon="-19.26582527"><ele>605.1</ele><time>2012-07-21T23:46:59.0000000+00:00</time></trkpt><trkpt lat="64.05545044" lon="-19.2656498"><ele>605.6</ele><time>2012-07-21T23:47:04.0000000+00:00</time></trkpt><trkpt lat="64.05545807" lon="-19.26543999"><ele>604.5</ele><time>2012-07-21T23:47:09.0000000+00:00</time></trkpt><trkpt lat="64.05547333" lon="-19.2652359"><ele>603.5</ele><time>2012-07-21T23:47:14.0000000+00:00</time></trkpt><trkpt lat="64.05548859" lon="-19.26506233"><ele>604.3</ele><time>2012-07-21T23:47:19.0000000+00:00</time></trkpt><trkpt lat="64.05551148" lon="-19.26485825"><ele>604.2</ele><time>2012-07-21T23:47:24.0000000+00:00</time></trkpt><trkpt lat="64.05552673" lon="-19.2646389"><ele>603.3</ele><time>2012-07-21T23:47:29.0000000+00:00</time></trkpt><trkpt lat="64.05554962" lon="-19.26444626"><ele>602.7</ele><time>2012-07-21T23:47:34.0000000+00:00</time></trkpt><trkpt lat="64.05558777" lon="-19.26421738"><ele>600.1</ele><time>2012-07-21T23:47:39.0000000+00:00</time></trkpt><trkpt lat="64.05564117" lon="-19.26401138"><ele>597.5</ele><time>2012-07-21T23:47:44.0000000+00:00</time></trkpt><trkpt lat="64.05570984" lon="-19.26375961"><ele>597.3</ele><time>2012-07-21T23:47:49.0000000+00:00</time></trkpt><trkpt lat="64.0557785" lon="-19.26349258"><ele>596.8</ele><time>2012-07-21T23:47:54.0000000+00:00</time></trkpt><trkpt lat="64.0558548" lon="-19.26319504"><ele>596.3</ele><time>2012-07-21T23:47:59.0000000+00:00</time></trkpt><trkpt lat="64.05594635" lon="-19.26282311"><ele>594.7</ele><time>2012-07-21T23:48:04.0000000+00:00</time></trkpt><trkpt lat="64.05603027" lon="-19.26239204"><ele>592.9</ele><time>2012-07-21T23:48:09.0000000+00:00</time></trkpt><trkpt lat="64.05609894" lon="-19.2619915"><ele>593.2</ele><time>2012-07-21T23:48:14.0000000+00:00</time></trkpt><trkpt lat="64.05615997" lon="-19.26163864"><ele>594.6</ele><time>2012-07-21T23:48:19.0000000+00:00</time></trkpt><trkpt lat="64.05621338" lon="-19.26132393"><ele>594.7</ele><time>2012-07-21T23:48:24.0000000+00:00</time></trkpt><trkpt lat="64.05625916" lon="-19.2610321"><ele>592.9</ele><time>2012-07-21T23:48:29.0000000+00:00</time></trkpt><trkpt lat="64.05630493" lon="-19.2607441"><ele>591.5</ele><time>2012-07-21T23:48:34.0000000+00:00</time></trkpt><trkpt lat="64.05634308" lon="-19.2604866"><ele>592.9</ele><time>2012-07-21T23:48:39.0000000+00:00</time></trkpt><trkpt lat="64.05638123" lon="-19.26025581"><ele>592.3</ele><time>2012-07-21T23:48:44.0000000+00:00</time></trkpt><trkpt lat="64.056427" lon="-19.26002693"><ele>592.1</ele><time>2012-07-21T23:48:49.0000000+00:00</time></trkpt><trkpt lat="64.05646515" lon="-19.25978088"><ele>591.6</ele><time>2012-07-21T23:48:54.0000000+00:00</time></trkpt><trkpt lat="64.05649567" lon="-19.25957871"><ele>591.2</ele><time>2012-07-21T23:48:59.0000000+00:00</time></trkpt><trkpt lat="64.05651856" lon="-19.25940514"><ele>590.9</ele><time>2012-07-21T23:49:04.0000000+00:00</time></trkpt><trkpt lat="64.0565567" lon="-19.25922775"><ele>590.5</ele><time>2012-07-21T23:49:09.0000000+00:00</time></trkpt><trkpt lat="64.05657196" lon="-19.25903702"><ele>590.5</ele><time>2012-07-21T23:49:14.0000000+00:00</time></trkpt><trkpt lat="64.05661011" lon="-19.25886536"><ele>590.2</ele><time>2012-07-21T23:49:19.0000000+00:00</time></trkpt><trkpt lat="64.05662537" lon="-19.25868607"><ele>590.7</ele><time>2012-07-21T23:49:24.0000000+00:00</time></trkpt><trkpt lat="64.05664825" lon="-19.25850868"><ele>591.4</ele><time>2012-07-21T23:49:29.0000000+00:00</time></trkpt><trkpt lat="64.05667114" lon="-19.25831795"><ele>591.3</ele><time>2012-07-21T23:49:34.0000000+00:00</time></trkpt><trkpt lat="64.0566864" lon="-19.25815773"><ele>591.0</ele><time>2012-07-21T23:49:39.0000000+00:00</time></trkpt><trkpt lat="64.05670929" lon="-19.25800705"><ele>590.5</ele><time>2012-07-21T23:49:44.0000000+00:00</time></trkpt><trkpt lat="64.05673218" lon="-19.25782967"><ele>590.0</ele><time>2012-07-21T23:49:49.0000000+00:00</time></trkpt><trkpt lat="64.05674744" lon="-19.25767517"><ele>589.9</ele><time>2012-07-21T23:49:54.0000000+00:00</time></trkpt><trkpt lat="64.05678558" lon="-19.2574997"><ele>590.1</ele><time>2012-07-21T23:49:59.0000000+00:00</time></trkpt><trkpt lat="64.05680084" lon="-19.25732613"><ele>590.5</ele><time>2012-07-21T23:50:04.0000000+00:00</time></trkpt><trkpt lat="64.05682373" lon="-19.25719261"><ele>590.3</ele><time>2012-07-21T23:50:09.0000000+00:00</time></trkpt><trkpt lat="64.05683899" lon="-19.25701904"><ele>590.6</ele><time>2012-07-21T23:50:14.0000000+00:00</time></trkpt><trkpt lat="64.05685425" lon="-19.2569561"><ele>590.9</ele><time>2012-07-21T23:50:19.0000000+00:00</time></trkpt><trkpt lat="64.05685425" lon="-19.25695801"><ele>590.8</ele><time>2012-07-21T23:50:24.0000000+00:00</time></trkpt><trkpt lat="64.05686188" lon="-19.25685692"><ele>592.1</ele><time>2012-07-21T23:50:29.0000000+00:00</time></trkpt><trkpt lat="64.05687714" lon="-19.25672722"><ele>592.7</ele><time>2012-07-21T23:50:34.0000000+00:00</time></trkpt><trkpt lat="64.05690002" lon="-19.2565155"><ele>593.5</ele><time>2012-07-21T23:50:39.0000000+00:00</time></trkpt><trkpt lat="64.05692291" lon="-19.25626183"><ele>593.1</ele><time>2012-07-21T23:50:44.0000000+00:00</time></trkpt><trkpt lat="64.05695343" lon="-19.25603676"><ele>593.6</ele><time>2012-07-21T23:50:49.0000000+00:00</time></trkpt><trkpt lat="64.05699158" lon="-19.25580025"><ele>594.4</ele><time>2012-07-21T23:50:54.0000000+00:00</time></trkpt><trkpt lat="64.05700684" lon="-19.25556183"><ele>594.2</ele><time>2012-07-21T23:50:59.0000000+00:00</time></trkpt><trkpt lat="64.05702972" lon="-19.25536919"><ele>593.5</ele><time>2012-07-21T23:51:04.0000000+00:00</time></trkpt><trkpt lat="64.05704498" lon="-19.25522423"><ele>594.1</ele><time>2012-07-21T23:51:09.0000000+00:00</time></trkpt><trkpt lat="64.0570755" lon="-19.25502396"><ele>594.9</ele><time>2012-07-21T23:51:14.0000000+00:00</time></trkpt><trkpt lat="64.05710602" lon="-19.25480652"><ele>595.0</ele><time>2012-07-21T23:51:19.0000000+00:00</time></trkpt><trkpt lat="64.05712891" lon="-19.25458527"><ele>594.8</ele><time>2012-07-21T23:51:24.0000000+00:00</time></trkpt><trkpt lat="64.05715942" lon="-19.25435257"><ele>594.6</ele><time>2012-07-21T23:51:29.0000000+00:00</time></trkpt><trkpt lat="64.05718231" lon="-19.2541008"><ele>594.7</ele><time>2012-07-21T23:51:34.0000000+00:00</time></trkpt><trkpt lat="64.0572052" lon="-19.25387955"><ele>594.8</ele><time>2012-07-21T23:51:39.0000000+00:00</time></trkpt><trkpt lat="64.05722809" lon="-19.2537365"><ele>593.9</ele><time>2012-07-21T23:51:44.0000000+00:00</time></trkpt><trkpt lat="64.05724335" lon="-19.25355721"><ele>594.8</ele><time>2012-07-21T23:51:49.0000000+00:00</time></trkpt><trkpt lat="64.05727387" lon="-19.25336647"><ele>594.0</ele><time>2012-07-21T23:51:54.0000000+00:00</time></trkpt><trkpt lat="64.05729675" lon="-19.25313187"><ele>594.1</ele><time>2012-07-21T23:51:59.0000000+00:00</time></trkpt><trkpt lat="64.05731964" lon="-19.25285912"><ele>593.0</ele><time>2012-07-21T23:52:04.0000000+00:00</time></trkpt><trkpt lat="64.05734253" lon="-19.25261498"><ele>591.6</ele><time>2012-07-21T23:52:09.0000000+00:00</time></trkpt><trkpt lat="64.05735779" lon="-19.25241852"><ele>592.3</ele><time>2012-07-21T23:52:14.0000000+00:00</time></trkpt><trkpt lat="64.05738831" lon="-19.25224304"><ele>592.7</ele><time>2012-07-21T23:52:19.0000000+00:00</time></trkpt><trkpt lat="64.05741119" lon="-19.25201035"><ele>592.5</ele><time>2012-07-21T23:52:24.0000000+00:00</time></trkpt><trkpt lat="64.05743408" lon="-19.25182724"><ele>592.2</ele><time>2012-07-21T23:52:29.0000000+00:00</time></trkpt><trkpt lat="64.05744934" lon="-19.2516613"><ele>592.8</ele><time>2012-07-21T23:52:34.0000000+00:00</time></trkpt><trkpt lat="64.05744171" lon="-19.25151634"><ele>592.3</ele><time>2012-07-21T23:52:39.0000000+00:00</time></trkpt><trkpt lat="64.05744934" lon="-19.25136185"><ele>592.0</ele><time>2012-07-21T23:52:44.0000000+00:00</time></trkpt><trkpt lat="64.05745697" lon="-19.25121689"><ele>592.0</ele><time>2012-07-21T23:52:49.0000000+00:00</time></trkpt><trkpt lat="64.0574646" lon="-19.25104713"><ele>592.0</ele><time>2012-07-21T23:52:54.0000000+00:00</time></trkpt><trkpt lat="64.05747223" lon="-19.25087738"><ele>592.8</ele><time>2012-07-21T23:52:59.0000000+00:00</time></trkpt><trkpt lat="64.05747986" lon="-19.25070572"><ele>594.1</ele><time>2012-07-21T23:53:04.0000000+00:00</time></trkpt><trkpt lat="64.05748749" lon="-19.2505188"><ele>594.0</ele><time>2012-07-21T23:53:09.0000000+00:00</time></trkpt><trkpt lat="64.05750275" lon="-19.25030708"><ele>594.1</ele><time>2012-07-21T23:53:14.0000000+00:00</time></trkpt><trkpt lat="64.05751038" lon="-19.25012207"><ele>594.6</ele><time>2012-07-21T23:53:19.0000000+00:00</time></trkpt><trkpt lat="64.05751038" lon="-19.24995041"><ele>594.7</ele><time>2012-07-21T23:53:24.0000000+00:00</time></trkpt><trkpt lat="64.05751038" lon="-19.24978828"><ele>597.0</ele><time>2012-07-21T23:53:29.0000000+00:00</time></trkpt><trkpt lat="64.05751038" lon="-19.24957657"><ele>598.1</ele><time>2012-07-21T23:53:34.0000000+00:00</time></trkpt><trkpt lat="64.05751801" lon="-19.24936295"><ele>598.8</ele><time>2012-07-21T23:53:39.0000000+00:00</time></trkpt><trkpt lat="64.05752564" lon="-19.24910545"><ele>598.8</ele><time>2012-07-21T23:53:44.0000000+00:00</time></trkpt><trkpt lat="64.05753326" lon="-19.24884415"><ele>597.6</ele><time>2012-07-21T23:53:49.0000000+00:00</time></trkpt><trkpt lat="64.05754089" lon="-19.24863625"><ele>596.8</ele><time>2012-07-21T23:53:54.0000000+00:00</time></trkpt><trkpt lat="64.05755615" lon="-19.24842262"><ele>596.4</ele><time>2012-07-21T23:53:59.0000000+00:00</time></trkpt><trkpt lat="64.05756378" lon="-19.24822044"><ele>596.3</ele><time>2012-07-21T23:54:04.0000000+00:00</time></trkpt><trkpt lat="64.0575943" lon="-19.24806976"><ele>595.3</ele><time>2012-07-21T23:54:09.0000000+00:00</time></trkpt><trkpt lat="64.0575943" lon="-19.24788666"><ele>595.3</ele><time>2012-07-21T23:54:14.0000000+00:00</time></trkpt><trkpt lat="64.0575943" lon="-19.24766731"><ele>595.5</ele><time>2012-07-21T23:54:19.0000000+00:00</time></trkpt><trkpt lat="64.05757141" lon="-19.24742127"><ele>596.6</ele><time>2012-07-21T23:54:24.0000000+00:00</time></trkpt><trkpt lat="64.05751801" lon="-19.24719238"><ele>593.2</ele><time>2012-07-21T23:54:29.0000000+00:00</time></trkpt><trkpt lat="64.05747986" lon="-19.24696159"><ele>590.4</ele><time>2012-07-21T23:54:34.0000000+00:00</time></trkpt><trkpt lat="64.0574646" lon="-19.24667168"><ele>591.4</ele><time>2012-07-21T23:54:39.0000000+00:00</time></trkpt><trkpt lat="64.05745697" lon="-19.24647141"><ele>593.0</ele><time>2012-07-21T23:54:44.0000000+00:00</time></trkpt><trkpt lat="64.05741119" lon="-19.24629593"><ele>591.2</ele><time>2012-07-21T23:54:49.0000000+00:00</time></trkpt><trkpt lat="64.05737305" lon="-19.24607468"><ele>590.8</ele><time>2012-07-21T23:54:54.0000000+00:00</time></trkpt><trkpt lat="64.05735016" lon="-19.24590302"><ele>591.4</ele><time>2012-07-21T23:54:59.0000000+00:00</time></trkpt><trkpt lat="64.05732727" lon="-19.24575043"><ele>590.2</ele><time>2012-07-21T23:55:04.0000000+00:00</time></trkpt><trkpt lat="64.05728912" lon="-19.24558067"><ele>589.0</ele><time>2012-07-21T23:55:09.0000000+00:00</time></trkpt><trkpt lat="64.05724335" lon="-19.24542809"><ele>588.7</ele><time>2012-07-21T23:55:14.0000000+00:00</time></trkpt><trkpt lat="64.05718231" lon="-19.24534035"><ele>588.2</ele><time>2012-07-21T23:55:19.0000000+00:00</time></trkpt><trkpt lat="64.05712128" lon="-19.24520302"><ele>587.0</ele><time>2012-07-21T23:55:24.0000000+00:00</time></trkpt><trkpt lat="64.05704498" lon="-19.24509049"><ele>586.3</ele><time>2012-07-21T23:55:29.0000000+00:00</time></trkpt><trkpt lat="64.05697632" lon="-19.24498177"><ele>586.0</ele><time>2012-07-21T23:55:34.0000000+00:00</time></trkpt><trkpt lat="64.05690765" lon="-19.24489784"><ele>585.3</ele><time>2012-07-21T23:55:39.0000000+00:00</time></trkpt><trkpt lat="64.05686188" lon="-19.24482727"><ele>584.1</ele><time>2012-07-21T23:55:44.0000000+00:00</time></trkpt><trkpt lat="64.0568161" lon="-19.24471474"><ele>582.3</ele><time>2012-07-21T23:55:49.0000000+00:00</time></trkpt><trkpt lat="64.0568161" lon="-19.24473"><ele>582.3</ele><time>2012-07-21T23:55:54.0000000+00:00</time></trkpt><trkpt lat="64.0568161" lon="-19.24472618"><ele>582.3</ele><time>2012-07-21T23:55:59.0000000+00:00</time></trkpt><trkpt lat="64.0568161" lon="-19.24472618"><ele>582.2</ele><time>2012-07-21T23:56:04.0000000+00:00</time></trkpt><trkpt lat="64.0568161" lon="-19.24472618"><ele>582.2</ele><time>2012-07-21T23:56:09.0000000+00:00</time></trkpt><trkpt lat="64.0568161" lon="-19.24472618"><ele>582.2</ele><time>2012-07-21T23:56:14.0000000+00:00</time></trkpt><trkpt lat="64.0568161" lon="-19.24472618"><ele>582.2</ele><time>2012-07-21T23:56:19.0000000+00:00</time></trkpt><trkpt lat="64.0568161" lon="-19.24472618"><ele>582.2</ele><time>2012-07-21T23:56:24.0000000+00:00</time></trkpt><trkpt lat="64.0568161" lon="-19.24472618"><ele>582.2</ele><time>2012-07-21T23:56:29.0000000+00:00</time></trkpt><trkpt lat="64.0568161" lon="-19.24472427"><ele>582.3</ele><time>2012-07-21T23:56:34.0000000+00:00</time></trkpt><trkpt lat="64.0568161" lon="-19.24472427"><ele>582.3</ele><time>2012-07-21T23:56:39.0000000+00:00</time></trkpt><trkpt lat="64.0568161" lon="-19.24472618"><ele>582.3</ele><time>2012-07-21T23:56:44.0000000+00:00</time></trkpt><trkpt lat="64.0568161" lon="-19.24472618"><ele>582.4</ele><time>2012-07-21T23:56:49.0000000+00:00</time></trkpt><trkpt lat="64.0568161" lon="-19.24472618"><ele>582.3</ele><time>2012-07-21T23:56:54.0000000+00:00</time></trkpt><trkpt lat="64.0568161" lon="-19.24472618"><ele>582.4</ele><time>2012-07-21T23:56:59.0000000+00:00</time></trkpt><trkpt lat="64.0568161" lon="-19.24472618"><ele>582.3</ele><time>2012-07-21T23:57:04.0000000+00:00</time></trkpt><trkpt lat="64.0568161" lon="-19.24472618"><ele>582.3</ele><time>2012-07-21T23:57:09.0000000+00:00</time></trkpt><trkpt lat="64.0568161" lon="-19.24472618"><ele>582.3</ele><time>2012-07-21T23:57:14.0000000+00:00</time></trkpt><trkpt lat="64.0568161" lon="-19.24472618"><ele>582.3</ele><time>2012-07-21T23:57:19.0000000+00:00</time></trkpt><trkpt lat="64.0568161" lon="-19.24472618"><ele>582.3</ele><time>2012-07-21T23:57:24.0000000+00:00</time></trkpt><trkpt lat="64.0568161" lon="-19.24472809"><ele>582.4</ele><time>2012-07-21T23:57:29.0000000+00:00</time></trkpt><trkpt lat="64.05678558" lon="-19.24467659"><ele>582.5</ele><time>2012-07-21T23:57:34.0000000+00:00</time></trkpt><trkpt lat="64.05670929" lon="-19.24448967"><ele>582.9</ele><time>2012-07-21T23:57:39.0000000+00:00</time></trkpt><trkpt lat="64.056633" lon="-19.24434471"><ele>583.5</ele><time>2012-07-21T23:57:44.0000000+00:00</time></trkpt><trkpt lat="64.05661774" lon="-19.24422836"><ele>586.6</ele><time>2012-07-21T23:57:49.0000000+00:00</time></trkpt><trkpt lat="64.05660248" lon="-19.24417687"><ele>586.8</ele><time>2012-07-21T23:57:54.0000000+00:00</time></trkpt><trkpt lat="64.05654144" lon="-19.24402046"><ele>587.3</ele><time>2012-07-21T23:57:59.0000000+00:00</time></trkpt><trkpt lat="64.05649567" lon="-19.24380302"><ele>587.9</ele><time>2012-07-21T23:58:04.0000000+00:00</time></trkpt><trkpt lat="64.05646515" lon="-19.24361992"><ele>587.2</ele><time>2012-07-21T23:58:09.0000000+00:00</time></trkpt><trkpt lat="64.05641174" lon="-19.24344635"><ele>586.7</ele><time>2012-07-21T23:58:14.0000000+00:00</time></trkpt><trkpt lat="64.0563736" lon="-19.24319649"><ele>586.9</ele><time>2012-07-21T23:58:19.0000000+00:00</time></trkpt><trkpt lat="64.05634308" lon="-19.24303436"><ele>587.6</ele><time>2012-07-21T23:58:24.0000000+00:00</time></trkpt><trkpt lat="64.05635834" lon="-19.24303055"><ele>587.6</ele><time>2012-07-21T23:58:29.0000000+00:00</time></trkpt><trkpt lat="64.05636597" lon="-19.24302673"><ele>588.5</ele><time>2012-07-21T23:58:34.0000000+00:00</time></trkpt><trkpt lat="64.05636597" lon="-19.24302292"><ele>587.3</ele><time>2012-07-21T23:58:39.0000000+00:00</time></trkpt><trkpt lat="64.05634308" lon="-19.24295044"><ele>586.9</ele><time>2012-07-21T23:58:44.0000000+00:00</time></trkpt><trkpt lat="64.05631256" lon="-19.2428627"><ele>586.5</ele><time>2012-07-21T23:58:49.0000000+00:00</time></trkpt><trkpt lat="64.05630493" lon="-19.24273872"><ele>587.5</ele><time>2012-07-21T23:58:54.0000000+00:00</time></trkpt><trkpt lat="64.05631256" lon="-19.24257469"><ele>588.3</ele><time>2012-07-21T23:58:59.0000000+00:00</time></trkpt><trkpt lat="64.05632782" lon="-19.24241066"><ele>589.2</ele><time>2012-07-21T23:59:04.0000000+00:00</time></trkpt><trkpt lat="64.05633545" lon="-19.24225044"><ele>589.8</ele><time>2012-07-21T23:59:09.0000000+00:00</time></trkpt><trkpt lat="64.05633545" lon="-19.24210358"><ele>589.1</ele><time>2012-07-21T23:59:14.0000000+00:00</time></trkpt><trkpt lat="64.05635071" lon="-19.24194527"><ele>588.9</ele><time>2012-07-21T23:59:19.0000000+00:00</time></trkpt><trkpt lat="64.05634308" lon="-19.24179077"><ele>589.3</ele><time>2012-07-21T23:59:24.0000000+00:00</time></trkpt><trkpt lat="64.0562973" lon="-19.24165344"><ele>588.4</ele><time>2012-07-21T23:59:29.0000000+00:00</time></trkpt><trkpt lat="64.05626679" lon="-19.24152374"><ele>588.4</ele><time>2012-07-21T23:59:34.0000000+00:00</time></trkpt><trkpt lat="64.05625153" lon="-19.24145317"><ele>589.2</ele><time>2012-07-21T23:59:39.0000000+00:00</time></trkpt><trkpt lat="64.05625153" lon="-19.24145508"><ele>589.2</ele><time>2012-07-21T23:59:44.0000000+00:00</time></trkpt><trkpt lat="64.05622864" lon="-19.24136162"><ele>589.9</ele><time>2012-07-21T23:59:49.0000000+00:00</time></trkpt><trkpt lat="64.05619812" lon="-19.24127579"><ele>590.1</ele><time>2012-07-21T23:59:54.0000000+00:00</time></trkpt><trkpt lat="64.05615234" lon="-19.2411747"><ele>589.6</ele><time>2012-07-21T23:59:59.0000000+00:00</time></trkpt><trkpt lat="64.05610657" lon="-19.24107552"><ele>589.9</ele><time>2012-07-22T00:00:04.0000000+00:00</time></trkpt><trkpt lat="64.05605316" lon="-19.24097633"><ele>590.0</ele><time>2012-07-22T00:00:09.0000000+00:00</time></trkpt><trkpt lat="64.05600739" lon="-19.24085617"><ele>590.1</ele><time>2012-07-22T00:00:14.0000000+00:00</time></trkpt><trkpt lat="64.05600739" lon="-19.24073792"><ele>589.3</ele><time>2012-07-22T00:00:19.0000000+00:00</time></trkpt><trkpt lat="64.05603027" lon="-19.24064064"><ele>589.0</ele><time>2012-07-22T00:00:24.0000000+00:00</time></trkpt><trkpt lat="64.05606079" lon="-19.24067116"><ele>589.3</ele><time>2012-07-22T00:00:29.0000000+00:00</time></trkpt><trkpt lat="64.05607605" lon="-19.24074936"><ele>587.6</ele><time>2012-07-22T00:00:34.0000000+00:00</time></trkpt><trkpt lat="64.05610657" lon="-19.24079132"><ele>585.8</ele><time>2012-07-22T00:00:39.0000000+00:00</time></trkpt><trkpt lat="64.05614471" lon="-19.24082756"><ele>584.2</ele><time>2012-07-22T00:00:44.0000000+00:00</time></trkpt><trkpt lat="64.0561676" lon="-19.24083901"><ele>582.5</ele><time>2012-07-22T00:00:49.0000000+00:00</time></trkpt><trkpt lat="64.05618286" lon="-19.24076653"><ele>580.8</ele><time>2012-07-22T00:00:54.0000000+00:00</time></trkpt><trkpt lat="64.05617523" lon="-19.24075699"><ele>579.1</ele><time>2012-07-22T00:00:59.0000000+00:00</time></trkpt><trkpt lat="64.05617523" lon="-19.24076843"><ele>578.3</ele><time>2012-07-22T00:01:04.0000000+00:00</time></trkpt><trkpt lat="64.05618286" lon="-19.24077988"><ele>577.7</ele><time>2012-07-22T00:01:09.0000000+00:00</time></trkpt><trkpt lat="64.05618286" lon="-19.24078369"><ele>577.4</ele><time>2012-07-22T00:01:14.0000000+00:00</time></trkpt><trkpt lat="64.05618286" lon="-19.24078751"><ele>577.2</ele><time>2012-07-22T00:01:19.0000000+00:00</time></trkpt><trkpt lat="64.05618286" lon="-19.24078941"><ele>577.2</ele><time>2012-07-22T00:01:24.0000000+00:00</time></trkpt><trkpt lat="64.05618286" lon="-19.24079132"><ele>577.1</ele><time>2012-07-22T00:01:29.0000000+00:00</time></trkpt><trkpt lat="64.05618286" lon="-19.24079132"><ele>577.1</ele><time>2012-07-22T00:01:34.0000000+00:00</time></trkpt><trkpt lat="64.05618286" lon="-19.24079132"><ele>577.1</ele><time>2012-07-22T00:01:39.0000000+00:00</time></trkpt><trkpt lat="64.05618286" lon="-19.24079132"><ele>577.1</ele><time>2012-07-22T00:01:44.0000000+00:00</time></trkpt><trkpt lat="64.05618286" lon="-19.24079132"><ele>577.1</ele><time>2012-07-22T00:01:49.0000000+00:00</time></trkpt><trkpt lat="64.05618286" lon="-19.24079323"><ele>577.1</ele><time>2012-07-22T00:01:54.0000000+00:00</time></trkpt><trkpt lat="64.05618286" lon="-19.24079323"><ele>577.1</ele><time>2012-07-22T00:01:59.0000000+00:00</time></trkpt><trkpt lat="64.05618286" lon="-19.24079323"><ele>577.1</ele><time>2012-07-22T00:02:04.0000000+00:00</time></trkpt><trkpt lat="64.05618286" lon="-19.24079323"><ele>577.1</ele><time>2012-07-22T00:02:09.0000000+00:00</time></trkpt><trkpt lat="64.05618286" lon="-19.24079132"><ele>577.1</ele><time>2012-07-22T00:02:14.0000000+00:00</time></trkpt><trkpt lat="64.05618286" lon="-19.2407856"><ele>577.1</ele><time>2012-07-22T00:02:19.0000000+00:00</time></trkpt><trkpt lat="64.05617523" lon="-19.24077034"><ele>577.2</ele><time>2012-07-22T00:02:24.0000000+00:00</time></trkpt><trkpt lat="64.05613709" lon="-19.24071503"><ele>577.9</ele><time>2012-07-22T00:02:29.0000000+00:00</time></trkpt><trkpt lat="64.0561142" lon="-19.24066353"><ele>578.8</ele><time>2012-07-22T00:02:34.0000000+00:00</time></trkpt><trkpt lat="64.05610657" lon="-19.24064636"><ele>580.3</ele><time>2012-07-22T00:02:39.0000000+00:00</time></trkpt><trkpt lat="64.05610657" lon="-19.2406311"><ele>581.3</ele><time>2012-07-22T00:02:44.0000000+00:00</time></trkpt><trkpt lat="64.05610657" lon="-19.24062347"><ele>581.7</ele><time>2012-07-22T00:02:49.0000000+00:00</time></trkpt><trkpt lat="64.05610657" lon="-19.24061394"><ele>582.1</ele><time>2012-07-22T00:02:54.0000000+00:00</time></trkpt><trkpt lat="64.05610657" lon="-19.2406044"><ele>582.6</ele><time>2012-07-22T00:02:59.0000000+00:00</time></trkpt><trkpt lat="64.05609894" lon="-19.24059296"><ele>583.2</ele><time>2012-07-22T00:03:04.0000000+00:00</time></trkpt><trkpt lat="64.05609894" lon="-19.24058151"><ele>583.8</ele><time>2012-07-22T00:03:09.0000000+00:00</time></trkpt><trkpt lat="64.05609131" lon="-19.24056816"><ele>584.4</ele><time>2012-07-22T00:03:14.0000000+00:00</time></trkpt><trkpt lat="64.05609131" lon="-19.24054909"><ele>585.2</ele><time>2012-07-22T00:03:19.0000000+00:00</time></trkpt><trkpt lat="64.05609894" lon="-19.24052429"><ele>586.0</ele><time>2012-07-22T00:03:24.0000000+00:00</time></trkpt><trkpt lat="64.05608368" lon="-19.24050713"><ele>588.1</ele><time>2012-07-22T00:03:29.0000000+00:00</time></trkpt><trkpt lat="64.05608368" lon="-19.24048424"><ele>589.0</ele><time>2012-07-22T00:03:34.0000000+00:00</time></trkpt><trkpt lat="64.05608368" lon="-19.24046516"><ele>589.9</ele><time>2012-07-22T00:03:39.0000000+00:00</time></trkpt><trkpt lat="64.05607605" lon="-19.24044418"><ele>590.9</ele><time>2012-07-22T00:03:44.0000000+00:00</time></trkpt><trkpt lat="64.05605316" lon="-19.24044037"><ele>591.8</ele><time>2012-07-22T00:03:49.0000000+00:00</time></trkpt><trkpt lat="64.05602264" lon="-19.2405014"><ele>593.1</ele><time>2012-07-22T00:03:54.0000000+00:00</time></trkpt><trkpt lat="64.05602264" lon="-19.24048996"><ele>594.6</ele><time>2012-07-22T00:03:59.0000000+00:00</time></trkpt><trkpt lat="64.05602264" lon="-19.24046326"><ele>595.6</ele><time>2012-07-22T00:04:04.0000000+00:00</time></trkpt><trkpt lat="64.05601502" lon="-19.24044228"><ele>596.4</ele><time>2012-07-22T00:04:09.0000000+00:00</time></trkpt><trkpt lat="64.05601502" lon="-19.24042702"><ele>597.2</ele><time>2012-07-22T00:04:14.0000000+00:00</time></trkpt><trkpt lat="64.05602264" lon="-19.24041748"><ele>598.0</ele><time>2012-07-22T00:04:19.0000000+00:00</time></trkpt><trkpt lat="64.05602264" lon="-19.24041176"><ele>598.8</ele><time>2012-07-22T00:04:24.0000000+00:00</time></trkpt><trkpt lat="64.05602264" lon="-19.24039841"><ele>599.5</ele><time>2012-07-22T00:04:29.0000000+00:00</time></trkpt><trkpt lat="64.05602264" lon="-19.24038506"><ele>600.3</ele><time>2012-07-22T00:04:34.0000000+00:00</time></trkpt><trkpt lat="64.05601502" lon="-19.2403717"><ele>600.9</ele><time>2012-07-22T00:04:39.0000000+00:00</time></trkpt><trkpt lat="64.05600739" lon="-19.24036217"><ele>601.6</ele><time>2012-07-22T00:04:44.0000000+00:00</time></trkpt><trkpt lat="64.05599976" lon="-19.24035645"><ele>602.3</ele><time>2012-07-22T00:04:49.0000000+00:00</time></trkpt><trkpt lat="64.0559845" lon="-19.24038696"><ele>602.4</ele><time>2012-07-22T00:04:54.0000000+00:00</time></trkpt><trkpt lat="64.05599976" lon="-19.24037361"><ele>602.8</ele><time>2012-07-22T00:04:59.0000000+00:00</time></trkpt><trkpt lat="64.05599213" lon="-19.24036408"><ele>603.4</ele><time>2012-07-22T00:05:04.0000000+00:00</time></trkpt><trkpt lat="64.05599213" lon="-19.24035263"><ele>604.0</ele><time>2012-07-22T00:05:09.0000000+00:00</time></trkpt><trkpt lat="64.0559845" lon="-19.24034309"><ele>604.5</ele><time>2012-07-22T00:05:14.0000000+00:00</time></trkpt><trkpt lat="64.0559845" lon="-19.24033546"><ele>604.9</ele><time>2012-07-22T00:05:19.0000000+00:00</time></trkpt><trkpt lat="64.0559845" lon="-19.24032784"><ele>605.3</ele><time>2012-07-22T00:05:24.0000000+00:00</time></trkpt><trkpt lat="64.0559845" lon="-19.24032402"><ele>605.5</ele><time>2012-07-22T00:05:29.0000000+00:00</time></trkpt><trkpt lat="64.0559845" lon="-19.24033546"><ele>605.6</ele><time>2012-07-22T00:05:34.0000000+00:00</time></trkpt><trkpt lat="64.0559845" lon="-19.24035645"><ele>605.8</ele><time>2012-07-22T00:05:39.0000000+00:00</time></trkpt><trkpt lat="64.05599213" lon="-19.24054718"><ele>602.4</ele><time>2012-07-22T00:05:44.0000000+00:00</time></trkpt><trkpt lat="64.05601502" lon="-19.24064064"><ele>600.8</ele><time>2012-07-22T00:05:49.0000000+00:00</time></trkpt><trkpt lat="64.05601502" lon="-19.24068451"><ele>599.3</ele><time>2012-07-22T00:05:54.0000000+00:00</time></trkpt><trkpt lat="64.05601502" lon="-19.24070358"><ele>599.1</ele><time>2012-07-22T00:05:59.0000000+00:00</time></trkpt><trkpt lat="64.05600739" lon="-19.24072838"><ele>598.8</ele><time>2012-07-22T00:06:04.0000000+00:00</time></trkpt><trkpt lat="64.05603027" lon="-19.24077797"><ele>596.7</ele><time>2012-07-22T00:06:09.0000000+00:00</time></trkpt><trkpt lat="64.05604553" lon="-19.24079323"><ele>596.0</ele><time>2012-07-22T00:06:14.0000000+00:00</time></trkpt><trkpt lat="64.05604553" lon="-19.24081612"><ele>595.5</ele><time>2012-07-22T00:06:19.0000000+00:00</time></trkpt><trkpt lat="64.05604553" lon="-19.24084091"><ele>595.0</ele><time>2012-07-22T00:06:24.0000000+00:00</time></trkpt><trkpt lat="64.05604553" lon="-19.24085617"><ele>594.4</ele><time>2012-07-22T00:06:29.0000000+00:00</time></trkpt><trkpt lat="64.05604553" lon="-19.24086571"><ele>593.7</ele><time>2012-07-22T00:06:34.0000000+00:00</time></trkpt><trkpt lat="64.05605316" lon="-19.24087524"><ele>593.1</ele><time>2012-07-22T00:06:39.0000000+00:00</time></trkpt><trkpt lat="64.05605316" lon="-19.24089432"><ele>592.4</ele><time>2012-07-22T00:06:44.0000000+00:00</time></trkpt><trkpt lat="64.05604553" lon="-19.2409153"><ele>591.5</ele><time>2012-07-22T00:06:49.0000000+00:00</time></trkpt><trkpt lat="64.05604553" lon="-19.24093437"><ele>590.7</ele><time>2012-07-22T00:06:54.0000000+00:00</time></trkpt><trkpt lat="64.05604553" lon="-19.24094391"><ele>589.8</ele><time>2012-07-22T00:06:59.0000000+00:00</time></trkpt><trkpt lat="64.05604553" lon="-19.24094963"><ele>588.8</ele><time>2012-07-22T00:07:04.0000000+00:00</time></trkpt><trkpt lat="64.0560379" lon="-19.24095535"><ele>587.8</ele><time>2012-07-22T00:07:09.0000000+00:00</time></trkpt><trkpt lat="64.0560379" lon="-19.2409668"><ele>586.8</ele><time>2012-07-22T00:07:14.0000000+00:00</time></trkpt><trkpt lat="64.05604553" lon="-19.24098206"><ele>585.8</ele><time>2012-07-22T00:07:19.0000000+00:00</time></trkpt><trkpt lat="64.05605316" lon="-19.24100113"><ele>584.9</ele><time>2012-07-22T00:07:24.0000000+00:00</time></trkpt><trkpt lat="64.05606079" lon="-19.24105072"><ele>581.6</ele><time>2012-07-22T00:07:29.0000000+00:00</time></trkpt><trkpt lat="64.05606842" lon="-19.24106598"><ele>580.4</ele><time>2012-07-22T00:07:34.0000000+00:00</time></trkpt><trkpt lat="64.05608368" lon="-19.24115181"><ele>577.7</ele><time>2012-07-22T00:07:39.0000000+00:00</time></trkpt><trkpt lat="64.05608368" lon="-19.24123573"><ele>575.3</ele><time>2012-07-22T00:07:44.0000000+00:00</time></trkpt><trkpt lat="64.05608368" lon="-19.24124908"><ele>573.8</ele><time>2012-07-22T00:07:49.0000000+00:00</time></trkpt><trkpt lat="64.05609131" lon="-19.24124527"><ele>573.1</ele><time>2012-07-22T00:07:54.0000000+00:00</time></trkpt><trkpt lat="64.05609894" lon="-19.24126244"><ele>571.8</ele><time>2012-07-22T00:07:59.0000000+00:00</time></trkpt><trkpt lat="64.05609894" lon="-19.24126244"><ele>570.6</ele><time>2012-07-22T00:08:04.0000000+00:00</time></trkpt><trkpt lat="64.0561142" lon="-19.24124908"><ele>569.7</ele><time>2012-07-22T00:08:09.0000000+00:00</time></trkpt><trkpt lat="64.05612183" lon="-19.24123764"><ele>569.0</ele><time>2012-07-22T00:08:14.0000000+00:00</time></trkpt><trkpt lat="64.05612946" lon="-19.2412262"><ele>568.6</ele><time>2012-07-22T00:08:19.0000000+00:00</time></trkpt><trkpt lat="64.05614471" lon="-19.24121666"><ele>568.5</ele><time>2012-07-22T00:08:24.0000000+00:00</time></trkpt><trkpt lat="64.05614471" lon="-19.24121857"><ele>568.6</ele><time>2012-07-22T00:08:29.0000000+00:00</time></trkpt><trkpt lat="64.05613709" lon="-19.24125481"><ele>570.3</ele><time>2012-07-22T00:08:34.0000000+00:00</time></trkpt><trkpt lat="64.0561676" lon="-19.24134064"><ele>570.8</ele><time>2012-07-22T00:08:39.0000000+00:00</time></trkpt><trkpt lat="64.05622864" lon="-19.24142456"><ele>571.0</ele><time>2012-07-22T00:08:44.0000000+00:00</time></trkpt><trkpt lat="64.05622864" lon="-19.24137306"><ele>577.0</ele><time>2012-07-22T00:08:49.0000000+00:00</time></trkpt><trkpt lat="64.05626679" lon="-19.24147797"><ele>577.6</ele><time>2012-07-22T00:08:54.0000000+00:00</time></trkpt><trkpt lat="64.05630493" lon="-19.24159432"><ele>578.3</ele><time>2012-07-22T00:08:59.0000000+00:00</time></trkpt><trkpt lat="64.05635071" lon="-19.24164963"><ele>579.0</ele><time>2012-07-22T00:09:04.0000000+00:00</time></trkpt><trkpt lat="64.05638123" lon="-19.24168396"><ele>579.5</ele><time>2012-07-22T00:09:09.0000000+00:00</time></trkpt><trkpt lat="64.05638123" lon="-19.24172783"><ele>580.3</ele><time>2012-07-22T00:09:14.0000000+00:00</time></trkpt><trkpt lat="64.05644226" lon="-19.24185562"><ele>581.0</ele><time>2012-07-22T00:09:19.0000000+00:00</time></trkpt><trkpt lat="64.05651856" lon="-19.24178886"><ele>581.9</ele><time>2012-07-22T00:09:24.0000000+00:00</time></trkpt><trkpt lat="64.05654144" lon="-19.2417469"><ele>582.3</ele><time>2012-07-22T00:09:29.0000000+00:00</time></trkpt><trkpt lat="64.05654144" lon="-19.24174309"><ele>582.5</ele><time>2012-07-22T00:09:34.0000000+00:00</time></trkpt><trkpt lat="64.05654144" lon="-19.24176598"><ele>582.5</ele><time>2012-07-22T00:09:39.0000000+00:00</time></trkpt><trkpt lat="64.05653381" lon="-19.2417717"><ele>582.4</ele><time>2012-07-22T00:09:44.0000000+00:00</time></trkpt><trkpt lat="64.05654907" lon="-19.24170494"><ele>582.5</ele><time>2012-07-22T00:09:49.0000000+00:00</time></trkpt><trkpt lat="64.05654144" lon="-19.24169922"><ele>582.2</ele><time>2012-07-22T00:09:54.0000000+00:00</time></trkpt><trkpt lat="64.05653381" lon="-19.24169159"><ele>582.0</ele><time>2012-07-22T00:09:59.0000000+00:00</time></trkpt><trkpt lat="64.05653381" lon="-19.24167824"><ele>582.1</ele><time>2012-07-22T00:10:04.0000000+00:00</time></trkpt><trkpt lat="64.0565567" lon="-19.24160004"><ele>582.9</ele><time>2012-07-22T00:10:09.0000000+00:00</time></trkpt><trkpt lat="64.0565567" lon="-19.24158859"><ele>582.8</ele><time>2012-07-22T00:10:14.0000000+00:00</time></trkpt><trkpt lat="64.05654907" lon="-19.24158669"><ele>582.8</ele><time>2012-07-22T00:10:19.0000000+00:00</time></trkpt><trkpt lat="64.05654144" lon="-19.24158859"><ele>582.8</ele><time>2012-07-22T00:10:24.0000000+00:00</time></trkpt><trkpt lat="64.05654144" lon="-19.24158096"><ele>582.8</ele><time>2012-07-22T00:10:29.0000000+00:00</time></trkpt><trkpt lat="64.05653381" lon="-19.24156952"><ele>582.8</ele><time>2012-07-22T00:10:34.0000000+00:00</time></trkpt><trkpt lat="64.05652618" lon="-19.24155426"><ele>582.9</ele><time>2012-07-22T00:10:39.0000000+00:00</time></trkpt><trkpt lat="64.05651856" lon="-19.24153328"><ele>583.1</ele><time>2012-07-22T00:10:44.0000000+00:00</time></trkpt><trkpt lat="64.05649567" lon="-19.24152947"><ele>583.1</ele><time>2012-07-22T00:10:49.0000000+00:00</time></trkpt><trkpt lat="64.05649567" lon="-19.24152184"><ele>583.0</ele><time>2012-07-22T00:10:54.0000000+00:00</time></trkpt><trkpt lat="64.0565033" lon="-19.2415638"><ele>582.9</ele><time>2012-07-22T00:10:59.0000000+00:00</time></trkpt><trkpt lat="64.05651093" lon="-19.24159622"><ele>582.8</ele><time>2012-07-22T00:11:04.0000000+00:00</time></trkpt><trkpt lat="64.05651856" lon="-19.24162293"><ele>582.6</ele><time>2012-07-22T00:11:09.0000000+00:00</time></trkpt><trkpt lat="64.05652618" lon="-19.24162674"><ele>582.7</ele><time>2012-07-22T00:11:14.0000000+00:00</time></trkpt><trkpt lat="64.05652618" lon="-19.24165916"><ele>582.8</ele><time>2012-07-22T00:11:19.0000000+00:00</time></trkpt><trkpt lat="64.05652618" lon="-19.24165916"><ele>582.8</ele><time>2012-07-22T00:11:24.0000000+00:00</time></trkpt><trkpt lat="64.05652618" lon="-19.24168778"><ele>583.5</ele><time>2012-07-22T00:11:29.0000000+00:00</time></trkpt><trkpt lat="64.05652618" lon="-19.24170303"><ele>583.7</ele><time>2012-07-22T00:11:34.0000000+00:00</time></trkpt><trkpt lat="64.05652618" lon="-19.24170113"><ele>583.7</ele><time>2012-07-22T00:11:39.0000000+00:00</time></trkpt><trkpt lat="64.05652618" lon="-19.24168778"><ele>583.6</ele><time>2012-07-22T00:11:44.0000000+00:00</time></trkpt><trkpt lat="64.05651856" lon="-19.24167633"><ele>583.6</ele><time>2012-07-22T00:11:49.0000000+00:00</time></trkpt><trkpt lat="64.0565033" lon="-19.24167061"><ele>583.5</ele><time>2012-07-22T00:11:54.0000000+00:00</time></trkpt><trkpt lat="64.05649567" lon="-19.24165344"><ele>583.5</ele><time>2012-07-22T00:11:59.0000000+00:00</time></trkpt><trkpt lat="64.05649567" lon="-19.24164009"><ele>583.4</ele><time>2012-07-22T00:12:04.0000000+00:00</time></trkpt><trkpt lat="64.05649567" lon="-19.24164772"><ele>583.4</ele><time>2012-07-22T00:12:09.0000000+00:00</time></trkpt><trkpt lat="64.05649567" lon="-19.24165726"><ele>583.4</ele><time>2012-07-22T00:12:14.0000000+00:00</time></trkpt><trkpt lat="64.05649567" lon="-19.2416687"><ele>583.4</ele><time>2012-07-22T00:12:19.0000000+00:00</time></trkpt><trkpt lat="64.05649567" lon="-19.24168205"><ele>583.4</ele><time>2012-07-22T00:12:24.0000000+00:00</time></trkpt><trkpt lat="64.05649567" lon="-19.24168968"><ele>583.5</ele><time>2012-07-22T00:12:29.0000000+00:00</time></trkpt><trkpt lat="64.05649567" lon="-19.2416954"><ele>583.5</ele><time>2012-07-22T00:12:34.0000000+00:00</time></trkpt><trkpt lat="64.05649567" lon="-19.24167824"><ele>583.5</ele><time>2012-07-22T00:12:39.0000000+00:00</time></trkpt><trkpt lat="64.05649567" lon="-19.24166298"><ele>583.5</ele><time>2012-07-22T00:12:44.0000000+00:00</time></trkpt><trkpt lat="64.05649567" lon="-19.24166679"><ele>583.5</ele><time>2012-07-22T00:12:49.0000000+00:00</time></trkpt><trkpt lat="64.0565033" lon="-19.24167442"><ele>583.5</ele><time>2012-07-22T00:12:54.0000000+00:00</time></trkpt><trkpt lat="64.0565033" lon="-19.24168778"><ele>583.6</ele><time>2012-07-22T00:12:59.0000000+00:00</time></trkpt><trkpt lat="64.05651093" lon="-19.24169731"><ele>583.6</ele><time>2012-07-22T00:13:04.0000000+00:00</time></trkpt><trkpt lat="64.05651093" lon="-19.24171066"><ele>583.7</ele><time>2012-07-22T00:13:09.0000000+00:00</time></trkpt><trkpt lat="64.05651856" lon="-19.2417202"><ele>583.8</ele><time>2012-07-22T00:13:14.0000000+00:00</time></trkpt><trkpt lat="64.05652618" lon="-19.24172783"><ele>583.9</ele><time>2012-07-22T00:13:19.0000000+00:00</time></trkpt><trkpt lat="64.05652618" lon="-19.24172974"><ele>584.1</ele><time>2012-07-22T00:13:24.0000000+00:00</time></trkpt><trkpt lat="64.05653381" lon="-19.241745"><ele>584.2</ele><time>2012-07-22T00:13:29.0000000+00:00</time></trkpt><trkpt lat="64.05654144" lon="-19.24174881"><ele>584.3</ele><time>2012-07-22T00:13:34.0000000+00:00</time></trkpt><trkpt lat="64.05654144" lon="-19.24174309"><ele>584.4</ele><time>2012-07-22T00:13:39.0000000+00:00</time></trkpt><trkpt lat="64.05654144" lon="-19.24174881"><ele>584.4</ele><time>2012-07-22T00:13:44.0000000+00:00</time></trkpt><trkpt lat="64.05654144" lon="-19.2417469"><ele>584.5</ele><time>2012-07-22T00:13:49.0000000+00:00</time></trkpt><trkpt lat="64.05654144" lon="-19.2417469"><ele>584.5</ele><time>2012-07-22T00:13:54.0000000+00:00</time></trkpt><trkpt lat="64.05654907" lon="-19.24174309"><ele>584.5</ele><time>2012-07-22T00:13:59.0000000+00:00</time></trkpt><trkpt lat="64.05654144" lon="-19.24173546"><ele>584.5</ele><time>2012-07-22T00:14:04.0000000+00:00</time></trkpt><trkpt lat="64.05654907" lon="-19.24173546"><ele>584.5</ele><time>2012-07-22T00:14:09.0000000+00:00</time></trkpt><trkpt lat="64.0565567" lon="-19.24173737"><ele>584.6</ele><time>2012-07-22T00:14:14.0000000+00:00</time></trkpt><trkpt lat="64.05656433" lon="-19.24173164"><ele>584.8</ele><time>2012-07-22T00:14:19.0000000+00:00</time></trkpt><trkpt lat="64.05657196" lon="-19.24172401"><ele>584.9</ele><time>2012-07-22T00:14:24.0000000+00:00</time></trkpt><trkpt lat="64.05657196" lon="-19.24171257"><ele>585.0</ele><time>2012-07-22T00:14:29.0000000+00:00</time></trkpt><trkpt lat="64.05657959" lon="-19.24170494"><ele>585.0</ele><time>2012-07-22T00:14:34.0000000+00:00</time></trkpt><trkpt lat="64.05658722" lon="-19.2416935"><ele>585.1</ele><time>2012-07-22T00:14:39.0000000+00:00</time></trkpt><trkpt lat="64.05658722" lon="-19.24167061"><ele>585.1</ele><time>2012-07-22T00:14:44.0000000+00:00</time></trkpt><trkpt lat="64.05658722" lon="-19.24165344"><ele>585.1</ele><time>2012-07-22T00:14:49.0000000+00:00</time></trkpt><trkpt lat="64.05659485" lon="-19.24162865"><ele>585.1</ele><time>2012-07-22T00:14:54.0000000+00:00</time></trkpt><trkpt lat="64.05659485" lon="-19.24161339"><ele>585.0</ele><time>2012-07-22T00:14:59.0000000+00:00</time></trkpt><trkpt lat="64.05659485" lon="-19.24159622"><ele>585.0</ele><time>2012-07-22T00:15:04.0000000+00:00</time></trkpt><trkpt lat="64.05660248" lon="-19.24158287"><ele>585.0</ele><time>2012-07-22T00:15:09.0000000+00:00</time></trkpt><trkpt lat="64.05660248" lon="-19.24156761"><ele>585.0</ele><time>2012-07-22T00:15:14.0000000+00:00</time></trkpt><trkpt lat="64.05659485" lon="-19.24155998"><ele>584.9</ele><time>2012-07-22T00:15:19.0000000+00:00</time></trkpt><trkpt lat="64.05659485" lon="-19.24155235"><ele>584.9</ele><time>2012-07-22T00:15:24.0000000+00:00</time></trkpt><trkpt lat="64.05659485" lon="-19.24155426"><ele>584.9</ele><time>2012-07-22T00:15:29.0000000+00:00</time></trkpt><trkpt lat="64.05658722" lon="-19.24155998"><ele>584.8</ele><time>2012-07-22T00:15:34.0000000+00:00</time></trkpt><trkpt lat="64.05658722" lon="-19.24156761"><ele>584.8</ele><time>2012-07-22T00:15:39.0000000+00:00</time></trkpt><trkpt lat="64.05658722" lon="-19.24157906"><ele>584.7</ele><time>2012-07-22T00:15:44.0000000+00:00</time></trkpt><trkpt lat="64.05657959" lon="-19.24158669"><ele>584.7</ele><time>2012-07-22T00:15:49.0000000+00:00</time></trkpt><trkpt lat="64.05657959" lon="-19.24160004"><ele>584.7</ele><time>2012-07-22T00:15:54.0000000+00:00</time></trkpt><trkpt lat="64.05657196" lon="-19.24162102"><ele>584.7</ele><time>2012-07-22T00:15:59.0000000+00:00</time></trkpt><trkpt lat="64.05656433" lon="-19.2416172"><ele>584.7</ele><time>2012-07-22T00:16:04.0000000+00:00</time></trkpt><trkpt lat="64.05656433" lon="-19.24161911"><ele>584.6</ele><time>2012-07-22T00:16:09.0000000+00:00</time></trkpt><trkpt lat="64.05656433" lon="-19.24163246"><ele>584.6</ele><time>2012-07-22T00:16:14.0000000+00:00</time></trkpt><trkpt lat="64.05656433" lon="-19.24164963"><ele>584.6</ele><time>2012-07-22T00:16:19.0000000+00:00</time></trkpt><trkpt lat="64.0565567" lon="-19.24166107"><ele>584.5</ele><time>2012-07-22T00:16:24.0000000+00:00</time></trkpt><trkpt lat="64.0565567" lon="-19.24166679"><ele>584.5</ele><time>2012-07-22T00:16:29.0000000+00:00</time></trkpt><trkpt lat="64.0565567" lon="-19.24170113"><ele>584.5</ele><time>2012-07-22T00:16:34.0000000+00:00</time></trkpt><trkpt lat="64.0565567" lon="-19.24171829"><ele>584.5</ele><time>2012-07-22T00:16:39.0000000+00:00</time></trkpt><trkpt lat="64.0565567" lon="-19.24171829"><ele>584.5</ele><time>2012-07-22T00:16:44.0000000+00:00</time></trkpt><trkpt lat="64.05654907" lon="-19.24172211"><ele>584.5</ele><time>2012-07-22T00:16:49.0000000+00:00</time></trkpt><trkpt lat="64.05654907" lon="-19.24172401"><ele>584.5</ele><time>2012-07-22T00:16:54.0000000+00:00</time></trkpt><trkpt lat="64.05654907" lon="-19.24172974"><ele>584.5</ele><time>2012-07-22T00:16:59.0000000+00:00</time></trkpt><trkpt lat="64.05654907" lon="-19.24173927"><ele>584.5</ele><time>2012-07-22T00:17:04.0000000+00:00</time></trkpt><trkpt lat="64.05654907" lon="-19.241745"><ele>584.5</ele><time>2012-07-22T00:17:09.0000000+00:00</time></trkpt><trkpt lat="64.05654907" lon="-19.24174118"><ele>584.5</ele><time>2012-07-22T00:17:14.0000000+00:00</time></trkpt><trkpt lat="64.05654907" lon="-19.24172401"><ele>584.5</ele><time>2012-07-22T00:17:19.0000000+00:00</time></trkpt><trkpt lat="64.05654144" lon="-19.24171829"><ele>584.5</ele><time>2012-07-22T00:17:24.0000000+00:00</time></trkpt><trkpt lat="64.05654144" lon="-19.24171829"><ele>584.5</ele><time>2012-07-22T00:17:29.0000000+00:00</time></trkpt><trkpt lat="64.05654144" lon="-19.24170685"><ele>584.5</ele><time>2012-07-22T00:17:34.0000000+00:00</time></trkpt><trkpt lat="64.05653381" lon="-19.24170303"><ele>584.4</ele><time>2012-07-22T00:17:39.0000000+00:00</time></trkpt><trkpt lat="64.05653381" lon="-19.24170113"><ele>584.4</ele><time>2012-07-22T00:17:44.0000000+00:00</time></trkpt><trkpt lat="64.05653381" lon="-19.24171448"><ele>584.4</ele><time>2012-07-22T00:17:49.0000000+00:00</time></trkpt><trkpt lat="64.05653381" lon="-19.24172211"><ele>584.3</ele><time>2012-07-22T00:17:54.0000000+00:00</time></trkpt><trkpt lat="64.05653381" lon="-19.24172783"><ele>584.3</ele><time>2012-07-22T00:17:59.0000000+00:00</time></trkpt><trkpt lat="64.05654144" lon="-19.24173927"><ele>584.3</ele><time>2012-07-22T00:18:04.0000000+00:00</time></trkpt><trkpt lat="64.05653381" lon="-19.24175263"><ele>584.3</ele><time>2012-07-22T00:18:09.0000000+00:00</time></trkpt><trkpt lat="64.05653381" lon="-19.24175835"><ele>584.3</ele><time>2012-07-22T00:18:14.0000000+00:00</time></trkpt><trkpt lat="64.05653381" lon="-19.24176407"><ele>584.3</ele><time>2012-07-22T00:18:19.0000000+00:00</time></trkpt><trkpt lat="64.05653381" lon="-19.24176407"><ele>584.3</ele><time>2012-07-22T00:18:24.0000000+00:00</time></trkpt><trkpt lat="64.05653381" lon="-19.24176598"><ele>584.3</ele><time>2012-07-22T00:18:29.0000000+00:00</time></trkpt><trkpt lat="64.05653381" lon="-19.24175644"><ele>584.3</ele><time>2012-07-22T00:18:34.0000000+00:00</time></trkpt><trkpt lat="64.05653381" lon="-19.2417469"><ele>584.3</ele><time>2012-07-22T00:18:39.0000000+00:00</time></trkpt><trkpt lat="64.05653381" lon="-19.24175072"><ele>584.3</ele><time>2012-07-22T00:18:44.0000000+00:00</time></trkpt><trkpt lat="64.05653381" lon="-19.2417469"><ele>584.3</ele><time>2012-07-22T00:18:49.0000000+00:00</time></trkpt><trkpt lat="64.05653381" lon="-19.24176025"><ele>584.3</ele><time>2012-07-22T00:18:54.0000000+00:00</time></trkpt><trkpt lat="64.05653381" lon="-19.24176407"><ele>584.3</ele><time>2012-07-22T00:18:59.0000000+00:00</time></trkpt><trkpt lat="64.05653381" lon="-19.24176788"><ele>584.3</ele><time>2012-07-22T00:19:04.0000000+00:00</time></trkpt><trkpt lat="64.05653381" lon="-19.24176979"><ele>584.3</ele><time>2012-07-22T00:19:09.0000000+00:00</time></trkpt><trkpt lat="64.05653381" lon="-19.24176979"><ele>584.3</ele><time>2012-07-22T00:19:14.0000000+00:00</time></trkpt><trkpt lat="64.05653381" lon="-19.24177361"><ele>584.3</ele><time>2012-07-22T00:19:19.0000000+00:00</time></trkpt><trkpt lat="64.05654144" lon="-19.24177742"><ele>584.3</ele><time>2012-07-22T00:19:24.0000000+00:00</time></trkpt><trkpt lat="64.05654144" lon="-19.24178314"><ele>584.3</ele><time>2012-07-22T00:19:29.0000000+00:00</time></trkpt><trkpt lat="64.05654144" lon="-19.24177361"><ele>584.3</ele><time>2012-07-22T00:19:34.0000000+00:00</time></trkpt><trkpt lat="64.05654144" lon="-19.24176216"><ele>584.3</ele><time>2012-07-22T00:19:39.0000000+00:00</time></trkpt><trkpt lat="64.05654144" lon="-19.24175072"><ele>584.3</ele><time>2012-07-22T00:19:44.0000000+00:00</time></trkpt><trkpt lat="64.05654144" lon="-19.24174309"><ele>584.3</ele><time>2012-07-22T00:19:49.0000000+00:00</time></trkpt><trkpt lat="64.05654144" lon="-19.24173927"><ele>584.2</ele><time>2012-07-22T00:19:54.0000000+00:00</time></trkpt><trkpt lat="64.05654144" lon="-19.24173355"><ele>584.2</ele><time>2012-07-22T00:19:59.0000000+00:00</time></trkpt><trkpt lat="64.05654907" lon="-19.24172592"><ele>584.3</ele><time>2012-07-22T00:20:04.0000000+00:00</time></trkpt><trkpt lat="64.05654144" lon="-19.24172783"><ele>584.3</ele><time>2012-07-22T00:20:09.0000000+00:00</time></trkpt><trkpt lat="64.05654144" lon="-19.24172401"><ele>584.3</ele><time>2012-07-22T00:20:14.0000000+00:00</time></trkpt><trkpt lat="64.05654144" lon="-19.24172401"><ele>584.3</ele><time>2012-07-22T00:20:19.0000000+00:00</time></trkpt><trkpt lat="64.05654144" lon="-19.24172974"><ele>584.3</ele><time>2012-07-22T00:20:24.0000000+00:00</time></trkpt><trkpt lat="64.05654144" lon="-19.24173927"><ele>584.3</ele><time>2012-07-22T00:20:29.0000000+00:00</time></trkpt><trkpt lat="64.05654907" lon="-19.24174309"><ele>584.4</ele><time>2012-07-22T00:20:34.0000000+00:00</time></trkpt><trkpt lat="64.05654907" lon="-19.24173927"><ele>584.6</ele><time>2012-07-22T00:20:39.0000000+00:00</time></trkpt><trkpt lat="64.05654907" lon="-19.24173737"><ele>584.7</ele><time>2012-07-22T00:20:44.0000000+00:00</time></trkpt><trkpt lat="64.05654907" lon="-19.24173737"><ele>584.8</ele><time>2012-07-22T00:20:49.0000000+00:00</time></trkpt><trkpt lat="64.05654907" lon="-19.24173737"><ele>584.9</ele><time>2012-07-22T00:20:54.0000000+00:00</time></trkpt><trkpt lat="64.05654907" lon="-19.24173546"><ele>585.0</ele><time>2012-07-22T00:20:59.0000000+00:00</time></trkpt><trkpt lat="64.05654907" lon="-19.24173355"><ele>585.0</ele><time>2012-07-22T00:21:04.0000000+00:00</time></trkpt><trkpt lat="64.05654907" lon="-19.24173355"><ele>585.1</ele><time>2012-07-22T00:21:09.0000000+00:00</time></trkpt><trkpt lat="64.05654907" lon="-19.24173355"><ele>585.1</ele><time>2012-07-22T00:21:14.0000000+00:00</time></trkpt><trkpt lat="64.05654907" lon="-19.24173164"><ele>585.1</ele><time>2012-07-22T00:21:19.0000000+00:00</time></trkpt><trkpt lat="64.05654907" lon="-19.24173164"><ele>585.2</ele><time>2012-07-22T00:21:24.0000000+00:00</time></trkpt><trkpt lat="64.05654907" lon="-19.24173164"><ele>585.2</ele><time>2012-07-22T00:21:29.0000000+00:00</time></trkpt><trkpt lat="64.05654907" lon="-19.24173164"><ele>585.3</ele><time>2012-07-22T00:21:34.0000000+00:00</time></trkpt><trkpt lat="64.05654907" lon="-19.24173164"><ele>585.3</ele><time>2012-07-22T00:21:39.0000000+00:00</time></trkpt><trkpt lat="64.05654907" lon="-19.24173164"><ele>585.3</ele><time>2012-07-22T00:21:44.0000000+00:00</time></trkpt><trkpt lat="64.05654907" lon="-19.24172974"><ele>585.3</ele><time>2012-07-22T00:21:49.0000000+00:00</time></trkpt><trkpt lat="64.05654907" lon="-19.24172974"><ele>585.4</ele><time>2012-07-22T00:21:54.0000000+00:00</time></trkpt><trkpt lat="64.05654907" lon="-19.24172974"><ele>585.4</ele><time>2012-07-22T00:21:59.0000000+00:00</time></trkpt><trkpt lat="64.05654907" lon="-19.24172783"><ele>585.4</ele><time>2012-07-22T00:22:04.0000000+00:00</time></trkpt><trkpt lat="64.05654907" lon="-19.24172783"><ele>585.5</ele><time>2012-07-22T00:22:09.0000000+00:00</time></trkpt><trkpt lat="64.05654907" lon="-19.24172592"><ele>585.5</ele><time>2012-07-22T00:22:14.0000000+00:00</time></trkpt><trkpt lat="64.05654907" lon="-19.24172592"><ele>585.5</ele><time>2012-07-22T00:22:19.0000000+00:00</time></trkpt><trkpt lat="64.05654907" lon="-19.24172592"><ele>585.5</ele><time>2012-07-22T00:22:24.0000000+00:00</time></trkpt><trkpt lat="64.05654907" lon="-19.24172401"><ele>585.6</ele><time>2012-07-22T00:22:29.0000000+00:00</time></trkpt><trkpt lat="64.05654907" lon="-19.24172401"><ele>585.6</ele><time>2012-07-22T00:22:34.0000000+00:00</time></trkpt><trkpt lat="64.05654907" lon="-19.24172401"><ele>585.6</ele><time>2012-07-22T00:22:39.0000000+00:00</time></trkpt><trkpt lat="64.05654907" lon="-19.24172401"><ele>585.6</ele><time>2012-07-22T00:22:44.0000000+00:00</time></trkpt><trkpt lat="64.05654907" lon="-19.24172211"><ele>585.7</ele><time>2012-07-22T00:22:49.0000000+00:00</time></trkpt><trkpt lat="64.05654907" lon="-19.24172211"><ele>585.7</ele><time>2012-07-22T00:22:54.0000000+00:00</time></trkpt><trkpt lat="64.05654907" lon="-19.24172211"><ele>585.7</ele><time>2012-07-22T00:22:59.0000000+00:00</time></trkpt><trkpt lat="64.05654907" lon="-19.2417202"><ele>585.8</ele><time>2012-07-22T00:23:04.0000000+00:00</time></trkpt><trkpt lat="64.05654907" lon="-19.2417202"><ele>585.8</ele><time>2012-07-22T00:23:09.0000000+00:00</time></trkpt><trkpt lat="64.05654907" lon="-19.2417202"><ele>585.8</ele><time>2012-07-22T00:23:14.0000000+00:00</time></trkpt><trkpt lat="64.05654907" lon="-19.2417202"><ele>585.8</ele><time>2012-07-22T00:23:19.0000000+00:00</time></trkpt><trkpt lat="64.0565567" lon="-19.2417202"><ele>585.9</ele><time>2012-07-22T00:23:24.0000000+00:00</time></trkpt><trkpt lat="64.0565567" lon="-19.24171829"><ele>585.9</ele><time>2012-07-22T00:23:29.0000000+00:00</time></trkpt><trkpt lat="64.0565567" lon="-19.24171829"><ele>585.9</ele><time>2012-07-22T00:23:34.0000000+00:00</time></trkpt><trkpt lat="64.0565567" lon="-19.24171829"><ele>585.9</ele><time>2012-07-22T00:23:39.0000000+00:00</time></trkpt><trkpt lat="64.0565567" lon="-19.24171829"><ele>585.9</ele><time>2012-07-22T00:23:44.0000000+00:00</time></trkpt><trkpt lat="64.0565567" lon="-19.24171639"><ele>586.0</ele><time>2012-07-22T00:23:49.0000000+00:00</time></trkpt><trkpt lat="64.0565567" lon="-19.24171639"><ele>586.0</ele><time>2012-07-22T00:23:54.0000000+00:00</time></trkpt><trkpt lat="64.0565567" lon="-19.24171639"><ele>586.0</ele><time>2012-07-22T00:23:59.0000000+00:00</time></trkpt><trkpt lat="64.0565567" lon="-19.24171448"><ele>586.0</ele><time>2012-07-22T00:24:04.0000000+00:00</time></trkpt><trkpt lat="64.0565567" lon="-19.24171448"><ele>586.0</ele><time>2012-07-22T00:24:09.0000000+00:00</time></trkpt><trkpt lat="64.0565567" lon="-19.24171448"><ele>586.0</ele><time>2012-07-22T00:24:14.0000000+00:00</time></trkpt><trkpt lat="64.0565567" lon="-19.24171448"><ele>586.1</ele><time>2012-07-22T00:24:19.0000000+00:00</time></trkpt><trkpt lat="64.0565567" lon="-19.24171257"><ele>586.1</ele><time>2012-07-22T00:24:24.0000000+00:00</time></trkpt><trkpt lat="64.05654907" lon="-19.24170113"><ele>586.1</ele><time>2012-07-22T00:24:29.0000000+00:00</time></trkpt><trkpt lat="64.05654907" lon="-19.24169922"><ele>586.1</ele><time>2012-07-22T00:24:34.0000000+00:00</time></trkpt><trkpt lat="64.05654907" lon="-19.24170113"><ele>586.2</ele><time>2012-07-22T00:24:39.0000000+00:00</time></trkpt><trkpt lat="64.05653381" lon="-19.24173737"><ele>586.6</ele><time>2012-07-22T00:24:44.0000000+00:00</time></trkpt><trkpt lat="64.0565033" lon="-19.24179459"><ele>587.6</ele><time>2012-07-22T00:24:49.0000000+00:00</time></trkpt><trkpt lat="64.05646515" lon="-19.24184418"><ele>588.0</ele><time>2012-07-22T00:24:54.0000000+00:00</time></trkpt><trkpt lat="64.05640411" lon="-19.24191856"><ele>588.7</ele><time>2012-07-22T00:24:59.0000000+00:00</time></trkpt><trkpt lat="64.05641174" lon="-19.2420826"><ele>588.0</ele><time>2012-07-22T00:25:04.0000000+00:00</time></trkpt><trkpt lat="64.05645752" lon="-19.24228859"><ele>586.7</ele><time>2012-07-22T00:25:09.0000000+00:00</time></trkpt><trkpt lat="64.05647278" lon="-19.24239922"><ele>587.3</ele><time>2012-07-22T00:25:14.0000000+00:00</time></trkpt><trkpt lat="64.05648041" lon="-19.24240685"><ele>588.8</ele><time>2012-07-22T00:25:19.0000000+00:00</time></trkpt><trkpt lat="64.05648041" lon="-19.24240685"><ele>588.8</ele><time>2012-07-22T00:25:24.0000000+00:00</time></trkpt><trkpt lat="64.05648041" lon="-19.24240685"><ele>588.8</ele><time>2012-07-22T00:25:29.0000000+00:00</time></trkpt><trkpt lat="64.05648041" lon="-19.24240494"><ele>588.8</ele><time>2012-07-22T00:25:34.0000000+00:00</time></trkpt><trkpt lat="64.05647278" lon="-19.24237061"><ele>588.0</ele><time>2012-07-22T00:25:39.0000000+00:00</time></trkpt><trkpt lat="64.05648804" lon="-19.24230766"><ele>587.9</ele><time>2012-07-22T00:25:44.0000000+00:00</time></trkpt><trkpt lat="64.05648804" lon="-19.24228668"><ele>589.1</ele><time>2012-07-22T00:25:49.0000000+00:00</time></trkpt><trkpt lat="64.05647278" lon="-19.24230194"><ele>590.0</ele><time>2012-07-22T00:25:54.0000000+00:00</time></trkpt><trkpt lat="64.05647278" lon="-19.24229813"><ele>590.1</ele><time>2012-07-22T00:25:59.0000000+00:00</time></trkpt><trkpt lat="64.05648804" lon="-19.24235916"><ele>591.2</ele><time>2012-07-22T00:26:04.0000000+00:00</time></trkpt><trkpt lat="64.05651856" lon="-19.2424221"><ele>593.1</ele><time>2012-07-22T00:26:09.0000000+00:00</time></trkpt><trkpt lat="64.05654907" lon="-19.24252701"><ele>594.3</ele><time>2012-07-22T00:26:14.0000000+00:00</time></trkpt><trkpt lat="64.05657196" lon="-19.2426033"><ele>594.5</ele><time>2012-07-22T00:26:19.0000000+00:00</time></trkpt><trkpt lat="64.05659485" lon="-19.24267387"><ele>595.1</ele><time>2012-07-22T00:26:24.0000000+00:00</time></trkpt><trkpt lat="64.05664063" lon="-19.24276352"><ele>596.9</ele><time>2012-07-22T00:26:29.0000000+00:00</time></trkpt><trkpt lat="64.05666351" lon="-19.2428112"><ele>598.0</ele><time>2012-07-22T00:26:34.0000000+00:00</time></trkpt><trkpt lat="64.05665588" lon="-19.2428093"><ele>600.1</ele><time>2012-07-22T00:26:39.0000000+00:00</time></trkpt><trkpt lat="64.05665588" lon="-19.2428093"><ele>600.0</ele><time>2012-07-22T00:26:44.0000000+00:00</time></trkpt><trkpt lat="64.05665588" lon="-19.24280739"><ele>600.0</ele><time>2012-07-22T00:26:49.0000000+00:00</time></trkpt><trkpt lat="64.05665588" lon="-19.24280739"><ele>600.1</ele><time>2012-07-22T00:26:54.0000000+00:00</time></trkpt><trkpt lat="64.05665588" lon="-19.24280357"><ele>600.1</ele><time>2012-07-22T00:26:59.0000000+00:00</time></trkpt><trkpt lat="64.05665588" lon="-19.24279785"><ele>600.0</ele><time>2012-07-22T00:27:04.0000000+00:00</time></trkpt><trkpt lat="64.05666351" lon="-19.24285889"><ele>597.4</ele><time>2012-07-22T00:27:09.0000000+00:00</time></trkpt><trkpt lat="64.05666351" lon="-19.24286842"><ele>596.8</ele><time>2012-07-22T00:27:14.0000000+00:00</time></trkpt><trkpt lat="64.05665588" lon="-19.24286842"><ele>596.8</ele><time>2012-07-22T00:27:19.0000000+00:00</time></trkpt><trkpt lat="64.05666351" lon="-19.24286842"><ele>596.8</ele><time>2012-07-22T00:27:24.0000000+00:00</time></trkpt><trkpt lat="64.05666351" lon="-19.24286652"><ele>596.8</ele><time>2012-07-22T00:27:29.0000000+00:00</time></trkpt><trkpt lat="64.05670929" lon="-19.24293518"><ele>596.8</ele><time>2012-07-22T00:27:34.0000000+00:00</time></trkpt><trkpt lat="64.05675507" lon="-19.24304771"><ele>596.7</ele><time>2012-07-22T00:27:39.0000000+00:00</time></trkpt><trkpt lat="64.05679321" lon="-19.24316979"><ele>597.1</ele><time>2012-07-22T00:27:44.0000000+00:00</time></trkpt><trkpt lat="64.05683899" lon="-19.24326706"><ele>598.0</ele><time>2012-07-22T00:27:49.0000000+00:00</time></trkpt><trkpt lat="64.0568924" lon="-19.24339294"><ele>598.8</ele><time>2012-07-22T00:27:54.0000000+00:00</time></trkpt><trkpt lat="64.05691528" lon="-19.24352455"><ele>599.2</ele><time>2012-07-22T00:27:59.0000000+00:00</time></trkpt><trkpt lat="64.05693817" lon="-19.24362373"><ele>599.0</ele><time>2012-07-22T00:28:04.0000000+00:00</time></trkpt><trkpt lat="64.05697632" lon="-19.2437191"><ele>598.3</ele><time>2012-07-22T00:28:09.0000000+00:00</time></trkpt><trkpt lat="64.05703735" lon="-19.24382401"><ele>598.9</ele><time>2012-07-22T00:28:14.0000000+00:00</time></trkpt><trkpt lat="64.05709076" lon="-19.24386597"><ele>598.4</ele><time>2012-07-22T00:28:19.0000000+00:00</time></trkpt><trkpt lat="64.05711365" lon="-19.24389648"><ele>598.5</ele><time>2012-07-22T00:28:24.0000000+00:00</time></trkpt><trkpt lat="64.05711365" lon="-19.24389839"><ele>599.9</ele><time>2012-07-22T00:28:29.0000000+00:00</time></trkpt><trkpt lat="64.05711365" lon="-19.24391556"><ele>601.3</ele><time>2012-07-22T00:28:34.0000000+00:00</time></trkpt><trkpt lat="64.05709839" lon="-19.24391174"><ele>601.8</ele><time>2012-07-22T00:28:39.0000000+00:00</time></trkpt><trkpt lat="64.05711365" lon="-19.24391937"><ele>602.9</ele><time>2012-07-22T00:28:44.0000000+00:00</time></trkpt><trkpt lat="64.05714417" lon="-19.24386978"><ele>603.6</ele><time>2012-07-22T00:28:49.0000000+00:00</time></trkpt><trkpt lat="64.05716705" lon="-19.24385834"><ele>603.7</ele><time>2012-07-22T00:28:54.0000000+00:00</time></trkpt><trkpt lat="64.05718231" lon="-19.24387741"><ele>604.1</ele><time>2012-07-22T00:28:59.0000000+00:00</time></trkpt><trkpt lat="64.05719757" lon="-19.24388313"><ele>604.3</ele><time>2012-07-22T00:29:04.0000000+00:00</time></trkpt><trkpt lat="64.05721283" lon="-19.2438755"><ele>604.5</ele><time>2012-07-22T00:29:09.0000000+00:00</time></trkpt><trkpt lat="64.05723572" lon="-19.24385452"><ele>604.8</ele><time>2012-07-22T00:29:14.0000000+00:00</time></trkpt><trkpt lat="64.05723572" lon="-19.24385452"><ele>605.0</ele><time>2012-07-22T00:29:19.0000000+00:00</time></trkpt><trkpt lat="64.05723572" lon="-19.2438488"><ele>605.2</ele><time>2012-07-22T00:29:24.0000000+00:00</time></trkpt><trkpt lat="64.05723572" lon="-19.24385262"><ele>605.3</ele><time>2012-07-22T00:29:29.0000000+00:00</time></trkpt><trkpt lat="64.05722046" lon="-19.24386215"><ele>605.5</ele><time>2012-07-22T00:29:34.0000000+00:00</time></trkpt><trkpt lat="64.05722046" lon="-19.24386787"><ele>605.7</ele><time>2012-07-22T00:29:39.0000000+00:00</time></trkpt><trkpt lat="64.0572052" lon="-19.2438755"><ele>605.8</ele><time>2012-07-22T00:29:44.0000000+00:00</time></trkpt><trkpt lat="64.05718994" lon="-19.24389076"><ele>605.7</ele><time>2012-07-22T00:29:49.0000000+00:00</time></trkpt><trkpt lat="64.05718994" lon="-19.24389839"><ele>606.0</ele><time>2012-07-22T00:29:54.0000000+00:00</time></trkpt><trkpt lat="64.05717468" lon="-19.24393654"><ele>606.3</ele><time>2012-07-22T00:29:59.0000000+00:00</time></trkpt><trkpt lat="64.05718231" lon="-19.24395561"><ele>606.3</ele><time>2012-07-22T00:30:04.0000000+00:00</time></trkpt><trkpt lat="64.05717468" lon="-19.24395752"><ele>606.4</ele><time>2012-07-22T00:30:09.0000000+00:00</time></trkpt><trkpt lat="64.05718231" lon="-19.243927"><ele>606.5</ele><time>2012-07-22T00:30:14.0000000+00:00</time></trkpt><trkpt lat="64.05715942" lon="-19.24391937"><ele>606.3</ele><time>2012-07-22T00:30:19.0000000+00:00</time></trkpt><trkpt lat="64.05715179" lon="-19.24393463"><ele>606.1</ele><time>2012-07-22T00:30:24.0000000+00:00</time></trkpt><trkpt lat="64.05714417" lon="-19.24396133"><ele>606.0</ele><time>2012-07-22T00:30:29.0000000+00:00</time></trkpt><trkpt lat="64.05715179" lon="-19.24394417"><ele>606.1</ele><time>2012-07-22T00:30:34.0000000+00:00</time></trkpt><trkpt lat="64.05716705" lon="-19.24388313"><ele>606.7</ele><time>2012-07-22T00:30:39.0000000+00:00</time></trkpt><trkpt lat="64.05716705" lon="-19.24386406"><ele>606.9</ele><time>2012-07-22T00:30:44.0000000+00:00</time></trkpt><trkpt lat="64.05717468" lon="-19.24384308"><ele>607.1</ele><time>2012-07-22T00:30:49.0000000+00:00</time></trkpt><trkpt lat="64.05718231" lon="-19.24382401"><ele>607.3</ele><time>2012-07-22T00:30:54.0000000+00:00</time></trkpt><trkpt lat="64.05718994" lon="-19.24381065"><ele>607.5</ele><time>2012-07-22T00:30:59.0000000+00:00</time></trkpt><trkpt lat="64.0572052" lon="-19.24380112"><ele>607.6</ele><time>2012-07-22T00:31:04.0000000+00:00</time></trkpt><trkpt lat="64.05721283" lon="-19.24378586"><ele>607.8</ele><time>2012-07-22T00:31:09.0000000+00:00</time></trkpt><trkpt lat="64.05721283" lon="-19.24378204"><ele>608.0</ele><time>2012-07-22T00:31:14.0000000+00:00</time></trkpt><trkpt lat="64.05722046" lon="-19.24378204"><ele>608.2</ele><time>2012-07-22T00:31:19.0000000+00:00</time></trkpt><trkpt lat="64.05722046" lon="-19.24378777"><ele>608.3</ele><time>2012-07-22T00:31:24.0000000+00:00</time></trkpt><trkpt lat="64.05721283" lon="-19.24378967"><ele>608.4</ele><time>2012-07-22T00:31:29.0000000+00:00</time></trkpt><trkpt lat="64.05721283" lon="-19.24378967"><ele>608.4</ele><time>2012-07-22T00:31:34.0000000+00:00</time></trkpt><trkpt lat="64.05721283" lon="-19.24378967"><ele>608.4</ele><time>2012-07-22T00:31:39.0000000+00:00</time></trkpt><trkpt lat="64.05721283" lon="-19.24379158"><ele>608.4</ele><time>2012-07-22T00:31:44.0000000+00:00</time></trkpt><trkpt lat="64.05721283" lon="-19.24379349"><ele>608.4</ele><time>2012-07-22T00:31:49.0000000+00:00</time></trkpt><trkpt lat="64.05721283" lon="-19.24379349"><ele>608.4</ele><time>2012-07-22T00:31:54.0000000+00:00</time></trkpt><trkpt lat="64.05721283" lon="-19.24379349"><ele>608.4</ele><time>2012-07-22T00:31:59.0000000+00:00</time></trkpt><trkpt lat="64.05721283" lon="-19.24379349"><ele>608.3</ele><time>2012-07-22T00:32:04.0000000+00:00</time></trkpt><trkpt lat="64.05721283" lon="-19.2437954"><ele>608.3</ele><time>2012-07-22T00:32:09.0000000+00:00</time></trkpt><trkpt lat="64.05721283" lon="-19.2437954"><ele>608.3</ele><time>2012-07-22T00:32:14.0000000+00:00</time></trkpt><trkpt lat="64.05721283" lon="-19.2437973"><ele>608.3</ele><time>2012-07-22T00:32:19.0000000+00:00</time></trkpt><trkpt lat="64.05721283" lon="-19.2437973"><ele>608.3</ele><time>2012-07-22T00:32:24.0000000+00:00</time></trkpt><trkpt lat="64.05721283" lon="-19.2437973"><ele>608.2</ele><time>2012-07-22T00:32:29.0000000+00:00</time></trkpt><trkpt lat="64.05721283" lon="-19.24379921"><ele>608.2</ele><time>2012-07-22T00:32:34.0000000+00:00</time></trkpt><trkpt lat="64.05721283" lon="-19.24379921"><ele>608.1</ele><time>2012-07-22T00:32:39.0000000+00:00</time></trkpt><trkpt lat="64.0572052" lon="-19.24380112"><ele>608.1</ele><time>2012-07-22T00:32:44.0000000+00:00</time></trkpt><trkpt lat="64.0572052" lon="-19.24380112"><ele>608.0</ele><time>2012-07-22T00:32:49.0000000+00:00</time></trkpt><trkpt lat="64.0572052" lon="-19.24380112"><ele>608.0</ele><time>2012-07-22T00:32:54.0000000+00:00</time></trkpt><trkpt lat="64.0572052" lon="-19.24380112"><ele>608.0</ele><time>2012-07-22T00:32:59.0000000+00:00</time></trkpt><trkpt lat="64.0572052" lon="-19.24380302"><ele>608.0</ele><time>2012-07-22T00:33:04.0000000+00:00</time></trkpt><trkpt lat="64.0572052" lon="-19.24380302"><ele>607.9</ele><time>2012-07-22T00:33:09.0000000+00:00</time></trkpt><trkpt lat="64.0572052" lon="-19.24380302"><ele>607.9</ele><time>2012-07-22T00:33:14.0000000+00:00</time></trkpt><trkpt lat="64.0572052" lon="-19.24380302"><ele>607.9</ele><time>2012-07-22T00:33:19.0000000+00:00</time></trkpt><trkpt lat="64.0572052" lon="-19.24380302"><ele>607.9</ele><time>2012-07-22T00:33:24.0000000+00:00</time></trkpt><trkpt lat="64.0572052" lon="-19.24380302"><ele>607.9</ele><time>2012-07-22T00:33:29.0000000+00:00</time></trkpt><trkpt lat="64.0572052" lon="-19.24380302"><ele>607.9</ele><time>2012-07-22T00:33:34.0000000+00:00</time></trkpt><trkpt lat="64.0572052" lon="-19.24380302"><ele>607.9</ele><time>2012-07-22T00:33:39.0000000+00:00</time></trkpt><trkpt lat="64.0572052" lon="-19.24380302"><ele>607.9</ele><time>2012-07-22T00:33:44.0000000+00:00</time></trkpt><trkpt lat="64.0572052" lon="-19.24380302"><ele>607.9</ele><time>2012-07-22T00:33:49.0000000+00:00</time></trkpt><trkpt lat="64.0572052" lon="-19.24380302"><ele>607.8</ele><time>2012-07-22T00:33:54.0000000+00:00</time></trkpt><trkpt lat="64.0572052" lon="-19.24380302"><ele>607.8</ele><time>2012-07-22T00:33:59.0000000+00:00</time></trkpt><trkpt lat="64.0572052" lon="-19.24380302"><ele>607.8</ele><time>2012-07-22T00:34:04.0000000+00:00</time></trkpt><trkpt lat="64.0572052" lon="-19.24380302"><ele>607.8</ele><time>2012-07-22T00:34:09.0000000+00:00</time></trkpt><trkpt lat="64.0572052" lon="-19.24380302"><ele>607.8</ele><time>2012-07-22T00:34:14.0000000+00:00</time></trkpt><trkpt lat="64.0572052" lon="-19.24380302"><ele>607.8</ele><time>2012-07-22T00:34:19.0000000+00:00</time></trkpt><trkpt lat="64.0572052" lon="-19.24380112"><ele>607.8</ele><time>2012-07-22T00:34:24.0000000+00:00</time></trkpt><trkpt lat="64.0572052" lon="-19.24380112"><ele>607.7</ele><time>2012-07-22T00:34:29.0000000+00:00</time></trkpt><trkpt lat="64.0572052" lon="-19.24380112"><ele>607.7</ele><time>2012-07-22T00:34:34.0000000+00:00</time></trkpt><trkpt lat="64.0572052" lon="-19.24380112"><ele>607.7</ele><time>2012-07-22T00:34:39.0000000+00:00</time></trkpt><trkpt lat="64.0572052" lon="-19.24380112"><ele>607.7</ele><time>2012-07-22T00:34:44.0000000+00:00</time></trkpt><trkpt lat="64.0572052" lon="-19.24380112"><ele>607.7</ele><time>2012-07-22T00:34:49.0000000+00:00</time></trkpt><trkpt lat="64.0572052" lon="-19.24380302"><ele>607.8</ele><time>2012-07-22T00:34:54.0000000+00:00</time></trkpt><trkpt lat="64.0572052" lon="-19.24380302"><ele>607.7</ele><time>2012-07-22T00:34:59.0000000+00:00</time></trkpt><trkpt lat="64.0572052" lon="-19.24380302"><ele>607.7</ele><time>2012-07-22T00:35:04.0000000+00:00</time></trkpt><trkpt lat="64.0572052" lon="-19.24380302"><ele>607.7</ele><time>2012-07-22T00:35:09.0000000+00:00</time></trkpt><trkpt lat="64.0572052" lon="-19.24380493"><ele>607.8</ele><time>2012-07-22T00:35:14.0000000+00:00</time></trkpt><trkpt lat="64.0572052" lon="-19.24380493"><ele>607.8</ele><time>2012-07-22T00:35:19.0000000+00:00</time></trkpt><trkpt lat="64.0572052" lon="-19.24380493"><ele>607.8</ele><time>2012-07-22T00:35:24.0000000+00:00</time></trkpt><trkpt lat="64.0572052" lon="-19.24380493"><ele>607.8</ele><time>2012-07-22T00:35:29.0000000+00:00</time></trkpt><trkpt lat="64.0572052" lon="-19.24380493"><ele>607.8</ele><time>2012-07-22T00:35:34.0000000+00:00</time></trkpt><trkpt lat="64.0572052" lon="-19.24380493"><ele>607.8</ele><time>2012-07-22T00:35:39.0000000+00:00</time></trkpt><trkpt lat="64.0572052" lon="-19.24380493"><ele>607.8</ele><time>2012-07-22T00:35:44.0000000+00:00</time></trkpt><trkpt lat="64.0572052" lon="-19.24380684"><ele>607.8</ele><time>2012-07-22T00:35:49.0000000+00:00</time></trkpt><trkpt lat="64.0572052" lon="-19.24380684"><ele>607.8</ele><time>2012-07-22T00:35:54.0000000+00:00</time></trkpt><trkpt lat="64.0572052" lon="-19.24380875"><ele>607.8</ele><time>2012-07-22T00:35:59.0000000+00:00</time></trkpt><trkpt lat="64.0572052" lon="-19.24380875"><ele>607.8</ele><time>2012-07-22T00:36:04.0000000+00:00</time></trkpt><trkpt lat="64.0572052" lon="-19.24380875"><ele>607.9</ele><time>2012-07-22T00:36:09.0000000+00:00</time></trkpt><trkpt lat="64.0572052" lon="-19.24381065"><ele>607.9</ele><time>2012-07-22T00:36:14.0000000+00:00</time></trkpt><trkpt lat="64.05719757" lon="-19.24381065"><ele>607.9</ele><time>2012-07-22T00:36:19.0000000+00:00</time></trkpt><trkpt lat="64.05719757" lon="-19.24381065"><ele>607.9</ele><time>2012-07-22T00:36:24.0000000+00:00</time></trkpt><trkpt lat="64.05719757" lon="-19.24381065"><ele>607.9</ele><time>2012-07-22T00:36:29.0000000+00:00</time></trkpt><trkpt lat="64.05719757" lon="-19.24380875"><ele>607.8</ele><time>2012-07-22T00:36:34.0000000+00:00</time></trkpt><trkpt lat="64.05719757" lon="-19.24380875"><ele>607.8</ele><time>2012-07-22T00:36:39.0000000+00:00</time></trkpt><trkpt lat="64.05719757" lon="-19.24380875"><ele>607.8</ele><time>2012-07-22T00:36:44.0000000+00:00</time></trkpt><trkpt lat="64.05719757" lon="-19.24380684"><ele>607.7</ele><time>2012-07-22T00:36:49.0000000+00:00</time></trkpt><trkpt lat="64.05719757" lon="-19.24380684"><ele>607.8</ele><time>2012-07-22T00:36:54.0000000+00:00</time></trkpt><trkpt lat="64.05719757" lon="-19.24380684"><ele>607.7</ele><time>2012-07-22T00:36:59.0000000+00:00</time></trkpt><trkpt lat="64.05719757" lon="-19.24380493"><ele>607.7</ele><time>2012-07-22T00:37:04.0000000+00:00</time></trkpt><trkpt lat="64.05719757" lon="-19.24380493"><ele>607.7</ele><time>2012-07-22T00:37:09.0000000+00:00</time></trkpt><trkpt lat="64.05719757" lon="-19.24380493"><ele>607.7</ele><time>2012-07-22T00:37:14.0000000+00:00</time></trkpt><trkpt lat="64.05719757" lon="-19.24380302"><ele>607.6</ele><time>2012-07-22T00:37:19.0000000+00:00</time></trkpt><trkpt lat="64.05719757" lon="-19.24380302"><ele>607.6</ele><time>2012-07-22T00:37:24.0000000+00:00</time></trkpt><trkpt lat="64.05719757" lon="-19.24380302"><ele>607.5</ele><time>2012-07-22T00:37:29.0000000+00:00</time></trkpt><trkpt lat="64.05719757" lon="-19.24380302"><ele>607.5</ele><time>2012-07-22T00:37:34.0000000+00:00</time></trkpt><trkpt lat="64.05719757" lon="-19.24380302"><ele>607.5</ele><time>2012-07-22T00:37:39.0000000+00:00</time></trkpt><trkpt lat="64.05719757" lon="-19.24380302"><ele>607.4</ele><time>2012-07-22T00:37:44.0000000+00:00</time></trkpt><trkpt lat="64.05719757" lon="-19.24380302"><ele>607.4</ele><time>2012-07-22T00:37:49.0000000+00:00</time></trkpt><trkpt lat="64.05719757" lon="-19.24380302"><ele>607.4</ele><time>2012-07-22T00:37:54.0000000+00:00</time></trkpt><trkpt lat="64.05719757" lon="-19.24380302"><ele>607.3</ele><time>2012-07-22T00:37:59.0000000+00:00</time></trkpt><trkpt lat="64.05719757" lon="-19.24380302"><ele>607.3</ele><time>2012-07-22T00:38:04.0000000+00:00</time></trkpt><trkpt lat="64.05719757" lon="-19.24380302"><ele>607.2</ele><time>2012-07-22T00:38:09.0000000+00:00</time></trkpt><trkpt lat="64.05719757" lon="-19.24380302"><ele>607.2</ele><time>2012-07-22T00:38:14.0000000+00:00</time></trkpt><trkpt lat="64.05719757" lon="-19.24380302"><ele>607.2</ele><time>2012-07-22T00:38:19.0000000+00:00</time></trkpt><trkpt lat="64.05719757" lon="-19.24380493"><ele>607.2</ele><time>2012-07-22T00:38:24.0000000+00:00</time></trkpt><trkpt lat="64.05719757" lon="-19.24380493"><ele>607.1</ele><time>2012-07-22T00:38:29.0000000+00:00</time></trkpt><trkpt lat="64.05719757" lon="-19.24380684"><ele>607.1</ele><time>2012-07-22T00:38:34.0000000+00:00</time></trkpt><trkpt lat="64.05719757" lon="-19.24380684"><ele>607.1</ele><time>2012-07-22T00:38:39.0000000+00:00</time></trkpt><trkpt lat="64.05719757" lon="-19.24380684"><ele>607.0</ele><time>2012-07-22T00:38:44.0000000+00:00</time></trkpt><trkpt lat="64.05718994" lon="-19.24381447"><ele>606.7</ele><time>2012-07-22T00:38:49.0000000+00:00</time></trkpt><trkpt lat="64.05718994" lon="-19.24384117"><ele>605.4</ele><time>2012-07-22T00:38:54.0000000+00:00</time></trkpt><trkpt lat="64.05718994" lon="-19.24383164"><ele>604.8</ele><time>2012-07-22T00:38:59.0000000+00:00</time></trkpt><trkpt lat="64.0572052" lon="-19.24381447"><ele>604.3</ele><time>2012-07-22T00:39:04.0000000+00:00</time></trkpt><trkpt lat="64.0572052" lon="-19.24381828"><ele>604.3</ele><time>2012-07-22T00:39:09.0000000+00:00</time></trkpt><trkpt lat="64.05719757" lon="-19.24382401"><ele>604.2</ele><time>2012-07-22T00:39:14.0000000+00:00</time></trkpt><trkpt lat="64.05719757" lon="-19.24383164"><ele>604.0</ele><time>2012-07-22T00:39:19.0000000+00:00</time></trkpt><trkpt lat="64.05717468" lon="-19.24383736"><ele>603.5</ele><time>2012-07-22T00:39:24.0000000+00:00</time></trkpt><trkpt lat="64.05715179" lon="-19.24383545"><ele>605.4</ele><time>2012-07-22T00:39:29.0000000+00:00</time></trkpt><trkpt lat="64.05712891" lon="-19.2438221"><ele>608.0</ele><time>2012-07-22T00:39:34.0000000+00:00</time></trkpt><trkpt lat="64.05711365" lon="-19.24381256"><ele>608.8</ele><time>2012-07-22T00:39:39.0000000+00:00</time></trkpt><trkpt lat="64.05710602" lon="-19.24376106"><ele>609.6</ele><time>2012-07-22T00:39:44.0000000+00:00</time></trkpt><trkpt lat="64.05710602" lon="-19.24375725"><ele>610.9</ele><time>2012-07-22T00:39:49.0000000+00:00</time></trkpt><trkpt lat="64.05710602" lon="-19.24377251"><ele>612.5</ele><time>2012-07-22T00:39:54.0000000+00:00</time></trkpt><trkpt lat="64.05712128" lon="-19.24375916"><ele>613.5</ele><time>2012-07-22T00:39:59.0000000+00:00</time></trkpt><trkpt lat="64.05712128" lon="-19.24373436"><ele>615.2</ele><time>2012-07-22T00:40:04.0000000+00:00</time></trkpt><trkpt lat="64.05712128" lon="-19.24372673"><ele>615.7</ele><time>2012-07-22T00:40:09.0000000+00:00</time></trkpt><trkpt lat="64.05712891" lon="-19.2437191"><ele>616.2</ele><time>2012-07-22T00:40:14.0000000+00:00</time></trkpt><trkpt lat="64.05712891" lon="-19.24371719"><ele>616.6</ele><time>2012-07-22T00:40:19.0000000+00:00</time></trkpt><trkpt lat="64.05712891" lon="-19.24371529"><ele>617.1</ele><time>2012-07-22T00:40:24.0000000+00:00</time></trkpt><trkpt lat="64.05712891" lon="-19.24371529"><ele>617.6</ele><time>2012-07-22T00:40:29.0000000+00:00</time></trkpt><trkpt lat="64.05712891" lon="-19.24371719"><ele>618.0</ele><time>2012-07-22T00:40:34.0000000+00:00</time></trkpt><trkpt lat="64.05712891" lon="-19.24372101"><ele>618.4</ele><time>2012-07-22T00:40:39.0000000+00:00</time></trkpt><trkpt lat="64.05712891" lon="-19.24372101"><ele>618.4</ele><time>2012-07-22T00:40:44.0000000+00:00</time></trkpt><trkpt lat="64.05712891" lon="-19.24372101"><ele>618.4</ele><time>2012-07-22T00:40:49.0000000+00:00</time></trkpt><trkpt lat="64.05712891" lon="-19.24372101"><ele>618.4</ele><time>2012-07-22T00:40:54.0000000+00:00</time></trkpt><trkpt lat="64.05712891" lon="-19.24372101"><ele>618.4</ele><time>2012-07-22T00:40:59.0000000+00:00</time></trkpt><trkpt lat="64.05712891" lon="-19.24372101"><ele>618.4</ele><time>2012-07-22T00:41:04.0000000+00:00</time></trkpt><trkpt lat="64.05712891" lon="-19.2437191"><ele>618.4</ele><time>2012-07-22T00:41:09.0000000+00:00</time></trkpt><trkpt lat="64.05712891" lon="-19.24372101"><ele>618.4</ele><time>2012-07-22T00:41:14.0000000+00:00</time></trkpt><trkpt lat="64.05712891" lon="-19.24372101"><ele>618.4</ele><time>2012-07-22T00:41:19.0000000+00:00</time></trkpt><trkpt lat="64.05712891" lon="-19.24372101"><ele>618.5</ele><time>2012-07-22T00:41:24.0000000+00:00</time></trkpt><trkpt lat="64.05712891" lon="-19.24372292"><ele>618.5</ele><time>2012-07-22T00:41:29.0000000+00:00</time></trkpt><trkpt lat="64.05712891" lon="-19.24372292"><ele>618.5</ele><time>2012-07-22T00:41:34.0000000+00:00</time></trkpt><trkpt lat="64.05712891" lon="-19.24372292"><ele>618.4</ele><time>2012-07-22T00:41:39.0000000+00:00</time></trkpt><trkpt lat="64.05712891" lon="-19.24372482"><ele>618.5</ele><time>2012-07-22T00:41:44.0000000+00:00</time></trkpt><trkpt lat="64.05712891" lon="-19.24372482"><ele>618.5</ele><time>2012-07-22T00:41:49.0000000+00:00</time></trkpt><trkpt lat="64.05712891" lon="-19.24372482"><ele>618.5</ele><time>2012-07-22T00:41:54.0000000+00:00</time></trkpt><trkpt lat="64.05712891" lon="-19.24372673"><ele>618.4</ele><time>2012-07-22T00:41:59.0000000+00:00</time></trkpt><trkpt lat="64.05712891" lon="-19.24372673"><ele>618.4</ele><time>2012-07-22T00:42:04.0000000+00:00</time></trkpt><trkpt lat="64.05712891" lon="-19.24372673"><ele>618.4</ele><time>2012-07-22T00:42:09.0000000+00:00</time></trkpt><trkpt lat="64.05712891" lon="-19.24372673"><ele>618.4</ele><time>2012-07-22T00:42:14.0000000+00:00</time></trkpt><trkpt lat="64.05712891" lon="-19.24372673"><ele>618.4</ele><time>2012-07-22T00:42:19.0000000+00:00</time></trkpt><trkpt lat="64.05712891" lon="-19.24372673"><ele>618.3</ele><time>2012-07-22T00:42:24.0000000+00:00</time></trkpt><trkpt lat="64.05712891" lon="-19.24372673"><ele>618.3</ele><time>2012-07-22T00:42:29.0000000+00:00</time></trkpt><trkpt lat="64.05712891" lon="-19.24372864"><ele>618.3</ele><time>2012-07-22T00:42:34.0000000+00:00</time></trkpt><trkpt lat="64.05712891" lon="-19.24372864"><ele>618.3</ele><time>2012-07-22T00:42:39.0000000+00:00</time></trkpt><trkpt lat="64.05712891" lon="-19.24373055"><ele>618.3</ele><time>2012-07-22T00:42:44.0000000+00:00</time></trkpt><trkpt lat="64.05712891" lon="-19.24373055"><ele>618.3</ele><time>2012-07-22T00:42:49.0000000+00:00</time></trkpt><trkpt lat="64.05712891" lon="-19.24373055"><ele>618.3</ele><time>2012-07-22T00:42:54.0000000+00:00</time></trkpt><trkpt lat="64.05712891" lon="-19.24373245"><ele>618.3</ele><time>2012-07-22T00:42:59.0000000+00:00</time></trkpt><trkpt lat="64.05712891" lon="-19.24373055"><ele>618.3</ele><time>2012-07-22T00:43:04.0000000+00:00</time></trkpt><trkpt lat="64.05712891" lon="-19.24373245"><ele>618.3</ele><time>2012-07-22T00:43:09.0000000+00:00</time></trkpt><trkpt lat="64.05712891" lon="-19.24373245"><ele>618.2</ele><time>2012-07-22T00:43:14.0000000+00:00</time></trkpt><trkpt lat="64.05712891" lon="-19.24373245"><ele>618.2</ele><time>2012-07-22T00:43:19.0000000+00:00</time></trkpt><trkpt lat="64.05712891" lon="-19.24373245"><ele>618.2</ele><time>2012-07-22T00:43:24.0000000+00:00</time></trkpt><trkpt lat="64.05712891" lon="-19.24373245"><ele>618.2</ele><time>2012-07-22T00:43:29.0000000+00:00</time></trkpt><trkpt lat="64.05712891" lon="-19.24373436"><ele>618.2</ele><time>2012-07-22T00:43:34.0000000+00:00</time></trkpt><trkpt lat="64.05712891" lon="-19.24373436"><ele>618.1</ele><time>2012-07-22T00:43:39.0000000+00:00</time></trkpt><trkpt lat="64.05712891" lon="-19.24373245"><ele>618.0</ele><time>2012-07-22T00:43:44.0000000+00:00</time></trkpt><trkpt lat="64.05712891" lon="-19.24373245"><ele>617.9</ele><time>2012-07-22T00:43:49.0000000+00:00</time></trkpt><trkpt lat="64.05712891" lon="-19.24373055"><ele>617.8</ele><time>2012-07-22T00:43:54.0000000+00:00</time></trkpt><trkpt lat="64.05712891" lon="-19.24372864"><ele>617.7</ele><time>2012-07-22T00:43:59.0000000+00:00</time></trkpt><trkpt lat="64.05712891" lon="-19.24372864"><ele>617.7</ele><time>2012-07-22T00:44:04.0000000+00:00</time></trkpt><trkpt lat="64.05712891" lon="-19.24372864"><ele>617.6</ele><time>2012-07-22T00:44:09.0000000+00:00</time></trkpt><trkpt lat="64.05712891" lon="-19.24372864"><ele>617.5</ele><time>2012-07-22T00:44:14.0000000+00:00</time></trkpt><trkpt lat="64.05712891" lon="-19.24372673"><ele>617.5</ele><time>2012-07-22T00:44:19.0000000+00:00</time></trkpt><trkpt lat="64.05713654" lon="-19.24372673"><ele>617.5</ele><time>2012-07-22T00:44:24.0000000+00:00</time></trkpt><trkpt lat="64.05713654" lon="-19.24372673"><ele>617.5</ele><time>2012-07-22T00:44:29.0000000+00:00</time></trkpt><trkpt lat="64.05713654" lon="-19.24372673"><ele>617.4</ele><time>2012-07-22T00:44:34.0000000+00:00</time></trkpt><trkpt lat="64.05713654" lon="-19.24372673"><ele>617.3</ele><time>2012-07-22T00:44:39.0000000+00:00</time></trkpt><trkpt lat="64.05713654" lon="-19.24372673"><ele>617.3</ele><time>2012-07-22T00:44:44.0000000+00:00</time></trkpt><trkpt lat="64.05713654" lon="-19.24372673"><ele>617.3</ele><time>2012-07-22T00:44:49.0000000+00:00</time></trkpt><trkpt lat="64.05713654" lon="-19.24372673"><ele>617.2</ele><time>2012-07-22T00:44:54.0000000+00:00</time></trkpt><trkpt lat="64.05713654" lon="-19.24372673"><ele>617.2</ele><time>2012-07-22T00:44:59.0000000+00:00</time></trkpt><trkpt lat="64.05713654" lon="-19.24372864"><ele>617.2</ele><time>2012-07-22T00:45:04.0000000+00:00</time></trkpt><trkpt lat="64.05713654" lon="-19.24372864"><ele>617.1</ele><time>2012-07-22T00:45:09.0000000+00:00</time></trkpt><trkpt lat="64.05713654" lon="-19.24372864"><ele>617.1</ele><time>2012-07-22T00:45:14.0000000+00:00</time></trkpt><trkpt lat="64.05713654" lon="-19.24372864"><ele>617.0</ele><time>2012-07-22T00:45:19.0000000+00:00</time></trkpt><trkpt lat="64.05713654" lon="-19.24372864"><ele>616.9</ele><time>2012-07-22T00:45:24.0000000+00:00</time></trkpt><trkpt lat="64.05713654" lon="-19.24372864"><ele>616.8</ele><time>2012-07-22T00:45:29.0000000+00:00</time></trkpt><trkpt lat="64.05713654" lon="-19.24372864"><ele>616.8</ele><time>2012-07-22T00:45:34.0000000+00:00</time></trkpt><trkpt lat="64.05713654" lon="-19.24372864"><ele>616.7</ele><time>2012-07-22T00:45:39.0000000+00:00</time></trkpt><trkpt lat="64.05714417" lon="-19.24372864"><ele>616.6</ele><time>2012-07-22T00:45:44.0000000+00:00</time></trkpt><trkpt lat="64.05714417" lon="-19.24372864"><ele>616.6</ele><time>2012-07-22T00:45:49.0000000+00:00</time></trkpt><trkpt lat="64.05714417" lon="-19.24372864"><ele>616.5</ele><time>2012-07-22T00:45:54.0000000+00:00</time></trkpt><trkpt lat="64.05714417" lon="-19.24372864"><ele>616.4</ele><time>2012-07-22T00:45:59.0000000+00:00</time></trkpt><trkpt lat="64.05714417" lon="-19.24372673"><ele>616.4</ele><time>2012-07-22T00:46:04.0000000+00:00</time></trkpt><trkpt lat="64.05714417" lon="-19.24372673"><ele>616.3</ele><time>2012-07-22T00:46:09.0000000+00:00</time></trkpt><trkpt lat="64.05714417" lon="-19.24372673"><ele>616.3</ele><time>2012-07-22T00:46:14.0000000+00:00</time></trkpt><trkpt lat="64.05714417" lon="-19.24372673"><ele>616.3</ele><time>2012-07-22T00:46:19.0000000+00:00</time></trkpt><trkpt lat="64.05714417" lon="-19.24372673"><ele>616.2</ele><time>2012-07-22T00:46:24.0000000+00:00</time></trkpt><trkpt lat="64.05714417" lon="-19.24372673"><ele>616.2</ele><time>2012-07-22T00:46:29.0000000+00:00</time></trkpt><trkpt lat="64.05714417" lon="-19.24372673"><ele>616.1</ele><time>2012-07-22T00:46:34.0000000+00:00</time></trkpt><trkpt lat="64.05714417" lon="-19.24372673"><ele>616.1</ele><time>2012-07-22T00:46:39.0000000+00:00</time></trkpt><trkpt lat="64.05714417" lon="-19.24372673"><ele>616.1</ele><time>2012-07-22T00:46:44.0000000+00:00</time></trkpt><trkpt lat="64.05714417" lon="-19.24372673"><ele>616.0</ele><time>2012-07-22T00:46:49.0000000+00:00</time></trkpt><trkpt lat="64.05714417" lon="-19.24372864"><ele>616.0</ele><time>2012-07-22T00:46:54.0000000+00:00</time></trkpt><trkpt lat="64.05714417" lon="-19.24373245"><ele>615.9</ele><time>2012-07-22T00:46:59.0000000+00:00</time></trkpt><trkpt lat="64.05714417" lon="-19.24373627"><ele>615.8</ele><time>2012-07-22T00:47:04.0000000+00:00</time></trkpt><trkpt lat="64.05715179" lon="-19.24373817"><ele>615.8</ele><time>2012-07-22T00:47:09.0000000+00:00</time></trkpt><trkpt lat="64.05716705" lon="-19.24374199"><ele>615.8</ele><time>2012-07-22T00:47:14.0000000+00:00</time></trkpt><trkpt lat="64.05717468" lon="-19.2437458"><ele>615.6</ele><time>2012-07-22T00:47:19.0000000+00:00</time></trkpt><trkpt lat="64.05718231" lon="-19.2437439"><ele>615.4</ele><time>2012-07-22T00:47:24.0000000+00:00</time></trkpt><trkpt lat="64.05718994" lon="-19.24373245"><ele>615.2</ele><time>2012-07-22T00:47:29.0000000+00:00</time></trkpt><trkpt lat="64.05719757" lon="-19.24362755"><ele>614.5</ele><time>2012-07-22T00:47:34.0000000+00:00</time></trkpt></trkseg><trkseg><trkpt lat="64.05809784" lon="-19.24648666"><ele>89.7</ele><time>2012-07-22T11:45:36.0000000+00:00</time></trkpt><trkpt lat="64.05815125" lon="-19.246315"><ele>89.7</ele><time>2012-07-22T11:45:41.0000000+00:00</time></trkpt><trkpt lat="64.05813599" lon="-19.24629593"><ele>89.7</ele><time>2012-07-22T11:45:46.0000000+00:00</time></trkpt><trkpt lat="64.05812836" lon="-19.24619293"><ele>89.7</ele><time>2012-07-22T11:45:51.0000000+00:00</time></trkpt><trkpt lat="64.05812836" lon="-19.24616432"><ele>89.6</ele><time>2012-07-22T11:45:56.0000000+00:00</time></trkpt><trkpt lat="64.05809784" lon="-19.24621964"><ele>89.6</ele><time>2012-07-22T11:46:01.0000000+00:00</time></trkpt><trkpt lat="64.0581131" lon="-19.24631119"><ele>89.7</ele><time>2012-07-22T11:46:06.0000000+00:00</time></trkpt><trkpt lat="64.05812073" lon="-19.24630356"><ele>89.8</ele><time>2012-07-22T11:46:11.0000000+00:00</time></trkpt><trkpt lat="64.05812073" lon="-19.24629784"><ele>89.8</ele><time>2012-07-22T11:46:16.0000000+00:00</time></trkpt><trkpt lat="64.05812836" lon="-19.24628449"><ele>89.8</ele><time>2012-07-22T11:46:21.0000000+00:00</time></trkpt><trkpt lat="64.05813599" lon="-19.24633217"><ele>89.8</ele><time>2012-07-22T11:46:26.0000000+00:00</time></trkpt><trkpt lat="64.05814362" lon="-19.24632263"><ele>89.7</ele><time>2012-07-22T11:46:31.0000000+00:00</time></trkpt><trkpt lat="64.05815888" lon="-19.24638367"><ele>89.7</ele><time>2012-07-22T11:46:36.0000000+00:00</time></trkpt><trkpt lat="64.05815888" lon="-19.24641037"><ele>89.7</ele><time>2012-07-22T11:46:41.0000000+00:00</time></trkpt><trkpt lat="64.05715942" lon="-19.24407959"><ele>602.9</ele><time>2012-07-22T11:46:46.0000000+00:00</time></trkpt><trkpt lat="64.05718231" lon="-19.2440052"><ele>603.4</ele><time>2012-07-22T11:46:51.0000000+00:00</time></trkpt><trkpt lat="64.05718231" lon="-19.24397087"><ele>603.3</ele><time>2012-07-22T11:46:56.0000000+00:00</time></trkpt><trkpt lat="64.05718994" lon="-19.24395561"><ele>603.5</ele><time>2012-07-22T11:47:01.0000000+00:00</time></trkpt><trkpt lat="64.05719757" lon="-19.24395752"><ele>603.5</ele><time>2012-07-22T11:47:06.0000000+00:00</time></trkpt><trkpt lat="64.0572052" lon="-19.24395943"><ele>603.5</ele><time>2012-07-22T11:47:11.0000000+00:00</time></trkpt><trkpt lat="64.05719757" lon="-19.24394798"><ele>603.4</ele><time>2012-07-22T11:47:16.0000000+00:00</time></trkpt><trkpt lat="64.05718994" lon="-19.24393463"><ele>603.4</ele><time>2012-07-22T11:47:21.0000000+00:00</time></trkpt><trkpt lat="64.05718994" lon="-19.24392128"><ele>603.4</ele><time>2012-07-22T11:47:26.0000000+00:00</time></trkpt><trkpt lat="64.05718994" lon="-19.24390793"><ele>603.4</ele><time>2012-07-22T11:47:31.0000000+00:00</time></trkpt><trkpt lat="64.05718994" lon="-19.24389076"><ele>603.4</ele><time>2012-07-22T11:47:36.0000000+00:00</time></trkpt><trkpt lat="64.05718994" lon="-19.24388123"><ele>603.5</ele><time>2012-07-22T11:47:41.0000000+00:00</time></trkpt><trkpt lat="64.05719757" lon="-19.24388313"><ele>604.1</ele><time>2012-07-22T11:47:46.0000000+00:00</time></trkpt><trkpt lat="64.05718994" lon="-19.24388313"><ele>604.0</ele><time>2012-07-22T11:47:51.0000000+00:00</time></trkpt><trkpt lat="64.05718994" lon="-19.24385834"><ele>604.1</ele><time>2012-07-22T11:47:56.0000000+00:00</time></trkpt><trkpt lat="64.05718994" lon="-19.24385071"><ele>604.0</ele><time>2012-07-22T11:48:01.0000000+00:00</time></trkpt><trkpt lat="64.05719757" lon="-19.24385452"><ele>604.1</ele><time>2012-07-22T11:48:06.0000000+00:00</time></trkpt><trkpt lat="64.0572052" lon="-19.24381065"><ele>603.9</ele><time>2012-07-22T11:48:11.0000000+00:00</time></trkpt><trkpt lat="64.05718231" lon="-19.24378204"><ele>602.4</ele><time>2012-07-22T11:48:16.0000000+00:00</time></trkpt><trkpt lat="64.05718231" lon="-19.24382019"><ele>603.0</ele><time>2012-07-22T11:48:21.0000000+00:00</time></trkpt><trkpt lat="64.05718231" lon="-19.24380302"><ele>602.9</ele><time>2012-07-22T11:48:26.0000000+00:00</time></trkpt><trkpt lat="64.05717468" lon="-19.24378967"><ele>602.9</ele><time>2012-07-22T11:48:31.0000000+00:00</time></trkpt><trkpt lat="64.05717468" lon="-19.24377251"><ele>602.9</ele><time>2012-07-22T11:48:36.0000000+00:00</time></trkpt><trkpt lat="64.05717468" lon="-19.24374771"><ele>602.8</ele><time>2012-07-22T11:48:41.0000000+00:00</time></trkpt><trkpt lat="64.05717468" lon="-19.24377632"><ele>603.4</ele><time>2012-07-22T11:48:46.0000000+00:00</time></trkpt><trkpt lat="64.05718231" lon="-19.24377823"><ele>603.5</ele><time>2012-07-22T11:48:51.0000000+00:00</time></trkpt><trkpt lat="64.05719757" lon="-19.2437954"><ele>604.1</ele><time>2012-07-22T11:48:56.0000000+00:00</time></trkpt><trkpt lat="64.05719757" lon="-19.2437973"><ele>604.3</ele><time>2012-07-22T11:49:01.0000000+00:00</time></trkpt><trkpt lat="64.05718994" lon="-19.24378204"><ele>604.2</ele><time>2012-07-22T11:49:06.0000000+00:00</time></trkpt><trkpt lat="64.05718231" lon="-19.24376869"><ele>604.2</ele><time>2012-07-22T11:49:11.0000000+00:00</time></trkpt><trkpt lat="64.05717468" lon="-19.24381256"><ele>604.6</ele><time>2012-07-22T11:49:16.0000000+00:00</time></trkpt><trkpt lat="64.05716705" lon="-19.24381447"><ele>605.0</ele><time>2012-07-22T11:49:21.0000000+00:00</time></trkpt><trkpt lat="64.05719757" lon="-19.24378586"><ele>605.1</ele><time>2012-07-22T11:49:26.0000000+00:00</time></trkpt><trkpt lat="64.05722046" lon="-19.24378395"><ele>605.0</ele><time>2012-07-22T11:49:31.0000000+00:00</time></trkpt><trkpt lat="64.05725098" lon="-19.24376679"><ele>605.1</ele><time>2012-07-22T11:49:36.0000000+00:00</time></trkpt><trkpt lat="64.05725098" lon="-19.24378395"><ele>605.2</ele><time>2012-07-22T11:49:41.0000000+00:00</time></trkpt><trkpt lat="64.05723572" lon="-19.24381638"><ele>605.3</ele><time>2012-07-22T11:49:46.0000000+00:00</time></trkpt><trkpt lat="64.05722809" lon="-19.24380875"><ele>605.2</ele><time>2012-07-22T11:49:51.0000000+00:00</time></trkpt><trkpt lat="64.05722046" lon="-19.24379921"><ele>605.2</ele><time>2012-07-22T11:49:56.0000000+00:00</time></trkpt><trkpt lat="64.05722046" lon="-19.24380112"><ele>605.1</ele><time>2012-07-22T11:50:01.0000000+00:00</time></trkpt><trkpt lat="64.05722046" lon="-19.24380112"><ele>605.1</ele><time>2012-07-22T11:50:06.0000000+00:00</time></trkpt><trkpt lat="64.05722046" lon="-19.24380302"><ele>605.0</ele><time>2012-07-22T11:50:11.0000000+00:00</time></trkpt><trkpt lat="64.05722046" lon="-19.24380493"><ele>605.0</ele><time>2012-07-22T11:50:16.0000000+00:00</time></trkpt><trkpt lat="64.05722046" lon="-19.24380302"><ele>605.0</ele><time>2012-07-22T11:50:21.0000000+00:00</time></trkpt><trkpt lat="64.05721283" lon="-19.24380112"><ele>604.9</ele><time>2012-07-22T11:50:26.0000000+00:00</time></trkpt><trkpt lat="64.05721283" lon="-19.24378967"><ele>604.9</ele><time>2012-07-22T11:50:31.0000000+00:00</time></trkpt><trkpt lat="64.05722046" lon="-19.24377632"><ele>604.9</ele><time>2012-07-22T11:50:36.0000000+00:00</time></trkpt><trkpt lat="64.05721283" lon="-19.24376297"><ele>604.9</ele><time>2012-07-22T11:50:41.0000000+00:00</time></trkpt><trkpt lat="64.05721283" lon="-19.2437458"><ele>604.9</ele><time>2012-07-22T11:50:46.0000000+00:00</time></trkpt><trkpt lat="64.05721283" lon="-19.24372101"><ele>604.8</ele><time>2012-07-22T11:50:51.0000000+00:00</time></trkpt><trkpt lat="64.0572052" lon="-19.24370003"><ele>604.8</ele><time>2012-07-22T11:50:56.0000000+00:00</time></trkpt><trkpt lat="64.05721283" lon="-19.24373055"><ele>605.0</ele><time>2012-07-22T11:51:01.0000000+00:00</time></trkpt><trkpt lat="64.05722046" lon="-19.24372292"><ele>604.9</ele><time>2012-07-22T11:51:06.0000000+00:00</time></trkpt><trkpt lat="64.05722046" lon="-19.24373055"><ele>604.9</ele><time>2012-07-22T11:51:11.0000000+00:00</time></trkpt><trkpt lat="64.05721283" lon="-19.24374962"><ele>604.9</ele><time>2012-07-22T11:51:16.0000000+00:00</time></trkpt><trkpt lat="64.05721283" lon="-19.24378204"><ele>604.9</ele><time>2012-07-22T11:51:21.0000000+00:00</time></trkpt><trkpt lat="64.0572052" lon="-19.24380112"><ele>604.9</ele><time>2012-07-22T11:51:26.0000000+00:00</time></trkpt><trkpt lat="64.05719757" lon="-19.24381828"><ele>604.8</ele><time>2012-07-22T11:51:31.0000000+00:00</time></trkpt><trkpt lat="64.05719757" lon="-19.24383354"><ele>604.8</ele><time>2012-07-22T11:51:36.0000000+00:00</time></trkpt><trkpt lat="64.05717468" lon="-19.24388695"><ele>604.8</ele><time>2012-07-22T11:51:41.0000000+00:00</time></trkpt><trkpt lat="64.05717468" lon="-19.24392128"><ele>604.8</ele><time>2012-07-22T11:51:46.0000000+00:00</time></trkpt><trkpt lat="64.05716705" lon="-19.24390602"><ele>604.8</ele><time>2012-07-22T11:51:51.0000000+00:00</time></trkpt><trkpt lat="64.0572052" lon="-19.2438488"><ele>604.5</ele><time>2012-07-22T11:51:56.0000000+00:00</time></trkpt><trkpt lat="64.05722046" lon="-19.24385262"><ele>604.2</ele><time>2012-07-22T11:52:01.0000000+00:00</time></trkpt><trkpt lat="64.05722046" lon="-19.24384499"><ele>604.2</ele><time>2012-07-22T11:52:06.0000000+00:00</time></trkpt><trkpt lat="64.05721283" lon="-19.24383736"><ele>604.2</ele><time>2012-07-22T11:52:11.0000000+00:00</time></trkpt><trkpt lat="64.05721283" lon="-19.24384117"><ele>604.2</ele><time>2012-07-22T11:52:16.0000000+00:00</time></trkpt><trkpt lat="64.0572052" lon="-19.24382591"><ele>604.1</ele><time>2012-07-22T11:52:21.0000000+00:00</time></trkpt><trkpt lat="64.05719757" lon="-19.24381447"><ele>604.1</ele><time>2012-07-22T11:52:26.0000000+00:00</time></trkpt><trkpt lat="64.05718994" lon="-19.24380302"><ele>604.1</ele><time>2012-07-22T11:52:31.0000000+00:00</time></trkpt><trkpt lat="64.05718231" lon="-19.24379158"><ele>604.0</ele><time>2012-07-22T11:52:36.0000000+00:00</time></trkpt><trkpt lat="64.05718231" lon="-19.24378586"><ele>604.0</ele><time>2012-07-22T11:52:41.0000000+00:00</time></trkpt><trkpt lat="64.05718231" lon="-19.24377823"><ele>604.0</ele><time>2012-07-22T11:52:46.0000000+00:00</time></trkpt><trkpt lat="64.05718231" lon="-19.24378777"><ele>604.0</ele><time>2012-07-22T11:52:51.0000000+00:00</time></trkpt><trkpt lat="64.05718994" lon="-19.24379921"><ele>603.9</ele><time>2012-07-22T11:52:56.0000000+00:00</time></trkpt><trkpt lat="64.05719757" lon="-19.24378967"><ele>603.9</ele><time>2012-07-22T11:53:01.0000000+00:00</time></trkpt><trkpt lat="64.05718994" lon="-19.24378586"><ele>603.9</ele><time>2012-07-22T11:53:06.0000000+00:00</time></trkpt><trkpt lat="64.05715942" lon="-19.24377251"><ele>603.5</ele><time>2012-07-22T11:53:11.0000000+00:00</time></trkpt><trkpt lat="64.05713654" lon="-19.24386406"><ele>601.4</ele><time>2012-07-22T11:53:16.0000000+00:00</time></trkpt><trkpt lat="64.05712128" lon="-19.24392319"><ele>600.4</ele><time>2012-07-22T11:53:21.0000000+00:00</time></trkpt><trkpt lat="64.05712128" lon="-19.24393082"><ele>600.4</ele><time>2012-07-22T11:53:26.0000000+00:00</time></trkpt><trkpt lat="64.05711365" lon="-19.24393463"><ele>600.3</ele><time>2012-07-22T11:53:31.0000000+00:00</time></trkpt><trkpt lat="64.05711365" lon="-19.24393082"><ele>600.1</ele><time>2012-07-22T11:53:36.0000000+00:00</time></trkpt><trkpt lat="64.05711365" lon="-19.24392891"><ele>599.8</ele><time>2012-07-22T11:53:41.0000000+00:00</time></trkpt><trkpt lat="64.05711365" lon="-19.24393082"><ele>599.7</ele><time>2012-07-22T11:53:46.0000000+00:00</time></trkpt><trkpt lat="64.05711365" lon="-19.24392891"><ele>599.7</ele><time>2012-07-22T11:53:51.0000000+00:00</time></trkpt><trkpt lat="64.05711365" lon="-19.24392891"><ele>599.6</ele><time>2012-07-22T11:53:56.0000000+00:00</time></trkpt><trkpt lat="64.05711365" lon="-19.243927"><ele>599.6</ele><time>2012-07-22T11:54:01.0000000+00:00</time></trkpt><trkpt lat="64.05711365" lon="-19.243927"><ele>599.7</ele><time>2012-07-22T11:54:06.0000000+00:00</time></trkpt><trkpt lat="64.05711365" lon="-19.2439251"><ele>599.6</ele><time>2012-07-22T11:54:11.0000000+00:00</time></trkpt><trkpt lat="64.05711365" lon="-19.2439251"><ele>599.6</ele><time>2012-07-22T11:54:16.0000000+00:00</time></trkpt><trkpt lat="64.05710602" lon="-19.24389648"><ele>599.4</ele><time>2012-07-22T11:54:21.0000000+00:00</time></trkpt><trkpt lat="64.05708313" lon="-19.2438221"><ele>599.4</ele><time>2012-07-22T11:54:26.0000000+00:00</time></trkpt><trkpt lat="64.05709076" lon="-19.24380875"><ele>599.8</ele><time>2012-07-22T11:54:31.0000000+00:00</time></trkpt><trkpt lat="64.05709076" lon="-19.24380684"><ele>599.8</ele><time>2012-07-22T11:54:36.0000000+00:00</time></trkpt><trkpt lat="64.05709076" lon="-19.24380684"><ele>599.8</ele><time>2012-07-22T11:54:41.0000000+00:00</time></trkpt><trkpt lat="64.05709076" lon="-19.24380684"><ele>599.8</ele><time>2012-07-22T11:54:46.0000000+00:00</time></trkpt><trkpt lat="64.05709076" lon="-19.24380493"><ele>599.8</ele><time>2012-07-22T11:54:51.0000000+00:00</time></trkpt><trkpt lat="64.05709076" lon="-19.24380493"><ele>599.8</ele><time>2012-07-22T11:54:56.0000000+00:00</time></trkpt><trkpt lat="64.05709076" lon="-19.24380302"><ele>599.8</ele><time>2012-07-22T11:55:01.0000000+00:00</time></trkpt><trkpt lat="64.05709076" lon="-19.24380302"><ele>599.7</ele><time>2012-07-22T11:55:06.0000000+00:00</time></trkpt><trkpt lat="64.05709076" lon="-19.24380302"><ele>599.7</ele><time>2012-07-22T11:55:11.0000000+00:00</time></trkpt><trkpt lat="64.05709076" lon="-19.24380112"><ele>599.8</ele><time>2012-07-22T11:55:16.0000000+00:00</time></trkpt><trkpt lat="64.05708313" lon="-19.24380112"><ele>599.7</ele><time>2012-07-22T11:55:21.0000000+00:00</time></trkpt><trkpt lat="64.05708313" lon="-19.24379921"><ele>599.7</ele><time>2012-07-22T11:55:26.0000000+00:00</time></trkpt><trkpt lat="64.05708313" lon="-19.24379921"><ele>599.7</ele><time>2012-07-22T11:55:31.0000000+00:00</time></trkpt><trkpt lat="64.05708313" lon="-19.24379921"><ele>599.7</ele><time>2012-07-22T11:55:36.0000000+00:00</time></trkpt><trkpt lat="64.05708313" lon="-19.2437973"><ele>599.7</ele><time>2012-07-22T11:55:41.0000000+00:00</time></trkpt><trkpt lat="64.05708313" lon="-19.2437973"><ele>599.7</ele><time>2012-07-22T11:55:46.0000000+00:00</time></trkpt><trkpt lat="64.05708313" lon="-19.2437954"><ele>599.7</ele><time>2012-07-22T11:55:51.0000000+00:00</time></trkpt><trkpt lat="64.05708313" lon="-19.2437954"><ele>599.7</ele><time>2012-07-22T11:55:56.0000000+00:00</time></trkpt><trkpt lat="64.05708313" lon="-19.2437954"><ele>599.7</ele><time>2012-07-22T11:56:01.0000000+00:00</time></trkpt><trkpt lat="64.05708313" lon="-19.24379349"><ele>599.7</ele><time>2012-07-22T11:56:06.0000000+00:00</time></trkpt><trkpt lat="64.05708313" lon="-19.24379349"><ele>599.7</ele><time>2012-07-22T11:56:11.0000000+00:00</time></trkpt><trkpt lat="64.05708313" lon="-19.24379349"><ele>599.7</ele><time>2012-07-22T11:56:16.0000000+00:00</time></trkpt><trkpt lat="64.05708313" lon="-19.24379158"><ele>599.7</ele><time>2012-07-22T11:56:21.0000000+00:00</time></trkpt><trkpt lat="64.05708313" lon="-19.24379158"><ele>599.7</ele><time>2012-07-22T11:56:26.0000000+00:00</time></trkpt><trkpt lat="64.05708313" lon="-19.24379158"><ele>599.7</ele><time>2012-07-22T11:56:31.0000000+00:00</time></trkpt><trkpt lat="64.05708313" lon="-19.24378967"><ele>599.7</ele><time>2012-07-22T11:56:36.0000000+00:00</time></trkpt><trkpt lat="64.05708313" lon="-19.24378967"><ele>599.7</ele><time>2012-07-22T11:56:41.0000000+00:00</time></trkpt><trkpt lat="64.05708313" lon="-19.24378967"><ele>599.7</ele><time>2012-07-22T11:56:46.0000000+00:00</time></trkpt><trkpt lat="64.05708313" lon="-19.24378967"><ele>599.6</ele><time>2012-07-22T11:56:51.0000000+00:00</time></trkpt><trkpt lat="64.05708313" lon="-19.24378777"><ele>599.6</ele><time>2012-07-22T11:56:56.0000000+00:00</time></trkpt><trkpt lat="64.05708313" lon="-19.24378777"><ele>599.6</ele><time>2012-07-22T11:57:01.0000000+00:00</time></trkpt><trkpt lat="64.05708313" lon="-19.24378586"><ele>599.6</ele><time>2012-07-22T11:57:06.0000000+00:00</time></trkpt><trkpt lat="64.05708313" lon="-19.24378586"><ele>599.6</ele><time>2012-07-22T11:57:11.0000000+00:00</time></trkpt><trkpt lat="64.05708313" lon="-19.24378586"><ele>599.6</ele><time>2012-07-22T11:57:16.0000000+00:00</time></trkpt><trkpt lat="64.05708313" lon="-19.24378395"><ele>599.6</ele><time>2012-07-22T11:57:21.0000000+00:00</time></trkpt><trkpt lat="64.05708313" lon="-19.24378395"><ele>599.6</ele><time>2012-07-22T11:57:26.0000000+00:00</time></trkpt><trkpt lat="64.05708313" lon="-19.24378395"><ele>599.6</ele><time>2012-07-22T11:57:31.0000000+00:00</time></trkpt><trkpt lat="64.05708313" lon="-19.24378395"><ele>599.6</ele><time>2012-07-22T11:57:36.0000000+00:00</time></trkpt><trkpt lat="64.05708313" lon="-19.24378395"><ele>599.6</ele><time>2012-07-22T11:57:41.0000000+00:00</time></trkpt><trkpt lat="64.05708313" lon="-19.24378204"><ele>599.6</ele><time>2012-07-22T11:57:46.0000000+00:00</time></trkpt><trkpt lat="64.05708313" lon="-19.24378204"><ele>599.6</ele><time>2012-07-22T11:57:51.0000000+00:00</time></trkpt><trkpt lat="64.05708313" lon="-19.24378204"><ele>599.6</ele><time>2012-07-22T11:57:56.0000000+00:00</time></trkpt><trkpt lat="64.05708313" lon="-19.24378014"><ele>599.6</ele><time>2012-07-22T11:58:01.0000000+00:00</time></trkpt><trkpt lat="64.05708313" lon="-19.24378014"><ele>599.6</ele><time>2012-07-22T11:58:06.0000000+00:00</time></trkpt><trkpt lat="64.05708313" lon="-19.24378014"><ele>599.6</ele><time>2012-07-22T11:58:11.0000000+00:00</time></trkpt><trkpt lat="64.05708313" lon="-19.24377823"><ele>599.6</ele><time>2012-07-22T11:58:16.0000000+00:00</time></trkpt><trkpt lat="64.05708313" lon="-19.24377823"><ele>599.6</ele><time>2012-07-22T11:58:21.0000000+00:00</time></trkpt><trkpt lat="64.05708313" lon="-19.24377823"><ele>599.6</ele><time>2012-07-22T11:58:26.0000000+00:00</time></trkpt><trkpt lat="64.05708313" lon="-19.24377632"><ele>599.6</ele><time>2012-07-22T11:58:31.0000000+00:00</time></trkpt><trkpt lat="64.05708313" lon="-19.24377632"><ele>599.6</ele><time>2012-07-22T11:58:36.0000000+00:00</time></trkpt><trkpt lat="64.05708313" lon="-19.24377632"><ele>599.6</ele><time>2012-07-22T11:58:41.0000000+00:00</time></trkpt><trkpt lat="64.05708313" lon="-19.24377632"><ele>599.6</ele><time>2012-07-22T11:58:46.0000000+00:00</time></trkpt><trkpt lat="64.05708313" lon="-19.24377632"><ele>599.6</ele><time>2012-07-22T11:58:51.0000000+00:00</time></trkpt><trkpt lat="64.05708313" lon="-19.24377441"><ele>599.6</ele><time>2012-07-22T11:58:56.0000000+00:00</time></trkpt><trkpt lat="64.05708313" lon="-19.24377441"><ele>599.6</ele><time>2012-07-22T11:59:01.0000000+00:00</time></trkpt><trkpt lat="64.05708313" lon="-19.24377441"><ele>599.6</ele><time>2012-07-22T11:59:06.0000000+00:00</time></trkpt><trkpt lat="64.05708313" lon="-19.24377441"><ele>599.6</ele><time>2012-07-22T11:59:11.0000000+00:00</time></trkpt><trkpt lat="64.05708313" lon="-19.24377441"><ele>599.5</ele><time>2012-07-22T11:59:16.0000000+00:00</time></trkpt><trkpt lat="64.05708313" lon="-19.24376679"><ele>599.4</ele><time>2012-07-22T11:59:21.0000000+00:00</time></trkpt><trkpt lat="64.05709076" lon="-19.24378967"><ele>599.0</ele><time>2012-07-22T11:59:26.0000000+00:00</time></trkpt><trkpt lat="64.05708313" lon="-19.24379158"><ele>598.8</ele><time>2012-07-22T11:59:31.0000000+00:00</time></trkpt><trkpt lat="64.05708313" lon="-19.24379158"><ele>598.8</ele><time>2012-07-22T11:59:36.0000000+00:00</time></trkpt><trkpt lat="64.05708313" lon="-19.24379158"><ele>598.8</ele><time>2012-07-22T11:59:41.0000000+00:00</time></trkpt><trkpt lat="64.05708313" lon="-19.2437954"><ele>598.9</ele><time>2012-07-22T11:59:46.0000000+00:00</time></trkpt><trkpt lat="64.0570755" lon="-19.24381447"><ele>598.7</ele><time>2012-07-22T11:59:51.0000000+00:00</time></trkpt><trkpt lat="64.05706787" lon="-19.2438221"><ele>598.1</ele><time>2012-07-22T11:59:56.0000000+00:00</time></trkpt><trkpt lat="64.05704498" lon="-19.24383354"><ele>597.0</ele><time>2012-07-22T12:00:01.0000000+00:00</time></trkpt><trkpt lat="64.05699158" lon="-19.24386787"><ele>596.6</ele><time>2012-07-22T12:00:06.0000000+00:00</time></trkpt><trkpt lat="64.05693817" lon="-19.24407196"><ele>596.6</ele><time>2012-07-22T12:00:11.0000000+00:00</time></trkpt><trkpt lat="64.05692291" lon="-19.24435043"><ele>596.5</ele><time>2012-07-22T12:00:16.0000000+00:00</time></trkpt><trkpt lat="64.05680084" lon="-19.24461365"><ele>595.5</ele><time>2012-07-22T12:00:21.0000000+00:00</time></trkpt><trkpt lat="64.05667877" lon="-19.24455071"><ele>595.4</ele><time>2012-07-22T12:00:26.0000000+00:00</time></trkpt><trkpt lat="64.05661774" lon="-19.24431801"><ele>595.7</ele><time>2012-07-22T12:00:31.0000000+00:00</time></trkpt><trkpt lat="64.0565567" lon="-19.244133"><ele>595.5</ele><time>2012-07-22T12:00:36.0000000+00:00</time></trkpt><trkpt lat="64.05651093" lon="-19.24396706"><ele>596.0</ele><time>2012-07-22T12:00:41.0000000+00:00</time></trkpt><trkpt lat="64.05648041" lon="-19.24378014"><ele>597.1</ele><time>2012-07-22T12:00:46.0000000+00:00</time></trkpt><trkpt lat="64.05640411" lon="-19.24354172"><ele>598.8</ele><time>2012-07-22T12:00:51.0000000+00:00</time></trkpt><trkpt lat="64.05632782" lon="-19.24328232"><ele>599.8</ele><time>2012-07-22T12:00:56.0000000+00:00</time></trkpt><trkpt lat="64.05625153" lon="-19.24303818"><ele>602.5</ele><time>2012-07-22T12:01:01.0000000+00:00</time></trkpt><trkpt lat="64.0561676" lon="-19.24285126"><ele>605.6</ele><time>2012-07-22T12:01:06.0000000+00:00</time></trkpt><trkpt lat="64.0560379" lon="-19.24270439"><ele>607.9</ele><time>2012-07-22T12:01:11.0000000+00:00</time></trkpt><trkpt lat="64.05591583" lon="-19.24262619"><ele>608.5</ele><time>2012-07-22T12:01:16.0000000+00:00</time></trkpt><trkpt lat="64.05576325" lon="-19.24251938"><ele>607.5</ele><time>2012-07-22T12:01:21.0000000+00:00</time></trkpt><trkpt lat="64.05564117" lon="-19.24244118"><ele>609.5</ele><time>2012-07-22T12:01:26.0000000+00:00</time></trkpt><trkpt lat="64.05548859" lon="-19.24234963"><ele>608.1</ele><time>2012-07-22T12:01:31.0000000+00:00</time></trkpt><trkpt lat="64.05530548" lon="-19.2422905"><ele>601.9</ele><time>2012-07-22T12:01:36.0000000+00:00</time></trkpt><trkpt lat="64.05514526" lon="-19.24222946"><ele>600.2</ele><time>2012-07-22T12:01:41.0000000+00:00</time></trkpt><trkpt lat="64.05496979" lon="-19.24214745"><ele>598.8</ele><time>2012-07-22T12:01:46.0000000+00:00</time></trkpt><trkpt lat="64.05480194" lon="-19.24207115"><ele>597.8</ele><time>2012-07-22T12:01:51.0000000+00:00</time></trkpt><trkpt lat="64.05461884" lon="-19.24198914"><ele>595.1</ele><time>2012-07-22T12:01:56.0000000+00:00</time></trkpt><trkpt lat="64.05445099" lon="-19.24192238"><ele>594.1</ele><time>2012-07-22T12:02:01.0000000+00:00</time></trkpt><trkpt lat="64.05429077" lon="-19.2418747"><ele>592.7</ele><time>2012-07-22T12:02:06.0000000+00:00</time></trkpt><trkpt lat="64.05416107" lon="-19.24181938"><ele>594.6</ele><time>2012-07-22T12:02:11.0000000+00:00</time></trkpt><trkpt lat="64.05402374" lon="-19.24185371"><ele>596.0</ele><time>2012-07-22T12:02:16.0000000+00:00</time></trkpt><trkpt lat="64.05392456" lon="-19.24186325"><ele>598.0</ele><time>2012-07-22T12:02:21.0000000+00:00</time></trkpt><trkpt lat="64.05381775" lon="-19.24183083"><ele>599.1</ele><time>2012-07-22T12:02:26.0000000+00:00</time></trkpt><trkpt lat="64.05370331" lon="-19.24173927"><ele>598.5</ele><time>2012-07-22T12:02:31.0000000+00:00</time></trkpt><trkpt lat="64.0535965" lon="-19.2416153"><ele>595.8</ele><time>2012-07-22T12:02:36.0000000+00:00</time></trkpt><trkpt lat="64.05352783" lon="-19.2414875"><ele>596.4</ele><time>2012-07-22T12:02:41.0000000+00:00</time></trkpt><trkpt lat="64.05348969" lon="-19.24134064"><ele>599.7</ele><time>2012-07-22T12:02:46.0000000+00:00</time></trkpt><trkpt lat="64.05345917" lon="-19.24121857"><ele>602.1</ele><time>2012-07-22T12:02:51.0000000+00:00</time></trkpt><trkpt lat="64.05340576" lon="-19.24110031"><ele>603.9</ele><time>2012-07-22T12:02:56.0000000+00:00</time></trkpt><trkpt lat="64.05337524" lon="-19.24095345"><ele>604.2</ele><time>2012-07-22T12:03:01.0000000+00:00</time></trkpt><trkpt lat="64.0533371" lon="-19.24086762"><ele>604.0</ele><time>2012-07-22T12:03:06.0000000+00:00</time></trkpt><trkpt lat="64.05328369" lon="-19.24075127"><ele>604.5</ele><time>2012-07-22T12:03:11.0000000+00:00</time></trkpt><trkpt lat="64.05323792" lon="-19.24065399"><ele>605.1</ele><time>2012-07-22T12:03:16.0000000+00:00</time></trkpt><trkpt lat="64.0532074" lon="-19.24049377"><ele>605.4</ele><time>2012-07-22T12:03:21.0000000+00:00</time></trkpt><trkpt lat="64.05317688" lon="-19.24051285"><ele>604.3</ele><time>2012-07-22T12:03:26.0000000+00:00</time></trkpt><trkpt lat="64.05317688" lon="-19.24051476"><ele>604.4</ele><time>2012-07-22T12:03:31.0000000+00:00</time></trkpt><trkpt lat="64.05316162" lon="-19.24041748"><ele>604.4</ele><time>2012-07-22T12:03:36.0000000+00:00</time></trkpt><trkpt lat="64.0531311" lon="-19.24027252"><ele>604.8</ele><time>2012-07-22T12:03:41.0000000+00:00</time></trkpt><trkpt lat="64.0531311" lon="-19.24012375"><ele>601.9</ele><time>2012-07-22T12:03:46.0000000+00:00</time></trkpt><trkpt lat="64.05311585" lon="-19.23998833"><ele>602.2</ele><time>2012-07-22T12:03:51.0000000+00:00</time></trkpt><trkpt lat="64.05308533" lon="-19.23981857"><ele>602.4</ele><time>2012-07-22T12:03:56.0000000+00:00</time></trkpt><trkpt lat="64.0530777" lon="-19.23964119"><ele>601.9</ele><time>2012-07-22T12:04:01.0000000+00:00</time></trkpt><trkpt lat="64.05307007" lon="-19.23948479"><ele>602.3</ele><time>2012-07-22T12:04:06.0000000+00:00</time></trkpt><trkpt lat="64.05307007" lon="-19.23945618"><ele>602.2</ele><time>2012-07-22T12:04:11.0000000+00:00</time></trkpt><trkpt lat="64.05307007" lon="-19.23945618"><ele>602.2</ele><time>2012-07-22T12:04:16.0000000+00:00</time></trkpt><trkpt lat="64.05301666" lon="-19.23933792"><ele>602.6</ele><time>2012-07-22T12:04:21.0000000+00:00</time></trkpt><trkpt lat="64.05299377" lon="-19.23905373"><ele>602.8</ele><time>2012-07-22T12:04:26.0000000+00:00</time></trkpt><trkpt lat="64.052948" lon="-19.23880196"><ele>602.1</ele><time>2012-07-22T12:04:31.0000000+00:00</time></trkpt><trkpt lat="64.05294037" lon="-19.23855972"><ele>603.1</ele><time>2012-07-22T12:04:36.0000000+00:00</time></trkpt><trkpt lat="64.052948" lon="-19.23837853"><ele>601.9</ele><time>2012-07-22T12:04:41.0000000+00:00</time></trkpt><trkpt lat="64.05298615" lon="-19.23818398"><ele>602.1</ele><time>2012-07-22T12:04:46.0000000+00:00</time></trkpt><trkpt lat="64.05302429" lon="-19.23797035"><ele>602.2</ele><time>2012-07-22T12:04:51.0000000+00:00</time></trkpt><trkpt lat="64.05306244" lon="-19.23773003"><ele>601.4</ele><time>2012-07-22T12:04:56.0000000+00:00</time></trkpt><trkpt lat="64.05309296" lon="-19.2375164"><ele>602.0</ele><time>2012-07-22T12:05:01.0000000+00:00</time></trkpt><trkpt lat="64.05313873" lon="-19.237257"><ele>602.3</ele><time>2012-07-22T12:05:06.0000000+00:00</time></trkpt><trkpt lat="64.05319977" lon="-19.23701286"><ele>602.8</ele><time>2012-07-22T12:05:11.0000000+00:00</time></trkpt><trkpt lat="64.05322266" lon="-19.23674393"><ele>603.5</ele><time>2012-07-22T12:05:16.0000000+00:00</time></trkpt><trkpt lat="64.05322266" lon="-19.23643875"><ele>604.3</ele><time>2012-07-22T12:05:21.0000000+00:00</time></trkpt><trkpt lat="64.05321503" lon="-19.23616791"><ele>603.9</ele><time>2012-07-22T12:05:26.0000000+00:00</time></trkpt><trkpt lat="64.05312347" lon="-19.23591805"><ele>603.8</ele><time>2012-07-22T12:05:31.0000000+00:00</time></trkpt><trkpt lat="64.05307007" lon="-19.23556709"><ele>604.0</ele><time>2012-07-22T12:05:36.0000000+00:00</time></trkpt><trkpt lat="64.05304718" lon="-19.23519707"><ele>602.8</ele><time>2012-07-22T12:05:41.0000000+00:00</time></trkpt><trkpt lat="64.05300903" lon="-19.23496628"><ele>602.9</ele><time>2012-07-22T12:05:46.0000000+00:00</time></trkpt><trkpt lat="64.05299377" lon="-19.23467445"><ele>603.1</ele><time>2012-07-22T12:05:51.0000000+00:00</time></trkpt><trkpt lat="64.05299377" lon="-19.23443985"><ele>601.7</ele><time>2012-07-22T12:05:56.0000000+00:00</time></trkpt><trkpt lat="64.0530014" lon="-19.23438263"><ele>600.4</ele><time>2012-07-22T12:06:01.0000000+00:00</time></trkpt><trkpt lat="64.0530014" lon="-19.23436928"><ele>600.4</ele><time>2012-07-22T12:06:06.0000000+00:00</time></trkpt><trkpt lat="64.0530014" lon="-19.23436928"><ele>600.4</ele><time>2012-07-22T12:06:11.0000000+00:00</time></trkpt><trkpt lat="64.05298615" lon="-19.23420715"><ele>599.7</ele><time>2012-07-22T12:06:16.0000000+00:00</time></trkpt><trkpt lat="64.05297852" lon="-19.23376083"><ele>600.0</ele><time>2012-07-22T12:06:21.0000000+00:00</time></trkpt><trkpt lat="64.05298615" lon="-19.23333931"><ele>600.6</ele><time>2012-07-22T12:06:26.0000000+00:00</time></trkpt><trkpt lat="64.0530014" lon="-19.23304176"><ele>600.6</ele><time>2012-07-22T12:06:31.0000000+00:00</time></trkpt><trkpt lat="64.05301666" lon="-19.2328167"><ele>600.4</ele><time>2012-07-22T12:06:36.0000000+00:00</time></trkpt><trkpt lat="64.05301666" lon="-19.23255348"><ele>600.8</ele><time>2012-07-22T12:06:41.0000000+00:00</time></trkpt><trkpt lat="64.05300903" lon="-19.23228264"><ele>600.8</ele><time>2012-07-22T12:06:46.0000000+00:00</time></trkpt><trkpt lat="64.05298615" lon="-19.23204422"><ele>599.8</ele><time>2012-07-22T12:06:51.0000000+00:00</time></trkpt><trkpt lat="64.05298615" lon="-19.2318058"><ele>598.1</ele><time>2012-07-22T12:06:56.0000000+00:00</time></trkpt><trkpt lat="64.05297852" lon="-19.23149681"><ele>598.6</ele><time>2012-07-22T12:07:01.0000000+00:00</time></trkpt><trkpt lat="64.05296326" lon="-19.23118019"><ele>599.1</ele><time>2012-07-22T12:07:06.0000000+00:00</time></trkpt><trkpt lat="64.05293274" lon="-19.23090363"><ele>597.3</ele><time>2012-07-22T12:07:11.0000000+00:00</time></trkpt><trkpt lat="64.05288696" lon="-19.23065186"><ele>597.1</ele><time>2012-07-22T12:07:16.0000000+00:00</time></trkpt><trkpt lat="64.05284119" lon="-19.23036003"><ele>598.7</ele><time>2012-07-22T12:07:21.0000000+00:00</time></trkpt><trkpt lat="64.05278015" lon="-19.23005867"><ele>598.9</ele><time>2012-07-22T12:07:26.0000000+00:00</time></trkpt><trkpt lat="64.05270386" lon="-19.22977066"><ele>598.6</ele><time>2012-07-22T12:07:31.0000000+00:00</time></trkpt><trkpt lat="64.05264282" lon="-19.22943306"><ele>598.4</ele><time>2012-07-22T12:07:36.0000000+00:00</time></trkpt><trkpt lat="64.05257416" lon="-19.22908211"><ele>599.3</ele><time>2012-07-22T12:07:41.0000000+00:00</time></trkpt><trkpt lat="64.05249023" lon="-19.22874641"><ele>599.2</ele><time>2012-07-22T12:07:46.0000000+00:00</time></trkpt><trkpt lat="64.05239868" lon="-19.22842598"><ele>598.8</ele><time>2012-07-22T12:07:51.0000000+00:00</time></trkpt><trkpt lat="64.0522995" lon="-19.2281189"><ele>598.5</ele><time>2012-07-22T12:07:56.0000000+00:00</time></trkpt><trkpt lat="64.05220795" lon="-19.22784805"><ele>598.4</ele><time>2012-07-22T12:08:01.0000000+00:00</time></trkpt><trkpt lat="64.05210114" lon="-19.22760773"><ele>597.5</ele><time>2012-07-22T12:08:06.0000000+00:00</time></trkpt><trkpt lat="64.05199432" lon="-19.22737312"><ele>598.3</ele><time>2012-07-22T12:08:11.0000000+00:00</time></trkpt><trkpt lat="64.05187988" lon="-19.22716713"><ele>599.5</ele><time>2012-07-22T12:08:16.0000000+00:00</time></trkpt><trkpt lat="64.05173492" lon="-19.22694969"><ele>599.4</ele><time>2012-07-22T12:08:21.0000000+00:00</time></trkpt><trkpt lat="64.0515976" lon="-19.2267437"><ele>599.5</ele><time>2012-07-22T12:08:26.0000000+00:00</time></trkpt><trkpt lat="64.05146027" lon="-19.22654915"><ele>600.3</ele><time>2012-07-22T12:08:31.0000000+00:00</time></trkpt><trkpt lat="64.05133057" lon="-19.22637177"><ele>599.7</ele><time>2012-07-22T12:08:36.0000000+00:00</time></trkpt><trkpt lat="64.05119324" lon="-19.22621346"><ele>600.0</ele><time>2012-07-22T12:08:41.0000000+00:00</time></trkpt><trkpt lat="64.05107117" lon="-19.22602081"><ele>601.5</ele><time>2012-07-22T12:08:46.0000000+00:00</time></trkpt><trkpt lat="64.0509491" lon="-19.22583008"><ele>602.4</ele><time>2012-07-22T12:08:51.0000000+00:00</time></trkpt><trkpt lat="64.05084992" lon="-19.2256279"><ele>603.0</ele><time>2012-07-22T12:08:56.0000000+00:00</time></trkpt><trkpt lat="64.05075836" lon="-19.2253952"><ele>601.5</ele><time>2012-07-22T12:09:01.0000000+00:00</time></trkpt><trkpt lat="64.05066681" lon="-19.22511864"><ele>599.2</ele><time>2012-07-22T12:09:06.0000000+00:00</time></trkpt><trkpt lat="64.05059052" lon="-19.224823"><ele>596.9</ele><time>2012-07-22T12:09:11.0000000+00:00</time></trkpt><trkpt lat="64.05051422" lon="-19.22454262"><ele>596.0</ele><time>2012-07-22T12:09:16.0000000+00:00</time></trkpt><trkpt lat="64.05047607" lon="-19.22426415"><ele>595.5</ele><time>2012-07-22T12:09:21.0000000+00:00</time></trkpt><trkpt lat="64.05044556" lon="-19.22392082"><ele>604.8</ele><time>2012-07-22T12:09:26.0000000+00:00</time></trkpt><trkpt lat="64.0504303" lon="-19.223629"><ele>601.4</ele><time>2012-07-22T12:09:31.0000000+00:00</time></trkpt><trkpt lat="64.05041504" lon="-19.22346497"><ele>598.3</ele><time>2012-07-22T12:09:36.0000000+00:00</time></trkpt><trkpt lat="64.05041504" lon="-19.22346115"><ele>598.2</ele><time>2012-07-22T12:09:41.0000000+00:00</time></trkpt><trkpt lat="64.05041504" lon="-19.22345161"><ele>598.2</ele><time>2012-07-22T12:09:46.0000000+00:00</time></trkpt><trkpt lat="64.05041504" lon="-19.2234478"><ele>598.3</ele><time>2012-07-22T12:09:51.0000000+00:00</time></trkpt><trkpt lat="64.05040741" lon="-19.22345734"><ele>598.0</ele><time>2012-07-22T12:09:56.0000000+00:00</time></trkpt><trkpt lat="64.05040741" lon="-19.22345734"><ele>598.0</ele><time>2012-07-22T12:10:01.0000000+00:00</time></trkpt><trkpt lat="64.05040741" lon="-19.22345352"><ele>597.9</ele><time>2012-07-22T12:10:06.0000000+00:00</time></trkpt><trkpt lat="64.0504303" lon="-19.223423"><ele>598.7</ele><time>2012-07-22T12:10:11.0000000+00:00</time></trkpt><trkpt lat="64.05043793" lon="-19.22340965"><ele>598.5</ele><time>2012-07-22T12:10:16.0000000+00:00</time></trkpt><trkpt lat="64.0504303" lon="-19.22340012"><ele>598.3</ele><time>2012-07-22T12:10:21.0000000+00:00</time></trkpt><trkpt lat="64.05043793" lon="-19.22340775"><ele>597.7</ele><time>2012-07-22T12:10:26.0000000+00:00</time></trkpt><trkpt lat="64.05043793" lon="-19.22340012"><ele>598.0</ele><time>2012-07-22T12:10:31.0000000+00:00</time></trkpt><trkpt lat="64.05043793" lon="-19.22339821"><ele>598.2</ele><time>2012-07-22T12:10:36.0000000+00:00</time></trkpt><trkpt lat="64.05043793" lon="-19.22340012"><ele>598.2</ele><time>2012-07-22T12:10:41.0000000+00:00</time></trkpt><trkpt lat="64.05043793" lon="-19.22340012"><ele>598.2</ele><time>2012-07-22T12:10:46.0000000+00:00</time></trkpt><trkpt lat="64.05043793" lon="-19.22340012"><ele>598.2</ele><time>2012-07-22T12:10:51.0000000+00:00</time></trkpt><trkpt lat="64.05043793" lon="-19.22340012"><ele>598.2</ele><time>2012-07-22T12:10:56.0000000+00:00</time></trkpt><trkpt lat="64.05039978" lon="-19.22341728"><ele>597.7</ele><time>2012-07-22T12:11:01.0000000+00:00</time></trkpt><trkpt lat="64.05031586" lon="-19.22344017"><ele>596.9</ele><time>2012-07-22T12:11:06.0000000+00:00</time></trkpt><trkpt lat="64.0502243" lon="-19.22351265"><ele>597.3</ele><time>2012-07-22T12:11:11.0000000+00:00</time></trkpt><trkpt lat="64.05011749" lon="-19.22361183"><ele>597.3</ele><time>2012-07-22T12:11:16.0000000+00:00</time></trkpt><trkpt lat="64.05010223" lon="-19.22361755"><ele>597.4</ele><time>2012-07-22T12:11:21.0000000+00:00</time></trkpt><trkpt lat="64.05010223" lon="-19.22361565"><ele>597.5</ele><time>2012-07-22T12:11:26.0000000+00:00</time></trkpt><trkpt lat="64.05010223" lon="-19.22361374"><ele>597.5</ele><time>2012-07-22T12:11:31.0000000+00:00</time></trkpt><trkpt lat="64.05010986" lon="-19.22360611"><ele>597.7</ele><time>2012-07-22T12:11:36.0000000+00:00</time></trkpt><trkpt lat="64.05012512" lon="-19.2236042"><ele>597.3</ele><time>2012-07-22T12:11:41.0000000+00:00</time></trkpt><trkpt lat="64.05012512" lon="-19.2236023"><ele>596.8</ele><time>2012-07-22T12:11:46.0000000+00:00</time></trkpt><trkpt lat="64.05012512" lon="-19.2236042"><ele>596.7</ele><time>2012-07-22T12:11:51.0000000+00:00</time></trkpt><trkpt lat="64.05012512" lon="-19.2236042"><ele>596.7</ele><time>2012-07-22T12:11:56.0000000+00:00</time></trkpt><trkpt lat="64.05012512" lon="-19.22361183"><ele>596.8</ele><time>2012-07-22T12:12:01.0000000+00:00</time></trkpt><trkpt lat="64.05012512" lon="-19.22361183"><ele>596.8</ele><time>2012-07-22T12:12:06.0000000+00:00</time></trkpt><trkpt lat="64.05012512" lon="-19.22360992"><ele>596.8</ele><time>2012-07-22T12:12:11.0000000+00:00</time></trkpt><trkpt lat="64.05012512" lon="-19.22360992"><ele>596.8</ele><time>2012-07-22T12:12:16.0000000+00:00</time></trkpt><trkpt lat="64.05012512" lon="-19.22360992"><ele>596.8</ele><time>2012-07-22T12:12:21.0000000+00:00</time></trkpt><trkpt lat="64.05012512" lon="-19.22360992"><ele>596.8</ele><time>2012-07-22T12:12:26.0000000+00:00</time></trkpt><trkpt lat="64.05012512" lon="-19.22362328"><ele>596.8</ele><time>2012-07-22T12:12:31.0000000+00:00</time></trkpt><trkpt lat="64.05010986" lon="-19.22359848"><ele>595.7</ele><time>2012-07-22T12:12:36.0000000+00:00</time></trkpt><trkpt lat="64.05007172" lon="-19.2236023"><ele>596.2</ele><time>2012-07-22T12:12:41.0000000+00:00</time></trkpt><trkpt lat="64.04998016" lon="-19.22361183"><ele>596.6</ele><time>2012-07-22T12:12:46.0000000+00:00</time></trkpt><trkpt lat="64.04992676" lon="-19.2235775"><ele>597.3</ele><time>2012-07-22T12:12:51.0000000+00:00</time></trkpt><trkpt lat="64.04985809" lon="-19.22361374"><ele>597.3</ele><time>2012-07-22T12:12:56.0000000+00:00</time></trkpt><trkpt lat="64.04977417" lon="-19.22361946"><ele>597.4</ele><time>2012-07-22T12:13:01.0000000+00:00</time></trkpt><trkpt lat="64.04969788" lon="-19.22359467"><ele>598.0</ele><time>2012-07-22T12:13:06.0000000+00:00</time></trkpt><trkpt lat="64.04961395" lon="-19.22357369"><ele>598.6</ele><time>2012-07-22T12:13:11.0000000+00:00</time></trkpt><trkpt lat="64.04950714" lon="-19.22351837"><ele>598.7</ele><time>2012-07-22T12:13:16.0000000+00:00</time></trkpt><trkpt lat="64.04940796" lon="-19.223423"><ele>599.1</ele><time>2012-07-22T12:13:21.0000000+00:00</time></trkpt><trkpt lat="64.04929352" lon="-19.22335815"><ele>599.6</ele><time>2012-07-22T12:13:26.0000000+00:00</time></trkpt><trkpt lat="64.04919434" lon="-19.22330856"><ele>601.0</ele><time>2012-07-22T12:13:31.0000000+00:00</time></trkpt><trkpt lat="64.04908752" lon="-19.22325134"><ele>601.3</ele><time>2012-07-22T12:13:36.0000000+00:00</time></trkpt><trkpt lat="64.04898071" lon="-19.2232132"><ele>602.0</ele><time>2012-07-22T12:13:41.0000000+00:00</time></trkpt><trkpt lat="64.04886627" lon="-19.22317886"><ele>602.2</ele><time>2012-07-22T12:13:46.0000000+00:00</time></trkpt><trkpt lat="64.04875183" lon="-19.22313118"><ele>602.5</ele><time>2012-07-22T12:13:51.0000000+00:00</time></trkpt><trkpt lat="64.04862976" lon="-19.22307968"><ele>601.3</ele><time>2012-07-22T12:13:56.0000000+00:00</time></trkpt><trkpt lat="64.04853058" lon="-19.22304153"><ele>602.4</ele><time>2012-07-22T12:14:01.0000000+00:00</time></trkpt><trkpt lat="64.0484314" lon="-19.22298813"><ele>603.0</ele><time>2012-07-22T12:14:06.0000000+00:00</time></trkpt><trkpt lat="64.04831696" lon="-19.222929"><ele>602.6</ele><time>2012-07-22T12:14:11.0000000+00:00</time></trkpt><trkpt lat="64.04818726" lon="-19.22287941"><ele>602.1</ele><time>2012-07-22T12:14:16.0000000+00:00</time></trkpt><trkpt lat="64.04806519" lon="-19.22282982"><ele>601.6</ele><time>2012-07-22T12:14:21.0000000+00:00</time></trkpt><trkpt lat="64.04795075" lon="-19.2227726"><ele>601.5</ele><time>2012-07-22T12:14:26.0000000+00:00</time></trkpt><trkpt lat="64.04784393" lon="-19.22266769"><ele>601.7</ele><time>2012-07-22T12:14:31.0000000+00:00</time></trkpt><trkpt lat="64.04773712" lon="-19.22251129"><ele>601.1</ele><time>2012-07-22T12:14:36.0000000+00:00</time></trkpt><trkpt lat="64.04766846" lon="-19.22231293"><ele>601.1</ele><time>2012-07-22T12:14:41.0000000+00:00</time></trkpt><trkpt lat="64.04759979" lon="-19.22212601"><ele>602.6</ele><time>2012-07-22T12:14:46.0000000+00:00</time></trkpt><trkpt lat="64.04753876" lon="-19.22193909"><ele>599.2</ele><time>2012-07-22T12:14:51.0000000+00:00</time></trkpt><trkpt lat="64.04745483" lon="-19.22170448"><ele>598.3</ele><time>2012-07-22T12:14:56.0000000+00:00</time></trkpt><trkpt lat="64.04736328" lon="-19.22149658"><ele>597.9</ele><time>2012-07-22T12:15:01.0000000+00:00</time></trkpt><trkpt lat="64.04725647" lon="-19.22130203"><ele>596.9</ele><time>2012-07-22T12:15:06.0000000+00:00</time></trkpt><trkpt lat="64.04715729" lon="-19.22114372"><ele>598.6</ele><time>2012-07-22T12:15:11.0000000+00:00</time></trkpt><trkpt lat="64.04705048" lon="-19.22103119"><ele>598.0</ele><time>2012-07-22T12:15:16.0000000+00:00</time></trkpt><trkpt lat="64.04695129" lon="-19.2209549"><ele>598.0</ele><time>2012-07-22T12:15:21.0000000+00:00</time></trkpt><trkpt lat="64.04684448" lon="-19.22086525"><ele>598.9</ele><time>2012-07-22T12:15:26.0000000+00:00</time></trkpt><trkpt lat="64.04671478" lon="-19.22079468"><ele>599.6</ele><time>2012-07-22T12:15:31.0000000+00:00</time></trkpt><trkpt lat="64.04659271" lon="-19.22071075"><ele>599.8</ele><time>2012-07-22T12:15:36.0000000+00:00</time></trkpt><trkpt lat="64.04645538" lon="-19.22059631"><ele>599.8</ele><time>2012-07-22T12:15:41.0000000+00:00</time></trkpt><trkpt lat="64.04631805" lon="-19.22045136"><ele>599.4</ele><time>2012-07-22T12:15:46.0000000+00:00</time></trkpt><trkpt lat="64.04619598" lon="-19.2203331"><ele>600.0</ele><time>2012-07-22T12:15:51.0000000+00:00</time></trkpt><trkpt lat="64.04608917" lon="-19.22015953"><ele>600.9</ele><time>2012-07-22T12:15:56.0000000+00:00</time></trkpt><trkpt lat="64.04600525" lon="-19.21997833"><ele>601.7</ele><time>2012-07-22T12:16:01.0000000+00:00</time></trkpt><trkpt lat="64.04590607" lon="-19.21982384"><ele>602.2</ele><time>2012-07-22T12:16:06.0000000+00:00</time></trkpt><trkpt lat="64.04579926" lon="-19.21968651"><ele>603.2</ele><time>2012-07-22T12:16:11.0000000+00:00</time></trkpt><trkpt lat="64.04568481" lon="-19.21957779"><ele>606.8</ele><time>2012-07-22T12:16:16.0000000+00:00</time></trkpt><trkpt lat="64.04557037" lon="-19.21948814"><ele>607.3</ele><time>2012-07-22T12:16:21.0000000+00:00</time></trkpt><trkpt lat="64.04545593" lon="-19.21943092"><ele>607.5</ele><time>2012-07-22T12:16:26.0000000+00:00</time></trkpt><trkpt lat="64.04534912" lon="-19.21929359"><ele>607.8</ele><time>2012-07-22T12:16:31.0000000+00:00</time></trkpt><trkpt lat="64.04525757" lon="-19.21912003"><ele>608.6</ele><time>2012-07-22T12:16:36.0000000+00:00</time></trkpt><trkpt lat="64.04514313" lon="-19.21900559"><ele>607.7</ele><time>2012-07-22T12:16:41.0000000+00:00</time></trkpt><trkpt lat="64.04503632" lon="-19.21905136"><ele>607.4</ele><time>2012-07-22T12:16:46.0000000+00:00</time></trkpt><trkpt lat="64.04493713" lon="-19.21913528"><ele>607.5</ele><time>2012-07-22T12:16:51.0000000+00:00</time></trkpt><trkpt lat="64.04482269" lon="-19.21921921"><ele>606.7</ele><time>2012-07-22T12:16:56.0000000+00:00</time></trkpt><trkpt lat="64.04469299" lon="-19.21932983"><ele>606.0</ele><time>2012-07-22T12:17:01.0000000+00:00</time></trkpt><trkpt lat="64.04450989" lon="-19.21948624"><ele>605.0</ele><time>2012-07-22T12:17:06.0000000+00:00</time></trkpt><trkpt lat="64.04434204" lon="-19.21958542"><ele>605.2</ele><time>2012-07-22T12:17:11.0000000+00:00</time></trkpt><trkpt lat="64.04420471" lon="-19.21968269"><ele>606.1</ele><time>2012-07-22T12:17:16.0000000+00:00</time></trkpt><trkpt lat="64.04406738" lon="-19.21978188"><ele>607.0</ele><time>2012-07-22T12:17:21.0000000+00:00</time></trkpt><trkpt lat="64.0439148" lon="-19.21987724"><ele>606.7</ele><time>2012-07-22T12:17:26.0000000+00:00</time></trkpt><trkpt lat="64.04376984" lon="-19.2199688"><ele>607.2</ele><time>2012-07-22T12:17:31.0000000+00:00</time></trkpt><trkpt lat="64.04361725" lon="-19.22006226"><ele>607.5</ele><time>2012-07-22T12:17:36.0000000+00:00</time></trkpt><trkpt lat="64.04346466" lon="-19.22014999"><ele>607.1</ele><time>2012-07-22T12:17:41.0000000+00:00</time></trkpt><trkpt lat="64.04331207" lon="-19.22023392"><ele>607.1</ele><time>2012-07-22T12:17:46.0000000+00:00</time></trkpt><trkpt lat="64.04315949" lon="-19.22031403"><ele>607.1</ele><time>2012-07-22T12:17:51.0000000+00:00</time></trkpt><trkpt lat="64.04301453" lon="-19.22039032"><ele>606.8</ele><time>2012-07-22T12:17:56.0000000+00:00</time></trkpt><trkpt lat="64.04288483" lon="-19.2204876"><ele>607.0</ele><time>2012-07-22T12:18:01.0000000+00:00</time></trkpt><trkpt lat="64.0427475" lon="-19.2205677"><ele>607.1</ele><time>2012-07-22T12:18:06.0000000+00:00</time></trkpt><trkpt lat="64.04264069" lon="-19.22065353"><ele>606.6</ele><time>2012-07-22T12:18:11.0000000+00:00</time></trkpt><trkpt lat="64.04251099" lon="-19.22073174"><ele>606.4</ele><time>2012-07-22T12:18:16.0000000+00:00</time></trkpt><trkpt lat="64.04237366" lon="-19.2208252"><ele>606.1</ele><time>2012-07-22T12:18:21.0000000+00:00</time></trkpt><trkpt lat="64.04224396" lon="-19.22091866"><ele>606.6</ele><time>2012-07-22T12:18:26.0000000+00:00</time></trkpt><trkpt lat="64.04211426" lon="-19.22101975"><ele>606.3</ele><time>2012-07-22T12:18:31.0000000+00:00</time></trkpt><trkpt lat="64.04197693" lon="-19.22112083"><ele>606.1</ele><time>2012-07-22T12:18:36.0000000+00:00</time></trkpt><trkpt lat="64.04185486" lon="-19.22123337"><ele>605.4</ele><time>2012-07-22T12:18:41.0000000+00:00</time></trkpt><trkpt lat="64.04172516" lon="-19.22134399"><ele>604.9</ele><time>2012-07-22T12:18:46.0000000+00:00</time></trkpt><trkpt lat="64.04159546" lon="-19.2214489"><ele>604.7</ele><time>2012-07-22T12:18:51.0000000+00:00</time></trkpt><trkpt lat="64.04145813" lon="-19.22155571"><ele>604.3</ele><time>2012-07-22T12:18:56.0000000+00:00</time></trkpt><trkpt lat="64.04131317" lon="-19.22167397"><ele>603.7</ele><time>2012-07-22T12:19:01.0000000+00:00</time></trkpt><trkpt lat="64.04117584" lon="-19.22180367"><ele>602.8</ele><time>2012-07-22T12:19:06.0000000+00:00</time></trkpt><trkpt lat="64.04103851" lon="-19.22192001"><ele>602.1</ele><time>2012-07-22T12:19:11.0000000+00:00</time></trkpt><trkpt lat="64.04090118" lon="-19.22203827"><ele>601.2</ele><time>2012-07-22T12:19:16.0000000+00:00</time></trkpt><trkpt lat="64.0407486" lon="-19.22216034"><ele>600.9</ele><time>2012-07-22T12:19:21.0000000+00:00</time></trkpt><trkpt lat="64.04061127" lon="-19.22227097"><ele>600.3</ele><time>2012-07-22T12:19:26.0000000+00:00</time></trkpt><trkpt lat="64.04047394" lon="-19.2223835"><ele>599.9</ele><time>2012-07-22T12:19:31.0000000+00:00</time></trkpt><trkpt lat="64.04032898" lon="-19.2224865"><ele>600.2</ele><time>2012-07-22T12:19:36.0000000+00:00</time></trkpt><trkpt lat="64.04019165" lon="-19.2226181"><ele>600.0</ele><time>2012-07-22T12:19:41.0000000+00:00</time></trkpt><trkpt lat="64.04004669" lon="-19.2227726"><ele>599.2</ele><time>2012-07-22T12:19:46.0000000+00:00</time></trkpt><trkpt lat="64.03991699" lon="-19.22293091"><ele>598.4</ele><time>2012-07-22T12:19:51.0000000+00:00</time></trkpt><trkpt lat="64.03979492" lon="-19.22309113"><ele>598.6</ele><time>2012-07-22T12:19:56.0000000+00:00</time></trkpt><trkpt lat="64.03965759" lon="-19.2232151"><ele>598.0</ele><time>2012-07-22T12:20:01.0000000+00:00</time></trkpt><trkpt lat="64.03952789" lon="-19.22334099"><ele>597.6</ele><time>2012-07-22T12:20:06.0000000+00:00</time></trkpt><trkpt lat="64.03938294" lon="-19.22346306"><ele>597.2</ele><time>2012-07-22T12:20:11.0000000+00:00</time></trkpt><trkpt lat="64.03927612" lon="-19.22357178"><ele>597.3</ele><time>2012-07-22T12:20:16.0000000+00:00</time></trkpt><trkpt lat="64.03914642" lon="-19.22366715"><ele>596.8</ele><time>2012-07-22T12:20:21.0000000+00:00</time></trkpt><trkpt lat="64.03901672" lon="-19.22372627"><ele>596.4</ele><time>2012-07-22T12:20:26.0000000+00:00</time></trkpt><trkpt lat="64.03889465" lon="-19.22376442"><ele>596.0</ele><time>2012-07-22T12:20:31.0000000+00:00</time></trkpt><trkpt lat="64.03878021" lon="-19.22373581"><ele>596.2</ele><time>2012-07-22T12:20:36.0000000+00:00</time></trkpt><trkpt lat="64.0386734" lon="-19.22369194"><ele>596.4</ele><time>2012-07-22T12:20:41.0000000+00:00</time></trkpt><trkpt lat="64.03855896" lon="-19.22362518"><ele>596.2</ele><time>2012-07-22T12:20:46.0000000+00:00</time></trkpt><trkpt lat="64.03843689" lon="-19.22357369"><ele>596.4</ele><time>2012-07-22T12:20:51.0000000+00:00</time></trkpt><trkpt lat="64.03833008" lon="-19.22350693"><ele>596.7</ele><time>2012-07-22T12:20:56.0000000+00:00</time></trkpt><trkpt lat="64.03822327" lon="-19.22343254"><ele>597.1</ele><time>2012-07-22T12:21:01.0000000+00:00</time></trkpt><trkpt lat="64.03810883" lon="-19.22332764"><ele>598.2</ele><time>2012-07-22T12:21:06.0000000+00:00</time></trkpt><trkpt lat="64.03798676" lon="-19.22322464"><ele>597.6</ele><time>2012-07-22T12:21:11.0000000+00:00</time></trkpt><trkpt lat="64.03786469" lon="-19.22314072"><ele>598.3</ele><time>2012-07-22T12:21:16.0000000+00:00</time></trkpt><trkpt lat="64.03774262" lon="-19.22306442"><ele>595.5</ele><time>2012-07-22T12:21:21.0000000+00:00</time></trkpt><trkpt lat="64.03762817" lon="-19.22299576"><ele>595.6</ele><time>2012-07-22T12:21:26.0000000+00:00</time></trkpt><trkpt lat="64.03752136" lon="-19.22292137"><ele>594.7</ele><time>2012-07-22T12:21:31.0000000+00:00</time></trkpt><trkpt lat="64.03742218" lon="-19.22286987"><ele>594.9</ele><time>2012-07-22T12:21:36.0000000+00:00</time></trkpt><trkpt lat="64.037323" lon="-19.22280121"><ele>595.9</ele><time>2012-07-22T12:21:41.0000000+00:00</time></trkpt><trkpt lat="64.03722382" lon="-19.22272492"><ele>597.8</ele><time>2012-07-22T12:21:46.0000000+00:00</time></trkpt><trkpt lat="64.037117" lon="-19.22267342"><ele>597.6</ele><time>2012-07-22T12:21:51.0000000+00:00</time></trkpt><trkpt lat="64.03699493" lon="-19.22260666"><ele>597.1</ele><time>2012-07-22T12:21:56.0000000+00:00</time></trkpt><trkpt lat="64.03689575" lon="-19.22254181"><ele>596.5</ele><time>2012-07-22T12:22:01.0000000+00:00</time></trkpt><trkpt lat="64.03678894" lon="-19.22246552"><ele>595.5</ele><time>2012-07-22T12:22:06.0000000+00:00</time></trkpt><trkpt lat="64.03668976" lon="-19.22236252"><ele>595.5</ele><time>2012-07-22T12:22:11.0000000+00:00</time></trkpt><trkpt lat="64.03658295" lon="-19.22228622"><ele>595.8</ele><time>2012-07-22T12:22:16.0000000+00:00</time></trkpt><trkpt lat="64.03648377" lon="-19.22221756"><ele>596.4</ele><time>2012-07-22T12:22:21.0000000+00:00</time></trkpt><trkpt lat="64.03638458" lon="-19.22211075"><ele>596.8</ele><time>2012-07-22T12:22:26.0000000+00:00</time></trkpt><trkpt lat="64.03627777" lon="-19.22203827"><ele>597.1</ele><time>2012-07-22T12:22:31.0000000+00:00</time></trkpt><trkpt lat="64.03617096" lon="-19.22195816"><ele>597.8</ele><time>2012-07-22T12:22:36.0000000+00:00</time></trkpt><trkpt lat="64.03605652" lon="-19.22186089"><ele>598.8</ele><time>2012-07-22T12:22:41.0000000+00:00</time></trkpt><trkpt lat="64.03594208" lon="-19.22176552"><ele>597.4</ele><time>2012-07-22T12:22:46.0000000+00:00</time></trkpt><trkpt lat="64.0358429" lon="-19.2216835"><ele>597.0</ele><time>2012-07-22T12:22:51.0000000+00:00</time></trkpt><trkpt lat="64.03574371" lon="-19.22159958"><ele>596.2</ele><time>2012-07-22T12:22:56.0000000+00:00</time></trkpt><trkpt lat="64.03564453" lon="-19.22152329"><ele>597.1</ele><time>2012-07-22T12:23:01.0000000+00:00</time></trkpt><trkpt lat="64.03554535" lon="-19.22144508"><ele>598.1</ele><time>2012-07-22T12:23:06.0000000+00:00</time></trkpt><trkpt lat="64.03543091" lon="-19.2213707"><ele>598.0</ele><time>2012-07-22T12:23:11.0000000+00:00</time></trkpt><trkpt lat="64.03531647" lon="-19.22127724"><ele>597.8</ele><time>2012-07-22T12:23:16.0000000+00:00</time></trkpt><trkpt lat="64.0351944" lon="-19.22120285"><ele>596.9</ele><time>2012-07-22T12:23:21.0000000+00:00</time></trkpt><trkpt lat="64.0350647" lon="-19.22111321"><ele>596.1</ele><time>2012-07-22T12:23:26.0000000+00:00</time></trkpt><trkpt lat="64.03495026" lon="-19.22100639"><ele>597.1</ele><time>2012-07-22T12:23:31.0000000+00:00</time></trkpt><trkpt lat="64.03482819" lon="-19.22092056"><ele>596.9</ele><time>2012-07-22T12:23:36.0000000+00:00</time></trkpt><trkpt lat="64.03471375" lon="-19.22081757"><ele>596.3</ele><time>2012-07-22T12:23:41.0000000+00:00</time></trkpt><trkpt lat="64.03459168" lon="-19.22071266"><ele>597.0</ele><time>2012-07-22T12:23:46.0000000+00:00</time></trkpt><trkpt lat="64.03451538" lon="-19.22064972"><ele>597.1</ele><time>2012-07-22T12:23:51.0000000+00:00</time></trkpt><trkpt lat="64.03442383" lon="-19.22055626"><ele>597.3</ele><time>2012-07-22T12:23:56.0000000+00:00</time></trkpt><trkpt lat="64.03431702" lon="-19.22048378"><ele>597.3</ele><time>2012-07-22T12:24:01.0000000+00:00</time></trkpt><trkpt lat="64.03419495" lon="-19.2204113"><ele>597.9</ele><time>2012-07-22T12:24:06.0000000+00:00</time></trkpt><trkpt lat="64.03408051" lon="-19.22032166"><ele>598.3</ele><time>2012-07-22T12:24:11.0000000+00:00</time></trkpt><trkpt lat="64.03398132" lon="-19.22021103"><ele>599.0</ele><time>2012-07-22T12:24:16.0000000+00:00</time></trkpt><trkpt lat="64.03388214" lon="-19.22011185"><ele>599.0</ele><time>2012-07-22T12:24:21.0000000+00:00</time></trkpt><trkpt lat="64.03377533" lon="-19.22001839"><ele>597.5</ele><time>2012-07-22T12:24:26.0000000+00:00</time></trkpt><trkpt lat="64.03368378" lon="-19.21993446"><ele>597.4</ele><time>2012-07-22T12:24:31.0000000+00:00</time></trkpt><trkpt lat="64.03357697" lon="-19.21984482"><ele>597.4</ele><time>2012-07-22T12:24:36.0000000+00:00</time></trkpt><trkpt lat="64.03348541" lon="-19.21975899"><ele>597.8</ele><time>2012-07-22T12:24:41.0000000+00:00</time></trkpt><trkpt lat="64.03340149" lon="-19.21969223"><ele>597.2</ele><time>2012-07-22T12:24:46.0000000+00:00</time></trkpt><trkpt lat="64.03333283" lon="-19.21962738"><ele>596.6</ele><time>2012-07-22T12:24:51.0000000+00:00</time></trkpt><trkpt lat="64.03325653" lon="-19.21958733"><ele>595.8</ele><time>2012-07-22T12:24:56.0000000+00:00</time></trkpt><trkpt lat="64.03317261" lon="-19.21953583"><ele>594.4</ele><time>2012-07-22T12:25:01.0000000+00:00</time></trkpt><trkpt lat="64.03311157" lon="-19.21942711"><ele>595.0</ele><time>2012-07-22T12:25:06.0000000+00:00</time></trkpt><trkpt lat="64.03303528" lon="-19.21931648"><ele>594.5</ele><time>2012-07-22T12:25:11.0000000+00:00</time></trkpt><trkpt lat="64.03296661" lon="-19.21918678"><ele>594.7</ele><time>2012-07-22T12:25:16.0000000+00:00</time></trkpt><trkpt lat="64.03292847" lon="-19.21901703"><ele>592.5</ele><time>2012-07-22T12:25:21.0000000+00:00</time></trkpt><trkpt lat="64.03290558" lon="-19.21877289"><ele>593.7</ele><time>2012-07-22T12:25:26.0000000+00:00</time></trkpt><trkpt lat="64.03286743" lon="-19.21854019"><ele>593.3</ele><time>2012-07-22T12:25:31.0000000+00:00</time></trkpt><trkpt lat="64.03282929" lon="-19.21831513"><ele>593.3</ele><time>2012-07-22T12:25:36.0000000+00:00</time></trkpt><trkpt lat="64.03277588" lon="-19.21805382"><ele>593.0</ele><time>2012-07-22T12:25:41.0000000+00:00</time></trkpt><trkpt lat="64.03271484" lon="-19.21782303"><ele>592.8</ele><time>2012-07-22T12:25:46.0000000+00:00</time></trkpt><trkpt lat="64.03263855" lon="-19.21760559"><ele>592.0</ele><time>2012-07-22T12:25:51.0000000+00:00</time></trkpt><trkpt lat="64.03258514" lon="-19.21739578"><ele>594.5</ele><time>2012-07-22T12:25:56.0000000+00:00</time></trkpt><trkpt lat="64.03253174" lon="-19.21720696"><ele>599.4</ele><time>2012-07-22T12:26:01.0000000+00:00</time></trkpt><trkpt lat="64.03248596" lon="-19.21698761"><ele>603.0</ele><time>2012-07-22T12:26:06.0000000+00:00</time></trkpt><trkpt lat="64.03242493" lon="-19.2168045"><ele>603.4</ele><time>2012-07-22T12:26:11.0000000+00:00</time></trkpt><trkpt lat="64.03237152" lon="-19.21661377"><ele>601.3</ele><time>2012-07-22T12:26:16.0000000+00:00</time></trkpt><trkpt lat="64.03231049" lon="-19.21642494"><ele>600.8</ele><time>2012-07-22T12:26:21.0000000+00:00</time></trkpt><trkpt lat="64.03224945" lon="-19.21622658"><ele>603.0</ele><time>2012-07-22T12:26:26.0000000+00:00</time></trkpt><trkpt lat="64.03219605" lon="-19.21604729"><ele>603.1</ele><time>2012-07-22T12:26:31.0000000+00:00</time></trkpt><trkpt lat="64.03214264" lon="-19.21586418"><ele>602.5</ele><time>2012-07-22T12:26:36.0000000+00:00</time></trkpt><trkpt lat="64.0320816" lon="-19.21567726"><ele>601.5</ele><time>2012-07-22T12:26:41.0000000+00:00</time></trkpt><trkpt lat="64.0320282" lon="-19.21546745"><ele>601.0</ele><time>2012-07-22T12:26:46.0000000+00:00</time></trkpt><trkpt lat="64.03196716" lon="-19.21526909"><ele>601.7</ele><time>2012-07-22T12:26:51.0000000+00:00</time></trkpt><trkpt lat="64.03192139" lon="-19.21504974"><ele>603.3</ele><time>2012-07-22T12:26:56.0000000+00:00</time></trkpt><trkpt lat="64.03186035" lon="-19.21487618"><ele>602.4</ele><time>2012-07-22T12:27:01.0000000+00:00</time></trkpt><trkpt lat="64.03180695" lon="-19.21471214"><ele>601.9</ele><time>2012-07-22T12:27:06.0000000+00:00</time></trkpt><trkpt lat="64.03175354" lon="-19.21452904"><ele>601.0</ele><time>2012-07-22T12:27:11.0000000+00:00</time></trkpt><trkpt lat="64.03170013" lon="-19.2143383"><ele>600.8</ele><time>2012-07-22T12:27:16.0000000+00:00</time></trkpt><trkpt lat="64.03164673" lon="-19.21415138"><ele>601.5</ele><time>2012-07-22T12:27:21.0000000+00:00</time></trkpt><trkpt lat="64.03160095" lon="-19.21397972"><ele>601.2</ele><time>2012-07-22T12:27:26.0000000+00:00</time></trkpt><trkpt lat="64.03154755" lon="-19.2137928"><ele>601.5</ele><time>2012-07-22T12:27:31.0000000+00:00</time></trkpt><trkpt lat="64.03150177" lon="-19.21360588"><ele>600.7</ele><time>2012-07-22T12:27:36.0000000+00:00</time></trkpt><trkpt lat="64.03146362" lon="-19.21343231"><ele>597.5</ele><time>2012-07-22T12:27:41.0000000+00:00</time></trkpt><trkpt lat="64.03141785" lon="-19.21325874"><ele>596.8</ele><time>2012-07-22T12:27:46.0000000+00:00</time></trkpt><trkpt lat="64.03136444" lon="-19.21306992"><ele>597.5</ele><time>2012-07-22T12:27:51.0000000+00:00</time></trkpt><trkpt lat="64.03131104" lon="-19.21285439"><ele>598.2</ele><time>2012-07-22T12:27:56.0000000+00:00</time></trkpt><trkpt lat="64.03125" lon="-19.21260452"><ele>597.1</ele><time>2012-07-22T12:28:01.0000000+00:00</time></trkpt><trkpt lat="64.03118897" lon="-19.21237564"><ele>597.0</ele><time>2012-07-22T12:28:06.0000000+00:00</time></trkpt><trkpt lat="64.03114319" lon="-19.21213532"><ele>597.1</ele><time>2012-07-22T12:28:11.0000000+00:00</time></trkpt><trkpt lat="64.03108978" lon="-19.21186638"><ele>597.5</ele><time>2012-07-22T12:28:16.0000000+00:00</time></trkpt><trkpt lat="64.03102875" lon="-19.21158409"><ele>596.1</ele><time>2012-07-22T12:28:21.0000000+00:00</time></trkpt><trkpt lat="64.03098297" lon="-19.21129227"><ele>596.1</ele><time>2012-07-22T12:28:26.0000000+00:00</time></trkpt><trkpt lat="64.0309372" lon="-19.21101761"><ele>595.3</ele><time>2012-07-22T12:28:31.0000000+00:00</time></trkpt><trkpt lat="64.03089905" lon="-19.21080208"><ele>595.8</ele><time>2012-07-22T12:28:36.0000000+00:00</time></trkpt><trkpt lat="64.03085327" lon="-19.21057892"><ele>596.0</ele><time>2012-07-22T12:28:41.0000000+00:00</time></trkpt><trkpt lat="64.0308075" lon="-19.21033096"><ele>595.9</ele><time>2012-07-22T12:28:46.0000000+00:00</time></trkpt><trkpt lat="64.03076935" lon="-19.21007538"><ele>596.0</ele><time>2012-07-22T12:28:51.0000000+00:00</time></trkpt><trkpt lat="64.03073883" lon="-19.20981598"><ele>596.8</ele><time>2012-07-22T12:28:56.0000000+00:00</time></trkpt><trkpt lat="64.03070831" lon="-19.20956039"><ele>597.8</ele><time>2012-07-22T12:29:01.0000000+00:00</time></trkpt><trkpt lat="64.03067017" lon="-19.20929718"><ele>599.4</ele><time>2012-07-22T12:29:06.0000000+00:00</time></trkpt><trkpt lat="64.03063202" lon="-19.20902443"><ele>600.1</ele><time>2012-07-22T12:29:11.0000000+00:00</time></trkpt><trkpt lat="64.03059387" lon="-19.20877075"><ele>600.4</ele><time>2012-07-22T12:29:16.0000000+00:00</time></trkpt><trkpt lat="64.03056335" lon="-19.20849609"><ele>601.2</ele><time>2012-07-22T12:29:21.0000000+00:00</time></trkpt><trkpt lat="64.03053284" lon="-19.20820808"><ele>601.5</ele><time>2012-07-22T12:29:26.0000000+00:00</time></trkpt><trkpt lat="64.03051758" lon="-19.20791245"><ele>601.7</ele><time>2012-07-22T12:29:31.0000000+00:00</time></trkpt><trkpt lat="64.03049469" lon="-19.20762062"><ele>602.8</ele><time>2012-07-22T12:29:36.0000000+00:00</time></trkpt><trkpt lat="64.03045654" lon="-19.20736313"><ele>602.0</ele><time>2012-07-22T12:29:41.0000000+00:00</time></trkpt><trkpt lat="64.0304184" lon="-19.20709801"><ele>600.8</ele><time>2012-07-22T12:29:46.0000000+00:00</time></trkpt><trkpt lat="64.03038025" lon="-19.20680809"><ele>601.1</ele><time>2012-07-22T12:29:51.0000000+00:00</time></trkpt><trkpt lat="64.03033447" lon="-19.20649529"><ele>601.2</ele><time>2012-07-22T12:29:56.0000000+00:00</time></trkpt><trkpt lat="64.0302887" lon="-19.20620918"><ele>602.0</ele><time>2012-07-22T12:30:01.0000000+00:00</time></trkpt><trkpt lat="64.03023529" lon="-19.20587921"><ele>602.8</ele><time>2012-07-22T12:30:06.0000000+00:00</time></trkpt><trkpt lat="64.03018951" lon="-19.20560455"><ele>603.9</ele><time>2012-07-22T12:30:11.0000000+00:00</time></trkpt><trkpt lat="64.03014374" lon="-19.20530891"><ele>604.6</ele><time>2012-07-22T12:30:16.0000000+00:00</time></trkpt><trkpt lat="64.03010559" lon="-19.20498276"><ele>605.4</ele><time>2012-07-22T12:30:21.0000000+00:00</time></trkpt><trkpt lat="64.03007507" lon="-19.20468521"><ele>606.1</ele><time>2012-07-22T12:30:26.0000000+00:00</time></trkpt><trkpt lat="64.03005219" lon="-19.20442009"><ele>607.0</ele><time>2012-07-22T12:30:31.0000000+00:00</time></trkpt><trkpt lat="64.03003693" lon="-19.2041378"><ele>606.9</ele><time>2012-07-22T12:30:36.0000000+00:00</time></trkpt><trkpt lat="64.03002167" lon="-19.20381355"><ele>607.4</ele><time>2012-07-22T12:30:41.0000000+00:00</time></trkpt><trkpt lat="64.03000641" lon="-19.20350647"><ele>607.5</ele><time>2012-07-22T12:30:46.0000000+00:00</time></trkpt><trkpt lat="64.02998352" lon="-19.20322228"><ele>607.8</ele><time>2012-07-22T12:30:51.0000000+00:00</time></trkpt><trkpt lat="64.02998352" lon="-19.20299912"><ele>608.7</ele><time>2012-07-22T12:30:56.0000000+00:00</time></trkpt><trkpt lat="64.02996826" lon="-19.20278359"><ele>608.8</ele><time>2012-07-22T12:31:01.0000000+00:00</time></trkpt><trkpt lat="64.02993774" lon="-19.20252037"><ele>609.1</ele><time>2012-07-22T12:31:06.0000000+00:00</time></trkpt><trkpt lat="64.02991486" lon="-19.20224381"><ele>609.7</ele><time>2012-07-22T12:31:11.0000000+00:00</time></trkpt><trkpt lat="64.02986908" lon="-19.20200539"><ele>609.9</ele><time>2012-07-22T12:31:16.0000000+00:00</time></trkpt><trkpt lat="64.02983856" lon="-19.20176125"><ele>609.9</ele><time>2012-07-22T12:31:21.0000000+00:00</time></trkpt><trkpt lat="64.02979279" lon="-19.20151138"><ele>610.0</ele><time>2012-07-22T12:31:26.0000000+00:00</time></trkpt><trkpt lat="64.02974701" lon="-19.20125389"><ele>609.5</ele><time>2012-07-22T12:31:31.0000000+00:00</time></trkpt><trkpt lat="64.0296936" lon="-19.20099068"><ele>609.1</ele><time>2012-07-22T12:31:36.0000000+00:00</time></trkpt><trkpt lat="64.02964783" lon="-19.20074844"><ele>608.9</ele><time>2012-07-22T12:31:41.0000000+00:00</time></trkpt><trkpt lat="64.02958679" lon="-19.20047951"><ele>609.0</ele><time>2012-07-22T12:31:46.0000000+00:00</time></trkpt><trkpt lat="64.02951813" lon="-19.20022774"><ele>609.0</ele><time>2012-07-22T12:31:51.0000000+00:00</time></trkpt><trkpt lat="64.02944183" lon="-19.1999855"><ele>608.2</ele><time>2012-07-22T12:31:56.0000000+00:00</time></trkpt><trkpt lat="64.0293808" lon="-19.19975281"><ele>608.6</ele><time>2012-07-22T12:32:01.0000000+00:00</time></trkpt><trkpt lat="64.0293045" lon="-19.19951057"><ele>609.4</ele><time>2012-07-22T12:32:06.0000000+00:00</time></trkpt><trkpt lat="64.02922821" lon="-19.19926834"><ele>610.1</ele><time>2012-07-22T12:32:11.0000000+00:00</time></trkpt><trkpt lat="64.02915955" lon="-19.19905281"><ele>610.5</ele><time>2012-07-22T12:32:16.0000000+00:00</time></trkpt><trkpt lat="64.0291214" lon="-19.19886971"><ele>611.0</ele><time>2012-07-22T12:32:21.0000000+00:00</time></trkpt><trkpt lat="64.02906036" lon="-19.19870377"><ele>611.0</ele><time>2012-07-22T12:32:26.0000000+00:00</time></trkpt><trkpt lat="64.02899933" lon="-19.19846153"><ele>610.6</ele><time>2012-07-22T12:32:31.0000000+00:00</time></trkpt><trkpt lat="64.02893829" lon="-19.19825172"><ele>610.8</ele><time>2012-07-22T12:32:36.0000000+00:00</time></trkpt><trkpt lat="64.02887726" lon="-19.19804001"><ele>610.3</ele><time>2012-07-22T12:32:41.0000000+00:00</time></trkpt><trkpt lat="64.02881622" lon="-19.19780731"><ele>609.6</ele><time>2012-07-22T12:32:46.0000000+00:00</time></trkpt><trkpt lat="64.02877045" lon="-19.19757652"><ele>609.0</ele><time>2012-07-22T12:32:51.0000000+00:00</time></trkpt><trkpt lat="64.02870178" lon="-19.19735909"><ele>608.8</ele><time>2012-07-22T12:32:56.0000000+00:00</time></trkpt><trkpt lat="64.02864075" lon="-19.19711494"><ele>609.7</ele><time>2012-07-22T12:33:01.0000000+00:00</time></trkpt><trkpt lat="64.02857208" lon="-19.19688416"><ele>609.4</ele><time>2012-07-22T12:33:06.0000000+00:00</time></trkpt><trkpt lat="64.02851868" lon="-19.19664955"><ele>609.0</ele><time>2012-07-22T12:33:11.0000000+00:00</time></trkpt><trkpt lat="64.02845001" lon="-19.19639969"><ele>609.1</ele><time>2012-07-22T12:33:16.0000000+00:00</time></trkpt><trkpt lat="64.02838898" lon="-19.19615936"><ele>609.2</ele><time>2012-07-22T12:33:21.0000000+00:00</time></trkpt><trkpt lat="64.0283432" lon="-19.19592285"><ele>609.3</ele><time>2012-07-22T12:33:26.0000000+00:00</time></trkpt><trkpt lat="64.02828217" lon="-19.1957016"><ele>609.0</ele><time>2012-07-22T12:33:31.0000000+00:00</time></trkpt><trkpt lat="64.02822876" lon="-19.1954422"><ele>607.8</ele><time>2012-07-22T12:33:36.0000000+00:00</time></trkpt><trkpt lat="64.0281601" lon="-19.19519424"><ele>608.1</ele><time>2012-07-22T12:33:41.0000000+00:00</time></trkpt><trkpt lat="64.02809906" lon="-19.19492149"><ele>607.3</ele><time>2012-07-22T12:33:46.0000000+00:00</time></trkpt><trkpt lat="64.02803803" lon="-19.19468117"><ele>606.8</ele><time>2012-07-22T12:33:51.0000000+00:00</time></trkpt><trkpt lat="64.02798462" lon="-19.19443131"><ele>604.8</ele><time>2012-07-22T12:33:56.0000000+00:00</time></trkpt><trkpt lat="64.02791596" lon="-19.19417381"><ele>603.9</ele><time>2012-07-22T12:34:01.0000000+00:00</time></trkpt><trkpt lat="64.02784729" lon="-19.19392967"><ele>603.3</ele><time>2012-07-22T12:34:06.0000000+00:00</time></trkpt><trkpt lat="64.02779388" lon="-19.19368553"><ele>601.9</ele><time>2012-07-22T12:34:11.0000000+00:00</time></trkpt><trkpt lat="64.02774048" lon="-19.1934967"><ele>602.0</ele><time>2012-07-22T12:34:16.0000000+00:00</time></trkpt><trkpt lat="64.02768707" lon="-19.19329262"><ele>602.5</ele><time>2012-07-22T12:34:21.0000000+00:00</time></trkpt><trkpt lat="64.02762604" lon="-19.19309425"><ele>601.9</ele><time>2012-07-22T12:34:26.0000000+00:00</time></trkpt><trkpt lat="64.02757263" lon="-19.19288635"><ele>600.2</ele><time>2012-07-22T12:34:31.0000000+00:00</time></trkpt><trkpt lat="64.02752686" lon="-19.19267464"><ele>598.8</ele><time>2012-07-22T12:34:36.0000000+00:00</time></trkpt><trkpt lat="64.02747345" lon="-19.19247246"><ele>598.0</ele><time>2012-07-22T12:34:41.0000000+00:00</time></trkpt><trkpt lat="64.02742004" lon="-19.19223404"><ele>596.5</ele><time>2012-07-22T12:34:46.0000000+00:00</time></trkpt><trkpt lat="64.02736664" lon="-19.19200325"><ele>596.3</ele><time>2012-07-22T12:34:51.0000000+00:00</time></trkpt><trkpt lat="64.02731323" lon="-19.19180107"><ele>597.7</ele><time>2012-07-22T12:34:56.0000000+00:00</time></trkpt><trkpt lat="64.02726746" lon="-19.19159317"><ele>597.3</ele><time>2012-07-22T12:35:01.0000000+00:00</time></trkpt><trkpt lat="64.02720642" lon="-19.19139481"><ele>598.5</ele><time>2012-07-22T12:35:06.0000000+00:00</time></trkpt><trkpt lat="64.02715302" lon="-19.19116974"><ele>598.8</ele><time>2012-07-22T12:35:11.0000000+00:00</time></trkpt><trkpt lat="64.02711487" lon="-19.1909771"><ele>598.3</ele><time>2012-07-22T12:35:16.0000000+00:00</time></trkpt><trkpt lat="64.02706146" lon="-19.19081879"><ele>598.2</ele><time>2012-07-22T12:35:21.0000000+00:00</time></trkpt><trkpt lat="64.02700806" lon="-19.19062996"><ele>598.3</ele><time>2012-07-22T12:35:26.0000000+00:00</time></trkpt><trkpt lat="64.02697754" lon="-19.19040871"><ele>598.3</ele><time>2012-07-22T12:35:31.0000000+00:00</time></trkpt><trkpt lat="64.02694702" lon="-19.19017601"><ele>597.8</ele><time>2012-07-22T12:35:36.0000000+00:00</time></trkpt><trkpt lat="64.0269165" lon="-19.18993568"><ele>597.8</ele><time>2012-07-22T12:35:41.0000000+00:00</time></trkpt><trkpt lat="64.02688599" lon="-19.18968964"><ele>597.0</ele><time>2012-07-22T12:35:46.0000000+00:00</time></trkpt><trkpt lat="64.0268631" lon="-19.18948174"><ele>596.4</ele><time>2012-07-22T12:35:51.0000000+00:00</time></trkpt><trkpt lat="64.02682495" lon="-19.18925667"><ele>597.0</ele><time>2012-07-22T12:35:56.0000000+00:00</time></trkpt><trkpt lat="64.02677918" lon="-19.18906212"><ele>597.2</ele><time>2012-07-22T12:36:01.0000000+00:00</time></trkpt><trkpt lat="64.02675629" lon="-19.18887138"><ele>596.8</ele><time>2012-07-22T12:36:06.0000000+00:00</time></trkpt><trkpt lat="64.02671814" lon="-19.18868446"><ele>596.3</ele><time>2012-07-22T12:36:11.0000000+00:00</time></trkpt><trkpt lat="64.02668762" lon="-19.18847084"><ele>598.7</ele><time>2012-07-22T12:36:16.0000000+00:00</time></trkpt><trkpt lat="64.02664948" lon="-19.18824196"><ele>599.3</ele><time>2012-07-22T12:36:21.0000000+00:00</time></trkpt><trkpt lat="64.02661133" lon="-19.18802261"><ele>600.2</ele><time>2012-07-22T12:36:26.0000000+00:00</time></trkpt><trkpt lat="64.02657318" lon="-19.18782044"><ele>601.1</ele><time>2012-07-22T12:36:31.0000000+00:00</time></trkpt><trkpt lat="64.02653503" lon="-19.18761253"><ele>602.4</ele><time>2012-07-22T12:36:36.0000000+00:00</time></trkpt><trkpt lat="64.02649689" lon="-19.18737412"><ele>603.0</ele><time>2012-07-22T12:36:41.0000000+00:00</time></trkpt><trkpt lat="64.02645874" lon="-19.18712997"><ele>603.4</ele><time>2012-07-22T12:36:46.0000000+00:00</time></trkpt><trkpt lat="64.02644348" lon="-19.18688583"><ele>603.9</ele><time>2012-07-22T12:36:51.0000000+00:00</time></trkpt><trkpt lat="64.02639771" lon="-19.18664932"><ele>604.5</ele><time>2012-07-22T12:36:56.0000000+00:00</time></trkpt><trkpt lat="64.02636719" lon="-19.18641281"><ele>606.4</ele><time>2012-07-22T12:37:01.0000000+00:00</time></trkpt><trkpt lat="64.02633667" lon="-19.18617821"><ele>607.5</ele><time>2012-07-22T12:37:06.0000000+00:00</time></trkpt><trkpt lat="64.02630615" lon="-19.18593216"><ele>608.3</ele><time>2012-07-22T12:37:11.0000000+00:00</time></trkpt><trkpt lat="64.02627564" lon="-19.18570137"><ele>609.4</ele><time>2012-07-22T12:37:16.0000000+00:00</time></trkpt><trkpt lat="64.02623749" lon="-19.18546104"><ele>610.5</ele><time>2012-07-22T12:37:21.0000000+00:00</time></trkpt><trkpt lat="64.02619934" lon="-19.18525887"><ele>611.3</ele><time>2012-07-22T12:37:26.0000000+00:00</time></trkpt><trkpt lat="64.02616882" lon="-19.1850605"><ele>611.2</ele><time>2012-07-22T12:37:31.0000000+00:00</time></trkpt><trkpt lat="64.02614594" lon="-19.18484688"><ele>610.6</ele><time>2012-07-22T12:37:36.0000000+00:00</time></trkpt><trkpt lat="64.02612305" lon="-19.18460465"><ele>610.1</ele><time>2012-07-22T12:37:41.0000000+00:00</time></trkpt><trkpt lat="64.02611542" lon="-19.1843586"><ele>610.5</ele><time>2012-07-22T12:37:46.0000000+00:00</time></trkpt><trkpt lat="64.02613068" lon="-19.18411446"><ele>610.5</ele><time>2012-07-22T12:37:51.0000000+00:00</time></trkpt><trkpt lat="64.02615356" lon="-19.18387032"><ele>610.9</ele><time>2012-07-22T12:37:56.0000000+00:00</time></trkpt><trkpt lat="64.02619934" lon="-19.18359947"><ele>611.3</ele><time>2012-07-22T12:38:01.0000000+00:00</time></trkpt><trkpt lat="64.0262146" lon="-19.183424"><ele>611.1</ele><time>2012-07-22T12:38:06.0000000+00:00</time></trkpt><trkpt lat="64.02626038" lon="-19.18321991"><ele>610.9</ele><time>2012-07-22T12:38:11.0000000+00:00</time></trkpt><trkpt lat="64.02629089" lon="-19.18297958"><ele>611.3</ele><time>2012-07-22T12:38:16.0000000+00:00</time></trkpt><trkpt lat="64.02631378" lon="-19.18274117"><ele>610.8</ele><time>2012-07-22T12:38:21.0000000+00:00</time></trkpt><trkpt lat="64.0263443" lon="-19.18246079"><ele>611.4</ele><time>2012-07-22T12:38:26.0000000+00:00</time></trkpt><trkpt lat="64.02637482" lon="-19.18221283"><ele>611.0</ele><time>2012-07-22T12:38:31.0000000+00:00</time></trkpt><trkpt lat="64.02640533" lon="-19.18194771"><ele>611.9</ele><time>2012-07-22T12:38:36.0000000+00:00</time></trkpt><trkpt lat="64.02643585" lon="-19.18177605"><ele>612.7</ele><time>2012-07-22T12:38:41.0000000+00:00</time></trkpt><trkpt lat="64.02645111" lon="-19.18168449"><ele>612.8</ele><time>2012-07-22T12:38:46.0000000+00:00</time></trkpt><trkpt lat="64.02644348" lon="-19.18165779"><ele>612.2</ele><time>2012-07-22T12:38:51.0000000+00:00</time></trkpt><trkpt lat="64.02645874" lon="-19.18157578"><ele>613.2</ele><time>2012-07-22T12:38:56.0000000+00:00</time></trkpt><trkpt lat="64.02649689" lon="-19.18130493"><ele>613.8</ele><time>2012-07-22T12:39:01.0000000+00:00</time></trkpt><trkpt lat="64.02654266" lon="-19.18100929"><ele>613.4</ele><time>2012-07-22T12:39:06.0000000+00:00</time></trkpt><trkpt lat="64.02658081" lon="-19.18066025"><ele>614.2</ele><time>2012-07-22T12:39:11.0000000+00:00</time></trkpt><trkpt lat="64.02662659" lon="-19.18026161"><ele>618.4</ele><time>2012-07-22T12:39:16.0000000+00:00</time></trkpt><trkpt lat="64.02667236" lon="-19.17995453"><ele>618.2</ele><time>2012-07-22T12:39:21.0000000+00:00</time></trkpt><trkpt lat="64.02672577" lon="-19.1796608"><ele>618.4</ele><time>2012-07-22T12:39:26.0000000+00:00</time></trkpt><trkpt lat="64.02676392" lon="-19.17940521"><ele>618.1</ele><time>2012-07-22T12:39:31.0000000+00:00</time></trkpt><trkpt lat="64.02680969" lon="-19.17913055"><ele>618.2</ele><time>2012-07-22T12:39:36.0000000+00:00</time></trkpt><trkpt lat="64.02685547" lon="-19.17885208"><ele>618.7</ele><time>2012-07-22T12:39:41.0000000+00:00</time></trkpt><trkpt lat="64.02690125" lon="-19.17856979"><ele>618.9</ele><time>2012-07-22T12:39:46.0000000+00:00</time></trkpt><trkpt lat="64.02694702" lon="-19.17827416"><ele>619.4</ele><time>2012-07-22T12:39:51.0000000+00:00</time></trkpt><trkpt lat="64.02696991" lon="-19.17802239"><ele>619.0</ele><time>2012-07-22T12:39:56.0000000+00:00</time></trkpt><trkpt lat="64.02700806" lon="-19.17772293"><ele>618.6</ele><time>2012-07-22T12:40:01.0000000+00:00</time></trkpt><trkpt lat="64.02703857" lon="-19.17739487"><ele>618.6</ele><time>2012-07-22T12:40:06.0000000+00:00</time></trkpt><trkpt lat="64.02706909" lon="-19.17708206"><ele>618.5</ele><time>2012-07-22T12:40:11.0000000+00:00</time></trkpt><trkpt lat="64.02709198" lon="-19.17675591"><ele>618.4</ele><time>2012-07-22T12:40:16.0000000+00:00</time></trkpt><trkpt lat="64.02710724" lon="-19.1764164"><ele>617.1</ele><time>2012-07-22T12:40:21.0000000+00:00</time></trkpt><trkpt lat="64.02711487" lon="-19.1760807"><ele>616.1</ele><time>2012-07-22T12:40:26.0000000+00:00</time></trkpt><trkpt lat="64.02713776" lon="-19.17583084"><ele>616.9</ele><time>2012-07-22T12:40:31.0000000+00:00</time></trkpt><trkpt lat="64.02715302" lon="-19.17554092"><ele>617.3</ele><time>2012-07-22T12:40:36.0000000+00:00</time></trkpt><trkpt lat="64.0271759" lon="-19.17525101"><ele>615.3</ele><time>2012-07-22T12:40:41.0000000+00:00</time></trkpt><trkpt lat="64.02719879" lon="-19.1749363"><ele>614.3</ele><time>2012-07-22T12:40:46.0000000+00:00</time></trkpt><trkpt lat="64.02721405" lon="-19.17461777"><ele>614.3</ele><time>2012-07-22T12:40:51.0000000+00:00</time></trkpt><trkpt lat="64.02723694" lon="-19.17432022"><ele>613.3</ele><time>2012-07-22T12:40:56.0000000+00:00</time></trkpt><trkpt lat="64.02725983" lon="-19.17401123"><ele>612.6</ele><time>2012-07-22T12:41:01.0000000+00:00</time></trkpt><trkpt lat="64.02727509" lon="-19.17365646"><ele>611.1</ele><time>2012-07-22T12:41:06.0000000+00:00</time></trkpt><trkpt lat="64.02727509" lon="-19.17331314"><ele>612.1</ele><time>2012-07-22T12:41:11.0000000+00:00</time></trkpt><trkpt lat="64.02726746" lon="-19.17296791"><ele>610.7</ele><time>2012-07-22T12:41:16.0000000+00:00</time></trkpt><trkpt lat="64.0272522" lon="-19.17265129"><ele>609.8</ele><time>2012-07-22T12:41:21.0000000+00:00</time></trkpt><trkpt lat="64.02723694" lon="-19.17242813"><ele>611.9</ele><time>2012-07-22T12:41:26.0000000+00:00</time></trkpt><trkpt lat="64.02720642" lon="-19.17213249"><ele>612.6</ele><time>2012-07-22T12:41:31.0000000+00:00</time></trkpt><trkpt lat="64.02719116" lon="-19.17180824"><ele>613.1</ele><time>2012-07-22T12:41:36.0000000+00:00</time></trkpt><trkpt lat="64.0271759" lon="-19.1714859"><ele>613.5</ele><time>2012-07-22T12:41:41.0000000+00:00</time></trkpt><trkpt lat="64.02715302" lon="-19.171175"><ele>612.5</ele><time>2012-07-22T12:41:46.0000000+00:00</time></trkpt><trkpt lat="64.02714539" lon="-19.17086983"><ele>613.0</ele><time>2012-07-22T12:41:51.0000000+00:00</time></trkpt><trkpt lat="64.0271225" lon="-19.17054558"><ele>612.8</ele><time>2012-07-22T12:41:56.0000000+00:00</time></trkpt><trkpt lat="64.02711487" lon="-19.17022133"><ele>613.0</ele><time>2012-07-22T12:42:01.0000000+00:00</time></trkpt><trkpt lat="64.02706909" lon="-19.16996193"><ele>613.4</ele><time>2012-07-22T12:42:06.0000000+00:00</time></trkpt><trkpt lat="64.02701569" lon="-19.16968346"><ele>614.2</ele><time>2012-07-22T12:42:11.0000000+00:00</time></trkpt><trkpt lat="64.02696228" lon="-19.16943169"><ele>613.4</ele><time>2012-07-22T12:42:16.0000000+00:00</time></trkpt><trkpt lat="64.0269165" lon="-19.16915131"><ele>611.4</ele><time>2012-07-22T12:42:21.0000000+00:00</time></trkpt><trkpt lat="64.02687073" lon="-19.16890717"><ele>609.9</ele><time>2012-07-22T12:42:26.0000000+00:00</time></trkpt><trkpt lat="64.02682495" lon="-19.16862679"><ele>608.9</ele><time>2012-07-22T12:42:31.0000000+00:00</time></trkpt><trkpt lat="64.02677918" lon="-19.1683178"><ele>608.6</ele><time>2012-07-22T12:42:36.0000000+00:00</time></trkpt><trkpt lat="64.0267334" lon="-19.16810036"><ele>607.8</ele><time>2012-07-22T12:42:41.0000000+00:00</time></trkpt><trkpt lat="64.02669525" lon="-19.16787911"><ele>608.4</ele><time>2012-07-22T12:42:46.0000000+00:00</time></trkpt><trkpt lat="64.0266571" lon="-19.16757202"><ele>607.9</ele><time>2012-07-22T12:42:51.0000000+00:00</time></trkpt><trkpt lat="64.02662659" lon="-19.16733551"><ele>608.4</ele><time>2012-07-22T12:42:56.0000000+00:00</time></trkpt><trkpt lat="64.02658844" lon="-19.16711617"><ele>607.6</ele><time>2012-07-22T12:43:01.0000000+00:00</time></trkpt><trkpt lat="64.02654266" lon="-19.16689873"><ele>606.6</ele><time>2012-07-22T12:43:06.0000000+00:00</time></trkpt><trkpt lat="64.02650452" lon="-19.16666985"><ele>606.8</ele><time>2012-07-22T12:43:11.0000000+00:00</time></trkpt><trkpt lat="64.02645874" lon="-19.16646385"><ele>603.4</ele><time>2012-07-22T12:43:16.0000000+00:00</time></trkpt><trkpt lat="64.02641296" lon="-19.1662426"><ele>602.7</ele><time>2012-07-22T12:43:21.0000000+00:00</time></trkpt><trkpt lat="64.02639008" lon="-19.1660881"><ele>606.6</ele><time>2012-07-22T12:43:26.0000000+00:00</time></trkpt><trkpt lat="64.02637482" lon="-19.16593742"><ele>606.4</ele><time>2012-07-22T12:43:31.0000000+00:00</time></trkpt><trkpt lat="64.02633667" lon="-19.16578484"><ele>603.7</ele><time>2012-07-22T12:43:36.0000000+00:00</time></trkpt><trkpt lat="64.02629852" lon="-19.16560555"><ele>604.8</ele><time>2012-07-22T12:43:41.0000000+00:00</time></trkpt><trkpt lat="64.02627564" lon="-19.16540909"><ele>604.0</ele><time>2012-07-22T12:43:46.0000000+00:00</time></trkpt><trkpt lat="64.02624512" lon="-19.16520119"><ele>605.1</ele><time>2012-07-22T12:43:51.0000000+00:00</time></trkpt><trkpt lat="64.02623749" lon="-19.16506004"><ele>606.3</ele><time>2012-07-22T12:43:56.0000000+00:00</time></trkpt><trkpt lat="64.02622223" lon="-19.16490936"><ele>605.8</ele><time>2012-07-22T12:44:01.0000000+00:00</time></trkpt><trkpt lat="64.0262146" lon="-19.16476631"><ele>606.5</ele><time>2012-07-22T12:44:06.0000000+00:00</time></trkpt><trkpt lat="64.02620697" lon="-19.16461372"><ele>607.2</ele><time>2012-07-22T12:44:11.0000000+00:00</time></trkpt><trkpt lat="64.02620697" lon="-19.16445351"><ele>609.4</ele><time>2012-07-22T12:44:16.0000000+00:00</time></trkpt><trkpt lat="64.02622986" lon="-19.16431618"><ele>611.7</ele><time>2012-07-22T12:44:21.0000000+00:00</time></trkpt><trkpt lat="64.02626038" lon="-19.16414642"><ele>614.0</ele><time>2012-07-22T12:44:26.0000000+00:00</time></trkpt><trkpt lat="64.02628326" lon="-19.16397286"><ele>616.6</ele><time>2012-07-22T12:44:31.0000000+00:00</time></trkpt><trkpt lat="64.02629852" lon="-19.16386604"><ele>617.1</ele><time>2012-07-22T12:44:36.0000000+00:00</time></trkpt><trkpt lat="64.02630615" lon="-19.16375351"><ele>619.3</ele><time>2012-07-22T12:44:41.0000000+00:00</time></trkpt><trkpt lat="64.02630615" lon="-19.16369247"><ele>619.7</ele><time>2012-07-22T12:44:46.0000000+00:00</time></trkpt><trkpt lat="64.02632904" lon="-19.16360474"><ele>620.4</ele><time>2012-07-22T12:44:51.0000000+00:00</time></trkpt><trkpt lat="64.02633667" lon="-19.16350746"><ele>620.9</ele><time>2012-07-22T12:44:56.0000000+00:00</time></trkpt><trkpt lat="64.02633667" lon="-19.16342735"><ele>620.6</ele><time>2012-07-22T12:45:01.0000000+00:00</time></trkpt><trkpt lat="64.0263443" lon="-19.16335297"><ele>619.5</ele><time>2012-07-22T12:45:06.0000000+00:00</time></trkpt><trkpt lat="64.0263443" lon="-19.16329384"><ele>618.6</ele><time>2012-07-22T12:45:11.0000000+00:00</time></trkpt><trkpt lat="64.02633667" lon="-19.16320992"><ele>618.8</ele><time>2012-07-22T12:45:16.0000000+00:00</time></trkpt><trkpt lat="64.02633667" lon="-19.16311646"><ele>619.0</ele><time>2012-07-22T12:45:21.0000000+00:00</time></trkpt><trkpt lat="64.02632141" lon="-19.16300011"><ele>619.3</ele><time>2012-07-22T12:45:26.0000000+00:00</time></trkpt><trkpt lat="64.02632141" lon="-19.16289711"><ele>619.5</ele><time>2012-07-22T12:45:31.0000000+00:00</time></trkpt><trkpt lat="64.02631378" lon="-19.16280556"><ele>620.2</ele><time>2012-07-22T12:45:36.0000000+00:00</time></trkpt><trkpt lat="64.02630615" lon="-19.16271401"><ele>621.6</ele><time>2012-07-22T12:45:41.0000000+00:00</time></trkpt><trkpt lat="64.02629852" lon="-19.16260529"><ele>623.3</ele><time>2012-07-22T12:45:46.0000000+00:00</time></trkpt><trkpt lat="64.02631378" lon="-19.16249657"><ele>623.7</ele><time>2012-07-22T12:45:51.0000000+00:00</time></trkpt><trkpt lat="64.02629852" lon="-19.1623764"><ele>624.7</ele><time>2012-07-22T12:45:56.0000000+00:00</time></trkpt><trkpt lat="64.02630615" lon="-19.16226769"><ele>625.9</ele><time>2012-07-22T12:46:01.0000000+00:00</time></trkpt><trkpt lat="64.02629852" lon="-19.16213608"><ele>626.7</ele><time>2012-07-22T12:46:06.0000000+00:00</time></trkpt><trkpt lat="64.02629089" lon="-19.16204071"><ele>626.9</ele><time>2012-07-22T12:46:11.0000000+00:00</time></trkpt><trkpt lat="64.02627564" lon="-19.16195679"><ele>626.4</ele><time>2012-07-22T12:46:16.0000000+00:00</time></trkpt><trkpt lat="64.02623749" lon="-19.16191101"><ele>629.3</ele><time>2012-07-22T12:46:21.0000000+00:00</time></trkpt><trkpt lat="64.02620697" lon="-19.16185379"><ele>628.8</ele><time>2012-07-22T12:46:26.0000000+00:00</time></trkpt><trkpt lat="64.02620697" lon="-19.16179466"><ele>626.5</ele><time>2012-07-22T12:46:31.0000000+00:00</time></trkpt><trkpt lat="64.02619934" lon="-19.16179848"><ele>626.1</ele><time>2012-07-22T12:46:36.0000000+00:00</time></trkpt><trkpt lat="64.02614594" lon="-19.16158867"><ele>624.2</ele><time>2012-07-22T12:46:41.0000000+00:00</time></trkpt><trkpt lat="64.02606964" lon="-19.16135025"><ele>623.4</ele><time>2012-07-22T12:46:46.0000000+00:00</time></trkpt><trkpt lat="64.02600861" lon="-19.16111755"><ele>622.9</ele><time>2012-07-22T12:46:51.0000000+00:00</time></trkpt><trkpt lat="64.02597809" lon="-19.16094399"><ele>622.5</ele><time>2012-07-22T12:46:56.0000000+00:00</time></trkpt><trkpt lat="64.02596283" lon="-19.16074753"><ele>623.2</ele><time>2012-07-22T12:47:01.0000000+00:00</time></trkpt><trkpt lat="64.02597809" lon="-19.16049576"><ele>624.5</ele><time>2012-07-22T12:47:06.0000000+00:00</time></trkpt><trkpt lat="64.02596283" lon="-19.16020775"><ele>624.4</ele><time>2012-07-22T12:47:11.0000000+00:00</time></trkpt><trkpt lat="64.02593231" lon="-19.16002083"><ele>623.5</ele><time>2012-07-22T12:47:16.0000000+00:00</time></trkpt><trkpt lat="64.02597809" lon="-19.1597805"><ele>624.3</ele><time>2012-07-22T12:47:21.0000000+00:00</time></trkpt><trkpt lat="64.02603912" lon="-19.15951157"><ele>625.2</ele><time>2012-07-22T12:47:26.0000000+00:00</time></trkpt><trkpt lat="64.02610016" lon="-19.15933037"><ele>624.7</ele><time>2012-07-22T12:47:31.0000000+00:00</time></trkpt><trkpt lat="64.02611542" lon="-19.15925407"><ele>628.7</ele><time>2012-07-22T12:47:36.0000000+00:00</time></trkpt><trkpt lat="64.02612305" lon="-19.15925407"><ele>629.0</ele><time>2012-07-22T12:47:41.0000000+00:00</time></trkpt><trkpt lat="64.02612305" lon="-19.15925217"><ele>629.1</ele><time>2012-07-22T12:47:46.0000000+00:00</time></trkpt><trkpt lat="64.02612305" lon="-19.15925217"><ele>629.1</ele><time>2012-07-22T12:47:51.0000000+00:00</time></trkpt><trkpt lat="64.02612305" lon="-19.15925217"><ele>629.2</ele><time>2012-07-22T12:47:56.0000000+00:00</time></trkpt><trkpt lat="64.02612305" lon="-19.15925217"><ele>629.2</ele><time>2012-07-22T12:48:01.0000000+00:00</time></trkpt><trkpt lat="64.02612305" lon="-19.15925217"><ele>629.2</ele><time>2012-07-22T12:48:06.0000000+00:00</time></trkpt><trkpt lat="64.02619934" lon="-19.15912819"><ele>627.4</ele><time>2012-07-22T12:48:11.0000000+00:00</time></trkpt><trkpt lat="64.02632904" lon="-19.15881157"><ele>621.7</ele><time>2012-07-22T12:48:16.0000000+00:00</time></trkpt><trkpt lat="64.02648163" lon="-19.158535"><ele>617.3</ele><time>2012-07-22T12:48:21.0000000+00:00</time></trkpt><trkpt lat="64.02664948" lon="-19.15830612"><ele>612.8</ele><time>2012-07-22T12:48:26.0000000+00:00</time></trkpt><trkpt lat="64.02684021" lon="-19.15820313"><ele>606.7</ele><time>2012-07-22T12:48:31.0000000+00:00</time></trkpt><trkpt lat="64.0270462" lon="-19.15826988"><ele>598.9</ele><time>2012-07-22T12:48:36.0000000+00:00</time></trkpt><trkpt lat="64.0273819" lon="-19.15837288"><ele>590.4</ele><time>2012-07-22T12:48:41.0000000+00:00</time></trkpt><trkpt lat="64.02788544" lon="-19.15842819"><ele>581.0</ele><time>2012-07-22T12:48:46.0000000+00:00</time></trkpt><trkpt lat="64.02824402" lon="-19.15833855"><ele>576.0</ele><time>2012-07-22T12:48:51.0000000+00:00</time></trkpt><trkpt lat="64.02835083" lon="-19.15792275"><ele>572.5</ele><time>2012-07-22T12:48:56.0000000+00:00</time></trkpt><trkpt lat="64.02833557" lon="-19.15772247"><ele>570.1</ele><time>2012-07-22T12:49:01.0000000+00:00</time></trkpt><trkpt lat="64.02832794" lon="-19.15767479"><ele>570.0</ele><time>2012-07-22T12:49:06.0000000+00:00</time></trkpt><trkpt lat="64.02832031" lon="-19.15768051"><ele>570.0</ele><time>2012-07-22T12:49:11.0000000+00:00</time></trkpt><trkpt lat="64.02832031" lon="-19.15768051"><ele>570.0</ele><time>2012-07-22T12:49:16.0000000+00:00</time></trkpt><trkpt lat="64.02832794" lon="-19.15768242"><ele>570.1</ele><time>2012-07-22T12:49:21.0000000+00:00</time></trkpt><trkpt lat="64.02832794" lon="-19.15768242"><ele>570.3</ele><time>2012-07-22T12:49:26.0000000+00:00</time></trkpt><trkpt lat="64.02832794" lon="-19.15768433"><ele>570.4</ele><time>2012-07-22T12:49:31.0000000+00:00</time></trkpt><trkpt lat="64.02832794" lon="-19.15768433"><ele>570.3</ele><time>2012-07-22T12:49:36.0000000+00:00</time></trkpt><trkpt lat="64.02832794" lon="-19.15768623"><ele>570.3</ele><time>2012-07-22T12:49:41.0000000+00:00</time></trkpt><trkpt lat="64.02832794" lon="-19.15768623"><ele>570.2</ele><time>2012-07-22T12:49:46.0000000+00:00</time></trkpt><trkpt lat="64.02832794" lon="-19.15768623"><ele>570.0</ele><time>2012-07-22T12:49:51.0000000+00:00</time></trkpt><trkpt lat="64.02832794" lon="-19.15768623"><ele>570.0</ele><time>2012-07-22T12:49:56.0000000+00:00</time></trkpt><trkpt lat="64.02832794" lon="-19.15768623"><ele>570.0</ele><time>2012-07-22T12:50:01.0000000+00:00</time></trkpt><trkpt lat="64.02832794" lon="-19.15768623"><ele>570.0</ele><time>2012-07-22T12:50:06.0000000+00:00</time></trkpt><trkpt lat="64.02832794" lon="-19.15768623"><ele>570.0</ele><time>2012-07-22T12:50:11.0000000+00:00</time></trkpt><trkpt lat="64.02832794" lon="-19.15768623"><ele>569.9</ele><time>2012-07-22T12:50:16.0000000+00:00</time></trkpt><trkpt lat="64.02832031" lon="-19.15768242"><ele>570.0</ele><time>2012-07-22T12:50:21.0000000+00:00</time></trkpt><trkpt lat="64.02824402" lon="-19.15766144"><ele>570.2</ele><time>2012-07-22T12:50:26.0000000+00:00</time></trkpt><trkpt lat="64.02819824" lon="-19.15757561"><ele>570.1</ele><time>2012-07-22T12:50:31.0000000+00:00</time></trkpt><trkpt lat="64.02816773" lon="-19.15748024"><ele>569.7</ele><time>2012-07-22T12:50:36.0000000+00:00</time></trkpt><trkpt lat="64.02815247" lon="-19.15747833"><ele>570.8</ele><time>2012-07-22T12:50:41.0000000+00:00</time></trkpt><trkpt lat="64.02812958" lon="-19.15746117"><ele>571.5</ele><time>2012-07-22T12:50:46.0000000+00:00</time></trkpt><trkpt lat="64.0281601" lon="-19.1574173"><ele>571.7</ele><time>2012-07-22T12:50:51.0000000+00:00</time></trkpt><trkpt lat="64.02815247" lon="-19.15739059"><ele>572.0</ele><time>2012-07-22T12:50:56.0000000+00:00</time></trkpt><trkpt lat="64.02815247" lon="-19.15738869"><ele>571.9</ele><time>2012-07-22T12:51:01.0000000+00:00</time></trkpt><trkpt lat="64.02815247" lon="-19.15738869"><ele>571.9</ele><time>2012-07-22T12:51:06.0000000+00:00</time></trkpt><trkpt lat="64.02815247" lon="-19.15738869"><ele>572.0</ele><time>2012-07-22T12:51:11.0000000+00:00</time></trkpt><trkpt lat="64.02815247" lon="-19.1574173"><ele>572.4</ele><time>2012-07-22T12:51:16.0000000+00:00</time></trkpt><trkpt lat="64.02815247" lon="-19.15748024"><ele>573.9</ele><time>2012-07-22T12:51:21.0000000+00:00</time></trkpt><trkpt lat="64.02814484" lon="-19.15750313"><ele>574.4</ele><time>2012-07-22T12:51:26.0000000+00:00</time></trkpt><trkpt lat="64.02813721" lon="-19.15749931"><ele>574.0</ele><time>2012-07-22T12:51:31.0000000+00:00</time></trkpt><trkpt lat="64.0281601" lon="-19.15735436"><ele>573.2</ele><time>2012-07-22T12:51:36.0000000+00:00</time></trkpt><trkpt lat="64.02809906" lon="-19.15720367"><ele>572.5</ele><time>2012-07-22T12:51:41.0000000+00:00</time></trkpt><trkpt lat="64.0280304" lon="-19.15710259"><ele>573.5</ele><time>2012-07-22T12:51:46.0000000+00:00</time></trkpt><trkpt lat="64.02798462" lon="-19.15703774"><ele>573.8</ele><time>2012-07-22T12:51:51.0000000+00:00</time></trkpt><trkpt lat="64.02798462" lon="-19.15702248"><ele>573.7</ele><time>2012-07-22T12:51:56.0000000+00:00</time></trkpt><trkpt lat="64.02798462" lon="-19.15702057"><ele>573.9</ele><time>2012-07-22T12:52:01.0000000+00:00</time></trkpt><trkpt lat="64.02798462" lon="-19.15701866"><ele>573.9</ele><time>2012-07-22T12:52:06.0000000+00:00</time></trkpt><trkpt lat="64.02797699" lon="-19.15701866"><ele>573.9</ele><time>2012-07-22T12:52:11.0000000+00:00</time></trkpt><trkpt lat="64.02797699" lon="-19.15701866"><ele>573.9</ele><time>2012-07-22T12:52:16.0000000+00:00</time></trkpt><trkpt lat="64.02797699" lon="-19.15701866"><ele>573.8</ele><time>2012-07-22T12:52:21.0000000+00:00</time></trkpt><trkpt lat="64.02797699" lon="-19.15701866"><ele>573.8</ele><time>2012-07-22T12:52:26.0000000+00:00</time></trkpt><trkpt lat="64.02797699" lon="-19.15701675"><ele>573.8</ele><time>2012-07-22T12:52:31.0000000+00:00</time></trkpt><trkpt lat="64.02797699" lon="-19.15701675"><ele>573.8</ele><time>2012-07-22T12:52:36.0000000+00:00</time></trkpt><trkpt lat="64.02796936" lon="-19.15701866"><ele>573.8</ele><time>2012-07-22T12:52:41.0000000+00:00</time></trkpt><trkpt lat="64.02796936" lon="-19.15702248"><ele>573.1</ele><time>2012-07-22T12:52:46.0000000+00:00</time></trkpt><trkpt lat="64.0279541" lon="-19.15695"><ele>572.8</ele><time>2012-07-22T12:52:51.0000000+00:00</time></trkpt><trkpt lat="64.02792358" lon="-19.15675926"><ele>573.2</ele><time>2012-07-22T12:52:56.0000000+00:00</time></trkpt><trkpt lat="64.02788544" lon="-19.15662193"><ele>574.0</ele><time>2012-07-22T12:53:01.0000000+00:00</time></trkpt><trkpt lat="64.02783966" lon="-19.15647697"><ele>573.8</ele><time>2012-07-22T12:53:06.0000000+00:00</time></trkpt><trkpt lat="64.0278244" lon="-19.15624237"><ele>574.1</ele><time>2012-07-22T12:53:11.0000000+00:00</time></trkpt><trkpt lat="64.02781677" lon="-19.15592194"><ele>573.7</ele><time>2012-07-22T12:53:16.0000000+00:00</time></trkpt><trkpt lat="64.02784729" lon="-19.15559006"><ele>573.9</ele><time>2012-07-22T12:53:21.0000000+00:00</time></trkpt><trkpt lat="64.02787781" lon="-19.15525436"><ele>572.1</ele><time>2012-07-22T12:53:26.0000000+00:00</time></trkpt><trkpt lat="64.02791596" lon="-19.15490151"><ele>572.4</ele><time>2012-07-22T12:53:31.0000000+00:00</time></trkpt><trkpt lat="64.02793884" lon="-19.154562"><ele>572.7</ele><time>2012-07-22T12:53:36.0000000+00:00</time></trkpt><trkpt lat="64.02796936" lon="-19.15423966"><ele>572.9</ele><time>2012-07-22T12:53:41.0000000+00:00</time></trkpt><trkpt lat="64.02798462" lon="-19.15390968"><ele>574.0</ele><time>2012-07-22T12:53:46.0000000+00:00</time></trkpt><trkpt lat="64.02801514" lon="-19.15356827"><ele>573.9</ele><time>2012-07-22T12:53:51.0000000+00:00</time></trkpt><trkpt lat="64.02804565" lon="-19.15322113"><ele>573.5</ele><time>2012-07-22T12:53:56.0000000+00:00</time></trkpt><trkpt lat="64.02806854" lon="-19.15286636"><ele>572.3</ele><time>2012-07-22T12:54:01.0000000+00:00</time></trkpt><trkpt lat="64.02809906" lon="-19.15249825"><ele>573.1</ele><time>2012-07-22T12:54:06.0000000+00:00</time></trkpt><trkpt lat="64.02812958" lon="-19.15213966"><ele>573.8</ele><time>2012-07-22T12:54:11.0000000+00:00</time></trkpt><trkpt lat="64.02815247" lon="-19.15179062"><ele>574.5</ele><time>2012-07-22T12:54:16.0000000+00:00</time></trkpt><trkpt lat="64.02816773" lon="-19.15146065"><ele>574.9</ele><time>2012-07-22T12:54:21.0000000+00:00</time></trkpt><trkpt lat="64.02819824" lon="-19.15114021"><ele>575.1</ele><time>2012-07-22T12:54:26.0000000+00:00</time></trkpt><trkpt lat="64.02822113" lon="-19.15080643"><ele>575.3</ele><time>2012-07-22T12:54:31.0000000+00:00</time></trkpt><trkpt lat="64.02827454" lon="-19.15046883"><ele>575.3</ele><time>2012-07-22T12:54:36.0000000+00:00</time></trkpt><trkpt lat="64.02833557" lon="-19.15013886"><ele>575.7</ele><time>2012-07-22T12:54:41.0000000+00:00</time></trkpt><trkpt lat="64.02841187" lon="-19.1498394"><ele>576.1</ele><time>2012-07-22T12:54:46.0000000+00:00</time></trkpt><trkpt lat="64.02848816" lon="-19.14953613"><ele>576.0</ele><time>2012-07-22T12:54:51.0000000+00:00</time></trkpt><trkpt lat="64.02855682" lon="-19.14924431"><ele>574.7</ele><time>2012-07-22T12:54:56.0000000+00:00</time></trkpt><trkpt lat="64.02862549" lon="-19.14897156"><ele>572.9</ele><time>2012-07-22T12:55:01.0000000+00:00</time></trkpt><trkpt lat="64.02867127" lon="-19.14871597"><ele>573.3</ele><time>2012-07-22T12:55:06.0000000+00:00</time></trkpt><trkpt lat="64.02872467" lon="-19.14839935"><ele>573.6</ele><time>2012-07-22T12:55:11.0000000+00:00</time></trkpt><trkpt lat="64.02878571" lon="-19.14808464"><ele>573.0</ele><time>2012-07-22T12:55:16.0000000+00:00</time></trkpt><trkpt lat="64.02883148" lon="-19.14777374"><ele>573.5</ele><time>2012-07-22T12:55:21.0000000+00:00</time></trkpt><trkpt lat="64.02889252" lon="-19.14745331"><ele>573.5</ele><time>2012-07-22T12:55:26.0000000+00:00</time></trkpt><trkpt lat="64.02895355" lon="-19.14714813"><ele>573.2</ele><time>2012-07-22T12:55:31.0000000+00:00</time></trkpt><trkpt lat="64.02902222" lon="-19.14685059"><ele>573.6</ele><time>2012-07-22T12:55:36.0000000+00:00</time></trkpt><trkpt lat="64.02907562" lon="-19.14656258"><ele>573.7</ele><time>2012-07-22T12:55:41.0000000+00:00</time></trkpt><trkpt lat="64.02913666" lon="-19.14627457"><ele>574.0</ele><time>2012-07-22T12:55:46.0000000+00:00</time></trkpt><trkpt lat="64.02919769" lon="-19.14597511"><ele>573.8</ele><time>2012-07-22T12:55:51.0000000+00:00</time></trkpt><trkpt lat="64.02925873" lon="-19.14568138"><ele>573.6</ele><time>2012-07-22T12:55:56.0000000+00:00</time></trkpt><trkpt lat="64.02934265" lon="-19.14537621"><ele>573.8</ele><time>2012-07-22T12:56:01.0000000+00:00</time></trkpt><trkpt lat="64.0294342" lon="-19.14509201"><ele>573.4</ele><time>2012-07-22T12:56:06.0000000+00:00</time></trkpt><trkpt lat="64.02951813" lon="-19.14479637"><ele>572.8</ele><time>2012-07-22T12:56:11.0000000+00:00</time></trkpt><trkpt lat="64.02957153" lon="-19.14447975"><ele>572.5</ele><time>2012-07-22T12:56:16.0000000+00:00</time></trkpt><trkpt lat="64.02962494" lon="-19.14416313"><ele>572.0</ele><time>2012-07-22T12:56:21.0000000+00:00</time></trkpt><trkpt lat="64.02966309" lon="-19.14383316"><ele>572.1</ele><time>2012-07-22T12:56:26.0000000+00:00</time></trkpt><trkpt lat="64.02970123" lon="-19.14350319"><ele>572.2</ele><time>2012-07-22T12:56:31.0000000+00:00</time></trkpt><trkpt lat="64.02975464" lon="-19.14318085"><ele>572.4</ele><time>2012-07-22T12:56:36.0000000+00:00</time></trkpt><trkpt lat="64.02979279" lon="-19.14284706"><ele>572.3</ele><time>2012-07-22T12:56:41.0000000+00:00</time></trkpt><trkpt lat="64.02983856" lon="-19.14250946"><ele>572.3</ele><time>2012-07-22T12:56:46.0000000+00:00</time></trkpt><trkpt lat="64.02989197" lon="-19.14220619"><ele>572.6</ele><time>2012-07-22T12:56:51.0000000+00:00</time></trkpt><trkpt lat="64.02993012" lon="-19.14191055"><ele>572.8</ele><time>2012-07-22T12:56:56.0000000+00:00</time></trkpt><trkpt lat="64.02996826" lon="-19.14160919"><ele>572.0</ele><time>2012-07-22T12:57:01.0000000+00:00</time></trkpt><trkpt lat="64.02999878" lon="-19.14130592"><ele>571.0</ele><time>2012-07-22T12:57:06.0000000+00:00</time></trkpt><trkpt lat="64.0300293" lon="-19.14102173"><ele>570.5</ele><time>2012-07-22T12:57:11.0000000+00:00</time></trkpt><trkpt lat="64.03005219" lon="-19.14074326"><ele>570.3</ele><time>2012-07-22T12:57:16.0000000+00:00</time></trkpt><trkpt lat="64.0300827" lon="-19.14045143"><ele>570.2</ele><time>2012-07-22T12:57:21.0000000+00:00</time></trkpt><trkpt lat="64.03011322" lon="-19.1401844"><ele>570.2</ele><time>2012-07-22T12:57:26.0000000+00:00</time></trkpt><trkpt lat="64.03014374" lon="-19.13990021"><ele>570.5</ele><time>2012-07-22T12:57:31.0000000+00:00</time></trkpt><trkpt lat="64.03018189" lon="-19.13963318"><ele>570.8</ele><time>2012-07-22T12:57:36.0000000+00:00</time></trkpt><trkpt lat="64.0302124" lon="-19.13932991"><ele>570.7</ele><time>2012-07-22T12:57:41.0000000+00:00</time></trkpt><trkpt lat="64.03026581" lon="-19.13903809"><ele>570.4</ele><time>2012-07-22T12:57:46.0000000+00:00</time></trkpt><trkpt lat="64.03032684" lon="-19.13877296"><ele>570.8</ele><time>2012-07-22T12:57:51.0000000+00:00</time></trkpt><trkpt lat="64.03038788" lon="-19.13851166"><ele>570.8</ele><time>2012-07-22T12:57:56.0000000+00:00</time></trkpt><trkpt lat="64.03045654" lon="-19.13825607"><ele>570.6</ele><time>2012-07-22T12:58:01.0000000+00:00</time></trkpt><trkpt lat="64.03054047" lon="-19.13800621"><ele>570.9</ele><time>2012-07-22T12:58:06.0000000+00:00</time></trkpt><trkpt lat="64.03060913" lon="-19.13776207"><ele>571.3</ele><time>2012-07-22T12:58:11.0000000+00:00</time></trkpt><trkpt lat="64.03067017" lon="-19.13752365"><ele>570.9</ele><time>2012-07-22T12:58:16.0000000+00:00</time></trkpt><trkpt lat="64.0307312" lon="-19.13729668"><ele>570.9</ele><time>2012-07-22T12:58:21.0000000+00:00</time></trkpt><trkpt lat="64.0308075" lon="-19.13706017"><ele>570.5</ele><time>2012-07-22T12:58:26.0000000+00:00</time></trkpt><trkpt lat="64.03085327" lon="-19.13680649"><ele>570.1</ele><time>2012-07-22T12:58:31.0000000+00:00</time></trkpt><trkpt lat="64.03095245" lon="-19.1365757"><ele>569.9</ele><time>2012-07-22T12:58:36.0000000+00:00</time></trkpt><trkpt lat="64.03103638" lon="-19.13632393"><ele>570.1</ele><time>2012-07-22T12:58:41.0000000+00:00</time></trkpt><trkpt lat="64.03111267" lon="-19.1360302"><ele>569.8</ele><time>2012-07-22T12:58:46.0000000+00:00</time></trkpt><trkpt lat="64.03118134" lon="-19.13575745"><ele>569.8</ele><time>2012-07-22T12:58:51.0000000+00:00</time></trkpt><trkpt lat="64.03126526" lon="-19.13549233"><ele>569.4</ele><time>2012-07-22T12:58:56.0000000+00:00</time></trkpt><trkpt lat="64.03135681" lon="-19.13524628"><ele>569.4</ele><time>2012-07-22T12:59:01.0000000+00:00</time></trkpt><trkpt lat="64.03141785" lon="-19.13502312"><ele>569.3</ele><time>2012-07-22T12:59:06.0000000+00:00</time></trkpt><trkpt lat="64.03149414" lon="-19.13479233"><ele>569.2</ele><time>2012-07-22T12:59:11.0000000+00:00</time></trkpt><trkpt lat="64.03155518" lon="-19.13456345"><ele>569.4</ele><time>2012-07-22T12:59:16.0000000+00:00</time></trkpt><trkpt lat="64.03160858" lon="-19.13432884"><ele>569.5</ele><time>2012-07-22T12:59:21.0000000+00:00</time></trkpt><trkpt lat="64.03168488" lon="-19.13412476"><ele>569.5</ele><time>2012-07-22T12:59:26.0000000+00:00</time></trkpt><trkpt lat="64.0317688" lon="-19.13392639"><ele>569.4</ele><time>2012-07-22T12:59:31.0000000+00:00</time></trkpt><trkpt lat="64.03184509" lon="-19.13368988"><ele>569.0</ele><time>2012-07-22T12:59:36.0000000+00:00</time></trkpt><trkpt lat="64.03192139" lon="-19.13344765"><ele>568.9</ele><time>2012-07-22T12:59:41.0000000+00:00</time></trkpt><trkpt lat="64.03199005" lon="-19.13321495"><ele>568.5</ele><time>2012-07-22T12:59:46.0000000+00:00</time></trkpt><trkpt lat="64.03205872" lon="-19.13300324"><ele>568.5</ele><time>2012-07-22T12:59:51.0000000+00:00</time></trkpt><trkpt lat="64.03210449" lon="-19.13280106"><ele>568.7</ele><time>2012-07-22T12:59:56.0000000+00:00</time></trkpt><trkpt lat="64.03218079" lon="-19.13260841"><ele>568.3</ele><time>2012-07-22T13:00:01.0000000+00:00</time></trkpt><trkpt lat="64.03224945" lon="-19.1323967"><ele>568.3</ele><time>2012-07-22T13:00:06.0000000+00:00</time></trkpt><trkpt lat="64.03232575" lon="-19.13219452"><ele>568.4</ele><time>2012-07-22T13:00:11.0000000+00:00</time></trkpt><trkpt lat="64.03238678" lon="-19.13199997"><ele>568.2</ele><time>2012-07-22T13:00:16.0000000+00:00</time></trkpt><trkpt lat="64.03243256" lon="-19.13186073"><ele>568.4</ele><time>2012-07-22T13:00:21.0000000+00:00</time></trkpt><trkpt lat="64.03250122" lon="-19.13168907"><ele>568.2</ele><time>2012-07-22T13:00:26.0000000+00:00</time></trkpt><trkpt lat="64.03255463" lon="-19.13152313"><ele>568.0</ele><time>2012-07-22T13:00:31.0000000+00:00</time></trkpt><trkpt lat="64.03263092" lon="-19.13136292"><ele>567.9</ele><time>2012-07-22T13:00:36.0000000+00:00</time></trkpt><trkpt lat="64.03269196" lon="-19.13117218"><ele>568.2</ele><time>2012-07-22T13:00:41.0000000+00:00</time></trkpt><trkpt lat="64.03276062" lon="-19.13099289"><ele>568.5</ele><time>2012-07-22T13:00:46.0000000+00:00</time></trkpt><trkpt lat="64.03283691" lon="-19.13081932"><ele>568.5</ele><time>2012-07-22T13:00:51.0000000+00:00</time></trkpt><trkpt lat="64.03290558" lon="-19.13065338"><ele>568.4</ele><time>2012-07-22T13:00:56.0000000+00:00</time></trkpt><trkpt lat="64.03297424" lon="-19.13050461"><ele>568.8</ele><time>2012-07-22T13:01:01.0000000+00:00</time></trkpt><trkpt lat="64.03302765" lon="-19.13036346"><ele>569.0</ele><time>2012-07-22T13:01:06.0000000+00:00</time></trkpt><trkpt lat="64.03308868" lon="-19.13022423"><ele>569.4</ele><time>2012-07-22T13:01:11.0000000+00:00</time></trkpt><trkpt lat="64.03314209" lon="-19.13008881"><ele>570.0</ele><time>2012-07-22T13:01:16.0000000+00:00</time></trkpt><trkpt lat="64.03320313" lon="-19.12996292"><ele>571.0</ele><time>2012-07-22T13:01:21.0000000+00:00</time></trkpt><trkpt lat="64.03321838" lon="-19.12994957"><ele>571.9</ele><time>2012-07-22T13:01:26.0000000+00:00</time></trkpt><trkpt lat="64.03324127" lon="-19.12992096"><ele>572.6</ele><time>2012-07-22T13:01:31.0000000+00:00</time></trkpt><trkpt lat="64.03327179" lon="-19.12988281"><ele>572.9</ele><time>2012-07-22T13:01:36.0000000+00:00</time></trkpt><trkpt lat="64.03330994" lon="-19.12982369"><ele>574.3</ele><time>2012-07-22T13:01:41.0000000+00:00</time></trkpt><trkpt lat="64.03334045" lon="-19.12976837"><ele>575.7</ele><time>2012-07-22T13:01:46.0000000+00:00</time></trkpt><trkpt lat="64.0333786" lon="-19.12968826"><ele>576.1</ele><time>2012-07-22T13:01:51.0000000+00:00</time></trkpt><trkpt lat="64.03340912" lon="-19.12962341"><ele>576.3</ele><time>2012-07-22T13:01:56.0000000+00:00</time></trkpt><trkpt lat="64.03343201" lon="-19.12959099"><ele>576.3</ele><time>2012-07-22T13:02:01.0000000+00:00</time></trkpt><trkpt lat="64.0334549" lon="-19.1295433"><ele>576.9</ele><time>2012-07-22T13:02:06.0000000+00:00</time></trkpt><trkpt lat="64.03348541" lon="-19.12953377"><ele>577.5</ele><time>2012-07-22T13:02:11.0000000+00:00</time></trkpt><trkpt lat="64.03349304" lon="-19.12953186"><ele>577.6</ele><time>2012-07-22T13:02:16.0000000+00:00</time></trkpt><trkpt lat="64.03350067" lon="-19.12950325"><ele>578.1</ele><time>2012-07-22T13:02:21.0000000+00:00</time></trkpt><trkpt lat="64.03353119" lon="-19.12945175"><ele>578.3</ele><time>2012-07-22T13:02:26.0000000+00:00</time></trkpt><trkpt lat="64.03356934" lon="-19.1294117"><ele>579.0</ele><time>2012-07-22T13:02:31.0000000+00:00</time></trkpt><trkpt lat="64.03360748" lon="-19.129385"><ele>579.7</ele><time>2012-07-22T13:02:36.0000000+00:00</time></trkpt><trkpt lat="64.033638" lon="-19.12935257"><ele>580.4</ele><time>2012-07-22T13:02:41.0000000+00:00</time></trkpt><trkpt lat="64.03368378" lon="-19.12933159"><ele>581.0</ele><time>2012-07-22T13:02:46.0000000+00:00</time></trkpt><trkpt lat="64.03374481" lon="-19.12933922"><ele>581.5</ele><time>2012-07-22T13:02:51.0000000+00:00</time></trkpt><trkpt lat="64.03379059" lon="-19.12934303"><ele>581.3</ele><time>2012-07-22T13:02:56.0000000+00:00</time></trkpt><trkpt lat="64.03383637" lon="-19.12935638"><ele>581.0</ele><time>2012-07-22T13:03:01.0000000+00:00</time></trkpt><trkpt lat="64.0338974" lon="-19.12937355"><ele>580.8</ele><time>2012-07-22T13:03:06.0000000+00:00</time></trkpt><trkpt lat="64.03395081" lon="-19.12942886"><ele>580.7</ele><time>2012-07-22T13:03:11.0000000+00:00</time></trkpt><trkpt lat="64.03401184" lon="-19.1294632"><ele>580.8</ele><time>2012-07-22T13:03:16.0000000+00:00</time></trkpt><trkpt lat="64.03406525" lon="-19.12950707"><ele>580.6</ele><time>2012-07-22T13:03:21.0000000+00:00</time></trkpt><trkpt lat="64.03411865" lon="-19.12952614"><ele>580.4</ele><time>2012-07-22T13:03:26.0000000+00:00</time></trkpt><trkpt lat="64.03417969" lon="-19.1295166"><ele>580.5</ele><time>2012-07-22T13:03:31.0000000+00:00</time></trkpt><trkpt lat="64.03422546" lon="-19.12950325"><ele>581.1</ele><time>2012-07-22T13:03:36.0000000+00:00</time></trkpt><trkpt lat="64.03427124" lon="-19.12947083"><ele>582.3</ele><time>2012-07-22T13:03:41.0000000+00:00</time></trkpt><trkpt lat="64.03430176" lon="-19.12942123"><ele>582.7</ele><time>2012-07-22T13:03:46.0000000+00:00</time></trkpt><trkpt lat="64.03433991" lon="-19.1293354"><ele>583.7</ele><time>2012-07-22T13:03:51.0000000+00:00</time></trkpt><trkpt lat="64.03437042" lon="-19.12926865"><ele>583.8</ele><time>2012-07-22T13:03:56.0000000+00:00</time></trkpt><trkpt lat="64.03437805" lon="-19.12916946"><ele>584.2</ele><time>2012-07-22T13:04:01.0000000+00:00</time></trkpt><trkpt lat="64.03436279" lon="-19.129076"><ele>584.6</ele><time>2012-07-22T13:04:06.0000000+00:00</time></trkpt><trkpt lat="64.03435516" lon="-19.12897873"><ele>585.1</ele><time>2012-07-22T13:04:11.0000000+00:00</time></trkpt><trkpt lat="64.03435516" lon="-19.1288929"><ele>586.1</ele><time>2012-07-22T13:04:16.0000000+00:00</time></trkpt><trkpt lat="64.03433991" lon="-19.12880516"><ele>586.5</ele><time>2012-07-22T13:04:21.0000000+00:00</time></trkpt><trkpt lat="64.03431702" lon="-19.12872887"><ele>586.4</ele><time>2012-07-22T13:04:26.0000000+00:00</time></trkpt><trkpt lat="64.03430939" lon="-19.12863159"><ele>587.0</ele><time>2012-07-22T13:04:31.0000000+00:00</time></trkpt><trkpt lat="64.03430176" lon="-19.12853432"><ele>587.5</ele><time>2012-07-22T13:04:36.0000000+00:00</time></trkpt><trkpt lat="64.03430176" lon="-19.12844086"><ele>588.1</ele><time>2012-07-22T13:04:41.0000000+00:00</time></trkpt><trkpt lat="64.03431702" lon="-19.12831688"><ele>589.1</ele><time>2012-07-22T13:04:46.0000000+00:00</time></trkpt><trkpt lat="64.03432465" lon="-19.12820816"><ele>589.7</ele><time>2012-07-22T13:04:51.0000000+00:00</time></trkpt><trkpt lat="64.03433991" lon="-19.12811852"><ele>591.0</ele><time>2012-07-22T13:04:56.0000000+00:00</time></trkpt><trkpt lat="64.03433991" lon="-19.12804222"><ele>591.3</ele><time>2012-07-22T13:05:01.0000000+00:00</time></trkpt><trkpt lat="64.03435516" lon="-19.12797737"><ele>591.5</ele><time>2012-07-22T13:05:06.0000000+00:00</time></trkpt><trkpt lat="64.03437042" lon="-19.12789536"><ele>591.4</ele><time>2012-07-22T13:05:11.0000000+00:00</time></trkpt><trkpt lat="64.03438568" lon="-19.12780762"><ele>591.3</ele><time>2012-07-22T13:05:16.0000000+00:00</time></trkpt><trkpt lat="64.03442383" lon="-19.12769699"><ele>592.0</ele><time>2012-07-22T13:05:21.0000000+00:00</time></trkpt><trkpt lat="64.03444672" lon="-19.12760353"><ele>593.1</ele><time>2012-07-22T13:05:26.0000000+00:00</time></trkpt><trkpt lat="64.03447723" lon="-19.12750816"><ele>594.0</ele><time>2012-07-22T13:05:31.0000000+00:00</time></trkpt><trkpt lat="64.03450012" lon="-19.12742996"><ele>594.6</ele><time>2012-07-22T13:05:36.0000000+00:00</time></trkpt><trkpt lat="64.03452301" lon="-19.12734413"><ele>595.2</ele><time>2012-07-22T13:05:41.0000000+00:00</time></trkpt><trkpt lat="64.03453827" lon="-19.12727165"><ele>595.6</ele><time>2012-07-22T13:05:46.0000000+00:00</time></trkpt><trkpt lat="64.03455353" lon="-19.12718773"><ele>595.8</ele><time>2012-07-22T13:05:51.0000000+00:00</time></trkpt><trkpt lat="64.0345459" lon="-19.12710953"><ele>596.3</ele><time>2012-07-22T13:05:56.0000000+00:00</time></trkpt><trkpt lat="64.03453827" lon="-19.12703323"><ele>597.0</ele><time>2012-07-22T13:06:01.0000000+00:00</time></trkpt><trkpt lat="64.0345459" lon="-19.12694359"><ele>597.4</ele><time>2012-07-22T13:06:06.0000000+00:00</time></trkpt><trkpt lat="64.03455353" lon="-19.12688637"><ele>596.9</ele><time>2012-07-22T13:06:11.0000000+00:00</time></trkpt><trkpt lat="64.0345459" lon="-19.12684059"><ele>596.4</ele><time>2012-07-22T13:06:16.0000000+00:00</time></trkpt><trkpt lat="64.0345459" lon="-19.12682724"><ele>596.3</ele><time>2012-07-22T13:06:21.0000000+00:00</time></trkpt><trkpt lat="64.0345459" lon="-19.12682533"><ele>596.3</ele><time>2012-07-22T13:06:26.0000000+00:00</time></trkpt><trkpt lat="64.0345459" lon="-19.12674332"><ele>596.3</ele><time>2012-07-22T13:06:31.0000000+00:00</time></trkpt><trkpt lat="64.03457642" lon="-19.12647629"><ele>594.9</ele><time>2012-07-22T13:06:36.0000000+00:00</time></trkpt><trkpt lat="64.03461456" lon="-19.12625504"><ele>595.0</ele><time>2012-07-22T13:06:41.0000000+00:00</time></trkpt><trkpt lat="64.03468323" lon="-19.12608528"><ele>595.6</ele><time>2012-07-22T13:06:46.0000000+00:00</time></trkpt><trkpt lat="64.03473663" lon="-19.12596893"><ele>596.1</ele><time>2012-07-22T13:06:51.0000000+00:00</time></trkpt><trkpt lat="64.03478241" lon="-19.12587357"><ele>597.1</ele><time>2012-07-22T13:06:56.0000000+00:00</time></trkpt><trkpt lat="64.03482056" lon="-19.12578583"><ele>597.5</ele><time>2012-07-22T13:07:01.0000000+00:00</time></trkpt><trkpt lat="64.03484345" lon="-19.12571335"><ele>597.7</ele><time>2012-07-22T13:07:06.0000000+00:00</time></trkpt><trkpt lat="64.03487396" lon="-19.12560654"><ele>598.5</ele><time>2012-07-22T13:07:11.0000000+00:00</time></trkpt><trkpt lat="64.03490448" lon="-19.12546158"><ele>599.0</ele><time>2012-07-22T13:07:16.0000000+00:00</time></trkpt><trkpt lat="64.03490448" lon="-19.12530708"><ele>599.3</ele><time>2012-07-22T13:07:21.0000000+00:00</time></trkpt><trkpt lat="64.03488922" lon="-19.12516022"><ele>599.9</ele><time>2012-07-22T13:07:26.0000000+00:00</time></trkpt><trkpt lat="64.03487396" lon="-19.12504768"><ele>600.8</ele><time>2012-07-22T13:07:31.0000000+00:00</time></trkpt><trkpt lat="64.03484345" lon="-19.12492561"><ele>601.4</ele><time>2012-07-22T13:07:36.0000000+00:00</time></trkpt><trkpt lat="64.03482056" lon="-19.12481117"><ele>602.0</ele><time>2012-07-22T13:07:41.0000000+00:00</time></trkpt><trkpt lat="64.03479004" lon="-19.12467384"><ele>602.4</ele><time>2012-07-22T13:07:46.0000000+00:00</time></trkpt><trkpt lat="64.03475952" lon="-19.1245327"><ele>603.3</ele><time>2012-07-22T13:07:51.0000000+00:00</time></trkpt><trkpt lat="64.03474426" lon="-19.12441635"><ele>603.9</ele><time>2012-07-22T13:07:56.0000000+00:00</time></trkpt><trkpt lat="64.03470612" lon="-19.1243"><ele>604.4</ele><time>2012-07-22T13:08:01.0000000+00:00</time></trkpt><trkpt lat="64.03469086" lon="-19.12417984"><ele>604.8</ele><time>2012-07-22T13:08:06.0000000+00:00</time></trkpt><trkpt lat="64.03466034" lon="-19.12405777"><ele>605.5</ele><time>2012-07-22T13:08:11.0000000+00:00</time></trkpt><trkpt lat="64.03462982" lon="-19.12389183"><ele>606.1</ele><time>2012-07-22T13:08:16.0000000+00:00</time></trkpt><trkpt lat="64.0345993" lon="-19.12376022"><ele>606.4</ele><time>2012-07-22T13:08:21.0000000+00:00</time></trkpt><trkpt lat="64.03457642" lon="-19.12362671"><ele>606.4</ele><time>2012-07-22T13:08:26.0000000+00:00</time></trkpt><trkpt lat="64.0345459" lon="-19.12351608"><ele>607.0</ele><time>2012-07-22T13:08:31.0000000+00:00</time></trkpt><trkpt lat="64.03453064" lon="-19.12343597"><ele>607.9</ele><time>2012-07-22T13:08:36.0000000+00:00</time></trkpt><trkpt lat="64.03452301" lon="-19.12342644"><ele>608.6</ele><time>2012-07-22T13:08:41.0000000+00:00</time></trkpt><trkpt lat="64.03450775" lon="-19.12337303"><ele>609.5</ele><time>2012-07-22T13:08:46.0000000+00:00</time></trkpt><trkpt lat="64.03449249" lon="-19.12332153"><ele>610.1</ele><time>2012-07-22T13:08:51.0000000+00:00</time></trkpt><trkpt lat="64.03447723" lon="-19.12324524"><ele>610.6</ele><time>2012-07-22T13:08:56.0000000+00:00</time></trkpt><trkpt lat="64.03447723" lon="-19.12319183"><ele>610.5</ele><time>2012-07-22T13:09:01.0000000+00:00</time></trkpt><trkpt lat="64.03445435" lon="-19.12314796"><ele>611.2</ele><time>2012-07-22T13:09:06.0000000+00:00</time></trkpt><trkpt lat="64.03443909" lon="-19.12310982"><ele>612.1</ele><time>2012-07-22T13:09:11.0000000+00:00</time></trkpt><trkpt lat="64.0344162" lon="-19.1230526"><ele>612.8</ele><time>2012-07-22T13:09:16.0000000+00:00</time></trkpt><trkpt lat="64.03440094" lon="-19.12301254"><ele>613.5</ele><time>2012-07-22T13:09:21.0000000+00:00</time></trkpt><trkpt lat="64.03437042" lon="-19.12296677"><ele>613.8</ele><time>2012-07-22T13:09:26.0000000+00:00</time></trkpt><trkpt lat="64.03435516" lon="-19.1229229"><ele>614.8</ele><time>2012-07-22T13:09:31.0000000+00:00</time></trkpt><trkpt lat="64.03432465" lon="-19.12287712"><ele>615.2</ele><time>2012-07-22T13:09:36.0000000+00:00</time></trkpt><trkpt lat="64.03429413" lon="-19.12282372"><ele>615.8</ele><time>2012-07-22T13:09:41.0000000+00:00</time></trkpt><trkpt lat="64.03425598" lon="-19.12277222"><ele>616.1</ele><time>2012-07-22T13:09:46.0000000+00:00</time></trkpt><trkpt lat="64.03423309" lon="-19.12273598"><ele>616.9</ele><time>2012-07-22T13:09:51.0000000+00:00</time></trkpt><trkpt lat="64.03421783" lon="-19.12268639"><ele>617.3</ele><time>2012-07-22T13:09:56.0000000+00:00</time></trkpt><trkpt lat="64.03420258" lon="-19.1226368"><ele>617.6</ele><time>2012-07-22T13:10:01.0000000+00:00</time></trkpt><trkpt lat="64.03417206" lon="-19.12258911"><ele>618.5</ele><time>2012-07-22T13:10:06.0000000+00:00</time></trkpt><trkpt lat="64.03414917" lon="-19.12254143"><ele>618.9</ele><time>2012-07-22T13:10:11.0000000+00:00</time></trkpt><trkpt lat="64.03412628" lon="-19.12248421"><ele>619.4</ele><time>2012-07-22T13:10:16.0000000+00:00</time></trkpt><trkpt lat="64.03410339" lon="-19.12243843"><ele>620.2</ele><time>2012-07-22T13:10:21.0000000+00:00</time></trkpt><trkpt lat="64.03408051" lon="-19.12239647"><ele>620.0</ele><time>2012-07-22T13:10:26.0000000+00:00</time></trkpt><trkpt lat="64.03404999" lon="-19.12234879"><ele>620.9</ele><time>2012-07-22T13:10:31.0000000+00:00</time></trkpt><trkpt lat="64.03400421" lon="-19.12229919"><ele>621.5</ele><time>2012-07-22T13:10:36.0000000+00:00</time></trkpt><trkpt lat="64.03398132" lon="-19.12222862"><ele>621.7</ele><time>2012-07-22T13:10:41.0000000+00:00</time></trkpt><trkpt lat="64.03394318" lon="-19.12213516"><ele>621.4</ele><time>2012-07-22T13:10:46.0000000+00:00</time></trkpt><trkpt lat="64.03391266" lon="-19.12204933"><ele>621.6</ele><time>2012-07-22T13:10:51.0000000+00:00</time></trkpt><trkpt lat="64.03388977" lon="-19.12199211"><ele>622.3</ele><time>2012-07-22T13:10:56.0000000+00:00</time></trkpt><trkpt lat="64.03386688" lon="-19.12194061"><ele>623.0</ele><time>2012-07-22T13:11:01.0000000+00:00</time></trkpt><trkpt lat="64.03385162" lon="-19.12188721"><ele>623.6</ele><time>2012-07-22T13:11:06.0000000+00:00</time></trkpt><trkpt lat="64.03383637" lon="-19.1218586"><ele>623.7</ele><time>2012-07-22T13:11:11.0000000+00:00</time></trkpt><trkpt lat="64.03381348" lon="-19.12179565"><ele>624.0</ele><time>2012-07-22T13:11:16.0000000+00:00</time></trkpt><trkpt lat="64.03379822" lon="-19.12174225"><ele>624.3</ele><time>2012-07-22T13:11:21.0000000+00:00</time></trkpt><trkpt lat="64.0337677" lon="-19.12169838"><ele>625.1</ele><time>2012-07-22T13:11:26.0000000+00:00</time></trkpt><trkpt lat="64.03373718" lon="-19.12165451"><ele>625.7</ele><time>2012-07-22T13:11:31.0000000+00:00</time></trkpt><trkpt lat="64.03370667" lon="-19.12161255"><ele>626.0</ele><time>2012-07-22T13:11:36.0000000+00:00</time></trkpt><trkpt lat="64.03367615" lon="-19.12157059"><ele>626.6</ele><time>2012-07-22T13:11:41.0000000+00:00</time></trkpt><trkpt lat="64.033638" lon="-19.12153626"><ele>627.3</ele><time>2012-07-22T13:11:46.0000000+00:00</time></trkpt><trkpt lat="64.03359985" lon="-19.12149239"><ele>627.8</ele><time>2012-07-22T13:11:51.0000000+00:00</time></trkpt><trkpt lat="64.03354645" lon="-19.12144852"><ele>628.6</ele><time>2012-07-22T13:11:56.0000000+00:00</time></trkpt><trkpt lat="64.03353119" lon="-19.12141991"><ele>628.8</ele><time>2012-07-22T13:12:01.0000000+00:00</time></trkpt><trkpt lat="64.03351593" lon="-19.12142754"><ele>628.8</ele><time>2012-07-22T13:12:06.0000000+00:00</time></trkpt><trkpt lat="64.0334549" lon="-19.1213913"><ele>628.6</ele><time>2012-07-22T13:12:11.0000000+00:00</time></trkpt><trkpt lat="64.03340149" lon="-19.12135315"><ele>628.5</ele><time>2012-07-22T13:12:16.0000000+00:00</time></trkpt><trkpt lat="64.03334045" lon="-19.12127686"><ele>628.6</ele><time>2012-07-22T13:12:21.0000000+00:00</time></trkpt><trkpt lat="64.03327942" lon="-19.12121773"><ele>628.6</ele><time>2012-07-22T13:12:26.0000000+00:00</time></trkpt><trkpt lat="64.03321075" lon="-19.1211319"><ele>629.0</ele><time>2012-07-22T13:12:31.0000000+00:00</time></trkpt><trkpt lat="64.03314972" lon="-19.12107849"><ele>629.6</ele><time>2012-07-22T13:12:36.0000000+00:00</time></trkpt><trkpt lat="64.03308106" lon="-19.12100792"><ele>630.4</ele><time>2012-07-22T13:12:41.0000000+00:00</time></trkpt><trkpt lat="64.03301239" lon="-19.12095833"><ele>631.1</ele><time>2012-07-22T13:12:46.0000000+00:00</time></trkpt><trkpt lat="64.03295898" lon="-19.12088776"><ele>632.0</ele><time>2012-07-22T13:12:51.0000000+00:00</time></trkpt><trkpt lat="64.03291321" lon="-19.12079048"><ele>632.5</ele><time>2012-07-22T13:12:56.0000000+00:00</time></trkpt><trkpt lat="64.0328598" lon="-19.12070084"><ele>633.3</ele><time>2012-07-22T13:13:01.0000000+00:00</time></trkpt><trkpt lat="64.0328064" lon="-19.12054062"><ele>634.2</ele><time>2012-07-22T13:13:06.0000000+00:00</time></trkpt><trkpt lat="64.03275299" lon="-19.12034607"><ele>634.6</ele><time>2012-07-22T13:13:11.0000000+00:00</time></trkpt><trkpt lat="64.0327301" lon="-19.12018585"><ele>634.2</ele><time>2012-07-22T13:13:16.0000000+00:00</time></trkpt><trkpt lat="64.03270721" lon="-19.12004471"><ele>633.9</ele><time>2012-07-22T13:13:21.0000000+00:00</time></trkpt><trkpt lat="64.0326767" lon="-19.1199131"><ele>634.2</ele><time>2012-07-22T13:13:26.0000000+00:00</time></trkpt><trkpt lat="64.03265381" lon="-19.11976624"><ele>634.8</ele><time>2012-07-22T13:13:31.0000000+00:00</time></trkpt><trkpt lat="64.03263092" lon="-19.11961746"><ele>635.1</ele><time>2012-07-22T13:13:36.0000000+00:00</time></trkpt><trkpt lat="64.03260803" lon="-19.11945534"><ele>635.3</ele><time>2012-07-22T13:13:41.0000000+00:00</time></trkpt><trkpt lat="64.03259277" lon="-19.11925507"><ele>635.3</ele><time>2012-07-22T13:13:46.0000000+00:00</time></trkpt><trkpt lat="64.03257752" lon="-19.11903763"><ele>635.2</ele><time>2012-07-22T13:13:51.0000000+00:00</time></trkpt><trkpt lat="64.03255463" lon="-19.11884117"><ele>634.7</ele><time>2012-07-22T13:13:56.0000000+00:00</time></trkpt><trkpt lat="64.03251648" lon="-19.11863327"><ele>635.5</ele><time>2012-07-22T13:14:01.0000000+00:00</time></trkpt><trkpt lat="64.03249359" lon="-19.11848831"><ele>636.6</ele><time>2012-07-22T13:14:06.0000000+00:00</time></trkpt><trkpt lat="64.03244782" lon="-19.11835861"><ele>638.1</ele><time>2012-07-22T13:14:11.0000000+00:00</time></trkpt><trkpt lat="64.03240967" lon="-19.11829376"><ele>639.0</ele><time>2012-07-22T13:14:16.0000000+00:00</time></trkpt><trkpt lat="64.032341" lon="-19.11822891"><ele>639.2</ele><time>2012-07-22T13:14:21.0000000+00:00</time></trkpt><trkpt lat="64.03227234" lon="-19.11814499"><ele>639.1</ele><time>2012-07-22T13:14:26.0000000+00:00</time></trkpt><trkpt lat="64.0322113" lon="-19.11804581"><ele>639.3</ele><time>2012-07-22T13:14:31.0000000+00:00</time></trkpt><trkpt lat="64.03214264" lon="-19.11791611"><ele>639.5</ele><time>2012-07-22T13:14:36.0000000+00:00</time></trkpt><trkpt lat="64.0320816" lon="-19.11777878"><ele>639.7</ele><time>2012-07-22T13:14:41.0000000+00:00</time></trkpt><trkpt lat="64.0320282" lon="-19.11763001"><ele>640.2</ele><time>2012-07-22T13:14:46.0000000+00:00</time></trkpt><trkpt lat="64.03197479" lon="-19.11747551"><ele>640.7</ele><time>2012-07-22T13:14:51.0000000+00:00</time></trkpt><trkpt lat="64.03191376" lon="-19.11736107"><ele>641.2</ele><time>2012-07-22T13:14:56.0000000+00:00</time></trkpt><trkpt lat="64.03186035" lon="-19.11725426"><ele>641.3</ele><time>2012-07-22T13:15:01.0000000+00:00</time></trkpt><trkpt lat="64.03179932" lon="-19.11713791"><ele>641.0</ele><time>2012-07-22T13:15:06.0000000+00:00</time></trkpt><trkpt lat="64.03173828" lon="-19.11700249"><ele>640.5</ele><time>2012-07-22T13:15:11.0000000+00:00</time></trkpt><trkpt lat="64.03166962" lon="-19.1168232"><ele>640.1</ele><time>2012-07-22T13:15:16.0000000+00:00</time></trkpt><trkpt lat="64.03160858" lon="-19.11664009"><ele>640.1</ele><time>2012-07-22T13:15:21.0000000+00:00</time></trkpt><trkpt lat="64.03156281" lon="-19.11642838"><ele>639.9</ele><time>2012-07-22T13:15:26.0000000+00:00</time></trkpt><trkpt lat="64.03151703" lon="-19.11620903"><ele>639.1</ele><time>2012-07-22T13:15:31.0000000+00:00</time></trkpt><trkpt lat="64.03144836" lon="-19.11598969"><ele>638.4</ele><time>2012-07-22T13:15:36.0000000+00:00</time></trkpt><trkpt lat="64.0313797" lon="-19.11581802"><ele>638.4</ele><time>2012-07-22T13:15:41.0000000+00:00</time></trkpt><trkpt lat="64.03129578" lon="-19.11565018"><ele>638.3</ele><time>2012-07-22T13:15:46.0000000+00:00</time></trkpt><trkpt lat="64.03121948" lon="-19.11552429"><ele>638.7</ele><time>2012-07-22T13:15:51.0000000+00:00</time></trkpt><trkpt lat="64.0311203" lon="-19.11544991"><ele>639.3</ele><time>2012-07-22T13:15:56.0000000+00:00</time></trkpt><trkpt lat="64.03103638" lon="-19.11541557"><ele>640.1</ele><time>2012-07-22T13:16:01.0000000+00:00</time></trkpt><trkpt lat="64.03096008" lon="-19.11543083"><ele>640.4</ele><time>2012-07-22T13:16:06.0000000+00:00</time></trkpt><trkpt lat="64.0308609" lon="-19.11546326"><ele>640.4</ele><time>2012-07-22T13:16:11.0000000+00:00</time></trkpt><trkpt lat="64.03076172" lon="-19.11550522"><ele>639.7</ele><time>2012-07-22T13:16:16.0000000+00:00</time></trkpt><trkpt lat="64.03063202" lon="-19.11543465"><ele>639.5</ele><time>2012-07-22T13:16:21.0000000+00:00</time></trkpt><trkpt lat="64.03054047" lon="-19.11518097"><ele>639.1</ele><time>2012-07-22T13:16:26.0000000+00:00</time></trkpt><trkpt lat="64.03049469" lon="-19.11490059"><ele>638.6</ele><time>2012-07-22T13:16:31.0000000+00:00</time></trkpt><trkpt lat="64.03046417" lon="-19.11461067"><ele>637.5</ele><time>2012-07-22T13:16:36.0000000+00:00</time></trkpt><trkpt lat="64.03043366" lon="-19.11433411"><ele>636.9</ele><time>2012-07-22T13:16:41.0000000+00:00</time></trkpt><trkpt lat="64.03040314" lon="-19.1140728"><ele>636.6</ele><time>2012-07-22T13:16:46.0000000+00:00</time></trkpt><trkpt lat="64.03038788" lon="-19.11393738"><ele>637.3</ele><time>2012-07-22T13:16:51.0000000+00:00</time></trkpt><trkpt lat="64.03038788" lon="-19.11387253"><ele>637.9</ele><time>2012-07-22T13:16:56.0000000+00:00</time></trkpt><trkpt lat="64.03037262" lon="-19.11378479"><ele>638.1</ele><time>2012-07-22T13:17:01.0000000+00:00</time></trkpt><trkpt lat="64.03036499" lon="-19.11371231"><ele>638.4</ele><time>2012-07-22T13:17:06.0000000+00:00</time></trkpt><trkpt lat="64.03036499" lon="-19.11365318"><ele>638.9</ele><time>2012-07-22T13:17:11.0000000+00:00</time></trkpt><trkpt lat="64.03034973" lon="-19.11357689"><ele>639.4</ele><time>2012-07-22T13:17:16.0000000+00:00</time></trkpt><trkpt lat="64.0303421" lon="-19.11353302"><ele>639.7</ele><time>2012-07-22T13:17:21.0000000+00:00</time></trkpt><trkpt lat="64.03033447" lon="-19.11345673"><ele>640.3</ele><time>2012-07-22T13:17:26.0000000+00:00</time></trkpt><trkpt lat="64.03033447" lon="-19.11338615"><ele>640.8</ele><time>2012-07-22T13:17:31.0000000+00:00</time></trkpt><trkpt lat="64.03032684" lon="-19.11330414"><ele>641.0</ele><time>2012-07-22T13:17:36.0000000+00:00</time></trkpt><trkpt lat="64.03031921" lon="-19.11319733"><ele>641.6</ele><time>2012-07-22T13:17:41.0000000+00:00</time></trkpt><trkpt lat="64.03030396" lon="-19.11307335"><ele>642.0</ele><time>2012-07-22T13:17:46.0000000+00:00</time></trkpt><trkpt lat="64.0302887" lon="-19.11293602"><ele>642.6</ele><time>2012-07-22T13:17:51.0000000+00:00</time></trkpt><trkpt lat="64.03027344" lon="-19.1128006"><ele>642.8</ele><time>2012-07-22T13:17:56.0000000+00:00</time></trkpt><trkpt lat="64.03025818" lon="-19.11267662"><ele>643.5</ele><time>2012-07-22T13:18:01.0000000+00:00</time></trkpt><trkpt lat="64.03023529" lon="-19.11257172"><ele>644.8</ele><time>2012-07-22T13:18:06.0000000+00:00</time></trkpt><trkpt lat="64.03022766" lon="-19.11252594"><ele>645.2</ele><time>2012-07-22T13:18:11.0000000+00:00</time></trkpt><trkpt lat="64.03018189" lon="-19.11241531"><ele>645.4</ele><time>2012-07-22T13:18:16.0000000+00:00</time></trkpt><trkpt lat="64.03012085" lon="-19.1123085"><ele>645.6</ele><time>2012-07-22T13:18:21.0000000+00:00</time></trkpt><trkpt lat="64.03005219" lon="-19.11219597"><ele>645.6</ele><time>2012-07-22T13:18:26.0000000+00:00</time></trkpt><trkpt lat="64.02999115" lon="-19.11209488"><ele>645.7</ele><time>2012-07-22T13:18:31.0000000+00:00</time></trkpt><trkpt lat="64.02992249" lon="-19.11196137"><ele>645.3</ele><time>2012-07-22T13:18:36.0000000+00:00</time></trkpt><trkpt lat="64.02983093" lon="-19.11180687"><ele>644.8</ele><time>2012-07-22T13:18:41.0000000+00:00</time></trkpt><trkpt lat="64.02973175" lon="-19.11158943"><ele>644.1</ele><time>2012-07-22T13:18:46.0000000+00:00</time></trkpt><trkpt lat="64.0296402" lon="-19.11132813"><ele>644.0</ele><time>2012-07-22T13:18:51.0000000+00:00</time></trkpt><trkpt lat="64.02957916" lon="-19.11106682"><ele>644.1</ele><time>2012-07-22T13:18:56.0000000+00:00</time></trkpt><trkpt lat="64.02952576" lon="-19.11081314"><ele>643.9</ele><time>2012-07-22T13:19:01.0000000+00:00</time></trkpt><trkpt lat="64.02949524" lon="-19.11055756"><ele>643.6</ele><time>2012-07-22T13:19:06.0000000+00:00</time></trkpt><trkpt lat="64.02946472" lon="-19.11029244"><ele>643.4</ele><time>2012-07-22T13:19:11.0000000+00:00</time></trkpt><trkpt lat="64.02944183" lon="-19.11002541"><ele>643.5</ele><time>2012-07-22T13:19:16.0000000+00:00</time></trkpt><trkpt lat="64.0294342" lon="-19.10975456"><ele>643.9</ele><time>2012-07-22T13:19:21.0000000+00:00</time></trkpt><trkpt lat="64.02941895" lon="-19.10949898"><ele>644.3</ele><time>2012-07-22T13:19:26.0000000+00:00</time></trkpt><trkpt lat="64.02941132" lon="-19.1092453"><ele>644.4</ele><time>2012-07-22T13:19:31.0000000+00:00</time></trkpt><trkpt lat="64.02940369" lon="-19.10899353"><ele>645.0</ele><time>2012-07-22T13:19:36.0000000+00:00</time></trkpt><trkpt lat="64.02939606" lon="-19.10877609"><ele>645.5</ele><time>2012-07-22T13:19:41.0000000+00:00</time></trkpt><trkpt lat="64.02941132" lon="-19.10853386"><ele>645.9</ele><time>2012-07-22T13:19:46.0000000+00:00</time></trkpt><trkpt lat="64.02942658" lon="-19.10830498"><ele>646.2</ele><time>2012-07-22T13:19:51.0000000+00:00</time></trkpt><trkpt lat="64.02945709" lon="-19.10809326"><ele>646.6</ele><time>2012-07-22T13:19:56.0000000+00:00</time></trkpt><trkpt lat="64.02947998" lon="-19.10786629"><ele>646.4</ele><time>2012-07-22T13:20:01.0000000+00:00</time></trkpt><trkpt lat="64.0295105" lon="-19.107584"><ele>645.8</ele><time>2012-07-22T13:20:06.0000000+00:00</time></trkpt><trkpt lat="64.02954102" lon="-19.10731316"><ele>645.3</ele><time>2012-07-22T13:20:11.0000000+00:00</time></trkpt><trkpt lat="64.02954102" lon="-19.10704994"><ele>645.1</ele><time>2012-07-22T13:20:16.0000000+00:00</time></trkpt><trkpt lat="64.02954102" lon="-19.10677528"><ele>644.9</ele><time>2012-07-22T13:20:21.0000000+00:00</time></trkpt><trkpt lat="64.02955627" lon="-19.10648346"><ele>644.7</ele><time>2012-07-22T13:20:26.0000000+00:00</time></trkpt><trkpt lat="64.02955627" lon="-19.10621834"><ele>644.2</ele><time>2012-07-22T13:20:31.0000000+00:00</time></trkpt><trkpt lat="64.02957916" lon="-19.10597801"><ele>643.9</ele><time>2012-07-22T13:20:36.0000000+00:00</time></trkpt><trkpt lat="64.02960968" lon="-19.10575295"><ele>644.1</ele><time>2012-07-22T13:20:41.0000000+00:00</time></trkpt><trkpt lat="64.0296402" lon="-19.10547257"><ele>643.8</ele><time>2012-07-22T13:20:46.0000000+00:00</time></trkpt><trkpt lat="64.02968597" lon="-19.10516357"><ele>643.8</ele><time>2012-07-22T13:20:51.0000000+00:00</time></trkpt><trkpt lat="64.02971649" lon="-19.10490227"><ele>644.2</ele><time>2012-07-22T13:20:56.0000000+00:00</time></trkpt><trkpt lat="64.02973175" lon="-19.10474968"><ele>644.1</ele><time>2012-07-22T13:21:01.0000000+00:00</time></trkpt><trkpt lat="64.02974701" lon="-19.10458756"><ele>644.5</ele><time>2012-07-22T13:21:06.0000000+00:00</time></trkpt><trkpt lat="64.02976227" lon="-19.10441399"><ele>645.3</ele><time>2012-07-22T13:21:11.0000000+00:00</time></trkpt><trkpt lat="64.02977753" lon="-19.10424614"><ele>646.3</ele><time>2012-07-22T13:21:16.0000000+00:00</time></trkpt><trkpt lat="64.02980042" lon="-19.10406876"><ele>647.2</ele><time>2012-07-22T13:21:21.0000000+00:00</time></trkpt><trkpt lat="64.02980042" lon="-19.10386658"><ele>648.0</ele><time>2012-07-22T13:21:26.0000000+00:00</time></trkpt><trkpt lat="64.02980042" lon="-19.10364533"><ele>647.8</ele><time>2012-07-22T13:21:31.0000000+00:00</time></trkpt><trkpt lat="64.02979279" lon="-19.10331345"><ele>647.5</ele><time>2012-07-22T13:21:36.0000000+00:00</time></trkpt><trkpt lat="64.0298233" lon="-19.10293579"><ele>646.8</ele><time>2012-07-22T13:21:41.0000000+00:00</time></trkpt><trkpt lat="64.02989197" lon="-19.10264587"><ele>647.0</ele><time>2012-07-22T13:21:46.0000000+00:00</time></trkpt><trkpt lat="64.02996063" lon="-19.1024189"><ele>647.7</ele><time>2012-07-22T13:21:51.0000000+00:00</time></trkpt><trkpt lat="64.03002167" lon="-19.10222244"><ele>647.8</ele><time>2012-07-22T13:21:56.0000000+00:00</time></trkpt><trkpt lat="64.03009033" lon="-19.10203552"><ele>647.6</ele><time>2012-07-22T13:22:01.0000000+00:00</time></trkpt><trkpt lat="64.03016663" lon="-19.10185051"><ele>648.2</ele><time>2012-07-22T13:22:06.0000000+00:00</time></trkpt><trkpt lat="64.03024292" lon="-19.10169792"><ele>648.0</ele><time>2012-07-22T13:22:11.0000000+00:00</time></trkpt><trkpt lat="64.03031921" lon="-19.10153008"><ele>648.2</ele><time>2012-07-22T13:22:16.0000000+00:00</time></trkpt><trkpt lat="64.03038788" lon="-19.10137367"><ele>647.8</ele><time>2012-07-22T13:22:21.0000000+00:00</time></trkpt><trkpt lat="64.0304718" lon="-19.10109329"><ele>646.8</ele><time>2012-07-22T13:22:26.0000000+00:00</time></trkpt><trkpt lat="64.03053284" lon="-19.10064507"><ele>644.6</ele><time>2012-07-22T13:22:31.0000000+00:00</time></trkpt><trkpt lat="64.03060913" lon="-19.10012817"><ele>642.1</ele><time>2012-07-22T13:22:36.0000000+00:00</time></trkpt><trkpt lat="64.03067017" lon="-19.0996666"><ele>640.5</ele><time>2012-07-22T13:22:41.0000000+00:00</time></trkpt><trkpt lat="64.03067017" lon="-19.09927177"><ele>639.8</ele><time>2012-07-22T13:22:46.0000000+00:00</time></trkpt><trkpt lat="64.03060913" lon="-19.09894753"><ele>639.5</ele><time>2012-07-22T13:22:51.0000000+00:00</time></trkpt><trkpt lat="64.03049469" lon="-19.09867287"><ele>639.7</ele><time>2012-07-22T13:22:56.0000000+00:00</time></trkpt><trkpt lat="64.03038788" lon="-19.09848976"><ele>639.5</ele><time>2012-07-22T13:23:01.0000000+00:00</time></trkpt><trkpt lat="64.03027344" lon="-19.09830666"><ele>639.2</ele><time>2012-07-22T13:23:06.0000000+00:00</time></trkpt><trkpt lat="64.030159" lon="-19.0981102"><ele>638.9</ele><time>2012-07-22T13:23:11.0000000+00:00</time></trkpt><trkpt lat="64.03005981" lon="-19.09792519"><ele>638.8</ele><time>2012-07-22T13:23:16.0000000+00:00</time></trkpt><trkpt lat="64.029953" lon="-19.09775162"><ele>638.6</ele><time>2012-07-22T13:23:21.0000000+00:00</time></trkpt><trkpt lat="64.02985382" lon="-19.09757233"><ele>638.7</ele><time>2012-07-22T13:23:26.0000000+00:00</time></trkpt><trkpt lat="64.02973938" lon="-19.09740448"><ele>638.7</ele><time>2012-07-22T13:23:31.0000000+00:00</time></trkpt><trkpt lat="64.02963257" lon="-19.09723663"><ele>638.4</ele><time>2012-07-22T13:23:36.0000000+00:00</time></trkpt><trkpt lat="64.02953339" lon="-19.09703445"><ele>638.3</ele><time>2012-07-22T13:23:41.0000000+00:00</time></trkpt><trkpt lat="64.0294342" lon="-19.09682465"><ele>638.2</ele><time>2012-07-22T13:23:46.0000000+00:00</time></trkpt><trkpt lat="64.02935028" lon="-19.09656906"><ele>638.2</ele><time>2012-07-22T13:23:51.0000000+00:00</time></trkpt><trkpt lat="64.02928925" lon="-19.09628296"><ele>638.2</ele><time>2012-07-22T13:23:56.0000000+00:00</time></trkpt><trkpt lat="64.02922058" lon="-19.09598351"><ele>638.0</ele><time>2012-07-22T13:24:01.0000000+00:00</time></trkpt><trkpt lat="64.02918243" lon="-19.09568596"><ele>637.9</ele><time>2012-07-22T13:24:06.0000000+00:00</time></trkpt><trkpt lat="64.02915192" lon="-19.0953846"><ele>637.3</ele><time>2012-07-22T13:24:11.0000000+00:00</time></trkpt><trkpt lat="64.0291214" lon="-19.0951252"><ele>636.7</ele><time>2012-07-22T13:24:16.0000000+00:00</time></trkpt><trkpt lat="64.02909088" lon="-19.09483337"><ele>636.3</ele><time>2012-07-22T13:24:21.0000000+00:00</time></trkpt><trkpt lat="64.02906036" lon="-19.09455109"><ele>636.4</ele><time>2012-07-22T13:24:26.0000000+00:00</time></trkpt><trkpt lat="64.02904511" lon="-19.09426498"><ele>636.4</ele><time>2012-07-22T13:24:31.0000000+00:00</time></trkpt><trkpt lat="64.02903748" lon="-19.09399414"><ele>636.7</ele><time>2012-07-22T13:24:36.0000000+00:00</time></trkpt><trkpt lat="64.02905273" lon="-19.09382248"><ele>636.9</ele><time>2012-07-22T13:24:41.0000000+00:00</time></trkpt><trkpt lat="64.02908325" lon="-19.09366417"><ele>636.5</ele><time>2012-07-22T13:24:46.0000000+00:00</time></trkpt><trkpt lat="64.0291214" lon="-19.09346581"><ele>636.2</ele><time>2012-07-22T13:24:51.0000000+00:00</time></trkpt><trkpt lat="64.02916718" lon="-19.09323883"><ele>636.1</ele><time>2012-07-22T13:24:56.0000000+00:00</time></trkpt><trkpt lat="64.02917481" lon="-19.09316635"><ele>635.8</ele><time>2012-07-22T13:25:01.0000000+00:00</time></trkpt><trkpt lat="64.02920532" lon="-19.09306908"><ele>635.9</ele><time>2012-07-22T13:25:06.0000000+00:00</time></trkpt><trkpt lat="64.02924347" lon="-19.09285164"><ele>636.3</ele><time>2012-07-22T13:25:11.0000000+00:00</time></trkpt><trkpt lat="64.02929688" lon="-19.09260368"><ele>636.4</ele><time>2012-07-22T13:25:16.0000000+00:00</time></trkpt><trkpt lat="64.02935028" lon="-19.09235573"><ele>636.7</ele><time>2012-07-22T13:25:21.0000000+00:00</time></trkpt><trkpt lat="64.02939606" lon="-19.09209251"><ele>636.7</ele><time>2012-07-22T13:25:26.0000000+00:00</time></trkpt><trkpt lat="64.02944946" lon="-19.09183312"><ele>636.8</ele><time>2012-07-22T13:25:31.0000000+00:00</time></trkpt><trkpt lat="64.02950287" lon="-19.09160233"><ele>637.0</ele><time>2012-07-22T13:25:36.0000000+00:00</time></trkpt><trkpt lat="64.02957153" lon="-19.09139633"><ele>637.4</ele><time>2012-07-22T13:25:41.0000000+00:00</time></trkpt><trkpt lat="64.02964783" lon="-19.09124184"><ele>637.5</ele><time>2012-07-22T13:25:46.0000000+00:00</time></trkpt><trkpt lat="64.02972412" lon="-19.09110832"><ele>637.7</ele><time>2012-07-22T13:25:51.0000000+00:00</time></trkpt><trkpt lat="64.02980804" lon="-19.09103203"><ele>637.8</ele><time>2012-07-22T13:25:56.0000000+00:00</time></trkpt><trkpt lat="64.02990723" lon="-19.09093285"><ele>637.4</ele><time>2012-07-22T13:26:01.0000000+00:00</time></trkpt><trkpt lat="64.02999878" lon="-19.09082222"><ele>636.6</ele><time>2012-07-22T13:26:06.0000000+00:00</time></trkpt><trkpt lat="64.03007507" lon="-19.0906868"><ele>637.2</ele><time>2012-07-22T13:26:11.0000000+00:00</time></trkpt><trkpt lat="64.03014374" lon="-19.09055519"><ele>637.8</ele><time>2012-07-22T13:26:16.0000000+00:00</time></trkpt><trkpt lat="64.03019714" lon="-19.09043694"><ele>637.6</ele><time>2012-07-22T13:26:21.0000000+00:00</time></trkpt><trkpt lat="64.03024292" lon="-19.09031487"><ele>637.1</ele><time>2012-07-22T13:26:26.0000000+00:00</time></trkpt><trkpt lat="64.03031921" lon="-19.09002113"><ele>635.2</ele><time>2012-07-22T13:26:31.0000000+00:00</time></trkpt><trkpt lat="64.0304718" lon="-19.08932304"><ele>629.8</ele><time>2012-07-22T13:26:36.0000000+00:00</time></trkpt><trkpt lat="64.0306778" lon="-19.08849907"><ele>628.7</ele><time>2012-07-22T13:26:41.0000000+00:00</time></trkpt><trkpt lat="64.03078461" lon="-19.0880909"><ele>630.2</ele><time>2012-07-22T13:26:46.0000000+00:00</time></trkpt><trkpt lat="64.03081513" lon="-19.08797264"><ele>630.5</ele><time>2012-07-22T13:26:51.0000000+00:00</time></trkpt><trkpt lat="64.0308075" lon="-19.08796692"><ele>630.4</ele><time>2012-07-22T13:26:56.0000000+00:00</time></trkpt><trkpt lat="64.03083801" lon="-19.08791542"><ele>631.2</ele><time>2012-07-22T13:27:01.0000000+00:00</time></trkpt><trkpt lat="64.03086853" lon="-19.08782387"><ele>632.1</ele><time>2012-07-22T13:27:06.0000000+00:00</time></trkpt><trkpt lat="64.03089905" lon="-19.08773613"><ele>633.3</ele><time>2012-07-22T13:27:11.0000000+00:00</time></trkpt><trkpt lat="64.03092194" lon="-19.08766174"><ele>634.5</ele><time>2012-07-22T13:27:16.0000000+00:00</time></trkpt><trkpt lat="64.03094482" lon="-19.08758736"><ele>635.5</ele><time>2012-07-22T13:27:21.0000000+00:00</time></trkpt><trkpt lat="64.03096008" lon="-19.08751106"><ele>636.2</ele><time>2012-07-22T13:27:26.0000000+00:00</time></trkpt><trkpt lat="64.03098297" lon="-19.08742333"><ele>637.3</ele><time>2012-07-22T13:27:31.0000000+00:00</time></trkpt><trkpt lat="64.03099823" lon="-19.08732224"><ele>638.3</ele><time>2012-07-22T13:27:36.0000000+00:00</time></trkpt><trkpt lat="64.03099823" lon="-19.08724213"><ele>639.0</ele><time>2012-07-22T13:27:41.0000000+00:00</time></trkpt><trkpt lat="64.03100586" lon="-19.08713913"><ele>639.6</ele><time>2012-07-22T13:27:46.0000000+00:00</time></trkpt><trkpt lat="64.03100586" lon="-19.08703232"><ele>639.4</ele><time>2012-07-22T13:27:51.0000000+00:00</time></trkpt><trkpt lat="64.03099823" lon="-19.08692551"><ele>638.9</ele><time>2012-07-22T13:27:56.0000000+00:00</time></trkpt><trkpt lat="64.03099823" lon="-19.08685112"><ele>638.7</ele><time>2012-07-22T13:28:01.0000000+00:00</time></trkpt><trkpt lat="64.0309906" lon="-19.08679199"><ele>638.1</ele><time>2012-07-22T13:28:06.0000000+00:00</time></trkpt><trkpt lat="64.03097534" lon="-19.08661842"><ele>637.3</ele><time>2012-07-22T13:28:11.0000000+00:00</time></trkpt><trkpt lat="64.03096008" lon="-19.08636665"><ele>636.4</ele><time>2012-07-22T13:28:16.0000000+00:00</time></trkpt><trkpt lat="64.03092194" lon="-19.08612824"><ele>636.3</ele><time>2012-07-22T13:28:21.0000000+00:00</time></trkpt><trkpt lat="64.03087616" lon="-19.08593941"><ele>636.4</ele><time>2012-07-22T13:28:26.0000000+00:00</time></trkpt><trkpt lat="64.03087616" lon="-19.08592987"><ele>637.4</ele><time>2012-07-22T13:28:31.0000000+00:00</time></trkpt><trkpt lat="64.03087616" lon="-19.08592987"><ele>637.4</ele><time>2012-07-22T13:28:36.0000000+00:00</time></trkpt><trkpt lat="64.03087616" lon="-19.08592987"><ele>637.4</ele><time>2012-07-22T13:28:41.0000000+00:00</time></trkpt><trkpt lat="64.03087616" lon="-19.08592987"><ele>637.4</ele><time>2012-07-22T13:28:46.0000000+00:00</time></trkpt><trkpt lat="64.03087616" lon="-19.08592987"><ele>637.4</ele><time>2012-07-22T13:28:51.0000000+00:00</time></trkpt><trkpt lat="64.03087616" lon="-19.08592987"><ele>637.4</ele><time>2012-07-22T13:28:56.0000000+00:00</time></trkpt><trkpt lat="64.03087616" lon="-19.08592987"><ele>637.4</ele><time>2012-07-22T13:29:01.0000000+00:00</time></trkpt><trkpt lat="64.03087616" lon="-19.08592987"><ele>637.4</ele><time>2012-07-22T13:29:06.0000000+00:00</time></trkpt><trkpt lat="64.03087616" lon="-19.08592987"><ele>637.4</ele><time>2012-07-22T13:29:11.0000000+00:00</time></trkpt><trkpt lat="64.03087616" lon="-19.08592987"><ele>637.4</ele><time>2012-07-22T13:29:16.0000000+00:00</time></trkpt><trkpt lat="64.03086853" lon="-19.0859108"><ele>637.2</ele><time>2012-07-22T13:29:21.0000000+00:00</time></trkpt><trkpt lat="64.03083038" lon="-19.08582687"><ele>636.8</ele><time>2012-07-22T13:29:26.0000000+00:00</time></trkpt><trkpt lat="64.03083038" lon="-19.08582497"><ele>637.0</ele><time>2012-07-22T13:29:31.0000000+00:00</time></trkpt><trkpt lat="64.03083038" lon="-19.08582497"><ele>637.1</ele><time>2012-07-22T13:29:36.0000000+00:00</time></trkpt><trkpt lat="64.03083038" lon="-19.08582687"><ele>637.0</ele><time>2012-07-22T13:29:41.0000000+00:00</time></trkpt><trkpt lat="64.03083038" lon="-19.08582687"><ele>637.0</ele><time>2012-07-22T13:29:46.0000000+00:00</time></trkpt><trkpt lat="64.03083038" lon="-19.08582687"><ele>637.0</ele><time>2012-07-22T13:29:51.0000000+00:00</time></trkpt><trkpt lat="64.03083038" lon="-19.08582497"><ele>637.0</ele><time>2012-07-22T13:29:56.0000000+00:00</time></trkpt><trkpt lat="64.03083038" lon="-19.08582497"><ele>637.1</ele><time>2012-07-22T13:30:01.0000000+00:00</time></trkpt><trkpt lat="64.03083038" lon="-19.08582497"><ele>637.1</ele><time>2012-07-22T13:30:06.0000000+00:00</time></trkpt><trkpt lat="64.03083038" lon="-19.08582497"><ele>637.1</ele><time>2012-07-22T13:30:11.0000000+00:00</time></trkpt><trkpt lat="64.03072357" lon="-19.08572578"><ele>635.7</ele><time>2012-07-22T13:30:16.0000000+00:00</time></trkpt><trkpt lat="64.03051758" lon="-19.08547783"><ele>632.7</ele><time>2012-07-22T13:30:21.0000000+00:00</time></trkpt><trkpt lat="64.03019714" lon="-19.08504868"><ele>629.3</ele><time>2012-07-22T13:30:26.0000000+00:00</time></trkpt><trkpt lat="64.02991486" lon="-19.08429146"><ele>623.5</ele><time>2012-07-22T13:30:31.0000000+00:00</time></trkpt><trkpt lat="64.02979279" lon="-19.08344841"><ele>621.4</ele><time>2012-07-22T13:30:36.0000000+00:00</time></trkpt><trkpt lat="64.02979279" lon="-19.08282471"><ele>621.7</ele><time>2012-07-22T13:30:41.0000000+00:00</time></trkpt><trkpt lat="64.02981567" lon="-19.08254051"><ele>622.1</ele><time>2012-07-22T13:30:46.0000000+00:00</time></trkpt><trkpt lat="64.02983093" lon="-19.082304"><ele>621.9</ele><time>2012-07-22T13:30:51.0000000+00:00</time></trkpt><trkpt lat="64.02984619" lon="-19.08211708"><ele>622.7</ele><time>2012-07-22T13:30:56.0000000+00:00</time></trkpt><trkpt lat="64.02986908" lon="-19.08192062"><ele>623.4</ele><time>2012-07-22T13:31:01.0000000+00:00</time></trkpt><trkpt lat="64.0298996" lon="-19.08171082"><ele>624.3</ele><time>2012-07-22T13:31:06.0000000+00:00</time></trkpt><trkpt lat="64.02992249" lon="-19.08149529"><ele>624.8</ele><time>2012-07-22T13:31:11.0000000+00:00</time></trkpt><trkpt lat="64.02997589" lon="-19.08133316"><ele>625.1</ele><time>2012-07-22T13:31:16.0000000+00:00</time></trkpt><trkpt lat="64.03000641" lon="-19.08119392"><ele>625.2</ele><time>2012-07-22T13:31:21.0000000+00:00</time></trkpt><trkpt lat="64.03001404" lon="-19.08115006"><ele>625.2</ele><time>2012-07-22T13:31:26.0000000+00:00</time></trkpt><trkpt lat="64.03003693" lon="-19.08106804"><ele>625.6</ele><time>2012-07-22T13:31:31.0000000+00:00</time></trkpt><trkpt lat="64.03011322" lon="-19.08085442"><ele>625.8</ele><time>2012-07-22T13:31:36.0000000+00:00</time></trkpt><trkpt lat="64.03019714" lon="-19.08060455"><ele>625.4</ele><time>2012-07-22T13:31:41.0000000+00:00</time></trkpt><trkpt lat="64.03028107" lon="-19.08032417"><ele>625.0</ele><time>2012-07-22T13:31:46.0000000+00:00</time></trkpt><trkpt lat="64.03037262" lon="-19.08001137"><ele>624.8</ele><time>2012-07-22T13:31:51.0000000+00:00</time></trkpt><trkpt lat="64.03046417" lon="-19.07969666"><ele>624.4</ele><time>2012-07-22T13:31:56.0000000+00:00</time></trkpt><trkpt lat="64.0305481" lon="-19.07934952"><ele>623.7</ele><time>2012-07-22T13:32:01.0000000+00:00</time></trkpt><trkpt lat="64.03063965" lon="-19.07894898"><ele>622.9</ele><time>2012-07-22T13:32:06.0000000+00:00</time></trkpt><trkpt lat="64.03070068" lon="-19.07853508"><ele>622.2</ele><time>2012-07-22T13:32:11.0000000+00:00</time></trkpt><trkpt lat="64.03072357" lon="-19.07813835"><ele>621.8</ele><time>2012-07-22T13:32:16.0000000+00:00</time></trkpt><trkpt lat="64.03072357" lon="-19.0777359"><ele>621.3</ele><time>2012-07-22T13:32:21.0000000+00:00</time></trkpt><trkpt lat="64.03071594" lon="-19.07732582"><ele>620.3</ele><time>2012-07-22T13:32:26.0000000+00:00</time></trkpt><trkpt lat="64.03072357" lon="-19.07689095"><ele>619.6</ele><time>2012-07-22T13:32:31.0000000+00:00</time></trkpt><trkpt lat="64.03076935" lon="-19.0764637"><ele>619.2</ele><time>2012-07-22T13:32:36.0000000+00:00</time></trkpt><trkpt lat="64.0308609" lon="-19.07600212"><ele>618.6</ele><time>2012-07-22T13:32:41.0000000+00:00</time></trkpt><trkpt lat="64.03096771" lon="-19.0755024"><ele>617.3</ele><time>2012-07-22T13:32:46.0000000+00:00</time></trkpt><trkpt lat="64.0310669" lon="-19.07507706"><ele>616.8</ele><time>2012-07-22T13:32:51.0000000+00:00</time></trkpt><trkpt lat="64.03119659" lon="-19.07467651"><ele>615.6</ele><time>2012-07-22T13:32:56.0000000+00:00</time></trkpt><trkpt lat="64.03136444" lon="-19.07424164"><ele>614.8</ele><time>2012-07-22T13:33:01.0000000+00:00</time></trkpt><trkpt lat="64.03151703" lon="-19.07396317"><ele>615.1</ele><time>2012-07-22T13:33:06.0000000+00:00</time></trkpt><trkpt lat="64.03166199" lon="-19.07374764"><ele>613.6</ele><time>2012-07-22T13:33:11.0000000+00:00</time></trkpt><trkpt lat="64.03176117" lon="-19.0733242"><ele>611.9</ele><time>2012-07-22T13:33:16.0000000+00:00</time></trkpt><trkpt lat="64.03179169" lon="-19.0724926"><ele>606.8</ele><time>2012-07-22T13:33:21.0000000+00:00</time></trkpt><trkpt lat="64.03181458" lon="-19.07166672"><ele>604.5</ele><time>2012-07-22T13:33:26.0000000+00:00</time></trkpt><trkpt lat="64.03186035" lon="-19.07103729"><ele>604.4</ele><time>2012-07-22T13:33:31.0000000+00:00</time></trkpt><trkpt lat="64.03189087" lon="-19.07052994"><ele>605.5</ele><time>2012-07-22T13:33:36.0000000+00:00</time></trkpt><trkpt lat="64.03190613" lon="-19.07011223"><ele>603.0</ele><time>2012-07-22T13:33:41.0000000+00:00</time></trkpt><trkpt lat="64.03192139" lon="-19.06975365"><ele>602.5</ele><time>2012-07-22T13:33:46.0000000+00:00</time></trkpt><trkpt lat="64.03193665" lon="-19.06942368"><ele>601.9</ele><time>2012-07-22T13:33:51.0000000+00:00</time></trkpt><trkpt lat="64.03194428" lon="-19.06907654"><ele>601.8</ele><time>2012-07-22T13:33:56.0000000+00:00</time></trkpt><trkpt lat="64.03195953" lon="-19.06877708"><ele>601.3</ele><time>2012-07-22T13:34:01.0000000+00:00</time></trkpt><trkpt lat="64.03197479" lon="-19.06847191"><ele>600.9</ele><time>2012-07-22T13:34:06.0000000+00:00</time></trkpt><trkpt lat="64.03198242" lon="-19.06818008"><ele>600.7</ele><time>2012-07-22T13:34:11.0000000+00:00</time></trkpt><trkpt lat="64.03199768" lon="-19.0678997"><ele>600.7</ele><time>2012-07-22T13:34:16.0000000+00:00</time></trkpt><trkpt lat="64.03201294" lon="-19.06760979"><ele>600.2</ele><time>2012-07-22T13:34:21.0000000+00:00</time></trkpt><trkpt lat="64.0320282" lon="-19.06725121"><ele>600.4</ele><time>2012-07-22T13:34:26.0000000+00:00</time></trkpt><trkpt lat="64.03205872" lon="-19.06689262"><ele>599.8</ele><time>2012-07-22T13:34:31.0000000+00:00</time></trkpt><trkpt lat="64.03206635" lon="-19.06656075"><ele>598.5</ele><time>2012-07-22T13:34:36.0000000+00:00</time></trkpt><trkpt lat="64.03207398" lon="-19.06624794"><ele>603.1</ele><time>2012-07-22T13:34:41.0000000+00:00</time></trkpt><trkpt lat="64.0320816" lon="-19.06591988"><ele>602.0</ele><time>2012-07-22T13:34:46.0000000+00:00</time></trkpt><trkpt lat="64.03209686" lon="-19.06561279"><ele>601.3</ele><time>2012-07-22T13:34:51.0000000+00:00</time></trkpt><trkpt lat="64.03210449" lon="-19.06531143"><ele>601.3</ele><time>2012-07-22T13:34:56.0000000+00:00</time></trkpt><trkpt lat="64.03211212" lon="-19.06499291"><ele>599.9</ele><time>2012-07-22T13:35:01.0000000+00:00</time></trkpt><trkpt lat="64.03212738" lon="-19.06469536"><ele>599.5</ele><time>2012-07-22T13:35:06.0000000+00:00</time></trkpt><trkpt lat="64.03214264" lon="-19.06438255"><ele>598.9</ele><time>2012-07-22T13:35:11.0000000+00:00</time></trkpt><trkpt lat="64.03215027" lon="-19.06408119"><ele>598.3</ele><time>2012-07-22T13:35:16.0000000+00:00</time></trkpt><trkpt lat="64.03216553" lon="-19.06378174"><ele>598.2</ele><time>2012-07-22T13:35:21.0000000+00:00</time></trkpt><trkpt lat="64.03216553" lon="-19.06348801"><ele>597.4</ele><time>2012-07-22T13:35:26.0000000+00:00</time></trkpt><trkpt lat="64.03218079" lon="-19.06317711"><ele>598.3</ele><time>2012-07-22T13:35:31.0000000+00:00</time></trkpt><trkpt lat="64.03218842" lon="-19.06286621"><ele>598.2</ele><time>2012-07-22T13:35:36.0000000+00:00</time></trkpt><trkpt lat="64.03219605" lon="-19.06254005"><ele>598.1</ele><time>2012-07-22T13:35:41.0000000+00:00</time></trkpt><trkpt lat="64.03220367" lon="-19.06222916"><ele>597.9</ele><time>2012-07-22T13:35:46.0000000+00:00</time></trkpt><trkpt lat="64.03221893" lon="-19.06192207"><ele>598.1</ele><time>2012-07-22T13:35:51.0000000+00:00</time></trkpt><trkpt lat="64.03222656" lon="-19.06160164"><ele>597.6</ele><time>2012-07-22T13:35:56.0000000+00:00</time></trkpt><trkpt lat="64.03224182" lon="-19.06127739"><ele>597.7</ele><time>2012-07-22T13:36:01.0000000+00:00</time></trkpt><trkpt lat="64.03225708" lon="-19.06097794"><ele>596.8</ele><time>2012-07-22T13:36:06.0000000+00:00</time></trkpt><trkpt lat="64.03227234" lon="-19.06069756"><ele>596.2</ele><time>2012-07-22T13:36:11.0000000+00:00</time></trkpt><trkpt lat="64.03227234" lon="-19.06049538"><ele>595.4</ele><time>2012-07-22T13:36:16.0000000+00:00</time></trkpt><trkpt lat="64.03227234" lon="-19.06027985"><ele>594.3</ele><time>2012-07-22T13:36:21.0000000+00:00</time></trkpt><trkpt lat="64.03227997" lon="-19.0600605"><ele>594.4</ele><time>2012-07-22T13:36:26.0000000+00:00</time></trkpt><trkpt lat="64.03227997" lon="-19.05985832"><ele>593.7</ele><time>2012-07-22T13:36:31.0000000+00:00</time></trkpt><trkpt lat="64.03229523" lon="-19.0596695"><ele>594.2</ele><time>2012-07-22T13:36:36.0000000+00:00</time></trkpt><trkpt lat="64.03230286" lon="-19.05949593"><ele>594.4</ele><time>2012-07-22T13:36:41.0000000+00:00</time></trkpt><trkpt lat="64.03231812" lon="-19.05932808"><ele>594.0</ele><time>2012-07-22T13:36:46.0000000+00:00</time></trkpt><trkpt lat="64.03235626" lon="-19.05913353"><ele>593.7</ele><time>2012-07-22T13:36:51.0000000+00:00</time></trkpt><trkpt lat="64.03239441" lon="-19.05892944"><ele>593.7</ele><time>2012-07-22T13:36:56.0000000+00:00</time></trkpt><trkpt lat="64.03244019" lon="-19.05873108"><ele>593.9</ele><time>2012-07-22T13:37:01.0000000+00:00</time></trkpt><trkpt lat="64.03249359" lon="-19.05854607"><ele>593.6</ele><time>2012-07-22T13:37:06.0000000+00:00</time></trkpt><trkpt lat="64.03255463" lon="-19.0583458"><ele>593.5</ele><time>2012-07-22T13:37:11.0000000+00:00</time></trkpt><trkpt lat="64.03264618" lon="-19.05813408"><ele>593.3</ele><time>2012-07-22T13:37:16.0000000+00:00</time></trkpt><trkpt lat="64.0327301" lon="-19.05792046"><ele>593.3</ele><time>2012-07-22T13:37:21.0000000+00:00</time></trkpt><trkpt lat="64.03276062" lon="-19.05789185"><ele>594.2</ele><time>2012-07-22T13:37:26.0000000+00:00</time></trkpt><trkpt lat="64.03279877" lon="-19.05777931"><ele>594.6</ele><time>2012-07-22T13:37:31.0000000+00:00</time></trkpt><trkpt lat="64.03287506" lon="-19.05759239"><ele>595.0</ele><time>2012-07-22T13:37:36.0000000+00:00</time></trkpt><trkpt lat="64.03296661" lon="-19.05743027"><ele>595.3</ele><time>2012-07-22T13:37:41.0000000+00:00</time></trkpt><trkpt lat="64.03305817" lon="-19.05725098"><ele>595.5</ele><time>2012-07-22T13:37:46.0000000+00:00</time></trkpt><trkpt lat="64.03317261" lon="-19.05701065"><ele>595.8</ele><time>2012-07-22T13:37:51.0000000+00:00</time></trkpt><trkpt lat="64.03328705" lon="-19.05668068"><ele>594.8</ele><time>2012-07-22T13:37:56.0000000+00:00</time></trkpt><trkpt lat="64.03334808" lon="-19.05628777"><ele>594.1</ele><time>2012-07-22T13:38:01.0000000+00:00</time></trkpt><trkpt lat="64.03337097" lon="-19.05586052"><ele>594.6</ele><time>2012-07-22T13:38:06.0000000+00:00</time></trkpt><trkpt lat="64.0333786" lon="-19.05544281"><ele>594.4</ele><time>2012-07-22T13:38:11.0000000+00:00</time></trkpt><trkpt lat="64.03333283" lon="-19.05495834"><ele>593.1</ele><time>2012-07-22T13:38:16.0000000+00:00</time></trkpt><trkpt lat="64.03324127" lon="-19.05453873"><ele>592.2</ele><time>2012-07-22T13:38:21.0000000+00:00</time></trkpt><trkpt lat="64.03309631" lon="-19.05420685"><ele>591.5</ele><time>2012-07-22T13:38:26.0000000+00:00</time></trkpt><trkpt lat="64.03292847" lon="-19.05383682"><ele>589.3</ele><time>2012-07-22T13:38:31.0000000+00:00</time></trkpt><trkpt lat="64.03274536" lon="-19.05353928"><ele>584.0</ele><time>2012-07-22T13:38:36.0000000+00:00</time></trkpt><trkpt lat="64.0324707" lon="-19.0533123"><ele>580.3</ele><time>2012-07-22T13:38:41.0000000+00:00</time></trkpt><trkpt lat="64.03210449" lon="-19.05306435"><ele>576.2</ele><time>2012-07-22T13:38:46.0000000+00:00</time></trkpt><trkpt lat="64.03183746" lon="-19.05262756"><ele>575.3</ele><time>2012-07-22T13:38:51.0000000+00:00</time></trkpt><trkpt lat="64.03177643" lon="-19.05203056"><ele>574.5</ele><time>2012-07-22T13:38:56.0000000+00:00</time></trkpt><trkpt lat="64.03178406" lon="-19.05165672"><ele>574.3</ele><time>2012-07-22T13:39:01.0000000+00:00</time></trkpt><trkpt lat="64.03180695" lon="-19.05127716"><ele>574.2</ele><time>2012-07-22T13:39:06.0000000+00:00</time></trkpt><trkpt lat="64.03184509" lon="-19.05092812"><ele>574.4</ele><time>2012-07-22T13:39:11.0000000+00:00</time></trkpt><trkpt lat="64.03188324" lon="-19.05057907"><ele>574.2</ele><time>2012-07-22T13:39:16.0000000+00:00</time></trkpt><trkpt lat="64.03191376" lon="-19.05023956"><ele>574.2</ele><time>2012-07-22T13:39:21.0000000+00:00</time></trkpt><trkpt lat="64.03196716" lon="-19.04988098"><ele>574.2</ele><time>2012-07-22T13:39:26.0000000+00:00</time></trkpt><trkpt lat="64.03201294" lon="-19.04951859"><ele>574.1</ele><time>2012-07-22T13:39:31.0000000+00:00</time></trkpt><trkpt lat="64.03205872" lon="-19.04915428"><ele>574.3</ele><time>2012-07-22T13:39:36.0000000+00:00</time></trkpt><trkpt lat="64.03208923" lon="-19.0488224"><ele>574.3</ele><time>2012-07-22T13:39:41.0000000+00:00</time></trkpt><trkpt lat="64.03212738" lon="-19.04847717"><ele>574.4</ele><time>2012-07-22T13:39:46.0000000+00:00</time></trkpt><trkpt lat="64.03217316" lon="-19.04812622"><ele>574.4</ele><time>2012-07-22T13:39:51.0000000+00:00</time></trkpt><trkpt lat="64.03220367" lon="-19.04778099"><ele>574.3</ele><time>2012-07-22T13:39:56.0000000+00:00</time></trkpt><trkpt lat="64.03224182" lon="-19.04746056"><ele>574.2</ele><time>2012-07-22T13:40:01.0000000+00:00</time></trkpt><trkpt lat="64.0322876" lon="-19.04714394"><ele>574.0</ele><time>2012-07-22T13:40:06.0000000+00:00</time></trkpt><trkpt lat="64.03232575" lon="-19.04680252"><ele>573.9</ele><time>2012-07-22T13:40:11.0000000+00:00</time></trkpt><trkpt lat="64.03237152" lon="-19.04648399"><ele>573.9</ele><time>2012-07-22T13:40:16.0000000+00:00</time></trkpt><trkpt lat="64.03242493" lon="-19.04615402"><ele>574.0</ele><time>2012-07-22T13:40:21.0000000+00:00</time></trkpt><trkpt lat="64.0324707" lon="-19.04582787"><ele>574.4</ele><time>2012-07-22T13:40:26.0000000+00:00</time></trkpt><trkpt lat="64.03250122" lon="-19.04553223"><ele>575.9</ele><time>2012-07-22T13:40:31.0000000+00:00</time></trkpt><trkpt lat="64.03253937" lon="-19.04523277"><ele>576.7</ele><time>2012-07-22T13:40:36.0000000+00:00</time></trkpt><trkpt lat="64.03258514" lon="-19.04492188"><ele>577.3</ele><time>2012-07-22T13:40:41.0000000+00:00</time></trkpt><trkpt lat="64.03263092" lon="-19.04460526"><ele>578.2</ele><time>2012-07-22T13:40:46.0000000+00:00</time></trkpt><trkpt lat="64.03266907" lon="-19.04427147"><ele>578.3</ele><time>2012-07-22T13:40:51.0000000+00:00</time></trkpt><trkpt lat="64.03269959" lon="-19.04393768"><ele>578.8</ele><time>2012-07-22T13:40:56.0000000+00:00</time></trkpt><trkpt lat="64.03272247" lon="-19.04363823"><ele>578.9</ele><time>2012-07-22T13:41:01.0000000+00:00</time></trkpt><trkpt lat="64.03274536" lon="-19.04335022"><ele>579.2</ele><time>2012-07-22T13:41:06.0000000+00:00</time></trkpt><trkpt lat="64.03278351" lon="-19.04304314"><ele>579.0</ele><time>2012-07-22T13:41:11.0000000+00:00</time></trkpt><trkpt lat="64.03282166" lon="-19.04273033"><ele>578.9</ele><time>2012-07-22T13:41:16.0000000+00:00</time></trkpt><trkpt lat="64.0328598" lon="-19.0424366"><ele>579.3</ele><time>2012-07-22T13:41:21.0000000+00:00</time></trkpt><trkpt lat="64.03290558" lon="-19.04216385"><ele>579.7</ele><time>2012-07-22T13:41:26.0000000+00:00</time></trkpt><trkpt lat="64.0329361" lon="-19.04189301"><ele>580.2</ele><time>2012-07-22T13:41:31.0000000+00:00</time></trkpt><trkpt lat="64.03295136" lon="-19.04161263"><ele>580.1</ele><time>2012-07-22T13:41:36.0000000+00:00</time></trkpt><trkpt lat="64.03294373" lon="-19.04133034"><ele>580.3</ele><time>2012-07-22T13:41:41.0000000+00:00</time></trkpt><trkpt lat="64.03292847" lon="-19.0411129"><ele>580.2</ele><time>2012-07-22T13:41:46.0000000+00:00</time></trkpt><trkpt lat="64.03290558" lon="-19.04093361"><ele>580.0</ele><time>2012-07-22T13:41:51.0000000+00:00</time></trkpt><trkpt lat="64.03287506" lon="-19.04071808"><ele>580.3</ele><time>2012-07-22T13:41:56.0000000+00:00</time></trkpt><trkpt lat="64.03282929" lon="-19.04053879"><ele>580.6</ele><time>2012-07-22T13:42:01.0000000+00:00</time></trkpt><trkpt lat="64.0327301" lon="-19.04039383"><ele>580.4</ele><time>2012-07-22T13:42:06.0000000+00:00</time></trkpt><trkpt lat="64.03260803" lon="-19.04029846"><ele>580.6</ele><time>2012-07-22T13:42:11.0000000+00:00</time></trkpt><trkpt lat="64.0324707" lon="-19.04017067"><ele>580.6</ele><time>2012-07-22T13:42:16.0000000+00:00</time></trkpt><trkpt lat="64.03231049" lon="-19.04001808"><ele>580.3</ele><time>2012-07-22T13:42:21.0000000+00:00</time></trkpt><trkpt lat="64.03216553" lon="-19.03985977"><ele>580.1</ele><time>2012-07-22T13:42:26.0000000+00:00</time></trkpt><trkpt lat="64.0320282" lon="-19.03972435"><ele>580.2</ele><time>2012-07-22T13:42:31.0000000+00:00</time></trkpt><trkpt lat="64.03190613" lon="-19.03957939"><ele>580.2</ele><time>2012-07-22T13:42:36.0000000+00:00</time></trkpt><trkpt lat="64.0317688" lon="-19.03944397"><ele>580.0</ele><time>2012-07-22T13:42:41.0000000+00:00</time></trkpt><trkpt lat="64.03163147" lon="-19.03928947"><ele>579.9</ele><time>2012-07-22T13:42:46.0000000+00:00</time></trkpt><trkpt lat="64.03149414" lon="-19.03913498"><ele>579.5</ele><time>2012-07-22T13:42:51.0000000+00:00</time></trkpt><trkpt lat="64.03135681" lon="-19.03894043"><ele>579.2</ele><time>2012-07-22T13:42:56.0000000+00:00</time></trkpt><trkpt lat="64.03121948" lon="-19.03875923"><ele>579.2</ele><time>2012-07-22T13:43:01.0000000+00:00</time></trkpt><trkpt lat="64.03108978" lon="-19.03859329"><ele>578.8</ele><time>2012-07-22T13:43:06.0000000+00:00</time></trkpt><trkpt lat="64.03096008" lon="-19.03841972"><ele>578.8</ele><time>2012-07-22T13:43:11.0000000+00:00</time></trkpt><trkpt lat="64.03081513" lon="-19.03824234"><ele>578.8</ele><time>2012-07-22T13:43:16.0000000+00:00</time></trkpt><trkpt lat="64.0306778" lon="-19.03806686"><ele>578.9</ele><time>2012-07-22T13:43:21.0000000+00:00</time></trkpt><trkpt lat="64.0305481" lon="-19.03790093"><ele>579.0</ele><time>2012-07-22T13:43:26.0000000+00:00</time></trkpt><trkpt lat="64.03041077" lon="-19.03771973"><ele>578.7</ele><time>2012-07-22T13:43:31.0000000+00:00</time></trkpt><trkpt lat="64.03027344" lon="-19.03750801"><ele>578.6</ele><time>2012-07-22T13:43:36.0000000+00:00</time></trkpt><trkpt lat="64.030159" lon="-19.03732109"><ele>578.5</ele><time>2012-07-22T13:43:41.0000000+00:00</time></trkpt><trkpt lat="64.03003693" lon="-19.03716087"><ele>578.1</ele><time>2012-07-22T13:43:46.0000000+00:00</time></trkpt><trkpt lat="64.02992249" lon="-19.03702354"><ele>578.1</ele><time>2012-07-22T13:43:51.0000000+00:00</time></trkpt><trkpt lat="64.02978516" lon="-19.03686142"><ele>578.1</ele><time>2012-07-22T13:43:56.0000000+00:00</time></trkpt><trkpt lat="64.0296402" lon="-19.03672028"><ele>578.3</ele><time>2012-07-22T13:44:01.0000000+00:00</time></trkpt><trkpt lat="64.02949524" lon="-19.0365715"><ele>578.2</ele><time>2012-07-22T13:44:06.0000000+00:00</time></trkpt><trkpt lat="64.02934265" lon="-19.03639603"><ele>578.2</ele><time>2012-07-22T13:44:11.0000000+00:00</time></trkpt><trkpt lat="64.02922821" lon="-19.03628922"><ele>579.0</ele><time>2012-07-22T13:44:16.0000000+00:00</time></trkpt><trkpt lat="64.02906799" lon="-19.03627014"><ele>579.4</ele><time>2012-07-22T13:44:21.0000000+00:00</time></trkpt><trkpt lat="64.02893829" lon="-19.03629684"><ele>579.4</ele><time>2012-07-22T13:44:26.0000000+00:00</time></trkpt><trkpt lat="64.02885437" lon="-19.03631592"><ele>579.6</ele><time>2012-07-22T13:44:31.0000000+00:00</time></trkpt><trkpt lat="64.02873993" lon="-19.03635597"><ele>579.6</ele><time>2012-07-22T13:44:36.0000000+00:00</time></trkpt><trkpt lat="64.02861023" lon="-19.03644562"><ele>579.6</ele><time>2012-07-22T13:44:41.0000000+00:00</time></trkpt><trkpt lat="64.02846527" lon="-19.03654671"><ele>579.9</ele><time>2012-07-22T13:44:46.0000000+00:00</time></trkpt><trkpt lat="64.02830505" lon="-19.03662109"><ele>580.3</ele><time>2012-07-22T13:44:51.0000000+00:00</time></trkpt><trkpt lat="64.02812958" lon="-19.03663063"><ele>579.9</ele><time>2012-07-22T13:44:56.0000000+00:00</time></trkpt><trkpt lat="64.02794647" lon="-19.03661728"><ele>580.0</ele><time>2012-07-22T13:45:01.0000000+00:00</time></trkpt><trkpt lat="64.027771" lon="-19.03655815"><ele>580.6</ele><time>2012-07-22T13:45:06.0000000+00:00</time></trkpt><trkpt lat="64.02761841" lon="-19.03639603"><ele>581.3</ele><time>2012-07-22T13:45:11.0000000+00:00</time></trkpt><trkpt lat="64.02750397" lon="-19.03618431"><ele>581.5</ele><time>2012-07-22T13:45:16.0000000+00:00</time></trkpt><trkpt lat="64.02742767" lon="-19.03591919"><ele>582.2</ele><time>2012-07-22T13:45:21.0000000+00:00</time></trkpt><trkpt lat="64.02738953" lon="-19.03577995"><ele>582.6</ele><time>2012-07-22T13:45:26.0000000+00:00</time></trkpt><trkpt lat="64.02735138" lon="-19.03561783"><ele>584.0</ele><time>2012-07-22T13:45:31.0000000+00:00</time></trkpt><trkpt lat="64.0273056" lon="-19.03545761"><ele>585.6</ele><time>2012-07-22T13:45:36.0000000+00:00</time></trkpt><trkpt lat="64.02724457" lon="-19.03528786"><ele>586.2</ele><time>2012-07-22T13:45:41.0000000+00:00</time></trkpt><trkpt lat="64.02720642" lon="-19.03520012"><ele>586.3</ele><time>2012-07-22T13:45:46.0000000+00:00</time></trkpt><trkpt lat="64.0271225" lon="-19.03509712"><ele>585.3</ele><time>2012-07-22T13:45:51.0000000+00:00</time></trkpt><trkpt lat="64.02695465" lon="-19.034935"><ele>583.5</ele><time>2012-07-22T13:45:56.0000000+00:00</time></trkpt><trkpt lat="64.0267334" lon="-19.03476906"><ele>582.5</ele><time>2012-07-22T13:46:01.0000000+00:00</time></trkpt><trkpt lat="64.02651215" lon="-19.03452492"><ele>580.3</ele><time>2012-07-22T13:46:06.0000000+00:00</time></trkpt><trkpt lat="64.02636719" lon="-19.03439713"><ele>580.9</ele><time>2012-07-22T13:46:11.0000000+00:00</time></trkpt><trkpt lat="64.0262146" lon="-19.03424454"><ele>580.5</ele><time>2012-07-22T13:46:16.0000000+00:00</time></trkpt><trkpt lat="64.02604675" lon="-19.03410721"><ele>580.0</ele><time>2012-07-22T13:46:21.0000000+00:00</time></trkpt><trkpt lat="64.02587891" lon="-19.0339756"><ele>580.2</ele><time>2012-07-22T13:46:26.0000000+00:00</time></trkpt><trkpt lat="64.02573395" lon="-19.03386307"><ele>580.2</ele><time>2012-07-22T13:46:31.0000000+00:00</time></trkpt><trkpt lat="64.02559662" lon="-19.03367996"><ele>579.5</ele><time>2012-07-22T13:46:36.0000000+00:00</time></trkpt><trkpt lat="64.02545166" lon="-19.03349686"><ele>579.0</ele><time>2012-07-22T13:46:41.0000000+00:00</time></trkpt><trkpt lat="64.0253067" lon="-19.03346252"><ele>582.9</ele><time>2012-07-22T13:46:46.0000000+00:00</time></trkpt><trkpt lat="64.02514648" lon="-19.03363228"><ele>582.9</ele><time>2012-07-22T13:46:51.0000000+00:00</time></trkpt><trkpt lat="64.02500916" lon="-19.03386688"><ele>581.8</ele><time>2012-07-22T13:46:56.0000000+00:00</time></trkpt><trkpt lat="64.02487183" lon="-19.03409958"><ele>581.1</ele><time>2012-07-22T13:47:01.0000000+00:00</time></trkpt><trkpt lat="64.02474213" lon="-19.03427315"><ele>581.5</ele><time>2012-07-22T13:47:06.0000000+00:00</time></trkpt><trkpt lat="64.02458191" lon="-19.03443337"><ele>581.2</ele><time>2012-07-22T13:47:11.0000000+00:00</time></trkpt><trkpt lat="64.02442932" lon="-19.03462791"><ele>580.8</ele><time>2012-07-22T13:47:16.0000000+00:00</time></trkpt><trkpt lat="64.0242691" lon="-19.03488731"><ele>581.6</ele><time>2012-07-22T13:47:21.0000000+00:00</time></trkpt><trkpt lat="64.02411652" lon="-19.03514099"><ele>582.8</ele><time>2012-07-22T13:47:26.0000000+00:00</time></trkpt><trkpt lat="64.0239563" lon="-19.0353756"><ele>581.8</ele><time>2012-07-22T13:47:31.0000000+00:00</time></trkpt><trkpt lat="64.02381134" lon="-19.0355854"><ele>581.6</ele><time>2012-07-22T13:47:36.0000000+00:00</time></trkpt><trkpt lat="64.02367401" lon="-19.03581238"><ele>580.6</ele><time>2012-07-22T13:47:41.0000000+00:00</time></trkpt><trkpt lat="64.02351379" lon="-19.03602409"><ele>580.8</ele><time>2012-07-22T13:47:46.0000000+00:00</time></trkpt><trkpt lat="64.02337647" lon="-19.03621483"><ele>581.0</ele><time>2012-07-22T13:47:51.0000000+00:00</time></trkpt><trkpt lat="64.0232544" lon="-19.03633118"><ele>581.6</ele><time>2012-07-22T13:47:56.0000000+00:00</time></trkpt><trkpt lat="64.02314758" lon="-19.03640938"><ele>581.7</ele><time>2012-07-22T13:48:01.0000000+00:00</time></trkpt><trkpt lat="64.02307892" lon="-19.03646278"><ele>581.6</ele><time>2012-07-22T13:48:06.0000000+00:00</time></trkpt><trkpt lat="64.02301025" lon="-19.03649521"><ele>581.4</ele><time>2012-07-22T13:48:11.0000000+00:00</time></trkpt><trkpt lat="64.02293396" lon="-19.03652382"><ele>581.9</ele><time>2012-07-22T13:48:16.0000000+00:00</time></trkpt><trkpt lat="64.0228653" lon="-19.03653717"><ele>581.9</ele><time>2012-07-22T13:48:21.0000000+00:00</time></trkpt><trkpt lat="64.02279663" lon="-19.03655624"><ele>582.1</ele><time>2012-07-22T13:48:26.0000000+00:00</time></trkpt><trkpt lat="64.02272034" lon="-19.03655624"><ele>582.0</ele><time>2012-07-22T13:48:31.0000000+00:00</time></trkpt><trkpt lat="64.02267456" lon="-19.03654099"><ele>582.4</ele><time>2012-07-22T13:48:36.0000000+00:00</time></trkpt><trkpt lat="64.02261353" lon="-19.03651238"><ele>582.6</ele><time>2012-07-22T13:48:41.0000000+00:00</time></trkpt><trkpt lat="64.02256012" lon="-19.03651047"><ele>583.1</ele><time>2012-07-22T13:48:46.0000000+00:00</time></trkpt><trkpt lat="64.02254486" lon="-19.03648567"><ele>585.3</ele><time>2012-07-22T13:48:51.0000000+00:00</time></trkpt><trkpt lat="64.02252197" lon="-19.03647614"><ele>586.9</ele><time>2012-07-22T13:48:56.0000000+00:00</time></trkpt><trkpt lat="64.02249146" lon="-19.03645706"><ele>587.1</ele><time>2012-07-22T13:49:01.0000000+00:00</time></trkpt><trkpt lat="64.02245331" lon="-19.03643799"><ele>587.6</ele><time>2012-07-22T13:49:06.0000000+00:00</time></trkpt><trkpt lat="64.02243805" lon="-19.03643036"><ele>587.7</ele><time>2012-07-22T13:49:11.0000000+00:00</time></trkpt><trkpt lat="64.0223999" lon="-19.03641319"><ele>588.1</ele><time>2012-07-22T13:49:16.0000000+00:00</time></trkpt><trkpt lat="64.02236176" lon="-19.03638268"><ele>588.2</ele><time>2012-07-22T13:49:21.0000000+00:00</time></trkpt><trkpt lat="64.02232361" lon="-19.03634453"><ele>588.4</ele><time>2012-07-22T13:49:26.0000000+00:00</time></trkpt><trkpt lat="64.02228546" lon="-19.03633308"><ele>588.0</ele><time>2012-07-22T13:49:31.0000000+00:00</time></trkpt><trkpt lat="64.02224731" lon="-19.03630447"><ele>588.7</ele><time>2012-07-22T13:49:36.0000000+00:00</time></trkpt><trkpt lat="64.02222443" lon="-19.03634071"><ele>588.5</ele><time>2012-07-22T13:49:41.0000000+00:00</time></trkpt><trkpt lat="64.02217865" lon="-19.0363102"><ele>588.4</ele><time>2012-07-22T13:49:46.0000000+00:00</time></trkpt><trkpt lat="64.02209473" lon="-19.03628349"><ele>588.2</ele><time>2012-07-22T13:49:51.0000000+00:00</time></trkpt><trkpt lat="64.02200317" lon="-19.03627968"><ele>588.0</ele><time>2012-07-22T13:49:56.0000000+00:00</time></trkpt><trkpt lat="64.02188873" lon="-19.03633499"><ele>587.3</ele><time>2012-07-22T13:50:01.0000000+00:00</time></trkpt><trkpt lat="64.02178955" lon="-19.03638458"><ele>585.8</ele><time>2012-07-22T13:50:06.0000000+00:00</time></trkpt><trkpt lat="64.02170563" lon="-19.03645706"><ele>585.8</ele><time>2012-07-22T13:50:11.0000000+00:00</time></trkpt><trkpt lat="64.0216217" lon="-19.03654671"><ele>585.8</ele><time>2012-07-22T13:50:16.0000000+00:00</time></trkpt><trkpt lat="64.02154541" lon="-19.03669357"><ele>585.0</ele><time>2012-07-22T13:50:21.0000000+00:00</time></trkpt><trkpt lat="64.02148438" lon="-19.03689575"><ele>584.1</ele><time>2012-07-22T13:50:26.0000000+00:00</time></trkpt><trkpt lat="64.02142334" lon="-19.03713417"><ele>583.3</ele><time>2012-07-22T13:50:31.0000000+00:00</time></trkpt><trkpt lat="64.02137756" lon="-19.03743172"><ele>581.3</ele><time>2012-07-22T13:50:36.0000000+00:00</time></trkpt><trkpt lat="64.02133942" lon="-19.03774452"><ele>579.0</ele><time>2012-07-22T13:50:41.0000000+00:00</time></trkpt><trkpt lat="64.02133179" lon="-19.03802872"><ele>579.1</ele><time>2012-07-22T13:50:46.0000000+00:00</time></trkpt><trkpt lat="64.02133179" lon="-19.0383091"><ele>579.7</ele><time>2012-07-22T13:50:51.0000000+00:00</time></trkpt><trkpt lat="64.02131653" lon="-19.03855705"><ele>580.0</ele><time>2012-07-22T13:50:56.0000000+00:00</time></trkpt><trkpt lat="64.02128601" lon="-19.03880692"><ele>580.0</ele><time>2012-07-22T13:51:01.0000000+00:00</time></trkpt><trkpt lat="64.02123261" lon="-19.03907967"><ele>578.9</ele><time>2012-07-22T13:51:06.0000000+00:00</time></trkpt><trkpt lat="64.02118683" lon="-19.03932762"><ele>579.2</ele><time>2012-07-22T13:51:11.0000000+00:00</time></trkpt><trkpt lat="64.02115631" lon="-19.0396328"><ele>578.6</ele><time>2012-07-22T13:51:16.0000000+00:00</time></trkpt><trkpt lat="64.02113342" lon="-19.03991318"><ele>578.8</ele><time>2012-07-22T13:51:21.0000000+00:00</time></trkpt><trkpt lat="64.02111054" lon="-19.04021263"><ele>578.7</ele><time>2012-07-22T13:51:26.0000000+00:00</time></trkpt><trkpt lat="64.02108002" lon="-19.0404892"><ele>580.0</ele><time>2012-07-22T13:51:31.0000000+00:00</time></trkpt><trkpt lat="64.02102661" lon="-19.04068565"><ele>579.8</ele><time>2012-07-22T13:51:36.0000000+00:00</time></trkpt><trkpt lat="64.02096558" lon="-19.04086876"><ele>580.1</ele><time>2012-07-22T13:51:41.0000000+00:00</time></trkpt><trkpt lat="64.02085877" lon="-19.0410862"><ele>580.5</ele><time>2012-07-22T13:51:46.0000000+00:00</time></trkpt><trkpt lat="64.02074432" lon="-19.04133225"><ele>579.4</ele><time>2012-07-22T13:51:51.0000000+00:00</time></trkpt><trkpt lat="64.02063751" lon="-19.04157257"><ele>578.6</ele><time>2012-07-22T13:51:56.0000000+00:00</time></trkpt><trkpt lat="64.02052307" lon="-19.04180145"><ele>578.0</ele><time>2012-07-22T13:52:01.0000000+00:00</time></trkpt><trkpt lat="64.02042389" lon="-19.04199219"><ele>577.8</ele><time>2012-07-22T13:52:06.0000000+00:00</time></trkpt><trkpt lat="64.02032471" lon="-19.04216194"><ele>578.2</ele><time>2012-07-22T13:52:11.0000000+00:00</time></trkpt><trkpt lat="64.02022553" lon="-19.04230118"><ele>578.5</ele><time>2012-07-22T13:52:16.0000000+00:00</time></trkpt><trkpt lat="64.0201416" lon="-19.04243088"><ele>580.4</ele><time>2012-07-22T13:52:21.0000000+00:00</time></trkpt><trkpt lat="64.02005005" lon="-19.04255104"><ele>581.5</ele><time>2012-07-22T13:52:26.0000000+00:00</time></trkpt><trkpt lat="64.0199585" lon="-19.04269791"><ele>582.0</ele><time>2012-07-22T13:52:31.0000000+00:00</time></trkpt><trkpt lat="64.01983643" lon="-19.04284668"><ele>582.4</ele><time>2012-07-22T13:52:36.0000000+00:00</time></trkpt><trkpt lat="64.01972199" lon="-19.04301071"><ele>582.0</ele><time>2012-07-22T13:52:41.0000000+00:00</time></trkpt><trkpt lat="64.01963043" lon="-19.04312897"><ele>582.5</ele><time>2012-07-22T13:52:46.0000000+00:00</time></trkpt><trkpt lat="64.01953125" lon="-19.04328156"><ele>582.0</ele><time>2012-07-22T13:52:51.0000000+00:00</time></trkpt><trkpt lat="64.01943207" lon="-19.04346275"><ele>580.8</ele><time>2012-07-22T13:52:56.0000000+00:00</time></trkpt><trkpt lat="64.01934815" lon="-19.04358292"><ele>580.4</ele><time>2012-07-22T13:53:01.0000000+00:00</time></trkpt><trkpt lat="64.01927185" lon="-19.04371262"><ele>580.4</ele><time>2012-07-22T13:53:06.0000000+00:00</time></trkpt><trkpt lat="64.01918793" lon="-19.04389191"><ele>579.8</ele><time>2012-07-22T13:53:11.0000000+00:00</time></trkpt><trkpt lat="64.01909638" lon="-19.04405022"><ele>580.4</ele><time>2012-07-22T13:53:16.0000000+00:00</time></trkpt><trkpt lat="64.01901245" lon="-19.04422188"><ele>580.7</ele><time>2012-07-22T13:53:21.0000000+00:00</time></trkpt><trkpt lat="64.0189209" lon="-19.04432678"><ele>582.1</ele><time>2012-07-22T13:53:26.0000000+00:00</time></trkpt><trkpt lat="64.0188446" lon="-19.04444504"><ele>582.8</ele><time>2012-07-22T13:53:31.0000000+00:00</time></trkpt><trkpt lat="64.01876068" lon="-19.0445919"><ele>582.9</ele><time>2012-07-22T13:53:36.0000000+00:00</time></trkpt><trkpt lat="64.01866913" lon="-19.04472351"><ele>583.5</ele><time>2012-07-22T13:53:41.0000000+00:00</time></trkpt><trkpt lat="64.01858521" lon="-19.04481888"><ele>584.7</ele><time>2012-07-22T13:53:46.0000000+00:00</time></trkpt><trkpt lat="64.01849365" lon="-19.04494667"><ele>585.7</ele><time>2012-07-22T13:53:51.0000000+00:00</time></trkpt><trkpt lat="64.01840973" lon="-19.04504395"><ele>586.8</ele><time>2012-07-22T13:53:56.0000000+00:00</time></trkpt><trkpt lat="64.01831818" lon="-19.04516029"><ele>586.8</ele><time>2012-07-22T13:54:01.0000000+00:00</time></trkpt><trkpt lat="64.01821899" lon="-19.04528618"><ele>586.3</ele><time>2012-07-22T13:54:06.0000000+00:00</time></trkpt><trkpt lat="64.01811218" lon="-19.04540443"><ele>586.5</ele><time>2012-07-22T13:54:11.0000000+00:00</time></trkpt><trkpt lat="64.01800537" lon="-19.04551506"><ele>587.0</ele><time>2012-07-22T13:54:16.0000000+00:00</time></trkpt><trkpt lat="64.01789856" lon="-19.04562378"><ele>587.6</ele><time>2012-07-22T13:54:21.0000000+00:00</time></trkpt><trkpt lat="64.01779938" lon="-19.04574013"><ele>588.8</ele><time>2012-07-22T13:54:26.0000000+00:00</time></trkpt><trkpt lat="64.01770783" lon="-19.0458374"><ele>589.1</ele><time>2012-07-22T13:54:31.0000000+00:00</time></trkpt><trkpt lat="64.01760864" lon="-19.04592705"><ele>589.2</ele><time>2012-07-22T13:54:36.0000000+00:00</time></trkpt><trkpt lat="64.01750183" lon="-19.04603005"><ele>590.1</ele><time>2012-07-22T13:54:41.0000000+00:00</time></trkpt><trkpt lat="64.01740265" lon="-19.04613304"><ele>591.0</ele><time>2012-07-22T13:54:46.0000000+00:00</time></trkpt><trkpt lat="64.0173111" lon="-19.04622841"><ele>591.4</ele><time>2012-07-22T13:54:51.0000000+00:00</time></trkpt><trkpt lat="64.01721191" lon="-19.04633713"><ele>591.0</ele><time>2012-07-22T13:54:56.0000000+00:00</time></trkpt><trkpt lat="64.01712799" lon="-19.0464325"><ele>591.5</ele><time>2012-07-22T13:55:01.0000000+00:00</time></trkpt><trkpt lat="64.01704407" lon="-19.04652405"><ele>591.4</ele><time>2012-07-22T13:55:06.0000000+00:00</time></trkpt><trkpt lat="64.01698303" lon="-19.04658127"><ele>592.3</ele><time>2012-07-22T13:55:11.0000000+00:00</time></trkpt><trkpt lat="64.01694489" lon="-19.04662132"><ele>593.6</ele><time>2012-07-22T13:55:16.0000000+00:00</time></trkpt><trkpt lat="64.01689148" lon="-19.04666519"><ele>594.1</ele><time>2012-07-22T13:55:21.0000000+00:00</time></trkpt><trkpt lat="64.01683807" lon="-19.04670906"><ele>595.1</ele><time>2012-07-22T13:55:26.0000000+00:00</time></trkpt><trkpt lat="64.01682282" lon="-19.04672813"><ele>594.1</ele><time>2012-07-22T13:55:31.0000000+00:00</time></trkpt><trkpt lat="64.01682282" lon="-19.04672623"><ele>594.1</ele><time>2012-07-22T13:55:36.0000000+00:00</time></trkpt><trkpt lat="64.01679993" lon="-19.04675674"><ele>594.4</ele><time>2012-07-22T13:55:41.0000000+00:00</time></trkpt><trkpt lat="64.01676941" lon="-19.04676628"><ele>594.7</ele><time>2012-07-22T13:55:46.0000000+00:00</time></trkpt><trkpt lat="64.01673126" lon="-19.04679298"><ele>594.5</ele><time>2012-07-22T13:55:51.0000000+00:00</time></trkpt><trkpt lat="64.01668549" lon="-19.0468235"><ele>595.2</ele><time>2012-07-22T13:55:56.0000000+00:00</time></trkpt><trkpt lat="64.01663971" lon="-19.04685402"><ele>596.2</ele><time>2012-07-22T13:56:01.0000000+00:00</time></trkpt><trkpt lat="64.01659393" lon="-19.04686737"><ele>596.7</ele><time>2012-07-22T13:56:06.0000000+00:00</time></trkpt><trkpt lat="64.01654816" lon="-19.04688454"><ele>597.2</ele><time>2012-07-22T13:56:11.0000000+00:00</time></trkpt><trkpt lat="64.01650238" lon="-19.04690743"><ele>597.6</ele><time>2012-07-22T13:56:16.0000000+00:00</time></trkpt><trkpt lat="64.01644898" lon="-19.04691505"><ele>598.0</ele><time>2012-07-22T13:56:21.0000000+00:00</time></trkpt><trkpt lat="64.0164032" lon="-19.04691505"><ele>598.4</ele><time>2012-07-22T13:56:26.0000000+00:00</time></trkpt><trkpt lat="64.01635742" lon="-19.04691124"><ele>598.8</ele><time>2012-07-22T13:56:31.0000000+00:00</time></trkpt><trkpt lat="64.01630402" lon="-19.04690743"><ele>599.4</ele><time>2012-07-22T13:56:36.0000000+00:00</time></trkpt><trkpt lat="64.01625061" lon="-19.04690933"><ele>599.8</ele><time>2012-07-22T13:56:41.0000000+00:00</time></trkpt><trkpt lat="64.01619721" lon="-19.04692268"><ele>600.4</ele><time>2012-07-22T13:56:46.0000000+00:00</time></trkpt><trkpt lat="64.01615143" lon="-19.04691505"><ele>600.7</ele><time>2012-07-22T13:56:51.0000000+00:00</time></trkpt><trkpt lat="64.01609802" lon="-19.04688454"><ele>600.5</ele><time>2012-07-22T13:56:56.0000000+00:00</time></trkpt><trkpt lat="64.01605225" lon="-19.04687882"><ele>600.6</ele><time>2012-07-22T13:57:01.0000000+00:00</time></trkpt><trkpt lat="64.01600647" lon="-19.04686356"><ele>600.6</ele><time>2012-07-22T13:57:06.0000000+00:00</time></trkpt><trkpt lat="64.01596069" lon="-19.04684258"><ele>601.3</ele><time>2012-07-22T13:57:11.0000000+00:00</time></trkpt><trkpt lat="64.01591492" lon="-19.04683685"><ele>601.7</ele><time>2012-07-22T13:57:16.0000000+00:00</time></trkpt><trkpt lat="64.01586914" lon="-19.04680634"><ele>602.0</ele><time>2012-07-22T13:57:21.0000000+00:00</time></trkpt><trkpt lat="64.01581574" lon="-19.04676819"><ele>602.1</ele><time>2012-07-22T13:57:26.0000000+00:00</time></trkpt><trkpt lat="64.01577759" lon="-19.04672813"><ele>601.9</ele><time>2012-07-22T13:57:31.0000000+00:00</time></trkpt><trkpt lat="64.01573181" lon="-19.04668808"><ele>602.4</ele><time>2012-07-22T13:57:36.0000000+00:00</time></trkpt><trkpt lat="64.01570129" lon="-19.04666138"><ele>602.9</ele><time>2012-07-22T13:57:41.0000000+00:00</time></trkpt><trkpt lat="64.01567078" lon="-19.04663086"><ele>603.5</ele><time>2012-07-22T13:57:46.0000000+00:00</time></trkpt><trkpt lat="64.01565552" lon="-19.04663658"><ele>603.9</ele><time>2012-07-22T13:57:51.0000000+00:00</time></trkpt><trkpt lat="64.01565552" lon="-19.04663658"><ele>603.9</ele><time>2012-07-22T13:57:56.0000000+00:00</time></trkpt><trkpt lat="64.01564026" lon="-19.04662323"><ele>603.6</ele><time>2012-07-22T13:58:01.0000000+00:00</time></trkpt><trkpt lat="64.01559448" lon="-19.04657745"><ele>603.7</ele><time>2012-07-22T13:58:06.0000000+00:00</time></trkpt><trkpt lat="64.01555634" lon="-19.04653931"><ele>604.7</ele><time>2012-07-22T13:58:11.0000000+00:00</time></trkpt><trkpt lat="64.01551819" lon="-19.04649353"><ele>604.2</ele><time>2012-07-22T13:58:16.0000000+00:00</time></trkpt><trkpt lat="64.01548004" lon="-19.04644394"><ele>605.0</ele><time>2012-07-22T13:58:21.0000000+00:00</time></trkpt><trkpt lat="64.0154419" lon="-19.04639626"><ele>605.6</ele><time>2012-07-22T13:58:26.0000000+00:00</time></trkpt><trkpt lat="64.01541138" lon="-19.04636002"><ele>606.7</ele><time>2012-07-22T13:58:31.0000000+00:00</time></trkpt><trkpt lat="64.01537323" lon="-19.04631043"><ele>606.8</ele><time>2012-07-22T13:58:36.0000000+00:00</time></trkpt><trkpt lat="64.01534271" lon="-19.04628563"><ele>606.5</ele><time>2012-07-22T13:58:41.0000000+00:00</time></trkpt><trkpt lat="64.0153122" lon="-19.04626274"><ele>606.7</ele><time>2012-07-22T13:58:46.0000000+00:00</time></trkpt><trkpt lat="64.01528168" lon="-19.04623604"><ele>607.1</ele><time>2012-07-22T13:58:51.0000000+00:00</time></trkpt><trkpt lat="64.01525879" lon="-19.04620552"><ele>607.7</ele><time>2012-07-22T13:58:56.0000000+00:00</time></trkpt><trkpt lat="64.01522064" lon="-19.04618073"><ele>608.1</ele><time>2012-07-22T13:59:01.0000000+00:00</time></trkpt><trkpt lat="64.01519013" lon="-19.04615212"><ele>608.9</ele><time>2012-07-22T13:59:06.0000000+00:00</time></trkpt><trkpt lat="64.01515961" lon="-19.04612923"><ele>609.4</ele><time>2012-07-22T13:59:11.0000000+00:00</time></trkpt><trkpt lat="64.01512909" lon="-19.04610252"><ele>609.4</ele><time>2012-07-22T13:59:16.0000000+00:00</time></trkpt><trkpt lat="64.01508331" lon="-19.0460701"><ele>609.8</ele><time>2012-07-22T13:59:21.0000000+00:00</time></trkpt><trkpt lat="64.01504517" lon="-19.04604149"><ele>610.4</ele><time>2012-07-22T13:59:26.0000000+00:00</time></trkpt><trkpt lat="64.01501465" lon="-19.04600143"><ele>611.8</ele><time>2012-07-22T13:59:31.0000000+00:00</time></trkpt><trkpt lat="64.01496887" lon="-19.04596329"><ele>610.8</ele><time>2012-07-22T13:59:36.0000000+00:00</time></trkpt><trkpt lat="64.01493835" lon="-19.04595375"><ele>611.5</ele><time>2012-07-22T13:59:41.0000000+00:00</time></trkpt><trkpt lat="64.01490784" lon="-19.04593658"><ele>613.4</ele><time>2012-07-22T13:59:46.0000000+00:00</time></trkpt><trkpt lat="64.01489258" lon="-19.04594231"><ele>613.3</ele><time>2012-07-22T13:59:51.0000000+00:00</time></trkpt><trkpt lat="64.01486206" lon="-19.04594421"><ele>614.0</ele><time>2012-07-22T13:59:56.0000000+00:00</time></trkpt><trkpt lat="64.01483154" lon="-19.0459137"><ele>615.0</ele><time>2012-07-22T14:00:01.0000000+00:00</time></trkpt><trkpt lat="64.01483154" lon="-19.04590988"><ele>614.6</ele><time>2012-07-22T14:00:06.0000000+00:00</time></trkpt><trkpt lat="64.01483154" lon="-19.04589081"><ele>614.6</ele><time>2012-07-22T14:00:11.0000000+00:00</time></trkpt><trkpt lat="64.01480866" lon="-19.04589653"><ele>614.8</ele><time>2012-07-22T14:00:16.0000000+00:00</time></trkpt><trkpt lat="64.01477051" lon="-19.04589272"><ele>615.3</ele><time>2012-07-22T14:00:21.0000000+00:00</time></trkpt><trkpt lat="64.0147171" lon="-19.04588127"><ele>616.7</ele><time>2012-07-22T14:00:26.0000000+00:00</time></trkpt><trkpt lat="64.01467896" lon="-19.04586411"><ele>617.3</ele><time>2012-07-22T14:00:31.0000000+00:00</time></trkpt><trkpt lat="64.01463318" lon="-19.04584885"><ele>617.6</ele><time>2012-07-22T14:00:36.0000000+00:00</time></trkpt><trkpt lat="64.01460266" lon="-19.04584885"><ele>617.8</ele><time>2012-07-22T14:00:41.0000000+00:00</time></trkpt><trkpt lat="64.01457214" lon="-19.04584122"><ele>618.5</ele><time>2012-07-22T14:00:46.0000000+00:00</time></trkpt><trkpt lat="64.01457214" lon="-19.04584122"><ele>618.6</ele><time>2012-07-22T14:00:51.0000000+00:00</time></trkpt><trkpt lat="64.01456451" lon="-19.0458374"><ele>618.8</ele><time>2012-07-22T14:00:56.0000000+00:00</time></trkpt><trkpt lat="64.014534" lon="-19.04583931"><ele>619.4</ele><time>2012-07-22T14:01:01.0000000+00:00</time></trkpt><trkpt lat="64.01450348" lon="-19.0458355"><ele>620.1</ele><time>2012-07-22T14:01:06.0000000+00:00</time></trkpt><trkpt lat="64.01446533" lon="-19.04584503"><ele>621.1</ele><time>2012-07-22T14:01:11.0000000+00:00</time></trkpt><trkpt lat="64.01443481" lon="-19.04585838"><ele>621.4</ele><time>2012-07-22T14:01:16.0000000+00:00</time></trkpt><trkpt lat="64.01441956" lon="-19.04585075"><ele>622.1</ele><time>2012-07-22T14:01:21.0000000+00:00</time></trkpt><trkpt lat="64.01439667" lon="-19.04582024"><ele>622.6</ele><time>2012-07-22T14:01:26.0000000+00:00</time></trkpt><trkpt lat="64.0144043" lon="-19.04581642"><ele>622.7</ele><time>2012-07-22T14:01:31.0000000+00:00</time></trkpt><trkpt lat="64.0144043" lon="-19.04581642"><ele>622.7</ele><time>2012-07-22T14:01:36.0000000+00:00</time></trkpt><trkpt lat="64.01439667" lon="-19.04581451"><ele>622.9</ele><time>2012-07-22T14:01:41.0000000+00:00</time></trkpt><trkpt lat="64.01436615" lon="-19.04580116"><ele>624.0</ele><time>2012-07-22T14:01:46.0000000+00:00</time></trkpt><trkpt lat="64.01433563" lon="-19.0458107"><ele>624.3</ele><time>2012-07-22T14:01:51.0000000+00:00</time></trkpt><trkpt lat="64.01430512" lon="-19.04579544"><ele>625.3</ele><time>2012-07-22T14:01:56.0000000+00:00</time></trkpt><trkpt lat="64.01426697" lon="-19.0458107"><ele>625.6</ele><time>2012-07-22T14:02:01.0000000+00:00</time></trkpt><trkpt lat="64.01422119" lon="-19.04582024"><ele>625.9</ele><time>2012-07-22T14:02:06.0000000+00:00</time></trkpt><trkpt lat="64.01418304" lon="-19.0458374"><ele>626.0</ele><time>2012-07-22T14:02:11.0000000+00:00</time></trkpt><trkpt lat="64.01413727" lon="-19.0458355"><ele>626.2</ele><time>2012-07-22T14:02:16.0000000+00:00</time></trkpt><trkpt lat="64.01409149" lon="-19.04584885"><ele>626.2</ele><time>2012-07-22T14:02:21.0000000+00:00</time></trkpt><trkpt lat="64.01404572" lon="-19.04582214"><ele>625.9</ele><time>2012-07-22T14:02:26.0000000+00:00</time></trkpt><trkpt lat="64.01399231" lon="-19.04581642"><ele>626.1</ele><time>2012-07-22T14:02:31.0000000+00:00</time></trkpt><trkpt lat="64.0139389" lon="-19.04578972"><ele>626.3</ele><time>2012-07-22T14:02:36.0000000+00:00</time></trkpt><trkpt lat="64.01389313" lon="-19.04572487"><ele>625.8</ele><time>2012-07-22T14:02:41.0000000+00:00</time></trkpt><trkpt lat="64.01385498" lon="-19.04564858"><ele>625.3</ele><time>2012-07-22T14:02:46.0000000+00:00</time></trkpt><trkpt lat="64.01383972" lon="-19.04561997"><ele>624.8</ele><time>2012-07-22T14:02:51.0000000+00:00</time></trkpt><trkpt lat="64.01383209" lon="-19.04561997"><ele>624.7</ele><time>2012-07-22T14:02:56.0000000+00:00</time></trkpt><trkpt lat="64.01383209" lon="-19.04561997"><ele>624.7</ele><time>2012-07-22T14:03:01.0000000+00:00</time></trkpt><trkpt lat="64.01383209" lon="-19.04561997"><ele>624.6</ele><time>2012-07-22T14:03:06.0000000+00:00</time></trkpt><trkpt lat="64.01383209" lon="-19.04561997"><ele>624.6</ele><time>2012-07-22T14:03:11.0000000+00:00</time></trkpt><trkpt lat="64.01383209" lon="-19.04562187"><ele>624.6</ele><time>2012-07-22T14:03:16.0000000+00:00</time></trkpt><trkpt lat="64.01383209" lon="-19.04562187"><ele>624.6</ele><time>2012-07-22T14:03:21.0000000+00:00</time></trkpt><trkpt lat="64.01383209" lon="-19.04562187"><ele>624.6</ele><time>2012-07-22T14:03:26.0000000+00:00</time></trkpt><trkpt lat="64.01383209" lon="-19.04562187"><ele>624.6</ele><time>2012-07-22T14:03:31.0000000+00:00</time></trkpt><trkpt lat="64.01383209" lon="-19.04561997"><ele>624.5</ele><time>2012-07-22T14:03:36.0000000+00:00</time></trkpt><trkpt lat="64.01383209" lon="-19.04561997"><ele>624.5</ele><time>2012-07-22T14:03:41.0000000+00:00</time></trkpt><trkpt lat="64.01383209" lon="-19.04561997"><ele>624.5</ele><time>2012-07-22T14:03:46.0000000+00:00</time></trkpt><trkpt lat="64.01383209" lon="-19.04561997"><ele>624.5</ele><time>2012-07-22T14:03:51.0000000+00:00</time></trkpt><trkpt lat="64.01383209" lon="-19.04561997"><ele>624.5</ele><time>2012-07-22T14:03:56.0000000+00:00</time></trkpt><trkpt lat="64.01383209" lon="-19.04561997"><ele>624.5</ele><time>2012-07-22T14:04:01.0000000+00:00</time></trkpt><trkpt lat="64.01382446" lon="-19.04557037"><ele>624.6</ele><time>2012-07-22T14:04:06.0000000+00:00</time></trkpt><trkpt lat="64.01382446" lon="-19.04554939"><ele>624.4</ele><time>2012-07-22T14:04:11.0000000+00:00</time></trkpt><trkpt lat="64.01382446" lon="-19.04554939"><ele>624.4</ele><time>2012-07-22T14:04:16.0000000+00:00</time></trkpt><trkpt lat="64.01382446" lon="-19.04554939"><ele>624.3</ele><time>2012-07-22T14:04:21.0000000+00:00</time></trkpt><trkpt lat="64.01382446" lon="-19.04554749"><ele>624.3</ele><time>2012-07-22T14:04:26.0000000+00:00</time></trkpt><trkpt lat="64.01382446" lon="-19.04554749"><ele>624.3</ele><time>2012-07-22T14:04:31.0000000+00:00</time></trkpt><trkpt lat="64.01382446" lon="-19.04554749"><ele>624.3</ele><time>2012-07-22T14:04:36.0000000+00:00</time></trkpt><trkpt lat="64.01382446" lon="-19.04554749"><ele>624.3</ele><time>2012-07-22T14:04:41.0000000+00:00</time></trkpt><trkpt lat="64.01382446" lon="-19.04554749"><ele>624.3</ele><time>2012-07-22T14:04:46.0000000+00:00</time></trkpt><trkpt lat="64.01382446" lon="-19.04554749"><ele>624.3</ele><time>2012-07-22T14:04:51.0000000+00:00</time></trkpt><trkpt lat="64.01382446" lon="-19.04554749"><ele>624.3</ele><time>2012-07-22T14:04:56.0000000+00:00</time></trkpt><trkpt lat="64.01382446" lon="-19.04554749"><ele>624.3</ele><time>2012-07-22T14:05:01.0000000+00:00</time></trkpt><trkpt lat="64.01382446" lon="-19.04554749"><ele>624.3</ele><time>2012-07-22T14:05:06.0000000+00:00</time></trkpt><trkpt lat="64.01381683" lon="-19.04553032"><ele>624.0</ele><time>2012-07-22T14:05:11.0000000+00:00</time></trkpt><trkpt lat="64.01383209" lon="-19.04555321"><ele>624.5</ele><time>2012-07-22T14:05:16.0000000+00:00</time></trkpt><trkpt lat="64.01383972" lon="-19.0456543"><ele>624.2</ele><time>2012-07-22T14:05:21.0000000+00:00</time></trkpt><trkpt lat="64.01385498" lon="-19.04574204"><ele>624.0</ele><time>2012-07-22T14:05:26.0000000+00:00</time></trkpt><trkpt lat="64.01384735" lon="-19.04574204"><ele>623.4</ele><time>2012-07-22T14:05:31.0000000+00:00</time></trkpt><trkpt lat="64.01384735" lon="-19.04574204"><ele>623.4</ele><time>2012-07-22T14:05:36.0000000+00:00</time></trkpt><trkpt lat="64.01383209" lon="-19.04572678"><ele>623.6</ele><time>2012-07-22T14:05:41.0000000+00:00</time></trkpt><trkpt lat="64.01381683" lon="-19.045681"><ele>623.4</ele><time>2012-07-22T14:05:46.0000000+00:00</time></trkpt><trkpt lat="64.01381683" lon="-19.04567337"><ele>623.6</ele><time>2012-07-22T14:05:51.0000000+00:00</time></trkpt><trkpt lat="64.01381683" lon="-19.04567337"><ele>623.5</ele><time>2012-07-22T14:05:56.0000000+00:00</time></trkpt><trkpt lat="64.01381683" lon="-19.04567146"><ele>623.5</ele><time>2012-07-22T14:06:01.0000000+00:00</time></trkpt><trkpt lat="64.01383209" lon="-19.04551315"><ele>622.2</ele><time>2012-07-22T14:06:06.0000000+00:00</time></trkpt><trkpt lat="64.01395416" lon="-19.0452137"><ele>618.3</ele><time>2012-07-22T14:06:11.0000000+00:00</time></trkpt><trkpt lat="64.01410675" lon="-19.04492569"><ele>614.6</ele><time>2012-07-22T14:06:16.0000000+00:00</time></trkpt><trkpt lat="64.0141983" lon="-19.044487"><ele>611.1</ele><time>2012-07-22T14:06:21.0000000+00:00</time></trkpt><trkpt lat="64.01416779" lon="-19.04389763"><ele>607.2</ele><time>2012-07-22T14:06:26.0000000+00:00</time></trkpt><trkpt lat="64.01398468" lon="-19.04343414"><ele>605.8</ele><time>2012-07-22T14:06:31.0000000+00:00</time></trkpt><trkpt lat="64.01378632" lon="-19.04317093"><ele>604.2</ele><time>2012-07-22T14:06:36.0000000+00:00</time></trkpt><trkpt lat="64.01348114" lon="-19.0429306"><ele>604.5</ele><time>2012-07-22T14:06:41.0000000+00:00</time></trkpt><trkpt lat="64.01324463" lon="-19.04269028"><ele>607.0</ele><time>2012-07-22T14:06:46.0000000+00:00</time></trkpt><trkpt lat="64.01313782" lon="-19.04262543"><ele>609.2</ele><time>2012-07-22T14:06:51.0000000+00:00</time></trkpt><trkpt lat="64.01311493" lon="-19.04259682"><ele>609.5</ele><time>2012-07-22T14:06:56.0000000+00:00</time></trkpt><trkpt lat="64.01309967" lon="-19.04259682"><ele>610.2</ele><time>2012-07-22T14:07:01.0000000+00:00</time></trkpt><trkpt lat="64.01306915" lon="-19.04258156"><ele>610.9</ele><time>2012-07-22T14:07:06.0000000+00:00</time></trkpt><trkpt lat="64.01303864" lon="-19.04255295"><ele>611.0</ele><time>2012-07-22T14:07:11.0000000+00:00</time></trkpt><trkpt lat="64.01300812" lon="-19.04253197"><ele>610.8</ele><time>2012-07-22T14:07:16.0000000+00:00</time></trkpt><trkpt lat="64.0129776" lon="-19.04252625"><ele>611.2</ele><time>2012-07-22T14:07:21.0000000+00:00</time></trkpt><trkpt lat="64.01296234" lon="-19.04252625"><ele>611.5</ele><time>2012-07-22T14:07:26.0000000+00:00</time></trkpt><trkpt lat="64.01294708" lon="-19.04250336"><ele>611.5</ele><time>2012-07-22T14:07:31.0000000+00:00</time></trkpt><trkpt lat="64.01291657" lon="-19.0424881"><ele>611.9</ele><time>2012-07-22T14:07:36.0000000+00:00</time></trkpt><trkpt lat="64.01287842" lon="-19.04247665"><ele>612.1</ele><time>2012-07-22T14:07:41.0000000+00:00</time></trkpt><trkpt lat="64.01282501" lon="-19.04246712"><ele>611.9</ele><time>2012-07-22T14:07:46.0000000+00:00</time></trkpt><trkpt lat="64.01277924" lon="-19.04247665"><ele>611.9</ele><time>2012-07-22T14:07:51.0000000+00:00</time></trkpt><trkpt lat="64.01274872" lon="-19.04248047"><ele>612.8</ele><time>2012-07-22T14:07:56.0000000+00:00</time></trkpt><trkpt lat="64.01270294" lon="-19.04247665"><ele>612.3</ele><time>2012-07-22T14:08:01.0000000+00:00</time></trkpt><trkpt lat="64.01265717" lon="-19.04246521"><ele>612.7</ele><time>2012-07-22T14:08:06.0000000+00:00</time></trkpt><trkpt lat="64.01260376" lon="-19.04242706"><ele>612.7</ele><time>2012-07-22T14:08:11.0000000+00:00</time></trkpt><trkpt lat="64.01255035" lon="-19.04237366"><ele>611.8</ele><time>2012-07-22T14:08:16.0000000+00:00</time></trkpt><trkpt lat="64.01252747" lon="-19.04234123"><ele>610.8</ele><time>2012-07-22T14:08:21.0000000+00:00</time></trkpt><trkpt lat="64.01251984" lon="-19.04232407"><ele>610.5</ele><time>2012-07-22T14:08:26.0000000+00:00</time></trkpt><trkpt lat="64.01250458" lon="-19.04229546"><ele>609.9</ele><time>2012-07-22T14:08:31.0000000+00:00</time></trkpt><trkpt lat="64.01248169" lon="-19.04222298"><ele>608.9</ele><time>2012-07-22T14:08:36.0000000+00:00</time></trkpt><trkpt lat="64.01242828" lon="-19.04210091"><ele>607.6</ele><time>2012-07-22T14:08:41.0000000+00:00</time></trkpt><trkpt lat="64.01236725" lon="-19.04195786"><ele>605.5</ele><time>2012-07-22T14:08:46.0000000+00:00</time></trkpt><trkpt lat="64.01236725" lon="-19.04195023"><ele>605.2</ele><time>2012-07-22T14:08:51.0000000+00:00</time></trkpt><trkpt lat="64.01236725" lon="-19.04195023"><ele>605.1</ele><time>2012-07-22T14:08:56.0000000+00:00</time></trkpt><trkpt lat="64.01236725" lon="-19.04195023"><ele>605.1</ele><time>2012-07-22T14:09:01.0000000+00:00</time></trkpt><trkpt lat="64.01236725" lon="-19.04195023"><ele>605.1</ele><time>2012-07-22T14:09:06.0000000+00:00</time></trkpt><trkpt lat="64.01236725" lon="-19.04195023"><ele>605.1</ele><time>2012-07-22T14:09:11.0000000+00:00</time></trkpt><trkpt lat="64.01236725" lon="-19.04195023"><ele>605.1</ele><time>2012-07-22T14:09:16.0000000+00:00</time></trkpt><trkpt lat="64.01236725" lon="-19.04195023"><ele>605.1</ele><time>2012-07-22T14:09:21.0000000+00:00</time></trkpt><trkpt lat="64.01236725" lon="-19.04195023"><ele>605.1</ele><time>2012-07-22T14:09:26.0000000+00:00</time></trkpt><trkpt lat="64.01236725" lon="-19.04195023"><ele>605.1</ele><time>2012-07-22T14:09:31.0000000+00:00</time></trkpt><trkpt lat="64.01236725" lon="-19.04195023"><ele>605.1</ele><time>2012-07-22T14:09:36.0000000+00:00</time></trkpt><trkpt lat="64.01236725" lon="-19.04195023"><ele>605.1</ele><time>2012-07-22T14:09:41.0000000+00:00</time></trkpt><trkpt lat="64.01236725" lon="-19.04195213"><ele>605.1</ele><time>2012-07-22T14:09:46.0000000+00:00</time></trkpt><trkpt lat="64.01236725" lon="-19.04195213"><ele>605.1</ele><time>2012-07-22T14:09:51.0000000+00:00</time></trkpt><trkpt lat="64.01230621" lon="-19.04181099"><ele>605.1</ele><time>2012-07-22T14:09:56.0000000+00:00</time></trkpt><trkpt lat="64.01211548" lon="-19.04156494"><ele>604.6</ele><time>2012-07-22T14:10:01.0000000+00:00</time></trkpt><trkpt lat="64.01191711" lon="-19.0413723"><ele>605.3</ele><time>2012-07-22T14:10:06.0000000+00:00</time></trkpt><trkpt lat="64.01172638" lon="-19.04131889"><ele>605.0</ele><time>2012-07-22T14:10:11.0000000+00:00</time></trkpt><trkpt lat="64.01158142" lon="-19.04133225"><ele>604.9</ele><time>2012-07-22T14:10:16.0000000+00:00</time></trkpt><trkpt lat="64.01142883" lon="-19.04133987"><ele>603.6</ele><time>2012-07-22T14:10:21.0000000+00:00</time></trkpt><trkpt lat="64.01128388" lon="-19.04136276"><ele>602.8</ele><time>2012-07-22T14:10:26.0000000+00:00</time></trkpt><trkpt lat="64.01113892" lon="-19.04136276"><ele>602.1</ele><time>2012-07-22T14:10:31.0000000+00:00</time></trkpt><trkpt lat="64.01099396" lon="-19.0413456"><ele>601.4</ele><time>2012-07-22T14:10:36.0000000+00:00</time></trkpt><trkpt lat="64.01082611" lon="-19.04141617"><ele>600.5</ele><time>2012-07-22T14:10:41.0000000+00:00</time></trkpt><trkpt lat="64.01064301" lon="-19.04151344"><ele>599.9</ele><time>2012-07-22T14:10:46.0000000+00:00</time></trkpt><trkpt lat="64.01049805" lon="-19.04156303"><ele>598.8</ele><time>2012-07-22T14:10:51.0000000+00:00</time></trkpt><trkpt lat="64.01036835" lon="-19.04165268"><ele>598.4</ele><time>2012-07-22T14:10:56.0000000+00:00</time></trkpt><trkpt lat="64.01023865" lon="-19.04176712"><ele>597.9</ele><time>2012-07-22T14:11:01.0000000+00:00</time></trkpt><trkpt lat="64.01009369" lon="-19.04192352"><ele>594.3</ele><time>2012-07-22T14:11:06.0000000+00:00</time></trkpt><trkpt lat="64.00992584" lon="-19.0420475"><ele>593.0</ele><time>2012-07-22T14:11:11.0000000+00:00</time></trkpt><trkpt lat="64.00973511" lon="-19.0420475"><ele>592.7</ele><time>2012-07-22T14:11:16.0000000+00:00</time></trkpt><trkpt lat="64.00959015" lon="-19.0420475"><ele>595.1</ele><time>2012-07-22T14:11:21.0000000+00:00</time></trkpt><trkpt lat="64.00946045" lon="-19.04201126"><ele>597.4</ele><time>2012-07-22T14:11:26.0000000+00:00</time></trkpt><trkpt lat="64.00928497" lon="-19.041996"><ele>597.9</ele><time>2012-07-22T14:11:31.0000000+00:00</time></trkpt><trkpt lat="64.00911713" lon="-19.04195786"><ele>597.5</ele><time>2012-07-22T14:11:36.0000000+00:00</time></trkpt><trkpt lat="64.00895691" lon="-19.04201317"><ele>596.8</ele><time>2012-07-22T14:11:41.0000000+00:00</time></trkpt><trkpt lat="64.00879669" lon="-19.04209709"><ele>596.0</ele><time>2012-07-22T14:11:46.0000000+00:00</time></trkpt><trkpt lat="64.00865936" lon="-19.04219246"><ele>595.8</ele><time>2012-07-22T14:11:51.0000000+00:00</time></trkpt><trkpt lat="64.00850678" lon="-19.04219055"><ele>595.8</ele><time>2012-07-22T14:11:56.0000000+00:00</time></trkpt><trkpt lat="64.00835419" lon="-19.04208756"><ele>596.2</ele><time>2012-07-22T14:12:01.0000000+00:00</time></trkpt><trkpt lat="64.0082016" lon="-19.04200554"><ele>596.0</ele><time>2012-07-22T14:12:06.0000000+00:00</time></trkpt><trkpt lat="64.00804901" lon="-19.04193497"><ele>596.0</ele><time>2012-07-22T14:12:11.0000000+00:00</time></trkpt><trkpt lat="64.00790405" lon="-19.04190254"><ele>597.0</ele><time>2012-07-22T14:12:16.0000000+00:00</time></trkpt><trkpt lat="64.00774384" lon="-19.04185104"><ele>598.0</ele><time>2012-07-22T14:12:21.0000000+00:00</time></trkpt><trkpt lat="64.00758362" lon="-19.04176521"><ele>598.8</ele><time>2012-07-22T14:12:26.0000000+00:00</time></trkpt><trkpt lat="64.00741577" lon="-19.04162598"><ele>599.1</ele><time>2012-07-22T14:12:31.0000000+00:00</time></trkpt><trkpt lat="64.00725555" lon="-19.0414505"><ele>599.4</ele><time>2012-07-22T14:12:36.0000000+00:00</time></trkpt><trkpt lat="64.0071106" lon="-19.04123688"><ele>600.2</ele><time>2012-07-22T14:12:41.0000000+00:00</time></trkpt><trkpt lat="64.00695038" lon="-19.04101944"><ele>600.1</ele><time>2012-07-22T14:12:46.0000000+00:00</time></trkpt><trkpt lat="64.00679016" lon="-19.04069519"><ele>597.6</ele><time>2012-07-22T14:12:51.0000000+00:00</time></trkpt><trkpt lat="64.00666809" lon="-19.04030609"><ele>596.4</ele><time>2012-07-22T14:12:56.0000000+00:00</time></trkpt><trkpt lat="64.0065918" lon="-19.03996086"><ele>596.2</ele><time>2012-07-22T14:13:01.0000000+00:00</time></trkpt><trkpt lat="64.00648499" lon="-19.03963852"><ele>595.4</ele><time>2012-07-22T14:13:06.0000000+00:00</time></trkpt><trkpt lat="64.00637054" lon="-19.03931046"><ele>594.9</ele><time>2012-07-22T14:13:11.0000000+00:00</time></trkpt><trkpt lat="64.00627136" lon="-19.03902245"><ele>596.0</ele><time>2012-07-22T14:13:16.0000000+00:00</time></trkpt><trkpt lat="64.00616455" lon="-19.03880882"><ele>597.8</ele><time>2012-07-22T14:13:21.0000000+00:00</time></trkpt><trkpt lat="64.00605774" lon="-19.03847504"><ele>596.8</ele><time>2012-07-22T14:13:26.0000000+00:00</time></trkpt><trkpt lat="64.00596619" lon="-19.0380764"><ele>596.4</ele><time>2012-07-22T14:13:31.0000000+00:00</time></trkpt><trkpt lat="64.00588989" lon="-19.03769112"><ele>596.7</ele><time>2012-07-22T14:13:36.0000000+00:00</time></trkpt><trkpt lat="64.00579834" lon="-19.03733444"><ele>597.4</ele><time>2012-07-22T14:13:41.0000000+00:00</time></trkpt><trkpt lat="64.00570679" lon="-19.03702545"><ele>598.7</ele><time>2012-07-22T14:13:46.0000000+00:00</time></trkpt><trkpt lat="64.00562286" lon="-19.03668404"><ele>599.5</ele><time>2012-07-22T14:13:51.0000000+00:00</time></trkpt><trkpt lat="64.00547028" lon="-19.03647804"><ele>598.8</ele><time>2012-07-22T14:13:56.0000000+00:00</time></trkpt><trkpt lat="64.00527954" lon="-19.03636932"><ele>595.9</ele><time>2012-07-22T14:14:01.0000000+00:00</time></trkpt><trkpt lat="64.00505829" lon="-19.03627586"><ele>592.2</ele><time>2012-07-22T14:14:06.0000000+00:00</time></trkpt><trkpt lat="64.00487518" lon="-19.03615379"><ele>591.5</ele><time>2012-07-22T14:14:11.0000000+00:00</time></trkpt><trkpt lat="64.00482178" lon="-19.03616715"><ele>590.3</ele><time>2012-07-22T14:14:16.0000000+00:00</time></trkpt><trkpt lat="64.00482178" lon="-19.03617096"><ele>590.6</ele><time>2012-07-22T14:14:21.0000000+00:00</time></trkpt><trkpt lat="64.00482178" lon="-19.03617096"><ele>590.6</ele><time>2012-07-22T14:14:26.0000000+00:00</time></trkpt><trkpt lat="64.00482178" lon="-19.03617096"><ele>590.6</ele><time>2012-07-22T14:14:31.0000000+00:00</time></trkpt><trkpt lat="64.00482178" lon="-19.03617096"><ele>590.5</ele><time>2012-07-22T14:14:36.0000000+00:00</time></trkpt><trkpt lat="64.00476837" lon="-19.03623772"><ele>589.6</ele><time>2012-07-22T14:14:41.0000000+00:00</time></trkpt><trkpt lat="64.00470734" lon="-19.03632164"><ele>589.0</ele><time>2012-07-22T14:14:46.0000000+00:00</time></trkpt><trkpt lat="64.00462341" lon="-19.03649902"><ele>588.0</ele><time>2012-07-22T14:14:51.0000000+00:00</time></trkpt><trkpt lat="64.00453186" lon="-19.03672981"><ele>586.9</ele><time>2012-07-22T14:14:56.0000000+00:00</time></trkpt><trkpt lat="64.00444031" lon="-19.03697205"><ele>585.8</ele><time>2012-07-22T14:15:01.0000000+00:00</time></trkpt><trkpt lat="64.00434876" lon="-19.03724289"><ele>586.1</ele><time>2012-07-22T14:15:06.0000000+00:00</time></trkpt><trkpt lat="64.00423431" lon="-19.03750992"><ele>586.4</ele><time>2012-07-22T14:15:11.0000000+00:00</time></trkpt><trkpt lat="64.0041275" lon="-19.03777313"><ele>586.4</ele><time>2012-07-22T14:15:16.0000000+00:00</time></trkpt><trkpt lat="64.00400543" lon="-19.03803825"><ele>586.4</ele><time>2012-07-22T14:15:21.0000000+00:00</time></trkpt><trkpt lat="64.00388336" lon="-19.0383091"><ele>586.8</ele><time>2012-07-22T14:15:26.0000000+00:00</time></trkpt><trkpt lat="64.00376892" lon="-19.03854752"><ele>586.8</ele><time>2012-07-22T14:15:31.0000000+00:00</time></trkpt><trkpt lat="64.00366211" lon="-19.03875923"><ele>586.7</ele><time>2012-07-22T14:15:36.0000000+00:00</time></trkpt><trkpt lat="64.00357056" lon="-19.03896332"><ele>586.3</ele><time>2012-07-22T14:15:41.0000000+00:00</time></trkpt><trkpt lat="64.003479" lon="-19.03918266"><ele>585.8</ele><time>2012-07-22T14:15:46.0000000+00:00</time></trkpt><trkpt lat="64.00340271" lon="-19.03940201"><ele>586.2</ele><time>2012-07-22T14:15:51.0000000+00:00</time></trkpt><trkpt lat="64.00331879" lon="-19.03965187"><ele>586.0</ele><time>2012-07-22T14:15:56.0000000+00:00</time></trkpt><trkpt lat="64.0032196" lon="-19.03993225"><ele>586.0</ele><time>2012-07-22T14:16:01.0000000+00:00</time></trkpt><trkpt lat="64.00312042" lon="-19.04021835"><ele>586.3</ele><time>2012-07-22T14:16:06.0000000+00:00</time></trkpt><trkpt lat="64.00302124" lon="-19.04049873"><ele>586.4</ele><time>2012-07-22T14:16:11.0000000+00:00</time></trkpt><trkpt lat="64.00291443" lon="-19.04076195"><ele>586.5</ele><time>2012-07-22T14:16:16.0000000+00:00</time></trkpt><trkpt lat="64.00280762" lon="-19.04104996"><ele>586.6</ele><time>2012-07-22T14:16:21.0000000+00:00</time></trkpt><trkpt lat="64.00270081" lon="-19.04134178"><ele>586.6</ele><time>2012-07-22T14:16:26.0000000+00:00</time></trkpt><trkpt lat="64.00259399" lon="-19.04162407"><ele>586.8</ele><time>2012-07-22T14:16:31.0000000+00:00</time></trkpt><trkpt lat="64.00249481" lon="-19.04191589"><ele>587.9</ele><time>2012-07-22T14:16:36.0000000+00:00</time></trkpt><trkpt lat="64.00238037" lon="-19.04219246"><ele>588.3</ele><time>2012-07-22T14:16:41.0000000+00:00</time></trkpt><trkpt lat="64.00229645" lon="-19.04250526"><ele>588.0</ele><time>2012-07-22T14:16:46.0000000+00:00</time></trkpt><trkpt lat="64.00224304" lon="-19.0428524"><ele>586.7</ele><time>2012-07-22T14:16:51.0000000+00:00</time></trkpt><trkpt lat="64.00223541" lon="-19.04314613"><ele>585.8</ele><time>2012-07-22T14:16:56.0000000+00:00</time></trkpt><trkpt lat="64.00222015" lon="-19.04331207"><ele>586.6</ele><time>2012-07-22T14:17:01.0000000+00:00</time></trkpt><trkpt lat="64.0022049" lon="-19.04349327"><ele>587.0</ele><time>2012-07-22T14:17:06.0000000+00:00</time></trkpt><trkpt lat="64.00218201" lon="-19.04366303"><ele>586.7</ele><time>2012-07-22T14:17:11.0000000+00:00</time></trkpt><trkpt lat="64.00217438" lon="-19.04383659"><ele>587.8</ele><time>2012-07-22T14:17:16.0000000+00:00</time></trkpt><trkpt lat="64.00215149" lon="-19.04400444"><ele>588.4</ele><time>2012-07-22T14:17:21.0000000+00:00</time></trkpt><trkpt lat="64.0021286" lon="-19.04415512"><ele>589.0</ele><time>2012-07-22T14:17:26.0000000+00:00</time></trkpt><trkpt lat="64.00211334" lon="-19.0442791"><ele>589.4</ele><time>2012-07-22T14:17:31.0000000+00:00</time></trkpt><trkpt lat="64.00209045" lon="-19.04442406"><ele>589.7</ele><time>2012-07-22T14:17:36.0000000+00:00</time></trkpt><trkpt lat="64.00205994" lon="-19.04462051"><ele>589.9</ele><time>2012-07-22T14:17:41.0000000+00:00</time></trkpt><trkpt lat="64.00202942" lon="-19.04480934"><ele>590.8</ele><time>2012-07-22T14:17:46.0000000+00:00</time></trkpt><trkpt lat="64.00200653" lon="-19.04499245"><ele>591.1</ele><time>2012-07-22T14:17:51.0000000+00:00</time></trkpt><trkpt lat="64.00196838" lon="-19.04522133"><ele>591.1</ele><time>2012-07-22T14:17:56.0000000+00:00</time></trkpt><trkpt lat="64.00191498" lon="-19.04546547"><ele>590.4</ele><time>2012-07-22T14:18:01.0000000+00:00</time></trkpt><trkpt lat="64.00189209" lon="-19.04574776"><ele>591.7</ele><time>2012-07-22T14:18:06.0000000+00:00</time></trkpt><trkpt lat="64.00183868" lon="-19.04602623"><ele>591.4</ele><time>2012-07-22T14:18:11.0000000+00:00</time></trkpt><trkpt lat="64.00178528" lon="-19.04628563"><ele>591.5</ele><time>2012-07-22T14:18:16.0000000+00:00</time></trkpt><trkpt lat="64.00173187" lon="-19.0465374"><ele>592.2</ele><time>2012-07-22T14:18:21.0000000+00:00</time></trkpt><trkpt lat="64.00170136" lon="-19.04673004"><ele>592.6</ele><time>2012-07-22T14:18:26.0000000+00:00</time></trkpt><trkpt lat="64.00169373" lon="-19.046875"><ele>591.9</ele><time>2012-07-22T14:18:31.0000000+00:00</time></trkpt><trkpt lat="64.00165558" lon="-19.04706001"><ele>592.4</ele><time>2012-07-22T14:18:36.0000000+00:00</time></trkpt><trkpt lat="64.00163269" lon="-19.04725838"><ele>593.7</ele><time>2012-07-22T14:18:41.0000000+00:00</time></trkpt><trkpt lat="64.0016098" lon="-19.04748344"><ele>595.6</ele><time>2012-07-22T14:18:46.0000000+00:00</time></trkpt><trkpt lat="64.00157166" lon="-19.04771042"><ele>595.3</ele><time>2012-07-22T14:18:51.0000000+00:00</time></trkpt><trkpt lat="64.00153351" lon="-19.04794693"><ele>594.7</ele><time>2012-07-22T14:18:56.0000000+00:00</time></trkpt><trkpt lat="64.00149536" lon="-19.04817963"><ele>594.2</ele><time>2012-07-22T14:19:01.0000000+00:00</time></trkpt><trkpt lat="64.00144959" lon="-19.0484066"><ele>596.1</ele><time>2012-07-22T14:19:06.0000000+00:00</time></trkpt><trkpt lat="64.00139618" lon="-19.04863167"><ele>595.6</ele><time>2012-07-22T14:19:11.0000000+00:00</time></trkpt><trkpt lat="64.00134277" lon="-19.04887962"><ele>595.8</ele><time>2012-07-22T14:19:16.0000000+00:00</time></trkpt><trkpt lat="64.00126648" lon="-19.04920769"><ele>594.8</ele><time>2012-07-22T14:19:21.0000000+00:00</time></trkpt><trkpt lat="64.00118256" lon="-19.04947472"><ele>593.4</ele><time>2012-07-22T14:19:26.0000000+00:00</time></trkpt><trkpt lat="64.00109863" lon="-19.04966545"><ele>592.2</ele><time>2012-07-22T14:19:31.0000000+00:00</time></trkpt><trkpt lat="64.00097656" lon="-19.04982376"><ele>589.1</ele><time>2012-07-22T14:19:36.0000000+00:00</time></trkpt><trkpt lat="64.00086212" lon="-19.04996491"><ele>589.5</ele><time>2012-07-22T14:19:41.0000000+00:00</time></trkpt><trkpt lat="64.00074768" lon="-19.05014229"><ele>590.0</ele><time>2012-07-22T14:19:46.0000000+00:00</time></trkpt><trkpt lat="64.00061798" lon="-19.05034065"><ele>590.3</ele><time>2012-07-22T14:19:51.0000000+00:00</time></trkpt><trkpt lat="64.00048828" lon="-19.05050087"><ele>590.5</ele><time>2012-07-22T14:19:56.0000000+00:00</time></trkpt><trkpt lat="64.00038147" lon="-19.05060387"><ele>591.1</ele><time>2012-07-22T14:20:01.0000000+00:00</time></trkpt><trkpt lat="64.00025177" lon="-19.05069923"><ele>590.7</ele><time>2012-07-22T14:20:06.0000000+00:00</time></trkpt><trkpt lat="64.00011444" lon="-19.05080605"><ele>590.1</ele><time>2012-07-22T14:20:11.0000000+00:00</time></trkpt><trkpt lat="63.9999733" lon="-19.05089188"><ele>589.6</ele><time>2012-07-22T14:20:16.0000000+00:00</time></trkpt><trkpt lat="63.99983215" lon="-19.05099678"><ele>589.0</ele><time>2012-07-22T14:20:21.0000000+00:00</time></trkpt><trkpt lat="63.99970245" lon="-19.05109596"><ele>588.6</ele><time>2012-07-22T14:20:26.0000000+00:00</time></trkpt><trkpt lat="63.99957657" lon="-19.05116463"><ele>588.6</ele><time>2012-07-22T14:20:31.0000000+00:00</time></trkpt><trkpt lat="63.9994545" lon="-19.05123138"><ele>589.7</ele><time>2012-07-22T14:20:36.0000000+00:00</time></trkpt><trkpt lat="63.99932861" lon="-19.05124092"><ele>590.1</ele><time>2012-07-22T14:20:41.0000000+00:00</time></trkpt><trkpt lat="63.9991684" lon="-19.05120087"><ele>590.4</ele><time>2012-07-22T14:20:46.0000000+00:00</time></trkpt><trkpt lat="63.99900436" lon="-19.05106926"><ele>589.0</ele><time>2012-07-22T14:20:51.0000000+00:00</time></trkpt><trkpt lat="63.99881744" lon="-19.05095863"><ele>589.0</ele><time>2012-07-22T14:20:56.0000000+00:00</time></trkpt><trkpt lat="63.9986496" lon="-19.05101013"><ele>590.6</ele><time>2012-07-22T14:21:01.0000000+00:00</time></trkpt><trkpt lat="63.99852753" lon="-19.05109978"><ele>588.6</ele><time>2012-07-22T14:21:06.0000000+00:00</time></trkpt><trkpt lat="63.99839401" lon="-19.05116463"><ele>588.1</ele><time>2012-07-22T14:21:11.0000000+00:00</time></trkpt><trkpt lat="63.99822617" lon="-19.05134583"><ele>588.1</ele><time>2012-07-22T14:21:16.0000000+00:00</time></trkpt><trkpt lat="63.99808502" lon="-19.05150414"><ele>588.0</ele><time>2012-07-22T14:21:21.0000000+00:00</time></trkpt><trkpt lat="63.99798966" lon="-19.05161285"><ele>587.8</ele><time>2012-07-22T14:21:26.0000000+00:00</time></trkpt><trkpt lat="63.99792099" lon="-19.05177116"><ele>587.9</ele><time>2012-07-22T14:21:31.0000000+00:00</time></trkpt><trkpt lat="63.99785233" lon="-19.05193901"><ele>589.1</ele><time>2012-07-22T14:21:36.0000000+00:00</time></trkpt><trkpt lat="63.99781799" lon="-19.05210114"><ele>588.9</ele><time>2012-07-22T14:21:41.0000000+00:00</time></trkpt><trkpt lat="63.99779511" lon="-19.05226326"><ele>588.0</ele><time>2012-07-22T14:21:46.0000000+00:00</time></trkpt><trkpt lat="63.9977684" lon="-19.05239296"><ele>588.1</ele><time>2012-07-22T14:21:51.0000000+00:00</time></trkpt><trkpt lat="63.99773407" lon="-19.05252838"><ele>587.8</ele><time>2012-07-22T14:21:56.0000000+00:00</time></trkpt><trkpt lat="63.99769974" lon="-19.05272865"><ele>589.5</ele><time>2012-07-22T14:22:01.0000000+00:00</time></trkpt><trkpt lat="63.99767304" lon="-19.05292511"><ele>591.5</ele><time>2012-07-22T14:22:06.0000000+00:00</time></trkpt><trkpt lat="63.99763107" lon="-19.05311585"><ele>592.0</ele><time>2012-07-22T14:22:11.0000000+00:00</time></trkpt><trkpt lat="63.99756622" lon="-19.0533123"><ele>591.7</ele><time>2012-07-22T14:22:16.0000000+00:00</time></trkpt><trkpt lat="63.99751282" lon="-19.053545"><ele>591.9</ele><time>2012-07-22T14:22:21.0000000+00:00</time></trkpt><trkpt lat="63.99746323" lon="-19.05378151"><ele>592.3</ele><time>2012-07-22T14:22:26.0000000+00:00</time></trkpt><trkpt lat="63.99738693" lon="-19.05403519"><ele>590.6</ele><time>2012-07-22T14:22:31.0000000+00:00</time></trkpt><trkpt lat="63.99732971" lon="-19.05430412"><ele>589.7</ele><time>2012-07-22T14:22:36.0000000+00:00</time></trkpt><trkpt lat="63.99727249" lon="-19.05460739"><ele>590.4</ele><time>2012-07-22T14:22:41.0000000+00:00</time></trkpt><trkpt lat="63.99721527" lon="-19.05492783"><ele>590.1</ele><time>2012-07-22T14:22:46.0000000+00:00</time></trkpt><trkpt lat="63.99713516" lon="-19.05524635"><ele>589.4</ele><time>2012-07-22T14:22:51.0000000+00:00</time></trkpt><trkpt lat="63.99705887" lon="-19.05558014"><ele>588.8</ele><time>2012-07-22T14:22:56.0000000+00:00</time></trkpt><trkpt lat="63.99697113" lon="-19.05587196"><ele>588.7</ele><time>2012-07-22T14:23:01.0000000+00:00</time></trkpt><trkpt lat="63.99686813" lon="-19.05619812"><ele>587.3</ele><time>2012-07-22T14:23:06.0000000+00:00</time></trkpt><trkpt lat="63.99676132" lon="-19.05646706"><ele>587.8</ele><time>2012-07-22T14:23:11.0000000+00:00</time></trkpt><trkpt lat="63.99666214" lon="-19.05675507"><ele>587.0</ele><time>2012-07-22T14:23:16.0000000+00:00</time></trkpt><trkpt lat="63.9965477" lon="-19.05701828"><ele>589.5</ele><time>2012-07-22T14:23:21.0000000+00:00</time></trkpt><trkpt lat="63.99643326" lon="-19.05731583"><ele>589.9</ele><time>2012-07-22T14:23:26.0000000+00:00</time></trkpt><trkpt lat="63.99631882" lon="-19.05761528"><ele>589.8</ele><time>2012-07-22T14:23:31.0000000+00:00</time></trkpt><trkpt lat="63.99620056" lon="-19.05789185"><ele>590.3</ele><time>2012-07-22T14:23:36.0000000+00:00</time></trkpt><trkpt lat="63.99610901" lon="-19.0581646"><ele>590.8</ele><time>2012-07-22T14:23:41.0000000+00:00</time></trkpt><trkpt lat="63.99599838" lon="-19.05841446"><ele>591.4</ele><time>2012-07-22T14:23:46.0000000+00:00</time></trkpt><trkpt lat="63.99587631" lon="-19.05868912"><ele>590.7</ele><time>2012-07-22T14:23:51.0000000+00:00</time></trkpt><trkpt lat="63.99575043" lon="-19.05894661"><ele>590.5</ele><time>2012-07-22T14:23:56.0000000+00:00</time></trkpt><trkpt lat="63.9956131" lon="-19.05919838"><ele>590.5</ele><time>2012-07-22T14:24:01.0000000+00:00</time></trkpt><trkpt lat="63.99546051" lon="-19.0594101"><ele>589.6</ele><time>2012-07-22T14:24:06.0000000+00:00</time></trkpt><trkpt lat="63.99528122" lon="-19.05951309"><ele>587.8</ele><time>2012-07-22T14:24:11.0000000+00:00</time></trkpt><trkpt lat="63.99509811" lon="-19.05960465"><ele>588.7</ele><time>2012-07-22T14:24:16.0000000+00:00</time></trkpt><trkpt lat="63.9949646" lon="-19.05970573"><ele>590.0</ele><time>2012-07-22T14:24:21.0000000+00:00</time></trkpt><trkpt lat="63.99481964" lon="-19.05976105"><ele>590.7</ele><time>2012-07-22T14:24:26.0000000+00:00</time></trkpt><trkpt lat="63.99466705" lon="-19.05970764"><ele>591.6</ele><time>2012-07-22T14:24:31.0000000+00:00</time></trkpt><trkpt lat="63.9945755" lon="-19.05974579"><ele>592.8</ele><time>2012-07-22T14:24:36.0000000+00:00</time></trkpt><trkpt lat="63.99456024" lon="-19.05975723"><ele>592.7</ele><time>2012-07-22T14:24:41.0000000+00:00</time></trkpt><trkpt lat="63.99457169" lon="-19.05977058"><ele>592.8</ele><time>2012-07-22T14:24:46.0000000+00:00</time></trkpt><trkpt lat="63.99457169" lon="-19.05977058"><ele>592.8</ele><time>2012-07-22T14:24:51.0000000+00:00</time></trkpt><trkpt lat="63.99457169" lon="-19.05977058"><ele>592.8</ele><time>2012-07-22T14:24:56.0000000+00:00</time></trkpt><trkpt lat="63.99457169" lon="-19.05976868"><ele>592.8</ele><time>2012-07-22T14:25:01.0000000+00:00</time></trkpt><trkpt lat="63.99456024" lon="-19.0598011"><ele>592.9</ele><time>2012-07-22T14:25:06.0000000+00:00</time></trkpt><trkpt lat="63.99457169" lon="-19.05988884"><ele>592.6</ele><time>2012-07-22T14:25:11.0000000+00:00</time></trkpt><trkpt lat="63.99458313" lon="-19.05994225"><ele>592.8</ele><time>2012-07-22T14:25:16.0000000+00:00</time></trkpt><trkpt lat="63.99459457" lon="-19.05996895"><ele>593.3</ele><time>2012-07-22T14:25:21.0000000+00:00</time></trkpt><trkpt lat="63.99462128" lon="-19.05999374"><ele>593.4</ele><time>2012-07-22T14:25:26.0000000+00:00</time></trkpt><trkpt lat="63.99459839" lon="-19.06003571"><ele>593.6</ele><time>2012-07-22T14:25:31.0000000+00:00</time></trkpt><trkpt lat="63.99457169" lon="-19.06008148"><ele>592.9</ele><time>2012-07-22T14:25:36.0000000+00:00</time></trkpt><trkpt lat="63.99457169" lon="-19.06010819"><ele>590.9</ele><time>2012-07-22T14:25:41.0000000+00:00</time></trkpt><trkpt lat="63.99459457" lon="-19.06015778"><ele>592.5</ele><time>2012-07-22T14:25:46.0000000+00:00</time></trkpt><trkpt lat="63.99461746" lon="-19.06023789"><ele>593.2</ele><time>2012-07-22T14:25:51.0000000+00:00</time></trkpt><trkpt lat="63.99462509" lon="-19.06029129"><ele>593.5</ele><time>2012-07-22T14:25:56.0000000+00:00</time></trkpt><trkpt lat="63.99462891" lon="-19.06032372"><ele>592.4</ele><time>2012-07-22T14:26:01.0000000+00:00</time></trkpt><trkpt lat="63.99462891" lon="-19.06032181"><ele>592.3</ele><time>2012-07-22T14:26:06.0000000+00:00</time></trkpt><trkpt lat="63.99462891" lon="-19.06032372"><ele>592.3</ele><time>2012-07-22T14:26:11.0000000+00:00</time></trkpt><trkpt lat="63.99462891" lon="-19.06032372"><ele>592.3</ele><time>2012-07-22T14:26:16.0000000+00:00</time></trkpt><trkpt lat="63.99462891" lon="-19.06032372"><ele>592.3</ele><time>2012-07-22T14:26:21.0000000+00:00</time></trkpt><trkpt lat="63.99462891" lon="-19.0603199"><ele>592.3</ele><time>2012-07-22T14:26:26.0000000+00:00</time></trkpt><trkpt lat="63.99462509" lon="-19.06037903"><ele>591.8</ele><time>2012-07-22T14:26:31.0000000+00:00</time></trkpt><trkpt lat="63.99464035" lon="-19.06045914"><ele>592.2</ele><time>2012-07-22T14:26:36.0000000+00:00</time></trkpt><trkpt lat="63.99462891" lon="-19.06048203"><ele>592.1</ele><time>2012-07-22T14:26:41.0000000+00:00</time></trkpt><trkpt lat="63.99462891" lon="-19.06053734"><ele>591.9</ele><time>2012-07-22T14:26:46.0000000+00:00</time></trkpt><trkpt lat="63.99453354" lon="-19.06075859"><ele>588.8</ele><time>2012-07-22T14:26:51.0000000+00:00</time></trkpt><trkpt lat="63.99443436" lon="-19.0609169"><ele>587.7</ele><time>2012-07-22T14:26:56.0000000+00:00</time></trkpt><trkpt lat="63.99442673" lon="-19.0609436"><ele>588.0</ele><time>2012-07-22T14:27:01.0000000+00:00</time></trkpt><trkpt lat="63.99443054" lon="-19.0609436"><ele>588.3</ele><time>2012-07-22T14:27:06.0000000+00:00</time></trkpt><trkpt lat="63.99440002" lon="-19.0609436"><ele>588.8</ele><time>2012-07-22T14:27:11.0000000+00:00</time></trkpt><trkpt lat="63.9943924" lon="-19.06093597"><ele>588.8</ele><time>2012-07-22T14:27:16.0000000+00:00</time></trkpt><trkpt lat="63.99438858" lon="-19.0609436"><ele>588.3</ele><time>2012-07-22T14:27:21.0000000+00:00</time></trkpt><trkpt lat="63.99434662" lon="-19.06091118"><ele>587.7</ele><time>2012-07-22T14:27:26.0000000+00:00</time></trkpt><trkpt lat="63.99430847" lon="-19.06088638"><ele>587.4</ele><time>2012-07-22T14:27:31.0000000+00:00</time></trkpt><trkpt lat="63.99428558" lon="-19.06088638"><ele>587.4</ele><time>2012-07-22T14:27:36.0000000+00:00</time></trkpt><trkpt lat="63.9942627" lon="-19.06088257"><ele>587.1</ele><time>2012-07-22T14:27:41.0000000+00:00</time></trkpt><trkpt lat="63.99421692" lon="-19.06089401"><ele>586.2</ele><time>2012-07-22T14:27:46.0000000+00:00</time></trkpt><trkpt lat="63.99422836" lon="-19.06087875"><ele>586.1</ele><time>2012-07-22T14:27:51.0000000+00:00</time></trkpt><trkpt lat="63.99414825" lon="-19.06083298"><ele>586.6</ele><time>2012-07-22T14:27:56.0000000+00:00</time></trkpt><trkpt lat="63.9940567" lon="-19.0607872"><ele>585.9</ele><time>2012-07-22T14:28:01.0000000+00:00</time></trkpt><trkpt lat="63.99397278" lon="-19.06076622"><ele>585.6</ele><time>2012-07-22T14:28:06.0000000+00:00</time></trkpt><trkpt lat="63.9939003" lon="-19.06073189"><ele>586.8</ele><time>2012-07-22T14:28:11.0000000+00:00</time></trkpt><trkpt lat="63.99385071" lon="-19.06068611"><ele>586.6</ele><time>2012-07-22T14:28:16.0000000+00:00</time></trkpt><trkpt lat="63.99384689" lon="-19.06068802"><ele>587.0</ele><time>2012-07-22T14:28:21.0000000+00:00</time></trkpt><trkpt lat="63.99384689" lon="-19.06068993"><ele>587.0</ele><time>2012-07-22T14:28:26.0000000+00:00</time></trkpt><trkpt lat="63.99384689" lon="-19.06068993"><ele>587.0</ele><time>2012-07-22T14:28:31.0000000+00:00</time></trkpt><trkpt lat="63.99384689" lon="-19.06068993"><ele>587.0</ele><time>2012-07-22T14:28:36.0000000+00:00</time></trkpt><trkpt lat="63.99384689" lon="-19.06068993"><ele>587.0</ele><time>2012-07-22T14:28:41.0000000+00:00</time></trkpt><trkpt lat="63.99384689" lon="-19.06068993"><ele>587.0</ele><time>2012-07-22T14:28:46.0000000+00:00</time></trkpt><trkpt lat="63.99384689" lon="-19.06068993"><ele>587.0</ele><time>2012-07-22T14:28:51.0000000+00:00</time></trkpt><trkpt lat="63.99384689" lon="-19.06068993"><ele>587.0</ele><time>2012-07-22T14:28:56.0000000+00:00</time></trkpt><trkpt lat="63.99384689" lon="-19.06068993"><ele>587.0</ele><time>2012-07-22T14:29:01.0000000+00:00</time></trkpt><trkpt lat="63.99384689" lon="-19.06068993"><ele>587.0</ele><time>2012-07-22T14:29:06.0000000+00:00</time></trkpt><trkpt lat="63.99384689" lon="-19.06068993"><ele>587.1</ele><time>2012-07-22T14:29:11.0000000+00:00</time></trkpt><trkpt lat="63.99384689" lon="-19.06068993"><ele>587.1</ele><time>2012-07-22T14:29:16.0000000+00:00</time></trkpt><trkpt lat="63.99384689" lon="-19.06068993"><ele>587.1</ele><time>2012-07-22T14:29:21.0000000+00:00</time></trkpt><trkpt lat="63.99384689" lon="-19.06068993"><ele>587.1</ele><time>2012-07-22T14:29:26.0000000+00:00</time></trkpt><trkpt lat="63.99384689" lon="-19.06068993"><ele>587.1</ele><time>2012-07-22T14:29:31.0000000+00:00</time></trkpt><trkpt lat="63.99380493" lon="-19.06066513"><ele>586.8</ele><time>2012-07-22T14:29:36.0000000+00:00</time></trkpt><trkpt lat="63.99375534" lon="-19.0606308"><ele>585.0</ele><time>2012-07-22T14:29:41.0000000+00:00</time></trkpt><trkpt lat="63.99370956" lon="-19.06065941"><ele>583.3</ele><time>2012-07-22T14:29:46.0000000+00:00</time></trkpt><trkpt lat="63.99368668" lon="-19.06066895"><ele>583.5</ele><time>2012-07-22T14:29:51.0000000+00:00</time></trkpt><trkpt lat="63.99361801" lon="-19.06070137"><ele>584.8</ele><time>2012-07-22T14:29:56.0000000+00:00</time></trkpt><trkpt lat="63.99353027" lon="-19.06077766"><ele>585.4</ele><time>2012-07-22T14:30:01.0000000+00:00</time></trkpt><trkpt lat="63.99348068" lon="-19.06079483"><ele>585.5</ele><time>2012-07-22T14:30:06.0000000+00:00</time></trkpt><trkpt lat="63.99345779" lon="-19.0607605"><ele>585.8</ele><time>2012-07-22T14:30:11.0000000+00:00</time></trkpt><trkpt lat="63.99342346" lon="-19.06065178"><ele>585.9</ele><time>2012-07-22T14:30:16.0000000+00:00</time></trkpt><trkpt lat="63.9933815" lon="-19.06059837"><ele>585.2</ele><time>2012-07-22T14:30:21.0000000+00:00</time></trkpt><trkpt lat="63.99334717" lon="-19.06053925"><ele>585.5</ele><time>2012-07-22T14:30:26.0000000+00:00</time></trkpt><trkpt lat="63.99331284" lon="-19.06050301"><ele>586.2</ele><time>2012-07-22T14:30:31.0000000+00:00</time></trkpt><trkpt lat="63.99328613" lon="-19.06047058"><ele>586.6</ele><time>2012-07-22T14:30:36.0000000+00:00</time></trkpt><trkpt lat="63.99323654" lon="-19.06041908"><ele>587.3</ele><time>2012-07-22T14:30:41.0000000+00:00</time></trkpt><trkpt lat="63.99323273" lon="-19.0603981"><ele>586.9</ele><time>2012-07-22T14:30:46.0000000+00:00</time></trkpt><trkpt lat="63.99319458" lon="-19.06030273"><ele>586.9</ele><time>2012-07-22T14:30:51.0000000+00:00</time></trkpt><trkpt lat="63.99305725" lon="-19.06012154"><ele>587.2</ele><time>2012-07-22T14:30:56.0000000+00:00</time></trkpt><trkpt lat="63.99288559" lon="-19.0599575"><ele>587.0</ele><time>2012-07-22T14:31:01.0000000+00:00</time></trkpt><trkpt lat="63.9927063" lon="-19.05977249"><ele>587.5</ele><time>2012-07-22T14:31:06.0000000+00:00</time></trkpt><trkpt lat="63.99255371" lon="-19.05963707"><ele>587.4</ele><time>2012-07-22T14:31:11.0000000+00:00</time></trkpt><trkpt lat="63.9924202" lon="-19.0595398"><ele>588.8</ele><time>2012-07-22T14:31:16.0000000+00:00</time></trkpt><trkpt lat="63.99228287" lon="-19.05945015"><ele>590.6</ele><time>2012-07-22T14:31:21.0000000+00:00</time></trkpt><trkpt lat="63.99211121" lon="-19.05929756"><ele>590.2</ele><time>2012-07-22T14:31:26.0000000+00:00</time></trkpt><trkpt lat="63.99197006" lon="-19.05925369"><ele>590.0</ele><time>2012-07-22T14:31:31.0000000+00:00</time></trkpt><trkpt lat="63.99180222" lon="-19.05935097"><ele>589.7</ele><time>2012-07-22T14:31:36.0000000+00:00</time></trkpt><trkpt lat="63.99164581" lon="-19.05952454"><ele>589.5</ele><time>2012-07-22T14:31:41.0000000+00:00</time></trkpt><trkpt lat="63.99149323" lon="-19.05974579"><ele>590.0</ele><time>2012-07-22T14:31:46.0000000+00:00</time></trkpt><trkpt lat="63.99133682" lon="-19.05994225"><ele>590.0</ele><time>2012-07-22T14:31:51.0000000+00:00</time></trkpt><trkpt lat="63.99119186" lon="-19.06012535"><ele>589.7</ele><time>2012-07-22T14:31:56.0000000+00:00</time></trkpt><trkpt lat="63.99105454" lon="-19.06027603"><ele>589.1</ele><time>2012-07-22T14:32:01.0000000+00:00</time></trkpt><trkpt lat="63.99093247" lon="-19.06048012"><ele>589.3</ele><time>2012-07-22T14:32:06.0000000+00:00</time></trkpt><trkpt lat="63.99080658" lon="-19.06041145"><ele>590.6</ele><time>2012-07-22T14:32:11.0000000+00:00</time></trkpt><trkpt lat="63.99074936" lon="-19.06010819"><ele>590.3</ele><time>2012-07-22T14:32:16.0000000+00:00</time></trkpt><trkpt lat="63.99065018" lon="-19.05989456"><ele>590.5</ele><time>2012-07-22T14:32:21.0000000+00:00</time></trkpt><trkpt lat="63.99054718" lon="-19.06000328"><ele>590.8</ele><time>2012-07-22T14:32:26.0000000+00:00</time></trkpt><trkpt lat="63.99045944" lon="-19.06020927"><ele>590.9</ele><time>2012-07-22T14:32:31.0000000+00:00</time></trkpt><trkpt lat="63.9904213" lon="-19.06038475"><ele>591.3</ele><time>2012-07-22T14:32:36.0000000+00:00</time></trkpt><trkpt lat="63.99037552" lon="-19.0604229"><ele>591.6</ele><time>2012-07-22T14:32:41.0000000+00:00</time></trkpt><trkpt lat="63.9903717" lon="-19.06044197"><ele>591.7</ele><time>2012-07-22T14:32:46.0000000+00:00</time></trkpt><trkpt lat="63.99036408" lon="-19.06043816"><ele>591.8</ele><time>2012-07-22T14:32:51.0000000+00:00</time></trkpt><trkpt lat="63.99036026" lon="-19.06044197"><ele>591.8</ele><time>2012-07-22T14:32:56.0000000+00:00</time></trkpt><trkpt lat="63.99036026" lon="-19.06043816"><ele>591.8</ele><time>2012-07-22T14:33:01.0000000+00:00</time></trkpt><trkpt lat="63.99035645" lon="-19.06044006"><ele>591.8</ele><time>2012-07-22T14:33:06.0000000+00:00</time></trkpt><trkpt lat="63.99035263" lon="-19.06044197"><ele>591.8</ele><time>2012-07-22T14:33:11.0000000+00:00</time></trkpt><trkpt lat="63.99035263" lon="-19.06044197"><ele>591.8</ele><time>2012-07-22T14:33:16.0000000+00:00</time></trkpt><trkpt lat="63.99034882" lon="-19.06044579"><ele>591.8</ele><time>2012-07-22T14:33:21.0000000+00:00</time></trkpt><trkpt lat="63.99034882" lon="-19.06044579"><ele>591.9</ele><time>2012-07-22T14:33:26.0000000+00:00</time></trkpt><trkpt lat="63.990345" lon="-19.0604496"><ele>591.9</ele><time>2012-07-22T14:33:31.0000000+00:00</time></trkpt><trkpt lat="63.99034119" lon="-19.06045532"><ele>591.9</ele><time>2012-07-22T14:33:36.0000000+00:00</time></trkpt><trkpt lat="63.99033737" lon="-19.06045532"><ele>591.9</ele><time>2012-07-22T14:33:41.0000000+00:00</time></trkpt><trkpt lat="63.99033356" lon="-19.06046104"><ele>591.9</ele><time>2012-07-22T14:33:46.0000000+00:00</time></trkpt><trkpt lat="63.99033356" lon="-19.06045914"><ele>592.0</ele><time>2012-07-22T14:33:51.0000000+00:00</time></trkpt><trkpt lat="63.99033356" lon="-19.06046104"><ele>592.0</ele><time>2012-07-22T14:33:56.0000000+00:00</time></trkpt><trkpt lat="63.99033356" lon="-19.06045723"><ele>592.0</ele><time>2012-07-22T14:34:01.0000000+00:00</time></trkpt><trkpt lat="63.99033737" lon="-19.06045723"><ele>592.0</ele><time>2012-07-22T14:34:06.0000000+00:00</time></trkpt><trkpt lat="63.99033737" lon="-19.06045914"><ele>592.1</ele><time>2012-07-22T14:34:11.0000000+00:00</time></trkpt><trkpt lat="63.99033737" lon="-19.06046104"><ele>592.1</ele><time>2012-07-22T14:34:16.0000000+00:00</time></trkpt><trkpt lat="63.99033356" lon="-19.06046104"><ele>592.1</ele><time>2012-07-22T14:34:21.0000000+00:00</time></trkpt><trkpt lat="63.99033356" lon="-19.06046486"><ele>592.2</ele><time>2012-07-22T14:34:26.0000000+00:00</time></trkpt><trkpt lat="63.99033356" lon="-19.0604744"><ele>592.2</ele><time>2012-07-22T14:34:31.0000000+00:00</time></trkpt><trkpt lat="63.99033356" lon="-19.0604744"><ele>592.2</ele><time>2012-07-22T14:34:36.0000000+00:00</time></trkpt><trkpt lat="63.99033356" lon="-19.0604744"><ele>592.2</ele><time>2012-07-22T14:34:41.0000000+00:00</time></trkpt><trkpt lat="63.99032974" lon="-19.0604744"><ele>592.3</ele><time>2012-07-22T14:34:46.0000000+00:00</time></trkpt><trkpt lat="63.99032974" lon="-19.0604763"><ele>592.3</ele><time>2012-07-22T14:34:51.0000000+00:00</time></trkpt><trkpt lat="63.99032974" lon="-19.06047821"><ele>592.3</ele><time>2012-07-22T14:34:56.0000000+00:00</time></trkpt><trkpt lat="63.99032593" lon="-19.06048012"><ele>592.3</ele><time>2012-07-22T14:35:01.0000000+00:00</time></trkpt><trkpt lat="63.99032211" lon="-19.0604744"><ele>592.3</ele><time>2012-07-22T14:35:06.0000000+00:00</time></trkpt><trkpt lat="63.99032211" lon="-19.06046867"><ele>592.3</ele><time>2012-07-22T14:35:11.0000000+00:00</time></trkpt><trkpt lat="63.9903183" lon="-19.0604763"><ele>592.3</ele><time>2012-07-22T14:35:16.0000000+00:00</time></trkpt><trkpt lat="63.9903183" lon="-19.06048393"><ele>592.4</ele><time>2012-07-22T14:35:21.0000000+00:00</time></trkpt><trkpt lat="63.99032211" lon="-19.06048012"><ele>592.4</ele><time>2012-07-22T14:35:26.0000000+00:00</time></trkpt><trkpt lat="63.99032211" lon="-19.06047821"><ele>592.4</ele><time>2012-07-22T14:35:31.0000000+00:00</time></trkpt><trkpt lat="63.99032211" lon="-19.06047821"><ele>592.4</ele><time>2012-07-22T14:35:36.0000000+00:00</time></trkpt><trkpt lat="63.99032211" lon="-19.0604744"><ele>592.4</ele><time>2012-07-22T14:35:41.0000000+00:00</time></trkpt><trkpt lat="63.99032211" lon="-19.06047821"><ele>592.5</ele><time>2012-07-22T14:35:46.0000000+00:00</time></trkpt><trkpt lat="63.99032211" lon="-19.06048203"><ele>592.5</ele><time>2012-07-22T14:35:51.0000000+00:00</time></trkpt><trkpt lat="63.99032211" lon="-19.06048012"><ele>592.5</ele><time>2012-07-22T14:35:56.0000000+00:00</time></trkpt><trkpt lat="63.99032211" lon="-19.06048012"><ele>592.5</ele><time>2012-07-22T14:36:01.0000000+00:00</time></trkpt><trkpt lat="63.99032593" lon="-19.06047821"><ele>592.6</ele><time>2012-07-22T14:36:06.0000000+00:00</time></trkpt><trkpt lat="63.99032593" lon="-19.06047821"><ele>592.8</ele><time>2012-07-22T14:36:11.0000000+00:00</time></trkpt><trkpt lat="63.99032593" lon="-19.06047821"><ele>592.9</ele><time>2012-07-22T14:36:16.0000000+00:00</time></trkpt><trkpt lat="63.99032593" lon="-19.0604763"><ele>592.9</ele><time>2012-07-22T14:36:21.0000000+00:00</time></trkpt><trkpt lat="63.99032593" lon="-19.0604763"><ele>592.9</ele><time>2012-07-22T14:36:26.0000000+00:00</time></trkpt><trkpt lat="63.99032593" lon="-19.0604763"><ele>593.0</ele><time>2012-07-22T14:36:31.0000000+00:00</time></trkpt><trkpt lat="63.99032593" lon="-19.0604763"><ele>593.1</ele><time>2012-07-22T14:36:36.0000000+00:00</time></trkpt><trkpt lat="63.99032974" lon="-19.0604763"><ele>593.1</ele><time>2012-07-22T14:36:41.0000000+00:00</time></trkpt><trkpt lat="63.99032974" lon="-19.0604744"><ele>593.2</ele><time>2012-07-22T14:36:46.0000000+00:00</time></trkpt><trkpt lat="63.99032974" lon="-19.0604744"><ele>593.2</ele><time>2012-07-22T14:36:51.0000000+00:00</time></trkpt><trkpt lat="63.99032974" lon="-19.0604744"><ele>593.3</ele><time>2012-07-22T14:36:56.0000000+00:00</time></trkpt><trkpt lat="63.99032974" lon="-19.0604744"><ele>593.3</ele><time>2012-07-22T14:37:01.0000000+00:00</time></trkpt><trkpt lat="63.99032974" lon="-19.0604744"><ele>593.3</ele><time>2012-07-22T14:37:06.0000000+00:00</time></trkpt><trkpt lat="63.99032974" lon="-19.06047249"><ele>593.3</ele><time>2012-07-22T14:37:11.0000000+00:00</time></trkpt><trkpt lat="63.99032974" lon="-19.06047249"><ele>593.4</ele><time>2012-07-22T14:37:16.0000000+00:00</time></trkpt><trkpt lat="63.99032974" lon="-19.06047249"><ele>593.4</ele><time>2012-07-22T14:37:21.0000000+00:00</time></trkpt><trkpt lat="63.99032974" lon="-19.06047249"><ele>593.4</ele><time>2012-07-22T14:37:26.0000000+00:00</time></trkpt><trkpt lat="63.99032974" lon="-19.06047249"><ele>593.4</ele><time>2012-07-22T14:37:31.0000000+00:00</time></trkpt><trkpt lat="63.99032974" lon="-19.06047249"><ele>593.4</ele><time>2012-07-22T14:37:36.0000000+00:00</time></trkpt><trkpt lat="63.99032974" lon="-19.06047058"><ele>593.4</ele><time>2012-07-22T14:37:41.0000000+00:00</time></trkpt><trkpt lat="63.99032974" lon="-19.06047058"><ele>593.3</ele><time>2012-07-22T14:37:46.0000000+00:00</time></trkpt><trkpt lat="63.99032974" lon="-19.06047058"><ele>593.3</ele><time>2012-07-22T14:37:51.0000000+00:00</time></trkpt><trkpt lat="63.99032974" lon="-19.06047058"><ele>593.3</ele><time>2012-07-22T14:37:56.0000000+00:00</time></trkpt><trkpt lat="63.99032974" lon="-19.06047058"><ele>593.3</ele><time>2012-07-22T14:38:01.0000000+00:00</time></trkpt><trkpt lat="63.99032974" lon="-19.06047058"><ele>593.4</ele><time>2012-07-22T14:38:06.0000000+00:00</time></trkpt><trkpt lat="63.99033356" lon="-19.06047058"><ele>593.4</ele><time>2012-07-22T14:38:11.0000000+00:00</time></trkpt><trkpt lat="63.99033356" lon="-19.06047058"><ele>593.4</ele><time>2012-07-22T14:38:16.0000000+00:00</time></trkpt><trkpt lat="63.99033356" lon="-19.06046867"><ele>593.4</ele><time>2012-07-22T14:38:21.0000000+00:00</time></trkpt><trkpt lat="63.99033356" lon="-19.06046867"><ele>593.4</ele><time>2012-07-22T14:38:26.0000000+00:00</time></trkpt><trkpt lat="63.99033356" lon="-19.06046867"><ele>593.4</ele><time>2012-07-22T14:38:31.0000000+00:00</time></trkpt><trkpt lat="63.99033356" lon="-19.06046867"><ele>593.4</ele><time>2012-07-22T14:38:36.0000000+00:00</time></trkpt><trkpt lat="63.99033356" lon="-19.06046867"><ele>593.5</ele><time>2012-07-22T14:38:41.0000000+00:00</time></trkpt><trkpt lat="63.99033356" lon="-19.06046867"><ele>593.5</ele><time>2012-07-22T14:38:46.0000000+00:00</time></trkpt><trkpt lat="63.99033356" lon="-19.06046867"><ele>593.5</ele><time>2012-07-22T14:38:51.0000000+00:00</time></trkpt><trkpt lat="63.99033356" lon="-19.06046867"><ele>593.5</ele><time>2012-07-22T14:38:56.0000000+00:00</time></trkpt><trkpt lat="63.99033356" lon="-19.06046867"><ele>593.6</ele><time>2012-07-22T14:39:01.0000000+00:00</time></trkpt><trkpt lat="63.99033356" lon="-19.06046867"><ele>593.6</ele><time>2012-07-22T14:39:06.0000000+00:00</time></trkpt><trkpt lat="63.99033356" lon="-19.06046867"><ele>593.6</ele><time>2012-07-22T14:39:11.0000000+00:00</time></trkpt><trkpt lat="63.99033356" lon="-19.06046867"><ele>593.6</ele><time>2012-07-22T14:39:16.0000000+00:00</time></trkpt><trkpt lat="63.99033356" lon="-19.06046867"><ele>593.7</ele><time>2012-07-22T14:39:21.0000000+00:00</time></trkpt><trkpt lat="63.99033356" lon="-19.06046677"><ele>593.7</ele><time>2012-07-22T14:39:26.0000000+00:00</time></trkpt><trkpt lat="63.99033356" lon="-19.06046677"><ele>593.7</ele><time>2012-07-22T14:39:31.0000000+00:00</time></trkpt><trkpt lat="63.99033356" lon="-19.06046677"><ele>593.6</ele><time>2012-07-22T14:39:36.0000000+00:00</time></trkpt><trkpt lat="63.99033737" lon="-19.06046677"><ele>593.7</ele><time>2012-07-22T14:39:41.0000000+00:00</time></trkpt><trkpt lat="63.99033737" lon="-19.06046677"><ele>593.7</ele><time>2012-07-22T14:39:46.0000000+00:00</time></trkpt><trkpt lat="63.99033737" lon="-19.06046677"><ele>593.6</ele><time>2012-07-22T14:39:51.0000000+00:00</time></trkpt><trkpt lat="63.99033737" lon="-19.06046677"><ele>593.6</ele><time>2012-07-22T14:39:56.0000000+00:00</time></trkpt><trkpt lat="63.99033737" lon="-19.06046677"><ele>593.6</ele><time>2012-07-22T14:40:01.0000000+00:00</time></trkpt><trkpt lat="63.99033737" lon="-19.06046677"><ele>593.6</ele><time>2012-07-22T14:40:06.0000000+00:00</time></trkpt><trkpt lat="63.99033737" lon="-19.06046486"><ele>593.7</ele><time>2012-07-22T14:40:11.0000000+00:00</time></trkpt><trkpt lat="63.99033737" lon="-19.06046486"><ele>593.7</ele><time>2012-07-22T14:40:16.0000000+00:00</time></trkpt><trkpt lat="63.99033737" lon="-19.06046486"><ele>593.7</ele><time>2012-07-22T14:40:21.0000000+00:00</time></trkpt><trkpt lat="63.99033737" lon="-19.06046486"><ele>593.7</ele><time>2012-07-22T14:40:26.0000000+00:00</time></trkpt><trkpt lat="63.99033737" lon="-19.06046486"><ele>593.8</ele><time>2012-07-22T14:40:31.0000000+00:00</time></trkpt><trkpt lat="63.99033737" lon="-19.06046486"><ele>593.8</ele><time>2012-07-22T14:40:36.0000000+00:00</time></trkpt><trkpt lat="63.99033737" lon="-19.06046486"><ele>593.8</ele><time>2012-07-22T14:40:41.0000000+00:00</time></trkpt><trkpt lat="63.99033737" lon="-19.06046486"><ele>593.8</ele><time>2012-07-22T14:40:46.0000000+00:00</time></trkpt><trkpt lat="63.99033737" lon="-19.06046486"><ele>593.9</ele><time>2012-07-22T14:40:51.0000000+00:00</time></trkpt><trkpt lat="63.99033737" lon="-19.06046486"><ele>593.9</ele><time>2012-07-22T14:40:56.0000000+00:00</time></trkpt><trkpt lat="63.99033737" lon="-19.06046486"><ele>593.9</ele><time>2012-07-22T14:41:01.0000000+00:00</time></trkpt><trkpt lat="63.99033737" lon="-19.06046486"><ele>593.9</ele><time>2012-07-22T14:41:06.0000000+00:00</time></trkpt><trkpt lat="63.99033737" lon="-19.06046486"><ele>593.9</ele><time>2012-07-22T14:41:11.0000000+00:00</time></trkpt><trkpt lat="63.99034119" lon="-19.06046486"><ele>593.9</ele><time>2012-07-22T14:41:16.0000000+00:00</time></trkpt><trkpt lat="63.99034119" lon="-19.06046486"><ele>593.9</ele><time>2012-07-22T14:41:21.0000000+00:00</time></trkpt><trkpt lat="63.99034119" lon="-19.06046295"><ele>594.0</ele><time>2012-07-22T14:41:26.0000000+00:00</time></trkpt><trkpt lat="63.99034119" lon="-19.06046295"><ele>594.0</ele><time>2012-07-22T14:41:31.0000000+00:00</time></trkpt><trkpt lat="63.99034119" lon="-19.06046295"><ele>594.0</ele><time>2012-07-22T14:41:36.0000000+00:00</time></trkpt><trkpt lat="63.99034119" lon="-19.06046104"><ele>594.0</ele><time>2012-07-22T14:41:41.0000000+00:00</time></trkpt><trkpt lat="63.99034119" lon="-19.06046104"><ele>594.0</ele><time>2012-07-22T14:41:46.0000000+00:00</time></trkpt><trkpt lat="63.99034119" lon="-19.06046295"><ele>594.0</ele><time>2012-07-22T14:41:51.0000000+00:00</time></trkpt><trkpt lat="63.99034119" lon="-19.06046104"><ele>593.9</ele><time>2012-07-22T14:41:56.0000000+00:00</time></trkpt><trkpt lat="63.99034119" lon="-19.06046104"><ele>593.9</ele><time>2012-07-22T14:42:01.0000000+00:00</time></trkpt><trkpt lat="63.99034119" lon="-19.06046104"><ele>593.9</ele><time>2012-07-22T14:42:06.0000000+00:00</time></trkpt><trkpt lat="63.99034119" lon="-19.06046104"><ele>593.9</ele><time>2012-07-22T14:42:11.0000000+00:00</time></trkpt><trkpt lat="63.99034119" lon="-19.06046104"><ele>593.9</ele><time>2012-07-22T14:42:16.0000000+00:00</time></trkpt><trkpt lat="63.99034119" lon="-19.06045914"><ele>593.9</ele><time>2012-07-22T14:42:21.0000000+00:00</time></trkpt><trkpt lat="63.99034119" lon="-19.06045914"><ele>593.9</ele><time>2012-07-22T14:42:26.0000000+00:00</time></trkpt><trkpt lat="63.99034119" lon="-19.06045914"><ele>593.9</ele><time>2012-07-22T14:42:31.0000000+00:00</time></trkpt><trkpt lat="63.99034119" lon="-19.06045914"><ele>593.9</ele><time>2012-07-22T14:42:36.0000000+00:00</time></trkpt><trkpt lat="63.99032974" lon="-19.0604496"><ele>593.8</ele><time>2012-07-22T14:42:41.0000000+00:00</time></trkpt><trkpt lat="63.99026871" lon="-19.06037903"><ele>593.8</ele><time>2012-07-22T14:42:46.0000000+00:00</time></trkpt><trkpt lat="63.99021149" lon="-19.06033516"><ele>595.4</ele><time>2012-07-22T14:42:51.0000000+00:00</time></trkpt><trkpt lat="63.99016953" lon="-19.06032562"><ele>599.3</ele><time>2012-07-22T14:42:56.0000000+00:00</time></trkpt><trkpt lat="63.99011993" lon="-19.06030273"><ele>601.0</ele><time>2012-07-22T14:43:01.0000000+00:00</time></trkpt><trkpt lat="63.99006653" lon="-19.0602684"><ele>601.0</ele><time>2012-07-22T14:43:06.0000000+00:00</time></trkpt><trkpt lat="63.99005127" lon="-19.06024551"><ele>600.0</ele><time>2012-07-22T14:43:11.0000000+00:00</time></trkpt><trkpt lat="63.99003983" lon="-19.06022644"><ele>598.9</ele><time>2012-07-22T14:43:16.0000000+00:00</time></trkpt><trkpt lat="63.99003983" lon="-19.06023026"><ele>599.1</ele><time>2012-07-22T14:43:21.0000000+00:00</time></trkpt><trkpt lat="63.99002457" lon="-19.06022263"><ele>598.6</ele><time>2012-07-22T14:43:26.0000000+00:00</time></trkpt><trkpt lat="63.98998642" lon="-19.06020165"><ele>598.6</ele><time>2012-07-22T14:43:31.0000000+00:00</time></trkpt><trkpt lat="63.98994827" lon="-19.06019592"><ele>599.0</ele><time>2012-07-22T14:43:36.0000000+00:00</time></trkpt><trkpt lat="63.98992157" lon="-19.06018066"><ele>597.3</ele><time>2012-07-22T14:43:41.0000000+00:00</time></trkpt><trkpt lat="63.98991394" lon="-19.06017494"><ele>597.3</ele><time>2012-07-22T14:43:46.0000000+00:00</time></trkpt><trkpt lat="63.98987961" lon="-19.06015396"><ele>597.8</ele><time>2012-07-22T14:43:51.0000000+00:00</time></trkpt><trkpt lat="63.98984146" lon="-19.0601387"><ele>597.4</ele><time>2012-07-22T14:43:56.0000000+00:00</time></trkpt><trkpt lat="63.98979569" lon="-19.06010819"><ele>596.8</ele><time>2012-07-22T14:44:01.0000000+00:00</time></trkpt><trkpt lat="63.98975372" lon="-19.06008339"><ele>596.2</ele><time>2012-07-22T14:44:06.0000000+00:00</time></trkpt><trkpt lat="63.98971558" lon="-19.06004524"><ele>596.0</ele><time>2012-07-22T14:44:11.0000000+00:00</time></trkpt><trkpt lat="63.98969269" lon="-19.06005287"><ele>596.3</ele><time>2012-07-22T14:44:16.0000000+00:00</time></trkpt><trkpt lat="63.98966217" lon="-19.06004334"><ele>595.5</ele><time>2012-07-22T14:44:21.0000000+00:00</time></trkpt><trkpt lat="63.98962402" lon="-19.06001854"><ele>595.0</ele><time>2012-07-22T14:44:26.0000000+00:00</time></trkpt><trkpt lat="63.98961258" lon="-19.06001091"><ele>595.1</ele><time>2012-07-22T14:44:31.0000000+00:00</time></trkpt><trkpt lat="63.98961258" lon="-19.06001282"><ele>594.7</ele><time>2012-07-22T14:44:36.0000000+00:00</time></trkpt><trkpt lat="63.98961258" lon="-19.06001091"><ele>594.7</ele><time>2012-07-22T14:44:41.0000000+00:00</time></trkpt><trkpt lat="63.98961258" lon="-19.060009"><ele>594.5</ele><time>2012-07-22T14:44:46.0000000+00:00</time></trkpt><trkpt lat="63.98963165" lon="-19.06001663"><ele>594.5</ele><time>2012-07-22T14:44:51.0000000+00:00</time></trkpt><trkpt lat="63.98966599" lon="-19.06004143"><ele>594.3</ele><time>2012-07-22T14:44:56.0000000+00:00</time></trkpt><trkpt lat="63.98967743" lon="-19.06003571"><ele>594.3</ele><time>2012-07-22T14:45:01.0000000+00:00</time></trkpt><trkpt lat="63.98969269" lon="-19.06003761"><ele>593.9</ele><time>2012-07-22T14:45:06.0000000+00:00</time></trkpt><trkpt lat="63.98969269" lon="-19.06003571"><ele>594.2</ele><time>2012-07-22T14:45:11.0000000+00:00</time></trkpt><trkpt lat="63.98969269" lon="-19.06003571"><ele>594.2</ele><time>2012-07-22T14:45:16.0000000+00:00</time></trkpt><trkpt lat="63.9896965" lon="-19.06003571"><ele>594.2</ele><time>2012-07-22T14:45:21.0000000+00:00</time></trkpt><trkpt lat="63.9896965" lon="-19.06003571"><ele>594.2</ele><time>2012-07-22T14:45:26.0000000+00:00</time></trkpt><trkpt lat="63.9896965" lon="-19.0600338"><ele>594.2</ele><time>2012-07-22T14:45:31.0000000+00:00</time></trkpt><trkpt lat="63.9896965" lon="-19.06002808"><ele>593.9</ele><time>2012-07-22T14:45:36.0000000+00:00</time></trkpt><trkpt lat="63.9896965" lon="-19.06002808"><ele>593.9</ele><time>2012-07-22T14:45:41.0000000+00:00</time></trkpt><trkpt lat="63.9896965" lon="-19.06002808"><ele>593.9</ele><time>2012-07-22T14:45:46.0000000+00:00</time></trkpt><trkpt lat="63.9896965" lon="-19.06002808"><ele>593.9</ele><time>2012-07-22T14:45:51.0000000+00:00</time></trkpt><trkpt lat="63.9896965" lon="-19.06002808"><ele>593.9</ele><time>2012-07-22T14:45:56.0000000+00:00</time></trkpt><trkpt lat="63.9896965" lon="-19.06002808"><ele>593.9</ele><time>2012-07-22T14:46:01.0000000+00:00</time></trkpt><trkpt lat="63.9896965" lon="-19.06002808"><ele>593.9</ele><time>2012-07-22T14:46:06.0000000+00:00</time></trkpt><trkpt lat="63.9896965" lon="-19.06002808"><ele>593.9</ele><time>2012-07-22T14:46:11.0000000+00:00</time></trkpt><trkpt lat="63.9896965" lon="-19.06002808"><ele>593.9</ele><time>2012-07-22T14:46:16.0000000+00:00</time></trkpt><trkpt lat="63.9896965" lon="-19.06002808"><ele>593.9</ele><time>2012-07-22T14:46:21.0000000+00:00</time></trkpt><trkpt lat="63.9896965" lon="-19.06002808"><ele>593.9</ele><time>2012-07-22T14:46:26.0000000+00:00</time></trkpt><trkpt lat="63.9896965" lon="-19.06002808"><ele>593.9</ele><time>2012-07-22T14:46:31.0000000+00:00</time></trkpt><trkpt lat="63.9896965" lon="-19.06002808"><ele>593.9</ele><time>2012-07-22T14:46:36.0000000+00:00</time></trkpt><trkpt lat="63.9896965" lon="-19.06002808"><ele>593.9</ele><time>2012-07-22T14:46:41.0000000+00:00</time></trkpt><trkpt lat="63.9896965" lon="-19.06002808"><ele>593.9</ele><time>2012-07-22T14:46:46.0000000+00:00</time></trkpt><trkpt lat="63.9896965" lon="-19.06002808"><ele>593.9</ele><time>2012-07-22T14:46:51.0000000+00:00</time></trkpt><trkpt lat="63.9896965" lon="-19.06002808"><ele>593.9</ele><time>2012-07-22T14:46:56.0000000+00:00</time></trkpt><trkpt lat="63.9896965" lon="-19.06002808"><ele>593.9</ele><time>2012-07-22T14:47:01.0000000+00:00</time></trkpt><trkpt lat="63.98970413" lon="-19.06002998"><ele>594.0</ele><time>2012-07-22T14:47:06.0000000+00:00</time></trkpt><trkpt lat="63.98973084" lon="-19.06003761"><ele>593.9</ele><time>2012-07-22T14:47:11.0000000+00:00</time></trkpt><trkpt lat="63.98977661" lon="-19.06006622"><ele>593.0</ele><time>2012-07-22T14:47:16.0000000+00:00</time></trkpt><trkpt lat="63.98983002" lon="-19.06011963"><ele>592.1</ele><time>2012-07-22T14:47:21.0000000+00:00</time></trkpt><trkpt lat="63.98986816" lon="-19.06014061"><ele>592.2</ele><time>2012-07-22T14:47:26.0000000+00:00</time></trkpt><trkpt lat="63.98988724" lon="-19.06014442"><ele>591.9</ele><time>2012-07-22T14:47:31.0000000+00:00</time></trkpt><trkpt lat="63.98991776" lon="-19.06014824"><ele>592.3</ele><time>2012-07-22T14:47:36.0000000+00:00</time></trkpt><trkpt lat="63.98996735" lon="-19.06019402"><ele>592.1</ele><time>2012-07-22T14:47:41.0000000+00:00</time></trkpt><trkpt lat="63.98997879" lon="-19.06020927"><ele>592.1</ele><time>2012-07-22T14:47:46.0000000+00:00</time></trkpt><trkpt lat="63.98998261" lon="-19.06020737"><ele>592.1</ele><time>2012-07-22T14:47:51.0000000+00:00</time></trkpt><trkpt lat="63.98998261" lon="-19.0602169"><ele>592.0</ele><time>2012-07-22T14:47:56.0000000+00:00</time></trkpt><trkpt lat="63.99000168" lon="-19.0602417"><ele>592.1</ele><time>2012-07-22T14:48:01.0000000+00:00</time></trkpt><trkpt lat="63.99000549" lon="-19.06023407"><ele>592.2</ele><time>2012-07-22T14:48:06.0000000+00:00</time></trkpt><trkpt lat="63.99000931" lon="-19.06023789"><ele>592.2</ele><time>2012-07-22T14:48:11.0000000+00:00</time></trkpt><trkpt lat="63.99000549" lon="-19.06023598"><ele>592.2</ele><time>2012-07-22T14:48:16.0000000+00:00</time></trkpt><trkpt lat="63.99000549" lon="-19.06023598"><ele>592.2</ele><time>2012-07-22T14:48:21.0000000+00:00</time></trkpt><trkpt lat="63.99000549" lon="-19.06023598"><ele>592.2</ele><time>2012-07-22T14:48:26.0000000+00:00</time></trkpt><trkpt lat="63.99000549" lon="-19.06023407"><ele>592.2</ele><time>2012-07-22T14:48:31.0000000+00:00</time></trkpt><trkpt lat="63.99000549" lon="-19.06023407"><ele>592.2</ele><time>2012-07-22T14:48:36.0000000+00:00</time></trkpt><trkpt lat="63.99000549" lon="-19.06023407"><ele>592.2</ele><time>2012-07-22T14:48:41.0000000+00:00</time></trkpt><trkpt lat="63.99000549" lon="-19.06023407"><ele>592.2</ele><time>2012-07-22T14:48:46.0000000+00:00</time></trkpt><trkpt lat="63.99000549" lon="-19.06023407"><ele>592.2</ele><time>2012-07-22T14:48:51.0000000+00:00</time></trkpt><trkpt lat="63.99000549" lon="-19.06023407"><ele>592.2</ele><time>2012-07-22T14:48:56.0000000+00:00</time></trkpt><trkpt lat="63.99000549" lon="-19.06023407"><ele>592.2</ele><time>2012-07-22T14:49:01.0000000+00:00</time></trkpt><trkpt lat="63.99000549" lon="-19.06023216"><ele>592.2</ele><time>2012-07-22T14:49:06.0000000+00:00</time></trkpt><trkpt lat="63.99000549" lon="-19.06023216"><ele>592.2</ele><time>2012-07-22T14:49:11.0000000+00:00</time></trkpt><trkpt lat="63.99000549" lon="-19.06023216"><ele>592.2</ele><time>2012-07-22T14:49:16.0000000+00:00</time></trkpt><trkpt lat="63.99000549" lon="-19.06023216"><ele>592.3</ele><time>2012-07-22T14:49:21.0000000+00:00</time></trkpt><trkpt lat="63.99000549" lon="-19.06023216"><ele>592.3</ele><time>2012-07-22T14:49:26.0000000+00:00</time></trkpt><trkpt lat="63.99000549" lon="-19.06023216"><ele>592.3</ele><time>2012-07-22T14:49:31.0000000+00:00</time></trkpt><trkpt lat="63.99000549" lon="-19.06023026"><ele>592.3</ele><time>2012-07-22T14:49:36.0000000+00:00</time></trkpt><trkpt lat="63.99000549" lon="-19.06023026"><ele>592.2</ele><time>2012-07-22T14:49:41.0000000+00:00</time></trkpt><trkpt lat="63.99000549" lon="-19.06023026"><ele>592.2</ele><time>2012-07-22T14:49:46.0000000+00:00</time></trkpt><trkpt lat="63.99000549" lon="-19.06022835"><ele>592.2</ele><time>2012-07-22T14:49:51.0000000+00:00</time></trkpt><trkpt lat="63.99000549" lon="-19.06022835"><ele>592.2</ele><time>2012-07-22T14:49:56.0000000+00:00</time></trkpt><trkpt lat="63.99000168" lon="-19.06022835"><ele>592.2</ele><time>2012-07-22T14:50:01.0000000+00:00</time></trkpt><trkpt lat="63.99000168" lon="-19.06022644"><ele>592.2</ele><time>2012-07-22T14:50:06.0000000+00:00</time></trkpt><trkpt lat="63.99000168" lon="-19.06022644"><ele>592.2</ele><time>2012-07-22T14:50:11.0000000+00:00</time></trkpt><trkpt lat="63.99000168" lon="-19.06022644"><ele>592.2</ele><time>2012-07-22T14:50:16.0000000+00:00</time></trkpt><trkpt lat="63.99000168" lon="-19.06022644"><ele>592.2</ele><time>2012-07-22T14:50:21.0000000+00:00</time></trkpt><trkpt lat="63.99000168" lon="-19.06022453"><ele>592.3</ele><time>2012-07-22T14:50:26.0000000+00:00</time></trkpt><trkpt lat="63.99000168" lon="-19.06022453"><ele>592.3</ele><time>2012-07-22T14:50:31.0000000+00:00</time></trkpt><trkpt lat="63.99000168" lon="-19.06022453"><ele>592.3</ele><time>2012-07-22T14:50:36.0000000+00:00</time></trkpt><trkpt lat="63.99000168" lon="-19.06022453"><ele>592.3</ele><time>2012-07-22T14:50:41.0000000+00:00</time></trkpt><trkpt lat="63.99000168" lon="-19.06022453"><ele>592.3</ele><time>2012-07-22T14:50:46.0000000+00:00</time></trkpt><trkpt lat="63.99000168" lon="-19.06022263"><ele>592.3</ele><time>2012-07-22T14:50:51.0000000+00:00</time></trkpt><trkpt lat="63.99000168" lon="-19.06022263"><ele>592.3</ele><time>2012-07-22T14:50:56.0000000+00:00</time></trkpt><trkpt lat="63.99000168" lon="-19.06022263"><ele>592.3</ele><time>2012-07-22T14:51:01.0000000+00:00</time></trkpt><trkpt lat="63.99000168" lon="-19.06022072"><ele>592.3</ele><time>2012-07-22T14:51:06.0000000+00:00</time></trkpt><trkpt lat="63.99000168" lon="-19.06022072"><ele>592.3</ele><time>2012-07-22T14:51:11.0000000+00:00</time></trkpt><trkpt lat="63.99000168" lon="-19.06022072"><ele>592.4</ele><time>2012-07-22T14:51:16.0000000+00:00</time></trkpt><trkpt lat="63.99000168" lon="-19.06022072"><ele>592.4</ele><time>2012-07-22T14:51:21.0000000+00:00</time></trkpt><trkpt lat="63.99000168" lon="-19.06022072"><ele>592.4</ele><time>2012-07-22T14:51:26.0000000+00:00</time></trkpt><trkpt lat="63.99000168" lon="-19.06022072"><ele>592.4</ele><time>2012-07-22T14:51:31.0000000+00:00</time></trkpt><trkpt lat="63.99000168" lon="-19.06022072"><ele>592.4</ele><time>2012-07-22T14:51:36.0000000+00:00</time></trkpt><trkpt lat="63.99000168" lon="-19.06022072"><ele>592.4</ele><time>2012-07-22T14:51:41.0000000+00:00</time></trkpt><trkpt lat="63.99000168" lon="-19.06021881"><ele>592.4</ele><time>2012-07-22T14:51:46.0000000+00:00</time></trkpt><trkpt lat="63.99000168" lon="-19.06021881"><ele>592.4</ele><time>2012-07-22T14:51:51.0000000+00:00</time></trkpt><trkpt lat="63.99000168" lon="-19.06021881"><ele>592.4</ele><time>2012-07-22T14:51:56.0000000+00:00</time></trkpt><trkpt lat="63.99000168" lon="-19.06021881"><ele>592.4</ele><time>2012-07-22T14:52:01.0000000+00:00</time></trkpt><trkpt lat="63.99000168" lon="-19.06021881"><ele>592.4</ele><time>2012-07-22T14:52:06.0000000+00:00</time></trkpt><trkpt lat="63.99000168" lon="-19.06021881"><ele>592.4</ele><time>2012-07-22T14:52:11.0000000+00:00</time></trkpt><trkpt lat="63.99000168" lon="-19.06021881"><ele>592.4</ele><time>2012-07-22T14:52:16.0000000+00:00</time></trkpt><trkpt lat="63.99000168" lon="-19.0602169"><ele>592.4</ele><time>2012-07-22T14:52:21.0000000+00:00</time></trkpt><trkpt lat="63.99000168" lon="-19.0602169"><ele>592.4</ele><time>2012-07-22T14:52:26.0000000+00:00</time></trkpt><trkpt lat="63.99000168" lon="-19.0602169"><ele>592.4</ele><time>2012-07-22T14:52:31.0000000+00:00</time></trkpt><trkpt lat="63.99000168" lon="-19.0602169"><ele>592.4</ele><time>2012-07-22T14:52:36.0000000+00:00</time></trkpt><trkpt lat="63.99000168" lon="-19.0602169"><ele>592.4</ele><time>2012-07-22T14:52:41.0000000+00:00</time></trkpt><trkpt lat="63.99000168" lon="-19.0602169"><ele>592.4</ele><time>2012-07-22T14:52:46.0000000+00:00</time></trkpt><trkpt lat="63.99000168" lon="-19.0602169"><ele>592.4</ele><time>2012-07-22T14:52:51.0000000+00:00</time></trkpt><trkpt lat="63.99000168" lon="-19.0602169"><ele>592.4</ele><time>2012-07-22T14:52:56.0000000+00:00</time></trkpt><trkpt lat="63.99000168" lon="-19.0602169"><ele>592.4</ele><time>2012-07-22T14:53:01.0000000+00:00</time></trkpt><trkpt lat="63.99000168" lon="-19.0602169"><ele>592.4</ele><time>2012-07-22T14:53:06.0000000+00:00</time></trkpt><trkpt lat="63.99000168" lon="-19.0602169"><ele>592.4</ele><time>2012-07-22T14:53:11.0000000+00:00</time></trkpt><trkpt lat="63.99000168" lon="-19.060215"><ele>592.4</ele><time>2012-07-22T14:53:16.0000000+00:00</time></trkpt><trkpt lat="63.99000168" lon="-19.060215"><ele>592.4</ele><time>2012-07-22T14:53:21.0000000+00:00</time></trkpt><trkpt lat="63.99000168" lon="-19.060215"><ele>592.5</ele><time>2012-07-22T14:53:26.0000000+00:00</time></trkpt><trkpt lat="63.99000168" lon="-19.060215"><ele>592.4</ele><time>2012-07-22T14:53:31.0000000+00:00</time></trkpt><trkpt lat="63.99000168" lon="-19.060215"><ele>592.4</ele><time>2012-07-22T14:53:36.0000000+00:00</time></trkpt><trkpt lat="63.99000168" lon="-19.060215"><ele>592.4</ele><time>2012-07-22T14:53:41.0000000+00:00</time></trkpt><trkpt lat="63.99000168" lon="-19.060215"><ele>592.4</ele><time>2012-07-22T14:53:46.0000000+00:00</time></trkpt><trkpt lat="63.99000168" lon="-19.060215"><ele>592.4</ele><time>2012-07-22T14:53:51.0000000+00:00</time></trkpt><trkpt lat="63.99000168" lon="-19.060215"><ele>592.4</ele><time>2012-07-22T14:53:56.0000000+00:00</time></trkpt><trkpt lat="63.99000168" lon="-19.060215"><ele>592.4</ele><time>2012-07-22T14:54:01.0000000+00:00</time></trkpt><trkpt lat="63.99000168" lon="-19.060215"><ele>592.4</ele><time>2012-07-22T14:54:06.0000000+00:00</time></trkpt><trkpt lat="63.99000168" lon="-19.06021309"><ele>592.4</ele><time>2012-07-22T14:54:11.0000000+00:00</time></trkpt><trkpt lat="63.99000168" lon="-19.06021309"><ele>592.4</ele><time>2012-07-22T14:54:16.0000000+00:00</time></trkpt><trkpt lat="63.99000168" lon="-19.06021309"><ele>592.4</ele><time>2012-07-22T14:54:21.0000000+00:00</time></trkpt><trkpt lat="63.99000168" lon="-19.06021309"><ele>592.4</ele><time>2012-07-22T14:54:26.0000000+00:00</time></trkpt><trkpt lat="63.99000168" lon="-19.06021309"><ele>592.4</ele><time>2012-07-22T14:54:31.0000000+00:00</time></trkpt><trkpt lat="63.99000168" lon="-19.06021309"><ele>592.4</ele><time>2012-07-22T14:54:36.0000000+00:00</time></trkpt><trkpt lat="63.99000168" lon="-19.06021309"><ele>592.4</ele><time>2012-07-22T14:54:41.0000000+00:00</time></trkpt><trkpt lat="63.99000168" lon="-19.06021309"><ele>592.4</ele><time>2012-07-22T14:54:46.0000000+00:00</time></trkpt><trkpt lat="63.99000168" lon="-19.06021309"><ele>592.4</ele><time>2012-07-22T14:54:51.0000000+00:00</time></trkpt><trkpt lat="63.99000168" lon="-19.06021309"><ele>592.4</ele><time>2012-07-22T14:54:56.0000000+00:00</time></trkpt><trkpt lat="63.99000168" lon="-19.06021309"><ele>592.4</ele><time>2012-07-22T14:55:01.0000000+00:00</time></trkpt><trkpt lat="63.99000168" lon="-19.06021118"><ele>592.4</ele><time>2012-07-22T14:55:06.0000000+00:00</time></trkpt><trkpt lat="63.99000168" lon="-19.06021118"><ele>592.4</ele><time>2012-07-22T14:55:11.0000000+00:00</time></trkpt><trkpt lat="63.99000168" lon="-19.06021118"><ele>592.4</ele><time>2012-07-22T14:55:16.0000000+00:00</time></trkpt><trkpt lat="63.99000168" lon="-19.06021118"><ele>592.4</ele><time>2012-07-22T14:55:21.0000000+00:00</time></trkpt><trkpt lat="63.99000168" lon="-19.06021118"><ele>592.4</ele><time>2012-07-22T14:55:26.0000000+00:00</time></trkpt><trkpt lat="63.99000168" lon="-19.06021118"><ele>592.4</ele><time>2012-07-22T14:55:31.0000000+00:00</time></trkpt><trkpt lat="63.99000168" lon="-19.06021118"><ele>592.4</ele><time>2012-07-22T14:55:36.0000000+00:00</time></trkpt><trkpt lat="63.99000168" lon="-19.06021118"><ele>592.4</ele><time>2012-07-22T14:55:41.0000000+00:00</time></trkpt><trkpt lat="63.99000168" lon="-19.06020927"><ele>592.4</ele><time>2012-07-22T14:55:46.0000000+00:00</time></trkpt><trkpt lat="63.99000168" lon="-19.06020927"><ele>592.4</ele><time>2012-07-22T14:55:51.0000000+00:00</time></trkpt><trkpt lat="63.99000168" lon="-19.06020927"><ele>592.4</ele><time>2012-07-22T14:55:56.0000000+00:00</time></trkpt><trkpt lat="63.99000168" lon="-19.06020927"><ele>592.4</ele><time>2012-07-22T14:56:01.0000000+00:00</time></trkpt><trkpt lat="63.99000168" lon="-19.06020927"><ele>592.4</ele><time>2012-07-22T14:56:06.0000000+00:00</time></trkpt><trkpt lat="63.99000168" lon="-19.06020927"><ele>592.4</ele><time>2012-07-22T14:56:11.0000000+00:00</time></trkpt><trkpt lat="63.99000168" lon="-19.06020927"><ele>592.4</ele><time>2012-07-22T14:56:16.0000000+00:00</time></trkpt><trkpt lat="63.99000168" lon="-19.06020927"><ele>592.4</ele><time>2012-07-22T14:56:21.0000000+00:00</time></trkpt><trkpt lat="63.99000168" lon="-19.06020927"><ele>592.4</ele><time>2012-07-22T14:56:26.0000000+00:00</time></trkpt><trkpt lat="63.99000168" lon="-19.06020927"><ele>592.4</ele><time>2012-07-22T14:56:31.0000000+00:00</time></trkpt><trkpt lat="63.99000168" lon="-19.06020927"><ele>592.4</ele><time>2012-07-22T14:56:36.0000000+00:00</time></trkpt><trkpt lat="63.99000168" lon="-19.06020737"><ele>592.4</ele><time>2012-07-22T14:56:41.0000000+00:00</time></trkpt><trkpt lat="63.99000168" lon="-19.06020737"><ele>592.4</ele><time>2012-07-22T14:56:46.0000000+00:00</time></trkpt><trkpt lat="63.99000168" lon="-19.06020737"><ele>592.4</ele><time>2012-07-22T14:56:51.0000000+00:00</time></trkpt><trkpt lat="63.99000168" lon="-19.06020737"><ele>592.4</ele><time>2012-07-22T14:56:56.0000000+00:00</time></trkpt><trkpt lat="63.99000168" lon="-19.06020737"><ele>592.4</ele><time>2012-07-22T14:57:01.0000000+00:00</time></trkpt><trkpt lat="63.99000168" lon="-19.06020737"><ele>592.4</ele><time>2012-07-22T14:57:06.0000000+00:00</time></trkpt><trkpt lat="63.99000168" lon="-19.06020737"><ele>592.4</ele><time>2012-07-22T14:57:11.0000000+00:00</time></trkpt><trkpt lat="63.99000168" lon="-19.06020737"><ele>592.4</ele><time>2012-07-22T14:57:16.0000000+00:00</time></trkpt><trkpt lat="63.99000168" lon="-19.06020737"><ele>592.4</ele><time>2012-07-22T14:57:21.0000000+00:00</time></trkpt><trkpt lat="63.99000168" lon="-19.06020737"><ele>592.5</ele><time>2012-07-22T14:57:26.0000000+00:00</time></trkpt><trkpt lat="63.99000168" lon="-19.06020737"><ele>592.5</ele><time>2012-07-22T14:57:31.0000000+00:00</time></trkpt><trkpt lat="63.99000168" lon="-19.06020737"><ele>592.4</ele><time>2012-07-22T14:57:36.0000000+00:00</time></trkpt><trkpt lat="63.99000168" lon="-19.06020546"><ele>592.4</ele><time>2012-07-22T14:57:41.0000000+00:00</time></trkpt><trkpt lat="63.99000168" lon="-19.06020546"><ele>592.4</ele><time>2012-07-22T14:57:46.0000000+00:00</time></trkpt><trkpt lat="63.99000168" lon="-19.06020546"><ele>592.4</ele><time>2012-07-22T14:57:51.0000000+00:00</time></trkpt><trkpt lat="63.99000168" lon="-19.06020546"><ele>592.4</ele><time>2012-07-22T14:57:56.0000000+00:00</time></trkpt><trkpt lat="63.99000168" lon="-19.06020546"><ele>592.5</ele><time>2012-07-22T14:58:01.0000000+00:00</time></trkpt><trkpt lat="63.99000168" lon="-19.06020546"><ele>592.5</ele><time>2012-07-22T14:58:06.0000000+00:00</time></trkpt><trkpt lat="63.99000168" lon="-19.06020546"><ele>592.5</ele><time>2012-07-22T14:58:11.0000000+00:00</time></trkpt><trkpt lat="63.99000168" lon="-19.06020546"><ele>592.5</ele><time>2012-07-22T14:58:16.0000000+00:00</time></trkpt><trkpt lat="63.99000168" lon="-19.06020546"><ele>592.5</ele><time>2012-07-22T14:58:21.0000000+00:00</time></trkpt><trkpt lat="63.99000168" lon="-19.06020546"><ele>592.5</ele><time>2012-07-22T14:58:26.0000000+00:00</time></trkpt><trkpt lat="63.99000168" lon="-19.06020355"><ele>592.5</ele><time>2012-07-22T14:58:31.0000000+00:00</time></trkpt><trkpt lat="63.99000168" lon="-19.06020355"><ele>592.5</ele><time>2012-07-22T14:58:36.0000000+00:00</time></trkpt><trkpt lat="63.99000168" lon="-19.06020355"><ele>592.5</ele><time>2012-07-22T14:58:41.0000000+00:00</time></trkpt><trkpt lat="63.99000168" lon="-19.06020355"><ele>592.5</ele><time>2012-07-22T14:58:46.0000000+00:00</time></trkpt><trkpt lat="63.99000168" lon="-19.06020355"><ele>592.5</ele><time>2012-07-22T14:58:51.0000000+00:00</time></trkpt><trkpt lat="63.99000168" lon="-19.06020355"><ele>592.5</ele><time>2012-07-22T14:58:56.0000000+00:00</time></trkpt><trkpt lat="63.99000168" lon="-19.06020355"><ele>592.5</ele><time>2012-07-22T14:59:01.0000000+00:00</time></trkpt><trkpt lat="63.99000168" lon="-19.06020355"><ele>592.5</ele><time>2012-07-22T14:59:06.0000000+00:00</time></trkpt><trkpt lat="63.99000168" lon="-19.06020165"><ele>592.5</ele><time>2012-07-22T14:59:11.0000000+00:00</time></trkpt><trkpt lat="63.99000168" lon="-19.06020165"><ele>592.5</ele><time>2012-07-22T14:59:16.0000000+00:00</time></trkpt><trkpt lat="63.99000168" lon="-19.06020165"><ele>592.5</ele><time>2012-07-22T14:59:21.0000000+00:00</time></trkpt><trkpt lat="63.99000168" lon="-19.06020165"><ele>592.5</ele><time>2012-07-22T14:59:26.0000000+00:00</time></trkpt><trkpt lat="63.99000168" lon="-19.06020165"><ele>592.5</ele><time>2012-07-22T14:59:31.0000000+00:00</time></trkpt><trkpt lat="63.99000168" lon="-19.06020165"><ele>592.5</ele><time>2012-07-22T14:59:36.0000000+00:00</time></trkpt><trkpt lat="63.99000168" lon="-19.06020165"><ele>592.5</ele><time>2012-07-22T14:59:41.0000000+00:00</time></trkpt><trkpt lat="63.99000168" lon="-19.06020165"><ele>592.5</ele><time>2012-07-22T14:59:46.0000000+00:00</time></trkpt><trkpt lat="63.99000168" lon="-19.06020165"><ele>592.5</ele><time>2012-07-22T14:59:51.0000000+00:00</time></trkpt><trkpt lat="63.99000168" lon="-19.06019974"><ele>592.5</ele><time>2012-07-22T14:59:56.0000000+00:00</time></trkpt><trkpt lat="63.99000168" lon="-19.06019974"><ele>592.5</ele><time>2012-07-22T15:00:01.0000000+00:00</time></trkpt><trkpt lat="63.99000168" lon="-19.06019974"><ele>592.5</ele><time>2012-07-22T15:00:06.0000000+00:00</time></trkpt><trkpt lat="63.99000168" lon="-19.06019974"><ele>592.5</ele><time>2012-07-22T15:00:11.0000000+00:00</time></trkpt><trkpt lat="63.99000168" lon="-19.06019974"><ele>592.5</ele><time>2012-07-22T15:00:16.0000000+00:00</time></trkpt><trkpt lat="63.99000168" lon="-19.06019974"><ele>592.5</ele><time>2012-07-22T15:00:21.0000000+00:00</time></trkpt><trkpt lat="63.99000168" lon="-19.06019974"><ele>592.5</ele><time>2012-07-22T15:00:26.0000000+00:00</time></trkpt><trkpt lat="63.99000168" lon="-19.06019974"><ele>592.5</ele><time>2012-07-22T15:00:31.0000000+00:00</time></trkpt><trkpt lat="63.99000168" lon="-19.06019783"><ele>592.5</ele><time>2012-07-22T15:00:36.0000000+00:00</time></trkpt><trkpt lat="63.99000168" lon="-19.06019783"><ele>592.5</ele><time>2012-07-22T15:00:41.0000000+00:00</time></trkpt><trkpt lat="63.99000168" lon="-19.06019783"><ele>592.5</ele><time>2012-07-22T15:00:46.0000000+00:00</time></trkpt><trkpt lat="63.99000168" lon="-19.06019783"><ele>592.5</ele><time>2012-07-22T15:00:51.0000000+00:00</time></trkpt><trkpt lat="63.99000168" lon="-19.06019783"><ele>592.5</ele><time>2012-07-22T15:00:56.0000000+00:00</time></trkpt><trkpt lat="63.99000168" lon="-19.06019783"><ele>592.5</ele><time>2012-07-22T15:01:01.0000000+00:00</time></trkpt><trkpt lat="63.99000168" lon="-19.06019783"><ele>592.5</ele><time>2012-07-22T15:01:06.0000000+00:00</time></trkpt><trkpt lat="63.99000168" lon="-19.06019783"><ele>592.5</ele><time>2012-07-22T15:01:11.0000000+00:00</time></trkpt><trkpt lat="63.99000168" lon="-19.06019783"><ele>592.5</ele><time>2012-07-22T15:01:16.0000000+00:00</time></trkpt><trkpt lat="63.99000168" lon="-19.06019592"><ele>592.5</ele><time>2012-07-22T15:01:21.0000000+00:00</time></trkpt><trkpt lat="63.99000168" lon="-19.06019592"><ele>592.5</ele><time>2012-07-22T15:01:26.0000000+00:00</time></trkpt><trkpt lat="63.99000168" lon="-19.06019592"><ele>592.5</ele><time>2012-07-22T15:01:31.0000000+00:00</time></trkpt><trkpt lat="63.99000168" lon="-19.06019592"><ele>592.5</ele><time>2012-07-22T15:01:36.0000000+00:00</time></trkpt><trkpt lat="63.99000168" lon="-19.06019592"><ele>592.5</ele><time>2012-07-22T15:01:41.0000000+00:00</time></trkpt><trkpt lat="63.99000168" lon="-19.06019592"><ele>592.5</ele><time>2012-07-22T15:01:46.0000000+00:00</time></trkpt><trkpt lat="63.99000168" lon="-19.06019402"><ele>592.5</ele><time>2012-07-22T15:01:51.0000000+00:00</time></trkpt><trkpt lat="63.98999786" lon="-19.06019402"><ele>592.5</ele><time>2012-07-22T15:01:56.0000000+00:00</time></trkpt><trkpt lat="63.98999786" lon="-19.06019402"><ele>592.5</ele><time>2012-07-22T15:02:01.0000000+00:00</time></trkpt><trkpt lat="63.98999786" lon="-19.06019402"><ele>592.5</ele><time>2012-07-22T15:02:06.0000000+00:00</time></trkpt><trkpt lat="63.98999786" lon="-19.06019402"><ele>592.5</ele><time>2012-07-22T15:02:11.0000000+00:00</time></trkpt><trkpt lat="63.98999786" lon="-19.06019402"><ele>592.5</ele><time>2012-07-22T15:02:16.0000000+00:00</time></trkpt><trkpt lat="63.98999786" lon="-19.06019402"><ele>592.5</ele><time>2012-07-22T15:02:21.0000000+00:00</time></trkpt><trkpt lat="63.98999786" lon="-19.06019402"><ele>592.5</ele><time>2012-07-22T15:02:26.0000000+00:00</time></trkpt><trkpt lat="63.98999786" lon="-19.06019402"><ele>592.5</ele><time>2012-07-22T15:02:31.0000000+00:00</time></trkpt><trkpt lat="63.98999786" lon="-19.06019402"><ele>592.5</ele><time>2012-07-22T15:02:36.0000000+00:00</time></trkpt><trkpt lat="63.98999786" lon="-19.06019402"><ele>592.5</ele><time>2012-07-22T15:02:41.0000000+00:00</time></trkpt><trkpt lat="63.98999786" lon="-19.06019402"><ele>592.5</ele><time>2012-07-22T15:02:46.0000000+00:00</time></trkpt><trkpt lat="63.98999786" lon="-19.06019402"><ele>592.5</ele><time>2012-07-22T15:02:51.0000000+00:00</time></trkpt><trkpt lat="63.98999786" lon="-19.06019211"><ele>592.5</ele><time>2012-07-22T15:02:56.0000000+00:00</time></trkpt><trkpt lat="63.98999786" lon="-19.06019211"><ele>592.5</ele><time>2012-07-22T15:03:01.0000000+00:00</time></trkpt><trkpt lat="63.98999786" lon="-19.06019211"><ele>592.5</ele><time>2012-07-22T15:03:06.0000000+00:00</time></trkpt><trkpt lat="63.98999786" lon="-19.06019211"><ele>592.5</ele><time>2012-07-22T15:03:11.0000000+00:00</time></trkpt><trkpt lat="63.98999786" lon="-19.06019211"><ele>592.4</ele><time>2012-07-22T15:03:16.0000000+00:00</time></trkpt><trkpt lat="63.98999786" lon="-19.06019211"><ele>592.4</ele><time>2012-07-22T15:03:21.0000000+00:00</time></trkpt><trkpt lat="63.98999786" lon="-19.0601902"><ele>592.4</ele><time>2012-07-22T15:03:26.0000000+00:00</time></trkpt><trkpt lat="63.98999786" lon="-19.0601902"><ele>592.4</ele><time>2012-07-22T15:03:31.0000000+00:00</time></trkpt><trkpt lat="63.98999786" lon="-19.0601902"><ele>592.4</ele><time>2012-07-22T15:03:36.0000000+00:00</time></trkpt><trkpt lat="63.98999786" lon="-19.0601902"><ele>592.4</ele><time>2012-07-22T15:03:41.0000000+00:00</time></trkpt><trkpt lat="63.98999786" lon="-19.06018829"><ele>592.4</ele><time>2012-07-22T15:03:46.0000000+00:00</time></trkpt><trkpt lat="63.98999786" lon="-19.06018829"><ele>592.4</ele><time>2012-07-22T15:03:51.0000000+00:00</time></trkpt><trkpt lat="63.98999786" lon="-19.06018829"><ele>592.4</ele><time>2012-07-22T15:03:56.0000000+00:00</time></trkpt><trkpt lat="63.98999786" lon="-19.06018829"><ele>592.4</ele><time>2012-07-22T15:04:01.0000000+00:00</time></trkpt><trkpt lat="63.98999786" lon="-19.06018829"><ele>592.4</ele><time>2012-07-22T15:04:06.0000000+00:00</time></trkpt><trkpt lat="63.98999786" lon="-19.06018829"><ele>592.3</ele><time>2012-07-22T15:04:11.0000000+00:00</time></trkpt><trkpt lat="63.98999786" lon="-19.06018829"><ele>592.3</ele><time>2012-07-22T15:04:16.0000000+00:00</time></trkpt><trkpt lat="63.98999786" lon="-19.06018639"><ele>592.3</ele><time>2012-07-22T15:04:21.0000000+00:00</time></trkpt><trkpt lat="63.98999786" lon="-19.06018639"><ele>592.4</ele><time>2012-07-22T15:04:26.0000000+00:00</time></trkpt><trkpt lat="63.98999786" lon="-19.06018639"><ele>592.4</ele><time>2012-07-22T15:04:31.0000000+00:00</time></trkpt><trkpt lat="63.98999786" lon="-19.06018639"><ele>592.4</ele><time>2012-07-22T15:04:36.0000000+00:00</time></trkpt><trkpt lat="63.98999786" lon="-19.06018639"><ele>592.3</ele><time>2012-07-22T15:04:41.0000000+00:00</time></trkpt><trkpt lat="63.98999786" lon="-19.06018639"><ele>592.3</ele><time>2012-07-22T15:04:46.0000000+00:00</time></trkpt><trkpt lat="63.98999786" lon="-19.06018448"><ele>592.3</ele><time>2012-07-22T15:04:51.0000000+00:00</time></trkpt><trkpt lat="63.98999786" lon="-19.06018448"><ele>592.3</ele><time>2012-07-22T15:04:56.0000000+00:00</time></trkpt><trkpt lat="63.98999786" lon="-19.06018448"><ele>592.3</ele><time>2012-07-22T15:05:01.0000000+00:00</time></trkpt><trkpt lat="63.98999786" lon="-19.06018448"><ele>592.3</ele><time>2012-07-22T15:05:06.0000000+00:00</time></trkpt><trkpt lat="63.98999786" lon="-19.06018448"><ele>592.3</ele><time>2012-07-22T15:05:11.0000000+00:00</time></trkpt><trkpt lat="63.98999786" lon="-19.06018257"><ele>592.3</ele><time>2012-07-22T15:05:16.0000000+00:00</time></trkpt><trkpt lat="63.98999786" lon="-19.06018257"><ele>592.3</ele><time>2012-07-22T15:05:21.0000000+00:00</time></trkpt><trkpt lat="63.98999786" lon="-19.06018257"><ele>592.3</ele><time>2012-07-22T15:05:26.0000000+00:00</time></trkpt><trkpt lat="63.98999786" lon="-19.06018257"><ele>592.3</ele><time>2012-07-22T15:05:31.0000000+00:00</time></trkpt><trkpt lat="63.98999786" lon="-19.06018257"><ele>592.3</ele><time>2012-07-22T15:05:36.0000000+00:00</time></trkpt><trkpt lat="63.98999786" lon="-19.06018257"><ele>592.3</ele><time>2012-07-22T15:05:41.0000000+00:00</time></trkpt><trkpt lat="63.98999786" lon="-19.06018066"><ele>592.3</ele><time>2012-07-22T15:05:46.0000000+00:00</time></trkpt><trkpt lat="63.98999786" lon="-19.06018066"><ele>592.3</ele><time>2012-07-22T15:05:51.0000000+00:00</time></trkpt><trkpt lat="63.98999786" lon="-19.06018066"><ele>592.3</ele><time>2012-07-22T15:05:56.0000000+00:00</time></trkpt><trkpt lat="63.98999786" lon="-19.06018066"><ele>592.2</ele><time>2012-07-22T15:06:01.0000000+00:00</time></trkpt><trkpt lat="63.98999786" lon="-19.06018066"><ele>592.2</ele><time>2012-07-22T15:06:06.0000000+00:00</time></trkpt><trkpt lat="63.98999786" lon="-19.06017876"><ele>592.2</ele><time>2012-07-22T15:06:11.0000000+00:00</time></trkpt><trkpt lat="63.98999786" lon="-19.06017876"><ele>592.2</ele><time>2012-07-22T15:06:16.0000000+00:00</time></trkpt><trkpt lat="63.98999786" lon="-19.06017876"><ele>592.2</ele><time>2012-07-22T15:06:21.0000000+00:00</time></trkpt><trkpt lat="63.98999786" lon="-19.06017876"><ele>592.2</ele><time>2012-07-22T15:06:26.0000000+00:00</time></trkpt><trkpt lat="63.98999786" lon="-19.06017876"><ele>592.2</ele><time>2012-07-22T15:06:31.0000000+00:00</time></trkpt><trkpt lat="63.98999786" lon="-19.06017876"><ele>592.2</ele><time>2012-07-22T15:06:36.0000000+00:00</time></trkpt><trkpt lat="63.98999786" lon="-19.06017876"><ele>592.2</ele><time>2012-07-22T15:06:41.0000000+00:00</time></trkpt><trkpt lat="63.98999786" lon="-19.06017876"><ele>592.2</ele><time>2012-07-22T15:06:46.0000000+00:00</time></trkpt><trkpt lat="63.98999405" lon="-19.06017685"><ele>592.2</ele><time>2012-07-22T15:06:51.0000000+00:00</time></trkpt><trkpt lat="63.98999405" lon="-19.06017685"><ele>592.2</ele><time>2012-07-22T15:06:56.0000000+00:00</time></trkpt><trkpt lat="63.98999405" lon="-19.06017685"><ele>592.2</ele><time>2012-07-22T15:07:01.0000000+00:00</time></trkpt><trkpt lat="63.98999405" lon="-19.06017685"><ele>592.2</ele><time>2012-07-22T15:07:06.0000000+00:00</time></trkpt><trkpt lat="63.98999405" lon="-19.06017494"><ele>592.1</ele><time>2012-07-22T15:07:11.0000000+00:00</time></trkpt><trkpt lat="63.98999405" lon="-19.06017494"><ele>592.1</ele><time>2012-07-22T15:07:16.0000000+00:00</time></trkpt><trkpt lat="63.98999405" lon="-19.06017494"><ele>592.1</ele><time>2012-07-22T15:07:21.0000000+00:00</time></trkpt><trkpt lat="63.98999405" lon="-19.06017494"><ele>592.1</ele><time>2012-07-22T15:07:26.0000000+00:00</time></trkpt><trkpt lat="63.98999405" lon="-19.06017494"><ele>592.1</ele><time>2012-07-22T15:07:31.0000000+00:00</time></trkpt><trkpt lat="63.98999405" lon="-19.06017494"><ele>592.1</ele><time>2012-07-22T15:07:36.0000000+00:00</time></trkpt><trkpt lat="63.98999405" lon="-19.06017494"><ele>592.1</ele><time>2012-07-22T15:07:41.0000000+00:00</time></trkpt><trkpt lat="63.98999405" lon="-19.06017304"><ele>592.1</ele><time>2012-07-22T15:07:46.0000000+00:00</time></trkpt><trkpt lat="63.98999405" lon="-19.06017304"><ele>592.1</ele><time>2012-07-22T15:07:51.0000000+00:00</time></trkpt><trkpt lat="63.98999405" lon="-19.06017304"><ele>592.1</ele><time>2012-07-22T15:07:56.0000000+00:00</time></trkpt><trkpt lat="63.98999405" lon="-19.06017113"><ele>592.1</ele><time>2012-07-22T15:08:01.0000000+00:00</time></trkpt><trkpt lat="63.98999405" lon="-19.06017113"><ele>592.1</ele><time>2012-07-22T15:08:06.0000000+00:00</time></trkpt><trkpt lat="63.98999405" lon="-19.06017113"><ele>592.1</ele><time>2012-07-22T15:08:11.0000000+00:00</time></trkpt><trkpt lat="63.98999405" lon="-19.06017113"><ele>592.1</ele><time>2012-07-22T15:08:16.0000000+00:00</time></trkpt><trkpt lat="63.98999405" lon="-19.06017113"><ele>592.1</ele><time>2012-07-22T15:08:21.0000000+00:00</time></trkpt><trkpt lat="63.98999405" lon="-19.06017113"><ele>592.1</ele><time>2012-07-22T15:08:26.0000000+00:00</time></trkpt><trkpt lat="63.98999405" lon="-19.06017113"><ele>592.1</ele><time>2012-07-22T15:08:31.0000000+00:00</time></trkpt><trkpt lat="63.98999405" lon="-19.06017113"><ele>592.1</ele><time>2012-07-22T15:08:36.0000000+00:00</time></trkpt><trkpt lat="63.98999405" lon="-19.06017304"><ele>592.1</ele><time>2012-07-22T15:08:41.0000000+00:00</time></trkpt><trkpt lat="63.98999405" lon="-19.06017304"><ele>592.1</ele><time>2012-07-22T15:08:46.0000000+00:00</time></trkpt><trkpt lat="63.98999405" lon="-19.06017304"><ele>592.1</ele><time>2012-07-22T15:08:51.0000000+00:00</time></trkpt><trkpt lat="63.98999405" lon="-19.06017304"><ele>592.1</ele><time>2012-07-22T15:08:56.0000000+00:00</time></trkpt><trkpt lat="63.98999405" lon="-19.06017304"><ele>592.1</ele><time>2012-07-22T15:09:01.0000000+00:00</time></trkpt><trkpt lat="63.98999405" lon="-19.06017304"><ele>592.1</ele><time>2012-07-22T15:09:06.0000000+00:00</time></trkpt><trkpt lat="63.98999405" lon="-19.06017304"><ele>592.1</ele><time>2012-07-22T15:09:11.0000000+00:00</time></trkpt><trkpt lat="63.98999405" lon="-19.06017304"><ele>592.1</ele><time>2012-07-22T15:09:16.0000000+00:00</time></trkpt><trkpt lat="63.98999405" lon="-19.06017304"><ele>592.1</ele><time>2012-07-22T15:09:21.0000000+00:00</time></trkpt><trkpt lat="63.98999405" lon="-19.06017304"><ele>592.1</ele><time>2012-07-22T15:09:26.0000000+00:00</time></trkpt><trkpt lat="63.98999405" lon="-19.06017304"><ele>592.1</ele><time>2012-07-22T15:09:31.0000000+00:00</time></trkpt><trkpt lat="63.98999405" lon="-19.06017304"><ele>592.1</ele><time>2012-07-22T15:09:36.0000000+00:00</time></trkpt><trkpt lat="63.98999405" lon="-19.06017494"><ele>592.1</ele><time>2012-07-22T15:09:41.0000000+00:00</time></trkpt><trkpt lat="63.98999405" lon="-19.06017494"><ele>592.1</ele><time>2012-07-22T15:09:46.0000000+00:00</time></trkpt><trkpt lat="63.98999405" lon="-19.06017494"><ele>592.1</ele><time>2012-07-22T15:09:51.0000000+00:00</time></trkpt><trkpt lat="63.98999405" lon="-19.06017494"><ele>592.1</ele><time>2012-07-22T15:09:56.0000000+00:00</time></trkpt><trkpt lat="63.98999405" lon="-19.06017494"><ele>592.1</ele><time>2012-07-22T15:10:01.0000000+00:00</time></trkpt><trkpt lat="63.98999405" lon="-19.06017685"><ele>592.0</ele><time>2012-07-22T15:10:06.0000000+00:00</time></trkpt><trkpt lat="63.98999405" lon="-19.06017685"><ele>592.0</ele><time>2012-07-22T15:10:11.0000000+00:00</time></trkpt><trkpt lat="63.98999405" lon="-19.06022263"><ele>592.0</ele><time>2012-07-22T15:10:16.0000000+00:00</time></trkpt><trkpt lat="63.99001312" lon="-19.06029892"><ele>592.7</ele><time>2012-07-22T15:10:21.0000000+00:00</time></trkpt><trkpt lat="63.99001312" lon="-19.06033516"><ele>591.6</ele><time>2012-07-22T15:10:26.0000000+00:00</time></trkpt><trkpt lat="63.99001312" lon="-19.06033516"><ele>591.6</ele><time>2012-07-22T15:10:31.0000000+00:00</time></trkpt><trkpt lat="63.99001312" lon="-19.06033325"><ele>591.7</ele><time>2012-07-22T15:10:36.0000000+00:00</time></trkpt><trkpt lat="63.99001312" lon="-19.06033325"><ele>591.7</ele><time>2012-07-22T15:10:41.0000000+00:00</time></trkpt><trkpt lat="63.99001312" lon="-19.06033325"><ele>591.7</ele><time>2012-07-22T15:10:46.0000000+00:00</time></trkpt><trkpt lat="63.99001312" lon="-19.06033325"><ele>591.7</ele><time>2012-07-22T15:10:51.0000000+00:00</time></trkpt><trkpt lat="63.99001312" lon="-19.06033325"><ele>591.7</ele><time>2012-07-22T15:10:56.0000000+00:00</time></trkpt><trkpt lat="63.99001312" lon="-19.06033325"><ele>591.7</ele><time>2012-07-22T15:11:01.0000000+00:00</time></trkpt><trkpt lat="63.99001312" lon="-19.06033325"><ele>591.7</ele><time>2012-07-22T15:11:06.0000000+00:00</time></trkpt><trkpt lat="63.99001312" lon="-19.06033325"><ele>591.7</ele><time>2012-07-22T15:11:11.0000000+00:00</time></trkpt><trkpt lat="63.99001312" lon="-19.06033325"><ele>591.7</ele><time>2012-07-22T15:11:16.0000000+00:00</time></trkpt><trkpt lat="63.99001312" lon="-19.06033325"><ele>591.8</ele><time>2012-07-22T15:11:21.0000000+00:00</time></trkpt><trkpt lat="63.99001312" lon="-19.06033325"><ele>591.8</ele><time>2012-07-22T15:11:26.0000000+00:00</time></trkpt><trkpt lat="63.99001312" lon="-19.06033325"><ele>591.8</ele><time>2012-07-22T15:11:31.0000000+00:00</time></trkpt><trkpt lat="63.99001312" lon="-19.06033325"><ele>591.8</ele><time>2012-07-22T15:11:36.0000000+00:00</time></trkpt><trkpt lat="63.99001312" lon="-19.06033325"><ele>591.8</ele><time>2012-07-22T15:11:41.0000000+00:00</time></trkpt><trkpt lat="63.99001312" lon="-19.06033325"><ele>591.8</ele><time>2012-07-22T15:11:46.0000000+00:00</time></trkpt><trkpt lat="63.99001312" lon="-19.06033325"><ele>591.8</ele><time>2012-07-22T15:11:51.0000000+00:00</time></trkpt><trkpt lat="63.99001312" lon="-19.06033325"><ele>591.7</ele><time>2012-07-22T15:11:56.0000000+00:00</time></trkpt><trkpt lat="63.99001312" lon="-19.06033325"><ele>591.7</ele><time>2012-07-22T15:12:01.0000000+00:00</time></trkpt><trkpt lat="63.99001312" lon="-19.06033325"><ele>591.7</ele><time>2012-07-22T15:12:06.0000000+00:00</time></trkpt><trkpt lat="63.99001312" lon="-19.06033325"><ele>591.7</ele><time>2012-07-22T15:12:11.0000000+00:00</time></trkpt><trkpt lat="63.99001312" lon="-19.06033325"><ele>591.7</ele><time>2012-07-22T15:12:16.0000000+00:00</time></trkpt><trkpt lat="63.99001312" lon="-19.06033325"><ele>591.6</ele><time>2012-07-22T15:12:21.0000000+00:00</time></trkpt><trkpt lat="63.99001312" lon="-19.06033135"><ele>591.6</ele><time>2012-07-22T15:12:26.0000000+00:00</time></trkpt><trkpt lat="63.99001312" lon="-19.06033135"><ele>591.6</ele><time>2012-07-22T15:12:31.0000000+00:00</time></trkpt><trkpt lat="63.99001312" lon="-19.06033135"><ele>591.6</ele><time>2012-07-22T15:12:36.0000000+00:00</time></trkpt><trkpt lat="63.99001312" lon="-19.06033135"><ele>591.6</ele><time>2012-07-22T15:12:41.0000000+00:00</time></trkpt><trkpt lat="63.99001312" lon="-19.06033135"><ele>591.6</ele><time>2012-07-22T15:12:46.0000000+00:00</time></trkpt><trkpt lat="63.99001312" lon="-19.06033135"><ele>591.6</ele><time>2012-07-22T15:12:51.0000000+00:00</time></trkpt><trkpt lat="63.99001312" lon="-19.06033135"><ele>591.6</ele><time>2012-07-22T15:12:56.0000000+00:00</time></trkpt><trkpt lat="63.99001312" lon="-19.06033135"><ele>591.6</ele><time>2012-07-22T15:13:01.0000000+00:00</time></trkpt><trkpt lat="63.99001312" lon="-19.06033135"><ele>591.6</ele><time>2012-07-22T15:13:06.0000000+00:00</time></trkpt><trkpt lat="63.99001312" lon="-19.06033135"><ele>591.6</ele><time>2012-07-22T15:13:11.0000000+00:00</time></trkpt><trkpt lat="63.99001312" lon="-19.06033135"><ele>591.6</ele><time>2012-07-22T15:13:16.0000000+00:00</time></trkpt><trkpt lat="63.99001312" lon="-19.06033135"><ele>591.6</ele><time>2012-07-22T15:13:21.0000000+00:00</time></trkpt><trkpt lat="63.99001694" lon="-19.06033325"><ele>591.6</ele><time>2012-07-22T15:13:26.0000000+00:00</time></trkpt><trkpt lat="63.9900322" lon="-19.06034279"><ele>591.5</ele><time>2012-07-22T15:13:31.0000000+00:00</time></trkpt><trkpt lat="63.99003601" lon="-19.06034279"><ele>591.5</ele><time>2012-07-22T15:13:36.0000000+00:00</time></trkpt><trkpt lat="63.99003983" lon="-19.06034279"><ele>591.5</ele><time>2012-07-22T15:13:41.0000000+00:00</time></trkpt><trkpt lat="63.99003983" lon="-19.06034851"><ele>591.7</ele><time>2012-07-22T15:13:46.0000000+00:00</time></trkpt><trkpt lat="63.99003983" lon="-19.06034851"><ele>591.8</ele><time>2012-07-22T15:13:51.0000000+00:00</time></trkpt><trkpt lat="63.99003983" lon="-19.06034851"><ele>591.8</ele><time>2012-07-22T15:13:56.0000000+00:00</time></trkpt><trkpt lat="63.99003983" lon="-19.06034851"><ele>591.8</ele><time>2012-07-22T15:14:01.0000000+00:00</time></trkpt><trkpt lat="63.99003983" lon="-19.06034851"><ele>591.7</ele><time>2012-07-22T15:14:06.0000000+00:00</time></trkpt><trkpt lat="63.99003983" lon="-19.0603466"><ele>591.7</ele><time>2012-07-22T15:14:11.0000000+00:00</time></trkpt><trkpt lat="63.99003601" lon="-19.0603447"><ele>591.7</ele><time>2012-07-22T15:14:16.0000000+00:00</time></trkpt><trkpt lat="63.99003601" lon="-19.0603447"><ele>591.7</ele><time>2012-07-22T15:14:21.0000000+00:00</time></trkpt><trkpt lat="63.99003601" lon="-19.0603447"><ele>591.6</ele><time>2012-07-22T15:14:26.0000000+00:00</time></trkpt><trkpt lat="63.99003601" lon="-19.0603447"><ele>591.6</ele><time>2012-07-22T15:14:31.0000000+00:00</time></trkpt><trkpt lat="63.99003601" lon="-19.0603447"><ele>591.6</ele><time>2012-07-22T15:14:36.0000000+00:00</time></trkpt><trkpt lat="63.99003601" lon="-19.0603447"><ele>591.6</ele><time>2012-07-22T15:14:41.0000000+00:00</time></trkpt><trkpt lat="63.99003601" lon="-19.0603447"><ele>591.6</ele><time>2012-07-22T15:14:46.0000000+00:00</time></trkpt><trkpt lat="63.99003601" lon="-19.0603447"><ele>591.6</ele><time>2012-07-22T15:14:51.0000000+00:00</time></trkpt><trkpt lat="63.99003601" lon="-19.0603447"><ele>591.6</ele><time>2012-07-22T15:14:56.0000000+00:00</time></trkpt><trkpt lat="63.99003601" lon="-19.0603447"><ele>591.6</ele><time>2012-07-22T15:15:01.0000000+00:00</time></trkpt><trkpt lat="63.99003601" lon="-19.0603447"><ele>591.6</ele><time>2012-07-22T15:15:06.0000000+00:00</time></trkpt><trkpt lat="63.99003601" lon="-19.0603447"><ele>591.6</ele><time>2012-07-22T15:15:11.0000000+00:00</time></trkpt><trkpt lat="63.99003601" lon="-19.06034279"><ele>591.5</ele><time>2012-07-22T15:15:16.0000000+00:00</time></trkpt><trkpt lat="63.99003601" lon="-19.06034279"><ele>591.5</ele><time>2012-07-22T15:15:21.0000000+00:00</time></trkpt><trkpt lat="63.99003601" lon="-19.06034279"><ele>591.5</ele><time>2012-07-22T15:15:26.0000000+00:00</time></trkpt><trkpt lat="63.99003601" lon="-19.06034279"><ele>591.5</ele><time>2012-07-22T15:15:31.0000000+00:00</time></trkpt><trkpt lat="63.99003601" lon="-19.06034279"><ele>591.5</ele><time>2012-07-22T15:15:36.0000000+00:00</time></trkpt><trkpt lat="63.99003601" lon="-19.06034279"><ele>591.5</ele><time>2012-07-22T15:15:41.0000000+00:00</time></trkpt><trkpt lat="63.99003601" lon="-19.06034279"><ele>591.6</ele><time>2012-07-22T15:15:46.0000000+00:00</time></trkpt><trkpt lat="63.99003601" lon="-19.06034279"><ele>591.6</ele><time>2012-07-22T15:15:51.0000000+00:00</time></trkpt><trkpt lat="63.99003601" lon="-19.0603447"><ele>591.6</ele><time>2012-07-22T15:15:56.0000000+00:00</time></trkpt><trkpt lat="63.99003601" lon="-19.0603447"><ele>591.6</ele><time>2012-07-22T15:16:01.0000000+00:00</time></trkpt><trkpt lat="63.99003601" lon="-19.0603447"><ele>591.6</ele><time>2012-07-22T15:16:06.0000000+00:00</time></trkpt><trkpt lat="63.9900322" lon="-19.06034279"><ele>591.6</ele><time>2012-07-22T15:16:11.0000000+00:00</time></trkpt><trkpt lat="63.9900322" lon="-19.06034279"><ele>591.6</ele><time>2012-07-22T15:16:16.0000000+00:00</time></trkpt><trkpt lat="63.9900322" lon="-19.06034279"><ele>591.6</ele><time>2012-07-22T15:16:21.0000000+00:00</time></trkpt><trkpt lat="63.9900322" lon="-19.0603447"><ele>591.6</ele><time>2012-07-22T15:16:26.0000000+00:00</time></trkpt><trkpt lat="63.9900322" lon="-19.06034279"><ele>591.6</ele><time>2012-07-22T15:16:31.0000000+00:00</time></trkpt><trkpt lat="63.9900322" lon="-19.06034279"><ele>591.6</ele><time>2012-07-22T15:16:36.0000000+00:00</time></trkpt><trkpt lat="63.9900322" lon="-19.06034279"><ele>591.6</ele><time>2012-07-22T15:16:41.0000000+00:00</time></trkpt><trkpt lat="63.9900322" lon="-19.06034279"><ele>591.6</ele><time>2012-07-22T15:16:46.0000000+00:00</time></trkpt><trkpt lat="63.9900322" lon="-19.06034279"><ele>591.6</ele><time>2012-07-22T15:16:51.0000000+00:00</time></trkpt><trkpt lat="63.9900322" lon="-19.06034279"><ele>591.6</ele><time>2012-07-22T15:16:56.0000000+00:00</time></trkpt><trkpt lat="63.9900322" lon="-19.06034279"><ele>591.6</ele><time>2012-07-22T15:17:01.0000000+00:00</time></trkpt><trkpt lat="63.9900322" lon="-19.06034279"><ele>591.6</ele><time>2012-07-22T15:17:06.0000000+00:00</time></trkpt></trkseg><trkseg><trkpt lat="63.99052429" lon="-19.06059837"><ele>580.5</ele><time>2012-07-23T09:43:34.0000000+00:00</time></trkpt><trkpt lat="63.99061585" lon="-19.060606"><ele>602.9</ele><time>2012-07-23T09:43:39.0000000+00:00</time></trkpt><trkpt lat="63.99060822" lon="-19.06060982"><ele>602.9</ele><time>2012-07-23T09:43:44.0000000+00:00</time></trkpt><trkpt lat="63.99060822" lon="-19.06061554"><ele>604.1</ele><time>2012-07-23T09:43:49.0000000+00:00</time></trkpt><trkpt lat="63.99058533" lon="-19.06060028"><ele>601.1</ele><time>2012-07-23T09:43:54.0000000+00:00</time></trkpt><trkpt lat="63.99058914" lon="-19.06059837"><ele>602.0</ele><time>2012-07-23T09:43:59.0000000+00:00</time></trkpt><trkpt lat="63.99059677" lon="-19.06062317"><ele>604.4</ele><time>2012-07-23T09:44:04.0000000+00:00</time></trkpt><trkpt lat="63.99063873" lon="-19.06069374"><ele>604.4</ele><time>2012-07-23T09:44:09.0000000+00:00</time></trkpt><trkpt lat="63.9907074" lon="-19.06073952"><ele>606.7</ele><time>2012-07-23T09:44:14.0000000+00:00</time></trkpt><trkpt lat="63.99076462" lon="-19.06071854"><ele>607.8</ele><time>2012-07-23T09:44:19.0000000+00:00</time></trkpt><trkpt lat="63.99077606" lon="-19.06065559"><ele>602.6</ele><time>2012-07-23T09:44:24.0000000+00:00</time></trkpt><trkpt lat="63.99079514" lon="-19.06059074"><ele>600.5</ele><time>2012-07-23T09:44:29.0000000+00:00</time></trkpt><trkpt lat="63.99082947" lon="-19.06052208"><ele>598.6</ele><time>2012-07-23T09:44:34.0000000+00:00</time></trkpt><trkpt lat="63.9908638" lon="-19.06046867"><ele>597.0</ele><time>2012-07-23T09:44:39.0000000+00:00</time></trkpt><trkpt lat="63.9908905" lon="-19.06041718"><ele>595.2</ele><time>2012-07-23T09:44:44.0000000+00:00</time></trkpt><trkpt lat="63.99092102" lon="-19.06035805"><ele>593.4</ele><time>2012-07-23T09:44:49.0000000+00:00</time></trkpt><trkpt lat="63.9909935" lon="-19.06031799"><ele>591.7</ele><time>2012-07-23T09:44:54.0000000+00:00</time></trkpt><trkpt lat="63.99103546" lon="-19.06025124"><ele>590.2</ele><time>2012-07-23T09:44:59.0000000+00:00</time></trkpt><trkpt lat="63.99108124" lon="-19.06022453"><ele>588.4</ele><time>2012-07-23T09:45:04.0000000+00:00</time></trkpt><trkpt lat="63.99113846" lon="-19.0601902"><ele>586.5</ele><time>2012-07-23T09:45:09.0000000+00:00</time></trkpt><trkpt lat="63.99120712" lon="-19.06014252"><ele>584.5</ele><time>2012-07-23T09:45:14.0000000+00:00</time></trkpt><trkpt lat="63.9912529" lon="-19.06009865"><ele>582.2</ele><time>2012-07-23T09:45:19.0000000+00:00</time></trkpt><trkpt lat="63.99127579" lon="-19.0600071"><ele>579.6</ele><time>2012-07-23T09:45:24.0000000+00:00</time></trkpt><trkpt lat="63.99129105" lon="-19.05992508"><ele>576.6</ele><time>2012-07-23T09:45:29.0000000+00:00</time></trkpt><trkpt lat="63.99132156" lon="-19.05988121"><ele>575.5</ele><time>2012-07-23T09:45:34.0000000+00:00</time></trkpt><trkpt lat="63.99136734" lon="-19.05981827"><ele>575.4</ele><time>2012-07-23T09:45:39.0000000+00:00</time></trkpt><trkpt lat="63.99143601" lon="-19.05977631"><ele>574.0</ele><time>2012-07-23T09:45:44.0000000+00:00</time></trkpt><trkpt lat="63.9914856" lon="-19.05970573"><ele>571.9</ele><time>2012-07-23T09:45:49.0000000+00:00</time></trkpt><trkpt lat="63.99154663" lon="-19.05961609"><ele>569.7</ele><time>2012-07-23T09:45:54.0000000+00:00</time></trkpt><trkpt lat="63.99158859" lon="-19.05953026"><ele>567.8</ele><time>2012-07-23T09:45:59.0000000+00:00</time></trkpt><trkpt lat="63.99159622" lon="-19.05945396"><ele>565.1</ele><time>2012-07-23T09:46:04.0000000+00:00</time></trkpt><trkpt lat="63.99161911" lon="-19.05939293"><ele>561.7</ele><time>2012-07-23T09:46:09.0000000+00:00</time></trkpt><trkpt lat="63.99164581" lon="-19.0593605"><ele>561.6</ele><time>2012-07-23T09:46:14.0000000+00:00</time></trkpt><trkpt lat="63.99170685" lon="-19.05927277"><ele>559.5</ele><time>2012-07-23T09:46:19.0000000+00:00</time></trkpt><trkpt lat="63.99175263" lon="-19.05924225"><ele>558.7</ele><time>2012-07-23T09:46:24.0000000+00:00</time></trkpt><trkpt lat="63.99178696" lon="-19.05922508"><ele>557.7</ele><time>2012-07-23T09:46:29.0000000+00:00</time></trkpt><trkpt lat="63.99182892" lon="-19.05921364"><ele>557.0</ele><time>2012-07-23T09:46:34.0000000+00:00</time></trkpt><trkpt lat="63.99186325" lon="-19.0592289"><ele>557.9</ele><time>2012-07-23T09:46:39.0000000+00:00</time></trkpt><trkpt lat="63.99193573" lon="-19.05922699"><ele>563.5</ele><time>2012-07-23T09:46:44.0000000+00:00</time></trkpt><trkpt lat="63.99200821" lon="-19.05929375"><ele>564.3</ele><time>2012-07-23T09:46:49.0000000+00:00</time></trkpt><trkpt lat="63.99214172" lon="-19.05936813"><ele>573.1</ele><time>2012-07-23T09:46:54.0000000+00:00</time></trkpt><trkpt lat="63.99221039" lon="-19.0594101"><ele>577.9</ele><time>2012-07-23T09:46:59.0000000+00:00</time></trkpt><trkpt lat="63.99225998" lon="-19.05946732"><ele>580.7</ele><time>2012-07-23T09:47:04.0000000+00:00</time></trkpt><trkpt lat="63.99232101" lon="-19.05952835"><ele>584.4</ele><time>2012-07-23T09:47:09.0000000+00:00</time></trkpt><trkpt lat="63.99238205" lon="-19.05958176"><ele>586.6</ele><time>2012-07-23T09:47:14.0000000+00:00</time></trkpt><trkpt lat="63.99242783" lon="-19.0595932"><ele>585.8</ele><time>2012-07-23T09:47:19.0000000+00:00</time></trkpt><trkpt lat="63.99249649" lon="-19.05965233"><ele>586.6</ele><time>2012-07-23T09:47:24.0000000+00:00</time></trkpt><trkpt lat="63.99255753" lon="-19.05968857"><ele>586.2</ele><time>2012-07-23T09:47:29.0000000+00:00</time></trkpt><trkpt lat="63.99261475" lon="-19.05976677"><ele>585.5</ele><time>2012-07-23T09:47:34.0000000+00:00</time></trkpt><trkpt lat="63.99267578" lon="-19.05981445"><ele>587.3</ele><time>2012-07-23T09:47:39.0000000+00:00</time></trkpt><trkpt lat="63.99274063" lon="-19.05986023"><ele>587.5</ele><time>2012-07-23T09:47:44.0000000+00:00</time></trkpt><trkpt lat="63.99279022" lon="-19.05990601"><ele>589.8</ele><time>2012-07-23T09:47:49.0000000+00:00</time></trkpt><trkpt lat="63.99283218" lon="-19.05994034"><ele>589.2</ele><time>2012-07-23T09:47:54.0000000+00:00</time></trkpt><trkpt lat="63.99288178" lon="-19.05998421"><ele>593.5</ele><time>2012-07-23T09:47:59.0000000+00:00</time></trkpt><trkpt lat="63.99292755" lon="-19.06000519"><ele>596.4</ele><time>2012-07-23T09:48:04.0000000+00:00</time></trkpt><trkpt lat="63.99298477" lon="-19.06004334"><ele>596.0</ele><time>2012-07-23T09:48:09.0000000+00:00</time></trkpt><trkpt lat="63.99303436" lon="-19.06011391"><ele>596.2</ele><time>2012-07-23T09:48:14.0000000+00:00</time></trkpt><trkpt lat="63.99308014" lon="-19.06017494"><ele>598.9</ele><time>2012-07-23T09:48:19.0000000+00:00</time></trkpt><trkpt lat="63.99313355" lon="-19.06027222"><ele>597.3</ele><time>2012-07-23T09:48:24.0000000+00:00</time></trkpt><trkpt lat="63.99319077" lon="-19.06036377"><ele>598.7</ele><time>2012-07-23T09:48:29.0000000+00:00</time></trkpt><trkpt lat="63.99324799" lon="-19.06043816"><ele>598.7</ele><time>2012-07-23T09:48:34.0000000+00:00</time></trkpt><trkpt lat="63.99330521" lon="-19.06049347"><ele>597.7</ele><time>2012-07-23T09:48:39.0000000+00:00</time></trkpt><trkpt lat="63.99333572" lon="-19.06050682"><ele>596.9</ele><time>2012-07-23T09:48:44.0000000+00:00</time></trkpt><trkpt lat="63.99338532" lon="-19.06058312"><ele>597.3</ele><time>2012-07-23T09:48:49.0000000+00:00</time></trkpt><trkpt lat="63.99343872" lon="-19.06064606"><ele>600.2</ele><time>2012-07-23T09:48:54.0000000+00:00</time></trkpt><trkpt lat="63.9934845" lon="-19.06071854"><ele>600.0</ele><time>2012-07-23T09:48:59.0000000+00:00</time></trkpt><trkpt lat="63.99354172" lon="-19.06068993"><ele>598.4</ele><time>2012-07-23T09:49:04.0000000+00:00</time></trkpt><trkpt lat="63.99359512" lon="-19.06064606"><ele>596.3</ele><time>2012-07-23T09:49:09.0000000+00:00</time></trkpt><trkpt lat="63.99361801" lon="-19.06060791"><ele>595.3</ele><time>2012-07-23T09:49:14.0000000+00:00</time></trkpt><trkpt lat="63.99367142" lon="-19.06060982"><ele>595.0</ele><time>2012-07-23T09:49:19.0000000+00:00</time></trkpt><trkpt lat="63.99371719" lon="-19.06058884"><ele>593.9</ele><time>2012-07-23T09:49:24.0000000+00:00</time></trkpt><trkpt lat="63.99378204" lon="-19.06062698"><ele>594.1</ele><time>2012-07-23T09:49:29.0000000+00:00</time></trkpt><trkpt lat="63.99382401" lon="-19.06068039"><ele>595.9</ele><time>2012-07-23T09:49:34.0000000+00:00</time></trkpt><trkpt lat="63.99388123" lon="-19.06071663"><ele>596.4</ele><time>2012-07-23T09:49:39.0000000+00:00</time></trkpt><trkpt lat="63.993927" lon="-19.06074143"><ele>596.8</ele><time>2012-07-23T09:49:44.0000000+00:00</time></trkpt><trkpt lat="63.99396515" lon="-19.06077766"><ele>597.7</ele><time>2012-07-23T09:49:49.0000000+00:00</time></trkpt><trkpt lat="63.99401093" lon="-19.06079292"><ele>599.2</ele><time>2012-07-23T09:49:54.0000000+00:00</time></trkpt><trkpt lat="63.99406815" lon="-19.06082726"><ele>603.6</ele><time>2012-07-23T09:49:59.0000000+00:00</time></trkpt><trkpt lat="63.99413681" lon="-19.06085205"><ele>605.4</ele><time>2012-07-23T09:50:04.0000000+00:00</time></trkpt><trkpt lat="63.99420166" lon="-19.06084824"><ele>606.6</ele><time>2012-07-23T09:50:09.0000000+00:00</time></trkpt><trkpt lat="63.99424362" lon="-19.06086922"><ele>604.5</ele><time>2012-07-23T09:50:14.0000000+00:00</time></trkpt><trkpt lat="63.99429321" lon="-19.06089592"><ele>600.3</ele><time>2012-07-23T09:50:19.0000000+00:00</time></trkpt><trkpt lat="63.9943428" lon="-19.06093597"><ele>601.5</ele><time>2012-07-23T09:50:24.0000000+00:00</time></trkpt><trkpt lat="63.99439621" lon="-19.06093597"><ele>601.8</ele><time>2012-07-23T09:50:29.0000000+00:00</time></trkpt><trkpt lat="63.9944191" lon="-19.06090927"><ele>600.7</ele><time>2012-07-23T09:50:34.0000000+00:00</time></trkpt><trkpt lat="63.99446487" lon="-19.0608139"><ele>599.6</ele><time>2012-07-23T09:50:39.0000000+00:00</time></trkpt><trkpt lat="63.99451828" lon="-19.06074143"><ele>598.1</ele><time>2012-07-23T09:50:44.0000000+00:00</time></trkpt><trkpt lat="63.99453354" lon="-19.06067085"><ele>597.2</ele><time>2012-07-23T09:50:49.0000000+00:00</time></trkpt><trkpt lat="63.99456406" lon="-19.06056786"><ele>595.9</ele><time>2012-07-23T09:50:54.0000000+00:00</time></trkpt><trkpt lat="63.99461365" lon="-19.06049538"><ele>596.6</ele><time>2012-07-23T09:50:59.0000000+00:00</time></trkpt><trkpt lat="63.99462509" lon="-19.06039429"><ele>597.3</ele><time>2012-07-23T09:51:04.0000000+00:00</time></trkpt><trkpt lat="63.99462891" lon="-19.06031609"><ele>598.7</ele><time>2012-07-23T09:51:09.0000000+00:00</time></trkpt><trkpt lat="63.99462128" lon="-19.06023598"><ele>600.0</ele><time>2012-07-23T09:51:14.0000000+00:00</time></trkpt><trkpt lat="63.99459076" lon="-19.06017494"><ele>599.5</ele><time>2012-07-23T09:51:19.0000000+00:00</time></trkpt><trkpt lat="63.99458313" lon="-19.06016159"><ele>599.4</ele><time>2012-07-23T09:51:24.0000000+00:00</time></trkpt><trkpt lat="63.99453354" lon="-19.06011581"><ele>600.1</ele><time>2012-07-23T09:51:29.0000000+00:00</time></trkpt><trkpt lat="63.99452591" lon="-19.06012917"><ele>599.1</ele><time>2012-07-23T09:51:34.0000000+00:00</time></trkpt><trkpt lat="63.99452591" lon="-19.06013489"><ele>599.2</ele><time>2012-07-23T09:51:39.0000000+00:00</time></trkpt><trkpt lat="63.99452591" lon="-19.0601368"><ele>599.2</ele><time>2012-07-23T09:51:44.0000000+00:00</time></trkpt><trkpt lat="63.99452972" lon="-19.0601368"><ele>599.2</ele><time>2012-07-23T09:51:49.0000000+00:00</time></trkpt><trkpt lat="63.99452972" lon="-19.0601387"><ele>599.2</ele><time>2012-07-23T09:51:54.0000000+00:00</time></trkpt><trkpt lat="63.99452972" lon="-19.06014061"><ele>599.2</ele><time>2012-07-23T09:51:59.0000000+00:00</time></trkpt><trkpt lat="63.99455643" lon="-19.06012535"><ele>597.5</ele><time>2012-07-23T09:52:04.0000000+00:00</time></trkpt><trkpt lat="63.99459457" lon="-19.06006622"><ele>596.0</ele><time>2012-07-23T09:52:09.0000000+00:00</time></trkpt><trkpt lat="63.99464798" lon="-19.05999374"><ele>594.8</ele><time>2012-07-23T09:52:14.0000000+00:00</time></trkpt><trkpt lat="63.99468994" lon="-19.05993271"><ele>593.4</ele><time>2012-07-23T09:52:19.0000000+00:00</time></trkpt><trkpt lat="63.99475098" lon="-19.05988884"><ele>592.3</ele><time>2012-07-23T09:52:24.0000000+00:00</time></trkpt><trkpt lat="63.99479675" lon="-19.0598793"><ele>591.9</ele><time>2012-07-23T09:52:29.0000000+00:00</time></trkpt><trkpt lat="63.99485397" lon="-19.05983734"><ele>592.2</ele><time>2012-07-23T09:52:34.0000000+00:00</time></trkpt><trkpt lat="63.99490738" lon="-19.05973244"><ele>592.5</ele><time>2012-07-23T09:52:39.0000000+00:00</time></trkpt><trkpt lat="63.99498749" lon="-19.05969238"><ele>593.2</ele><time>2012-07-23T09:52:44.0000000+00:00</time></trkpt><trkpt lat="63.9950676" lon="-19.05963326"><ele>593.6</ele><time>2012-07-23T09:52:49.0000000+00:00</time></trkpt><trkpt lat="63.99511719" lon="-19.05957985"><ele>594.4</ele><time>2012-07-23T09:52:54.0000000+00:00</time></trkpt><trkpt lat="63.99519348" lon="-19.05953217"><ele>595.8</ele><time>2012-07-23T09:52:59.0000000+00:00</time></trkpt><trkpt lat="63.99524307" lon="-19.05939102"><ele>596.4</ele><time>2012-07-23T09:53:04.0000000+00:00</time></trkpt><trkpt lat="63.99533463" lon="-19.05939674"><ele>596.8</ele><time>2012-07-23T09:53:09.0000000+00:00</time></trkpt><trkpt lat="63.99538803" lon="-19.05935288"><ele>597.8</ele><time>2012-07-23T09:53:14.0000000+00:00</time></trkpt><trkpt lat="63.9954567" lon="-19.05931854"><ele>599.3</ele><time>2012-07-23T09:53:19.0000000+00:00</time></trkpt><trkpt lat="63.99550629" lon="-19.05927658"><ele>599.2</ele><time>2012-07-23T09:53:24.0000000+00:00</time></trkpt><trkpt lat="63.99554825" lon="-19.05918884"><ele>598.0</ele><time>2012-07-23T09:53:29.0000000+00:00</time></trkpt><trkpt lat="63.99560165" lon="-19.05913925"><ele>597.4</ele><time>2012-07-23T09:53:34.0000000+00:00</time></trkpt><trkpt lat="63.99563599" lon="-19.05904007"><ele>596.9</ele><time>2012-07-23T09:53:39.0000000+00:00</time></trkpt><trkpt lat="63.99568176" lon="-19.05894852"><ele>596.2</ele><time>2012-07-23T09:53:44.0000000+00:00</time></trkpt><trkpt lat="63.99572754" lon="-19.05885887"><ele>595.8</ele><time>2012-07-23T09:53:49.0000000+00:00</time></trkpt><trkpt lat="63.9957695" lon="-19.05879021"><ele>595.4</ele><time>2012-07-23T09:53:54.0000000+00:00</time></trkpt><trkpt lat="63.99581146" lon="-19.05869865"><ele>596.4</ele><time>2012-07-23T09:53:59.0000000+00:00</time></trkpt><trkpt lat="63.99584198" lon="-19.05858421"><ele>596.7</ele><time>2012-07-23T09:54:04.0000000+00:00</time></trkpt><trkpt lat="63.99586868" lon="-19.05859375"><ele>595.0</ele><time>2012-07-23T09:54:09.0000000+00:00</time></trkpt><trkpt lat="63.9958992" lon="-19.05850792"><ele>595.1</ele><time>2012-07-23T09:54:14.0000000+00:00</time></trkpt><trkpt lat="63.99591827" lon="-19.05846787"><ele>594.1</ele><time>2012-07-23T09:54:19.0000000+00:00</time></trkpt><trkpt lat="63.99595261" lon="-19.0583477"><ele>593.8</ele><time>2012-07-23T09:54:24.0000000+00:00</time></trkpt><trkpt lat="63.99599457" lon="-19.05824089"><ele>593.0</ele><time>2012-07-23T09:54:29.0000000+00:00</time></trkpt><trkpt lat="63.99603653" lon="-19.05814362"><ele>593.0</ele><time>2012-07-23T09:54:34.0000000+00:00</time></trkpt><trkpt lat="63.99608231" lon="-19.05805397"><ele>593.1</ele><time>2012-07-23T09:54:39.0000000+00:00</time></trkpt><trkpt lat="63.99611282" lon="-19.05794144"><ele>593.3</ele><time>2012-07-23T09:54:44.0000000+00:00</time></trkpt><trkpt lat="63.99615479" lon="-19.05784798"><ele>593.1</ele><time>2012-07-23T09:54:49.0000000+00:00</time></trkpt><trkpt lat="63.99619675" lon="-19.0577507"><ele>593.1</ele><time>2012-07-23T09:54:54.0000000+00:00</time></trkpt><trkpt lat="63.99623871" lon="-19.05764389"><ele>593.2</ele><time>2012-07-23T09:54:59.0000000+00:00</time></trkpt><trkpt lat="63.99628067" lon="-19.05754089"><ele>593.1</ele><time>2012-07-23T09:55:04.0000000+00:00</time></trkpt><trkpt lat="63.99632263" lon="-19.05744362"><ele>593.2</ele><time>2012-07-23T09:55:09.0000000+00:00</time></trkpt><trkpt lat="63.99636459" lon="-19.05734253"><ele>593.3</ele><time>2012-07-23T09:55:14.0000000+00:00</time></trkpt><trkpt lat="63.99640656" lon="-19.05723763"><ele>593.0</ele><time>2012-07-23T09:55:19.0000000+00:00</time></trkpt><trkpt lat="63.99644852" lon="-19.05714417"><ele>593.3</ele><time>2012-07-23T09:55:24.0000000+00:00</time></trkpt><trkpt lat="63.99648666" lon="-19.05703926"><ele>593.5</ele><time>2012-07-23T09:55:29.0000000+00:00</time></trkpt><trkpt lat="63.996521" lon="-19.05695534"><ele>593.3</ele><time>2012-07-23T09:55:34.0000000+00:00</time></trkpt><trkpt lat="63.99655533" lon="-19.05687332"><ele>593.1</ele><time>2012-07-23T09:55:39.0000000+00:00</time></trkpt><trkpt lat="63.99656296" lon="-19.05685043"><ele>593.0</ele><time>2012-07-23T09:55:44.0000000+00:00</time></trkpt><trkpt lat="63.99660111" lon="-19.05673409"><ele>592.4</ele><time>2012-07-23T09:55:49.0000000+00:00</time></trkpt><trkpt lat="63.9966507" lon="-19.05661583"><ele>592.2</ele><time>2012-07-23T09:55:54.0000000+00:00</time></trkpt><trkpt lat="63.99668503" lon="-19.05649757"><ele>592.3</ele><time>2012-07-23T09:55:59.0000000+00:00</time></trkpt><trkpt lat="63.9967308" lon="-19.05638504"><ele>592.4</ele><time>2012-07-23T09:56:04.0000000+00:00</time></trkpt><trkpt lat="63.99676895" lon="-19.05627632"><ele>592.5</ele><time>2012-07-23T09:56:09.0000000+00:00</time></trkpt><trkpt lat="63.99679947" lon="-19.05620766"><ele>592.6</ele><time>2012-07-23T09:56:14.0000000+00:00</time></trkpt><trkpt lat="63.99684143" lon="-19.05609703"><ele>592.5</ele><time>2012-07-23T09:56:19.0000000+00:00</time></trkpt><trkpt lat="63.99688339" lon="-19.05595779"><ele>592.5</ele><time>2012-07-23T09:56:24.0000000+00:00</time></trkpt><trkpt lat="63.99692154" lon="-19.05584717"><ele>592.8</ele><time>2012-07-23T09:56:29.0000000+00:00</time></trkpt><trkpt lat="63.99695587" lon="-19.05573273"><ele>592.7</ele><time>2012-07-23T09:56:34.0000000+00:00</time></trkpt><trkpt lat="63.99699402" lon="-19.05561829"><ele>592.6</ele><time>2012-07-23T09:56:39.0000000+00:00</time></trkpt><trkpt lat="63.99702072" lon="-19.0554924"><ele>592.4</ele><time>2012-07-23T09:56:44.0000000+00:00</time></trkpt><trkpt lat="63.99705505" lon="-19.05536652"><ele>592.2</ele><time>2012-07-23T09:56:49.0000000+00:00</time></trkpt><trkpt lat="63.99708557" lon="-19.05523491"><ele>592.3</ele><time>2012-07-23T09:56:54.0000000+00:00</time></trkpt><trkpt lat="63.99711227" lon="-19.05510712"><ele>592.3</ele><time>2012-07-23T09:56:59.0000000+00:00</time></trkpt><trkpt lat="63.99713516" lon="-19.05495644"><ele>592.3</ele><time>2012-07-23T09:57:04.0000000+00:00</time></trkpt><trkpt lat="63.99716568" lon="-19.05483437"><ele>592.1</ele><time>2012-07-23T09:57:09.0000000+00:00</time></trkpt><trkpt lat="63.99718094" lon="-19.05472755"><ele>592.3</ele><time>2012-07-23T09:57:14.0000000+00:00</time></trkpt><trkpt lat="63.99720383" lon="-19.05461311"><ele>592.4</ele><time>2012-07-23T09:57:19.0000000+00:00</time></trkpt><trkpt lat="63.9972229" lon="-19.05448151"><ele>592.4</ele><time>2012-07-23T09:57:24.0000000+00:00</time></trkpt><trkpt lat="63.9972496" lon="-19.05436897"><ele>593.0</ele><time>2012-07-23T09:57:29.0000000+00:00</time></trkpt><trkpt lat="63.99726868" lon="-19.05424309"><ele>593.2</ele><time>2012-07-23T09:57:34.0000000+00:00</time></trkpt><trkpt lat="63.99728775" lon="-19.05410385"><ele>593.6</ele><time>2012-07-23T09:57:39.0000000+00:00</time></trkpt><trkpt lat="63.99731827" lon="-19.0539875"><ele>593.5</ele><time>2012-07-23T09:57:44.0000000+00:00</time></trkpt><trkpt lat="63.99734116" lon="-19.05387116"><ele>593.7</ele><time>2012-07-23T09:57:49.0000000+00:00</time></trkpt><trkpt lat="63.99737549" lon="-19.05374718"><ele>593.9</ele><time>2012-07-23T09:57:54.0000000+00:00</time></trkpt><trkpt lat="63.99740982" lon="-19.05363464"><ele>593.7</ele><time>2012-07-23T09:57:59.0000000+00:00</time></trkpt><trkpt lat="63.99744415" lon="-19.05353546"><ele>593.3</ele><time>2012-07-23T09:58:04.0000000+00:00</time></trkpt><trkpt lat="63.99747849" lon="-19.05344391"><ele>593.4</ele><time>2012-07-23T09:58:09.0000000+00:00</time></trkpt><trkpt lat="63.99750137" lon="-19.05332947"><ele>593.3</ele><time>2012-07-23T09:58:14.0000000+00:00</time></trkpt><trkpt lat="63.99752426" lon="-19.05326843"><ele>593.0</ele><time>2012-07-23T09:58:19.0000000+00:00</time></trkpt><trkpt lat="63.99752808" lon="-19.05325317"><ele>592.9</ele><time>2012-07-23T09:58:24.0000000+00:00</time></trkpt><trkpt lat="63.99755096" lon="-19.05312729"><ele>592.8</ele><time>2012-07-23T09:58:29.0000000+00:00</time></trkpt><trkpt lat="63.99757767" lon="-19.05298805"><ele>592.6</ele><time>2012-07-23T09:58:34.0000000+00:00</time></trkpt><trkpt lat="63.99760056" lon="-19.05285645"><ele>592.3</ele><time>2012-07-23T09:58:39.0000000+00:00</time></trkpt><trkpt lat="63.99763107" lon="-19.05272293"><ele>592.3</ele><time>2012-07-23T09:58:44.0000000+00:00</time></trkpt><trkpt lat="63.99766541" lon="-19.05259895"><ele>592.1</ele><time>2012-07-23T09:58:49.0000000+00:00</time></trkpt><trkpt lat="63.99769974" lon="-19.0524559"><ele>591.7</ele><time>2012-07-23T09:58:54.0000000+00:00</time></trkpt><trkpt lat="63.99773026" lon="-19.05233002"><ele>591.0</ele><time>2012-07-23T09:58:59.0000000+00:00</time></trkpt><trkpt lat="63.99776077" lon="-19.05220795"><ele>590.6</ele><time>2012-07-23T09:59:04.0000000+00:00</time></trkpt><trkpt lat="63.99779511" lon="-19.05208778"><ele>590.1</ele><time>2012-07-23T09:59:09.0000000+00:00</time></trkpt><trkpt lat="63.99782944" lon="-19.05194664"><ele>589.7</ele><time>2012-07-23T09:59:14.0000000+00:00</time></trkpt><trkpt lat="63.99786758" lon="-19.05181694"><ele>589.3</ele><time>2012-07-23T09:59:19.0000000+00:00</time></trkpt><trkpt lat="63.99790955" lon="-19.05169296"><ele>588.9</ele><time>2012-07-23T09:59:24.0000000+00:00</time></trkpt><trkpt lat="63.99795914" lon="-19.05158234"><ele>588.8</ele><time>2012-07-23T09:59:29.0000000+00:00</time></trkpt><trkpt lat="63.99801254" lon="-19.05149269"><ele>588.7</ele><time>2012-07-23T09:59:34.0000000+00:00</time></trkpt><trkpt lat="63.99805832" lon="-19.05140305"><ele>589.6</ele><time>2012-07-23T09:59:39.0000000+00:00</time></trkpt><trkpt lat="63.99811935" lon="-19.05132484"><ele>590.1</ele><time>2012-07-23T09:59:44.0000000+00:00</time></trkpt><trkpt lat="63.99818802" lon="-19.0512619"><ele>589.8</ele><time>2012-07-23T09:59:49.0000000+00:00</time></trkpt><trkpt lat="63.99825287" lon="-19.05120659"><ele>589.5</ele><time>2012-07-23T09:59:54.0000000+00:00</time></trkpt><trkpt lat="63.99831772" lon="-19.05115128"><ele>589.6</ele><time>2012-07-23T09:59:59.0000000+00:00</time></trkpt><trkpt lat="63.99838257" lon="-19.05109787"><ele>589.8</ele><time>2012-07-23T10:00:04.0000000+00:00</time></trkpt><trkpt lat="63.9984436" lon="-19.05105782"><ele>590.2</ele><time>2012-07-23T10:00:09.0000000+00:00</time></trkpt><trkpt lat="63.99848938" lon="-19.05099869"><ele>590.5</ele><time>2012-07-23T10:00:14.0000000+00:00</time></trkpt><trkpt lat="63.99854279" lon="-19.05093956"><ele>590.4</ele><time>2012-07-23T10:00:19.0000000+00:00</time></trkpt><trkpt lat="63.99859619" lon="-19.05090714"><ele>590.8</ele><time>2012-07-23T10:00:24.0000000+00:00</time></trkpt><trkpt lat="63.99863052" lon="-19.05091858"><ele>591.5</ele><time>2012-07-23T10:00:29.0000000+00:00</time></trkpt><trkpt lat="63.99868393" lon="-19.05090714"><ele>591.9</ele><time>2012-07-23T10:00:34.0000000+00:00</time></trkpt><trkpt lat="63.99874115" lon="-19.05089569"><ele>591.9</ele><time>2012-07-23T10:00:39.0000000+00:00</time></trkpt><trkpt lat="63.99878693" lon="-19.0509243"><ele>592.5</ele><time>2012-07-23T10:00:44.0000000+00:00</time></trkpt><trkpt lat="63.99883652" lon="-19.05094147"><ele>593.1</ele><time>2012-07-23T10:00:49.0000000+00:00</time></trkpt><trkpt lat="63.99888611" lon="-19.05095673"><ele>593.1</ele><time>2012-07-23T10:00:54.0000000+00:00</time></trkpt><trkpt lat="63.99893189" lon="-19.05098343"><ele>593.7</ele><time>2012-07-23T10:00:59.0000000+00:00</time></trkpt><trkpt lat="63.99898148" lon="-19.05101776"><ele>594.3</ele><time>2012-07-23T10:01:04.0000000+00:00</time></trkpt><trkpt lat="63.99903107" lon="-19.05106163"><ele>594.7</ele><time>2012-07-23T10:01:09.0000000+00:00</time></trkpt><trkpt lat="63.99907303" lon="-19.05107307"><ele>595.1</ele><time>2012-07-23T10:01:14.0000000+00:00</time></trkpt><trkpt lat="63.99905777" lon="-19.051054"><ele>595.5</ele><time>2012-07-23T10:01:19.0000000+00:00</time></trkpt><trkpt lat="63.99905396" lon="-19.05104828"><ele>595.6</ele><time>2012-07-23T10:01:24.0000000+00:00</time></trkpt><trkpt lat="63.99909592" lon="-19.05106354"><ele>595.8</ele><time>2012-07-23T10:01:29.0000000+00:00</time></trkpt><trkpt lat="63.99916458" lon="-19.05109978"><ele>596.1</ele><time>2012-07-23T10:01:34.0000000+00:00</time></trkpt><trkpt lat="63.99922562" lon="-19.05112457"><ele>596.5</ele><time>2012-07-23T10:01:39.0000000+00:00</time></trkpt><trkpt lat="63.99928665" lon="-19.051157"><ele>597.3</ele><time>2012-07-23T10:01:44.0000000+00:00</time></trkpt><trkpt lat="63.99934769" lon="-19.05116081"><ele>597.5</ele><time>2012-07-23T10:01:49.0000000+00:00</time></trkpt><trkpt lat="63.99939346" lon="-19.05112267"><ele>597.6</ele><time>2012-07-23T10:01:54.0000000+00:00</time></trkpt><trkpt lat="63.99942017" lon="-19.05111313"><ele>598.0</ele><time>2012-07-23T10:01:59.0000000+00:00</time></trkpt><trkpt lat="63.99948502" lon="-19.05109024"><ele>598.2</ele><time>2012-07-23T10:02:04.0000000+00:00</time></trkpt><trkpt lat="63.99953842" lon="-19.05104256"><ele>598.5</ele><time>2012-07-23T10:02:09.0000000+00:00</time></trkpt><trkpt lat="63.99960327" lon="-19.05100632"><ele>598.5</ele><time>2012-07-23T10:02:14.0000000+00:00</time></trkpt><trkpt lat="63.99966049" lon="-19.05095482"><ele>598.6</ele><time>2012-07-23T10:02:19.0000000+00:00</time></trkpt><trkpt lat="63.99972916" lon="-19.05095673"><ele>598.9</ele><time>2012-07-23T10:02:24.0000000+00:00</time></trkpt><trkpt lat="63.99978638" lon="-19.05093002"><ele>598.8</ele><time>2012-07-23T10:02:29.0000000+00:00</time></trkpt><trkpt lat="63.9998436" lon="-19.05086708"><ele>599.8</ele><time>2012-07-23T10:02:34.0000000+00:00</time></trkpt><trkpt lat="63.99990082" lon="-19.05082703"><ele>600.7</ele><time>2012-07-23T10:02:39.0000000+00:00</time></trkpt><trkpt lat="63.99995804" lon="-19.0507946"><ele>601.8</ele><time>2012-07-23T10:02:44.0000000+00:00</time></trkpt><trkpt lat="64.00000763" lon="-19.05074692"><ele>601.9</ele><time>2012-07-23T10:02:49.0000000+00:00</time></trkpt><trkpt lat="64.00005341" lon="-19.0506897"><ele>602.2</ele><time>2012-07-23T10:02:54.0000000+00:00</time></trkpt><trkpt lat="64.00011444" lon="-19.05065346"><ele>602.5</ele><time>2012-07-23T10:02:59.0000000+00:00</time></trkpt><trkpt lat="64.00016785" lon="-19.05062485"><ele>602.9</ele><time>2012-07-23T10:03:04.0000000+00:00</time></trkpt><trkpt lat="64.00022888" lon="-19.05058098"><ele>603.1</ele><time>2012-07-23T10:03:09.0000000+00:00</time></trkpt><trkpt lat="64.00028229" lon="-19.05052757"><ele>602.6</ele><time>2012-07-23T10:03:14.0000000+00:00</time></trkpt><trkpt lat="64.00034332" lon="-19.05048752"><ele>603.1</ele><time>2012-07-23T10:03:19.0000000+00:00</time></trkpt><trkpt lat="64.00040436" lon="-19.05048561"><ele>603.4</ele><time>2012-07-23T10:03:24.0000000+00:00</time></trkpt><trkpt lat="64.00043488" lon="-19.05044174"><ele>603.4</ele><time>2012-07-23T10:03:29.0000000+00:00</time></trkpt><trkpt lat="64.00048065" lon="-19.05037689"><ele>603.9</ele><time>2012-07-23T10:03:34.0000000+00:00</time></trkpt><trkpt lat="64.00054169" lon="-19.05030441"><ele>603.2</ele><time>2012-07-23T10:03:39.0000000+00:00</time></trkpt><trkpt lat="64.00060272" lon="-19.0502224"><ele>603.1</ele><time>2012-07-23T10:03:44.0000000+00:00</time></trkpt><trkpt lat="64.0006485" lon="-19.05014229"><ele>603.3</ele><time>2012-07-23T10:03:49.0000000+00:00</time></trkpt><trkpt lat="64.00069428" lon="-19.05006218"><ele>603.3</ele><time>2012-07-23T10:03:54.0000000+00:00</time></trkpt><trkpt lat="64.00075531" lon="-19.05000305"><ele>603.5</ele><time>2012-07-23T10:03:59.0000000+00:00</time></trkpt><trkpt lat="64.00080872" lon="-19.0499363"><ele>603.0</ele><time>2012-07-23T10:04:04.0000000+00:00</time></trkpt><trkpt lat="64.00086212" lon="-19.04985428"><ele>602.7</ele><time>2012-07-23T10:04:09.0000000+00:00</time></trkpt><trkpt lat="64.00091553" lon="-19.04979134"><ele>602.4</ele><time>2012-07-23T10:04:14.0000000+00:00</time></trkpt><trkpt lat="64.00096893" lon="-19.04973793"><ele>602.3</ele><time>2012-07-23T10:04:19.0000000+00:00</time></trkpt><trkpt lat="64.00097656" lon="-19.04974175"><ele>602.4</ele><time>2012-07-23T10:04:24.0000000+00:00</time></trkpt><trkpt lat="64.00101471" lon="-19.04967499"><ele>601.4</ele><time>2012-07-23T10:04:29.0000000+00:00</time></trkpt><trkpt lat="64.00105286" lon="-19.04960823"><ele>601.0</ele><time>2012-07-23T10:04:34.0000000+00:00</time></trkpt><trkpt lat="64.00109863" lon="-19.04953384"><ele>600.9</ele><time>2012-07-23T10:04:39.0000000+00:00</time></trkpt><trkpt lat="64.00113678" lon="-19.04950714"><ele>600.8</ele><time>2012-07-23T10:04:44.0000000+00:00</time></trkpt><trkpt lat="64.00115204" lon="-19.04963875"><ele>601.1</ele><time>2012-07-23T10:04:49.0000000+00:00</time></trkpt><trkpt lat="64.00117493" lon="-19.04977417"><ele>601.5</ele><time>2012-07-23T10:04:54.0000000+00:00</time></trkpt><trkpt lat="64.00117493" lon="-19.04991531"><ele>601.4</ele><time>2012-07-23T10:04:59.0000000+00:00</time></trkpt><trkpt lat="64.00118256" lon="-19.05007553"><ele>602.3</ele><time>2012-07-23T10:05:04.0000000+00:00</time></trkpt><trkpt lat="64.0011673" lon="-19.05020523"><ele>602.9</ele><time>2012-07-23T10:05:09.0000000+00:00</time></trkpt><trkpt lat="64.0011673" lon="-19.05031776"><ele>602.1</ele><time>2012-07-23T10:05:14.0000000+00:00</time></trkpt><trkpt lat="64.00120544" lon="-19.05039215"><ele>603.0</ele><time>2012-07-23T10:05:19.0000000+00:00</time></trkpt><trkpt lat="64.00124359" lon="-19.0504818"><ele>603.8</ele><time>2012-07-23T10:05:24.0000000+00:00</time></trkpt><trkpt lat="64.00126648" lon="-19.05059052"><ele>604.4</ele><time>2012-07-23T10:05:29.0000000+00:00</time></trkpt><trkpt lat="64.00128174" lon="-19.05071259"><ele>605.2</ele><time>2012-07-23T10:05:34.0000000+00:00</time></trkpt><trkpt lat="64.00128937" lon="-19.05081177"><ele>605.3</ele><time>2012-07-23T10:05:39.0000000+00:00</time></trkpt><trkpt lat="64.00131989" lon="-19.05089378"><ele>605.7</ele><time>2012-07-23T10:05:44.0000000+00:00</time></trkpt><trkpt lat="64.00134277" lon="-19.05099487"><ele>604.6</ele><time>2012-07-23T10:05:49.0000000+00:00</time></trkpt><trkpt lat="64.00135803" lon="-19.05110931"><ele>604.9</ele><time>2012-07-23T10:05:54.0000000+00:00</time></trkpt><trkpt lat="64.00138855" lon="-19.0511837"><ele>604.7</ele><time>2012-07-23T10:05:59.0000000+00:00</time></trkpt><trkpt lat="64.0014267" lon="-19.05122376"><ele>603.7</ele><time>2012-07-23T10:06:04.0000000+00:00</time></trkpt><trkpt lat="64.00146484" lon="-19.05129242"><ele>604.4</ele><time>2012-07-23T10:06:09.0000000+00:00</time></trkpt><trkpt lat="64.00151825" lon="-19.05137062"><ele>604.9</ele><time>2012-07-23T10:06:14.0000000+00:00</time></trkpt><trkpt lat="64.00157166" lon="-19.05145645"><ele>604.4</ele><time>2012-07-23T10:06:19.0000000+00:00</time></trkpt><trkpt lat="64.0016098" lon="-19.05153275"><ele>604.8</ele><time>2012-07-23T10:06:24.0000000+00:00</time></trkpt><trkpt lat="64.00165558" lon="-19.05162239"><ele>604.3</ele><time>2012-07-23T10:06:29.0000000+00:00</time></trkpt><trkpt lat="64.0016861" lon="-19.05174637"><ele>603.9</ele><time>2012-07-23T10:06:34.0000000+00:00</time></trkpt><trkpt lat="64.00172424" lon="-19.05184174"><ele>603.8</ele><time>2012-07-23T10:06:39.0000000+00:00</time></trkpt><trkpt lat="64.00174713" lon="-19.05191803"><ele>602.5</ele><time>2012-07-23T10:06:44.0000000+00:00</time></trkpt><trkpt lat="64.00175476" lon="-19.05203629"><ele>602.4</ele><time>2012-07-23T10:06:49.0000000+00:00</time></trkpt><trkpt lat="64.00177002" lon="-19.05217934"><ele>601.7</ele><time>2012-07-23T10:06:54.0000000+00:00</time></trkpt><trkpt lat="64.00180054" lon="-19.05226135"><ele>602.1</ele><time>2012-07-23T10:06:59.0000000+00:00</time></trkpt><trkpt lat="64.00183868" lon="-19.05238724"><ele>600.7</ele><time>2012-07-23T10:07:04.0000000+00:00</time></trkpt><trkpt lat="64.00183106" lon="-19.05250931"><ele>600.7</ele><time>2012-07-23T10:07:09.0000000+00:00</time></trkpt><trkpt lat="64.00182343" lon="-19.05259895"><ele>601.3</ele><time>2012-07-23T10:07:14.0000000+00:00</time></trkpt><trkpt lat="64.00180054" lon="-19.05267716"><ele>601.8</ele><time>2012-07-23T10:07:19.0000000+00:00</time></trkpt><trkpt lat="64.00180817" lon="-19.05270767"><ele>602.3</ele><time>2012-07-23T10:07:24.0000000+00:00</time></trkpt><trkpt lat="64.00183868" lon="-19.05277252"><ele>601.4</ele><time>2012-07-23T10:07:29.0000000+00:00</time></trkpt><trkpt lat="64.00187683" lon="-19.05284691"><ele>601.3</ele><time>2012-07-23T10:07:34.0000000+00:00</time></trkpt><trkpt lat="64.00190735" lon="-19.05293465"><ele>602.0</ele><time>2012-07-23T10:07:39.0000000+00:00</time></trkpt><trkpt lat="64.00191498" lon="-19.05305672"><ele>603.0</ele><time>2012-07-23T10:07:44.0000000+00:00</time></trkpt><trkpt lat="64.00192261" lon="-19.05317688"><ele>603.6</ele><time>2012-07-23T10:07:49.0000000+00:00</time></trkpt><trkpt lat="64.00192261" lon="-19.05328369"><ele>603.7</ele><time>2012-07-23T10:07:54.0000000+00:00</time></trkpt><trkpt lat="64.00192261" lon="-19.05342102"><ele>605.1</ele><time>2012-07-23T10:07:59.0000000+00:00</time></trkpt><trkpt lat="64.00190735" lon="-19.0534668"><ele>605.3</ele><time>2012-07-23T10:08:04.0000000+00:00</time></trkpt><trkpt lat="64.00192261" lon="-19.05349922"><ele>606.3</ele><time>2012-07-23T10:08:09.0000000+00:00</time></trkpt><trkpt lat="64.00193787" lon="-19.05355454"><ele>607.1</ele><time>2012-07-23T10:08:14.0000000+00:00</time></trkpt><trkpt lat="64.00196075" lon="-19.05355263"><ele>608.1</ele><time>2012-07-23T10:08:19.0000000+00:00</time></trkpt><trkpt lat="64.00199127" lon="-19.05361176"><ele>609.9</ele><time>2012-07-23T10:08:24.0000000+00:00</time></trkpt><trkpt lat="64.00202179" lon="-19.05364227"><ele>611.9</ele><time>2012-07-23T10:08:29.0000000+00:00</time></trkpt><trkpt lat="64.00203705" lon="-19.0536747"><ele>612.8</ele><time>2012-07-23T10:08:34.0000000+00:00</time></trkpt><trkpt lat="64.00204468" lon="-19.05367088"><ele>613.1</ele><time>2012-07-23T10:08:39.0000000+00:00</time></trkpt><trkpt lat="64.00205231" lon="-19.05367851"><ele>613.7</ele><time>2012-07-23T10:08:44.0000000+00:00</time></trkpt><trkpt lat="64.00205994" lon="-19.0537777"><ele>615.8</ele><time>2012-07-23T10:08:49.0000000+00:00</time></trkpt><trkpt lat="64.00204468" lon="-19.05382538"><ele>616.6</ele><time>2012-07-23T10:08:54.0000000+00:00</time></trkpt><trkpt lat="64.0020752" lon="-19.0538826"><ele>617.9</ele><time>2012-07-23T10:08:59.0000000+00:00</time></trkpt><trkpt lat="64.00210571" lon="-19.05388451"><ele>618.9</ele><time>2012-07-23T10:09:04.0000000+00:00</time></trkpt><trkpt lat="64.00213623" lon="-19.05391502"><ele>620.3</ele><time>2012-07-23T10:09:09.0000000+00:00</time></trkpt><trkpt lat="64.00215149" lon="-19.05392265"><ele>621.4</ele><time>2012-07-23T10:09:14.0000000+00:00</time></trkpt><trkpt lat="64.00215149" lon="-19.05393791"><ele>621.9</ele><time>2012-07-23T10:09:19.0000000+00:00</time></trkpt><trkpt lat="64.00218201" lon="-19.05394554"><ele>622.7</ele><time>2012-07-23T10:09:24.0000000+00:00</time></trkpt><trkpt lat="64.00222015" lon="-19.05395126"><ele>623.6</ele><time>2012-07-23T10:09:29.0000000+00:00</time></trkpt><trkpt lat="64.00222778" lon="-19.05397415"><ele>624.0</ele><time>2012-07-23T10:09:34.0000000+00:00</time></trkpt><trkpt lat="64.00222778" lon="-19.05397987"><ele>624.2</ele><time>2012-07-23T10:09:39.0000000+00:00</time></trkpt><trkpt lat="64.00225067" lon="-19.05399895"><ele>626.0</ele><time>2012-07-23T10:09:44.0000000+00:00</time></trkpt><trkpt lat="64.00228119" lon="-19.05402184"><ele>628.0</ele><time>2012-07-23T10:09:49.0000000+00:00</time></trkpt><trkpt lat="64.00229645" lon="-19.05399513"><ele>629.4</ele><time>2012-07-23T10:09:54.0000000+00:00</time></trkpt><trkpt lat="64.00231171" lon="-19.05397034"><ele>630.9</ele><time>2012-07-23T10:09:59.0000000+00:00</time></trkpt><trkpt lat="64.00234985" lon="-19.05397606"><ele>632.5</ele><time>2012-07-23T10:10:04.0000000+00:00</time></trkpt><trkpt lat="64.00237274" lon="-19.05400848"><ele>633.3</ele><time>2012-07-23T10:10:09.0000000+00:00</time></trkpt><trkpt lat="64.00241089" lon="-19.05404472"><ele>634.4</ele><time>2012-07-23T10:10:14.0000000+00:00</time></trkpt><trkpt lat="64.00244904" lon="-19.05408287"><ele>635.2</ele><time>2012-07-23T10:10:19.0000000+00:00</time></trkpt><trkpt lat="64.00247192" lon="-19.05411339"><ele>635.8</ele><time>2012-07-23T10:10:24.0000000+00:00</time></trkpt><trkpt lat="64.0025177" lon="-19.05416679"><ele>637.2</ele><time>2012-07-23T10:10:29.0000000+00:00</time></trkpt><trkpt lat="64.00255585" lon="-19.05421829"><ele>638.9</ele><time>2012-07-23T10:10:34.0000000+00:00</time></trkpt><trkpt lat="64.00257874" lon="-19.054245"><ele>640.0</ele><time>2012-07-23T10:10:39.0000000+00:00</time></trkpt><trkpt lat="64.00261688" lon="-19.05424881"><ele>641.7</ele><time>2012-07-23T10:10:44.0000000+00:00</time></trkpt><trkpt lat="64.0026474" lon="-19.05424118"><ele>642.3</ele><time>2012-07-23T10:10:49.0000000+00:00</time></trkpt><trkpt lat="64.00265503" lon="-19.05421829"><ele>642.6</ele><time>2012-07-23T10:10:54.0000000+00:00</time></trkpt><trkpt lat="64.0026474" lon="-19.05422783"><ele>642.4</ele><time>2012-07-23T10:10:59.0000000+00:00</time></trkpt><trkpt lat="64.0026474" lon="-19.05422592"><ele>642.4</ele><time>2012-07-23T10:11:04.0000000+00:00</time></trkpt><trkpt lat="64.0026474" lon="-19.05423164"><ele>642.3</ele><time>2012-07-23T10:11:09.0000000+00:00</time></trkpt><trkpt lat="64.0026474" lon="-19.05423355"><ele>642.3</ele><time>2012-07-23T10:11:14.0000000+00:00</time></trkpt><trkpt lat="64.0026474" lon="-19.05423737"><ele>642.3</ele><time>2012-07-23T10:11:19.0000000+00:00</time></trkpt><trkpt lat="64.00268555" lon="-19.05426025"><ele>643.2</ele><time>2012-07-23T10:11:24.0000000+00:00</time></trkpt><trkpt lat="64.00272369" lon="-19.05428314"><ele>644.4</ele><time>2012-07-23T10:11:29.0000000+00:00</time></trkpt><trkpt lat="64.00276184" lon="-19.05430412"><ele>645.9</ele><time>2012-07-23T10:11:34.0000000+00:00</time></trkpt><trkpt lat="64.00279999" lon="-19.05433273"><ele>647.1</ele><time>2012-07-23T10:11:39.0000000+00:00</time></trkpt><trkpt lat="64.00283051" lon="-19.05432892"><ele>648.4</ele><time>2012-07-23T10:11:44.0000000+00:00</time></trkpt><trkpt lat="64.00285339" lon="-19.0543251"><ele>649.8</ele><time>2012-07-23T10:11:49.0000000+00:00</time></trkpt><trkpt lat="64.00289154" lon="-19.05435753"><ele>650.7</ele><time>2012-07-23T10:11:54.0000000+00:00</time></trkpt><trkpt lat="64.00292206" lon="-19.0544281"><ele>651.7</ele><time>2012-07-23T10:11:59.0000000+00:00</time></trkpt><trkpt lat="64.00296021" lon="-19.0545044"><ele>652.3</ele><time>2012-07-23T10:12:04.0000000+00:00</time></trkpt><trkpt lat="64.00299835" lon="-19.05457687"><ele>653.0</ele><time>2012-07-23T10:12:09.0000000+00:00</time></trkpt><trkpt lat="64.00302887" lon="-19.05463982"><ele>653.9</ele><time>2012-07-23T10:12:14.0000000+00:00</time></trkpt><trkpt lat="64.00306702" lon="-19.05472565"><ele>655.5</ele><time>2012-07-23T10:12:19.0000000+00:00</time></trkpt><trkpt lat="64.00308991" lon="-19.05478096"><ele>656.8</ele><time>2012-07-23T10:12:24.0000000+00:00</time></trkpt><trkpt lat="64.00311279" lon="-19.05485916"><ele>657.7</ele><time>2012-07-23T10:12:29.0000000+00:00</time></trkpt><trkpt lat="64.00313568" lon="-19.0549202"><ele>659.2</ele><time>2012-07-23T10:12:34.0000000+00:00</time></trkpt><trkpt lat="64.00313568" lon="-19.05489922"><ele>659.5</ele><time>2012-07-23T10:12:39.0000000+00:00</time></trkpt><trkpt lat="64.00315857" lon="-19.05493927"><ele>660.1</ele><time>2012-07-23T10:12:44.0000000+00:00</time></trkpt><trkpt lat="64.00317383" lon="-19.05497932"><ele>660.9</ele><time>2012-07-23T10:12:49.0000000+00:00</time></trkpt><trkpt lat="64.00319672" lon="-19.05503655"><ele>661.2</ele><time>2012-07-23T10:12:54.0000000+00:00</time></trkpt><trkpt lat="64.00322723" lon="-19.05508614"><ele>663.0</ele><time>2012-07-23T10:12:59.0000000+00:00</time></trkpt><trkpt lat="64.00325012" lon="-19.0551281"><ele>663.8</ele><time>2012-07-23T10:13:04.0000000+00:00</time></trkpt><trkpt lat="64.00327301" lon="-19.05518341"><ele>664.7</ele><time>2012-07-23T10:13:09.0000000+00:00</time></trkpt><trkpt lat="64.00331116" lon="-19.05522347"><ele>664.8</ele><time>2012-07-23T10:13:14.0000000+00:00</time></trkpt><trkpt lat="64.00331879" lon="-19.055233"><ele>664.3</ele><time>2012-07-23T10:13:19.0000000+00:00</time></trkpt><trkpt lat="64.0033493" lon="-19.05527687"><ele>663.8</ele><time>2012-07-23T10:13:24.0000000+00:00</time></trkpt><trkpt lat="64.00337219" lon="-19.05530167"><ele>665.1</ele><time>2012-07-23T10:13:29.0000000+00:00</time></trkpt><trkpt lat="64.00337982" lon="-19.05534935"><ele>666.9</ele><time>2012-07-23T10:13:34.0000000+00:00</time></trkpt><trkpt lat="64.00337982" lon="-19.05537033"><ele>667.5</ele><time>2012-07-23T10:13:39.0000000+00:00</time></trkpt><trkpt lat="64.00337982" lon="-19.05538559"><ele>667.4</ele><time>2012-07-23T10:13:44.0000000+00:00</time></trkpt><trkpt lat="64.00340271" lon="-19.05542946"><ele>668.8</ele><time>2012-07-23T10:13:49.0000000+00:00</time></trkpt><trkpt lat="64.00341797" lon="-19.0554409"><ele>671.2</ele><time>2012-07-23T10:13:54.0000000+00:00</time></trkpt><trkpt lat="64.00341797" lon="-19.0554409"><ele>671.3</ele><time>2012-07-23T10:13:59.0000000+00:00</time></trkpt><trkpt lat="64.00344086" lon="-19.05545807"><ele>672.6</ele><time>2012-07-23T10:14:04.0000000+00:00</time></trkpt><trkpt lat="64.00347138" lon="-19.05545425"><ele>673.8</ele><time>2012-07-23T10:14:09.0000000+00:00</time></trkpt><trkpt lat="64.00350189" lon="-19.05547142"><ele>675.1</ele><time>2012-07-23T10:14:14.0000000+00:00</time></trkpt><trkpt lat="64.00351715" lon="-19.0554924"><ele>676.5</ele><time>2012-07-23T10:14:19.0000000+00:00</time></trkpt><trkpt lat="64.00353241" lon="-19.05550194"><ele>677.6</ele><time>2012-07-23T10:14:24.0000000+00:00</time></trkpt><trkpt lat="64.00354767" lon="-19.05550003"><ele>677.5</ele><time>2012-07-23T10:14:29.0000000+00:00</time></trkpt><trkpt lat="64.0035553" lon="-19.05547714"><ele>677.9</ele><time>2012-07-23T10:14:34.0000000+00:00</time></trkpt><trkpt lat="64.00356293" lon="-19.05545616"><ele>678.8</ele><time>2012-07-23T10:14:39.0000000+00:00</time></trkpt><trkpt lat="64.00359345" lon="-19.05545044"><ele>679.8</ele><time>2012-07-23T10:14:44.0000000+00:00</time></trkpt><trkpt lat="64.00361633" lon="-19.05542374"><ele>681.4</ele><time>2012-07-23T10:14:49.0000000+00:00</time></trkpt><trkpt lat="64.00362396" lon="-19.0554409"><ele>681.9</ele><time>2012-07-23T10:14:54.0000000+00:00</time></trkpt><trkpt lat="64.00364685" lon="-19.05545235"><ele>681.9</ele><time>2012-07-23T10:14:59.0000000+00:00</time></trkpt><trkpt lat="64.00367737" lon="-19.05549049"><ele>683.6</ele><time>2012-07-23T10:15:04.0000000+00:00</time></trkpt><trkpt lat="64.00370026" lon="-19.05551338"><ele>685.7</ele><time>2012-07-23T10:15:09.0000000+00:00</time></trkpt><trkpt lat="64.00373077" lon="-19.05550957"><ele>686.9</ele><time>2012-07-23T10:15:14.0000000+00:00</time></trkpt><trkpt lat="64.00375366" lon="-19.05550575"><ele>687.9</ele><time>2012-07-23T10:15:19.0000000+00:00</time></trkpt><trkpt lat="64.00377655" lon="-19.05548668"><ele>689.2</ele><time>2012-07-23T10:15:24.0000000+00:00</time></trkpt><trkpt lat="64.00380707" lon="-19.05546379"><ele>689.6</ele><time>2012-07-23T10:15:29.0000000+00:00</time></trkpt><trkpt lat="64.00382996" lon="-19.05545044"><ele>690.5</ele><time>2012-07-23T10:15:34.0000000+00:00</time></trkpt><trkpt lat="64.00382233" lon="-19.05545616"><ele>692.0</ele><time>2012-07-23T10:15:39.0000000+00:00</time></trkpt><trkpt lat="64.00382996" lon="-19.05545425"><ele>692.0</ele><time>2012-07-23T10:15:44.0000000+00:00</time></trkpt><trkpt lat="64.00383759" lon="-19.05537796"><ele>693.8</ele><time>2012-07-23T10:15:49.0000000+00:00</time></trkpt><trkpt lat="64.00383759" lon="-19.05528832"><ele>696.1</ele><time>2012-07-23T10:15:54.0000000+00:00</time></trkpt><trkpt lat="64.00384522" lon="-19.05519486"><ele>697.1</ele><time>2012-07-23T10:15:59.0000000+00:00</time></trkpt><trkpt lat="64.0038681" lon="-19.05516243"><ele>697.6</ele><time>2012-07-23T10:16:04.0000000+00:00</time></trkpt><trkpt lat="64.00389099" lon="-19.05511856"><ele>698.3</ele><time>2012-07-23T10:16:09.0000000+00:00</time></trkpt><trkpt lat="64.00392914" lon="-19.05509567"><ele>699.2</ele><time>2012-07-23T10:16:14.0000000+00:00</time></trkpt><trkpt lat="64.00395966" lon="-19.05505371"><ele>699.6</ele><time>2012-07-23T10:16:19.0000000+00:00</time></trkpt><trkpt lat="64.00396729" lon="-19.05498123"><ele>700.8</ele><time>2012-07-23T10:16:24.0000000+00:00</time></trkpt><trkpt lat="64.00396729" lon="-19.05490875"><ele>702.1</ele><time>2012-07-23T10:16:29.0000000+00:00</time></trkpt><trkpt lat="64.00395203" lon="-19.05490112"><ele>700.6</ele><time>2012-07-23T10:16:34.0000000+00:00</time></trkpt><trkpt lat="64.00395203" lon="-19.05489731"><ele>700.3</ele><time>2012-07-23T10:16:39.0000000+00:00</time></trkpt><trkpt lat="64.00395203" lon="-19.05489922"><ele>700.1</ele><time>2012-07-23T10:16:44.0000000+00:00</time></trkpt><trkpt lat="64.00395203" lon="-19.05489349"><ele>699.7</ele><time>2012-07-23T10:16:49.0000000+00:00</time></trkpt><trkpt lat="64.00395203" lon="-19.05489349"><ele>699.7</ele><time>2012-07-23T10:16:54.0000000+00:00</time></trkpt><trkpt lat="64.00395203" lon="-19.0548954"><ele>699.7</ele><time>2012-07-23T10:16:59.0000000+00:00</time></trkpt><trkpt lat="64.00395203" lon="-19.0548954"><ele>699.6</ele><time>2012-07-23T10:17:04.0000000+00:00</time></trkpt><trkpt lat="64.00395203" lon="-19.05489731"><ele>699.6</ele><time>2012-07-23T10:17:09.0000000+00:00</time></trkpt><trkpt lat="64.00395203" lon="-19.0548954"><ele>699.4</ele><time>2012-07-23T10:17:14.0000000+00:00</time></trkpt><trkpt lat="64.00395203" lon="-19.0548954"><ele>699.5</ele><time>2012-07-23T10:17:19.0000000+00:00</time></trkpt><trkpt lat="64.00395203" lon="-19.0548954"><ele>699.5</ele><time>2012-07-23T10:17:24.0000000+00:00</time></trkpt><trkpt lat="64.00395203" lon="-19.0548954"><ele>699.5</ele><time>2012-07-23T10:17:29.0000000+00:00</time></trkpt><trkpt lat="64.00395203" lon="-19.0548954"><ele>699.5</ele><time>2012-07-23T10:17:34.0000000+00:00</time></trkpt><trkpt lat="64.00395966" lon="-19.05489731"><ele>699.5</ele><time>2012-07-23T10:17:39.0000000+00:00</time></trkpt><trkpt lat="64.00395966" lon="-19.05489731"><ele>699.6</ele><time>2012-07-23T10:17:44.0000000+00:00</time></trkpt><trkpt lat="64.00395966" lon="-19.05489731"><ele>699.5</ele><time>2012-07-23T10:17:49.0000000+00:00</time></trkpt><trkpt lat="64.00395966" lon="-19.05489731"><ele>699.5</ele><time>2012-07-23T10:17:54.0000000+00:00</time></trkpt><trkpt lat="64.00395966" lon="-19.05489731"><ele>699.5</ele><time>2012-07-23T10:17:59.0000000+00:00</time></trkpt><trkpt lat="64.00395966" lon="-19.05489731"><ele>699.6</ele><time>2012-07-23T10:18:04.0000000+00:00</time></trkpt><trkpt lat="64.00395966" lon="-19.05490303"><ele>700.6</ele><time>2012-07-23T10:18:09.0000000+00:00</time></trkpt><trkpt lat="64.00395966" lon="-19.05491829"><ele>701.0</ele><time>2012-07-23T10:18:14.0000000+00:00</time></trkpt><trkpt lat="64.00393677" lon="-19.05484772"><ele>701.8</ele><time>2012-07-23T10:18:19.0000000+00:00</time></trkpt><trkpt lat="64.00392914" lon="-19.05480385"><ele>702.2</ele><time>2012-07-23T10:18:24.0000000+00:00</time></trkpt><trkpt lat="64.00392914" lon="-19.05480194"><ele>702.0</ele><time>2012-07-23T10:18:29.0000000+00:00</time></trkpt><trkpt lat="64.00393677" lon="-19.05480194"><ele>702.0</ele><time>2012-07-23T10:18:34.0000000+00:00</time></trkpt><trkpt lat="64.00393677" lon="-19.05473518"><ele>701.1</ele><time>2012-07-23T10:18:39.0000000+00:00</time></trkpt><trkpt lat="64.00395966" lon="-19.05460358"><ele>700.8</ele><time>2012-07-23T10:18:44.0000000+00:00</time></trkpt><trkpt lat="64.00400543" lon="-19.05450249"><ele>700.0</ele><time>2012-07-23T10:18:49.0000000+00:00</time></trkpt><trkpt lat="64.00403595" lon="-19.05438232"><ele>699.6</ele><time>2012-07-23T10:18:54.0000000+00:00</time></trkpt><trkpt lat="64.00405121" lon="-19.05424881"><ele>699.3</ele><time>2012-07-23T10:18:59.0000000+00:00</time></trkpt><trkpt lat="64.00408173" lon="-19.05413246"><ele>698.9</ele><time>2012-07-23T10:19:04.0000000+00:00</time></trkpt><trkpt lat="64.00410461" lon="-19.05400467"><ele>698.3</ele><time>2012-07-23T10:19:09.0000000+00:00</time></trkpt><trkpt lat="64.00413513" lon="-19.05386162"><ele>698.2</ele><time>2012-07-23T10:19:14.0000000+00:00</time></trkpt><trkpt lat="64.00417328" lon="-19.05373192"><ele>698.6</ele><time>2012-07-23T10:19:19.0000000+00:00</time></trkpt><trkpt lat="64.00421143" lon="-19.05362701"><ele>698.9</ele><time>2012-07-23T10:19:24.0000000+00:00</time></trkpt><trkpt lat="64.00424957" lon="-19.05352974"><ele>698.4</ele><time>2012-07-23T10:19:29.0000000+00:00</time></trkpt><trkpt lat="64.00429535" lon="-19.05344772"><ele>697.7</ele><time>2012-07-23T10:19:34.0000000+00:00</time></trkpt><trkpt lat="64.00434876" lon="-19.05337334"><ele>697.7</ele><time>2012-07-23T10:19:39.0000000+00:00</time></trkpt><trkpt lat="64.00440216" lon="-19.05331421"><ele>697.9</ele><time>2012-07-23T10:19:44.0000000+00:00</time></trkpt><trkpt lat="64.00440979" lon="-19.05330086"><ele>697.7</ele><time>2012-07-23T10:19:49.0000000+00:00</time></trkpt><trkpt lat="64.00440979" lon="-19.05330277"><ele>697.6</ele><time>2012-07-23T10:19:54.0000000+00:00</time></trkpt><trkpt lat="64.00440979" lon="-19.05330849"><ele>697.8</ele><time>2012-07-23T10:19:59.0000000+00:00</time></trkpt><trkpt lat="64.00440216" lon="-19.05332184"><ele>698.0</ele><time>2012-07-23T10:20:04.0000000+00:00</time></trkpt><trkpt lat="64.00444794" lon="-19.05324745"><ele>697.6</ele><time>2012-07-23T10:20:09.0000000+00:00</time></trkpt><trkpt lat="64.00450897" lon="-19.05319405"><ele>697.5</ele><time>2012-07-23T10:20:14.0000000+00:00</time></trkpt><trkpt lat="64.00457001" lon="-19.05317879"><ele>698.3</ele><time>2012-07-23T10:20:19.0000000+00:00</time></trkpt><trkpt lat="64.00462341" lon="-19.05317688"><ele>699.9</ele><time>2012-07-23T10:20:24.0000000+00:00</time></trkpt><trkpt lat="64.00466919" lon="-19.05317307"><ele>701.2</ele><time>2012-07-23T10:20:29.0000000+00:00</time></trkpt><trkpt lat="64.00470734" lon="-19.05319405"><ele>702.0</ele><time>2012-07-23T10:20:34.0000000+00:00</time></trkpt><trkpt lat="64.0047226" lon="-19.0532608"><ele>701.6</ele><time>2012-07-23T10:20:39.0000000+00:00</time></trkpt><trkpt lat="64.00476074" lon="-19.05328941"><ele>702.8</ele><time>2012-07-23T10:20:44.0000000+00:00</time></trkpt><trkpt lat="64.00478363" lon="-19.05334091"><ele>703.3</ele><time>2012-07-23T10:20:49.0000000+00:00</time></trkpt><trkpt lat="64.00481415" lon="-19.05337334"><ele>703.4</ele><time>2012-07-23T10:20:54.0000000+00:00</time></trkpt><trkpt lat="64.0048523" lon="-19.05336762"><ele>703.9</ele><time>2012-07-23T10:20:59.0000000+00:00</time></trkpt><trkpt lat="64.00488281" lon="-19.05331802"><ele>704.7</ele><time>2012-07-23T10:21:04.0000000+00:00</time></trkpt><trkpt lat="64.00492859" lon="-19.05331802"><ele>706.2</ele><time>2012-07-23T10:21:09.0000000+00:00</time></trkpt><trkpt lat="64.00495911" lon="-19.05331421"><ele>707.3</ele><time>2012-07-23T10:21:14.0000000+00:00</time></trkpt><trkpt lat="64.00498962" lon="-19.05329514"><ele>707.9</ele><time>2012-07-23T10:21:19.0000000+00:00</time></trkpt><trkpt lat="64.00502014" lon="-19.05326843"><ele>709.2</ele><time>2012-07-23T10:21:24.0000000+00:00</time></trkpt><trkpt lat="64.00505829" lon="-19.05328369"><ele>709.6</ele><time>2012-07-23T10:21:29.0000000+00:00</time></trkpt><trkpt lat="64.00508881" lon="-19.05324745"><ele>711.4</ele><time>2012-07-23T10:21:34.0000000+00:00</time></trkpt><trkpt lat="64.00512695" lon="-19.05326653"><ele>712.1</ele><time>2012-07-23T10:21:39.0000000+00:00</time></trkpt><trkpt lat="64.00517273" lon="-19.05321121"><ele>712.9</ele><time>2012-07-23T10:21:44.0000000+00:00</time></trkpt><trkpt lat="64.00521088" lon="-19.05315971"><ele>713.4</ele><time>2012-07-23T10:21:49.0000000+00:00</time></trkpt><trkpt lat="64.00524139" lon="-19.05313492"><ele>714.3</ele><time>2012-07-23T10:21:54.0000000+00:00</time></trkpt><trkpt lat="64.00527954" lon="-19.05308151"><ele>715.0</ele><time>2012-07-23T10:21:59.0000000+00:00</time></trkpt><trkpt lat="64.00531006" lon="-19.05301285"><ele>716.0</ele><time>2012-07-23T10:22:04.0000000+00:00</time></trkpt><trkpt lat="64.00534821" lon="-19.05295563"><ele>716.0</ele><time>2012-07-23T10:22:09.0000000+00:00</time></trkpt><trkpt lat="64.00539398" lon="-19.05293274"><ele>716.3</ele><time>2012-07-23T10:22:14.0000000+00:00</time></trkpt><trkpt lat="64.00543976" lon="-19.05291176"><ele>716.1</ele><time>2012-07-23T10:22:19.0000000+00:00</time></trkpt><trkpt lat="64.00547028" lon="-19.05287933"><ele>716.3</ele><time>2012-07-23T10:22:24.0000000+00:00</time></trkpt><trkpt lat="64.00549316" lon="-19.05284691"><ele>716.7</ele><time>2012-07-23T10:22:29.0000000+00:00</time></trkpt><trkpt lat="64.00549316" lon="-19.05284882"><ele>716.8</ele><time>2012-07-23T10:22:34.0000000+00:00</time></trkpt><trkpt lat="64.00549316" lon="-19.05285072"><ele>716.8</ele><time>2012-07-23T10:22:39.0000000+00:00</time></trkpt><trkpt lat="64.00549316" lon="-19.05280304"><ele>717.0</ele><time>2012-07-23T10:22:44.0000000+00:00</time></trkpt><trkpt lat="64.00553131" lon="-19.05269241"><ele>717.5</ele><time>2012-07-23T10:22:49.0000000+00:00</time></trkpt><trkpt lat="64.00556946" lon="-19.05259323"><ele>717.5</ele><time>2012-07-23T10:22:54.0000000+00:00</time></trkpt><trkpt lat="64.00559998" lon="-19.05249977"><ele>717.7</ele><time>2012-07-23T10:22:59.0000000+00:00</time></trkpt><trkpt lat="64.00563049" lon="-19.0524025"><ele>717.1</ele><time>2012-07-23T10:23:04.0000000+00:00</time></trkpt><trkpt lat="64.00565338" lon="-19.05231285"><ele>717.3</ele><time>2012-07-23T10:23:09.0000000+00:00</time></trkpt><trkpt lat="64.0056839" lon="-19.05222702"><ele>717.3</ele><time>2012-07-23T10:23:14.0000000+00:00</time></trkpt><trkpt lat="64.00572205" lon="-19.05215073"><ele>716.9</ele><time>2012-07-23T10:23:19.0000000+00:00</time></trkpt><trkpt lat="64.00576782" lon="-19.05209351"><ele>716.5</ele><time>2012-07-23T10:23:24.0000000+00:00</time></trkpt><trkpt lat="64.00580597" lon="-19.05203438"><ele>715.8</ele><time>2012-07-23T10:23:29.0000000+00:00</time></trkpt><trkpt lat="64.00583649" lon="-19.05195808"><ele>715.8</ele><time>2012-07-23T10:23:34.0000000+00:00</time></trkpt><trkpt lat="64.00587463" lon="-19.0518837"><ele>715.3</ele><time>2012-07-23T10:23:39.0000000+00:00</time></trkpt><trkpt lat="64.00588989" lon="-19.05183792"><ele>715.1</ele><time>2012-07-23T10:23:44.0000000+00:00</time></trkpt><trkpt lat="64.00589752" lon="-19.05184364"><ele>715.0</ele><time>2012-07-23T10:23:49.0000000+00:00</time></trkpt><trkpt lat="64.00589752" lon="-19.05184555"><ele>715.0</ele><time>2012-07-23T10:23:54.0000000+00:00</time></trkpt><trkpt lat="64.00592041" lon="-19.05178452"><ele>714.6</ele><time>2012-07-23T10:23:59.0000000+00:00</time></trkpt><trkpt lat="64.00595856" lon="-19.05171776"><ele>714.0</ele><time>2012-07-23T10:24:04.0000000+00:00</time></trkpt><trkpt lat="64.0059967" lon="-19.05168724"><ele>713.4</ele><time>2012-07-23T10:24:09.0000000+00:00</time></trkpt><trkpt lat="64.00603485" lon="-19.05165482"><ele>712.6</ele><time>2012-07-23T10:24:14.0000000+00:00</time></trkpt><trkpt lat="64.006073" lon="-19.05160141"><ele>711.7</ele><time>2012-07-23T10:24:19.0000000+00:00</time></trkpt><trkpt lat="64.00608826" lon="-19.05154991"><ele>711.0</ele><time>2012-07-23T10:24:24.0000000+00:00</time></trkpt><trkpt lat="64.00613403" lon="-19.05150795"><ele>710.0</ele><time>2012-07-23T10:24:29.0000000+00:00</time></trkpt><trkpt lat="64.00615692" lon="-19.0514183"><ele>709.5</ele><time>2012-07-23T10:24:34.0000000+00:00</time></trkpt><trkpt lat="64.00619507" lon="-19.05132866"><ele>708.5</ele><time>2012-07-23T10:24:39.0000000+00:00</time></trkpt><trkpt lat="64.00624847" lon="-19.05125618"><ele>707.9</ele><time>2012-07-23T10:24:44.0000000+00:00</time></trkpt><trkpt lat="64.00627899" lon="-19.05114937"><ele>707.5</ele><time>2012-07-23T10:24:49.0000000+00:00</time></trkpt><trkpt lat="64.00632477" lon="-19.05105972"><ele>707.3</ele><time>2012-07-23T10:24:54.0000000+00:00</time></trkpt><trkpt lat="64.00637054" lon="-19.05097199"><ele>706.9</ele><time>2012-07-23T10:24:59.0000000+00:00</time></trkpt><trkpt lat="64.00641632" lon="-19.05090141"><ele>706.4</ele><time>2012-07-23T10:25:04.0000000+00:00</time></trkpt><trkpt lat="64.00644684" lon="-19.05088806"><ele>706.2</ele><time>2012-07-23T10:25:09.0000000+00:00</time></trkpt><trkpt lat="64.00649262" lon="-19.05083656"><ele>706.7</ele><time>2012-07-23T10:25:14.0000000+00:00</time></trkpt><trkpt lat="64.00652313" lon="-19.05071831"><ele>706.5</ele><time>2012-07-23T10:25:19.0000000+00:00</time></trkpt><trkpt lat="64.00655365" lon="-19.05059242"><ele>706.8</ele><time>2012-07-23T10:25:24.0000000+00:00</time></trkpt><trkpt lat="64.00658417" lon="-19.05048752"><ele>707.2</ele><time>2012-07-23T10:25:29.0000000+00:00</time></trkpt><trkpt lat="64.0065918" lon="-19.05048561"><ele>707.2</ele><time>2012-07-23T10:25:34.0000000+00:00</time></trkpt><trkpt lat="64.00661469" lon="-19.05041122"><ele>707.5</ele><time>2012-07-23T10:25:39.0000000+00:00</time></trkpt><trkpt lat="64.00663757" lon="-19.05030632"><ele>708.0</ele><time>2012-07-23T10:25:44.0000000+00:00</time></trkpt><trkpt lat="64.00666046" lon="-19.05022621"><ele>708.4</ele><time>2012-07-23T10:25:49.0000000+00:00</time></trkpt><trkpt lat="64.00668335" lon="-19.05014038"><ele>708.6</ele><time>2012-07-23T10:25:54.0000000+00:00</time></trkpt><trkpt lat="64.00668335" lon="-19.05003738"><ele>708.8</ele><time>2012-07-23T10:25:59.0000000+00:00</time></trkpt><trkpt lat="64.00669861" lon="-19.04992485"><ele>708.7</ele><time>2012-07-23T10:26:04.0000000+00:00</time></trkpt><trkpt lat="64.00672913" lon="-19.04981804"><ele>708.8</ele><time>2012-07-23T10:26:09.0000000+00:00</time></trkpt><trkpt lat="64.00675201" lon="-19.04970169"><ele>709.8</ele><time>2012-07-23T10:26:14.0000000+00:00</time></trkpt><trkpt lat="64.00676727" lon="-19.04956436"><ele>710.8</ele><time>2012-07-23T10:26:19.0000000+00:00</time></trkpt><trkpt lat="64.00678253" lon="-19.04944992"><ele>711.9</ele><time>2012-07-23T10:26:24.0000000+00:00</time></trkpt><trkpt lat="64.00679016" lon="-19.04932785"><ele>713.5</ele><time>2012-07-23T10:26:29.0000000+00:00</time></trkpt><trkpt lat="64.00681305" lon="-19.04922104"><ele>714.3</ele><time>2012-07-23T10:26:34.0000000+00:00</time></trkpt><trkpt lat="64.00682831" lon="-19.04912567"><ele>715.7</ele><time>2012-07-23T10:26:39.0000000+00:00</time></trkpt><trkpt lat="64.00684357" lon="-19.04903984"><ele>716.5</ele><time>2012-07-23T10:26:44.0000000+00:00</time></trkpt><trkpt lat="64.00685883" lon="-19.04897308"><ele>717.5</ele><time>2012-07-23T10:26:49.0000000+00:00</time></trkpt><trkpt lat="64.00685883" lon="-19.04897308"><ele>717.4</ele><time>2012-07-23T10:26:54.0000000+00:00</time></trkpt><trkpt lat="64.00687408" lon="-19.04889488"><ele>718.4</ele><time>2012-07-23T10:26:59.0000000+00:00</time></trkpt><trkpt lat="64.0069046" lon="-19.0487957"><ele>720.4</ele><time>2012-07-23T10:27:04.0000000+00:00</time></trkpt><trkpt lat="64.00691986" lon="-19.04868507"><ele>722.2</ele><time>2012-07-23T10:27:09.0000000+00:00</time></trkpt><trkpt lat="64.00695038" lon="-19.04859734"><ele>723.5</ele><time>2012-07-23T10:27:14.0000000+00:00</time></trkpt><trkpt lat="64.00696564" lon="-19.04849625"><ele>725.1</ele><time>2012-07-23T10:27:19.0000000+00:00</time></trkpt><trkpt lat="64.00700378" lon="-19.04842377"><ele>726.1</ele><time>2012-07-23T10:27:24.0000000+00:00</time></trkpt><trkpt lat="64.0070343" lon="-19.04837227"><ele>726.6</ele><time>2012-07-23T10:27:29.0000000+00:00</time></trkpt><trkpt lat="64.00707245" lon="-19.04830933"><ele>727.2</ele><time>2012-07-23T10:27:34.0000000+00:00</time></trkpt><trkpt lat="64.00708771" lon="-19.04828262"><ele>727.7</ele><time>2012-07-23T10:27:39.0000000+00:00</time></trkpt><trkpt lat="64.00708771" lon="-19.0483017"><ele>727.6</ele><time>2012-07-23T10:27:44.0000000+00:00</time></trkpt><trkpt lat="64.00708008" lon="-19.04830551"><ele>727.5</ele><time>2012-07-23T10:27:49.0000000+00:00</time></trkpt><trkpt lat="64.00711823" lon="-19.04823303"><ele>728.0</ele><time>2012-07-23T10:27:54.0000000+00:00</time></trkpt><trkpt lat="64.007164" lon="-19.04822922"><ele>728.1</ele><time>2012-07-23T10:27:59.0000000+00:00</time></trkpt><trkpt lat="64.00720215" lon="-19.0482254"><ele>728.2</ele><time>2012-07-23T10:28:04.0000000+00:00</time></trkpt><trkpt lat="64.00724793" lon="-19.04819679"><ele>727.4</ele><time>2012-07-23T10:28:09.0000000+00:00</time></trkpt><trkpt lat="64.00726318" lon="-19.04812622"><ele>727.2</ele><time>2012-07-23T10:28:14.0000000+00:00</time></trkpt><trkpt lat="64.00727844" lon="-19.04807854"><ele>727.3</ele><time>2012-07-23T10:28:19.0000000+00:00</time></trkpt><trkpt lat="64.00727844" lon="-19.04808617"><ele>726.9</ele><time>2012-07-23T10:28:24.0000000+00:00</time></trkpt><trkpt lat="64.00727844" lon="-19.04808807"><ele>726.8</ele><time>2012-07-23T10:28:29.0000000+00:00</time></trkpt><trkpt lat="64.00728607" lon="-19.04806709"><ele>726.8</ele><time>2012-07-23T10:28:34.0000000+00:00</time></trkpt><trkpt lat="64.00727081" lon="-19.04805565"><ele>726.8</ele><time>2012-07-23T10:28:39.0000000+00:00</time></trkpt><trkpt lat="64.00727081" lon="-19.04805565"><ele>726.8</ele><time>2012-07-23T10:28:44.0000000+00:00</time></trkpt><trkpt lat="64.00727081" lon="-19.04805565"><ele>726.8</ele><time>2012-07-23T10:28:49.0000000+00:00</time></trkpt><trkpt lat="64.00727081" lon="-19.04805565"><ele>726.8</ele><time>2012-07-23T10:28:54.0000000+00:00</time></trkpt><trkpt lat="64.00727081" lon="-19.04805565"><ele>726.8</ele><time>2012-07-23T10:28:59.0000000+00:00</time></trkpt><trkpt lat="64.00727081" lon="-19.04805565"><ele>726.8</ele><time>2012-07-23T10:29:04.0000000+00:00</time></trkpt><trkpt lat="64.00728607" lon="-19.04803276"><ele>726.6</ele><time>2012-07-23T10:29:09.0000000+00:00</time></trkpt><trkpt lat="64.00728607" lon="-19.04792786"><ele>726.2</ele><time>2012-07-23T10:29:14.0000000+00:00</time></trkpt><trkpt lat="64.00727081" lon="-19.04783821"><ele>725.9</ele><time>2012-07-23T10:29:19.0000000+00:00</time></trkpt><trkpt lat="64.00730133" lon="-19.0477829"><ele>725.4</ele><time>2012-07-23T10:29:24.0000000+00:00</time></trkpt><trkpt lat="64.00730133" lon="-19.04774284"><ele>725.5</ele><time>2012-07-23T10:29:29.0000000+00:00</time></trkpt><trkpt lat="64.00733185" lon="-19.04772949"><ele>724.9</ele><time>2012-07-23T10:29:34.0000000+00:00</time></trkpt><trkpt lat="64.00734711" lon="-19.04767799"><ele>724.5</ele><time>2012-07-23T10:29:39.0000000+00:00</time></trkpt><trkpt lat="64.00736237" lon="-19.04760742"><ele>724.2</ele><time>2012-07-23T10:29:44.0000000+00:00</time></trkpt><trkpt lat="64.00737763" lon="-19.04752541"><ele>723.8</ele><time>2012-07-23T10:29:49.0000000+00:00</time></trkpt><trkpt lat="64.00740051" lon="-19.04747963"><ele>723.0</ele><time>2012-07-23T10:29:54.0000000+00:00</time></trkpt><trkpt lat="64.0074234" lon="-19.04745293"><ele>721.5</ele><time>2012-07-23T10:29:59.0000000+00:00</time></trkpt><trkpt lat="64.00743866" lon="-19.04743385"><ele>720.7</ele><time>2012-07-23T10:30:04.0000000+00:00</time></trkpt><trkpt lat="64.00743866" lon="-19.04743004"><ele>720.5</ele><time>2012-07-23T10:30:09.0000000+00:00</time></trkpt><trkpt lat="64.00743866" lon="-19.04743385"><ele>720.6</ele><time>2012-07-23T10:30:14.0000000+00:00</time></trkpt><trkpt lat="64.00743866" lon="-19.04742622"><ele>720.5</ele><time>2012-07-23T10:30:19.0000000+00:00</time></trkpt><trkpt lat="64.00745392" lon="-19.04741287"><ele>719.9</ele><time>2012-07-23T10:30:24.0000000+00:00</time></trkpt><trkpt lat="64.00748444" lon="-19.04739952"><ele>718.9</ele><time>2012-07-23T10:30:29.0000000+00:00</time></trkpt><trkpt lat="64.00750732" lon="-19.04739952"><ele>718.9</ele><time>2012-07-23T10:30:34.0000000+00:00</time></trkpt><trkpt lat="64.00751495" lon="-19.04733658"><ele>718.1</ele><time>2012-07-23T10:30:39.0000000+00:00</time></trkpt><trkpt lat="64.00753784" lon="-19.04727745"><ele>717.1</ele><time>2012-07-23T10:30:44.0000000+00:00</time></trkpt><trkpt lat="64.00756836" lon="-19.04726982"><ele>716.2</ele><time>2012-07-23T10:30:49.0000000+00:00</time></trkpt><trkpt lat="64.00757599" lon="-19.0472641"><ele>715.7</ele><time>2012-07-23T10:30:54.0000000+00:00</time></trkpt><trkpt lat="64.00757599" lon="-19.04719925"><ele>715.5</ele><time>2012-07-23T10:30:59.0000000+00:00</time></trkpt><trkpt lat="64.00759125" lon="-19.04717064"><ele>714.4</ele><time>2012-07-23T10:31:04.0000000+00:00</time></trkpt><trkpt lat="64.00762177" lon="-19.04713249"><ele>713.5</ele><time>2012-07-23T10:31:09.0000000+00:00</time></trkpt><trkpt lat="64.00764465" lon="-19.04714203"><ele>712.9</ele><time>2012-07-23T10:31:14.0000000+00:00</time></trkpt><trkpt lat="64.00766754" lon="-19.04709816"><ele>712.3</ele><time>2012-07-23T10:31:19.0000000+00:00</time></trkpt><trkpt lat="64.0076828" lon="-19.04705048"><ele>711.2</ele><time>2012-07-23T10:31:24.0000000+00:00</time></trkpt><trkpt lat="64.00769806" lon="-19.04701233"><ele>710.4</ele><time>2012-07-23T10:31:29.0000000+00:00</time></trkpt><trkpt lat="64.00769043" lon="-19.04700279"><ele>709.9</ele><time>2012-07-23T10:31:34.0000000+00:00</time></trkpt><trkpt lat="64.00769043" lon="-19.04699898"><ele>709.8</ele><time>2012-07-23T10:31:39.0000000+00:00</time></trkpt><trkpt lat="64.00772095" lon="-19.0469799"><ele>708.9</ele><time>2012-07-23T10:31:44.0000000+00:00</time></trkpt><trkpt lat="64.00774384" lon="-19.04693794"><ele>708.0</ele><time>2012-07-23T10:31:49.0000000+00:00</time></trkpt><trkpt lat="64.00777435" lon="-19.04691696"><ele>707.3</ele><time>2012-07-23T10:31:54.0000000+00:00</time></trkpt><trkpt lat="64.00778961" lon="-19.04688072"><ele>706.9</ele><time>2012-07-23T10:31:59.0000000+00:00</time></trkpt><trkpt lat="64.0078125" lon="-19.04683495"><ele>705.9</ele><time>2012-07-23T10:32:04.0000000+00:00</time></trkpt><trkpt lat="64.00783539" lon="-19.0468235"><ele>705.2</ele><time>2012-07-23T10:32:09.0000000+00:00</time></trkpt><trkpt lat="64.00783539" lon="-19.04681969"><ele>704.9</ele><time>2012-07-23T10:32:14.0000000+00:00</time></trkpt><trkpt lat="64.00785065" lon="-19.04680824"><ele>704.5</ele><time>2012-07-23T10:32:19.0000000+00:00</time></trkpt><trkpt lat="64.00787354" lon="-19.04677963"><ele>703.5</ele><time>2012-07-23T10:32:24.0000000+00:00</time></trkpt><trkpt lat="64.00790405" lon="-19.04676056"><ele>702.7</ele><time>2012-07-23T10:32:29.0000000+00:00</time></trkpt><trkpt lat="64.00791168" lon="-19.04676437"><ele>702.7</ele><time>2012-07-23T10:32:34.0000000+00:00</time></trkpt><trkpt lat="64.0079422" lon="-19.04673576"><ele>701.9</ele><time>2012-07-23T10:32:39.0000000+00:00</time></trkpt><trkpt lat="64.00796509" lon="-19.04670334"><ele>701.0</ele><time>2012-07-23T10:32:44.0000000+00:00</time></trkpt><trkpt lat="64.00799561" lon="-19.04665947"><ele>700.3</ele><time>2012-07-23T10:32:49.0000000+00:00</time></trkpt><trkpt lat="64.00801849" lon="-19.04661751"><ele>699.5</ele><time>2012-07-23T10:32:54.0000000+00:00</time></trkpt><trkpt lat="64.00803375" lon="-19.04658318"><ele>698.2</ele><time>2012-07-23T10:32:59.0000000+00:00</time></trkpt><trkpt lat="64.00805664" lon="-19.04653931"><ele>698.0</ele><time>2012-07-23T10:33:04.0000000+00:00</time></trkpt><trkpt lat="64.00807953" lon="-19.04652405"><ele>696.9</ele><time>2012-07-23T10:33:09.0000000+00:00</time></trkpt><trkpt lat="64.00811005" lon="-19.04649925"><ele>696.2</ele><time>2012-07-23T10:33:14.0000000+00:00</time></trkpt><trkpt lat="64.00814056" lon="-19.04646874"><ele>694.9</ele><time>2012-07-23T10:33:19.0000000+00:00</time></trkpt><trkpt lat="64.00816345" lon="-19.04644585"><ele>694.3</ele><time>2012-07-23T10:33:24.0000000+00:00</time></trkpt><trkpt lat="64.0082016" lon="-19.04641724"><ele>693.9</ele><time>2012-07-23T10:33:29.0000000+00:00</time></trkpt><trkpt lat="64.00823975" lon="-19.04639816"><ele>693.5</ele><time>2012-07-23T10:33:34.0000000+00:00</time></trkpt><trkpt lat="64.00827789" lon="-19.0463829"><ele>692.5</ele><time>2012-07-23T10:33:39.0000000+00:00</time></trkpt><trkpt lat="64.00831604" lon="-19.04637146"><ele>692.0</ele><time>2012-07-23T10:33:44.0000000+00:00</time></trkpt><trkpt lat="64.00836182" lon="-19.04636955"><ele>691.4</ele><time>2012-07-23T10:33:49.0000000+00:00</time></trkpt><trkpt lat="64.00839996" lon="-19.04636765"><ele>690.6</ele><time>2012-07-23T10:33:54.0000000+00:00</time></trkpt><trkpt lat="64.00844574" lon="-19.04635429"><ele>690.0</ele><time>2012-07-23T10:33:59.0000000+00:00</time></trkpt><trkpt lat="64.00847626" lon="-19.04634094"><ele>689.3</ele><time>2012-07-23T10:34:04.0000000+00:00</time></trkpt><trkpt lat="64.00846863" lon="-19.04634285"><ele>689.0</ele><time>2012-07-23T10:34:09.0000000+00:00</time></trkpt><trkpt lat="64.00847626" lon="-19.04633904"><ele>688.9</ele><time>2012-07-23T10:34:14.0000000+00:00</time></trkpt><trkpt lat="64.00852203" lon="-19.04631233"><ele>687.7</ele><time>2012-07-23T10:34:19.0000000+00:00</time></trkpt><trkpt lat="64.00856018" lon="-19.04627419"><ele>686.9</ele><time>2012-07-23T10:34:24.0000000+00:00</time></trkpt><trkpt lat="64.00859833" lon="-19.04623413"><ele>685.6</ele><time>2012-07-23T10:34:29.0000000+00:00</time></trkpt><trkpt lat="64.00865173" lon="-19.04616547"><ele>684.4</ele><time>2012-07-23T10:34:34.0000000+00:00</time></trkpt><trkpt lat="64.00868988" lon="-19.04610825"><ele>684.2</ele><time>2012-07-23T10:34:39.0000000+00:00</time></trkpt><trkpt lat="64.00870514" lon="-19.04610634"><ele>684.1</ele><time>2012-07-23T10:34:44.0000000+00:00</time></trkpt><trkpt lat="64.00870514" lon="-19.04610825"><ele>684.0</ele><time>2012-07-23T10:34:49.0000000+00:00</time></trkpt><trkpt lat="64.00870514" lon="-19.04610825"><ele>684.0</ele><time>2012-07-23T10:34:54.0000000+00:00</time></trkpt><trkpt lat="64.00870514" lon="-19.04610825"><ele>684.0</ele><time>2012-07-23T10:34:59.0000000+00:00</time></trkpt><trkpt lat="64.00870514" lon="-19.04610825"><ele>684.0</ele><time>2012-07-23T10:35:04.0000000+00:00</time></trkpt><trkpt lat="64.00874329" lon="-19.04607582"><ele>683.4</ele><time>2012-07-23T10:35:09.0000000+00:00</time></trkpt><trkpt lat="64.0087738" lon="-19.04606247"><ele>683.2</ele><time>2012-07-23T10:35:14.0000000+00:00</time></trkpt><trkpt lat="64.0087738" lon="-19.04605484"><ele>683.2</ele><time>2012-07-23T10:35:19.0000000+00:00</time></trkpt><trkpt lat="64.0087738" lon="-19.04605484"><ele>683.2</ele><time>2012-07-23T10:35:24.0000000+00:00</time></trkpt><trkpt lat="64.00878143" lon="-19.04604912"><ele>682.7</ele><time>2012-07-23T10:35:29.0000000+00:00</time></trkpt><trkpt lat="64.00882721" lon="-19.04603195"><ele>682.1</ele><time>2012-07-23T10:35:34.0000000+00:00</time></trkpt><trkpt lat="64.00886536" lon="-19.04599953"><ele>681.7</ele><time>2012-07-23T10:35:39.0000000+00:00</time></trkpt><trkpt lat="64.00889587" lon="-19.04602051"><ele>681.0</ele><time>2012-07-23T10:35:44.0000000+00:00</time></trkpt><trkpt lat="64.00893402" lon="-19.04600334"><ele>680.5</ele><time>2012-07-23T10:35:49.0000000+00:00</time></trkpt><trkpt lat="64.00896454" lon="-19.04602242"><ele>680.4</ele><time>2012-07-23T10:35:54.0000000+00:00</time></trkpt><trkpt lat="64.0089798" lon="-19.04602051"><ele>680.1</ele><time>2012-07-23T10:35:59.0000000+00:00</time></trkpt><trkpt lat="64.00901794" lon="-19.04601479"><ele>679.4</ele><time>2012-07-23T10:36:04.0000000+00:00</time></trkpt><trkpt lat="64.00901032" lon="-19.04600716"><ele>679.7</ele><time>2012-07-23T10:36:09.0000000+00:00</time></trkpt><trkpt lat="64.00901032" lon="-19.04600525"><ele>679.7</ele><time>2012-07-23T10:36:14.0000000+00:00</time></trkpt><trkpt lat="64.00901032" lon="-19.04600525"><ele>679.7</ele><time>2012-07-23T10:36:19.0000000+00:00</time></trkpt><trkpt lat="64.00901794" lon="-19.04600143"><ele>679.8</ele><time>2012-07-23T10:36:24.0000000+00:00</time></trkpt><trkpt lat="64.00905609" lon="-19.04598808"><ele>679.1</ele><time>2012-07-23T10:36:29.0000000+00:00</time></trkpt><trkpt lat="64.00910187" lon="-19.04597664"><ele>678.4</ele><time>2012-07-23T10:36:34.0000000+00:00</time></trkpt><trkpt lat="64.00914002" lon="-19.04596329"><ele>677.3</ele><time>2012-07-23T10:36:39.0000000+00:00</time></trkpt><trkpt lat="64.00918579" lon="-19.0459404"><ele>676.6</ele><time>2012-07-23T10:36:44.0000000+00:00</time></trkpt><trkpt lat="64.00923157" lon="-19.04593658"><ele>676.4</ele><time>2012-07-23T10:36:49.0000000+00:00</time></trkpt><trkpt lat="64.00927734" lon="-19.04590416"><ele>675.7</ele><time>2012-07-23T10:36:54.0000000+00:00</time></trkpt><trkpt lat="64.00932312" lon="-19.04589653"><ele>675.2</ele><time>2012-07-23T10:36:59.0000000+00:00</time></trkpt><trkpt lat="64.00937653" lon="-19.0458374"><ele>674.5</ele><time>2012-07-23T10:37:04.0000000+00:00</time></trkpt><trkpt lat="64.00941467" lon="-19.04580116"><ele>673.5</ele><time>2012-07-23T10:37:09.0000000+00:00</time></trkpt><trkpt lat="64.00946045" lon="-19.04576302"><ele>672.7</ele><time>2012-07-23T10:37:14.0000000+00:00</time></trkpt><trkpt lat="64.00950623" lon="-19.04571533"><ele>672.4</ele><time>2012-07-23T10:37:19.0000000+00:00</time></trkpt><trkpt lat="64.009552" lon="-19.04567909"><ele>671.8</ele><time>2012-07-23T10:37:24.0000000+00:00</time></trkpt><trkpt lat="64.00960541" lon="-19.0456562"><ele>672.0</ele><time>2012-07-23T10:37:29.0000000+00:00</time></trkpt><trkpt lat="64.00965118" lon="-19.04559517"><ele>671.7</ele><time>2012-07-23T10:37:34.0000000+00:00</time></trkpt><trkpt lat="64.00969696" lon="-19.04558182"><ele>671.6</ele><time>2012-07-23T10:37:39.0000000+00:00</time></trkpt><trkpt lat="64.00973511" lon="-19.04552651"><ele>671.6</ele><time>2012-07-23T10:37:44.0000000+00:00</time></trkpt><trkpt lat="64.00977325" lon="-19.04549027"><ele>670.5</ele><time>2012-07-23T10:37:49.0000000+00:00</time></trkpt><trkpt lat="64.00978088" lon="-19.04550362"><ele>670.4</ele><time>2012-07-23T10:37:54.0000000+00:00</time></trkpt><trkpt lat="64.0098114" lon="-19.04545784"><ele>670.0</ele><time>2012-07-23T10:37:59.0000000+00:00</time></trkpt><trkpt lat="64.00981903" lon="-19.04541397"><ele>669.9</ele><time>2012-07-23T10:38:04.0000000+00:00</time></trkpt><trkpt lat="64.00981903" lon="-19.04541397"><ele>670.0</ele><time>2012-07-23T10:38:09.0000000+00:00</time></trkpt><trkpt lat="64.00981903" lon="-19.04541397"><ele>670.0</ele><time>2012-07-23T10:38:14.0000000+00:00</time></trkpt><trkpt lat="64.00982666" lon="-19.04539871"><ele>669.9</ele><time>2012-07-23T10:38:19.0000000+00:00</time></trkpt><trkpt lat="64.00983429" lon="-19.04540253"><ele>670.0</ele><time>2012-07-23T10:38:24.0000000+00:00</time></trkpt><trkpt lat="64.00983429" lon="-19.04540253"><ele>670.1</ele><time>2012-07-23T10:38:29.0000000+00:00</time></trkpt><trkpt lat="64.00983429" lon="-19.04540253"><ele>670.1</ele><time>2012-07-23T10:38:34.0000000+00:00</time></trkpt><trkpt lat="64.00983429" lon="-19.04540253"><ele>670.1</ele><time>2012-07-23T10:38:39.0000000+00:00</time></trkpt><trkpt lat="64.00983429" lon="-19.04540253"><ele>670.1</ele><time>2012-07-23T10:38:44.0000000+00:00</time></trkpt><trkpt lat="64.00983429" lon="-19.04540253"><ele>670.1</ele><time>2012-07-23T10:38:49.0000000+00:00</time></trkpt><trkpt lat="64.00984192" lon="-19.04540253"><ele>670.4</ele><time>2012-07-23T10:38:54.0000000+00:00</time></trkpt><trkpt lat="64.00984192" lon="-19.04540062"><ele>670.5</ele><time>2012-07-23T10:38:59.0000000+00:00</time></trkpt><trkpt lat="64.00984192" lon="-19.04539871"><ele>670.5</ele><time>2012-07-23T10:39:04.0000000+00:00</time></trkpt><trkpt lat="64.00984192" lon="-19.04539871"><ele>670.5</ele><time>2012-07-23T10:39:09.0000000+00:00</time></trkpt><trkpt lat="64.00984192" lon="-19.04539871"><ele>670.5</ele><time>2012-07-23T10:39:14.0000000+00:00</time></trkpt><trkpt lat="64.00984192" lon="-19.04539871"><ele>670.5</ele><time>2012-07-23T10:39:19.0000000+00:00</time></trkpt><trkpt lat="64.00984955" lon="-19.04539681"><ele>670.4</ele><time>2012-07-23T10:39:24.0000000+00:00</time></trkpt><trkpt lat="64.00988007" lon="-19.04535866"><ele>669.6</ele><time>2012-07-23T10:39:29.0000000+00:00</time></trkpt><trkpt lat="64.00990295" lon="-19.04530907"><ele>668.5</ele><time>2012-07-23T10:39:34.0000000+00:00</time></trkpt><trkpt lat="64.00992584" lon="-19.04527664"><ele>668.3</ele><time>2012-07-23T10:39:39.0000000+00:00</time></trkpt><trkpt lat="64.0099411" lon="-19.04524994"><ele>667.7</ele><time>2012-07-23T10:39:44.0000000+00:00</time></trkpt><trkpt lat="64.00996399" lon="-19.04522324"><ele>666.7</ele><time>2012-07-23T10:39:49.0000000+00:00</time></trkpt><trkpt lat="64.00999451" lon="-19.04519653"><ele>665.5</ele><time>2012-07-23T10:39:54.0000000+00:00</time></trkpt><trkpt lat="64.0100174" lon="-19.04516983"><ele>664.5</ele><time>2012-07-23T10:39:59.0000000+00:00</time></trkpt><trkpt lat="64.01004791" lon="-19.0451355"><ele>663.5</ele><time>2012-07-23T10:40:04.0000000+00:00</time></trkpt><trkpt lat="64.01007843" lon="-19.04512024"><ele>663.0</ele><time>2012-07-23T10:40:09.0000000+00:00</time></trkpt><trkpt lat="64.01010895" lon="-19.04510307"><ele>662.0</ele><time>2012-07-23T10:40:14.0000000+00:00</time></trkpt><trkpt lat="64.01013947" lon="-19.04510498"><ele>661.5</ele><time>2012-07-23T10:40:19.0000000+00:00</time></trkpt><trkpt lat="64.01016235" lon="-19.0450592"><ele>660.4</ele><time>2012-07-23T10:40:24.0000000+00:00</time></trkpt><trkpt lat="64.01018524" lon="-19.0450573"><ele>659.9</ele><time>2012-07-23T10:40:29.0000000+00:00</time></trkpt><trkpt lat="64.01021576" lon="-19.0450592"><ele>658.7</ele><time>2012-07-23T10:40:34.0000000+00:00</time></trkpt><trkpt lat="64.01024628" lon="-19.04502678"><ele>656.9</ele><time>2012-07-23T10:40:39.0000000+00:00</time></trkpt><trkpt lat="64.01028442" lon="-19.04502678"><ele>655.8</ele><time>2012-07-23T10:40:44.0000000+00:00</time></trkpt><trkpt lat="64.01031494" lon="-19.04500389"><ele>655.0</ele><time>2012-07-23T10:40:49.0000000+00:00</time></trkpt><trkpt lat="64.01035309" lon="-19.04500389"><ele>654.8</ele><time>2012-07-23T10:40:54.0000000+00:00</time></trkpt><trkpt lat="64.01040649" lon="-19.04498863"><ele>653.4</ele><time>2012-07-23T10:40:59.0000000+00:00</time></trkpt><trkpt lat="64.0104599" lon="-19.04496956"><ele>652.8</ele><time>2012-07-23T10:41:04.0000000+00:00</time></trkpt><trkpt lat="64.01049805" lon="-19.04494667"><ele>652.4</ele><time>2012-07-23T10:41:09.0000000+00:00</time></trkpt><trkpt lat="64.01051331" lon="-19.04493904"><ele>652.4</ele><time>2012-07-23T10:41:14.0000000+00:00</time></trkpt><trkpt lat="64.01052856" lon="-19.04493713"><ele>651.5</ele><time>2012-07-23T10:41:19.0000000+00:00</time></trkpt><trkpt lat="64.01053619" lon="-19.04494286"><ele>651.2</ele><time>2012-07-23T10:41:24.0000000+00:00</time></trkpt><trkpt lat="64.01053619" lon="-19.04495049"><ele>651.0</ele><time>2012-07-23T10:41:29.0000000+00:00</time></trkpt><trkpt lat="64.01053619" lon="-19.04494858"><ele>651.0</ele><time>2012-07-23T10:41:34.0000000+00:00</time></trkpt><trkpt lat="64.01058197" lon="-19.04493141"><ele>650.2</ele><time>2012-07-23T10:41:39.0000000+00:00</time></trkpt><trkpt lat="64.01062775" lon="-19.04493332"><ele>649.0</ele><time>2012-07-23T10:41:44.0000000+00:00</time></trkpt><trkpt lat="64.01066589" lon="-19.04494286"><ele>648.3</ele><time>2012-07-23T10:41:49.0000000+00:00</time></trkpt><trkpt lat="64.01071167" lon="-19.04496193"><ele>647.2</ele><time>2012-07-23T10:41:54.0000000+00:00</time></trkpt><trkpt lat="64.01075745" lon="-19.04497528"><ele>646.0</ele><time>2012-07-23T10:41:59.0000000+00:00</time></trkpt><trkpt lat="64.01079559" lon="-19.04498863"><ele>645.4</ele><time>2012-07-23T10:42:04.0000000+00:00</time></trkpt><trkpt lat="64.01083374" lon="-19.04498673"><ele>644.1</ele><time>2012-07-23T10:42:09.0000000+00:00</time></trkpt><trkpt lat="64.01085663" lon="-19.04498482"><ele>643.8</ele><time>2012-07-23T10:42:14.0000000+00:00</time></trkpt><trkpt lat="64.01088715" lon="-19.04499817"><ele>643.5</ele><time>2012-07-23T10:42:19.0000000+00:00</time></trkpt><trkpt lat="64.01093292" lon="-19.04500008"><ele>642.8</ele><time>2012-07-23T10:42:24.0000000+00:00</time></trkpt><trkpt lat="64.01096344" lon="-19.04500771"><ele>642.4</ele><time>2012-07-23T10:42:29.0000000+00:00</time></trkpt><trkpt lat="64.01100922" lon="-19.04502487"><ele>642.0</ele><time>2012-07-23T10:42:34.0000000+00:00</time></trkpt><trkpt lat="64.01101685" lon="-19.04503632"><ele>641.4</ele><time>2012-07-23T10:42:39.0000000+00:00</time></trkpt><trkpt lat="64.0110321" lon="-19.04502487"><ele>640.4</ele><time>2012-07-23T10:42:44.0000000+00:00</time></trkpt><trkpt lat="64.01107025" lon="-19.04501724"><ele>639.8</ele><time>2012-07-23T10:42:49.0000000+00:00</time></trkpt><trkpt lat="64.0111084" lon="-19.04502106"><ele>638.8</ele><time>2012-07-23T10:42:54.0000000+00:00</time></trkpt><trkpt lat="64.0111618" lon="-19.04502296"><ele>637.9</ele><time>2012-07-23T10:42:59.0000000+00:00</time></trkpt><trkpt lat="64.01120758" lon="-19.04502296"><ele>637.4</ele><time>2012-07-23T10:43:04.0000000+00:00</time></trkpt><trkpt lat="64.01125336" lon="-19.04506111"><ele>635.9</ele><time>2012-07-23T10:43:09.0000000+00:00</time></trkpt><trkpt lat="64.01129913" lon="-19.045084"><ele>634.9</ele><time>2012-07-23T10:43:14.0000000+00:00</time></trkpt><trkpt lat="64.01135254" lon="-19.04512787"><ele>634.3</ele><time>2012-07-23T10:43:19.0000000+00:00</time></trkpt><trkpt lat="64.01141357" lon="-19.04514122"><ele>634.2</ele><time>2012-07-23T10:43:24.0000000+00:00</time></trkpt><trkpt lat="64.01146698" lon="-19.04519081"><ele>633.9</ele><time>2012-07-23T10:43:29.0000000+00:00</time></trkpt><trkpt lat="64.01152039" lon="-19.04521561"><ele>633.6</ele><time>2012-07-23T10:43:34.0000000+00:00</time></trkpt><trkpt lat="64.0115509" lon="-19.04523659"><ele>633.0</ele><time>2012-07-23T10:43:39.0000000+00:00</time></trkpt><trkpt lat="64.01156616" lon="-19.04526329"><ele>632.2</ele><time>2012-07-23T10:43:44.0000000+00:00</time></trkpt><trkpt lat="64.01160431" lon="-19.04530335"><ele>631.7</ele><time>2012-07-23T10:43:49.0000000+00:00</time></trkpt><trkpt lat="64.01161957" lon="-19.04534531"><ele>630.8</ele><time>2012-07-23T10:43:54.0000000+00:00</time></trkpt><trkpt lat="64.01163483" lon="-19.04540443"><ele>630.0</ele><time>2012-07-23T10:43:59.0000000+00:00</time></trkpt><trkpt lat="64.01167297" lon="-19.04545212"><ele>629.0</ele><time>2012-07-23T10:44:04.0000000+00:00</time></trkpt><trkpt lat="64.01169586" lon="-19.04549217"><ele>628.3</ele><time>2012-07-23T10:44:09.0000000+00:00</time></trkpt><trkpt lat="64.01171875" lon="-19.04553032"><ele>627.2</ele><time>2012-07-23T10:44:14.0000000+00:00</time></trkpt><trkpt lat="64.01174164" lon="-19.04554367"><ele>626.2</ele><time>2012-07-23T10:44:19.0000000+00:00</time></trkpt><trkpt lat="64.01176453" lon="-19.045578"><ele>625.3</ele><time>2012-07-23T10:44:24.0000000+00:00</time></trkpt><trkpt lat="64.01178742" lon="-19.04563141"><ele>624.6</ele><time>2012-07-23T10:44:29.0000000+00:00</time></trkpt><trkpt lat="64.01182556" lon="-19.04566956"><ele>623.7</ele><time>2012-07-23T10:44:34.0000000+00:00</time></trkpt><trkpt lat="64.01183319" lon="-19.04569817"><ele>623.1</ele><time>2012-07-23T10:44:39.0000000+00:00</time></trkpt><trkpt lat="64.01187897" lon="-19.04573059"><ele>622.2</ele><time>2012-07-23T10:44:44.0000000+00:00</time></trkpt><trkpt lat="64.01192474" lon="-19.04576111"><ele>621.5</ele><time>2012-07-23T10:44:49.0000000+00:00</time></trkpt><trkpt lat="64.01196289" lon="-19.04584312"><ele>620.8</ele><time>2012-07-23T10:44:54.0000000+00:00</time></trkpt><trkpt lat="64.01202393" lon="-19.04587936"><ele>621.2</ele><time>2012-07-23T10:44:59.0000000+00:00</time></trkpt><trkpt lat="64.01207733" lon="-19.04594231"><ele>622.0</ele><time>2012-07-23T10:45:04.0000000+00:00</time></trkpt><trkpt lat="64.01213837" lon="-19.04597855"><ele>622.6</ele><time>2012-07-23T10:45:09.0000000+00:00</time></trkpt><trkpt lat="64.0121994" lon="-19.04601669"><ele>623.3</ele><time>2012-07-23T10:45:14.0000000+00:00</time></trkpt><trkpt lat="64.01225281" lon="-19.04606819"><ele>623.4</ele><time>2012-07-23T10:45:19.0000000+00:00</time></trkpt><trkpt lat="64.01230621" lon="-19.04610062"><ele>624.7</ele><time>2012-07-23T10:45:24.0000000+00:00</time></trkpt><trkpt lat="64.01234436" lon="-19.04610825"><ele>625.8</ele><time>2012-07-23T10:45:29.0000000+00:00</time></trkpt><trkpt lat="64.01238251" lon="-19.04609871"><ele>627.0</ele><time>2012-07-23T10:45:34.0000000+00:00</time></trkpt><trkpt lat="64.01241303" lon="-19.04607201"><ele>628.5</ele><time>2012-07-23T10:45:39.0000000+00:00</time></trkpt><trkpt lat="64.0124588" lon="-19.04607964"><ele>629.7</ele><time>2012-07-23T10:45:44.0000000+00:00</time></trkpt><trkpt lat="64.01248169" lon="-19.04605866"><ele>630.1</ele><time>2012-07-23T10:45:49.0000000+00:00</time></trkpt><trkpt lat="64.01251221" lon="-19.04605866"><ele>630.8</ele><time>2012-07-23T10:45:54.0000000+00:00</time></trkpt><trkpt lat="64.01255035" lon="-19.04606438"><ele>631.3</ele><time>2012-07-23T10:45:59.0000000+00:00</time></trkpt><trkpt lat="64.0125885" lon="-19.04607773"><ele>632.8</ele><time>2012-07-23T10:46:04.0000000+00:00</time></trkpt><trkpt lat="64.01262665" lon="-19.04607201"><ele>633.6</ele><time>2012-07-23T10:46:09.0000000+00:00</time></trkpt><trkpt lat="64.01268005" lon="-19.04606819"><ele>634.3</ele><time>2012-07-23T10:46:14.0000000+00:00</time></trkpt><trkpt lat="64.01272583" lon="-19.04609108"><ele>634.9</ele><time>2012-07-23T10:46:19.0000000+00:00</time></trkpt><trkpt lat="64.01277161" lon="-19.04609108"><ele>635.2</ele><time>2012-07-23T10:46:24.0000000+00:00</time></trkpt><trkpt lat="64.01281738" lon="-19.04611015"><ele>634.9</ele><time>2012-07-23T10:46:29.0000000+00:00</time></trkpt><trkpt lat="64.01287079" lon="-19.04613304"><ele>634.5</ele><time>2012-07-23T10:46:34.0000000+00:00</time></trkpt><trkpt lat="64.01291657" lon="-19.04615784"><ele>634.0</ele><time>2012-07-23T10:46:39.0000000+00:00</time></trkpt><trkpt lat="64.01295471" lon="-19.04616928"><ele>633.1</ele><time>2012-07-23T10:46:44.0000000+00:00</time></trkpt><trkpt lat="64.01299286" lon="-19.04618454"><ele>632.2</ele><time>2012-07-23T10:46:49.0000000+00:00</time></trkpt><trkpt lat="64.01303101" lon="-19.04619598"><ele>631.8</ele><time>2012-07-23T10:46:54.0000000+00:00</time></trkpt><trkpt lat="64.01307678" lon="-19.04620361"><ele>631.6</ele><time>2012-07-23T10:46:59.0000000+00:00</time></trkpt><trkpt lat="64.01311493" lon="-19.04619789"><ele>630.5</ele><time>2012-07-23T10:47:04.0000000+00:00</time></trkpt><trkpt lat="64.01316071" lon="-19.04620552"><ele>630.1</ele><time>2012-07-23T10:47:09.0000000+00:00</time></trkpt><trkpt lat="64.01321411" lon="-19.04618835"><ele>629.8</ele><time>2012-07-23T10:47:14.0000000+00:00</time></trkpt><trkpt lat="64.01325226" lon="-19.04612351"><ele>630.2</ele><time>2012-07-23T10:47:19.0000000+00:00</time></trkpt><trkpt lat="64.01325989" lon="-19.0460701"><ele>630.5</ele><time>2012-07-23T10:47:24.0000000+00:00</time></trkpt><trkpt lat="64.01325989" lon="-19.04603958"><ele>630.7</ele><time>2012-07-23T10:47:29.0000000+00:00</time></trkpt><trkpt lat="64.01328278" lon="-19.04601097"><ele>630.2</ele><time>2012-07-23T10:47:34.0000000+00:00</time></trkpt><trkpt lat="64.01332855" lon="-19.04598427"><ele>629.3</ele><time>2012-07-23T10:47:39.0000000+00:00</time></trkpt><trkpt lat="64.01335907" lon="-19.0459404"><ele>628.6</ele><time>2012-07-23T10:47:44.0000000+00:00</time></trkpt><trkpt lat="64.01341248" lon="-19.04592514"><ele>627.9</ele><time>2012-07-23T10:47:49.0000000+00:00</time></trkpt><trkpt lat="64.01345825" lon="-19.04589844"><ele>627.3</ele><time>2012-07-23T10:47:54.0000000+00:00</time></trkpt><trkpt lat="64.01350403" lon="-19.04587936"><ele>625.7</ele><time>2012-07-23T10:47:59.0000000+00:00</time></trkpt><trkpt lat="64.01354218" lon="-19.04586029"><ele>624.8</ele><time>2012-07-23T10:48:04.0000000+00:00</time></trkpt><trkpt lat="64.01358795" lon="-19.04585457"><ele>624.2</ele><time>2012-07-23T10:48:09.0000000+00:00</time></trkpt><trkpt lat="64.0136261" lon="-19.04584312"><ele>624.0</ele><time>2012-07-23T10:48:14.0000000+00:00</time></trkpt><trkpt lat="64.01366425" lon="-19.04583931"><ele>623.6</ele><time>2012-07-23T10:48:19.0000000+00:00</time></trkpt><trkpt lat="64.01368713" lon="-19.04580498"><ele>623.1</ele><time>2012-07-23T10:48:24.0000000+00:00</time></trkpt><trkpt lat="64.01371765" lon="-19.04573822"><ele>622.5</ele><time>2012-07-23T10:48:29.0000000+00:00</time></trkpt><trkpt lat="64.01374817" lon="-19.04565239"><ele>621.4</ele><time>2012-07-23T10:48:34.0000000+00:00</time></trkpt><trkpt lat="64.01377106" lon="-19.04554749"><ele>620.9</ele><time>2012-07-23T10:48:39.0000000+00:00</time></trkpt><trkpt lat="64.01377869" lon="-19.04546166"><ele>620.2</ele><time>2012-07-23T10:48:44.0000000+00:00</time></trkpt><trkpt lat="64.01377869" lon="-19.04538536"><ele>619.8</ele><time>2012-07-23T10:48:49.0000000+00:00</time></trkpt><trkpt lat="64.01377869" lon="-19.04529381"><ele>619.6</ele><time>2012-07-23T10:48:54.0000000+00:00</time></trkpt><trkpt lat="64.01380158" lon="-19.04520035"><ele>618.5</ele><time>2012-07-23T10:48:59.0000000+00:00</time></trkpt><trkpt lat="64.01383972" lon="-19.04512596"><ele>617.6</ele><time>2012-07-23T10:49:04.0000000+00:00</time></trkpt><trkpt lat="64.01386261" lon="-19.04506302"><ele>616.3</ele><time>2012-07-23T10:49:09.0000000+00:00</time></trkpt><trkpt lat="64.01387787" lon="-19.04501152"><ele>615.0</ele><time>2012-07-23T10:49:14.0000000+00:00</time></trkpt><trkpt lat="64.01389313" lon="-19.04495239"><ele>613.9</ele><time>2012-07-23T10:49:19.0000000+00:00</time></trkpt><trkpt lat="64.01391602" lon="-19.04488754"><ele>612.5</ele><time>2012-07-23T10:49:24.0000000+00:00</time></trkpt><trkpt lat="64.01395416" lon="-19.04481888"><ele>611.7</ele><time>2012-07-23T10:49:29.0000000+00:00</time></trkpt><trkpt lat="64.01399231" lon="-19.04474068"><ele>610.8</ele><time>2012-07-23T10:49:34.0000000+00:00</time></trkpt><trkpt lat="64.01402283" lon="-19.04464531"><ele>610.0</ele><time>2012-07-23T10:49:39.0000000+00:00</time></trkpt><trkpt lat="64.01405335" lon="-19.04455757"><ele>609.7</ele><time>2012-07-23T10:49:44.0000000+00:00</time></trkpt><trkpt lat="64.0140686" lon="-19.04444122"><ele>609.0</ele><time>2012-07-23T10:49:49.0000000+00:00</time></trkpt><trkpt lat="64.01408386" lon="-19.04434204"><ele>608.6</ele><time>2012-07-23T10:49:54.0000000+00:00</time></trkpt><trkpt lat="64.01409149" lon="-19.04425049"><ele>608.1</ele><time>2012-07-23T10:49:59.0000000+00:00</time></trkpt><trkpt lat="64.01409149" lon="-19.04416275"><ele>606.6</ele><time>2012-07-23T10:50:04.0000000+00:00</time></trkpt><trkpt lat="64.01409149" lon="-19.04405975"><ele>605.4</ele><time>2012-07-23T10:50:09.0000000+00:00</time></trkpt><trkpt lat="64.01409912" lon="-19.04397011"><ele>604.4</ele><time>2012-07-23T10:50:14.0000000+00:00</time></trkpt><trkpt lat="64.01409149" lon="-19.04385376"><ele>604.1</ele><time>2012-07-23T10:50:19.0000000+00:00</time></trkpt><trkpt lat="64.01407623" lon="-19.04374886"><ele>603.2</ele><time>2012-07-23T10:50:24.0000000+00:00</time></trkpt><trkpt lat="64.01406097" lon="-19.04363442"><ele>602.5</ele><time>2012-07-23T10:50:29.0000000+00:00</time></trkpt><trkpt lat="64.0140686" lon="-19.04356384"><ele>601.9</ele><time>2012-07-23T10:50:34.0000000+00:00</time></trkpt><trkpt lat="64.01405335" lon="-19.04350853"><ele>601.0</ele><time>2012-07-23T10:50:39.0000000+00:00</time></trkpt><trkpt lat="64.0140152" lon="-19.04346275"><ele>599.8</ele><time>2012-07-23T10:50:44.0000000+00:00</time></trkpt><trkpt lat="64.01399231" lon="-19.0434227"><ele>599.3</ele><time>2012-07-23T10:50:49.0000000+00:00</time></trkpt><trkpt lat="64.01396942" lon="-19.0433445"><ele>598.2</ele><time>2012-07-23T10:50:54.0000000+00:00</time></trkpt><trkpt lat="64.0139389" lon="-19.0432663"><ele>597.6</ele><time>2012-07-23T10:50:59.0000000+00:00</time></trkpt><trkpt lat="64.01390076" lon="-19.04320908"><ele>595.5</ele><time>2012-07-23T10:51:04.0000000+00:00</time></trkpt><trkpt lat="64.01385498" lon="-19.04320335"><ele>594.3</ele><time>2012-07-23T10:51:09.0000000+00:00</time></trkpt><trkpt lat="64.01380158" lon="-19.04317284"><ele>593.6</ele><time>2012-07-23T10:51:14.0000000+00:00</time></trkpt><trkpt lat="64.0138092" lon="-19.04315949"><ele>593.2</ele><time>2012-07-23T10:51:19.0000000+00:00</time></trkpt><trkpt lat="64.01380158" lon="-19.0431633"><ele>592.9</ele><time>2012-07-23T10:51:24.0000000+00:00</time></trkpt><trkpt lat="64.01379395" lon="-19.04312325"><ele>592.7</ele><time>2012-07-23T10:51:29.0000000+00:00</time></trkpt><trkpt lat="64.01378632" lon="-19.04305077"><ele>591.2</ele><time>2012-07-23T10:51:34.0000000+00:00</time></trkpt><trkpt lat="64.01378632" lon="-19.04304886"><ele>590.8</ele><time>2012-07-23T10:51:39.0000000+00:00</time></trkpt><trkpt lat="64.01378632" lon="-19.04304504"><ele>590.8</ele><time>2012-07-23T10:51:44.0000000+00:00</time></trkpt><trkpt lat="64.01378632" lon="-19.04304504"><ele>590.8</ele><time>2012-07-23T10:51:49.0000000+00:00</time></trkpt><trkpt lat="64.01373291" lon="-19.04306412"><ele>591.2</ele><time>2012-07-23T10:51:54.0000000+00:00</time></trkpt><trkpt lat="64.01367188" lon="-19.04306412"><ele>591.1</ele><time>2012-07-23T10:51:59.0000000+00:00</time></trkpt><trkpt lat="64.01361847" lon="-19.04306412"><ele>591.4</ele><time>2012-07-23T10:52:04.0000000+00:00</time></trkpt><trkpt lat="64.01361847" lon="-19.04307556"><ele>591.5</ele><time>2012-07-23T10:52:09.0000000+00:00</time></trkpt><trkpt lat="64.01361084" lon="-19.04305077"><ele>590.6</ele><time>2012-07-23T10:52:14.0000000+00:00</time></trkpt><trkpt lat="64.01358032" lon="-19.04300118"><ele>590.5</ele><time>2012-07-23T10:52:19.0000000+00:00</time></trkpt><trkpt lat="64.01352692" lon="-19.04291534"><ele>590.7</ele><time>2012-07-23T10:52:24.0000000+00:00</time></trkpt><trkpt lat="64.01346588" lon="-19.04285431"><ele>590.6</ele><time>2012-07-23T10:52:29.0000000+00:00</time></trkpt><trkpt lat="64.01340485" lon="-19.04277992"><ele>591.1</ele><time>2012-07-23T10:52:34.0000000+00:00</time></trkpt><trkpt lat="64.01335144" lon="-19.04271317"><ele>592.4</ele><time>2012-07-23T10:52:39.0000000+00:00</time></trkpt><trkpt lat="64.01332092" lon="-19.04266357"><ele>593.3</ele><time>2012-07-23T10:52:44.0000000+00:00</time></trkpt><trkpt lat="64.01328278" lon="-19.0426445"><ele>592.6</ele><time>2012-07-23T10:52:49.0000000+00:00</time></trkpt><trkpt lat="64.01325989" lon="-19.04265595"><ele>593.1</ele><time>2012-07-23T10:52:54.0000000+00:00</time></trkpt><trkpt lat="64.01319122" lon="-19.04262352"><ele>593.0</ele><time>2012-07-23T10:52:59.0000000+00:00</time></trkpt><trkpt lat="64.01312256" lon="-19.04256249"><ele>593.1</ele><time>2012-07-23T10:53:04.0000000+00:00</time></trkpt><trkpt lat="64.01304627" lon="-19.04252052"><ele>593.3</ele><time>2012-07-23T10:53:09.0000000+00:00</time></trkpt><trkpt lat="64.01298523" lon="-19.04249573"><ele>594.1</ele><time>2012-07-23T10:53:14.0000000+00:00</time></trkpt><trkpt lat="64.01292419" lon="-19.04246903"><ele>595.8</ele><time>2012-07-23T10:53:19.0000000+00:00</time></trkpt><trkpt lat="64.01289368" lon="-19.04241943"><ele>597.0</ele><time>2012-07-23T10:53:24.0000000+00:00</time></trkpt><trkpt lat="64.01286316" lon="-19.04236031"><ele>598.1</ele><time>2012-07-23T10:53:29.0000000+00:00</time></trkpt><trkpt lat="64.01280212" lon="-19.04219627"><ele>603.0</ele><time>2012-07-23T10:53:34.0000000+00:00</time></trkpt><trkpt lat="64.01276398" lon="-19.04206276"><ele>605.2</ele><time>2012-07-23T10:53:39.0000000+00:00</time></trkpt><trkpt lat="64.01274872" lon="-19.04197311"><ele>605.9</ele><time>2012-07-23T10:53:44.0000000+00:00</time></trkpt><trkpt lat="64.0127182" lon="-19.0418911"><ele>605.7</ele><time>2012-07-23T10:53:49.0000000+00:00</time></trkpt><trkpt lat="64.01268768" lon="-19.04185295"><ele>606.2</ele><time>2012-07-23T10:53:54.0000000+00:00</time></trkpt><trkpt lat="64.01270294" lon="-19.04183388"><ele>607.5</ele><time>2012-07-23T10:53:59.0000000+00:00</time></trkpt><trkpt lat="64.01272583" lon="-19.04180527"><ele>609.3</ele><time>2012-07-23T10:54:04.0000000+00:00</time></trkpt><trkpt lat="64.01274109" lon="-19.04175568"><ele>611.5</ele><time>2012-07-23T10:54:09.0000000+00:00</time></trkpt><trkpt lat="64.01275635" lon="-19.0417099"><ele>613.8</ele><time>2012-07-23T10:54:14.0000000+00:00</time></trkpt><trkpt lat="64.01277161" lon="-19.04165649"><ele>616.3</ele><time>2012-07-23T10:54:19.0000000+00:00</time></trkpt><trkpt lat="64.01277161" lon="-19.04161072"><ele>617.4</ele><time>2012-07-23T10:54:24.0000000+00:00</time></trkpt><trkpt lat="64.01280212" lon="-19.04155922"><ele>619.4</ele><time>2012-07-23T10:54:29.0000000+00:00</time></trkpt><trkpt lat="64.01282501" lon="-19.04151726"><ele>620.5</ele><time>2012-07-23T10:54:34.0000000+00:00</time></trkpt><trkpt lat="64.0128479" lon="-19.04147148"><ele>622.4</ele><time>2012-07-23T10:54:39.0000000+00:00</time></trkpt><trkpt lat="64.01284027" lon="-19.04143906"><ele>622.8</ele><time>2012-07-23T10:54:44.0000000+00:00</time></trkpt><trkpt lat="64.0128479" lon="-19.04140282"><ele>623.8</ele><time>2012-07-23T10:54:49.0000000+00:00</time></trkpt><trkpt lat="64.01287079" lon="-19.04138374"><ele>624.2</ele><time>2012-07-23T10:54:54.0000000+00:00</time></trkpt><trkpt lat="64.01288605" lon="-19.04133797"><ele>624.8</ele><time>2012-07-23T10:54:59.0000000+00:00</time></trkpt><trkpt lat="64.01290894" lon="-19.04130173"><ele>626.7</ele><time>2012-07-23T10:55:04.0000000+00:00</time></trkpt><trkpt lat="64.01292419" lon="-19.04125023"><ele>627.7</ele><time>2012-07-23T10:55:09.0000000+00:00</time></trkpt><trkpt lat="64.01293182" lon="-19.04120064"><ele>628.3</ele><time>2012-07-23T10:55:14.0000000+00:00</time></trkpt><trkpt lat="64.01295471" lon="-19.04115486"><ele>629.7</ele><time>2012-07-23T10:55:19.0000000+00:00</time></trkpt><trkpt lat="64.01298523" lon="-19.04112244"><ele>630.4</ele><time>2012-07-23T10:55:24.0000000+00:00</time></trkpt><trkpt lat="64.01298523" lon="-19.04110527"><ele>629.6</ele><time>2012-07-23T10:55:29.0000000+00:00</time></trkpt><trkpt lat="64.01298523" lon="-19.04109383"><ele>629.0</ele><time>2012-07-23T10:55:34.0000000+00:00</time></trkpt><trkpt lat="64.01301575" lon="-19.04114723"><ele>629.0</ele><time>2012-07-23T10:55:39.0000000+00:00</time></trkpt><trkpt lat="64.01304627" lon="-19.04120445"><ele>628.3</ele><time>2012-07-23T10:55:44.0000000+00:00</time></trkpt><trkpt lat="64.01308441" lon="-19.04126549"><ele>628.3</ele><time>2012-07-23T10:55:49.0000000+00:00</time></trkpt><trkpt lat="64.01313782" lon="-19.04130936"><ele>628.9</ele><time>2012-07-23T10:55:54.0000000+00:00</time></trkpt><trkpt lat="64.01316834" lon="-19.04131508"><ele>626.9</ele><time>2012-07-23T10:55:59.0000000+00:00</time></trkpt><trkpt lat="64.01322174" lon="-19.04127693"><ele>625.6</ele><time>2012-07-23T10:56:04.0000000+00:00</time></trkpt><trkpt lat="64.01326752" lon="-19.04122353"><ele>626.6</ele><time>2012-07-23T10:56:09.0000000+00:00</time></trkpt><trkpt lat="64.01329804" lon="-19.04117775"><ele>627.1</ele><time>2012-07-23T10:56:14.0000000+00:00</time></trkpt><trkpt lat="64.01333618" lon="-19.04111099"><ele>627.5</ele><time>2012-07-23T10:56:19.0000000+00:00</time></trkpt><trkpt lat="64.01335144" lon="-19.04109001"><ele>627.7</ele><time>2012-07-23T10:56:24.0000000+00:00</time></trkpt><trkpt lat="64.01337433" lon="-19.04101944"><ele>628.5</ele><time>2012-07-23T10:56:29.0000000+00:00</time></trkpt><trkpt lat="64.01337433" lon="-19.04096413"><ele>629.1</ele><time>2012-07-23T10:56:34.0000000+00:00</time></trkpt><trkpt lat="64.01338196" lon="-19.04088211"><ele>629.6</ele><time>2012-07-23T10:56:39.0000000+00:00</time></trkpt><trkpt lat="64.01337433" lon="-19.0408783"><ele>629.0</ele><time>2012-07-23T10:56:44.0000000+00:00</time></trkpt><trkpt lat="64.01337433" lon="-19.0408783"><ele>629.0</ele><time>2012-07-23T10:56:49.0000000+00:00</time></trkpt><trkpt lat="64.01337433" lon="-19.04087639"><ele>629.0</ele><time>2012-07-23T10:56:54.0000000+00:00</time></trkpt><trkpt lat="64.0133667" lon="-19.0408802"><ele>628.8</ele><time>2012-07-23T10:56:59.0000000+00:00</time></trkpt><trkpt lat="64.01337433" lon="-19.04089737"><ele>628.9</ele><time>2012-07-23T10:57:04.0000000+00:00</time></trkpt><trkpt lat="64.01337433" lon="-19.04089928"><ele>629.9</ele><time>2012-07-23T10:57:09.0000000+00:00</time></trkpt><trkpt lat="64.01337433" lon="-19.04090118"><ele>630.2</ele><time>2012-07-23T10:57:14.0000000+00:00</time></trkpt><trkpt lat="64.01337433" lon="-19.04090118"><ele>630.2</ele><time>2012-07-23T10:57:19.0000000+00:00</time></trkpt><trkpt lat="64.01337433" lon="-19.04090309"><ele>630.2</ele><time>2012-07-23T10:57:24.0000000+00:00</time></trkpt><trkpt lat="64.01337433" lon="-19.04089546"><ele>629.3</ele><time>2012-07-23T10:57:29.0000000+00:00</time></trkpt><trkpt lat="64.01337433" lon="-19.04089546"><ele>629.3</ele><time>2012-07-23T10:57:34.0000000+00:00</time></trkpt><trkpt lat="64.01337433" lon="-19.04089546"><ele>629.3</ele><time>2012-07-23T10:57:39.0000000+00:00</time></trkpt><trkpt lat="64.01338959" lon="-19.04086685"><ele>629.3</ele><time>2012-07-23T10:57:44.0000000+00:00</time></trkpt><trkpt lat="64.01339722" lon="-19.04077339"><ele>630.0</ele><time>2012-07-23T10:57:49.0000000+00:00</time></trkpt><trkpt lat="64.01340485" lon="-19.04075432"><ele>630.0</ele><time>2012-07-23T10:57:54.0000000+00:00</time></trkpt><trkpt lat="64.01340485" lon="-19.04075432"><ele>630.0</ele><time>2012-07-23T10:57:59.0000000+00:00</time></trkpt><trkpt lat="64.01340485" lon="-19.04075432"><ele>630.0</ele><time>2012-07-23T10:58:04.0000000+00:00</time></trkpt><trkpt lat="64.01340485" lon="-19.04075432"><ele>630.1</ele><time>2012-07-23T10:58:09.0000000+00:00</time></trkpt><trkpt lat="64.01340485" lon="-19.04075432"><ele>630.1</ele><time>2012-07-23T10:58:14.0000000+00:00</time></trkpt><trkpt lat="64.01340485" lon="-19.04075432"><ele>630.1</ele><time>2012-07-23T10:58:19.0000000+00:00</time></trkpt><trkpt lat="64.01340485" lon="-19.04075432"><ele>630.2</ele><time>2012-07-23T10:58:24.0000000+00:00</time></trkpt><trkpt lat="64.01340485" lon="-19.04075432"><ele>630.2</ele><time>2012-07-23T10:58:29.0000000+00:00</time></trkpt><trkpt lat="64.01340485" lon="-19.04075432"><ele>630.2</ele><time>2012-07-23T10:58:34.0000000+00:00</time></trkpt><trkpt lat="64.01340485" lon="-19.04075432"><ele>630.2</ele><time>2012-07-23T10:58:39.0000000+00:00</time></trkpt><trkpt lat="64.01340485" lon="-19.04075432"><ele>630.2</ele><time>2012-07-23T10:58:44.0000000+00:00</time></trkpt><trkpt lat="64.01340485" lon="-19.04075432"><ele>630.2</ele><time>2012-07-23T10:58:49.0000000+00:00</time></trkpt><trkpt lat="64.01340485" lon="-19.04075432"><ele>630.3</ele><time>2012-07-23T10:58:54.0000000+00:00</time></trkpt><trkpt lat="64.01340485" lon="-19.04075432"><ele>630.3</ele><time>2012-07-23T10:58:59.0000000+00:00</time></trkpt><trkpt lat="64.01340485" lon="-19.04075432"><ele>630.3</ele><time>2012-07-23T10:59:04.0000000+00:00</time></trkpt><trkpt lat="64.01340485" lon="-19.04075432"><ele>630.3</ele><time>2012-07-23T10:59:09.0000000+00:00</time></trkpt><trkpt lat="64.01340485" lon="-19.04075432"><ele>630.3</ele><time>2012-07-23T10:59:14.0000000+00:00</time></trkpt><trkpt lat="64.01340485" lon="-19.04075432"><ele>630.3</ele><time>2012-07-23T10:59:19.0000000+00:00</time></trkpt><trkpt lat="64.01340485" lon="-19.04075432"><ele>630.3</ele><time>2012-07-23T10:59:24.0000000+00:00</time></trkpt><trkpt lat="64.01340485" lon="-19.04075432"><ele>630.4</ele><time>2012-07-23T10:59:29.0000000+00:00</time></trkpt><trkpt lat="64.01340485" lon="-19.04075432"><ele>630.4</ele><time>2012-07-23T10:59:34.0000000+00:00</time></trkpt><trkpt lat="64.01340485" lon="-19.04075432"><ele>630.4</ele><time>2012-07-23T10:59:39.0000000+00:00</time></trkpt><trkpt lat="64.01340485" lon="-19.04075432"><ele>630.4</ele><time>2012-07-23T10:59:44.0000000+00:00</time></trkpt><trkpt lat="64.01340485" lon="-19.04075623"><ele>630.4</ele><time>2012-07-23T10:59:49.0000000+00:00</time></trkpt><trkpt lat="64.01340485" lon="-19.04075623"><ele>630.4</ele><time>2012-07-23T10:59:54.0000000+00:00</time></trkpt><trkpt lat="64.01340485" lon="-19.04075813"><ele>630.4</ele><time>2012-07-23T10:59:59.0000000+00:00</time></trkpt><trkpt lat="64.01340485" lon="-19.04075813"><ele>630.4</ele><time>2012-07-23T11:00:04.0000000+00:00</time></trkpt><trkpt lat="64.01340485" lon="-19.04075813"><ele>630.4</ele><time>2012-07-23T11:00:09.0000000+00:00</time></trkpt><trkpt lat="64.01340485" lon="-19.04075623"><ele>630.4</ele><time>2012-07-23T11:00:14.0000000+00:00</time></trkpt><trkpt lat="64.01340485" lon="-19.04075623"><ele>630.5</ele><time>2012-07-23T11:00:19.0000000+00:00</time></trkpt><trkpt lat="64.01340485" lon="-19.04076004"><ele>630.4</ele><time>2012-07-23T11:00:24.0000000+00:00</time></trkpt><trkpt lat="64.01340485" lon="-19.04076004"><ele>630.4</ele><time>2012-07-23T11:00:29.0000000+00:00</time></trkpt><trkpt lat="64.01340485" lon="-19.04076004"><ele>630.4</ele><time>2012-07-23T11:00:34.0000000+00:00</time></trkpt><trkpt lat="64.01340485" lon="-19.04076004"><ele>630.4</ele><time>2012-07-23T11:00:39.0000000+00:00</time></trkpt><trkpt lat="64.01340485" lon="-19.04076004"><ele>630.4</ele><time>2012-07-23T11:00:44.0000000+00:00</time></trkpt><trkpt lat="64.01340485" lon="-19.04075623"><ele>630.4</ele><time>2012-07-23T11:00:49.0000000+00:00</time></trkpt><trkpt lat="64.01340485" lon="-19.04075623"><ele>630.4</ele><time>2012-07-23T11:00:54.0000000+00:00</time></trkpt><trkpt lat="64.01340485" lon="-19.04075623"><ele>630.4</ele><time>2012-07-23T11:00:59.0000000+00:00</time></trkpt><trkpt lat="64.01340485" lon="-19.04075623"><ele>630.4</ele><time>2012-07-23T11:01:04.0000000+00:00</time></trkpt><trkpt lat="64.01340485" lon="-19.04075623"><ele>630.4</ele><time>2012-07-23T11:01:09.0000000+00:00</time></trkpt><trkpt lat="64.01340485" lon="-19.04075623"><ele>630.4</ele><time>2012-07-23T11:01:14.0000000+00:00</time></trkpt><trkpt lat="64.01340485" lon="-19.04075623"><ele>630.5</ele><time>2012-07-23T11:01:19.0000000+00:00</time></trkpt><trkpt lat="64.01340485" lon="-19.04075623"><ele>630.5</ele><time>2012-07-23T11:01:24.0000000+00:00</time></trkpt><trkpt lat="64.01340485" lon="-19.04075623"><ele>630.5</ele><time>2012-07-23T11:01:29.0000000+00:00</time></trkpt><trkpt lat="64.01340485" lon="-19.04075623"><ele>630.5</ele><time>2012-07-23T11:01:34.0000000+00:00</time></trkpt><trkpt lat="64.01341248" lon="-19.04069901"><ele>630.8</ele><time>2012-07-23T11:01:39.0000000+00:00</time></trkpt><trkpt lat="64.01341248" lon="-19.0406971"><ele>631.2</ele><time>2012-07-23T11:01:44.0000000+00:00</time></trkpt><trkpt lat="64.01341248" lon="-19.04070854"><ele>631.1</ele><time>2012-07-23T11:01:49.0000000+00:00</time></trkpt><trkpt lat="64.01342011" lon="-19.0408001"><ele>629.6</ele><time>2012-07-23T11:01:54.0000000+00:00</time></trkpt><trkpt lat="64.01344299" lon="-19.04081345"><ele>628.7</ele><time>2012-07-23T11:01:59.0000000+00:00</time></trkpt><trkpt lat="64.01346588" lon="-19.04077721"><ele>627.4</ele><time>2012-07-23T11:02:04.0000000+00:00</time></trkpt><trkpt lat="64.01348114" lon="-19.04073334"><ele>625.9</ele><time>2012-07-23T11:02:09.0000000+00:00</time></trkpt><trkpt lat="64.0134964" lon="-19.04069328"><ele>624.1</ele><time>2012-07-23T11:02:14.0000000+00:00</time></trkpt><trkpt lat="64.01351166" lon="-19.04064369"><ele>623.2</ele><time>2012-07-23T11:02:19.0000000+00:00</time></trkpt><trkpt lat="64.01351166" lon="-19.04057121"><ele>622.3</ele><time>2012-07-23T11:02:24.0000000+00:00</time></trkpt><trkpt lat="64.01352692" lon="-19.04055977"><ele>621.0</ele><time>2012-07-23T11:02:29.0000000+00:00</time></trkpt><trkpt lat="64.01354981" lon="-19.04058075"><ele>620.2</ele><time>2012-07-23T11:02:34.0000000+00:00</time></trkpt><trkpt lat="64.01354981" lon="-19.04052734"><ele>618.5</ele><time>2012-07-23T11:02:39.0000000+00:00</time></trkpt><trkpt lat="64.01356506" lon="-19.04050255"><ele>618.0</ele><time>2012-07-23T11:02:44.0000000+00:00</time></trkpt><trkpt lat="64.01358032" lon="-19.04047585"><ele>616.4</ele><time>2012-07-23T11:02:49.0000000+00:00</time></trkpt><trkpt lat="64.01359558" lon="-19.04045868"><ele>615.3</ele><time>2012-07-23T11:02:54.0000000+00:00</time></trkpt><trkpt lat="64.01361847" lon="-19.04050827"><ele>614.4</ele><time>2012-07-23T11:02:59.0000000+00:00</time></trkpt><trkpt lat="64.01364136" lon="-19.04051018"><ele>613.4</ele><time>2012-07-23T11:03:04.0000000+00:00</time></trkpt><trkpt lat="64.01366425" lon="-19.04051209"><ele>611.9</ele><time>2012-07-23T11:03:09.0000000+00:00</time></trkpt><trkpt lat="64.01367188" lon="-19.04045868"><ele>610.6</ele><time>2012-07-23T11:03:14.0000000+00:00</time></trkpt><trkpt lat="64.01368713" lon="-19.0404129"><ele>610.8</ele><time>2012-07-23T11:03:19.0000000+00:00</time></trkpt><trkpt lat="64.01369476" lon="-19.0403595"><ele>609.4</ele><time>2012-07-23T11:03:24.0000000+00:00</time></trkpt><trkpt lat="64.01370239" lon="-19.04030609"><ele>608.1</ele><time>2012-07-23T11:03:29.0000000+00:00</time></trkpt><trkpt lat="64.01371002" lon="-19.04025459"><ele>608.6</ele><time>2012-07-23T11:03:34.0000000+00:00</time></trkpt><trkpt lat="64.01371002" lon="-19.04018593"><ele>607.4</ele><time>2012-07-23T11:03:39.0000000+00:00</time></trkpt><trkpt lat="64.01371765" lon="-19.04012108"><ele>605.5</ele><time>2012-07-23T11:03:44.0000000+00:00</time></trkpt><trkpt lat="64.01371765" lon="-19.0400753"><ele>603.4</ele><time>2012-07-23T11:03:49.0000000+00:00</time></trkpt><trkpt lat="64.01372528" lon="-19.04002762"><ele>601.5</ele><time>2012-07-23T11:03:54.0000000+00:00</time></trkpt><trkpt lat="64.01372528" lon="-19.03999329"><ele>601.0</ele><time>2012-07-23T11:03:59.0000000+00:00</time></trkpt><trkpt lat="64.01373291" lon="-19.03993225"><ele>599.2</ele><time>2012-07-23T11:04:04.0000000+00:00</time></trkpt><trkpt lat="64.01374817" lon="-19.03987503"><ele>598.8</ele><time>2012-07-23T11:04:09.0000000+00:00</time></trkpt><trkpt lat="64.01376343" lon="-19.03984261"><ele>599.0</ele><time>2012-07-23T11:04:14.0000000+00:00</time></trkpt><trkpt lat="64.01378632" lon="-19.03985214"><ele>598.4</ele><time>2012-07-23T11:04:19.0000000+00:00</time></trkpt><trkpt lat="64.01382446" lon="-19.03986359"><ele>597.5</ele><time>2012-07-23T11:04:24.0000000+00:00</time></trkpt><trkpt lat="64.01387024" lon="-19.03997421"><ele>596.2</ele><time>2012-07-23T11:04:29.0000000+00:00</time></trkpt><trkpt lat="64.0138855" lon="-19.0401001"><ele>596.0</ele><time>2012-07-23T11:04:34.0000000+00:00</time></trkpt><trkpt lat="64.01391602" lon="-19.04023743"><ele>596.6</ele><time>2012-07-23T11:04:39.0000000+00:00</time></trkpt><trkpt lat="64.01393127" lon="-19.04038048"><ele>596.6</ele><time>2012-07-23T11:04:44.0000000+00:00</time></trkpt><trkpt lat="64.01394653" lon="-19.04049301"><ele>596.0</ele><time>2012-07-23T11:04:49.0000000+00:00</time></trkpt><trkpt lat="64.01396179" lon="-19.04061127"><ele>597.3</ele><time>2012-07-23T11:04:54.0000000+00:00</time></trkpt><trkpt lat="64.01396179" lon="-19.04071808"><ele>595.7</ele><time>2012-07-23T11:04:59.0000000+00:00</time></trkpt><trkpt lat="64.01396942" lon="-19.0408268"><ele>595.5</ele><time>2012-07-23T11:05:04.0000000+00:00</time></trkpt><trkpt lat="64.01396942" lon="-19.04094315"><ele>596.8</ele><time>2012-07-23T11:05:09.0000000+00:00</time></trkpt><trkpt lat="64.01395416" lon="-19.04107094"><ele>598.0</ele><time>2012-07-23T11:05:14.0000000+00:00</time></trkpt><trkpt lat="64.01396179" lon="-19.04119492"><ele>601.0</ele><time>2012-07-23T11:05:19.0000000+00:00</time></trkpt><trkpt lat="64.01395416" lon="-19.04120827"><ele>601.2</ele><time>2012-07-23T11:05:24.0000000+00:00</time></trkpt><trkpt lat="64.01394653" lon="-19.04125786"><ele>601.6</ele><time>2012-07-23T11:05:29.0000000+00:00</time></trkpt><trkpt lat="64.01392365" lon="-19.04133034"><ele>602.2</ele><time>2012-07-23T11:05:34.0000000+00:00</time></trkpt><trkpt lat="64.01390839" lon="-19.04142952"><ele>601.8</ele><time>2012-07-23T11:05:39.0000000+00:00</time></trkpt><trkpt lat="64.0138855" lon="-19.04153442"><ele>602.7</ele><time>2012-07-23T11:05:44.0000000+00:00</time></trkpt><trkpt lat="64.01386261" lon="-19.04162407"><ele>603.1</ele><time>2012-07-23T11:05:49.0000000+00:00</time></trkpt><trkpt lat="64.01384735" lon="-19.04174423"><ele>602.8</ele><time>2012-07-23T11:05:54.0000000+00:00</time></trkpt><trkpt lat="64.01383972" lon="-19.04188538"><ele>603.1</ele><time>2012-07-23T11:05:59.0000000+00:00</time></trkpt><trkpt lat="64.01382446" lon="-19.041996"><ele>603.3</ele><time>2012-07-23T11:06:04.0000000+00:00</time></trkpt><trkpt lat="64.01381683" lon="-19.0421505"><ele>603.8</ele><time>2012-07-23T11:06:09.0000000+00:00</time></trkpt><trkpt lat="64.01381683" lon="-19.04230881"><ele>603.3</ele><time>2012-07-23T11:06:14.0000000+00:00</time></trkpt><trkpt lat="64.01384735" lon="-19.04240036"><ele>604.8</ele><time>2012-07-23T11:06:19.0000000+00:00</time></trkpt><trkpt lat="64.01387787" lon="-19.04250908"><ele>603.6</ele><time>2012-07-23T11:06:24.0000000+00:00</time></trkpt><trkpt lat="64.01390839" lon="-19.04263115"><ele>603.5</ele><time>2012-07-23T11:06:29.0000000+00:00</time></trkpt><trkpt lat="64.01393127" lon="-19.04269791"><ele>603.8</ele><time>2012-07-23T11:06:34.0000000+00:00</time></trkpt><trkpt lat="64.0139389" lon="-19.04270744"><ele>603.9</ele><time>2012-07-23T11:06:39.0000000+00:00</time></trkpt><trkpt lat="64.01397705" lon="-19.04268265"><ele>602.2</ele><time>2012-07-23T11:06:44.0000000+00:00</time></trkpt><trkpt lat="64.01403809" lon="-19.04268074"><ele>599.5</ele><time>2012-07-23T11:06:49.0000000+00:00</time></trkpt><trkpt lat="64.01409149" lon="-19.0427742"><ele>601.3</ele><time>2012-07-23T11:06:54.0000000+00:00</time></trkpt><trkpt lat="64.01412201" lon="-19.04283905"><ele>601.2</ele><time>2012-07-23T11:06:59.0000000+00:00</time></trkpt><trkpt lat="64.01411438" lon="-19.04284668"><ele>601.1</ele><time>2012-07-23T11:07:04.0000000+00:00</time></trkpt><trkpt lat="64.01411438" lon="-19.04284668"><ele>601.0</ele><time>2012-07-23T11:07:09.0000000+00:00</time></trkpt><trkpt lat="64.01411438" lon="-19.04284859"><ele>601.0</ele><time>2012-07-23T11:07:14.0000000+00:00</time></trkpt><trkpt lat="64.01411438" lon="-19.04284859"><ele>601.0</ele><time>2012-07-23T11:07:19.0000000+00:00</time></trkpt><trkpt lat="64.01411438" lon="-19.04284668"><ele>601.0</ele><time>2012-07-23T11:07:24.0000000+00:00</time></trkpt><trkpt lat="64.01411438" lon="-19.04284859"><ele>601.0</ele><time>2012-07-23T11:07:29.0000000+00:00</time></trkpt><trkpt lat="64.01411438" lon="-19.04284668"><ele>601.0</ele><time>2012-07-23T11:07:34.0000000+00:00</time></trkpt><trkpt lat="64.01416779" lon="-19.04275513"><ele>600.5</ele><time>2012-07-23T11:07:39.0000000+00:00</time></trkpt><trkpt lat="64.01422882" lon="-19.0426445"><ele>601.0</ele><time>2012-07-23T11:07:44.0000000+00:00</time></trkpt><trkpt lat="64.0142746" lon="-19.04256821"><ele>599.9</ele><time>2012-07-23T11:07:49.0000000+00:00</time></trkpt><trkpt lat="64.014328" lon="-19.04249382"><ele>600.3</ele><time>2012-07-23T11:07:54.0000000+00:00</time></trkpt><trkpt lat="64.01438141" lon="-19.04243279"><ele>599.6</ele><time>2012-07-23T11:07:59.0000000+00:00</time></trkpt><trkpt lat="64.01443481" lon="-19.04240608"><ele>599.5</ele><time>2012-07-23T11:08:04.0000000+00:00</time></trkpt><trkpt lat="64.01447296" lon="-19.04236603"><ele>599.1</ele><time>2012-07-23T11:08:09.0000000+00:00</time></trkpt><trkpt lat="64.01451111" lon="-19.04229927"><ele>598.7</ele><time>2012-07-23T11:08:14.0000000+00:00</time></trkpt><trkpt lat="64.01454926" lon="-19.0422554"><ele>597.8</ele><time>2012-07-23T11:08:19.0000000+00:00</time></trkpt><trkpt lat="64.0145874" lon="-19.04219246"><ele>597.0</ele><time>2012-07-23T11:08:24.0000000+00:00</time></trkpt><trkpt lat="64.01462555" lon="-19.04213715"><ele>596.7</ele><time>2012-07-23T11:08:29.0000000+00:00</time></trkpt><trkpt lat="64.01467133" lon="-19.04207993"><ele>596.1</ele><time>2012-07-23T11:08:34.0000000+00:00</time></trkpt><trkpt lat="64.01473236" lon="-19.04202652"><ele>597.3</ele><time>2012-07-23T11:08:39.0000000+00:00</time></trkpt><trkpt lat="64.01477814" lon="-19.04197311"><ele>597.8</ele><time>2012-07-23T11:08:44.0000000+00:00</time></trkpt><trkpt lat="64.01482391" lon="-19.04195786"><ele>597.7</ele><time>2012-07-23T11:08:49.0000000+00:00</time></trkpt><trkpt lat="64.01487732" lon="-19.04192925"><ele>597.2</ele><time>2012-07-23T11:08:54.0000000+00:00</time></trkpt><trkpt lat="64.0149231" lon="-19.04192162"><ele>598.7</ele><time>2012-07-23T11:08:59.0000000+00:00</time></trkpt><trkpt lat="64.0149765" lon="-19.04187965"><ele>599.6</ele><time>2012-07-23T11:09:04.0000000+00:00</time></trkpt><trkpt lat="64.01502228" lon="-19.04182434"><ele>600.1</ele><time>2012-07-23T11:09:09.0000000+00:00</time></trkpt><trkpt lat="64.01508331" lon="-19.04174995"><ele>600.1</ele><time>2012-07-23T11:09:14.0000000+00:00</time></trkpt><trkpt lat="64.01513672" lon="-19.0417347"><ele>600.5</ele><time>2012-07-23T11:09:19.0000000+00:00</time></trkpt><trkpt lat="64.0151825" lon="-19.04174995"><ele>601.9</ele><time>2012-07-23T11:09:24.0000000+00:00</time></trkpt><trkpt lat="64.01522064" lon="-19.04174042"><ele>603.3</ele><time>2012-07-23T11:09:29.0000000+00:00</time></trkpt><trkpt lat="64.01525116" lon="-19.0416832"><ele>602.4</ele><time>2012-07-23T11:09:34.0000000+00:00</time></trkpt><trkpt lat="64.01525116" lon="-19.04164505"><ele>602.4</ele><time>2012-07-23T11:09:39.0000000+00:00</time></trkpt><trkpt lat="64.01525879" lon="-19.04164887"><ele>602.7</ele><time>2012-07-23T11:09:44.0000000+00:00</time></trkpt><trkpt lat="64.01525879" lon="-19.04164887"><ele>602.7</ele><time>2012-07-23T11:09:49.0000000+00:00</time></trkpt><trkpt lat="64.01525879" lon="-19.04165077"><ele>602.8</ele><time>2012-07-23T11:09:54.0000000+00:00</time></trkpt><trkpt lat="64.01528168" lon="-19.04164124"><ele>602.3</ele><time>2012-07-23T11:09:59.0000000+00:00</time></trkpt><trkpt lat="64.01531982" lon="-19.041605"><ele>601.8</ele><time>2012-07-23T11:10:04.0000000+00:00</time></trkpt><trkpt lat="64.01537323" lon="-19.04154968"><ele>602.3</ele><time>2012-07-23T11:10:09.0000000+00:00</time></trkpt><trkpt lat="64.01541138" lon="-19.04149246"><ele>601.9</ele><time>2012-07-23T11:10:14.0000000+00:00</time></trkpt><trkpt lat="64.01543427" lon="-19.04141235"><ele>600.8</ele><time>2012-07-23T11:10:19.0000000+00:00</time></trkpt><trkpt lat="64.01547241" lon="-19.04135704"><ele>599.9</ele><time>2012-07-23T11:10:24.0000000+00:00</time></trkpt><trkpt lat="64.01551056" lon="-19.0413208"><ele>599.9</ele><time>2012-07-23T11:10:29.0000000+00:00</time></trkpt><trkpt lat="64.01554108" lon="-19.04125977"><ele>599.8</ele><time>2012-07-23T11:10:34.0000000+00:00</time></trkpt><trkpt lat="64.01558685" lon="-19.04120064"><ele>599.0</ele><time>2012-07-23T11:10:39.0000000+00:00</time></trkpt><trkpt lat="64.015625" lon="-19.04111671"><ele>598.0</ele><time>2012-07-23T11:10:44.0000000+00:00</time></trkpt><trkpt lat="64.01565552" lon="-19.04104805"><ele>598.3</ele><time>2012-07-23T11:10:49.0000000+00:00</time></trkpt><trkpt lat="64.01567078" lon="-19.04097748"><ele>598.8</ele><time>2012-07-23T11:10:54.0000000+00:00</time></trkpt><trkpt lat="64.01570892" lon="-19.04091644"><ele>600.0</ele><time>2012-07-23T11:10:59.0000000+00:00</time></trkpt><trkpt lat="64.01576233" lon="-19.04087257"><ele>601.8</ele><time>2012-07-23T11:11:04.0000000+00:00</time></trkpt><trkpt lat="64.01583099" lon="-19.04086494"><ele>600.3</ele><time>2012-07-23T11:11:09.0000000+00:00</time></trkpt><trkpt lat="64.01586914" lon="-19.04079247"><ele>599.9</ele><time>2012-07-23T11:11:14.0000000+00:00</time></trkpt><trkpt lat="64.01592255" lon="-19.04071617"><ele>600.5</ele><time>2012-07-23T11:11:19.0000000+00:00</time></trkpt><trkpt lat="64.01596832" lon="-19.04062843"><ele>600.2</ele><time>2012-07-23T11:11:24.0000000+00:00</time></trkpt><trkpt lat="64.01599884" lon="-19.04050446"><ele>600.5</ele><time>2012-07-23T11:11:29.0000000+00:00</time></trkpt><trkpt lat="64.01606751" lon="-19.04044724"><ele>600.4</ele><time>2012-07-23T11:11:34.0000000+00:00</time></trkpt><trkpt lat="64.01613617" lon="-19.04042816"><ele>600.4</ele><time>2012-07-23T11:11:39.0000000+00:00</time></trkpt><trkpt lat="64.01618958" lon="-19.0403614"><ele>600.7</ele><time>2012-07-23T11:11:44.0000000+00:00</time></trkpt><trkpt lat="64.01624298" lon="-19.04029656"><ele>601.8</ele><time>2012-07-23T11:11:49.0000000+00:00</time></trkpt><trkpt lat="64.01629639" lon="-19.04023171"><ele>601.4</ele><time>2012-07-23T11:11:54.0000000+00:00</time></trkpt><trkpt lat="64.01634216" lon="-19.04018402"><ele>601.8</ele><time>2012-07-23T11:11:59.0000000+00:00</time></trkpt><trkpt lat="64.01639557" lon="-19.04016113"><ele>603.0</ele><time>2012-07-23T11:12:04.0000000+00:00</time></trkpt><trkpt lat="64.01644898" lon="-19.04010201"><ele>602.8</ele><time>2012-07-23T11:12:09.0000000+00:00</time></trkpt><trkpt lat="64.01650238" lon="-19.04003906"><ele>601.6</ele><time>2012-07-23T11:12:14.0000000+00:00</time></trkpt><trkpt lat="64.01656342" lon="-19.04000664"><ele>601.0</ele><time>2012-07-23T11:12:19.0000000+00:00</time></trkpt><trkpt lat="64.01662445" lon="-19.0399437"><ele>601.7</ele><time>2012-07-23T11:12:24.0000000+00:00</time></trkpt><trkpt lat="64.01667786" lon="-19.03990364"><ele>602.0</ele><time>2012-07-23T11:12:29.0000000+00:00</time></trkpt><trkpt lat="64.01670837" lon="-19.03983688"><ele>603.1</ele><time>2012-07-23T11:12:34.0000000+00:00</time></trkpt><trkpt lat="64.01673889" lon="-19.03978729"><ele>602.6</ele><time>2012-07-23T11:12:39.0000000+00:00</time></trkpt><trkpt lat="64.01677704" lon="-19.0396843"><ele>602.8</ele><time>2012-07-23T11:12:44.0000000+00:00</time></trkpt><trkpt lat="64.01679993" lon="-19.03956604"><ele>602.1</ele><time>2012-07-23T11:12:49.0000000+00:00</time></trkpt><trkpt lat="64.0168457" lon="-19.03951073"><ele>602.2</ele><time>2012-07-23T11:12:54.0000000+00:00</time></trkpt><trkpt lat="64.01689911" lon="-19.03947449"><ele>602.6</ele><time>2012-07-23T11:12:59.0000000+00:00</time></trkpt><trkpt lat="64.01695252" lon="-19.03941536"><ele>602.1</ele><time>2012-07-23T11:13:04.0000000+00:00</time></trkpt><trkpt lat="64.01700592" lon="-19.03933525"><ele>602.3</ele><time>2012-07-23T11:13:09.0000000+00:00</time></trkpt><trkpt lat="64.01705933" lon="-19.0392971"><ele>603.8</ele><time>2012-07-23T11:13:14.0000000+00:00</time></trkpt><trkpt lat="64.01711273" lon="-19.03935814"><ele>606.1</ele><time>2012-07-23T11:13:19.0000000+00:00</time></trkpt><trkpt lat="64.01714325" lon="-19.03930473"><ele>607.3</ele><time>2012-07-23T11:13:24.0000000+00:00</time></trkpt><trkpt lat="64.01720429" lon="-19.03929138"><ele>609.5</ele><time>2012-07-23T11:13:29.0000000+00:00</time></trkpt><trkpt lat="64.01722717" lon="-19.03921127"><ele>610.0</ele><time>2012-07-23T11:13:34.0000000+00:00</time></trkpt><trkpt lat="64.01727295" lon="-19.0391407"><ele>610.4</ele><time>2012-07-23T11:13:39.0000000+00:00</time></trkpt><trkpt lat="64.01729584" lon="-19.03903961"><ele>610.5</ele><time>2012-07-23T11:13:44.0000000+00:00</time></trkpt><trkpt lat="64.01734161" lon="-19.03899193"><ele>610.0</ele><time>2012-07-23T11:13:49.0000000+00:00</time></trkpt><trkpt lat="64.01737213" lon="-19.03901482"><ele>609.5</ele><time>2012-07-23T11:13:54.0000000+00:00</time></trkpt><trkpt lat="64.01742554" lon="-19.039011"><ele>608.7</ele><time>2012-07-23T11:13:59.0000000+00:00</time></trkpt><trkpt lat="64.01747131" lon="-19.03899193"><ele>608.7</ele><time>2012-07-23T11:14:04.0000000+00:00</time></trkpt><trkpt lat="64.01752472" lon="-19.0389576"><ele>607.2</ele><time>2012-07-23T11:14:09.0000000+00:00</time></trkpt><trkpt lat="64.01757813" lon="-19.03893471"><ele>607.8</ele><time>2012-07-23T11:14:14.0000000+00:00</time></trkpt><trkpt lat="64.01763153" lon="-19.03889084"><ele>607.3</ele><time>2012-07-23T11:14:19.0000000+00:00</time></trkpt><trkpt lat="64.01768494" lon="-19.03885269"><ele>606.2</ele><time>2012-07-23T11:14:24.0000000+00:00</time></trkpt><trkpt lat="64.01773071" lon="-19.03882027"><ele>605.4</ele><time>2012-07-23T11:14:29.0000000+00:00</time></trkpt><trkpt lat="64.01778412" lon="-19.03879356"><ele>605.1</ele><time>2012-07-23T11:14:34.0000000+00:00</time></trkpt><trkpt lat="64.01785278" lon="-19.03879166"><ele>604.5</ele><time>2012-07-23T11:14:39.0000000+00:00</time></trkpt><trkpt lat="64.01790619" lon="-19.03874588"><ele>603.5</ele><time>2012-07-23T11:14:44.0000000+00:00</time></trkpt><trkpt lat="64.01796722" lon="-19.03869629"><ele>602.4</ele><time>2012-07-23T11:14:49.0000000+00:00</time></trkpt><trkpt lat="64.01802826" lon="-19.03865624"><ele>603.1</ele><time>2012-07-23T11:14:54.0000000+00:00</time></trkpt><trkpt lat="64.01805115" lon="-19.03861046"><ele>602.1</ele><time>2012-07-23T11:14:59.0000000+00:00</time></trkpt><trkpt lat="64.01810455" lon="-19.03857613"><ele>601.8</ele><time>2012-07-23T11:15:04.0000000+00:00</time></trkpt><trkpt lat="64.01815033" lon="-19.03851509"><ele>603.3</ele><time>2012-07-23T11:15:09.0000000+00:00</time></trkpt><trkpt lat="64.01819611" lon="-19.03845406"><ele>603.8</ele><time>2012-07-23T11:15:14.0000000+00:00</time></trkpt><trkpt lat="64.01824951" lon="-19.038414"><ele>604.1</ele><time>2012-07-23T11:15:19.0000000+00:00</time></trkpt><trkpt lat="64.01829529" lon="-19.0383606"><ele>603.5</ele><time>2012-07-23T11:15:24.0000000+00:00</time></trkpt><trkpt lat="64.01833344" lon="-19.0383358"><ele>602.9</ele><time>2012-07-23T11:15:29.0000000+00:00</time></trkpt><trkpt lat="64.01838684" lon="-19.03831673"><ele>602.6</ele><time>2012-07-23T11:15:34.0000000+00:00</time></trkpt><trkpt lat="64.01842499" lon="-19.03830338"><ele>601.4</ele><time>2012-07-23T11:15:39.0000000+00:00</time></trkpt><trkpt lat="64.01847076" lon="-19.03829002"><ele>600.9</ele><time>2012-07-23T11:15:44.0000000+00:00</time></trkpt><trkpt lat="64.0185318" lon="-19.03829193"><ele>600.1</ele><time>2012-07-23T11:15:49.0000000+00:00</time></trkpt><trkpt lat="64.01856995" lon="-19.03829956"><ele>598.4</ele><time>2012-07-23T11:15:54.0000000+00:00</time></trkpt><trkpt lat="64.01863098" lon="-19.03832817"><ele>596.5</ele><time>2012-07-23T11:15:59.0000000+00:00</time></trkpt><trkpt lat="64.01869202" lon="-19.03832817"><ele>595.9</ele><time>2012-07-23T11:16:04.0000000+00:00</time></trkpt><trkpt lat="64.01876068" lon="-19.03834915"><ele>595.3</ele><time>2012-07-23T11:16:09.0000000+00:00</time></trkpt><trkpt lat="64.01882172" lon="-19.03837013"><ele>595.5</ele><time>2012-07-23T11:16:14.0000000+00:00</time></trkpt><trkpt lat="64.01889801" lon="-19.03839111"><ele>597.3</ele><time>2012-07-23T11:16:19.0000000+00:00</time></trkpt><trkpt lat="64.01895905" lon="-19.03838539"><ele>598.0</ele><time>2012-07-23T11:16:24.0000000+00:00</time></trkpt><trkpt lat="64.01902771" lon="-19.03838921"><ele>598.4</ele><time>2012-07-23T11:16:29.0000000+00:00</time></trkpt><trkpt lat="64.01908112" lon="-19.03837013"><ele>597.9</ele><time>2012-07-23T11:16:34.0000000+00:00</time></trkpt><trkpt lat="64.01911926" lon="-19.03832817"><ele>596.9</ele><time>2012-07-23T11:16:39.0000000+00:00</time></trkpt><trkpt lat="64.01918793" lon="-19.03829193"><ele>596.7</ele><time>2012-07-23T11:16:44.0000000+00:00</time></trkpt><trkpt lat="64.0192337" lon="-19.03823853"><ele>595.9</ele><time>2012-07-23T11:16:49.0000000+00:00</time></trkpt><trkpt lat="64.01928711" lon="-19.03819656"><ele>595.4</ele><time>2012-07-23T11:16:54.0000000+00:00</time></trkpt><trkpt lat="64.01934815" lon="-19.03815079"><ele>595.0</ele><time>2012-07-23T11:16:59.0000000+00:00</time></trkpt><trkpt lat="64.01940918" lon="-19.03808594"><ele>593.9</ele><time>2012-07-23T11:17:04.0000000+00:00</time></trkpt><trkpt lat="64.01946259" lon="-19.03804588"><ele>593.3</ele><time>2012-07-23T11:17:09.0000000+00:00</time></trkpt><trkpt lat="64.01951599" lon="-19.0379982"><ele>592.7</ele><time>2012-07-23T11:17:14.0000000+00:00</time></trkpt><trkpt lat="64.0195694" lon="-19.03793526"><ele>592.0</ele><time>2012-07-23T11:17:19.0000000+00:00</time></trkpt><trkpt lat="64.01961517" lon="-19.03787613"><ele>590.6</ele><time>2012-07-23T11:17:24.0000000+00:00</time></trkpt><trkpt lat="64.01966858" lon="-19.03781509"><ele>590.2</ele><time>2012-07-23T11:17:29.0000000+00:00</time></trkpt><trkpt lat="64.01973724" lon="-19.03776169"><ele>590.4</ele><time>2012-07-23T11:17:34.0000000+00:00</time></trkpt><trkpt lat="64.01979065" lon="-19.0376873"><ele>589.9</ele><time>2012-07-23T11:17:39.0000000+00:00</time></trkpt><trkpt lat="64.01984406" lon="-19.0376339"><ele>589.8</ele><time>2012-07-23T11:17:44.0000000+00:00</time></trkpt><trkpt lat="64.01989746" lon="-19.03757286"><ele>588.8</ele><time>2012-07-23T11:17:49.0000000+00:00</time></trkpt><trkpt lat="64.01995087" lon="-19.03749847"><ele>589.1</ele><time>2012-07-23T11:17:54.0000000+00:00</time></trkpt><trkpt lat="64.02000427" lon="-19.0374279"><ele>587.5</ele><time>2012-07-23T11:17:59.0000000+00:00</time></trkpt><trkpt lat="64.02005768" lon="-19.0373764"><ele>587.3</ele><time>2012-07-23T11:18:04.0000000+00:00</time></trkpt><trkpt lat="64.02011871" lon="-19.03731728"><ele>586.8</ele><time>2012-07-23T11:18:09.0000000+00:00</time></trkpt><trkpt lat="64.02017212" lon="-19.03726959"><ele>585.8</ele><time>2012-07-23T11:18:14.0000000+00:00</time></trkpt><trkpt lat="64.0202179" lon="-19.03721046"><ele>585.2</ele><time>2012-07-23T11:18:19.0000000+00:00</time></trkpt><trkpt lat="64.0202713" lon="-19.03717423"><ele>584.4</ele><time>2012-07-23T11:18:24.0000000+00:00</time></trkpt><trkpt lat="64.02031708" lon="-19.03709412"><ele>584.0</ele><time>2012-07-23T11:18:29.0000000+00:00</time></trkpt><trkpt lat="64.02036285" lon="-19.0370388"><ele>583.6</ele><time>2012-07-23T11:18:34.0000000+00:00</time></trkpt><trkpt lat="64.02041626" lon="-19.03697777"><ele>583.1</ele><time>2012-07-23T11:18:39.0000000+00:00</time></trkpt><trkpt lat="64.02046204" lon="-19.03691101"><ele>583.2</ele><time>2012-07-23T11:18:44.0000000+00:00</time></trkpt><trkpt lat="64.02052307" lon="-19.03684807"><ele>583.7</ele><time>2012-07-23T11:18:49.0000000+00:00</time></trkpt><trkpt lat="64.02056885" lon="-19.03679276"><ele>583.8</ele><time>2012-07-23T11:18:54.0000000+00:00</time></trkpt><trkpt lat="64.02062225" lon="-19.03673172"><ele>583.5</ele><time>2012-07-23T11:18:59.0000000+00:00</time></trkpt><trkpt lat="64.02066803" lon="-19.03666878"><ele>583.3</ele><time>2012-07-23T11:19:04.0000000+00:00</time></trkpt><trkpt lat="64.02072144" lon="-19.03660584"><ele>582.8</ele><time>2012-07-23T11:19:09.0000000+00:00</time></trkpt><trkpt lat="64.02077484" lon="-19.03655624"><ele>582.4</ele><time>2012-07-23T11:19:14.0000000+00:00</time></trkpt><trkpt lat="64.02081299" lon="-19.03649521"><ele>581.9</ele><time>2012-07-23T11:19:19.0000000+00:00</time></trkpt><trkpt lat="64.02086639" lon="-19.03645897"><ele>582.0</ele><time>2012-07-23T11:19:24.0000000+00:00</time></trkpt><trkpt lat="64.0209198" lon="-19.03640175"><ele>581.7</ele><time>2012-07-23T11:19:29.0000000+00:00</time></trkpt><trkpt lat="64.02097321" lon="-19.03633881"><ele>580.6</ele><time>2012-07-23T11:19:34.0000000+00:00</time></trkpt><trkpt lat="64.02102661" lon="-19.03627205"><ele>579.8</ele><time>2012-07-23T11:19:39.0000000+00:00</time></trkpt><trkpt lat="64.02108765" lon="-19.03620529"><ele>579.6</ele><time>2012-07-23T11:19:44.0000000+00:00</time></trkpt><trkpt lat="64.02114868" lon="-19.03616142"><ele>579.2</ele><time>2012-07-23T11:19:49.0000000+00:00</time></trkpt><trkpt lat="64.02120209" lon="-19.03609085"><ele>579.6</ele><time>2012-07-23T11:19:54.0000000+00:00</time></trkpt><trkpt lat="64.02125549" lon="-19.03601074"><ele>580.7</ele><time>2012-07-23T11:19:59.0000000+00:00</time></trkpt><trkpt lat="64.0213089" lon="-19.03594017"><ele>580.4</ele><time>2012-07-23T11:20:04.0000000+00:00</time></trkpt><trkpt lat="64.02136993" lon="-19.03590012"><ele>579.8</ele><time>2012-07-23T11:20:09.0000000+00:00</time></trkpt><trkpt lat="64.02142334" lon="-19.03584671"><ele>579.3</ele><time>2012-07-23T11:20:14.0000000+00:00</time></trkpt><trkpt lat="64.02147675" lon="-19.03579521"><ele>578.9</ele><time>2012-07-23T11:20:19.0000000+00:00</time></trkpt><trkpt lat="64.02153015" lon="-19.03574944"><ele>578.7</ele><time>2012-07-23T11:20:24.0000000+00:00</time></trkpt><trkpt lat="64.02159119" lon="-19.03570557"><ele>578.3</ele><time>2012-07-23T11:20:29.0000000+00:00</time></trkpt><trkpt lat="64.02163696" lon="-19.03567123"><ele>577.8</ele><time>2012-07-23T11:20:34.0000000+00:00</time></trkpt><trkpt lat="64.021698" lon="-19.03562355"><ele>577.8</ele><time>2012-07-23T11:20:39.0000000+00:00</time></trkpt><trkpt lat="64.02175903" lon="-19.03560829"><ele>577.4</ele><time>2012-07-23T11:20:44.0000000+00:00</time></trkpt><trkpt lat="64.02182007" lon="-19.03558159"><ele>576.2</ele><time>2012-07-23T11:20:49.0000000+00:00</time></trkpt><trkpt lat="64.0218811" lon="-19.03556824"><ele>575.5</ele><time>2012-07-23T11:20:54.0000000+00:00</time></trkpt><trkpt lat="64.02193451" lon="-19.03554726"><ele>574.7</ele><time>2012-07-23T11:20:59.0000000+00:00</time></trkpt><trkpt lat="64.02198792" lon="-19.03548813"><ele>574.3</ele><time>2012-07-23T11:21:04.0000000+00:00</time></trkpt><trkpt lat="64.02204132" lon="-19.03543663"><ele>573.1</ele><time>2012-07-23T11:21:09.0000000+00:00</time></trkpt><trkpt lat="64.02209473" lon="-19.03537369"><ele>573.5</ele><time>2012-07-23T11:21:14.0000000+00:00</time></trkpt><trkpt lat="64.02214813" lon="-19.03531265"><ele>573.7</ele><time>2012-07-23T11:21:19.0000000+00:00</time></trkpt><trkpt lat="64.02220917" lon="-19.03524971"><ele>573.3</ele><time>2012-07-23T11:21:24.0000000+00:00</time></trkpt><trkpt lat="64.0222702" lon="-19.03520966"><ele>574.2</ele><time>2012-07-23T11:21:29.0000000+00:00</time></trkpt><trkpt lat="64.02231598" lon="-19.03518868"><ele>573.1</ele><time>2012-07-23T11:21:34.0000000+00:00</time></trkpt><trkpt lat="64.02236939" lon="-19.03518105"><ele>573.0</ele><time>2012-07-23T11:21:39.0000000+00:00</time></trkpt><trkpt lat="64.02242279" lon="-19.03515053"><ele>572.5</ele><time>2012-07-23T11:21:44.0000000+00:00</time></trkpt><trkpt lat="64.02243042" lon="-19.03513527"><ele>572.5</ele><time>2012-07-23T11:21:49.0000000+00:00</time></trkpt><trkpt lat="64.02246857" lon="-19.03509522"><ele>572.3</ele><time>2012-07-23T11:21:54.0000000+00:00</time></trkpt><trkpt lat="64.0225296" lon="-19.0350647"><ele>572.7</ele><time>2012-07-23T11:21:59.0000000+00:00</time></trkpt><trkpt lat="64.02259064" lon="-19.03501892"><ele>573.0</ele><time>2012-07-23T11:22:04.0000000+00:00</time></trkpt><trkpt lat="64.02264404" lon="-19.03499031"><ele>572.1</ele><time>2012-07-23T11:22:09.0000000+00:00</time></trkpt><trkpt lat="64.02270508" lon="-19.03497505"><ele>572.3</ele><time>2012-07-23T11:22:14.0000000+00:00</time></trkpt><trkpt lat="64.02275848" lon="-19.03495598"><ele>572.5</ele><time>2012-07-23T11:22:19.0000000+00:00</time></trkpt><trkpt lat="64.02281189" lon="-19.03492546"><ele>572.6</ele><time>2012-07-23T11:22:24.0000000+00:00</time></trkpt><trkpt lat="64.02285767" lon="-19.03487015"><ele>572.4</ele><time>2012-07-23T11:22:29.0000000+00:00</time></trkpt><trkpt lat="64.02291107" lon="-19.03481293"><ele>572.6</ele><time>2012-07-23T11:22:34.0000000+00:00</time></trkpt><trkpt lat="64.02296448" lon="-19.03477669"><ele>571.6</ele><time>2012-07-23T11:22:39.0000000+00:00</time></trkpt><trkpt lat="64.02302551" lon="-19.03470993"><ele>571.2</ele><time>2012-07-23T11:22:44.0000000+00:00</time></trkpt><trkpt lat="64.02308655" lon="-19.03466988"><ele>571.7</ele><time>2012-07-23T11:22:49.0000000+00:00</time></trkpt><trkpt lat="64.02313232" lon="-19.0345974"><ele>572.8</ele><time>2012-07-23T11:22:54.0000000+00:00</time></trkpt><trkpt lat="64.02318573" lon="-19.03454971"><ele>572.5</ele><time>2012-07-23T11:22:59.0000000+00:00</time></trkpt><trkpt lat="64.02323914" lon="-19.0345211"><ele>572.3</ele><time>2012-07-23T11:23:04.0000000+00:00</time></trkpt><trkpt lat="64.02328491" lon="-19.03451347"><ele>571.4</ele><time>2012-07-23T11:23:09.0000000+00:00</time></trkpt><trkpt lat="64.02333832" lon="-19.03447723"><ele>570.4</ele><time>2012-07-23T11:23:14.0000000+00:00</time></trkpt><trkpt lat="64.02339935" lon="-19.03444099"><ele>569.0</ele><time>2012-07-23T11:23:19.0000000+00:00</time></trkpt><trkpt lat="64.02345276" lon="-19.03440857"><ele>568.2</ele><time>2012-07-23T11:23:24.0000000+00:00</time></trkpt><trkpt lat="64.02350617" lon="-19.03439903"><ele>567.1</ele><time>2012-07-23T11:23:29.0000000+00:00</time></trkpt><trkpt lat="64.0235672" lon="-19.03438187"><ele>566.0</ele><time>2012-07-23T11:23:34.0000000+00:00</time></trkpt><trkpt lat="64.02362061" lon="-19.03437233"><ele>563.9</ele><time>2012-07-23T11:23:39.0000000+00:00</time></trkpt><trkpt lat="64.02367401" lon="-19.03435326"><ele>563.6</ele><time>2012-07-23T11:23:44.0000000+00:00</time></trkpt><trkpt lat="64.02373505" lon="-19.03433037"><ele>564.1</ele><time>2012-07-23T11:23:49.0000000+00:00</time></trkpt><trkpt lat="64.02380371" lon="-19.03432655"><ele>564.1</ele><time>2012-07-23T11:23:54.0000000+00:00</time></trkpt><trkpt lat="64.02386475" lon="-19.03432655"><ele>564.2</ele><time>2012-07-23T11:23:59.0000000+00:00</time></trkpt><trkpt lat="64.02392578" lon="-19.0343113"><ele>563.8</ele><time>2012-07-23T11:24:04.0000000+00:00</time></trkpt><trkpt lat="64.02398682" lon="-19.03429985"><ele>562.3</ele><time>2012-07-23T11:24:09.0000000+00:00</time></trkpt><trkpt lat="64.02404785" lon="-19.03426933"><ele>562.2</ele><time>2012-07-23T11:24:14.0000000+00:00</time></trkpt><trkpt lat="64.02411652" lon="-19.03423882"><ele>563.1</ele><time>2012-07-23T11:24:19.0000000+00:00</time></trkpt><trkpt lat="64.02417755" lon="-19.03421974"><ele>562.8</ele><time>2012-07-23T11:24:24.0000000+00:00</time></trkpt><trkpt lat="64.02423859" lon="-19.03417206"><ele>563.0</ele><time>2012-07-23T11:24:29.0000000+00:00</time></trkpt><trkpt lat="64.02429962" lon="-19.03412628"><ele>563.7</ele><time>2012-07-23T11:24:34.0000000+00:00</time></trkpt><trkpt lat="64.02436066" lon="-19.03407669"><ele>564.9</ele><time>2012-07-23T11:24:39.0000000+00:00</time></trkpt><trkpt lat="64.02442169" lon="-19.03403473"><ele>566.7</ele><time>2012-07-23T11:24:44.0000000+00:00</time></trkpt><trkpt lat="64.02448273" lon="-19.03399468"><ele>568.3</ele><time>2012-07-23T11:24:49.0000000+00:00</time></trkpt><trkpt lat="64.02452087" lon="-19.03393936"><ele>569.2</ele><time>2012-07-23T11:24:54.0000000+00:00</time></trkpt><trkpt lat="64.02456665" lon="-19.03389359"><ele>570.3</ele><time>2012-07-23T11:24:59.0000000+00:00</time></trkpt><trkpt lat="64.02461243" lon="-19.03382874"><ele>570.8</ele><time>2012-07-23T11:25:04.0000000+00:00</time></trkpt><trkpt lat="64.0246582" lon="-19.03374863"><ele>571.5</ele><time>2012-07-23T11:25:09.0000000+00:00</time></trkpt><trkpt lat="64.02471161" lon="-19.03367615"><ele>571.9</ele><time>2012-07-23T11:25:14.0000000+00:00</time></trkpt><trkpt lat="64.02477264" lon="-19.0336113"><ele>572.4</ele><time>2012-07-23T11:25:19.0000000+00:00</time></trkpt><trkpt lat="64.02482605" lon="-19.03356171"><ele>572.0</ele><time>2012-07-23T11:25:24.0000000+00:00</time></trkpt><trkpt lat="64.02487946" lon="-19.03350067"><ele>572.0</ele><time>2012-07-23T11:25:29.0000000+00:00</time></trkpt><trkpt lat="64.02492523" lon="-19.03343773"><ele>572.1</ele><time>2012-07-23T11:25:34.0000000+00:00</time></trkpt><trkpt lat="64.0249939" lon="-19.03337669"><ele>572.3</ele><time>2012-07-23T11:25:39.0000000+00:00</time></trkpt><trkpt lat="64.0250473" lon="-19.0333271"><ele>572.0</ele><time>2012-07-23T11:25:44.0000000+00:00</time></trkpt><trkpt lat="64.02511597" lon="-19.03333283"><ele>571.5</ele><time>2012-07-23T11:25:49.0000000+00:00</time></trkpt><trkpt lat="64.025177" lon="-19.03334427"><ele>571.4</ele><time>2012-07-23T11:25:54.0000000+00:00</time></trkpt><trkpt lat="64.02522278" lon="-19.03331184"><ele>572.3</ele><time>2012-07-23T11:25:59.0000000+00:00</time></trkpt><trkpt lat="64.02524567" lon="-19.03322601"><ele>572.4</ele><time>2012-07-23T11:26:04.0000000+00:00</time></trkpt><trkpt lat="64.02527618" lon="-19.03310585"><ele>573.0</ele><time>2012-07-23T11:26:09.0000000+00:00</time></trkpt><trkpt lat="64.0253067" lon="-19.03299332"><ele>573.0</ele><time>2012-07-23T11:26:14.0000000+00:00</time></trkpt><trkpt lat="64.02534485" lon="-19.03287506"><ele>572.8</ele><time>2012-07-23T11:26:19.0000000+00:00</time></trkpt><trkpt lat="64.02537537" lon="-19.03275108"><ele>572.9</ele><time>2012-07-23T11:26:24.0000000+00:00</time></trkpt><trkpt lat="64.02540588" lon="-19.03264046"><ele>572.4</ele><time>2012-07-23T11:26:29.0000000+00:00</time></trkpt><trkpt lat="64.0254364" lon="-19.03253937"><ele>572.1</ele><time>2012-07-23T11:26:34.0000000+00:00</time></trkpt><trkpt lat="64.02546692" lon="-19.03243446"><ele>572.4</ele><time>2012-07-23T11:26:39.0000000+00:00</time></trkpt><trkpt lat="64.02550507" lon="-19.03231239"><ele>572.6</ele><time>2012-07-23T11:26:44.0000000+00:00</time></trkpt><trkpt lat="64.02553558" lon="-19.03219795"><ele>572.6</ele><time>2012-07-23T11:26:49.0000000+00:00</time></trkpt><trkpt lat="64.0255661" lon="-19.03206825"><ele>573.2</ele><time>2012-07-23T11:26:54.0000000+00:00</time></trkpt><trkpt lat="64.02558899" lon="-19.0319519"><ele>573.2</ele><time>2012-07-23T11:26:59.0000000+00:00</time></trkpt><trkpt lat="64.02560425" lon="-19.03181648"><ele>574.0</ele><time>2012-07-23T11:27:04.0000000+00:00</time></trkpt><trkpt lat="64.02561951" lon="-19.03166771"><ele>574.9</ele><time>2012-07-23T11:27:09.0000000+00:00</time></trkpt><trkpt lat="64.02562714" lon="-19.03152847"><ele>576.1</ele><time>2012-07-23T11:27:14.0000000+00:00</time></trkpt><trkpt lat="64.02563477" lon="-19.03140068"><ele>577.0</ele><time>2012-07-23T11:27:19.0000000+00:00</time></trkpt><trkpt lat="64.0256424" lon="-19.03129196"><ele>577.2</ele><time>2012-07-23T11:27:24.0000000+00:00</time></trkpt><trkpt lat="64.0256424" lon="-19.03118324"><ele>576.2</ele><time>2012-07-23T11:27:29.0000000+00:00</time></trkpt><trkpt lat="64.0256424" lon="-19.03103256"><ele>575.1</ele><time>2012-07-23T11:27:34.0000000+00:00</time></trkpt><trkpt lat="64.02565002" lon="-19.03087235"><ele>574.3</ele><time>2012-07-23T11:27:39.0000000+00:00</time></trkpt><trkpt lat="64.02566528" lon="-19.03072929"><ele>574.9</ele><time>2012-07-23T11:27:44.0000000+00:00</time></trkpt><trkpt lat="64.02568817" lon="-19.03059006"><ele>575.1</ele><time>2012-07-23T11:27:49.0000000+00:00</time></trkpt><trkpt lat="64.02571869" lon="-19.03045654"><ele>575.9</ele><time>2012-07-23T11:27:54.0000000+00:00</time></trkpt><trkpt lat="64.02575684" lon="-19.03034401"><ele>575.9</ele><time>2012-07-23T11:27:59.0000000+00:00</time></trkpt><trkpt lat="64.02579498" lon="-19.0302372"><ele>575.6</ele><time>2012-07-23T11:28:04.0000000+00:00</time></trkpt><trkpt lat="64.0258255" lon="-19.03014374"><ele>575.7</ele><time>2012-07-23T11:28:09.0000000+00:00</time></trkpt><trkpt lat="64.02586365" lon="-19.03001595"><ele>575.3</ele><time>2012-07-23T11:28:14.0000000+00:00</time></trkpt><trkpt lat="64.02589417" lon="-19.02987671"><ele>575.3</ele><time>2012-07-23T11:28:19.0000000+00:00</time></trkpt><trkpt lat="64.02591705" lon="-19.02972984"><ele>574.9</ele><time>2012-07-23T11:28:24.0000000+00:00</time></trkpt><trkpt lat="64.02593231" lon="-19.02959633"><ele>575.2</ele><time>2012-07-23T11:28:29.0000000+00:00</time></trkpt><trkpt lat="64.02594757" lon="-19.02946472"><ele>575.1</ele><time>2012-07-23T11:28:34.0000000+00:00</time></trkpt><trkpt lat="64.02596283" lon="-19.0293293"><ele>574.6</ele><time>2012-07-23T11:28:39.0000000+00:00</time></trkpt><trkpt lat="64.02598572" lon="-19.02920532"><ele>574.8</ele><time>2012-07-23T11:28:44.0000000+00:00</time></trkpt><trkpt lat="64.02600098" lon="-19.02905846"><ele>574.5</ele><time>2012-07-23T11:28:49.0000000+00:00</time></trkpt><trkpt lat="64.02602387" lon="-19.0289135"><ele>574.2</ele><time>2012-07-23T11:28:54.0000000+00:00</time></trkpt><trkpt lat="64.02603149" lon="-19.02877426"><ele>573.9</ele><time>2012-07-23T11:28:59.0000000+00:00</time></trkpt><trkpt lat="64.02605438" lon="-19.0286541"><ele>574.1</ele><time>2012-07-23T11:29:04.0000000+00:00</time></trkpt><trkpt lat="64.02607727" lon="-19.02851486"><ele>574.1</ele><time>2012-07-23T11:29:09.0000000+00:00</time></trkpt><trkpt lat="64.0260849" lon="-19.02837372"><ele>574.8</ele><time>2012-07-23T11:29:14.0000000+00:00</time></trkpt><trkpt lat="64.02610016" lon="-19.02822876"><ele>574.5</ele><time>2012-07-23T11:29:19.0000000+00:00</time></trkpt><trkpt lat="64.02610779" lon="-19.02809715"><ele>574.6</ele><time>2012-07-23T11:29:24.0000000+00:00</time></trkpt><trkpt lat="64.02610779" lon="-19.02794075"><ele>574.8</ele><time>2012-07-23T11:29:29.0000000+00:00</time></trkpt><trkpt lat="64.02610779" lon="-19.02777863"><ele>573.0</ele><time>2012-07-23T11:29:34.0000000+00:00</time></trkpt><trkpt lat="64.02610779" lon="-19.0276432"><ele>572.9</ele><time>2012-07-23T11:29:39.0000000+00:00</time></trkpt><trkpt lat="64.02610016" lon="-19.02749443"><ele>572.6</ele><time>2012-07-23T11:29:44.0000000+00:00</time></trkpt><trkpt lat="64.02609253" lon="-19.0273819"><ele>572.5</ele><time>2012-07-23T11:29:49.0000000+00:00</time></trkpt><trkpt lat="64.02610016" lon="-19.02723885"><ele>573.3</ele><time>2012-07-23T11:29:54.0000000+00:00</time></trkpt><trkpt lat="64.02609253" lon="-19.02709007"><ele>573.7</ele><time>2012-07-23T11:29:59.0000000+00:00</time></trkpt><trkpt lat="64.0260849" lon="-19.02695847"><ele>574.1</ele><time>2012-07-23T11:30:04.0000000+00:00</time></trkpt><trkpt lat="64.0260849" lon="-19.02681351"><ele>575.2</ele><time>2012-07-23T11:30:09.0000000+00:00</time></trkpt><trkpt lat="64.02607727" lon="-19.02666664"><ele>574.8</ele><time>2012-07-23T11:30:14.0000000+00:00</time></trkpt><trkpt lat="64.02606201" lon="-19.02651596"><ele>574.1</ele><time>2012-07-23T11:30:19.0000000+00:00</time></trkpt><trkpt lat="64.02605438" lon="-19.02637863"><ele>573.9</ele><time>2012-07-23T11:30:24.0000000+00:00</time></trkpt><trkpt lat="64.02604675" lon="-19.02622986"><ele>573.6</ele><time>2012-07-23T11:30:29.0000000+00:00</time></trkpt><trkpt lat="64.02603149" lon="-19.02610779"><ele>574.1</ele><time>2012-07-23T11:30:34.0000000+00:00</time></trkpt><trkpt lat="64.02602387" lon="-19.02594566"><ele>573.0</ele><time>2012-07-23T11:30:39.0000000+00:00</time></trkpt><trkpt lat="64.02600861" lon="-19.02580833"><ele>573.0</ele><time>2012-07-23T11:30:44.0000000+00:00</time></trkpt><trkpt lat="64.02599335" lon="-19.02567291"><ele>572.9</ele><time>2012-07-23T11:30:49.0000000+00:00</time></trkpt><trkpt lat="64.02598572" lon="-19.0255146"><ele>572.4</ele><time>2012-07-23T11:30:54.0000000+00:00</time></trkpt><trkpt lat="64.02596283" lon="-19.0253849"><ele>573.4</ele><time>2012-07-23T11:30:59.0000000+00:00</time></trkpt><trkpt lat="64.02594757" lon="-19.02526474"><ele>573.8</ele><time>2012-07-23T11:31:04.0000000+00:00</time></trkpt><trkpt lat="64.02593231" lon="-19.02513313"><ele>573.2</ele><time>2012-07-23T11:31:09.0000000+00:00</time></trkpt><trkpt lat="64.02590179" lon="-19.0249958"><ele>573.3</ele><time>2012-07-23T11:31:14.0000000+00:00</time></trkpt><trkpt lat="64.02588654" lon="-19.02487564"><ele>574.4</ele><time>2012-07-23T11:31:19.0000000+00:00</time></trkpt><trkpt lat="64.02586365" lon="-19.0247364"><ele>574.5</ele><time>2012-07-23T11:31:24.0000000+00:00</time></trkpt><trkpt lat="64.02584839" lon="-19.02459908"><ele>575.6</ele><time>2012-07-23T11:31:29.0000000+00:00</time></trkpt><trkpt lat="64.0258255" lon="-19.0244751"><ele>575.6</ele><time>2012-07-23T11:31:34.0000000+00:00</time></trkpt><trkpt lat="64.02580261" lon="-19.02432823"><ele>575.2</ele><time>2012-07-23T11:31:39.0000000+00:00</time></trkpt><trkpt lat="64.02578735" lon="-19.02421951"><ele>576.0</ele><time>2012-07-23T11:31:44.0000000+00:00</time></trkpt><trkpt lat="64.02576447" lon="-19.02409363"><ele>577.8</ele><time>2012-07-23T11:31:49.0000000+00:00</time></trkpt><trkpt lat="64.02575684" lon="-19.02399635"><ele>578.7</ele><time>2012-07-23T11:31:54.0000000+00:00</time></trkpt><trkpt lat="64.02575684" lon="-19.02386856"><ele>579.3</ele><time>2012-07-23T11:31:59.0000000+00:00</time></trkpt><trkpt lat="64.02574921" lon="-19.02373314"><ele>579.6</ele><time>2012-07-23T11:32:04.0000000+00:00</time></trkpt><trkpt lat="64.02574921" lon="-19.02359772"><ele>579.0</ele><time>2012-07-23T11:32:09.0000000+00:00</time></trkpt><trkpt lat="64.02574921" lon="-19.02344894"><ele>578.9</ele><time>2012-07-23T11:32:14.0000000+00:00</time></trkpt><trkpt lat="64.02574158" lon="-19.02334213"><ele>579.0</ele><time>2012-07-23T11:32:19.0000000+00:00</time></trkpt><trkpt lat="64.02573395" lon="-19.02319717"><ele>578.3</ele><time>2012-07-23T11:32:24.0000000+00:00</time></trkpt><trkpt lat="64.02573395" lon="-19.0230732"><ele>578.2</ele><time>2012-07-23T11:32:29.0000000+00:00</time></trkpt><trkpt lat="64.02574158" lon="-19.02293396"><ele>578.8</ele><time>2012-07-23T11:32:34.0000000+00:00</time></trkpt><trkpt lat="64.02573395" lon="-19.02279663"><ele>577.9</ele><time>2012-07-23T11:32:39.0000000+00:00</time></trkpt><trkpt lat="64.02571869" lon="-19.02264786"><ele>578.0</ele><time>2012-07-23T11:32:44.0000000+00:00</time></trkpt><trkpt lat="64.0256958" lon="-19.0225296"><ele>578.7</ele><time>2012-07-23T11:32:49.0000000+00:00</time></trkpt><trkpt lat="64.02568817" lon="-19.02240944"><ele>578.4</ele><time>2012-07-23T11:32:54.0000000+00:00</time></trkpt><trkpt lat="64.02568817" lon="-19.02230454"><ele>578.2</ele><time>2012-07-23T11:32:59.0000000+00:00</time></trkpt><trkpt lat="64.02568817" lon="-19.02217484"><ele>578.4</ele><time>2012-07-23T11:33:04.0000000+00:00</time></trkpt><trkpt lat="64.0256958" lon="-19.02202606"><ele>578.5</ele><time>2012-07-23T11:33:09.0000000+00:00</time></trkpt><trkpt lat="64.02571106" lon="-19.02192307"><ele>578.6</ele><time>2012-07-23T11:33:14.0000000+00:00</time></trkpt><trkpt lat="64.02573395" lon="-19.02178764"><ele>579.1</ele><time>2012-07-23T11:33:19.0000000+00:00</time></trkpt><trkpt lat="64.02575684" lon="-19.02165794"><ele>579.8</ele><time>2012-07-23T11:33:24.0000000+00:00</time></trkpt><trkpt lat="64.02577972" lon="-19.02152634"><ele>579.4</ele><time>2012-07-23T11:33:29.0000000+00:00</time></trkpt><trkpt lat="64.02578735" lon="-19.02137756"><ele>578.9</ele><time>2012-07-23T11:33:34.0000000+00:00</time></trkpt><trkpt lat="64.02580261" lon="-19.02123642"><ele>577.7</ele><time>2012-07-23T11:33:39.0000000+00:00</time></trkpt><trkpt lat="64.02581024" lon="-19.02108955"><ele>577.4</ele><time>2012-07-23T11:33:44.0000000+00:00</time></trkpt><trkpt lat="64.02583313" lon="-19.02095032"><ele>576.9</ele><time>2012-07-23T11:33:49.0000000+00:00</time></trkpt><trkpt lat="64.02587891" lon="-19.0208416"><ele>576.2</ele><time>2012-07-23T11:33:54.0000000+00:00</time></trkpt><trkpt lat="64.02593231" lon="-19.02076149"><ele>575.8</ele><time>2012-07-23T11:33:59.0000000+00:00</time></trkpt><trkpt lat="64.02597046" lon="-19.0206604"><ele>575.0</ele><time>2012-07-23T11:34:04.0000000+00:00</time></trkpt><trkpt lat="64.02601624" lon="-19.02057076"><ele>574.9</ele><time>2012-07-23T11:34:09.0000000+00:00</time></trkpt><trkpt lat="64.02606201" lon="-19.0204773"><ele>574.9</ele><time>2012-07-23T11:34:14.0000000+00:00</time></trkpt><trkpt lat="64.02610779" lon="-19.02037239"><ele>575.1</ele><time>2012-07-23T11:34:19.0000000+00:00</time></trkpt><trkpt lat="64.02615356" lon="-19.02026177"><ele>574.7</ele><time>2012-07-23T11:34:24.0000000+00:00</time></trkpt><trkpt lat="64.02619934" lon="-19.02017784"><ele>574.5</ele><time>2012-07-23T11:34:29.0000000+00:00</time></trkpt><trkpt lat="64.02623749" lon="-19.0200634"><ele>574.4</ele><time>2012-07-23T11:34:34.0000000+00:00</time></trkpt><trkpt lat="64.02627564" lon="-19.01995087"><ele>574.5</ele><time>2012-07-23T11:34:39.0000000+00:00</time></trkpt><trkpt lat="64.02631378" lon="-19.01984978"><ele>575.5</ele><time>2012-07-23T11:34:44.0000000+00:00</time></trkpt><trkpt lat="64.02635956" lon="-19.01973915"><ele>574.4</ele><time>2012-07-23T11:34:49.0000000+00:00</time></trkpt><trkpt lat="64.02642059" lon="-19.01960373"><ele>574.1</ele><time>2012-07-23T11:34:54.0000000+00:00</time></trkpt><trkpt lat="64.02645874" lon="-19.01949501"><ele>575.5</ele><time>2012-07-23T11:34:59.0000000+00:00</time></trkpt><trkpt lat="64.02649689" lon="-19.01938248"><ele>577.2</ele><time>2012-07-23T11:35:04.0000000+00:00</time></trkpt><trkpt lat="64.02654266" lon="-19.01926422"><ele>578.3</ele><time>2012-07-23T11:35:09.0000000+00:00</time></trkpt><trkpt lat="64.02657318" lon="-19.01916504"><ele>577.6</ele><time>2012-07-23T11:35:14.0000000+00:00</time></trkpt><trkpt lat="64.0266037" lon="-19.01905632"><ele>578.6</ele><time>2012-07-23T11:35:19.0000000+00:00</time></trkpt><trkpt lat="64.02661133" lon="-19.01892471"><ele>578.7</ele><time>2012-07-23T11:35:24.0000000+00:00</time></trkpt><trkpt lat="64.02661896" lon="-19.01878357"><ele>578.8</ele><time>2012-07-23T11:35:29.0000000+00:00</time></trkpt><trkpt lat="64.02664948" lon="-19.01864243"><ele>579.5</ele><time>2012-07-23T11:35:34.0000000+00:00</time></trkpt><trkpt lat="64.02668762" lon="-19.01855469"><ele>579.9</ele><time>2012-07-23T11:35:39.0000000+00:00</time></trkpt><trkpt lat="64.0267334" lon="-19.01852989"><ele>580.1</ele><time>2012-07-23T11:35:44.0000000+00:00</time></trkpt><trkpt lat="64.02679443" lon="-19.0185318"><ele>579.6</ele><time>2012-07-23T11:35:49.0000000+00:00</time></trkpt><trkpt lat="64.02684021" lon="-19.01849556"><ele>578.6</ele><time>2012-07-23T11:35:54.0000000+00:00</time></trkpt><trkpt lat="64.02689362" lon="-19.01838112"><ele>577.4</ele><time>2012-07-23T11:35:59.0000000+00:00</time></trkpt><trkpt lat="64.02693176" lon="-19.01826096"><ele>576.3</ele><time>2012-07-23T11:36:04.0000000+00:00</time></trkpt><trkpt lat="64.02698517" lon="-19.01811409"><ele>576.6</ele><time>2012-07-23T11:36:09.0000000+00:00</time></trkpt><trkpt lat="64.02700806" lon="-19.01798248"><ele>577.3</ele><time>2012-07-23T11:36:14.0000000+00:00</time></trkpt><trkpt lat="64.02703095" lon="-19.01785278"><ele>576.9</ele><time>2012-07-23T11:36:19.0000000+00:00</time></trkpt><trkpt lat="64.02706146" lon="-19.01772881"><ele>576.8</ele><time>2012-07-23T11:36:24.0000000+00:00</time></trkpt><trkpt lat="64.02709198" lon="-19.01760674"><ele>577.2</ele><time>2012-07-23T11:36:29.0000000+00:00</time></trkpt><trkpt lat="64.02710724" lon="-19.01747894"><ele>577.0</ele><time>2012-07-23T11:36:34.0000000+00:00</time></trkpt><trkpt lat="64.0271225" lon="-19.01735687"><ele>577.1</ele><time>2012-07-23T11:36:39.0000000+00:00</time></trkpt><trkpt lat="64.02713013" lon="-19.01723862"><ele>577.4</ele><time>2012-07-23T11:36:44.0000000+00:00</time></trkpt><trkpt lat="64.02711487" lon="-19.01711464"><ele>577.0</ele><time>2012-07-23T11:36:49.0000000+00:00</time></trkpt><trkpt lat="64.02709961" lon="-19.01696777"><ele>575.9</ele><time>2012-07-23T11:36:54.0000000+00:00</time></trkpt><trkpt lat="64.02711487" lon="-19.0168438"><ele>575.9</ele><time>2012-07-23T11:36:59.0000000+00:00</time></trkpt><trkpt lat="64.02716827" lon="-19.01680946"><ele>576.1</ele><time>2012-07-23T11:37:04.0000000+00:00</time></trkpt><trkpt lat="64.02722931" lon="-19.0167923"><ele>575.1</ele><time>2012-07-23T11:37:09.0000000+00:00</time></trkpt><trkpt lat="64.0273056" lon="-19.01677322"><ele>576.6</ele><time>2012-07-23T11:37:14.0000000+00:00</time></trkpt><trkpt lat="64.02735901" lon="-19.01672936"><ele>576.8</ele><time>2012-07-23T11:37:19.0000000+00:00</time></trkpt><trkpt lat="64.02741242" lon="-19.016716"><ele>577.1</ele><time>2012-07-23T11:37:24.0000000+00:00</time></trkpt><trkpt lat="64.02746582" lon="-19.01670647"><ele>577.1</ele><time>2012-07-23T11:37:29.0000000+00:00</time></trkpt><trkpt lat="64.02751923" lon="-19.01668358"><ele>576.5</ele><time>2012-07-23T11:37:34.0000000+00:00</time></trkpt><trkpt lat="64.02758026" lon="-19.01664352"><ele>575.7</ele><time>2012-07-23T11:37:39.0000000+00:00</time></trkpt><trkpt lat="64.02763367" lon="-19.01658058"><ele>575.4</ele><time>2012-07-23T11:37:44.0000000+00:00</time></trkpt><trkpt lat="64.02768707" lon="-19.01652336"><ele>577.3</ele><time>2012-07-23T11:37:49.0000000+00:00</time></trkpt><trkpt lat="64.02773285" lon="-19.01648712"><ele>578.1</ele><time>2012-07-23T11:37:54.0000000+00:00</time></trkpt><trkpt lat="64.02777863" lon="-19.01639938"><ele>577.4</ele><time>2012-07-23T11:37:59.0000000+00:00</time></trkpt><trkpt lat="64.0278244" lon="-19.0163269"><ele>577.4</ele><time>2012-07-23T11:38:04.0000000+00:00</time></trkpt><trkpt lat="64.02787018" lon="-19.01624489"><ele>577.7</ele><time>2012-07-23T11:38:09.0000000+00:00</time></trkpt><trkpt lat="64.02789307" lon="-19.01619911"><ele>578.6</ele><time>2012-07-23T11:38:14.0000000+00:00</time></trkpt><trkpt lat="64.02793121" lon="-19.01614761"><ele>578.2</ele><time>2012-07-23T11:38:19.0000000+00:00</time></trkpt><trkpt lat="64.02797699" lon="-19.01605034"><ele>577.8</ele><time>2012-07-23T11:38:24.0000000+00:00</time></trkpt><trkpt lat="64.02802277" lon="-19.01593971"><ele>579.1</ele><time>2012-07-23T11:38:29.0000000+00:00</time></trkpt><trkpt lat="64.02804565" lon="-19.01584625"><ele>580.5</ele><time>2012-07-23T11:38:34.0000000+00:00</time></trkpt><trkpt lat="64.0280838" lon="-19.01576614"><ele>582.5</ele><time>2012-07-23T11:38:39.0000000+00:00</time></trkpt><trkpt lat="64.02812195" lon="-19.01570511"><ele>583.5</ele><time>2012-07-23T11:38:44.0000000+00:00</time></trkpt><trkpt lat="64.02815247" lon="-19.01561928"><ele>584.4</ele><time>2012-07-23T11:38:49.0000000+00:00</time></trkpt><trkpt lat="64.02816773" lon="-19.01556778"><ele>583.8</ele><time>2012-07-23T11:38:54.0000000+00:00</time></trkpt><trkpt lat="64.02819061" lon="-19.01545143"><ele>583.9</ele><time>2012-07-23T11:38:59.0000000+00:00</time></trkpt><trkpt lat="64.0282135" lon="-19.01534843"><ele>584.8</ele><time>2012-07-23T11:39:04.0000000+00:00</time></trkpt><trkpt lat="64.02824402" lon="-19.01522255"><ele>586.4</ele><time>2012-07-23T11:39:09.0000000+00:00</time></trkpt><trkpt lat="64.0282898" lon="-19.01514435"><ele>587.0</ele><time>2012-07-23T11:39:14.0000000+00:00</time></trkpt><trkpt lat="64.02833557" lon="-19.01508713"><ele>588.5</ele><time>2012-07-23T11:39:19.0000000+00:00</time></trkpt><trkpt lat="64.02836609" lon="-19.01500511"><ele>588.2</ele><time>2012-07-23T11:39:24.0000000+00:00</time></trkpt><trkpt lat="64.02841187" lon="-19.01491356"><ele>589.3</ele><time>2012-07-23T11:39:29.0000000+00:00</time></trkpt><trkpt lat="64.02844238" lon="-19.01481628"><ele>590.5</ele><time>2012-07-23T11:39:34.0000000+00:00</time></trkpt><trkpt lat="64.02848816" lon="-19.01473045"><ele>590.4</ele><time>2012-07-23T11:39:39.0000000+00:00</time></trkpt><trkpt lat="64.02851868" lon="-19.01463127"><ele>590.4</ele><time>2012-07-23T11:39:44.0000000+00:00</time></trkpt><trkpt lat="64.02855682" lon="-19.01453018"><ele>591.1</ele><time>2012-07-23T11:39:49.0000000+00:00</time></trkpt><trkpt lat="64.02859497" lon="-19.01445961"><ele>591.2</ele><time>2012-07-23T11:39:54.0000000+00:00</time></trkpt><trkpt lat="64.02862549" lon="-19.0143795"><ele>590.1</ele><time>2012-07-23T11:39:59.0000000+00:00</time></trkpt><trkpt lat="64.02866364" lon="-19.01426888"><ele>592.5</ele><time>2012-07-23T11:40:04.0000000+00:00</time></trkpt><trkpt lat="64.02869415" lon="-19.01419449"><ele>593.4</ele><time>2012-07-23T11:40:09.0000000+00:00</time></trkpt><trkpt lat="64.02871704" lon="-19.01410484"><ele>593.7</ele><time>2012-07-23T11:40:14.0000000+00:00</time></trkpt><trkpt lat="64.02870941" lon="-19.01402092"><ele>594.5</ele><time>2012-07-23T11:40:19.0000000+00:00</time></trkpt><trkpt lat="64.02868652" lon="-19.01394463"><ele>596.7</ele><time>2012-07-23T11:40:24.0000000+00:00</time></trkpt><trkpt lat="64.02866364" lon="-19.01387787"><ele>597.9</ele><time>2012-07-23T11:40:29.0000000+00:00</time></trkpt><trkpt lat="64.02864075" lon="-19.0138073"><ele>600.0</ele><time>2012-07-23T11:40:34.0000000+00:00</time></trkpt><trkpt lat="64.02861786" lon="-19.01368904"><ele>600.7</ele><time>2012-07-23T11:40:39.0000000+00:00</time></trkpt><trkpt lat="64.02861786" lon="-19.01356506"><ele>601.4</ele><time>2012-07-23T11:40:44.0000000+00:00</time></trkpt><trkpt lat="64.02864838" lon="-19.01348686"><ele>601.5</ele><time>2012-07-23T11:40:49.0000000+00:00</time></trkpt><trkpt lat="64.02867127" lon="-19.01340294"><ele>599.9</ele><time>2012-07-23T11:40:54.0000000+00:00</time></trkpt><trkpt lat="64.02869415" lon="-19.01327705"><ele>602.8</ele><time>2012-07-23T11:40:59.0000000+00:00</time></trkpt><trkpt lat="64.02870941" lon="-19.01316452"><ele>603.4</ele><time>2012-07-23T11:41:04.0000000+00:00</time></trkpt><trkpt lat="64.0287323" lon="-19.01307297"><ele>604.9</ele><time>2012-07-23T11:41:09.0000000+00:00</time></trkpt><trkpt lat="64.02876282" lon="-19.01292992"><ele>606.7</ele><time>2012-07-23T11:41:14.0000000+00:00</time></trkpt><trkpt lat="64.02878571" lon="-19.01280975"><ele>607.7</ele><time>2012-07-23T11:41:19.0000000+00:00</time></trkpt><trkpt lat="64.02879334" lon="-19.01269722"><ele>607.0</ele><time>2012-07-23T11:41:24.0000000+00:00</time></trkpt><trkpt lat="64.02880859" lon="-19.01259804"><ele>606.7</ele><time>2012-07-23T11:41:29.0000000+00:00</time></trkpt><trkpt lat="64.02881622" lon="-19.01250839"><ele>605.5</ele><time>2012-07-23T11:41:34.0000000+00:00</time></trkpt><trkpt lat="64.02879334" lon="-19.01244354"><ele>607.3</ele><time>2012-07-23T11:41:39.0000000+00:00</time></trkpt><trkpt lat="64.02874756" lon="-19.01237297"><ele>607.8</ele><time>2012-07-23T11:41:44.0000000+00:00</time></trkpt><trkpt lat="64.02870941" lon="-19.01231766"><ele>608.8</ele><time>2012-07-23T11:41:49.0000000+00:00</time></trkpt><trkpt lat="64.02866364" lon="-19.01227188"><ele>609.7</ele><time>2012-07-23T11:41:54.0000000+00:00</time></trkpt><trkpt lat="64.02861786" lon="-19.01223755"><ele>610.4</ele><time>2012-07-23T11:41:59.0000000+00:00</time></trkpt><trkpt lat="64.02857208" lon="-19.01219368"><ele>611.5</ele><time>2012-07-23T11:42:04.0000000+00:00</time></trkpt><trkpt lat="64.02853394" lon="-19.0121479"><ele>612.6</ele><time>2012-07-23T11:42:09.0000000+00:00</time></trkpt><trkpt lat="64.02849579" lon="-19.01208305"><ele>613.0</ele><time>2012-07-23T11:42:14.0000000+00:00</time></trkpt><trkpt lat="64.02845764" lon="-19.01201057"><ele>613.4</ele><time>2012-07-23T11:42:19.0000000+00:00</time></trkpt><trkpt lat="64.0284195" lon="-19.0119381"><ele>613.6</ele><time>2012-07-23T11:42:24.0000000+00:00</time></trkpt><trkpt lat="64.02838135" lon="-19.01185989"><ele>613.7</ele><time>2012-07-23T11:42:29.0000000+00:00</time></trkpt><trkpt lat="64.0283432" lon="-19.01177025"><ele>614.2</ele><time>2012-07-23T11:42:34.0000000+00:00</time></trkpt><trkpt lat="64.02830505" lon="-19.0116787"><ele>614.6</ele><time>2012-07-23T11:42:39.0000000+00:00</time></trkpt><trkpt lat="64.02828217" lon="-19.01160049"><ele>615.3</ele><time>2012-07-23T11:42:44.0000000+00:00</time></trkpt><trkpt lat="64.02824402" lon="-19.01153183"><ele>615.9</ele><time>2012-07-23T11:42:49.0000000+00:00</time></trkpt><trkpt lat="64.02820587" lon="-19.01146317"><ele>616.3</ele><time>2012-07-23T11:42:54.0000000+00:00</time></trkpt><trkpt lat="64.02816773" lon="-19.01138878"><ele>616.9</ele><time>2012-07-23T11:42:59.0000000+00:00</time></trkpt><trkpt lat="64.02812195" lon="-19.01131249"><ele>617.2</ele><time>2012-07-23T11:43:04.0000000+00:00</time></trkpt><trkpt lat="64.02809143" lon="-19.01124001"><ele>618.0</ele><time>2012-07-23T11:43:09.0000000+00:00</time></trkpt><trkpt lat="64.02804565" lon="-19.01115227"><ele>618.6</ele><time>2012-07-23T11:43:14.0000000+00:00</time></trkpt><trkpt lat="64.02800751" lon="-19.01104927"><ele>619.2</ele><time>2012-07-23T11:43:19.0000000+00:00</time></trkpt><trkpt lat="64.02797699" lon="-19.01095772"><ele>619.7</ele><time>2012-07-23T11:43:24.0000000+00:00</time></trkpt><trkpt lat="64.02797699" lon="-19.01081276"><ele>620.4</ele><time>2012-07-23T11:43:29.0000000+00:00</time></trkpt><trkpt lat="64.02799225" lon="-19.01069069"><ele>621.2</ele><time>2012-07-23T11:43:34.0000000+00:00</time></trkpt><trkpt lat="64.02801514" lon="-19.01059914"><ele>622.1</ele><time>2012-07-23T11:43:39.0000000+00:00</time></trkpt><trkpt lat="64.0280304" lon="-19.01050758"><ele>623.5</ele><time>2012-07-23T11:43:44.0000000+00:00</time></trkpt><trkpt lat="64.02804565" lon="-19.01042175"><ele>624.8</ele><time>2012-07-23T11:43:49.0000000+00:00</time></trkpt><trkpt lat="64.02807617" lon="-19.01035118"><ele>625.7</ele><time>2012-07-23T11:43:54.0000000+00:00</time></trkpt><trkpt lat="64.02812195" lon="-19.01030541"><ele>625.3</ele><time>2012-07-23T11:43:59.0000000+00:00</time></trkpt><trkpt lat="64.02815247" lon="-19.01025581"><ele>624.6</ele><time>2012-07-23T11:44:04.0000000+00:00</time></trkpt><trkpt lat="64.02819824" lon="-19.01025391"><ele>625.6</ele><time>2012-07-23T11:44:09.0000000+00:00</time></trkpt><trkpt lat="64.02822113" lon="-19.01016998"><ele>626.5</ele><time>2012-07-23T11:44:14.0000000+00:00</time></trkpt><trkpt lat="64.02824402" lon="-19.01008415"><ele>627.6</ele><time>2012-07-23T11:44:19.0000000+00:00</time></trkpt><trkpt lat="64.02828217" lon="-19.0100174"><ele>627.9</ele><time>2012-07-23T11:44:24.0000000+00:00</time></trkpt><trkpt lat="64.02832794" lon="-19.00997734"><ele>628.4</ele><time>2012-07-23T11:44:29.0000000+00:00</time></trkpt><trkpt lat="64.02838135" lon="-19.00993156"><ele>628.3</ele><time>2012-07-23T11:44:34.0000000+00:00</time></trkpt><trkpt lat="64.02841187" lon="-19.00984001"><ele>627.1</ele><time>2012-07-23T11:44:39.0000000+00:00</time></trkpt><trkpt lat="64.02846527" lon="-19.00980187"><ele>627.3</ele><time>2012-07-23T11:44:44.0000000+00:00</time></trkpt><trkpt lat="64.02851105" lon="-19.00977135"><ele>627.3</ele><time>2012-07-23T11:44:49.0000000+00:00</time></trkpt><trkpt lat="64.02855682" lon="-19.00974846"><ele>628.1</ele><time>2012-07-23T11:44:54.0000000+00:00</time></trkpt><trkpt lat="64.02859497" lon="-19.00972366"><ele>628.9</ele><time>2012-07-23T11:44:59.0000000+00:00</time></trkpt><trkpt lat="64.02864075" lon="-19.00968742"><ele>629.2</ele><time>2012-07-23T11:45:04.0000000+00:00</time></trkpt><trkpt lat="64.02869415" lon="-19.00965881"><ele>630.1</ele><time>2012-07-23T11:45:09.0000000+00:00</time></trkpt><trkpt lat="64.0287323" lon="-19.00962257"><ele>630.8</ele><time>2012-07-23T11:45:14.0000000+00:00</time></trkpt><trkpt lat="64.02877808" lon="-19.0096283"><ele>632.3</ele><time>2012-07-23T11:45:19.0000000+00:00</time></trkpt><trkpt lat="64.02875519" lon="-19.0096302"><ele>632.6</ele><time>2012-07-23T11:45:24.0000000+00:00</time></trkpt><trkpt lat="64.02876282" lon="-19.00956917"><ele>631.2</ele><time>2012-07-23T11:45:29.0000000+00:00</time></trkpt><trkpt lat="64.02881622" lon="-19.00953293"><ele>630.4</ele><time>2012-07-23T11:45:34.0000000+00:00</time></trkpt><trkpt lat="64.02888489" lon="-19.00954056"><ele>630.5</ele><time>2012-07-23T11:45:39.0000000+00:00</time></trkpt><trkpt lat="64.02893066" lon="-19.0094738"><ele>632.6</ele><time>2012-07-23T11:45:44.0000000+00:00</time></trkpt><trkpt lat="64.02897644" lon="-19.00942993"><ele>634.1</ele><time>2012-07-23T11:45:49.0000000+00:00</time></trkpt><trkpt lat="64.02900696" lon="-19.00939941"><ele>635.6</ele><time>2012-07-23T11:45:54.0000000+00:00</time></trkpt><trkpt lat="64.02903748" lon="-19.00934982"><ele>636.1</ele><time>2012-07-23T11:45:59.0000000+00:00</time></trkpt><trkpt lat="64.02909088" lon="-19.00932884"><ele>636.8</ele><time>2012-07-23T11:46:04.0000000+00:00</time></trkpt><trkpt lat="64.0291214" lon="-19.00927925"><ele>638.6</ele><time>2012-07-23T11:46:09.0000000+00:00</time></trkpt><trkpt lat="64.02915192" lon="-19.00923538"><ele>640.2</ele><time>2012-07-23T11:46:14.0000000+00:00</time></trkpt><trkpt lat="64.02917481" lon="-19.00917816"><ele>641.4</ele><time>2012-07-23T11:46:19.0000000+00:00</time></trkpt><trkpt lat="64.02920532" lon="-19.00913429"><ele>641.6</ele><time>2012-07-23T11:46:24.0000000+00:00</time></trkpt><trkpt lat="64.02924347" lon="-19.00908279"><ele>642.3</ele><time>2012-07-23T11:46:29.0000000+00:00</time></trkpt><trkpt lat="64.02928925" lon="-19.00904274"><ele>642.8</ele><time>2012-07-23T11:46:34.0000000+00:00</time></trkpt><trkpt lat="64.02931213" lon="-19.00897408"><ele>642.4</ele><time>2012-07-23T11:46:39.0000000+00:00</time></trkpt><trkpt lat="64.02934265" lon="-19.00889969"><ele>642.4</ele><time>2012-07-23T11:46:44.0000000+00:00</time></trkpt><trkpt lat="64.02938843" lon="-19.00881767"><ele>644.0</ele><time>2012-07-23T11:46:49.0000000+00:00</time></trkpt><trkpt lat="64.0294342" lon="-19.0087471"><ele>645.1</ele><time>2012-07-23T11:46:54.0000000+00:00</time></trkpt><trkpt lat="64.02946472" lon="-19.0086937"><ele>646.4</ele><time>2012-07-23T11:46:59.0000000+00:00</time></trkpt><trkpt lat="64.02949524" lon="-19.00864601"><ele>646.9</ele><time>2012-07-23T11:47:04.0000000+00:00</time></trkpt><trkpt lat="64.02952576" lon="-19.00858879"><ele>647.7</ele><time>2012-07-23T11:47:09.0000000+00:00</time></trkpt><trkpt lat="64.02955627" lon="-19.00851822"><ele>648.8</ele><time>2012-07-23T11:47:14.0000000+00:00</time></trkpt><trkpt lat="64.02959442" lon="-19.00844955"><ele>650.3</ele><time>2012-07-23T11:47:19.0000000+00:00</time></trkpt><trkpt lat="64.02963257" lon="-19.00841904"><ele>650.9</ele><time>2012-07-23T11:47:24.0000000+00:00</time></trkpt><trkpt lat="64.02966309" lon="-19.00833893"><ele>652.2</ele><time>2012-07-23T11:47:29.0000000+00:00</time></trkpt><trkpt lat="64.0296936" lon="-19.0082264"><ele>653.1</ele><time>2012-07-23T11:47:34.0000000+00:00</time></trkpt><trkpt lat="64.02972412" lon="-19.00812912"><ele>654.3</ele><time>2012-07-23T11:47:39.0000000+00:00</time></trkpt><trkpt lat="64.02976227" lon="-19.00806618"><ele>655.2</ele><time>2012-07-23T11:47:44.0000000+00:00</time></trkpt><trkpt lat="64.02979279" lon="-19.00801277"><ele>656.3</ele><time>2012-07-23T11:47:49.0000000+00:00</time></trkpt><trkpt lat="64.0298233" lon="-19.00794983"><ele>657.4</ele><time>2012-07-23T11:47:54.0000000+00:00</time></trkpt><trkpt lat="64.02984619" lon="-19.00787163"><ele>658.3</ele><time>2012-07-23T11:47:59.0000000+00:00</time></trkpt><trkpt lat="64.02987671" lon="-19.00783157"><ele>658.5</ele><time>2012-07-23T11:48:04.0000000+00:00</time></trkpt><trkpt lat="64.02990723" lon="-19.0077858"><ele>658.4</ele><time>2012-07-23T11:48:09.0000000+00:00</time></trkpt><trkpt lat="64.02993012" lon="-19.00776863"><ele>658.3</ele><time>2012-07-23T11:48:14.0000000+00:00</time></trkpt><trkpt lat="64.02993012" lon="-19.00778198"><ele>658.8</ele><time>2012-07-23T11:48:19.0000000+00:00</time></trkpt><trkpt lat="64.02992249" lon="-19.00778198"><ele>659.2</ele><time>2012-07-23T11:48:24.0000000+00:00</time></trkpt><trkpt lat="64.02991486" lon="-19.00779152"><ele>660.3</ele><time>2012-07-23T11:48:29.0000000+00:00</time></trkpt><trkpt lat="64.02992249" lon="-19.00781822"><ele>660.5</ele><time>2012-07-23T11:48:34.0000000+00:00</time></trkpt><trkpt lat="64.02992249" lon="-19.0078373"><ele>660.6</ele><time>2012-07-23T11:48:39.0000000+00:00</time></trkpt><trkpt lat="64.02991486" lon="-19.00780869"><ele>661.1</ele><time>2012-07-23T11:48:44.0000000+00:00</time></trkpt><trkpt lat="64.02991486" lon="-19.00779915"><ele>661.0</ele><time>2012-07-23T11:48:49.0000000+00:00</time></trkpt><trkpt lat="64.02993012" lon="-19.00780869"><ele>660.9</ele><time>2012-07-23T11:48:54.0000000+00:00</time></trkpt><trkpt lat="64.02993012" lon="-19.00780869"><ele>660.9</ele><time>2012-07-23T11:48:59.0000000+00:00</time></trkpt><trkpt lat="64.02993012" lon="-19.00780869"><ele>660.8</ele><time>2012-07-23T11:49:04.0000000+00:00</time></trkpt><trkpt lat="64.02992249" lon="-19.00781822"><ele>660.4</ele><time>2012-07-23T11:49:09.0000000+00:00</time></trkpt><trkpt lat="64.02992249" lon="-19.00782394"><ele>660.5</ele><time>2012-07-23T11:49:14.0000000+00:00</time></trkpt><trkpt lat="64.02992249" lon="-19.00782394"><ele>660.5</ele><time>2012-07-23T11:49:19.0000000+00:00</time></trkpt><trkpt lat="64.02992249" lon="-19.00782394"><ele>660.5</ele><time>2012-07-23T11:49:24.0000000+00:00</time></trkpt><trkpt lat="64.02993012" lon="-19.00782585"><ele>660.7</ele><time>2012-07-23T11:49:29.0000000+00:00</time></trkpt><trkpt lat="64.02993012" lon="-19.00782394"><ele>660.8</ele><time>2012-07-23T11:49:34.0000000+00:00</time></trkpt><trkpt lat="64.02993012" lon="-19.00782394"><ele>660.8</ele><time>2012-07-23T11:49:39.0000000+00:00</time></trkpt><trkpt lat="64.02993012" lon="-19.00782394"><ele>660.8</ele><time>2012-07-23T11:49:44.0000000+00:00</time></trkpt><trkpt lat="64.02991486" lon="-19.0078392"><ele>661.1</ele><time>2012-07-23T11:49:49.0000000+00:00</time></trkpt><trkpt lat="64.02991486" lon="-19.0078373"><ele>660.9</ele><time>2012-07-23T11:49:54.0000000+00:00</time></trkpt><trkpt lat="64.02992249" lon="-19.0078373"><ele>660.8</ele><time>2012-07-23T11:49:59.0000000+00:00</time></trkpt><trkpt lat="64.02992249" lon="-19.0078373"><ele>660.8</ele><time>2012-07-23T11:50:04.0000000+00:00</time></trkpt><trkpt lat="64.02991486" lon="-19.0078373"><ele>660.8</ele><time>2012-07-23T11:50:09.0000000+00:00</time></trkpt><trkpt lat="64.02991486" lon="-19.0078373"><ele>660.8</ele><time>2012-07-23T11:50:14.0000000+00:00</time></trkpt><trkpt lat="64.02991486" lon="-19.0078373"><ele>660.8</ele><time>2012-07-23T11:50:19.0000000+00:00</time></trkpt><trkpt lat="64.02991486" lon="-19.00783539"><ele>660.8</ele><time>2012-07-23T11:50:24.0000000+00:00</time></trkpt><trkpt lat="64.02992249" lon="-19.00783539"><ele>660.9</ele><time>2012-07-23T11:50:29.0000000+00:00</time></trkpt><trkpt lat="64.02992249" lon="-19.00783539"><ele>661.5</ele><time>2012-07-23T11:50:34.0000000+00:00</time></trkpt><trkpt lat="64.0298996" lon="-19.00785255"><ele>661.8</ele><time>2012-07-23T11:50:39.0000000+00:00</time></trkpt><trkpt lat="64.02989197" lon="-19.00785065"><ele>662.0</ele><time>2012-07-23T11:50:44.0000000+00:00</time></trkpt><trkpt lat="64.02989197" lon="-19.00784493"><ele>661.9</ele><time>2012-07-23T11:50:49.0000000+00:00</time></trkpt><trkpt lat="64.02989197" lon="-19.00784493"><ele>661.9</ele><time>2012-07-23T11:50:54.0000000+00:00</time></trkpt><trkpt lat="64.02989197" lon="-19.00784493"><ele>661.9</ele><time>2012-07-23T11:50:59.0000000+00:00</time></trkpt><trkpt lat="64.0298996" lon="-19.00779343"><ele>661.1</ele><time>2012-07-23T11:51:04.0000000+00:00</time></trkpt><trkpt lat="64.02992249" lon="-19.00775147"><ele>660.5</ele><time>2012-07-23T11:51:09.0000000+00:00</time></trkpt><trkpt lat="64.02993012" lon="-19.00774384"><ele>660.5</ele><time>2012-07-23T11:51:14.0000000+00:00</time></trkpt><trkpt lat="64.02992249" lon="-19.00772858"><ele>661.2</ele><time>2012-07-23T11:51:19.0000000+00:00</time></trkpt><trkpt lat="64.02992249" lon="-19.00773048"><ele>661.2</ele><time>2012-07-23T11:51:24.0000000+00:00</time></trkpt><trkpt lat="64.02992249" lon="-19.00774765"><ele>661.5</ele><time>2012-07-23T11:51:29.0000000+00:00</time></trkpt><trkpt lat="64.02993012" lon="-19.00780296"><ele>661.4</ele><time>2012-07-23T11:51:34.0000000+00:00</time></trkpt><trkpt lat="64.02993012" lon="-19.00786591"><ele>661.8</ele><time>2012-07-23T11:51:39.0000000+00:00</time></trkpt><trkpt lat="64.02993012" lon="-19.00786209"><ele>662.1</ele><time>2012-07-23T11:51:44.0000000+00:00</time></trkpt><trkpt lat="64.02993012" lon="-19.00787163"><ele>662.4</ele><time>2012-07-23T11:51:49.0000000+00:00</time></trkpt><trkpt lat="64.02992249" lon="-19.00786209"><ele>662.8</ele><time>2012-07-23T11:51:54.0000000+00:00</time></trkpt><trkpt lat="64.02992249" lon="-19.00785637"><ele>663.2</ele><time>2012-07-23T11:51:59.0000000+00:00</time></trkpt><trkpt lat="64.02992249" lon="-19.00785446"><ele>663.9</ele><time>2012-07-23T11:52:04.0000000+00:00</time></trkpt><trkpt lat="64.02993012" lon="-19.00785446"><ele>663.1</ele><time>2012-07-23T11:52:09.0000000+00:00</time></trkpt><trkpt lat="64.02992249" lon="-19.00784683"><ele>664.3</ele><time>2012-07-23T11:52:14.0000000+00:00</time></trkpt><trkpt lat="64.02992249" lon="-19.00784302"><ele>664.5</ele><time>2012-07-23T11:52:19.0000000+00:00</time></trkpt><trkpt lat="64.02992249" lon="-19.00784302"><ele>664.6</ele><time>2012-07-23T11:52:24.0000000+00:00</time></trkpt><trkpt lat="64.02992249" lon="-19.00784493"><ele>664.6</ele><time>2012-07-23T11:52:29.0000000+00:00</time></trkpt><trkpt lat="64.02992249" lon="-19.00784111"><ele>664.6</ele><time>2012-07-23T11:52:34.0000000+00:00</time></trkpt><trkpt lat="64.02992249" lon="-19.00784111"><ele>664.6</ele><time>2012-07-23T11:52:39.0000000+00:00</time></trkpt><trkpt lat="64.02992249" lon="-19.00784111"><ele>664.7</ele><time>2012-07-23T11:52:44.0000000+00:00</time></trkpt><trkpt lat="64.02992249" lon="-19.00783348"><ele>664.8</ele><time>2012-07-23T11:52:49.0000000+00:00</time></trkpt><trkpt lat="64.02991486" lon="-19.0078373"><ele>666.1</ele><time>2012-07-23T11:52:54.0000000+00:00</time></trkpt><trkpt lat="64.02991486" lon="-19.00784111"><ele>666.0</ele><time>2012-07-23T11:52:59.0000000+00:00</time></trkpt><trkpt lat="64.02993012" lon="-19.00783157"><ele>665.6</ele><time>2012-07-23T11:53:04.0000000+00:00</time></trkpt><trkpt lat="64.02993774" lon="-19.0078392"><ele>665.2</ele><time>2012-07-23T11:53:09.0000000+00:00</time></trkpt><trkpt lat="64.02993012" lon="-19.00787163"><ele>664.9</ele><time>2012-07-23T11:53:14.0000000+00:00</time></trkpt><trkpt lat="64.02992249" lon="-19.00785828"><ele>664.9</ele><time>2012-07-23T11:53:19.0000000+00:00</time></trkpt><trkpt lat="64.02993774" lon="-19.00783348"><ele>664.7</ele><time>2012-07-23T11:53:24.0000000+00:00</time></trkpt><trkpt lat="64.02993012" lon="-19.00782776"><ele>664.3</ele><time>2012-07-23T11:53:29.0000000+00:00</time></trkpt><trkpt lat="64.02993012" lon="-19.00782967"><ele>664.2</ele><time>2012-07-23T11:53:34.0000000+00:00</time></trkpt><trkpt lat="64.02993012" lon="-19.00782967"><ele>664.2</ele><time>2012-07-23T11:53:39.0000000+00:00</time></trkpt><trkpt lat="64.02993012" lon="-19.00782967"><ele>664.1</ele><time>2012-07-23T11:53:44.0000000+00:00</time></trkpt><trkpt lat="64.02993012" lon="-19.0078373"><ele>664.1</ele><time>2012-07-23T11:53:49.0000000+00:00</time></trkpt><trkpt lat="64.02993012" lon="-19.00783539"><ele>663.8</ele><time>2012-07-23T11:53:54.0000000+00:00</time></trkpt><trkpt lat="64.02992249" lon="-19.00785446"><ele>664.0</ele><time>2012-07-23T11:53:59.0000000+00:00</time></trkpt><trkpt lat="64.02992249" lon="-19.00785637"><ele>664.0</ele><time>2012-07-23T11:54:04.0000000+00:00</time></trkpt><trkpt lat="64.02992249" lon="-19.00785637"><ele>664.1</ele><time>2012-07-23T11:54:09.0000000+00:00</time></trkpt><trkpt lat="64.02991486" lon="-19.00786018"><ele>664.5</ele><time>2012-07-23T11:54:14.0000000+00:00</time></trkpt><trkpt lat="64.02989197" lon="-19.00785637"><ele>664.5</ele><time>2012-07-23T11:54:19.0000000+00:00</time></trkpt><trkpt lat="64.02988434" lon="-19.00783539"><ele>664.0</ele><time>2012-07-23T11:54:24.0000000+00:00</time></trkpt><trkpt lat="64.02988434" lon="-19.0078373"><ele>664.0</ele><time>2012-07-23T11:54:29.0000000+00:00</time></trkpt><trkpt lat="64.02988434" lon="-19.0078392"><ele>663.6</ele><time>2012-07-23T11:54:34.0000000+00:00</time></trkpt><trkpt lat="64.02988434" lon="-19.0078392"><ele>663.6</ele><time>2012-07-23T11:54:39.0000000+00:00</time></trkpt><trkpt lat="64.02988434" lon="-19.0078125"><ele>663.8</ele><time>2012-07-23T11:54:44.0000000+00:00</time></trkpt><trkpt lat="64.02988434" lon="-19.0078125"><ele>663.8</ele><time>2012-07-23T11:54:49.0000000+00:00</time></trkpt><trkpt lat="64.02987671" lon="-19.00780678"><ele>664.0</ele><time>2012-07-23T11:54:54.0000000+00:00</time></trkpt><trkpt lat="64.02987671" lon="-19.0078125"><ele>663.3</ele><time>2012-07-23T11:54:59.0000000+00:00</time></trkpt><trkpt lat="64.02989197" lon="-19.00781059"><ele>662.8</ele><time>2012-07-23T11:55:04.0000000+00:00</time></trkpt><trkpt lat="64.02989197" lon="-19.00780296"><ele>663.3</ele><time>2012-07-23T11:55:09.0000000+00:00</time></trkpt><trkpt lat="64.0298996" lon="-19.00779915"><ele>663.0</ele><time>2012-07-23T11:55:14.0000000+00:00</time></trkpt><trkpt lat="64.0298996" lon="-19.00779724"><ele>663.0</ele><time>2012-07-23T11:55:19.0000000+00:00</time></trkpt><trkpt lat="64.0298996" lon="-19.00779724"><ele>663.0</ele><time>2012-07-23T11:55:24.0000000+00:00</time></trkpt><trkpt lat="64.0298996" lon="-19.00780296"><ele>663.1</ele><time>2012-07-23T11:55:29.0000000+00:00</time></trkpt><trkpt lat="64.0298996" lon="-19.00780296"><ele>663.1</ele><time>2012-07-23T11:55:34.0000000+00:00</time></trkpt><trkpt lat="64.0298996" lon="-19.00779152"><ele>664.6</ele><time>2012-07-23T11:55:39.0000000+00:00</time></trkpt><trkpt lat="64.02992249" lon="-19.00780487"><ele>665.2</ele><time>2012-07-23T11:55:44.0000000+00:00</time></trkpt><trkpt lat="64.02994537" lon="-19.00785828"><ele>664.6</ele><time>2012-07-23T11:55:49.0000000+00:00</time></trkpt><trkpt lat="64.02998352" lon="-19.00794792"><ele>665.5</ele><time>2012-07-23T11:55:54.0000000+00:00</time></trkpt><trkpt lat="64.02999878" lon="-19.0080204"><ele>665.1</ele><time>2012-07-23T11:55:59.0000000+00:00</time></trkpt><trkpt lat="64.02999878" lon="-19.00802231"><ele>664.7</ele><time>2012-07-23T11:56:04.0000000+00:00</time></trkpt><trkpt lat="64.02999878" lon="-19.00801468"><ele>665.8</ele><time>2012-07-23T11:56:09.0000000+00:00</time></trkpt><trkpt lat="64.02999878" lon="-19.00801468"><ele>665.8</ele><time>2012-07-23T11:56:14.0000000+00:00</time></trkpt><trkpt lat="64.02999878" lon="-19.00801468"><ele>665.8</ele><time>2012-07-23T11:56:19.0000000+00:00</time></trkpt><trkpt lat="64.02999878" lon="-19.00801849"><ele>665.3</ele><time>2012-07-23T11:56:24.0000000+00:00</time></trkpt><trkpt lat="64.02999878" lon="-19.00801659"><ele>665.2</ele><time>2012-07-23T11:56:29.0000000+00:00</time></trkpt><trkpt lat="64.02999878" lon="-19.00801659"><ele>665.2</ele><time>2012-07-23T11:56:34.0000000+00:00</time></trkpt><trkpt lat="64.02999878" lon="-19.00801659"><ele>665.2</ele><time>2012-07-23T11:56:39.0000000+00:00</time></trkpt><trkpt lat="64.02999878" lon="-19.00801659"><ele>665.2</ele><time>2012-07-23T11:56:44.0000000+00:00</time></trkpt><trkpt lat="64.02999878" lon="-19.00801659"><ele>665.2</ele><time>2012-07-23T11:56:49.0000000+00:00</time></trkpt><trkpt lat="64.02999878" lon="-19.00801659"><ele>665.2</ele><time>2012-07-23T11:56:54.0000000+00:00</time></trkpt><trkpt lat="64.02999878" lon="-19.00801659"><ele>665.2</ele><time>2012-07-23T11:56:59.0000000+00:00</time></trkpt><trkpt lat="64.02999878" lon="-19.00801849"><ele>665.2</ele><time>2012-07-23T11:57:04.0000000+00:00</time></trkpt><trkpt lat="64.02999878" lon="-19.00801849"><ele>665.2</ele><time>2012-07-23T11:57:09.0000000+00:00</time></trkpt><trkpt lat="64.02999878" lon="-19.00801849"><ele>665.2</ele><time>2012-07-23T11:57:14.0000000+00:00</time></trkpt><trkpt lat="64.02999878" lon="-19.00801849"><ele>665.2</ele><time>2012-07-23T11:57:19.0000000+00:00</time></trkpt><trkpt lat="64.02999115" lon="-19.00800896"><ele>665.3</ele><time>2012-07-23T11:57:24.0000000+00:00</time></trkpt><trkpt lat="64.02999115" lon="-19.00801086"><ele>665.3</ele><time>2012-07-23T11:57:29.0000000+00:00</time></trkpt><trkpt lat="64.02999115" lon="-19.00801086"><ele>665.3</ele><time>2012-07-23T11:57:34.0000000+00:00</time></trkpt><trkpt lat="64.02997589" lon="-19.0079937"><ele>665.0</ele><time>2012-07-23T11:57:39.0000000+00:00</time></trkpt><trkpt lat="64.02996826" lon="-19.00800133"><ele>665.0</ele><time>2012-07-23T11:57:44.0000000+00:00</time></trkpt><trkpt lat="64.02996826" lon="-19.00800133"><ele>665.0</ele><time>2012-07-23T11:57:49.0000000+00:00</time></trkpt><trkpt lat="64.02996826" lon="-19.00800133"><ele>665.0</ele><time>2012-07-23T11:57:54.0000000+00:00</time></trkpt><trkpt lat="64.02996826" lon="-19.00800133"><ele>665.0</ele><time>2012-07-23T11:57:59.0000000+00:00</time></trkpt><trkpt lat="64.02996826" lon="-19.00798416"><ele>665.3</ele><time>2012-07-23T11:58:04.0000000+00:00</time></trkpt><trkpt lat="64.02993012" lon="-19.00789642"><ele>664.3</ele><time>2012-07-23T11:58:09.0000000+00:00</time></trkpt><trkpt lat="64.02990723" lon="-19.00776863"><ele>663.2</ele><time>2012-07-23T11:58:14.0000000+00:00</time></trkpt><trkpt lat="64.0298996" lon="-19.00777054"><ele>662.8</ele><time>2012-07-23T11:58:19.0000000+00:00</time></trkpt><trkpt lat="64.0298996" lon="-19.00777054"><ele>662.8</ele><time>2012-07-23T11:58:24.0000000+00:00</time></trkpt><trkpt lat="64.0298996" lon="-19.00774002"><ele>662.2</ele><time>2012-07-23T11:58:29.0000000+00:00</time></trkpt><trkpt lat="64.02986908" lon="-19.00763893"><ele>662.5</ele><time>2012-07-23T11:58:34.0000000+00:00</time></trkpt><trkpt lat="64.02983093" lon="-19.00753021"><ele>662.5</ele><time>2012-07-23T11:58:39.0000000+00:00</time></trkpt><trkpt lat="64.02980042" lon="-19.00743485"><ele>662.0</ele><time>2012-07-23T11:58:44.0000000+00:00</time></trkpt><trkpt lat="64.02980804" lon="-19.00740051"><ele>662.4</ele><time>2012-07-23T11:58:49.0000000+00:00</time></trkpt><trkpt lat="64.02980804" lon="-19.00740433"><ele>662.3</ele><time>2012-07-23T11:58:54.0000000+00:00</time></trkpt><trkpt lat="64.02980804" lon="-19.00740433"><ele>662.3</ele><time>2012-07-23T11:58:59.0000000+00:00</time></trkpt><trkpt lat="64.02980804" lon="-19.00740624"><ele>662.3</ele><time>2012-07-23T11:59:04.0000000+00:00</time></trkpt><trkpt lat="64.02978516" lon="-19.00734329"><ele>661.1</ele><time>2012-07-23T11:59:09.0000000+00:00</time></trkpt><trkpt lat="64.02974701" lon="-19.00721169"><ele>660.6</ele><time>2012-07-23T11:59:14.0000000+00:00</time></trkpt><trkpt lat="64.02971649" lon="-19.00707626"><ele>660.5</ele><time>2012-07-23T11:59:19.0000000+00:00</time></trkpt><trkpt lat="64.02968597" lon="-19.00696182"><ele>660.6</ele><time>2012-07-23T11:59:24.0000000+00:00</time></trkpt><trkpt lat="64.0296402" lon="-19.00689888"><ele>660.3</ele><time>2012-07-23T11:59:29.0000000+00:00</time></trkpt><trkpt lat="64.02960205" lon="-19.00683022"><ele>660.7</ele><time>2012-07-23T11:59:34.0000000+00:00</time></trkpt><trkpt lat="64.02955627" lon="-19.00679016"><ele>660.7</ele><time>2012-07-23T11:59:39.0000000+00:00</time></trkpt><trkpt lat="64.02951813" lon="-19.00672913"><ele>660.4</ele><time>2012-07-23T11:59:44.0000000+00:00</time></trkpt><trkpt lat="64.02947235" lon="-19.00669289"><ele>660.3</ele><time>2012-07-23T11:59:49.0000000+00:00</time></trkpt><trkpt lat="64.02942658" lon="-19.00666618"><ele>659.8</ele><time>2012-07-23T11:59:54.0000000+00:00</time></trkpt><trkpt lat="64.02940369" lon="-19.00668335"><ele>659.8</ele><time>2012-07-23T11:59:59.0000000+00:00</time></trkpt><trkpt lat="64.02935028" lon="-19.00670815"><ele>658.9</ele><time>2012-07-23T12:00:04.0000000+00:00</time></trkpt><trkpt lat="64.02929688" lon="-19.0066433"><ele>660.6</ele><time>2012-07-23T12:00:09.0000000+00:00</time></trkpt><trkpt lat="64.02923584" lon="-19.00661278"><ele>661.1</ele><time>2012-07-23T12:00:14.0000000+00:00</time></trkpt><trkpt lat="64.02916718" lon="-19.0066185"><ele>660.8</ele><time>2012-07-23T12:00:19.0000000+00:00</time></trkpt><trkpt lat="64.02910614" lon="-19.00660515"><ele>660.3</ele><time>2012-07-23T12:00:24.0000000+00:00</time></trkpt><trkpt lat="64.02905273" lon="-19.00660515"><ele>659.6</ele><time>2012-07-23T12:00:29.0000000+00:00</time></trkpt><trkpt lat="64.0289917" lon="-19.00660133"><ele>658.3</ele><time>2012-07-23T12:00:34.0000000+00:00</time></trkpt><trkpt lat="64.02892304" lon="-19.00662422"><ele>657.1</ele><time>2012-07-23T12:00:39.0000000+00:00</time></trkpt><trkpt lat="64.028862" lon="-19.00664139"><ele>655.9</ele><time>2012-07-23T12:00:44.0000000+00:00</time></trkpt><trkpt lat="64.02880096" lon="-19.00666428"><ele>654.0</ele><time>2012-07-23T12:00:49.0000000+00:00</time></trkpt><trkpt lat="64.02873993" lon="-19.0067215"><ele>652.5</ele><time>2012-07-23T12:00:54.0000000+00:00</time></trkpt><trkpt lat="64.02871704" lon="-19.00674439"><ele>652.4</ele><time>2012-07-23T12:00:59.0000000+00:00</time></trkpt><trkpt lat="64.02867889" lon="-19.00681686"><ele>651.9</ele><time>2012-07-23T12:01:04.0000000+00:00</time></trkpt><trkpt lat="64.02862549" lon="-19.00691414"><ele>648.5</ele><time>2012-07-23T12:01:09.0000000+00:00</time></trkpt><trkpt lat="64.02859497" lon="-19.00701523"><ele>646.7</ele><time>2012-07-23T12:01:14.0000000+00:00</time></trkpt><trkpt lat="64.02854919" lon="-19.00710487"><ele>645.5</ele><time>2012-07-23T12:01:19.0000000+00:00</time></trkpt><trkpt lat="64.02850342" lon="-19.00717354"><ele>642.5</ele><time>2012-07-23T12:01:24.0000000+00:00</time></trkpt><trkpt lat="64.0284729" lon="-19.00723457"><ele>641.8</ele><time>2012-07-23T12:01:29.0000000+00:00</time></trkpt><trkpt lat="64.02843475" lon="-19.00730705"><ele>640.8</ele><time>2012-07-23T12:01:34.0000000+00:00</time></trkpt><trkpt lat="64.02839661" lon="-19.00739288"><ele>640.3</ele><time>2012-07-23T12:01:39.0000000+00:00</time></trkpt><trkpt lat="64.0283432" lon="-19.00747681"><ele>639.9</ele><time>2012-07-23T12:01:44.0000000+00:00</time></trkpt><trkpt lat="64.0282898" lon="-19.00756645"><ele>639.6</ele><time>2012-07-23T12:01:49.0000000+00:00</time></trkpt><trkpt lat="64.02823639" lon="-19.00765228"><ele>639.2</ele><time>2012-07-23T12:01:54.0000000+00:00</time></trkpt><trkpt lat="64.02818298" lon="-19.0077343"><ele>638.5</ele><time>2012-07-23T12:01:59.0000000+00:00</time></trkpt><trkpt lat="64.0281601" lon="-19.00782204"><ele>637.3</ele><time>2012-07-23T12:02:04.0000000+00:00</time></trkpt><trkpt lat="64.02811432" lon="-19.00791359"><ele>635.8</ele><time>2012-07-23T12:02:09.0000000+00:00</time></trkpt><trkpt lat="64.02806854" lon="-19.00800514"><ele>635.4</ele><time>2012-07-23T12:02:14.0000000+00:00</time></trkpt><trkpt lat="64.02800751" lon="-19.00809097"><ele>635.3</ele><time>2012-07-23T12:02:19.0000000+00:00</time></trkpt><trkpt lat="64.0279541" lon="-19.00816727"><ele>635.9</ele><time>2012-07-23T12:02:24.0000000+00:00</time></trkpt><trkpt lat="64.02790833" lon="-19.00824547"><ele>635.7</ele><time>2012-07-23T12:02:29.0000000+00:00</time></trkpt><trkpt lat="64.02786255" lon="-19.00832748"><ele>635.0</ele><time>2012-07-23T12:02:34.0000000+00:00</time></trkpt><trkpt lat="64.02783203" lon="-19.00845528"><ele>634.7</ele><time>2012-07-23T12:02:39.0000000+00:00</time></trkpt><trkpt lat="64.027771" lon="-19.00852776"><ele>633.5</ele><time>2012-07-23T12:02:44.0000000+00:00</time></trkpt><trkpt lat="64.02772522" lon="-19.00860977"><ele>632.9</ele><time>2012-07-23T12:02:49.0000000+00:00</time></trkpt><trkpt lat="64.02767181" lon="-19.00869942"><ele>632.8</ele><time>2012-07-23T12:02:54.0000000+00:00</time></trkpt><trkpt lat="64.02762604" lon="-19.0087986"><ele>632.4</ele><time>2012-07-23T12:02:59.0000000+00:00</time></trkpt><trkpt lat="64.02758789" lon="-19.00889397"><ele>632.0</ele><time>2012-07-23T12:03:04.0000000+00:00</time></trkpt><trkpt lat="64.027565" lon="-19.00891876"><ele>632.0</ele><time>2012-07-23T12:03:09.0000000+00:00</time></trkpt><trkpt lat="64.0275116" lon="-19.0089798"><ele>630.9</ele><time>2012-07-23T12:03:14.0000000+00:00</time></trkpt><trkpt lat="64.02745819" lon="-19.00904846"><ele>629.3</ele><time>2012-07-23T12:03:19.0000000+00:00</time></trkpt><trkpt lat="64.02739716" lon="-19.00905037"><ele>627.7</ele><time>2012-07-23T12:03:24.0000000+00:00</time></trkpt><trkpt lat="64.02734375" lon="-19.00909042"><ele>626.9</ele><time>2012-07-23T12:03:29.0000000+00:00</time></trkpt><trkpt lat="64.02729797" lon="-19.00918961"><ele>627.5</ele><time>2012-07-23T12:03:34.0000000+00:00</time></trkpt><trkpt lat="64.0272522" lon="-19.00930023"><ele>627.6</ele><time>2012-07-23T12:03:39.0000000+00:00</time></trkpt><trkpt lat="64.02720642" lon="-19.00940704"><ele>628.4</ele><time>2012-07-23T12:03:44.0000000+00:00</time></trkpt><trkpt lat="64.02716065" lon="-19.00948906"><ele>629.5</ele><time>2012-07-23T12:03:49.0000000+00:00</time></trkpt><trkpt lat="64.02711487" lon="-19.00957298"><ele>630.3</ele><time>2012-07-23T12:03:54.0000000+00:00</time></trkpt><trkpt lat="64.02709198" lon="-19.00961876"><ele>631.0</ele><time>2012-07-23T12:03:59.0000000+00:00</time></trkpt><trkpt lat="64.02709198" lon="-19.00961304"><ele>631.0</ele><time>2012-07-23T12:04:04.0000000+00:00</time></trkpt><trkpt lat="64.02709961" lon="-19.00961304"><ele>631.0</ele><time>2012-07-23T12:04:09.0000000+00:00</time></trkpt><trkpt lat="64.02709961" lon="-19.00961304"><ele>631.0</ele><time>2012-07-23T12:04:14.0000000+00:00</time></trkpt><trkpt lat="64.02705383" lon="-19.00969124"><ele>631.5</ele><time>2012-07-23T12:04:19.0000000+00:00</time></trkpt><trkpt lat="64.02701569" lon="-19.00976181"><ele>632.3</ele><time>2012-07-23T12:04:24.0000000+00:00</time></trkpt><trkpt lat="64.02696228" lon="-19.00981712"><ele>632.1</ele><time>2012-07-23T12:04:29.0000000+00:00</time></trkpt><trkpt lat="64.0269165" lon="-19.00987434"><ele>632.6</ele><time>2012-07-23T12:04:34.0000000+00:00</time></trkpt><trkpt lat="64.02685547" lon="-19.0099411"><ele>633.0</ele><time>2012-07-23T12:04:39.0000000+00:00</time></trkpt><trkpt lat="64.02681732" lon="-19.00994682"><ele>633.4</ele><time>2012-07-23T12:04:44.0000000+00:00</time></trkpt><trkpt lat="64.02675629" lon="-19.00991631"><ele>634.2</ele><time>2012-07-23T12:04:49.0000000+00:00</time></trkpt><trkpt lat="64.02669525" lon="-19.00986862"><ele>635.2</ele><time>2012-07-23T12:04:54.0000000+00:00</time></trkpt><trkpt lat="64.02664185" lon="-19.00985527"><ele>637.9</ele><time>2012-07-23T12:04:59.0000000+00:00</time></trkpt><trkpt lat="64.02658844" lon="-19.00982094"><ele>639.3</ele><time>2012-07-23T12:05:04.0000000+00:00</time></trkpt><trkpt lat="64.02651978" lon="-19.00984573"><ele>639.7</ele><time>2012-07-23T12:05:09.0000000+00:00</time></trkpt><trkpt lat="64.02645874" lon="-19.00988197"><ele>640.1</ele><time>2012-07-23T12:05:14.0000000+00:00</time></trkpt><trkpt lat="64.02639771" lon="-19.00992394"><ele>640.2</ele><time>2012-07-23T12:05:19.0000000+00:00</time></trkpt><trkpt lat="64.02635193" lon="-19.00998688"><ele>640.3</ele><time>2012-07-23T12:05:24.0000000+00:00</time></trkpt><trkpt lat="64.02631378" lon="-19.01004791"><ele>639.4</ele><time>2012-07-23T12:05:29.0000000+00:00</time></trkpt><trkpt lat="64.02624512" lon="-19.01012039"><ele>638.6</ele><time>2012-07-23T12:05:34.0000000+00:00</time></trkpt><trkpt lat="64.02619171" lon="-19.01019478"><ele>638.3</ele><time>2012-07-23T12:05:39.0000000+00:00</time></trkpt><trkpt lat="64.02613831" lon="-19.01028442"><ele>637.5</ele><time>2012-07-23T12:05:44.0000000+00:00</time></trkpt><trkpt lat="64.02607727" lon="-19.01037407"><ele>637.2</ele><time>2012-07-23T12:05:49.0000000+00:00</time></trkpt><trkpt lat="64.02602387" lon="-19.01047325"><ele>637.4</ele><time>2012-07-23T12:05:54.0000000+00:00</time></trkpt><trkpt lat="64.02596283" lon="-19.01060104"><ele>637.9</ele><time>2012-07-23T12:05:59.0000000+00:00</time></trkpt><trkpt lat="64.02591705" lon="-19.0107441"><ele>638.2</ele><time>2012-07-23T12:06:04.0000000+00:00</time></trkpt><trkpt lat="64.02588654" lon="-19.01087952"><ele>638.0</ele><time>2012-07-23T12:06:09.0000000+00:00</time></trkpt><trkpt lat="64.02585602" lon="-19.01100159"><ele>638.1</ele><time>2012-07-23T12:06:14.0000000+00:00</time></trkpt><trkpt lat="64.02583313" lon="-19.01107979"><ele>637.3</ele><time>2012-07-23T12:06:19.0000000+00:00</time></trkpt><trkpt lat="64.02584076" lon="-19.01111031"><ele>637.1</ele><time>2012-07-23T12:06:24.0000000+00:00</time></trkpt><trkpt lat="64.02580261" lon="-19.01123619"><ele>636.6</ele><time>2012-07-23T12:06:29.0000000+00:00</time></trkpt><trkpt lat="64.02574921" lon="-19.01133537"><ele>636.1</ele><time>2012-07-23T12:06:34.0000000+00:00</time></trkpt><trkpt lat="64.02571869" lon="-19.01144981"><ele>634.9</ele><time>2012-07-23T12:06:39.0000000+00:00</time></trkpt><trkpt lat="64.02568054" lon="-19.01153374"><ele>634.4</ele><time>2012-07-23T12:06:44.0000000+00:00</time></trkpt><trkpt lat="64.02563477" lon="-19.0116024"><ele>633.5</ele><time>2012-07-23T12:06:49.0000000+00:00</time></trkpt><trkpt lat="64.02559662" lon="-19.01168633"><ele>633.0</ele><time>2012-07-23T12:06:54.0000000+00:00</time></trkpt><trkpt lat="64.02555084" lon="-19.01174545"><ele>632.2</ele><time>2012-07-23T12:06:59.0000000+00:00</time></trkpt><trkpt lat="64.02550507" lon="-19.01178551"><ele>631.2</ele><time>2012-07-23T12:07:04.0000000+00:00</time></trkpt><trkpt lat="64.02545166" lon="-19.01184654"><ele>630.4</ele><time>2012-07-23T12:07:09.0000000+00:00</time></trkpt><trkpt lat="64.02539825" lon="-19.01192474"><ele>628.7</ele><time>2012-07-23T12:07:14.0000000+00:00</time></trkpt><trkpt lat="64.02535248" lon="-19.0119648"><ele>628.2</ele><time>2012-07-23T12:07:19.0000000+00:00</time></trkpt><trkpt lat="64.02529907" lon="-19.01198959"><ele>627.1</ele><time>2012-07-23T12:07:24.0000000+00:00</time></trkpt><trkpt lat="64.02523804" lon="-19.01196861"><ele>627.7</ele><time>2012-07-23T12:07:29.0000000+00:00</time></trkpt><trkpt lat="64.025177" lon="-19.01192856"><ele>628.1</ele><time>2012-07-23T12:07:34.0000000+00:00</time></trkpt><trkpt lat="64.02516174" lon="-19.01191711"><ele>627.8</ele><time>2012-07-23T12:07:39.0000000+00:00</time></trkpt><trkpt lat="64.0251236" lon="-19.01183891"><ele>628.3</ele><time>2012-07-23T12:07:44.0000000+00:00</time></trkpt><trkpt lat="64.02507782" lon="-19.01174355"><ele>631.2</ele><time>2012-07-23T12:07:49.0000000+00:00</time></trkpt><trkpt lat="64.02503204" lon="-19.01163101"><ele>630.8</ele><time>2012-07-23T12:07:54.0000000+00:00</time></trkpt><trkpt lat="64.0249939" lon="-19.01156235"><ele>630.5</ele><time>2012-07-23T12:07:59.0000000+00:00</time></trkpt><trkpt lat="64.02496338" lon="-19.01149941"><ele>631.2</ele><time>2012-07-23T12:08:04.0000000+00:00</time></trkpt><trkpt lat="64.02490997" lon="-19.01141548"><ele>631.3</ele><time>2012-07-23T12:08:09.0000000+00:00</time></trkpt><trkpt lat="64.02487183" lon="-19.01133537"><ele>630.6</ele><time>2012-07-23T12:08:14.0000000+00:00</time></trkpt><trkpt lat="64.02481842" lon="-19.0112648"><ele>630.4</ele><time>2012-07-23T12:08:19.0000000+00:00</time></trkpt><trkpt lat="64.02479553" lon="-19.01123619"><ele>630.6</ele><time>2012-07-23T12:08:24.0000000+00:00</time></trkpt><trkpt lat="64.02475739" lon="-19.0112114"><ele>630.5</ele><time>2012-07-23T12:08:29.0000000+00:00</time></trkpt><trkpt lat="64.02471161" lon="-19.01117706"><ele>630.7</ele><time>2012-07-23T12:08:34.0000000+00:00</time></trkpt><trkpt lat="64.02465057" lon="-19.01112557"><ele>630.0</ele><time>2012-07-23T12:08:39.0000000+00:00</time></trkpt><trkpt lat="64.0246048" lon="-19.01107216"><ele>629.7</ele><time>2012-07-23T12:08:44.0000000+00:00</time></trkpt><trkpt lat="64.02454376" lon="-19.01102066"><ele>628.3</ele><time>2012-07-23T12:08:49.0000000+00:00</time></trkpt><trkpt lat="64.02449036" lon="-19.01098442"><ele>628.4</ele><time>2012-07-23T12:08:54.0000000+00:00</time></trkpt><trkpt lat="64.02443695" lon="-19.01093483"><ele>624.8</ele><time>2012-07-23T12:08:59.0000000+00:00</time></trkpt><trkpt lat="64.02438355" lon="-19.01087952"><ele>622.6</ele><time>2012-07-23T12:09:04.0000000+00:00</time></trkpt><trkpt lat="64.02435303" lon="-19.01081657"><ele>622.2</ele><time>2012-07-23T12:09:09.0000000+00:00</time></trkpt><trkpt lat="64.02431488" lon="-19.01076508"><ele>620.3</ele><time>2012-07-23T12:09:14.0000000+00:00</time></trkpt><trkpt lat="64.02431488" lon="-19.01075745"><ele>620.1</ele><time>2012-07-23T12:09:19.0000000+00:00</time></trkpt><trkpt lat="64.02429199" lon="-19.01070976"><ele>619.6</ele><time>2012-07-23T12:09:24.0000000+00:00</time></trkpt><trkpt lat="64.02424622" lon="-19.01066208"><ele>618.9</ele><time>2012-07-23T12:09:29.0000000+00:00</time></trkpt><trkpt lat="64.02420044" lon="-19.01059723"><ele>619.0</ele><time>2012-07-23T12:09:34.0000000+00:00</time></trkpt><trkpt lat="64.02414703" lon="-19.01053619"><ele>618.4</ele><time>2012-07-23T12:09:39.0000000+00:00</time></trkpt><trkpt lat="64.02409363" lon="-19.01048088"><ele>617.4</ele><time>2012-07-23T12:09:44.0000000+00:00</time></trkpt><trkpt lat="64.02404785" lon="-19.01039314"><ele>616.3</ele><time>2012-07-23T12:09:49.0000000+00:00</time></trkpt><trkpt lat="64.02400971" lon="-19.01029587"><ele>614.7</ele><time>2012-07-23T12:09:54.0000000+00:00</time></trkpt><trkpt lat="64.0239563" lon="-19.01020622"><ele>613.9</ele><time>2012-07-23T12:09:59.0000000+00:00</time></trkpt><trkpt lat="64.02391052" lon="-19.01012611"><ele>614.6</ele><time>2012-07-23T12:10:04.0000000+00:00</time></trkpt><trkpt lat="64.02386475" lon="-19.01004791"><ele>613.0</ele><time>2012-07-23T12:10:09.0000000+00:00</time></trkpt><trkpt lat="64.02383423" lon="-19.0100193"><ele>611.8</ele><time>2012-07-23T12:10:14.0000000+00:00</time></trkpt><trkpt lat="64.02383423" lon="-19.01003265"><ele>609.9</ele><time>2012-07-23T12:10:19.0000000+00:00</time></trkpt><trkpt lat="64.02380371" lon="-19.00999069"><ele>608.8</ele><time>2012-07-23T12:10:24.0000000+00:00</time></trkpt><trkpt lat="64.02375794" lon="-19.00992203"><ele>607.4</ele><time>2012-07-23T12:10:29.0000000+00:00</time></trkpt><trkpt lat="64.02373505" lon="-19.00985718"><ele>605.8</ele><time>2012-07-23T12:10:34.0000000+00:00</time></trkpt><trkpt lat="64.02373505" lon="-19.00985718"><ele>605.7</ele><time>2012-07-23T12:10:39.0000000+00:00</time></trkpt><trkpt lat="64.02373505" lon="-19.00985336"><ele>605.8</ele><time>2012-07-23T12:10:44.0000000+00:00</time></trkpt><trkpt lat="64.02373505" lon="-19.00985336"><ele>605.8</ele><time>2012-07-23T12:10:49.0000000+00:00</time></trkpt><trkpt lat="64.02373505" lon="-19.00985336"><ele>605.8</ele><time>2012-07-23T12:10:54.0000000+00:00</time></trkpt><trkpt lat="64.02373505" lon="-19.00985336"><ele>605.8</ele><time>2012-07-23T12:10:59.0000000+00:00</time></trkpt><trkpt lat="64.02373505" lon="-19.00985336"><ele>605.7</ele><time>2012-07-23T12:11:04.0000000+00:00</time></trkpt><trkpt lat="64.02372742" lon="-19.00984001"><ele>605.1</ele><time>2012-07-23T12:11:09.0000000+00:00</time></trkpt><trkpt lat="64.0236969" lon="-19.00976944"><ele>604.2</ele><time>2012-07-23T12:11:14.0000000+00:00</time></trkpt><trkpt lat="64.02366638" lon="-19.00969696"><ele>604.1</ele><time>2012-07-23T12:11:19.0000000+00:00</time></trkpt><trkpt lat="64.02362061" lon="-19.00962067"><ele>603.2</ele><time>2012-07-23T12:11:24.0000000+00:00</time></trkpt><trkpt lat="64.0235672" lon="-19.0095501"><ele>603.0</ele><time>2012-07-23T12:11:29.0000000+00:00</time></trkpt><trkpt lat="64.02352142" lon="-19.00946426"><ele>602.5</ele><time>2012-07-23T12:11:34.0000000+00:00</time></trkpt><trkpt lat="64.02349854" lon="-19.00941277"><ele>602.0</ele><time>2012-07-23T12:11:39.0000000+00:00</time></trkpt><trkpt lat="64.02349854" lon="-19.00940895"><ele>602.1</ele><time>2012-07-23T12:11:44.0000000+00:00</time></trkpt><trkpt lat="64.02346039" lon="-19.00935555"><ele>601.2</ele><time>2012-07-23T12:11:49.0000000+00:00</time></trkpt><trkpt lat="64.02344513" lon="-19.00933266"><ele>601.0</ele><time>2012-07-23T12:11:54.0000000+00:00</time></trkpt><trkpt lat="64.02339935" lon="-19.00927162"><ele>600.9</ele><time>2012-07-23T12:11:59.0000000+00:00</time></trkpt><trkpt lat="64.02333832" lon="-19.00922585"><ele>599.2</ele><time>2012-07-23T12:12:04.0000000+00:00</time></trkpt><trkpt lat="64.02328491" lon="-19.009161"><ele>597.4</ele><time>2012-07-23T12:12:09.0000000+00:00</time></trkpt><trkpt lat="64.02323151" lon="-19.00909042"><ele>596.9</ele><time>2012-07-23T12:12:14.0000000+00:00</time></trkpt><trkpt lat="64.0231781" lon="-19.00903702"><ele>596.6</ele><time>2012-07-23T12:12:19.0000000+00:00</time></trkpt><trkpt lat="64.0231247" lon="-19.00896072"><ele>595.9</ele><time>2012-07-23T12:12:24.0000000+00:00</time></trkpt><trkpt lat="64.02308655" lon="-19.00888634"><ele>595.1</ele><time>2012-07-23T12:12:29.0000000+00:00</time></trkpt><trkpt lat="64.02302551" lon="-19.0088234"><ele>594.7</ele><time>2012-07-23T12:12:34.0000000+00:00</time></trkpt><trkpt lat="64.02296448" lon="-19.00876617"><ele>594.0</ele><time>2012-07-23T12:12:39.0000000+00:00</time></trkpt><trkpt lat="64.0229187" lon="-19.00870132"><ele>593.2</ele><time>2012-07-23T12:12:44.0000000+00:00</time></trkpt><trkpt lat="64.02288818" lon="-19.00865746"><ele>592.4</ele><time>2012-07-23T12:12:49.0000000+00:00</time></trkpt><trkpt lat="64.02284241" lon="-19.00859833"><ele>590.9</ele><time>2012-07-23T12:12:54.0000000+00:00</time></trkpt><trkpt lat="64.02279663" lon="-19.00854111"><ele>589.4</ele><time>2012-07-23T12:12:59.0000000+00:00</time></trkpt><trkpt lat="64.02275848" lon="-19.00848579"><ele>588.7</ele><time>2012-07-23T12:13:04.0000000+00:00</time></trkpt><trkpt lat="64.02272034" lon="-19.00842285"><ele>588.1</ele><time>2012-07-23T12:13:09.0000000+00:00</time></trkpt><trkpt lat="64.0226593" lon="-19.00835228"><ele>587.8</ele><time>2012-07-23T12:13:14.0000000+00:00</time></trkpt><trkpt lat="64.02261353" lon="-19.00829315"><ele>587.3</ele><time>2012-07-23T12:13:19.0000000+00:00</time></trkpt><trkpt lat="64.02257538" lon="-19.0082264"><ele>586.8</ele><time>2012-07-23T12:13:24.0000000+00:00</time></trkpt><trkpt lat="64.02256012" lon="-19.00821686"><ele>586.9</ele><time>2012-07-23T12:13:29.0000000+00:00</time></trkpt><trkpt lat="64.02252197" lon="-19.00812912"><ele>586.4</ele><time>2012-07-23T12:13:34.0000000+00:00</time></trkpt><trkpt lat="64.02249146" lon="-19.00803566"><ele>585.9</ele><time>2012-07-23T12:13:39.0000000+00:00</time></trkpt><trkpt lat="64.02243805" lon="-19.0079689"><ele>585.6</ele><time>2012-07-23T12:13:44.0000000+00:00</time></trkpt><trkpt lat="64.02239227" lon="-19.00790024"><ele>585.3</ele><time>2012-07-23T12:13:49.0000000+00:00</time></trkpt><trkpt lat="64.02233887" lon="-19.00783348"><ele>585.0</ele><time>2012-07-23T12:13:54.0000000+00:00</time></trkpt><trkpt lat="64.02229309" lon="-19.00778961"><ele>584.7</ele><time>2012-07-23T12:13:59.0000000+00:00</time></trkpt><trkpt lat="64.02223969" lon="-19.00774574"><ele>585.2</ele><time>2012-07-23T12:14:04.0000000+00:00</time></trkpt><trkpt lat="64.02219391" lon="-19.00766182"><ele>584.4</ele><time>2012-07-23T12:14:09.0000000+00:00</time></trkpt><trkpt lat="64.0221405" lon="-19.00758934"><ele>584.1</ele><time>2012-07-23T12:14:14.0000000+00:00</time></trkpt><trkpt lat="64.02209473" lon="-19.00752258"><ele>583.4</ele><time>2012-07-23T12:14:19.0000000+00:00</time></trkpt><trkpt lat="64.02204895" lon="-19.00744057"><ele>582.7</ele><time>2012-07-23T12:14:24.0000000+00:00</time></trkpt><trkpt lat="64.02198792" lon="-19.0073719"><ele>582.6</ele><time>2012-07-23T12:14:29.0000000+00:00</time></trkpt><trkpt lat="64.02194214" lon="-19.00730324"><ele>581.9</ele><time>2012-07-23T12:14:34.0000000+00:00</time></trkpt><trkpt lat="64.02189636" lon="-19.00721932"><ele>581.5</ele><time>2012-07-23T12:14:39.0000000+00:00</time></trkpt><trkpt lat="64.02184296" lon="-19.00714684"><ele>581.2</ele><time>2012-07-23T12:14:44.0000000+00:00</time></trkpt><trkpt lat="64.02178192" lon="-19.00706291"><ele>581.3</ele><time>2012-07-23T12:14:49.0000000+00:00</time></trkpt><trkpt lat="64.02172089" lon="-19.00704193"><ele>580.5</ele><time>2012-07-23T12:14:54.0000000+00:00</time></trkpt><trkpt lat="64.02166748" lon="-19.00701523"><ele>579.9</ele><time>2012-07-23T12:14:59.0000000+00:00</time></trkpt><trkpt lat="64.02161408" lon="-19.00696373"><ele>580.2</ele><time>2012-07-23T12:15:04.0000000+00:00</time></trkpt><trkpt lat="64.02154541" lon="-19.00691032"><ele>580.0</ele><time>2012-07-23T12:15:09.0000000+00:00</time></trkpt><trkpt lat="64.02147675" lon="-19.00688171"><ele>580.4</ele><time>2012-07-23T12:15:14.0000000+00:00</time></trkpt><trkpt lat="64.02141571" lon="-19.00685883"><ele>580.4</ele><time>2012-07-23T12:15:19.0000000+00:00</time></trkpt><trkpt lat="64.02136993" lon="-19.00683975"><ele>581.2</ele><time>2012-07-23T12:15:24.0000000+00:00</time></trkpt><trkpt lat="64.02135468" lon="-19.00683785"><ele>581.6</ele><time>2012-07-23T12:15:29.0000000+00:00</time></trkpt><trkpt lat="64.02136231" lon="-19.0068531"><ele>581.7</ele><time>2012-07-23T12:15:34.0000000+00:00</time></trkpt><trkpt lat="64.02136231" lon="-19.0068531"><ele>581.7</ele><time>2012-07-23T12:15:39.0000000+00:00</time></trkpt><trkpt lat="64.02136231" lon="-19.0068531"><ele>581.6</ele><time>2012-07-23T12:15:44.0000000+00:00</time></trkpt><trkpt lat="64.02133179" lon="-19.00684166"><ele>581.3</ele><time>2012-07-23T12:15:49.0000000+00:00</time></trkpt><trkpt lat="64.02127075" lon="-19.00682068"><ele>581.9</ele><time>2012-07-23T12:15:54.0000000+00:00</time></trkpt><trkpt lat="64.02123261" lon="-19.00676727"><ele>583.2</ele><time>2012-07-23T12:15:59.0000000+00:00</time></trkpt><trkpt lat="64.0211792" lon="-19.00673866"><ele>584.4</ele><time>2012-07-23T12:16:04.0000000+00:00</time></trkpt><trkpt lat="64.02111054" lon="-19.00672722"><ele>584.9</ele><time>2012-07-23T12:16:09.0000000+00:00</time></trkpt><trkpt lat="64.02106476" lon="-19.00669861"><ele>585.1</ele><time>2012-07-23T12:16:14.0000000+00:00</time></trkpt><trkpt lat="64.02099609" lon="-19.00667"><ele>585.1</ele><time>2012-07-23T12:16:19.0000000+00:00</time></trkpt><trkpt lat="64.02094269" lon="-19.00660515"><ele>585.6</ele><time>2012-07-23T12:16:24.0000000+00:00</time></trkpt><trkpt lat="64.02088165" lon="-19.00655365"><ele>586.0</ele><time>2012-07-23T12:16:29.0000000+00:00</time></trkpt><trkpt lat="64.02082062" lon="-19.00650787"><ele>585.8</ele><time>2012-07-23T12:16:34.0000000+00:00</time></trkpt><trkpt lat="64.02075958" lon="-19.00646973"><ele>585.4</ele><time>2012-07-23T12:16:39.0000000+00:00</time></trkpt><trkpt lat="64.02069092" lon="-19.00644493"><ele>585.8</ele><time>2012-07-23T12:16:44.0000000+00:00</time></trkpt><trkpt lat="64.02063751" lon="-19.00639916"><ele>586.0</ele><time>2012-07-23T12:16:49.0000000+00:00</time></trkpt><trkpt lat="64.02058411" lon="-19.00637436"><ele>585.8</ele><time>2012-07-23T12:16:54.0000000+00:00</time></trkpt><trkpt lat="64.0205307" lon="-19.00635529"><ele>587.4</ele><time>2012-07-23T12:16:59.0000000+00:00</time></trkpt><trkpt lat="64.0204773" lon="-19.00633812"><ele>587.4</ele><time>2012-07-23T12:17:04.0000000+00:00</time></trkpt><trkpt lat="64.02040863" lon="-19.00634575"><ele>587.7</ele><time>2012-07-23T12:17:09.0000000+00:00</time></trkpt><trkpt lat="64.0203476" lon="-19.00633049"><ele>587.7</ele><time>2012-07-23T12:17:14.0000000+00:00</time></trkpt><trkpt lat="64.02027893" lon="-19.00634384"><ele>587.5</ele><time>2012-07-23T12:17:19.0000000+00:00</time></trkpt><trkpt lat="64.0202179" lon="-19.0063591"><ele>587.8</ele><time>2012-07-23T12:17:24.0000000+00:00</time></trkpt><trkpt lat="64.02015686" lon="-19.00634193"><ele>587.7</ele><time>2012-07-23T12:17:29.0000000+00:00</time></trkpt><trkpt lat="64.0200882" lon="-19.00633621"><ele>587.5</ele><time>2012-07-23T12:17:34.0000000+00:00</time></trkpt><trkpt lat="64.02001953" lon="-19.00632668"><ele>587.6</ele><time>2012-07-23T12:17:39.0000000+00:00</time></trkpt><trkpt lat="64.0199585" lon="-19.00631332"><ele>587.6</ele><time>2012-07-23T12:17:44.0000000+00:00</time></trkpt><trkpt lat="64.01990509" lon="-19.00633812"><ele>587.5</ele><time>2012-07-23T12:17:49.0000000+00:00</time></trkpt><trkpt lat="64.01983643" lon="-19.00635147"><ele>586.7</ele><time>2012-07-23T12:17:54.0000000+00:00</time></trkpt><trkpt lat="64.01978302" lon="-19.0063839"><ele>586.5</ele><time>2012-07-23T12:17:59.0000000+00:00</time></trkpt><trkpt lat="64.01972961" lon="-19.00641251"><ele>585.5</ele><time>2012-07-23T12:18:04.0000000+00:00</time></trkpt><trkpt lat="64.01967621" lon="-19.00644493"><ele>584.5</ele><time>2012-07-23T12:18:09.0000000+00:00</time></trkpt><trkpt lat="64.0196228" lon="-19.00645828"><ele>584.9</ele><time>2012-07-23T12:18:14.0000000+00:00</time></trkpt><trkpt lat="64.0195694" lon="-19.00648499"><ele>584.6</ele><time>2012-07-23T12:18:19.0000000+00:00</time></trkpt><trkpt lat="64.01951599" lon="-19.00651741"><ele>583.1</ele><time>2012-07-23T12:18:24.0000000+00:00</time></trkpt><trkpt lat="64.01945496" lon="-19.00657654"><ele>582.9</ele><time>2012-07-23T12:18:29.0000000+00:00</time></trkpt><trkpt lat="64.01939392" lon="-19.00658226"><ele>583.4</ele><time>2012-07-23T12:18:34.0000000+00:00</time></trkpt><trkpt lat="64.01935577" lon="-19.00662422"><ele>583.9</ele><time>2012-07-23T12:18:39.0000000+00:00</time></trkpt><trkpt lat="64.01931" lon="-19.00666809"><ele>583.4</ele><time>2012-07-23T12:18:44.0000000+00:00</time></trkpt><trkpt lat="64.01925659" lon="-19.00678253"><ele>582.3</ele><time>2012-07-23T12:18:49.0000000+00:00</time></trkpt><trkpt lat="64.01921082" lon="-19.00688744"><ele>583.3</ele><time>2012-07-23T12:18:54.0000000+00:00</time></trkpt><trkpt lat="64.01917267" lon="-19.00701714"><ele>583.2</ele><time>2012-07-23T12:18:59.0000000+00:00</time></trkpt><trkpt lat="64.01912689" lon="-19.00710106"><ele>583.2</ele><time>2012-07-23T12:19:04.0000000+00:00</time></trkpt><trkpt lat="64.01909638" lon="-19.00720787"><ele>582.9</ele><time>2012-07-23T12:19:09.0000000+00:00</time></trkpt><trkpt lat="64.01905823" lon="-19.00726318"><ele>581.9</ele><time>2012-07-23T12:19:14.0000000+00:00</time></trkpt><trkpt lat="64.01901245" lon="-19.00734139"><ele>581.9</ele><time>2012-07-23T12:19:19.0000000+00:00</time></trkpt><trkpt lat="64.01898193" lon="-19.00744629"><ele>581.6</ele><time>2012-07-23T12:19:24.0000000+00:00</time></trkpt><trkpt lat="64.01895142" lon="-19.00757027"><ele>581.3</ele><time>2012-07-23T12:19:29.0000000+00:00</time></trkpt><trkpt lat="64.0189209" lon="-19.00765801"><ele>581.1</ele><time>2012-07-23T12:19:34.0000000+00:00</time></trkpt><trkpt lat="64.01889801" lon="-19.00779343"><ele>580.5</ele><time>2012-07-23T12:19:39.0000000+00:00</time></trkpt><trkpt lat="64.01886749" lon="-19.0079155"><ele>579.4</ele><time>2012-07-23T12:19:44.0000000+00:00</time></trkpt><trkpt lat="64.01882935" lon="-19.0080471"><ele>579.0</ele><time>2012-07-23T12:19:49.0000000+00:00</time></trkpt><trkpt lat="64.0187912" lon="-19.00814629"><ele>579.3</ele><time>2012-07-23T12:19:54.0000000+00:00</time></trkpt><trkpt lat="64.01873779" lon="-19.00823784"><ele>579.3</ele><time>2012-07-23T12:19:59.0000000+00:00</time></trkpt><trkpt lat="64.01873016" lon="-19.00834847"><ele>579.2</ele><time>2012-07-23T12:20:04.0000000+00:00</time></trkpt><trkpt lat="64.01875305" lon="-19.00847626"><ele>579.1</ele><time>2012-07-23T12:20:09.0000000+00:00</time></trkpt><trkpt lat="64.01879883" lon="-19.00857735"><ele>580.4</ele><time>2012-07-23T12:20:14.0000000+00:00</time></trkpt><trkpt lat="64.01882935" lon="-19.00870895"><ele>581.8</ele><time>2012-07-23T12:20:19.0000000+00:00</time></trkpt><trkpt lat="64.01886749" lon="-19.0088253"><ele>583.1</ele><time>2012-07-23T12:20:24.0000000+00:00</time></trkpt><trkpt lat="64.01887512" lon="-19.00896454"><ele>583.9</ele><time>2012-07-23T12:20:29.0000000+00:00</time></trkpt><trkpt lat="64.01887512" lon="-19.00906754"><ele>585.1</ele><time>2012-07-23T12:20:34.0000000+00:00</time></trkpt><trkpt lat="64.01889038" lon="-19.00917244"><ele>584.5</ele><time>2012-07-23T12:20:39.0000000+00:00</time></trkpt><trkpt lat="64.01890564" lon="-19.00927353"><ele>584.6</ele><time>2012-07-23T12:20:44.0000000+00:00</time></trkpt><trkpt lat="64.01889801" lon="-19.00941658"><ele>584.6</ele><time>2012-07-23T12:20:49.0000000+00:00</time></trkpt><trkpt lat="64.01888275" lon="-19.009552"><ele>583.9</ele><time>2012-07-23T12:20:54.0000000+00:00</time></trkpt><trkpt lat="64.01886749" lon="-19.00966072"><ele>583.3</ele><time>2012-07-23T12:20:59.0000000+00:00</time></trkpt><trkpt lat="64.0188446" lon="-19.00977516"><ele>583.1</ele><time>2012-07-23T12:21:04.0000000+00:00</time></trkpt><trkpt lat="64.01881409" lon="-19.00992775"><ele>583.1</ele><time>2012-07-23T12:21:09.0000000+00:00</time></trkpt><trkpt lat="64.01880646" lon="-19.01006508"><ele>584.2</ele><time>2012-07-23T12:21:14.0000000+00:00</time></trkpt><trkpt lat="64.01880646" lon="-19.01019096"><ele>584.3</ele><time>2012-07-23T12:21:19.0000000+00:00</time></trkpt><trkpt lat="64.01881409" lon="-19.01032829"><ele>583.8</ele><time>2012-07-23T12:21:24.0000000+00:00</time></trkpt><trkpt lat="64.01882935" lon="-19.01045609"><ele>583.2</ele><time>2012-07-23T12:21:29.0000000+00:00</time></trkpt><trkpt lat="64.01880646" lon="-19.01058388"><ele>583.3</ele><time>2012-07-23T12:21:34.0000000+00:00</time></trkpt><trkpt lat="64.01877594" lon="-19.01068497"><ele>584.5</ele><time>2012-07-23T12:21:39.0000000+00:00</time></trkpt><trkpt lat="64.01874542" lon="-19.01078606"><ele>584.2</ele><time>2012-07-23T12:21:44.0000000+00:00</time></trkpt><trkpt lat="64.01873779" lon="-19.01090622"><ele>584.2</ele><time>2012-07-23T12:21:49.0000000+00:00</time></trkpt><trkpt lat="64.01873016" lon="-19.01103592"><ele>583.7</ele><time>2012-07-23T12:21:54.0000000+00:00</time></trkpt><trkpt lat="64.01873016" lon="-19.01118279"><ele>582.8</ele><time>2012-07-23T12:21:59.0000000+00:00</time></trkpt><trkpt lat="64.01871491" lon="-19.01130486"><ele>582.4</ele><time>2012-07-23T12:22:04.0000000+00:00</time></trkpt><trkpt lat="64.01869965" lon="-19.01140404"><ele>582.2</ele><time>2012-07-23T12:22:09.0000000+00:00</time></trkpt><trkpt lat="64.01866913" lon="-19.01149941"><ele>582.8</ele><time>2012-07-23T12:22:14.0000000+00:00</time></trkpt><trkpt lat="64.01864624" lon="-19.0116024"><ele>583.4</ele><time>2012-07-23T12:22:19.0000000+00:00</time></trkpt><trkpt lat="64.01860046" lon="-19.01163673"><ele>583.8</ele><time>2012-07-23T12:22:24.0000000+00:00</time></trkpt><trkpt lat="64.01856232" lon="-19.01172257"><ele>583.5</ele><time>2012-07-23T12:22:29.0000000+00:00</time></trkpt><trkpt lat="64.01852417" lon="-19.01185036"><ele>583.8</ele><time>2012-07-23T12:22:34.0000000+00:00</time></trkpt><trkpt lat="64.01849365" lon="-19.01195526"><ele>584.0</ele><time>2012-07-23T12:22:39.0000000+00:00</time></trkpt><trkpt lat="64.01844788" lon="-19.0120697"><ele>583.9</ele><time>2012-07-23T12:22:44.0000000+00:00</time></trkpt><trkpt lat="64.01841736" lon="-19.01215935"><ele>583.8</ele><time>2012-07-23T12:22:49.0000000+00:00</time></trkpt><trkpt lat="64.01837158" lon="-19.01226425"><ele>583.2</ele><time>2012-07-23T12:22:54.0000000+00:00</time></trkpt><trkpt lat="64.01834106" lon="-19.01236153"><ele>582.5</ele><time>2012-07-23T12:22:59.0000000+00:00</time></trkpt><trkpt lat="64.01830292" lon="-19.01247215"><ele>583.1</ele><time>2012-07-23T12:23:04.0000000+00:00</time></trkpt><trkpt lat="64.01828003" lon="-19.01259422"><ele>582.8</ele><time>2012-07-23T12:23:09.0000000+00:00</time></trkpt><trkpt lat="64.01824951" lon="-19.01272202"><ele>582.9</ele><time>2012-07-23T12:23:14.0000000+00:00</time></trkpt><trkpt lat="64.01821899" lon="-19.01285934"><ele>583.0</ele><time>2012-07-23T12:23:19.0000000+00:00</time></trkpt><trkpt lat="64.01818085" lon="-19.01296616"><ele>583.3</ele><time>2012-07-23T12:23:24.0000000+00:00</time></trkpt><trkpt lat="64.01812744" lon="-19.01306725"><ele>583.0</ele><time>2012-07-23T12:23:29.0000000+00:00</time></trkpt><trkpt lat="64.01807404" lon="-19.01316834"><ele>582.7</ele><time>2012-07-23T12:23:34.0000000+00:00</time></trkpt><trkpt lat="64.01802063" lon="-19.01322174"><ele>583.1</ele><time>2012-07-23T12:23:39.0000000+00:00</time></trkpt><trkpt lat="64.01796722" lon="-19.01327515"><ele>583.4</ele><time>2012-07-23T12:23:44.0000000+00:00</time></trkpt><trkpt lat="64.01790619" lon="-19.01332283"><ele>583.5</ele><time>2012-07-23T12:23:49.0000000+00:00</time></trkpt><trkpt lat="64.01785278" lon="-19.0133934"><ele>583.2</ele><time>2012-07-23T12:23:54.0000000+00:00</time></trkpt><trkpt lat="64.01779938" lon="-19.01348877"><ele>581.5</ele><time>2012-07-23T12:23:59.0000000+00:00</time></trkpt><trkpt lat="64.01776123" lon="-19.01356888"><ele>581.7</ele><time>2012-07-23T12:24:04.0000000+00:00</time></trkpt><trkpt lat="64.01776123" lon="-19.01356888"><ele>581.9</ele><time>2012-07-23T12:24:09.0000000+00:00</time></trkpt><trkpt lat="64.01771545" lon="-19.0136528"><ele>581.5</ele><time>2012-07-23T12:24:14.0000000+00:00</time></trkpt><trkpt lat="64.01765442" lon="-19.01372147"><ele>581.1</ele><time>2012-07-23T12:24:19.0000000+00:00</time></trkpt><trkpt lat="64.01760864" lon="-19.01381302"><ele>580.5</ele><time>2012-07-23T12:24:24.0000000+00:00</time></trkpt><trkpt lat="64.01758575" lon="-19.01391602"><ele>580.3</ele><time>2012-07-23T12:24:29.0000000+00:00</time></trkpt><trkpt lat="64.01756287" lon="-19.01405144"><ele>578.0</ele><time>2012-07-23T12:24:34.0000000+00:00</time></trkpt><trkpt lat="64.01753235" lon="-19.01417923"><ele>577.6</ele><time>2012-07-23T12:24:39.0000000+00:00</time></trkpt><trkpt lat="64.01750946" lon="-19.01428604"><ele>577.9</ele><time>2012-07-23T12:24:44.0000000+00:00</time></trkpt><trkpt lat="64.01750183" lon="-19.01441002"><ele>577.6</ele><time>2012-07-23T12:24:49.0000000+00:00</time></trkpt><trkpt lat="64.01753235" lon="-19.01455116"><ele>577.2</ele><time>2012-07-23T12:24:54.0000000+00:00</time></trkpt><trkpt lat="64.01754761" lon="-19.01468849"><ele>579.7</ele><time>2012-07-23T12:24:59.0000000+00:00</time></trkpt><trkpt lat="64.01757813" lon="-19.01479721"><ele>580.6</ele><time>2012-07-23T12:25:04.0000000+00:00</time></trkpt><trkpt lat="64.01760101" lon="-19.01490593"><ele>580.4</ele><time>2012-07-23T12:25:09.0000000+00:00</time></trkpt><trkpt lat="64.0176239" lon="-19.01502228"><ele>581.1</ele><time>2012-07-23T12:25:14.0000000+00:00</time></trkpt><trkpt lat="64.01765442" lon="-19.01514816"><ele>582.0</ele><time>2012-07-23T12:25:19.0000000+00:00</time></trkpt><trkpt lat="64.01766205" lon="-19.01528931"><ele>583.3</ele><time>2012-07-23T12:25:24.0000000+00:00</time></trkpt><trkpt lat="64.01767731" lon="-19.01542282"><ele>584.6</ele><time>2012-07-23T12:25:29.0000000+00:00</time></trkpt><trkpt lat="64.01767731" lon="-19.01554871"><ele>585.1</ele><time>2012-07-23T12:25:34.0000000+00:00</time></trkpt><trkpt lat="64.01768494" lon="-19.0156517"><ele>586.7</ele><time>2012-07-23T12:25:39.0000000+00:00</time></trkpt><trkpt lat="64.01767731" lon="-19.01573944"><ele>586.5</ele><time>2012-07-23T12:25:44.0000000+00:00</time></trkpt><trkpt lat="64.0177002" lon="-19.01583862"><ele>586.0</ele><time>2012-07-23T12:25:49.0000000+00:00</time></trkpt><trkpt lat="64.01771545" lon="-19.01593781"><ele>585.9</ele><time>2012-07-23T12:25:54.0000000+00:00</time></trkpt><trkpt lat="64.01771545" lon="-19.01606178"><ele>585.3</ele><time>2012-07-23T12:25:59.0000000+00:00</time></trkpt><trkpt lat="64.01772308" lon="-19.01619721"><ele>584.6</ele><time>2012-07-23T12:26:04.0000000+00:00</time></trkpt><trkpt lat="64.01773071" lon="-19.01633072"><ele>585.2</ele><time>2012-07-23T12:26:09.0000000+00:00</time></trkpt><trkpt lat="64.01773834" lon="-19.01647949"><ele>584.4</ele><time>2012-07-23T12:26:14.0000000+00:00</time></trkpt><trkpt lat="64.01773071" lon="-19.01660538"><ele>584.0</ele><time>2012-07-23T12:26:19.0000000+00:00</time></trkpt><trkpt lat="64.01774597" lon="-19.01675606"><ele>584.1</ele><time>2012-07-23T12:26:24.0000000+00:00</time></trkpt><trkpt lat="64.01776123" lon="-19.01686668"><ele>584.8</ele><time>2012-07-23T12:26:29.0000000+00:00</time></trkpt><trkpt lat="64.01778412" lon="-19.01700401"><ele>585.0</ele><time>2012-07-23T12:26:34.0000000+00:00</time></trkpt><trkpt lat="64.01778412" lon="-19.01714706"><ele>584.5</ele><time>2012-07-23T12:26:39.0000000+00:00</time></trkpt><trkpt lat="64.01779938" lon="-19.01728249"><ele>584.1</ele><time>2012-07-23T12:26:44.0000000+00:00</time></trkpt><trkpt lat="64.01779938" lon="-19.01741409"><ele>584.6</ele><time>2012-07-23T12:26:49.0000000+00:00</time></trkpt><trkpt lat="64.01780701" lon="-19.0175457"><ele>584.4</ele><time>2012-07-23T12:26:54.0000000+00:00</time></trkpt><trkpt lat="64.01783752" lon="-19.01765823"><ele>584.2</ele><time>2012-07-23T12:26:59.0000000+00:00</time></trkpt><trkpt lat="64.01786041" lon="-19.01778221"><ele>583.8</ele><time>2012-07-23T12:27:04.0000000+00:00</time></trkpt><trkpt lat="64.01785278" lon="-19.01792145"><ele>583.9</ele><time>2012-07-23T12:27:09.0000000+00:00</time></trkpt><trkpt lat="64.01786041" lon="-19.01804543"><ele>584.0</ele><time>2012-07-23T12:27:14.0000000+00:00</time></trkpt><trkpt lat="64.01786804" lon="-19.01820755"><ele>584.7</ele><time>2012-07-23T12:27:19.0000000+00:00</time></trkpt><trkpt lat="64.01789093" lon="-19.01832008"><ele>584.2</ele><time>2012-07-23T12:27:24.0000000+00:00</time></trkpt><trkpt lat="64.01790619" lon="-19.0184269"><ele>583.5</ele><time>2012-07-23T12:27:29.0000000+00:00</time></trkpt><trkpt lat="64.01791382" lon="-19.01853371"><ele>583.0</ele><time>2012-07-23T12:27:34.0000000+00:00</time></trkpt><trkpt lat="64.01791382" lon="-19.01867867"><ele>581.5</ele><time>2012-07-23T12:27:39.0000000+00:00</time></trkpt><trkpt lat="64.01790619" lon="-19.01881218"><ele>580.8</ele><time>2012-07-23T12:27:44.0000000+00:00</time></trkpt><trkpt lat="64.0178833" lon="-19.01894569"><ele>580.0</ele><time>2012-07-23T12:27:49.0000000+00:00</time></trkpt><trkpt lat="64.01786041" lon="-19.01907158"><ele>579.5</ele><time>2012-07-23T12:27:54.0000000+00:00</time></trkpt><trkpt lat="64.01783752" lon="-19.01921463"><ele>578.7</ele><time>2012-07-23T12:27:59.0000000+00:00</time></trkpt><trkpt lat="64.0178299" lon="-19.01935577"><ele>579.2</ele><time>2012-07-23T12:28:04.0000000+00:00</time></trkpt><trkpt lat="64.01781464" lon="-19.01949883"><ele>579.2</ele><time>2012-07-23T12:28:09.0000000+00:00</time></trkpt><trkpt lat="64.01779938" lon="-19.0195961"><ele>579.0</ele><time>2012-07-23T12:28:14.0000000+00:00</time></trkpt><trkpt lat="64.01777649" lon="-19.01968193"><ele>577.1</ele><time>2012-07-23T12:28:19.0000000+00:00</time></trkpt><trkpt lat="64.01777649" lon="-19.01981545"><ele>576.4</ele><time>2012-07-23T12:28:24.0000000+00:00</time></trkpt><trkpt lat="64.01778412" lon="-19.01994133"><ele>577.0</ele><time>2012-07-23T12:28:29.0000000+00:00</time></trkpt><trkpt lat="64.01776886" lon="-19.02006912"><ele>578.5</ele><time>2012-07-23T12:28:34.0000000+00:00</time></trkpt><trkpt lat="64.01776886" lon="-19.02019692"><ele>579.2</ele><time>2012-07-23T12:28:39.0000000+00:00</time></trkpt><trkpt lat="64.01774597" lon="-19.02033997"><ele>579.6</ele><time>2012-07-23T12:28:44.0000000+00:00</time></trkpt><trkpt lat="64.01772308" lon="-19.02046967"><ele>580.6</ele><time>2012-07-23T12:28:49.0000000+00:00</time></trkpt><trkpt lat="64.01767731" lon="-19.02058029"><ele>580.3</ele><time>2012-07-23T12:28:54.0000000+00:00</time></trkpt><trkpt lat="64.01763153" lon="-19.02066612"><ele>580.6</ele><time>2012-07-23T12:28:59.0000000+00:00</time></trkpt><trkpt lat="64.01757813" lon="-19.02071571"><ele>581.6</ele><time>2012-07-23T12:29:04.0000000+00:00</time></trkpt><trkpt lat="64.01752472" lon="-19.02077866"><ele>582.1</ele><time>2012-07-23T12:29:09.0000000+00:00</time></trkpt><trkpt lat="64.01746368" lon="-19.02083206"><ele>583.2</ele><time>2012-07-23T12:29:14.0000000+00:00</time></trkpt><trkpt lat="64.01741028" lon="-19.02086258"><ele>584.3</ele><time>2012-07-23T12:29:19.0000000+00:00</time></trkpt><trkpt lat="64.01737976" lon="-19.02089119"><ele>585.4</ele><time>2012-07-23T12:29:24.0000000+00:00</time></trkpt><trkpt lat="64.01737213" lon="-19.02090454"><ele>585.6</ele><time>2012-07-23T12:29:29.0000000+00:00</time></trkpt><trkpt lat="64.01737213" lon="-19.02090263"><ele>585.7</ele><time>2012-07-23T12:29:34.0000000+00:00</time></trkpt><trkpt lat="64.0173645" lon="-19.02092743"><ele>585.8</ele><time>2012-07-23T12:29:39.0000000+00:00</time></trkpt><trkpt lat="64.01731873" lon="-19.02099228"><ele>586.9</ele><time>2012-07-23T12:29:44.0000000+00:00</time></trkpt><trkpt lat="64.01726532" lon="-19.02107048"><ele>586.7</ele><time>2012-07-23T12:29:49.0000000+00:00</time></trkpt><trkpt lat="64.01720429" lon="-19.02113915"><ele>587.0</ele><time>2012-07-23T12:29:54.0000000+00:00</time></trkpt><trkpt lat="64.01715851" lon="-19.02118492"><ele>587.5</ele><time>2012-07-23T12:29:59.0000000+00:00</time></trkpt><trkpt lat="64.01709747" lon="-19.02122879"><ele>587.9</ele><time>2012-07-23T12:30:04.0000000+00:00</time></trkpt><trkpt lat="64.01703644" lon="-19.02125168"><ele>589.5</ele><time>2012-07-23T12:30:09.0000000+00:00</time></trkpt><trkpt lat="64.0169754" lon="-19.02128029"><ele>590.9</ele><time>2012-07-23T12:30:14.0000000+00:00</time></trkpt><trkpt lat="64.01692963" lon="-19.02135468"><ele>591.3</ele><time>2012-07-23T12:30:19.0000000+00:00</time></trkpt><trkpt lat="64.01687622" lon="-19.02144432"><ele>591.2</ele><time>2012-07-23T12:30:24.0000000+00:00</time></trkpt><trkpt lat="64.01682282" lon="-19.0215435"><ele>591.6</ele><time>2012-07-23T12:30:29.0000000+00:00</time></trkpt><trkpt lat="64.01676941" lon="-19.02159119"><ele>590.8</ele><time>2012-07-23T12:30:34.0000000+00:00</time></trkpt><trkpt lat="64.01670837" lon="-19.02164269"><ele>590.6</ele><time>2012-07-23T12:30:39.0000000+00:00</time></trkpt><trkpt lat="64.01664734" lon="-19.02172089"><ele>591.5</ele><time>2012-07-23T12:30:44.0000000+00:00</time></trkpt><trkpt lat="64.0165863" lon="-19.02176857"><ele>592.4</ele><time>2012-07-23T12:30:49.0000000+00:00</time></trkpt><trkpt lat="64.01651001" lon="-19.02179909"><ele>592.7</ele><time>2012-07-23T12:30:54.0000000+00:00</time></trkpt><trkpt lat="64.01644135" lon="-19.02185249"><ele>592.7</ele><time>2012-07-23T12:30:59.0000000+00:00</time></trkpt><trkpt lat="64.01637268" lon="-19.02190018"><ele>593.0</ele><time>2012-07-23T12:31:04.0000000+00:00</time></trkpt><trkpt lat="64.01631928" lon="-19.0219326"><ele>593.7</ele><time>2012-07-23T12:31:09.0000000+00:00</time></trkpt><trkpt lat="64.01625824" lon="-19.02197075"><ele>593.8</ele><time>2012-07-23T12:31:14.0000000+00:00</time></trkpt><trkpt lat="64.01619721" lon="-19.02201653"><ele>594.4</ele><time>2012-07-23T12:31:19.0000000+00:00</time></trkpt><trkpt lat="64.01613617" lon="-19.02206612"><ele>595.0</ele><time>2012-07-23T12:31:24.0000000+00:00</time></trkpt><trkpt lat="64.01607513" lon="-19.02213287"><ele>595.0</ele><time>2012-07-23T12:31:29.0000000+00:00</time></trkpt><trkpt lat="64.0160141" lon="-19.02219391"><ele>595.4</ele><time>2012-07-23T12:31:34.0000000+00:00</time></trkpt><trkpt lat="64.01596069" lon="-19.02229691"><ele>595.9</ele><time>2012-07-23T12:31:39.0000000+00:00</time></trkpt><trkpt lat="64.01590729" lon="-19.02239227"><ele>595.3</ele><time>2012-07-23T12:31:44.0000000+00:00</time></trkpt><trkpt lat="64.01586151" lon="-19.02250862"><ele>595.3</ele><time>2012-07-23T12:31:49.0000000+00:00</time></trkpt><trkpt lat="64.01580811" lon="-19.02259636"><ele>595.6</ele><time>2012-07-23T12:31:54.0000000+00:00</time></trkpt><trkpt lat="64.0157547" lon="-19.02269173"><ele>595.7</ele><time>2012-07-23T12:31:59.0000000+00:00</time></trkpt><trkpt lat="64.01573181" lon="-19.02273941"><ele>595.8</ele><time>2012-07-23T12:32:04.0000000+00:00</time></trkpt><trkpt lat="64.01567841" lon="-19.02280426"><ele>596.9</ele><time>2012-07-23T12:32:09.0000000+00:00</time></trkpt><trkpt lat="64.015625" lon="-19.0228672"><ele>598.1</ele><time>2012-07-23T12:32:14.0000000+00:00</time></trkpt><trkpt lat="64.01557922" lon="-19.02289963"><ele>599.5</ele><time>2012-07-23T12:32:19.0000000+00:00</time></trkpt><trkpt lat="64.01553345" lon="-19.02292252"><ele>600.1</ele><time>2012-07-23T12:32:24.0000000+00:00</time></trkpt><trkpt lat="64.01546478" lon="-19.02296257"><ele>600.7</ele><time>2012-07-23T12:32:29.0000000+00:00</time></trkpt><trkpt lat="64.01540375" lon="-19.02301979"><ele>600.9</ele><time>2012-07-23T12:32:34.0000000+00:00</time></trkpt><trkpt lat="64.01535034" lon="-19.02307892"><ele>601.5</ele><time>2012-07-23T12:32:39.0000000+00:00</time></trkpt><trkpt lat="64.01529694" lon="-19.02312851"><ele>601.4</ele><time>2012-07-23T12:32:44.0000000+00:00</time></trkpt><trkpt lat="64.01525116" lon="-19.02311897"><ele>601.3</ele><time>2012-07-23T12:32:49.0000000+00:00</time></trkpt><trkpt lat="64.01519013" lon="-19.02315712"><ele>601.4</ele><time>2012-07-23T12:32:54.0000000+00:00</time></trkpt><trkpt lat="64.01512909" lon="-19.02321053"><ele>601.5</ele><time>2012-07-23T12:32:59.0000000+00:00</time></trkpt><trkpt lat="64.01506805" lon="-19.02324486"><ele>601.4</ele><time>2012-07-23T12:33:04.0000000+00:00</time></trkpt><trkpt lat="64.01499939" lon="-19.02330399"><ele>602.1</ele><time>2012-07-23T12:33:09.0000000+00:00</time></trkpt><trkpt lat="64.01494598" lon="-19.02339745"><ele>601.7</ele><time>2012-07-23T12:33:14.0000000+00:00</time></trkpt><trkpt lat="64.01488495" lon="-19.02347565"><ele>602.1</ele><time>2012-07-23T12:33:19.0000000+00:00</time></trkpt><trkpt lat="64.01481628" lon="-19.02349854"><ele>603.1</ele><time>2012-07-23T12:33:24.0000000+00:00</time></trkpt><trkpt lat="64.01475525" lon="-19.02353859"><ele>603.1</ele><time>2012-07-23T12:33:29.0000000+00:00</time></trkpt><trkpt lat="64.01469421" lon="-19.02358627"><ele>604.0</ele><time>2012-07-23T12:33:34.0000000+00:00</time></trkpt><trkpt lat="64.01464844" lon="-19.02365494"><ele>604.5</ele><time>2012-07-23T12:33:39.0000000+00:00</time></trkpt><trkpt lat="64.01457977" lon="-19.02370262"><ele>604.0</ele><time>2012-07-23T12:33:44.0000000+00:00</time></trkpt><trkpt lat="64.01451874" lon="-19.02374649"><ele>603.7</ele><time>2012-07-23T12:33:49.0000000+00:00</time></trkpt><trkpt lat="64.0144577" lon="-19.02377892"><ele>603.9</ele><time>2012-07-23T12:33:54.0000000+00:00</time></trkpt><trkpt lat="64.01441193" lon="-19.02382278"><ele>603.8</ele><time>2012-07-23T12:33:59.0000000+00:00</time></trkpt><trkpt lat="64.01441193" lon="-19.02382851"><ele>604.0</ele><time>2012-07-23T12:34:04.0000000+00:00</time></trkpt><trkpt lat="64.01441193" lon="-19.02382851"><ele>604.0</ele><time>2012-07-23T12:34:09.0000000+00:00</time></trkpt><trkpt lat="64.0144043" lon="-19.02382469"><ele>604.0</ele><time>2012-07-23T12:34:14.0000000+00:00</time></trkpt><trkpt lat="64.0144043" lon="-19.02382278"><ele>604.0</ele><time>2012-07-23T12:34:19.0000000+00:00</time></trkpt><trkpt lat="64.0144043" lon="-19.02382278"><ele>604.0</ele><time>2012-07-23T12:34:24.0000000+00:00</time></trkpt><trkpt lat="64.0144043" lon="-19.02382278"><ele>604.0</ele><time>2012-07-23T12:34:29.0000000+00:00</time></trkpt><trkpt lat="64.0144043" lon="-19.02382278"><ele>604.0</ele><time>2012-07-23T12:34:34.0000000+00:00</time></trkpt><trkpt lat="64.01437378" lon="-19.02384758"><ele>603.5</ele><time>2012-07-23T12:34:39.0000000+00:00</time></trkpt><trkpt lat="64.01432037" lon="-19.02390862"><ele>603.3</ele><time>2012-07-23T12:34:44.0000000+00:00</time></trkpt><trkpt lat="64.01426697" lon="-19.02397347"><ele>603.1</ele><time>2012-07-23T12:34:49.0000000+00:00</time></trkpt><trkpt lat="64.01420593" lon="-19.02403832"><ele>602.2</ele><time>2012-07-23T12:34:54.0000000+00:00</time></trkpt><trkpt lat="64.0141449" lon="-19.02410126"><ele>602.0</ele><time>2012-07-23T12:34:59.0000000+00:00</time></trkpt><trkpt lat="64.01408386" lon="-19.02417755"><ele>601.7</ele><time>2012-07-23T12:35:04.0000000+00:00</time></trkpt><trkpt lat="64.01403046" lon="-19.02427673"><ele>601.4</ele><time>2012-07-23T12:35:09.0000000+00:00</time></trkpt><trkpt lat="64.01398468" lon="-19.02438927"><ele>601.3</ele><time>2012-07-23T12:35:14.0000000+00:00</time></trkpt><trkpt lat="64.0139389" lon="-19.0245018"><ele>601.5</ele><time>2012-07-23T12:35:19.0000000+00:00</time></trkpt><trkpt lat="64.0138855" lon="-19.02459908"><ele>601.5</ele><time>2012-07-23T12:35:24.0000000+00:00</time></trkpt><trkpt lat="64.01383972" lon="-19.02470398"><ele>601.7</ele><time>2012-07-23T12:35:29.0000000+00:00</time></trkpt><trkpt lat="64.01379395" lon="-19.02481461"><ele>602.2</ele><time>2012-07-23T12:35:34.0000000+00:00</time></trkpt><trkpt lat="64.01374817" lon="-19.02489662"><ele>602.3</ele><time>2012-07-23T12:35:39.0000000+00:00</time></trkpt><trkpt lat="64.01370239" lon="-19.02499008"><ele>602.6</ele><time>2012-07-23T12:35:44.0000000+00:00</time></trkpt><trkpt lat="64.01366425" lon="-19.02509117"><ele>603.2</ele><time>2012-07-23T12:35:49.0000000+00:00</time></trkpt><trkpt lat="64.01361847" lon="-19.02520371"><ele>603.0</ele><time>2012-07-23T12:35:54.0000000+00:00</time></trkpt><trkpt lat="64.01356506" lon="-19.02527809"><ele>603.3</ele><time>2012-07-23T12:35:59.0000000+00:00</time></trkpt><trkpt lat="64.01352692" lon="-19.02536774"><ele>603.4</ele><time>2012-07-23T12:36:04.0000000+00:00</time></trkpt><trkpt lat="64.01348114" lon="-19.02549362"><ele>603.1</ele><time>2012-07-23T12:36:09.0000000+00:00</time></trkpt><trkpt lat="64.01344299" lon="-19.02560043"><ele>603.4</ele><time>2012-07-23T12:36:14.0000000+00:00</time></trkpt><trkpt lat="64.01338959" lon="-19.02571487"><ele>603.7</ele><time>2012-07-23T12:36:19.0000000+00:00</time></trkpt><trkpt lat="64.01333618" lon="-19.02580071"><ele>604.2</ele><time>2012-07-23T12:36:24.0000000+00:00</time></trkpt><trkpt lat="64.01327515" lon="-19.02589607"><ele>603.8</ele><time>2012-07-23T12:36:29.0000000+00:00</time></trkpt><trkpt lat="64.01324463" lon="-19.02597809"><ele>604.1</ele><time>2012-07-23T12:36:34.0000000+00:00</time></trkpt><trkpt lat="64.01319122" lon="-19.02607536"><ele>604.0</ele><time>2012-07-23T12:36:39.0000000+00:00</time></trkpt><trkpt lat="64.01316071" lon="-19.02619553"><ele>603.7</ele><time>2012-07-23T12:36:44.0000000+00:00</time></trkpt><trkpt lat="64.0131073" lon="-19.02626038"><ele>604.0</ele><time>2012-07-23T12:36:49.0000000+00:00</time></trkpt><trkpt lat="64.01305389" lon="-19.02631378"><ele>604.4</ele><time>2012-07-23T12:36:54.0000000+00:00</time></trkpt><trkpt lat="64.01299286" lon="-19.02641296"><ele>604.8</ele><time>2012-07-23T12:36:59.0000000+00:00</time></trkpt><trkpt lat="64.01293945" lon="-19.02652741"><ele>604.9</ele><time>2012-07-23T12:37:04.0000000+00:00</time></trkpt><trkpt lat="64.01289368" lon="-19.02662849"><ele>605.1</ele><time>2012-07-23T12:37:09.0000000+00:00</time></trkpt><trkpt lat="64.01284027" lon="-19.0267334"><ele>604.7</ele><time>2012-07-23T12:37:14.0000000+00:00</time></trkpt><trkpt lat="64.0127945" lon="-19.02681351"><ele>604.9</ele><time>2012-07-23T12:37:19.0000000+00:00</time></trkpt><trkpt lat="64.01273346" lon="-19.02690888"><ele>604.6</ele><time>2012-07-23T12:37:24.0000000+00:00</time></trkpt><trkpt lat="64.01268005" lon="-19.02699852"><ele>604.7</ele><time>2012-07-23T12:37:29.0000000+00:00</time></trkpt><trkpt lat="64.01263428" lon="-19.02707863"><ele>604.6</ele><time>2012-07-23T12:37:34.0000000+00:00</time></trkpt><trkpt lat="64.0125885" lon="-19.02715492"><ele>604.8</ele><time>2012-07-23T12:37:39.0000000+00:00</time></trkpt><trkpt lat="64.01251984" lon="-19.02724266"><ele>605.6</ele><time>2012-07-23T12:37:44.0000000+00:00</time></trkpt><trkpt lat="64.01245117" lon="-19.02733803"><ele>605.5</ele><time>2012-07-23T12:37:49.0000000+00:00</time></trkpt><trkpt lat="64.01241303" lon="-19.02742195"><ele>606.1</ele><time>2012-07-23T12:37:54.0000000+00:00</time></trkpt><trkpt lat="64.01235199" lon="-19.02752495"><ele>604.7</ele><time>2012-07-23T12:37:59.0000000+00:00</time></trkpt><trkpt lat="64.01229858" lon="-19.02759552"><ele>605.4</ele><time>2012-07-23T12:38:04.0000000+00:00</time></trkpt><trkpt lat="64.01225281" lon="-19.02772713"><ele>605.1</ele><time>2012-07-23T12:38:09.0000000+00:00</time></trkpt><trkpt lat="64.01221466" lon="-19.02781677"><ele>605.2</ele><time>2012-07-23T12:38:14.0000000+00:00</time></trkpt><trkpt lat="64.01215363" lon="-19.02791596"><ele>604.9</ele><time>2012-07-23T12:38:19.0000000+00:00</time></trkpt><trkpt lat="64.01210785" lon="-19.02802277"><ele>604.8</ele><time>2012-07-23T12:38:24.0000000+00:00</time></trkpt><trkpt lat="64.01207733" lon="-19.02814484"><ele>604.3</ele><time>2012-07-23T12:38:29.0000000+00:00</time></trkpt><trkpt lat="64.01203919" lon="-19.02827835"><ele>603.9</ele><time>2012-07-23T12:38:34.0000000+00:00</time></trkpt><trkpt lat="64.0120163" lon="-19.02840614"><ele>604.0</ele><time>2012-07-23T12:38:39.0000000+00:00</time></trkpt><trkpt lat="64.01198578" lon="-19.02854157"><ele>603.5</ele><time>2012-07-23T12:38:44.0000000+00:00</time></trkpt><trkpt lat="64.01193237" lon="-19.02864647"><ele>603.5</ele><time>2012-07-23T12:38:49.0000000+00:00</time></trkpt><trkpt lat="64.01187897" lon="-19.02873612"><ele>603.4</ele><time>2012-07-23T12:38:54.0000000+00:00</time></trkpt><trkpt lat="64.01183319" lon="-19.0288372"><ele>603.4</ele><time>2012-07-23T12:38:59.0000000+00:00</time></trkpt><trkpt lat="64.01177979" lon="-19.02893066"><ele>603.3</ele><time>2012-07-23T12:39:04.0000000+00:00</time></trkpt><trkpt lat="64.01174164" lon="-19.02905083"><ele>603.1</ele><time>2012-07-23T12:39:09.0000000+00:00</time></trkpt><trkpt lat="64.01171112" lon="-19.02917099"><ele>602.9</ele><time>2012-07-23T12:39:14.0000000+00:00</time></trkpt><trkpt lat="64.0116806" lon="-19.02929306"><ele>602.8</ele><time>2012-07-23T12:39:19.0000000+00:00</time></trkpt><trkpt lat="64.01165772" lon="-19.02942467"><ele>602.5</ele><time>2012-07-23T12:39:24.0000000+00:00</time></trkpt><trkpt lat="64.01161957" lon="-19.02954674"><ele>602.2</ele><time>2012-07-23T12:39:29.0000000+00:00</time></trkpt><trkpt lat="64.01158142" lon="-19.02966118"><ele>601.7</ele><time>2012-07-23T12:39:34.0000000+00:00</time></trkpt><trkpt lat="64.01154327" lon="-19.02978897"><ele>601.5</ele><time>2012-07-23T12:39:39.0000000+00:00</time></trkpt><trkpt lat="64.0114975" lon="-19.02992249"><ele>601.3</ele><time>2012-07-23T12:39:44.0000000+00:00</time></trkpt><trkpt lat="64.01145172" lon="-19.03004646"><ele>601.1</ele><time>2012-07-23T12:39:49.0000000+00:00</time></trkpt><trkpt lat="64.01141357" lon="-19.03015518"><ele>600.9</ele><time>2012-07-23T12:39:54.0000000+00:00</time></trkpt><trkpt lat="64.0113678" lon="-19.0302639"><ele>600.8</ele><time>2012-07-23T12:39:59.0000000+00:00</time></trkpt><trkpt lat="64.01132965" lon="-19.03037834"><ele>600.7</ele><time>2012-07-23T12:40:04.0000000+00:00</time></trkpt><trkpt lat="64.0112915" lon="-19.03048706"><ele>600.6</ele><time>2012-07-23T12:40:09.0000000+00:00</time></trkpt><trkpt lat="64.01126099" lon="-19.03060913"><ele>600.4</ele><time>2012-07-23T12:40:14.0000000+00:00</time></trkpt><trkpt lat="64.01122284" lon="-19.03073883"><ele>600.1</ele><time>2012-07-23T12:40:19.0000000+00:00</time></trkpt><trkpt lat="64.01119995" lon="-19.03085518"><ele>599.9</ele><time>2012-07-23T12:40:24.0000000+00:00</time></trkpt><trkpt lat="64.01117706" lon="-19.03098869"><ele>599.8</ele><time>2012-07-23T12:40:29.0000000+00:00</time></trkpt><trkpt lat="64.0111618" lon="-19.03111839"><ele>599.3</ele><time>2012-07-23T12:40:34.0000000+00:00</time></trkpt><trkpt lat="64.01115418" lon="-19.03112412"><ele>599.2</ele><time>2012-07-23T12:40:39.0000000+00:00</time></trkpt><trkpt lat="64.01115418" lon="-19.03112412"><ele>599.3</ele><time>2012-07-23T12:40:44.0000000+00:00</time></trkpt><trkpt lat="64.01115418" lon="-19.03112412"><ele>599.3</ele><time>2012-07-23T12:40:49.0000000+00:00</time></trkpt><trkpt lat="64.01115418" lon="-19.03115463"><ele>598.9</ele><time>2012-07-23T12:40:54.0000000+00:00</time></trkpt><trkpt lat="64.01112366" lon="-19.03127861"><ele>598.4</ele><time>2012-07-23T12:40:59.0000000+00:00</time></trkpt><trkpt lat="64.01108551" lon="-19.0314064"><ele>597.9</ele><time>2012-07-23T12:41:04.0000000+00:00</time></trkpt><trkpt lat="64.01105499" lon="-19.03155708"><ele>597.3</ele><time>2012-07-23T12:41:09.0000000+00:00</time></trkpt><trkpt lat="64.01102448" lon="-19.03168678"><ele>597.2</ele><time>2012-07-23T12:41:14.0000000+00:00</time></trkpt><trkpt lat="64.01098633" lon="-19.03183556"><ele>596.3</ele><time>2012-07-23T12:41:19.0000000+00:00</time></trkpt><trkpt lat="64.01095581" lon="-19.0319767"><ele>595.8</ele><time>2012-07-23T12:41:24.0000000+00:00</time></trkpt><trkpt lat="64.01093292" lon="-19.03211212"><ele>595.8</ele><time>2012-07-23T12:41:29.0000000+00:00</time></trkpt><trkpt lat="64.01091003" lon="-19.03221512"><ele>595.6</ele><time>2012-07-23T12:41:34.0000000+00:00</time></trkpt><trkpt lat="64.01090241" lon="-19.0322628"><ele>595.3</ele><time>2012-07-23T12:41:39.0000000+00:00</time></trkpt><trkpt lat="64.01087189" lon="-19.03239632"><ele>594.9</ele><time>2012-07-23T12:41:44.0000000+00:00</time></trkpt><trkpt lat="64.010849" lon="-19.03253746"><ele>594.5</ele><time>2012-07-23T12:41:49.0000000+00:00</time></trkpt><trkpt lat="64.01083374" lon="-19.03268623"><ele>593.8</ele><time>2012-07-23T12:41:54.0000000+00:00</time></trkpt><trkpt lat="64.01081848" lon="-19.03284454"><ele>593.6</ele><time>2012-07-23T12:41:59.0000000+00:00</time></trkpt><trkpt lat="64.01080322" lon="-19.03298569"><ele>593.1</ele><time>2012-07-23T12:42:04.0000000+00:00</time></trkpt><trkpt lat="64.01078796" lon="-19.03315163"><ele>593.0</ele><time>2012-07-23T12:42:09.0000000+00:00</time></trkpt><trkpt lat="64.01076508" lon="-19.0333004"><ele>592.6</ele><time>2012-07-23T12:42:14.0000000+00:00</time></trkpt><trkpt lat="64.01074219" lon="-19.03346062"><ele>591.5</ele><time>2012-07-23T12:42:19.0000000+00:00</time></trkpt><trkpt lat="64.01072693" lon="-19.03361321"><ele>590.9</ele><time>2012-07-23T12:42:24.0000000+00:00</time></trkpt><trkpt lat="64.01070404" lon="-19.03375626"><ele>590.9</ele><time>2012-07-23T12:42:29.0000000+00:00</time></trkpt><trkpt lat="64.01069641" lon="-19.03390694"><ele>589.7</ele><time>2012-07-23T12:42:34.0000000+00:00</time></trkpt><trkpt lat="64.01068878" lon="-19.03405571"><ele>589.1</ele><time>2012-07-23T12:42:39.0000000+00:00</time></trkpt><trkpt lat="64.01068878" lon="-19.03422165"><ele>588.7</ele><time>2012-07-23T12:42:44.0000000+00:00</time></trkpt><trkpt lat="64.01068115" lon="-19.03437233"><ele>588.2</ele><time>2012-07-23T12:42:49.0000000+00:00</time></trkpt><trkpt lat="64.01068115" lon="-19.03451538"><ele>587.6</ele><time>2012-07-23T12:42:54.0000000+00:00</time></trkpt><trkpt lat="64.01068115" lon="-19.03467178"><ele>587.0</ele><time>2012-07-23T12:42:59.0000000+00:00</time></trkpt><trkpt lat="64.01068115" lon="-19.03481865"><ele>586.9</ele><time>2012-07-23T12:43:04.0000000+00:00</time></trkpt><trkpt lat="64.01067352" lon="-19.03496933"><ele>586.3</ele><time>2012-07-23T12:43:09.0000000+00:00</time></trkpt><trkpt lat="64.01066589" lon="-19.03512192"><ele>586.0</ele><time>2012-07-23T12:43:14.0000000+00:00</time></trkpt><trkpt lat="64.01065064" lon="-19.0352459"><ele>586.1</ele><time>2012-07-23T12:43:19.0000000+00:00</time></trkpt><trkpt lat="64.01064301" lon="-19.03525162"><ele>585.2</ele><time>2012-07-23T12:43:24.0000000+00:00</time></trkpt><trkpt lat="64.01064301" lon="-19.03524971"><ele>583.6</ele><time>2012-07-23T12:43:29.0000000+00:00</time></trkpt><trkpt lat="64.01064301" lon="-19.03526688"><ele>584.6</ele><time>2012-07-23T12:43:34.0000000+00:00</time></trkpt><trkpt lat="64.01063538" lon="-19.03535271"><ele>584.7</ele><time>2012-07-23T12:43:39.0000000+00:00</time></trkpt><trkpt lat="64.01062775" lon="-19.03550911"><ele>584.6</ele><time>2012-07-23T12:43:44.0000000+00:00</time></trkpt><trkpt lat="64.01062775" lon="-19.03564262"><ele>584.8</ele><time>2012-07-23T12:43:49.0000000+00:00</time></trkpt><trkpt lat="64.01061249" lon="-19.03576851"><ele>585.0</ele><time>2012-07-23T12:43:54.0000000+00:00</time></trkpt><trkpt lat="64.01060486" lon="-19.03591728"><ele>585.2</ele><time>2012-07-23T12:43:59.0000000+00:00</time></trkpt><trkpt lat="64.0105896" lon="-19.03606796"><ele>585.5</ele><time>2012-07-23T12:44:04.0000000+00:00</time></trkpt><trkpt lat="64.01056671" lon="-19.03621101"><ele>586.3</ele><time>2012-07-23T12:44:09.0000000+00:00</time></trkpt><trkpt lat="64.01055908" lon="-19.03631783"><ele>587.7</ele><time>2012-07-23T12:44:14.0000000+00:00</time></trkpt><trkpt lat="64.01052856" lon="-19.03641701"><ele>588.7</ele><time>2012-07-23T12:44:19.0000000+00:00</time></trkpt><trkpt lat="64.01049042" lon="-19.03651238"><ele>589.5</ele><time>2012-07-23T12:44:24.0000000+00:00</time></trkpt><trkpt lat="64.01046753" lon="-19.036623"><ele>589.1</ele><time>2012-07-23T12:44:29.0000000+00:00</time></trkpt><trkpt lat="64.01045227" lon="-19.03667831"><ele>590.1</ele><time>2012-07-23T12:44:34.0000000+00:00</time></trkpt><trkpt lat="64.01044464" lon="-19.03672218"><ele>589.2</ele><time>2012-07-23T12:44:39.0000000+00:00</time></trkpt><trkpt lat="64.01042938" lon="-19.03686142"><ele>589.3</ele><time>2012-07-23T12:44:44.0000000+00:00</time></trkpt><trkpt lat="64.01040649" lon="-19.03697014"><ele>590.2</ele><time>2012-07-23T12:44:49.0000000+00:00</time></trkpt><trkpt lat="64.01038361" lon="-19.03710175"><ele>590.1</ele><time>2012-07-23T12:44:54.0000000+00:00</time></trkpt><trkpt lat="64.01037598" lon="-19.03722763"><ele>590.3</ele><time>2012-07-23T12:44:59.0000000+00:00</time></trkpt><trkpt lat="64.01036835" lon="-19.03735924"><ele>590.9</ele><time>2012-07-23T12:45:04.0000000+00:00</time></trkpt><trkpt lat="64.01033783" lon="-19.03747749"><ele>591.8</ele><time>2012-07-23T12:45:09.0000000+00:00</time></trkpt><trkpt lat="64.01031494" lon="-19.03761101"><ele>591.8</ele><time>2012-07-23T12:45:14.0000000+00:00</time></trkpt><trkpt lat="64.01028442" lon="-19.03772736"><ele>591.6</ele><time>2012-07-23T12:45:19.0000000+00:00</time></trkpt><trkpt lat="64.01025391" lon="-19.03786278"><ele>591.4</ele><time>2012-07-23T12:45:24.0000000+00:00</time></trkpt><trkpt lat="64.01021576" lon="-19.03798676"><ele>591.7</ele><time>2012-07-23T12:45:29.0000000+00:00</time></trkpt><trkpt lat="64.01017761" lon="-19.03810692"><ele>592.7</ele><time>2012-07-23T12:45:34.0000000+00:00</time></trkpt><trkpt lat="64.01015472" lon="-19.03822517"><ele>592.2</ele><time>2012-07-23T12:45:39.0000000+00:00</time></trkpt><trkpt lat="64.01011658" lon="-19.03835487"><ele>591.9</ele><time>2012-07-23T12:45:44.0000000+00:00</time></trkpt><trkpt lat="64.01008606" lon="-19.03847504"><ele>592.2</ele><time>2012-07-23T12:45:49.0000000+00:00</time></trkpt><trkpt lat="64.01004791" lon="-19.03862"><ele>592.1</ele><time>2012-07-23T12:45:54.0000000+00:00</time></trkpt><trkpt lat="64.01000214" lon="-19.03874588"><ele>592.2</ele><time>2012-07-23T12:45:59.0000000+00:00</time></trkpt><trkpt lat="64.00998688" lon="-19.03886604"><ele>592.7</ele><time>2012-07-23T12:46:04.0000000+00:00</time></trkpt><trkpt lat="64.00995636" lon="-19.03899384"><ele>592.5</ele><time>2012-07-23T12:46:09.0000000+00:00</time></trkpt><trkpt lat="64.00991821" lon="-19.03904724"><ele>593.2</ele><time>2012-07-23T12:46:14.0000000+00:00</time></trkpt><trkpt lat="64.00986481" lon="-19.03910446"><ele>592.9</ele><time>2012-07-23T12:46:19.0000000+00:00</time></trkpt><trkpt lat="64.00980377" lon="-19.03917313"><ele>593.3</ele><time>2012-07-23T12:46:24.0000000+00:00</time></trkpt><trkpt lat="64.00976563" lon="-19.03927612"><ele>593.7</ele><time>2012-07-23T12:46:29.0000000+00:00</time></trkpt><trkpt lat="64.00973511" lon="-19.03940773"><ele>593.7</ele><time>2012-07-23T12:46:34.0000000+00:00</time></trkpt><trkpt lat="64.0096817" lon="-19.03944778"><ele>594.6</ele><time>2012-07-23T12:46:39.0000000+00:00</time></trkpt><trkpt lat="64.00963593" lon="-19.03946114"><ele>594.8</ele><time>2012-07-23T12:46:44.0000000+00:00</time></trkpt><trkpt lat="64.00956726" lon="-19.03944016"><ele>593.7</ele><time>2012-07-23T12:46:49.0000000+00:00</time></trkpt><trkpt lat="64.00951386" lon="-19.0394516"><ele>592.5</ele><time>2012-07-23T12:46:54.0000000+00:00</time></trkpt><trkpt lat="64.00944519" lon="-19.03951836"><ele>593.4</ele><time>2012-07-23T12:46:59.0000000+00:00</time></trkpt><trkpt lat="64.00937653" lon="-19.03953743"><ele>593.8</ele><time>2012-07-23T12:47:04.0000000+00:00</time></trkpt><trkpt lat="64.00932312" lon="-19.03953934"><ele>591.7</ele><time>2012-07-23T12:47:09.0000000+00:00</time></trkpt><trkpt lat="64.00925446" lon="-19.03958893"><ele>592.2</ele><time>2012-07-23T12:47:14.0000000+00:00</time></trkpt><trkpt lat="64.00918579" lon="-19.03964806"><ele>592.5</ele><time>2012-07-23T12:47:19.0000000+00:00</time></trkpt><trkpt lat="64.00914002" lon="-19.03974342"><ele>592.5</ele><time>2012-07-23T12:47:24.0000000+00:00</time></trkpt><trkpt lat="64.00907898" lon="-19.0398407"><ele>592.6</ele><time>2012-07-23T12:47:29.0000000+00:00</time></trkpt><trkpt lat="64.0090332" lon="-19.03993225"><ele>592.4</ele><time>2012-07-23T12:47:34.0000000+00:00</time></trkpt><trkpt lat="64.00897217" lon="-19.03998184"><ele>592.6</ele><time>2012-07-23T12:47:39.0000000+00:00</time></trkpt><trkpt lat="64.0089035" lon="-19.04000855"><ele>592.2</ele><time>2012-07-23T12:47:44.0000000+00:00</time></trkpt><trkpt lat="64.00884247" lon="-19.04007721"><ele>592.9</ele><time>2012-07-23T12:47:49.0000000+00:00</time></trkpt><trkpt lat="64.00878906" lon="-19.04013443"><ele>593.7</ele><time>2012-07-23T12:47:54.0000000+00:00</time></trkpt><trkpt lat="64.00872803" lon="-19.04011154"><ele>593.7</ele><time>2012-07-23T12:47:59.0000000+00:00</time></trkpt><trkpt lat="64.00866699" lon="-19.04006577"><ele>593.2</ele><time>2012-07-23T12:48:04.0000000+00:00</time></trkpt><trkpt lat="64.00862122" lon="-19.03998756"><ele>593.3</ele><time>2012-07-23T12:48:09.0000000+00:00</time></trkpt><trkpt lat="64.00858307" lon="-19.03987122"><ele>593.6</ele><time>2012-07-23T12:48:14.0000000+00:00</time></trkpt><trkpt lat="64.00854492" lon="-19.03975105"><ele>594.1</ele><time>2012-07-23T12:48:19.0000000+00:00</time></trkpt><trkpt lat="64.00852203" lon="-19.039608"><ele>594.2</ele><time>2012-07-23T12:48:24.0000000+00:00</time></trkpt><trkpt lat="64.0085144" lon="-19.03948784"><ele>594.9</ele><time>2012-07-23T12:48:29.0000000+00:00</time></trkpt><trkpt lat="64.00849915" lon="-19.03934288"><ele>594.7</ele><time>2012-07-23T12:48:34.0000000+00:00</time></trkpt><trkpt lat="64.00848389" lon="-19.03919601"><ele>594.6</ele><time>2012-07-23T12:48:39.0000000+00:00</time></trkpt><trkpt lat="64.00847626" lon="-19.03914833"><ele>594.3</ele><time>2012-07-23T12:48:44.0000000+00:00</time></trkpt><trkpt lat="64.00843811" lon="-19.03904915"><ele>594.6</ele><time>2012-07-23T12:48:49.0000000+00:00</time></trkpt><trkpt lat="64.00839233" lon="-19.03893852"><ele>594.0</ele><time>2012-07-23T12:48:54.0000000+00:00</time></trkpt><trkpt lat="64.00834656" lon="-19.03887749"><ele>593.7</ele><time>2012-07-23T12:48:59.0000000+00:00</time></trkpt><trkpt lat="64.00831604" lon="-19.03881264"><ele>593.8</ele><time>2012-07-23T12:49:04.0000000+00:00</time></trkpt><trkpt lat="64.00827026" lon="-19.03870773"><ele>593.4</ele><time>2012-07-23T12:49:09.0000000+00:00</time></trkpt><trkpt lat="64.00821686" lon="-19.0385952"><ele>593.8</ele><time>2012-07-23T12:49:14.0000000+00:00</time></trkpt><trkpt lat="64.00816345" lon="-19.03851128"><ele>594.0</ele><time>2012-07-23T12:49:19.0000000+00:00</time></trkpt><trkpt lat="64.00813294" lon="-19.03840065"><ele>593.6</ele><time>2012-07-23T12:49:24.0000000+00:00</time></trkpt><trkpt lat="64.00809479" lon="-19.03830338"><ele>593.5</ele><time>2012-07-23T12:49:29.0000000+00:00</time></trkpt><trkpt lat="64.00804138" lon="-19.03821755"><ele>594.0</ele><time>2012-07-23T12:49:34.0000000+00:00</time></trkpt><trkpt lat="64.00798035" lon="-19.03818703"><ele>593.9</ele><time>2012-07-23T12:49:39.0000000+00:00</time></trkpt><trkpt lat="64.00791931" lon="-19.03814507"><ele>594.2</ele><time>2012-07-23T12:49:44.0000000+00:00</time></trkpt><trkpt lat="64.00785828" lon="-19.03811646"><ele>593.9</ele><time>2012-07-23T12:49:49.0000000+00:00</time></trkpt><trkpt lat="64.00778961" lon="-19.03810883"><ele>594.2</ele><time>2012-07-23T12:49:54.0000000+00:00</time></trkpt><trkpt lat="64.00773621" lon="-19.03812981"><ele>593.8</ele><time>2012-07-23T12:49:59.0000000+00:00</time></trkpt><trkpt lat="64.00766754" lon="-19.03812981"><ele>594.1</ele><time>2012-07-23T12:50:04.0000000+00:00</time></trkpt><trkpt lat="64.00759888" lon="-19.03810692"><ele>592.8</ele><time>2012-07-23T12:50:09.0000000+00:00</time></trkpt><trkpt lat="64.00753784" lon="-19.0381012"><ele>592.3</ele><time>2012-07-23T12:50:14.0000000+00:00</time></trkpt><trkpt lat="64.00746918" lon="-19.03808212"><ele>592.0</ele><time>2012-07-23T12:50:19.0000000+00:00</time></trkpt><trkpt lat="64.00740051" lon="-19.03806305"><ele>592.6</ele><time>2012-07-23T12:50:24.0000000+00:00</time></trkpt><trkpt lat="64.00733948" lon="-19.03805733"><ele>592.4</ele><time>2012-07-23T12:50:29.0000000+00:00</time></trkpt><trkpt lat="64.00726318" lon="-19.03804398"><ele>593.3</ele><time>2012-07-23T12:50:34.0000000+00:00</time></trkpt><trkpt lat="64.00720215" lon="-19.03798866"><ele>593.5</ele><time>2012-07-23T12:50:39.0000000+00:00</time></trkpt><trkpt lat="64.00714874" lon="-19.03792954"><ele>593.7</ele><time>2012-07-23T12:50:44.0000000+00:00</time></trkpt><trkpt lat="64.00709534" lon="-19.03786469"><ele>593.7</ele><time>2012-07-23T12:50:49.0000000+00:00</time></trkpt><trkpt lat="64.0070343" lon="-19.03780365"><ele>593.4</ele><time>2012-07-23T12:50:54.0000000+00:00</time></trkpt><trkpt lat="64.00697327" lon="-19.03775787"><ele>593.3</ele><time>2012-07-23T12:50:59.0000000+00:00</time></trkpt><trkpt lat="64.00691223" lon="-19.03769302"><ele>593.7</ele><time>2012-07-23T12:51:04.0000000+00:00</time></trkpt><trkpt lat="64.00685883" lon="-19.03763008"><ele>594.2</ele><time>2012-07-23T12:51:09.0000000+00:00</time></trkpt><trkpt lat="64.00679779" lon="-19.03765106"><ele>594.0</ele><time>2012-07-23T12:51:14.0000000+00:00</time></trkpt><trkpt lat="64.00673676" lon="-19.03769302"><ele>594.2</ele><time>2012-07-23T12:51:19.0000000+00:00</time></trkpt><trkpt lat="64.00667572" lon="-19.03775787"><ele>594.3</ele><time>2012-07-23T12:51:24.0000000+00:00</time></trkpt><trkpt lat="64.00662231" lon="-19.03781319"><ele>593.5</ele><time>2012-07-23T12:51:29.0000000+00:00</time></trkpt><trkpt lat="64.00655365" lon="-19.03782845"><ele>593.3</ele><time>2012-07-23T12:51:34.0000000+00:00</time></trkpt><trkpt lat="64.00650787" lon="-19.03788757"><ele>593.2</ele><time>2012-07-23T12:51:39.0000000+00:00</time></trkpt><trkpt lat="64.00646973" lon="-19.03795052"><ele>593.2</ele><time>2012-07-23T12:51:44.0000000+00:00</time></trkpt><trkpt lat="64.00646973" lon="-19.03802872"><ele>592.8</ele><time>2012-07-23T12:51:49.0000000+00:00</time></trkpt><trkpt lat="64.00647736" lon="-19.03810501"><ele>592.8</ele><time>2012-07-23T12:51:54.0000000+00:00</time></trkpt><trkpt lat="64.00644684" lon="-19.03802681"><ele>593.3</ele><time>2012-07-23T12:51:59.0000000+00:00</time></trkpt><trkpt lat="64.00640106" lon="-19.03790474"><ele>594.2</ele><time>2012-07-23T12:52:04.0000000+00:00</time></trkpt><trkpt lat="64.00635529" lon="-19.03783226"><ele>595.1</ele><time>2012-07-23T12:52:09.0000000+00:00</time></trkpt><trkpt lat="64.00632477" lon="-19.03769875"><ele>594.7</ele><time>2012-07-23T12:52:14.0000000+00:00</time></trkpt><trkpt lat="64.00627899" lon="-19.03759003"><ele>594.8</ele><time>2012-07-23T12:52:19.0000000+00:00</time></trkpt><trkpt lat="64.00622559" lon="-19.03751564"><ele>595.2</ele><time>2012-07-23T12:52:24.0000000+00:00</time></trkpt><trkpt lat="64.00617218" lon="-19.03745461"><ele>595.9</ele><time>2012-07-23T12:52:29.0000000+00:00</time></trkpt><trkpt lat="64.0061264" lon="-19.03737068"><ele>595.6</ele><time>2012-07-23T12:52:34.0000000+00:00</time></trkpt><trkpt lat="64.006073" lon="-19.03730774"><ele>595.4</ele><time>2012-07-23T12:52:39.0000000+00:00</time></trkpt><trkpt lat="64.00601959" lon="-19.03724289"><ele>594.8</ele><time>2012-07-23T12:52:44.0000000+00:00</time></trkpt><trkpt lat="64.00596619" lon="-19.03720474"><ele>594.3</ele><time>2012-07-23T12:52:49.0000000+00:00</time></trkpt><trkpt lat="64.00590515" lon="-19.03718185"><ele>593.8</ele><time>2012-07-23T12:52:54.0000000+00:00</time></trkpt><trkpt lat="64.00583649" lon="-19.03718185"><ele>593.3</ele><time>2012-07-23T12:52:59.0000000+00:00</time></trkpt><trkpt lat="64.00577545" lon="-19.03717232"><ele>594.3</ele><time>2012-07-23T12:53:04.0000000+00:00</time></trkpt><trkpt lat="64.00572968" lon="-19.03712845"><ele>594.3</ele><time>2012-07-23T12:53:09.0000000+00:00</time></trkpt><trkpt lat="64.00569153" lon="-19.03702354"><ele>594.1</ele><time>2012-07-23T12:53:14.0000000+00:00</time></trkpt><trkpt lat="64.00564575" lon="-19.03693008"><ele>593.8</ele><time>2012-07-23T12:53:19.0000000+00:00</time></trkpt><trkpt lat="64.00560761" lon="-19.03680039"><ele>593.7</ele><time>2012-07-23T12:53:24.0000000+00:00</time></trkpt><trkpt lat="64.00557709" lon="-19.03667831"><ele>593.8</ele><time>2012-07-23T12:53:29.0000000+00:00</time></trkpt><trkpt lat="64.00553131" lon="-19.03657723"><ele>593.0</ele><time>2012-07-23T12:53:34.0000000+00:00</time></trkpt><trkpt lat="64.00548554" lon="-19.03648567"><ele>592.7</ele><time>2012-07-23T12:53:39.0000000+00:00</time></trkpt><trkpt lat="64.00543213" lon="-19.03642464"><ele>592.5</ele><time>2012-07-23T12:53:44.0000000+00:00</time></trkpt><trkpt lat="64.00537109" lon="-19.0363884"><ele>591.5</ele><time>2012-07-23T12:53:49.0000000+00:00</time></trkpt><trkpt lat="64.00531769" lon="-19.03635788"><ele>591.1</ele><time>2012-07-23T12:53:54.0000000+00:00</time></trkpt><trkpt lat="64.00525665" lon="-19.03633881"><ele>591.3</ele><time>2012-07-23T12:53:59.0000000+00:00</time></trkpt><trkpt lat="64.00519562" lon="-19.03632164"><ele>591.5</ele><time>2012-07-23T12:54:04.0000000+00:00</time></trkpt><trkpt lat="64.00514221" lon="-19.03629875"><ele>590.6</ele><time>2012-07-23T12:54:09.0000000+00:00</time></trkpt><trkpt lat="64.00508118" lon="-19.03627396"><ele>589.8</ele><time>2012-07-23T12:54:14.0000000+00:00</time></trkpt><trkpt lat="64.00501251" lon="-19.03623581"><ele>589.1</ele><time>2012-07-23T12:54:19.0000000+00:00</time></trkpt><trkpt lat="64.00494385" lon="-19.03625107"><ele>588.6</ele><time>2012-07-23T12:54:24.0000000+00:00</time></trkpt><trkpt lat="64.00489044" lon="-19.03625679"><ele>588.8</ele><time>2012-07-23T12:54:29.0000000+00:00</time></trkpt><trkpt lat="64.00483704" lon="-19.03623772"><ele>588.5</ele><time>2012-07-23T12:54:34.0000000+00:00</time></trkpt><trkpt lat="64.00481415" lon="-19.03624916"><ele>588.1</ele><time>2012-07-23T12:54:39.0000000+00:00</time></trkpt><trkpt lat="64.00481415" lon="-19.03625107"><ele>587.5</ele><time>2012-07-23T12:54:44.0000000+00:00</time></trkpt><trkpt lat="64.00481415" lon="-19.03625107"><ele>587.5</ele><time>2012-07-23T12:54:49.0000000+00:00</time></trkpt><trkpt lat="64.00481415" lon="-19.03625107"><ele>587.4</ele><time>2012-07-23T12:54:54.0000000+00:00</time></trkpt><trkpt lat="64.00481415" lon="-19.03625107"><ele>587.4</ele><time>2012-07-23T12:54:59.0000000+00:00</time></trkpt><trkpt lat="64.00481415" lon="-19.03625107"><ele>587.4</ele><time>2012-07-23T12:55:04.0000000+00:00</time></trkpt><trkpt lat="64.00481415" lon="-19.03625107"><ele>587.4</ele><time>2012-07-23T12:55:09.0000000+00:00</time></trkpt><trkpt lat="64.00481415" lon="-19.03625107"><ele>587.4</ele><time>2012-07-23T12:55:14.0000000+00:00</time></trkpt><trkpt lat="64.00481415" lon="-19.03625298"><ele>587.3</ele><time>2012-07-23T12:55:19.0000000+00:00</time></trkpt><trkpt lat="64.00481415" lon="-19.03625298"><ele>587.2</ele><time>2012-07-23T12:55:24.0000000+00:00</time></trkpt><trkpt lat="64.00481415" lon="-19.03625298"><ele>587.2</ele><time>2012-07-23T12:55:29.0000000+00:00</time></trkpt><trkpt lat="64.00481415" lon="-19.03625298"><ele>587.2</ele><time>2012-07-23T12:55:34.0000000+00:00</time></trkpt><trkpt lat="64.00481415" lon="-19.03625298"><ele>587.2</ele><time>2012-07-23T12:55:39.0000000+00:00</time></trkpt><trkpt lat="64.00481415" lon="-19.03625298"><ele>587.2</ele><time>2012-07-23T12:55:44.0000000+00:00</time></trkpt><trkpt lat="64.00481415" lon="-19.03625298"><ele>587.2</ele><time>2012-07-23T12:55:49.0000000+00:00</time></trkpt><trkpt lat="64.00481415" lon="-19.03625298"><ele>587.2</ele><time>2012-07-23T12:55:54.0000000+00:00</time></trkpt><trkpt lat="64.00481415" lon="-19.03625298"><ele>587.2</ele><time>2012-07-23T12:55:59.0000000+00:00</time></trkpt><trkpt lat="64.00481415" lon="-19.03625298"><ele>587.2</ele><time>2012-07-23T12:56:04.0000000+00:00</time></trkpt><trkpt lat="64.00481415" lon="-19.03625298"><ele>587.2</ele><time>2012-07-23T12:56:09.0000000+00:00</time></trkpt><trkpt lat="64.00481415" lon="-19.03625298"><ele>587.2</ele><time>2012-07-23T12:56:14.0000000+00:00</time></trkpt><trkpt lat="64.004776" lon="-19.03625298"><ele>586.8</ele><time>2012-07-23T12:56:19.0000000+00:00</time></trkpt><trkpt lat="64.00471497" lon="-19.03628922"><ele>587.0</ele><time>2012-07-23T12:56:24.0000000+00:00</time></trkpt><trkpt lat="64.00468445" lon="-19.03641129"><ele>586.3</ele><time>2012-07-23T12:56:29.0000000+00:00</time></trkpt><trkpt lat="64.00469208" lon="-19.03657913"><ele>585.9</ele><time>2012-07-23T12:56:34.0000000+00:00</time></trkpt><trkpt lat="64.00469971" lon="-19.03671455"><ele>586.0</ele><time>2012-07-23T12:56:39.0000000+00:00</time></trkpt><trkpt lat="64.00469971" lon="-19.03684616"><ele>585.8</ele><time>2012-07-23T12:56:44.0000000+00:00</time></trkpt><trkpt lat="64.00465393" lon="-19.03697586"><ele>585.7</ele><time>2012-07-23T12:56:49.0000000+00:00</time></trkpt><trkpt lat="64.00460053" lon="-19.03709221"><ele>585.7</ele><time>2012-07-23T12:56:54.0000000+00:00</time></trkpt><trkpt lat="64.00455475" lon="-19.03720665"><ele>585.2</ele><time>2012-07-23T12:56:59.0000000+00:00</time></trkpt><trkpt lat="64.00450134" lon="-19.03731155"><ele>585.0</ele><time>2012-07-23T12:57:04.0000000+00:00</time></trkpt><trkpt lat="64.0044632" lon="-19.03742218"><ele>585.1</ele><time>2012-07-23T12:57:09.0000000+00:00</time></trkpt><trkpt lat="64.00441742" lon="-19.03754234"><ele>585.1</ele><time>2012-07-23T12:57:14.0000000+00:00</time></trkpt><trkpt lat="64.00440216" lon="-19.03765869"><ele>584.8</ele><time>2012-07-23T12:57:19.0000000+00:00</time></trkpt><trkpt lat="64.00435638" lon="-19.03776932"><ele>586.6</ele><time>2012-07-23T12:57:24.0000000+00:00</time></trkpt><trkpt lat="64.00429535" lon="-19.03787422"><ele>586.6</ele><time>2012-07-23T12:57:29.0000000+00:00</time></trkpt><trkpt lat="64.00424194" lon="-19.03795433"><ele>586.9</ele><time>2012-07-23T12:57:34.0000000+00:00</time></trkpt><trkpt lat="64.00418854" lon="-19.03804016"><ele>587.4</ele><time>2012-07-23T12:57:39.0000000+00:00</time></trkpt><trkpt lat="64.0041275" lon="-19.03813362"><ele>587.3</ele><time>2012-07-23T12:57:44.0000000+00:00</time></trkpt><trkpt lat="64.00406647" lon="-19.0382309"><ele>587.6</ele><time>2012-07-23T12:57:49.0000000+00:00</time></trkpt><trkpt lat="64.00401306" lon="-19.03831863"><ele>587.2</ele><time>2012-07-23T12:57:54.0000000+00:00</time></trkpt><trkpt lat="64.00395203" lon="-19.03841019"><ele>588.1</ele><time>2012-07-23T12:57:59.0000000+00:00</time></trkpt><trkpt lat="64.00389862" lon="-19.03849602"><ele>588.1</ele><time>2012-07-23T12:58:04.0000000+00:00</time></trkpt><trkpt lat="64.00384522" lon="-19.03858948"><ele>588.4</ele><time>2012-07-23T12:58:09.0000000+00:00</time></trkpt><trkpt lat="64.00379181" lon="-19.03867912"><ele>588.8</ele><time>2012-07-23T12:58:14.0000000+00:00</time></trkpt><trkpt lat="64.0037384" lon="-19.03878212"><ele>588.5</ele><time>2012-07-23T12:58:19.0000000+00:00</time></trkpt><trkpt lat="64.003685" lon="-19.03887367"><ele>589.1</ele><time>2012-07-23T12:58:24.0000000+00:00</time></trkpt><trkpt lat="64.00363922" lon="-19.0389843"><ele>589.1</ele><time>2012-07-23T12:58:29.0000000+00:00</time></trkpt><trkpt lat="64.00359345" lon="-19.03910446"><ele>588.8</ele><time>2012-07-23T12:58:34.0000000+00:00</time></trkpt><trkpt lat="64.00354767" lon="-19.03922272"><ele>588.7</ele><time>2012-07-23T12:58:39.0000000+00:00</time></trkpt><trkpt lat="64.00350189" lon="-19.03933716"><ele>588.5</ele><time>2012-07-23T12:58:44.0000000+00:00</time></trkpt><trkpt lat="64.00345612" lon="-19.03945923"><ele>588.2</ele><time>2012-07-23T12:58:49.0000000+00:00</time></trkpt><trkpt lat="64.00339508" lon="-19.03958702"><ele>587.2</ele><time>2012-07-23T12:58:54.0000000+00:00</time></trkpt><trkpt lat="64.00335693" lon="-19.03970718"><ele>587.8</ele><time>2012-07-23T12:58:59.0000000+00:00</time></trkpt><trkpt lat="64.00332642" lon="-19.039814"><ele>588.1</ele><time>2012-07-23T12:59:04.0000000+00:00</time></trkpt><trkpt lat="64.0032959" lon="-19.03992844"><ele>588.4</ele><time>2012-07-23T12:59:09.0000000+00:00</time></trkpt><trkpt lat="64.00326538" lon="-19.04005432"><ele>587.5</ele><time>2012-07-23T12:59:14.0000000+00:00</time></trkpt><trkpt lat="64.00322723" lon="-19.04018593"><ele>586.7</ele><time>2012-07-23T12:59:19.0000000+00:00</time></trkpt><trkpt lat="64.00318146" lon="-19.04030228"><ele>586.6</ele><time>2012-07-23T12:59:24.0000000+00:00</time></trkpt><trkpt lat="64.00313568" lon="-19.04042625"><ele>586.4</ele><time>2012-07-23T12:59:29.0000000+00:00</time></trkpt><trkpt lat="64.00311279" lon="-19.04054642"><ele>585.2</ele><time>2012-07-23T12:59:34.0000000+00:00</time></trkpt><trkpt lat="64.00305939" lon="-19.04065323"><ele>584.3</ele><time>2012-07-23T12:59:39.0000000+00:00</time></trkpt><trkpt lat="64.00302887" lon="-19.04076958"><ele>584.2</ele><time>2012-07-23T12:59:44.0000000+00:00</time></trkpt><trkpt lat="64.00298309" lon="-19.04090691"><ele>584.1</ele><time>2012-07-23T12:59:49.0000000+00:00</time></trkpt><trkpt lat="64.00294495" lon="-19.04102516"><ele>583.3</ele><time>2012-07-23T12:59:54.0000000+00:00</time></trkpt><trkpt lat="64.0029068" lon="-19.04115868"><ele>582.3</ele><time>2012-07-23T12:59:59.0000000+00:00</time></trkpt><trkpt lat="64.00283814" lon="-19.04127884"><ele>582.1</ele><time>2012-07-23T13:00:04.0000000+00:00</time></trkpt><trkpt lat="64.00278473" lon="-19.04137993"><ele>582.5</ele><time>2012-07-23T13:00:09.0000000+00:00</time></trkpt><trkpt lat="64.00273895" lon="-19.04149246"><ele>581.9</ele><time>2012-07-23T13:00:14.0000000+00:00</time></trkpt><trkpt lat="64.00269318" lon="-19.04158402"><ele>581.3</ele><time>2012-07-23T13:00:19.0000000+00:00</time></trkpt><trkpt lat="64.0026474" lon="-19.04171753"><ele>580.7</ele><time>2012-07-23T13:00:24.0000000+00:00</time></trkpt><trkpt lat="64.00260925" lon="-19.04183769"><ele>580.8</ele><time>2012-07-23T13:00:29.0000000+00:00</time></trkpt><trkpt lat="64.00257111" lon="-19.04194641"><ele>580.7</ele><time>2012-07-23T13:00:34.0000000+00:00</time></trkpt><trkpt lat="64.00253296" lon="-19.04207039"><ele>579.8</ele><time>2012-07-23T13:00:39.0000000+00:00</time></trkpt><trkpt lat="64.00249481" lon="-19.04217529"><ele>578.5</ele><time>2012-07-23T13:00:44.0000000+00:00</time></trkpt><trkpt lat="64.00244141" lon="-19.0422802"><ele>578.9</ele><time>2012-07-23T13:00:49.0000000+00:00</time></trkpt><trkpt lat="64.00240326" lon="-19.04240227"><ele>578.2</ele><time>2012-07-23T13:00:54.0000000+00:00</time></trkpt><trkpt lat="64.00236511" lon="-19.04251862"><ele>579.1</ele><time>2012-07-23T13:00:59.0000000+00:00</time></trkpt><trkpt lat="64.00232697" lon="-19.04264069"><ele>579.6</ele><time>2012-07-23T13:01:04.0000000+00:00</time></trkpt><trkpt lat="64.00229645" lon="-19.04275513"><ele>581.2</ele><time>2012-07-23T13:01:09.0000000+00:00</time></trkpt><trkpt lat="64.00227356" lon="-19.04286194"><ele>581.2</ele><time>2012-07-23T13:01:14.0000000+00:00</time></trkpt><trkpt lat="64.00227356" lon="-19.04287338"><ele>580.4</ele><time>2012-07-23T13:01:19.0000000+00:00</time></trkpt><trkpt lat="64.00224304" lon="-19.0429554"><ele>580.4</ele><time>2012-07-23T13:01:24.0000000+00:00</time></trkpt><trkpt lat="64.00222778" lon="-19.04310417"><ele>580.4</ele><time>2012-07-23T13:01:29.0000000+00:00</time></trkpt><trkpt lat="64.00222015" lon="-19.0432415"><ele>581.0</ele><time>2012-07-23T13:01:34.0000000+00:00</time></trkpt><trkpt lat="64.0022049" lon="-19.04338455"><ele>580.5</ele><time>2012-07-23T13:01:39.0000000+00:00</time></trkpt><trkpt lat="64.00219727" lon="-19.04352379"><ele>580.3</ele><time>2012-07-23T13:01:44.0000000+00:00</time></trkpt><trkpt lat="64.00217438" lon="-19.0436554"><ele>580.3</ele><time>2012-07-23T13:01:49.0000000+00:00</time></trkpt><trkpt lat="64.00215912" lon="-19.04377747"><ele>580.0</ele><time>2012-07-23T13:01:54.0000000+00:00</time></trkpt><trkpt lat="64.00215149" lon="-19.04384613"><ele>579.7</ele><time>2012-07-23T13:01:59.0000000+00:00</time></trkpt><trkpt lat="64.00214386" lon="-19.04388237"><ele>581.8</ele><time>2012-07-23T13:02:04.0000000+00:00</time></trkpt><trkpt lat="64.0021286" lon="-19.04402351"><ele>582.3</ele><time>2012-07-23T13:02:09.0000000+00:00</time></trkpt><trkpt lat="64.00210571" lon="-19.04416657"><ele>582.8</ele><time>2012-07-23T13:02:14.0000000+00:00</time></trkpt><trkpt lat="64.00209045" lon="-19.04429627"><ele>583.6</ele><time>2012-07-23T13:02:19.0000000+00:00</time></trkpt><trkpt lat="64.0020752" lon="-19.04442406"><ele>587.1</ele><time>2012-07-23T13:02:24.0000000+00:00</time></trkpt><trkpt lat="64.00204468" lon="-19.04455566"><ele>586.2</ele><time>2012-07-23T13:02:29.0000000+00:00</time></trkpt><trkpt lat="64.00203705" lon="-19.04462814"><ele>587.0</ele><time>2012-07-23T13:02:34.0000000+00:00</time></trkpt><trkpt lat="64.00202942" lon="-19.04469872"><ele>588.6</ele><time>2012-07-23T13:02:39.0000000+00:00</time></trkpt><trkpt lat="64.00200653" lon="-19.04481125"><ele>589.0</ele><time>2012-07-23T13:02:44.0000000+00:00</time></trkpt><trkpt lat="64.00199127" lon="-19.04493332"><ele>589.5</ele><time>2012-07-23T13:02:49.0000000+00:00</time></trkpt><trkpt lat="64.00196838" lon="-19.04507828"><ele>589.4</ele><time>2012-07-23T13:02:54.0000000+00:00</time></trkpt><trkpt lat="64.00193787" lon="-19.04521751"><ele>588.9</ele><time>2012-07-23T13:02:59.0000000+00:00</time></trkpt><trkpt lat="64.00190735" lon="-19.04536438"><ele>587.8</ele><time>2012-07-23T13:03:04.0000000+00:00</time></trkpt><trkpt lat="64.00188446" lon="-19.04550362"><ele>587.4</ele><time>2012-07-23T13:03:09.0000000+00:00</time></trkpt><trkpt lat="64.00186157" lon="-19.04564476"><ele>587.8</ele><time>2012-07-23T13:03:14.0000000+00:00</time></trkpt><trkpt lat="64.00184631" lon="-19.04579926"><ele>587.4</ele><time>2012-07-23T13:03:19.0000000+00:00</time></trkpt><trkpt lat="64.00182343" lon="-19.04593849"><ele>587.6</ele><time>2012-07-23T13:03:24.0000000+00:00</time></trkpt><trkpt lat="64.00180054" lon="-19.04607964"><ele>589.0</ele><time>2012-07-23T13:03:29.0000000+00:00</time></trkpt><trkpt lat="64.00177765" lon="-19.04622841"><ele>589.6</ele><time>2012-07-23T13:03:34.0000000+00:00</time></trkpt><trkpt lat="64.00176239" lon="-19.04638863"><ele>591.0</ele><time>2012-07-23T13:03:39.0000000+00:00</time></trkpt><trkpt lat="64.0017395" lon="-19.04651833"><ele>591.3</ele><time>2012-07-23T13:03:44.0000000+00:00</time></trkpt><trkpt lat="64.00171661" lon="-19.04665375"><ele>590.8</ele><time>2012-07-23T13:03:49.0000000+00:00</time></trkpt><trkpt lat="64.00169373" lon="-19.04678154"><ele>590.5</ele><time>2012-07-23T13:03:54.0000000+00:00</time></trkpt><trkpt lat="64.00167084" lon="-19.04691505"><ele>590.7</ele><time>2012-07-23T13:03:59.0000000+00:00</time></trkpt><trkpt lat="64.00164795" lon="-19.04705238"><ele>590.2</ele><time>2012-07-23T13:04:04.0000000+00:00</time></trkpt><trkpt lat="64.00163269" lon="-19.04719544"><ele>589.2</ele><time>2012-07-23T13:04:09.0000000+00:00</time></trkpt><trkpt lat="64.00161743" lon="-19.04733467"><ele>588.6</ele><time>2012-07-23T13:04:14.0000000+00:00</time></trkpt><trkpt lat="64.0016098" lon="-19.04747772"><ele>588.3</ele><time>2012-07-23T13:04:19.0000000+00:00</time></trkpt><trkpt lat="64.00158691" lon="-19.04761887"><ele>588.7</ele><time>2012-07-23T13:04:24.0000000+00:00</time></trkpt><trkpt lat="64.00157166" lon="-19.04774857"><ele>589.4</ele><time>2012-07-23T13:04:29.0000000+00:00</time></trkpt><trkpt lat="64.0015564" lon="-19.04791832"><ele>588.8</ele><time>2012-07-23T13:04:34.0000000+00:00</time></trkpt><trkpt lat="64.00152588" lon="-19.04805946"><ele>587.4</ele><time>2012-07-23T13:04:39.0000000+00:00</time></trkpt><trkpt lat="64.00149536" lon="-19.04817963"><ele>586.2</ele><time>2012-07-23T13:04:44.0000000+00:00</time></trkpt><trkpt lat="64.00147247" lon="-19.04830551"><ele>585.8</ele><time>2012-07-23T13:04:49.0000000+00:00</time></trkpt><trkpt lat="64.00144196" lon="-19.04845619"><ele>587.0</ele><time>2012-07-23T13:04:54.0000000+00:00</time></trkpt><trkpt lat="64.00139618" lon="-19.04855347"><ele>589.0</ele><time>2012-07-23T13:04:59.0000000+00:00</time></trkpt><trkpt lat="64.00135803" lon="-19.04865265"><ele>589.6</ele><time>2012-07-23T13:05:04.0000000+00:00</time></trkpt><trkpt lat="64.00133514" lon="-19.04878235"><ele>589.8</ele><time>2012-07-23T13:05:09.0000000+00:00</time></trkpt><trkpt lat="64.00130463" lon="-19.04891777"><ele>590.6</ele><time>2012-07-23T13:05:14.0000000+00:00</time></trkpt><trkpt lat="64.00126648" lon="-19.04904175"><ele>591.0</ele><time>2012-07-23T13:05:19.0000000+00:00</time></trkpt><trkpt lat="64.00125122" lon="-19.04917908"><ele>591.0</ele><time>2012-07-23T13:05:24.0000000+00:00</time></trkpt><trkpt lat="64.00121307" lon="-19.04930496"><ele>591.4</ele><time>2012-07-23T13:05:29.0000000+00:00</time></trkpt><trkpt lat="64.00117493" lon="-19.04941368"><ele>591.9</ele><time>2012-07-23T13:05:34.0000000+00:00</time></trkpt><trkpt lat="64.00112152" lon="-19.04950905"><ele>592.5</ele><time>2012-07-23T13:05:39.0000000+00:00</time></trkpt><trkpt lat="64.00106812" lon="-19.04961205"><ele>592.9</ele><time>2012-07-23T13:05:44.0000000+00:00</time></trkpt><trkpt lat="64.00100708" lon="-19.04970551"><ele>593.4</ele><time>2012-07-23T13:05:49.0000000+00:00</time></trkpt><trkpt lat="64.0009613" lon="-19.04976463"><ele>593.8</ele><time>2012-07-23T13:05:54.0000000+00:00</time></trkpt><trkpt lat="64.00093842" lon="-19.04979515"><ele>594.0</ele><time>2012-07-23T13:05:59.0000000+00:00</time></trkpt><trkpt lat="64.00088501" lon="-19.04986191"><ele>595.1</ele><time>2012-07-23T13:06:04.0000000+00:00</time></trkpt><trkpt lat="64.0008316" lon="-19.0499382"><ele>596.2</ele><time>2012-07-23T13:06:09.0000000+00:00</time></trkpt><trkpt lat="64.0007782" lon="-19.05003357"><ele>596.8</ele><time>2012-07-23T13:06:14.0000000+00:00</time></trkpt><trkpt lat="64.00071716" lon="-19.05012131"><ele>598.0</ele><time>2012-07-23T13:06:19.0000000+00:00</time></trkpt><trkpt lat="64.00066376" lon="-19.05021095"><ele>599.3</ele><time>2012-07-23T13:06:24.0000000+00:00</time></trkpt><trkpt lat="64.00061035" lon="-19.05029488"><ele>599.8</ele><time>2012-07-23T13:06:29.0000000+00:00</time></trkpt><trkpt lat="64.00054932" lon="-19.050354"><ele>601.1</ele><time>2012-07-23T13:06:34.0000000+00:00</time></trkpt><trkpt lat="64.00048828" lon="-19.05042076"><ele>602.3</ele><time>2012-07-23T13:06:39.0000000+00:00</time></trkpt><trkpt lat="64.00042725" lon="-19.05047226"><ele>602.6</ele><time>2012-07-23T13:06:44.0000000+00:00</time></trkpt><trkpt lat="64.00036621" lon="-19.05051804"><ele>601.5</ele><time>2012-07-23T13:06:49.0000000+00:00</time></trkpt><trkpt lat="64.00029755" lon="-19.05056191"><ele>601.2</ele><time>2012-07-23T13:06:54.0000000+00:00</time></trkpt><trkpt lat="64.00023651" lon="-19.05061531"><ele>601.5</ele><time>2012-07-23T13:06:59.0000000+00:00</time></trkpt><trkpt lat="64.00017548" lon="-19.05066681"><ele>601.0</ele><time>2012-07-23T13:07:04.0000000+00:00</time></trkpt><trkpt lat="64.00010681" lon="-19.05071068"><ele>599.9</ele><time>2012-07-23T13:07:09.0000000+00:00</time></trkpt><trkpt lat="64.00004578" lon="-19.05076218"><ele>600.4</ele><time>2012-07-23T13:07:14.0000000+00:00</time></trkpt><trkpt lat="63.99997711" lon="-19.05080223"><ele>600.7</ele><time>2012-07-23T13:07:19.0000000+00:00</time></trkpt><trkpt lat="63.99991989" lon="-19.05085754"><ele>600.9</ele><time>2012-07-23T13:07:24.0000000+00:00</time></trkpt><trkpt lat="63.99985504" lon="-19.05089951"><ele>600.3</ele><time>2012-07-23T13:07:29.0000000+00:00</time></trkpt><trkpt lat="63.99979019" lon="-19.050951"><ele>599.7</ele><time>2012-07-23T13:07:34.0000000+00:00</time></trkpt><trkpt lat="63.99972916" lon="-19.05100441"><ele>600.6</ele><time>2012-07-23T13:07:39.0000000+00:00</time></trkpt><trkpt lat="63.99966049" lon="-19.05104828"><ele>600.8</ele><time>2012-07-23T13:07:44.0000000+00:00</time></trkpt><trkpt lat="63.99959183" lon="-19.05109596"><ele>599.7</ele><time>2012-07-23T13:07:49.0000000+00:00</time></trkpt><trkpt lat="63.99953461" lon="-19.05112457"><ele>600.0</ele><time>2012-07-23T13:07:54.0000000+00:00</time></trkpt><trkpt lat="63.99946976" lon="-19.05112648"><ele>598.7</ele><time>2012-07-23T13:07:59.0000000+00:00</time></trkpt><trkpt lat="63.99940491" lon="-19.05115509"><ele>598.4</ele><time>2012-07-23T13:08:04.0000000+00:00</time></trkpt><trkpt lat="63.99933624" lon="-19.05118179"><ele>597.9</ele><time>2012-07-23T13:08:09.0000000+00:00</time></trkpt><trkpt lat="63.99927139" lon="-19.0511837"><ele>597.2</ele><time>2012-07-23T13:08:14.0000000+00:00</time></trkpt><trkpt lat="63.99921036" lon="-19.05117226"><ele>597.0</ele><time>2012-07-23T13:08:19.0000000+00:00</time></trkpt><trkpt lat="63.99914551" lon="-19.05115509"><ele>596.7</ele><time>2012-07-23T13:08:24.0000000+00:00</time></trkpt><trkpt lat="63.99908447" lon="-19.05111122"><ele>597.5</ele><time>2012-07-23T13:08:29.0000000+00:00</time></trkpt><trkpt lat="63.99902344" lon="-19.0510807"><ele>597.4</ele><time>2012-07-23T13:08:34.0000000+00:00</time></trkpt><trkpt lat="63.99897385" lon="-19.05101967"><ele>596.7</ele><time>2012-07-23T13:08:39.0000000+00:00</time></trkpt><trkpt lat="63.9989624" lon="-19.05101395"><ele>595.9</ele><time>2012-07-23T13:08:44.0000000+00:00</time></trkpt><trkpt lat="63.998909" lon="-19.05097961"><ele>595.2</ele><time>2012-07-23T13:08:49.0000000+00:00</time></trkpt><trkpt lat="63.99884796" lon="-19.05094147"><ele>594.0</ele><time>2012-07-23T13:08:54.0000000+00:00</time></trkpt><trkpt lat="63.99878693" lon="-19.05089569"><ele>593.2</ele><time>2012-07-23T13:08:59.0000000+00:00</time></trkpt><trkpt lat="63.99872208" lon="-19.05088425"><ele>592.5</ele><time>2012-07-23T13:09:04.0000000+00:00</time></trkpt><trkpt lat="63.99865341" lon="-19.05090141"><ele>591.8</ele><time>2012-07-23T13:09:09.0000000+00:00</time></trkpt><trkpt lat="63.99858475" lon="-19.05095863"><ele>591.8</ele><time>2012-07-23T13:09:14.0000000+00:00</time></trkpt><trkpt lat="63.99855423" lon="-19.05104446"><ele>592.7</ele><time>2012-07-23T13:09:19.0000000+00:00</time></trkpt><trkpt lat="63.99850464" lon="-19.05101776"><ele>593.9</ele><time>2012-07-23T13:09:24.0000000+00:00</time></trkpt><trkpt lat="63.9984436" lon="-19.05106545"><ele>594.0</ele><time>2012-07-23T13:09:29.0000000+00:00</time></trkpt><trkpt lat="63.99837875" lon="-19.05111694"><ele>593.9</ele><time>2012-07-23T13:09:34.0000000+00:00</time></trkpt><trkpt lat="63.9983139" lon="-19.05117416"><ele>592.8</ele><time>2012-07-23T13:09:39.0000000+00:00</time></trkpt><trkpt lat="63.99825287" lon="-19.0512352"><ele>592.5</ele><time>2012-07-23T13:09:44.0000000+00:00</time></trkpt><trkpt lat="63.9981842" lon="-19.05130386"><ele>592.9</ele><time>2012-07-23T13:09:49.0000000+00:00</time></trkpt><trkpt lat="63.99812317" lon="-19.05138016"><ele>593.0</ele><time>2012-07-23T13:09:54.0000000+00:00</time></trkpt><trkpt lat="63.99806595" lon="-19.05146599"><ele>593.1</ele><time>2012-07-23T13:09:59.0000000+00:00</time></trkpt><trkpt lat="63.99800873" lon="-19.05152702"><ele>593.0</ele><time>2012-07-23T13:10:04.0000000+00:00</time></trkpt><trkpt lat="63.99800873" lon="-19.051548"><ele>593.2</ele><time>2012-07-23T13:10:09.0000000+00:00</time></trkpt><trkpt lat="63.99796295" lon="-19.05164146"><ele>592.5</ele><time>2012-07-23T13:10:14.0000000+00:00</time></trkpt><trkpt lat="63.99791336" lon="-19.05178261"><ele>591.6</ele><time>2012-07-23T13:10:19.0000000+00:00</time></trkpt><trkpt lat="63.99786377" lon="-19.05189896"><ele>590.7</ele><time>2012-07-23T13:10:24.0000000+00:00</time></trkpt><trkpt lat="63.99783325" lon="-19.05203629"><ele>590.2</ele><time>2012-07-23T13:10:29.0000000+00:00</time></trkpt><trkpt lat="63.99779892" lon="-19.05216026"><ele>590.0</ele><time>2012-07-23T13:10:34.0000000+00:00</time></trkpt><trkpt lat="63.99777603" lon="-19.0522995"><ele>591.2</ele><time>2012-07-23T13:10:39.0000000+00:00</time></trkpt><trkpt lat="63.9977417" lon="-19.0524292"><ele>589.8</ele><time>2012-07-23T13:10:44.0000000+00:00</time></trkpt><trkpt lat="63.99770737" lon="-19.0525589"><ele>588.0</ele><time>2012-07-23T13:10:49.0000000+00:00</time></trkpt><trkpt lat="63.99767685" lon="-19.05268478"><ele>590.2</ele><time>2012-07-23T13:10:54.0000000+00:00</time></trkpt><trkpt lat="63.99764252" lon="-19.05278778"><ele>590.7</ele><time>2012-07-23T13:10:59.0000000+00:00</time></trkpt><trkpt lat="63.99761963" lon="-19.05291939"><ele>588.9</ele><time>2012-07-23T13:11:04.0000000+00:00</time></trkpt><trkpt lat="63.99759674" lon="-19.05303955"><ele>587.5</ele><time>2012-07-23T13:11:09.0000000+00:00</time></trkpt><trkpt lat="63.99756622" lon="-19.05316544"><ele>586.4</ele><time>2012-07-23T13:11:14.0000000+00:00</time></trkpt><trkpt lat="63.99753189" lon="-19.05329323"><ele>585.7</ele><time>2012-07-23T13:11:19.0000000+00:00</time></trkpt><trkpt lat="63.99748993" lon="-19.05340958"><ele>586.3</ele><time>2012-07-23T13:11:24.0000000+00:00</time></trkpt><trkpt lat="63.9974556" lon="-19.05354309"><ele>586.3</ele><time>2012-07-23T13:11:29.0000000+00:00</time></trkpt><trkpt lat="63.99742508" lon="-19.05368996"><ele>586.6</ele><time>2012-07-23T13:11:34.0000000+00:00</time></trkpt><trkpt lat="63.99739838" lon="-19.05382538"><ele>586.1</ele><time>2012-07-23T13:11:39.0000000+00:00</time></trkpt><trkpt lat="63.99736786" lon="-19.05397415"><ele>585.8</ele><time>2012-07-23T13:11:44.0000000+00:00</time></trkpt><trkpt lat="63.99732971" lon="-19.05409813"><ele>585.9</ele><time>2012-07-23T13:11:49.0000000+00:00</time></trkpt><trkpt lat="63.99730301" lon="-19.05422401"><ele>586.1</ele><time>2012-07-23T13:11:54.0000000+00:00</time></trkpt><trkpt lat="63.99728012" lon="-19.05435753"><ele>584.3</ele><time>2012-07-23T13:11:59.0000000+00:00</time></trkpt><trkpt lat="63.9972496" lon="-19.05449295"><ele>582.9</ele><time>2012-07-23T13:12:04.0000000+00:00</time></trkpt><trkpt lat="63.99722672" lon="-19.05462837"><ele>582.5</ele><time>2012-07-23T13:12:09.0000000+00:00</time></trkpt><trkpt lat="63.99719238" lon="-19.0547657"><ele>580.7</ele><time>2012-07-23T13:12:14.0000000+00:00</time></trkpt><trkpt lat="63.99715424" lon="-19.0549221"><ele>580.5</ele><time>2012-07-23T13:12:19.0000000+00:00</time></trkpt><trkpt lat="63.99712372" lon="-19.0550518"><ele>580.3</ele><time>2012-07-23T13:12:24.0000000+00:00</time></trkpt><trkpt lat="63.99709702" lon="-19.05519295"><ele>578.8</ele><time>2012-07-23T13:12:29.0000000+00:00</time></trkpt><trkpt lat="63.99707794" lon="-19.05532455"><ele>578.5</ele><time>2012-07-23T13:12:34.0000000+00:00</time></trkpt><trkpt lat="63.99704742" lon="-19.05546379"><ele>578.8</ele><time>2012-07-23T13:12:39.0000000+00:00</time></trkpt><trkpt lat="63.99702454" lon="-19.05559921"><ele>578.9</ele><time>2012-07-23T13:12:44.0000000+00:00</time></trkpt><trkpt lat="63.99699402" lon="-19.0557251"><ele>580.4</ele><time>2012-07-23T13:12:49.0000000+00:00</time></trkpt><trkpt lat="63.99695587" lon="-19.05584145"><ele>580.9</ele><time>2012-07-23T13:12:54.0000000+00:00</time></trkpt><trkpt lat="63.99692154" lon="-19.05599022"><ele>582.0</ele><time>2012-07-23T13:12:59.0000000+00:00</time></trkpt><trkpt lat="63.99686432" lon="-19.05609512"><ele>582.6</ele><time>2012-07-23T13:13:04.0000000+00:00</time></trkpt><trkpt lat="63.99681473" lon="-19.05618095"><ele>582.8</ele><time>2012-07-23T13:13:09.0000000+00:00</time></trkpt><trkpt lat="63.99676895" lon="-19.05630875"><ele>581.6</ele><time>2012-07-23T13:13:14.0000000+00:00</time></trkpt><trkpt lat="63.99672318" lon="-19.05643654"><ele>581.0</ele><time>2012-07-23T13:13:19.0000000+00:00</time></trkpt><trkpt lat="63.9966774" lon="-19.05660248"><ele>581.4</ele><time>2012-07-23T13:13:24.0000000+00:00</time></trkpt><trkpt lat="63.99663162" lon="-19.05673599"><ele>580.9</ele><time>2012-07-23T13:13:29.0000000+00:00</time></trkpt><trkpt lat="63.99658203" lon="-19.05685425"><ele>579.6</ele><time>2012-07-23T13:13:34.0000000+00:00</time></trkpt><trkpt lat="63.99653626" lon="-19.05695915"><ele>577.5</ele><time>2012-07-23T13:13:39.0000000+00:00</time></trkpt><trkpt lat="63.99649048" lon="-19.05711556"><ele>574.9</ele><time>2012-07-23T13:13:44.0000000+00:00</time></trkpt><trkpt lat="63.99645233" lon="-19.05724526"><ele>573.5</ele><time>2012-07-23T13:13:49.0000000+00:00</time></trkpt><trkpt lat="63.99640656" lon="-19.05736733"><ele>573.1</ele><time>2012-07-23T13:13:54.0000000+00:00</time></trkpt><trkpt lat="63.99637222" lon="-19.05748367"><ele>574.1</ele><time>2012-07-23T13:13:59.0000000+00:00</time></trkpt><trkpt lat="63.99633789" lon="-19.05757713"><ele>575.4</ele><time>2012-07-23T13:14:04.0000000+00:00</time></trkpt><trkpt lat="63.9962883" lon="-19.05768776"><ele>574.0</ele><time>2012-07-23T13:14:09.0000000+00:00</time></trkpt><trkpt lat="63.99625015" lon="-19.05776978"><ele>575.0</ele><time>2012-07-23T13:14:14.0000000+00:00</time></trkpt><trkpt lat="63.99622345" lon="-19.05786705"><ele>576.5</ele><time>2012-07-23T13:14:19.0000000+00:00</time></trkpt><trkpt lat="63.99618149" lon="-19.05797958"><ele>577.8</ele><time>2012-07-23T13:14:24.0000000+00:00</time></trkpt><trkpt lat="63.99613953" lon="-19.0580864"><ele>577.9</ele><time>2012-07-23T13:14:29.0000000+00:00</time></trkpt><trkpt lat="63.99610138" lon="-19.05820656"><ele>579.0</ele><time>2012-07-23T13:14:34.0000000+00:00</time></trkpt><trkpt lat="63.9960556" lon="-19.05830956"><ele>580.8</ele><time>2012-07-23T13:14:39.0000000+00:00</time></trkpt><trkpt lat="63.99601746" lon="-19.05842018"><ele>579.7</ele><time>2012-07-23T13:14:44.0000000+00:00</time></trkpt><trkpt lat="63.99597168" lon="-19.05852127"><ele>580.8</ele><time>2012-07-23T13:14:49.0000000+00:00</time></trkpt><trkpt lat="63.99591827" lon="-19.05862999"><ele>581.0</ele><time>2012-07-23T13:14:54.0000000+00:00</time></trkpt><trkpt lat="63.99586105" lon="-19.05872917"><ele>581.5</ele><time>2012-07-23T13:14:59.0000000+00:00</time></trkpt><trkpt lat="63.99581146" lon="-19.05882454"><ele>581.0</ele><time>2012-07-23T13:15:04.0000000+00:00</time></trkpt><trkpt lat="63.9957695" lon="-19.05893517"><ele>580.3</ele><time>2012-07-23T13:15:09.0000000+00:00</time></trkpt><trkpt lat="63.99571991" lon="-19.05903435"><ele>578.8</ele><time>2012-07-23T13:15:14.0000000+00:00</time></trkpt><trkpt lat="63.99567413" lon="-19.05916596"><ele>579.4</ele><time>2012-07-23T13:15:19.0000000+00:00</time></trkpt><trkpt lat="63.99562836" lon="-19.05923653"><ele>578.6</ele><time>2012-07-23T13:15:24.0000000+00:00</time></trkpt><trkpt lat="63.99556732" lon="-19.05933762"><ele>579.4</ele><time>2012-07-23T13:15:29.0000000+00:00</time></trkpt><trkpt lat="63.99550629" lon="-19.05941582"><ele>580.3</ele><time>2012-07-23T13:15:34.0000000+00:00</time></trkpt><trkpt lat="63.99544144" lon="-19.05949783"><ele>580.8</ele><time>2012-07-23T13:15:39.0000000+00:00</time></trkpt><trkpt lat="63.99538422" lon="-19.05955505"><ele>580.9</ele><time>2012-07-23T13:15:44.0000000+00:00</time></trkpt><trkpt lat="63.99533081" lon="-19.05962372"><ele>580.3</ele><time>2012-07-23T13:15:49.0000000+00:00</time></trkpt><trkpt lat="63.99527359" lon="-19.05965614"><ele>581.1</ele><time>2012-07-23T13:15:54.0000000+00:00</time></trkpt><trkpt lat="63.99520874" lon="-19.05968857"><ele>582.7</ele><time>2012-07-23T13:15:59.0000000+00:00</time></trkpt><trkpt lat="63.99514389" lon="-19.05967712"><ele>584.3</ele><time>2012-07-23T13:16:04.0000000+00:00</time></trkpt><trkpt lat="63.99507523" lon="-19.05969048"><ele>585.0</ele><time>2012-07-23T13:16:09.0000000+00:00</time></trkpt><trkpt lat="63.99500275" lon="-19.05971909"><ele>583.8</ele><time>2012-07-23T13:16:14.0000000+00:00</time></trkpt><trkpt lat="63.9949379" lon="-19.05976296"><ele>583.8</ele><time>2012-07-23T13:16:19.0000000+00:00</time></trkpt><trkpt lat="63.99487305" lon="-19.05979538"><ele>584.8</ele><time>2012-07-23T13:16:24.0000000+00:00</time></trkpt><trkpt lat="63.99481201" lon="-19.05982208"><ele>585.7</ele><time>2012-07-23T13:16:29.0000000+00:00</time></trkpt><trkpt lat="63.99474335" lon="-19.05984306"><ele>587.1</ele><time>2012-07-23T13:16:34.0000000+00:00</time></trkpt><trkpt lat="63.99467468" lon="-19.05984879"><ele>588.1</ele><time>2012-07-23T13:16:39.0000000+00:00</time></trkpt><trkpt lat="63.99460602" lon="-19.05986404"><ele>587.9</ele><time>2012-07-23T13:16:44.0000000+00:00</time></trkpt><trkpt lat="63.99456406" lon="-19.05993271"><ele>589.6</ele><time>2012-07-23T13:16:49.0000000+00:00</time></trkpt><trkpt lat="63.99454117" lon="-19.06005859"><ele>587.9</ele><time>2012-07-23T13:16:54.0000000+00:00</time></trkpt><trkpt lat="63.99451828" lon="-19.06010437"><ele>588.1</ele><time>2012-07-23T13:16:59.0000000+00:00</time></trkpt><trkpt lat="63.99452591" lon="-19.06009483"><ele>588.5</ele><time>2012-07-23T13:17:04.0000000+00:00</time></trkpt><trkpt lat="63.99454498" lon="-19.06011772"><ele>588.9</ele><time>2012-07-23T13:17:09.0000000+00:00</time></trkpt><trkpt lat="63.99455643" lon="-19.06012154"><ele>590.3</ele><time>2012-07-23T13:17:14.0000000+00:00</time></trkpt><trkpt lat="63.99458695" lon="-19.06021118"><ele>591.6</ele><time>2012-07-23T13:17:19.0000000+00:00</time></trkpt><trkpt lat="63.9946022" lon="-19.06025314"><ele>592.3</ele><time>2012-07-23T13:17:24.0000000+00:00</time></trkpt><trkpt lat="63.9946022" lon="-19.06029701"><ele>592.9</ele><time>2012-07-23T13:17:29.0000000+00:00</time></trkpt><trkpt lat="63.99459076" lon="-19.06042862"><ele>591.0</ele><time>2012-07-23T13:17:34.0000000+00:00</time></trkpt><trkpt lat="63.9945755" lon="-19.0605526"><ele>590.5</ele><time>2012-07-23T13:17:39.0000000+00:00</time></trkpt><trkpt lat="63.99455643" lon="-19.06065559"><ele>591.4</ele><time>2012-07-23T13:17:44.0000000+00:00</time></trkpt><trkpt lat="63.99450684" lon="-19.060709"><ele>591.1</ele><time>2012-07-23T13:17:49.0000000+00:00</time></trkpt><trkpt lat="63.99444199" lon="-19.06080246"><ele>590.9</ele><time>2012-07-23T13:17:54.0000000+00:00</time></trkpt><trkpt lat="63.9943924" lon="-19.06090736"><ele>589.4</ele><time>2012-07-23T13:17:59.0000000+00:00</time></trkpt><trkpt lat="63.99433136" lon="-19.06086159"><ele>590.6</ele><time>2012-07-23T13:18:04.0000000+00:00</time></trkpt><trkpt lat="63.99426651" lon="-19.06080627"><ele>591.0</ele><time>2012-07-23T13:18:09.0000000+00:00</time></trkpt><trkpt lat="63.99420166" lon="-19.06078339"><ele>589.6</ele><time>2012-07-23T13:18:14.0000000+00:00</time></trkpt><trkpt lat="63.99412918" lon="-19.06076431"><ele>589.0</ele><time>2012-07-23T13:18:19.0000000+00:00</time></trkpt><trkpt lat="63.9940567" lon="-19.06071663"><ele>589.1</ele><time>2012-07-23T13:18:24.0000000+00:00</time></trkpt><trkpt lat="63.99399185" lon="-19.06067848"><ele>589.2</ele><time>2012-07-23T13:18:29.0000000+00:00</time></trkpt><trkpt lat="63.99393463" lon="-19.06064224"><ele>588.6</ele><time>2012-07-23T13:18:34.0000000+00:00</time></trkpt><trkpt lat="63.9938736" lon="-19.06061935"><ele>588.4</ele><time>2012-07-23T13:18:39.0000000+00:00</time></trkpt><trkpt lat="63.99380875" lon="-19.06058693"><ele>588.6</ele><time>2012-07-23T13:18:44.0000000+00:00</time></trkpt><trkpt lat="63.99376297" lon="-19.0605545"><ele>588.6</ele><time>2012-07-23T13:18:49.0000000+00:00</time></trkpt><trkpt lat="63.99371719" lon="-19.06052017"><ele>588.5</ele><time>2012-07-23T13:18:54.0000000+00:00</time></trkpt><trkpt lat="63.99368286" lon="-19.06050873"><ele>588.8</ele><time>2012-07-23T13:18:59.0000000+00:00</time></trkpt><trkpt lat="63.99363327" lon="-19.06054497"><ele>588.2</ele><time>2012-07-23T13:19:04.0000000+00:00</time></trkpt><trkpt lat="63.99359512" lon="-19.0605526"><ele>588.1</ele><time>2012-07-23T13:19:09.0000000+00:00</time></trkpt><trkpt lat="63.99354553" lon="-19.06059837"><ele>588.4</ele><time>2012-07-23T13:19:14.0000000+00:00</time></trkpt><trkpt lat="63.9934845" lon="-19.06065559"><ele>588.7</ele><time>2012-07-23T13:19:19.0000000+00:00</time></trkpt><trkpt lat="63.99344254" lon="-19.0606575"><ele>590.1</ele><time>2012-07-23T13:19:24.0000000+00:00</time></trkpt><trkpt lat="63.9934082" lon="-19.06054688"><ele>590.1</ele><time>2012-07-23T13:19:29.0000000+00:00</time></trkpt><trkpt lat="63.99337006" lon="-19.06044388"><ele>590.4</ele><time>2012-07-23T13:19:34.0000000+00:00</time></trkpt><trkpt lat="63.99330902" lon="-19.06040382"><ele>590.7</ele><time>2012-07-23T13:19:39.0000000+00:00</time></trkpt><trkpt lat="63.99326325" lon="-19.06037331"><ele>590.3</ele><time>2012-07-23T13:19:44.0000000+00:00</time></trkpt><trkpt lat="63.99321365" lon="-19.06033135"><ele>590.5</ele><time>2012-07-23T13:19:49.0000000+00:00</time></trkpt><trkpt lat="63.99317932" lon="-19.06022644"><ele>590.4</ele><time>2012-07-23T13:19:54.0000000+00:00</time></trkpt><trkpt lat="63.99311447" lon="-19.06014061"><ele>590.3</ele><time>2012-07-23T13:19:59.0000000+00:00</time></trkpt><trkpt lat="63.99306107" lon="-19.06009674"><ele>591.3</ele><time>2012-07-23T13:20:04.0000000+00:00</time></trkpt><trkpt lat="63.99301148" lon="-19.06003952"><ele>591.4</ele><time>2012-07-23T13:20:09.0000000+00:00</time></trkpt><trkpt lat="63.99295044" lon="-19.05998802"><ele>591.7</ele><time>2012-07-23T13:20:14.0000000+00:00</time></trkpt><trkpt lat="63.99289322" lon="-19.05994034"><ele>591.9</ele><time>2012-07-23T13:20:19.0000000+00:00</time></trkpt><trkpt lat="63.99283981" lon="-19.05986977"><ele>592.0</ele><time>2012-07-23T13:20:24.0000000+00:00</time></trkpt><trkpt lat="63.99278259" lon="-19.05981636"><ele>592.1</ele><time>2012-07-23T13:20:29.0000000+00:00</time></trkpt><trkpt lat="63.99272156" lon="-19.05974197"><ele>591.4</ele><time>2012-07-23T13:20:34.0000000+00:00</time></trkpt><trkpt lat="63.99266815" lon="-19.05969238"><ele>592.0</ele><time>2012-07-23T13:20:39.0000000+00:00</time></trkpt><trkpt lat="63.99265289" lon="-19.05969429"><ele>591.9</ele><time>2012-07-23T13:20:44.0000000+00:00</time></trkpt><trkpt lat="63.99265289" lon="-19.05969048"><ele>591.9</ele><time>2012-07-23T13:20:49.0000000+00:00</time></trkpt><trkpt lat="63.99265289" lon="-19.05969048"><ele>591.9</ele><time>2012-07-23T13:20:54.0000000+00:00</time></trkpt><trkpt lat="63.99263001" lon="-19.05966759"><ele>591.9</ele><time>2012-07-23T13:20:59.0000000+00:00</time></trkpt><trkpt lat="63.9925766" lon="-19.05960465"><ele>592.0</ele><time>2012-07-23T13:21:04.0000000+00:00</time></trkpt><trkpt lat="63.99251175" lon="-19.0595398"><ele>592.3</ele><time>2012-07-23T13:21:09.0000000+00:00</time></trkpt><trkpt lat="63.99244309" lon="-19.05949783"><ele>592.7</ele><time>2012-07-23T13:21:14.0000000+00:00</time></trkpt><trkpt lat="63.99238205" lon="-19.05943108"><ele>592.9</ele><time>2012-07-23T13:21:19.0000000+00:00</time></trkpt><trkpt lat="63.99230957" lon="-19.0593853"><ele>593.0</ele><time>2012-07-23T13:21:24.0000000+00:00</time></trkpt><trkpt lat="63.99224472" lon="-19.05933189"><ele>593.4</ele><time>2012-07-23T13:21:29.0000000+00:00</time></trkpt><trkpt lat="63.99218369" lon="-19.05926704"><ele>593.3</ele><time>2012-07-23T13:21:34.0000000+00:00</time></trkpt><trkpt lat="63.99212647" lon="-19.05922127"><ele>593.4</ele><time>2012-07-23T13:21:39.0000000+00:00</time></trkpt><trkpt lat="63.99206924" lon="-19.05919457"><ele>593.3</ele><time>2012-07-23T13:21:44.0000000+00:00</time></trkpt><trkpt lat="63.99200058" lon="-19.05915833"><ele>593.2</ele><time>2012-07-23T13:21:49.0000000+00:00</time></trkpt><trkpt lat="63.99193192" lon="-19.05914497"><ele>593.4</ele><time>2012-07-23T13:21:54.0000000+00:00</time></trkpt><trkpt lat="63.99186707" lon="-19.05919075"><ele>593.1</ele><time>2012-07-23T13:21:59.0000000+00:00</time></trkpt><trkpt lat="63.99180222" lon="-19.05923271"><ele>592.9</ele><time>2012-07-23T13:22:04.0000000+00:00</time></trkpt><trkpt lat="63.99174881" lon="-19.05932427"><ele>592.6</ele><time>2012-07-23T13:22:09.0000000+00:00</time></trkpt><trkpt lat="63.99169159" lon="-19.05938721"><ele>592.8</ele><time>2012-07-23T13:22:14.0000000+00:00</time></trkpt><trkpt lat="63.99163055" lon="-19.0594635"><ele>592.7</ele><time>2012-07-23T13:22:19.0000000+00:00</time></trkpt><trkpt lat="63.99157333" lon="-19.05953598"><ele>593.1</ele><time>2012-07-23T13:22:24.0000000+00:00</time></trkpt><trkpt lat="63.99151611" lon="-19.05959702"><ele>593.5</ele><time>2012-07-23T13:22:29.0000000+00:00</time></trkpt><trkpt lat="63.99146271" lon="-19.05966568"><ele>593.4</ele><time>2012-07-23T13:22:34.0000000+00:00</time></trkpt><trkpt lat="63.99140167" lon="-19.05970955"><ele>593.4</ele><time>2012-07-23T13:22:39.0000000+00:00</time></trkpt><trkpt lat="63.99133682" lon="-19.0597744"><ele>593.3</ele><time>2012-07-23T13:22:44.0000000+00:00</time></trkpt><trkpt lat="63.9912796" lon="-19.05985069"><ele>593.7</ele><time>2012-07-23T13:22:49.0000000+00:00</time></trkpt><trkpt lat="63.99122238" lon="-19.05992699"><ele>593.8</ele><time>2012-07-23T13:22:54.0000000+00:00</time></trkpt><trkpt lat="63.99116135" lon="-19.05998993"><ele>593.5</ele><time>2012-07-23T13:22:59.0000000+00:00</time></trkpt><trkpt lat="63.99110031" lon="-19.06006813"><ele>593.6</ele><time>2012-07-23T13:23:04.0000000+00:00</time></trkpt><trkpt lat="63.99104309" lon="-19.06015396"><ele>593.3</ele><time>2012-07-23T13:23:09.0000000+00:00</time></trkpt><trkpt lat="63.9909935" lon="-19.0602169"><ele>594.1</ele><time>2012-07-23T13:23:14.0000000+00:00</time></trkpt><trkpt lat="63.99094009" lon="-19.06028175"><ele>593.8</ele><time>2012-07-23T13:23:19.0000000+00:00</time></trkpt><trkpt lat="63.99088287" lon="-19.06034279"><ele>593.5</ele><time>2012-07-23T13:23:24.0000000+00:00</time></trkpt><trkpt lat="63.99082565" lon="-19.06036758"><ele>594.0</ele><time>2012-07-23T13:23:29.0000000+00:00</time></trkpt><trkpt lat="63.99076462" lon="-19.06037903"><ele>594.2</ele><time>2012-07-23T13:23:34.0000000+00:00</time></trkpt><trkpt lat="63.9907074" lon="-19.06037903"><ele>594.5</ele><time>2012-07-23T13:23:39.0000000+00:00</time></trkpt><trkpt lat="63.99065399" lon="-19.06037521"><ele>594.6</ele><time>2012-07-23T13:23:44.0000000+00:00</time></trkpt><trkpt lat="63.99061585" lon="-19.06036186"><ele>595.4</ele><time>2012-07-23T13:23:49.0000000+00:00</time></trkpt><trkpt lat="63.99058914" lon="-19.06038094"><ele>596.0</ele><time>2012-07-23T13:23:54.0000000+00:00</time></trkpt><trkpt lat="63.9905777" lon="-19.06039238"><ele>597.8</ele><time>2012-07-23T13:23:59.0000000+00:00</time></trkpt><trkpt lat="63.99057388" lon="-19.06037712"><ele>599.0</ele><time>2012-07-23T13:24:04.0000000+00:00</time></trkpt><trkpt lat="63.99057007" lon="-19.06037521"><ele>599.2</ele><time>2012-07-23T13:24:09.0000000+00:00</time></trkpt><trkpt lat="63.99057388" lon="-19.06036568"><ele>599.3</ele><time>2012-07-23T13:24:14.0000000+00:00</time></trkpt><trkpt lat="63.9905777" lon="-19.06032753"><ele>600.2</ele><time>2012-07-23T13:24:19.0000000+00:00</time></trkpt><trkpt lat="63.9905777" lon="-19.06033516"><ele>600.4</ele><time>2012-07-23T13:24:24.0000000+00:00</time></trkpt><trkpt lat="63.99057388" lon="-19.06036186"><ele>600.5</ele><time>2012-07-23T13:24:29.0000000+00:00</time></trkpt><trkpt lat="63.99057007" lon="-19.06038284"><ele>600.5</ele><time>2012-07-23T13:24:34.0000000+00:00</time></trkpt><trkpt lat="63.99057007" lon="-19.06038475"><ele>600.5</ele><time>2012-07-23T13:24:39.0000000+00:00</time></trkpt><trkpt lat="63.99056625" lon="-19.06038857"><ele>600.6</ele><time>2012-07-23T13:24:44.0000000+00:00</time></trkpt><trkpt lat="63.99056244" lon="-19.06038475"><ele>600.6</ele><time>2012-07-23T13:24:49.0000000+00:00</time></trkpt><trkpt lat="63.99055862" lon="-19.06038475"><ele>600.6</ele><time>2012-07-23T13:24:54.0000000+00:00</time></trkpt><trkpt lat="63.99055481" lon="-19.06038666"><ele>600.6</ele><time>2012-07-23T13:24:59.0000000+00:00</time></trkpt><trkpt lat="63.99054718" lon="-19.06038857"><ele>600.6</ele><time>2012-07-23T13:25:04.0000000+00:00</time></trkpt><trkpt lat="63.99054718" lon="-19.0603981"><ele>600.6</ele><time>2012-07-23T13:25:09.0000000+00:00</time></trkpt><trkpt lat="63.99054718" lon="-19.06040382"><ele>600.6</ele><time>2012-07-23T13:25:14.0000000+00:00</time></trkpt><trkpt lat="63.99054718" lon="-19.06040955"><ele>600.6</ele><time>2012-07-23T13:25:19.0000000+00:00</time></trkpt><trkpt lat="63.990551" lon="-19.06042862"><ele>600.6</ele><time>2012-07-23T13:25:24.0000000+00:00</time></trkpt><trkpt lat="63.99055862" lon="-19.06043243"><ele>600.6</ele><time>2012-07-23T13:25:29.0000000+00:00</time></trkpt><trkpt lat="63.99055862" lon="-19.06042862"><ele>600.6</ele><time>2012-07-23T13:25:34.0000000+00:00</time></trkpt><trkpt lat="63.99056244" lon="-19.06043625"><ele>600.6</ele><time>2012-07-23T13:25:39.0000000+00:00</time></trkpt><trkpt lat="63.99054718" lon="-19.06038475"><ele>600.5</ele><time>2012-07-23T13:25:44.0000000+00:00</time></trkpt><trkpt lat="63.9905014" lon="-19.06036377"><ele>600.3</ele><time>2012-07-23T13:25:49.0000000+00:00</time></trkpt><trkpt lat="63.99045181" lon="-19.06032181"><ele>599.6</ele><time>2012-07-23T13:25:54.0000000+00:00</time></trkpt><trkpt lat="63.99038315" lon="-19.06027603"><ele>599.2</ele><time>2012-07-23T13:25:59.0000000+00:00</time></trkpt><trkpt lat="63.99032211" lon="-19.06021309"><ele>598.8</ele><time>2012-07-23T13:26:04.0000000+00:00</time></trkpt><trkpt lat="63.99026108" lon="-19.06023789"><ele>598.7</ele><time>2012-07-23T13:26:09.0000000+00:00</time></trkpt><trkpt lat="63.99019623" lon="-19.06023026"><ele>598.7</ele><time>2012-07-23T13:26:14.0000000+00:00</time></trkpt><trkpt lat="63.99012756" lon="-19.06025314"><ele>597.2</ele><time>2012-07-23T13:26:19.0000000+00:00</time></trkpt><trkpt lat="63.99005508" lon="-19.06024551"><ele>597.1</ele><time>2012-07-23T13:26:24.0000000+00:00</time></trkpt><trkpt lat="63.99001312" lon="-19.06022263"><ele>596.8</ele><time>2012-07-23T13:26:29.0000000+00:00</time></trkpt><trkpt lat="63.99001312" lon="-19.06023407"><ele>596.6</ele><time>2012-07-23T13:26:34.0000000+00:00</time></trkpt><trkpt lat="63.99001312" lon="-19.06023407"><ele>596.6</ele><time>2012-07-23T13:26:39.0000000+00:00</time></trkpt><trkpt lat="63.99001312" lon="-19.06023216"><ele>596.5</ele><time>2012-07-23T13:26:44.0000000+00:00</time></trkpt><trkpt lat="63.99000931" lon="-19.06023216"><ele>594.8</ele><time>2012-07-23T13:26:49.0000000+00:00</time></trkpt><trkpt lat="63.99000931" lon="-19.06023216"><ele>594.1</ele><time>2012-07-23T13:26:54.0000000+00:00</time></trkpt></trkseg><trkseg><trkpt lat="63.99053574" lon="-19.06246948"><ele>534.7</ele><time>2012-07-23T14:56:37.0000000+00:00</time></trkpt><trkpt lat="63.99081039" lon="-19.06253433"><ele>604.9</ele><time>2012-07-23T14:56:42.0000000+00:00</time></trkpt><trkpt lat="63.99084091" lon="-19.06239319"><ele>611.8</ele><time>2012-07-23T14:56:47.0000000+00:00</time></trkpt><trkpt lat="63.99087143" lon="-19.06263351"><ele>612.5</ele><time>2012-07-23T14:56:52.0000000+00:00</time></trkpt><trkpt lat="63.99085236" lon="-19.06280136"><ele>608.7</ele><time>2012-07-23T14:56:57.0000000+00:00</time></trkpt><trkpt lat="63.9908371" lon="-19.06277847"><ele>605.0</ele><time>2012-07-23T14:57:02.0000000+00:00</time></trkpt><trkpt lat="63.99076462" lon="-19.06298447"><ele>578.8</ele><time>2012-07-23T14:57:07.0000000+00:00</time></trkpt><trkpt lat="63.99077988" lon="-19.06301308"><ele>581.5</ele><time>2012-07-23T14:57:12.0000000+00:00</time></trkpt><trkpt lat="63.99078369" lon="-19.06307411"><ele>579.4</ele><time>2012-07-23T14:57:17.0000000+00:00</time></trkpt><trkpt lat="63.99077606" lon="-19.06318283"><ele>578.0</ele><time>2012-07-23T14:57:22.0000000+00:00</time></trkpt><trkpt lat="63.99078369" lon="-19.06319046"><ele>579.4</ele><time>2012-07-23T14:57:27.0000000+00:00</time></trkpt><trkpt lat="63.99077988" lon="-19.06326294"><ele>579.9</ele><time>2012-07-23T14:57:32.0000000+00:00</time></trkpt><trkpt lat="63.99080277" lon="-19.06334114"><ele>579.4</ele><time>2012-07-23T14:57:37.0000000+00:00</time></trkpt><trkpt lat="63.9908371" lon="-19.06335831"><ele>578.9</ele><time>2012-07-23T14:57:42.0000000+00:00</time></trkpt><trkpt lat="63.99087906" lon="-19.06341744"><ele>577.6</ele><time>2012-07-23T14:57:47.0000000+00:00</time></trkpt><trkpt lat="63.99088287" lon="-19.06350899"><ele>578.9</ele><time>2012-07-23T14:57:52.0000000+00:00</time></trkpt><trkpt lat="63.99089813" lon="-19.06357956"><ele>581.0</ele><time>2012-07-23T14:57:57.0000000+00:00</time></trkpt><trkpt lat="63.99088287" lon="-19.06365967"><ele>581.2</ele><time>2012-07-23T14:58:02.0000000+00:00</time></trkpt><trkpt lat="63.99087524" lon="-19.06372833"><ele>581.9</ele><time>2012-07-23T14:58:07.0000000+00:00</time></trkpt><trkpt lat="63.99087524" lon="-19.06377983"><ele>584.0</ele><time>2012-07-23T14:58:12.0000000+00:00</time></trkpt><trkpt lat="63.99087143" lon="-19.06385803"><ele>584.4</ele><time>2012-07-23T14:58:17.0000000+00:00</time></trkpt><trkpt lat="63.99085236" lon="-19.0639267"><ele>585.2</ele><time>2012-07-23T14:58:22.0000000+00:00</time></trkpt><trkpt lat="63.99084473" lon="-19.06401253"><ele>585.5</ele><time>2012-07-23T14:58:27.0000000+00:00</time></trkpt><trkpt lat="63.99084091" lon="-19.06408691"><ele>584.8</ele><time>2012-07-23T14:58:32.0000000+00:00</time></trkpt><trkpt lat="63.99081802" lon="-19.06412125"><ele>585.0</ele><time>2012-07-23T14:58:37.0000000+00:00</time></trkpt><trkpt lat="63.99079895" lon="-19.06418419"><ele>585.5</ele><time>2012-07-23T14:58:42.0000000+00:00</time></trkpt><trkpt lat="63.99078369" lon="-19.06423569"><ele>586.0</ele><time>2012-07-23T14:58:47.0000000+00:00</time></trkpt><trkpt lat="63.99076843" lon="-19.06431007"><ele>587.2</ele><time>2012-07-23T14:58:52.0000000+00:00</time></trkpt><trkpt lat="63.99075317" lon="-19.06441498"><ele>585.6</ele><time>2012-07-23T14:58:57.0000000+00:00</time></trkpt><trkpt lat="63.9907074" lon="-19.06444931"><ele>584.3</ele><time>2012-07-23T14:59:02.0000000+00:00</time></trkpt><trkpt lat="63.99066544" lon="-19.06450081"><ele>584.0</ele><time>2012-07-23T14:59:07.0000000+00:00</time></trkpt><trkpt lat="63.99065018" lon="-19.06458092"><ele>586.8</ele><time>2012-07-23T14:59:12.0000000+00:00</time></trkpt><trkpt lat="63.99061585" lon="-19.06466675"><ele>587.0</ele><time>2012-07-23T14:59:17.0000000+00:00</time></trkpt><trkpt lat="63.99060059" lon="-19.06474876"><ele>584.7</ele><time>2012-07-23T14:59:22.0000000+00:00</time></trkpt><trkpt lat="63.99061966" lon="-19.06481743"><ele>584.1</ele><time>2012-07-23T14:59:27.0000000+00:00</time></trkpt><trkpt lat="63.99062729" lon="-19.06487274"><ele>584.3</ele><time>2012-07-23T14:59:32.0000000+00:00</time></trkpt><trkpt lat="63.9906311" lon="-19.0648613"><ele>583.7</ele><time>2012-07-23T14:59:37.0000000+00:00</time></trkpt><trkpt lat="63.99064636" lon="-19.06490707"><ele>587.8</ele><time>2012-07-23T14:59:42.0000000+00:00</time></trkpt><trkpt lat="63.9906807" lon="-19.0649147"><ele>593.0</ele><time>2012-07-23T14:59:47.0000000+00:00</time></trkpt><trkpt lat="63.99069214" lon="-19.06491661"><ele>594.9</ele><time>2012-07-23T14:59:52.0000000+00:00</time></trkpt><trkpt lat="63.99070358" lon="-19.06491661"><ele>596.0</ele><time>2012-07-23T14:59:57.0000000+00:00</time></trkpt><trkpt lat="63.99072266" lon="-19.06492233"><ele>596.0</ele><time>2012-07-23T15:00:02.0000000+00:00</time></trkpt><trkpt lat="63.99075699" lon="-19.0649662"><ele>598.7</ele><time>2012-07-23T15:00:07.0000000+00:00</time></trkpt><trkpt lat="63.99079895" lon="-19.06501961"><ele>600.5</ele><time>2012-07-23T15:00:12.0000000+00:00</time></trkpt><trkpt lat="63.99082184" lon="-19.06507301"><ele>601.4</ele><time>2012-07-23T15:00:17.0000000+00:00</time></trkpt><trkpt lat="63.9908638" lon="-19.0651226"><ele>602.1</ele><time>2012-07-23T15:00:22.0000000+00:00</time></trkpt><trkpt lat="63.99091721" lon="-19.06510925"><ele>599.7</ele><time>2012-07-23T15:00:27.0000000+00:00</time></trkpt><trkpt lat="63.99097824" lon="-19.06511688"><ele>597.5</ele><time>2012-07-23T15:00:32.0000000+00:00</time></trkpt><trkpt lat="63.99101639" lon="-19.06512833"><ele>598.0</ele><time>2012-07-23T15:00:37.0000000+00:00</time></trkpt><trkpt lat="63.99103165" lon="-19.06513786"><ele>599.5</ele><time>2012-07-23T15:00:42.0000000+00:00</time></trkpt><trkpt lat="63.99103928" lon="-19.06513977"><ele>599.5</ele><time>2012-07-23T15:00:47.0000000+00:00</time></trkpt><trkpt lat="63.99103928" lon="-19.06513977"><ele>599.4</ele><time>2012-07-23T15:00:52.0000000+00:00</time></trkpt><trkpt lat="63.99103928" lon="-19.06513977"><ele>599.5</ele><time>2012-07-23T15:00:57.0000000+00:00</time></trkpt><trkpt lat="63.99103928" lon="-19.06513786"><ele>599.5</ele><time>2012-07-23T15:01:02.0000000+00:00</time></trkpt><trkpt lat="63.99103928" lon="-19.06513786"><ele>599.6</ele><time>2012-07-23T15:01:07.0000000+00:00</time></trkpt><trkpt lat="63.99103928" lon="-19.06513786"><ele>599.6</ele><time>2012-07-23T15:01:12.0000000+00:00</time></trkpt><trkpt lat="63.99103928" lon="-19.06513596"><ele>599.6</ele><time>2012-07-23T15:01:17.0000000+00:00</time></trkpt><trkpt lat="63.99103928" lon="-19.06513596"><ele>599.7</ele><time>2012-07-23T15:01:22.0000000+00:00</time></trkpt><trkpt lat="63.99102402" lon="-19.06515694"><ele>599.6</ele><time>2012-07-23T15:01:27.0000000+00:00</time></trkpt><trkpt lat="63.99099731" lon="-19.06519699"><ele>602.2</ele><time>2012-07-23T15:01:32.0000000+00:00</time></trkpt><trkpt lat="63.99095917" lon="-19.06524658"><ele>604.3</ele><time>2012-07-23T15:01:37.0000000+00:00</time></trkpt><trkpt lat="63.99093247" lon="-19.06527329"><ele>607.4</ele><time>2012-07-23T15:01:42.0000000+00:00</time></trkpt><trkpt lat="63.99088669" lon="-19.06530571"><ele>609.2</ele><time>2012-07-23T15:01:47.0000000+00:00</time></trkpt><trkpt lat="63.99083328" lon="-19.06529427"><ele>611.3</ele><time>2012-07-23T15:01:52.0000000+00:00</time></trkpt><trkpt lat="63.99079132" lon="-19.06528854"><ele>612.6</ele><time>2012-07-23T15:01:57.0000000+00:00</time></trkpt><trkpt lat="63.9907341" lon="-19.06529045"><ele>612.3</ele><time>2012-07-23T15:02:02.0000000+00:00</time></trkpt><trkpt lat="63.99067688" lon="-19.06535149"><ele>613.2</ele><time>2012-07-23T15:02:07.0000000+00:00</time></trkpt><trkpt lat="63.9906311" lon="-19.06542206"><ele>614.9</ele><time>2012-07-23T15:02:12.0000000+00:00</time></trkpt><trkpt lat="63.99058914" lon="-19.06549263"><ele>616.8</ele><time>2012-07-23T15:02:17.0000000+00:00</time></trkpt><trkpt lat="63.99057388" lon="-19.06558037"><ele>618.5</ele><time>2012-07-23T15:02:22.0000000+00:00</time></trkpt><trkpt lat="63.99057388" lon="-19.06565666"><ele>619.8</ele><time>2012-07-23T15:02:27.0000000+00:00</time></trkpt><trkpt lat="63.9905777" lon="-19.06568909"><ele>620.3</ele><time>2012-07-23T15:02:32.0000000+00:00</time></trkpt><trkpt lat="63.9905777" lon="-19.06567574"><ele>621.0</ele><time>2012-07-23T15:02:37.0000000+00:00</time></trkpt><trkpt lat="63.99058914" lon="-19.06575203"><ele>621.3</ele><time>2012-07-23T15:02:42.0000000+00:00</time></trkpt><trkpt lat="63.99060822" lon="-19.06589127"><ele>621.5</ele><time>2012-07-23T15:02:47.0000000+00:00</time></trkpt><trkpt lat="63.99063492" lon="-19.06600189"><ele>621.4</ele><time>2012-07-23T15:02:52.0000000+00:00</time></trkpt><trkpt lat="63.99063873" lon="-19.06613731"><ele>620.9</ele><time>2012-07-23T15:02:57.0000000+00:00</time></trkpt><trkpt lat="63.99064636" lon="-19.06628227"><ele>620.8</ele><time>2012-07-23T15:03:02.0000000+00:00</time></trkpt><trkpt lat="63.99065018" lon="-19.06641197"><ele>620.8</ele><time>2012-07-23T15:03:07.0000000+00:00</time></trkpt><trkpt lat="63.99064636" lon="-19.06656265"><ele>620.8</ele><time>2012-07-23T15:03:12.0000000+00:00</time></trkpt><trkpt lat="63.99064255" lon="-19.06671143"><ele>619.7</ele><time>2012-07-23T15:03:17.0000000+00:00</time></trkpt><trkpt lat="63.99062729" lon="-19.06686401"><ele>619.5</ele><time>2012-07-23T15:03:22.0000000+00:00</time></trkpt><trkpt lat="63.99062347" lon="-19.06698608"><ele>619.3</ele><time>2012-07-23T15:03:27.0000000+00:00</time></trkpt><trkpt lat="63.99062729" lon="-19.06713677"><ele>618.0</ele><time>2012-07-23T15:03:32.0000000+00:00</time></trkpt><trkpt lat="63.99064255" lon="-19.06725121"><ele>616.8</ele><time>2012-07-23T15:03:37.0000000+00:00</time></trkpt><trkpt lat="63.99067307" lon="-19.06737137"><ele>616.1</ele><time>2012-07-23T15:03:42.0000000+00:00</time></trkpt><trkpt lat="63.99068832" lon="-19.0674324"><ele>615.9</ele><time>2012-07-23T15:03:47.0000000+00:00</time></trkpt><trkpt lat="63.99070358" lon="-19.06747055"><ele>616.5</ele><time>2012-07-23T15:03:52.0000000+00:00</time></trkpt><trkpt lat="63.99073029" lon="-19.06755257"><ele>617.1</ele><time>2012-07-23T15:03:57.0000000+00:00</time></trkpt><trkpt lat="63.99071503" lon="-19.06750298"><ele>617.8</ele><time>2012-07-23T15:04:02.0000000+00:00</time></trkpt><trkpt lat="63.99071503" lon="-19.0675087"><ele>617.5</ele><time>2012-07-23T15:04:07.0000000+00:00</time></trkpt><trkpt lat="63.99071884" lon="-19.06754303"><ele>617.7</ele><time>2012-07-23T15:04:12.0000000+00:00</time></trkpt><trkpt lat="63.9907341" lon="-19.06765747"><ele>617.3</ele><time>2012-07-23T15:04:17.0000000+00:00</time></trkpt><trkpt lat="63.99074936" lon="-19.06777191"><ele>618.6</ele><time>2012-07-23T15:04:22.0000000+00:00</time></trkpt><trkpt lat="63.99077988" lon="-19.06785774"><ele>619.3</ele><time>2012-07-23T15:04:27.0000000+00:00</time></trkpt><trkpt lat="63.99079132" lon="-19.06799126"><ele>620.0</ele><time>2012-07-23T15:04:32.0000000+00:00</time></trkpt><trkpt lat="63.99078369" lon="-19.06811523"><ele>621.5</ele><time>2012-07-23T15:04:37.0000000+00:00</time></trkpt><trkpt lat="63.99080658" lon="-19.06821251"><ele>621.9</ele><time>2012-07-23T15:04:42.0000000+00:00</time></trkpt><trkpt lat="63.99082184" lon="-19.06832314"><ele>622.8</ele><time>2012-07-23T15:04:47.0000000+00:00</time></trkpt><trkpt lat="63.99083328" lon="-19.06840706"><ele>623.8</ele><time>2012-07-23T15:04:52.0000000+00:00</time></trkpt><trkpt lat="63.99081802" lon="-19.06851006"><ele>625.2</ele><time>2012-07-23T15:04:57.0000000+00:00</time></trkpt><trkpt lat="63.99080658" lon="-19.06858826"><ele>624.8</ele><time>2012-07-23T15:05:02.0000000+00:00</time></trkpt><trkpt lat="63.99079132" lon="-19.0687294"><ele>625.4</ele><time>2012-07-23T15:05:07.0000000+00:00</time></trkpt><trkpt lat="63.99077606" lon="-19.06884766"><ele>626.6</ele><time>2012-07-23T15:05:12.0000000+00:00</time></trkpt><trkpt lat="63.99075699" lon="-19.06896401"><ele>628.4</ele><time>2012-07-23T15:05:17.0000000+00:00</time></trkpt><trkpt lat="63.99074936" lon="-19.06909561"><ele>628.2</ele><time>2012-07-23T15:05:22.0000000+00:00</time></trkpt><trkpt lat="63.99072647" lon="-19.0692215"><ele>628.4</ele><time>2012-07-23T15:05:27.0000000+00:00</time></trkpt><trkpt lat="63.99071121" lon="-19.0693531"><ele>627.5</ele><time>2012-07-23T15:05:32.0000000+00:00</time></trkpt><trkpt lat="63.99070358" lon="-19.06947899"><ele>627.1</ele><time>2012-07-23T15:05:37.0000000+00:00</time></trkpt><trkpt lat="63.99068832" lon="-19.06962013"><ele>625.9</ele><time>2012-07-23T15:05:42.0000000+00:00</time></trkpt><trkpt lat="63.99067307" lon="-19.06973839"><ele>625.8</ele><time>2012-07-23T15:05:47.0000000+00:00</time></trkpt><trkpt lat="63.99067307" lon="-19.0698452"><ele>626.1</ele><time>2012-07-23T15:05:52.0000000+00:00</time></trkpt><trkpt lat="63.99065399" lon="-19.06996536"><ele>627.1</ele><time>2012-07-23T15:05:57.0000000+00:00</time></trkpt><trkpt lat="63.99064255" lon="-19.0700798"><ele>627.5</ele><time>2012-07-23T15:06:02.0000000+00:00</time></trkpt><trkpt lat="63.99061203" lon="-19.07020378"><ele>627.1</ele><time>2012-07-23T15:06:07.0000000+00:00</time></trkpt><trkpt lat="63.9905777" lon="-19.07032776"><ele>626.5</ele><time>2012-07-23T15:06:12.0000000+00:00</time></trkpt><trkpt lat="63.99054337" lon="-19.07042503"><ele>626.8</ele><time>2012-07-23T15:06:17.0000000+00:00</time></trkpt><trkpt lat="63.99050903" lon="-19.07051277"><ele>628.0</ele><time>2012-07-23T15:06:22.0000000+00:00</time></trkpt><trkpt lat="63.99048996" lon="-19.07061195"><ele>629.4</ele><time>2012-07-23T15:06:27.0000000+00:00</time></trkpt><trkpt lat="63.99047852" lon="-19.07070923"><ele>629.5</ele><time>2012-07-23T15:06:32.0000000+00:00</time></trkpt><trkpt lat="63.99045181" lon="-19.07083893"><ele>629.5</ele><time>2012-07-23T15:06:37.0000000+00:00</time></trkpt><trkpt lat="63.99041748" lon="-19.07096863"><ele>629.2</ele><time>2012-07-23T15:06:42.0000000+00:00</time></trkpt><trkpt lat="63.99039459" lon="-19.07111931"><ele>628.6</ele><time>2012-07-23T15:06:47.0000000+00:00</time></trkpt><trkpt lat="63.99038315" lon="-19.07123566"><ele>629.5</ele><time>2012-07-23T15:06:52.0000000+00:00</time></trkpt><trkpt lat="63.99036408" lon="-19.07133484"><ele>629.5</ele><time>2012-07-23T15:06:57.0000000+00:00</time></trkpt><trkpt lat="63.990345" lon="-19.07132149"><ele>629.5</ele><time>2012-07-23T15:07:02.0000000+00:00</time></trkpt><trkpt lat="63.99034882" lon="-19.07134056"><ele>629.3</ele><time>2012-07-23T15:07:07.0000000+00:00</time></trkpt><trkpt lat="63.99036789" lon="-19.07145691"><ele>628.2</ele><time>2012-07-23T15:07:12.0000000+00:00</time></trkpt><trkpt lat="63.99038315" lon="-19.0716114"><ele>627.9</ele><time>2012-07-23T15:07:17.0000000+00:00</time></trkpt><trkpt lat="63.99040222" lon="-19.07175827"><ele>627.6</ele><time>2012-07-23T15:07:22.0000000+00:00</time></trkpt><trkpt lat="63.99041748" lon="-19.07188606"><ele>628.8</ele><time>2012-07-23T15:07:27.0000000+00:00</time></trkpt><trkpt lat="63.99042893" lon="-19.07201767"><ele>629.8</ele><time>2012-07-23T15:07:32.0000000+00:00</time></trkpt><trkpt lat="63.99043274" lon="-19.07216835"><ele>630.2</ele><time>2012-07-23T15:07:37.0000000+00:00</time></trkpt><trkpt lat="63.99041748" lon="-19.07231712"><ele>631.8</ele><time>2012-07-23T15:07:42.0000000+00:00</time></trkpt><trkpt lat="63.99039459" lon="-19.07245255"><ele>632.4</ele><time>2012-07-23T15:07:47.0000000+00:00</time></trkpt><trkpt lat="63.99040604" lon="-19.07254601"><ele>633.2</ele><time>2012-07-23T15:07:52.0000000+00:00</time></trkpt><trkpt lat="63.99042893" lon="-19.07265663"><ele>632.2</ele><time>2012-07-23T15:07:57.0000000+00:00</time></trkpt><trkpt lat="63.99045944" lon="-19.07277107"><ele>632.1</ele><time>2012-07-23T15:08:02.0000000+00:00</time></trkpt><trkpt lat="63.99048615" lon="-19.07290649"><ele>631.9</ele><time>2012-07-23T15:08:07.0000000+00:00</time></trkpt><trkpt lat="63.99051666" lon="-19.07300568"><ele>631.6</ele><time>2012-07-23T15:08:12.0000000+00:00</time></trkpt><trkpt lat="63.990551" lon="-19.07311058"><ele>631.7</ele><time>2012-07-23T15:08:17.0000000+00:00</time></trkpt><trkpt lat="63.99058151" lon="-19.07319069"><ele>632.8</ele><time>2012-07-23T15:08:22.0000000+00:00</time></trkpt><trkpt lat="63.99062347" lon="-19.0732708"><ele>634.0</ele><time>2012-07-23T15:08:27.0000000+00:00</time></trkpt><trkpt lat="63.99066162" lon="-19.07333756"><ele>634.1</ele><time>2012-07-23T15:08:32.0000000+00:00</time></trkpt><trkpt lat="63.9906807" lon="-19.07341003"><ele>633.5</ele><time>2012-07-23T15:08:37.0000000+00:00</time></trkpt><trkpt lat="63.99071503" lon="-19.0735054"><ele>632.3</ele><time>2012-07-23T15:08:42.0000000+00:00</time></trkpt><trkpt lat="63.99074936" lon="-19.07361984"><ele>631.6</ele><time>2012-07-23T15:08:47.0000000+00:00</time></trkpt><trkpt lat="63.99077988" lon="-19.07369041"><ele>631.8</ele><time>2012-07-23T15:08:52.0000000+00:00</time></trkpt><trkpt lat="63.99081802" lon="-19.07374001"><ele>630.9</ele><time>2012-07-23T15:08:57.0000000+00:00</time></trkpt><trkpt lat="63.99086762" lon="-19.07374191"><ele>630.3</ele><time>2012-07-23T15:09:02.0000000+00:00</time></trkpt><trkpt lat="63.9908905" lon="-19.0738678"><ele>632.2</ele><time>2012-07-23T15:09:07.0000000+00:00</time></trkpt><trkpt lat="63.99090576" lon="-19.07397652"><ele>632.9</ele><time>2012-07-23T15:09:12.0000000+00:00</time></trkpt><trkpt lat="63.99092865" lon="-19.07410049"><ele>633.4</ele><time>2012-07-23T15:09:17.0000000+00:00</time></trkpt><trkpt lat="63.99093628" lon="-19.07423973"><ele>634.6</ele><time>2012-07-23T15:09:22.0000000+00:00</time></trkpt><trkpt lat="63.99093247" lon="-19.07435608"><ele>634.2</ele><time>2012-07-23T15:09:27.0000000+00:00</time></trkpt><trkpt lat="63.99091721" lon="-19.0744648"><ele>633.4</ele><time>2012-07-23T15:09:32.0000000+00:00</time></trkpt><trkpt lat="63.99087524" lon="-19.07455063"><ele>633.2</ele><time>2012-07-23T15:09:37.0000000+00:00</time></trkpt><trkpt lat="63.99085999" lon="-19.07457924"><ele>633.2</ele><time>2012-07-23T15:09:42.0000000+00:00</time></trkpt><trkpt lat="63.99082184" lon="-19.07458687"><ele>633.6</ele><time>2012-07-23T15:09:47.0000000+00:00</time></trkpt><trkpt lat="63.99081802" lon="-19.0746212"><ele>633.1</ele><time>2012-07-23T15:09:52.0000000+00:00</time></trkpt><trkpt lat="63.99081421" lon="-19.07462311"><ele>633.6</ele><time>2012-07-23T15:09:57.0000000+00:00</time></trkpt><trkpt lat="63.99081421" lon="-19.07462311"><ele>633.5</ele><time>2012-07-23T15:10:02.0000000+00:00</time></trkpt><trkpt lat="63.99081421" lon="-19.07462311"><ele>633.5</ele><time>2012-07-23T15:10:07.0000000+00:00</time></trkpt><trkpt lat="63.99081421" lon="-19.0746212"><ele>633.5</ele><time>2012-07-23T15:10:12.0000000+00:00</time></trkpt><trkpt lat="63.99081421" lon="-19.0746212"><ele>633.5</ele><time>2012-07-23T15:10:17.0000000+00:00</time></trkpt><trkpt lat="63.99081039" lon="-19.07465744"><ele>633.1</ele><time>2012-07-23T15:10:22.0000000+00:00</time></trkpt><trkpt lat="63.99077988" lon="-19.0747757"><ele>632.5</ele><time>2012-07-23T15:10:27.0000000+00:00</time></trkpt><trkpt lat="63.99074173" lon="-19.07488251"><ele>633.6</ele><time>2012-07-23T15:10:32.0000000+00:00</time></trkpt><trkpt lat="63.99069595" lon="-19.07496452"><ele>632.9</ele><time>2012-07-23T15:10:37.0000000+00:00</time></trkpt><trkpt lat="63.99066925" lon="-19.07506943"><ele>632.4</ele><time>2012-07-23T15:10:42.0000000+00:00</time></trkpt><trkpt lat="63.99063873" lon="-19.07520676"><ele>632.3</ele><time>2012-07-23T15:10:47.0000000+00:00</time></trkpt><trkpt lat="63.99062729" lon="-19.07532692"><ele>632.5</ele><time>2012-07-23T15:10:52.0000000+00:00</time></trkpt><trkpt lat="63.9906311" lon="-19.07546997"><ele>633.4</ele><time>2012-07-23T15:10:57.0000000+00:00</time></trkpt><trkpt lat="63.99064255" lon="-19.07558823"><ele>635.4</ele><time>2012-07-23T15:11:02.0000000+00:00</time></trkpt><trkpt lat="63.99061585" lon="-19.07571983"><ele>637.0</ele><time>2012-07-23T15:11:07.0000000+00:00</time></trkpt><trkpt lat="63.99058151" lon="-19.07588768"><ele>636.0</ele><time>2012-07-23T15:11:12.0000000+00:00</time></trkpt><trkpt lat="63.99056625" lon="-19.07597351"><ele>634.2</ele><time>2012-07-23T15:11:17.0000000+00:00</time></trkpt><trkpt lat="63.99056244" lon="-19.07607079"><ele>632.9</ele><time>2012-07-23T15:11:22.0000000+00:00</time></trkpt><trkpt lat="63.99057388" lon="-19.0761528"><ele>633.1</ele><time>2012-07-23T15:11:27.0000000+00:00</time></trkpt><trkpt lat="63.9905777" lon="-19.07627487"><ele>631.0</ele><time>2012-07-23T15:11:32.0000000+00:00</time></trkpt><trkpt lat="63.99058914" lon="-19.07640076"><ele>628.5</ele><time>2012-07-23T15:11:37.0000000+00:00</time></trkpt><trkpt lat="63.99057388" lon="-19.07652092"><ele>628.7</ele><time>2012-07-23T15:11:42.0000000+00:00</time></trkpt><trkpt lat="63.99058533" lon="-19.07662964"><ele>630.0</ele><time>2012-07-23T15:11:47.0000000+00:00</time></trkpt><trkpt lat="63.99059677" lon="-19.07672882"><ele>630.9</ele><time>2012-07-23T15:11:52.0000000+00:00</time></trkpt><trkpt lat="63.99063873" lon="-19.07674599"><ele>633.7</ele><time>2012-07-23T15:11:57.0000000+00:00</time></trkpt><trkpt lat="63.99065781" lon="-19.07681847"><ele>637.3</ele><time>2012-07-23T15:12:02.0000000+00:00</time></trkpt><trkpt lat="63.99068451" lon="-19.0768795"><ele>638.8</ele><time>2012-07-23T15:12:07.0000000+00:00</time></trkpt><trkpt lat="63.99069977" lon="-19.07699394"><ele>637.7</ele><time>2012-07-23T15:12:12.0000000+00:00</time></trkpt><trkpt lat="63.99071503" lon="-19.07706833"><ele>638.4</ele><time>2012-07-23T15:12:17.0000000+00:00</time></trkpt><trkpt lat="63.99072266" lon="-19.07719421"><ele>638.1</ele><time>2012-07-23T15:12:22.0000000+00:00</time></trkpt><trkpt lat="63.99071884" lon="-19.07730484"><ele>639.2</ele><time>2012-07-23T15:12:27.0000000+00:00</time></trkpt><trkpt lat="63.99070358" lon="-19.07742119"><ele>638.7</ele><time>2012-07-23T15:12:32.0000000+00:00</time></trkpt><trkpt lat="63.99069595" lon="-19.0775528"><ele>638.6</ele><time>2012-07-23T15:12:37.0000000+00:00</time></trkpt><trkpt lat="63.99066925" lon="-19.07768822"><ele>637.3</ele><time>2012-07-23T15:12:42.0000000+00:00</time></trkpt><trkpt lat="63.99065781" lon="-19.07780075"><ele>637.8</ele><time>2012-07-23T15:12:47.0000000+00:00</time></trkpt><trkpt lat="63.99065781" lon="-19.07790947"><ele>638.3</ele><time>2012-07-23T15:12:52.0000000+00:00</time></trkpt><trkpt lat="63.99063873" lon="-19.07802391"><ele>637.4</ele><time>2012-07-23T15:12:57.0000000+00:00</time></trkpt><trkpt lat="63.99063873" lon="-19.07812309"><ele>638.3</ele><time>2012-07-23T15:13:02.0000000+00:00</time></trkpt><trkpt lat="63.99064636" lon="-19.07821655"><ele>639.5</ele><time>2012-07-23T15:13:07.0000000+00:00</time></trkpt><trkpt lat="63.99065018" lon="-19.07832146"><ele>639.1</ele><time>2012-07-23T15:13:12.0000000+00:00</time></trkpt><trkpt lat="63.99066162" lon="-19.07844544"><ele>639.3</ele><time>2012-07-23T15:13:17.0000000+00:00</time></trkpt><trkpt lat="63.99064255" lon="-19.07858849"><ele>637.7</ele><time>2012-07-23T15:13:22.0000000+00:00</time></trkpt><trkpt lat="63.9906311" lon="-19.07869911"><ele>638.0</ele><time>2012-07-23T15:13:27.0000000+00:00</time></trkpt><trkpt lat="63.99061966" lon="-19.07880783"><ele>638.9</ele><time>2012-07-23T15:13:32.0000000+00:00</time></trkpt><trkpt lat="63.99062347" lon="-19.07889557"><ele>640.3</ele><time>2012-07-23T15:13:37.0000000+00:00</time></trkpt><trkpt lat="63.99062347" lon="-19.07903862"><ele>638.9</ele><time>2012-07-23T15:13:42.0000000+00:00</time></trkpt><trkpt lat="63.9906311" lon="-19.07917976"><ele>638.8</ele><time>2012-07-23T15:13:47.0000000+00:00</time></trkpt><trkpt lat="63.99061585" lon="-19.07930374"><ele>639.8</ele><time>2012-07-23T15:13:52.0000000+00:00</time></trkpt><trkpt lat="63.99060059" lon="-19.0793972"><ele>640.8</ele><time>2012-07-23T15:13:57.0000000+00:00</time></trkpt><trkpt lat="63.99059296" lon="-19.07953072"><ele>639.8</ele><time>2012-07-23T15:14:02.0000000+00:00</time></trkpt><trkpt lat="63.99056625" lon="-19.07964706"><ele>640.2</ele><time>2012-07-23T15:14:07.0000000+00:00</time></trkpt><trkpt lat="63.99052429" lon="-19.07975006"><ele>639.0</ele><time>2012-07-23T15:14:12.0000000+00:00</time></trkpt><trkpt lat="63.99049759" lon="-19.07984924"><ele>638.4</ele><time>2012-07-23T15:14:17.0000000+00:00</time></trkpt><trkpt lat="63.99048233" lon="-19.07995987"><ele>637.7</ele><time>2012-07-23T15:14:22.0000000+00:00</time></trkpt><trkpt lat="63.99050522" lon="-19.08008003"><ele>639.2</ele><time>2012-07-23T15:14:27.0000000+00:00</time></trkpt><trkpt lat="63.99052811" lon="-19.08018684"><ele>639.7</ele><time>2012-07-23T15:14:32.0000000+00:00</time></trkpt><trkpt lat="63.99051666" lon="-19.08028984"><ele>639.3</ele><time>2012-07-23T15:14:37.0000000+00:00</time></trkpt><trkpt lat="63.99051666" lon="-19.08042145"><ele>639.0</ele><time>2012-07-23T15:14:42.0000000+00:00</time></trkpt><trkpt lat="63.99053192" lon="-19.08054733"><ele>638.4</ele><time>2012-07-23T15:14:47.0000000+00:00</time></trkpt><trkpt lat="63.99056244" lon="-19.08063698"><ele>638.4</ele><time>2012-07-23T15:14:52.0000000+00:00</time></trkpt><trkpt lat="63.9905777" lon="-19.08069801"><ele>638.7</ele><time>2012-07-23T15:14:57.0000000+00:00</time></trkpt><trkpt lat="63.9905777" lon="-19.08069611"><ele>638.7</ele><time>2012-07-23T15:15:02.0000000+00:00</time></trkpt><trkpt lat="63.99058151" lon="-19.08078384"><ele>638.8</ele><time>2012-07-23T15:15:07.0000000+00:00</time></trkpt><trkpt lat="63.99058533" lon="-19.08086777"><ele>639.5</ele><time>2012-07-23T15:15:12.0000000+00:00</time></trkpt><trkpt lat="63.99061585" lon="-19.08094025"><ele>638.3</ele><time>2012-07-23T15:15:17.0000000+00:00</time></trkpt><trkpt lat="63.99063492" lon="-19.08109093"><ele>637.6</ele><time>2012-07-23T15:15:22.0000000+00:00</time></trkpt><trkpt lat="63.99065399" lon="-19.08122063"><ele>637.1</ele><time>2012-07-23T15:15:27.0000000+00:00</time></trkpt><trkpt lat="63.99064636" lon="-19.08133316"><ele>636.3</ele><time>2012-07-23T15:15:32.0000000+00:00</time></trkpt><trkpt lat="63.99065399" lon="-19.08147621"><ele>636.6</ele><time>2012-07-23T15:15:37.0000000+00:00</time></trkpt><trkpt lat="63.99063873" lon="-19.0816288"><ele>635.4</ele><time>2012-07-23T15:15:42.0000000+00:00</time></trkpt><trkpt lat="63.99062347" lon="-19.08176804"><ele>635.1</ele><time>2012-07-23T15:15:47.0000000+00:00</time></trkpt><trkpt lat="63.99061203" lon="-19.08190155"><ele>635.3</ele><time>2012-07-23T15:15:52.0000000+00:00</time></trkpt><trkpt lat="63.9906044" lon="-19.08203697"><ele>634.3</ele><time>2012-07-23T15:15:57.0000000+00:00</time></trkpt><trkpt lat="63.9905777" lon="-19.08214951"><ele>634.2</ele><time>2012-07-23T15:16:02.0000000+00:00</time></trkpt><trkpt lat="63.99058151" lon="-19.08229256"><ele>632.8</ele><time>2012-07-23T15:16:07.0000000+00:00</time></trkpt><trkpt lat="63.99059677" lon="-19.08240318"><ele>632.5</ele><time>2012-07-23T15:16:12.0000000+00:00</time></trkpt><trkpt lat="63.99061203" lon="-19.08254433"><ele>631.6</ele><time>2012-07-23T15:16:17.0000000+00:00</time></trkpt><trkpt lat="63.9906044" lon="-19.08267021"><ele>631.7</ele><time>2012-07-23T15:16:22.0000000+00:00</time></trkpt><trkpt lat="63.99060822" lon="-19.0827961"><ele>631.4</ele><time>2012-07-23T15:16:27.0000000+00:00</time></trkpt><trkpt lat="63.99062347" lon="-19.0829277"><ele>631.7</ele><time>2012-07-23T15:16:32.0000000+00:00</time></trkpt><trkpt lat="63.99061585" lon="-19.08308983"><ele>632.1</ele><time>2012-07-23T15:16:37.0000000+00:00</time></trkpt><trkpt lat="63.99058533" lon="-19.08325005"><ele>631.6</ele><time>2012-07-23T15:16:42.0000000+00:00</time></trkpt><trkpt lat="63.99057007" lon="-19.08338547"><ele>631.9</ele><time>2012-07-23T15:16:47.0000000+00:00</time></trkpt><trkpt lat="63.99058151" lon="-19.08353424"><ele>631.6</ele><time>2012-07-23T15:16:52.0000000+00:00</time></trkpt><trkpt lat="63.99058533" lon="-19.0836544"><ele>632.2</ele><time>2012-07-23T15:16:57.0000000+00:00</time></trkpt><trkpt lat="63.99056625" lon="-19.08377838"><ele>633.3</ele><time>2012-07-23T15:17:02.0000000+00:00</time></trkpt><trkpt lat="63.99059296" lon="-19.08387756"><ele>634.2</ele><time>2012-07-23T15:17:07.0000000+00:00</time></trkpt><trkpt lat="63.99062347" lon="-19.08400154"><ele>633.5</ele><time>2012-07-23T15:17:12.0000000+00:00</time></trkpt><trkpt lat="63.9906311" lon="-19.08416557"><ele>632.6</ele><time>2012-07-23T15:17:17.0000000+00:00</time></trkpt><trkpt lat="63.99061203" lon="-19.08429909"><ele>632.9</ele><time>2012-07-23T15:17:22.0000000+00:00</time></trkpt><trkpt lat="63.99055862" lon="-19.08441544"><ele>633.6</ele><time>2012-07-23T15:17:27.0000000+00:00</time></trkpt><trkpt lat="63.99051666" lon="-19.08449745"><ele>633.2</ele><time>2012-07-23T15:17:32.0000000+00:00</time></trkpt><trkpt lat="63.99047089" lon="-19.08457947"><ele>632.0</ele><time>2012-07-23T15:17:37.0000000+00:00</time></trkpt><trkpt lat="63.99043274" lon="-19.08464813"><ele>631.2</ele><time>2012-07-23T15:17:42.0000000+00:00</time></trkpt><trkpt lat="63.99038696" lon="-19.08472061"><ele>630.8</ele><time>2012-07-23T15:17:47.0000000+00:00</time></trkpt><trkpt lat="63.990345" lon="-19.08480072"><ele>629.8</ele><time>2012-07-23T15:17:52.0000000+00:00</time></trkpt><trkpt lat="63.99030685" lon="-19.08491325"><ele>628.6</ele><time>2012-07-23T15:17:57.0000000+00:00</time></trkpt><trkpt lat="63.99026871" lon="-19.08501053"><ele>628.3</ele><time>2012-07-23T15:18:02.0000000+00:00</time></trkpt><trkpt lat="63.99022675" lon="-19.08511734"><ele>627.7</ele><time>2012-07-23T15:18:07.0000000+00:00</time></trkpt><trkpt lat="63.99018097" lon="-19.08522415"><ele>626.8</ele><time>2012-07-23T15:18:12.0000000+00:00</time></trkpt><trkpt lat="63.99014282" lon="-19.08531189"><ele>626.1</ele><time>2012-07-23T15:18:17.0000000+00:00</time></trkpt><trkpt lat="63.99009705" lon="-19.08540154"><ele>624.7</ele><time>2012-07-23T15:18:22.0000000+00:00</time></trkpt><trkpt lat="63.9900589" lon="-19.08548927"><ele>624.4</ele><time>2012-07-23T15:18:27.0000000+00:00</time></trkpt><trkpt lat="63.99001694" lon="-19.08558846"><ele>623.0</ele><time>2012-07-23T15:18:32.0000000+00:00</time></trkpt><trkpt lat="63.98998642" lon="-19.08569908"><ele>621.9</ele><time>2012-07-23T15:18:37.0000000+00:00</time></trkpt><trkpt lat="63.98994064" lon="-19.0858078"><ele>620.6</ele><time>2012-07-23T15:18:42.0000000+00:00</time></trkpt><trkpt lat="63.98991776" lon="-19.08582497"><ele>620.0</ele><time>2012-07-23T15:18:47.0000000+00:00</time></trkpt><trkpt lat="63.98991394" lon="-19.08582687"><ele>620.0</ele><time>2012-07-23T15:18:52.0000000+00:00</time></trkpt><trkpt lat="63.98986435" lon="-19.08584976"><ele>619.8</ele><time>2012-07-23T15:18:57.0000000+00:00</time></trkpt><trkpt lat="63.98983383" lon="-19.0858593"><ele>619.5</ele><time>2012-07-23T15:19:02.0000000+00:00</time></trkpt><trkpt lat="63.98978424" lon="-19.08586693"><ele>619.2</ele><time>2012-07-23T15:19:07.0000000+00:00</time></trkpt><trkpt lat="63.98973846" lon="-19.08591843"><ele>619.0</ele><time>2012-07-23T15:19:12.0000000+00:00</time></trkpt><trkpt lat="63.98967743" lon="-19.08593178"><ele>619.6</ele><time>2012-07-23T15:19:17.0000000+00:00</time></trkpt><trkpt lat="63.98962021" lon="-19.08593178"><ele>620.4</ele><time>2012-07-23T15:19:22.0000000+00:00</time></trkpt><trkpt lat="63.98955536" lon="-19.08590508"><ele>620.6</ele><time>2012-07-23T15:19:27.0000000+00:00</time></trkpt><trkpt lat="63.98950577" lon="-19.08590126"><ele>620.8</ele><time>2012-07-23T15:19:32.0000000+00:00</time></trkpt><trkpt lat="63.98948669" lon="-19.08591461"><ele>620.5</ele><time>2012-07-23T15:19:37.0000000+00:00</time></trkpt><trkpt lat="63.98942566" lon="-19.08589172"><ele>620.3</ele><time>2012-07-23T15:19:42.0000000+00:00</time></trkpt><trkpt lat="63.98936462" lon="-19.08588982"><ele>620.4</ele><time>2012-07-23T15:19:47.0000000+00:00</time></trkpt><trkpt lat="63.9893074" lon="-19.08590126"><ele>620.2</ele><time>2012-07-23T15:19:52.0000000+00:00</time></trkpt><trkpt lat="63.98925018" lon="-19.08587647"><ele>620.5</ele><time>2012-07-23T15:19:57.0000000+00:00</time></trkpt><trkpt lat="63.98919296" lon="-19.08586884"><ele>620.1</ele><time>2012-07-23T15:20:02.0000000+00:00</time></trkpt><trkpt lat="63.98913574" lon="-19.08586884"><ele>620.4</ele><time>2012-07-23T15:20:07.0000000+00:00</time></trkpt><trkpt lat="63.98907852" lon="-19.08586502"><ele>620.5</ele><time>2012-07-23T15:20:12.0000000+00:00</time></trkpt><trkpt lat="63.9890213" lon="-19.08584786"><ele>621.1</ele><time>2012-07-23T15:20:17.0000000+00:00</time></trkpt><trkpt lat="63.98896027" lon="-19.08582687"><ele>621.0</ele><time>2012-07-23T15:20:22.0000000+00:00</time></trkpt><trkpt lat="63.98891068" lon="-19.08584023"><ele>620.8</ele><time>2012-07-23T15:20:27.0000000+00:00</time></trkpt><trkpt lat="63.98884583" lon="-19.08586121"><ele>621.7</ele><time>2012-07-23T15:20:32.0000000+00:00</time></trkpt><trkpt lat="63.98881912" lon="-19.08587074"><ele>620.7</ele><time>2012-07-23T15:20:37.0000000+00:00</time></trkpt><trkpt lat="63.98881531" lon="-19.0859375"><ele>619.9</ele><time>2012-07-23T15:20:42.0000000+00:00</time></trkpt><trkpt lat="63.98881149" lon="-19.08605766"><ele>619.2</ele><time>2012-07-23T15:20:47.0000000+00:00</time></trkpt><trkpt lat="63.98881149" lon="-19.08615494"><ele>618.8</ele><time>2012-07-23T15:20:52.0000000+00:00</time></trkpt><trkpt lat="63.98881149" lon="-19.08626938"><ele>618.9</ele><time>2012-07-23T15:20:57.0000000+00:00</time></trkpt><trkpt lat="63.98880386" lon="-19.08638573"><ele>618.6</ele><time>2012-07-23T15:21:02.0000000+00:00</time></trkpt><trkpt lat="63.98880005" lon="-19.08652878"><ele>618.4</ele><time>2012-07-23T15:21:07.0000000+00:00</time></trkpt><trkpt lat="63.98879242" lon="-19.08667374"><ele>618.1</ele><time>2012-07-23T15:21:12.0000000+00:00</time></trkpt><trkpt lat="63.98877716" lon="-19.08681297"><ele>617.6</ele><time>2012-07-23T15:21:17.0000000+00:00</time></trkpt><trkpt lat="63.98876953" lon="-19.0869236"><ele>617.5</ele><time>2012-07-23T15:21:22.0000000+00:00</time></trkpt><trkpt lat="63.98878098" lon="-19.08704186"><ele>616.4</ele><time>2012-07-23T15:21:27.0000000+00:00</time></trkpt><trkpt lat="63.98878479" lon="-19.08717918"><ele>616.6</ele><time>2012-07-23T15:21:32.0000000+00:00</time></trkpt><trkpt lat="63.98879242" lon="-19.08732414"><ele>616.1</ele><time>2012-07-23T15:21:37.0000000+00:00</time></trkpt><trkpt lat="63.98880005" lon="-19.08744431"><ele>615.6</ele><time>2012-07-23T15:21:42.0000000+00:00</time></trkpt><trkpt lat="63.98881149" lon="-19.08758354"><ele>615.3</ele><time>2012-07-23T15:21:47.0000000+00:00</time></trkpt><trkpt lat="63.98881531" lon="-19.08772659"><ele>615.5</ele><time>2012-07-23T15:21:52.0000000+00:00</time></trkpt><trkpt lat="63.98883057" lon="-19.08785629"><ele>615.6</ele><time>2012-07-23T15:21:57.0000000+00:00</time></trkpt><trkpt lat="63.98884964" lon="-19.08798599"><ele>615.8</ele><time>2012-07-23T15:22:02.0000000+00:00</time></trkpt><trkpt lat="63.98887253" lon="-19.08811569"><ele>615.9</ele><time>2012-07-23T15:22:07.0000000+00:00</time></trkpt><trkpt lat="63.98889542" lon="-19.08826256"><ele>616.1</ele><time>2012-07-23T15:22:12.0000000+00:00</time></trkpt><trkpt lat="63.98892212" lon="-19.08838844"><ele>616.1</ele><time>2012-07-23T15:22:17.0000000+00:00</time></trkpt><trkpt lat="63.98894119" lon="-19.08854103"><ele>615.7</ele><time>2012-07-23T15:22:22.0000000+00:00</time></trkpt><trkpt lat="63.98895645" lon="-19.08868218"><ele>615.0</ele><time>2012-07-23T15:22:27.0000000+00:00</time></trkpt><trkpt lat="63.98898697" lon="-19.08880425"><ele>614.8</ele><time>2012-07-23T15:22:32.0000000+00:00</time></trkpt><trkpt lat="63.98900604" lon="-19.08893967"><ele>615.5</ele><time>2012-07-23T15:22:37.0000000+00:00</time></trkpt><trkpt lat="63.98901367" lon="-19.08909035"><ele>615.4</ele><time>2012-07-23T15:22:42.0000000+00:00</time></trkpt><trkpt lat="63.98902893" lon="-19.08922386"><ele>615.2</ele><time>2012-07-23T15:22:47.0000000+00:00</time></trkpt><trkpt lat="63.98906326" lon="-19.08932495"><ele>615.0</ele><time>2012-07-23T15:22:52.0000000+00:00</time></trkpt><trkpt lat="63.98910141" lon="-19.08942413"><ele>614.7</ele><time>2012-07-23T15:22:57.0000000+00:00</time></trkpt><trkpt lat="63.98913193" lon="-19.0895195"><ele>614.2</ele><time>2012-07-23T15:23:02.0000000+00:00</time></trkpt><trkpt lat="63.98915482" lon="-19.08957291"><ele>614.1</ele><time>2012-07-23T15:23:07.0000000+00:00</time></trkpt><trkpt lat="63.989151" lon="-19.08957481"><ele>614.1</ele><time>2012-07-23T15:23:12.0000000+00:00</time></trkpt><trkpt lat="63.98918915" lon="-19.08964539"><ele>614.6</ele><time>2012-07-23T15:23:17.0000000+00:00</time></trkpt><trkpt lat="63.98923874" lon="-19.08973503"><ele>615.3</ele><time>2012-07-23T15:23:22.0000000+00:00</time></trkpt><trkpt lat="63.98929977" lon="-19.08978081"><ele>615.6</ele><time>2012-07-23T15:23:27.0000000+00:00</time></trkpt><trkpt lat="63.989357" lon="-19.08979607"><ele>615.4</ele><time>2012-07-23T15:23:32.0000000+00:00</time></trkpt><trkpt lat="63.98942184" lon="-19.08981895"><ele>615.6</ele><time>2012-07-23T15:23:37.0000000+00:00</time></trkpt><trkpt lat="63.98947525" lon="-19.08987045"><ele>616.6</ele><time>2012-07-23T15:23:42.0000000+00:00</time></trkpt><trkpt lat="63.9895134" lon="-19.08989334"><ele>617.4</ele><time>2012-07-23T15:23:47.0000000+00:00</time></trkpt><trkpt lat="63.98957062" lon="-19.0899086"><ele>617.9</ele><time>2012-07-23T15:23:52.0000000+00:00</time></trkpt><trkpt lat="63.98960495" lon="-19.0899086"><ele>619.0</ele><time>2012-07-23T15:23:57.0000000+00:00</time></trkpt><trkpt lat="63.98963928" lon="-19.08991242"><ele>619.5</ele><time>2012-07-23T15:24:02.0000000+00:00</time></trkpt><trkpt lat="63.98970032" lon="-19.08993912"><ele>620.1</ele><time>2012-07-23T15:24:07.0000000+00:00</time></trkpt><trkpt lat="63.98974228" lon="-19.08998871"><ele>620.3</ele><time>2012-07-23T15:24:12.0000000+00:00</time></trkpt><trkpt lat="63.98978806" lon="-19.09003067"><ele>620.7</ele><time>2012-07-23T15:24:17.0000000+00:00</time></trkpt><trkpt lat="63.98983002" lon="-19.09006691"><ele>621.0</ele><time>2012-07-23T15:24:22.0000000+00:00</time></trkpt><trkpt lat="63.98988342" lon="-19.09011841"><ele>621.3</ele><time>2012-07-23T15:24:27.0000000+00:00</time></trkpt><trkpt lat="63.98994064" lon="-19.09017563"><ele>621.8</ele><time>2012-07-23T15:24:32.0000000+00:00</time></trkpt><trkpt lat="63.98999405" lon="-19.0902195"><ele>622.1</ele><time>2012-07-23T15:24:37.0000000+00:00</time></trkpt><trkpt lat="63.99003601" lon="-19.09028435"><ele>621.7</ele><time>2012-07-23T15:24:42.0000000+00:00</time></trkpt><trkpt lat="63.9900589" lon="-19.09040451"><ele>621.5</ele><time>2012-07-23T15:24:47.0000000+00:00</time></trkpt><trkpt lat="63.99008942" lon="-19.09049988"><ele>621.4</ele><time>2012-07-23T15:24:52.0000000+00:00</time></trkpt><trkpt lat="63.99009323" lon="-19.09051514"><ele>623.0</ele><time>2012-07-23T15:24:57.0000000+00:00</time></trkpt><trkpt lat="63.99010468" lon="-19.09056282"><ele>623.0</ele><time>2012-07-23T15:25:02.0000000+00:00</time></trkpt><trkpt lat="63.99012756" lon="-19.09066963"><ele>622.3</ele><time>2012-07-23T15:25:07.0000000+00:00</time></trkpt><trkpt lat="63.99014282" lon="-19.09077835"><ele>622.2</ele><time>2012-07-23T15:25:12.0000000+00:00</time></trkpt><trkpt lat="63.99015808" lon="-19.0908699"><ele>622.1</ele><time>2012-07-23T15:25:17.0000000+00:00</time></trkpt><trkpt lat="63.99016571" lon="-19.09098434"><ele>621.0</ele><time>2012-07-23T15:25:22.0000000+00:00</time></trkpt><trkpt lat="63.9901619" lon="-19.0911274"><ele>620.0</ele><time>2012-07-23T15:25:27.0000000+00:00</time></trkpt><trkpt lat="63.99016571" lon="-19.09125519"><ele>619.2</ele><time>2012-07-23T15:25:32.0000000+00:00</time></trkpt><trkpt lat="63.99016571" lon="-19.09137154"><ele>618.4</ele><time>2012-07-23T15:25:37.0000000+00:00</time></trkpt><trkpt lat="63.9901619" lon="-19.09150505"><ele>618.8</ele><time>2012-07-23T15:25:42.0000000+00:00</time></trkpt><trkpt lat="63.99016953" lon="-19.09163094"><ele>618.8</ele><time>2012-07-23T15:25:47.0000000+00:00</time></trkpt><trkpt lat="63.99015808" lon="-19.0917778"><ele>618.3</ele><time>2012-07-23T15:25:52.0000000+00:00</time></trkpt><trkpt lat="63.99012756" lon="-19.09189796"><ele>618.6</ele><time>2012-07-23T15:25:57.0000000+00:00</time></trkpt><trkpt lat="63.99009705" lon="-19.09199524"><ele>619.0</ele><time>2012-07-23T15:26:02.0000000+00:00</time></trkpt><trkpt lat="63.99006653" lon="-19.0921154"><ele>619.0</ele><time>2012-07-23T15:26:07.0000000+00:00</time></trkpt><trkpt lat="63.9900322" lon="-19.09222221"><ele>620.2</ele><time>2012-07-23T15:26:12.0000000+00:00</time></trkpt><trkpt lat="63.98999405" lon="-19.0922966"><ele>620.6</ele><time>2012-07-23T15:26:17.0000000+00:00</time></trkpt><trkpt lat="63.98998261" lon="-19.09229851"><ele>620.8</ele><time>2012-07-23T15:26:22.0000000+00:00</time></trkpt><trkpt lat="63.98996353" lon="-19.09235573"><ele>620.8</ele><time>2012-07-23T15:26:27.0000000+00:00</time></trkpt><trkpt lat="63.98992539" lon="-19.092453"><ele>621.3</ele><time>2012-07-23T15:26:32.0000000+00:00</time></trkpt><trkpt lat="63.9899025" lon="-19.09254646"><ele>621.0</ele><time>2012-07-23T15:26:37.0000000+00:00</time></trkpt><trkpt lat="63.98987579" lon="-19.09267807"><ele>620.3</ele><time>2012-07-23T15:26:42.0000000+00:00</time></trkpt><trkpt lat="63.98987198" lon="-19.09280777"><ele>620.3</ele><time>2012-07-23T15:26:47.0000000+00:00</time></trkpt><trkpt lat="63.98986816" lon="-19.0928669"><ele>620.3</ele><time>2012-07-23T15:26:52.0000000+00:00</time></trkpt><trkpt lat="63.98987198" lon="-19.09289169"><ele>620.4</ele><time>2012-07-23T15:26:57.0000000+00:00</time></trkpt><trkpt lat="63.98987961" lon="-19.09298325"><ele>620.1</ele><time>2012-07-23T15:27:02.0000000+00:00</time></trkpt><trkpt lat="63.98988724" lon="-19.09309006"><ele>620.3</ele><time>2012-07-23T15:27:07.0000000+00:00</time></trkpt><trkpt lat="63.98992157" lon="-19.09320259"><ele>620.9</ele><time>2012-07-23T15:27:12.0000000+00:00</time></trkpt><trkpt lat="63.9899559" lon="-19.09329224"><ele>620.7</ele><time>2012-07-23T15:27:17.0000000+00:00</time></trkpt><trkpt lat="63.99000549" lon="-19.09336662"><ele>620.0</ele><time>2012-07-23T15:27:22.0000000+00:00</time></trkpt><trkpt lat="63.99006653" lon="-19.09342194"><ele>620.1</ele><time>2012-07-23T15:27:27.0000000+00:00</time></trkpt><trkpt lat="63.99011993" lon="-19.0934906"><ele>620.6</ele><time>2012-07-23T15:27:32.0000000+00:00</time></trkpt><trkpt lat="63.99016571" lon="-19.09353828"><ele>621.0</ele><time>2012-07-23T15:27:37.0000000+00:00</time></trkpt><trkpt lat="63.9902153" lon="-19.09360695"><ele>621.2</ele><time>2012-07-23T15:27:42.0000000+00:00</time></trkpt><trkpt lat="63.99025726" lon="-19.09368897"><ele>621.0</ele><time>2012-07-23T15:27:47.0000000+00:00</time></trkpt><trkpt lat="63.99026108" lon="-19.09369278"><ele>620.7</ele><time>2012-07-23T15:27:52.0000000+00:00</time></trkpt><trkpt lat="63.99026489" lon="-19.09370041"><ele>620.6</ele><time>2012-07-23T15:27:57.0000000+00:00</time></trkpt><trkpt lat="63.99026489" lon="-19.09370041"><ele>620.6</ele><time>2012-07-23T15:28:02.0000000+00:00</time></trkpt><trkpt lat="63.99026489" lon="-19.09370041"><ele>620.6</ele><time>2012-07-23T15:28:07.0000000+00:00</time></trkpt><trkpt lat="63.99027634" lon="-19.09376335"><ele>621.4</ele><time>2012-07-23T15:28:12.0000000+00:00</time></trkpt><trkpt lat="63.99028015" lon="-19.09390259"><ele>621.9</ele><time>2012-07-23T15:28:17.0000000+00:00</time></trkpt><trkpt lat="63.99028778" lon="-19.09401894"><ele>622.3</ele><time>2012-07-23T15:28:22.0000000+00:00</time></trkpt><trkpt lat="63.99029541" lon="-19.09416199"><ele>622.1</ele><time>2012-07-23T15:28:27.0000000+00:00</time></trkpt><trkpt lat="63.99029541" lon="-19.09431458"><ele>621.7</ele><time>2012-07-23T15:28:32.0000000+00:00</time></trkpt><trkpt lat="63.99029541" lon="-19.09441948"><ele>621.6</ele><time>2012-07-23T15:28:37.0000000+00:00</time></trkpt><trkpt lat="63.99030685" lon="-19.09454155"><ele>621.0</ele><time>2012-07-23T15:28:42.0000000+00:00</time></trkpt><trkpt lat="63.99031448" lon="-19.09467125"><ele>620.2</ele><time>2012-07-23T15:28:47.0000000+00:00</time></trkpt><trkpt lat="63.9903183" lon="-19.09482384"><ele>619.2</ele><time>2012-07-23T15:28:52.0000000+00:00</time></trkpt><trkpt lat="63.9903183" lon="-19.09494591"><ele>620.7</ele><time>2012-07-23T15:28:57.0000000+00:00</time></trkpt><trkpt lat="63.99032593" lon="-19.09506035"><ele>621.5</ele><time>2012-07-23T15:29:02.0000000+00:00</time></trkpt><trkpt lat="63.99032211" lon="-19.09514427"><ele>623.8</ele><time>2012-07-23T15:29:07.0000000+00:00</time></trkpt><trkpt lat="63.99033737" lon="-19.09523392"><ele>623.1</ele><time>2012-07-23T15:29:12.0000000+00:00</time></trkpt><trkpt lat="63.99034119" lon="-19.09531021"><ele>624.4</ele><time>2012-07-23T15:29:17.0000000+00:00</time></trkpt><trkpt lat="63.99035645" lon="-19.09540939"><ele>624.2</ele><time>2012-07-23T15:29:22.0000000+00:00</time></trkpt><trkpt lat="63.99036408" lon="-19.09554482"><ele>623.0</ele><time>2012-07-23T15:29:27.0000000+00:00</time></trkpt><trkpt lat="63.9903717" lon="-19.09567261"><ele>622.7</ele><time>2012-07-23T15:29:32.0000000+00:00</time></trkpt><trkpt lat="63.99039078" lon="-19.09579659"><ele>622.5</ele><time>2012-07-23T15:29:37.0000000+00:00</time></trkpt><trkpt lat="63.99040604" lon="-19.09589386"><ele>622.3</ele><time>2012-07-23T15:29:42.0000000+00:00</time></trkpt><trkpt lat="63.99040604" lon="-19.09592819"><ele>623.0</ele><time>2012-07-23T15:29:47.0000000+00:00</time></trkpt><trkpt lat="63.99039078" lon="-19.09597397"><ele>624.2</ele><time>2012-07-23T15:29:52.0000000+00:00</time></trkpt><trkpt lat="63.99038696" lon="-19.09601975"><ele>625.1</ele><time>2012-07-23T15:29:57.0000000+00:00</time></trkpt><trkpt lat="63.99037552" lon="-19.09600258"><ele>624.6</ele><time>2012-07-23T15:30:02.0000000+00:00</time></trkpt><trkpt lat="63.99037552" lon="-19.09594917"><ele>623.9</ele><time>2012-07-23T15:30:07.0000000+00:00</time></trkpt><trkpt lat="63.99039459" lon="-19.096035"><ele>624.3</ele><time>2012-07-23T15:30:12.0000000+00:00</time></trkpt><trkpt lat="63.99040604" lon="-19.09613609"><ele>624.9</ele><time>2012-07-23T15:30:17.0000000+00:00</time></trkpt><trkpt lat="63.99041367" lon="-19.09624481"><ele>624.9</ele><time>2012-07-23T15:30:22.0000000+00:00</time></trkpt><trkpt lat="63.99041367" lon="-19.09634209"><ele>625.7</ele><time>2012-07-23T15:30:27.0000000+00:00</time></trkpt><trkpt lat="63.99040985" lon="-19.09645462"><ele>625.9</ele><time>2012-07-23T15:30:32.0000000+00:00</time></trkpt><trkpt lat="63.99041367" lon="-19.09657097"><ele>625.7</ele><time>2012-07-23T15:30:37.0000000+00:00</time></trkpt><trkpt lat="63.99042511" lon="-19.0966816"><ele>625.6</ele><time>2012-07-23T15:30:42.0000000+00:00</time></trkpt><trkpt lat="63.99043274" lon="-19.09683228"><ele>622.9</ele><time>2012-07-23T15:30:47.0000000+00:00</time></trkpt><trkpt lat="63.99044037" lon="-19.09694672"><ele>623.9</ele><time>2012-07-23T15:30:52.0000000+00:00</time></trkpt><trkpt lat="63.99044037" lon="-19.09704399"><ele>624.4</ele><time>2012-07-23T15:30:57.0000000+00:00</time></trkpt><trkpt lat="63.99044037" lon="-19.09711838"><ele>625.2</ele><time>2012-07-23T15:31:02.0000000+00:00</time></trkpt><trkpt lat="63.99044418" lon="-19.09717178"><ele>624.6</ele><time>2012-07-23T15:31:07.0000000+00:00</time></trkpt><trkpt lat="63.99045563" lon="-19.09725761"><ele>624.8</ele><time>2012-07-23T15:31:12.0000000+00:00</time></trkpt><trkpt lat="63.9904747" lon="-19.09736633"><ele>624.3</ele><time>2012-07-23T15:31:17.0000000+00:00</time></trkpt><trkpt lat="63.99049377" lon="-19.09743118"><ele>623.3</ele><time>2012-07-23T15:31:22.0000000+00:00</time></trkpt><trkpt lat="63.99052811" lon="-19.09756088"><ele>622.9</ele><time>2012-07-23T15:31:27.0000000+00:00</time></trkpt><trkpt lat="63.990551" lon="-19.0976696"><ele>623.1</ele><time>2012-07-23T15:31:32.0000000+00:00</time></trkpt><trkpt lat="63.9905777" lon="-19.0977726"><ele>624.0</ele><time>2012-07-23T15:31:37.0000000+00:00</time></trkpt><trkpt lat="63.99059677" lon="-19.09786034"><ele>624.2</ele><time>2012-07-23T15:31:42.0000000+00:00</time></trkpt><trkpt lat="63.99058533" lon="-19.09786987"><ele>623.4</ele><time>2012-07-23T15:31:47.0000000+00:00</time></trkpt><trkpt lat="63.99059296" lon="-19.09784317"><ele>622.6</ele><time>2012-07-23T15:31:52.0000000+00:00</time></trkpt><trkpt lat="63.99062347" lon="-19.09786224"><ele>622.5</ele><time>2012-07-23T15:31:57.0000000+00:00</time></trkpt><trkpt lat="63.99066162" lon="-19.09790039"><ele>622.9</ele><time>2012-07-23T15:32:02.0000000+00:00</time></trkpt><trkpt lat="63.99067688" lon="-19.09798813"><ele>623.8</ele><time>2012-07-23T15:32:07.0000000+00:00</time></trkpt><trkpt lat="63.99071884" lon="-19.09808731"><ele>624.7</ele><time>2012-07-23T15:32:12.0000000+00:00</time></trkpt><trkpt lat="63.99075317" lon="-19.09816933"><ele>625.7</ele><time>2012-07-23T15:32:17.0000000+00:00</time></trkpt><trkpt lat="63.99079514" lon="-19.09825707"><ele>626.9</ele><time>2012-07-23T15:32:22.0000000+00:00</time></trkpt><trkpt lat="63.99082947" lon="-19.09835625"><ele>627.6</ele><time>2012-07-23T15:32:27.0000000+00:00</time></trkpt><trkpt lat="63.99088669" lon="-19.09839058"><ele>627.9</ele><time>2012-07-23T15:32:32.0000000+00:00</time></trkpt><trkpt lat="63.99093247" lon="-19.09841919"><ele>628.1</ele><time>2012-07-23T15:32:37.0000000+00:00</time></trkpt><trkpt lat="63.99098206" lon="-19.098526"><ele>628.5</ele><time>2012-07-23T15:32:42.0000000+00:00</time></trkpt><trkpt lat="63.99102783" lon="-19.09862709"><ele>628.4</ele><time>2012-07-23T15:32:47.0000000+00:00</time></trkpt><trkpt lat="63.99108124" lon="-19.09871674"><ele>629.0</ele><time>2012-07-23T15:32:52.0000000+00:00</time></trkpt><trkpt lat="63.99113846" lon="-19.09879494"><ele>628.9</ele><time>2012-07-23T15:32:57.0000000+00:00</time></trkpt><trkpt lat="63.99118424" lon="-19.09887886"><ele>629.1</ele><time>2012-07-23T15:33:02.0000000+00:00</time></trkpt><trkpt lat="63.99123001" lon="-19.09897041"><ele>628.5</ele><time>2012-07-23T15:33:07.0000000+00:00</time></trkpt><trkpt lat="63.99127579" lon="-19.09904099"><ele>628.3</ele><time>2012-07-23T15:33:12.0000000+00:00</time></trkpt><trkpt lat="63.99132156" lon="-19.09911728"><ele>628.8</ele><time>2012-07-23T15:33:17.0000000+00:00</time></trkpt><trkpt lat="63.99137497" lon="-19.0992012"><ele>628.9</ele><time>2012-07-23T15:33:22.0000000+00:00</time></trkpt><trkpt lat="63.99142075" lon="-19.09928513"><ele>628.8</ele><time>2012-07-23T15:33:27.0000000+00:00</time></trkpt><trkpt lat="63.99147797" lon="-19.09938431"><ele>628.8</ele><time>2012-07-23T15:33:32.0000000+00:00</time></trkpt><trkpt lat="63.99151611" lon="-19.09945869"><ele>628.7</ele><time>2012-07-23T15:33:37.0000000+00:00</time></trkpt><trkpt lat="63.9915657" lon="-19.09952545"><ele>628.9</ele><time>2012-07-23T15:33:42.0000000+00:00</time></trkpt><trkpt lat="63.99160767" lon="-19.09959984"><ele>629.6</ele><time>2012-07-23T15:33:47.0000000+00:00</time></trkpt><trkpt lat="63.99163818" lon="-19.09965897"><ele>630.5</ele><time>2012-07-23T15:33:52.0000000+00:00</time></trkpt><trkpt lat="63.99164581" lon="-19.09966278"><ele>629.5</ele><time>2012-07-23T15:33:57.0000000+00:00</time></trkpt><trkpt lat="63.99164581" lon="-19.09966278"><ele>629.4</ele><time>2012-07-23T15:34:02.0000000+00:00</time></trkpt><trkpt lat="63.99169922" lon="-19.09976006"><ele>629.0</ele><time>2012-07-23T15:34:07.0000000+00:00</time></trkpt><trkpt lat="63.991745" lon="-19.09985352"><ele>628.5</ele><time>2012-07-23T15:34:12.0000000+00:00</time></trkpt><trkpt lat="63.99177551" lon="-19.09993362"><ele>627.6</ele><time>2012-07-23T15:34:17.0000000+00:00</time></trkpt><trkpt lat="63.99179077" lon="-19.1000309"><ele>627.4</ele><time>2012-07-23T15:34:22.0000000+00:00</time></trkpt><trkpt lat="63.99180985" lon="-19.1001339"><ele>627.5</ele><time>2012-07-23T15:34:27.0000000+00:00</time></trkpt><trkpt lat="63.99184799" lon="-19.10019493"><ele>628.0</ele><time>2012-07-23T15:34:32.0000000+00:00</time></trkpt><trkpt lat="63.99188232" lon="-19.10026741"><ele>628.6</ele><time>2012-07-23T15:34:37.0000000+00:00</time></trkpt><trkpt lat="63.99190521" lon="-19.10035896"><ele>627.1</ele><time>2012-07-23T15:34:42.0000000+00:00</time></trkpt><trkpt lat="63.99192047" lon="-19.10045815"><ele>626.6</ele><time>2012-07-23T15:34:47.0000000+00:00</time></trkpt><trkpt lat="63.99193192" lon="-19.10057068"><ele>625.8</ele><time>2012-07-23T15:34:52.0000000+00:00</time></trkpt><trkpt lat="63.99193955" lon="-19.10069275"><ele>626.5</ele><time>2012-07-23T15:34:57.0000000+00:00</time></trkpt><trkpt lat="63.99195099" lon="-19.1008091"><ele>627.1</ele><time>2012-07-23T15:35:02.0000000+00:00</time></trkpt><trkpt lat="63.99197769" lon="-19.100914"><ele>626.7</ele><time>2012-07-23T15:35:07.0000000+00:00</time></trkpt><trkpt lat="63.99200058" lon="-19.10101128"><ele>626.5</ele><time>2012-07-23T15:35:12.0000000+00:00</time></trkpt><trkpt lat="63.99202728" lon="-19.10107803"><ele>626.9</ele><time>2012-07-23T15:35:17.0000000+00:00</time></trkpt><trkpt lat="63.99204636" lon="-19.10117149"><ele>627.3</ele><time>2012-07-23T15:35:22.0000000+00:00</time></trkpt><trkpt lat="63.99207687" lon="-19.10126114"><ele>627.8</ele><time>2012-07-23T15:35:27.0000000+00:00</time></trkpt><trkpt lat="63.99209976" lon="-19.10136604"><ele>627.6</ele><time>2012-07-23T15:35:32.0000000+00:00</time></trkpt><trkpt lat="63.99212265" lon="-19.10147286"><ele>627.4</ele><time>2012-07-23T15:35:37.0000000+00:00</time></trkpt><trkpt lat="63.99214554" lon="-19.10158348"><ele>626.9</ele><time>2012-07-23T15:35:42.0000000+00:00</time></trkpt><trkpt lat="63.99217987" lon="-19.10170364"><ele>625.6</ele><time>2012-07-23T15:35:47.0000000+00:00</time></trkpt><trkpt lat="63.99219513" lon="-19.10182571"><ele>624.7</ele><time>2012-07-23T15:35:52.0000000+00:00</time></trkpt><trkpt lat="63.9922142" lon="-19.10193253"><ele>624.8</ele><time>2012-07-23T15:35:57.0000000+00:00</time></trkpt><trkpt lat="63.99224091" lon="-19.10202789"><ele>624.8</ele><time>2012-07-23T15:36:02.0000000+00:00</time></trkpt><trkpt lat="63.99225998" lon="-19.10207939"><ele>624.5</ele><time>2012-07-23T15:36:07.0000000+00:00</time></trkpt><trkpt lat="63.99227905" lon="-19.1021843"><ele>624.3</ele><time>2012-07-23T15:36:12.0000000+00:00</time></trkpt><trkpt lat="63.99227524" lon="-19.10224152"><ele>623.8</ele><time>2012-07-23T15:36:17.0000000+00:00</time></trkpt><trkpt lat="63.99227524" lon="-19.10224342"><ele>623.9</ele><time>2012-07-23T15:36:22.0000000+00:00</time></trkpt><trkpt lat="63.99227524" lon="-19.10224342"><ele>623.8</ele><time>2012-07-23T15:36:27.0000000+00:00</time></trkpt><trkpt lat="63.99227524" lon="-19.10224533"><ele>623.8</ele><time>2012-07-23T15:36:32.0000000+00:00</time></trkpt><trkpt lat="63.99227524" lon="-19.10224533"><ele>623.8</ele><time>2012-07-23T15:36:37.0000000+00:00</time></trkpt><trkpt lat="63.99227524" lon="-19.10224533"><ele>623.9</ele><time>2012-07-23T15:36:42.0000000+00:00</time></trkpt><trkpt lat="63.99227524" lon="-19.10223961"><ele>623.5</ele><time>2012-07-23T15:36:47.0000000+00:00</time></trkpt><trkpt lat="63.99228287" lon="-19.10223007"><ele>623.5</ele><time>2012-07-23T15:36:52.0000000+00:00</time></trkpt><trkpt lat="63.99228287" lon="-19.10223007"><ele>623.4</ele><time>2012-07-23T15:36:57.0000000+00:00</time></trkpt><trkpt lat="63.99228287" lon="-19.10223007"><ele>623.4</ele><time>2012-07-23T15:37:02.0000000+00:00</time></trkpt><trkpt lat="63.99228287" lon="-19.10223007"><ele>623.4</ele><time>2012-07-23T15:37:07.0000000+00:00</time></trkpt><trkpt lat="63.99228287" lon="-19.10223007"><ele>623.4</ele><time>2012-07-23T15:37:12.0000000+00:00</time></trkpt><trkpt lat="63.99228287" lon="-19.10223007"><ele>623.4</ele><time>2012-07-23T15:37:17.0000000+00:00</time></trkpt><trkpt lat="63.99228287" lon="-19.10223007"><ele>623.4</ele><time>2012-07-23T15:37:22.0000000+00:00</time></trkpt><trkpt lat="63.99228668" lon="-19.10227203"><ele>623.8</ele><time>2012-07-23T15:37:27.0000000+00:00</time></trkpt><trkpt lat="63.99230576" lon="-19.1023922"><ele>623.5</ele><time>2012-07-23T15:37:32.0000000+00:00</time></trkpt><trkpt lat="63.99231339" lon="-19.10251999"><ele>623.0</ele><time>2012-07-23T15:37:37.0000000+00:00</time></trkpt><trkpt lat="63.99234009" lon="-19.10262299"><ele>622.9</ele><time>2012-07-23T15:37:42.0000000+00:00</time></trkpt><trkpt lat="63.99236679" lon="-19.10272408"><ele>623.2</ele><time>2012-07-23T15:37:47.0000000+00:00</time></trkpt><trkpt lat="63.99238586" lon="-19.10282326"><ele>623.5</ele><time>2012-07-23T15:37:52.0000000+00:00</time></trkpt><trkpt lat="63.99241638" lon="-19.1029377"><ele>623.0</ele><time>2012-07-23T15:37:57.0000000+00:00</time></trkpt><trkpt lat="63.99243927" lon="-19.10302162"><ele>623.3</ele><time>2012-07-23T15:38:02.0000000+00:00</time></trkpt><trkpt lat="63.99245453" lon="-19.10309601"><ele>622.3</ele><time>2012-07-23T15:38:07.0000000+00:00</time></trkpt><trkpt lat="63.99246979" lon="-19.10315704"><ele>622.9</ele><time>2012-07-23T15:38:12.0000000+00:00</time></trkpt><trkpt lat="63.99248505" lon="-19.10327148"><ele>622.2</ele><time>2012-07-23T15:38:17.0000000+00:00</time></trkpt><trkpt lat="63.99251938" lon="-19.10336685"><ele>622.4</ele><time>2012-07-23T15:38:22.0000000+00:00</time></trkpt><trkpt lat="63.99254227" lon="-19.10346222"><ele>622.5</ele><time>2012-07-23T15:38:27.0000000+00:00</time></trkpt><trkpt lat="63.99256134" lon="-19.10356903"><ele>622.6</ele><time>2012-07-23T15:38:32.0000000+00:00</time></trkpt><trkpt lat="63.99258423" lon="-19.10365105"><ele>622.1</ele><time>2012-07-23T15:38:37.0000000+00:00</time></trkpt><trkpt lat="63.99262619" lon="-19.10375214"><ele>622.9</ele><time>2012-07-23T15:38:42.0000000+00:00</time></trkpt><trkpt lat="63.99264145" lon="-19.10383797"><ele>623.6</ele><time>2012-07-23T15:38:47.0000000+00:00</time></trkpt><trkpt lat="63.99265671" lon="-19.10395432"><ele>622.7</ele><time>2012-07-23T15:38:52.0000000+00:00</time></trkpt><trkpt lat="63.99268341" lon="-19.10403633"><ele>623.1</ele><time>2012-07-23T15:38:57.0000000+00:00</time></trkpt><trkpt lat="63.99271011" lon="-19.10413742"><ele>623.2</ele><time>2012-07-23T15:39:02.0000000+00:00</time></trkpt><trkpt lat="63.99274445" lon="-19.10418892"><ele>623.5</ele><time>2012-07-23T15:39:07.0000000+00:00</time></trkpt><trkpt lat="63.99278259" lon="-19.10427856"><ele>623.5</ele><time>2012-07-23T15:39:12.0000000+00:00</time></trkpt><trkpt lat="63.99281693" lon="-19.10435867"><ele>624.3</ele><time>2012-07-23T15:39:17.0000000+00:00</time></trkpt><trkpt lat="63.99285507" lon="-19.10445404"><ele>624.6</ele><time>2012-07-23T15:39:22.0000000+00:00</time></trkpt><trkpt lat="63.99289703" lon="-19.10452843"><ele>624.7</ele><time>2012-07-23T15:39:27.0000000+00:00</time></trkpt><trkpt lat="63.99293137" lon="-19.10461426"><ele>624.4</ele><time>2012-07-23T15:39:32.0000000+00:00</time></trkpt><trkpt lat="63.9929657" lon="-19.10472298"><ele>623.6</ele><time>2012-07-23T15:39:37.0000000+00:00</time></trkpt><trkpt lat="63.99300003" lon="-19.10482407"><ele>623.9</ele><time>2012-07-23T15:39:42.0000000+00:00</time></trkpt><trkpt lat="63.99301529" lon="-19.10491562"><ele>624.5</ele><time>2012-07-23T15:39:47.0000000+00:00</time></trkpt><trkpt lat="63.99301529" lon="-19.10502434"><ele>625.4</ele><time>2012-07-23T15:39:52.0000000+00:00</time></trkpt><trkpt lat="63.99301529" lon="-19.10515213"><ele>625.5</ele><time>2012-07-23T15:39:57.0000000+00:00</time></trkpt><trkpt lat="63.99301529" lon="-19.10529137"><ele>626.1</ele><time>2012-07-23T15:40:02.0000000+00:00</time></trkpt><trkpt lat="63.99304199" lon="-19.10527802"><ele>626.0</ele><time>2012-07-23T15:40:07.0000000+00:00</time></trkpt><trkpt lat="63.99304581" lon="-19.10524559"><ele>626.0</ele><time>2012-07-23T15:40:12.0000000+00:00</time></trkpt><trkpt lat="63.99307251" lon="-19.10523224"><ele>625.9</ele><time>2012-07-23T15:40:17.0000000+00:00</time></trkpt><trkpt lat="63.99307632" lon="-19.10526085"><ele>626.6</ele><time>2012-07-23T15:40:22.0000000+00:00</time></trkpt><trkpt lat="63.9930687" lon="-19.10527039"><ele>626.8</ele><time>2012-07-23T15:40:27.0000000+00:00</time></trkpt><trkpt lat="63.99306107" lon="-19.1052742"><ele>627.0</ele><time>2012-07-23T15:40:32.0000000+00:00</time></trkpt><trkpt lat="63.99304581" lon="-19.10524941"><ele>626.7</ele><time>2012-07-23T15:40:37.0000000+00:00</time></trkpt><trkpt lat="63.99303818" lon="-19.10527802"><ele>626.4</ele><time>2012-07-23T15:40:42.0000000+00:00</time></trkpt><trkpt lat="63.99301529" lon="-19.10534096"><ele>626.9</ele><time>2012-07-23T15:40:47.0000000+00:00</time></trkpt><trkpt lat="63.99305725" lon="-19.10526466"><ele>627.8</ele><time>2012-07-23T15:40:52.0000000+00:00</time></trkpt><trkpt lat="63.99306488" lon="-19.10523796"><ele>628.0</ele><time>2012-07-23T15:40:57.0000000+00:00</time></trkpt><trkpt lat="63.9930687" lon="-19.10521698"><ele>628.3</ele><time>2012-07-23T15:41:02.0000000+00:00</time></trkpt><trkpt lat="63.99307251" lon="-19.10521889"><ele>628.4</ele><time>2012-07-23T15:41:07.0000000+00:00</time></trkpt><trkpt lat="63.99306488" lon="-19.10527802"><ele>628.5</ele><time>2012-07-23T15:41:12.0000000+00:00</time></trkpt><trkpt lat="63.9930191" lon="-19.10528374"><ele>627.9</ele><time>2012-07-23T15:41:17.0000000+00:00</time></trkpt><trkpt lat="63.99303818" lon="-19.1051445"><ele>627.8</ele><time>2012-07-23T15:41:22.0000000+00:00</time></trkpt><trkpt lat="63.99307632" lon="-19.10505104"><ele>627.4</ele><time>2012-07-23T15:41:27.0000000+00:00</time></trkpt><trkpt lat="63.99312973" lon="-19.10499191"><ele>627.6</ele><time>2012-07-23T15:41:32.0000000+00:00</time></trkpt><trkpt lat="63.9931488" lon="-19.10494041"><ele>627.2</ele><time>2012-07-23T15:41:37.0000000+00:00</time></trkpt><trkpt lat="63.99313355" lon="-19.10494423"><ele>626.7</ele><time>2012-07-23T15:41:42.0000000+00:00</time></trkpt><trkpt lat="63.99313355" lon="-19.10494232"><ele>626.8</ele><time>2012-07-23T15:41:47.0000000+00:00</time></trkpt><trkpt lat="63.99313355" lon="-19.10494614"><ele>626.7</ele><time>2012-07-23T15:41:52.0000000+00:00</time></trkpt><trkpt lat="63.99313355" lon="-19.10494614"><ele>626.7</ele><time>2012-07-23T15:41:57.0000000+00:00</time></trkpt><trkpt lat="63.9931984" lon="-19.10468483"><ele>625.5</ele><time>2012-07-23T15:42:02.0000000+00:00</time></trkpt><trkpt lat="63.99323654" lon="-19.10448074"><ele>624.2</ele><time>2012-07-23T15:42:07.0000000+00:00</time></trkpt><trkpt lat="63.99323654" lon="-19.10446167"><ele>623.7</ele><time>2012-07-23T15:42:12.0000000+00:00</time></trkpt><trkpt lat="63.99323654" lon="-19.10451126"><ele>623.0</ele><time>2012-07-23T15:42:17.0000000+00:00</time></trkpt><trkpt lat="63.99324799" lon="-19.10449982"><ele>622.6</ele><time>2012-07-23T15:42:22.0000000+00:00</time></trkpt><trkpt lat="63.9932518" lon="-19.10446358"><ele>622.5</ele><time>2012-07-23T15:42:27.0000000+00:00</time></trkpt><trkpt lat="63.99334717" lon="-19.1044178"><ele>621.9</ele><time>2012-07-23T15:42:32.0000000+00:00</time></trkpt><trkpt lat="63.9933815" lon="-19.10442352"><ele>622.4</ele><time>2012-07-23T15:42:37.0000000+00:00</time></trkpt><trkpt lat="63.9933815" lon="-19.10438156"><ele>622.2</ele><time>2012-07-23T15:42:42.0000000+00:00</time></trkpt><trkpt lat="63.99341583" lon="-19.10429764"><ele>621.8</ele><time>2012-07-23T15:42:47.0000000+00:00</time></trkpt><trkpt lat="63.99343491" lon="-19.10424233"><ele>621.4</ele><time>2012-07-23T15:42:52.0000000+00:00</time></trkpt><trkpt lat="63.99344254" lon="-19.1042366"><ele>621.8</ele><time>2012-07-23T15:42:57.0000000+00:00</time></trkpt><trkpt lat="63.99344254" lon="-19.10415268"><ele>621.8</ele><time>2012-07-23T15:43:02.0000000+00:00</time></trkpt><trkpt lat="63.99350357" lon="-19.10411644"><ele>622.5</ele><time>2012-07-23T15:43:07.0000000+00:00</time></trkpt><trkpt lat="63.9935379" lon="-19.1040287"><ele>622.2</ele><time>2012-07-23T15:43:12.0000000+00:00</time></trkpt><trkpt lat="63.99355316" lon="-19.10387802"><ele>621.8</ele><time>2012-07-23T15:43:17.0000000+00:00</time></trkpt><trkpt lat="63.99359131" lon="-19.10374832"><ele>620.5</ele><time>2012-07-23T15:43:22.0000000+00:00</time></trkpt><trkpt lat="63.9936142" lon="-19.10372162"><ele>621.8</ele><time>2012-07-23T15:43:27.0000000+00:00</time></trkpt><trkpt lat="63.99362564" lon="-19.10372734"><ele>621.3</ele><time>2012-07-23T15:43:32.0000000+00:00</time></trkpt><trkpt lat="63.99362564" lon="-19.10372353"><ele>621.4</ele><time>2012-07-23T15:43:37.0000000+00:00</time></trkpt><trkpt lat="63.99360275" lon="-19.10369492"><ele>621.5</ele><time>2012-07-23T15:43:42.0000000+00:00</time></trkpt><trkpt lat="63.99365997" lon="-19.1038208"><ele>621.9</ele><time>2012-07-23T15:43:47.0000000+00:00</time></trkpt><trkpt lat="63.99371719" lon="-19.1039238"><ele>622.7</ele><time>2012-07-23T15:43:52.0000000+00:00</time></trkpt><trkpt lat="63.99370956" lon="-19.10399246"><ele>622.6</ele><time>2012-07-23T15:43:57.0000000+00:00</time></trkpt><trkpt lat="63.99366379" lon="-19.10407257"><ele>623.1</ele><time>2012-07-23T15:44:02.0000000+00:00</time></trkpt><trkpt lat="63.99362183" lon="-19.10411835"><ele>623.3</ele><time>2012-07-23T15:44:07.0000000+00:00</time></trkpt><trkpt lat="63.99361801" lon="-19.10408592"><ele>623.3</ele><time>2012-07-23T15:44:12.0000000+00:00</time></trkpt><trkpt lat="63.99358368" lon="-19.10423279"><ele>624.0</ele><time>2012-07-23T15:44:17.0000000+00:00</time></trkpt><trkpt lat="63.99355698" lon="-19.10435486"><ele>624.6</ele><time>2012-07-23T15:44:22.0000000+00:00</time></trkpt><trkpt lat="63.99352264" lon="-19.10445595"><ele>625.3</ele><time>2012-07-23T15:44:27.0000000+00:00</time></trkpt><trkpt lat="63.99347305" lon="-19.10453796"><ele>626.1</ele><time>2012-07-23T15:44:32.0000000+00:00</time></trkpt><trkpt lat="63.99346161" lon="-19.10474968"><ele>627.4</ele><time>2012-07-23T15:44:37.0000000+00:00</time></trkpt><trkpt lat="63.99343872" lon="-19.10489464"><ele>626.8</ele><time>2012-07-23T15:44:42.0000000+00:00</time></trkpt><trkpt lat="63.99341202" lon="-19.1050415"><ele>626.4</ele><time>2012-07-23T15:44:47.0000000+00:00</time></trkpt><trkpt lat="63.99339294" lon="-19.1051712"><ele>626.7</ele><time>2012-07-23T15:44:52.0000000+00:00</time></trkpt><trkpt lat="63.99335098" lon="-19.10525894"><ele>627.5</ele><time>2012-07-23T15:44:57.0000000+00:00</time></trkpt><trkpt lat="63.99334335" lon="-19.10536385"><ele>626.4</ele><time>2012-07-23T15:45:02.0000000+00:00</time></trkpt><trkpt lat="63.99337769" lon="-19.10539246"><ele>625.7</ele><time>2012-07-23T15:45:07.0000000+00:00</time></trkpt><trkpt lat="63.99337387" lon="-19.10539055"><ele>625.5</ele><time>2012-07-23T15:45:12.0000000+00:00</time></trkpt><trkpt lat="63.99340057" lon="-19.10531998"><ele>624.4</ele><time>2012-07-23T15:45:17.0000000+00:00</time></trkpt><trkpt lat="63.99341965" lon="-19.10524178"><ele>625.0</ele><time>2012-07-23T15:45:22.0000000+00:00</time></trkpt><trkpt lat="63.99345017" lon="-19.10520935"><ele>624.7</ele><time>2012-07-23T15:45:27.0000000+00:00</time></trkpt><trkpt lat="63.99347305" lon="-19.10515595"><ele>624.5</ele><time>2012-07-23T15:45:32.0000000+00:00</time></trkpt><trkpt lat="63.9934845" lon="-19.10523224"><ele>624.6</ele><time>2012-07-23T15:45:37.0000000+00:00</time></trkpt><trkpt lat="63.9934845" lon="-19.1053009"><ele>624.8</ele><time>2012-07-23T15:45:42.0000000+00:00</time></trkpt><trkpt lat="63.99350739" lon="-19.10536766"><ele>624.1</ele><time>2012-07-23T15:45:47.0000000+00:00</time></trkpt><trkpt lat="63.9935112" lon="-19.10536575"><ele>623.8</ele><time>2012-07-23T15:45:52.0000000+00:00</time></trkpt><trkpt lat="63.99349213" lon="-19.10537529"><ele>623.3</ele><time>2012-07-23T15:45:57.0000000+00:00</time></trkpt><trkpt lat="63.99345017" lon="-19.10545349"><ele>623.1</ele><time>2012-07-23T15:46:02.0000000+00:00</time></trkpt><trkpt lat="63.99341583" lon="-19.10548019"><ele>623.5</ele><time>2012-07-23T15:46:07.0000000+00:00</time></trkpt><trkpt lat="63.9934082" lon="-19.10545349"><ele>624.1</ele><time>2012-07-23T15:46:12.0000000+00:00</time></trkpt><trkpt lat="63.99341202" lon="-19.10545349"><ele>624.2</ele><time>2012-07-23T15:46:17.0000000+00:00</time></trkpt><trkpt lat="63.99341202" lon="-19.10545349"><ele>624.3</ele><time>2012-07-23T15:46:22.0000000+00:00</time></trkpt><trkpt lat="63.99341202" lon="-19.10545349"><ele>624.3</ele><time>2012-07-23T15:46:27.0000000+00:00</time></trkpt><trkpt lat="63.99341202" lon="-19.10545349"><ele>624.3</ele><time>2012-07-23T15:46:32.0000000+00:00</time></trkpt><trkpt lat="63.99341202" lon="-19.10551071"><ele>624.1</ele><time>2012-07-23T15:46:37.0000000+00:00</time></trkpt><trkpt lat="63.99340439" lon="-19.10564232"><ele>625.0</ele><time>2012-07-23T15:46:42.0000000+00:00</time></trkpt><trkpt lat="63.99340439" lon="-19.10574722"><ele>624.9</ele><time>2012-07-23T15:46:47.0000000+00:00</time></trkpt><trkpt lat="63.9934082" lon="-19.10574341"><ele>625.1</ele><time>2012-07-23T15:46:52.0000000+00:00</time></trkpt><trkpt lat="63.99341202" lon="-19.1057415"><ele>625.1</ele><time>2012-07-23T15:46:57.0000000+00:00</time></trkpt><trkpt lat="63.99340057" lon="-19.1057682"><ele>625.2</ele><time>2012-07-23T15:47:02.0000000+00:00</time></trkpt><trkpt lat="63.99338532" lon="-19.10586929"><ele>625.3</ele><time>2012-07-23T15:47:07.0000000+00:00</time></trkpt><trkpt lat="63.9933548" lon="-19.10595512"><ele>625.8</ele><time>2012-07-23T15:47:12.0000000+00:00</time></trkpt><trkpt lat="63.99336624" lon="-19.10606575"><ele>625.9</ele><time>2012-07-23T15:47:17.0000000+00:00</time></trkpt><trkpt lat="63.99338532" lon="-19.1061821"><ele>625.9</ele><time>2012-07-23T15:47:22.0000000+00:00</time></trkpt><trkpt lat="63.9933815" lon="-19.10629082"><ele>626.0</ele><time>2012-07-23T15:47:27.0000000+00:00</time></trkpt><trkpt lat="63.99337387" lon="-19.10641289"><ele>626.2</ele><time>2012-07-23T15:47:32.0000000+00:00</time></trkpt><trkpt lat="63.99338532" lon="-19.1064949"><ele>628.8</ele><time>2012-07-23T15:47:37.0000000+00:00</time></trkpt><trkpt lat="63.99343872" lon="-19.10656738"><ele>629.4</ele><time>2012-07-23T15:47:42.0000000+00:00</time></trkpt><trkpt lat="63.99349594" lon="-19.10659409"><ele>629.3</ele><time>2012-07-23T15:47:47.0000000+00:00</time></trkpt><trkpt lat="63.99348068" lon="-19.10671043"><ele>628.6</ele><time>2012-07-23T15:47:52.0000000+00:00</time></trkpt><trkpt lat="63.99346161" lon="-19.10679817"><ele>628.9</ele><time>2012-07-23T15:47:57.0000000+00:00</time></trkpt><trkpt lat="63.99346161" lon="-19.1068821"><ele>628.8</ele><time>2012-07-23T15:48:02.0000000+00:00</time></trkpt><trkpt lat="63.99345017" lon="-19.10699463"><ele>629.0</ele><time>2012-07-23T15:48:07.0000000+00:00</time></trkpt><trkpt lat="63.99346542" lon="-19.10708427"><ele>630.7</ele><time>2012-07-23T15:48:12.0000000+00:00</time></trkpt><trkpt lat="63.99350739" lon="-19.10718346"><ele>628.8</ele><time>2012-07-23T15:48:17.0000000+00:00</time></trkpt><trkpt lat="63.99354935" lon="-19.1072731"><ele>628.6</ele><time>2012-07-23T15:48:22.0000000+00:00</time></trkpt><trkpt lat="63.99360657" lon="-19.10733223"><ele>628.6</ele><time>2012-07-23T15:48:27.0000000+00:00</time></trkpt><trkpt lat="63.99367905" lon="-19.10737991"><ele>629.3</ele><time>2012-07-23T15:48:32.0000000+00:00</time></trkpt><trkpt lat="63.99374008" lon="-19.10744286"><ele>630.0</ele><time>2012-07-23T15:48:37.0000000+00:00</time></trkpt><trkpt lat="63.99375153" lon="-19.10756493"><ele>631.0</ele><time>2012-07-23T15:48:42.0000000+00:00</time></trkpt><trkpt lat="63.99376297" lon="-19.10760117"><ele>629.7</ele><time>2012-07-23T15:48:47.0000000+00:00</time></trkpt><trkpt lat="63.99377823" lon="-19.10765839"><ele>631.7</ele><time>2012-07-23T15:48:52.0000000+00:00</time></trkpt><trkpt lat="63.99381256" lon="-19.1077652"><ele>630.2</ele><time>2012-07-23T15:48:57.0000000+00:00</time></trkpt><trkpt lat="63.99385071" lon="-19.10786057"><ele>629.3</ele><time>2012-07-23T15:49:02.0000000+00:00</time></trkpt><trkpt lat="63.99389267" lon="-19.10795403"><ele>628.9</ele><time>2012-07-23T15:49:07.0000000+00:00</time></trkpt><trkpt lat="63.99391937" lon="-19.10803413"><ele>628.2</ele><time>2012-07-23T15:49:12.0000000+00:00</time></trkpt><trkpt lat="63.99396515" lon="-19.10809517"><ele>627.3</ele><time>2012-07-23T15:49:17.0000000+00:00</time></trkpt><trkpt lat="63.99400711" lon="-19.10808563"><ele>627.1</ele><time>2012-07-23T15:49:22.0000000+00:00</time></trkpt><trkpt lat="63.99403381" lon="-19.10806084"><ele>626.7</ele><time>2012-07-23T15:49:27.0000000+00:00</time></trkpt><trkpt lat="63.99402618" lon="-19.10807419"><ele>626.9</ele><time>2012-07-23T15:49:32.0000000+00:00</time></trkpt><trkpt lat="63.99402618" lon="-19.10809326"><ele>627.1</ele><time>2012-07-23T15:49:37.0000000+00:00</time></trkpt><trkpt lat="63.99402237" lon="-19.10811234"><ele>626.8</ele><time>2012-07-23T15:49:42.0000000+00:00</time></trkpt><trkpt lat="63.99405289" lon="-19.10817528"><ele>627.8</ele><time>2012-07-23T15:49:47.0000000+00:00</time></trkpt><trkpt lat="63.99408341" lon="-19.10824966"><ele>628.5</ele><time>2012-07-23T15:49:52.0000000+00:00</time></trkpt><trkpt lat="63.99409866" lon="-19.10833359"><ele>631.3</ele><time>2012-07-23T15:49:57.0000000+00:00</time></trkpt><trkpt lat="63.99410248" lon="-19.10838699"><ele>633.5</ele><time>2012-07-23T15:50:02.0000000+00:00</time></trkpt><trkpt lat="63.99411011" lon="-19.10845757"><ele>635.6</ele><time>2012-07-23T15:50:07.0000000+00:00</time></trkpt><trkpt lat="63.99412918" lon="-19.10856056"><ele>637.0</ele><time>2012-07-23T15:50:12.0000000+00:00</time></trkpt><trkpt lat="63.99415588" lon="-19.10865974"><ele>640.1</ele><time>2012-07-23T15:50:17.0000000+00:00</time></trkpt><trkpt lat="63.99417877" lon="-19.10874367"><ele>642.2</ele><time>2012-07-23T15:50:22.0000000+00:00</time></trkpt><trkpt lat="63.99419403" lon="-19.10884857"><ele>643.0</ele><time>2012-07-23T15:50:27.0000000+00:00</time></trkpt><trkpt lat="63.99420929" lon="-19.10887146"><ele>643.8</ele><time>2012-07-23T15:50:32.0000000+00:00</time></trkpt><trkpt lat="63.99420929" lon="-19.10887337"><ele>643.9</ele><time>2012-07-23T15:50:37.0000000+00:00</time></trkpt><trkpt lat="63.99420929" lon="-19.10887337"><ele>644.0</ele><time>2012-07-23T15:50:42.0000000+00:00</time></trkpt><trkpt lat="63.9942131" lon="-19.10894585"><ele>644.5</ele><time>2012-07-23T15:50:47.0000000+00:00</time></trkpt><trkpt lat="63.99424362" lon="-19.10902786"><ele>645.2</ele><time>2012-07-23T15:50:52.0000000+00:00</time></trkpt><trkpt lat="63.99425888" lon="-19.10909843"><ele>646.6</ele><time>2012-07-23T15:50:57.0000000+00:00</time></trkpt><trkpt lat="63.9942894" lon="-19.10914993"><ele>647.6</ele><time>2012-07-23T15:51:02.0000000+00:00</time></trkpt><trkpt lat="63.99431229" lon="-19.10921478"><ele>648.7</ele><time>2012-07-23T15:51:07.0000000+00:00</time></trkpt><trkpt lat="63.99432755" lon="-19.10927963"><ele>650.2</ele><time>2012-07-23T15:51:12.0000000+00:00</time></trkpt><trkpt lat="63.99434662" lon="-19.10933685"><ele>651.0</ele><time>2012-07-23T15:51:17.0000000+00:00</time></trkpt><trkpt lat="63.9943428" lon="-19.10936356"><ele>650.1</ele><time>2012-07-23T15:51:22.0000000+00:00</time></trkpt><trkpt lat="63.99433899" lon="-19.10936356"><ele>650.3</ele><time>2012-07-23T15:51:27.0000000+00:00</time></trkpt><trkpt lat="63.99433899" lon="-19.10936165"><ele>650.3</ele><time>2012-07-23T15:51:32.0000000+00:00</time></trkpt><trkpt lat="63.99433899" lon="-19.10936165"><ele>650.3</ele><time>2012-07-23T15:51:37.0000000+00:00</time></trkpt><trkpt lat="63.99433899" lon="-19.10936165"><ele>650.3</ele><time>2012-07-23T15:51:42.0000000+00:00</time></trkpt><trkpt lat="63.99436951" lon="-19.10943794"><ele>651.1</ele><time>2012-07-23T15:51:47.0000000+00:00</time></trkpt><trkpt lat="63.9943924" lon="-19.10949898"><ele>652.3</ele><time>2012-07-23T15:51:52.0000000+00:00</time></trkpt><trkpt lat="63.99440765" lon="-19.10958672"><ele>653.6</ele><time>2012-07-23T15:51:57.0000000+00:00</time></trkpt><trkpt lat="63.99442291" lon="-19.10964966"><ele>655.0</ele><time>2012-07-23T15:52:02.0000000+00:00</time></trkpt><trkpt lat="63.99443436" lon="-19.1097126"><ele>656.5</ele><time>2012-07-23T15:52:07.0000000+00:00</time></trkpt><trkpt lat="63.99445725" lon="-19.10977173"><ele>658.3</ele><time>2012-07-23T15:52:12.0000000+00:00</time></trkpt><trkpt lat="63.99448395" lon="-19.10981941"><ele>659.6</ele><time>2012-07-23T15:52:17.0000000+00:00</time></trkpt><trkpt lat="63.99451065" lon="-19.10985184"><ele>660.3</ele><time>2012-07-23T15:52:22.0000000+00:00</time></trkpt><trkpt lat="63.99453354" lon="-19.10986519"><ele>659.6</ele><time>2012-07-23T15:52:27.0000000+00:00</time></trkpt><trkpt lat="63.99453354" lon="-19.10986328"><ele>659.7</ele><time>2012-07-23T15:52:32.0000000+00:00</time></trkpt><trkpt lat="63.99453735" lon="-19.10989571"><ele>660.3</ele><time>2012-07-23T15:52:37.0000000+00:00</time></trkpt><trkpt lat="63.99456406" lon="-19.10994339"><ele>662.1</ele><time>2012-07-23T15:52:42.0000000+00:00</time></trkpt><trkpt lat="63.99457169" lon="-19.11001587"><ele>663.9</ele><time>2012-07-23T15:52:47.0000000+00:00</time></trkpt><trkpt lat="63.99458695" lon="-19.11008644"><ele>665.5</ele><time>2012-07-23T15:52:52.0000000+00:00</time></trkpt><trkpt lat="63.99459076" lon="-19.11014175"><ele>666.5</ele><time>2012-07-23T15:52:57.0000000+00:00</time></trkpt><trkpt lat="63.99459076" lon="-19.11015701"><ele>666.2</ele><time>2012-07-23T15:53:02.0000000+00:00</time></trkpt><trkpt lat="63.99459076" lon="-19.11016083"><ele>666.0</ele><time>2012-07-23T15:53:07.0000000+00:00</time></trkpt><trkpt lat="63.99459076" lon="-19.11026192"><ele>667.1</ele><time>2012-07-23T15:53:12.0000000+00:00</time></trkpt><trkpt lat="63.99459839" lon="-19.11035538"><ele>667.8</ele><time>2012-07-23T15:53:17.0000000+00:00</time></trkpt><trkpt lat="63.9946022" lon="-19.11039543"><ele>668.4</ele><time>2012-07-23T15:53:22.0000000+00:00</time></trkpt><trkpt lat="63.99459839" lon="-19.11040115"><ele>668.7</ele><time>2012-07-23T15:53:27.0000000+00:00</time></trkpt><trkpt lat="63.99459839" lon="-19.11049652"><ele>668.7</ele><time>2012-07-23T15:53:32.0000000+00:00</time></trkpt><trkpt lat="63.99461365" lon="-19.11058426"><ele>669.6</ele><time>2012-07-23T15:53:37.0000000+00:00</time></trkpt><trkpt lat="63.99462509" lon="-19.11067581"><ele>669.8</ele><time>2012-07-23T15:53:42.0000000+00:00</time></trkpt><trkpt lat="63.99463272" lon="-19.11075974"><ele>670.0</ele><time>2012-07-23T15:53:47.0000000+00:00</time></trkpt><trkpt lat="63.99465179" lon="-19.11081696"><ele>669.7</ele><time>2012-07-23T15:53:52.0000000+00:00</time></trkpt><trkpt lat="63.99464798" lon="-19.11091232"><ele>671.2</ele><time>2012-07-23T15:53:57.0000000+00:00</time></trkpt><trkpt lat="63.99466705" lon="-19.11098099"><ele>672.2</ele><time>2012-07-23T15:54:02.0000000+00:00</time></trkpt><trkpt lat="63.99468231" lon="-19.1110363"><ele>672.8</ele><time>2012-07-23T15:54:07.0000000+00:00</time></trkpt><trkpt lat="63.99469757" lon="-19.11106682"><ele>673.1</ele><time>2012-07-23T15:54:12.0000000+00:00</time></trkpt><trkpt lat="63.99471664" lon="-19.11112595"><ele>673.8</ele><time>2012-07-23T15:54:17.0000000+00:00</time></trkpt><trkpt lat="63.99472427" lon="-19.11117554"><ele>674.9</ele><time>2012-07-23T15:54:22.0000000+00:00</time></trkpt><trkpt lat="63.99474335" lon="-19.1112175"><ele>675.7</ele><time>2012-07-23T15:54:27.0000000+00:00</time></trkpt><trkpt lat="63.99474716" lon="-19.11130524"><ele>677.1</ele><time>2012-07-23T15:54:32.0000000+00:00</time></trkpt><trkpt lat="63.99476242" lon="-19.11135101"><ele>677.6</ele><time>2012-07-23T15:54:37.0000000+00:00</time></trkpt><trkpt lat="63.99477005" lon="-19.11140823"><ele>678.3</ele><time>2012-07-23T15:54:42.0000000+00:00</time></trkpt><trkpt lat="63.99477005" lon="-19.11148644"><ele>679.8</ele><time>2012-07-23T15:54:47.0000000+00:00</time></trkpt><trkpt lat="63.99477387" lon="-19.11154366"><ele>681.0</ele><time>2012-07-23T15:54:52.0000000+00:00</time></trkpt><trkpt lat="63.99477387" lon="-19.11159515"><ele>682.0</ele><time>2012-07-23T15:54:57.0000000+00:00</time></trkpt><trkpt lat="63.99478149" lon="-19.11164856"><ele>683.1</ele><time>2012-07-23T15:55:02.0000000+00:00</time></trkpt><trkpt lat="63.99478912" lon="-19.11169052"><ele>683.9</ele><time>2012-07-23T15:55:07.0000000+00:00</time></trkpt><trkpt lat="63.9948082" lon="-19.11171532"><ele>684.3</ele><time>2012-07-23T15:55:12.0000000+00:00</time></trkpt><trkpt lat="63.99481201" lon="-19.11174965"><ele>685.3</ele><time>2012-07-23T15:55:17.0000000+00:00</time></trkpt><trkpt lat="63.9948082" lon="-19.1117878"><ele>686.7</ele><time>2012-07-23T15:55:22.0000000+00:00</time></trkpt><trkpt lat="63.99481583" lon="-19.11182404"><ele>687.5</ele><time>2012-07-23T15:55:27.0000000+00:00</time></trkpt><trkpt lat="63.99483109" lon="-19.11189079"><ele>688.4</ele><time>2012-07-23T15:55:32.0000000+00:00</time></trkpt><trkpt lat="63.9948349" lon="-19.11197662"><ele>689.6</ele><time>2012-07-23T15:55:37.0000000+00:00</time></trkpt><trkpt lat="63.99485397" lon="-19.11203957"><ele>690.9</ele><time>2012-07-23T15:55:42.0000000+00:00</time></trkpt><trkpt lat="63.99486542" lon="-19.1121006"><ele>692.3</ele><time>2012-07-23T15:55:47.0000000+00:00</time></trkpt><trkpt lat="63.99487686" lon="-19.11218643"><ele>694.0</ele><time>2012-07-23T15:55:52.0000000+00:00</time></trkpt><trkpt lat="63.99489212" lon="-19.11226654"><ele>695.3</ele><time>2012-07-23T15:55:57.0000000+00:00</time></trkpt><trkpt lat="63.99491119" lon="-19.11232185"><ele>696.9</ele><time>2012-07-23T15:56:02.0000000+00:00</time></trkpt><trkpt lat="63.99492264" lon="-19.11239243"><ele>698.9</ele><time>2012-07-23T15:56:07.0000000+00:00</time></trkpt><trkpt lat="63.99492645" lon="-19.11240387"><ele>699.3</ele><time>2012-07-23T15:56:12.0000000+00:00</time></trkpt><trkpt lat="63.99494553" lon="-19.11244202"><ele>700.0</ele><time>2012-07-23T15:56:17.0000000+00:00</time></trkpt><trkpt lat="63.99497604" lon="-19.11252403"><ele>701.2</ele><time>2012-07-23T15:56:22.0000000+00:00</time></trkpt><trkpt lat="63.99500275" lon="-19.11258888"><ele>702.9</ele><time>2012-07-23T15:56:27.0000000+00:00</time></trkpt><trkpt lat="63.99502564" lon="-19.11264229"><ele>704.1</ele><time>2012-07-23T15:56:32.0000000+00:00</time></trkpt><trkpt lat="63.99503708" lon="-19.11268807"><ele>704.8</ele><time>2012-07-23T15:56:37.0000000+00:00</time></trkpt><trkpt lat="63.99503326" lon="-19.11268616"><ele>705.0</ele><time>2012-07-23T15:56:42.0000000+00:00</time></trkpt><trkpt lat="63.99504471" lon="-19.11273956"><ele>705.3</ele><time>2012-07-23T15:56:47.0000000+00:00</time></trkpt><trkpt lat="63.99506378" lon="-19.11279106"><ele>706.6</ele><time>2012-07-23T15:56:52.0000000+00:00</time></trkpt><trkpt lat="63.99508286" lon="-19.11285782"><ele>708.0</ele><time>2012-07-23T15:56:57.0000000+00:00</time></trkpt><trkpt lat="63.99509811" lon="-19.11291313"><ele>709.2</ele><time>2012-07-23T15:57:02.0000000+00:00</time></trkpt><trkpt lat="63.99511719" lon="-19.11300087"><ele>710.1</ele><time>2012-07-23T15:57:07.0000000+00:00</time></trkpt><trkpt lat="63.99514389" lon="-19.11309242"><ele>711.1</ele><time>2012-07-23T15:57:12.0000000+00:00</time></trkpt><trkpt lat="63.99515533" lon="-19.11318016"><ele>712.1</ele><time>2012-07-23T15:57:17.0000000+00:00</time></trkpt><trkpt lat="63.99518204" lon="-19.11325264"><ele>712.9</ele><time>2012-07-23T15:57:22.0000000+00:00</time></trkpt><trkpt lat="63.99520874" lon="-19.11332321"><ele>713.5</ele><time>2012-07-23T15:57:27.0000000+00:00</time></trkpt><trkpt lat="63.995224" lon="-19.11337853"><ele>714.6</ele><time>2012-07-23T15:57:32.0000000+00:00</time></trkpt><trkpt lat="63.9952507" lon="-19.113451"><ele>716.0</ele><time>2012-07-23T15:57:37.0000000+00:00</time></trkpt><trkpt lat="63.99527359" lon="-19.11353111"><ele>717.4</ele><time>2012-07-23T15:57:42.0000000+00:00</time></trkpt><trkpt lat="63.99530029" lon="-19.11361313"><ele>718.3</ele><time>2012-07-23T15:57:47.0000000+00:00</time></trkpt><trkpt lat="63.99532318" lon="-19.11367226"><ele>719.5</ele><time>2012-07-23T15:57:52.0000000+00:00</time></trkpt><trkpt lat="63.99534988" lon="-19.11376572"><ele>720.8</ele><time>2012-07-23T15:57:57.0000000+00:00</time></trkpt><trkpt lat="63.99537659" lon="-19.11383629"><ele>721.9</ele><time>2012-07-23T15:58:02.0000000+00:00</time></trkpt><trkpt lat="63.99539185" lon="-19.1138916"><ele>723.3</ele><time>2012-07-23T15:58:07.0000000+00:00</time></trkpt><trkpt lat="63.99543762" lon="-19.11395836"><ele>724.5</ele><time>2012-07-23T15:58:12.0000000+00:00</time></trkpt><trkpt lat="63.99547958" lon="-19.11401177"><ele>725.4</ele><time>2012-07-23T15:58:17.0000000+00:00</time></trkpt><trkpt lat="63.99551773" lon="-19.11405945"><ele>726.0</ele><time>2012-07-23T15:58:22.0000000+00:00</time></trkpt><trkpt lat="63.99552155" lon="-19.11415291"><ele>727.4</ele><time>2012-07-23T15:58:27.0000000+00:00</time></trkpt><trkpt lat="63.99552536" lon="-19.1141777"><ele>727.7</ele><time>2012-07-23T15:58:32.0000000+00:00</time></trkpt><trkpt lat="63.99552536" lon="-19.1141758"><ele>728.1</ele><time>2012-07-23T15:58:37.0000000+00:00</time></trkpt><trkpt lat="63.9955368" lon="-19.11423874"><ele>728.4</ele><time>2012-07-23T15:58:42.0000000+00:00</time></trkpt><trkpt lat="63.99558258" lon="-19.1143074"><ele>728.4</ele><time>2012-07-23T15:58:47.0000000+00:00</time></trkpt><trkpt lat="63.99561691" lon="-19.11436081"><ele>728.5</ele><time>2012-07-23T15:58:52.0000000+00:00</time></trkpt><trkpt lat="63.99565506" lon="-19.1144352"><ele>729.3</ele><time>2012-07-23T15:58:57.0000000+00:00</time></trkpt><trkpt lat="63.99567795" lon="-19.11452484"><ele>729.2</ele><time>2012-07-23T15:59:02.0000000+00:00</time></trkpt><trkpt lat="63.99570084" lon="-19.11460877"><ele>729.9</ele><time>2012-07-23T15:59:07.0000000+00:00</time></trkpt><trkpt lat="63.99573517" lon="-19.11466599"><ele>730.3</ele><time>2012-07-23T15:59:12.0000000+00:00</time></trkpt><trkpt lat="63.99577332" lon="-19.1147213"><ele>730.5</ele><time>2012-07-23T15:59:17.0000000+00:00</time></trkpt><trkpt lat="63.99581528" lon="-19.11477852"><ele>731.0</ele><time>2012-07-23T15:59:22.0000000+00:00</time></trkpt><trkpt lat="63.99585724" lon="-19.11483002"><ele>731.6</ele><time>2012-07-23T15:59:27.0000000+00:00</time></trkpt><trkpt lat="63.99586105" lon="-19.11485291"><ele>733.4</ele><time>2012-07-23T15:59:32.0000000+00:00</time></trkpt><trkpt lat="63.99585724" lon="-19.11486244"><ele>733.4</ele><time>2012-07-23T15:59:37.0000000+00:00</time></trkpt><trkpt lat="63.99591065" lon="-19.1149292"><ele>734.6</ele><time>2012-07-23T15:59:42.0000000+00:00</time></trkpt><trkpt lat="63.99594498" lon="-19.11498261"><ele>735.7</ele><time>2012-07-23T15:59:47.0000000+00:00</time></trkpt><trkpt lat="63.99599838" lon="-19.11505699"><ele>736.8</ele><time>2012-07-23T15:59:52.0000000+00:00</time></trkpt><trkpt lat="63.99603653" lon="-19.11509705"><ele>737.5</ele><time>2012-07-23T15:59:57.0000000+00:00</time></trkpt><trkpt lat="63.99607468" lon="-19.11515236"><ele>738.1</ele><time>2012-07-23T16:00:02.0000000+00:00</time></trkpt><trkpt lat="63.99610138" lon="-19.11520767"><ele>738.2</ele><time>2012-07-23T16:00:07.0000000+00:00</time></trkpt><trkpt lat="63.99613571" lon="-19.11529541"><ele>738.4</ele><time>2012-07-23T16:00:12.0000000+00:00</time></trkpt><trkpt lat="63.99616623" lon="-19.11537743"><ele>739.3</ele><time>2012-07-23T16:00:17.0000000+00:00</time></trkpt><trkpt lat="63.99619675" lon="-19.11544991"><ele>740.3</ele><time>2012-07-23T16:00:22.0000000+00:00</time></trkpt><trkpt lat="63.99622345" lon="-19.11553574"><ele>740.8</ele><time>2012-07-23T16:00:27.0000000+00:00</time></trkpt><trkpt lat="63.99625778" lon="-19.11561966"><ele>741.8</ele><time>2012-07-23T16:00:32.0000000+00:00</time></trkpt><trkpt lat="63.99629593" lon="-19.11569977"><ele>743.0</ele><time>2012-07-23T16:00:37.0000000+00:00</time></trkpt><trkpt lat="63.99631882" lon="-19.11579704"><ele>744.3</ele><time>2012-07-23T16:00:42.0000000+00:00</time></trkpt><trkpt lat="63.99634171" lon="-19.11590767"><ele>745.3</ele><time>2012-07-23T16:00:47.0000000+00:00</time></trkpt><trkpt lat="63.99636841" lon="-19.11601067"><ele>745.7</ele><time>2012-07-23T16:00:52.0000000+00:00</time></trkpt><trkpt lat="63.99640274" lon="-19.11608124"><ele>746.3</ele><time>2012-07-23T16:00:57.0000000+00:00</time></trkpt><trkpt lat="63.99643707" lon="-19.11614609"><ele>746.8</ele><time>2012-07-23T16:01:02.0000000+00:00</time></trkpt><trkpt lat="63.99646378" lon="-19.11621666"><ele>748.1</ele><time>2012-07-23T16:01:07.0000000+00:00</time></trkpt><trkpt lat="63.99649811" lon="-19.11630249"><ele>749.5</ele><time>2012-07-23T16:01:12.0000000+00:00</time></trkpt><trkpt lat="63.996521" lon="-19.11642456"><ele>750.3</ele><time>2012-07-23T16:01:17.0000000+00:00</time></trkpt><trkpt lat="63.9965477" lon="-19.11650658"><ele>751.4</ele><time>2012-07-23T16:01:22.0000000+00:00</time></trkpt><trkpt lat="63.99655914" lon="-19.11654663"><ele>752.3</ele><time>2012-07-23T16:01:27.0000000+00:00</time></trkpt><trkpt lat="63.99660111" lon="-19.11660767"><ele>753.6</ele><time>2012-07-23T16:01:32.0000000+00:00</time></trkpt><trkpt lat="63.99663162" lon="-19.11668015"><ele>754.7</ele><time>2012-07-23T16:01:37.0000000+00:00</time></trkpt><trkpt lat="63.99666596" lon="-19.11672783"><ele>756.2</ele><time>2012-07-23T16:01:42.0000000+00:00</time></trkpt><trkpt lat="63.99668503" lon="-19.1168232"><ele>757.6</ele><time>2012-07-23T16:01:47.0000000+00:00</time></trkpt><trkpt lat="63.99671173" lon="-19.11689377"><ele>758.3</ele><time>2012-07-23T16:01:52.0000000+00:00</time></trkpt><trkpt lat="63.99675369" lon="-19.11696053"><ele>759.4</ele><time>2012-07-23T16:01:57.0000000+00:00</time></trkpt><trkpt lat="63.9968071" lon="-19.11698341"><ele>760.3</ele><time>2012-07-23T16:02:02.0000000+00:00</time></trkpt><trkpt lat="63.99686432" lon="-19.11701965"><ele>761.4</ele><time>2012-07-23T16:02:07.0000000+00:00</time></trkpt><trkpt lat="63.99692535" lon="-19.11707306"><ele>762.2</ele><time>2012-07-23T16:02:12.0000000+00:00</time></trkpt><trkpt lat="63.99698257" lon="-19.11708641"><ele>762.9</ele><time>2012-07-23T16:02:17.0000000+00:00</time></trkpt><trkpt lat="63.99702072" lon="-19.11708069"><ele>762.7</ele><time>2012-07-23T16:02:22.0000000+00:00</time></trkpt><trkpt lat="63.99707413" lon="-19.11706162"><ele>763.5</ele><time>2012-07-23T16:02:27.0000000+00:00</time></trkpt><trkpt lat="63.99711227" lon="-19.11703301"><ele>764.5</ele><time>2012-07-23T16:02:32.0000000+00:00</time></trkpt><trkpt lat="63.99716187" lon="-19.11701012"><ele>764.8</ele><time>2012-07-23T16:02:37.0000000+00:00</time></trkpt><trkpt lat="63.9972229" lon="-19.11698341"><ele>765.1</ele><time>2012-07-23T16:02:42.0000000+00:00</time></trkpt><trkpt lat="63.99727631" lon="-19.11691284"><ele>765.5</ele><time>2012-07-23T16:02:47.0000000+00:00</time></trkpt><trkpt lat="63.99732971" lon="-19.11684418"><ele>765.4</ele><time>2012-07-23T16:02:52.0000000+00:00</time></trkpt><trkpt lat="63.99737167" lon="-19.11678696"><ele>765.0</ele><time>2012-07-23T16:02:57.0000000+00:00</time></trkpt><trkpt lat="63.99741364" lon="-19.11672592"><ele>764.3</ele><time>2012-07-23T16:03:02.0000000+00:00</time></trkpt><trkpt lat="63.99744034" lon="-19.11665344"><ele>764.0</ele><time>2012-07-23T16:03:07.0000000+00:00</time></trkpt><trkpt lat="63.99748612" lon="-19.11659813"><ele>764.2</ele><time>2012-07-23T16:03:12.0000000+00:00</time></trkpt><trkpt lat="63.997509" lon="-19.11655617"><ele>764.4</ele><time>2012-07-23T16:03:17.0000000+00:00</time></trkpt><trkpt lat="63.99751282" lon="-19.11656952"><ele>764.4</ele><time>2012-07-23T16:03:22.0000000+00:00</time></trkpt><trkpt lat="63.997509" lon="-19.11655235"><ele>764.4</ele><time>2012-07-23T16:03:27.0000000+00:00</time></trkpt><trkpt lat="63.997509" lon="-19.11655045"><ele>764.5</ele><time>2012-07-23T16:03:32.0000000+00:00</time></trkpt><trkpt lat="63.99750519" lon="-19.11655045"><ele>764.5</ele><time>2012-07-23T16:03:37.0000000+00:00</time></trkpt><trkpt lat="63.99750519" lon="-19.11654854"><ele>764.6</ele><time>2012-07-23T16:03:42.0000000+00:00</time></trkpt><trkpt lat="63.99750519" lon="-19.11654854"><ele>764.6</ele><time>2012-07-23T16:03:47.0000000+00:00</time></trkpt><trkpt lat="63.99750519" lon="-19.11654854"><ele>764.6</ele><time>2012-07-23T16:03:52.0000000+00:00</time></trkpt><trkpt lat="63.99750519" lon="-19.11654854"><ele>764.6</ele><time>2012-07-23T16:03:57.0000000+00:00</time></trkpt><trkpt lat="63.99750519" lon="-19.11654854"><ele>764.6</ele><time>2012-07-23T16:04:02.0000000+00:00</time></trkpt><trkpt lat="63.99750519" lon="-19.11654854"><ele>764.6</ele><time>2012-07-23T16:04:07.0000000+00:00</time></trkpt><trkpt lat="63.99750519" lon="-19.11654854"><ele>764.6</ele><time>2012-07-23T16:04:12.0000000+00:00</time></trkpt><trkpt lat="63.99750519" lon="-19.11654854"><ele>764.6</ele><time>2012-07-23T16:04:17.0000000+00:00</time></trkpt><trkpt lat="63.99750519" lon="-19.11654854"><ele>764.6</ele><time>2012-07-23T16:04:22.0000000+00:00</time></trkpt><trkpt lat="63.99750519" lon="-19.11654854"><ele>764.6</ele><time>2012-07-23T16:04:27.0000000+00:00</time></trkpt><trkpt lat="63.99750519" lon="-19.11654854"><ele>764.6</ele><time>2012-07-23T16:04:32.0000000+00:00</time></trkpt><trkpt lat="63.99750519" lon="-19.11654854"><ele>764.6</ele><time>2012-07-23T16:04:37.0000000+00:00</time></trkpt><trkpt lat="63.99750519" lon="-19.11654854"><ele>764.6</ele><time>2012-07-23T16:04:42.0000000+00:00</time></trkpt><trkpt lat="63.99750519" lon="-19.11654854"><ele>764.6</ele><time>2012-07-23T16:04:47.0000000+00:00</time></trkpt><trkpt lat="63.99750519" lon="-19.11654854"><ele>764.6</ele><time>2012-07-23T16:04:52.0000000+00:00</time></trkpt><trkpt lat="63.99750519" lon="-19.11654854"><ele>764.6</ele><time>2012-07-23T16:04:57.0000000+00:00</time></trkpt><trkpt lat="63.99750519" lon="-19.11654663"><ele>764.6</ele><time>2012-07-23T16:05:02.0000000+00:00</time></trkpt><trkpt lat="63.99750519" lon="-19.11654663"><ele>764.6</ele><time>2012-07-23T16:05:07.0000000+00:00</time></trkpt><trkpt lat="63.99750519" lon="-19.11654663"><ele>764.7</ele><time>2012-07-23T16:05:12.0000000+00:00</time></trkpt><trkpt lat="63.99750519" lon="-19.11654663"><ele>764.7</ele><time>2012-07-23T16:05:17.0000000+00:00</time></trkpt><trkpt lat="63.99750519" lon="-19.11654663"><ele>764.7</ele><time>2012-07-23T16:05:22.0000000+00:00</time></trkpt><trkpt lat="63.99750519" lon="-19.11654663"><ele>764.7</ele><time>2012-07-23T16:05:27.0000000+00:00</time></trkpt><trkpt lat="63.99750519" lon="-19.11654663"><ele>764.7</ele><time>2012-07-23T16:05:32.0000000+00:00</time></trkpt><trkpt lat="63.99750519" lon="-19.11654854"><ele>764.7</ele><time>2012-07-23T16:05:37.0000000+00:00</time></trkpt><trkpt lat="63.99750519" lon="-19.11654854"><ele>764.7</ele><time>2012-07-23T16:05:42.0000000+00:00</time></trkpt><trkpt lat="63.99750519" lon="-19.11654854"><ele>764.7</ele><time>2012-07-23T16:05:47.0000000+00:00</time></trkpt><trkpt lat="63.997509" lon="-19.11654854"><ele>764.7</ele><time>2012-07-23T16:05:52.0000000+00:00</time></trkpt><trkpt lat="63.99750519" lon="-19.11654663"><ele>764.7</ele><time>2012-07-23T16:05:57.0000000+00:00</time></trkpt><trkpt lat="63.99750519" lon="-19.11654663"><ele>764.7</ele><time>2012-07-23T16:06:02.0000000+00:00</time></trkpt><trkpt lat="63.99750519" lon="-19.11654663"><ele>764.7</ele><time>2012-07-23T16:06:07.0000000+00:00</time></trkpt><trkpt lat="63.99750519" lon="-19.11654663"><ele>764.7</ele><time>2012-07-23T16:06:12.0000000+00:00</time></trkpt><trkpt lat="63.99750519" lon="-19.11654663"><ele>764.7</ele><time>2012-07-23T16:06:17.0000000+00:00</time></trkpt><trkpt lat="63.99750519" lon="-19.11654663"><ele>764.7</ele><time>2012-07-23T16:06:22.0000000+00:00</time></trkpt><trkpt lat="63.99750519" lon="-19.11654663"><ele>764.7</ele><time>2012-07-23T16:06:27.0000000+00:00</time></trkpt><trkpt lat="63.99750519" lon="-19.11654663"><ele>764.8</ele><time>2012-07-23T16:06:32.0000000+00:00</time></trkpt><trkpt lat="63.99750519" lon="-19.11654663"><ele>764.8</ele><time>2012-07-23T16:06:37.0000000+00:00</time></trkpt><trkpt lat="63.99750519" lon="-19.11654663"><ele>764.8</ele><time>2012-07-23T16:06:42.0000000+00:00</time></trkpt><trkpt lat="63.99750519" lon="-19.11654854"><ele>764.8</ele><time>2012-07-23T16:06:47.0000000+00:00</time></trkpt><trkpt lat="63.99750519" lon="-19.11654854"><ele>764.8</ele><time>2012-07-23T16:06:52.0000000+00:00</time></trkpt><trkpt lat="63.99750519" lon="-19.11654854"><ele>764.8</ele><time>2012-07-23T16:06:57.0000000+00:00</time></trkpt><trkpt lat="63.99746323" lon="-19.1166172"><ele>765.5</ele><time>2012-07-23T16:07:02.0000000+00:00</time></trkpt><trkpt lat="63.99742127" lon="-19.11670303"><ele>765.9</ele><time>2012-07-23T16:07:07.0000000+00:00</time></trkpt><trkpt lat="63.99738312" lon="-19.11678314"><ele>765.9</ele><time>2012-07-23T16:07:12.0000000+00:00</time></trkpt><trkpt lat="63.99734497" lon="-19.11684609"><ele>766.3</ele><time>2012-07-23T16:07:17.0000000+00:00</time></trkpt><trkpt lat="63.99731064" lon="-19.11690521"><ele>766.8</ele><time>2012-07-23T16:07:22.0000000+00:00</time></trkpt><trkpt lat="63.99726868" lon="-19.11696625"><ele>767.5</ele><time>2012-07-23T16:07:27.0000000+00:00</time></trkpt><trkpt lat="63.99720764" lon="-19.11701202"><ele>767.9</ele><time>2012-07-23T16:07:32.0000000+00:00</time></trkpt><trkpt lat="63.99716187" lon="-19.11704636"><ele>767.1</ele><time>2012-07-23T16:07:37.0000000+00:00</time></trkpt><trkpt lat="63.99710846" lon="-19.11706924"><ele>766.5</ele><time>2012-07-23T16:07:42.0000000+00:00</time></trkpt><trkpt lat="63.99705887" lon="-19.1170826"><ele>765.9</ele><time>2012-07-23T16:07:47.0000000+00:00</time></trkpt><trkpt lat="63.99703217" lon="-19.11711311"><ele>765.4</ele><time>2012-07-23T16:07:52.0000000+00:00</time></trkpt><trkpt lat="63.9969902" lon="-19.11711884"><ele>764.9</ele><time>2012-07-23T16:07:57.0000000+00:00</time></trkpt><trkpt lat="63.99694443" lon="-19.11710548"><ele>763.9</ele><time>2012-07-23T16:08:02.0000000+00:00</time></trkpt><trkpt lat="63.99689102" lon="-19.11707497"><ele>763.2</ele><time>2012-07-23T16:08:07.0000000+00:00</time></trkpt><trkpt lat="63.99683762" lon="-19.11702347"><ele>762.1</ele><time>2012-07-23T16:08:12.0000000+00:00</time></trkpt><trkpt lat="63.99678421" lon="-19.11699867"><ele>760.7</ele><time>2012-07-23T16:08:17.0000000+00:00</time></trkpt><trkpt lat="63.9967308" lon="-19.11693955"><ele>759.4</ele><time>2012-07-23T16:08:22.0000000+00:00</time></trkpt><trkpt lat="63.99669266" lon="-19.11685753"><ele>758.4</ele><time>2012-07-23T16:08:27.0000000+00:00</time></trkpt><trkpt lat="63.99665451" lon="-19.116745"><ele>757.0</ele><time>2012-07-23T16:08:32.0000000+00:00</time></trkpt><trkpt lat="63.99662399" lon="-19.11669159"><ele>755.8</ele><time>2012-07-23T16:08:37.0000000+00:00</time></trkpt><trkpt lat="63.99659729" lon="-19.11665154"><ele>754.1</ele><time>2012-07-23T16:08:42.0000000+00:00</time></trkpt><trkpt lat="63.9965744" lon="-19.11660957"><ele>752.8</ele><time>2012-07-23T16:08:47.0000000+00:00</time></trkpt><trkpt lat="63.99654007" lon="-19.11654663"><ele>751.7</ele><time>2012-07-23T16:08:52.0000000+00:00</time></trkpt><trkpt lat="63.99651337" lon="-19.11646843"><ele>751.3</ele><time>2012-07-23T16:08:57.0000000+00:00</time></trkpt><trkpt lat="63.99648285" lon="-19.11642075"><ele>750.1</ele><time>2012-07-23T16:09:02.0000000+00:00</time></trkpt><trkpt lat="63.99648285" lon="-19.11639977"><ele>749.3</ele><time>2012-07-23T16:09:07.0000000+00:00</time></trkpt><trkpt lat="63.99648666" lon="-19.11638641"><ele>749.5</ele><time>2012-07-23T16:09:12.0000000+00:00</time></trkpt><trkpt lat="63.99648666" lon="-19.11638832"><ele>749.7</ele><time>2012-07-23T16:09:17.0000000+00:00</time></trkpt><trkpt lat="63.99649048" lon="-19.11638451"><ele>749.7</ele><time>2012-07-23T16:09:22.0000000+00:00</time></trkpt><trkpt lat="63.99649048" lon="-19.11638451"><ele>749.8</ele><time>2012-07-23T16:09:27.0000000+00:00</time></trkpt><trkpt lat="63.99649048" lon="-19.11638451"><ele>749.7</ele><time>2012-07-23T16:09:32.0000000+00:00</time></trkpt><trkpt lat="63.99649048" lon="-19.11638451"><ele>749.7</ele><time>2012-07-23T16:09:37.0000000+00:00</time></trkpt><trkpt lat="63.99649048" lon="-19.11638451"><ele>749.7</ele><time>2012-07-23T16:09:42.0000000+00:00</time></trkpt><trkpt lat="63.99649048" lon="-19.11638451"><ele>749.7</ele><time>2012-07-23T16:09:47.0000000+00:00</time></trkpt><trkpt lat="63.99649048" lon="-19.11638451"><ele>749.7</ele><time>2012-07-23T16:09:52.0000000+00:00</time></trkpt><trkpt lat="63.99649048" lon="-19.11638451"><ele>749.7</ele><time>2012-07-23T16:09:57.0000000+00:00</time></trkpt><trkpt lat="63.99649048" lon="-19.11638451"><ele>749.7</ele><time>2012-07-23T16:10:02.0000000+00:00</time></trkpt><trkpt lat="63.99649048" lon="-19.1163826"><ele>749.7</ele><time>2012-07-23T16:10:07.0000000+00:00</time></trkpt><trkpt lat="63.99649048" lon="-19.1163826"><ele>749.7</ele><time>2012-07-23T16:10:12.0000000+00:00</time></trkpt><trkpt lat="63.99649048" lon="-19.11638069"><ele>749.7</ele><time>2012-07-23T16:10:17.0000000+00:00</time></trkpt><trkpt lat="63.99649048" lon="-19.11638069"><ele>749.7</ele><time>2012-07-23T16:10:22.0000000+00:00</time></trkpt><trkpt lat="63.99649048" lon="-19.11638069"><ele>749.7</ele><time>2012-07-23T16:10:27.0000000+00:00</time></trkpt><trkpt lat="63.99649048" lon="-19.11638069"><ele>749.8</ele><time>2012-07-23T16:10:32.0000000+00:00</time></trkpt><trkpt lat="63.99649048" lon="-19.11638069"><ele>749.8</ele><time>2012-07-23T16:10:37.0000000+00:00</time></trkpt><trkpt lat="63.99649048" lon="-19.11637878"><ele>749.8</ele><time>2012-07-23T16:10:42.0000000+00:00</time></trkpt><trkpt lat="63.99649048" lon="-19.11637878"><ele>749.8</ele><time>2012-07-23T16:10:47.0000000+00:00</time></trkpt><trkpt lat="63.99649048" lon="-19.11637878"><ele>749.8</ele><time>2012-07-23T16:10:52.0000000+00:00</time></trkpt><trkpt lat="63.99649048" lon="-19.11637878"><ele>749.8</ele><time>2012-07-23T16:10:57.0000000+00:00</time></trkpt><trkpt lat="63.99649048" lon="-19.11637878"><ele>749.8</ele><time>2012-07-23T16:11:02.0000000+00:00</time></trkpt><trkpt lat="63.99649048" lon="-19.11637878"><ele>749.8</ele><time>2012-07-23T16:11:07.0000000+00:00</time></trkpt><trkpt lat="63.99649048" lon="-19.11637688"><ele>749.7</ele><time>2012-07-23T16:11:12.0000000+00:00</time></trkpt><trkpt lat="63.99649048" lon="-19.11637688"><ele>749.7</ele><time>2012-07-23T16:11:17.0000000+00:00</time></trkpt><trkpt lat="63.99649048" lon="-19.11637688"><ele>749.7</ele><time>2012-07-23T16:11:22.0000000+00:00</time></trkpt><trkpt lat="63.99649048" lon="-19.11637688"><ele>749.7</ele><time>2012-07-23T16:11:27.0000000+00:00</time></trkpt><trkpt lat="63.99649048" lon="-19.11637688"><ele>749.7</ele><time>2012-07-23T16:11:32.0000000+00:00</time></trkpt><trkpt lat="63.99649048" lon="-19.11637688"><ele>749.7</ele><time>2012-07-23T16:11:37.0000000+00:00</time></trkpt><trkpt lat="63.99649048" lon="-19.11637688"><ele>749.7</ele><time>2012-07-23T16:11:42.0000000+00:00</time></trkpt><trkpt lat="63.99649048" lon="-19.11637497"><ele>749.7</ele><time>2012-07-23T16:11:47.0000000+00:00</time></trkpt><trkpt lat="63.99649048" lon="-19.11637497"><ele>749.7</ele><time>2012-07-23T16:11:52.0000000+00:00</time></trkpt><trkpt lat="63.99649048" lon="-19.11637497"><ele>749.8</ele><time>2012-07-23T16:11:57.0000000+00:00</time></trkpt><trkpt lat="63.99649048" lon="-19.11637497"><ele>749.8</ele><time>2012-07-23T16:12:02.0000000+00:00</time></trkpt><trkpt lat="63.99649048" lon="-19.11637497"><ele>749.7</ele><time>2012-07-23T16:12:07.0000000+00:00</time></trkpt><trkpt lat="63.99649048" lon="-19.11637306"><ele>749.7</ele><time>2012-07-23T16:12:12.0000000+00:00</time></trkpt><trkpt lat="63.99649048" lon="-19.11637306"><ele>749.8</ele><time>2012-07-23T16:12:17.0000000+00:00</time></trkpt><trkpt lat="63.99649048" lon="-19.11637306"><ele>749.8</ele><time>2012-07-23T16:12:22.0000000+00:00</time></trkpt><trkpt lat="63.99650955" lon="-19.11648941"><ele>750.0</ele><time>2012-07-23T16:12:27.0000000+00:00</time></trkpt><trkpt lat="63.99655533" lon="-19.11659813"><ele>751.3</ele><time>2012-07-23T16:12:32.0000000+00:00</time></trkpt><trkpt lat="63.99659729" lon="-19.11667442"><ele>753.2</ele><time>2012-07-23T16:12:37.0000000+00:00</time></trkpt><trkpt lat="63.99664307" lon="-19.11672974"><ele>755.1</ele><time>2012-07-23T16:12:42.0000000+00:00</time></trkpt><trkpt lat="63.9966774" lon="-19.11679077"><ele>756.3</ele><time>2012-07-23T16:12:47.0000000+00:00</time></trkpt><trkpt lat="63.99672318" lon="-19.11688042"><ele>757.1</ele><time>2012-07-23T16:12:52.0000000+00:00</time></trkpt><trkpt lat="63.99677658" lon="-19.1169548"><ele>758.2</ele><time>2012-07-23T16:12:57.0000000+00:00</time></trkpt><trkpt lat="63.99683762" lon="-19.11699486"><ele>759.1</ele><time>2012-07-23T16:13:02.0000000+00:00</time></trkpt><trkpt lat="63.99689484" lon="-19.11704063"><ele>760.4</ele><time>2012-07-23T16:13:07.0000000+00:00</time></trkpt><trkpt lat="63.99696732" lon="-19.11707687"><ele>761.6</ele><time>2012-07-23T16:13:12.0000000+00:00</time></trkpt><trkpt lat="63.99702835" lon="-19.11707306"><ele>761.8</ele><time>2012-07-23T16:13:17.0000000+00:00</time></trkpt><trkpt lat="63.9970932" lon="-19.11705971"><ele>762.0</ele><time>2012-07-23T16:13:22.0000000+00:00</time></trkpt><trkpt lat="63.99715805" lon="-19.11702156"><ele>762.5</ele><time>2012-07-23T16:13:27.0000000+00:00</time></trkpt><trkpt lat="63.9972229" lon="-19.11696816"><ele>762.9</ele><time>2012-07-23T16:13:32.0000000+00:00</time></trkpt><trkpt lat="63.99728394" lon="-19.11691856"><ele>762.6</ele><time>2012-07-23T16:13:37.0000000+00:00</time></trkpt><trkpt lat="63.99735642" lon="-19.11684418"><ele>762.4</ele><time>2012-07-23T16:13:42.0000000+00:00</time></trkpt><trkpt lat="63.99741745" lon="-19.11676788"><ele>762.4</ele><time>2012-07-23T16:13:47.0000000+00:00</time></trkpt><trkpt lat="63.99747086" lon="-19.11668015"><ele>762.4</ele><time>2012-07-23T16:13:52.0000000+00:00</time></trkpt><trkpt lat="63.99751663" lon="-19.11660194"><ele>761.6</ele><time>2012-07-23T16:13:57.0000000+00:00</time></trkpt><trkpt lat="63.99754334" lon="-19.1165638"><ele>761.0</ele><time>2012-07-23T16:14:02.0000000+00:00</time></trkpt><trkpt lat="63.99754334" lon="-19.11656761"><ele>760.7</ele><time>2012-07-23T16:14:07.0000000+00:00</time></trkpt><trkpt lat="63.99754715" lon="-19.11655998"><ele>760.6</ele><time>2012-07-23T16:14:12.0000000+00:00</time></trkpt><trkpt lat="63.99754715" lon="-19.11655998"><ele>760.7</ele><time>2012-07-23T16:14:17.0000000+00:00</time></trkpt><trkpt lat="63.99754715" lon="-19.11655998"><ele>760.7</ele><time>2012-07-23T16:14:22.0000000+00:00</time></trkpt><trkpt lat="63.99754715" lon="-19.11655998"><ele>760.7</ele><time>2012-07-23T16:14:27.0000000+00:00</time></trkpt><trkpt lat="63.99754715" lon="-19.11655998"><ele>760.6</ele><time>2012-07-23T16:14:32.0000000+00:00</time></trkpt><trkpt lat="63.99754715" lon="-19.11655617"><ele>760.6</ele><time>2012-07-23T16:14:37.0000000+00:00</time></trkpt><trkpt lat="63.99753571" lon="-19.11652374"><ele>760.8</ele><time>2012-07-23T16:14:42.0000000+00:00</time></trkpt><trkpt lat="63.997509" lon="-19.11647606"><ele>761.2</ele><time>2012-07-23T16:14:47.0000000+00:00</time></trkpt><trkpt lat="63.99748993" lon="-19.11644363"><ele>761.8</ele><time>2012-07-23T16:14:52.0000000+00:00</time></trkpt><trkpt lat="63.99744797" lon="-19.11639977"><ele>762.5</ele><time>2012-07-23T16:14:57.0000000+00:00</time></trkpt><trkpt lat="63.99740219" lon="-19.11635399"><ele>764.3</ele><time>2012-07-23T16:15:02.0000000+00:00</time></trkpt><trkpt lat="63.9973526" lon="-19.11635017"><ele>764.5</ele><time>2012-07-23T16:15:07.0000000+00:00</time></trkpt><trkpt lat="63.99730301" lon="-19.11636734"><ele>765.0</ele><time>2012-07-23T16:15:12.0000000+00:00</time></trkpt><trkpt lat="63.99729919" lon="-19.11635971"><ele>766.6</ele><time>2012-07-23T16:15:17.0000000+00:00</time></trkpt><trkpt lat="63.99729919" lon="-19.11636162"><ele>766.7</ele><time>2012-07-23T16:15:22.0000000+00:00</time></trkpt><trkpt lat="63.99728775" lon="-19.11634827"><ele>766.9</ele><time>2012-07-23T16:15:27.0000000+00:00</time></trkpt><trkpt lat="63.99726105" lon="-19.11633301"><ele>767.0</ele><time>2012-07-23T16:15:32.0000000+00:00</time></trkpt><trkpt lat="63.99723434" lon="-19.11632919"><ele>766.7</ele><time>2012-07-23T16:15:37.0000000+00:00</time></trkpt><trkpt lat="63.99720764" lon="-19.11624718"><ele>767.2</ele><time>2012-07-23T16:15:42.0000000+00:00</time></trkpt><trkpt lat="63.99721146" lon="-19.11616325"><ele>769.2</ele><time>2012-07-23T16:15:47.0000000+00:00</time></trkpt><trkpt lat="63.9972229" lon="-19.11613274"><ele>769.5</ele><time>2012-07-23T16:15:52.0000000+00:00</time></trkpt><trkpt lat="63.99723053" lon="-19.11612701"><ele>769.6</ele><time>2012-07-23T16:15:57.0000000+00:00</time></trkpt><trkpt lat="63.99723434" lon="-19.11609268"><ele>770.3</ele><time>2012-07-23T16:16:02.0000000+00:00</time></trkpt><trkpt lat="63.99723053" lon="-19.11601257"><ele>770.5</ele><time>2012-07-23T16:16:07.0000000+00:00</time></trkpt><trkpt lat="63.99722672" lon="-19.11594391"><ele>770.0</ele><time>2012-07-23T16:16:12.0000000+00:00</time></trkpt><trkpt lat="63.99723434" lon="-19.1158123"><ele>770.7</ele><time>2012-07-23T16:16:17.0000000+00:00</time></trkpt><trkpt lat="63.9972496" lon="-19.11570549"><ele>771.7</ele><time>2012-07-23T16:16:22.0000000+00:00</time></trkpt><trkpt lat="63.99725342" lon="-19.1156311"><ele>772.3</ele><time>2012-07-23T16:16:27.0000000+00:00</time></trkpt><trkpt lat="63.99724579" lon="-19.11556816"><ele>771.4</ele><time>2012-07-23T16:16:32.0000000+00:00</time></trkpt><trkpt lat="63.9972496" lon="-19.11553574"><ele>771.1</ele><time>2012-07-23T16:16:37.0000000+00:00</time></trkpt><trkpt lat="63.99724579" lon="-19.11553383"><ele>771.1</ele><time>2012-07-23T16:16:42.0000000+00:00</time></trkpt><trkpt lat="63.99726105" lon="-19.11545944"><ele>770.8</ele><time>2012-07-23T16:16:47.0000000+00:00</time></trkpt><trkpt lat="63.99728012" lon="-19.11537552"><ele>770.8</ele><time>2012-07-23T16:16:52.0000000+00:00</time></trkpt><trkpt lat="63.99728775" lon="-19.11531067"><ele>770.7</ele><time>2012-07-23T16:16:57.0000000+00:00</time></trkpt><trkpt lat="63.9973259" lon="-19.11521149"><ele>771.3</ele><time>2012-07-23T16:17:02.0000000+00:00</time></trkpt><trkpt lat="63.99734497" lon="-19.11509323"><ele>770.8</ele><time>2012-07-23T16:17:07.0000000+00:00</time></trkpt><trkpt lat="63.99736404" lon="-19.11498261"><ele>770.9</ele><time>2012-07-23T16:17:12.0000000+00:00</time></trkpt><trkpt lat="63.99739456" lon="-19.11488724"><ele>770.7</ele><time>2012-07-23T16:17:17.0000000+00:00</time></trkpt><trkpt lat="63.99743271" lon="-19.11478806"><ele>771.5</ele><time>2012-07-23T16:17:22.0000000+00:00</time></trkpt><trkpt lat="63.99746704" lon="-19.11470795"><ele>771.9</ele><time>2012-07-23T16:17:27.0000000+00:00</time></trkpt><trkpt lat="63.9974823" lon="-19.11468697"><ele>772.3</ele><time>2012-07-23T16:17:32.0000000+00:00</time></trkpt><trkpt lat="63.99750519" lon="-19.11456871"><ele>771.6</ele><time>2012-07-23T16:17:37.0000000+00:00</time></trkpt><trkpt lat="63.99754334" lon="-19.11444283"><ele>771.8</ele><time>2012-07-23T16:17:42.0000000+00:00</time></trkpt><trkpt lat="63.99757767" lon="-19.11431885"><ele>772.0</ele><time>2012-07-23T16:17:47.0000000+00:00</time></trkpt><trkpt lat="63.99762726" lon="-19.11420059"><ele>772.7</ele><time>2012-07-23T16:17:52.0000000+00:00</time></trkpt><trkpt lat="63.99767685" lon="-19.11408615"><ele>773.5</ele><time>2012-07-23T16:17:57.0000000+00:00</time></trkpt><trkpt lat="63.997715" lon="-19.11399841"><ele>774.5</ele><time>2012-07-23T16:18:02.0000000+00:00</time></trkpt><trkpt lat="63.99772263" lon="-19.11397362"><ele>774.5</ele><time>2012-07-23T16:18:07.0000000+00:00</time></trkpt><trkpt lat="63.99772263" lon="-19.1139679"><ele>774.5</ele><time>2012-07-23T16:18:12.0000000+00:00</time></trkpt><trkpt lat="63.99772263" lon="-19.1139698"><ele>774.5</ele><time>2012-07-23T16:18:17.0000000+00:00</time></trkpt><trkpt lat="63.99772263" lon="-19.1139698"><ele>774.4</ele><time>2012-07-23T16:18:22.0000000+00:00</time></trkpt><trkpt lat="63.99773407" lon="-19.11388969"><ele>774.6</ele><time>2012-07-23T16:18:27.0000000+00:00</time></trkpt><trkpt lat="63.99776459" lon="-19.11378479"><ele>775.4</ele><time>2012-07-23T16:18:32.0000000+00:00</time></trkpt><trkpt lat="63.99780273" lon="-19.1136837"><ele>775.9</ele><time>2012-07-23T16:18:37.0000000+00:00</time></trkpt><trkpt lat="63.99782181" lon="-19.11358833"><ele>775.6</ele><time>2012-07-23T16:18:42.0000000+00:00</time></trkpt><trkpt lat="63.99785614" lon="-19.11348915"><ele>775.9</ele><time>2012-07-23T16:18:47.0000000+00:00</time></trkpt><trkpt lat="63.99789429" lon="-19.11338806"><ele>777.3</ele><time>2012-07-23T16:18:52.0000000+00:00</time></trkpt><trkpt lat="63.99793243" lon="-19.11327744"><ele>778.2</ele><time>2012-07-23T16:18:57.0000000+00:00</time></trkpt><trkpt lat="63.99795532" lon="-19.11317444"><ele>778.4</ele><time>2012-07-23T16:19:02.0000000+00:00</time></trkpt><trkpt lat="63.99797821" lon="-19.11306"><ele>778.5</ele><time>2012-07-23T16:19:07.0000000+00:00</time></trkpt><trkpt lat="63.99802017" lon="-19.11296463"><ele>778.9</ele><time>2012-07-23T16:19:12.0000000+00:00</time></trkpt><trkpt lat="63.99804306" lon="-19.11287117"><ele>779.3</ele><time>2012-07-23T16:19:17.0000000+00:00</time></trkpt><trkpt lat="63.99808502" lon="-19.11279488"><ele>779.0</ele><time>2012-07-23T16:19:22.0000000+00:00</time></trkpt><trkpt lat="63.99813461" lon="-19.11269569"><ele>780.2</ele><time>2012-07-23T16:19:27.0000000+00:00</time></trkpt><trkpt lat="63.99815369" lon="-19.11262894"><ele>780.6</ele><time>2012-07-23T16:19:32.0000000+00:00</time></trkpt><trkpt lat="63.99820328" lon="-19.1125927"><ele>780.6</ele><time>2012-07-23T16:19:37.0000000+00:00</time></trkpt><trkpt lat="63.99824905" lon="-19.11255646"><ele>781.2</ele><time>2012-07-23T16:19:42.0000000+00:00</time></trkpt><trkpt lat="63.99828339" lon="-19.11250496"><ele>781.9</ele><time>2012-07-23T16:19:47.0000000+00:00</time></trkpt><trkpt lat="63.99832916" lon="-19.11243439"><ele>781.7</ele><time>2012-07-23T16:19:52.0000000+00:00</time></trkpt><trkpt lat="63.99837494" lon="-19.11236"><ele>781.9</ele><time>2012-07-23T16:19:57.0000000+00:00</time></trkpt><trkpt lat="63.99843597" lon="-19.11231613"><ele>783.9</ele><time>2012-07-23T16:20:02.0000000+00:00</time></trkpt><trkpt lat="63.99848557" lon="-19.11228752"><ele>785.1</ele><time>2012-07-23T16:20:07.0000000+00:00</time></trkpt><trkpt lat="63.99853897" lon="-19.11222458"><ele>785.9</ele><time>2012-07-23T16:20:12.0000000+00:00</time></trkpt><trkpt lat="63.99860001" lon="-19.11217499"><ele>786.6</ele><time>2012-07-23T16:20:17.0000000+00:00</time></trkpt><trkpt lat="63.9986496" lon="-19.11212158"><ele>788.2</ele><time>2012-07-23T16:20:22.0000000+00:00</time></trkpt><trkpt lat="63.99869537" lon="-19.11206245"><ele>789.3</ele><time>2012-07-23T16:20:27.0000000+00:00</time></trkpt><trkpt lat="63.99873734" lon="-19.11198998"><ele>789.8</ele><time>2012-07-23T16:20:32.0000000+00:00</time></trkpt><trkpt lat="63.99877167" lon="-19.11188507"><ele>789.5</ele><time>2012-07-23T16:20:37.0000000+00:00</time></trkpt><trkpt lat="63.99881744" lon="-19.11180306"><ele>790.1</ele><time>2012-07-23T16:20:42.0000000+00:00</time></trkpt><trkpt lat="63.99883652" lon="-19.11177826"><ele>790.8</ele><time>2012-07-23T16:20:47.0000000+00:00</time></trkpt><trkpt lat="63.99887466" lon="-19.11170578"><ele>791.3</ele><time>2012-07-23T16:20:52.0000000+00:00</time></trkpt><trkpt lat="63.998909" lon="-19.11164284"><ele>791.3</ele><time>2012-07-23T16:20:57.0000000+00:00</time></trkpt><trkpt lat="63.9989357" lon="-19.11160851"><ele>791.9</ele><time>2012-07-23T16:21:02.0000000+00:00</time></trkpt><trkpt lat="63.99894333" lon="-19.11153984"><ele>792.2</ele><time>2012-07-23T16:21:07.0000000+00:00</time></trkpt><trkpt lat="63.99898148" lon="-19.11155129"><ele>792.0</ele><time>2012-07-23T16:21:12.0000000+00:00</time></trkpt><trkpt lat="63.99902344" lon="-19.1115551"><ele>792.3</ele><time>2012-07-23T16:21:17.0000000+00:00</time></trkpt><trkpt lat="63.99906158" lon="-19.11153603"><ele>792.0</ele><time>2012-07-23T16:21:22.0000000+00:00</time></trkpt><trkpt lat="63.99908447" lon="-19.11151314"><ele>791.7</ele><time>2012-07-23T16:21:27.0000000+00:00</time></trkpt><trkpt lat="63.99912262" lon="-19.1115303"><ele>791.1</ele><time>2012-07-23T16:21:32.0000000+00:00</time></trkpt><trkpt lat="63.99916458" lon="-19.1115284"><ele>791.8</ele><time>2012-07-23T16:21:37.0000000+00:00</time></trkpt><trkpt lat="63.99919891" lon="-19.11153793"><ele>791.9</ele><time>2012-07-23T16:21:42.0000000+00:00</time></trkpt><trkpt lat="63.99922562" lon="-19.11153603"><ele>792.4</ele><time>2012-07-23T16:21:47.0000000+00:00</time></trkpt><trkpt lat="63.99923706" lon="-19.11157417"><ele>792.7</ele><time>2012-07-23T16:21:52.0000000+00:00</time></trkpt><trkpt lat="63.99924851" lon="-19.11157799"><ele>792.4</ele><time>2012-07-23T16:21:57.0000000+00:00</time></trkpt><trkpt lat="63.99927139" lon="-19.11158371"><ele>792.9</ele><time>2012-07-23T16:22:02.0000000+00:00</time></trkpt><trkpt lat="63.99930573" lon="-19.11157799"><ele>793.5</ele><time>2012-07-23T16:22:07.0000000+00:00</time></trkpt><trkpt lat="63.99932861" lon="-19.11157417"><ele>794.2</ele><time>2012-07-23T16:22:12.0000000+00:00</time></trkpt><trkpt lat="63.99936295" lon="-19.11160851"><ele>794.9</ele><time>2012-07-23T16:22:17.0000000+00:00</time></trkpt><trkpt lat="63.99938583" lon="-19.11156464"><ele>795.5</ele><time>2012-07-23T16:22:22.0000000+00:00</time></trkpt><trkpt lat="63.99940109" lon="-19.11160469"><ele>796.2</ele><time>2012-07-23T16:22:27.0000000+00:00</time></trkpt><trkpt lat="63.99942398" lon="-19.11158943"><ele>797.1</ele><time>2012-07-23T16:22:32.0000000+00:00</time></trkpt><trkpt lat="63.99944305" lon="-19.11166573"><ele>798.1</ele><time>2012-07-23T16:22:37.0000000+00:00</time></trkpt><trkpt lat="63.99945831" lon="-19.11169434"><ele>798.9</ele><time>2012-07-23T16:22:42.0000000+00:00</time></trkpt><trkpt lat="63.99948883" lon="-19.11170578"><ele>800.1</ele><time>2012-07-23T16:22:47.0000000+00:00</time></trkpt><trkpt lat="63.99951553" lon="-19.11171341"><ele>801.2</ele><time>2012-07-23T16:22:52.0000000+00:00</time></trkpt><trkpt lat="63.99953461" lon="-19.11174202"><ele>801.8</ele><time>2012-07-23T16:22:57.0000000+00:00</time></trkpt><trkpt lat="63.9995575" lon="-19.11177254"><ele>802.7</ele><time>2012-07-23T16:23:02.0000000+00:00</time></trkpt><trkpt lat="63.99957275" lon="-19.11173248"><ele>803.6</ele><time>2012-07-23T16:23:07.0000000+00:00</time></trkpt><trkpt lat="63.99957275" lon="-19.11168289"><ele>803.8</ele><time>2012-07-23T16:23:12.0000000+00:00</time></trkpt><trkpt lat="63.9995842" lon="-19.11167908"><ele>803.9</ele><time>2012-07-23T16:23:17.0000000+00:00</time></trkpt><trkpt lat="63.99962616" lon="-19.11165428"><ele>804.8</ele><time>2012-07-23T16:23:22.0000000+00:00</time></trkpt><trkpt lat="63.99964142" lon="-19.11158752"><ele>805.5</ele><time>2012-07-23T16:23:27.0000000+00:00</time></trkpt><trkpt lat="63.99965286" lon="-19.11158752"><ele>805.8</ele><time>2012-07-23T16:23:32.0000000+00:00</time></trkpt><trkpt lat="63.99966431" lon="-19.11164665"><ele>807.4</ele><time>2012-07-23T16:23:37.0000000+00:00</time></trkpt><trkpt lat="63.99967575" lon="-19.11167336"><ele>808.6</ele><time>2012-07-23T16:23:42.0000000+00:00</time></trkpt><trkpt lat="63.9996872" lon="-19.1116066"><ele>808.5</ele><time>2012-07-23T16:23:47.0000000+00:00</time></trkpt><trkpt lat="63.99970245" lon="-19.11165237"><ele>809.3</ele><time>2012-07-23T16:23:52.0000000+00:00</time></trkpt><trkpt lat="63.99973297" lon="-19.11158752"><ele>810.4</ele><time>2012-07-23T16:23:57.0000000+00:00</time></trkpt><trkpt lat="63.99975967" lon="-19.11154556"><ele>812.0</ele><time>2012-07-23T16:24:02.0000000+00:00</time></trkpt><trkpt lat="63.99975967" lon="-19.11159134"><ele>812.6</ele><time>2012-07-23T16:24:07.0000000+00:00</time></trkpt><trkpt lat="63.9997673" lon="-19.11158943"><ele>812.8</ele><time>2012-07-23T16:24:12.0000000+00:00</time></trkpt><trkpt lat="63.9997673" lon="-19.11158752"><ele>812.9</ele><time>2012-07-23T16:24:17.0000000+00:00</time></trkpt><trkpt lat="63.9997673" lon="-19.11158562"><ele>813.0</ele><time>2012-07-23T16:24:22.0000000+00:00</time></trkpt><trkpt lat="63.9997673" lon="-19.11158562"><ele>813.0</ele><time>2012-07-23T16:24:27.0000000+00:00</time></trkpt><trkpt lat="63.9997673" lon="-19.11158371"><ele>813.0</ele><time>2012-07-23T16:24:32.0000000+00:00</time></trkpt><trkpt lat="63.9997673" lon="-19.11158371"><ele>813.0</ele><time>2012-07-23T16:24:37.0000000+00:00</time></trkpt><trkpt lat="63.9997673" lon="-19.11158371"><ele>813.1</ele><time>2012-07-23T16:24:42.0000000+00:00</time></trkpt><trkpt lat="63.9997673" lon="-19.11158371"><ele>813.1</ele><time>2012-07-23T16:24:47.0000000+00:00</time></trkpt><trkpt lat="63.9997673" lon="-19.11158371"><ele>813.1</ele><time>2012-07-23T16:24:52.0000000+00:00</time></trkpt><trkpt lat="63.9997673" lon="-19.11158371"><ele>813.1</ele><time>2012-07-23T16:24:57.0000000+00:00</time></trkpt><trkpt lat="63.9997673" lon="-19.11158371"><ele>813.1</ele><time>2012-07-23T16:25:02.0000000+00:00</time></trkpt><trkpt lat="63.9997673" lon="-19.11158371"><ele>813.1</ele><time>2012-07-23T16:25:07.0000000+00:00</time></trkpt><trkpt lat="63.9997673" lon="-19.11158371"><ele>813.1</ele><time>2012-07-23T16:25:12.0000000+00:00</time></trkpt><trkpt lat="63.99977493" lon="-19.11160851"><ele>813.0</ele><time>2012-07-23T16:25:17.0000000+00:00</time></trkpt><trkpt lat="63.99980164" lon="-19.11165619"><ele>814.6</ele><time>2012-07-23T16:25:22.0000000+00:00</time></trkpt><trkpt lat="63.99982834" lon="-19.1116581"><ele>815.7</ele><time>2012-07-23T16:25:27.0000000+00:00</time></trkpt><trkpt lat="63.9998436" lon="-19.11162567"><ele>816.4</ele><time>2012-07-23T16:25:32.0000000+00:00</time></trkpt><trkpt lat="63.9998436" lon="-19.11165237"><ele>817.3</ele><time>2012-07-23T16:25:37.0000000+00:00</time></trkpt><trkpt lat="63.99986649" lon="-19.11165047"><ele>818.3</ele><time>2012-07-23T16:25:42.0000000+00:00</time></trkpt><trkpt lat="63.99988174" lon="-19.11164475"><ele>820.0</ele><time>2012-07-23T16:25:47.0000000+00:00</time></trkpt><trkpt lat="63.99990845" lon="-19.11169243"><ele>821.1</ele><time>2012-07-23T16:25:52.0000000+00:00</time></trkpt><trkpt lat="63.99993515" lon="-19.11171913"><ele>822.1</ele><time>2012-07-23T16:25:57.0000000+00:00</time></trkpt><trkpt lat="63.99996185" lon="-19.11174202"><ele>823.1</ele><time>2012-07-23T16:26:02.0000000+00:00</time></trkpt><trkpt lat="63.99999619" lon="-19.11175919"><ele>824.1</ele><time>2012-07-23T16:26:07.0000000+00:00</time></trkpt><trkpt lat="64.00001526" lon="-19.11175156"><ele>825.1</ele><time>2012-07-23T16:26:12.0000000+00:00</time></trkpt><trkpt lat="64.00003052" lon="-19.11173439"><ele>825.8</ele><time>2012-07-23T16:26:17.0000000+00:00</time></trkpt><trkpt lat="64.00005341" lon="-19.11168671"><ele>826.9</ele><time>2012-07-23T16:26:22.0000000+00:00</time></trkpt><trkpt lat="64.00007629" lon="-19.11161995"><ele>827.7</ele><time>2012-07-23T16:26:27.0000000+00:00</time></trkpt><trkpt lat="64.00007629" lon="-19.11158562"><ele>827.4</ele><time>2012-07-23T16:26:32.0000000+00:00</time></trkpt><trkpt lat="64.00007629" lon="-19.1115551"><ele>827.5</ele><time>2012-07-23T16:26:37.0000000+00:00</time></trkpt><trkpt lat="64.00010681" lon="-19.11150169"><ele>828.5</ele><time>2012-07-23T16:26:42.0000000+00:00</time></trkpt><trkpt lat="64.00013733" lon="-19.11152458"><ele>829.6</ele><time>2012-07-23T16:26:47.0000000+00:00</time></trkpt><trkpt lat="64.00015259" lon="-19.11151695"><ele>830.2</ele><time>2012-07-23T16:26:52.0000000+00:00</time></trkpt><trkpt lat="64.00016785" lon="-19.11143494"><ele>831.1</ele><time>2012-07-23T16:26:57.0000000+00:00</time></trkpt><trkpt lat="64.00021362" lon="-19.11143112"><ele>833.2</ele><time>2012-07-23T16:27:02.0000000+00:00</time></trkpt><trkpt lat="64.00022125" lon="-19.11140823"><ele>834.2</ele><time>2012-07-23T16:27:07.0000000+00:00</time></trkpt><trkpt lat="64.00025177" lon="-19.11144638"><ele>835.1</ele><time>2012-07-23T16:27:12.0000000+00:00</time></trkpt><trkpt lat="64.00027466" lon="-19.11143875"><ele>835.9</ele><time>2012-07-23T16:27:17.0000000+00:00</time></trkpt><trkpt lat="64.00032044" lon="-19.11143875"><ele>837.1</ele><time>2012-07-23T16:27:22.0000000+00:00</time></trkpt><trkpt lat="64.00034332" lon="-19.11142349"><ele>837.8</ele><time>2012-07-23T16:27:27.0000000+00:00</time></trkpt><trkpt lat="64.0003891" lon="-19.11143112"><ele>838.9</ele><time>2012-07-23T16:27:32.0000000+00:00</time></trkpt><trkpt lat="64.00040436" lon="-19.11144829"><ele>839.0</ele><time>2012-07-23T16:27:37.0000000+00:00</time></trkpt><trkpt lat="64.00040436" lon="-19.11146545"><ele>839.3</ele><time>2012-07-23T16:27:42.0000000+00:00</time></trkpt><trkpt lat="64.00042725" lon="-19.11144257"><ele>839.7</ele><time>2012-07-23T16:27:47.0000000+00:00</time></trkpt><trkpt lat="64.00046539" lon="-19.11143494"><ele>840.9</ele><time>2012-07-23T16:27:52.0000000+00:00</time></trkpt><trkpt lat="64.00050354" lon="-19.11140823"><ele>841.3</ele><time>2012-07-23T16:27:57.0000000+00:00</time></trkpt><trkpt lat="64.00055695" lon="-19.11141777"><ele>842.9</ele><time>2012-07-23T16:28:02.0000000+00:00</time></trkpt><trkpt lat="64.00059509" lon="-19.11137962"><ele>843.9</ele><time>2012-07-23T16:28:07.0000000+00:00</time></trkpt><trkpt lat="64.00063324" lon="-19.11136818"><ele>845.3</ele><time>2012-07-23T16:28:12.0000000+00:00</time></trkpt><trkpt lat="64.00067139" lon="-19.11136246"><ele>846.2</ele><time>2012-07-23T16:28:17.0000000+00:00</time></trkpt><trkpt lat="64.00069428" lon="-19.11133766"><ele>847.0</ele><time>2012-07-23T16:28:22.0000000+00:00</time></trkpt><trkpt lat="64.00071716" lon="-19.11129952"><ele>848.1</ele><time>2012-07-23T16:28:27.0000000+00:00</time></trkpt><trkpt lat="64.00076294" lon="-19.11131096"><ele>848.7</ele><time>2012-07-23T16:28:32.0000000+00:00</time></trkpt><trkpt lat="64.00078583" lon="-19.11132431"><ele>848.8</ele><time>2012-07-23T16:28:37.0000000+00:00</time></trkpt><trkpt lat="64.00078583" lon="-19.11133194"><ele>849.3</ele><time>2012-07-23T16:28:42.0000000+00:00</time></trkpt><trkpt lat="64.00080872" lon="-19.11132431"><ele>849.9</ele><time>2012-07-23T16:28:47.0000000+00:00</time></trkpt><trkpt lat="64.00086975" lon="-19.11132622"><ele>850.8</ele><time>2012-07-23T16:28:52.0000000+00:00</time></trkpt><trkpt lat="64.0009079" lon="-19.11131287"><ele>851.7</ele><time>2012-07-23T16:28:57.0000000+00:00</time></trkpt><trkpt lat="64.0009613" lon="-19.11128426"><ele>852.3</ele><time>2012-07-23T16:29:02.0000000+00:00</time></trkpt><trkpt lat="64.00100708" lon="-19.11125755"><ele>852.3</ele><time>2012-07-23T16:29:07.0000000+00:00</time></trkpt><trkpt lat="64.00105286" lon="-19.11122322"><ele>852.0</ele><time>2012-07-23T16:29:12.0000000+00:00</time></trkpt><trkpt lat="64.001091" lon="-19.11125946"><ele>853.2</ele><time>2012-07-23T16:29:17.0000000+00:00</time></trkpt><trkpt lat="64.00112915" lon="-19.11135101"><ele>853.0</ele><time>2012-07-23T16:29:22.0000000+00:00</time></trkpt><trkpt lat="64.00115967" lon="-19.11140823"><ele>853.0</ele><time>2012-07-23T16:29:27.0000000+00:00</time></trkpt><trkpt lat="64.0011673" lon="-19.11139107"><ele>853.2</ele><time>2012-07-23T16:29:32.0000000+00:00</time></trkpt><trkpt lat="64.0011673" lon="-19.11130333"><ele>854.0</ele><time>2012-07-23T16:29:37.0000000+00:00</time></trkpt><trkpt lat="64.00115204" lon="-19.11123085"><ele>853.5</ele><time>2012-07-23T16:29:42.0000000+00:00</time></trkpt><trkpt lat="64.00115204" lon="-19.11120606"><ele>853.6</ele><time>2012-07-23T16:29:47.0000000+00:00</time></trkpt><trkpt lat="64.00114441" lon="-19.11114883"><ele>853.8</ele><time>2012-07-23T16:29:52.0000000+00:00</time></trkpt><trkpt lat="64.00114441" lon="-19.11115074"><ele>853.7</ele><time>2012-07-23T16:29:57.0000000+00:00</time></trkpt><trkpt lat="64.00114441" lon="-19.11115074"><ele>853.7</ele><time>2012-07-23T16:30:02.0000000+00:00</time></trkpt><trkpt lat="64.00114441" lon="-19.11115074"><ele>853.7</ele><time>2012-07-23T16:30:07.0000000+00:00</time></trkpt><trkpt lat="64.00114441" lon="-19.11115074"><ele>853.7</ele><time>2012-07-23T16:30:12.0000000+00:00</time></trkpt><trkpt lat="64.00114441" lon="-19.11115074"><ele>853.7</ele><time>2012-07-23T16:30:17.0000000+00:00</time></trkpt><trkpt lat="64.00114441" lon="-19.11115265"><ele>853.7</ele><time>2012-07-23T16:30:22.0000000+00:00</time></trkpt><trkpt lat="64.00114441" lon="-19.11115074"><ele>853.7</ele><time>2012-07-23T16:30:27.0000000+00:00</time></trkpt><trkpt lat="64.00114441" lon="-19.11115074"><ele>853.7</ele><time>2012-07-23T16:30:32.0000000+00:00</time></trkpt><trkpt lat="64.00114441" lon="-19.11115074"><ele>853.6</ele><time>2012-07-23T16:30:37.0000000+00:00</time></trkpt><trkpt lat="64.00114441" lon="-19.11115074"><ele>853.6</ele><time>2012-07-23T16:30:42.0000000+00:00</time></trkpt><trkpt lat="64.00114441" lon="-19.11115074"><ele>853.6</ele><time>2012-07-23T16:30:47.0000000+00:00</time></trkpt><trkpt lat="64.00114441" lon="-19.11115074"><ele>853.6</ele><time>2012-07-23T16:30:52.0000000+00:00</time></trkpt><trkpt lat="64.00114441" lon="-19.11115265"><ele>853.6</ele><time>2012-07-23T16:30:57.0000000+00:00</time></trkpt><trkpt lat="64.00114441" lon="-19.11117744"><ele>854.0</ele><time>2012-07-23T16:31:02.0000000+00:00</time></trkpt><trkpt lat="64.00113678" lon="-19.11118317"><ele>854.0</ele><time>2012-07-23T16:31:07.0000000+00:00</time></trkpt><trkpt lat="64.00113678" lon="-19.11118317"><ele>854.0</ele><time>2012-07-23T16:31:12.0000000+00:00</time></trkpt><trkpt lat="64.00114441" lon="-19.11118889"><ele>854.3</ele><time>2012-07-23T16:31:17.0000000+00:00</time></trkpt><trkpt lat="64.00114441" lon="-19.11119461"><ele>854.9</ele><time>2012-07-23T16:31:22.0000000+00:00</time></trkpt><trkpt lat="64.00114441" lon="-19.11119652"><ele>855.1</ele><time>2012-07-23T16:31:27.0000000+00:00</time></trkpt><trkpt lat="64.00115967" lon="-19.11119461"><ele>854.9</ele><time>2012-07-23T16:31:32.0000000+00:00</time></trkpt><trkpt lat="64.00121307" lon="-19.11116409"><ele>855.0</ele><time>2012-07-23T16:31:37.0000000+00:00</time></trkpt><trkpt lat="64.00127411" lon="-19.1111145"><ele>855.5</ele><time>2012-07-23T16:31:42.0000000+00:00</time></trkpt><trkpt lat="64.00130463" lon="-19.11101151"><ele>855.3</ele><time>2012-07-23T16:31:47.0000000+00:00</time></trkpt><trkpt lat="64.00134277" lon="-19.11088181"><ele>855.6</ele><time>2012-07-23T16:31:52.0000000+00:00</time></trkpt><trkpt lat="64.00137329" lon="-19.11073685"><ele>856.0</ele><time>2012-07-23T16:31:57.0000000+00:00</time></trkpt><trkpt lat="64.00140381" lon="-19.11063385"><ele>856.7</ele><time>2012-07-23T16:32:02.0000000+00:00</time></trkpt><trkpt lat="64.00143433" lon="-19.1105175"><ele>856.8</ele><time>2012-07-23T16:32:07.0000000+00:00</time></trkpt><trkpt lat="64.00145721" lon="-19.11038017"><ele>856.6</ele><time>2012-07-23T16:32:12.0000000+00:00</time></trkpt><trkpt lat="64.00146484" lon="-19.11026001"><ele>856.4</ele><time>2012-07-23T16:32:17.0000000+00:00</time></trkpt><trkpt lat="64.00147247" lon="-19.11016846"><ele>856.4</ele><time>2012-07-23T16:32:22.0000000+00:00</time></trkpt><trkpt lat="64.00148773" lon="-19.11011314"><ele>857.0</ele><time>2012-07-23T16:32:27.0000000+00:00</time></trkpt><trkpt lat="64.00149536" lon="-19.11010933"><ele>856.9</ele><time>2012-07-23T16:32:32.0000000+00:00</time></trkpt><trkpt lat="64.00150299" lon="-19.11011124"><ele>857.0</ele><time>2012-07-23T16:32:37.0000000+00:00</time></trkpt><trkpt lat="64.00150299" lon="-19.11009216"><ele>857.7</ele><time>2012-07-23T16:32:42.0000000+00:00</time></trkpt><trkpt lat="64.00151825" lon="-19.1100235"><ele>858.3</ele><time>2012-07-23T16:32:47.0000000+00:00</time></trkpt><trkpt lat="64.00154877" lon="-19.10995483"><ele>859.1</ele><time>2012-07-23T16:32:52.0000000+00:00</time></trkpt><trkpt lat="64.00157929" lon="-19.109869"><ele>860.0</ele><time>2012-07-23T16:32:57.0000000+00:00</time></trkpt><trkpt lat="64.0016098" lon="-19.10980034"><ele>861.7</ele><time>2012-07-23T16:33:02.0000000+00:00</time></trkpt><trkpt lat="64.00163269" lon="-19.10975838"><ele>862.8</ele><time>2012-07-23T16:33:07.0000000+00:00</time></trkpt><trkpt lat="64.00164795" lon="-19.10964394"><ele>862.3</ele><time>2012-07-23T16:33:12.0000000+00:00</time></trkpt><trkpt lat="64.00163269" lon="-19.10954857"><ele>861.9</ele><time>2012-07-23T16:33:17.0000000+00:00</time></trkpt><trkpt lat="64.00164795" lon="-19.10945129"><ele>861.5</ele><time>2012-07-23T16:33:22.0000000+00:00</time></trkpt><trkpt lat="64.00166321" lon="-19.10936356"><ele>862.1</ele><time>2012-07-23T16:33:27.0000000+00:00</time></trkpt><trkpt lat="64.00167847" lon="-19.10929108"><ele>863.9</ele><time>2012-07-23T16:33:32.0000000+00:00</time></trkpt><trkpt lat="64.00170898" lon="-19.10921478"><ele>865.0</ele><time>2012-07-23T16:33:37.0000000+00:00</time></trkpt><trkpt lat="64.00172424" lon="-19.10915756"><ele>865.5</ele><time>2012-07-23T16:33:42.0000000+00:00</time></trkpt><trkpt lat="64.00175476" lon="-19.10904121"><ele>865.8</ele><time>2012-07-23T16:33:47.0000000+00:00</time></trkpt><trkpt lat="64.00177002" lon="-19.10891533"><ele>866.9</ele><time>2012-07-23T16:33:52.0000000+00:00</time></trkpt><trkpt lat="64.00177765" lon="-19.10878944"><ele>867.7</ele><time>2012-07-23T16:33:57.0000000+00:00</time></trkpt><trkpt lat="64.00177765" lon="-19.10868454"><ele>868.2</ele><time>2012-07-23T16:34:02.0000000+00:00</time></trkpt><trkpt lat="64.00179291" lon="-19.10858154"><ele>867.4</ele><time>2012-07-23T16:34:07.0000000+00:00</time></trkpt><trkpt lat="64.00180817" lon="-19.1084652"><ele>867.9</ele><time>2012-07-23T16:34:12.0000000+00:00</time></trkpt><trkpt lat="64.0018158" lon="-19.10836983"><ele>867.4</ele><time>2012-07-23T16:34:17.0000000+00:00</time></trkpt><trkpt lat="64.00183868" lon="-19.10837936"><ele>867.8</ele><time>2012-07-23T16:34:22.0000000+00:00</time></trkpt><trkpt lat="64.00185394" lon="-19.10833168"><ele>868.7</ele><time>2012-07-23T16:34:27.0000000+00:00</time></trkpt><trkpt lat="64.00185394" lon="-19.10821343"><ele>868.8</ele><time>2012-07-23T16:34:32.0000000+00:00</time></trkpt><trkpt lat="64.0018692" lon="-19.10807991"><ele>870.4</ele><time>2012-07-23T16:34:37.0000000+00:00</time></trkpt><trkpt lat="64.00188446" lon="-19.10797691"><ele>871.6</ele><time>2012-07-23T16:34:42.0000000+00:00</time></trkpt><trkpt lat="64.00189972" lon="-19.10787201"><ele>871.9</ele><time>2012-07-23T16:34:47.0000000+00:00</time></trkpt><trkpt lat="64.00190735" lon="-19.10778427"><ele>872.3</ele><time>2012-07-23T16:34:52.0000000+00:00</time></trkpt><trkpt lat="64.00189972" lon="-19.10768318"><ele>872.5</ele><time>2012-07-23T16:34:57.0000000+00:00</time></trkpt><trkpt lat="64.00189209" lon="-19.10758209"><ele>874.2</ele><time>2012-07-23T16:35:02.0000000+00:00</time></trkpt><trkpt lat="64.00189209" lon="-19.10746384"><ele>875.3</ele><time>2012-07-23T16:35:07.0000000+00:00</time></trkpt><trkpt lat="64.00188446" lon="-19.10734367"><ele>877.0</ele><time>2012-07-23T16:35:12.0000000+00:00</time></trkpt><trkpt lat="64.00187683" lon="-19.10724449"><ele>878.5</ele><time>2012-07-23T16:35:17.0000000+00:00</time></trkpt><trkpt lat="64.00185394" lon="-19.10714722"><ele>878.6</ele><time>2012-07-23T16:35:22.0000000+00:00</time></trkpt><trkpt lat="64.00185394" lon="-19.10702896"><ele>879.0</ele><time>2012-07-23T16:35:27.0000000+00:00</time></trkpt><trkpt lat="64.00183106" lon="-19.10695839"><ele>879.4</ele><time>2012-07-23T16:35:32.0000000+00:00</time></trkpt><trkpt lat="64.0018158" lon="-19.10692215"><ele>878.6</ele><time>2012-07-23T16:35:37.0000000+00:00</time></trkpt><trkpt lat="64.0018158" lon="-19.10683823"><ele>879.6</ele><time>2012-07-23T16:35:42.0000000+00:00</time></trkpt><trkpt lat="64.0018158" lon="-19.10669708"><ele>881.4</ele><time>2012-07-23T16:35:47.0000000+00:00</time></trkpt><trkpt lat="64.00180054" lon="-19.10660934"><ele>882.2</ele><time>2012-07-23T16:35:52.0000000+00:00</time></trkpt><trkpt lat="64.00177765" lon="-19.10649872"><ele>883.1</ele><time>2012-07-23T16:35:57.0000000+00:00</time></trkpt><trkpt lat="64.00175476" lon="-19.10640907"><ele>883.1</ele><time>2012-07-23T16:36:02.0000000+00:00</time></trkpt><trkpt lat="64.00174713" lon="-19.10629463"><ele>884.1</ele><time>2012-07-23T16:36:07.0000000+00:00</time></trkpt><trkpt lat="64.0017395" lon="-19.10614586"><ele>884.6</ele><time>2012-07-23T16:36:12.0000000+00:00</time></trkpt><trkpt lat="64.00173187" lon="-19.10607147"><ele>885.1</ele><time>2012-07-23T16:36:17.0000000+00:00</time></trkpt><trkpt lat="64.00172424" lon="-19.10601234"><ele>886.1</ele><time>2012-07-23T16:36:22.0000000+00:00</time></trkpt><trkpt lat="64.00170136" lon="-19.10598564"><ele>888.0</ele><time>2012-07-23T16:36:27.0000000+00:00</time></trkpt><trkpt lat="64.00169373" lon="-19.10593224"><ele>889.8</ele><time>2012-07-23T16:36:32.0000000+00:00</time></trkpt><trkpt lat="64.0016861" lon="-19.10587311"><ele>890.7</ele><time>2012-07-23T16:36:37.0000000+00:00</time></trkpt><trkpt lat="64.0016861" lon="-19.10580063"><ele>892.0</ele><time>2012-07-23T16:36:42.0000000+00:00</time></trkpt><trkpt lat="64.00167084" lon="-19.10572815"><ele>893.1</ele><time>2012-07-23T16:36:47.0000000+00:00</time></trkpt><trkpt lat="64.00167084" lon="-19.10565949"><ele>894.7</ele><time>2012-07-23T16:36:52.0000000+00:00</time></trkpt><trkpt lat="64.00167084" lon="-19.10554886"><ele>897.0</ele><time>2012-07-23T16:36:57.0000000+00:00</time></trkpt><trkpt lat="64.00165558" lon="-19.10547829"><ele>897.4</ele><time>2012-07-23T16:37:02.0000000+00:00</time></trkpt><trkpt lat="64.00165558" lon="-19.10538673"><ele>897.7</ele><time>2012-07-23T16:37:07.0000000+00:00</time></trkpt><trkpt lat="64.00163269" lon="-19.10530472"><ele>897.6</ele><time>2012-07-23T16:37:12.0000000+00:00</time></trkpt><trkpt lat="64.0016098" lon="-19.10519791"><ele>898.7</ele><time>2012-07-23T16:37:17.0000000+00:00</time></trkpt><trkpt lat="64.00157929" lon="-19.10508537"><ele>900.0</ele><time>2012-07-23T16:37:22.0000000+00:00</time></trkpt><trkpt lat="64.0015564" lon="-19.10498428"><ele>901.1</ele><time>2012-07-23T16:37:27.0000000+00:00</time></trkpt><trkpt lat="64.00154114" lon="-19.10491371"><ele>901.5</ele><time>2012-07-23T16:37:32.0000000+00:00</time></trkpt><trkpt lat="64.00151825" lon="-19.10482597"><ele>900.3</ele><time>2012-07-23T16:37:37.0000000+00:00</time></trkpt><trkpt lat="64.00156403" lon="-19.10475731"><ele>902.7</ele><time>2012-07-23T16:37:42.0000000+00:00</time></trkpt><trkpt lat="64.00157166" lon="-19.10468674"><ele>905.2</ele><time>2012-07-23T16:37:47.0000000+00:00</time></trkpt><trkpt lat="64.0015564" lon="-19.10459137"><ele>907.3</ele><time>2012-07-23T16:37:52.0000000+00:00</time></trkpt><trkpt lat="64.00154114" lon="-19.10450745"><ele>906.6</ele><time>2012-07-23T16:37:57.0000000+00:00</time></trkpt><trkpt lat="64.00152588" lon="-19.10443497"><ele>906.9</ele><time>2012-07-23T16:38:02.0000000+00:00</time></trkpt><trkpt lat="64.00151825" lon="-19.10440445"><ele>906.7</ele><time>2012-07-23T16:38:07.0000000+00:00</time></trkpt><trkpt lat="64.00151825" lon="-19.10440445"><ele>906.4</ele><time>2012-07-23T16:38:12.0000000+00:00</time></trkpt><trkpt lat="64.00151825" lon="-19.10440254"><ele>906.4</ele><time>2012-07-23T16:38:17.0000000+00:00</time></trkpt><trkpt lat="64.00152588" lon="-19.10440445"><ele>906.5</ele><time>2012-07-23T16:38:22.0000000+00:00</time></trkpt><trkpt lat="64.00151825" lon="-19.10439873"><ele>906.5</ele><time>2012-07-23T16:38:27.0000000+00:00</time></trkpt><trkpt lat="64.00151825" lon="-19.10429192"><ele>905.5</ele><time>2012-07-23T16:38:32.0000000+00:00</time></trkpt><trkpt lat="64.00153351" lon="-19.1041584"><ele>906.5</ele><time>2012-07-23T16:38:37.0000000+00:00</time></trkpt><trkpt lat="64.00153351" lon="-19.10401726"><ele>906.1</ele><time>2012-07-23T16:38:42.0000000+00:00</time></trkpt><trkpt lat="64.00154114" lon="-19.10386086"><ele>904.5</ele><time>2012-07-23T16:38:47.0000000+00:00</time></trkpt><trkpt lat="64.0015564" lon="-19.10370827"><ele>903.7</ele><time>2012-07-23T16:38:52.0000000+00:00</time></trkpt><trkpt lat="64.00157929" lon="-19.10359192"><ele>903.3</ele><time>2012-07-23T16:38:57.0000000+00:00</time></trkpt><trkpt lat="64.00161743" lon="-19.10348892"><ele>903.9</ele><time>2012-07-23T16:39:02.0000000+00:00</time></trkpt><trkpt lat="64.00165558" lon="-19.10335922"><ele>904.5</ele><time>2012-07-23T16:39:07.0000000+00:00</time></trkpt><trkpt lat="64.00167084" lon="-19.10326386"><ele>905.8</ele><time>2012-07-23T16:39:12.0000000+00:00</time></trkpt><trkpt lat="64.0016861" lon="-19.10318375"><ele>906.3</ele><time>2012-07-23T16:39:17.0000000+00:00</time></trkpt><trkpt lat="64.00170136" lon="-19.10308838"><ele>906.4</ele><time>2012-07-23T16:39:22.0000000+00:00</time></trkpt><trkpt lat="64.00170898" lon="-19.10297203"><ele>906.7</ele><time>2012-07-23T16:39:27.0000000+00:00</time></trkpt><trkpt lat="64.00171661" lon="-19.10287666"><ele>907.8</ele><time>2012-07-23T16:39:32.0000000+00:00</time></trkpt><trkpt lat="64.00174713" lon="-19.10275841"><ele>909.2</ele><time>2012-07-23T16:39:37.0000000+00:00</time></trkpt><trkpt lat="64.00177765" lon="-19.1026535"><ele>910.8</ele><time>2012-07-23T16:39:42.0000000+00:00</time></trkpt><trkpt lat="64.00177765" lon="-19.10259247"><ele>911.0</ele><time>2012-07-23T16:39:47.0000000+00:00</time></trkpt><trkpt lat="64.00179291" lon="-19.10246468"><ele>911.6</ele><time>2012-07-23T16:39:52.0000000+00:00</time></trkpt><trkpt lat="64.00180054" lon="-19.10236168"><ele>912.2</ele><time>2012-07-23T16:39:57.0000000+00:00</time></trkpt><trkpt lat="64.00180054" lon="-19.10235214"><ele>913.8</ele><time>2012-07-23T16:40:02.0000000+00:00</time></trkpt><trkpt lat="64.00179291" lon="-19.10227585"><ele>913.5</ele><time>2012-07-23T16:40:07.0000000+00:00</time></trkpt><trkpt lat="64.00178528" lon="-19.10218811"><ele>913.6</ele><time>2012-07-23T16:40:12.0000000+00:00</time></trkpt><trkpt lat="64.00177002" lon="-19.10209847"><ele>915.2</ele><time>2012-07-23T16:40:17.0000000+00:00</time></trkpt><trkpt lat="64.00174713" lon="-19.10201263"><ele>915.9</ele><time>2012-07-23T16:40:22.0000000+00:00</time></trkpt><trkpt lat="64.00172424" lon="-19.10191536"><ele>916.0</ele><time>2012-07-23T16:40:27.0000000+00:00</time></trkpt><trkpt lat="64.00169373" lon="-19.10181427"><ele>916.4</ele><time>2012-07-23T16:40:32.0000000+00:00</time></trkpt><trkpt lat="64.00167084" lon="-19.10174942"><ele>916.0</ele><time>2012-07-23T16:40:37.0000000+00:00</time></trkpt><trkpt lat="64.00167084" lon="-19.10176849"><ele>915.2</ele><time>2012-07-23T16:40:42.0000000+00:00</time></trkpt><trkpt lat="64.00166321" lon="-19.10166931"><ele>916.5</ele><time>2012-07-23T16:40:47.0000000+00:00</time></trkpt><trkpt lat="64.00165558" lon="-19.10159302"><ele>916.5</ele><time>2012-07-23T16:40:52.0000000+00:00</time></trkpt><trkpt lat="64.00165558" lon="-19.101511"><ele>915.2</ele><time>2012-07-23T16:40:57.0000000+00:00</time></trkpt><trkpt lat="64.00164795" lon="-19.10143471"><ele>914.6</ele><time>2012-07-23T16:41:02.0000000+00:00</time></trkpt><trkpt lat="64.00165558" lon="-19.10136795"><ele>913.3</ele><time>2012-07-23T16:41:07.0000000+00:00</time></trkpt><trkpt lat="64.00166321" lon="-19.10130501"><ele>911.2</ele><time>2012-07-23T16:41:12.0000000+00:00</time></trkpt><trkpt lat="64.00166321" lon="-19.10126305"><ele>910.4</ele><time>2012-07-23T16:41:17.0000000+00:00</time></trkpt><trkpt lat="64.00166321" lon="-19.10123444"><ele>909.9</ele><time>2012-07-23T16:41:22.0000000+00:00</time></trkpt><trkpt lat="64.00166321" lon="-19.10123634"><ele>909.6</ele><time>2012-07-23T16:41:27.0000000+00:00</time></trkpt><trkpt lat="64.00164795" lon="-19.10119438"><ele>908.5</ele><time>2012-07-23T16:41:32.0000000+00:00</time></trkpt><trkpt lat="64.00165558" lon="-19.10114479"><ele>907.4</ele><time>2012-07-23T16:41:37.0000000+00:00</time></trkpt><trkpt lat="64.00165558" lon="-19.10108566"><ele>906.8</ele><time>2012-07-23T16:41:42.0000000+00:00</time></trkpt><trkpt lat="64.00166321" lon="-19.10103416"><ele>905.0</ele><time>2012-07-23T16:41:47.0000000+00:00</time></trkpt><trkpt lat="64.00167084" lon="-19.101017"><ele>904.8</ele><time>2012-07-23T16:41:52.0000000+00:00</time></trkpt><trkpt lat="64.00167084" lon="-19.10099983"><ele>904.7</ele><time>2012-07-23T16:41:57.0000000+00:00</time></trkpt><trkpt lat="64.00164795" lon="-19.10093117"><ele>904.6</ele><time>2012-07-23T16:42:02.0000000+00:00</time></trkpt><trkpt lat="64.00162506" lon="-19.10090065"><ele>903.5</ele><time>2012-07-23T16:42:07.0000000+00:00</time></trkpt><trkpt lat="64.00163269" lon="-19.10083389"><ele>902.1</ele><time>2012-07-23T16:42:12.0000000+00:00</time></trkpt><trkpt lat="64.00163269" lon="-19.10078049"><ele>899.9</ele><time>2012-07-23T16:42:17.0000000+00:00</time></trkpt><trkpt lat="64.00164032" lon="-19.10077667"><ele>899.6</ele><time>2012-07-23T16:42:22.0000000+00:00</time></trkpt><trkpt lat="64.00164795" lon="-19.10076523"><ele>899.7</ele><time>2012-07-23T16:42:27.0000000+00:00</time></trkpt><trkpt lat="64.00164032" lon="-19.10076332"><ele>899.8</ele><time>2012-07-23T16:42:32.0000000+00:00</time></trkpt><trkpt lat="64.00163269" lon="-19.10073471"><ele>899.3</ele><time>2012-07-23T16:42:37.0000000+00:00</time></trkpt><trkpt lat="64.00164032" lon="-19.1006546"><ele>897.8</ele><time>2012-07-23T16:42:42.0000000+00:00</time></trkpt><trkpt lat="64.00164032" lon="-19.10058403"><ele>896.8</ele><time>2012-07-23T16:42:47.0000000+00:00</time></trkpt><trkpt lat="64.00164032" lon="-19.10051346"><ele>894.5</ele><time>2012-07-23T16:42:52.0000000+00:00</time></trkpt><trkpt lat="64.00165558" lon="-19.10045242"><ele>893.7</ele><time>2012-07-23T16:42:57.0000000+00:00</time></trkpt><trkpt lat="64.00167084" lon="-19.10037804"><ele>892.0</ele><time>2012-07-23T16:43:02.0000000+00:00</time></trkpt><trkpt lat="64.00169373" lon="-19.10030365"><ele>890.9</ele><time>2012-07-23T16:43:07.0000000+00:00</time></trkpt><trkpt lat="64.00172424" lon="-19.10021973"><ele>892.0</ele><time>2012-07-23T16:43:12.0000000+00:00</time></trkpt><trkpt lat="64.00174713" lon="-19.10016441"><ele>892.3</ele><time>2012-07-23T16:43:17.0000000+00:00</time></trkpt><trkpt lat="64.00176239" lon="-19.1001091"><ele>892.1</ele><time>2012-07-23T16:43:22.0000000+00:00</time></trkpt><trkpt lat="64.00177002" lon="-19.10001564"><ele>890.6</ele><time>2012-07-23T16:43:27.0000000+00:00</time></trkpt><trkpt lat="64.00177002" lon="-19.09993172"><ele>889.5</ele><time>2012-07-23T16:43:32.0000000+00:00</time></trkpt><trkpt lat="64.00180054" lon="-19.09986305"><ele>888.4</ele><time>2012-07-23T16:43:37.0000000+00:00</time></trkpt><trkpt lat="64.00182343" lon="-19.09976578"><ele>887.1</ele><time>2012-07-23T16:43:42.0000000+00:00</time></trkpt><trkpt lat="64.00183868" lon="-19.09968758"><ele>885.8</ele><time>2012-07-23T16:43:47.0000000+00:00</time></trkpt><trkpt lat="64.00185394" lon="-19.09962082"><ele>885.0</ele><time>2012-07-23T16:43:52.0000000+00:00</time></trkpt><trkpt lat="64.0018692" lon="-19.09955025"><ele>883.4</ele><time>2012-07-23T16:43:57.0000000+00:00</time></trkpt><trkpt lat="64.00188446" lon="-19.09948349"><ele>882.2</ele><time>2012-07-23T16:44:02.0000000+00:00</time></trkpt><trkpt lat="64.00189209" lon="-19.0994091"><ele>880.7</ele><time>2012-07-23T16:44:07.0000000+00:00</time></trkpt><trkpt lat="64.00191498" lon="-19.09933853"><ele>879.6</ele><time>2012-07-23T16:44:12.0000000+00:00</time></trkpt><trkpt lat="64.00193024" lon="-19.09927177"><ele>878.9</ele><time>2012-07-23T16:44:17.0000000+00:00</time></trkpt><trkpt lat="64.00193024" lon="-19.09922218"><ele>878.5</ele><time>2012-07-23T16:44:22.0000000+00:00</time></trkpt><trkpt lat="64.00193787" lon="-19.09915352"><ele>876.9</ele><time>2012-07-23T16:44:27.0000000+00:00</time></trkpt><trkpt lat="64.0019455" lon="-19.09907913"><ele>877.3</ele><time>2012-07-23T16:44:32.0000000+00:00</time></trkpt><trkpt lat="64.00195313" lon="-19.09898758"><ele>876.5</ele><time>2012-07-23T16:44:37.0000000+00:00</time></trkpt><trkpt lat="64.00195313" lon="-19.09890175"><ele>876.3</ele><time>2012-07-23T16:44:42.0000000+00:00</time></trkpt><trkpt lat="64.00195313" lon="-19.09882355"><ele>875.8</ele><time>2012-07-23T16:44:47.0000000+00:00</time></trkpt><trkpt lat="64.00193024" lon="-19.09873581"><ele>875.4</ele><time>2012-07-23T16:44:52.0000000+00:00</time></trkpt><trkpt lat="64.0019455" lon="-19.09867477"><ele>873.9</ele><time>2012-07-23T16:44:57.0000000+00:00</time></trkpt><trkpt lat="64.00196838" lon="-19.09862328"><ele>872.2</ele><time>2012-07-23T16:45:02.0000000+00:00</time></trkpt><trkpt lat="64.00199127" lon="-19.09854507"><ele>873.1</ele><time>2012-07-23T16:45:07.0000000+00:00</time></trkpt><trkpt lat="64.0019989" lon="-19.09846497"><ele>872.0</ele><time>2012-07-23T16:45:12.0000000+00:00</time></trkpt><trkpt lat="64.0019989" lon="-19.09836769"><ele>871.6</ele><time>2012-07-23T16:45:17.0000000+00:00</time></trkpt><trkpt lat="64.00199127" lon="-19.09829521"><ele>870.4</ele><time>2012-07-23T16:45:22.0000000+00:00</time></trkpt><trkpt lat="64.00200653" lon="-19.09822464"><ele>869.7</ele><time>2012-07-23T16:45:27.0000000+00:00</time></trkpt><trkpt lat="64.00199127" lon="-19.09815025"><ele>869.6</ele><time>2012-07-23T16:45:32.0000000+00:00</time></trkpt><trkpt lat="64.00197601" lon="-19.09809113"><ele>869.7</ele><time>2012-07-23T16:45:37.0000000+00:00</time></trkpt><trkpt lat="64.00200653" lon="-19.09803391"><ele>869.0</ele><time>2012-07-23T16:45:42.0000000+00:00</time></trkpt><trkpt lat="64.00201416" lon="-19.097929"><ele>869.2</ele><time>2012-07-23T16:45:47.0000000+00:00</time></trkpt><trkpt lat="64.00202179" lon="-19.09778786"><ele>868.7</ele><time>2012-07-23T16:45:52.0000000+00:00</time></trkpt><trkpt lat="64.00202179" lon="-19.09771538"><ele>869.6</ele><time>2012-07-23T16:45:57.0000000+00:00</time></trkpt><trkpt lat="64.00202179" lon="-19.09764099"><ele>869.3</ele><time>2012-07-23T16:46:02.0000000+00:00</time></trkpt><trkpt lat="64.00202179" lon="-19.09755516"><ele>869.2</ele><time>2012-07-23T16:46:07.0000000+00:00</time></trkpt><trkpt lat="64.00203705" lon="-19.09742737"><ele>869.4</ele><time>2012-07-23T16:46:12.0000000+00:00</time></trkpt><trkpt lat="64.00202942" lon="-19.09726524"><ele>868.8</ele><time>2012-07-23T16:46:17.0000000+00:00</time></trkpt><trkpt lat="64.00202179" lon="-19.0970974"><ele>869.3</ele><time>2012-07-23T16:46:22.0000000+00:00</time></trkpt><trkpt lat="64.00200653" lon="-19.09695244"><ele>869.3</ele><time>2012-07-23T16:46:27.0000000+00:00</time></trkpt><trkpt lat="64.00199127" lon="-19.09679222"><ele>868.3</ele><time>2012-07-23T16:46:32.0000000+00:00</time></trkpt><trkpt lat="64.00199127" lon="-19.09664536"><ele>869.8</ele><time>2012-07-23T16:46:37.0000000+00:00</time></trkpt><trkpt lat="64.00198364" lon="-19.09649658"><ele>871.0</ele><time>2012-07-23T16:46:42.0000000+00:00</time></trkpt><trkpt lat="64.00198364" lon="-19.09634018"><ele>872.1</ele><time>2012-07-23T16:46:47.0000000+00:00</time></trkpt><trkpt lat="64.00196838" lon="-19.09622002"><ele>872.6</ele><time>2012-07-23T16:46:52.0000000+00:00</time></trkpt><trkpt lat="64.00195313" lon="-19.09611321"><ele>874.3</ele><time>2012-07-23T16:46:57.0000000+00:00</time></trkpt><trkpt lat="64.00192261" lon="-19.09599686"><ele>874.8</ele><time>2012-07-23T16:47:02.0000000+00:00</time></trkpt><trkpt lat="64.00187683" lon="-19.09588242"><ele>874.1</ele><time>2012-07-23T16:47:07.0000000+00:00</time></trkpt><trkpt lat="64.00183868" lon="-19.09579659"><ele>874.2</ele><time>2012-07-23T16:47:12.0000000+00:00</time></trkpt><trkpt lat="64.00180817" lon="-19.09566689"><ele>875.7</ele><time>2012-07-23T16:47:17.0000000+00:00</time></trkpt><trkpt lat="64.00177765" lon="-19.09553528"><ele>876.5</ele><time>2012-07-23T16:47:22.0000000+00:00</time></trkpt><trkpt lat="64.00174713" lon="-19.09544563"><ele>877.3</ele><time>2012-07-23T16:47:27.0000000+00:00</time></trkpt><trkpt lat="64.00170136" lon="-19.0953579"><ele>876.6</ele><time>2012-07-23T16:47:32.0000000+00:00</time></trkpt><trkpt lat="64.00164032" lon="-19.09530067"><ele>874.7</ele><time>2012-07-23T16:47:37.0000000+00:00</time></trkpt><trkpt lat="64.00158691" lon="-19.09522629"><ele>874.7</ele><time>2012-07-23T16:47:42.0000000+00:00</time></trkpt><trkpt lat="64.00154114" lon="-19.09514427"><ele>875.8</ele><time>2012-07-23T16:47:47.0000000+00:00</time></trkpt><trkpt lat="64.00149536" lon="-19.09504509"><ele>876.5</ele><time>2012-07-23T16:47:52.0000000+00:00</time></trkpt><trkpt lat="64.0014267" lon="-19.09493446"><ele>875.6</ele><time>2012-07-23T16:47:57.0000000+00:00</time></trkpt><trkpt lat="64.00137329" lon="-19.09486389"><ele>875.7</ele><time>2012-07-23T16:48:02.0000000+00:00</time></trkpt><trkpt lat="64.00131226" lon="-19.09477425"><ele>875.3</ele><time>2012-07-23T16:48:07.0000000+00:00</time></trkpt><trkpt lat="64.00125122" lon="-19.09470558"><ele>874.3</ele><time>2012-07-23T16:48:12.0000000+00:00</time></trkpt><trkpt lat="64.00119019" lon="-19.09462738"><ele>873.6</ele><time>2012-07-23T16:48:17.0000000+00:00</time></trkpt><trkpt lat="64.00113678" lon="-19.09456253"><ele>873.2</ele><time>2012-07-23T16:48:22.0000000+00:00</time></trkpt><trkpt lat="64.00109863" lon="-19.09449387"><ele>872.8</ele><time>2012-07-23T16:48:27.0000000+00:00</time></trkpt><trkpt lat="64.0010376" lon="-19.09444046"><ele>872.4</ele><time>2012-07-23T16:48:32.0000000+00:00</time></trkpt><trkpt lat="64.00097656" lon="-19.09440804"><ele>872.3</ele><time>2012-07-23T16:48:37.0000000+00:00</time></trkpt><trkpt lat="64.00092316" lon="-19.09434128"><ele>870.9</ele><time>2012-07-23T16:48:42.0000000+00:00</time></trkpt><trkpt lat="64.00092316" lon="-19.09434891"><ele>871.6</ele><time>2012-07-23T16:48:47.0000000+00:00</time></trkpt><trkpt lat="64.00089264" lon="-19.09431648"><ele>871.5</ele><time>2012-07-23T16:48:52.0000000+00:00</time></trkpt><trkpt lat="64.00081635" lon="-19.09423065"><ele>870.3</ele><time>2012-07-23T16:48:57.0000000+00:00</time></trkpt><trkpt lat="64.00076294" lon="-19.09420776"><ele>869.6</ele><time>2012-07-23T16:49:02.0000000+00:00</time></trkpt><trkpt lat="64.00072479" lon="-19.09413147"><ele>868.5</ele><time>2012-07-23T16:49:07.0000000+00:00</time></trkpt><trkpt lat="64.00068665" lon="-19.09405327"><ele>867.5</ele><time>2012-07-23T16:49:12.0000000+00:00</time></trkpt><trkpt lat="64.0006485" lon="-19.09396362"><ele>866.1</ele><time>2012-07-23T16:49:17.0000000+00:00</time></trkpt><trkpt lat="64.00061035" lon="-19.09387398"><ele>864.5</ele><time>2012-07-23T16:49:22.0000000+00:00</time></trkpt><trkpt lat="64.00057221" lon="-19.09379387"><ele>863.2</ele><time>2012-07-23T16:49:27.0000000+00:00</time></trkpt><trkpt lat="64.00053406" lon="-19.09372711"><ele>862.1</ele><time>2012-07-23T16:49:32.0000000+00:00</time></trkpt><trkpt lat="64.00048828" lon="-19.09361458"><ele>859.9</ele><time>2012-07-23T16:49:37.0000000+00:00</time></trkpt><trkpt lat="64.00047302" lon="-19.09358597"><ele>859.6</ele><time>2012-07-23T16:49:42.0000000+00:00</time></trkpt><trkpt lat="64.00044251" lon="-19.09353066"><ele>859.0</ele><time>2012-07-23T16:49:47.0000000+00:00</time></trkpt><trkpt lat="64.00041962" lon="-19.09336472"><ele>859.0</ele><time>2012-07-23T16:49:52.0000000+00:00</time></trkpt><trkpt lat="64.0003891" lon="-19.09323502"><ele>859.6</ele><time>2012-07-23T16:49:57.0000000+00:00</time></trkpt><trkpt lat="64.00037384" lon="-19.09311104"><ele>859.6</ele><time>2012-07-23T16:50:02.0000000+00:00</time></trkpt><trkpt lat="64.00038147" lon="-19.09294701"><ele>860.5</ele><time>2012-07-23T16:50:07.0000000+00:00</time></trkpt><trkpt lat="64.00037384" lon="-19.09281921"><ele>862.6</ele><time>2012-07-23T16:50:12.0000000+00:00</time></trkpt><trkpt lat="64.00035095" lon="-19.09268189"><ele>862.4</ele><time>2012-07-23T16:50:17.0000000+00:00</time></trkpt><trkpt lat="64.00032806" lon="-19.09252739"><ele>862.8</ele><time>2012-07-23T16:50:22.0000000+00:00</time></trkpt><trkpt lat="64.00031281" lon="-19.0923996"><ele>863.3</ele><time>2012-07-23T16:50:27.0000000+00:00</time></trkpt><trkpt lat="64.00031281" lon="-19.09225655"><ele>863.6</ele><time>2012-07-23T16:50:32.0000000+00:00</time></trkpt><trkpt lat="64.00031281" lon="-19.09212303"><ele>865.1</ele><time>2012-07-23T16:50:37.0000000+00:00</time></trkpt><trkpt lat="64.00031281" lon="-19.09196281"><ele>866.4</ele><time>2012-07-23T16:50:42.0000000+00:00</time></trkpt><trkpt lat="64.00032806" lon="-19.09178352"><ele>868.6</ele><time>2012-07-23T16:50:47.0000000+00:00</time></trkpt><trkpt lat="64.00033569" lon="-19.09162712"><ele>869.1</ele><time>2012-07-23T16:50:52.0000000+00:00</time></trkpt><trkpt lat="64.00033569" lon="-19.09147072"><ele>869.6</ele><time>2012-07-23T16:50:57.0000000+00:00</time></trkpt><trkpt lat="64.00034332" lon="-19.0913372"><ele>869.3</ele><time>2012-07-23T16:51:02.0000000+00:00</time></trkpt><trkpt lat="64.00033569" lon="-19.0912075"><ele>865.8</ele><time>2012-07-23T16:51:07.0000000+00:00</time></trkpt><trkpt lat="64.00035095" lon="-19.09106255"><ele>868.0</ele><time>2012-07-23T16:51:12.0000000+00:00</time></trkpt><trkpt lat="64.00034332" lon="-19.09093475"><ele>869.4</ele><time>2012-07-23T16:51:17.0000000+00:00</time></trkpt><trkpt lat="64.00032806" lon="-19.09082604"><ele>869.2</ele><time>2012-07-23T16:51:22.0000000+00:00</time></trkpt><trkpt lat="64.00031281" lon="-19.09077072"><ele>867.7</ele><time>2012-07-23T16:51:27.0000000+00:00</time></trkpt><trkpt lat="64.00031281" lon="-19.09071541"><ele>864.9</ele><time>2012-07-23T16:51:32.0000000+00:00</time></trkpt><trkpt lat="64.00032806" lon="-19.09060288"><ele>866.9</ele><time>2012-07-23T16:51:37.0000000+00:00</time></trkpt><trkpt lat="64.00032806" lon="-19.09048653"><ele>868.2</ele><time>2012-07-23T16:51:42.0000000+00:00</time></trkpt><trkpt lat="64.00032806" lon="-19.09038544"><ele>865.8</ele><time>2012-07-23T16:51:47.0000000+00:00</time></trkpt><trkpt lat="64.00033569" lon="-19.09026527"><ele>866.5</ele><time>2012-07-23T16:51:52.0000000+00:00</time></trkpt><trkpt lat="64.00033569" lon="-19.09017181"><ele>867.0</ele><time>2012-07-23T16:51:57.0000000+00:00</time></trkpt><trkpt lat="64.00032806" lon="-19.09011459"><ele>868.4</ele><time>2012-07-23T16:52:02.0000000+00:00</time></trkpt><trkpt lat="64.00032806" lon="-19.09009934"><ele>868.3</ele><time>2012-07-23T16:52:07.0000000+00:00</time></trkpt><trkpt lat="64.00032044" lon="-19.09002876"><ele>868.6</ele><time>2012-07-23T16:52:12.0000000+00:00</time></trkpt><trkpt lat="64.00028992" lon="-19.08993149"><ele>868.0</ele><time>2012-07-23T16:52:17.0000000+00:00</time></trkpt><trkpt lat="64.00027466" lon="-19.08988762"><ele>867.9</ele><time>2012-07-23T16:52:22.0000000+00:00</time></trkpt><trkpt lat="64.0002594" lon="-19.08980751"><ele>868.1</ele><time>2012-07-23T16:52:27.0000000+00:00</time></trkpt><trkpt lat="64.00025177" lon="-19.08975601"><ele>869.4</ele><time>2012-07-23T16:52:32.0000000+00:00</time></trkpt><trkpt lat="64.0002594" lon="-19.08971024"><ele>868.1</ele><time>2012-07-23T16:52:37.0000000+00:00</time></trkpt><trkpt lat="64.0002594" lon="-19.08963776"><ele>867.2</ele><time>2012-07-23T16:52:42.0000000+00:00</time></trkpt><trkpt lat="64.0002594" lon="-19.08956909"><ele>867.9</ele><time>2012-07-23T16:52:47.0000000+00:00</time></trkpt><trkpt lat="64.0002594" lon="-19.08945084"><ele>870.1</ele><time>2012-07-23T16:52:52.0000000+00:00</time></trkpt><trkpt lat="64.0002594" lon="-19.08937836"><ele>870.1</ele><time>2012-07-23T16:52:57.0000000+00:00</time></trkpt><trkpt lat="64.00026703" lon="-19.08931351"><ele>871.3</ele><time>2012-07-23T16:53:02.0000000+00:00</time></trkpt><trkpt lat="64.00027466" lon="-19.08919144"><ele>872.7</ele><time>2012-07-23T16:53:07.0000000+00:00</time></trkpt><trkpt lat="64.00028992" lon="-19.08904648"><ele>874.8</ele><time>2012-07-23T16:53:12.0000000+00:00</time></trkpt><trkpt lat="64.00028992" lon="-19.08893013"><ele>876.2</ele><time>2012-07-23T16:53:17.0000000+00:00</time></trkpt><trkpt lat="64.0002594" lon="-19.08884621"><ele>875.9</ele><time>2012-07-23T16:53:22.0000000+00:00</time></trkpt><trkpt lat="64.00024414" lon="-19.08870888"><ele>875.8</ele><time>2012-07-23T16:53:27.0000000+00:00</time></trkpt><trkpt lat="64.00022888" lon="-19.08857727"><ele>875.0</ele><time>2012-07-23T16:53:32.0000000+00:00</time></trkpt><trkpt lat="64.00024414" lon="-19.08849144"><ele>879.1</ele><time>2012-07-23T16:53:37.0000000+00:00</time></trkpt><trkpt lat="64.00022888" lon="-19.08846474"><ele>879.0</ele><time>2012-07-23T16:53:42.0000000+00:00</time></trkpt><trkpt lat="64.00021362" lon="-19.08832359"><ele>880.0</ele><time>2012-07-23T16:53:47.0000000+00:00</time></trkpt><trkpt lat="64.00021362" lon="-19.08817864"><ele>881.8</ele><time>2012-07-23T16:53:52.0000000+00:00</time></trkpt><trkpt lat="64.00020599" lon="-19.08804703"><ele>882.2</ele><time>2012-07-23T16:53:57.0000000+00:00</time></trkpt><trkpt lat="64.00019836" lon="-19.08789253"><ele>881.8</ele><time>2012-07-23T16:54:02.0000000+00:00</time></trkpt><trkpt lat="64.00020599" lon="-19.08777428"><ele>882.7</ele><time>2012-07-23T16:54:07.0000000+00:00</time></trkpt><trkpt lat="64.00020599" lon="-19.08765221"><ele>881.8</ele><time>2012-07-23T16:54:12.0000000+00:00</time></trkpt><trkpt lat="64.00021362" lon="-19.08751679"><ele>881.3</ele><time>2012-07-23T16:54:17.0000000+00:00</time></trkpt><trkpt lat="64.00022888" lon="-19.08737183"><ele>882.2</ele><time>2012-07-23T16:54:22.0000000+00:00</time></trkpt><trkpt lat="64.00023651" lon="-19.08722496"><ele>881.4</ele><time>2012-07-23T16:54:27.0000000+00:00</time></trkpt><trkpt lat="64.00025177" lon="-19.08708763"><ele>882.2</ele><time>2012-07-23T16:54:32.0000000+00:00</time></trkpt><trkpt lat="64.00025177" lon="-19.08695221"><ele>883.5</ele><time>2012-07-23T16:54:37.0000000+00:00</time></trkpt><trkpt lat="64.00024414" lon="-19.08682823"><ele>884.3</ele><time>2012-07-23T16:54:42.0000000+00:00</time></trkpt><trkpt lat="64.00019074" lon="-19.08678055"><ele>881.9</ele><time>2012-07-23T16:54:47.0000000+00:00</time></trkpt><trkpt lat="64.00018311" lon="-19.08678246"><ele>881.2</ele><time>2012-07-23T16:54:52.0000000+00:00</time></trkpt><trkpt lat="64.00016022" lon="-19.08676338"><ele>880.5</ele><time>2012-07-23T16:54:57.0000000+00:00</time></trkpt><trkpt lat="64.00015259" lon="-19.08674812"><ele>879.7</ele><time>2012-07-23T16:55:02.0000000+00:00</time></trkpt><trkpt lat="64.00015259" lon="-19.08674812"><ele>879.6</ele><time>2012-07-23T16:55:07.0000000+00:00</time></trkpt><trkpt lat="64.00015259" lon="-19.08674812"><ele>879.6</ele><time>2012-07-23T16:55:12.0000000+00:00</time></trkpt><trkpt lat="64.00019836" lon="-19.08666611"><ele>878.7</ele><time>2012-07-23T16:55:17.0000000+00:00</time></trkpt><trkpt lat="64.00022125" lon="-19.0865345"><ele>878.5</ele><time>2012-07-23T16:55:22.0000000+00:00</time></trkpt><trkpt lat="64.00023651" lon="-19.08636475"><ele>879.8</ele><time>2012-07-23T16:55:27.0000000+00:00</time></trkpt><trkpt lat="64.00025177" lon="-19.08623886"><ele>881.7</ele><time>2012-07-23T16:55:32.0000000+00:00</time></trkpt><trkpt lat="64.00025177" lon="-19.08608818"><ele>884.0</ele><time>2012-07-23T16:55:37.0000000+00:00</time></trkpt><trkpt lat="64.0002594" lon="-19.08598518"><ele>885.2</ele><time>2012-07-23T16:55:42.0000000+00:00</time></trkpt><trkpt lat="64.00027466" lon="-19.08584023"><ele>887.1</ele><time>2012-07-23T16:55:47.0000000+00:00</time></trkpt><trkpt lat="64.00028992" lon="-19.08567619"><ele>888.6</ele><time>2012-07-23T16:55:52.0000000+00:00</time></trkpt><trkpt lat="64.00029755" lon="-19.08556366"><ele>889.8</ele><time>2012-07-23T16:55:57.0000000+00:00</time></trkpt><trkpt lat="64.00028229" lon="-19.08547211"><ele>887.7</ele><time>2012-07-23T16:56:02.0000000+00:00</time></trkpt><trkpt lat="64.00027466" lon="-19.08539581"><ele>888.1</ele><time>2012-07-23T16:56:07.0000000+00:00</time></trkpt><trkpt lat="64.00026703" lon="-19.0853672"><ele>889.0</ele><time>2012-07-23T16:56:12.0000000+00:00</time></trkpt><trkpt lat="64.00024414" lon="-19.08532524"><ele>890.1</ele><time>2012-07-23T16:56:17.0000000+00:00</time></trkpt><trkpt lat="64.00025177" lon="-19.08525848"><ele>891.2</ele><time>2012-07-23T16:56:22.0000000+00:00</time></trkpt><trkpt lat="64.00025177" lon="-19.08516884"><ele>892.5</ele><time>2012-07-23T16:56:27.0000000+00:00</time></trkpt><trkpt lat="64.00024414" lon="-19.08510208"><ele>893.5</ele><time>2012-07-23T16:56:32.0000000+00:00</time></trkpt><trkpt lat="64.00022125" lon="-19.08502388"><ele>895.8</ele><time>2012-07-23T16:56:37.0000000+00:00</time></trkpt><trkpt lat="64.00019074" lon="-19.08496094"><ele>897.7</ele><time>2012-07-23T16:56:42.0000000+00:00</time></trkpt><trkpt lat="64.00017548" lon="-19.08491898"><ele>898.6</ele><time>2012-07-23T16:56:47.0000000+00:00</time></trkpt><trkpt lat="64.00016785" lon="-19.08490562"><ele>898.1</ele><time>2012-07-23T16:56:52.0000000+00:00</time></trkpt><trkpt lat="64.00016022" lon="-19.08490562"><ele>898.5</ele><time>2012-07-23T16:56:57.0000000+00:00</time></trkpt><trkpt lat="64.00016022" lon="-19.08490562"><ele>898.5</ele><time>2012-07-23T16:57:02.0000000+00:00</time></trkpt><trkpt lat="64.00016022" lon="-19.08490372"><ele>898.4</ele><time>2012-07-23T16:57:07.0000000+00:00</time></trkpt><trkpt lat="64.00016022" lon="-19.08490372"><ele>898.4</ele><time>2012-07-23T16:57:12.0000000+00:00</time></trkpt><trkpt lat="64.00016022" lon="-19.0848999"><ele>898.0</ele><time>2012-07-23T16:57:17.0000000+00:00</time></trkpt><trkpt lat="64.00016022" lon="-19.08489609"><ele>897.1</ele><time>2012-07-23T16:57:22.0000000+00:00</time></trkpt><trkpt lat="64.00015259" lon="-19.08477402"><ele>898.0</ele><time>2012-07-23T16:57:27.0000000+00:00</time></trkpt><trkpt lat="64.0001297" lon="-19.08469772"><ele>898.5</ele><time>2012-07-23T16:57:32.0000000+00:00</time></trkpt><trkpt lat="64.0001297" lon="-19.08458328"><ele>899.4</ele><time>2012-07-23T16:57:37.0000000+00:00</time></trkpt><trkpt lat="64.00011444" lon="-19.0845356"><ele>899.8</ele><time>2012-07-23T16:57:42.0000000+00:00</time></trkpt><trkpt lat="64.0001297" lon="-19.08446121"><ele>900.2</ele><time>2012-07-23T16:57:47.0000000+00:00</time></trkpt><trkpt lat="64.00011444" lon="-19.0843792"><ele>899.5</ele><time>2012-07-23T16:57:52.0000000+00:00</time></trkpt><trkpt lat="64.00009155" lon="-19.0842762"><ele>898.9</ele><time>2012-07-23T16:57:57.0000000+00:00</time></trkpt><trkpt lat="64.00006867" lon="-19.08415413"><ele>898.6</ele><time>2012-07-23T16:58:02.0000000+00:00</time></trkpt><trkpt lat="64.00004578" lon="-19.0841465"><ele>898.4</ele><time>2012-07-23T16:58:07.0000000+00:00</time></trkpt><trkpt lat="64.00004578" lon="-19.0840416"><ele>898.6</ele><time>2012-07-23T16:58:12.0000000+00:00</time></trkpt><trkpt lat="64.00003815" lon="-19.08393478"><ele>898.3</ele><time>2012-07-23T16:58:17.0000000+00:00</time></trkpt><trkpt lat="64.00002289" lon="-19.08386231"><ele>897.6</ele><time>2012-07-23T16:58:22.0000000+00:00</time></trkpt><trkpt lat="64.00001526" lon="-19.08374977"><ele>897.4</ele><time>2012-07-23T16:58:27.0000000+00:00</time></trkpt><trkpt lat="64.00003052" lon="-19.08362389"><ele>897.8</ele><time>2012-07-23T16:58:32.0000000+00:00</time></trkpt><trkpt lat="64.00004578" lon="-19.08346939"><ele>898.1</ele><time>2012-07-23T16:58:37.0000000+00:00</time></trkpt><trkpt lat="64.00000763" lon="-19.08330345"><ele>897.6</ele><time>2012-07-23T16:58:42.0000000+00:00</time></trkpt><trkpt lat="63.99997711" lon="-19.08319855"><ele>896.2</ele><time>2012-07-23T16:58:47.0000000+00:00</time></trkpt><trkpt lat="63.99993897" lon="-19.08306503"><ele>895.9</ele><time>2012-07-23T16:58:52.0000000+00:00</time></trkpt><trkpt lat="63.99990845" lon="-19.082901"><ele>895.6</ele><time>2012-07-23T16:58:57.0000000+00:00</time></trkpt><trkpt lat="63.99987412" lon="-19.08278275"><ele>894.5</ele><time>2012-07-23T16:59:02.0000000+00:00</time></trkpt><trkpt lat="63.99984741" lon="-19.08275795"><ele>895.0</ele><time>2012-07-23T16:59:07.0000000+00:00</time></trkpt><trkpt lat="63.99985123" lon="-19.08274078"><ele>896.0</ele><time>2012-07-23T16:59:12.0000000+00:00</time></trkpt><trkpt lat="63.99987793" lon="-19.08261681"><ele>895.6</ele><time>2012-07-23T16:59:17.0000000+00:00</time></trkpt><trkpt lat="63.99988937" lon="-19.08248329"><ele>896.8</ele><time>2012-07-23T16:59:22.0000000+00:00</time></trkpt><trkpt lat="63.99987793" lon="-19.08237076"><ele>898.3</ele><time>2012-07-23T16:59:27.0000000+00:00</time></trkpt><trkpt lat="63.99988937" lon="-19.08226967"><ele>899.0</ele><time>2012-07-23T16:59:32.0000000+00:00</time></trkpt><trkpt lat="63.99987793" lon="-19.08217621"><ele>898.0</ele><time>2012-07-23T16:59:37.0000000+00:00</time></trkpt><trkpt lat="63.99987793" lon="-19.08204269"><ele>897.0</ele><time>2012-07-23T16:59:42.0000000+00:00</time></trkpt><trkpt lat="63.9998436" lon="-19.08197784"><ele>895.0</ele><time>2012-07-23T16:59:47.0000000+00:00</time></trkpt><trkpt lat="63.99983215" lon="-19.08184052"><ele>893.8</ele><time>2012-07-23T16:59:52.0000000+00:00</time></trkpt><trkpt lat="63.99984741" lon="-19.08166885"><ele>895.8</ele><time>2012-07-23T16:59:57.0000000+00:00</time></trkpt><trkpt lat="63.99985123" lon="-19.08153725"><ele>896.0</ele><time>2012-07-23T17:00:02.0000000+00:00</time></trkpt><trkpt lat="63.99985123" lon="-19.08145332"><ele>897.0</ele><time>2012-07-23T17:00:07.0000000+00:00</time></trkpt><trkpt lat="63.99983978" lon="-19.08135033"><ele>895.8</ele><time>2012-07-23T17:00:12.0000000+00:00</time></trkpt><trkpt lat="63.99982452" lon="-19.08130264"><ele>896.8</ele><time>2012-07-23T17:00:17.0000000+00:00</time></trkpt><trkpt lat="63.99982071" lon="-19.08125496"><ele>895.6</ele><time>2012-07-23T17:00:22.0000000+00:00</time></trkpt><trkpt lat="63.99979401" lon="-19.0811863"><ele>895.0</ele><time>2012-07-23T17:00:27.0000000+00:00</time></trkpt><trkpt lat="63.99979019" lon="-19.08115196"><ele>894.5</ele><time>2012-07-23T17:00:32.0000000+00:00</time></trkpt><trkpt lat="63.99980164" lon="-19.08109856"><ele>893.1</ele><time>2012-07-23T17:00:37.0000000+00:00</time></trkpt><trkpt lat="63.99974442" lon="-19.08104515"><ele>887.7</ele><time>2012-07-23T17:00:42.0000000+00:00</time></trkpt><trkpt lat="63.99972534" lon="-19.08096123"><ele>885.1</ele><time>2012-07-23T17:00:47.0000000+00:00</time></trkpt><trkpt lat="63.99966812" lon="-19.08093071"><ele>882.4</ele><time>2012-07-23T17:00:52.0000000+00:00</time></trkpt><trkpt lat="63.99961472" lon="-19.08088493"><ele>878.0</ele><time>2012-07-23T17:00:57.0000000+00:00</time></trkpt><trkpt lat="63.99956513" lon="-19.08082581"><ele>874.1</ele><time>2012-07-23T17:01:02.0000000+00:00</time></trkpt><trkpt lat="63.99950028" lon="-19.0807457"><ele>872.8</ele><time>2012-07-23T17:01:07.0000000+00:00</time></trkpt><trkpt lat="63.99943543" lon="-19.08069229"><ele>871.9</ele><time>2012-07-23T17:01:12.0000000+00:00</time></trkpt><trkpt lat="63.99937439" lon="-19.08062553"><ele>870.8</ele><time>2012-07-23T17:01:17.0000000+00:00</time></trkpt><trkpt lat="63.99931717" lon="-19.08062935"><ele>871.9</ele><time>2012-07-23T17:01:22.0000000+00:00</time></trkpt><trkpt lat="63.99931717" lon="-19.08055687"><ele>872.9</ele><time>2012-07-23T17:01:27.0000000+00:00</time></trkpt><trkpt lat="63.99932861" lon="-19.08048248"><ele>874.4</ele><time>2012-07-23T17:01:32.0000000+00:00</time></trkpt><trkpt lat="63.99930573" lon="-19.08037186"><ele>873.6</ele><time>2012-07-23T17:01:37.0000000+00:00</time></trkpt><trkpt lat="63.99928284" lon="-19.0803051"><ele>872.0</ele><time>2012-07-23T17:01:42.0000000+00:00</time></trkpt><trkpt lat="63.99929047" lon="-19.08018303"><ele>870.4</ele><time>2012-07-23T17:01:47.0000000+00:00</time></trkpt><trkpt lat="63.99932861" lon="-19.08002663"><ele>872.9</ele><time>2012-07-23T17:01:52.0000000+00:00</time></trkpt><trkpt lat="63.9993515" lon="-19.07987785"><ele>874.3</ele><time>2012-07-23T17:01:57.0000000+00:00</time></trkpt><trkpt lat="63.99934769" lon="-19.07978821"><ele>873.4</ele><time>2012-07-23T17:02:02.0000000+00:00</time></trkpt><trkpt lat="63.9993248" lon="-19.07978439"><ele>871.4</ele><time>2012-07-23T17:02:07.0000000+00:00</time></trkpt><trkpt lat="63.99931717" lon="-19.07973099"><ele>870.1</ele><time>2012-07-23T17:02:12.0000000+00:00</time></trkpt><trkpt lat="63.99933624" lon="-19.07962418"><ele>871.4</ele><time>2012-07-23T17:02:17.0000000+00:00</time></trkpt><trkpt lat="63.9993515" lon="-19.07946968"><ele>873.1</ele><time>2012-07-23T17:02:22.0000000+00:00</time></trkpt><trkpt lat="63.99933243" lon="-19.07936859"><ele>872.0</ele><time>2012-07-23T17:02:27.0000000+00:00</time></trkpt><trkpt lat="63.99931717" lon="-19.07922173"><ele>872.1</ele><time>2012-07-23T17:02:32.0000000+00:00</time></trkpt><trkpt lat="63.99931335" lon="-19.0790596"><ele>874.7</ele><time>2012-07-23T17:02:37.0000000+00:00</time></trkpt><trkpt lat="63.99931335" lon="-19.07888985"><ele>875.9</ele><time>2012-07-23T17:02:42.0000000+00:00</time></trkpt><trkpt lat="63.99930573" lon="-19.07873726"><ele>876.3</ele><time>2012-07-23T17:02:47.0000000+00:00</time></trkpt><trkpt lat="63.99930573" lon="-19.07857895"><ele>875.9</ele><time>2012-07-23T17:02:52.0000000+00:00</time></trkpt><trkpt lat="63.99929428" lon="-19.07845879"><ele>874.7</ele><time>2012-07-23T17:02:57.0000000+00:00</time></trkpt><trkpt lat="63.99924851" lon="-19.07834625"><ele>871.7</ele><time>2012-07-23T17:03:02.0000000+00:00</time></trkpt><trkpt lat="63.99919128" lon="-19.07822418"><ele>868.4</ele><time>2012-07-23T17:03:07.0000000+00:00</time></trkpt><trkpt lat="63.99914551" lon="-19.07812309"><ele>865.3</ele><time>2012-07-23T17:03:12.0000000+00:00</time></trkpt><trkpt lat="63.99909592" lon="-19.07799912"><ele>862.9</ele><time>2012-07-23T17:03:17.0000000+00:00</time></trkpt><trkpt lat="63.99907303" lon="-19.07785606"><ele>862.7</ele><time>2012-07-23T17:03:22.0000000+00:00</time></trkpt><trkpt lat="63.99907303" lon="-19.07772446"><ele>863.7</ele><time>2012-07-23T17:03:27.0000000+00:00</time></trkpt><trkpt lat="63.9990654" lon="-19.07760811"><ele>863.6</ele><time>2012-07-23T17:03:32.0000000+00:00</time></trkpt><trkpt lat="63.99903488" lon="-19.07754707"><ele>861.4</ele><time>2012-07-23T17:03:37.0000000+00:00</time></trkpt><trkpt lat="63.99902344" lon="-19.07742882"><ele>860.9</ele><time>2012-07-23T17:03:42.0000000+00:00</time></trkpt><trkpt lat="63.99903488" lon="-19.07731819"><ele>861.2</ele><time>2012-07-23T17:03:47.0000000+00:00</time></trkpt><trkpt lat="63.99904251" lon="-19.07720757"><ele>861.8</ele><time>2012-07-23T17:03:52.0000000+00:00</time></trkpt><trkpt lat="63.99906158" lon="-19.07708931"><ele>864.9</ele><time>2012-07-23T17:03:57.0000000+00:00</time></trkpt><trkpt lat="63.99905777" lon="-19.07701111"><ele>865.7</ele><time>2012-07-23T17:04:02.0000000+00:00</time></trkpt><trkpt lat="63.99900818" lon="-19.07688522"><ele>863.9</ele><time>2012-07-23T17:04:07.0000000+00:00</time></trkpt><trkpt lat="63.99894714" lon="-19.07679367"><ele>859.6</ele><time>2012-07-23T17:04:12.0000000+00:00</time></trkpt><trkpt lat="63.99892426" lon="-19.07668495"><ele>858.4</ele><time>2012-07-23T17:04:17.0000000+00:00</time></trkpt><trkpt lat="63.99893189" lon="-19.0765419"><ele>857.6</ele><time>2012-07-23T17:04:22.0000000+00:00</time></trkpt><trkpt lat="63.99892807" lon="-19.07639122"><ele>857.0</ele><time>2012-07-23T17:04:27.0000000+00:00</time></trkpt><trkpt lat="63.99892807" lon="-19.07624817"><ele>859.4</ele><time>2012-07-23T17:04:32.0000000+00:00</time></trkpt><trkpt lat="63.99892807" lon="-19.0760994"><ele>861.2</ele><time>2012-07-23T17:04:37.0000000+00:00</time></trkpt><trkpt lat="63.99892044" lon="-19.07594681"><ele>861.8</ele><time>2012-07-23T17:04:42.0000000+00:00</time></trkpt><trkpt lat="63.99892044" lon="-19.07578659"><ele>862.3</ele><time>2012-07-23T17:04:47.0000000+00:00</time></trkpt><trkpt lat="63.99892044" lon="-19.07562256"><ele>862.9</ele><time>2012-07-23T17:04:52.0000000+00:00</time></trkpt><trkpt lat="63.99892044" lon="-19.07546997"><ele>864.0</ele><time>2012-07-23T17:04:57.0000000+00:00</time></trkpt><trkpt lat="63.99890518" lon="-19.07535172"><ele>863.5</ele><time>2012-07-23T17:05:02.0000000+00:00</time></trkpt><trkpt lat="63.99889374" lon="-19.07520104"><ele>864.6</ele><time>2012-07-23T17:05:07.0000000+00:00</time></trkpt><trkpt lat="63.99887466" lon="-19.07510376"><ele>862.8</ele><time>2012-07-23T17:05:12.0000000+00:00</time></trkpt><trkpt lat="63.99884415" lon="-19.07498932"><ele>861.2</ele><time>2012-07-23T17:05:17.0000000+00:00</time></trkpt><trkpt lat="63.99884796" lon="-19.07491875"><ele>860.1</ele><time>2012-07-23T17:05:22.0000000+00:00</time></trkpt><trkpt lat="63.99883652" lon="-19.0747776"><ele>859.6</ele><time>2012-07-23T17:05:27.0000000+00:00</time></trkpt><trkpt lat="63.99883652" lon="-19.07468987"><ele>859.3</ele><time>2012-07-23T17:05:32.0000000+00:00</time></trkpt><trkpt lat="63.99884796" lon="-19.07462502"><ele>860.8</ele><time>2012-07-23T17:05:37.0000000+00:00</time></trkpt><trkpt lat="63.99885941" lon="-19.07459641"><ele>860.8</ele><time>2012-07-23T17:05:42.0000000+00:00</time></trkpt><trkpt lat="63.9988327" lon="-19.07457542"><ele>858.5</ele><time>2012-07-23T17:05:47.0000000+00:00</time></trkpt><trkpt lat="63.99882126" lon="-19.07455254"><ele>857.5</ele><time>2012-07-23T17:05:52.0000000+00:00</time></trkpt><trkpt lat="63.99881363" lon="-19.07454491"><ele>857.3</ele><time>2012-07-23T17:05:57.0000000+00:00</time></trkpt><trkpt lat="63.99880981" lon="-19.07453156"><ele>856.9</ele><time>2012-07-23T17:06:02.0000000+00:00</time></trkpt><trkpt lat="63.99882507" lon="-19.07443047"><ele>855.8</ele><time>2012-07-23T17:06:07.0000000+00:00</time></trkpt><trkpt lat="63.99884415" lon="-19.07435226"><ele>856.0</ele><time>2012-07-23T17:06:12.0000000+00:00</time></trkpt><trkpt lat="63.99885941" lon="-19.07428742"><ele>855.5</ele><time>2012-07-23T17:06:17.0000000+00:00</time></trkpt><trkpt lat="63.99884033" lon="-19.0742836"><ele>853.0</ele><time>2012-07-23T17:06:22.0000000+00:00</time></trkpt><trkpt lat="63.99884033" lon="-19.07426071"><ele>852.6</ele><time>2012-07-23T17:06:27.0000000+00:00</time></trkpt><trkpt lat="63.99884796" lon="-19.07422447"><ele>852.4</ele><time>2012-07-23T17:06:32.0000000+00:00</time></trkpt><trkpt lat="63.99881744" lon="-19.07419586"><ele>850.1</ele><time>2012-07-23T17:06:37.0000000+00:00</time></trkpt><trkpt lat="63.99878693" lon="-19.07422066"><ele>848.9</ele><time>2012-07-23T17:06:42.0000000+00:00</time></trkpt><trkpt lat="63.99875641" lon="-19.07422638"><ele>847.5</ele><time>2012-07-23T17:06:47.0000000+00:00</time></trkpt><trkpt lat="63.99874878" lon="-19.07415772"><ele>846.6</ele><time>2012-07-23T17:06:52.0000000+00:00</time></trkpt><trkpt lat="63.99872208" lon="-19.0741539"><ele>846.0</ele><time>2012-07-23T17:06:57.0000000+00:00</time></trkpt><trkpt lat="63.99868393" lon="-19.07414818"><ele>844.8</ele><time>2012-07-23T17:07:02.0000000+00:00</time></trkpt><trkpt lat="63.99868012" lon="-19.07417488"><ele>842.9</ele><time>2012-07-23T17:07:07.0000000+00:00</time></trkpt><trkpt lat="63.99868012" lon="-19.07408333"><ele>841.2</ele><time>2012-07-23T17:07:12.0000000+00:00</time></trkpt><trkpt lat="63.99865723" lon="-19.07406426"><ele>839.3</ele><time>2012-07-23T17:07:17.0000000+00:00</time></trkpt><trkpt lat="63.99866486" lon="-19.07398796"><ele>838.8</ele><time>2012-07-23T17:07:22.0000000+00:00</time></trkpt><trkpt lat="63.99866867" lon="-19.07391739"><ele>837.8</ele><time>2012-07-23T17:07:27.0000000+00:00</time></trkpt><trkpt lat="63.99866486" lon="-19.07385254"><ele>837.0</ele><time>2012-07-23T17:07:32.0000000+00:00</time></trkpt><trkpt lat="63.99866867" lon="-19.07380295"><ele>836.0</ele><time>2012-07-23T17:07:37.0000000+00:00</time></trkpt><trkpt lat="63.99868393" lon="-19.07372856"><ele>834.8</ele><time>2012-07-23T17:07:42.0000000+00:00</time></trkpt><trkpt lat="63.99868012" lon="-19.07375336"><ele>833.4</ele><time>2012-07-23T17:07:47.0000000+00:00</time></trkpt><trkpt lat="63.99868393" lon="-19.07375145"><ele>833.4</ele><time>2012-07-23T17:07:52.0000000+00:00</time></trkpt><trkpt lat="63.99870682" lon="-19.07367706"><ele>833.0</ele><time>2012-07-23T17:07:57.0000000+00:00</time></trkpt><trkpt lat="63.99872589" lon="-19.07360077"><ele>832.6</ele><time>2012-07-23T17:08:02.0000000+00:00</time></trkpt><trkpt lat="63.99872971" lon="-19.07353401"><ele>831.2</ele><time>2012-07-23T17:08:07.0000000+00:00</time></trkpt><trkpt lat="63.99872589" lon="-19.07346726"><ele>829.5</ele><time>2012-07-23T17:08:12.0000000+00:00</time></trkpt><trkpt lat="63.99871445" lon="-19.07343102"><ele>827.6</ele><time>2012-07-23T17:08:17.0000000+00:00</time></trkpt><trkpt lat="63.99873352" lon="-19.07333183"><ele>827.5</ele><time>2012-07-23T17:08:22.0000000+00:00</time></trkpt><trkpt lat="63.99873734" lon="-19.07325554"><ele>825.8</ele><time>2012-07-23T17:08:27.0000000+00:00</time></trkpt><trkpt lat="63.99875259" lon="-19.07316208"><ele>824.9</ele><time>2012-07-23T17:08:32.0000000+00:00</time></trkpt><trkpt lat="63.99876785" lon="-19.07307434"><ele>823.5</ele><time>2012-07-23T17:08:37.0000000+00:00</time></trkpt><trkpt lat="63.99875259" lon="-19.07300186"><ele>820.6</ele><time>2012-07-23T17:08:42.0000000+00:00</time></trkpt><trkpt lat="63.99872208" lon="-19.07292557"><ele>817.8</ele><time>2012-07-23T17:08:47.0000000+00:00</time></trkpt><trkpt lat="63.99872589" lon="-19.07283211"><ele>816.0</ele><time>2012-07-23T17:08:52.0000000+00:00</time></trkpt><trkpt lat="63.99876022" lon="-19.07274437"><ele>814.1</ele><time>2012-07-23T17:08:57.0000000+00:00</time></trkpt><trkpt lat="63.99879074" lon="-19.07268143"><ele>814.5</ele><time>2012-07-23T17:09:02.0000000+00:00</time></trkpt><trkpt lat="63.99879837" lon="-19.07270622"><ele>814.5</ele><time>2012-07-23T17:09:07.0000000+00:00</time></trkpt><trkpt lat="63.99880981" lon="-19.07265854"><ele>815.3</ele><time>2012-07-23T17:09:12.0000000+00:00</time></trkpt><trkpt lat="63.99883652" lon="-19.07259178"><ele>814.7</ele><time>2012-07-23T17:09:17.0000000+00:00</time></trkpt><trkpt lat="63.99886322" lon="-19.07250977"><ele>812.5</ele><time>2012-07-23T17:09:22.0000000+00:00</time></trkpt><trkpt lat="63.99888229" lon="-19.07245636"><ele>811.7</ele><time>2012-07-23T17:09:27.0000000+00:00</time></trkpt><trkpt lat="63.998909" lon="-19.07239533"><ele>810.6</ele><time>2012-07-23T17:09:32.0000000+00:00</time></trkpt><trkpt lat="63.99892807" lon="-19.07231903"><ele>809.3</ele><time>2012-07-23T17:09:37.0000000+00:00</time></trkpt><trkpt lat="63.99895477" lon="-19.07226181"><ele>808.0</ele><time>2012-07-23T17:09:42.0000000+00:00</time></trkpt><trkpt lat="63.99898148" lon="-19.07218742"><ele>806.9</ele><time>2012-07-23T17:09:47.0000000+00:00</time></trkpt><trkpt lat="63.99900055" lon="-19.07210732"><ele>805.8</ele><time>2012-07-23T17:09:52.0000000+00:00</time></trkpt><trkpt lat="63.99903107" lon="-19.07203674"><ele>804.9</ele><time>2012-07-23T17:09:57.0000000+00:00</time></trkpt><trkpt lat="63.99904633" lon="-19.07193565"><ele>804.4</ele><time>2012-07-23T17:10:02.0000000+00:00</time></trkpt><trkpt lat="63.99905396" lon="-19.07182503"><ele>803.9</ele><time>2012-07-23T17:10:07.0000000+00:00</time></trkpt><trkpt lat="63.99904633" lon="-19.07172775"><ele>803.7</ele><time>2012-07-23T17:10:12.0000000+00:00</time></trkpt><trkpt lat="63.99902344" lon="-19.07161713"><ele>803.6</ele><time>2012-07-23T17:10:17.0000000+00:00</time></trkpt><trkpt lat="63.99897003" lon="-19.07152939"><ele>802.0</ele><time>2012-07-23T17:10:22.0000000+00:00</time></trkpt><trkpt lat="63.9989624" lon="-19.07143593"><ele>800.6</ele><time>2012-07-23T17:10:27.0000000+00:00</time></trkpt><trkpt lat="63.99897766" lon="-19.07134247"><ele>801.3</ele><time>2012-07-23T17:10:32.0000000+00:00</time></trkpt><trkpt lat="63.99898529" lon="-19.07126999"><ele>801.8</ele><time>2012-07-23T17:10:37.0000000+00:00</time></trkpt><trkpt lat="63.99901199" lon="-19.07119942"><ele>803.5</ele><time>2012-07-23T17:10:42.0000000+00:00</time></trkpt><trkpt lat="63.99901581" lon="-19.07113838"><ele>803.0</ele><time>2012-07-23T17:10:47.0000000+00:00</time></trkpt><trkpt lat="63.99902344" lon="-19.07105827"><ele>802.8</ele><time>2012-07-23T17:10:52.0000000+00:00</time></trkpt><trkpt lat="63.9990387" lon="-19.07098389"><ele>802.2</ele><time>2012-07-23T17:10:57.0000000+00:00</time></trkpt><trkpt lat="63.99905396" lon="-19.07090569"><ele>801.3</ele><time>2012-07-23T17:11:02.0000000+00:00</time></trkpt><trkpt lat="63.99907303" lon="-19.07083511"><ele>800.4</ele><time>2012-07-23T17:11:07.0000000+00:00</time></trkpt><trkpt lat="63.9990921" lon="-19.07077599"><ele>799.6</ele><time>2012-07-23T17:11:12.0000000+00:00</time></trkpt><trkpt lat="63.99909592" lon="-19.07071686"><ele>798.2</ele><time>2012-07-23T17:11:17.0000000+00:00</time></trkpt><trkpt lat="63.99907303" lon="-19.07071877"><ele>795.7</ele><time>2012-07-23T17:11:22.0000000+00:00</time></trkpt><trkpt lat="63.99906158" lon="-19.07071114"><ele>795.0</ele><time>2012-07-23T17:11:27.0000000+00:00</time></trkpt><trkpt lat="63.99902725" lon="-19.07070923"><ele>792.1</ele><time>2012-07-23T17:11:32.0000000+00:00</time></trkpt><trkpt lat="63.99902344" lon="-19.07064438"><ele>791.5</ele><time>2012-07-23T17:11:37.0000000+00:00</time></trkpt><trkpt lat="63.99902344" lon="-19.07056427"><ele>789.5</ele><time>2012-07-23T17:11:42.0000000+00:00</time></trkpt><trkpt lat="63.99900055" lon="-19.07052231"><ele>786.1</ele><time>2012-07-23T17:11:47.0000000+00:00</time></trkpt><trkpt lat="63.99896622" lon="-19.07051849"><ele>784.7</ele><time>2012-07-23T17:11:52.0000000+00:00</time></trkpt><trkpt lat="63.99897003" lon="-19.0704174"><ele>782.0</ele><time>2012-07-23T17:11:57.0000000+00:00</time></trkpt><trkpt lat="63.99895096" lon="-19.07034493"><ele>778.7</ele><time>2012-07-23T17:12:02.0000000+00:00</time></trkpt><trkpt lat="63.99895477" lon="-19.07027245"><ele>776.3</ele><time>2012-07-23T17:12:07.0000000+00:00</time></trkpt><trkpt lat="63.99895096" lon="-19.07021332"><ele>774.9</ele><time>2012-07-23T17:12:12.0000000+00:00</time></trkpt><trkpt lat="63.99894714" lon="-19.07020569"><ele>773.9</ele><time>2012-07-23T17:12:17.0000000+00:00</time></trkpt><trkpt lat="63.99892807" lon="-19.07015038"><ele>772.3</ele><time>2012-07-23T17:12:22.0000000+00:00</time></trkpt><trkpt lat="63.9989624" lon="-19.07005119"><ele>771.9</ele><time>2012-07-23T17:12:27.0000000+00:00</time></trkpt><trkpt lat="63.99892807" lon="-19.07004547"><ele>771.5</ele><time>2012-07-23T17:12:32.0000000+00:00</time></trkpt><trkpt lat="63.99891281" lon="-19.07001305"><ele>770.9</ele><time>2012-07-23T17:12:37.0000000+00:00</time></trkpt><trkpt lat="63.99888992" lon="-19.06993675"><ele>770.6</ele><time>2012-07-23T17:12:42.0000000+00:00</time></trkpt><trkpt lat="63.99885178" lon="-19.06990433"><ele>770.4</ele><time>2012-07-23T17:12:47.0000000+00:00</time></trkpt><trkpt lat="63.9988327" lon="-19.06987953"><ele>769.7</ele><time>2012-07-23T17:12:52.0000000+00:00</time></trkpt><trkpt lat="63.99880219" lon="-19.06984711"><ele>768.4</ele><time>2012-07-23T17:12:57.0000000+00:00</time></trkpt><trkpt lat="63.99877167" lon="-19.06980705"><ele>767.0</ele><time>2012-07-23T17:13:02.0000000+00:00</time></trkpt><trkpt lat="63.99875259" lon="-19.06976128"><ele>766.1</ele><time>2012-07-23T17:13:07.0000000+00:00</time></trkpt><trkpt lat="63.99870682" lon="-19.06970215"><ele>765.6</ele><time>2012-07-23T17:13:12.0000000+00:00</time></trkpt><trkpt lat="63.99862289" lon="-19.06963539"><ele>766.2</ele><time>2012-07-23T17:13:17.0000000+00:00</time></trkpt><trkpt lat="63.99858475" lon="-19.06959343"><ele>765.9</ele><time>2012-07-23T17:13:22.0000000+00:00</time></trkpt><trkpt lat="63.99855042" lon="-19.06964111"><ele>765.0</ele><time>2012-07-23T17:13:27.0000000+00:00</time></trkpt><trkpt lat="63.99861527" lon="-19.0696106"><ele>764.2</ele><time>2012-07-23T17:13:32.0000000+00:00</time></trkpt><trkpt lat="63.99859619" lon="-19.06954765"><ele>763.7</ele><time>2012-07-23T17:13:37.0000000+00:00</time></trkpt><trkpt lat="63.99857712" lon="-19.06947899"><ele>763.5</ele><time>2012-07-23T17:13:42.0000000+00:00</time></trkpt><trkpt lat="63.99854279" lon="-19.06945801"><ele>762.4</ele><time>2012-07-23T17:13:47.0000000+00:00</time></trkpt><trkpt lat="63.99852371" lon="-19.06939316"><ele>762.1</ele><time>2012-07-23T17:13:52.0000000+00:00</time></trkpt><trkpt lat="63.9985199" lon="-19.06936646"><ele>760.3</ele><time>2012-07-23T17:13:57.0000000+00:00</time></trkpt><trkpt lat="63.99851608" lon="-19.06936264"><ele>760.0</ele><time>2012-07-23T17:14:02.0000000+00:00</time></trkpt><trkpt lat="63.99848557" lon="-19.06934547"><ele>759.5</ele><time>2012-07-23T17:14:07.0000000+00:00</time></trkpt><trkpt lat="63.99850082" lon="-19.0693531"><ele>757.9</ele><time>2012-07-23T17:14:12.0000000+00:00</time></trkpt><trkpt lat="63.99850845" lon="-19.06934357"><ele>756.8</ele><time>2012-07-23T17:14:17.0000000+00:00</time></trkpt><trkpt lat="63.99851227" lon="-19.06933403"><ele>756.0</ele><time>2012-07-23T17:14:22.0000000+00:00</time></trkpt><trkpt lat="63.99851608" lon="-19.06930733"><ele>755.2</ele><time>2012-07-23T17:14:27.0000000+00:00</time></trkpt><trkpt lat="63.99849701" lon="-19.069273"><ele>754.3</ele><time>2012-07-23T17:14:32.0000000+00:00</time></trkpt><trkpt lat="63.99845505" lon="-19.06921005"><ele>753.4</ele><time>2012-07-23T17:14:37.0000000+00:00</time></trkpt><trkpt lat="63.99842835" lon="-19.06918526"><ele>752.1</ele><time>2012-07-23T17:14:42.0000000+00:00</time></trkpt><trkpt lat="63.99839401" lon="-19.06910896"><ele>751.1</ele><time>2012-07-23T17:14:47.0000000+00:00</time></trkpt><trkpt lat="63.9983902" lon="-19.06902885"><ele>749.4</ele><time>2012-07-23T17:14:52.0000000+00:00</time></trkpt><trkpt lat="63.99834442" lon="-19.06897545"><ele>747.8</ele><time>2012-07-23T17:14:57.0000000+00:00</time></trkpt><trkpt lat="63.99829865" lon="-19.06890869"><ele>746.1</ele><time>2012-07-23T17:15:02.0000000+00:00</time></trkpt><trkpt lat="63.99827957" lon="-19.06886673"><ele>745.3</ele><time>2012-07-23T17:15:07.0000000+00:00</time></trkpt><trkpt lat="63.99827957" lon="-19.06886673"><ele>745.1</ele><time>2012-07-23T17:15:12.0000000+00:00</time></trkpt><trkpt lat="63.99827957" lon="-19.06886482"><ele>745.1</ele><time>2012-07-23T17:15:17.0000000+00:00</time></trkpt><trkpt lat="63.99822235" lon="-19.06882668"><ele>744.2</ele><time>2012-07-23T17:15:22.0000000+00:00</time></trkpt><trkpt lat="63.99821854" lon="-19.06881905"><ele>742.7</ele><time>2012-07-23T17:15:27.0000000+00:00</time></trkpt><trkpt lat="63.99822235" lon="-19.06876183"><ele>741.1</ele><time>2012-07-23T17:15:32.0000000+00:00</time></trkpt><trkpt lat="63.99819946" lon="-19.06870651"><ele>739.8</ele><time>2012-07-23T17:15:37.0000000+00:00</time></trkpt><trkpt lat="63.99822235" lon="-19.06864357"><ele>738.0</ele><time>2012-07-23T17:15:42.0000000+00:00</time></trkpt><trkpt lat="63.99821091" lon="-19.06859207"><ele>736.5</ele><time>2012-07-23T17:15:47.0000000+00:00</time></trkpt><trkpt lat="63.99817658" lon="-19.06856155"><ele>735.6</ele><time>2012-07-23T17:15:52.0000000+00:00</time></trkpt><trkpt lat="63.99815369" lon="-19.0684967"><ele>734.5</ele><time>2012-07-23T17:15:57.0000000+00:00</time></trkpt><trkpt lat="63.99811935" lon="-19.06846428"><ele>733.1</ele><time>2012-07-23T17:16:02.0000000+00:00</time></trkpt><trkpt lat="63.99808121" lon="-19.06845474"><ele>731.3</ele><time>2012-07-23T17:16:07.0000000+00:00</time></trkpt><trkpt lat="63.99811173" lon="-19.06838036"><ele>729.4</ele><time>2012-07-23T17:16:12.0000000+00:00</time></trkpt><trkpt lat="63.99813461" lon="-19.06829262"><ele>728.4</ele><time>2012-07-23T17:16:17.0000000+00:00</time></trkpt><trkpt lat="63.99809647" lon="-19.06823158"><ele>727.5</ele><time>2012-07-23T17:16:22.0000000+00:00</time></trkpt><trkpt lat="63.99807358" lon="-19.06819916"><ele>726.3</ele><time>2012-07-23T17:16:27.0000000+00:00</time></trkpt><trkpt lat="63.99810028" lon="-19.06811523"><ele>724.8</ele><time>2012-07-23T17:16:32.0000000+00:00</time></trkpt><trkpt lat="63.99810028" lon="-19.06804657"><ele>723.6</ele><time>2012-07-23T17:16:37.0000000+00:00</time></trkpt><trkpt lat="63.99809647" lon="-19.06805039"><ele>721.8</ele><time>2012-07-23T17:16:42.0000000+00:00</time></trkpt><trkpt lat="63.99805069" lon="-19.06803131"><ele>720.0</ele><time>2012-07-23T17:16:47.0000000+00:00</time></trkpt><trkpt lat="63.99803162" lon="-19.06796265"><ele>718.5</ele><time>2012-07-23T17:16:52.0000000+00:00</time></trkpt><trkpt lat="63.9980011" lon="-19.06791878"><ele>717.3</ele><time>2012-07-23T17:16:57.0000000+00:00</time></trkpt><trkpt lat="63.99796295" lon="-19.06789589"><ele>716.3</ele><time>2012-07-23T17:17:02.0000000+00:00</time></trkpt><trkpt lat="63.99795532" lon="-19.06786537"><ele>715.2</ele><time>2012-07-23T17:17:07.0000000+00:00</time></trkpt><trkpt lat="63.9979744" lon="-19.06785774"><ele>713.5</ele><time>2012-07-23T17:17:12.0000000+00:00</time></trkpt><trkpt lat="63.9979744" lon="-19.06783104"><ele>712.2</ele><time>2012-07-23T17:17:17.0000000+00:00</time></trkpt><trkpt lat="63.99796677" lon="-19.06775665"><ele>710.1</ele><time>2012-07-23T17:17:22.0000000+00:00</time></trkpt><trkpt lat="63.99794388" lon="-19.06769562"><ele>708.2</ele><time>2012-07-23T17:17:27.0000000+00:00</time></trkpt><trkpt lat="63.99795151" lon="-19.06768799"><ele>708.7</ele><time>2012-07-23T17:17:32.0000000+00:00</time></trkpt><trkpt lat="63.99792862" lon="-19.06761551"><ele>707.4</ele><time>2012-07-23T17:17:37.0000000+00:00</time></trkpt><trkpt lat="63.99792481" lon="-19.06751251"><ele>706.0</ele><time>2012-07-23T17:17:42.0000000+00:00</time></trkpt><trkpt lat="63.99792862" lon="-19.06738663"><ele>705.5</ele><time>2012-07-23T17:17:47.0000000+00:00</time></trkpt><trkpt lat="63.99794006" lon="-19.067276"><ele>704.9</ele><time>2012-07-23T17:17:52.0000000+00:00</time></trkpt><trkpt lat="63.99795151" lon="-19.06712341"><ele>704.4</ele><time>2012-07-23T17:17:57.0000000+00:00</time></trkpt><trkpt lat="63.99794006" lon="-19.06703758"><ele>704.6</ele><time>2012-07-23T17:18:02.0000000+00:00</time></trkpt><trkpt lat="63.99788284" lon="-19.0670414"><ele>702.9</ele><time>2012-07-23T17:18:07.0000000+00:00</time></trkpt><trkpt lat="63.9978714" lon="-19.06701088"><ele>702.1</ele><time>2012-07-23T17:18:12.0000000+00:00</time></trkpt><trkpt lat="63.99782944" lon="-19.06687927"><ele>700.1</ele><time>2012-07-23T17:18:17.0000000+00:00</time></trkpt><trkpt lat="63.99783707" lon="-19.06676865"><ele>700.9</ele><time>2012-07-23T17:18:22.0000000+00:00</time></trkpt><trkpt lat="63.99780655" lon="-19.06662178"><ele>700.5</ele><time>2012-07-23T17:18:27.0000000+00:00</time></trkpt><trkpt lat="63.99779511" lon="-19.06647492"><ele>700.5</ele><time>2012-07-23T17:18:32.0000000+00:00</time></trkpt><trkpt lat="63.99774933" lon="-19.06639671"><ele>698.6</ele><time>2012-07-23T17:18:37.0000000+00:00</time></trkpt><trkpt lat="63.99773026" lon="-19.06635666"><ele>698.2</ele><time>2012-07-23T17:18:42.0000000+00:00</time></trkpt><trkpt lat="63.99772263" lon="-19.06622887"><ele>698.7</ele><time>2012-07-23T17:18:47.0000000+00:00</time></trkpt><trkpt lat="63.99769974" lon="-19.0661602"><ele>699.1</ele><time>2012-07-23T17:18:52.0000000+00:00</time></trkpt><trkpt lat="63.99766922" lon="-19.06607819"><ele>698.2</ele><time>2012-07-23T17:18:57.0000000+00:00</time></trkpt><trkpt lat="63.99765396" lon="-19.06592751"><ele>698.7</ele><time>2012-07-23T17:19:02.0000000+00:00</time></trkpt><trkpt lat="63.99762344" lon="-19.06581307"><ele>698.7</ele><time>2012-07-23T17:19:07.0000000+00:00</time></trkpt><trkpt lat="63.9975853" lon="-19.06568146"><ele>697.1</ele><time>2012-07-23T17:19:12.0000000+00:00</time></trkpt><trkpt lat="63.99755859" lon="-19.06550217"><ele>696.1</ele><time>2012-07-23T17:19:17.0000000+00:00</time></trkpt><trkpt lat="63.99752808" lon="-19.06536675"><ele>695.0</ele><time>2012-07-23T17:19:22.0000000+00:00</time></trkpt><trkpt lat="63.99749374" lon="-19.06520081"><ele>694.3</ele><time>2012-07-23T17:19:27.0000000+00:00</time></trkpt><trkpt lat="63.99747467" lon="-19.06505013"><ele>695.3</ele><time>2012-07-23T17:19:32.0000000+00:00</time></trkpt><trkpt lat="63.99743652" lon="-19.06489754"><ele>694.3</ele><time>2012-07-23T17:19:37.0000000+00:00</time></trkpt><trkpt lat="63.9973793" lon="-19.0648098"><ele>692.7</ele><time>2012-07-23T17:19:42.0000000+00:00</time></trkpt><trkpt lat="63.99731445" lon="-19.06477547"><ele>692.2</ele><time>2012-07-23T17:19:47.0000000+00:00</time></trkpt><trkpt lat="63.99722672" lon="-19.06472397"><ele>691.6</ele><time>2012-07-23T17:19:52.0000000+00:00</time></trkpt><trkpt lat="63.99715805" lon="-19.06467629"><ele>691.6</ele><time>2012-07-23T17:19:57.0000000+00:00</time></trkpt><trkpt lat="63.99710846" lon="-19.06467056"><ele>691.5</ele><time>2012-07-23T17:20:02.0000000+00:00</time></trkpt><trkpt lat="63.99704361" lon="-19.06465721"><ele>691.7</ele><time>2012-07-23T17:20:07.0000000+00:00</time></trkpt><trkpt lat="63.99697495" lon="-19.06459999"><ele>692.1</ele><time>2012-07-23T17:20:12.0000000+00:00</time></trkpt><trkpt lat="63.99688339" lon="-19.06450462"><ele>690.6</ele><time>2012-07-23T17:20:17.0000000+00:00</time></trkpt><trkpt lat="63.99684143" lon="-19.06445694"><ele>689.2</ele><time>2012-07-23T17:20:22.0000000+00:00</time></trkpt><trkpt lat="63.99679565" lon="-19.06442642"><ele>688.2</ele><time>2012-07-23T17:20:27.0000000+00:00</time></trkpt><trkpt lat="63.99672318" lon="-19.06435776"><ele>685.9</ele><time>2012-07-23T17:20:32.0000000+00:00</time></trkpt><trkpt lat="63.99665451" lon="-19.06431007"><ele>685.2</ele><time>2012-07-23T17:20:37.0000000+00:00</time></trkpt><trkpt lat="63.99659348" lon="-19.06424904"><ele>685.3</ele><time>2012-07-23T17:20:42.0000000+00:00</time></trkpt><trkpt lat="63.99652863" lon="-19.06418228"><ele>684.8</ele><time>2012-07-23T17:20:47.0000000+00:00</time></trkpt><trkpt lat="63.99645996" lon="-19.0641613"><ele>683.4</ele><time>2012-07-23T17:20:52.0000000+00:00</time></trkpt><trkpt lat="63.99639511" lon="-19.06415558"><ele>683.6</ele><time>2012-07-23T17:20:57.0000000+00:00</time></trkpt><trkpt lat="63.99633408" lon="-19.06407166"><ele>683.1</ele><time>2012-07-23T17:21:02.0000000+00:00</time></trkpt><trkpt lat="63.99626923" lon="-19.06405258"><ele>684.1</ele><time>2012-07-23T17:21:07.0000000+00:00</time></trkpt><trkpt lat="63.99622345" lon="-19.06405067"><ele>685.9</ele><time>2012-07-23T17:21:12.0000000+00:00</time></trkpt><trkpt lat="63.99620056" lon="-19.06400871"><ele>687.5</ele><time>2012-07-23T17:21:17.0000000+00:00</time></trkpt><trkpt lat="63.99621582" lon="-19.06397247"><ele>689.9</ele><time>2012-07-23T17:21:22.0000000+00:00</time></trkpt><trkpt lat="63.99623108" lon="-19.06400681"><ele>693.5</ele><time>2012-07-23T17:21:27.0000000+00:00</time></trkpt><trkpt lat="63.99624252" lon="-19.06402016"><ele>695.5</ele><time>2012-07-23T17:21:32.0000000+00:00</time></trkpt><trkpt lat="63.99623108" lon="-19.06400681"><ele>696.5</ele><time>2012-07-23T17:21:37.0000000+00:00</time></trkpt><trkpt lat="63.99623871" lon="-19.06393433"><ele>698.5</ele><time>2012-07-23T17:21:42.0000000+00:00</time></trkpt><trkpt lat="63.99619675" lon="-19.06390762"><ele>698.7</ele><time>2012-07-23T17:21:47.0000000+00:00</time></trkpt><trkpt lat="63.99617004" lon="-19.06382942"><ele>698.6</ele><time>2012-07-23T17:21:52.0000000+00:00</time></trkpt><trkpt lat="63.9961319" lon="-19.06374931"><ele>699.1</ele><time>2012-07-23T17:21:57.0000000+00:00</time></trkpt><trkpt lat="63.99608612" lon="-19.06368256"><ele>698.5</ele><time>2012-07-23T17:22:02.0000000+00:00</time></trkpt><trkpt lat="63.99604797" lon="-19.06361389"><ele>698.3</ele><time>2012-07-23T17:22:07.0000000+00:00</time></trkpt><trkpt lat="63.99600601" lon="-19.06357575"><ele>698.4</ele><time>2012-07-23T17:22:12.0000000+00:00</time></trkpt><trkpt lat="63.99598694" lon="-19.0635128"><ele>697.9</ele><time>2012-07-23T17:22:17.0000000+00:00</time></trkpt><trkpt lat="63.99596405" lon="-19.06349564"><ele>697.3</ele><time>2012-07-23T17:22:22.0000000+00:00</time></trkpt><trkpt lat="63.99594116" lon="-19.06348991"><ele>696.5</ele><time>2012-07-23T17:22:27.0000000+00:00</time></trkpt><trkpt lat="63.99591446" lon="-19.06346321"><ele>696.1</ele><time>2012-07-23T17:22:32.0000000+00:00</time></trkpt><trkpt lat="63.99589157" lon="-19.06343269"><ele>695.4</ele><time>2012-07-23T17:22:37.0000000+00:00</time></trkpt><trkpt lat="63.99586868" lon="-19.0633831"><ele>695.3</ele><time>2012-07-23T17:22:42.0000000+00:00</time></trkpt><trkpt lat="63.99582291" lon="-19.06336021"><ele>694.1</ele><time>2012-07-23T17:22:47.0000000+00:00</time></trkpt><trkpt lat="63.99578095" lon="-19.0633316"><ele>692.8</ele><time>2012-07-23T17:22:52.0000000+00:00</time></trkpt><trkpt lat="63.99575424" lon="-19.06330109"><ele>692.1</ele><time>2012-07-23T17:22:57.0000000+00:00</time></trkpt><trkpt lat="63.99572754" lon="-19.06327438"><ele>691.1</ele><time>2012-07-23T17:23:02.0000000+00:00</time></trkpt><trkpt lat="63.99572372" lon="-19.06330872"><ele>689.4</ele><time>2012-07-23T17:23:07.0000000+00:00</time></trkpt><trkpt lat="63.99570847" lon="-19.06327057"><ele>688.6</ele><time>2012-07-23T17:23:12.0000000+00:00</time></trkpt><trkpt lat="63.99567413" lon="-19.06321335"><ele>688.1</ele><time>2012-07-23T17:23:17.0000000+00:00</time></trkpt><trkpt lat="63.99562836" lon="-19.06315422"><ele>687.3</ele><time>2012-07-23T17:23:22.0000000+00:00</time></trkpt><trkpt lat="63.9956131" lon="-19.06312561"><ele>686.9</ele><time>2012-07-23T17:23:27.0000000+00:00</time></trkpt><trkpt lat="63.99556732" lon="-19.06310272"><ele>685.5</ele><time>2012-07-23T17:23:32.0000000+00:00</time></trkpt><trkpt lat="63.99554825" lon="-19.06304741"><ele>683.4</ele><time>2012-07-23T17:23:37.0000000+00:00</time></trkpt><trkpt lat="63.99552155" lon="-19.06298828"><ele>680.7</ele><time>2012-07-23T17:23:42.0000000+00:00</time></trkpt><trkpt lat="63.99548721" lon="-19.06293106"><ele>679.3</ele><time>2012-07-23T17:23:47.0000000+00:00</time></trkpt><trkpt lat="63.99545288" lon="-19.06286049"><ele>679.4</ele><time>2012-07-23T17:23:52.0000000+00:00</time></trkpt><trkpt lat="63.99543381" lon="-19.06277275"><ele>679.6</ele><time>2012-07-23T17:23:57.0000000+00:00</time></trkpt><trkpt lat="63.99540329" lon="-19.06273842"><ele>679.1</ele><time>2012-07-23T17:24:02.0000000+00:00</time></trkpt><trkpt lat="63.99542618" lon="-19.06265259"><ele>678.2</ele><time>2012-07-23T17:24:07.0000000+00:00</time></trkpt><trkpt lat="63.99536514" lon="-19.06258011"><ele>676.0</ele><time>2012-07-23T17:24:12.0000000+00:00</time></trkpt><trkpt lat="63.99531174" lon="-19.06253815"><ele>674.6</ele><time>2012-07-23T17:24:17.0000000+00:00</time></trkpt><trkpt lat="63.99533081" lon="-19.0625248"><ele>674.7</ele><time>2012-07-23T17:24:22.0000000+00:00</time></trkpt><trkpt lat="63.99533463" lon="-19.06255531"><ele>672.8</ele><time>2012-07-23T17:24:27.0000000+00:00</time></trkpt><trkpt lat="63.99530411" lon="-19.06258774"><ele>670.3</ele><time>2012-07-23T17:24:32.0000000+00:00</time></trkpt><trkpt lat="63.99527741" lon="-19.06261826"><ele>668.8</ele><time>2012-07-23T17:24:37.0000000+00:00</time></trkpt><trkpt lat="63.99524689" lon="-19.06265831"><ele>667.3</ele><time>2012-07-23T17:24:42.0000000+00:00</time></trkpt><trkpt lat="63.995224" lon="-19.06265831"><ele>665.9</ele><time>2012-07-23T17:24:47.0000000+00:00</time></trkpt><trkpt lat="63.99520874" lon="-19.0626545"><ele>665.0</ele><time>2012-07-23T17:24:52.0000000+00:00</time></trkpt><trkpt lat="63.99519348" lon="-19.06263924"><ele>664.3</ele><time>2012-07-23T17:24:57.0000000+00:00</time></trkpt><trkpt lat="63.99520493" lon="-19.06264496"><ele>664.7</ele><time>2012-07-23T17:25:02.0000000+00:00</time></trkpt><trkpt lat="63.99522018" lon="-19.06266022"><ele>664.8</ele><time>2012-07-23T17:25:07.0000000+00:00</time></trkpt><trkpt lat="63.99522018" lon="-19.06265831"><ele>664.6</ele><time>2012-07-23T17:25:12.0000000+00:00</time></trkpt><trkpt lat="63.99522018" lon="-19.0626564"><ele>664.6</ele><time>2012-07-23T17:25:17.0000000+00:00</time></trkpt><trkpt lat="63.99522018" lon="-19.06265259"><ele>664.6</ele><time>2012-07-23T17:25:22.0000000+00:00</time></trkpt><trkpt lat="63.99522018" lon="-19.06256485"><ele>664.6</ele><time>2012-07-23T17:25:27.0000000+00:00</time></trkpt><trkpt lat="63.99522018" lon="-19.06248474"><ele>664.5</ele><time>2012-07-23T17:25:32.0000000+00:00</time></trkpt><trkpt lat="63.99523544" lon="-19.06236839"><ele>664.5</ele><time>2012-07-23T17:25:37.0000000+00:00</time></trkpt><trkpt lat="63.995224" lon="-19.06233597"><ele>663.0</ele><time>2012-07-23T17:25:42.0000000+00:00</time></trkpt><trkpt lat="63.99521637" lon="-19.06227493"><ele>662.1</ele><time>2012-07-23T17:25:47.0000000+00:00</time></trkpt><trkpt lat="63.995224" lon="-19.06220055"><ele>661.7</ele><time>2012-07-23T17:25:52.0000000+00:00</time></trkpt><trkpt lat="63.99523163" lon="-19.06211853"><ele>661.6</ele><time>2012-07-23T17:25:57.0000000+00:00</time></trkpt><trkpt lat="63.99520111" lon="-19.06202316"><ele>660.1</ele><time>2012-07-23T17:26:02.0000000+00:00</time></trkpt><trkpt lat="63.99515915" lon="-19.06202507"><ele>657.4</ele><time>2012-07-23T17:26:07.0000000+00:00</time></trkpt><trkpt lat="63.99514008" lon="-19.062006"><ele>655.3</ele><time>2012-07-23T17:26:12.0000000+00:00</time></trkpt><trkpt lat="63.99513245" lon="-19.06199837"><ele>654.1</ele><time>2012-07-23T17:26:17.0000000+00:00</time></trkpt><trkpt lat="63.995121" lon="-19.06197739"><ele>651.5</ele><time>2012-07-23T17:26:22.0000000+00:00</time></trkpt><trkpt lat="63.99510956" lon="-19.06196785"><ele>650.2</ele><time>2012-07-23T17:26:27.0000000+00:00</time></trkpt><trkpt lat="63.99507904" lon="-19.06193543"><ele>648.9</ele><time>2012-07-23T17:26:32.0000000+00:00</time></trkpt><trkpt lat="63.99504852" lon="-19.06194687"><ele>646.5</ele><time>2012-07-23T17:26:37.0000000+00:00</time></trkpt><trkpt lat="63.99503326" lon="-19.06194878"><ele>644.8</ele><time>2012-07-23T17:26:42.0000000+00:00</time></trkpt><trkpt lat="63.99500656" lon="-19.06193733"><ele>641.9</ele><time>2012-07-23T17:26:47.0000000+00:00</time></trkpt><trkpt lat="63.99498367" lon="-19.06196594"><ele>640.7</ele><time>2012-07-23T17:26:52.0000000+00:00</time></trkpt><trkpt lat="63.99494553" lon="-19.06197739"><ele>638.7</ele><time>2012-07-23T17:26:57.0000000+00:00</time></trkpt><trkpt lat="63.9949379" lon="-19.06197357"><ele>638.0</ele><time>2012-07-23T17:27:02.0000000+00:00</time></trkpt><trkpt lat="63.99491501" lon="-19.06194687"><ele>636.5</ele><time>2012-07-23T17:27:07.0000000+00:00</time></trkpt><trkpt lat="63.99489594" lon="-19.06195259"><ele>635.7</ele><time>2012-07-23T17:27:12.0000000+00:00</time></trkpt><trkpt lat="63.99486542" lon="-19.06191254"><ele>634.3</ele><time>2012-07-23T17:27:17.0000000+00:00</time></trkpt><trkpt lat="63.99481201" lon="-19.06186485"><ele>632.8</ele><time>2012-07-23T17:27:22.0000000+00:00</time></trkpt><trkpt lat="63.99475861" lon="-19.06182098"><ele>631.4</ele><time>2012-07-23T17:27:27.0000000+00:00</time></trkpt><trkpt lat="63.99472427" lon="-19.06177712"><ele>630.4</ele><time>2012-07-23T17:27:32.0000000+00:00</time></trkpt><trkpt lat="63.99472809" lon="-19.06173897"><ele>629.4</ele><time>2012-07-23T17:27:37.0000000+00:00</time></trkpt><trkpt lat="63.9947052" lon="-19.06169701"><ele>628.3</ele><time>2012-07-23T17:27:42.0000000+00:00</time></trkpt><trkpt lat="63.99465561" lon="-19.0616703"><ele>627.7</ele><time>2012-07-23T17:27:47.0000000+00:00</time></trkpt><trkpt lat="63.99465561" lon="-19.06163216"><ele>627.1</ele><time>2012-07-23T17:27:52.0000000+00:00</time></trkpt><trkpt lat="63.99469376" lon="-19.06166267"><ele>628.2</ele><time>2012-07-23T17:27:57.0000000+00:00</time></trkpt><trkpt lat="63.99468613" lon="-19.06161308"><ele>626.9</ele><time>2012-07-23T17:28:02.0000000+00:00</time></trkpt><trkpt lat="63.99467087" lon="-19.06155396"><ele>625.6</ele><time>2012-07-23T17:28:07.0000000+00:00</time></trkpt><trkpt lat="63.99466324" lon="-19.06149674"><ele>624.1</ele><time>2012-07-23T17:28:12.0000000+00:00</time></trkpt><trkpt lat="63.99465942" lon="-19.06147194"><ele>623.9</ele><time>2012-07-23T17:28:17.0000000+00:00</time></trkpt><trkpt lat="63.99466705" lon="-19.06143189"><ele>623.0</ele><time>2012-07-23T17:28:22.0000000+00:00</time></trkpt><trkpt lat="63.99464417" lon="-19.0613842"><ele>622.0</ele><time>2012-07-23T17:28:27.0000000+00:00</time></trkpt><trkpt lat="63.99461365" lon="-19.06131744"><ele>620.2</ele><time>2012-07-23T17:28:32.0000000+00:00</time></trkpt><trkpt lat="63.99458313" lon="-19.06126785"><ele>618.1</ele><time>2012-07-23T17:28:37.0000000+00:00</time></trkpt><trkpt lat="63.99456024" lon="-19.06123543"><ele>617.3</ele><time>2012-07-23T17:28:42.0000000+00:00</time></trkpt><trkpt lat="63.99457169" lon="-19.06124497"><ele>617.0</ele><time>2012-07-23T17:28:47.0000000+00:00</time></trkpt><trkpt lat="63.99455261" lon="-19.06118584"><ele>615.3</ele><time>2012-07-23T17:28:52.0000000+00:00</time></trkpt><trkpt lat="63.99455261" lon="-19.06115913"><ele>614.2</ele><time>2012-07-23T17:28:57.0000000+00:00</time></trkpt><trkpt lat="63.99456406" lon="-19.06114006"><ele>611.6</ele><time>2012-07-23T17:29:02.0000000+00:00</time></trkpt><trkpt lat="63.99456787" lon="-19.06113625"><ele>611.1</ele><time>2012-07-23T17:29:07.0000000+00:00</time></trkpt><trkpt lat="63.99454498" lon="-19.06111336"><ele>610.5</ele><time>2012-07-23T17:29:12.0000000+00:00</time></trkpt><trkpt lat="63.99451447" lon="-19.0610981"><ele>607.6</ele><time>2012-07-23T17:29:17.0000000+00:00</time></trkpt><trkpt lat="63.99448776" lon="-19.06105804"><ele>606.1</ele><time>2012-07-23T17:29:22.0000000+00:00</time></trkpt><trkpt lat="63.99445725" lon="-19.06103516"><ele>604.8</ele><time>2012-07-23T17:29:27.0000000+00:00</time></trkpt><trkpt lat="63.99441528" lon="-19.06102943"><ele>603.4</ele><time>2012-07-23T17:29:32.0000000+00:00</time></trkpt><trkpt lat="63.99437332" lon="-19.06098747"><ele>603.3</ele><time>2012-07-23T17:29:37.0000000+00:00</time></trkpt><trkpt lat="63.9943161" lon="-19.06095123"><ele>603.4</ele><time>2012-07-23T17:29:42.0000000+00:00</time></trkpt><trkpt lat="63.99430847" lon="-19.0609417"><ele>602.5</ele><time>2012-07-23T17:29:47.0000000+00:00</time></trkpt><trkpt lat="63.99429703" lon="-19.06092453"><ele>601.8</ele><time>2012-07-23T17:29:52.0000000+00:00</time></trkpt><trkpt lat="63.9942894" lon="-19.06088829"><ele>600.3</ele><time>2012-07-23T17:29:57.0000000+00:00</time></trkpt><trkpt lat="63.99429321" lon="-19.06087875"><ele>600.1</ele><time>2012-07-23T17:30:02.0000000+00:00</time></trkpt><trkpt lat="63.99425507" lon="-19.06087303"><ele>598.9</ele><time>2012-07-23T17:30:07.0000000+00:00</time></trkpt><trkpt lat="63.99419022" lon="-19.0608654"><ele>598.0</ele><time>2012-07-23T17:30:12.0000000+00:00</time></trkpt><trkpt lat="63.99412918" lon="-19.06085777"><ele>597.9</ele><time>2012-07-23T17:30:17.0000000+00:00</time></trkpt><trkpt lat="63.99406433" lon="-19.06082153"><ele>597.8</ele><time>2012-07-23T17:30:22.0000000+00:00</time></trkpt><trkpt lat="63.99401093" lon="-19.06079674"><ele>597.3</ele><time>2012-07-23T17:30:27.0000000+00:00</time></trkpt><trkpt lat="63.99394989" lon="-19.06076813"><ele>597.1</ele><time>2012-07-23T17:30:32.0000000+00:00</time></trkpt><trkpt lat="63.9939003" lon="-19.06073761"><ele>597.0</ele><time>2012-07-23T17:30:37.0000000+00:00</time></trkpt><trkpt lat="63.99388886" lon="-19.06074143"><ele>596.9</ele><time>2012-07-23T17:30:42.0000000+00:00</time></trkpt><trkpt lat="63.99388504" lon="-19.06074524"><ele>596.5</ele><time>2012-07-23T17:30:47.0000000+00:00</time></trkpt><trkpt lat="63.99382401" lon="-19.06070137"><ele>596.6</ele><time>2012-07-23T17:30:52.0000000+00:00</time></trkpt><trkpt lat="63.99381256" lon="-19.06070709"><ele>595.6</ele><time>2012-07-23T17:30:57.0000000+00:00</time></trkpt><trkpt lat="63.99377823" lon="-19.06068802"><ele>594.2</ele><time>2012-07-23T17:31:02.0000000+00:00</time></trkpt><trkpt lat="63.99372101" lon="-19.06062508"><ele>592.0</ele><time>2012-07-23T17:31:07.0000000+00:00</time></trkpt><trkpt lat="63.99369812" lon="-19.0606308"><ele>590.7</ele><time>2012-07-23T17:31:12.0000000+00:00</time></trkpt><trkpt lat="63.99370575" lon="-19.06063652"><ele>589.8</ele><time>2012-07-23T17:31:17.0000000+00:00</time></trkpt><trkpt lat="63.99370194" lon="-19.06063652"><ele>589.7</ele><time>2012-07-23T17:31:22.0000000+00:00</time></trkpt><trkpt lat="63.99370194" lon="-19.06063652"><ele>589.6</ele><time>2012-07-23T17:31:27.0000000+00:00</time></trkpt><trkpt lat="63.99369812" lon="-19.06064034"><ele>589.3</ele><time>2012-07-23T17:31:32.0000000+00:00</time></trkpt><trkpt lat="63.99369049" lon="-19.06065941"><ele>589.9</ele><time>2012-07-23T17:31:37.0000000+00:00</time></trkpt><trkpt lat="63.99364853" lon="-19.06068993"><ele>590.5</ele><time>2012-07-23T17:31:42.0000000+00:00</time></trkpt><trkpt lat="63.99359131" lon="-19.0607357"><ele>591.1</ele><time>2012-07-23T17:31:47.0000000+00:00</time></trkpt><trkpt lat="63.9935379" lon="-19.06078148"><ele>591.7</ele><time>2012-07-23T17:31:52.0000000+00:00</time></trkpt><trkpt lat="63.99348831" lon="-19.06079865"><ele>592.3</ele><time>2012-07-23T17:31:57.0000000+00:00</time></trkpt><trkpt lat="63.99346924" lon="-19.06071091"><ele>592.0</ele><time>2012-07-23T17:32:02.0000000+00:00</time></trkpt><trkpt lat="63.99344635" lon="-19.06065369"><ele>592.4</ele><time>2012-07-23T17:32:07.0000000+00:00</time></trkpt><trkpt lat="63.99338532" lon="-19.06056786"><ele>593.2</ele><time>2012-07-23T17:32:12.0000000+00:00</time></trkpt><trkpt lat="63.99332428" lon="-19.06050873"><ele>593.9</ele><time>2012-07-23T17:32:17.0000000+00:00</time></trkpt><trkpt lat="63.9932518" lon="-19.06046104"><ele>594.2</ele><time>2012-07-23T17:32:22.0000000+00:00</time></trkpt><trkpt lat="63.99316025" lon="-19.06036949"><ele>594.3</ele><time>2012-07-23T17:32:27.0000000+00:00</time></trkpt><trkpt lat="63.99311829" lon="-19.06024551"><ele>594.2</ele><time>2012-07-23T17:32:32.0000000+00:00</time></trkpt><trkpt lat="63.9930687" lon="-19.06018448"><ele>595.3</ele><time>2012-07-23T17:32:37.0000000+00:00</time></trkpt><trkpt lat="63.99301529" lon="-19.06009674"><ele>594.9</ele><time>2012-07-23T17:32:42.0000000+00:00</time></trkpt><trkpt lat="63.99295425" lon="-19.06004334"><ele>594.6</ele><time>2012-07-23T17:32:47.0000000+00:00</time></trkpt><trkpt lat="63.99290085" lon="-19.05997658"><ele>593.0</ele><time>2012-07-23T17:32:52.0000000+00:00</time></trkpt><trkpt lat="63.992836" lon="-19.05990791"><ele>593.2</ele><time>2012-07-23T17:32:57.0000000+00:00</time></trkpt><trkpt lat="63.99277878" lon="-19.05985451"><ele>592.6</ele><time>2012-07-23T17:33:02.0000000+00:00</time></trkpt><trkpt lat="63.99272156" lon="-19.05981445"><ele>591.7</ele><time>2012-07-23T17:33:07.0000000+00:00</time></trkpt><trkpt lat="63.99265289" lon="-19.05973625"><ele>590.9</ele><time>2012-07-23T17:33:12.0000000+00:00</time></trkpt><trkpt lat="63.99258423" lon="-19.05968857"><ele>590.2</ele><time>2012-07-23T17:33:17.0000000+00:00</time></trkpt><trkpt lat="63.99252319" lon="-19.05962753"><ele>590.6</ele><time>2012-07-23T17:33:22.0000000+00:00</time></trkpt><trkpt lat="63.99245453" lon="-19.0595665"><ele>589.7</ele><time>2012-07-23T17:33:27.0000000+00:00</time></trkpt><trkpt lat="63.99238205" lon="-19.05950356"><ele>589.3</ele><time>2012-07-23T17:33:32.0000000+00:00</time></trkpt><trkpt lat="63.99231339" lon="-19.05945396"><ele>589.1</ele><time>2012-07-23T17:33:37.0000000+00:00</time></trkpt><trkpt lat="63.99225998" lon="-19.05940819"><ele>589.9</ele><time>2012-07-23T17:33:42.0000000+00:00</time></trkpt><trkpt lat="63.99220657" lon="-19.05938911"><ele>590.5</ele><time>2012-07-23T17:33:47.0000000+00:00</time></trkpt><trkpt lat="63.99214172" lon="-19.05934334"><ele>591.0</ele><time>2012-07-23T17:33:52.0000000+00:00</time></trkpt><trkpt lat="63.99207306" lon="-19.05928421"><ele>592.0</ele><time>2012-07-23T17:33:57.0000000+00:00</time></trkpt><trkpt lat="63.99201202" lon="-19.05929184"><ele>592.9</ele><time>2012-07-23T17:34:02.0000000+00:00</time></trkpt><trkpt lat="63.99196243" lon="-19.05927849"><ele>594.5</ele><time>2012-07-23T17:34:07.0000000+00:00</time></trkpt><trkpt lat="63.99189758" lon="-19.0592556"><ele>594.8</ele><time>2012-07-23T17:34:12.0000000+00:00</time></trkpt><trkpt lat="63.99184418" lon="-19.05929947"><ele>595.9</ele><time>2012-07-23T17:34:17.0000000+00:00</time></trkpt><trkpt lat="63.99178696" lon="-19.05936241"><ele>596.6</ele><time>2012-07-23T17:34:22.0000000+00:00</time></trkpt><trkpt lat="63.99172592" lon="-19.0594101"><ele>596.6</ele><time>2012-07-23T17:34:27.0000000+00:00</time></trkpt><trkpt lat="63.9916687" lon="-19.05946159"><ele>596.8</ele><time>2012-07-23T17:34:32.0000000+00:00</time></trkpt><trkpt lat="63.99161148" lon="-19.059515"><ele>596.6</ele><time>2012-07-23T17:34:37.0000000+00:00</time></trkpt><trkpt lat="63.99155808" lon="-19.05957985"><ele>596.7</ele><time>2012-07-23T17:34:42.0000000+00:00</time></trkpt><trkpt lat="63.99150848" lon="-19.05966759"><ele>596.8</ele><time>2012-07-23T17:34:47.0000000+00:00</time></trkpt><trkpt lat="63.99145126" lon="-19.05973625"><ele>596.7</ele><time>2012-07-23T17:34:52.0000000+00:00</time></trkpt><trkpt lat="63.99140167" lon="-19.05979919"><ele>597.0</ele><time>2012-07-23T17:34:57.0000000+00:00</time></trkpt><trkpt lat="63.99133682" lon="-19.05986404"><ele>597.2</ele><time>2012-07-23T17:35:02.0000000+00:00</time></trkpt><trkpt lat="63.9912796" lon="-19.05992699"><ele>597.2</ele><time>2012-07-23T17:35:07.0000000+00:00</time></trkpt><trkpt lat="63.99122238" lon="-19.05999756"><ele>597.4</ele><time>2012-07-23T17:35:12.0000000+00:00</time></trkpt><trkpt lat="63.99116516" lon="-19.06007576"><ele>597.8</ele><time>2012-07-23T17:35:17.0000000+00:00</time></trkpt><trkpt lat="63.99110413" lon="-19.0601387"><ele>598.1</ele><time>2012-07-23T17:35:22.0000000+00:00</time></trkpt><trkpt lat="63.99103165" lon="-19.06021309"><ele>598.5</ele><time>2012-07-23T17:35:27.0000000+00:00</time></trkpt><trkpt lat="63.99097061" lon="-19.06027031"><ele>598.9</ele><time>2012-07-23T17:35:32.0000000+00:00</time></trkpt><trkpt lat="63.99091721" lon="-19.06032562"><ele>598.5</ele><time>2012-07-23T17:35:37.0000000+00:00</time></trkpt><trkpt lat="63.99085617" lon="-19.06039429"><ele>598.5</ele><time>2012-07-23T17:35:42.0000000+00:00</time></trkpt><trkpt lat="63.99080277" lon="-19.06041718"><ele>598.6</ele><time>2012-07-23T17:35:47.0000000+00:00</time></trkpt><trkpt lat="63.99076843" lon="-19.06036949"><ele>598.8</ele><time>2012-07-23T17:35:52.0000000+00:00</time></trkpt><trkpt lat="63.99071121" lon="-19.06031418"><ele>599.0</ele><time>2012-07-23T17:35:57.0000000+00:00</time></trkpt><trkpt lat="63.99065781" lon="-19.06027985"><ele>598.2</ele><time>2012-07-23T17:36:02.0000000+00:00</time></trkpt><trkpt lat="63.99064636" lon="-19.0602684"><ele>598.8</ele><time>2012-07-23T17:36:07.0000000+00:00</time></trkpt><trkpt lat="63.99063873" lon="-19.06025505"><ele>598.9</ele><time>2012-07-23T17:36:12.0000000+00:00</time></trkpt><trkpt lat="63.99062347" lon="-19.06025314"><ele>598.8</ele><time>2012-07-23T17:36:17.0000000+00:00</time></trkpt><trkpt lat="63.99062729" lon="-19.06025314"><ele>598.8</ele><time>2012-07-23T17:36:22.0000000+00:00</time></trkpt><trkpt lat="63.99062729" lon="-19.06024361"><ele>598.8</ele><time>2012-07-23T17:36:27.0000000+00:00</time></trkpt><trkpt lat="63.99062729" lon="-19.06022835"><ele>598.8</ele><time>2012-07-23T17:36:32.0000000+00:00</time></trkpt><trkpt lat="63.99062729" lon="-19.06022644"><ele>598.8</ele><time>2012-07-23T17:36:37.0000000+00:00</time></trkpt><trkpt lat="63.9906311" lon="-19.06023598"><ele>598.8</ele><time>2012-07-23T17:36:42.0000000+00:00</time></trkpt><trkpt lat="63.99060059" lon="-19.06026268"><ele>598.6</ele><time>2012-07-23T17:36:47.0000000+00:00</time></trkpt><trkpt lat="63.99057007" lon="-19.06024551"><ele>598.3</ele><time>2012-07-23T17:36:52.0000000+00:00</time></trkpt><trkpt lat="63.99055862" lon="-19.06020546"><ele>597.9</ele><time>2012-07-23T17:36:57.0000000+00:00</time></trkpt><trkpt lat="63.99055862" lon="-19.0601902"><ele>597.8</ele><time>2012-07-23T17:37:02.0000000+00:00</time></trkpt><trkpt lat="63.990551" lon="-19.06010628"><ele>597.5</ele><time>2012-07-23T17:37:07.0000000+00:00</time></trkpt><trkpt lat="63.990551" lon="-19.06009865"><ele>597.4</ele><time>2012-07-23T17:37:12.0000000+00:00</time></trkpt><trkpt lat="63.99054718" lon="-19.06010819"><ele>597.4</ele><time>2012-07-23T17:37:17.0000000+00:00</time></trkpt><trkpt lat="63.99053955" lon="-19.06011772"><ele>597.4</ele><time>2012-07-23T17:37:22.0000000+00:00</time></trkpt><trkpt lat="63.99052811" lon="-19.06013107"><ele>597.2</ele><time>2012-07-23T17:37:27.0000000+00:00</time></trkpt><trkpt lat="63.99052811" lon="-19.0601635"><ele>597.1</ele><time>2012-07-23T17:37:32.0000000+00:00</time></trkpt><trkpt lat="63.99052048" lon="-19.06017494"><ele>597.0</ele><time>2012-07-23T17:37:37.0000000+00:00</time></trkpt><trkpt lat="63.99053955" lon="-19.0602169"><ele>597.1</ele><time>2012-07-23T17:37:42.0000000+00:00</time></trkpt><trkpt lat="63.99053192" lon="-19.06018639"><ele>597.0</ele><time>2012-07-23T17:37:47.0000000+00:00</time></trkpt><trkpt lat="63.99053192" lon="-19.06017685"><ele>597.0</ele><time>2012-07-23T17:37:52.0000000+00:00</time></trkpt><trkpt lat="63.99053192" lon="-19.06016541"><ele>597.0</ele><time>2012-07-23T17:37:57.0000000+00:00</time></trkpt><trkpt lat="63.99053192" lon="-19.06011391"><ele>596.9</ele><time>2012-07-23T17:38:02.0000000+00:00</time></trkpt><trkpt lat="63.99055862" lon="-19.06006622"><ele>597.1</ele><time>2012-07-23T17:38:07.0000000+00:00</time></trkpt><trkpt lat="63.9906044" lon="-19.06011391"><ele>597.3</ele><time>2012-07-23T17:38:12.0000000+00:00</time></trkpt><trkpt lat="63.99061203" lon="-19.06009102"><ele>597.3</ele><time>2012-07-23T17:38:17.0000000+00:00</time></trkpt><trkpt lat="63.99061966" lon="-19.06007195"><ele>597.2</ele><time>2012-07-23T17:38:22.0000000+00:00</time></trkpt><trkpt lat="63.99063492" lon="-19.0600605"><ele>597.1</ele><time>2012-07-23T17:38:27.0000000+00:00</time></trkpt></trkseg><trkseg><trkpt lat="63.99038315" lon="-19.06074333"><ele>576.7</ele><time>2012-07-24T11:13:29.0000000+00:00</time></trkpt><trkpt lat="63.99024582" lon="-19.06024933"><ele>599.3</ele><time>2012-07-24T11:13:34.0000000+00:00</time></trkpt><trkpt lat="63.99025345" lon="-19.06030083"><ele>598.3</ele><time>2012-07-24T11:13:39.0000000+00:00</time></trkpt><trkpt lat="63.99025345" lon="-19.06028938"><ele>597.2</ele><time>2012-07-24T11:13:44.0000000+00:00</time></trkpt><trkpt lat="63.99025345" lon="-19.06028748"><ele>595.9</ele><time>2012-07-24T11:13:49.0000000+00:00</time></trkpt><trkpt lat="63.99025345" lon="-19.06030464"><ele>597.3</ele><time>2012-07-24T11:13:54.0000000+00:00</time></trkpt><trkpt lat="63.99025345" lon="-19.06031227"><ele>598.4</ele><time>2012-07-24T11:13:59.0000000+00:00</time></trkpt><trkpt lat="63.99025726" lon="-19.06032562"><ele>598.8</ele><time>2012-07-24T11:14:04.0000000+00:00</time></trkpt><trkpt lat="63.99025726" lon="-19.06032562"><ele>598.8</ele><time>2012-07-24T11:14:09.0000000+00:00</time></trkpt><trkpt lat="63.99025726" lon="-19.06032562"><ele>598.7</ele><time>2012-07-24T11:14:14.0000000+00:00</time></trkpt><trkpt lat="63.99025726" lon="-19.06032562"><ele>598.7</ele><time>2012-07-24T11:14:19.0000000+00:00</time></trkpt><trkpt lat="63.99025726" lon="-19.06032562"><ele>598.8</ele><time>2012-07-24T11:14:24.0000000+00:00</time></trkpt><trkpt lat="63.99025726" lon="-19.06032562"><ele>598.8</ele><time>2012-07-24T11:14:29.0000000+00:00</time></trkpt><trkpt lat="63.99025726" lon="-19.06032562"><ele>598.8</ele><time>2012-07-24T11:14:34.0000000+00:00</time></trkpt><trkpt lat="63.99025726" lon="-19.06032562"><ele>598.8</ele><time>2012-07-24T11:14:39.0000000+00:00</time></trkpt><trkpt lat="63.99025726" lon="-19.06032562"><ele>598.8</ele><time>2012-07-24T11:14:44.0000000+00:00</time></trkpt><trkpt lat="63.99025726" lon="-19.06032562"><ele>598.8</ele><time>2012-07-24T11:14:49.0000000+00:00</time></trkpt><trkpt lat="63.99025726" lon="-19.06032562"><ele>598.8</ele><time>2012-07-24T11:14:54.0000000+00:00</time></trkpt><trkpt lat="63.99025726" lon="-19.06032562"><ele>598.8</ele><time>2012-07-24T11:14:59.0000000+00:00</time></trkpt><trkpt lat="63.99025726" lon="-19.06032562"><ele>598.8</ele><time>2012-07-24T11:15:04.0000000+00:00</time></trkpt><trkpt lat="63.99025726" lon="-19.06032562"><ele>598.8</ele><time>2012-07-24T11:15:09.0000000+00:00</time></trkpt><trkpt lat="63.99025726" lon="-19.06032562"><ele>598.8</ele><time>2012-07-24T11:15:14.0000000+00:00</time></trkpt><trkpt lat="63.99025726" lon="-19.06032562"><ele>598.8</ele><time>2012-07-24T11:15:19.0000000+00:00</time></trkpt><trkpt lat="63.99025726" lon="-19.06032562"><ele>598.8</ele><time>2012-07-24T11:15:24.0000000+00:00</time></trkpt><trkpt lat="63.99025726" lon="-19.06032562"><ele>598.8</ele><time>2012-07-24T11:15:29.0000000+00:00</time></trkpt><trkpt lat="63.99025726" lon="-19.06032562"><ele>598.8</ele><time>2012-07-24T11:15:34.0000000+00:00</time></trkpt><trkpt lat="63.99025726" lon="-19.06032562"><ele>598.8</ele><time>2012-07-24T11:15:39.0000000+00:00</time></trkpt><trkpt lat="63.99025726" lon="-19.06032562"><ele>598.8</ele><time>2012-07-24T11:15:44.0000000+00:00</time></trkpt><trkpt lat="63.99025726" lon="-19.06032562"><ele>598.8</ele><time>2012-07-24T11:15:49.0000000+00:00</time></trkpt><trkpt lat="63.99025726" lon="-19.06032753"><ele>598.8</ele><time>2012-07-24T11:15:54.0000000+00:00</time></trkpt><trkpt lat="63.99025726" lon="-19.06032753"><ele>598.8</ele><time>2012-07-24T11:15:59.0000000+00:00</time></trkpt><trkpt lat="63.99025726" lon="-19.06032753"><ele>598.8</ele><time>2012-07-24T11:16:04.0000000+00:00</time></trkpt><trkpt lat="63.99025726" lon="-19.06032753"><ele>598.7</ele><time>2012-07-24T11:16:09.0000000+00:00</time></trkpt><trkpt lat="63.99025726" lon="-19.06032753"><ele>598.7</ele><time>2012-07-24T11:16:14.0000000+00:00</time></trkpt><trkpt lat="63.99025726" lon="-19.06032753"><ele>598.7</ele><time>2012-07-24T11:16:19.0000000+00:00</time></trkpt><trkpt lat="63.99025726" lon="-19.06032753"><ele>598.7</ele><time>2012-07-24T11:16:24.0000000+00:00</time></trkpt><trkpt lat="63.99025726" lon="-19.06032753"><ele>598.7</ele><time>2012-07-24T11:16:29.0000000+00:00</time></trkpt><trkpt lat="63.99025726" lon="-19.06032753"><ele>598.7</ele><time>2012-07-24T11:16:34.0000000+00:00</time></trkpt><trkpt lat="63.99025726" lon="-19.06032753"><ele>598.7</ele><time>2012-07-24T11:16:39.0000000+00:00</time></trkpt><trkpt lat="63.99025726" lon="-19.06032753"><ele>598.7</ele><time>2012-07-24T11:16:44.0000000+00:00</time></trkpt><trkpt lat="63.99025726" lon="-19.06032753"><ele>598.7</ele><time>2012-07-24T11:16:49.0000000+00:00</time></trkpt><trkpt lat="63.99023819" lon="-19.06033325"><ele>598.3</ele><time>2012-07-24T11:16:54.0000000+00:00</time></trkpt><trkpt lat="63.99021912" lon="-19.06032753"><ele>598.0</ele><time>2012-07-24T11:16:59.0000000+00:00</time></trkpt><trkpt lat="63.9902153" lon="-19.06032753"><ele>598.0</ele><time>2012-07-24T11:17:04.0000000+00:00</time></trkpt><trkpt lat="63.9902153" lon="-19.06032753"><ele>597.9</ele><time>2012-07-24T11:17:09.0000000+00:00</time></trkpt><trkpt lat="63.99020386" lon="-19.06033135"><ele>598.0</ele><time>2012-07-24T11:17:14.0000000+00:00</time></trkpt><trkpt lat="63.99020386" lon="-19.06033325"><ele>598.0</ele><time>2012-07-24T11:17:19.0000000+00:00</time></trkpt><trkpt lat="63.99014664" lon="-19.06035805"><ele>598.0</ele><time>2012-07-24T11:17:24.0000000+00:00</time></trkpt><trkpt lat="63.99013901" lon="-19.06035614"><ele>598.1</ele><time>2012-07-24T11:17:29.0000000+00:00</time></trkpt><trkpt lat="63.99013901" lon="-19.06035805"><ele>598.2</ele><time>2012-07-24T11:17:34.0000000+00:00</time></trkpt><trkpt lat="63.99013901" lon="-19.06035614"><ele>598.2</ele><time>2012-07-24T11:17:39.0000000+00:00</time></trkpt><trkpt lat="63.99013901" lon="-19.06035805"><ele>598.2</ele><time>2012-07-24T11:17:44.0000000+00:00</time></trkpt><trkpt lat="63.99010468" lon="-19.06036568"><ele>597.8</ele><time>2012-07-24T11:17:49.0000000+00:00</time></trkpt><trkpt lat="63.99007034" lon="-19.06036186"><ele>596.5</ele><time>2012-07-24T11:17:54.0000000+00:00</time></trkpt><trkpt lat="63.99007034" lon="-19.06036949"><ele>596.4</ele><time>2012-07-24T11:17:59.0000000+00:00</time></trkpt><trkpt lat="63.99007034" lon="-19.06036758"><ele>596.4</ele><time>2012-07-24T11:18:04.0000000+00:00</time></trkpt><trkpt lat="63.99007034" lon="-19.06036758"><ele>596.4</ele><time>2012-07-24T11:18:09.0000000+00:00</time></trkpt><trkpt lat="63.99007034" lon="-19.06036758"><ele>596.4</ele><time>2012-07-24T11:18:14.0000000+00:00</time></trkpt><trkpt lat="63.99007034" lon="-19.06036758"><ele>596.4</ele><time>2012-07-24T11:18:19.0000000+00:00</time></trkpt><trkpt lat="63.99007034" lon="-19.06036758"><ele>596.4</ele><time>2012-07-24T11:18:24.0000000+00:00</time></trkpt><trkpt lat="63.99007034" lon="-19.06036758"><ele>596.4</ele><time>2012-07-24T11:18:29.0000000+00:00</time></trkpt><trkpt lat="63.99007034" lon="-19.06036758"><ele>596.3</ele><time>2012-07-24T11:18:34.0000000+00:00</time></trkpt><trkpt lat="63.99007034" lon="-19.06036758"><ele>596.3</ele><time>2012-07-24T11:18:39.0000000+00:00</time></trkpt><trkpt lat="63.99007034" lon="-19.06036758"><ele>596.3</ele><time>2012-07-24T11:18:44.0000000+00:00</time></trkpt><trkpt lat="63.99007034" lon="-19.06036568"><ele>596.3</ele><time>2012-07-24T11:18:49.0000000+00:00</time></trkpt><trkpt lat="63.99007034" lon="-19.06036568"><ele>596.3</ele><time>2012-07-24T11:18:54.0000000+00:00</time></trkpt><trkpt lat="63.99007034" lon="-19.06036568"><ele>596.3</ele><time>2012-07-24T11:18:59.0000000+00:00</time></trkpt><trkpt lat="63.99007034" lon="-19.06036568"><ele>596.3</ele><time>2012-07-24T11:19:04.0000000+00:00</time></trkpt><trkpt lat="63.99007034" lon="-19.06036568"><ele>596.3</ele><time>2012-07-24T11:19:09.0000000+00:00</time></trkpt><trkpt lat="63.99007034" lon="-19.06036568"><ele>596.3</ele><time>2012-07-24T11:19:14.0000000+00:00</time></trkpt><trkpt lat="63.99007034" lon="-19.06036568"><ele>596.3</ele><time>2012-07-24T11:19:19.0000000+00:00</time></trkpt><trkpt lat="63.99007034" lon="-19.06036568"><ele>596.3</ele><time>2012-07-24T11:19:24.0000000+00:00</time></trkpt><trkpt lat="63.99007034" lon="-19.06036568"><ele>596.3</ele><time>2012-07-24T11:19:29.0000000+00:00</time></trkpt><trkpt lat="63.99007034" lon="-19.06036568"><ele>596.3</ele><time>2012-07-24T11:19:34.0000000+00:00</time></trkpt><trkpt lat="63.99007034" lon="-19.06036568"><ele>596.3</ele><time>2012-07-24T11:19:39.0000000+00:00</time></trkpt><trkpt lat="63.99007034" lon="-19.06036568"><ele>596.3</ele><time>2012-07-24T11:19:44.0000000+00:00</time></trkpt><trkpt lat="63.99007034" lon="-19.06036568"><ele>596.3</ele><time>2012-07-24T11:19:49.0000000+00:00</time></trkpt><trkpt lat="63.99007034" lon="-19.06036758"><ele>596.3</ele><time>2012-07-24T11:19:54.0000000+00:00</time></trkpt><trkpt lat="63.99007034" lon="-19.06036758"><ele>596.3</ele><time>2012-07-24T11:19:59.0000000+00:00</time></trkpt><trkpt lat="63.99007034" lon="-19.06036568"><ele>596.3</ele><time>2012-07-24T11:20:04.0000000+00:00</time></trkpt><trkpt lat="63.99007034" lon="-19.06036758"><ele>596.3</ele><time>2012-07-24T11:20:09.0000000+00:00</time></trkpt><trkpt lat="63.99007034" lon="-19.06036758"><ele>596.3</ele><time>2012-07-24T11:20:14.0000000+00:00</time></trkpt><trkpt lat="63.99007034" lon="-19.06036758"><ele>596.2</ele><time>2012-07-24T11:20:19.0000000+00:00</time></trkpt><trkpt lat="63.99007034" lon="-19.06036568"><ele>596.2</ele><time>2012-07-24T11:20:24.0000000+00:00</time></trkpt><trkpt lat="63.99007034" lon="-19.06036568"><ele>596.2</ele><time>2012-07-24T11:20:29.0000000+00:00</time></trkpt><trkpt lat="63.99007034" lon="-19.06036568"><ele>596.2</ele><time>2012-07-24T11:20:34.0000000+00:00</time></trkpt><trkpt lat="63.99007034" lon="-19.06036568"><ele>596.2</ele><time>2012-07-24T11:20:39.0000000+00:00</time></trkpt><trkpt lat="63.99007034" lon="-19.06036568"><ele>596.1</ele><time>2012-07-24T11:20:44.0000000+00:00</time></trkpt><trkpt lat="63.99007034" lon="-19.06036568"><ele>596.1</ele><time>2012-07-24T11:20:49.0000000+00:00</time></trkpt><trkpt lat="63.99007034" lon="-19.06036568"><ele>596.1</ele><time>2012-07-24T11:20:54.0000000+00:00</time></trkpt><trkpt lat="63.99007034" lon="-19.06036377"><ele>596.1</ele><time>2012-07-24T11:20:59.0000000+00:00</time></trkpt><trkpt lat="63.99007034" lon="-19.06036377"><ele>596.1</ele><time>2012-07-24T11:21:04.0000000+00:00</time></trkpt><trkpt lat="63.99007034" lon="-19.06036377"><ele>596.1</ele><time>2012-07-24T11:21:09.0000000+00:00</time></trkpt><trkpt lat="63.99007034" lon="-19.06036377"><ele>596.1</ele><time>2012-07-24T11:21:14.0000000+00:00</time></trkpt><trkpt lat="63.99007034" lon="-19.06036377"><ele>596.1</ele><time>2012-07-24T11:21:19.0000000+00:00</time></trkpt><trkpt lat="63.99006653" lon="-19.06036377"><ele>596.1</ele><time>2012-07-24T11:21:24.0000000+00:00</time></trkpt><trkpt lat="63.99006653" lon="-19.06036186"><ele>596.1</ele><time>2012-07-24T11:21:29.0000000+00:00</time></trkpt><trkpt lat="63.99006653" lon="-19.06035233"><ele>596.2</ele><time>2012-07-24T11:21:34.0000000+00:00</time></trkpt><trkpt lat="63.99005127" lon="-19.0603447"><ele>596.7</ele><time>2012-07-24T11:21:39.0000000+00:00</time></trkpt><trkpt lat="63.99005127" lon="-19.0603447"><ele>596.7</ele><time>2012-07-24T11:21:44.0000000+00:00</time></trkpt><trkpt lat="63.99005127" lon="-19.0603447"><ele>596.7</ele><time>2012-07-24T11:21:49.0000000+00:00</time></trkpt><trkpt lat="63.99005127" lon="-19.0603466"><ele>596.7</ele><time>2012-07-24T11:21:54.0000000+00:00</time></trkpt><trkpt lat="63.99004746" lon="-19.0603466"><ele>596.7</ele><time>2012-07-24T11:21:59.0000000+00:00</time></trkpt><trkpt lat="63.99004364" lon="-19.0603466"><ele>596.8</ele><time>2012-07-24T11:22:04.0000000+00:00</time></trkpt><trkpt lat="63.99003983" lon="-19.06031227"><ele>596.5</ele><time>2012-07-24T11:22:09.0000000+00:00</time></trkpt><trkpt lat="63.99004364" lon="-19.06031227"><ele>596.3</ele><time>2012-07-24T11:22:14.0000000+00:00</time></trkpt><trkpt lat="63.99004364" lon="-19.06031609"><ele>596.3</ele><time>2012-07-24T11:22:19.0000000+00:00</time></trkpt><trkpt lat="63.99003983" lon="-19.06031036"><ele>596.2</ele><time>2012-07-24T11:22:24.0000000+00:00</time></trkpt><trkpt lat="63.99003601" lon="-19.06027603"><ele>595.8</ele><time>2012-07-24T11:22:29.0000000+00:00</time></trkpt><trkpt lat="63.99009705" lon="-19.06019783"><ele>595.6</ele><time>2012-07-24T11:22:34.0000000+00:00</time></trkpt><trkpt lat="63.99017716" lon="-19.06025696"><ele>596.8</ele><time>2012-07-24T11:22:39.0000000+00:00</time></trkpt><trkpt lat="63.99026489" lon="-19.06033516"><ele>596.5</ele><time>2012-07-24T11:22:44.0000000+00:00</time></trkpt><trkpt lat="63.99027252" lon="-19.0603466"><ele>595.8</ele><time>2012-07-24T11:22:49.0000000+00:00</time></trkpt><trkpt lat="63.99027634" lon="-19.06035423"><ele>596.0</ele><time>2012-07-24T11:22:54.0000000+00:00</time></trkpt><trkpt lat="63.99027634" lon="-19.06035614"><ele>596.1</ele><time>2012-07-24T11:22:59.0000000+00:00</time></trkpt><trkpt lat="63.99027634" lon="-19.06035423"><ele>596.1</ele><time>2012-07-24T11:23:04.0000000+00:00</time></trkpt><trkpt lat="63.99027252" lon="-19.06035233"><ele>596.2</ele><time>2012-07-24T11:23:09.0000000+00:00</time></trkpt><trkpt lat="63.99027252" lon="-19.06035233"><ele>596.3</ele><time>2012-07-24T11:23:14.0000000+00:00</time></trkpt><trkpt lat="63.99027252" lon="-19.06035233"><ele>596.3</ele><time>2012-07-24T11:23:19.0000000+00:00</time></trkpt><trkpt lat="63.99027252" lon="-19.06035233"><ele>596.3</ele><time>2012-07-24T11:23:24.0000000+00:00</time></trkpt><trkpt lat="63.99027252" lon="-19.06035233"><ele>596.3</ele><time>2012-07-24T11:23:29.0000000+00:00</time></trkpt><trkpt lat="63.99027252" lon="-19.06035233"><ele>596.3</ele><time>2012-07-24T11:23:34.0000000+00:00</time></trkpt><trkpt lat="63.99027252" lon="-19.06035233"><ele>596.3</ele><time>2012-07-24T11:23:39.0000000+00:00</time></trkpt><trkpt lat="63.99027252" lon="-19.06035233"><ele>596.3</ele><time>2012-07-24T11:23:44.0000000+00:00</time></trkpt><trkpt lat="63.99027252" lon="-19.06035233"><ele>596.3</ele><time>2012-07-24T11:23:49.0000000+00:00</time></trkpt><trkpt lat="63.99027252" lon="-19.06035233"><ele>596.3</ele><time>2012-07-24T11:23:54.0000000+00:00</time></trkpt><trkpt lat="63.99027252" lon="-19.06035233"><ele>596.3</ele><time>2012-07-24T11:23:59.0000000+00:00</time></trkpt><trkpt lat="63.99027252" lon="-19.06035233"><ele>596.3</ele><time>2012-07-24T11:24:04.0000000+00:00</time></trkpt><trkpt lat="63.99027252" lon="-19.06035233"><ele>596.3</ele><time>2012-07-24T11:24:09.0000000+00:00</time></trkpt><trkpt lat="63.99027252" lon="-19.06035233"><ele>596.3</ele><time>2012-07-24T11:24:14.0000000+00:00</time></trkpt><trkpt lat="63.99027252" lon="-19.06035233"><ele>596.3</ele><time>2012-07-24T11:24:19.0000000+00:00</time></trkpt><trkpt lat="63.99027252" lon="-19.06035233"><ele>596.3</ele><time>2012-07-24T11:24:24.0000000+00:00</time></trkpt><trkpt lat="63.99027252" lon="-19.06035233"><ele>596.3</ele><time>2012-07-24T11:24:29.0000000+00:00</time></trkpt><trkpt lat="63.99027252" lon="-19.06035233"><ele>596.3</ele><time>2012-07-24T11:24:34.0000000+00:00</time></trkpt><trkpt lat="63.99027252" lon="-19.06035233"><ele>596.3</ele><time>2012-07-24T11:24:39.0000000+00:00</time></trkpt><trkpt lat="63.99027252" lon="-19.06035233"><ele>596.3</ele><time>2012-07-24T11:24:44.0000000+00:00</time></trkpt><trkpt lat="63.99027252" lon="-19.06035233"><ele>596.3</ele><time>2012-07-24T11:24:49.0000000+00:00</time></trkpt><trkpt lat="63.99027252" lon="-19.06035233"><ele>596.3</ele><time>2012-07-24T11:24:54.0000000+00:00</time></trkpt><trkpt lat="63.99027252" lon="-19.06035233"><ele>596.3</ele><time>2012-07-24T11:24:59.0000000+00:00</time></trkpt><trkpt lat="63.99027252" lon="-19.06035233"><ele>596.4</ele><time>2012-07-24T11:25:04.0000000+00:00</time></trkpt><trkpt lat="63.99027252" lon="-19.06035233"><ele>596.3</ele><time>2012-07-24T11:25:09.0000000+00:00</time></trkpt><trkpt lat="63.99027252" lon="-19.06035233"><ele>596.3</ele><time>2012-07-24T11:25:14.0000000+00:00</time></trkpt><trkpt lat="63.99027252" lon="-19.06035233"><ele>596.3</ele><time>2012-07-24T11:25:19.0000000+00:00</time></trkpt><trkpt lat="63.99027252" lon="-19.06035233"><ele>596.4</ele><time>2012-07-24T11:25:24.0000000+00:00</time></trkpt><trkpt lat="63.99027252" lon="-19.06035233"><ele>596.4</ele><time>2012-07-24T11:25:29.0000000+00:00</time></trkpt><trkpt lat="63.99027252" lon="-19.06035233"><ele>596.4</ele><time>2012-07-24T11:25:34.0000000+00:00</time></trkpt><trkpt lat="63.99027252" lon="-19.06035233"><ele>596.4</ele><time>2012-07-24T11:25:39.0000000+00:00</time></trkpt><trkpt lat="63.99027252" lon="-19.06035233"><ele>596.4</ele><time>2012-07-24T11:25:44.0000000+00:00</time></trkpt><trkpt lat="63.99027252" lon="-19.06035233"><ele>596.4</ele><time>2012-07-24T11:25:49.0000000+00:00</time></trkpt><trkpt lat="63.99027634" lon="-19.06035233"><ele>596.5</ele><time>2012-07-24T11:25:54.0000000+00:00</time></trkpt><trkpt lat="63.99027634" lon="-19.06035233"><ele>596.5</ele><time>2012-07-24T11:25:59.0000000+00:00</time></trkpt><trkpt lat="63.99027634" lon="-19.06035042"><ele>596.5</ele><time>2012-07-24T11:26:04.0000000+00:00</time></trkpt><trkpt lat="63.99027634" lon="-19.06035042"><ele>596.5</ele><time>2012-07-24T11:26:09.0000000+00:00</time></trkpt><trkpt lat="63.99027634" lon="-19.06035042"><ele>596.5</ele><time>2012-07-24T11:26:14.0000000+00:00</time></trkpt><trkpt lat="63.99027634" lon="-19.06035042"><ele>596.5</ele><time>2012-07-24T11:26:19.0000000+00:00</time></trkpt><trkpt lat="63.99027634" lon="-19.06035042"><ele>596.5</ele><time>2012-07-24T11:26:24.0000000+00:00</time></trkpt><trkpt lat="63.99027634" lon="-19.06035042"><ele>596.5</ele><time>2012-07-24T11:26:29.0000000+00:00</time></trkpt><trkpt lat="63.99027634" lon="-19.06035233"><ele>596.5</ele><time>2012-07-24T11:26:34.0000000+00:00</time></trkpt><trkpt lat="63.99027634" lon="-19.06035042"><ele>596.5</ele><time>2012-07-24T11:26:39.0000000+00:00</time></trkpt><trkpt lat="63.99027634" lon="-19.06035042"><ele>596.5</ele><time>2012-07-24T11:26:44.0000000+00:00</time></trkpt><trkpt lat="63.99027634" lon="-19.06035042"><ele>596.5</ele><time>2012-07-24T11:26:49.0000000+00:00</time></trkpt><trkpt lat="63.99027634" lon="-19.06034851"><ele>596.5</ele><time>2012-07-24T11:26:54.0000000+00:00</time></trkpt><trkpt lat="63.99027634" lon="-19.06034851"><ele>596.5</ele><time>2012-07-24T11:26:59.0000000+00:00</time></trkpt><trkpt lat="63.99027634" lon="-19.06034851"><ele>596.6</ele><time>2012-07-24T11:27:04.0000000+00:00</time></trkpt><trkpt lat="63.99027634" lon="-19.0603466"><ele>596.5</ele><time>2012-07-24T11:27:09.0000000+00:00</time></trkpt><trkpt lat="63.99028397" lon="-19.06033516"><ele>596.0</ele><time>2012-07-24T11:27:14.0000000+00:00</time></trkpt><trkpt lat="63.99034119" lon="-19.06030846"><ele>596.3</ele><time>2012-07-24T11:27:19.0000000+00:00</time></trkpt><trkpt lat="63.99040222" lon="-19.0603466"><ele>596.0</ele><time>2012-07-24T11:27:24.0000000+00:00</time></trkpt><trkpt lat="63.99044418" lon="-19.06042099"><ele>595.4</ele><time>2012-07-24T11:27:29.0000000+00:00</time></trkpt><trkpt lat="63.99048233" lon="-19.06046104"><ele>594.9</ele><time>2012-07-24T11:27:34.0000000+00:00</time></trkpt><trkpt lat="63.99052811" lon="-19.06051636"><ele>593.7</ele><time>2012-07-24T11:27:39.0000000+00:00</time></trkpt><trkpt lat="63.99050903" lon="-19.06061935"><ele>594.0</ele><time>2012-07-24T11:27:44.0000000+00:00</time></trkpt><trkpt lat="63.99055481" lon="-19.06068611"><ele>593.5</ele><time>2012-07-24T11:27:49.0000000+00:00</time></trkpt><trkpt lat="63.9905777" lon="-19.06071091"><ele>592.9</ele><time>2012-07-24T11:27:54.0000000+00:00</time></trkpt><trkpt lat="63.9905777" lon="-19.06071281"><ele>593.2</ele><time>2012-07-24T11:27:59.0000000+00:00</time></trkpt><trkpt lat="63.9905777" lon="-19.06072044"><ele>593.2</ele><time>2012-07-24T11:28:04.0000000+00:00</time></trkpt><trkpt lat="63.9905777" lon="-19.06072044"><ele>593.2</ele><time>2012-07-24T11:28:09.0000000+00:00</time></trkpt><trkpt lat="63.9905777" lon="-19.06072044"><ele>593.2</ele><time>2012-07-24T11:28:14.0000000+00:00</time></trkpt><trkpt lat="63.9905777" lon="-19.06072044"><ele>593.3</ele><time>2012-07-24T11:28:19.0000000+00:00</time></trkpt><trkpt lat="63.9905777" lon="-19.06072044"><ele>593.3</ele><time>2012-07-24T11:28:24.0000000+00:00</time></trkpt><trkpt lat="63.9905777" lon="-19.06072044"><ele>593.3</ele><time>2012-07-24T11:28:29.0000000+00:00</time></trkpt><trkpt lat="63.9905777" lon="-19.06072044"><ele>593.3</ele><time>2012-07-24T11:28:34.0000000+00:00</time></trkpt><trkpt lat="63.9905777" lon="-19.06072044"><ele>593.3</ele><time>2012-07-24T11:28:39.0000000+00:00</time></trkpt><trkpt lat="63.9905777" lon="-19.06072235"><ele>593.3</ele><time>2012-07-24T11:28:44.0000000+00:00</time></trkpt><trkpt lat="63.9905777" lon="-19.06072235"><ele>593.4</ele><time>2012-07-24T11:28:49.0000000+00:00</time></trkpt><trkpt lat="63.9905777" lon="-19.06072235"><ele>593.4</ele><time>2012-07-24T11:28:54.0000000+00:00</time></trkpt><trkpt lat="63.9905777" lon="-19.06072235"><ele>593.5</ele><time>2012-07-24T11:28:59.0000000+00:00</time></trkpt><trkpt lat="63.9905777" lon="-19.06072235"><ele>593.5</ele><time>2012-07-24T11:29:04.0000000+00:00</time></trkpt><trkpt lat="63.9905777" lon="-19.06072235"><ele>593.6</ele><time>2012-07-24T11:29:09.0000000+00:00</time></trkpt><trkpt lat="63.9905777" lon="-19.06072235"><ele>593.6</ele><time>2012-07-24T11:29:14.0000000+00:00</time></trkpt><trkpt lat="63.9905777" lon="-19.06072235"><ele>593.7</ele><time>2012-07-24T11:29:19.0000000+00:00</time></trkpt><trkpt lat="63.9905777" lon="-19.06072426"><ele>593.7</ele><time>2012-07-24T11:29:24.0000000+00:00</time></trkpt><trkpt lat="63.9905777" lon="-19.06072235"><ele>593.7</ele><time>2012-07-24T11:29:29.0000000+00:00</time></trkpt><trkpt lat="63.9905777" lon="-19.06072235"><ele>593.8</ele><time>2012-07-24T11:29:34.0000000+00:00</time></trkpt><trkpt lat="63.9905777" lon="-19.06072235"><ele>593.8</ele><time>2012-07-24T11:29:39.0000000+00:00</time></trkpt><trkpt lat="63.9905777" lon="-19.06072426"><ele>593.9</ele><time>2012-07-24T11:29:44.0000000+00:00</time></trkpt><trkpt lat="63.9905777" lon="-19.06072426"><ele>593.9</ele><time>2012-07-24T11:29:49.0000000+00:00</time></trkpt><trkpt lat="63.9905777" lon="-19.06072426"><ele>594.0</ele><time>2012-07-24T11:29:54.0000000+00:00</time></trkpt><trkpt lat="63.9905777" lon="-19.06072426"><ele>594.0</ele><time>2012-07-24T11:29:59.0000000+00:00</time></trkpt><trkpt lat="63.9905777" lon="-19.06072235"><ele>594.0</ele><time>2012-07-24T11:30:04.0000000+00:00</time></trkpt><trkpt lat="63.99058151" lon="-19.06072235"><ele>594.0</ele><time>2012-07-24T11:30:09.0000000+00:00</time></trkpt><trkpt lat="63.99058151" lon="-19.06072235"><ele>594.1</ele><time>2012-07-24T11:30:14.0000000+00:00</time></trkpt><trkpt lat="63.99058151" lon="-19.06072235"><ele>594.1</ele><time>2012-07-24T11:30:19.0000000+00:00</time></trkpt><trkpt lat="63.99058151" lon="-19.06072235"><ele>594.1</ele><time>2012-07-24T11:30:24.0000000+00:00</time></trkpt><trkpt lat="63.99058151" lon="-19.06072235"><ele>594.2</ele><time>2012-07-24T11:30:29.0000000+00:00</time></trkpt><trkpt lat="63.99058151" lon="-19.06072235"><ele>594.3</ele><time>2012-07-24T11:30:34.0000000+00:00</time></trkpt><trkpt lat="63.99058151" lon="-19.06072235"><ele>594.3</ele><time>2012-07-24T11:30:39.0000000+00:00</time></trkpt><trkpt lat="63.99058151" lon="-19.06072235"><ele>594.4</ele><time>2012-07-24T11:30:44.0000000+00:00</time></trkpt><trkpt lat="63.99059296" lon="-19.06071281"><ele>594.5</ele><time>2012-07-24T11:30:49.0000000+00:00</time></trkpt><trkpt lat="63.9906044" lon="-19.06069946"><ele>594.9</ele><time>2012-07-24T11:30:54.0000000+00:00</time></trkpt><trkpt lat="63.9906044" lon="-19.06069374"><ele>595.2</ele><time>2012-07-24T11:30:59.0000000+00:00</time></trkpt><trkpt lat="63.9906044" lon="-19.06069183"><ele>595.3</ele><time>2012-07-24T11:31:04.0000000+00:00</time></trkpt><trkpt lat="63.99062347" lon="-19.06067085"><ele>595.3</ele><time>2012-07-24T11:31:09.0000000+00:00</time></trkpt><trkpt lat="63.9906311" lon="-19.06067085"><ele>594.5</ele><time>2012-07-24T11:31:14.0000000+00:00</time></trkpt><trkpt lat="63.99062729" lon="-19.06067467"><ele>594.4</ele><time>2012-07-24T11:31:19.0000000+00:00</time></trkpt><trkpt lat="63.9906311" lon="-19.06067658"><ele>594.4</ele><time>2012-07-24T11:31:24.0000000+00:00</time></trkpt><trkpt lat="63.9906311" lon="-19.06067658"><ele>594.4</ele><time>2012-07-24T11:31:29.0000000+00:00</time></trkpt><trkpt lat="63.9906311" lon="-19.06067467"><ele>594.4</ele><time>2012-07-24T11:31:34.0000000+00:00</time></trkpt><trkpt lat="63.9906311" lon="-19.06067467"><ele>594.4</ele><time>2012-07-24T11:31:39.0000000+00:00</time></trkpt><trkpt lat="63.99067688" lon="-19.06052399"><ele>593.9</ele><time>2012-07-24T11:31:44.0000000+00:00</time></trkpt><trkpt lat="63.99080658" lon="-19.06046867"><ele>591.5</ele><time>2012-07-24T11:31:49.0000000+00:00</time></trkpt><trkpt lat="63.99092484" lon="-19.06037712"><ele>590.5</ele><time>2012-07-24T11:31:54.0000000+00:00</time></trkpt><trkpt lat="63.99103546" lon="-19.06024742"><ele>589.8</ele><time>2012-07-24T11:31:59.0000000+00:00</time></trkpt><trkpt lat="63.99115753" lon="-19.06007576"><ele>589.7</ele><time>2012-07-24T11:32:04.0000000+00:00</time></trkpt><trkpt lat="63.99129105" lon="-19.05991745"><ele>588.6</ele><time>2012-07-24T11:32:09.0000000+00:00</time></trkpt><trkpt lat="63.99143601" lon="-19.05976296"><ele>588.5</ele><time>2012-07-24T11:32:14.0000000+00:00</time></trkpt><trkpt lat="63.9915657" lon="-19.05960465"><ele>590.4</ele><time>2012-07-24T11:32:19.0000000+00:00</time></trkpt><trkpt lat="63.99169922" lon="-19.05944443"><ele>589.5</ele><time>2012-07-24T11:32:24.0000000+00:00</time></trkpt><trkpt lat="63.99182129" lon="-19.05931473"><ele>589.3</ele><time>2012-07-24T11:32:29.0000000+00:00</time></trkpt><trkpt lat="63.99196625" lon="-19.05925369"><ele>590.0</ele><time>2012-07-24T11:32:34.0000000+00:00</time></trkpt><trkpt lat="63.99211502" lon="-19.05931091"><ele>590.8</ele><time>2012-07-24T11:32:39.0000000+00:00</time></trkpt><trkpt lat="63.99226761" lon="-19.05941582"><ele>589.8</ele><time>2012-07-24T11:32:44.0000000+00:00</time></trkpt><trkpt lat="63.99240875" lon="-19.05953407"><ele>591.7</ele><time>2012-07-24T11:32:49.0000000+00:00</time></trkpt><trkpt lat="63.99256897" lon="-19.05967712"><ele>591.2</ele><time>2012-07-24T11:32:54.0000000+00:00</time></trkpt><trkpt lat="63.99272156" lon="-19.05983543"><ele>588.1</ele><time>2012-07-24T11:32:59.0000000+00:00</time></trkpt><trkpt lat="63.99287033" lon="-19.05999184"><ele>587.8</ele><time>2012-07-24T11:33:04.0000000+00:00</time></trkpt><trkpt lat="63.9930191" lon="-19.06009674"><ele>586.4</ele><time>2012-07-24T11:33:09.0000000+00:00</time></trkpt><trkpt lat="63.99315262" lon="-19.06024742"><ele>590.0</ele><time>2012-07-24T11:33:14.0000000+00:00</time></trkpt><trkpt lat="63.99326325" lon="-19.06043434"><ele>590.7</ele><time>2012-07-24T11:33:19.0000000+00:00</time></trkpt><trkpt lat="63.99331665" lon="-19.06048966"><ele>588.6</ele><time>2012-07-24T11:33:24.0000000+00:00</time></trkpt><trkpt lat="63.99331665" lon="-19.06050682"><ele>587.9</ele><time>2012-07-24T11:33:29.0000000+00:00</time></trkpt><trkpt lat="63.99333954" lon="-19.06051064"><ele>588.0</ele><time>2012-07-24T11:33:34.0000000+00:00</time></trkpt><trkpt lat="63.99338532" lon="-19.06054878"><ele>588.8</ele><time>2012-07-24T11:33:39.0000000+00:00</time></trkpt><trkpt lat="63.99343109" lon="-19.0606308"><ele>588.9</ele><time>2012-07-24T11:33:44.0000000+00:00</time></trkpt><trkpt lat="63.99346161" lon="-19.06070137"><ele>589.0</ele><time>2012-07-24T11:33:49.0000000+00:00</time></trkpt><trkpt lat="63.99348831" lon="-19.06076431"><ele>589.8</ele><time>2012-07-24T11:33:54.0000000+00:00</time></trkpt><trkpt lat="63.99352264" lon="-19.06076241"><ele>589.5</ele><time>2012-07-24T11:33:59.0000000+00:00</time></trkpt><trkpt lat="63.99354172" lon="-19.0607357"><ele>589.0</ele><time>2012-07-24T11:34:04.0000000+00:00</time></trkpt><trkpt lat="63.99358368" lon="-19.06071091"><ele>589.1</ele><time>2012-07-24T11:34:09.0000000+00:00</time></trkpt><trkpt lat="63.9936409" lon="-19.06069565"><ele>590.8</ele><time>2012-07-24T11:34:14.0000000+00:00</time></trkpt><trkpt lat="63.99369812" lon="-19.06065941"><ele>592.4</ele><time>2012-07-24T11:34:19.0000000+00:00</time></trkpt><trkpt lat="63.99374771" lon="-19.06064034"><ele>594.2</ele><time>2012-07-24T11:34:24.0000000+00:00</time></trkpt><trkpt lat="63.99379349" lon="-19.06065941"><ele>594.4</ele><time>2012-07-24T11:34:29.0000000+00:00</time></trkpt><trkpt lat="63.99384308" lon="-19.06069565"><ele>595.1</ele><time>2012-07-24T11:34:34.0000000+00:00</time></trkpt><trkpt lat="63.99389648" lon="-19.06071281"><ele>595.1</ele><time>2012-07-24T11:34:39.0000000+00:00</time></trkpt><trkpt lat="63.99394226" lon="-19.06075096"><ele>594.3</ele><time>2012-07-24T11:34:44.0000000+00:00</time></trkpt><trkpt lat="63.99399948" lon="-19.06078911"><ele>593.0</ele><time>2012-07-24T11:34:49.0000000+00:00</time></trkpt><trkpt lat="63.99404526" lon="-19.06080818"><ele>592.7</ele><time>2012-07-24T11:34:54.0000000+00:00</time></trkpt><trkpt lat="63.99410248" lon="-19.06083489"><ele>593.1</ele><time>2012-07-24T11:34:59.0000000+00:00</time></trkpt><trkpt lat="63.99416733" lon="-19.06085968"><ele>593.7</ele><time>2012-07-24T11:35:04.0000000+00:00</time></trkpt><trkpt lat="63.99422073" lon="-19.06088257"><ele>594.3</ele><time>2012-07-24T11:35:09.0000000+00:00</time></trkpt><trkpt lat="63.99423981" lon="-19.0608654"><ele>593.2</ele><time>2012-07-24T11:35:14.0000000+00:00</time></trkpt><trkpt lat="63.99425888" lon="-19.06087685"><ele>593.1</ele><time>2012-07-24T11:35:19.0000000+00:00</time></trkpt><trkpt lat="63.99432755" lon="-19.06092072"><ele>594.6</ele><time>2012-07-24T11:35:24.0000000+00:00</time></trkpt><trkpt lat="63.99438095" lon="-19.06095314"><ele>594.8</ele><time>2012-07-24T11:35:29.0000000+00:00</time></trkpt><trkpt lat="63.9944458" lon="-19.06093025"><ele>597.5</ele><time>2012-07-24T11:35:34.0000000+00:00</time></trkpt><trkpt lat="63.99446106" lon="-19.06084251"><ele>597.0</ele><time>2012-07-24T11:35:39.0000000+00:00</time></trkpt><trkpt lat="63.99451065" lon="-19.06077766"><ele>597.2</ele><time>2012-07-24T11:35:44.0000000+00:00</time></trkpt><trkpt lat="63.99456024" lon="-19.06076241"><ele>597.0</ele><time>2012-07-24T11:35:49.0000000+00:00</time></trkpt><trkpt lat="63.99460602" lon="-19.06074333"><ele>597.0</ele><time>2012-07-24T11:35:54.0000000+00:00</time></trkpt><trkpt lat="63.99462128" lon="-19.06067276"><ele>597.1</ele><time>2012-07-24T11:35:59.0000000+00:00</time></trkpt><trkpt lat="63.99464035" lon="-19.06062126"><ele>597.8</ele><time>2012-07-24T11:36:04.0000000+00:00</time></trkpt><trkpt lat="63.99464798" lon="-19.06056595"><ele>599.1</ele><time>2012-07-24T11:36:09.0000000+00:00</time></trkpt><trkpt lat="63.99467087" lon="-19.06050873"><ele>600.4</ele><time>2012-07-24T11:36:14.0000000+00:00</time></trkpt><trkpt lat="63.99468613" lon="-19.06043053"><ele>600.5</ele><time>2012-07-24T11:36:19.0000000+00:00</time></trkpt><trkpt lat="63.99468613" lon="-19.06041527"><ele>599.9</ele><time>2012-07-24T11:36:24.0000000+00:00</time></trkpt><trkpt lat="63.99466705" lon="-19.06032562"><ele>599.8</ele><time>2012-07-24T11:36:29.0000000+00:00</time></trkpt><trkpt lat="63.99462509" lon="-19.06025505"><ele>599.2</ele><time>2012-07-24T11:36:34.0000000+00:00</time></trkpt><trkpt lat="63.99459076" lon="-19.06019402"><ele>598.3</ele><time>2012-07-24T11:36:39.0000000+00:00</time></trkpt><trkpt lat="63.99459839" lon="-19.06013298"><ele>597.9</ele><time>2012-07-24T11:36:44.0000000+00:00</time></trkpt><trkpt lat="63.99462509" lon="-19.06011009"><ele>596.9</ele><time>2012-07-24T11:36:49.0000000+00:00</time></trkpt><trkpt lat="63.99465942" lon="-19.06004524"><ele>595.9</ele><time>2012-07-24T11:36:54.0000000+00:00</time></trkpt><trkpt lat="63.99465561" lon="-19.0600605"><ele>595.7</ele><time>2012-07-24T11:36:59.0000000+00:00</time></trkpt><trkpt lat="63.99465942" lon="-19.06006622"><ele>595.3</ele><time>2012-07-24T11:37:04.0000000+00:00</time></trkpt><trkpt lat="63.99465942" lon="-19.06007195"><ele>595.0</ele><time>2012-07-24T11:37:09.0000000+00:00</time></trkpt><trkpt lat="63.99466705" lon="-19.06005669"><ele>594.5</ele><time>2012-07-24T11:37:14.0000000+00:00</time></trkpt><trkpt lat="63.99466705" lon="-19.06003952"><ele>594.4</ele><time>2012-07-24T11:37:19.0000000+00:00</time></trkpt><trkpt lat="63.99467468" lon="-19.06001663"><ele>594.4</ele><time>2012-07-24T11:37:24.0000000+00:00</time></trkpt><trkpt lat="63.99468231" lon="-19.05999184"><ele>594.2</ele><time>2012-07-24T11:37:29.0000000+00:00</time></trkpt><trkpt lat="63.99468231" lon="-19.06000137"><ele>594.1</ele><time>2012-07-24T11:37:34.0000000+00:00</time></trkpt><trkpt lat="63.99468231" lon="-19.06000137"><ele>594.1</ele><time>2012-07-24T11:37:39.0000000+00:00</time></trkpt><trkpt lat="63.99468231" lon="-19.06000137"><ele>594.1</ele><time>2012-07-24T11:37:44.0000000+00:00</time></trkpt><trkpt lat="63.99468231" lon="-19.06000137"><ele>594.1</ele><time>2012-07-24T11:37:49.0000000+00:00</time></trkpt><trkpt lat="63.99468231" lon="-19.06000137"><ele>594.1</ele><time>2012-07-24T11:37:54.0000000+00:00</time></trkpt><trkpt lat="63.99468613" lon="-19.06000137"><ele>594.1</ele><time>2012-07-24T11:37:59.0000000+00:00</time></trkpt><trkpt lat="63.99468613" lon="-19.06000137"><ele>594.1</ele><time>2012-07-24T11:38:04.0000000+00:00</time></trkpt><trkpt lat="63.99468613" lon="-19.06000137"><ele>594.1</ele><time>2012-07-24T11:38:09.0000000+00:00</time></trkpt><trkpt lat="63.99468613" lon="-19.05999947"><ele>594.1</ele><time>2012-07-24T11:38:14.0000000+00:00</time></trkpt><trkpt lat="63.9947052" lon="-19.05996895"><ele>594.1</ele><time>2012-07-24T11:38:19.0000000+00:00</time></trkpt><trkpt lat="63.99476624" lon="-19.05992508"><ele>594.2</ele><time>2012-07-24T11:38:24.0000000+00:00</time></trkpt><trkpt lat="63.99484634" lon="-19.05984116"><ele>595.1</ele><time>2012-07-24T11:38:29.0000000+00:00</time></trkpt><trkpt lat="63.99496841" lon="-19.05980492"><ele>595.2</ele><time>2012-07-24T11:38:34.0000000+00:00</time></trkpt><trkpt lat="63.99509811" lon="-19.05973244"><ele>594.9</ele><time>2012-07-24T11:38:39.0000000+00:00</time></trkpt><trkpt lat="63.99522018" lon="-19.05961037"><ele>593.3</ele><time>2012-07-24T11:38:44.0000000+00:00</time></trkpt><trkpt lat="63.99534988" lon="-19.05955696"><ele>593.6</ele><time>2012-07-24T11:38:49.0000000+00:00</time></trkpt><trkpt lat="63.99546051" lon="-19.05942917"><ele>594.3</ele><time>2012-07-24T11:38:54.0000000+00:00</time></trkpt><trkpt lat="63.99555969" lon="-19.05934143"><ele>594.2</ele><time>2012-07-24T11:38:59.0000000+00:00</time></trkpt><trkpt lat="63.99567413" lon="-19.05918312"><ele>595.5</ele><time>2012-07-24T11:39:04.0000000+00:00</time></trkpt><trkpt lat="63.99578095" lon="-19.05898666"><ele>595.6</ele><time>2012-07-24T11:39:09.0000000+00:00</time></trkpt><trkpt lat="63.99587631" lon="-19.0587883"><ele>598.0</ele><time>2012-07-24T11:39:14.0000000+00:00</time></trkpt><trkpt lat="63.99595642" lon="-19.05858612"><ele>600.0</ele><time>2012-07-24T11:39:19.0000000+00:00</time></trkpt><trkpt lat="63.99604416" lon="-19.05832291"><ele>600.5</ele><time>2012-07-24T11:39:24.0000000+00:00</time></trkpt><trkpt lat="63.99614334" lon="-19.05811119"><ele>600.4</ele><time>2012-07-24T11:39:29.0000000+00:00</time></trkpt><trkpt lat="63.99623871" lon="-19.05785751"><ele>601.0</ele><time>2012-07-24T11:39:34.0000000+00:00</time></trkpt><trkpt lat="63.99633408" lon="-19.05760956"><ele>603.3</ele><time>2012-07-24T11:39:39.0000000+00:00</time></trkpt><trkpt lat="63.99644852" lon="-19.05739784"><ele>603.8</ele><time>2012-07-24T11:39:44.0000000+00:00</time></trkpt><trkpt lat="63.99652863" lon="-19.05718613"><ele>603.5</ele><time>2012-07-24T11:39:49.0000000+00:00</time></trkpt><trkpt lat="63.99661255" lon="-19.05695534"><ele>603.3</ele><time>2012-07-24T11:39:54.0000000+00:00</time></trkpt><trkpt lat="63.99668503" lon="-19.05673027"><ele>602.4</ele><time>2012-07-24T11:39:59.0000000+00:00</time></trkpt><trkpt lat="63.99675751" lon="-19.05648041"><ele>602.9</ele><time>2012-07-24T11:40:04.0000000+00:00</time></trkpt><trkpt lat="63.99684143" lon="-19.05622864"><ele>603.2</ele><time>2012-07-24T11:40:09.0000000+00:00</time></trkpt><trkpt lat="63.99692535" lon="-19.05600739"><ele>603.4</ele><time>2012-07-24T11:40:14.0000000+00:00</time></trkpt><trkpt lat="63.99699783" lon="-19.05582428"><ele>601.4</ele><time>2012-07-24T11:40:19.0000000+00:00</time></trkpt><trkpt lat="63.99705887" lon="-19.05552673"><ele>601.5</ele><time>2012-07-24T11:40:24.0000000+00:00</time></trkpt><trkpt lat="63.99710846" lon="-19.05534363"><ele>593.6</ele><time>2012-07-24T11:40:29.0000000+00:00</time></trkpt><trkpt lat="63.99718094" lon="-19.05505943"><ele>593.5</ele><time>2012-07-24T11:40:34.0000000+00:00</time></trkpt><trkpt lat="63.99724197" lon="-19.05475998"><ele>594.2</ele><time>2012-07-24T11:40:39.0000000+00:00</time></trkpt><trkpt lat="63.99731064" lon="-19.05443382"><ele>594.4</ele><time>2012-07-24T11:40:44.0000000+00:00</time></trkpt><trkpt lat="63.99737167" lon="-19.05411148"><ele>594.4</ele><time>2012-07-24T11:40:49.0000000+00:00</time></trkpt><trkpt lat="63.99743652" lon="-19.05380821"><ele>594.0</ele><time>2012-07-24T11:40:54.0000000+00:00</time></trkpt><trkpt lat="63.99753189" lon="-19.05352211"><ele>595.3</ele><time>2012-07-24T11:40:59.0000000+00:00</time></trkpt><trkpt lat="63.997612" lon="-19.05322075"><ele>594.0</ele><time>2012-07-24T11:41:04.0000000+00:00</time></trkpt><trkpt lat="63.99766159" lon="-19.05293465"><ele>593.8</ele><time>2012-07-24T11:41:09.0000000+00:00</time></trkpt><trkpt lat="63.9977417" lon="-19.05262184"><ele>592.6</ele><time>2012-07-24T11:41:14.0000000+00:00</time></trkpt><trkpt lat="63.99784851" lon="-19.05217934"><ele>591.6</ele><time>2012-07-24T11:41:19.0000000+00:00</time></trkpt><trkpt lat="63.9979744" lon="-19.05170441"><ele>592.6</ele><time>2012-07-24T11:41:24.0000000+00:00</time></trkpt><trkpt lat="63.99814987" lon="-19.05137825"><ele>592.4</ele><time>2012-07-24T11:41:29.0000000+00:00</time></trkpt><trkpt lat="63.99832535" lon="-19.05117035"><ele>591.7</ele><time>2012-07-24T11:41:34.0000000+00:00</time></trkpt><trkpt lat="63.99845123" lon="-19.05109215"><ele>591.8</ele><time>2012-07-24T11:41:39.0000000+00:00</time></trkpt><trkpt lat="63.99856186" lon="-19.05100441"><ele>592.8</ele><time>2012-07-24T11:41:44.0000000+00:00</time></trkpt><trkpt lat="63.99863815" lon="-19.05091095"><ele>593.2</ele><time>2012-07-24T11:41:49.0000000+00:00</time></trkpt><trkpt lat="63.99874497" lon="-19.05085754"><ele>595.4</ele><time>2012-07-24T11:41:54.0000000+00:00</time></trkpt><trkpt lat="63.99882126" lon="-19.05091667"><ele>590.1</ele><time>2012-07-24T11:41:59.0000000+00:00</time></trkpt><trkpt lat="63.99889374" lon="-19.05096054"><ele>589.8</ele><time>2012-07-24T11:42:04.0000000+00:00</time></trkpt><trkpt lat="63.99897003" lon="-19.05105019"><ele>590.7</ele><time>2012-07-24T11:42:09.0000000+00:00</time></trkpt><trkpt lat="63.9990654" lon="-19.05111122"><ele>591.7</ele><time>2012-07-24T11:42:14.0000000+00:00</time></trkpt><trkpt lat="63.99916458" lon="-19.05115318"><ele>594.4</ele><time>2012-07-24T11:42:19.0000000+00:00</time></trkpt><trkpt lat="63.99926376" lon="-19.05121422"><ele>596.5</ele><time>2012-07-24T11:42:24.0000000+00:00</time></trkpt><trkpt lat="63.99937058" lon="-19.05119133"><ele>597.9</ele><time>2012-07-24T11:42:29.0000000+00:00</time></trkpt><trkpt lat="63.99948502" lon="-19.05114174"><ele>600.6</ele><time>2012-07-24T11:42:34.0000000+00:00</time></trkpt><trkpt lat="63.99959946" lon="-19.05105972"><ele>600.5</ele><time>2012-07-24T11:42:39.0000000+00:00</time></trkpt><trkpt lat="63.99972534" lon="-19.05101776"><ele>600.1</ele><time>2012-07-24T11:42:44.0000000+00:00</time></trkpt><trkpt lat="63.99982834" lon="-19.05094528"><ele>601.5</ele><time>2012-07-24T11:42:49.0000000+00:00</time></trkpt><trkpt lat="63.99995041" lon="-19.05088043"><ele>602.7</ele><time>2012-07-24T11:42:54.0000000+00:00</time></trkpt><trkpt lat="64.00006867" lon="-19.05078697"><ele>604.1</ele><time>2012-07-24T11:42:59.0000000+00:00</time></trkpt><trkpt lat="64.00019074" lon="-19.05071831"><ele>603.7</ele><time>2012-07-24T11:43:04.0000000+00:00</time></trkpt><trkpt lat="64.00031281" lon="-19.05060768"><ele>603.5</ele><time>2012-07-24T11:43:09.0000000+00:00</time></trkpt><trkpt lat="64.00043488" lon="-19.05048943"><ele>602.6</ele><time>2012-07-24T11:43:14.0000000+00:00</time></trkpt><trkpt lat="64.00056458" lon="-19.05036736"><ele>603.0</ele><time>2012-07-24T11:43:19.0000000+00:00</time></trkpt><trkpt lat="64.00067902" lon="-19.05022049"><ele>602.6</ele><time>2012-07-24T11:43:24.0000000+00:00</time></trkpt><trkpt lat="64.00078583" lon="-19.0500412"><ele>602.7</ele><time>2012-07-24T11:43:29.0000000+00:00</time></trkpt><trkpt lat="64.00092316" lon="-19.04987335"><ele>601.2</ele><time>2012-07-24T11:43:34.0000000+00:00</time></trkpt><trkpt lat="64.00104523" lon="-19.04970169"><ele>600.1</ele><time>2012-07-24T11:43:39.0000000+00:00</time></trkpt><trkpt lat="64.0011673" lon="-19.04946137"><ele>600.3</ele><time>2012-07-24T11:43:44.0000000+00:00</time></trkpt><trkpt lat="64.00125885" lon="-19.04918861"><ele>601.9</ele><time>2012-07-24T11:43:49.0000000+00:00</time></trkpt><trkpt lat="64.00133514" lon="-19.04882622"><ele>602.3</ele><time>2012-07-24T11:43:54.0000000+00:00</time></trkpt><trkpt lat="64.00140381" lon="-19.04850578"><ele>602.3</ele><time>2012-07-24T11:43:59.0000000+00:00</time></trkpt><trkpt lat="64.0014801" lon="-19.048172"><ele>602.3</ele><time>2012-07-24T11:44:04.0000000+00:00</time></trkpt><trkpt lat="64.00154877" lon="-19.04774857"><ele>601.4</ele><time>2012-07-24T11:44:09.0000000+00:00</time></trkpt><trkpt lat="64.00164032" lon="-19.04727554"><ele>600.0</ele><time>2012-07-24T11:44:14.0000000+00:00</time></trkpt><trkpt lat="64.00173187" lon="-19.04675674"><ele>598.9</ele><time>2012-07-24T11:44:19.0000000+00:00</time></trkpt><trkpt lat="64.00182343" lon="-19.04619789"><ele>597.3</ele><time>2012-07-24T11:44:24.0000000+00:00</time></trkpt><trkpt lat="64.00190735" lon="-19.04567909"><ele>597.1</ele><time>2012-07-24T11:44:29.0000000+00:00</time></trkpt><trkpt lat="64.00198364" lon="-19.0452652"><ele>597.1</ele><time>2012-07-24T11:44:34.0000000+00:00</time></trkpt><trkpt lat="64.00204468" lon="-19.04489327"><ele>596.9</ele><time>2012-07-24T11:44:39.0000000+00:00</time></trkpt><trkpt lat="64.00210571" lon="-19.04452133"><ele>595.6</ele><time>2012-07-24T11:44:44.0000000+00:00</time></trkpt><trkpt lat="64.00218964" lon="-19.04388619"><ele>592.9</ele><time>2012-07-24T11:44:49.0000000+00:00</time></trkpt><trkpt lat="64.00225067" lon="-19.04313469"><ele>590.2</ele><time>2012-07-24T11:44:54.0000000+00:00</time></trkpt><trkpt lat="64.00231171" lon="-19.04255676"><ele>589.1</ele><time>2012-07-24T11:44:59.0000000+00:00</time></trkpt><trkpt lat="64.00244904" lon="-19.04209709"><ele>589.2</ele><time>2012-07-24T11:45:04.0000000+00:00</time></trkpt><trkpt lat="64.00257111" lon="-19.04172707"><ele>590.0</ele><time>2012-07-24T11:45:09.0000000+00:00</time></trkpt><trkpt lat="64.00270081" lon="-19.04137039"><ele>589.5</ele><time>2012-07-24T11:45:14.0000000+00:00</time></trkpt><trkpt lat="64.00283814" lon="-19.04102516"><ele>589.9</ele><time>2012-07-24T11:45:19.0000000+00:00</time></trkpt><trkpt lat="64.00294495" lon="-19.04071045"><ele>589.4</ele><time>2012-07-24T11:45:24.0000000+00:00</time></trkpt><trkpt lat="64.00305176" lon="-19.0403862"><ele>589.7</ele><time>2012-07-24T11:45:29.0000000+00:00</time></trkpt><trkpt lat="64.00315857" lon="-19.04003334"><ele>589.1</ele><time>2012-07-24T11:45:34.0000000+00:00</time></trkpt><trkpt lat="64.00328064" lon="-19.039711"><ele>589.1</ele><time>2012-07-24T11:45:39.0000000+00:00</time></trkpt><trkpt lat="64.00335693" lon="-19.03949356"><ele>589.9</ele><time>2012-07-24T11:45:44.0000000+00:00</time></trkpt><trkpt lat="64.00341797" lon="-19.03930092"><ele>589.7</ele><time>2012-07-24T11:45:49.0000000+00:00</time></trkpt><trkpt lat="64.00352478" lon="-19.03905106"><ele>589.7</ele><time>2012-07-24T11:45:54.0000000+00:00</time></trkpt><trkpt lat="64.00363922" lon="-19.03879166"><ele>589.6</ele><time>2012-07-24T11:45:59.0000000+00:00</time></trkpt><trkpt lat="64.00375366" lon="-19.03853035"><ele>589.1</ele><time>2012-07-24T11:46:04.0000000+00:00</time></trkpt><trkpt lat="64.00388336" lon="-19.0382843"><ele>588.8</ele><time>2012-07-24T11:46:09.0000000+00:00</time></trkpt><trkpt lat="64.00400543" lon="-19.0380249"><ele>589.0</ele><time>2012-07-24T11:46:14.0000000+00:00</time></trkpt><trkpt lat="64.00411987" lon="-19.03774643"><ele>589.3</ele><time>2012-07-24T11:46:19.0000000+00:00</time></trkpt><trkpt lat="64.00424957" lon="-19.03746223"><ele>588.7</ele><time>2012-07-24T11:46:24.0000000+00:00</time></trkpt><trkpt lat="64.00437164" lon="-19.03717041"><ele>588.8</ele><time>2012-07-24T11:46:29.0000000+00:00</time></trkpt><trkpt lat="64.00449371" lon="-19.03688812"><ele>588.5</ele><time>2012-07-24T11:46:34.0000000+00:00</time></trkpt><trkpt lat="64.00457764" lon="-19.03661919"><ele>588.4</ele><time>2012-07-24T11:46:39.0000000+00:00</time></trkpt><trkpt lat="64.00466919" lon="-19.0364151"><ele>588.5</ele><time>2012-07-24T11:46:44.0000000+00:00</time></trkpt><trkpt lat="64.00471497" lon="-19.03632355"><ele>588.4</ele><time>2012-07-24T11:46:49.0000000+00:00</time></trkpt><trkpt lat="64.00471497" lon="-19.03632355"><ele>588.2</ele><time>2012-07-24T11:46:54.0000000+00:00</time></trkpt><trkpt lat="64.00471497" lon="-19.03632355"><ele>588.2</ele><time>2012-07-24T11:46:59.0000000+00:00</time></trkpt><trkpt lat="64.00471497" lon="-19.03632355"><ele>588.1</ele><time>2012-07-24T11:47:04.0000000+00:00</time></trkpt><trkpt lat="64.00471497" lon="-19.03632164"><ele>588.1</ele><time>2012-07-24T11:47:09.0000000+00:00</time></trkpt><trkpt lat="64.00471497" lon="-19.03632355"><ele>588.1</ele><time>2012-07-24T11:47:14.0000000+00:00</time></trkpt><trkpt lat="64.00471497" lon="-19.03632355"><ele>588.1</ele><time>2012-07-24T11:47:19.0000000+00:00</time></trkpt><trkpt lat="64.0047226" lon="-19.03631783"><ele>588.0</ele><time>2012-07-24T11:47:24.0000000+00:00</time></trkpt><trkpt lat="64.0047226" lon="-19.03631783"><ele>588.0</ele><time>2012-07-24T11:47:29.0000000+00:00</time></trkpt><trkpt lat="64.0047226" lon="-19.03631783"><ele>588.0</ele><time>2012-07-24T11:47:34.0000000+00:00</time></trkpt><trkpt lat="64.0047226" lon="-19.03631783"><ele>588.0</ele><time>2012-07-24T11:47:39.0000000+00:00</time></trkpt><trkpt lat="64.0047226" lon="-19.03631783"><ele>588.0</ele><time>2012-07-24T11:47:44.0000000+00:00</time></trkpt><trkpt lat="64.0047226" lon="-19.03631783"><ele>587.9</ele><time>2012-07-24T11:47:49.0000000+00:00</time></trkpt><trkpt lat="64.0047226" lon="-19.03631783"><ele>588.0</ele><time>2012-07-24T11:47:54.0000000+00:00</time></trkpt><trkpt lat="64.00476074" lon="-19.03619766"><ele>589.1</ele><time>2012-07-24T11:47:59.0000000+00:00</time></trkpt><trkpt lat="64.004776" lon="-19.03598023"><ele>588.7</ele><time>2012-07-24T11:48:04.0000000+00:00</time></trkpt><trkpt lat="64.00476837" lon="-19.03580475"><ele>587.9</ele><time>2012-07-24T11:48:09.0000000+00:00</time></trkpt><trkpt lat="64.00474548" lon="-19.03563881"><ele>586.9</ele><time>2012-07-24T11:48:14.0000000+00:00</time></trkpt><trkpt lat="64.00470734" lon="-19.03537941"><ele>586.8</ele><time>2012-07-24T11:48:19.0000000+00:00</time></trkpt><trkpt lat="64.00465393" lon="-19.03508568"><ele>586.3</ele><time>2012-07-24T11:48:24.0000000+00:00</time></trkpt><trkpt lat="64.00462341" lon="-19.03477287"><ele>585.3</ele><time>2012-07-24T11:48:29.0000000+00:00</time></trkpt><trkpt lat="64.00460815" lon="-19.03444672"><ele>585.0</ele><time>2012-07-24T11:48:34.0000000+00:00</time></trkpt><trkpt lat="64.00458527" lon="-19.03412247"><ele>585.4</ele><time>2012-07-24T11:48:39.0000000+00:00</time></trkpt><trkpt lat="64.00456238" lon="-19.03379822"><ele>584.4</ele><time>2012-07-24T11:48:44.0000000+00:00</time></trkpt><trkpt lat="64.00453186" lon="-19.03350067"><ele>584.3</ele><time>2012-07-24T11:48:49.0000000+00:00</time></trkpt><trkpt lat="64.00448608" lon="-19.03314972"><ele>584.4</ele><time>2012-07-24T11:48:54.0000000+00:00</time></trkpt><trkpt lat="64.00444794" lon="-19.03278351"><ele>584.7</ele><time>2012-07-24T11:48:59.0000000+00:00</time></trkpt><trkpt lat="64.00439453" lon="-19.03241539"><ele>585.6</ele><time>2012-07-24T11:49:04.0000000+00:00</time></trkpt><trkpt lat="64.00437164" lon="-19.03205109"><ele>585.6</ele><time>2012-07-24T11:49:09.0000000+00:00</time></trkpt><trkpt lat="64.00434113" lon="-19.03168678"><ele>585.4</ele><time>2012-07-24T11:49:14.0000000+00:00</time></trkpt><trkpt lat="64.00426483" lon="-19.03136635"><ele>585.1</ele><time>2012-07-24T11:49:19.0000000+00:00</time></trkpt><trkpt lat="64.00418854" lon="-19.03104782"><ele>585.5</ele><time>2012-07-24T11:49:24.0000000+00:00</time></trkpt><trkpt lat="64.00409699" lon="-19.03071785"><ele>585.5</ele><time>2012-07-24T11:49:29.0000000+00:00</time></trkpt><trkpt lat="64.00405884" lon="-19.03045654"><ele>585.7</ele><time>2012-07-24T11:49:34.0000000+00:00</time></trkpt><trkpt lat="64.00405121" lon="-19.03013992"><ele>584.6</ele><time>2012-07-24T11:49:39.0000000+00:00</time></trkpt><trkpt lat="64.00403595" lon="-19.0297699"><ele>584.7</ele><time>2012-07-24T11:49:44.0000000+00:00</time></trkpt><trkpt lat="64.00396729" lon="-19.02947617"><ele>584.7</ele><time>2012-07-24T11:49:49.0000000+00:00</time></trkpt><trkpt lat="64.00391388" lon="-19.0292511"><ele>584.4</ele><time>2012-07-24T11:49:54.0000000+00:00</time></trkpt><trkpt lat="64.00385284" lon="-19.02913094"><ele>584.3</ele><time>2012-07-24T11:49:59.0000000+00:00</time></trkpt><trkpt lat="64.00377655" lon="-19.02890587"><ele>583.4</ele><time>2012-07-24T11:50:04.0000000+00:00</time></trkpt><trkpt lat="64.00374603" lon="-19.02861404"><ele>583.0</ele><time>2012-07-24T11:50:09.0000000+00:00</time></trkpt><trkpt lat="64.00370789" lon="-19.02829933"><ele>583.4</ele><time>2012-07-24T11:50:14.0000000+00:00</time></trkpt><trkpt lat="64.00369263" lon="-19.0280323"><ele>583.6</ele><time>2012-07-24T11:50:19.0000000+00:00</time></trkpt><trkpt lat="64.003685" lon="-19.02774811"><ele>583.6</ele><time>2012-07-24T11:50:24.0000000+00:00</time></trkpt><trkpt lat="64.00367737" lon="-19.0274353"><ele>583.7</ele><time>2012-07-24T11:50:29.0000000+00:00</time></trkpt><trkpt lat="64.00367737" lon="-19.02712631"><ele>584.3</ele><time>2012-07-24T11:50:34.0000000+00:00</time></trkpt><trkpt lat="64.003685" lon="-19.02675247"><ele>584.6</ele><time>2012-07-24T11:50:39.0000000+00:00</time></trkpt><trkpt lat="64.003685" lon="-19.02638626"><ele>584.1</ele><time>2012-07-24T11:50:44.0000000+00:00</time></trkpt><trkpt lat="64.00366211" lon="-19.02606392"><ele>584.3</ele><time>2012-07-24T11:50:49.0000000+00:00</time></trkpt><trkpt lat="64.00366974" lon="-19.02575111"><ele>584.9</ele><time>2012-07-24T11:50:54.0000000+00:00</time></trkpt><trkpt lat="64.003685" lon="-19.0253849"><ele>585.1</ele><time>2012-07-24T11:50:59.0000000+00:00</time></trkpt><trkpt lat="64.00370026" lon="-19.02503777"><ele>585.2</ele><time>2012-07-24T11:51:04.0000000+00:00</time></trkpt><trkpt lat="64.0037384" lon="-19.02473068"><ele>585.8</ele><time>2012-07-24T11:51:09.0000000+00:00</time></trkpt><trkpt lat="64.00377655" lon="-19.02443886"><ele>585.8</ele><time>2012-07-24T11:51:14.0000000+00:00</time></trkpt><trkpt lat="64.0038147" lon="-19.02415466"><ele>586.4</ele><time>2012-07-24T11:51:19.0000000+00:00</time></trkpt><trkpt lat="64.00387573" lon="-19.02382469"><ele>586.4</ele><time>2012-07-24T11:51:24.0000000+00:00</time></trkpt><trkpt lat="64.00392151" lon="-19.02346802"><ele>586.0</ele><time>2012-07-24T11:51:29.0000000+00:00</time></trkpt><trkpt lat="64.00395203" lon="-19.02305222"><ele>586.0</ele><time>2012-07-24T11:51:34.0000000+00:00</time></trkpt><trkpt lat="64.00398254" lon="-19.02266121"><ele>586.0</ele><time>2012-07-24T11:51:39.0000000+00:00</time></trkpt><trkpt lat="64.00402069" lon="-19.02237701"><ele>585.4</ele><time>2012-07-24T11:51:44.0000000+00:00</time></trkpt><trkpt lat="64.00401306" lon="-19.02222252"><ele>585.3</ele><time>2012-07-24T11:51:49.0000000+00:00</time></trkpt><trkpt lat="64.00399017" lon="-19.02200317"><ele>585.1</ele><time>2012-07-24T11:51:54.0000000+00:00</time></trkpt><trkpt lat="64.00398254" lon="-19.02174377"><ele>585.0</ele><time>2012-07-24T11:51:59.0000000+00:00</time></trkpt><trkpt lat="64.00402832" lon="-19.02147102"><ele>585.0</ele><time>2012-07-24T11:52:04.0000000+00:00</time></trkpt><trkpt lat="64.0041275" lon="-19.02123261"><ele>585.3</ele><time>2012-07-24T11:52:09.0000000+00:00</time></trkpt><trkpt lat="64.00421906" lon="-19.0209446"><ele>585.5</ele><time>2012-07-24T11:52:14.0000000+00:00</time></trkpt><trkpt lat="64.00432587" lon="-19.02069664"><ele>585.7</ele><time>2012-07-24T11:52:19.0000000+00:00</time></trkpt><trkpt lat="64.00437927" lon="-19.02046776"><ele>585.8</ele><time>2012-07-24T11:52:24.0000000+00:00</time></trkpt><trkpt lat="64.00445557" lon="-19.02018166"><ele>586.0</ele><time>2012-07-24T11:52:29.0000000+00:00</time></trkpt><trkpt lat="64.00449371" lon="-19.01983261"><ele>586.1</ele><time>2012-07-24T11:52:34.0000000+00:00</time></trkpt><trkpt lat="64.00453949" lon="-19.01941109"><ele>585.6</ele><time>2012-07-24T11:52:39.0000000+00:00</time></trkpt><trkpt lat="64.00458527" lon="-19.01896668"><ele>585.3</ele><time>2012-07-24T11:52:44.0000000+00:00</time></trkpt><trkpt lat="64.00457001" lon="-19.01854706"><ele>584.4</ele><time>2012-07-24T11:52:49.0000000+00:00</time></trkpt><trkpt lat="64.00461578" lon="-19.01813126"><ele>584.9</ele><time>2012-07-24T11:52:54.0000000+00:00</time></trkpt><trkpt lat="64.00474548" lon="-19.0178051"><ele>584.9</ele><time>2012-07-24T11:52:59.0000000+00:00</time></trkpt><trkpt lat="64.00484467" lon="-19.01762772"><ele>584.7</ele><time>2012-07-24T11:53:04.0000000+00:00</time></trkpt><trkpt lat="64.0049057" lon="-19.01748276"><ele>583.9</ele><time>2012-07-24T11:53:09.0000000+00:00</time></trkpt><trkpt lat="64.00502777" lon="-19.01730347"><ele>584.7</ele><time>2012-07-24T11:53:14.0000000+00:00</time></trkpt><trkpt lat="64.00513458" lon="-19.01704979"><ele>585.2</ele><time>2012-07-24T11:53:19.0000000+00:00</time></trkpt><trkpt lat="64.00522614" lon="-19.01680183"><ele>585.3</ele><time>2012-07-24T11:53:24.0000000+00:00</time></trkpt><trkpt lat="64.00528717" lon="-19.01648521"><ele>585.2</ele><time>2012-07-24T11:53:29.0000000+00:00</time></trkpt><trkpt lat="64.00530243" lon="-19.01613045"><ele>584.6</ele><time>2012-07-24T11:53:34.0000000+00:00</time></trkpt><trkpt lat="64.00526428" lon="-19.01573563"><ele>584.1</ele><time>2012-07-24T11:53:39.0000000+00:00</time></trkpt><trkpt lat="64.00521851" lon="-19.0153389"><ele>582.8</ele><time>2012-07-24T11:53:44.0000000+00:00</time></trkpt><trkpt lat="64.00520325" lon="-19.01494217"><ele>582.0</ele><time>2012-07-24T11:53:49.0000000+00:00</time></trkpt><trkpt lat="64.00525665" lon="-19.01457596"><ele>582.9</ele><time>2012-07-24T11:53:54.0000000+00:00</time></trkpt><trkpt lat="64.00537872" lon="-19.01425743"><ele>583.9</ele><time>2012-07-24T11:53:59.0000000+00:00</time></trkpt><trkpt lat="64.00547028" lon="-19.01396561"><ele>584.3</ele><time>2012-07-24T11:54:04.0000000+00:00</time></trkpt><trkpt lat="64.00557709" lon="-19.01367569"><ele>585.2</ele><time>2012-07-24T11:54:09.0000000+00:00</time></trkpt><trkpt lat="64.00572968" lon="-19.01357269"><ele>584.8</ele><time>2012-07-24T11:54:14.0000000+00:00</time></trkpt><trkpt lat="64.00589752" lon="-19.01360512"><ele>585.6</ele><time>2012-07-24T11:54:19.0000000+00:00</time></trkpt><trkpt lat="64.006073" lon="-19.01368523"><ele>585.4</ele><time>2012-07-24T11:54:24.0000000+00:00</time></trkpt><trkpt lat="64.00622559" lon="-19.01376534"><ele>585.2</ele><time>2012-07-24T11:54:29.0000000+00:00</time></trkpt><trkpt lat="64.00639343" lon="-19.01379776"><ele>584.9</ele><time>2012-07-24T11:54:34.0000000+00:00</time></trkpt><trkpt lat="64.00656891" lon="-19.01373863"><ele>584.0</ele><time>2012-07-24T11:54:39.0000000+00:00</time></trkpt><trkpt lat="64.00674439" lon="-19.01362228"><ele>583.8</ele><time>2012-07-24T11:54:44.0000000+00:00</time></trkpt><trkpt lat="64.00687408" lon="-19.01342011"><ele>584.1</ele><time>2012-07-24T11:54:49.0000000+00:00</time></trkpt><trkpt lat="64.00698853" lon="-19.01312828"><ele>584.0</ele><time>2012-07-24T11:54:54.0000000+00:00</time></trkpt><trkpt lat="64.00710297" lon="-19.01278496"><ele>584.0</ele><time>2012-07-24T11:54:59.0000000+00:00</time></trkpt><trkpt lat="64.00721741" lon="-19.01237869"><ele>585.2</ele><time>2012-07-24T11:55:04.0000000+00:00</time></trkpt><trkpt lat="64.00728607" lon="-19.0120163"><ele>585.8</ele><time>2012-07-24T11:55:09.0000000+00:00</time></trkpt><trkpt lat="64.00732422" lon="-19.01171684"><ele>585.3</ele><time>2012-07-24T11:55:14.0000000+00:00</time></trkpt><trkpt lat="64.00738525" lon="-19.01146126"><ele>584.8</ele><time>2012-07-24T11:55:19.0000000+00:00</time></trkpt><trkpt lat="64.00746918" lon="-19.01115036"><ele>584.5</ele><time>2012-07-24T11:55:24.0000000+00:00</time></trkpt><trkpt lat="64.00756836" lon="-19.010849"><ele>585.0</ele><time>2012-07-24T11:55:29.0000000+00:00</time></trkpt><trkpt lat="64.00765228" lon="-19.01057243"><ele>584.8</ele><time>2012-07-24T11:55:34.0000000+00:00</time></trkpt><trkpt lat="64.00775147" lon="-19.01029396"><ele>585.0</ele><time>2012-07-24T11:55:39.0000000+00:00</time></trkpt><trkpt lat="64.00784302" lon="-19.01000404"><ele>585.4</ele><time>2012-07-24T11:55:44.0000000+00:00</time></trkpt><trkpt lat="64.0079422" lon="-19.00974083"><ele>585.5</ele><time>2012-07-24T11:55:49.0000000+00:00</time></trkpt><trkpt lat="64.00802612" lon="-19.00945282"><ele>585.4</ele><time>2012-07-24T11:55:54.0000000+00:00</time></trkpt><trkpt lat="64.00810242" lon="-19.00914192"><ele>585.7</ele><time>2012-07-24T11:55:59.0000000+00:00</time></trkpt><trkpt lat="64.00819397" lon="-19.00878334"><ele>584.7</ele><time>2012-07-24T11:56:04.0000000+00:00</time></trkpt><trkpt lat="64.00828552" lon="-19.00842094"><ele>583.6</ele><time>2012-07-24T11:56:09.0000000+00:00</time></trkpt><trkpt lat="64.00838471" lon="-19.00803757"><ele>583.4</ele><time>2012-07-24T11:56:14.0000000+00:00</time></trkpt><trkpt lat="64.00843048" lon="-19.00764847"><ele>583.6</ele><time>2012-07-24T11:56:19.0000000+00:00</time></trkpt><trkpt lat="64.00844574" lon="-19.00726318"><ele>583.6</ele><time>2012-07-24T11:56:24.0000000+00:00</time></trkpt><trkpt lat="64.00843811" lon="-19.00689697"><ele>583.9</ele><time>2012-07-24T11:56:29.0000000+00:00</time></trkpt><trkpt lat="64.00836182" lon="-19.00654984"><ele>584.4</ele><time>2012-07-24T11:56:34.0000000+00:00</time></trkpt><trkpt lat="64.00825501" lon="-19.00626755"><ele>583.1</ele><time>2012-07-24T11:56:39.0000000+00:00</time></trkpt><trkpt lat="64.00813294" lon="-19.00600815"><ele>582.8</ele><time>2012-07-24T11:56:44.0000000+00:00</time></trkpt><trkpt lat="64.00802612" lon="-19.00575066"><ele>583.0</ele><time>2012-07-24T11:56:49.0000000+00:00</time></trkpt><trkpt lat="64.0079422" lon="-19.00550652"><ele>582.5</ele><time>2012-07-24T11:56:54.0000000+00:00</time></trkpt><trkpt lat="64.00785065" lon="-19.00522614"><ele>582.0</ele><time>2012-07-24T11:56:59.0000000+00:00</time></trkpt><trkpt lat="64.00778198" lon="-19.00485802"><ele>580.9</ele><time>2012-07-24T11:57:04.0000000+00:00</time></trkpt><trkpt lat="64.00772095" lon="-19.00445557"><ele>581.9</ele><time>2012-07-24T11:57:09.0000000+00:00</time></trkpt><trkpt lat="64.00770569" lon="-19.004076"><ele>581.7</ele><time>2012-07-24T11:57:14.0000000+00:00</time></trkpt><trkpt lat="64.00774384" lon="-19.00370407"><ele>581.8</ele><time>2012-07-24T11:57:19.0000000+00:00</time></trkpt><trkpt lat="64.00779724" lon="-19.00330353"><ele>581.2</ele><time>2012-07-24T11:57:24.0000000+00:00</time></trkpt><trkpt lat="64.00783539" lon="-19.00296593"><ele>582.3</ele><time>2012-07-24T11:57:29.0000000+00:00</time></trkpt><trkpt lat="64.00785828" lon="-19.00280762"><ele>583.4</ele><time>2012-07-24T11:57:34.0000000+00:00</time></trkpt><trkpt lat="64.00787354" lon="-19.00263596"><ele>584.0</ele><time>2012-07-24T11:57:39.0000000+00:00</time></trkpt><trkpt lat="64.00787354" lon="-19.00263596"><ele>583.7</ele><time>2012-07-24T11:57:44.0000000+00:00</time></trkpt><trkpt lat="64.00787354" lon="-19.00263596"><ele>583.8</ele><time>2012-07-24T11:57:49.0000000+00:00</time></trkpt><trkpt lat="64.00787354" lon="-19.00263596"><ele>583.8</ele><time>2012-07-24T11:57:54.0000000+00:00</time></trkpt><trkpt lat="64.00787354" lon="-19.00263596"><ele>583.8</ele><time>2012-07-24T11:57:59.0000000+00:00</time></trkpt><trkpt lat="64.00787354" lon="-19.00263596"><ele>583.8</ele><time>2012-07-24T11:58:04.0000000+00:00</time></trkpt><trkpt lat="64.00787354" lon="-19.00263786"><ele>583.8</ele><time>2012-07-24T11:58:09.0000000+00:00</time></trkpt><trkpt lat="64.00787354" lon="-19.00263786"><ele>583.8</ele><time>2012-07-24T11:58:14.0000000+00:00</time></trkpt><trkpt lat="64.00787354" lon="-19.00263786"><ele>583.8</ele><time>2012-07-24T11:58:19.0000000+00:00</time></trkpt><trkpt lat="64.00787354" lon="-19.00263786"><ele>583.8</ele><time>2012-07-24T11:58:24.0000000+00:00</time></trkpt><trkpt lat="64.00787354" lon="-19.00263786"><ele>583.8</ele><time>2012-07-24T11:58:29.0000000+00:00</time></trkpt><trkpt lat="64.00787354" lon="-19.00263786"><ele>583.8</ele><time>2012-07-24T11:58:34.0000000+00:00</time></trkpt><trkpt lat="64.00787354" lon="-19.00263786"><ele>583.8</ele><time>2012-07-24T11:58:39.0000000+00:00</time></trkpt><trkpt lat="64.00787354" lon="-19.00263786"><ele>583.8</ele><time>2012-07-24T11:58:44.0000000+00:00</time></trkpt><trkpt lat="64.00787354" lon="-19.00263786"><ele>583.8</ele><time>2012-07-24T11:58:49.0000000+00:00</time></trkpt><trkpt lat="64.00787354" lon="-19.00263786"><ele>583.8</ele><time>2012-07-24T11:58:54.0000000+00:00</time></trkpt><trkpt lat="64.00787354" lon="-19.00263786"><ele>583.8</ele><time>2012-07-24T11:58:59.0000000+00:00</time></trkpt><trkpt lat="64.00787354" lon="-19.00263786"><ele>583.8</ele><time>2012-07-24T11:59:04.0000000+00:00</time></trkpt><trkpt lat="64.00787354" lon="-19.00263786"><ele>583.8</ele><time>2012-07-24T11:59:09.0000000+00:00</time></trkpt><trkpt lat="64.00787354" lon="-19.00263786"><ele>583.8</ele><time>2012-07-24T11:59:14.0000000+00:00</time></trkpt><trkpt lat="64.00787354" lon="-19.00263786"><ele>583.8</ele><time>2012-07-24T11:59:19.0000000+00:00</time></trkpt><trkpt lat="64.00787354" lon="-19.00263786"><ele>584.0</ele><time>2012-07-24T11:59:24.0000000+00:00</time></trkpt><trkpt lat="64.00787354" lon="-19.00263786"><ele>584.0</ele><time>2012-07-24T11:59:29.0000000+00:00</time></trkpt><trkpt lat="64.00787354" lon="-19.00263023"><ele>583.9</ele><time>2012-07-24T11:59:34.0000000+00:00</time></trkpt><trkpt lat="64.00787354" lon="-19.00258827"><ele>583.8</ele><time>2012-07-24T11:59:39.0000000+00:00</time></trkpt><trkpt lat="64.00787354" lon="-19.00258637"><ele>583.8</ele><time>2012-07-24T11:59:44.0000000+00:00</time></trkpt><trkpt lat="64.00787354" lon="-19.00258446"><ele>583.9</ele><time>2012-07-24T11:59:49.0000000+00:00</time></trkpt><trkpt lat="64.00787354" lon="-19.00258446"><ele>583.8</ele><time>2012-07-24T11:59:54.0000000+00:00</time></trkpt><trkpt lat="64.00787354" lon="-19.00258446"><ele>583.8</ele><time>2012-07-24T11:59:59.0000000+00:00</time></trkpt><trkpt lat="64.00787354" lon="-19.00258446"><ele>583.8</ele><time>2012-07-24T12:00:04.0000000+00:00</time></trkpt><trkpt lat="64.00787354" lon="-19.00258637"><ele>583.8</ele><time>2012-07-24T12:00:09.0000000+00:00</time></trkpt><trkpt lat="64.00787354" lon="-19.00258637"><ele>583.7</ele><time>2012-07-24T12:00:14.0000000+00:00</time></trkpt><trkpt lat="64.00787354" lon="-19.00258637"><ele>583.7</ele><time>2012-07-24T12:00:19.0000000+00:00</time></trkpt><trkpt lat="64.00787354" lon="-19.00258637"><ele>583.7</ele><time>2012-07-24T12:00:24.0000000+00:00</time></trkpt><trkpt lat="64.00787354" lon="-19.00258637"><ele>583.7</ele><time>2012-07-24T12:00:29.0000000+00:00</time></trkpt><trkpt lat="64.00787354" lon="-19.00258637"><ele>583.7</ele><time>2012-07-24T12:00:34.0000000+00:00</time></trkpt><trkpt lat="64.00787354" lon="-19.00258637"><ele>583.7</ele><time>2012-07-24T12:00:39.0000000+00:00</time></trkpt><trkpt lat="64.00787354" lon="-19.00258637"><ele>583.7</ele><time>2012-07-24T12:00:44.0000000+00:00</time></trkpt><trkpt lat="64.00787354" lon="-19.00258637"><ele>583.7</ele><time>2012-07-24T12:00:49.0000000+00:00</time></trkpt><trkpt lat="64.00787354" lon="-19.00258637"><ele>583.7</ele><time>2012-07-24T12:00:54.0000000+00:00</time></trkpt><trkpt lat="64.00787354" lon="-19.00258637"><ele>583.7</ele><time>2012-07-24T12:00:59.0000000+00:00</time></trkpt><trkpt lat="64.00788879" lon="-19.00249481"><ele>583.5</ele><time>2012-07-24T12:01:04.0000000+00:00</time></trkpt><trkpt lat="64.00788879" lon="-19.00250816"><ele>583.6</ele><time>2012-07-24T12:01:09.0000000+00:00</time></trkpt><trkpt lat="64.00788879" lon="-19.00250816"><ele>583.7</ele><time>2012-07-24T12:01:14.0000000+00:00</time></trkpt><trkpt lat="64.00788879" lon="-19.00250626"><ele>583.8</ele><time>2012-07-24T12:01:19.0000000+00:00</time></trkpt><trkpt lat="64.00793457" lon="-19.00238991"><ele>583.2</ele><time>2012-07-24T12:01:24.0000000+00:00</time></trkpt><trkpt lat="64.00799561" lon="-19.00228882"><ele>583.3</ele><time>2012-07-24T12:01:29.0000000+00:00</time></trkpt><trkpt lat="64.00810242" lon="-19.00219536"><ele>583.2</ele><time>2012-07-24T12:01:34.0000000+00:00</time></trkpt><trkpt lat="64.0082016" lon="-19.00205994"><ele>582.9</ele><time>2012-07-24T12:01:39.0000000+00:00</time></trkpt><trkpt lat="64.00827026" lon="-19.00181961"><ele>583.1</ele><time>2012-07-24T12:01:44.0000000+00:00</time></trkpt><trkpt lat="64.00829315" lon="-19.00156212"><ele>583.9</ele><time>2012-07-24T12:01:49.0000000+00:00</time></trkpt><trkpt lat="64.00832367" lon="-19.00133133"><ele>584.3</ele><time>2012-07-24T12:01:54.0000000+00:00</time></trkpt><trkpt lat="64.00838471" lon="-19.00109673"><ele>584.8</ele><time>2012-07-24T12:01:59.0000000+00:00</time></trkpt><trkpt lat="64.00843811" lon="-19.00093842"><ele>584.9</ele><time>2012-07-24T12:02:04.0000000+00:00</time></trkpt><trkpt lat="64.00850678" lon="-19.00086975"><ele>584.2</ele><time>2012-07-24T12:02:09.0000000+00:00</time></trkpt><trkpt lat="64.0085907" lon="-19.00082207"><ele>583.8</ele><time>2012-07-24T12:02:14.0000000+00:00</time></trkpt><trkpt lat="64.00870514" lon="-19.00083733"><ele>584.0</ele><time>2012-07-24T12:02:19.0000000+00:00</time></trkpt><trkpt lat="64.00881958" lon="-19.00092697"><ele>585.2</ele><time>2012-07-24T12:02:24.0000000+00:00</time></trkpt><trkpt lat="64.00891113" lon="-19.00103569"><ele>586.2</ele><time>2012-07-24T12:02:29.0000000+00:00</time></trkpt><trkpt lat="64.00901794" lon="-19.00112343"><ele>587.5</ele><time>2012-07-24T12:02:34.0000000+00:00</time></trkpt><trkpt lat="64.00912476" lon="-19.00116539"><ele>585.7</ele><time>2012-07-24T12:02:39.0000000+00:00</time></trkpt><trkpt lat="64.00923157" lon="-19.00110436"><ele>585.7</ele><time>2012-07-24T12:02:44.0000000+00:00</time></trkpt><trkpt lat="64.00933838" lon="-19.00100327"><ele>585.6</ele><time>2012-07-24T12:02:49.0000000+00:00</time></trkpt><trkpt lat="64.00944519" lon="-19.00082398"><ele>586.2</ele><time>2012-07-24T12:02:54.0000000+00:00</time></trkpt><trkpt lat="64.00953674" lon="-19.00059891"><ele>585.0</ele><time>2012-07-24T12:02:59.0000000+00:00</time></trkpt><trkpt lat="64.00961304" lon="-19.00036621"><ele>584.9</ele><time>2012-07-24T12:03:04.0000000+00:00</time></trkpt><trkpt lat="64.0096817" lon="-19.00010109"><ele>584.7</ele><time>2012-07-24T12:03:09.0000000+00:00</time></trkpt><trkpt lat="64.00971222" lon="-18.99980164"><ele>584.9</ele><time>2012-07-24T12:03:14.0000000+00:00</time></trkpt><trkpt lat="64.00971985" lon="-18.99949455"><ele>584.6</ele><time>2012-07-24T12:03:19.0000000+00:00</time></trkpt><trkpt lat="64.00965881" lon="-18.99920082"><ele>584.6</ele><time>2012-07-24T12:03:24.0000000+00:00</time></trkpt><trkpt lat="64.0096283" lon="-18.9990921"><ele>584.9</ele><time>2012-07-24T12:03:29.0000000+00:00</time></trkpt><trkpt lat="64.00958252" lon="-18.99895287"><ele>583.9</ele><time>2012-07-24T12:03:34.0000000+00:00</time></trkpt><trkpt lat="64.00954437" lon="-18.99882889"><ele>583.9</ele><time>2012-07-24T12:03:39.0000000+00:00</time></trkpt><trkpt lat="64.00952911" lon="-18.99881363"><ele>583.8</ele><time>2012-07-24T12:03:44.0000000+00:00</time></trkpt><trkpt lat="64.00952911" lon="-18.99881554"><ele>583.8</ele><time>2012-07-24T12:03:49.0000000+00:00</time></trkpt><trkpt lat="64.00952148" lon="-18.99879074"><ele>583.6</ele><time>2012-07-24T12:03:54.0000000+00:00</time></trkpt><trkpt lat="64.00946808" lon="-18.99858666"><ele>583.5</ele><time>2012-07-24T12:03:59.0000000+00:00</time></trkpt><trkpt lat="64.00939941" lon="-18.99832726"><ele>584.4</ele><time>2012-07-24T12:04:04.0000000+00:00</time></trkpt><trkpt lat="64.00933075" lon="-18.99808312"><ele>585.0</ele><time>2012-07-24T12:04:09.0000000+00:00</time></trkpt><trkpt lat="64.00924683" lon="-18.99784851"><ele>583.7</ele><time>2012-07-24T12:04:14.0000000+00:00</time></trkpt><trkpt lat="64.00914764" lon="-18.9976902"><ele>584.3</ele><time>2012-07-24T12:04:19.0000000+00:00</time></trkpt><trkpt lat="64.00904846" lon="-18.99765015"><ele>584.5</ele><time>2012-07-24T12:04:24.0000000+00:00</time></trkpt><trkpt lat="64.0089798" lon="-18.99765205"><ele>585.1</ele><time>2012-07-24T12:04:29.0000000+00:00</time></trkpt><trkpt lat="64.0089035" lon="-18.99762344"><ele>586.8</ele><time>2012-07-24T12:04:34.0000000+00:00</time></trkpt><trkpt lat="64.00882721" lon="-18.99761772"><ele>587.6</ele><time>2012-07-24T12:04:39.0000000+00:00</time></trkpt><trkpt lat="64.00875855" lon="-18.99760628"><ele>589.1</ele><time>2012-07-24T12:04:44.0000000+00:00</time></trkpt><trkpt lat="64.00867462" lon="-18.99761009"><ele>588.9</ele><time>2012-07-24T12:04:49.0000000+00:00</time></trkpt><trkpt lat="64.0085907" lon="-18.99758911"><ele>589.6</ele><time>2012-07-24T12:04:54.0000000+00:00</time></trkpt><trkpt lat="64.00849152" lon="-18.99757958"><ele>589.6</ele><time>2012-07-24T12:04:59.0000000+00:00</time></trkpt><trkpt lat="64.00839233" lon="-18.99754906"><ele>589.4</ele><time>2012-07-24T12:05:04.0000000+00:00</time></trkpt><trkpt lat="64.00830841" lon="-18.99755859"><ele>589.8</ele><time>2012-07-24T12:05:09.0000000+00:00</time></trkpt><trkpt lat="64.00822449" lon="-18.9975605"><ele>590.8</ele><time>2012-07-24T12:05:14.0000000+00:00</time></trkpt><trkpt lat="64.00816345" lon="-18.9975605"><ele>590.0</ele><time>2012-07-24T12:05:19.0000000+00:00</time></trkpt><trkpt lat="64.00807953" lon="-18.99754715"><ele>591.3</ele><time>2012-07-24T12:05:24.0000000+00:00</time></trkpt><trkpt lat="64.00800324" lon="-18.99752235"><ele>591.3</ele><time>2012-07-24T12:05:29.0000000+00:00</time></trkpt><trkpt lat="64.00791168" lon="-18.99753952"><ele>592.3</ele><time>2012-07-24T12:05:34.0000000+00:00</time></trkpt><trkpt lat="64.00780487" lon="-18.99753952"><ele>594.0</ele><time>2012-07-24T12:05:39.0000000+00:00</time></trkpt><trkpt lat="64.00769043" lon="-18.99758148"><ele>595.2</ele><time>2012-07-24T12:05:44.0000000+00:00</time></trkpt><trkpt lat="64.00756073" lon="-18.99759674"><ele>594.1</ele><time>2012-07-24T12:05:49.0000000+00:00</time></trkpt><trkpt lat="64.00743866" lon="-18.99762154"><ele>594.9</ele><time>2012-07-24T12:05:54.0000000+00:00</time></trkpt><trkpt lat="64.00732422" lon="-18.99763489"><ele>596.4</ele><time>2012-07-24T12:05:59.0000000+00:00</time></trkpt><trkpt lat="64.00720978" lon="-18.99765015"><ele>597.4</ele><time>2012-07-24T12:06:04.0000000+00:00</time></trkpt><trkpt lat="64.00704193" lon="-18.99769783"><ele>596.0</ele><time>2012-07-24T12:06:09.0000000+00:00</time></trkpt><trkpt lat="64.00676727" lon="-18.99779701"><ele>595.0</ele><time>2012-07-24T12:06:14.0000000+00:00</time></trkpt><trkpt lat="64.00637817" lon="-18.9980278"><ele>592.1</ele><time>2012-07-24T12:06:19.0000000+00:00</time></trkpt><trkpt lat="64.00595856" lon="-18.99794579"><ele>587.6</ele><time>2012-07-24T12:06:24.0000000+00:00</time></trkpt><trkpt lat="64.00561523" lon="-18.99733162"><ele>585.6</ele><time>2012-07-24T12:06:29.0000000+00:00</time></trkpt><trkpt lat="64.00533295" lon="-18.99671936"><ele>586.7</ele><time>2012-07-24T12:06:34.0000000+00:00</time></trkpt><trkpt lat="64.00508118" lon="-18.99624825"><ele>587.3</ele><time>2012-07-24T12:06:39.0000000+00:00</time></trkpt><trkpt lat="64.00489044" lon="-18.99590874"><ele>586.2</ele><time>2012-07-24T12:06:44.0000000+00:00</time></trkpt><trkpt lat="64.00475311" lon="-18.9956646"><ele>587.0</ele><time>2012-07-24T12:06:49.0000000+00:00</time></trkpt><trkpt lat="64.0046463" lon="-18.99550247"><ele>586.7</ele><time>2012-07-24T12:06:54.0000000+00:00</time></trkpt><trkpt lat="64.00452423" lon="-18.99528313"><ele>586.5</ele><time>2012-07-24T12:06:59.0000000+00:00</time></trkpt><trkpt lat="64.00440979" lon="-18.99505615"><ele>586.2</ele><time>2012-07-24T12:07:04.0000000+00:00</time></trkpt><trkpt lat="64.00428772" lon="-18.99478149"><ele>585.6</ele><time>2012-07-24T12:07:09.0000000+00:00</time></trkpt><trkpt lat="64.00417328" lon="-18.99446869"><ele>586.6</ele><time>2012-07-24T12:07:14.0000000+00:00</time></trkpt><trkpt lat="64.0040741" lon="-18.9941864"><ele>586.2</ele><time>2012-07-24T12:07:19.0000000+00:00</time></trkpt><trkpt lat="64.00397492" lon="-18.99393463"><ele>587.5</ele><time>2012-07-24T12:07:24.0000000+00:00</time></trkpt><trkpt lat="64.00388336" lon="-18.99378777"><ele>586.8</ele><time>2012-07-24T12:07:29.0000000+00:00</time></trkpt><trkpt lat="64.00375366" lon="-18.99363709"><ele>586.1</ele><time>2012-07-24T12:07:34.0000000+00:00</time></trkpt><trkpt lat="64.00361633" lon="-18.99347305"><ele>584.6</ele><time>2012-07-24T12:07:39.0000000+00:00</time></trkpt><trkpt lat="64.00347138" lon="-18.99329186"><ele>585.0</ele><time>2012-07-24T12:07:44.0000000+00:00</time></trkpt><trkpt lat="64.00332642" lon="-18.99313164"><ele>584.0</ele><time>2012-07-24T12:07:49.0000000+00:00</time></trkpt><trkpt lat="64.00318146" lon="-18.99300766"><ele>583.8</ele><time>2012-07-24T12:07:54.0000000+00:00</time></trkpt><trkpt lat="64.00305176" lon="-18.99287415"><ele>585.0</ele><time>2012-07-24T12:07:59.0000000+00:00</time></trkpt><trkpt lat="64.00292969" lon="-18.99276924"><ele>584.7</ele><time>2012-07-24T12:08:04.0000000+00:00</time></trkpt><trkpt lat="64.00282288" lon="-18.9926281"><ele>585.3</ele><time>2012-07-24T12:08:09.0000000+00:00</time></trkpt><trkpt lat="64.00273895" lon="-18.99248314"><ele>585.3</ele><time>2012-07-24T12:08:14.0000000+00:00</time></trkpt><trkpt lat="64.00263977" lon="-18.99234581"><ele>585.7</ele><time>2012-07-24T12:08:19.0000000+00:00</time></trkpt><trkpt lat="64.00254822" lon="-18.99221993"><ele>585.7</ele><time>2012-07-24T12:08:24.0000000+00:00</time></trkpt><trkpt lat="64.00244904" lon="-18.99207687"><ele>586.1</ele><time>2012-07-24T12:08:29.0000000+00:00</time></trkpt><trkpt lat="64.00234222" lon="-18.99194145"><ele>586.8</ele><time>2012-07-24T12:08:34.0000000+00:00</time></trkpt><trkpt lat="64.00225067" lon="-18.9918499"><ele>586.3</ele><time>2012-07-24T12:08:39.0000000+00:00</time></trkpt><trkpt lat="64.00213623" lon="-18.99177742"><ele>585.7</ele><time>2012-07-24T12:08:44.0000000+00:00</time></trkpt><trkpt lat="64.00202179" lon="-18.99165726"><ele>585.5</ele><time>2012-07-24T12:08:49.0000000+00:00</time></trkpt><trkpt lat="64.00184631" lon="-18.99143028"><ele>585.5</ele><time>2012-07-24T12:08:54.0000000+00:00</time></trkpt><trkpt lat="64.00158691" lon="-18.99112511"><ele>583.0</ele><time>2012-07-24T12:08:59.0000000+00:00</time></trkpt><trkpt lat="64.00121307" lon="-18.99071121"><ele>577.0</ele><time>2012-07-24T12:09:04.0000000+00:00</time></trkpt><trkpt lat="64.00081635" lon="-18.99025536"><ele>574.2</ele><time>2012-07-24T12:09:09.0000000+00:00</time></trkpt><trkpt lat="64.00042725" lon="-18.98971558"><ele>571.5</ele><time>2012-07-24T12:09:14.0000000+00:00</time></trkpt><trkpt lat="64.00006867" lon="-18.98908806"><ele>570.7</ele><time>2012-07-24T12:09:19.0000000+00:00</time></trkpt><trkpt lat="63.99970627" lon="-18.98867798"><ele>570.1</ele><time>2012-07-24T12:09:24.0000000+00:00</time></trkpt><trkpt lat="63.99935532" lon="-18.98841476"><ele>570.5</ele><time>2012-07-24T12:09:29.0000000+00:00</time></trkpt><trkpt lat="63.99903488" lon="-18.98832512"><ele>570.2</ele><time>2012-07-24T12:09:34.0000000+00:00</time></trkpt><trkpt lat="63.99875259" lon="-18.98838615"><ele>570.9</ele><time>2012-07-24T12:09:39.0000000+00:00</time></trkpt><trkpt lat="63.99853134" lon="-18.98849678"><ele>572.8</ele><time>2012-07-24T12:09:44.0000000+00:00</time></trkpt><trkpt lat="63.99834061" lon="-18.98861504"><ele>572.9</ele><time>2012-07-24T12:09:49.0000000+00:00</time></trkpt><trkpt lat="63.99814224" lon="-18.9887352"><ele>573.0</ele><time>2012-07-24T12:09:54.0000000+00:00</time></trkpt><trkpt lat="63.99794388" lon="-18.98887444"><ele>574.7</ele><time>2012-07-24T12:09:59.0000000+00:00</time></trkpt><trkpt lat="63.99775696" lon="-18.98905945"><ele>575.9</ele><time>2012-07-24T12:10:04.0000000+00:00</time></trkpt><trkpt lat="63.99756622" lon="-18.98926354"><ele>574.3</ele><time>2012-07-24T12:10:09.0000000+00:00</time></trkpt><trkpt lat="63.99734879" lon="-18.98948288"><ele>571.4</ele><time>2012-07-24T12:10:14.0000000+00:00</time></trkpt><trkpt lat="63.99713898" lon="-18.98968887"><ele>571.8</ele><time>2012-07-24T12:10:19.0000000+00:00</time></trkpt><trkpt lat="63.9969368" lon="-18.98988724"><ele>573.7</ele><time>2012-07-24T12:10:24.0000000+00:00</time></trkpt><trkpt lat="63.99672318" lon="-18.99006844"><ele>574.6</ele><time>2012-07-24T12:10:29.0000000+00:00</time></trkpt><trkpt lat="63.99650955" lon="-18.99026299"><ele>573.3</ele><time>2012-07-24T12:10:34.0000000+00:00</time></trkpt><trkpt lat="63.99629211" lon="-18.9904232"><ele>574.6</ele><time>2012-07-24T12:10:39.0000000+00:00</time></trkpt><trkpt lat="63.99606705" lon="-18.99058723"><ele>577.7</ele><time>2012-07-24T12:10:44.0000000+00:00</time></trkpt><trkpt lat="63.99582291" lon="-18.99071503"><ele>579.2</ele><time>2012-07-24T12:10:49.0000000+00:00</time></trkpt><trkpt lat="63.99558258" lon="-18.99084663"><ele>583.8</ele><time>2012-07-24T12:10:54.0000000+00:00</time></trkpt><trkpt lat="63.99539185" lon="-18.99100304"><ele>586.2</ele><time>2012-07-24T12:10:59.0000000+00:00</time></trkpt><trkpt lat="63.99521256" lon="-18.99120522"><ele>580.4</ele><time>2012-07-24T12:11:04.0000000+00:00</time></trkpt><trkpt lat="63.99501419" lon="-18.99136162"><ele>579.7</ele><time>2012-07-24T12:11:09.0000000+00:00</time></trkpt><trkpt lat="63.99481201" lon="-18.99153328"><ele>576.7</ele><time>2012-07-24T12:11:14.0000000+00:00</time></trkpt><trkpt lat="63.99465942" lon="-18.99174118"><ele>575.6</ele><time>2012-07-24T12:11:19.0000000+00:00</time></trkpt><trkpt lat="63.99454498" lon="-18.99193001"><ele>576.0</ele><time>2012-07-24T12:11:24.0000000+00:00</time></trkpt><trkpt lat="63.99443054" lon="-18.99216843"><ele>574.5</ele><time>2012-07-24T12:11:29.0000000+00:00</time></trkpt><trkpt lat="63.99433136" lon="-18.99247742"><ele>574.2</ele><time>2012-07-24T12:11:34.0000000+00:00</time></trkpt><trkpt lat="63.99422836" lon="-18.99283218"><ele>574.4</ele><time>2012-07-24T12:11:39.0000000+00:00</time></trkpt><trkpt lat="63.99414825" lon="-18.99320984"><ele>575.4</ele><time>2012-07-24T12:11:44.0000000+00:00</time></trkpt><trkpt lat="63.99406433" lon="-18.99357796"><ele>575.9</ele><time>2012-07-24T12:11:49.0000000+00:00</time></trkpt><trkpt lat="63.99399567" lon="-18.99394798"><ele>576.7</ele><time>2012-07-24T12:11:54.0000000+00:00</time></trkpt><trkpt lat="63.993927" lon="-18.99431992"><ele>578.0</ele><time>2012-07-24T12:11:59.0000000+00:00</time></trkpt><trkpt lat="63.99386215" lon="-18.99464607"><ele>577.4</ele><time>2012-07-24T12:12:04.0000000+00:00</time></trkpt><trkpt lat="63.99380493" lon="-18.99487686"><ele>577.8</ele><time>2012-07-24T12:12:09.0000000+00:00</time></trkpt><trkpt lat="63.9937439" lon="-18.9951725"><ele>578.5</ele><time>2012-07-24T12:12:14.0000000+00:00</time></trkpt><trkpt lat="63.99365616" lon="-18.99554634"><ele>578.3</ele><time>2012-07-24T12:12:19.0000000+00:00</time></trkpt><trkpt lat="63.99355316" lon="-18.99596596"><ele>577.0</ele><time>2012-07-24T12:12:24.0000000+00:00</time></trkpt><trkpt lat="63.99343872" lon="-18.9963665"><ele>576.2</ele><time>2012-07-24T12:12:29.0000000+00:00</time></trkpt><trkpt lat="63.99330902" lon="-18.99677849"><ele>576.2</ele><time>2012-07-24T12:12:34.0000000+00:00</time></trkpt><trkpt lat="63.99314117" lon="-18.99713707"><ele>576.8</ele><time>2012-07-24T12:12:39.0000000+00:00</time></trkpt><trkpt lat="63.99298859" lon="-18.99744606"><ele>576.5</ele><time>2012-07-24T12:12:44.0000000+00:00</time></trkpt><trkpt lat="63.99284363" lon="-18.99772263"><ele>577.1</ele><time>2012-07-24T12:12:49.0000000+00:00</time></trkpt><trkpt lat="63.99274063" lon="-18.99796867"><ele>577.8</ele><time>2012-07-24T12:12:54.0000000+00:00</time></trkpt><trkpt lat="63.99274445" lon="-18.9979763"><ele>577.2</ele><time>2012-07-24T12:12:59.0000000+00:00</time></trkpt><trkpt lat="63.99274445" lon="-18.9979763"><ele>577.2</ele><time>2012-07-24T12:13:04.0000000+00:00</time></trkpt><trkpt lat="63.99274445" lon="-18.9979763"><ele>577.2</ele><time>2012-07-24T12:13:09.0000000+00:00</time></trkpt><trkpt lat="63.99274445" lon="-18.99797821"><ele>577.1</ele><time>2012-07-24T12:13:14.0000000+00:00</time></trkpt><trkpt lat="63.99274445" lon="-18.99797821"><ele>577.1</ele><time>2012-07-24T12:13:19.0000000+00:00</time></trkpt><trkpt lat="63.99274445" lon="-18.9979763"><ele>577.1</ele><time>2012-07-24T12:13:24.0000000+00:00</time></trkpt><trkpt lat="63.99274063" lon="-18.99798393"><ele>577.1</ele><time>2012-07-24T12:13:29.0000000+00:00</time></trkpt><trkpt lat="63.99269104" lon="-18.9980793"><ele>577.2</ele><time>2012-07-24T12:13:34.0000000+00:00</time></trkpt><trkpt lat="63.99262619" lon="-18.99822998"><ele>577.7</ele><time>2012-07-24T12:13:39.0000000+00:00</time></trkpt><trkpt lat="63.99257278" lon="-18.99832153"><ele>577.7</ele><time>2012-07-24T12:13:44.0000000+00:00</time></trkpt><trkpt lat="63.99253845" lon="-18.99847603"><ele>577.7</ele><time>2012-07-24T12:13:49.0000000+00:00</time></trkpt><trkpt lat="63.99245834" lon="-18.99866676"><ele>578.1</ele><time>2012-07-24T12:13:54.0000000+00:00</time></trkpt><trkpt lat="63.99236679" lon="-18.99890137"><ele>578.4</ele><time>2012-07-24T12:13:59.0000000+00:00</time></trkpt><trkpt lat="63.99222946" lon="-18.99913788"><ele>577.6</ele><time>2012-07-24T12:14:04.0000000+00:00</time></trkpt><trkpt lat="63.99205017" lon="-18.999403"><ele>577.0</ele><time>2012-07-24T12:14:09.0000000+00:00</time></trkpt><trkpt lat="63.99184799" lon="-18.99967003"><ele>576.5</ele><time>2012-07-24T12:14:14.0000000+00:00</time></trkpt><trkpt lat="63.99164963" lon="-18.99986076"><ele>576.3</ele><time>2012-07-24T12:14:19.0000000+00:00</time></trkpt><trkpt lat="63.99143219" lon="-18.99997139"><ele>577.2</ele><time>2012-07-24T12:14:24.0000000+00:00</time></trkpt><trkpt lat="63.99123383" lon="-19.00004196"><ele>577.7</ele><time>2012-07-24T12:14:29.0000000+00:00</time></trkpt><trkpt lat="63.99102402" lon="-19.00005341"><ele>576.6</ele><time>2012-07-24T12:14:34.0000000+00:00</time></trkpt><trkpt lat="63.99081802" lon="-19.00002289"><ele>576.5</ele><time>2012-07-24T12:14:39.0000000+00:00</time></trkpt><trkpt lat="63.99061966" lon="-18.9998703"><ele>575.4</ele><time>2012-07-24T12:14:44.0000000+00:00</time></trkpt><trkpt lat="63.99045944" lon="-18.99958611"><ele>574.9</ele><time>2012-07-24T12:14:49.0000000+00:00</time></trkpt><trkpt lat="63.99032974" lon="-18.99927902"><ele>576.6</ele><time>2012-07-24T12:14:54.0000000+00:00</time></trkpt><trkpt lat="63.99023438" lon="-18.99907303"><ele>576.7</ele><time>2012-07-24T12:14:59.0000000+00:00</time></trkpt><trkpt lat="63.99018478" lon="-18.99892998"><ele>577.8</ele><time>2012-07-24T12:15:04.0000000+00:00</time></trkpt><trkpt lat="63.99011612" lon="-18.99882126"><ele>578.3</ele><time>2012-07-24T12:15:09.0000000+00:00</time></trkpt><trkpt lat="63.99004364" lon="-18.99868012"><ele>579.2</ele><time>2012-07-24T12:15:14.0000000+00:00</time></trkpt><trkpt lat="63.98999405" lon="-18.99856567"><ele>580.4</ele><time>2012-07-24T12:15:19.0000000+00:00</time></trkpt><trkpt lat="63.98995972" lon="-18.99844933"><ele>581.2</ele><time>2012-07-24T12:15:24.0000000+00:00</time></trkpt><trkpt lat="63.98988342" lon="-18.99821281"><ele>580.3</ele><time>2012-07-24T12:15:29.0000000+00:00</time></trkpt><trkpt lat="63.98972321" lon="-18.99771881"><ele>576.9</ele><time>2012-07-24T12:15:34.0000000+00:00</time></trkpt><trkpt lat="63.98954392" lon="-18.99711418"><ele>575.8</ele><time>2012-07-24T12:15:39.0000000+00:00</time></trkpt><trkpt lat="63.98936844" lon="-18.99659157"><ele>573.8</ele><time>2012-07-24T12:15:44.0000000+00:00</time></trkpt><trkpt lat="63.98920822" lon="-18.99606133"><ele>576.4</ele><time>2012-07-24T12:15:49.0000000+00:00</time></trkpt><trkpt lat="63.989048" lon="-18.99565697"><ele>576.9</ele><time>2012-07-24T12:15:54.0000000+00:00</time></trkpt><trkpt lat="63.98889542" lon="-18.99533081"><ele>576.4</ele><time>2012-07-24T12:15:59.0000000+00:00</time></trkpt><trkpt lat="63.98871613" lon="-18.99505806"><ele>573.9</ele><time>2012-07-24T12:16:04.0000000+00:00</time></trkpt><trkpt lat="63.98853302" lon="-18.99469948"><ele>574.3</ele><time>2012-07-24T12:16:09.0000000+00:00</time></trkpt><trkpt lat="63.98837662" lon="-18.99427605"><ele>576.0</ele><time>2012-07-24T12:16:14.0000000+00:00</time></trkpt><trkpt lat="63.98830032" lon="-18.99383926"><ele>575.0</ele><time>2012-07-24T12:16:19.0000000+00:00</time></trkpt><trkpt lat="63.98831558" lon="-18.99333763"><ele>573.9</ele><time>2012-07-24T12:16:24.0000000+00:00</time></trkpt><trkpt lat="63.98836899" lon="-18.99280548"><ele>572.1</ele><time>2012-07-24T12:16:29.0000000+00:00</time></trkpt><trkpt lat="63.98842621" lon="-18.99224281"><ele>571.5</ele><time>2012-07-24T12:16:34.0000000+00:00</time></trkpt><trkpt lat="63.98843765" lon="-18.99171829"><ele>572.9</ele><time>2012-07-24T12:16:39.0000000+00:00</time></trkpt><trkpt lat="63.98835754" lon="-18.99126053"><ele>574.2</ele><time>2012-07-24T12:16:44.0000000+00:00</time></trkpt><trkpt lat="63.98825455" lon="-18.99080849"><ele>573.1</ele><time>2012-07-24T12:16:49.0000000+00:00</time></trkpt><trkpt lat="63.98812103" lon="-18.99041367"><ele>572.8</ele><time>2012-07-24T12:16:54.0000000+00:00</time></trkpt><trkpt lat="63.98796463" lon="-18.99001312"><ele>572.5</ele><time>2012-07-24T12:16:59.0000000+00:00</time></trkpt><trkpt lat="63.9877739" lon="-18.98967934"><ele>572.5</ele><time>2012-07-24T12:17:04.0000000+00:00</time></trkpt><trkpt lat="63.98757935" lon="-18.98934746"><ele>574.0</ele><time>2012-07-24T12:17:09.0000000+00:00</time></trkpt><trkpt lat="63.98739243" lon="-18.98913002"><ele>573.8</ele><time>2012-07-24T12:17:14.0000000+00:00</time></trkpt><trkpt lat="63.98725128" lon="-18.98895645"><ele>574.0</ele><time>2012-07-24T12:17:19.0000000+00:00</time></trkpt><trkpt lat="63.98711777" lon="-18.98879814"><ele>573.6</ele><time>2012-07-24T12:17:24.0000000+00:00</time></trkpt><trkpt lat="63.9869957" lon="-18.98850822"><ele>573.3</ele><time>2012-07-24T12:17:29.0000000+00:00</time></trkpt><trkpt lat="63.98687363" lon="-18.98819542"><ele>572.9</ele><time>2012-07-24T12:17:34.0000000+00:00</time></trkpt><trkpt lat="63.98675537" lon="-18.98788071"><ele>572.2</ele><time>2012-07-24T12:17:39.0000000+00:00</time></trkpt><trkpt lat="63.98664093" lon="-18.98755074"><ele>573.1</ele><time>2012-07-24T12:17:44.0000000+00:00</time></trkpt><trkpt lat="63.98652268" lon="-18.98725128"><ele>573.0</ele><time>2012-07-24T12:17:49.0000000+00:00</time></trkpt><trkpt lat="63.98639298" lon="-18.98695374"><ele>572.8</ele><time>2012-07-24T12:17:54.0000000+00:00</time></trkpt><trkpt lat="63.98625565" lon="-18.98662949"><ele>571.5</ele><time>2012-07-24T12:17:59.0000000+00:00</time></trkpt><trkpt lat="63.98613358" lon="-18.98628807"><ele>573.3</ele><time>2012-07-24T12:18:04.0000000+00:00</time></trkpt><trkpt lat="63.98600006" lon="-18.98594666"><ele>574.4</ele><time>2012-07-24T12:18:09.0000000+00:00</time></trkpt><trkpt lat="63.98586655" lon="-18.98558044"><ele>574.3</ele><time>2012-07-24T12:18:14.0000000+00:00</time></trkpt><trkpt lat="63.98572922" lon="-18.98524857"><ele>571.9</ele><time>2012-07-24T12:18:19.0000000+00:00</time></trkpt><trkpt lat="63.98561859" lon="-18.98493576"><ele>573.8</ele><time>2012-07-24T12:18:24.0000000+00:00</time></trkpt><trkpt lat="63.98551178" lon="-18.98465157"><ele>574.8</ele><time>2012-07-24T12:18:29.0000000+00:00</time></trkpt><trkpt lat="63.98541641" lon="-18.98439598"><ele>576.1</ele><time>2012-07-24T12:18:34.0000000+00:00</time></trkpt><trkpt lat="63.98530579" lon="-18.98411942"><ele>574.2</ele><time>2012-07-24T12:18:39.0000000+00:00</time></trkpt><trkpt lat="63.98519135" lon="-18.98381996"><ele>573.3</ele><time>2012-07-24T12:18:44.0000000+00:00</time></trkpt><trkpt lat="63.98506546" lon="-18.98349571"><ele>574.8</ele><time>2012-07-24T12:18:49.0000000+00:00</time></trkpt><trkpt lat="63.98493958" lon="-18.98314285"><ele>573.9</ele><time>2012-07-24T12:18:54.0000000+00:00</time></trkpt><trkpt lat="63.98480988" lon="-18.98278046"><ele>573.3</ele><time>2012-07-24T12:18:59.0000000+00:00</time></trkpt><trkpt lat="63.98470688" lon="-18.98240089"><ele>574.5</ele><time>2012-07-24T12:19:04.0000000+00:00</time></trkpt><trkpt lat="63.98463059" lon="-18.98200226"><ele>574.3</ele><time>2012-07-24T12:19:09.0000000+00:00</time></trkpt><trkpt lat="63.98458862" lon="-18.98153496"><ele>574.8</ele><time>2012-07-24T12:19:14.0000000+00:00</time></trkpt><trkpt lat="63.98457718" lon="-18.98106003"><ele>574.5</ele><time>2012-07-24T12:19:19.0000000+00:00</time></trkpt><trkpt lat="63.98458862" lon="-18.9805851"><ele>575.4</ele><time>2012-07-24T12:19:24.0000000+00:00</time></trkpt><trkpt lat="63.98461533" lon="-18.98016167"><ele>576.4</ele><time>2012-07-24T12:19:29.0000000+00:00</time></trkpt><trkpt lat="63.98464203" lon="-18.97983551"><ele>577.4</ele><time>2012-07-24T12:19:34.0000000+00:00</time></trkpt><trkpt lat="63.98467255" lon="-18.9794941"><ele>578.6</ele><time>2012-07-24T12:19:39.0000000+00:00</time></trkpt><trkpt lat="63.98471069" lon="-18.97919846"><ele>579.1</ele><time>2012-07-24T12:19:44.0000000+00:00</time></trkpt><trkpt lat="63.98475647" lon="-18.97882462"><ele>579.7</ele><time>2012-07-24T12:19:49.0000000+00:00</time></trkpt><trkpt lat="63.98482895" lon="-18.9784317"><ele>579.5</ele><time>2012-07-24T12:19:54.0000000+00:00</time></trkpt><trkpt lat="63.98491287" lon="-18.9780407"><ele>579.4</ele><time>2012-07-24T12:19:59.0000000+00:00</time></trkpt><trkpt lat="63.98500061" lon="-18.9776783"><ele>578.5</ele><time>2012-07-24T12:20:04.0000000+00:00</time></trkpt><trkpt lat="63.98509216" lon="-18.97727966"><ele>577.6</ele><time>2012-07-24T12:20:09.0000000+00:00</time></trkpt><trkpt lat="63.98519898" lon="-18.97683716"><ele>577.0</ele><time>2012-07-24T12:20:14.0000000+00:00</time></trkpt><trkpt lat="63.98530197" lon="-18.97643089"><ele>576.1</ele><time>2012-07-24T12:20:19.0000000+00:00</time></trkpt><trkpt lat="63.98538971" lon="-18.97602081"><ele>577.8</ele><time>2012-07-24T12:20:24.0000000+00:00</time></trkpt><trkpt lat="63.98545837" lon="-18.97562408"><ele>578.3</ele><time>2012-07-24T12:20:29.0000000+00:00</time></trkpt><trkpt lat="63.98547745" lon="-18.97528076"><ele>579.0</ele><time>2012-07-24T12:20:34.0000000+00:00</time></trkpt><trkpt lat="63.98548889" lon="-18.97494698"><ele>580.3</ele><time>2012-07-24T12:20:39.0000000+00:00</time></trkpt><trkpt lat="63.98551178" lon="-18.97457695"><ele>579.9</ele><time>2012-07-24T12:20:44.0000000+00:00</time></trkpt><trkpt lat="63.98553085" lon="-18.97420502"><ele>580.1</ele><time>2012-07-24T12:20:49.0000000+00:00</time></trkpt><trkpt lat="63.9855423" lon="-18.97388077"><ele>579.6</ele><time>2012-07-24T12:20:54.0000000+00:00</time></trkpt><trkpt lat="63.98553467" lon="-18.97343063"><ele>577.9</ele><time>2012-07-24T12:20:59.0000000+00:00</time></trkpt><trkpt lat="63.98548508" lon="-18.97280121"><ele>578.1</ele><time>2012-07-24T12:21:04.0000000+00:00</time></trkpt><trkpt lat="63.98545456" lon="-18.97227097"><ele>578.1</ele><time>2012-07-24T12:21:09.0000000+00:00</time></trkpt><trkpt lat="63.98542023" lon="-18.97178078"><ele>578.0</ele><time>2012-07-24T12:21:14.0000000+00:00</time></trkpt><trkpt lat="63.98539352" lon="-18.97133446"><ele>577.6</ele><time>2012-07-24T12:21:19.0000000+00:00</time></trkpt><trkpt lat="63.98536682" lon="-18.97092056"><ele>577.9</ele><time>2012-07-24T12:21:24.0000000+00:00</time></trkpt><trkpt lat="63.98534012" lon="-18.97050858"><ele>577.6</ele><time>2012-07-24T12:21:29.0000000+00:00</time></trkpt><trkpt lat="63.98531723" lon="-18.97010613"><ele>577.8</ele><time>2012-07-24T12:21:34.0000000+00:00</time></trkpt><trkpt lat="63.9852829" lon="-18.96966171"><ele>577.6</ele><time>2012-07-24T12:21:39.0000000+00:00</time></trkpt><trkpt lat="63.98526382" lon="-18.96920204"><ele>578.3</ele><time>2012-07-24T12:21:44.0000000+00:00</time></trkpt><trkpt lat="63.98521805" lon="-18.96875954"><ele>578.1</ele><time>2012-07-24T12:21:49.0000000+00:00</time></trkpt><trkpt lat="63.98519135" lon="-18.96831703"><ele>576.8</ele><time>2012-07-24T12:21:54.0000000+00:00</time></trkpt><trkpt lat="63.98517609" lon="-18.96792221"><ele>577.1</ele><time>2012-07-24T12:21:59.0000000+00:00</time></trkpt><trkpt lat="63.98521042" lon="-18.96753693"><ele>578.8</ele><time>2012-07-24T12:22:04.0000000+00:00</time></trkpt><trkpt lat="63.98527908" lon="-18.96721458"><ele>579.5</ele><time>2012-07-24T12:22:09.0000000+00:00</time></trkpt><trkpt lat="63.98540497" lon="-18.96691513"><ele>579.3</ele><time>2012-07-24T12:22:14.0000000+00:00</time></trkpt><trkpt lat="63.985569" lon="-18.96669388"><ele>578.2</ele><time>2012-07-24T12:22:19.0000000+00:00</time></trkpt><trkpt lat="63.9856987" lon="-18.96645546"><ele>576.7</ele><time>2012-07-24T12:22:24.0000000+00:00</time></trkpt><trkpt lat="63.98584747" lon="-18.96623612"><ele>577.2</ele><time>2012-07-24T12:22:29.0000000+00:00</time></trkpt><trkpt lat="63.98601914" lon="-18.96595573"><ele>578.8</ele><time>2012-07-24T12:22:34.0000000+00:00</time></trkpt><trkpt lat="63.98619461" lon="-18.96563721"><ele>578.8</ele><time>2012-07-24T12:22:39.0000000+00:00</time></trkpt><trkpt lat="63.9863739" lon="-18.96535873"><ele>578.8</ele><time>2012-07-24T12:22:44.0000000+00:00</time></trkpt><trkpt lat="63.98651886" lon="-18.96511269"><ele>579.3</ele><time>2012-07-24T12:22:49.0000000+00:00</time></trkpt><trkpt lat="63.98666" lon="-18.9648838"><ele>579.3</ele><time>2012-07-24T12:22:54.0000000+00:00</time></trkpt><trkpt lat="63.98681259" lon="-18.96460533"><ele>578.5</ele><time>2012-07-24T12:22:59.0000000+00:00</time></trkpt><trkpt lat="63.98696137" lon="-18.96426773"><ele>578.0</ele><time>2012-07-24T12:23:04.0000000+00:00</time></trkpt><trkpt lat="63.98711014" lon="-18.963974"><ele>577.2</ele><time>2012-07-24T12:23:09.0000000+00:00</time></trkpt><trkpt lat="63.98723984" lon="-18.9636631"><ele>576.1</ele><time>2012-07-24T12:23:14.0000000+00:00</time></trkpt><trkpt lat="63.98735428" lon="-18.96332932"><ele>575.8</ele><time>2012-07-24T12:23:19.0000000+00:00</time></trkpt><trkpt lat="63.98748016" lon="-18.96301842"><ele>574.8</ele><time>2012-07-24T12:23:24.0000000+00:00</time></trkpt><trkpt lat="63.98757553" lon="-18.96265793"><ele>572.4</ele><time>2012-07-24T12:23:29.0000000+00:00</time></trkpt><trkpt lat="63.9876442" lon="-18.96226883"><ele>571.4</ele><time>2012-07-24T12:23:34.0000000+00:00</time></trkpt><trkpt lat="63.98772049" lon="-18.96195221"><ele>572.2</ele><time>2012-07-24T12:23:39.0000000+00:00</time></trkpt><trkpt lat="63.98779678" lon="-18.96163559"><ele>573.7</ele><time>2012-07-24T12:23:44.0000000+00:00</time></trkpt><trkpt lat="63.98786163" lon="-18.96127129"><ele>573.8</ele><time>2012-07-24T12:23:49.0000000+00:00</time></trkpt><trkpt lat="63.98794174" lon="-18.96086502"><ele>574.3</ele><time>2012-07-24T12:23:54.0000000+00:00</time></trkpt><trkpt lat="63.98802185" lon="-18.9604435"><ele>575.3</ele><time>2012-07-24T12:23:59.0000000+00:00</time></trkpt><trkpt lat="63.9880867" lon="-18.96003151"><ele>573.4</ele><time>2012-07-24T12:24:04.0000000+00:00</time></trkpt><trkpt lat="63.98816299" lon="-18.95962715"><ele>572.8</ele><time>2012-07-24T12:24:09.0000000+00:00</time></trkpt><trkpt lat="63.9882164" lon="-18.95920754"><ele>573.0</ele><time>2012-07-24T12:24:14.0000000+00:00</time></trkpt><trkpt lat="63.98825836" lon="-18.95886421"><ele>572.3</ele><time>2012-07-24T12:24:19.0000000+00:00</time></trkpt><trkpt lat="63.98831177" lon="-18.9584713"><ele>572.0</ele><time>2012-07-24T12:24:24.0000000+00:00</time></trkpt><trkpt lat="63.9883728" lon="-18.95802879"><ele>571.9</ele><time>2012-07-24T12:24:29.0000000+00:00</time></trkpt><trkpt lat="63.98843002" lon="-18.95757675"><ele>573.0</ele><time>2012-07-24T12:24:34.0000000+00:00</time></trkpt><trkpt lat="63.98848724" lon="-18.95714569"><ele>572.5</ele><time>2012-07-24T12:24:39.0000000+00:00</time></trkpt><trkpt lat="63.98855591" lon="-18.95671272"><ele>571.9</ele><time>2012-07-24T12:24:44.0000000+00:00</time></trkpt><trkpt lat="63.98859406" lon="-18.95629311"><ele>572.2</ele><time>2012-07-24T12:24:49.0000000+00:00</time></trkpt><trkpt lat="63.98865509" lon="-18.95588875"><ele>573.2</ele><time>2012-07-24T12:24:54.0000000+00:00</time></trkpt><trkpt lat="63.98871994" lon="-18.95546722"><ele>574.3</ele><time>2012-07-24T12:24:59.0000000+00:00</time></trkpt><trkpt lat="63.98877716" lon="-18.95503044"><ele>575.1</ele><time>2012-07-24T12:25:04.0000000+00:00</time></trkpt><trkpt lat="63.98882294" lon="-18.95459747"><ele>574.0</ele><time>2012-07-24T12:25:09.0000000+00:00</time></trkpt><trkpt lat="63.98888779" lon="-18.95417976"><ele>574.6</ele><time>2012-07-24T12:25:14.0000000+00:00</time></trkpt><trkpt lat="63.98895264" lon="-18.95376968"><ele>573.9</ele><time>2012-07-24T12:25:19.0000000+00:00</time></trkpt><trkpt lat="63.98900223" lon="-18.95332718"><ele>573.2</ele><time>2012-07-24T12:25:24.0000000+00:00</time></trkpt><trkpt lat="63.98906326" lon="-18.95289993"><ele>572.6</ele><time>2012-07-24T12:25:29.0000000+00:00</time></trkpt><trkpt lat="63.98911285" lon="-18.95242882"><ele>572.4</ele><time>2012-07-24T12:25:34.0000000+00:00</time></trkpt><trkpt lat="63.9891777" lon="-18.95198822"><ele>572.1</ele><time>2012-07-24T12:25:39.0000000+00:00</time></trkpt><trkpt lat="63.9892273" lon="-18.9516182"><ele>571.6</ele><time>2012-07-24T12:25:44.0000000+00:00</time></trkpt><trkpt lat="63.98929596" lon="-18.95123673"><ele>572.1</ele><time>2012-07-24T12:25:49.0000000+00:00</time></trkpt><trkpt lat="63.98936462" lon="-18.95086289"><ele>572.2</ele><time>2012-07-24T12:25:54.0000000+00:00</time></trkpt><trkpt lat="63.98944092" lon="-18.95049095"><ele>573.2</ele><time>2012-07-24T12:25:59.0000000+00:00</time></trkpt><trkpt lat="63.98952484" lon="-18.95014381"><ele>572.9</ele><time>2012-07-24T12:26:04.0000000+00:00</time></trkpt><trkpt lat="63.98962784" lon="-18.94980049"><ele>573.7</ele><time>2012-07-24T12:26:09.0000000+00:00</time></trkpt><trkpt lat="63.98972321" lon="-18.94948769"><ele>573.1</ele><time>2012-07-24T12:26:14.0000000+00:00</time></trkpt><trkpt lat="63.98983002" lon="-18.94920158"><ele>572.9</ele><time>2012-07-24T12:26:19.0000000+00:00</time></trkpt><trkpt lat="63.9899559" lon="-18.94889069"><ele>572.4</ele><time>2012-07-24T12:26:24.0000000+00:00</time></trkpt><trkpt lat="63.9900322" lon="-18.94855881"><ele>571.8</ele><time>2012-07-24T12:26:29.0000000+00:00</time></trkpt><trkpt lat="63.99015045" lon="-18.94821167"><ele>570.3</ele><time>2012-07-24T12:26:34.0000000+00:00</time></trkpt><trkpt lat="63.99026108" lon="-18.94787598"><ele>570.8</ele><time>2012-07-24T12:26:39.0000000+00:00</time></trkpt><trkpt lat="63.99036026" lon="-18.94751549"><ele>570.8</ele><time>2012-07-24T12:26:44.0000000+00:00</time></trkpt><trkpt lat="63.99045944" lon="-18.94714737"><ele>572.1</ele><time>2012-07-24T12:26:49.0000000+00:00</time></trkpt><trkpt lat="63.99055481" lon="-18.94682884"><ele>572.2</ele><time>2012-07-24T12:26:54.0000000+00:00</time></trkpt><trkpt lat="63.99061585" lon="-18.94651794"><ele>573.4</ele><time>2012-07-24T12:26:59.0000000+00:00</time></trkpt><trkpt lat="63.99066544" lon="-18.94627762"><ele>573.9</ele><time>2012-07-24T12:27:04.0000000+00:00</time></trkpt><trkpt lat="63.99069977" lon="-18.94600487"><ele>572.7</ele><time>2012-07-24T12:27:09.0000000+00:00</time></trkpt><trkpt lat="63.9907341" lon="-18.94571114"><ele>570.9</ele><time>2012-07-24T12:27:14.0000000+00:00</time></trkpt><trkpt lat="63.99080277" lon="-18.94537544"><ele>577.0</ele><time>2012-07-24T12:27:19.0000000+00:00</time></trkpt><trkpt lat="63.99084091" lon="-18.94505882"><ele>575.6</ele><time>2012-07-24T12:27:24.0000000+00:00</time></trkpt><trkpt lat="63.99088669" lon="-18.94473267"><ele>575.7</ele><time>2012-07-24T12:27:29.0000000+00:00</time></trkpt><trkpt lat="63.99091339" lon="-18.9444046"><ele>573.5</ele><time>2012-07-24T12:27:34.0000000+00:00</time></trkpt><trkpt lat="63.99094772" lon="-18.94407654"><ele>572.3</ele><time>2012-07-24T12:27:39.0000000+00:00</time></trkpt><trkpt lat="63.99098587" lon="-18.94374275"><ele>572.3</ele><time>2012-07-24T12:27:44.0000000+00:00</time></trkpt><trkpt lat="63.9910202" lon="-18.94342804"><ele>571.5</ele><time>2012-07-24T12:27:49.0000000+00:00</time></trkpt><trkpt lat="63.99106216" lon="-18.9431324"><ele>569.8</ele><time>2012-07-24T12:27:54.0000000+00:00</time></trkpt><trkpt lat="63.99110031" lon="-18.94284248"><ele>570.5</ele><time>2012-07-24T12:27:59.0000000+00:00</time></trkpt><trkpt lat="63.99114227" lon="-18.94255066"><ele>571.6</ele><time>2012-07-24T12:28:04.0000000+00:00</time></trkpt><trkpt lat="63.99117661" lon="-18.94220161"><ele>571.3</ele><time>2012-07-24T12:28:09.0000000+00:00</time></trkpt><trkpt lat="63.99122238" lon="-18.94182968"><ele>572.4</ele><time>2012-07-24T12:28:14.0000000+00:00</time></trkpt><trkpt lat="63.99126816" lon="-18.94145966"><ele>572.3</ele><time>2012-07-24T12:28:19.0000000+00:00</time></trkpt><trkpt lat="63.99130631" lon="-18.94107246"><ele>573.0</ele><time>2012-07-24T12:28:24.0000000+00:00</time></trkpt><trkpt lat="63.9913559" lon="-18.94070816"><ele>573.9</ele><time>2012-07-24T12:28:29.0000000+00:00</time></trkpt><trkpt lat="63.99138641" lon="-18.94038582"><ele>572.4</ele><time>2012-07-24T12:28:34.0000000+00:00</time></trkpt><trkpt lat="63.99141693" lon="-18.94001579"><ele>572.7</ele><time>2012-07-24T12:28:39.0000000+00:00</time></trkpt><trkpt lat="63.99144363" lon="-18.93968964"><ele>573.0</ele><time>2012-07-24T12:28:44.0000000+00:00</time></trkpt><trkpt lat="63.99146271" lon="-18.93961334"><ele>573.2</ele><time>2012-07-24T12:28:49.0000000+00:00</time></trkpt><trkpt lat="63.99146271" lon="-18.93962097"><ele>572.6</ele><time>2012-07-24T12:28:54.0000000+00:00</time></trkpt><trkpt lat="63.99146271" lon="-18.93962097"><ele>572.6</ele><time>2012-07-24T12:28:59.0000000+00:00</time></trkpt><trkpt lat="63.99146271" lon="-18.93962288"><ele>572.5</ele><time>2012-07-24T12:29:04.0000000+00:00</time></trkpt><trkpt lat="63.99146271" lon="-18.93962288"><ele>572.6</ele><time>2012-07-24T12:29:09.0000000+00:00</time></trkpt><trkpt lat="63.99146271" lon="-18.93962097"><ele>572.7</ele><time>2012-07-24T12:29:14.0000000+00:00</time></trkpt><trkpt lat="63.99146652" lon="-18.93962479"><ele>572.9</ele><time>2012-07-24T12:29:19.0000000+00:00</time></trkpt><trkpt lat="63.99147797" lon="-18.93951607"><ele>573.1</ele><time>2012-07-24T12:29:24.0000000+00:00</time></trkpt><trkpt lat="63.9914856" lon="-18.93917465"><ele>571.4</ele><time>2012-07-24T12:29:29.0000000+00:00</time></trkpt><trkpt lat="63.9914856" lon="-18.93880844"><ele>569.0</ele><time>2012-07-24T12:29:34.0000000+00:00</time></trkpt><trkpt lat="63.99149704" lon="-18.93848229"><ele>569.5</ele><time>2012-07-24T12:29:39.0000000+00:00</time></trkpt><trkpt lat="63.99150848" lon="-18.93815041"><ele>570.1</ele><time>2012-07-24T12:29:44.0000000+00:00</time></trkpt><trkpt lat="63.99149704" lon="-18.93782806"><ele>571.5</ele><time>2012-07-24T12:29:49.0000000+00:00</time></trkpt><trkpt lat="63.9914856" lon="-18.93745613"><ele>572.1</ele><time>2012-07-24T12:29:54.0000000+00:00</time></trkpt><trkpt lat="63.99145889" lon="-18.93704987"><ele>572.0</ele><time>2012-07-24T12:29:59.0000000+00:00</time></trkpt><trkpt lat="63.99143219" lon="-18.93664551"><ele>571.8</ele><time>2012-07-24T12:30:04.0000000+00:00</time></trkpt><trkpt lat="63.99140167" lon="-18.93625259"><ele>572.0</ele><time>2012-07-24T12:30:09.0000000+00:00</time></trkpt><trkpt lat="63.99135208" lon="-18.935812"><ele>572.4</ele><time>2012-07-24T12:30:14.0000000+00:00</time></trkpt><trkpt lat="63.99130631" lon="-18.93535042"><ele>572.4</ele><time>2012-07-24T12:30:19.0000000+00:00</time></trkpt><trkpt lat="63.99127579" lon="-18.93487549"><ele>572.2</ele><time>2012-07-24T12:30:24.0000000+00:00</time></trkpt><trkpt lat="63.9912529" lon="-18.93442535"><ele>572.0</ele><time>2012-07-24T12:30:29.0000000+00:00</time></trkpt><trkpt lat="63.9912529" lon="-18.93401337"><ele>573.5</ele><time>2012-07-24T12:30:34.0000000+00:00</time></trkpt><trkpt lat="63.9912529" lon="-18.93373489"><ele>575.5</ele><time>2012-07-24T12:30:39.0000000+00:00</time></trkpt><trkpt lat="63.99124527" lon="-18.93337441"><ele>575.8</ele><time>2012-07-24T12:30:44.0000000+00:00</time></trkpt><trkpt lat="63.99123383" lon="-18.93298531"><ele>575.2</ele><time>2012-07-24T12:30:49.0000000+00:00</time></trkpt><trkpt lat="63.9912262" lon="-18.93262863"><ele>574.9</ele><time>2012-07-24T12:30:54.0000000+00:00</time></trkpt><trkpt lat="63.9912262" lon="-18.93226814"><ele>576.0</ele><time>2012-07-24T12:30:59.0000000+00:00</time></trkpt><trkpt lat="63.99123383" lon="-18.93192291"><ele>577.0</ele><time>2012-07-24T12:31:04.0000000+00:00</time></trkpt><trkpt lat="63.99121857" lon="-18.93155289"><ele>577.8</ele><time>2012-07-24T12:31:09.0000000+00:00</time></trkpt><trkpt lat="63.99120331" lon="-18.93117523"><ele>578.2</ele><time>2012-07-24T12:31:14.0000000+00:00</time></trkpt><trkpt lat="63.99119568" lon="-18.93080711"><ele>578.9</ele><time>2012-07-24T12:31:19.0000000+00:00</time></trkpt><trkpt lat="63.99118424" lon="-18.93050003"><ele>580.2</ele><time>2012-07-24T12:31:24.0000000+00:00</time></trkpt><trkpt lat="63.99115372" lon="-18.93021774"><ele>580.4</ele><time>2012-07-24T12:31:29.0000000+00:00</time></trkpt><trkpt lat="63.9910965" lon="-18.92991066"><ele>578.9</ele><time>2012-07-24T12:31:34.0000000+00:00</time></trkpt><trkpt lat="63.99104309" lon="-18.92957497"><ele>579.3</ele><time>2012-07-24T12:31:39.0000000+00:00</time></trkpt><trkpt lat="63.99100876" lon="-18.92924118"><ele>580.4</ele><time>2012-07-24T12:31:44.0000000+00:00</time></trkpt><trkpt lat="63.99101257" lon="-18.92897797"><ele>578.4</ele><time>2012-07-24T12:31:49.0000000+00:00</time></trkpt><trkpt lat="63.99101257" lon="-18.92871285"><ele>577.2</ele><time>2012-07-24T12:31:54.0000000+00:00</time></trkpt><trkpt lat="63.9910202" lon="-18.92843056"><ele>579.0</ele><time>2012-07-24T12:31:59.0000000+00:00</time></trkpt><trkpt lat="63.99103165" lon="-18.92807198"><ele>579.7</ele><time>2012-07-24T12:32:04.0000000+00:00</time></trkpt><trkpt lat="63.99103546" lon="-18.92791557"><ele>580.1</ele><time>2012-07-24T12:32:09.0000000+00:00</time></trkpt><trkpt lat="63.99103165" lon="-18.92791748"><ele>580.3</ele><time>2012-07-24T12:32:14.0000000+00:00</time></trkpt><trkpt lat="63.99103546" lon="-18.92791748"><ele>580.3</ele><time>2012-07-24T12:32:19.0000000+00:00</time></trkpt><trkpt lat="63.99103165" lon="-18.92791557"><ele>580.3</ele><time>2012-07-24T12:32:24.0000000+00:00</time></trkpt><trkpt lat="63.99103546" lon="-18.92791557"><ele>580.3</ele><time>2012-07-24T12:32:29.0000000+00:00</time></trkpt><trkpt lat="63.99103546" lon="-18.92791557"><ele>580.3</ele><time>2012-07-24T12:32:34.0000000+00:00</time></trkpt><trkpt lat="63.99103165" lon="-18.92791557"><ele>580.3</ele><time>2012-07-24T12:32:39.0000000+00:00</time></trkpt><trkpt lat="63.99103546" lon="-18.92786598"><ele>580.3</ele><time>2012-07-24T12:32:44.0000000+00:00</time></trkpt><trkpt lat="63.99104691" lon="-18.92757797"><ele>581.3</ele><time>2012-07-24T12:32:49.0000000+00:00</time></trkpt><trkpt lat="63.99103928" lon="-18.92729378"><ele>582.7</ele><time>2012-07-24T12:32:54.0000000+00:00</time></trkpt><trkpt lat="63.99102783" lon="-18.92702675"><ele>582.1</ele><time>2012-07-24T12:32:59.0000000+00:00</time></trkpt><trkpt lat="63.99100876" lon="-18.92687035"><ele>581.9</ele><time>2012-07-24T12:33:04.0000000+00:00</time></trkpt><trkpt lat="63.99098969" lon="-18.92682076"><ele>580.2</ele><time>2012-07-24T12:33:09.0000000+00:00</time></trkpt><trkpt lat="63.99098587" lon="-18.92683029"><ele>579.8</ele><time>2012-07-24T12:33:14.0000000+00:00</time></trkpt><trkpt lat="63.99098587" lon="-18.92683601"><ele>579.5</ele><time>2012-07-24T12:33:19.0000000+00:00</time></trkpt><trkpt lat="63.99098587" lon="-18.92683411"><ele>579.3</ele><time>2012-07-24T12:33:24.0000000+00:00</time></trkpt><trkpt lat="63.99098587" lon="-18.92683411"><ele>579.2</ele><time>2012-07-24T12:33:29.0000000+00:00</time></trkpt><trkpt lat="63.99098587" lon="-18.92683411"><ele>579.2</ele><time>2012-07-24T12:33:34.0000000+00:00</time></trkpt><trkpt lat="63.99098587" lon="-18.92683411"><ele>579.2</ele><time>2012-07-24T12:33:39.0000000+00:00</time></trkpt><trkpt lat="63.99098587" lon="-18.92683411"><ele>579.2</ele><time>2012-07-24T12:33:44.0000000+00:00</time></trkpt><trkpt lat="63.99098587" lon="-18.92683411"><ele>579.2</ele><time>2012-07-24T12:33:49.0000000+00:00</time></trkpt><trkpt lat="63.99098587" lon="-18.92683411"><ele>579.2</ele><time>2012-07-24T12:33:54.0000000+00:00</time></trkpt><trkpt lat="63.99098587" lon="-18.92683411"><ele>579.2</ele><time>2012-07-24T12:33:59.0000000+00:00</time></trkpt><trkpt lat="63.99098587" lon="-18.92683601"><ele>579.2</ele><time>2012-07-24T12:34:04.0000000+00:00</time></trkpt><trkpt lat="63.99098587" lon="-18.92683601"><ele>579.2</ele><time>2012-07-24T12:34:09.0000000+00:00</time></trkpt><trkpt lat="63.99098587" lon="-18.92683601"><ele>579.2</ele><time>2012-07-24T12:34:14.0000000+00:00</time></trkpt><trkpt lat="63.99098206" lon="-18.92681885"><ele>579.2</ele><time>2012-07-24T12:34:19.0000000+00:00</time></trkpt><trkpt lat="63.99098587" lon="-18.9266777"><ele>579.8</ele><time>2012-07-24T12:34:24.0000000+00:00</time></trkpt><trkpt lat="63.9909668" lon="-18.92647362"><ele>580.1</ele><time>2012-07-24T12:34:29.0000000+00:00</time></trkpt><trkpt lat="63.99094772" lon="-18.92626953"><ele>581.1</ele><time>2012-07-24T12:34:34.0000000+00:00</time></trkpt><trkpt lat="63.99090958" lon="-18.9259243"><ele>580.8</ele><time>2012-07-24T12:34:39.0000000+00:00</time></trkpt><trkpt lat="63.99084473" lon="-18.92547798"><ele>581.0</ele><time>2012-07-24T12:34:44.0000000+00:00</time></trkpt><trkpt lat="63.99077606" lon="-18.92500877"><ele>582.8</ele><time>2012-07-24T12:34:49.0000000+00:00</time></trkpt><trkpt lat="63.99071121" lon="-18.92460632"><ele>583.3</ele><time>2012-07-24T12:34:54.0000000+00:00</time></trkpt><trkpt lat="63.99063873" lon="-18.92423058"><ele>582.8</ele><time>2012-07-24T12:34:59.0000000+00:00</time></trkpt><trkpt lat="63.990551" lon="-18.92391777"><ele>579.9</ele><time>2012-07-24T12:35:04.0000000+00:00</time></trkpt><trkpt lat="63.99045181" lon="-18.92367363"><ele>579.7</ele><time>2012-07-24T12:35:09.0000000+00:00</time></trkpt><trkpt lat="63.99034882" lon="-18.92345619"><ele>579.1</ele><time>2012-07-24T12:35:14.0000000+00:00</time></trkpt><trkpt lat="63.99023438" lon="-18.92329598"><ele>580.2</ele><time>2012-07-24T12:35:19.0000000+00:00</time></trkpt><trkpt lat="63.99012375" lon="-18.92316437"><ele>579.9</ele><time>2012-07-24T12:35:24.0000000+00:00</time></trkpt><trkpt lat="63.99002457" lon="-18.92300987"><ele>580.8</ele><time>2012-07-24T12:35:29.0000000+00:00</time></trkpt><trkpt lat="63.98993301" lon="-18.92290688"><ele>581.3</ele><time>2012-07-24T12:35:34.0000000+00:00</time></trkpt><trkpt lat="63.98988342" lon="-18.92283821"><ele>582.4</ele><time>2012-07-24T12:35:39.0000000+00:00</time></trkpt><trkpt lat="63.9897995" lon="-18.92278671"><ele>583.1</ele><time>2012-07-24T12:35:44.0000000+00:00</time></trkpt><trkpt lat="63.98973465" lon="-18.92269325"><ele>583.6</ele><time>2012-07-24T12:35:49.0000000+00:00</time></trkpt><trkpt lat="63.9896698" lon="-18.92257309"><ele>585.9</ele><time>2012-07-24T12:35:54.0000000+00:00</time></trkpt><trkpt lat="63.98960495" lon="-18.9224453"><ele>588.5</ele><time>2012-07-24T12:35:59.0000000+00:00</time></trkpt><trkpt lat="63.98952484" lon="-18.92231178"><ele>588.7</ele><time>2012-07-24T12:36:04.0000000+00:00</time></trkpt><trkpt lat="63.98945236" lon="-18.92217255"><ele>588.8</ele><time>2012-07-24T12:36:09.0000000+00:00</time></trkpt><trkpt lat="63.98937607" lon="-18.92202187"><ele>588.7</ele><time>2012-07-24T12:36:14.0000000+00:00</time></trkpt><trkpt lat="63.98928452" lon="-18.92185402"><ele>588.5</ele><time>2012-07-24T12:36:19.0000000+00:00</time></trkpt><trkpt lat="63.98921967" lon="-18.92163086"><ele>588.0</ele><time>2012-07-24T12:36:24.0000000+00:00</time></trkpt><trkpt lat="63.98918915" lon="-18.92145157"><ele>585.6</ele><time>2012-07-24T12:36:29.0000000+00:00</time></trkpt><trkpt lat="63.98914719" lon="-18.92126465"><ele>584.8</ele><time>2012-07-24T12:36:34.0000000+00:00</time></trkpt><trkpt lat="63.98911285" lon="-18.92106438"><ele>584.7</ele><time>2012-07-24T12:36:39.0000000+00:00</time></trkpt><trkpt lat="63.98908997" lon="-18.92086029"><ele>584.6</ele><time>2012-07-24T12:36:44.0000000+00:00</time></trkpt><trkpt lat="63.98908234" lon="-18.92064095"><ele>587.6</ele><time>2012-07-24T12:36:49.0000000+00:00</time></trkpt><trkpt lat="63.9890976" lon="-18.92043114"><ele>593.3</ele><time>2012-07-24T12:36:54.0000000+00:00</time></trkpt><trkpt lat="63.98910904" lon="-18.92016029"><ele>596.4</ele><time>2012-07-24T12:36:59.0000000+00:00</time></trkpt><trkpt lat="63.98910141" lon="-18.91986084"><ele>595.4</ele><time>2012-07-24T12:37:04.0000000+00:00</time></trkpt><trkpt lat="63.98907471" lon="-18.91959"><ele>595.3</ele><time>2012-07-24T12:37:09.0000000+00:00</time></trkpt><trkpt lat="63.98904038" lon="-18.91944122"><ele>595.7</ele><time>2012-07-24T12:37:14.0000000+00:00</time></trkpt><trkpt lat="63.98901367" lon="-18.91931152"><ele>595.1</ele><time>2012-07-24T12:37:19.0000000+00:00</time></trkpt><trkpt lat="63.98897934" lon="-18.91915512"><ele>595.0</ele><time>2012-07-24T12:37:24.0000000+00:00</time></trkpt><trkpt lat="63.98892593" lon="-18.91903687"><ele>595.9</ele><time>2012-07-24T12:37:29.0000000+00:00</time></trkpt><trkpt lat="63.98888397" lon="-18.91889381"><ele>596.3</ele><time>2012-07-24T12:37:34.0000000+00:00</time></trkpt><trkpt lat="63.98884201" lon="-18.91878128"><ele>597.6</ele><time>2012-07-24T12:37:39.0000000+00:00</time></trkpt><trkpt lat="63.9888382" lon="-18.91863823"><ele>597.4</ele><time>2012-07-24T12:37:44.0000000+00:00</time></trkpt><trkpt lat="63.98881531" lon="-18.91843605"><ele>597.3</ele><time>2012-07-24T12:37:49.0000000+00:00</time></trkpt><trkpt lat="63.98877716" lon="-18.91826248"><ele>598.0</ele><time>2012-07-24T12:37:54.0000000+00:00</time></trkpt><trkpt lat="63.98877335" lon="-18.91809082"><ele>597.5</ele><time>2012-07-24T12:37:59.0000000+00:00</time></trkpt><trkpt lat="63.98875427" lon="-18.91794777"><ele>598.0</ele><time>2012-07-24T12:38:04.0000000+00:00</time></trkpt><trkpt lat="63.98873138" lon="-18.91777992"><ele>598.6</ele><time>2012-07-24T12:38:09.0000000+00:00</time></trkpt><trkpt lat="63.98871231" lon="-18.91765595"><ele>599.9</ele><time>2012-07-24T12:38:14.0000000+00:00</time></trkpt><trkpt lat="63.98868561" lon="-18.91750717"><ele>599.0</ele><time>2012-07-24T12:38:19.0000000+00:00</time></trkpt><trkpt lat="63.98866653" lon="-18.91736412"><ele>599.8</ele><time>2012-07-24T12:38:24.0000000+00:00</time></trkpt><trkpt lat="63.98865891" lon="-18.91720581"><ele>599.6</ele><time>2012-07-24T12:38:29.0000000+00:00</time></trkpt><trkpt lat="63.98866272" lon="-18.91703224"><ele>601.8</ele><time>2012-07-24T12:38:34.0000000+00:00</time></trkpt><trkpt lat="63.98868179" lon="-18.91690636"><ele>604.6</ele><time>2012-07-24T12:38:39.0000000+00:00</time></trkpt><trkpt lat="63.98868942" lon="-18.91671753"><ele>605.8</ele><time>2012-07-24T12:38:44.0000000+00:00</time></trkpt><trkpt lat="63.98871613" lon="-18.91653442"><ele>605.8</ele><time>2012-07-24T12:38:49.0000000+00:00</time></trkpt><trkpt lat="63.98872757" lon="-18.91637993"><ele>606.6</ele><time>2012-07-24T12:38:54.0000000+00:00</time></trkpt><trkpt lat="63.98874664" lon="-18.91621971"><ele>606.9</ele><time>2012-07-24T12:38:59.0000000+00:00</time></trkpt><trkpt lat="63.9887619" lon="-18.91607094"><ele>608.0</ele><time>2012-07-24T12:39:04.0000000+00:00</time></trkpt><trkpt lat="63.98874283" lon="-18.91587257"><ele>609.1</ele><time>2012-07-24T12:39:09.0000000+00:00</time></trkpt><trkpt lat="63.98871613" lon="-18.91565895"><ele>608.0</ele><time>2012-07-24T12:39:14.0000000+00:00</time></trkpt><trkpt lat="63.98867798" lon="-18.91549683"><ele>608.1</ele><time>2012-07-24T12:39:19.0000000+00:00</time></trkpt><trkpt lat="63.98864746" lon="-18.91528893"><ele>607.8</ele><time>2012-07-24T12:39:24.0000000+00:00</time></trkpt><trkpt lat="63.98859406" lon="-18.91509247"><ele>613.1</ele><time>2012-07-24T12:39:29.0000000+00:00</time></trkpt><trkpt lat="63.98852158" lon="-18.91490173"><ele>612.1</ele><time>2012-07-24T12:39:34.0000000+00:00</time></trkpt><trkpt lat="63.98847961" lon="-18.91476822"><ele>613.6</ele><time>2012-07-24T12:39:39.0000000+00:00</time></trkpt><trkpt lat="63.98841476" lon="-18.91461563"><ele>613.8</ele><time>2012-07-24T12:39:44.0000000+00:00</time></trkpt><trkpt lat="63.98835373" lon="-18.91447067"><ele>612.8</ele><time>2012-07-24T12:39:49.0000000+00:00</time></trkpt><trkpt lat="63.98829651" lon="-18.91436195"><ele>613.5</ele><time>2012-07-24T12:39:54.0000000+00:00</time></trkpt><trkpt lat="63.98830032" lon="-18.91435623"><ele>613.2</ele><time>2012-07-24T12:39:59.0000000+00:00</time></trkpt><trkpt lat="63.98830032" lon="-18.91435242"><ele>613.2</ele><time>2012-07-24T12:40:04.0000000+00:00</time></trkpt><trkpt lat="63.98830032" lon="-18.91435051"><ele>613.0</ele><time>2012-07-24T12:40:09.0000000+00:00</time></trkpt><trkpt lat="63.98830032" lon="-18.91435051"><ele>612.9</ele><time>2012-07-24T12:40:14.0000000+00:00</time></trkpt><trkpt lat="63.98830032" lon="-18.91435051"><ele>612.8</ele><time>2012-07-24T12:40:19.0000000+00:00</time></trkpt><trkpt lat="63.98830032" lon="-18.91435051"><ele>612.8</ele><time>2012-07-24T12:40:24.0000000+00:00</time></trkpt><trkpt lat="63.98830032" lon="-18.91435051"><ele>612.8</ele><time>2012-07-24T12:40:29.0000000+00:00</time></trkpt><trkpt lat="63.98830032" lon="-18.91435051"><ele>612.8</ele><time>2012-07-24T12:40:34.0000000+00:00</time></trkpt><trkpt lat="63.98830032" lon="-18.91435051"><ele>612.8</ele><time>2012-07-24T12:40:39.0000000+00:00</time></trkpt><trkpt lat="63.98830032" lon="-18.91435051"><ele>612.8</ele><time>2012-07-24T12:40:44.0000000+00:00</time></trkpt><trkpt lat="63.98830032" lon="-18.91435051"><ele>612.8</ele><time>2012-07-24T12:40:49.0000000+00:00</time></trkpt><trkpt lat="63.98830032" lon="-18.91435051"><ele>612.8</ele><time>2012-07-24T12:40:54.0000000+00:00</time></trkpt><trkpt lat="63.98830032" lon="-18.9143486"><ele>612.8</ele><time>2012-07-24T12:40:59.0000000+00:00</time></trkpt><trkpt lat="63.98830032" lon="-18.9143486"><ele>612.8</ele><time>2012-07-24T12:41:04.0000000+00:00</time></trkpt><trkpt lat="63.98830032" lon="-18.9143486"><ele>612.7</ele><time>2012-07-24T12:41:09.0000000+00:00</time></trkpt><trkpt lat="63.98830032" lon="-18.9143486"><ele>612.7</ele><time>2012-07-24T12:41:14.0000000+00:00</time></trkpt><trkpt lat="63.98830032" lon="-18.9143486"><ele>612.7</ele><time>2012-07-24T12:41:19.0000000+00:00</time></trkpt><trkpt lat="63.98830032" lon="-18.9143486"><ele>612.7</ele><time>2012-07-24T12:41:24.0000000+00:00</time></trkpt><trkpt lat="63.98830032" lon="-18.9143486"><ele>612.6</ele><time>2012-07-24T12:41:29.0000000+00:00</time></trkpt><trkpt lat="63.98830032" lon="-18.9143486"><ele>612.6</ele><time>2012-07-24T12:41:34.0000000+00:00</time></trkpt><trkpt lat="63.98830032" lon="-18.9143486"><ele>612.6</ele><time>2012-07-24T12:41:39.0000000+00:00</time></trkpt><trkpt lat="63.98830032" lon="-18.9143486"><ele>612.6</ele><time>2012-07-24T12:41:44.0000000+00:00</time></trkpt><trkpt lat="63.98830032" lon="-18.9143486"><ele>612.6</ele><time>2012-07-24T12:41:49.0000000+00:00</time></trkpt><trkpt lat="63.98830032" lon="-18.9143486"><ele>612.6</ele><time>2012-07-24T12:41:54.0000000+00:00</time></trkpt><trkpt lat="63.98828507" lon="-18.91431999"><ele>612.2</ele><time>2012-07-24T12:41:59.0000000+00:00</time></trkpt><trkpt lat="63.98823929" lon="-18.91423225"><ele>611.6</ele><time>2012-07-24T12:42:04.0000000+00:00</time></trkpt><trkpt lat="63.98811722" lon="-18.91391754"><ele>609.5</ele><time>2012-07-24T12:42:09.0000000+00:00</time></trkpt><trkpt lat="63.98797607" lon="-18.91345787"><ele>608.4</ele><time>2012-07-24T12:42:14.0000000+00:00</time></trkpt><trkpt lat="63.98784256" lon="-18.91287804"><ele>602.6</ele><time>2012-07-24T12:42:19.0000000+00:00</time></trkpt><trkpt lat="63.98771668" lon="-18.91224098"><ele>597.6</ele><time>2012-07-24T12:42:24.0000000+00:00</time></trkpt><trkpt lat="63.98760223" lon="-18.91160202"><ele>592.3</ele><time>2012-07-24T12:42:29.0000000+00:00</time></trkpt><trkpt lat="63.98745346" lon="-18.91104126"><ele>588.0</ele><time>2012-07-24T12:42:34.0000000+00:00</time></trkpt><trkpt lat="63.98727036" lon="-18.91070747"><ele>584.3</ele><time>2012-07-24T12:42:39.0000000+00:00</time></trkpt><trkpt lat="63.9870491" lon="-18.91040039"><ele>582.1</ele><time>2012-07-24T12:42:44.0000000+00:00</time></trkpt><trkpt lat="63.98680115" lon="-18.91012955"><ele>579.2</ele><time>2012-07-24T12:42:49.0000000+00:00</time></trkpt><trkpt lat="63.98659515" lon="-18.90985489"><ele>576.4</ele><time>2012-07-24T12:42:54.0000000+00:00</time></trkpt><trkpt lat="63.98643112" lon="-18.9096508"><ele>574.7</ele><time>2012-07-24T12:42:59.0000000+00:00</time></trkpt><trkpt lat="63.98631668" lon="-18.90953255"><ele>575.2</ele><time>2012-07-24T12:43:04.0000000+00:00</time></trkpt><trkpt lat="63.98626709" lon="-18.90943527"><ele>573.9</ele><time>2012-07-24T12:43:09.0000000+00:00</time></trkpt><trkpt lat="63.98625183" lon="-18.90936089"><ele>573.8</ele><time>2012-07-24T12:43:14.0000000+00:00</time></trkpt><trkpt lat="63.98621368" lon="-18.90929031"><ele>573.5</ele><time>2012-07-24T12:43:19.0000000+00:00</time></trkpt><trkpt lat="63.9862175" lon="-18.90926933"><ele>573.1</ele><time>2012-07-24T12:43:24.0000000+00:00</time></trkpt><trkpt lat="63.9862175" lon="-18.90926933"><ele>573.1</ele><time>2012-07-24T12:43:29.0000000+00:00</time></trkpt><trkpt lat="63.9862175" lon="-18.90927124"><ele>573.1</ele><time>2012-07-24T12:43:34.0000000+00:00</time></trkpt><trkpt lat="63.9862175" lon="-18.90926933"><ele>573.1</ele><time>2012-07-24T12:43:39.0000000+00:00</time></trkpt><trkpt lat="63.9862175" lon="-18.90927124"><ele>573.1</ele><time>2012-07-24T12:43:44.0000000+00:00</time></trkpt><trkpt lat="63.9862175" lon="-18.90925407"><ele>573.4</ele><time>2012-07-24T12:43:49.0000000+00:00</time></trkpt><trkpt lat="63.98625946" lon="-18.90916824"><ele>574.0</ele><time>2012-07-24T12:43:54.0000000+00:00</time></trkpt><trkpt lat="63.98626709" lon="-18.90914345"><ele>574.4</ele><time>2012-07-24T12:43:59.0000000+00:00</time></trkpt><trkpt lat="63.98626709" lon="-18.90912628"><ele>574.3</ele><time>2012-07-24T12:44:04.0000000+00:00</time></trkpt><trkpt lat="63.98627091" lon="-18.90908241"><ele>575.1</ele><time>2012-07-24T12:44:09.0000000+00:00</time></trkpt><trkpt lat="63.98627853" lon="-18.90907669"><ele>575.0</ele><time>2012-07-24T12:44:14.0000000+00:00</time></trkpt><trkpt lat="63.98627853" lon="-18.90907669"><ele>575.0</ele><time>2012-07-24T12:44:19.0000000+00:00</time></trkpt><trkpt lat="63.98628998" lon="-18.90908051"><ele>574.4</ele><time>2012-07-24T12:44:24.0000000+00:00</time></trkpt><trkpt lat="63.98629761" lon="-18.90908051"><ele>573.0</ele><time>2012-07-24T12:44:29.0000000+00:00</time></trkpt><trkpt lat="63.98629761" lon="-18.90908051"><ele>573.0</ele><time>2012-07-24T12:44:34.0000000+00:00</time></trkpt><trkpt lat="63.98629761" lon="-18.90908051"><ele>573.0</ele><time>2012-07-24T12:44:39.0000000+00:00</time></trkpt><trkpt lat="63.98629761" lon="-18.9090786"><ele>573.0</ele><time>2012-07-24T12:44:44.0000000+00:00</time></trkpt><trkpt lat="63.98629761" lon="-18.9090786"><ele>573.0</ele><time>2012-07-24T12:44:49.0000000+00:00</time></trkpt><trkpt lat="63.98629761" lon="-18.9090786"><ele>572.9</ele><time>2012-07-24T12:44:54.0000000+00:00</time></trkpt><trkpt lat="63.98629761" lon="-18.9090786"><ele>572.9</ele><time>2012-07-24T12:44:59.0000000+00:00</time></trkpt><trkpt lat="63.98629761" lon="-18.9090786"><ele>572.9</ele><time>2012-07-24T12:45:04.0000000+00:00</time></trkpt><trkpt lat="63.98629761" lon="-18.9090786"><ele>572.9</ele><time>2012-07-24T12:45:09.0000000+00:00</time></trkpt><trkpt lat="63.98629761" lon="-18.9090786"><ele>572.8</ele><time>2012-07-24T12:45:14.0000000+00:00</time></trkpt><trkpt lat="63.98629761" lon="-18.9090786"><ele>572.8</ele><time>2012-07-24T12:45:19.0000000+00:00</time></trkpt><trkpt lat="63.98629761" lon="-18.9090786"><ele>572.8</ele><time>2012-07-24T12:45:24.0000000+00:00</time></trkpt><trkpt lat="63.98629761" lon="-18.9090786"><ele>572.8</ele><time>2012-07-24T12:45:29.0000000+00:00</time></trkpt><trkpt lat="63.98629761" lon="-18.9090786"><ele>572.8</ele><time>2012-07-24T12:45:34.0000000+00:00</time></trkpt><trkpt lat="63.98629761" lon="-18.9090786"><ele>572.8</ele><time>2012-07-24T12:45:39.0000000+00:00</time></trkpt><trkpt lat="63.98629761" lon="-18.9090786"><ele>572.8</ele><time>2012-07-24T12:45:44.0000000+00:00</time></trkpt><trkpt lat="63.98629761" lon="-18.9090786"><ele>572.8</ele><time>2012-07-24T12:45:49.0000000+00:00</time></trkpt><trkpt lat="63.98629761" lon="-18.9090786"><ele>572.8</ele><time>2012-07-24T12:45:54.0000000+00:00</time></trkpt><trkpt lat="63.98629761" lon="-18.9090786"><ele>572.8</ele><time>2012-07-24T12:45:59.0000000+00:00</time></trkpt><trkpt lat="63.98629761" lon="-18.9090786"><ele>572.8</ele><time>2012-07-24T12:46:04.0000000+00:00</time></trkpt><trkpt lat="63.98629761" lon="-18.9090786"><ele>572.8</ele><time>2012-07-24T12:46:09.0000000+00:00</time></trkpt><trkpt lat="63.98629761" lon="-18.9090786"><ele>572.8</ele><time>2012-07-24T12:46:14.0000000+00:00</time></trkpt><trkpt lat="63.98629761" lon="-18.9090786"><ele>572.8</ele><time>2012-07-24T12:46:19.0000000+00:00</time></trkpt><trkpt lat="63.98629761" lon="-18.9090786"><ele>572.8</ele><time>2012-07-24T12:46:24.0000000+00:00</time></trkpt><trkpt lat="63.98628235" lon="-18.90903664"><ele>571.9</ele><time>2012-07-24T12:46:29.0000000+00:00</time></trkpt><trkpt lat="63.98625565" lon="-18.90896797"><ele>572.0</ele><time>2012-07-24T12:46:34.0000000+00:00</time></trkpt><trkpt lat="63.9862442" lon="-18.90891266"><ele>572.4</ele><time>2012-07-24T12:46:39.0000000+00:00</time></trkpt><trkpt lat="63.98622131" lon="-18.90885544"><ele>573.7</ele><time>2012-07-24T12:46:44.0000000+00:00</time></trkpt><trkpt lat="63.9862175" lon="-18.90886307"><ele>574.5</ele><time>2012-07-24T12:46:49.0000000+00:00</time></trkpt><trkpt lat="63.9862175" lon="-18.90886307"><ele>574.5</ele><time>2012-07-24T12:46:54.0000000+00:00</time></trkpt><trkpt lat="63.98619461" lon="-18.9088726"><ele>574.4</ele><time>2012-07-24T12:46:59.0000000+00:00</time></trkpt><trkpt lat="63.98616409" lon="-18.9088707"><ele>574.5</ele><time>2012-07-24T12:47:04.0000000+00:00</time></trkpt><trkpt lat="63.98613358" lon="-18.90892601"><ele>574.6</ele><time>2012-07-24T12:47:09.0000000+00:00</time></trkpt><trkpt lat="63.9860878" lon="-18.90897942"><ele>574.5</ele><time>2012-07-24T12:47:14.0000000+00:00</time></trkpt><trkpt lat="63.98604965" lon="-18.90901947"><ele>576.0</ele><time>2012-07-24T12:47:19.0000000+00:00</time></trkpt><trkpt lat="63.98600769" lon="-18.90907097"><ele>576.7</ele><time>2012-07-24T12:47:24.0000000+00:00</time></trkpt><trkpt lat="63.98601151" lon="-18.90906334"><ele>576.9</ele><time>2012-07-24T12:47:29.0000000+00:00</time></trkpt><trkpt lat="63.98600006" lon="-18.90907097"><ele>576.8</ele><time>2012-07-24T12:47:34.0000000+00:00</time></trkpt><trkpt lat="63.98599243" lon="-18.90908051"><ele>576.8</ele><time>2012-07-24T12:47:39.0000000+00:00</time></trkpt><trkpt lat="63.98598099" lon="-18.90909386"><ele>576.7</ele><time>2012-07-24T12:47:44.0000000+00:00</time></trkpt><trkpt lat="63.98594666" lon="-18.90914536"><ele>577.9</ele><time>2012-07-24T12:47:49.0000000+00:00</time></trkpt><trkpt lat="63.98592758" lon="-18.90919304"><ele>578.8</ele><time>2012-07-24T12:47:54.0000000+00:00</time></trkpt><trkpt lat="63.98590469" lon="-18.90926933"><ele>579.3</ele><time>2012-07-24T12:47:59.0000000+00:00</time></trkpt><trkpt lat="63.98590469" lon="-18.90931511"><ele>579.4</ele><time>2012-07-24T12:48:04.0000000+00:00</time></trkpt><trkpt lat="63.98589325" lon="-18.90934944"><ele>579.6</ele><time>2012-07-24T12:48:09.0000000+00:00</time></trkpt><trkpt lat="63.98589706" lon="-18.90936089"><ele>578.5</ele><time>2012-07-24T12:48:14.0000000+00:00</time></trkpt><trkpt lat="63.98589706" lon="-18.90936089"><ele>578.4</ele><time>2012-07-24T12:48:19.0000000+00:00</time></trkpt><trkpt lat="63.98589706" lon="-18.90936089"><ele>578.4</ele><time>2012-07-24T12:48:24.0000000+00:00</time></trkpt><trkpt lat="63.98589706" lon="-18.90936089"><ele>578.4</ele><time>2012-07-24T12:48:29.0000000+00:00</time></trkpt><trkpt lat="63.98589706" lon="-18.90936279"><ele>578.4</ele><time>2012-07-24T12:48:34.0000000+00:00</time></trkpt><trkpt lat="63.98589706" lon="-18.90936279"><ele>578.4</ele><time>2012-07-24T12:48:39.0000000+00:00</time></trkpt><trkpt lat="63.98589706" lon="-18.90936279"><ele>578.4</ele><time>2012-07-24T12:48:44.0000000+00:00</time></trkpt><trkpt lat="63.98589706" lon="-18.90936279"><ele>578.4</ele><time>2012-07-24T12:48:49.0000000+00:00</time></trkpt><trkpt lat="63.98589706" lon="-18.90936279"><ele>578.4</ele><time>2012-07-24T12:48:54.0000000+00:00</time></trkpt><trkpt lat="63.98589706" lon="-18.90936279"><ele>578.4</ele><time>2012-07-24T12:48:59.0000000+00:00</time></trkpt><trkpt lat="63.98589706" lon="-18.90936279"><ele>578.4</ele><time>2012-07-24T12:49:04.0000000+00:00</time></trkpt><trkpt lat="63.98589706" lon="-18.90936279"><ele>578.4</ele><time>2012-07-24T12:49:09.0000000+00:00</time></trkpt><trkpt lat="63.98589706" lon="-18.90936279"><ele>578.4</ele><time>2012-07-24T12:49:14.0000000+00:00</time></trkpt><trkpt lat="63.98589706" lon="-18.9093647"><ele>578.4</ele><time>2012-07-24T12:49:19.0000000+00:00</time></trkpt><trkpt lat="63.98589706" lon="-18.9093647"><ele>578.4</ele><time>2012-07-24T12:49:24.0000000+00:00</time></trkpt><trkpt lat="63.98590088" lon="-18.9093647"><ele>578.4</ele><time>2012-07-24T12:49:29.0000000+00:00</time></trkpt><trkpt lat="63.98590088" lon="-18.9093647"><ele>578.4</ele><time>2012-07-24T12:49:34.0000000+00:00</time></trkpt><trkpt lat="63.98590088" lon="-18.9093647"><ele>578.4</ele><time>2012-07-24T12:49:39.0000000+00:00</time></trkpt><trkpt lat="63.98590088" lon="-18.9093647"><ele>578.4</ele><time>2012-07-24T12:49:44.0000000+00:00</time></trkpt><trkpt lat="63.98590088" lon="-18.9093647"><ele>578.4</ele><time>2012-07-24T12:49:49.0000000+00:00</time></trkpt><trkpt lat="63.98590088" lon="-18.9093647"><ele>578.4</ele><time>2012-07-24T12:49:54.0000000+00:00</time></trkpt><trkpt lat="63.98590088" lon="-18.9093647"><ele>578.4</ele><time>2012-07-24T12:49:59.0000000+00:00</time></trkpt><trkpt lat="63.98590088" lon="-18.9093647"><ele>578.4</ele><time>2012-07-24T12:50:04.0000000+00:00</time></trkpt><trkpt lat="63.98590088" lon="-18.90936661"><ele>578.3</ele><time>2012-07-24T12:50:09.0000000+00:00</time></trkpt><trkpt lat="63.98590088" lon="-18.90936661"><ele>578.3</ele><time>2012-07-24T12:50:14.0000000+00:00</time></trkpt><trkpt lat="63.98590088" lon="-18.90936661"><ele>578.3</ele><time>2012-07-24T12:50:19.0000000+00:00</time></trkpt><trkpt lat="63.98590088" lon="-18.90936661"><ele>578.3</ele><time>2012-07-24T12:50:24.0000000+00:00</time></trkpt><trkpt lat="63.98590088" lon="-18.90936661"><ele>578.3</ele><time>2012-07-24T12:50:29.0000000+00:00</time></trkpt><trkpt lat="63.98590088" lon="-18.90936661"><ele>578.3</ele><time>2012-07-24T12:50:34.0000000+00:00</time></trkpt><trkpt lat="63.98590088" lon="-18.90936661"><ele>578.3</ele><time>2012-07-24T12:50:39.0000000+00:00</time></trkpt><trkpt lat="63.98590088" lon="-18.90936852"><ele>578.3</ele><time>2012-07-24T12:50:44.0000000+00:00</time></trkpt><trkpt lat="63.98590088" lon="-18.90936852"><ele>578.3</ele><time>2012-07-24T12:50:49.0000000+00:00</time></trkpt><trkpt lat="63.98590088" lon="-18.90936852"><ele>578.3</ele><time>2012-07-24T12:50:54.0000000+00:00</time></trkpt><trkpt lat="63.98590088" lon="-18.90936852"><ele>578.3</ele><time>2012-07-24T12:50:59.0000000+00:00</time></trkpt><trkpt lat="63.98590088" lon="-18.90936852"><ele>578.3</ele><time>2012-07-24T12:51:04.0000000+00:00</time></trkpt><trkpt lat="63.98590088" lon="-18.90936852"><ele>578.3</ele><time>2012-07-24T12:51:09.0000000+00:00</time></trkpt><trkpt lat="63.98590088" lon="-18.90936852"><ele>578.3</ele><time>2012-07-24T12:51:14.0000000+00:00</time></trkpt><trkpt lat="63.98590088" lon="-18.90936852"><ele>578.3</ele><time>2012-07-24T12:51:19.0000000+00:00</time></trkpt><trkpt lat="63.98590088" lon="-18.90937042"><ele>578.3</ele><time>2012-07-24T12:51:24.0000000+00:00</time></trkpt><trkpt lat="63.98590088" lon="-18.90937042"><ele>578.3</ele><time>2012-07-24T12:51:29.0000000+00:00</time></trkpt><trkpt lat="63.98590088" lon="-18.90937042"><ele>578.3</ele><time>2012-07-24T12:51:34.0000000+00:00</time></trkpt><trkpt lat="63.98590088" lon="-18.90937042"><ele>578.3</ele><time>2012-07-24T12:51:39.0000000+00:00</time></trkpt><trkpt lat="63.98590088" lon="-18.90937233"><ele>578.3</ele><time>2012-07-24T12:51:44.0000000+00:00</time></trkpt><trkpt lat="63.98590088" lon="-18.90937233"><ele>578.3</ele><time>2012-07-24T12:51:49.0000000+00:00</time></trkpt><trkpt lat="63.98590088" lon="-18.90937233"><ele>578.3</ele><time>2012-07-24T12:51:54.0000000+00:00</time></trkpt><trkpt lat="63.98590088" lon="-18.90937233"><ele>578.3</ele><time>2012-07-24T12:51:59.0000000+00:00</time></trkpt><trkpt lat="63.98590088" lon="-18.90937233"><ele>578.3</ele><time>2012-07-24T12:52:04.0000000+00:00</time></trkpt><trkpt lat="63.98590088" lon="-18.90937424"><ele>578.3</ele><time>2012-07-24T12:52:09.0000000+00:00</time></trkpt><trkpt lat="63.98590088" lon="-18.90937424"><ele>578.3</ele><time>2012-07-24T12:52:14.0000000+00:00</time></trkpt><trkpt lat="63.98590088" lon="-18.90937424"><ele>578.3</ele><time>2012-07-24T12:52:19.0000000+00:00</time></trkpt><trkpt lat="63.98590088" lon="-18.90937424"><ele>578.3</ele><time>2012-07-24T12:52:24.0000000+00:00</time></trkpt><trkpt lat="63.98590088" lon="-18.90937424"><ele>578.3</ele><time>2012-07-24T12:52:29.0000000+00:00</time></trkpt><trkpt lat="63.98590088" lon="-18.90937424"><ele>578.3</ele><time>2012-07-24T12:52:34.0000000+00:00</time></trkpt><trkpt lat="63.98590088" lon="-18.90937614"><ele>578.3</ele><time>2012-07-24T12:52:39.0000000+00:00</time></trkpt><trkpt lat="63.98590088" lon="-18.90937614"><ele>578.3</ele><time>2012-07-24T12:52:44.0000000+00:00</time></trkpt><trkpt lat="63.98590469" lon="-18.90937424"><ele>578.4</ele><time>2012-07-24T12:52:49.0000000+00:00</time></trkpt><trkpt lat="63.98590088" lon="-18.90936089"><ele>578.5</ele><time>2012-07-24T12:52:54.0000000+00:00</time></trkpt><trkpt lat="63.98590088" lon="-18.90936089"><ele>578.5</ele><time>2012-07-24T12:52:59.0000000+00:00</time></trkpt><trkpt lat="63.98590088" lon="-18.90936089"><ele>578.5</ele><time>2012-07-24T12:53:04.0000000+00:00</time></trkpt><trkpt lat="63.98590088" lon="-18.90936089"><ele>578.5</ele><time>2012-07-24T12:53:09.0000000+00:00</time></trkpt><trkpt lat="63.98590088" lon="-18.90935898"><ele>578.5</ele><time>2012-07-24T12:53:14.0000000+00:00</time></trkpt><trkpt lat="63.98590088" lon="-18.90935898"><ele>578.5</ele><time>2012-07-24T12:53:19.0000000+00:00</time></trkpt><trkpt lat="63.98590088" lon="-18.90935898"><ele>578.5</ele><time>2012-07-24T12:53:24.0000000+00:00</time></trkpt><trkpt lat="63.98590088" lon="-18.90935898"><ele>578.5</ele><time>2012-07-24T12:53:29.0000000+00:00</time></trkpt><trkpt lat="63.98590469" lon="-18.90936089"><ele>578.4</ele><time>2012-07-24T12:53:34.0000000+00:00</time></trkpt><trkpt lat="63.98590088" lon="-18.90936089"><ele>578.4</ele><time>2012-07-24T12:53:39.0000000+00:00</time></trkpt><trkpt lat="63.98590469" lon="-18.90936279"><ele>578.5</ele><time>2012-07-24T12:53:44.0000000+00:00</time></trkpt><trkpt lat="63.98587036" lon="-18.90932465"><ele>579.0</ele><time>2012-07-24T12:53:49.0000000+00:00</time></trkpt><trkpt lat="63.98581696" lon="-18.90923691"><ele>579.0</ele><time>2012-07-24T12:53:54.0000000+00:00</time></trkpt><trkpt lat="63.98575974" lon="-18.90919685"><ele>580.5</ele><time>2012-07-24T12:53:59.0000000+00:00</time></trkpt><trkpt lat="63.9856987" lon="-18.9091835"><ele>583.1</ele><time>2012-07-24T12:54:04.0000000+00:00</time></trkpt><trkpt lat="63.98563385" lon="-18.90920448"><ele>583.5</ele><time>2012-07-24T12:54:09.0000000+00:00</time></trkpt><trkpt lat="63.98551941" lon="-18.90916252"><ele>584.3</ele><time>2012-07-24T12:54:14.0000000+00:00</time></trkpt><trkpt lat="63.9853859" lon="-18.90915299"><ele>585.0</ele><time>2012-07-24T12:54:19.0000000+00:00</time></trkpt><trkpt lat="63.98522568" lon="-18.90913773"><ele>586.1</ele><time>2012-07-24T12:54:24.0000000+00:00</time></trkpt><trkpt lat="63.98508072" lon="-18.90911865"><ele>584.8</ele><time>2012-07-24T12:54:29.0000000+00:00</time></trkpt><trkpt lat="63.98498535" lon="-18.90914917"><ele>583.8</ele><time>2012-07-24T12:54:34.0000000+00:00</time></trkpt><trkpt lat="63.98485947" lon="-18.90912819"><ele>584.5</ele><time>2012-07-24T12:54:39.0000000+00:00</time></trkpt><trkpt lat="63.98473358" lon="-18.90913773"><ele>584.6</ele><time>2012-07-24T12:54:44.0000000+00:00</time></trkpt><trkpt lat="63.98459625" lon="-18.90914726"><ele>584.8</ele><time>2012-07-24T12:54:49.0000000+00:00</time></trkpt><trkpt lat="63.98444367" lon="-18.90913963"><ele>585.8</ele><time>2012-07-24T12:54:54.0000000+00:00</time></trkpt><trkpt lat="63.98431397" lon="-18.90912628"><ele>586.2</ele><time>2012-07-24T12:54:59.0000000+00:00</time></trkpt><trkpt lat="63.98418045" lon="-18.90911484"><ele>586.1</ele><time>2012-07-24T12:55:04.0000000+00:00</time></trkpt><trkpt lat="63.98407745" lon="-18.90912819"><ele>586.8</ele><time>2012-07-24T12:55:09.0000000+00:00</time></trkpt><trkpt lat="63.98397446" lon="-18.90913773"><ele>586.9</ele><time>2012-07-24T12:55:14.0000000+00:00</time></trkpt><trkpt lat="63.98384476" lon="-18.90914917"><ele>586.6</ele><time>2012-07-24T12:55:19.0000000+00:00</time></trkpt><trkpt lat="63.98371124" lon="-18.90914345"><ele>586.1</ele><time>2012-07-24T12:55:24.0000000+00:00</time></trkpt><trkpt lat="63.98355866" lon="-18.90912819"><ele>587.5</ele><time>2012-07-24T12:55:29.0000000+00:00</time></trkpt><trkpt lat="63.98339462" lon="-18.9091053"><ele>586.6</ele><time>2012-07-24T12:55:34.0000000+00:00</time></trkpt><trkpt lat="63.98323059" lon="-18.90911293"><ele>586.5</ele><time>2012-07-24T12:55:39.0000000+00:00</time></trkpt><trkpt lat="63.98305512" lon="-18.90910339"><ele>586.6</ele><time>2012-07-24T12:55:44.0000000+00:00</time></trkpt><trkpt lat="63.98289108" lon="-18.90910149"><ele>587.5</ele><time>2012-07-24T12:55:49.0000000+00:00</time></trkpt><trkpt lat="63.98271942" lon="-18.90910339"><ele>587.8</ele><time>2012-07-24T12:55:54.0000000+00:00</time></trkpt><trkpt lat="63.98255539" lon="-18.90911102"><ele>588.8</ele><time>2012-07-24T12:55:59.0000000+00:00</time></trkpt><trkpt lat="63.98238754" lon="-18.90910912"><ele>587.3</ele><time>2012-07-24T12:56:04.0000000+00:00</time></trkpt><trkpt lat="63.9822197" lon="-18.90908432"><ele>586.4</ele><time>2012-07-24T12:56:09.0000000+00:00</time></trkpt><trkpt lat="63.98204804" lon="-18.90904427"><ele>582.7</ele><time>2012-07-24T12:56:14.0000000+00:00</time></trkpt><trkpt lat="63.98188782" lon="-18.90890694"><ele>582.3</ele><time>2012-07-24T12:56:19.0000000+00:00</time></trkpt><trkpt lat="63.98175049" lon="-18.90866852"><ele>582.2</ele><time>2012-07-24T12:56:24.0000000+00:00</time></trkpt><trkpt lat="63.98164749" lon="-18.90838623"><ele>582.7</ele><time>2012-07-24T12:56:29.0000000+00:00</time></trkpt><trkpt lat="63.98155975" lon="-18.90809631"><ele>582.4</ele><time>2012-07-24T12:56:34.0000000+00:00</time></trkpt><trkpt lat="63.9814682" lon="-18.90781593"><ele>582.6</ele><time>2012-07-24T12:56:39.0000000+00:00</time></trkpt><trkpt lat="63.98140717" lon="-18.90759277"><ele>582.5</ele><time>2012-07-24T12:56:44.0000000+00:00</time></trkpt><trkpt lat="63.98140717" lon="-18.90760231"><ele>580.2</ele><time>2012-07-24T12:56:49.0000000+00:00</time></trkpt><trkpt lat="63.98140717" lon="-18.9075985"><ele>580.2</ele><time>2012-07-24T12:56:54.0000000+00:00</time></trkpt><trkpt lat="63.98138046" lon="-18.90749741"><ele>579.7</ele><time>2012-07-24T12:56:59.0000000+00:00</time></trkpt><trkpt lat="63.98128891" lon="-18.90723229"><ele>579.9</ele><time>2012-07-24T12:57:04.0000000+00:00</time></trkpt><trkpt lat="63.98119354" lon="-18.90698242"><ele>579.5</ele><time>2012-07-24T12:57:09.0000000+00:00</time></trkpt><trkpt lat="63.98108673" lon="-18.90676117"><ele>578.6</ele><time>2012-07-24T12:57:14.0000000+00:00</time></trkpt><trkpt lat="63.98098755" lon="-18.90653229"><ele>577.8</ele><time>2012-07-24T12:57:19.0000000+00:00</time></trkpt><trkpt lat="63.98090363" lon="-18.90624046"><ele>578.4</ele><time>2012-07-24T12:57:24.0000000+00:00</time></trkpt><trkpt lat="63.98085022" lon="-18.90592766"><ele>579.6</ele><time>2012-07-24T12:57:29.0000000+00:00</time></trkpt><trkpt lat="63.98083878" lon="-18.90554619"><ele>582.0</ele><time>2012-07-24T12:57:34.0000000+00:00</time></trkpt><trkpt lat="63.98087311" lon="-18.90515328"><ele>581.9</ele><time>2012-07-24T12:57:39.0000000+00:00</time></trkpt><trkpt lat="63.98091126" lon="-18.90476418"><ele>582.2</ele><time>2012-07-24T12:57:44.0000000+00:00</time></trkpt><trkpt lat="63.98094559" lon="-18.90435219"><ele>582.7</ele><time>2012-07-24T12:57:49.0000000+00:00</time></trkpt><trkpt lat="63.98095322" lon="-18.90393829"><ele>583.3</ele><time>2012-07-24T12:57:54.0000000+00:00</time></trkpt><trkpt lat="63.98094559" lon="-18.9035759"><ele>583.5</ele><time>2012-07-24T12:57:59.0000000+00:00</time></trkpt><trkpt lat="63.98091888" lon="-18.90318108"><ele>583.1</ele><time>2012-07-24T12:58:04.0000000+00:00</time></trkpt><trkpt lat="63.98087311" lon="-18.90283966"><ele>583.4</ele><time>2012-07-24T12:58:09.0000000+00:00</time></trkpt><trkpt lat="63.98080826" lon="-18.90250015"><ele>583.6</ele><time>2012-07-24T12:58:14.0000000+00:00</time></trkpt><trkpt lat="63.98074722" lon="-18.90213776"><ele>583.9</ele><time>2012-07-24T12:58:19.0000000+00:00</time></trkpt><trkpt lat="63.9806633" lon="-18.90177727"><ele>582.6</ele><time>2012-07-24T12:58:24.0000000+00:00</time></trkpt><trkpt lat="63.98058319" lon="-18.90143013"><ele>582.5</ele><time>2012-07-24T12:58:29.0000000+00:00</time></trkpt><trkpt lat="63.9805069" lon="-18.90104675"><ele>582.7</ele><time>2012-07-24T12:58:34.0000000+00:00</time></trkpt><trkpt lat="63.98044586" lon="-18.90067101"><ele>583.4</ele><time>2012-07-24T12:58:39.0000000+00:00</time></trkpt><trkpt lat="63.9804039" lon="-18.9003315"><ele>584.1</ele><time>2012-07-24T12:58:44.0000000+00:00</time></trkpt><trkpt lat="63.98036194" lon="-18.89998627"><ele>583.7</ele><time>2012-07-24T12:58:49.0000000+00:00</time></trkpt><trkpt lat="63.98028946" lon="-18.89966011"><ele>583.4</ele><time>2012-07-24T12:58:54.0000000+00:00</time></trkpt><trkpt lat="63.98026276" lon="-18.8992672"><ele>581.4</ele><time>2012-07-24T12:58:59.0000000+00:00</time></trkpt><trkpt lat="63.98022461" lon="-18.89904976"><ele>580.8</ele><time>2012-07-24T12:59:04.0000000+00:00</time></trkpt><trkpt lat="63.98019791" lon="-18.89886475"><ele>579.2</ele><time>2012-07-24T12:59:09.0000000+00:00</time></trkpt><trkpt lat="63.98016357" lon="-18.89863014"><ele>579.7</ele><time>2012-07-24T12:59:14.0000000+00:00</time></trkpt><trkpt lat="63.98011398" lon="-18.89834023"><ele>579.4</ele><time>2012-07-24T12:59:19.0000000+00:00</time></trkpt><trkpt lat="63.98003769" lon="-18.89803886"><ele>578.9</ele><time>2012-07-24T12:59:24.0000000+00:00</time></trkpt><trkpt lat="63.97994232" lon="-18.89772415"><ele>578.4</ele><time>2012-07-24T12:59:29.0000000+00:00</time></trkpt><trkpt lat="63.97983933" lon="-18.89749527"><ele>579.2</ele><time>2012-07-24T12:59:34.0000000+00:00</time></trkpt><trkpt lat="63.97974396" lon="-18.89727974"><ele>582.8</ele><time>2012-07-24T12:59:39.0000000+00:00</time></trkpt><trkpt lat="63.97964096" lon="-18.89710045"><ele>582.0</ele><time>2012-07-24T12:59:44.0000000+00:00</time></trkpt><trkpt lat="63.97952271" lon="-18.8969326"><ele>582.8</ele><time>2012-07-24T12:59:49.0000000+00:00</time></trkpt><trkpt lat="63.97939301" lon="-18.89674377"><ele>582.8</ele><time>2012-07-24T12:59:54.0000000+00:00</time></trkpt><trkpt lat="63.97925949" lon="-18.89656258"><ele>582.3</ele><time>2012-07-24T12:59:59.0000000+00:00</time></trkpt><trkpt lat="63.97914124" lon="-18.8963356"><ele>581.8</ele><time>2012-07-24T13:00:04.0000000+00:00</time></trkpt><trkpt lat="63.97901535" lon="-18.8962574"><ele>584.7</ele><time>2012-07-24T13:00:09.0000000+00:00</time></trkpt><trkpt lat="63.97893524" lon="-18.89623451"><ele>587.8</ele><time>2012-07-24T13:00:14.0000000+00:00</time></trkpt><trkpt lat="63.97890091" lon="-18.89624405"><ele>588.3</ele><time>2012-07-24T13:00:19.0000000+00:00</time></trkpt><trkpt lat="63.97890091" lon="-18.89626122"><ele>588.1</ele><time>2012-07-24T13:00:24.0000000+00:00</time></trkpt><trkpt lat="63.97890472" lon="-18.89624214"><ele>587.7</ele><time>2012-07-24T13:00:29.0000000+00:00</time></trkpt><trkpt lat="63.97893524" lon="-18.89614868"><ele>587.7</ele><time>2012-07-24T13:00:34.0000000+00:00</time></trkpt><trkpt lat="63.97895813" lon="-18.89616013"><ele>587.2</ele><time>2012-07-24T13:00:39.0000000+00:00</time></trkpt><trkpt lat="63.97896195" lon="-18.89617539"><ele>587.1</ele><time>2012-07-24T13:00:44.0000000+00:00</time></trkpt><trkpt lat="63.97895813" lon="-18.89617729"><ele>587.3</ele><time>2012-07-24T13:00:49.0000000+00:00</time></trkpt><trkpt lat="63.97896195" lon="-18.89617539"><ele>587.3</ele><time>2012-07-24T13:00:54.0000000+00:00</time></trkpt><trkpt lat="63.97901154" lon="-18.89621925"><ele>586.6</ele><time>2012-07-24T13:00:59.0000000+00:00</time></trkpt><trkpt lat="63.97901917" lon="-18.89634514"><ele>586.9</ele><time>2012-07-24T13:01:04.0000000+00:00</time></trkpt><trkpt lat="63.97900391" lon="-18.89636993"><ele>587.4</ele><time>2012-07-24T13:01:09.0000000+00:00</time></trkpt><trkpt lat="63.97900009" lon="-18.89635658"><ele>588.0</ele><time>2012-07-24T13:01:14.0000000+00:00</time></trkpt><trkpt lat="63.97900009" lon="-18.89635658"><ele>588.0</ele><time>2012-07-24T13:01:19.0000000+00:00</time></trkpt><trkpt lat="63.97900009" lon="-18.89635658"><ele>588.0</ele><time>2012-07-24T13:01:24.0000000+00:00</time></trkpt><trkpt lat="63.97900009" lon="-18.89635658"><ele>588.0</ele><time>2012-07-24T13:01:29.0000000+00:00</time></trkpt><trkpt lat="63.97900009" lon="-18.89635468"><ele>588.0</ele><time>2012-07-24T13:01:34.0000000+00:00</time></trkpt><trkpt lat="63.97900009" lon="-18.89635468"><ele>588.0</ele><time>2012-07-24T13:01:39.0000000+00:00</time></trkpt><trkpt lat="63.97900009" lon="-18.89635468"><ele>587.9</ele><time>2012-07-24T13:01:44.0000000+00:00</time></trkpt><trkpt lat="63.97900009" lon="-18.89635468"><ele>587.9</ele><time>2012-07-24T13:01:49.0000000+00:00</time></trkpt><trkpt lat="63.97900009" lon="-18.89635468"><ele>587.9</ele><time>2012-07-24T13:01:54.0000000+00:00</time></trkpt><trkpt lat="63.97900009" lon="-18.89635468"><ele>587.9</ele><time>2012-07-24T13:01:59.0000000+00:00</time></trkpt><trkpt lat="63.97900009" lon="-18.89635468"><ele>587.8</ele><time>2012-07-24T13:02:04.0000000+00:00</time></trkpt><trkpt lat="63.97900009" lon="-18.89635468"><ele>587.8</ele><time>2012-07-24T13:02:09.0000000+00:00</time></trkpt><trkpt lat="63.97900009" lon="-18.89635468"><ele>587.8</ele><time>2012-07-24T13:02:14.0000000+00:00</time></trkpt><trkpt lat="63.97900009" lon="-18.89635468"><ele>587.7</ele><time>2012-07-24T13:02:19.0000000+00:00</time></trkpt><trkpt lat="63.97900009" lon="-18.89635468"><ele>587.7</ele><time>2012-07-24T13:02:24.0000000+00:00</time></trkpt><trkpt lat="63.97900009" lon="-18.89635468"><ele>587.6</ele><time>2012-07-24T13:02:29.0000000+00:00</time></trkpt><trkpt lat="63.97899628" lon="-18.89635468"><ele>587.6</ele><time>2012-07-24T13:02:34.0000000+00:00</time></trkpt><trkpt lat="63.97899628" lon="-18.89635468"><ele>587.6</ele><time>2012-07-24T13:02:39.0000000+00:00</time></trkpt><trkpt lat="63.97899628" lon="-18.89635468"><ele>587.6</ele><time>2012-07-24T13:02:44.0000000+00:00</time></trkpt><trkpt lat="63.97899628" lon="-18.89635468"><ele>587.6</ele><time>2012-07-24T13:02:49.0000000+00:00</time></trkpt><trkpt lat="63.97899628" lon="-18.89635468"><ele>587.6</ele><time>2012-07-24T13:02:54.0000000+00:00</time></trkpt><trkpt lat="63.97899628" lon="-18.89635468"><ele>587.6</ele><time>2012-07-24T13:02:59.0000000+00:00</time></trkpt><trkpt lat="63.97897339" lon="-18.8962841"><ele>586.8</ele><time>2012-07-24T13:03:04.0000000+00:00</time></trkpt><trkpt lat="63.97896195" lon="-18.89623833"><ele>586.8</ele><time>2012-07-24T13:03:09.0000000+00:00</time></trkpt><trkpt lat="63.97896195" lon="-18.89623833"><ele>586.8</ele><time>2012-07-24T13:03:14.0000000+00:00</time></trkpt><trkpt lat="63.97895432" lon="-18.89622688"><ele>586.6</ele><time>2012-07-24T13:03:19.0000000+00:00</time></trkpt><trkpt lat="63.97894669" lon="-18.89614677"><ele>585.7</ele><time>2012-07-24T13:03:24.0000000+00:00</time></trkpt><trkpt lat="63.9789505" lon="-18.89614677"><ele>585.1</ele><time>2012-07-24T13:03:29.0000000+00:00</time></trkpt><trkpt lat="63.9789505" lon="-18.89615059"><ele>584.8</ele><time>2012-07-24T13:03:34.0000000+00:00</time></trkpt><trkpt lat="63.9789505" lon="-18.8961525"><ele>584.5</ele><time>2012-07-24T13:03:39.0000000+00:00</time></trkpt><trkpt lat="63.97894669" lon="-18.8961525"><ele>584.5</ele><time>2012-07-24T13:03:44.0000000+00:00</time></trkpt><trkpt lat="63.97894669" lon="-18.8961525"><ele>584.5</ele><time>2012-07-24T13:03:49.0000000+00:00</time></trkpt><trkpt lat="63.97894669" lon="-18.8961525"><ele>584.5</ele><time>2012-07-24T13:03:54.0000000+00:00</time></trkpt><trkpt lat="63.97894669" lon="-18.8961525"><ele>584.5</ele><time>2012-07-24T13:03:59.0000000+00:00</time></trkpt><trkpt lat="63.97894669" lon="-18.8961525"><ele>584.5</ele><time>2012-07-24T13:04:04.0000000+00:00</time></trkpt><trkpt lat="63.97894287" lon="-18.89611816"><ele>584.4</ele><time>2012-07-24T13:04:09.0000000+00:00</time></trkpt><trkpt lat="63.97891998" lon="-18.89607811"><ele>584.5</ele><time>2012-07-24T13:04:14.0000000+00:00</time></trkpt><trkpt lat="63.9788971" lon="-18.89603615"><ele>585.1</ele><time>2012-07-24T13:04:19.0000000+00:00</time></trkpt><trkpt lat="63.97887421" lon="-18.89601326"><ele>585.3</ele><time>2012-07-24T13:04:24.0000000+00:00</time></trkpt><trkpt lat="63.97885132" lon="-18.89593124"><ele>585.4</ele><time>2012-07-24T13:04:29.0000000+00:00</time></trkpt><trkpt lat="63.9788208" lon="-18.8958931"><ele>585.2</ele><time>2012-07-24T13:04:34.0000000+00:00</time></trkpt><trkpt lat="63.97878265" lon="-18.895895"><ele>585.5</ele><time>2012-07-24T13:04:39.0000000+00:00</time></trkpt><trkpt lat="63.97875595" lon="-18.89591026"><ele>585.4</ele><time>2012-07-24T13:04:44.0000000+00:00</time></trkpt><trkpt lat="63.97873306" lon="-18.89592934"><ele>586.4</ele><time>2012-07-24T13:04:49.0000000+00:00</time></trkpt><trkpt lat="63.97872925" lon="-18.89593124"><ele>586.6</ele><time>2012-07-24T13:04:54.0000000+00:00</time></trkpt><trkpt lat="63.97873306" lon="-18.89592934"><ele>586.6</ele><time>2012-07-24T13:04:59.0000000+00:00</time></trkpt><trkpt lat="63.97873306" lon="-18.89592934"><ele>586.7</ele><time>2012-07-24T13:05:04.0000000+00:00</time></trkpt><trkpt lat="63.97873306" lon="-18.89592934"><ele>586.7</ele><time>2012-07-24T13:05:09.0000000+00:00</time></trkpt><trkpt lat="63.97873306" lon="-18.89592743"><ele>586.7</ele><time>2012-07-24T13:05:14.0000000+00:00</time></trkpt><trkpt lat="63.97873306" lon="-18.89592552"><ele>586.7</ele><time>2012-07-24T13:05:19.0000000+00:00</time></trkpt><trkpt lat="63.97873306" lon="-18.89592552"><ele>586.8</ele><time>2012-07-24T13:05:24.0000000+00:00</time></trkpt><trkpt lat="63.97873306" lon="-18.89592362"><ele>586.8</ele><time>2012-07-24T13:05:29.0000000+00:00</time></trkpt><trkpt lat="63.97873306" lon="-18.89592362"><ele>586.8</ele><time>2012-07-24T13:05:34.0000000+00:00</time></trkpt><trkpt lat="63.97873306" lon="-18.89592362"><ele>586.8</ele><time>2012-07-24T13:05:39.0000000+00:00</time></trkpt><trkpt lat="63.97873306" lon="-18.89592362"><ele>586.8</ele><time>2012-07-24T13:05:44.0000000+00:00</time></trkpt><trkpt lat="63.97873306" lon="-18.89592552"><ele>586.8</ele><time>2012-07-24T13:05:49.0000000+00:00</time></trkpt><trkpt lat="63.97873306" lon="-18.89592552"><ele>586.8</ele><time>2012-07-24T13:05:54.0000000+00:00</time></trkpt><trkpt lat="63.97873306" lon="-18.89592743"><ele>586.8</ele><time>2012-07-24T13:05:59.0000000+00:00</time></trkpt><trkpt lat="63.97873306" lon="-18.89592743"><ele>586.8</ele><time>2012-07-24T13:06:04.0000000+00:00</time></trkpt><trkpt lat="63.97873306" lon="-18.89592743"><ele>586.8</ele><time>2012-07-24T13:06:09.0000000+00:00</time></trkpt><trkpt lat="63.97873306" lon="-18.89592743"><ele>586.8</ele><time>2012-07-24T13:06:14.0000000+00:00</time></trkpt><trkpt lat="63.97869492" lon="-18.89594078"><ele>587.7</ele><time>2012-07-24T13:06:19.0000000+00:00</time></trkpt><trkpt lat="63.97867203" lon="-18.89591599"><ele>587.4</ele><time>2012-07-24T13:06:24.0000000+00:00</time></trkpt><trkpt lat="63.97867203" lon="-18.89591217"><ele>587.6</ele><time>2012-07-24T13:06:29.0000000+00:00</time></trkpt><trkpt lat="63.97867584" lon="-18.89591217"><ele>587.6</ele><time>2012-07-24T13:06:34.0000000+00:00</time></trkpt><trkpt lat="63.97867584" lon="-18.89591217"><ele>587.8</ele><time>2012-07-24T13:06:39.0000000+00:00</time></trkpt><trkpt lat="63.97867584" lon="-18.89591026"><ele>587.8</ele><time>2012-07-24T13:06:44.0000000+00:00</time></trkpt><trkpt lat="63.97865295" lon="-18.895895"><ele>587.7</ele><time>2012-07-24T13:06:49.0000000+00:00</time></trkpt><trkpt lat="63.97859573" lon="-18.89584923"><ele>587.7</ele><time>2012-07-24T13:06:54.0000000+00:00</time></trkpt><trkpt lat="63.97857285" lon="-18.89583969"><ele>589.0</ele><time>2012-07-24T13:06:59.0000000+00:00</time></trkpt><trkpt lat="63.97857285" lon="-18.89584351"><ele>589.0</ele><time>2012-07-24T13:07:04.0000000+00:00</time></trkpt><trkpt lat="63.97857285" lon="-18.89583969"><ele>589.0</ele><time>2012-07-24T13:07:09.0000000+00:00</time></trkpt><trkpt lat="63.97856903" lon="-18.89583397"><ele>589.0</ele><time>2012-07-24T13:07:14.0000000+00:00</time></trkpt><trkpt lat="63.97853851" lon="-18.89576149"><ele>589.2</ele><time>2012-07-24T13:07:19.0000000+00:00</time></trkpt><trkpt lat="63.97847366" lon="-18.89573097"><ele>589.2</ele><time>2012-07-24T13:07:24.0000000+00:00</time></trkpt><trkpt lat="63.97836685" lon="-18.89566994"><ele>590.0</ele><time>2012-07-24T13:07:29.0000000+00:00</time></trkpt><trkpt lat="63.9782486" lon="-18.89568329"><ele>590.3</ele><time>2012-07-24T13:07:34.0000000+00:00</time></trkpt><trkpt lat="63.97813034" lon="-18.89572907"><ele>590.6</ele><time>2012-07-24T13:07:39.0000000+00:00</time></trkpt><trkpt lat="63.97798157" lon="-18.89575386"><ele>590.5</ele><time>2012-07-24T13:07:44.0000000+00:00</time></trkpt><trkpt lat="63.97783661" lon="-18.89573097"><ele>590.8</ele><time>2012-07-24T13:07:49.0000000+00:00</time></trkpt><trkpt lat="63.97770691" lon="-18.89563561"><ele>591.1</ele><time>2012-07-24T13:07:54.0000000+00:00</time></trkpt><trkpt lat="63.9776001" lon="-18.89550781"><ele>591.8</ele><time>2012-07-24T13:07:59.0000000+00:00</time></trkpt><trkpt lat="63.97753143" lon="-18.89540672"><ele>592.2</ele><time>2012-07-24T13:08:04.0000000+00:00</time></trkpt><trkpt lat="63.97746277" lon="-18.89529038"><ele>592.2</ele><time>2012-07-24T13:08:09.0000000+00:00</time></trkpt><trkpt lat="63.9773941" lon="-18.89519119"><ele>591.9</ele><time>2012-07-24T13:08:14.0000000+00:00</time></trkpt><trkpt lat="63.97731781" lon="-18.89513969"><ele>591.0</ele><time>2012-07-24T13:08:19.0000000+00:00</time></trkpt><trkpt lat="63.97732163" lon="-18.89513207"><ele>589.9</ele><time>2012-07-24T13:08:24.0000000+00:00</time></trkpt><trkpt lat="63.97732163" lon="-18.89513207"><ele>589.9</ele><time>2012-07-24T13:08:29.0000000+00:00</time></trkpt><trkpt lat="63.97732163" lon="-18.89513207"><ele>589.9</ele><time>2012-07-24T13:08:34.0000000+00:00</time></trkpt><trkpt lat="63.97732163" lon="-18.89513016"><ele>589.8</ele><time>2012-07-24T13:08:39.0000000+00:00</time></trkpt><trkpt lat="63.97732163" lon="-18.89513207"><ele>589.8</ele><time>2012-07-24T13:08:44.0000000+00:00</time></trkpt><trkpt lat="63.97732163" lon="-18.89513016"><ele>589.8</ele><time>2012-07-24T13:08:49.0000000+00:00</time></trkpt><trkpt lat="63.97732163" lon="-18.89513207"><ele>589.8</ele><time>2012-07-24T13:08:54.0000000+00:00</time></trkpt><trkpt lat="63.97732163" lon="-18.89513207"><ele>589.8</ele><time>2012-07-24T13:08:59.0000000+00:00</time></trkpt><trkpt lat="63.97732163" lon="-18.89513207"><ele>589.8</ele><time>2012-07-24T13:09:04.0000000+00:00</time></trkpt><trkpt lat="63.97732163" lon="-18.89513207"><ele>589.8</ele><time>2012-07-24T13:09:09.0000000+00:00</time></trkpt><trkpt lat="63.97732163" lon="-18.89513207"><ele>589.7</ele><time>2012-07-24T13:09:14.0000000+00:00</time></trkpt><trkpt lat="63.97732163" lon="-18.89513207"><ele>589.7</ele><time>2012-07-24T13:09:19.0000000+00:00</time></trkpt><trkpt lat="63.97731018" lon="-18.8950901"><ele>589.5</ele><time>2012-07-24T13:09:24.0000000+00:00</time></trkpt><trkpt lat="63.97728729" lon="-18.89489555"><ele>589.7</ele><time>2012-07-24T13:09:29.0000000+00:00</time></trkpt><trkpt lat="63.97723389" lon="-18.89474106"><ele>589.8</ele><time>2012-07-24T13:09:34.0000000+00:00</time></trkpt><trkpt lat="63.9771843" lon="-18.89450073"><ele>589.7</ele><time>2012-07-24T13:09:39.0000000+00:00</time></trkpt><trkpt lat="63.97722626" lon="-18.89418984"><ele>588.8</ele><time>2012-07-24T13:09:44.0000000+00:00</time></trkpt><trkpt lat="63.97729111" lon="-18.89393807"><ele>589.1</ele><time>2012-07-24T13:09:49.0000000+00:00</time></trkpt><trkpt lat="63.97740173" lon="-18.89377403"><ele>589.9</ele><time>2012-07-24T13:09:54.0000000+00:00</time></trkpt><trkpt lat="63.97751236" lon="-18.89366913"><ele>591.8</ele><time>2012-07-24T13:09:59.0000000+00:00</time></trkpt><trkpt lat="63.97763825" lon="-18.89350319"><ele>592.0</ele><time>2012-07-24T13:10:04.0000000+00:00</time></trkpt><trkpt lat="63.97773361" lon="-18.89330483"><ele>588.3</ele><time>2012-07-24T13:10:09.0000000+00:00</time></trkpt><trkpt lat="63.97783279" lon="-18.89305687"><ele>588.9</ele><time>2012-07-24T13:10:14.0000000+00:00</time></trkpt><trkpt lat="63.97792435" lon="-18.89278221"><ele>589.4</ele><time>2012-07-24T13:10:19.0000000+00:00</time></trkpt><trkpt lat="63.97800827" lon="-18.89250755"><ele>589.3</ele><time>2012-07-24T13:10:24.0000000+00:00</time></trkpt><trkpt lat="63.97810364" lon="-18.89226151"><ele>589.0</ele><time>2012-07-24T13:10:29.0000000+00:00</time></trkpt><trkpt lat="63.97822952" lon="-18.89215469"><ele>588.9</ele><time>2012-07-24T13:10:34.0000000+00:00</time></trkpt><trkpt lat="63.97837448" lon="-18.89222145"><ele>589.0</ele><time>2012-07-24T13:10:39.0000000+00:00</time></trkpt><trkpt lat="63.97849274" lon="-18.89244652"><ele>588.6</ele><time>2012-07-24T13:10:44.0000000+00:00</time></trkpt><trkpt lat="63.97856903" lon="-18.89272499"><ele>587.5</ele><time>2012-07-24T13:10:49.0000000+00:00</time></trkpt><trkpt lat="63.97858429" lon="-18.89282227"><ele>585.8</ele><time>2012-07-24T13:10:54.0000000+00:00</time></trkpt><trkpt lat="63.97858048" lon="-18.89281654"><ele>584.9</ele><time>2012-07-24T13:10:59.0000000+00:00</time></trkpt><trkpt lat="63.97858048" lon="-18.89281654"><ele>585.0</ele><time>2012-07-24T13:11:04.0000000+00:00</time></trkpt><trkpt lat="63.97858048" lon="-18.89281654"><ele>584.4</ele><time>2012-07-24T13:11:09.0000000+00:00</time></trkpt><trkpt lat="63.97858048" lon="-18.89281654"><ele>584.2</ele><time>2012-07-24T13:11:14.0000000+00:00</time></trkpt><trkpt lat="63.97858048" lon="-18.89281654"><ele>584.2</ele><time>2012-07-24T13:11:19.0000000+00:00</time></trkpt><trkpt lat="63.97859573" lon="-18.89289284"><ele>584.8</ele><time>2012-07-24T13:11:24.0000000+00:00</time></trkpt><trkpt lat="63.97861099" lon="-18.893013"><ele>585.6</ele><time>2012-07-24T13:11:29.0000000+00:00</time></trkpt><trkpt lat="63.97862625" lon="-18.89311218"><ele>586.6</ele><time>2012-07-24T13:11:34.0000000+00:00</time></trkpt><trkpt lat="63.97864914" lon="-18.89321709"><ele>587.4</ele><time>2012-07-24T13:11:39.0000000+00:00</time></trkpt><trkpt lat="63.97865295" lon="-18.89328194"><ele>588.8</ele><time>2012-07-24T13:11:44.0000000+00:00</time></trkpt><trkpt lat="63.97866058" lon="-18.89334297"><ele>590.3</ele><time>2012-07-24T13:11:49.0000000+00:00</time></trkpt><trkpt lat="63.97867584" lon="-18.89342308"><ele>591.0</ele><time>2012-07-24T13:11:54.0000000+00:00</time></trkpt><trkpt lat="63.97868347" lon="-18.89349556"><ele>591.9</ele><time>2012-07-24T13:11:59.0000000+00:00</time></trkpt><trkpt lat="63.9786911" lon="-18.89354324"><ele>592.6</ele><time>2012-07-24T13:12:04.0000000+00:00</time></trkpt><trkpt lat="63.97869492" lon="-18.89358902"><ele>592.7</ele><time>2012-07-24T13:12:09.0000000+00:00</time></trkpt><trkpt lat="63.97869492" lon="-18.89365196"><ele>593.9</ele><time>2012-07-24T13:12:14.0000000+00:00</time></trkpt><trkpt lat="63.97871018" lon="-18.89372253"><ele>594.1</ele><time>2012-07-24T13:12:19.0000000+00:00</time></trkpt><trkpt lat="63.97872925" lon="-18.89377403"><ele>594.4</ele><time>2012-07-24T13:12:24.0000000+00:00</time></trkpt><trkpt lat="63.97874832" lon="-18.89385033"><ele>595.2</ele><time>2012-07-24T13:12:29.0000000+00:00</time></trkpt><trkpt lat="63.97878265" lon="-18.89390373"><ele>595.7</ele><time>2012-07-24T13:12:34.0000000+00:00</time></trkpt><trkpt lat="63.97881317" lon="-18.89393234"><ele>596.0</ele><time>2012-07-24T13:12:39.0000000+00:00</time></trkpt><trkpt lat="63.97885513" lon="-18.89394379"><ele>596.5</ele><time>2012-07-24T13:12:44.0000000+00:00</time></trkpt><trkpt lat="63.97888947" lon="-18.89394188"><ele>597.1</ele><time>2012-07-24T13:12:49.0000000+00:00</time></trkpt><trkpt lat="63.97891235" lon="-18.89393425"><ele>597.7</ele><time>2012-07-24T13:12:54.0000000+00:00</time></trkpt><trkpt lat="63.97894669" lon="-18.89389992"><ele>599.0</ele><time>2012-07-24T13:12:59.0000000+00:00</time></trkpt><trkpt lat="63.97898102" lon="-18.89385033"><ele>600.1</ele><time>2012-07-24T13:13:04.0000000+00:00</time></trkpt><trkpt lat="63.97899246" lon="-18.89383316"><ele>601.8</ele><time>2012-07-24T13:13:09.0000000+00:00</time></trkpt><trkpt lat="63.97899628" lon="-18.89385796"><ele>602.1</ele><time>2012-07-24T13:13:14.0000000+00:00</time></trkpt><trkpt lat="63.97899628" lon="-18.89386368"><ele>603.1</ele><time>2012-07-24T13:13:19.0000000+00:00</time></trkpt><trkpt lat="63.97900009" lon="-18.89386559"><ele>603.9</ele><time>2012-07-24T13:13:24.0000000+00:00</time></trkpt><trkpt lat="63.97900009" lon="-18.89387131"><ele>604.6</ele><time>2012-07-24T13:13:29.0000000+00:00</time></trkpt><trkpt lat="63.97900391" lon="-18.89387512"><ele>605.3</ele><time>2012-07-24T13:13:34.0000000+00:00</time></trkpt><trkpt lat="63.97900391" lon="-18.89387703"><ele>605.7</ele><time>2012-07-24T13:13:39.0000000+00:00</time></trkpt><trkpt lat="63.97900391" lon="-18.89387703"><ele>605.8</ele><time>2012-07-24T13:13:44.0000000+00:00</time></trkpt><trkpt lat="63.97902679" lon="-18.89384651"><ele>604.8</ele><time>2012-07-24T13:13:49.0000000+00:00</time></trkpt><trkpt lat="63.97906876" lon="-18.89379501"><ele>603.3</ele><time>2012-07-24T13:13:54.0000000+00:00</time></trkpt><trkpt lat="63.9791069" lon="-18.89374542"><ele>602.3</ele><time>2012-07-24T13:13:59.0000000+00:00</time></trkpt><trkpt lat="63.97914505" lon="-18.893713"><ele>602.2</ele><time>2012-07-24T13:14:04.0000000+00:00</time></trkpt><trkpt lat="63.97915649" lon="-18.89372063"><ele>602.7</ele><time>2012-07-24T13:14:09.0000000+00:00</time></trkpt><trkpt lat="63.97916031" lon="-18.89372444"><ele>603.6</ele><time>2012-07-24T13:14:14.0000000+00:00</time></trkpt><trkpt lat="63.97916031" lon="-18.89372444"><ele>603.9</ele><time>2012-07-24T13:14:19.0000000+00:00</time></trkpt><trkpt lat="63.97917175" lon="-18.89372635"><ele>603.8</ele><time>2012-07-24T13:14:24.0000000+00:00</time></trkpt><trkpt lat="63.97919464" lon="-18.89370155"><ele>604.2</ele><time>2012-07-24T13:14:29.0000000+00:00</time></trkpt><trkpt lat="63.97922134" lon="-18.89367104"><ele>604.6</ele><time>2012-07-24T13:14:34.0000000+00:00</time></trkpt><trkpt lat="63.97923279" lon="-18.89364815"><ele>604.3</ele><time>2012-07-24T13:14:39.0000000+00:00</time></trkpt><trkpt lat="63.97927094" lon="-18.89360619"><ele>605.6</ele><time>2012-07-24T13:14:44.0000000+00:00</time></trkpt><trkpt lat="63.97930145" lon="-18.89358711"><ele>606.0</ele><time>2012-07-24T13:14:49.0000000+00:00</time></trkpt><trkpt lat="63.97931671" lon="-18.89357376"><ele>604.8</ele><time>2012-07-24T13:14:54.0000000+00:00</time></trkpt><trkpt lat="63.97932434" lon="-18.89356995"><ele>604.3</ele><time>2012-07-24T13:14:59.0000000+00:00</time></trkpt><trkpt lat="63.97935486" lon="-18.89360809"><ele>603.4</ele><time>2012-07-24T13:15:04.0000000+00:00</time></trkpt><trkpt lat="63.97940445" lon="-18.89363289"><ele>603.7</ele><time>2012-07-24T13:15:09.0000000+00:00</time></trkpt><trkpt lat="63.97945023" lon="-18.8936863"><ele>603.6</ele><time>2012-07-24T13:15:14.0000000+00:00</time></trkpt><trkpt lat="63.97948837" lon="-18.89375305"><ele>604.4</ele><time>2012-07-24T13:15:19.0000000+00:00</time></trkpt><trkpt lat="63.97951508" lon="-18.89381981"><ele>604.8</ele><time>2012-07-24T13:15:24.0000000+00:00</time></trkpt><trkpt lat="63.97954941" lon="-18.8938942"><ele>606.4</ele><time>2012-07-24T13:15:29.0000000+00:00</time></trkpt><trkpt lat="63.97957993" lon="-18.89395905"><ele>607.8</ele><time>2012-07-24T13:15:34.0000000+00:00</time></trkpt><trkpt lat="63.97960663" lon="-18.8940258"><ele>609.0</ele><time>2012-07-24T13:15:39.0000000+00:00</time></trkpt><trkpt lat="63.97962952" lon="-18.89408302"><ele>610.0</ele><time>2012-07-24T13:15:44.0000000+00:00</time></trkpt><trkpt lat="63.97965241" lon="-18.89413452"><ele>610.5</ele><time>2012-07-24T13:15:49.0000000+00:00</time></trkpt><trkpt lat="63.97967148" lon="-18.89419556"><ele>610.9</ele><time>2012-07-24T13:15:54.0000000+00:00</time></trkpt><trkpt lat="63.97969055" lon="-18.89426422"><ele>611.1</ele><time>2012-07-24T13:15:59.0000000+00:00</time></trkpt><trkpt lat="63.979702" lon="-18.8943367"><ele>610.4</ele><time>2012-07-24T13:16:04.0000000+00:00</time></trkpt><trkpt lat="63.97971726" lon="-18.89440727"><ele>610.5</ele><time>2012-07-24T13:16:09.0000000+00:00</time></trkpt><trkpt lat="63.97973633" lon="-18.89447212"><ele>611.9</ele><time>2012-07-24T13:16:14.0000000+00:00</time></trkpt><trkpt lat="63.97975922" lon="-18.89454842"><ele>612.4</ele><time>2012-07-24T13:16:19.0000000+00:00</time></trkpt><trkpt lat="63.97977829" lon="-18.89461517"><ele>613.2</ele><time>2012-07-24T13:16:24.0000000+00:00</time></trkpt><trkpt lat="63.97980118" lon="-18.89470291"><ele>614.1</ele><time>2012-07-24T13:16:29.0000000+00:00</time></trkpt><trkpt lat="63.97982407" lon="-18.89478684"><ele>614.9</ele><time>2012-07-24T13:16:34.0000000+00:00</time></trkpt><trkpt lat="63.97985077" lon="-18.8948555"><ele>615.9</ele><time>2012-07-24T13:16:39.0000000+00:00</time></trkpt><trkpt lat="63.97987747" lon="-18.89493179"><ele>616.5</ele><time>2012-07-24T13:16:44.0000000+00:00</time></trkpt><trkpt lat="63.97988892" lon="-18.89494324"><ele>617.0</ele><time>2012-07-24T13:16:49.0000000+00:00</time></trkpt><trkpt lat="63.9798851" lon="-18.89493942"><ele>616.9</ele><time>2012-07-24T13:16:54.0000000+00:00</time></trkpt><trkpt lat="63.9798851" lon="-18.89493561"><ele>616.9</ele><time>2012-07-24T13:16:59.0000000+00:00</time></trkpt><trkpt lat="63.97991562" lon="-18.89502144"><ele>617.9</ele><time>2012-07-24T13:17:04.0000000+00:00</time></trkpt><trkpt lat="63.97994232" lon="-18.8950901"><ele>617.8</ele><time>2012-07-24T13:17:09.0000000+00:00</time></trkpt><trkpt lat="63.97997284" lon="-18.89513016"><ele>618.8</ele><time>2012-07-24T13:17:14.0000000+00:00</time></trkpt><trkpt lat="63.97999954" lon="-18.89512444"><ele>618.7</ele><time>2012-07-24T13:17:19.0000000+00:00</time></trkpt><trkpt lat="63.9800415" lon="-18.89513969"><ele>619.3</ele><time>2012-07-24T13:17:24.0000000+00:00</time></trkpt><trkpt lat="63.98007584" lon="-18.89514351"><ele>619.7</ele><time>2012-07-24T13:17:29.0000000+00:00</time></trkpt><trkpt lat="63.98011398" lon="-18.89512444"><ele>620.3</ele><time>2012-07-24T13:17:34.0000000+00:00</time></trkpt><trkpt lat="63.98014832" lon="-18.89509583"><ele>620.6</ele><time>2012-07-24T13:17:39.0000000+00:00</time></trkpt><trkpt lat="63.98018265" lon="-18.89505196"><ele>621.2</ele><time>2012-07-24T13:17:44.0000000+00:00</time></trkpt><trkpt lat="63.98021317" lon="-18.89499092"><ele>621.6</ele><time>2012-07-24T13:17:49.0000000+00:00</time></trkpt><trkpt lat="63.98023605" lon="-18.89489937"><ele>622.0</ele><time>2012-07-24T13:17:54.0000000+00:00</time></trkpt><trkpt lat="63.98025894" lon="-18.89481354"><ele>623.2</ele><time>2012-07-24T13:17:59.0000000+00:00</time></trkpt><trkpt lat="63.9802742" lon="-18.89470863"><ele>622.3</ele><time>2012-07-24T13:18:04.0000000+00:00</time></trkpt><trkpt lat="63.98028946" lon="-18.89461708"><ele>622.5</ele><time>2012-07-24T13:18:09.0000000+00:00</time></trkpt><trkpt lat="63.98029327" lon="-18.89456368"><ele>622.8</ele><time>2012-07-24T13:18:14.0000000+00:00</time></trkpt><trkpt lat="63.98029327" lon="-18.89456368"><ele>622.8</ele><time>2012-07-24T13:18:19.0000000+00:00</time></trkpt><trkpt lat="63.98029327" lon="-18.89456368"><ele>622.8</ele><time>2012-07-24T13:18:24.0000000+00:00</time></trkpt><trkpt lat="63.98029709" lon="-18.89449692"><ele>623.5</ele><time>2012-07-24T13:18:29.0000000+00:00</time></trkpt><trkpt lat="63.98028946" lon="-18.89439964"><ele>624.5</ele><time>2012-07-24T13:18:34.0000000+00:00</time></trkpt><trkpt lat="63.98028565" lon="-18.89440155"><ele>624.3</ele><time>2012-07-24T13:18:39.0000000+00:00</time></trkpt><trkpt lat="63.98028565" lon="-18.89440346"><ele>624.3</ele><time>2012-07-24T13:18:44.0000000+00:00</time></trkpt><trkpt lat="63.98028565" lon="-18.89440346"><ele>624.2</ele><time>2012-07-24T13:18:49.0000000+00:00</time></trkpt><trkpt lat="63.98028565" lon="-18.89440346"><ele>624.2</ele><time>2012-07-24T13:18:54.0000000+00:00</time></trkpt><trkpt lat="63.98028183" lon="-18.89430237"><ele>624.7</ele><time>2012-07-24T13:18:59.0000000+00:00</time></trkpt><trkpt lat="63.98027039" lon="-18.89420509"><ele>625.0</ele><time>2012-07-24T13:19:04.0000000+00:00</time></trkpt><trkpt lat="63.98027039" lon="-18.89411545"><ele>625.0</ele><time>2012-07-24T13:19:09.0000000+00:00</time></trkpt><trkpt lat="63.98026276" lon="-18.89399529"><ele>625.3</ele><time>2012-07-24T13:19:14.0000000+00:00</time></trkpt><trkpt lat="63.98025513" lon="-18.89387131"><ele>625.7</ele><time>2012-07-24T13:19:19.0000000+00:00</time></trkpt><trkpt lat="63.98025131" lon="-18.89377022"><ele>625.8</ele><time>2012-07-24T13:19:24.0000000+00:00</time></trkpt><trkpt lat="63.98025513" lon="-18.89365006"><ele>626.5</ele><time>2012-07-24T13:19:29.0000000+00:00</time></trkpt><trkpt lat="63.98025513" lon="-18.89355278"><ele>626.6</ele><time>2012-07-24T13:19:34.0000000+00:00</time></trkpt><trkpt lat="63.98025894" lon="-18.89351082"><ele>627.0</ele><time>2012-07-24T13:19:39.0000000+00:00</time></trkpt><trkpt lat="63.98025894" lon="-18.89351082"><ele>627.2</ele><time>2012-07-24T13:19:44.0000000+00:00</time></trkpt><trkpt lat="63.98025131" lon="-18.89339256"><ele>627.5</ele><time>2012-07-24T13:19:49.0000000+00:00</time></trkpt><trkpt lat="63.98025131" lon="-18.89320946"><ele>627.7</ele><time>2012-07-24T13:19:54.0000000+00:00</time></trkpt><trkpt lat="63.98026657" lon="-18.89294815"><ele>628.0</ele><time>2012-07-24T13:19:59.0000000+00:00</time></trkpt><trkpt lat="63.9802208" lon="-18.89256096"><ele>627.4</ele><time>2012-07-24T13:20:04.0000000+00:00</time></trkpt><trkpt lat="63.98009872" lon="-18.89210892"><ele>623.2</ele><time>2012-07-24T13:20:09.0000000+00:00</time></trkpt><trkpt lat="63.97990418" lon="-18.89165688"><ele>619.1</ele><time>2012-07-24T13:20:14.0000000+00:00</time></trkpt><trkpt lat="63.97969437" lon="-18.89125252"><ele>614.0</ele><time>2012-07-24T13:20:19.0000000+00:00</time></trkpt><trkpt lat="63.97947693" lon="-18.89078522"><ele>608.0</ele><time>2012-07-24T13:20:24.0000000+00:00</time></trkpt><trkpt lat="63.9793396" lon="-18.8898716"><ele>602.4</ele><time>2012-07-24T13:20:29.0000000+00:00</time></trkpt><trkpt lat="63.97938538" lon="-18.88911629"><ele>604.1</ele><time>2012-07-24T13:20:34.0000000+00:00</time></trkpt><trkpt lat="63.97941971" lon="-18.88874817"><ele>607.6</ele><time>2012-07-24T13:20:39.0000000+00:00</time></trkpt><trkpt lat="63.97943878" lon="-18.88834"><ele>608.0</ele><time>2012-07-24T13:20:44.0000000+00:00</time></trkpt><trkpt lat="63.97945786" lon="-18.88803291"><ele>607.1</ele><time>2012-07-24T13:20:49.0000000+00:00</time></trkpt><trkpt lat="63.9794693" lon="-18.88784981"><ele>605.9</ele><time>2012-07-24T13:20:54.0000000+00:00</time></trkpt><trkpt lat="63.97949219" lon="-18.88766289"><ele>605.8</ele><time>2012-07-24T13:20:59.0000000+00:00</time></trkpt><trkpt lat="63.97951508" lon="-18.88751984"><ele>605.5</ele><time>2012-07-24T13:21:04.0000000+00:00</time></trkpt><trkpt lat="63.97954178" lon="-18.88735962"><ele>604.8</ele><time>2012-07-24T13:21:09.0000000+00:00</time></trkpt><trkpt lat="63.97958756" lon="-18.88720703"><ele>604.6</ele><time>2012-07-24T13:21:14.0000000+00:00</time></trkpt><trkpt lat="63.97965241" lon="-18.887043"><ele>604.3</ele><time>2012-07-24T13:21:19.0000000+00:00</time></trkpt><trkpt lat="63.97972488" lon="-18.88691139"><ele>605.5</ele><time>2012-07-24T13:21:24.0000000+00:00</time></trkpt><trkpt lat="63.9797821" lon="-18.88678169"><ele>606.2</ele><time>2012-07-24T13:21:29.0000000+00:00</time></trkpt><trkpt lat="63.9798317" lon="-18.88671494"><ele>607.2</ele><time>2012-07-24T13:21:34.0000000+00:00</time></trkpt><trkpt lat="63.97987747" lon="-18.88664246"><ele>609.0</ele><time>2012-07-24T13:21:39.0000000+00:00</time></trkpt><trkpt lat="63.97991943" lon="-18.8865509"><ele>610.5</ele><time>2012-07-24T13:21:44.0000000+00:00</time></trkpt><trkpt lat="63.97993469" lon="-18.88653374"><ele>613.0</ele><time>2012-07-24T13:21:49.0000000+00:00</time></trkpt><trkpt lat="63.97994995" lon="-18.88650131"><ele>613.3</ele><time>2012-07-24T13:21:54.0000000+00:00</time></trkpt><trkpt lat="63.97998047" lon="-18.88643456"><ele>614.8</ele><time>2012-07-24T13:21:59.0000000+00:00</time></trkpt><trkpt lat="63.98000717" lon="-18.88637924"><ele>615.3</ele><time>2012-07-24T13:22:04.0000000+00:00</time></trkpt><trkpt lat="63.98003388" lon="-18.88631249"><ele>615.2</ele><time>2012-07-24T13:22:09.0000000+00:00</time></trkpt><trkpt lat="63.98002243" lon="-18.88631249"><ele>614.9</ele><time>2012-07-24T13:22:14.0000000+00:00</time></trkpt><trkpt lat="63.98002243" lon="-18.88631249"><ele>614.9</ele><time>2012-07-24T13:22:19.0000000+00:00</time></trkpt><trkpt lat="63.9800415" lon="-18.8862896"><ele>615.0</ele><time>2012-07-24T13:22:24.0000000+00:00</time></trkpt><trkpt lat="63.98008347" lon="-18.88620377"><ele>614.3</ele><time>2012-07-24T13:22:29.0000000+00:00</time></trkpt><trkpt lat="63.98011398" lon="-18.88611603"><ele>614.8</ele><time>2012-07-24T13:22:34.0000000+00:00</time></trkpt><trkpt lat="63.98014069" lon="-18.88602257"><ele>615.8</ele><time>2012-07-24T13:22:39.0000000+00:00</time></trkpt><trkpt lat="63.98015976" lon="-18.88592911"><ele>616.0</ele><time>2012-07-24T13:22:44.0000000+00:00</time></trkpt><trkpt lat="63.98016739" lon="-18.88586807"><ele>616.6</ele><time>2012-07-24T13:22:49.0000000+00:00</time></trkpt><trkpt lat="63.98016739" lon="-18.88583565"><ele>617.0</ele><time>2012-07-24T13:22:54.0000000+00:00</time></trkpt><trkpt lat="63.98016739" lon="-18.88582611"><ele>617.0</ele><time>2012-07-24T13:22:59.0000000+00:00</time></trkpt><trkpt lat="63.9801712" lon="-18.88580704"><ele>616.9</ele><time>2012-07-24T13:23:04.0000000+00:00</time></trkpt><trkpt lat="63.98016739" lon="-18.88567734"><ele>616.7</ele><time>2012-07-24T13:23:09.0000000+00:00</time></trkpt><trkpt lat="63.98015213" lon="-18.88536453"><ele>616.0</ele><time>2012-07-24T13:23:14.0000000+00:00</time></trkpt><trkpt lat="63.98011017" lon="-18.8846302"><ele>613.0</ele><time>2012-07-24T13:23:19.0000000+00:00</time></trkpt><trkpt lat="63.98010254" lon="-18.8838253"><ele>612.0</ele><time>2012-07-24T13:23:24.0000000+00:00</time></trkpt><trkpt lat="63.98012924" lon="-18.882967"><ele>607.9</ele><time>2012-07-24T13:23:29.0000000+00:00</time></trkpt><trkpt lat="63.98019028" lon="-18.88227081"><ele>605.8</ele><time>2012-07-24T13:23:34.0000000+00:00</time></trkpt><trkpt lat="63.98036575" lon="-18.88207817"><ele>605.0</ele><time>2012-07-24T13:23:39.0000000+00:00</time></trkpt><trkpt lat="63.98044968" lon="-18.88197327"><ele>602.5</ele><time>2012-07-24T13:23:44.0000000+00:00</time></trkpt><trkpt lat="63.98059464" lon="-18.88160896"><ele>598.6</ele><time>2012-07-24T13:23:49.0000000+00:00</time></trkpt><trkpt lat="63.98074341" lon="-18.88105393"><ele>594.0</ele><time>2012-07-24T13:23:54.0000000+00:00</time></trkpt><trkpt lat="63.98074722" lon="-18.88060761"><ele>589.0</ele><time>2012-07-24T13:23:59.0000000+00:00</time></trkpt><trkpt lat="63.98050308" lon="-18.88054276"><ele>588.3</ele><time>2012-07-24T13:24:04.0000000+00:00</time></trkpt><trkpt lat="63.98027802" lon="-18.88021851"><ele>584.2</ele><time>2012-07-24T13:24:09.0000000+00:00</time></trkpt><trkpt lat="63.98028565" lon="-18.88000298"><ele>577.6</ele><time>2012-07-24T13:24:14.0000000+00:00</time></trkpt><trkpt lat="63.98031616" lon="-18.87985992"><ele>575.8</ele><time>2012-07-24T13:24:19.0000000+00:00</time></trkpt><trkpt lat="63.98034287" lon="-18.87979889"><ele>575.8</ele><time>2012-07-24T13:24:24.0000000+00:00</time></trkpt><trkpt lat="63.98034287" lon="-18.8798027"><ele>575.8</ele><time>2012-07-24T13:24:29.0000000+00:00</time></trkpt><trkpt lat="63.98033905" lon="-18.8798027"><ele>575.8</ele><time>2012-07-24T13:24:34.0000000+00:00</time></trkpt><trkpt lat="63.98034287" lon="-18.87981415"><ele>575.7</ele><time>2012-07-24T13:24:39.0000000+00:00</time></trkpt><trkpt lat="63.9803009" lon="-18.8798542"><ele>575.3</ele><time>2012-07-24T13:24:44.0000000+00:00</time></trkpt><trkpt lat="63.98021317" lon="-18.8798275"><ele>575.5</ele><time>2012-07-24T13:24:49.0000000+00:00</time></trkpt><trkpt lat="63.98016357" lon="-18.87977219"><ele>576.2</ele><time>2012-07-24T13:24:54.0000000+00:00</time></trkpt><trkpt lat="63.98015976" lon="-18.87975693"><ele>577.5</ele><time>2012-07-24T13:24:59.0000000+00:00</time></trkpt><trkpt lat="63.9801712" lon="-18.87974358"><ele>578.0</ele><time>2012-07-24T13:25:04.0000000+00:00</time></trkpt><trkpt lat="63.98015595" lon="-18.87974358"><ele>578.2</ele><time>2012-07-24T13:25:09.0000000+00:00</time></trkpt><trkpt lat="63.98015213" lon="-18.87975121"><ele>578.5</ele><time>2012-07-24T13:25:14.0000000+00:00</time></trkpt><trkpt lat="63.98015595" lon="-18.87974548"><ele>578.7</ele><time>2012-07-24T13:25:19.0000000+00:00</time></trkpt><trkpt lat="63.98015595" lon="-18.87973404"><ele>579.4</ele><time>2012-07-24T13:25:24.0000000+00:00</time></trkpt><trkpt lat="63.98015213" lon="-18.87968445"><ele>577.2</ele><time>2012-07-24T13:25:29.0000000+00:00</time></trkpt><trkpt lat="63.98015213" lon="-18.87968445"><ele>577.1</ele><time>2012-07-24T13:25:34.0000000+00:00</time></trkpt><trkpt lat="63.98015213" lon="-18.87968254"><ele>577.1</ele><time>2012-07-24T13:25:39.0000000+00:00</time></trkpt><trkpt lat="63.98015213" lon="-18.87968254"><ele>577.1</ele><time>2012-07-24T13:25:44.0000000+00:00</time></trkpt><trkpt lat="63.98015213" lon="-18.87968445"><ele>577.1</ele><time>2012-07-24T13:25:49.0000000+00:00</time></trkpt><trkpt lat="63.98015213" lon="-18.87968445"><ele>577.1</ele><time>2012-07-24T13:25:54.0000000+00:00</time></trkpt><trkpt lat="63.98015213" lon="-18.87968254"><ele>577.1</ele><time>2012-07-24T13:25:59.0000000+00:00</time></trkpt><trkpt lat="63.98015213" lon="-18.87968254"><ele>577.0</ele><time>2012-07-24T13:26:04.0000000+00:00</time></trkpt><trkpt lat="63.98015595" lon="-18.87969589"><ele>578.3</ele><time>2012-07-24T13:26:09.0000000+00:00</time></trkpt><trkpt lat="63.98015595" lon="-18.87969399"><ele>578.3</ele><time>2012-07-24T13:26:14.0000000+00:00</time></trkpt><trkpt lat="63.98015595" lon="-18.87969589"><ele>578.5</ele><time>2012-07-24T13:26:19.0000000+00:00</time></trkpt><trkpt lat="63.98015213" lon="-18.87969399"><ele>578.5</ele><time>2012-07-24T13:26:24.0000000+00:00</time></trkpt><trkpt lat="63.98015213" lon="-18.87969399"><ele>578.5</ele><time>2012-07-24T13:26:29.0000000+00:00</time></trkpt><trkpt lat="63.98015213" lon="-18.87969399"><ele>578.5</ele><time>2012-07-24T13:26:34.0000000+00:00</time></trkpt><trkpt lat="63.98015595" lon="-18.87969017"><ele>578.5</ele><time>2012-07-24T13:26:39.0000000+00:00</time></trkpt><trkpt lat="63.9801712" lon="-18.87966347"><ele>577.7</ele><time>2012-07-24T13:26:44.0000000+00:00</time></trkpt><trkpt lat="63.98019409" lon="-18.87958527"><ele>577.4</ele><time>2012-07-24T13:26:49.0000000+00:00</time></trkpt><trkpt lat="63.98021317" lon="-18.87945747"><ele>576.3</ele><time>2012-07-24T13:26:54.0000000+00:00</time></trkpt><trkpt lat="63.98023224" lon="-18.87931252"><ele>575.8</ele><time>2012-07-24T13:26:59.0000000+00:00</time></trkpt><trkpt lat="63.98023605" lon="-18.87931633"><ele>575.0</ele><time>2012-07-24T13:27:04.0000000+00:00</time></trkpt><trkpt lat="63.98024368" lon="-18.8792305"><ele>574.3</ele><time>2012-07-24T13:27:09.0000000+00:00</time></trkpt><trkpt lat="63.98025513" lon="-18.87912369"><ele>573.8</ele><time>2012-07-24T13:27:14.0000000+00:00</time></trkpt><trkpt lat="63.98027039" lon="-18.87906647"><ele>573.9</ele><time>2012-07-24T13:27:19.0000000+00:00</time></trkpt><trkpt lat="63.9802742" lon="-18.87897301"><ele>573.5</ele><time>2012-07-24T13:27:24.0000000+00:00</time></trkpt><trkpt lat="63.98028565" lon="-18.87886238"><ele>572.8</ele><time>2012-07-24T13:27:29.0000000+00:00</time></trkpt><trkpt lat="63.98028565" lon="-18.87874031"><ele>573.0</ele><time>2012-07-24T13:27:34.0000000+00:00</time></trkpt><trkpt lat="63.98027802" lon="-18.87864685"><ele>572.7</ele><time>2012-07-24T13:27:39.0000000+00:00</time></trkpt><trkpt lat="63.98027802" lon="-18.87861252"><ele>572.9</ele><time>2012-07-24T13:27:44.0000000+00:00</time></trkpt><trkpt lat="63.98027802" lon="-18.87861252"><ele>572.9</ele><time>2012-07-24T13:27:49.0000000+00:00</time></trkpt><trkpt lat="63.98027802" lon="-18.87861252"><ele>572.9</ele><time>2012-07-24T13:27:54.0000000+00:00</time></trkpt><trkpt lat="63.98027802" lon="-18.87861252"><ele>572.9</ele><time>2012-07-24T13:27:59.0000000+00:00</time></trkpt><trkpt lat="63.98027802" lon="-18.87861252"><ele>572.9</ele><time>2012-07-24T13:28:04.0000000+00:00</time></trkpt><trkpt lat="63.98027802" lon="-18.87861252"><ele>572.9</ele><time>2012-07-24T13:28:09.0000000+00:00</time></trkpt><trkpt lat="63.98027802" lon="-18.87861252"><ele>572.9</ele><time>2012-07-24T13:28:14.0000000+00:00</time></trkpt><trkpt lat="63.98027802" lon="-18.87861061"><ele>572.9</ele><time>2012-07-24T13:28:19.0000000+00:00</time></trkpt><trkpt lat="63.98027802" lon="-18.87861061"><ele>572.9</ele><time>2012-07-24T13:28:24.0000000+00:00</time></trkpt><trkpt lat="63.98027802" lon="-18.87861061"><ele>572.9</ele><time>2012-07-24T13:28:29.0000000+00:00</time></trkpt><trkpt lat="63.98027802" lon="-18.87861061"><ele>572.9</ele><time>2012-07-24T13:28:34.0000000+00:00</time></trkpt><trkpt lat="63.98027802" lon="-18.87861061"><ele>572.9</ele><time>2012-07-24T13:28:39.0000000+00:00</time></trkpt><trkpt lat="63.98027802" lon="-18.87861061"><ele>572.9</ele><time>2012-07-24T13:28:44.0000000+00:00</time></trkpt><trkpt lat="63.98027802" lon="-18.87861061"><ele>572.9</ele><time>2012-07-24T13:28:49.0000000+00:00</time></trkpt><trkpt lat="63.98027802" lon="-18.87860107"><ele>573.0</ele><time>2012-07-24T13:28:54.0000000+00:00</time></trkpt><trkpt lat="63.9802742" lon="-18.87858963"><ele>573.0</ele><time>2012-07-24T13:28:59.0000000+00:00</time></trkpt><trkpt lat="63.98027039" lon="-18.87858963"><ele>573.0</ele><time>2012-07-24T13:29:04.0000000+00:00</time></trkpt><trkpt lat="63.98027039" lon="-18.87858963"><ele>572.9</ele><time>2012-07-24T13:29:09.0000000+00:00</time></trkpt><trkpt lat="63.98027039" lon="-18.87858772"><ele>572.9</ele><time>2012-07-24T13:29:14.0000000+00:00</time></trkpt><trkpt lat="63.98027039" lon="-18.87858772"><ele>572.9</ele><time>2012-07-24T13:29:19.0000000+00:00</time></trkpt><trkpt lat="63.98027039" lon="-18.87858772"><ele>573.2</ele><time>2012-07-24T13:29:24.0000000+00:00</time></trkpt><trkpt lat="63.98027039" lon="-18.87858772"><ele>573.3</ele><time>2012-07-24T13:29:29.0000000+00:00</time></trkpt><trkpt lat="63.98023987" lon="-18.87858009"><ele>573.7</ele><time>2012-07-24T13:29:34.0000000+00:00</time></trkpt><trkpt lat="63.98018646" lon="-18.87853622"><ele>574.3</ele><time>2012-07-24T13:29:39.0000000+00:00</time></trkpt><trkpt lat="63.98013306" lon="-18.8784256"><ele>575.2</ele><time>2012-07-24T13:29:44.0000000+00:00</time></trkpt><trkpt lat="63.98009872" lon="-18.87836647"><ele>576.9</ele><time>2012-07-24T13:29:49.0000000+00:00</time></trkpt><trkpt lat="63.98008728" lon="-18.87834358"><ele>578.6</ele><time>2012-07-24T13:29:54.0000000+00:00</time></trkpt><trkpt lat="63.98007202" lon="-18.87830353"><ele>579.1</ele><time>2012-07-24T13:29:59.0000000+00:00</time></trkpt><trkpt lat="63.98005676" lon="-18.87824822"><ele>580.4</ele><time>2012-07-24T13:30:04.0000000+00:00</time></trkpt><trkpt lat="63.98004913" lon="-18.87820625"><ele>581.6</ele><time>2012-07-24T13:30:09.0000000+00:00</time></trkpt><trkpt lat="63.98003388" lon="-18.87816238"><ele>582.7</ele><time>2012-07-24T13:30:14.0000000+00:00</time></trkpt><trkpt lat="63.98002243" lon="-18.87812233"><ele>584.6</ele><time>2012-07-24T13:30:19.0000000+00:00</time></trkpt><trkpt lat="63.9800148" lon="-18.87807846"><ele>585.3</ele><time>2012-07-24T13:30:24.0000000+00:00</time></trkpt><trkpt lat="63.97999573" lon="-18.87802887"><ele>586.0</ele><time>2012-07-24T13:30:29.0000000+00:00</time></trkpt><trkpt lat="63.97996903" lon="-18.87797546"><ele>586.7</ele><time>2012-07-24T13:30:34.0000000+00:00</time></trkpt><trkpt lat="63.97994614" lon="-18.87792397"><ele>588.0</ele><time>2012-07-24T13:30:39.0000000+00:00</time></trkpt><trkpt lat="63.97992706" lon="-18.87786865"><ele>589.2</ele><time>2012-07-24T13:30:44.0000000+00:00</time></trkpt><trkpt lat="63.97989273" lon="-18.87778664"><ele>590.1</ele><time>2012-07-24T13:30:49.0000000+00:00</time></trkpt><trkpt lat="63.97986984" lon="-18.87772369"><ele>591.5</ele><time>2012-07-24T13:30:54.0000000+00:00</time></trkpt><trkpt lat="63.9798317" lon="-18.8776722"><ele>592.5</ele><time>2012-07-24T13:30:59.0000000+00:00</time></trkpt><trkpt lat="63.97980499" lon="-18.87761307"><ele>593.3</ele><time>2012-07-24T13:31:04.0000000+00:00</time></trkpt><trkpt lat="63.97977829" lon="-18.87754059"><ele>594.2</ele><time>2012-07-24T13:31:09.0000000+00:00</time></trkpt><trkpt lat="63.9797554" lon="-18.87748528"><ele>594.5</ele><time>2012-07-24T13:31:14.0000000+00:00</time></trkpt><trkpt lat="63.9797554" lon="-18.87746239"><ele>593.9</ele><time>2012-07-24T13:31:19.0000000+00:00</time></trkpt><trkpt lat="63.97973633" lon="-18.87739945"><ele>593.7</ele><time>2012-07-24T13:31:24.0000000+00:00</time></trkpt><trkpt lat="63.97968292" lon="-18.87721634"><ele>594.3</ele><time>2012-07-24T13:31:29.0000000+00:00</time></trkpt><trkpt lat="63.97963333" lon="-18.87708855"><ele>592.7</ele><time>2012-07-24T13:31:34.0000000+00:00</time></trkpt><trkpt lat="63.97958756" lon="-18.87693214"><ele>593.8</ele><time>2012-07-24T13:31:39.0000000+00:00</time></trkpt><trkpt lat="63.97951126" lon="-18.876791"><ele>596.5</ele><time>2012-07-24T13:31:44.0000000+00:00</time></trkpt><trkpt lat="63.97943878" lon="-18.87658501"><ele>596.9</ele><time>2012-07-24T13:31:49.0000000+00:00</time></trkpt><trkpt lat="63.97938538" lon="-18.87645531"><ele>597.2</ele><time>2012-07-24T13:31:54.0000000+00:00</time></trkpt><trkpt lat="63.9793396" lon="-18.87624931"><ele>596.6</ele><time>2012-07-24T13:31:59.0000000+00:00</time></trkpt><trkpt lat="63.97933579" lon="-18.87597084"><ele>595.6</ele><time>2012-07-24T13:32:04.0000000+00:00</time></trkpt><trkpt lat="63.9793663" lon="-18.87565994"><ele>595.7</ele><time>2012-07-24T13:32:09.0000000+00:00</time></trkpt><trkpt lat="63.97941208" lon="-18.87534523"><ele>594.6</ele><time>2012-07-24T13:32:14.0000000+00:00</time></trkpt><trkpt lat="63.979496" lon="-18.87509728"><ele>593.1</ele><time>2012-07-24T13:32:19.0000000+00:00</time></trkpt><trkpt lat="63.97960663" lon="-18.87491798"><ele>592.7</ele><time>2012-07-24T13:32:24.0000000+00:00</time></trkpt><trkpt lat="63.97973251" lon="-18.87472725"><ele>590.1</ele><time>2012-07-24T13:32:29.0000000+00:00</time></trkpt><trkpt lat="63.97985077" lon="-18.87455559"><ele>590.5</ele><time>2012-07-24T13:32:34.0000000+00:00</time></trkpt><trkpt lat="63.9799614" lon="-18.87433815"><ele>591.1</ele><time>2012-07-24T13:32:39.0000000+00:00</time></trkpt><trkpt lat="63.98006821" lon="-18.87406921"><ele>590.5</ele><time>2012-07-24T13:32:44.0000000+00:00</time></trkpt><trkpt lat="63.9801445" lon="-18.87382698"><ele>590.9</ele><time>2012-07-24T13:32:49.0000000+00:00</time></trkpt><trkpt lat="63.98018265" lon="-18.87360001"><ele>590.8</ele><time>2012-07-24T13:32:54.0000000+00:00</time></trkpt><trkpt lat="63.98023605" lon="-18.87333107"><ele>590.3</ele><time>2012-07-24T13:32:59.0000000+00:00</time></trkpt><trkpt lat="63.98027039" lon="-18.87304306"><ele>589.3</ele><time>2012-07-24T13:33:04.0000000+00:00</time></trkpt><trkpt lat="63.98028946" lon="-18.87282944"><ele>588.0</ele><time>2012-07-24T13:33:09.0000000+00:00</time></trkpt><trkpt lat="63.98031235" lon="-18.87255669"><ele>589.2</ele><time>2012-07-24T13:33:14.0000000+00:00</time></trkpt><trkpt lat="63.98032379" lon="-18.87229538"><ele>589.4</ele><time>2012-07-24T13:33:19.0000000+00:00</time></trkpt><trkpt lat="63.98034287" lon="-18.87197876"><ele>589.3</ele><time>2012-07-24T13:33:24.0000000+00:00</time></trkpt><trkpt lat="63.98035431" lon="-18.87159729"><ele>589.3</ele><time>2012-07-24T13:33:29.0000000+00:00</time></trkpt><trkpt lat="63.98036194" lon="-18.87117195"><ele>590.3</ele><time>2012-07-24T13:33:34.0000000+00:00</time></trkpt><trkpt lat="63.98036957" lon="-18.87074852"><ele>591.3</ele><time>2012-07-24T13:33:39.0000000+00:00</time></trkpt><trkpt lat="63.98036957" lon="-18.87030029"><ele>590.8</ele><time>2012-07-24T13:33:44.0000000+00:00</time></trkpt><trkpt lat="63.9803772" lon="-18.86981583"><ele>590.3</ele><time>2012-07-24T13:33:49.0000000+00:00</time></trkpt><trkpt lat="63.98036957" lon="-18.86948776"><ele>591.7</ele><time>2012-07-24T13:33:54.0000000+00:00</time></trkpt><trkpt lat="63.98028946" lon="-18.86913872"><ele>587.8</ele><time>2012-07-24T13:33:59.0000000+00:00</time></trkpt><trkpt lat="63.98020935" lon="-18.86868858"><ele>583.6</ele><time>2012-07-24T13:34:04.0000000+00:00</time></trkpt><trkpt lat="63.98042297" lon="-18.86827469"><ele>575.8</ele><time>2012-07-24T13:34:09.0000000+00:00</time></trkpt><trkpt lat="63.98064041" lon="-18.86812592"><ele>575.9</ele><time>2012-07-24T13:34:14.0000000+00:00</time></trkpt><trkpt lat="63.98064804" lon="-18.86812782"><ele>576.5</ele><time>2012-07-24T13:34:19.0000000+00:00</time></trkpt><trkpt lat="63.98064804" lon="-18.86812782"><ele>576.5</ele><time>2012-07-24T13:34:24.0000000+00:00</time></trkpt><trkpt lat="63.98064804" lon="-18.86812782"><ele>576.5</ele><time>2012-07-24T13:34:29.0000000+00:00</time></trkpt><trkpt lat="63.98064423" lon="-18.86813164"><ele>577.4</ele><time>2012-07-24T13:34:34.0000000+00:00</time></trkpt><trkpt lat="63.98064423" lon="-18.86813164"><ele>577.6</ele><time>2012-07-24T13:34:39.0000000+00:00</time></trkpt><trkpt lat="63.9806633" lon="-18.8681221"><ele>577.7</ele><time>2012-07-24T13:34:44.0000000+00:00</time></trkpt><trkpt lat="63.98069763" lon="-18.8681469"><ele>578.7</ele><time>2012-07-24T13:34:49.0000000+00:00</time></trkpt><trkpt lat="63.98070145" lon="-18.86816216"><ele>578.6</ele><time>2012-07-24T13:34:54.0000000+00:00</time></trkpt><trkpt lat="63.98074341" lon="-18.86820984"><ele>578.8</ele><time>2012-07-24T13:34:59.0000000+00:00</time></trkpt><trkpt lat="63.98075485" lon="-18.8682251"><ele>579.3</ele><time>2012-07-24T13:35:04.0000000+00:00</time></trkpt><trkpt lat="63.98075485" lon="-18.86822701"><ele>579.1</ele><time>2012-07-24T13:35:09.0000000+00:00</time></trkpt><trkpt lat="63.98075485" lon="-18.86822701"><ele>579.0</ele><time>2012-07-24T13:35:14.0000000+00:00</time></trkpt><trkpt lat="63.98075485" lon="-18.86822701"><ele>579.0</ele><time>2012-07-24T13:35:19.0000000+00:00</time></trkpt><trkpt lat="63.9808197" lon="-18.8682518"><ele>579.5</ele><time>2012-07-24T13:35:24.0000000+00:00</time></trkpt><trkpt lat="63.9809494" lon="-18.86827278"><ele>580.0</ele><time>2012-07-24T13:35:29.0000000+00:00</time></trkpt><trkpt lat="63.98109055" lon="-18.86818123"><ele>581.3</ele><time>2012-07-24T13:35:34.0000000+00:00</time></trkpt><trkpt lat="63.98111343" lon="-18.86800957"><ele>581.1</ele><time>2012-07-24T13:35:39.0000000+00:00</time></trkpt><trkpt lat="63.98111725" lon="-18.86784363"><ele>580.6</ele><time>2012-07-24T13:35:44.0000000+00:00</time></trkpt><trkpt lat="63.98107147" lon="-18.86772347"><ele>582.3</ele><time>2012-07-24T13:35:49.0000000+00:00</time></trkpt><trkpt lat="63.9810524" lon="-18.86759377"><ele>583.9</ele><time>2012-07-24T13:35:54.0000000+00:00</time></trkpt><trkpt lat="63.98102951" lon="-18.86747551"><ele>584.3</ele><time>2012-07-24T13:35:59.0000000+00:00</time></trkpt><trkpt lat="63.98101425" lon="-18.867342"><ele>587.0</ele><time>2012-07-24T13:36:04.0000000+00:00</time></trkpt><trkpt lat="63.98101425" lon="-18.86712837"><ele>586.6</ele><time>2012-07-24T13:36:09.0000000+00:00</time></trkpt><trkpt lat="63.98104096" lon="-18.86697197"><ele>584.6</ele><time>2012-07-24T13:36:14.0000000+00:00</time></trkpt><trkpt lat="63.98108673" lon="-18.86681938"><ele>584.4</ele><time>2012-07-24T13:36:19.0000000+00:00</time></trkpt><trkpt lat="63.98111725" lon="-18.86671066"><ele>585.3</ele><time>2012-07-24T13:36:24.0000000+00:00</time></trkpt><trkpt lat="63.98114777" lon="-18.8666153"><ele>586.1</ele><time>2012-07-24T13:36:29.0000000+00:00</time></trkpt><trkpt lat="63.98119736" lon="-18.8665123"><ele>587.6</ele><time>2012-07-24T13:36:34.0000000+00:00</time></trkpt><trkpt lat="63.98125458" lon="-18.86631775"><ele>587.1</ele><time>2012-07-24T13:36:39.0000000+00:00</time></trkpt><trkpt lat="63.98126984" lon="-18.86599541"><ele>586.8</ele><time>2012-07-24T13:36:44.0000000+00:00</time></trkpt><trkpt lat="63.98122406" lon="-18.86551094"><ele>584.9</ele><time>2012-07-24T13:36:49.0000000+00:00</time></trkpt><trkpt lat="63.98123932" lon="-18.86481094"><ele>583.7</ele><time>2012-07-24T13:36:54.0000000+00:00</time></trkpt><trkpt lat="63.98128128" lon="-18.86427307"><ele>583.6</ele><time>2012-07-24T13:36:59.0000000+00:00</time></trkpt><trkpt lat="63.98130417" lon="-18.86387825"><ele>583.5</ele><time>2012-07-24T13:37:04.0000000+00:00</time></trkpt><trkpt lat="63.9813118" lon="-18.86361122"><ele>582.3</ele><time>2012-07-24T13:37:09.0000000+00:00</time></trkpt><trkpt lat="63.98131561" lon="-18.8634243"><ele>581.3</ele><time>2012-07-24T13:37:14.0000000+00:00</time></trkpt><trkpt lat="63.98133087" lon="-18.86320877"><ele>579.3</ele><time>2012-07-24T13:37:19.0000000+00:00</time></trkpt><trkpt lat="63.98136139" lon="-18.86300278"><ele>577.7</ele><time>2012-07-24T13:37:24.0000000+00:00</time></trkpt><trkpt lat="63.98139954" lon="-18.86274719"><ele>576.0</ele><time>2012-07-24T13:37:29.0000000+00:00</time></trkpt><trkpt lat="63.98147202" lon="-18.86250305"><ele>575.8</ele><time>2012-07-24T13:37:34.0000000+00:00</time></trkpt><trkpt lat="63.9814682" lon="-18.862257"><ele>575.6</ele><time>2012-07-24T13:37:39.0000000+00:00</time></trkpt><trkpt lat="63.98142624" lon="-18.86200905"><ele>575.9</ele><time>2012-07-24T13:37:44.0000000+00:00</time></trkpt><trkpt lat="63.9813652" lon="-18.8617878"><ele>575.1</ele><time>2012-07-24T13:37:49.0000000+00:00</time></trkpt><trkpt lat="63.98134613" lon="-18.86175919"><ele>575.8</ele><time>2012-07-24T13:37:54.0000000+00:00</time></trkpt><trkpt lat="63.98134613" lon="-18.86175346"><ele>575.4</ele><time>2012-07-24T13:37:59.0000000+00:00</time></trkpt><trkpt lat="63.98134613" lon="-18.86175346"><ele>575.3</ele><time>2012-07-24T13:38:04.0000000+00:00</time></trkpt><trkpt lat="63.98134613" lon="-18.86175346"><ele>575.3</ele><time>2012-07-24T13:38:09.0000000+00:00</time></trkpt><trkpt lat="63.98134613" lon="-18.86175537"><ele>575.4</ele><time>2012-07-24T13:38:14.0000000+00:00</time></trkpt><trkpt lat="63.98134613" lon="-18.86175537"><ele>575.4</ele><time>2012-07-24T13:38:19.0000000+00:00</time></trkpt><trkpt lat="63.98134613" lon="-18.86175537"><ele>575.4</ele><time>2012-07-24T13:38:24.0000000+00:00</time></trkpt><trkpt lat="63.98134613" lon="-18.86175537"><ele>575.4</ele><time>2012-07-24T13:38:29.0000000+00:00</time></trkpt><trkpt lat="63.98134613" lon="-18.86175537"><ele>575.4</ele><time>2012-07-24T13:38:34.0000000+00:00</time></trkpt><trkpt lat="63.98134613" lon="-18.86175537"><ele>575.4</ele><time>2012-07-24T13:38:39.0000000+00:00</time></trkpt><trkpt lat="63.98134613" lon="-18.86175537"><ele>575.4</ele><time>2012-07-24T13:38:44.0000000+00:00</time></trkpt><trkpt lat="63.98134613" lon="-18.86175537"><ele>575.4</ele><time>2012-07-24T13:38:49.0000000+00:00</time></trkpt><trkpt lat="63.98134613" lon="-18.86175537"><ele>575.4</ele><time>2012-07-24T13:38:54.0000000+00:00</time></trkpt><trkpt lat="63.98134613" lon="-18.86175537"><ele>575.4</ele><time>2012-07-24T13:38:59.0000000+00:00</time></trkpt><trkpt lat="63.98134613" lon="-18.86175728"><ele>575.5</ele><time>2012-07-24T13:39:04.0000000+00:00</time></trkpt><trkpt lat="63.98134613" lon="-18.86175728"><ele>575.5</ele><time>2012-07-24T13:39:09.0000000+00:00</time></trkpt><trkpt lat="63.98134613" lon="-18.86175728"><ele>575.5</ele><time>2012-07-24T13:39:14.0000000+00:00</time></trkpt><trkpt lat="63.98134613" lon="-18.86175728"><ele>575.5</ele><time>2012-07-24T13:39:19.0000000+00:00</time></trkpt><trkpt lat="63.98134613" lon="-18.86175728"><ele>575.5</ele><time>2012-07-24T13:39:24.0000000+00:00</time></trkpt><trkpt lat="63.98134613" lon="-18.86175728"><ele>575.5</ele><time>2012-07-24T13:39:29.0000000+00:00</time></trkpt><trkpt lat="63.98134613" lon="-18.86175728"><ele>575.5</ele><time>2012-07-24T13:39:34.0000000+00:00</time></trkpt><trkpt lat="63.98134613" lon="-18.86175728"><ele>575.5</ele><time>2012-07-24T13:39:39.0000000+00:00</time></trkpt><trkpt lat="63.98134613" lon="-18.86175728"><ele>575.5</ele><time>2012-07-24T13:39:44.0000000+00:00</time></trkpt><trkpt lat="63.98134613" lon="-18.86175728"><ele>575.5</ele><time>2012-07-24T13:39:49.0000000+00:00</time></trkpt><trkpt lat="63.98134613" lon="-18.86175728"><ele>575.5</ele><time>2012-07-24T13:39:54.0000000+00:00</time></trkpt><trkpt lat="63.98134613" lon="-18.86175728"><ele>575.5</ele><time>2012-07-24T13:39:59.0000000+00:00</time></trkpt><trkpt lat="63.98134613" lon="-18.86175728"><ele>575.5</ele><time>2012-07-24T13:40:04.0000000+00:00</time></trkpt><trkpt lat="63.98134613" lon="-18.86175728"><ele>575.5</ele><time>2012-07-24T13:40:09.0000000+00:00</time></trkpt><trkpt lat="63.98134613" lon="-18.86175728"><ele>575.5</ele><time>2012-07-24T13:40:14.0000000+00:00</time></trkpt><trkpt lat="63.98134613" lon="-18.86175728"><ele>575.5</ele><time>2012-07-24T13:40:19.0000000+00:00</time></trkpt><trkpt lat="63.98134613" lon="-18.86175728"><ele>575.5</ele><time>2012-07-24T13:40:24.0000000+00:00</time></trkpt><trkpt lat="63.98134613" lon="-18.86175728"><ele>575.5</ele><time>2012-07-24T13:40:29.0000000+00:00</time></trkpt><trkpt lat="63.98134613" lon="-18.86175728"><ele>575.5</ele><time>2012-07-24T13:40:34.0000000+00:00</time></trkpt><trkpt lat="63.98134613" lon="-18.86175728"><ele>575.5</ele><time>2012-07-24T13:40:39.0000000+00:00</time></trkpt><trkpt lat="63.98134613" lon="-18.86175728"><ele>575.5</ele><time>2012-07-24T13:40:44.0000000+00:00</time></trkpt><trkpt lat="63.98134613" lon="-18.86175728"><ele>575.6</ele><time>2012-07-24T13:40:49.0000000+00:00</time></trkpt><trkpt lat="63.98134613" lon="-18.86175728"><ele>575.6</ele><time>2012-07-24T13:40:54.0000000+00:00</time></trkpt><trkpt lat="63.98134995" lon="-18.86175728"><ele>575.6</ele><time>2012-07-24T13:40:59.0000000+00:00</time></trkpt><trkpt lat="63.98134995" lon="-18.86175919"><ele>575.6</ele><time>2012-07-24T13:41:04.0000000+00:00</time></trkpt><trkpt lat="63.98134995" lon="-18.86175919"><ele>575.6</ele><time>2012-07-24T13:41:09.0000000+00:00</time></trkpt><trkpt lat="63.98134995" lon="-18.86175919"><ele>575.6</ele><time>2012-07-24T13:41:14.0000000+00:00</time></trkpt><trkpt lat="63.98134995" lon="-18.86175919"><ele>575.6</ele><time>2012-07-24T13:41:19.0000000+00:00</time></trkpt><trkpt lat="63.98134995" lon="-18.86175919"><ele>575.6</ele><time>2012-07-24T13:41:24.0000000+00:00</time></trkpt><trkpt lat="63.98134995" lon="-18.86175919"><ele>575.7</ele><time>2012-07-24T13:41:29.0000000+00:00</time></trkpt><trkpt lat="63.98134995" lon="-18.86175919"><ele>575.7</ele><time>2012-07-24T13:41:34.0000000+00:00</time></trkpt><trkpt lat="63.98134995" lon="-18.86175919"><ele>575.7</ele><time>2012-07-24T13:41:39.0000000+00:00</time></trkpt><trkpt lat="63.98134995" lon="-18.86175919"><ele>575.7</ele><time>2012-07-24T13:41:44.0000000+00:00</time></trkpt><trkpt lat="63.98134995" lon="-18.86176109"><ele>575.8</ele><time>2012-07-24T13:41:49.0000000+00:00</time></trkpt><trkpt lat="63.98134995" lon="-18.86176109"><ele>575.8</ele><time>2012-07-24T13:41:54.0000000+00:00</time></trkpt><trkpt lat="63.98134995" lon="-18.86176109"><ele>575.8</ele><time>2012-07-24T13:41:59.0000000+00:00</time></trkpt><trkpt lat="63.98134995" lon="-18.86176109"><ele>575.8</ele><time>2012-07-24T13:42:04.0000000+00:00</time></trkpt><trkpt lat="63.98134995" lon="-18.86176109"><ele>575.8</ele><time>2012-07-24T13:42:09.0000000+00:00</time></trkpt><trkpt lat="63.98134995" lon="-18.86176109"><ele>575.9</ele><time>2012-07-24T13:42:14.0000000+00:00</time></trkpt><trkpt lat="63.98134995" lon="-18.86176109"><ele>575.9</ele><time>2012-07-24T13:42:19.0000000+00:00</time></trkpt><trkpt lat="63.98134995" lon="-18.86176109"><ele>575.9</ele><time>2012-07-24T13:42:24.0000000+00:00</time></trkpt><trkpt lat="63.98134995" lon="-18.86176109"><ele>575.9</ele><time>2012-07-24T13:42:29.0000000+00:00</time></trkpt><trkpt lat="63.98134995" lon="-18.86176109"><ele>575.9</ele><time>2012-07-24T13:42:34.0000000+00:00</time></trkpt><trkpt lat="63.98134995" lon="-18.86176109"><ele>575.9</ele><time>2012-07-24T13:42:39.0000000+00:00</time></trkpt><trkpt lat="63.98134995" lon="-18.86176109"><ele>576.0</ele><time>2012-07-24T13:42:44.0000000+00:00</time></trkpt><trkpt lat="63.98134995" lon="-18.86176109"><ele>576.0</ele><time>2012-07-24T13:42:49.0000000+00:00</time></trkpt><trkpt lat="63.98134995" lon="-18.861763"><ele>576.0</ele><time>2012-07-24T13:42:54.0000000+00:00</time></trkpt><trkpt lat="63.98134995" lon="-18.861763"><ele>576.0</ele><time>2012-07-24T13:42:59.0000000+00:00</time></trkpt><trkpt lat="63.98134995" lon="-18.861763"><ele>576.0</ele><time>2012-07-24T13:43:04.0000000+00:00</time></trkpt><trkpt lat="63.98134995" lon="-18.861763"><ele>576.0</ele><time>2012-07-24T13:43:09.0000000+00:00</time></trkpt><trkpt lat="63.98134995" lon="-18.861763"><ele>576.0</ele><time>2012-07-24T13:43:14.0000000+00:00</time></trkpt><trkpt lat="63.98135376" lon="-18.861763"><ele>576.0</ele><time>2012-07-24T13:43:19.0000000+00:00</time></trkpt><trkpt lat="63.98135376" lon="-18.861763"><ele>576.1</ele><time>2012-07-24T13:43:24.0000000+00:00</time></trkpt><trkpt lat="63.98135376" lon="-18.861763"><ele>576.1</ele><time>2012-07-24T13:43:29.0000000+00:00</time></trkpt><trkpt lat="63.98135376" lon="-18.861763"><ele>576.1</ele><time>2012-07-24T13:43:34.0000000+00:00</time></trkpt><trkpt lat="63.98135376" lon="-18.861763"><ele>576.1</ele><time>2012-07-24T13:43:39.0000000+00:00</time></trkpt><trkpt lat="63.98135376" lon="-18.861763"><ele>576.1</ele><time>2012-07-24T13:43:44.0000000+00:00</time></trkpt><trkpt lat="63.98135376" lon="-18.86176491"><ele>576.1</ele><time>2012-07-24T13:43:49.0000000+00:00</time></trkpt><trkpt lat="63.98135376" lon="-18.86176491"><ele>576.2</ele><time>2012-07-24T13:43:54.0000000+00:00</time></trkpt><trkpt lat="63.98135376" lon="-18.86176491"><ele>576.2</ele><time>2012-07-24T13:43:59.0000000+00:00</time></trkpt><trkpt lat="63.98135376" lon="-18.86176491"><ele>576.2</ele><time>2012-07-24T13:44:04.0000000+00:00</time></trkpt><trkpt lat="63.98135376" lon="-18.86176491"><ele>576.2</ele><time>2012-07-24T13:44:09.0000000+00:00</time></trkpt><trkpt lat="63.98135376" lon="-18.86176491"><ele>576.2</ele><time>2012-07-24T13:44:14.0000000+00:00</time></trkpt><trkpt lat="63.98135376" lon="-18.86176682"><ele>576.2</ele><time>2012-07-24T13:44:19.0000000+00:00</time></trkpt><trkpt lat="63.98135376" lon="-18.86176682"><ele>576.2</ele><time>2012-07-24T13:44:24.0000000+00:00</time></trkpt><trkpt lat="63.98135376" lon="-18.86176682"><ele>576.3</ele><time>2012-07-24T13:44:29.0000000+00:00</time></trkpt><trkpt lat="63.98135376" lon="-18.86176682"><ele>576.3</ele><time>2012-07-24T13:44:34.0000000+00:00</time></trkpt><trkpt lat="63.98135376" lon="-18.86176682"><ele>576.3</ele><time>2012-07-24T13:44:39.0000000+00:00</time></trkpt><trkpt lat="63.98135376" lon="-18.86176682"><ele>576.3</ele><time>2012-07-24T13:44:44.0000000+00:00</time></trkpt><trkpt lat="63.98135376" lon="-18.86176682"><ele>576.3</ele><time>2012-07-24T13:44:49.0000000+00:00</time></trkpt><trkpt lat="63.98135376" lon="-18.86176682"><ele>576.3</ele><time>2012-07-24T13:44:54.0000000+00:00</time></trkpt><trkpt lat="63.98135376" lon="-18.86176682"><ele>576.3</ele><time>2012-07-24T13:44:59.0000000+00:00</time></trkpt><trkpt lat="63.98135376" lon="-18.86176682"><ele>576.4</ele><time>2012-07-24T13:45:04.0000000+00:00</time></trkpt><trkpt lat="63.98135376" lon="-18.86176682"><ele>576.4</ele><time>2012-07-24T13:45:09.0000000+00:00</time></trkpt><trkpt lat="63.98135376" lon="-18.86176682"><ele>576.4</ele><time>2012-07-24T13:45:14.0000000+00:00</time></trkpt><trkpt lat="63.98135376" lon="-18.86176682"><ele>576.4</ele><time>2012-07-24T13:45:19.0000000+00:00</time></trkpt><trkpt lat="63.98135376" lon="-18.86176682"><ele>576.4</ele><time>2012-07-24T13:45:24.0000000+00:00</time></trkpt><trkpt lat="63.98135376" lon="-18.86176682"><ele>576.4</ele><time>2012-07-24T13:45:29.0000000+00:00</time></trkpt><trkpt lat="63.98135376" lon="-18.86176872"><ele>576.4</ele><time>2012-07-24T13:45:34.0000000+00:00</time></trkpt><trkpt lat="63.98135376" lon="-18.86176872"><ele>576.4</ele><time>2012-07-24T13:45:39.0000000+00:00</time></trkpt><trkpt lat="63.98135376" lon="-18.86176872"><ele>576.5</ele><time>2012-07-24T13:45:44.0000000+00:00</time></trkpt><trkpt lat="63.98135376" lon="-18.86176872"><ele>576.5</ele><time>2012-07-24T13:45:49.0000000+00:00</time></trkpt><trkpt lat="63.98135376" lon="-18.86176872"><ele>576.5</ele><time>2012-07-24T13:45:54.0000000+00:00</time></trkpt><trkpt lat="63.98135376" lon="-18.86176872"><ele>576.5</ele><time>2012-07-24T13:45:59.0000000+00:00</time></trkpt><trkpt lat="63.98135376" lon="-18.86176872"><ele>576.5</ele><time>2012-07-24T13:46:04.0000000+00:00</time></trkpt><trkpt lat="63.98135376" lon="-18.86176872"><ele>576.6</ele><time>2012-07-24T13:46:09.0000000+00:00</time></trkpt><trkpt lat="63.98135376" lon="-18.86177063"><ele>576.6</ele><time>2012-07-24T13:46:14.0000000+00:00</time></trkpt><trkpt lat="63.98135376" lon="-18.86177063"><ele>576.6</ele><time>2012-07-24T13:46:19.0000000+00:00</time></trkpt><trkpt lat="63.98135376" lon="-18.86177063"><ele>576.6</ele><time>2012-07-24T13:46:24.0000000+00:00</time></trkpt><trkpt lat="63.98135757" lon="-18.86177063"><ele>576.6</ele><time>2012-07-24T13:46:29.0000000+00:00</time></trkpt><trkpt lat="63.98135757" lon="-18.86177254"><ele>576.6</ele><time>2012-07-24T13:46:34.0000000+00:00</time></trkpt><trkpt lat="63.98135757" lon="-18.86177254"><ele>576.6</ele><time>2012-07-24T13:46:39.0000000+00:00</time></trkpt><trkpt lat="63.98135757" lon="-18.86177254"><ele>576.7</ele><time>2012-07-24T13:46:44.0000000+00:00</time></trkpt><trkpt lat="63.98135757" lon="-18.86177254"><ele>576.7</ele><time>2012-07-24T13:46:49.0000000+00:00</time></trkpt><trkpt lat="63.98135757" lon="-18.86177254"><ele>576.7</ele><time>2012-07-24T13:46:54.0000000+00:00</time></trkpt><trkpt lat="63.98135757" lon="-18.86177445"><ele>576.7</ele><time>2012-07-24T13:46:59.0000000+00:00</time></trkpt><trkpt lat="63.98135757" lon="-18.86177445"><ele>576.7</ele><time>2012-07-24T13:47:04.0000000+00:00</time></trkpt><trkpt lat="63.98135757" lon="-18.86177445"><ele>576.7</ele><time>2012-07-24T13:47:09.0000000+00:00</time></trkpt><trkpt lat="63.98135757" lon="-18.86177445"><ele>576.7</ele><time>2012-07-24T13:47:14.0000000+00:00</time></trkpt><trkpt lat="63.98135757" lon="-18.86177445"><ele>576.7</ele><time>2012-07-24T13:47:19.0000000+00:00</time></trkpt><trkpt lat="63.98135757" lon="-18.86177445"><ele>576.7</ele><time>2012-07-24T13:47:24.0000000+00:00</time></trkpt><trkpt lat="63.98135757" lon="-18.86177445"><ele>576.8</ele><time>2012-07-24T13:47:29.0000000+00:00</time></trkpt><trkpt lat="63.98135757" lon="-18.86177445"><ele>576.8</ele><time>2012-07-24T13:47:34.0000000+00:00</time></trkpt><trkpt lat="63.98135757" lon="-18.86177445"><ele>576.8</ele><time>2012-07-24T13:47:39.0000000+00:00</time></trkpt><trkpt lat="63.98135757" lon="-18.86177445"><ele>576.8</ele><time>2012-07-24T13:47:44.0000000+00:00</time></trkpt><trkpt lat="63.98135757" lon="-18.86177445"><ele>576.8</ele><time>2012-07-24T13:47:49.0000000+00:00</time></trkpt><trkpt lat="63.98135757" lon="-18.86177445"><ele>576.8</ele><time>2012-07-24T13:47:54.0000000+00:00</time></trkpt><trkpt lat="63.98135757" lon="-18.86177635"><ele>576.8</ele><time>2012-07-24T13:47:59.0000000+00:00</time></trkpt><trkpt lat="63.98135757" lon="-18.86177635"><ele>576.8</ele><time>2012-07-24T13:48:04.0000000+00:00</time></trkpt><trkpt lat="63.98135757" lon="-18.86177635"><ele>576.8</ele><time>2012-07-24T13:48:09.0000000+00:00</time></trkpt><trkpt lat="63.98135757" lon="-18.86177826"><ele>576.8</ele><time>2012-07-24T13:48:14.0000000+00:00</time></trkpt><trkpt lat="63.98135757" lon="-18.86177826"><ele>576.9</ele><time>2012-07-24T13:48:19.0000000+00:00</time></trkpt><trkpt lat="63.98135757" lon="-18.86177826"><ele>576.9</ele><time>2012-07-24T13:48:24.0000000+00:00</time></trkpt><trkpt lat="63.98135757" lon="-18.86177826"><ele>576.9</ele><time>2012-07-24T13:48:29.0000000+00:00</time></trkpt><trkpt lat="63.98135757" lon="-18.86178017"><ele>576.9</ele><time>2012-07-24T13:48:34.0000000+00:00</time></trkpt><trkpt lat="63.98135757" lon="-18.86178017"><ele>577.0</ele><time>2012-07-24T13:48:39.0000000+00:00</time></trkpt><trkpt lat="63.98135757" lon="-18.86178017"><ele>577.0</ele><time>2012-07-24T13:48:44.0000000+00:00</time></trkpt><trkpt lat="63.98135757" lon="-18.86178017"><ele>577.0</ele><time>2012-07-24T13:48:49.0000000+00:00</time></trkpt><trkpt lat="63.98135757" lon="-18.86178017"><ele>577.0</ele><time>2012-07-24T13:48:54.0000000+00:00</time></trkpt><trkpt lat="63.98135757" lon="-18.86178207"><ele>577.0</ele><time>2012-07-24T13:48:59.0000000+00:00</time></trkpt><trkpt lat="63.98135757" lon="-18.86178207"><ele>577.0</ele><time>2012-07-24T13:49:04.0000000+00:00</time></trkpt><trkpt lat="63.98135757" lon="-18.86178207"><ele>577.0</ele><time>2012-07-24T13:49:09.0000000+00:00</time></trkpt><trkpt lat="63.98136139" lon="-18.86178207"><ele>577.0</ele><time>2012-07-24T13:49:14.0000000+00:00</time></trkpt><trkpt lat="63.98136139" lon="-18.86178207"><ele>577.1</ele><time>2012-07-24T13:49:19.0000000+00:00</time></trkpt><trkpt lat="63.98136139" lon="-18.86178398"><ele>577.1</ele><time>2012-07-24T13:49:24.0000000+00:00</time></trkpt><trkpt lat="63.98136139" lon="-18.86178398"><ele>577.1</ele><time>2012-07-24T13:49:29.0000000+00:00</time></trkpt><trkpt lat="63.98136139" lon="-18.86178398"><ele>577.1</ele><time>2012-07-24T13:49:34.0000000+00:00</time></trkpt><trkpt lat="63.98136139" lon="-18.86178398"><ele>577.1</ele><time>2012-07-24T13:49:39.0000000+00:00</time></trkpt><trkpt lat="63.98136139" lon="-18.86178398"><ele>577.1</ele><time>2012-07-24T13:49:44.0000000+00:00</time></trkpt><trkpt lat="63.98136139" lon="-18.86178398"><ele>577.1</ele><time>2012-07-24T13:49:49.0000000+00:00</time></trkpt><trkpt lat="63.98136139" lon="-18.86178207"><ele>577.1</ele><time>2012-07-24T13:49:54.0000000+00:00</time></trkpt><trkpt lat="63.98136139" lon="-18.86178207"><ele>577.1</ele><time>2012-07-24T13:49:59.0000000+00:00</time></trkpt><trkpt lat="63.98136139" lon="-18.86178207"><ele>577.1</ele><time>2012-07-24T13:50:04.0000000+00:00</time></trkpt><trkpt lat="63.98136139" lon="-18.86178207"><ele>577.1</ele><time>2012-07-24T13:50:09.0000000+00:00</time></trkpt><trkpt lat="63.98136139" lon="-18.86178398"><ele>577.1</ele><time>2012-07-24T13:50:14.0000000+00:00</time></trkpt><trkpt lat="63.98136139" lon="-18.86178398"><ele>577.1</ele><time>2012-07-24T13:50:19.0000000+00:00</time></trkpt><trkpt lat="63.98136139" lon="-18.86178398"><ele>577.1</ele><time>2012-07-24T13:50:24.0000000+00:00</time></trkpt><trkpt lat="63.98136139" lon="-18.86178398"><ele>577.2</ele><time>2012-07-24T13:50:29.0000000+00:00</time></trkpt><trkpt lat="63.98136139" lon="-18.86178398"><ele>577.2</ele><time>2012-07-24T13:50:34.0000000+00:00</time></trkpt><trkpt lat="63.98136139" lon="-18.86178398"><ele>577.2</ele><time>2012-07-24T13:50:39.0000000+00:00</time></trkpt><trkpt lat="63.98136139" lon="-18.86178589"><ele>577.2</ele><time>2012-07-24T13:50:44.0000000+00:00</time></trkpt><trkpt lat="63.98136139" lon="-18.86178589"><ele>577.2</ele><time>2012-07-24T13:50:49.0000000+00:00</time></trkpt><trkpt lat="63.98136139" lon="-18.86178589"><ele>577.2</ele><time>2012-07-24T13:50:54.0000000+00:00</time></trkpt><trkpt lat="63.98136139" lon="-18.86178589"><ele>577.2</ele><time>2012-07-24T13:50:59.0000000+00:00</time></trkpt><trkpt lat="63.98136139" lon="-18.8617878"><ele>577.2</ele><time>2012-07-24T13:51:04.0000000+00:00</time></trkpt><trkpt lat="63.98136139" lon="-18.8617878"><ele>577.2</ele><time>2012-07-24T13:51:09.0000000+00:00</time></trkpt><trkpt lat="63.98136139" lon="-18.8617878"><ele>577.2</ele><time>2012-07-24T13:51:14.0000000+00:00</time></trkpt><trkpt lat="63.98136139" lon="-18.8617878"><ele>577.2</ele><time>2012-07-24T13:51:19.0000000+00:00</time></trkpt><trkpt lat="63.98136139" lon="-18.8617878"><ele>577.3</ele><time>2012-07-24T13:51:24.0000000+00:00</time></trkpt><trkpt lat="63.98135757" lon="-18.86180496"><ele>577.1</ele><time>2012-07-24T13:51:29.0000000+00:00</time></trkpt><trkpt lat="63.98134995" lon="-18.8618145"><ele>577.8</ele><time>2012-07-24T13:51:34.0000000+00:00</time></trkpt><trkpt lat="63.98136139" lon="-18.86181068"><ele>577.6</ele><time>2012-07-24T13:51:39.0000000+00:00</time></trkpt><trkpt lat="63.98136139" lon="-18.86181068"><ele>577.6</ele><time>2012-07-24T13:51:44.0000000+00:00</time></trkpt><trkpt lat="63.98136139" lon="-18.86181068"><ele>577.6</ele><time>2012-07-24T13:51:49.0000000+00:00</time></trkpt><trkpt lat="63.98136139" lon="-18.86181259"><ele>577.6</ele><time>2012-07-24T13:51:54.0000000+00:00</time></trkpt><trkpt lat="63.98136139" lon="-18.86181259"><ele>577.6</ele><time>2012-07-24T13:51:59.0000000+00:00</time></trkpt><trkpt lat="63.98136139" lon="-18.86181068"><ele>577.7</ele><time>2012-07-24T13:52:04.0000000+00:00</time></trkpt><trkpt lat="63.98136902" lon="-18.86182785"><ele>578.9</ele><time>2012-07-24T13:52:09.0000000+00:00</time></trkpt><trkpt lat="63.98136902" lon="-18.86185646"><ele>580.1</ele><time>2012-07-24T13:52:14.0000000+00:00</time></trkpt><trkpt lat="63.98137665" lon="-18.86188507"><ele>582.8</ele><time>2012-07-24T13:52:19.0000000+00:00</time></trkpt><trkpt lat="63.98137665" lon="-18.86188507"><ele>582.8</ele><time>2012-07-24T13:52:24.0000000+00:00</time></trkpt><trkpt lat="63.98137665" lon="-18.86188507"><ele>582.9</ele><time>2012-07-24T13:52:29.0000000+00:00</time></trkpt><trkpt lat="63.98137665" lon="-18.86188507"><ele>583.0</ele><time>2012-07-24T13:52:34.0000000+00:00</time></trkpt><trkpt lat="63.98137665" lon="-18.86188507"><ele>583.0</ele><time>2012-07-24T13:52:39.0000000+00:00</time></trkpt><trkpt lat="63.98137665" lon="-18.86188507"><ele>583.1</ele><time>2012-07-24T13:52:44.0000000+00:00</time></trkpt><trkpt lat="63.98137665" lon="-18.86188507"><ele>583.1</ele><time>2012-07-24T13:52:49.0000000+00:00</time></trkpt><trkpt lat="63.98137665" lon="-18.86188507"><ele>583.1</ele><time>2012-07-24T13:52:54.0000000+00:00</time></trkpt><trkpt lat="63.98137665" lon="-18.86188507"><ele>583.1</ele><time>2012-07-24T13:52:59.0000000+00:00</time></trkpt><trkpt lat="63.98137665" lon="-18.86188698"><ele>583.1</ele><time>2012-07-24T13:53:04.0000000+00:00</time></trkpt><trkpt lat="63.98137665" lon="-18.86188698"><ele>583.1</ele><time>2012-07-24T13:53:09.0000000+00:00</time></trkpt><trkpt lat="63.98137665" lon="-18.86188698"><ele>583.1</ele><time>2012-07-24T13:53:14.0000000+00:00</time></trkpt><trkpt lat="63.98137665" lon="-18.86188698"><ele>583.1</ele><time>2012-07-24T13:53:19.0000000+00:00</time></trkpt><trkpt lat="63.98138809" lon="-18.86188507"><ele>582.8</ele><time>2012-07-24T13:53:24.0000000+00:00</time></trkpt><trkpt lat="63.98139954" lon="-18.8618927"><ele>582.7</ele><time>2012-07-24T13:53:29.0000000+00:00</time></trkpt><trkpt lat="63.98139572" lon="-18.8618927"><ele>582.6</ele><time>2012-07-24T13:53:34.0000000+00:00</time></trkpt><trkpt lat="63.98139572" lon="-18.8618927"><ele>582.5</ele><time>2012-07-24T13:53:39.0000000+00:00</time></trkpt><trkpt lat="63.98139572" lon="-18.8618927"><ele>582.5</ele><time>2012-07-24T13:53:44.0000000+00:00</time></trkpt><trkpt lat="63.98142242" lon="-18.86193848"><ele>582.8</ele><time>2012-07-24T13:53:49.0000000+00:00</time></trkpt><trkpt lat="63.98149109" lon="-18.86202431"><ele>582.1</ele><time>2012-07-24T13:53:54.0000000+00:00</time></trkpt><trkpt lat="63.98154068" lon="-18.86207199"><ele>581.5</ele><time>2012-07-24T13:53:59.0000000+00:00</time></trkpt><trkpt lat="63.9815979" lon="-18.86206818"><ele>580.9</ele><time>2012-07-24T13:54:04.0000000+00:00</time></trkpt><trkpt lat="63.98167038" lon="-18.86194229"><ele>580.0</ele><time>2012-07-24T13:54:09.0000000+00:00</time></trkpt><trkpt lat="63.98173142" lon="-18.86179161"><ele>580.7</ele><time>2012-07-24T13:54:14.0000000+00:00</time></trkpt><trkpt lat="63.98181534" lon="-18.86163902"><ele>580.9</ele><time>2012-07-24T13:54:19.0000000+00:00</time></trkpt><trkpt lat="63.98191071" lon="-18.86144257"><ele>581.4</ele><time>2012-07-24T13:54:24.0000000+00:00</time></trkpt><trkpt lat="63.98198319" lon="-18.86119652"><ele>578.7</ele><time>2012-07-24T13:54:29.0000000+00:00</time></trkpt><trkpt lat="63.98205185" lon="-18.86088562"><ele>577.7</ele><time>2012-07-24T13:54:34.0000000+00:00</time></trkpt><trkpt lat="63.98212433" lon="-18.86057472"><ele>578.1</ele><time>2012-07-24T13:54:39.0000000+00:00</time></trkpt><trkpt lat="63.98221588" lon="-18.86029816"><ele>578.7</ele><time>2012-07-24T13:54:44.0000000+00:00</time></trkpt><trkpt lat="63.98231888" lon="-18.86004257"><ele>576.2</ele><time>2012-07-24T13:54:49.0000000+00:00</time></trkpt><trkpt lat="63.98241043" lon="-18.85973167"><ele>575.5</ele><time>2012-07-24T13:54:54.0000000+00:00</time></trkpt><trkpt lat="63.98248291" lon="-18.8593483"><ele>574.1</ele><time>2012-07-24T13:54:59.0000000+00:00</time></trkpt><trkpt lat="63.9825592" lon="-18.85896301"><ele>573.8</ele><time>2012-07-24T13:55:04.0000000+00:00</time></trkpt><trkpt lat="63.98264313" lon="-18.85858727"><ele>574.0</ele><time>2012-07-24T13:55:09.0000000+00:00</time></trkpt><trkpt lat="63.98271561" lon="-18.85819817"><ele>573.6</ele><time>2012-07-24T13:55:14.0000000+00:00</time></trkpt><trkpt lat="63.9827652" lon="-18.85781479"><ele>574.6</ele><time>2012-07-24T13:55:19.0000000+00:00</time></trkpt><trkpt lat="63.98279953" lon="-18.85748291"><ele>575.7</ele><time>2012-07-24T13:55:24.0000000+00:00</time></trkpt><trkpt lat="63.98279953" lon="-18.85730934"><ele>577.3</ele><time>2012-07-24T13:55:29.0000000+00:00</time></trkpt><trkpt lat="63.98280716" lon="-18.85713387"><ele>579.5</ele><time>2012-07-24T13:55:34.0000000+00:00</time></trkpt><trkpt lat="63.98281479" lon="-18.85692024"><ele>581.0</ele><time>2012-07-24T13:55:39.0000000+00:00</time></trkpt><trkpt lat="63.98282623" lon="-18.85673332"><ele>583.0</ele><time>2012-07-24T13:55:44.0000000+00:00</time></trkpt><trkpt lat="63.98283005" lon="-18.85653687"><ele>584.8</ele><time>2012-07-24T13:55:49.0000000+00:00</time></trkpt><trkpt lat="63.98282623" lon="-18.85636711"><ele>585.8</ele><time>2012-07-24T13:55:54.0000000+00:00</time></trkpt><trkpt lat="63.98281479" lon="-18.8562355"><ele>586.5</ele><time>2012-07-24T13:55:59.0000000+00:00</time></trkpt><trkpt lat="63.98277283" lon="-18.85610199"><ele>587.8</ele><time>2012-07-24T13:56:04.0000000+00:00</time></trkpt><trkpt lat="63.98273468" lon="-18.85598183"><ele>590.1</ele><time>2012-07-24T13:56:09.0000000+00:00</time></trkpt><trkpt lat="63.98273468" lon="-18.85596466"><ele>590.9</ele><time>2012-07-24T13:56:14.0000000+00:00</time></trkpt><trkpt lat="63.98271561" lon="-18.85594559"><ele>590.4</ele><time>2012-07-24T13:56:19.0000000+00:00</time></trkpt><trkpt lat="63.98268127" lon="-18.8558712"><ele>590.1</ele><time>2012-07-24T13:56:24.0000000+00:00</time></trkpt><trkpt lat="63.98261261" lon="-18.85578346"><ele>590.1</ele><time>2012-07-24T13:56:29.0000000+00:00</time></trkpt><trkpt lat="63.98255158" lon="-18.85569382"><ele>590.1</ele><time>2012-07-24T13:56:34.0000000+00:00</time></trkpt><trkpt lat="63.98249817" lon="-18.85563278"><ele>590.6</ele><time>2012-07-24T13:56:39.0000000+00:00</time></trkpt><trkpt lat="63.98247147" lon="-18.85555267"><ele>592.0</ele><time>2012-07-24T13:56:44.0000000+00:00</time></trkpt><trkpt lat="63.98244858" lon="-18.85543633"><ele>593.4</ele><time>2012-07-24T13:56:49.0000000+00:00</time></trkpt><trkpt lat="63.98243332" lon="-18.85534096"><ele>594.4</ele><time>2012-07-24T13:56:54.0000000+00:00</time></trkpt><trkpt lat="63.98241043" lon="-18.85523605"><ele>596.1</ele><time>2012-07-24T13:56:59.0000000+00:00</time></trkpt><trkpt lat="63.98239517" lon="-18.85514259"><ele>597.9</ele><time>2012-07-24T13:57:04.0000000+00:00</time></trkpt><trkpt lat="63.98238373" lon="-18.85502815"><ele>599.7</ele><time>2012-07-24T13:57:09.0000000+00:00</time></trkpt><trkpt lat="63.98237228" lon="-18.8549099"><ele>601.6</ele><time>2012-07-24T13:57:14.0000000+00:00</time></trkpt><trkpt lat="63.98234558" lon="-18.85476875"><ele>602.7</ele><time>2012-07-24T13:57:19.0000000+00:00</time></trkpt><trkpt lat="63.98233795" lon="-18.85461998"><ele>603.7</ele><time>2012-07-24T13:57:24.0000000+00:00</time></trkpt><trkpt lat="63.98233414" lon="-18.85447121"><ele>605.1</ele><time>2012-07-24T13:57:29.0000000+00:00</time></trkpt><trkpt lat="63.98234177" lon="-18.85431671"><ele>606.9</ele><time>2012-07-24T13:57:34.0000000+00:00</time></trkpt><trkpt lat="63.98233795" lon="-18.85417366"><ele>608.4</ele><time>2012-07-24T13:57:39.0000000+00:00</time></trkpt><trkpt lat="63.98232651" lon="-18.85405731"><ele>607.1</ele><time>2012-07-24T13:57:44.0000000+00:00</time></trkpt><trkpt lat="63.98233032" lon="-18.8539505"><ele>605.8</ele><time>2012-07-24T13:57:49.0000000+00:00</time></trkpt><trkpt lat="63.98235703" lon="-18.85385132"><ele>606.1</ele><time>2012-07-24T13:57:54.0000000+00:00</time></trkpt><trkpt lat="63.98236084" lon="-18.85378265"><ele>605.7</ele><time>2012-07-24T13:57:59.0000000+00:00</time></trkpt><trkpt lat="63.98238373" lon="-18.85369301"><ele>604.0</ele><time>2012-07-24T13:58:04.0000000+00:00</time></trkpt><trkpt lat="63.9824295" lon="-18.85349846"><ele>602.2</ele><time>2012-07-24T13:58:09.0000000+00:00</time></trkpt><trkpt lat="63.98250198" lon="-18.85322571"><ele>600.9</ele><time>2012-07-24T13:58:14.0000000+00:00</time></trkpt><trkpt lat="63.98254776" lon="-18.85276032"><ele>598.1</ele><time>2012-07-24T13:58:19.0000000+00:00</time></trkpt><trkpt lat="63.98254013" lon="-18.85209656"><ele>595.0</ele><time>2012-07-24T13:58:24.0000000+00:00</time></trkpt><trkpt lat="63.98250961" lon="-18.85147476"><ele>592.3</ele><time>2012-07-24T13:58:29.0000000+00:00</time></trkpt><trkpt lat="63.98246002" lon="-18.8508606"><ele>591.9</ele><time>2012-07-24T13:58:34.0000000+00:00</time></trkpt><trkpt lat="63.9823494" lon="-18.85049629"><ele>593.9</ele><time>2012-07-24T13:58:39.0000000+00:00</time></trkpt><trkpt lat="63.98221588" lon="-18.85031128"><ele>594.1</ele><time>2012-07-24T13:58:44.0000000+00:00</time></trkpt><trkpt lat="63.98209" lon="-18.85026932"><ele>595.0</ele><time>2012-07-24T13:58:49.0000000+00:00</time></trkpt><trkpt lat="63.98192978" lon="-18.85018921"><ele>595.4</ele><time>2012-07-24T13:58:54.0000000+00:00</time></trkpt><trkpt lat="63.98176193" lon="-18.85000992"><ele>594.9</ele><time>2012-07-24T13:58:59.0000000+00:00</time></trkpt><trkpt lat="63.98160934" lon="-18.8497982"><ele>594.9</ele><time>2012-07-24T13:59:04.0000000+00:00</time></trkpt><trkpt lat="63.98146439" lon="-18.84958458"><ele>596.2</ele><time>2012-07-24T13:59:09.0000000+00:00</time></trkpt><trkpt lat="63.9813385" lon="-18.84936905"><ele>597.4</ele><time>2012-07-24T13:59:14.0000000+00:00</time></trkpt><trkpt lat="63.9812088" lon="-18.84915543"><ele>597.0</ele><time>2012-07-24T13:59:19.0000000+00:00</time></trkpt><trkpt lat="63.98108292" lon="-18.84895897"><ele>596.3</ele><time>2012-07-24T13:59:24.0000000+00:00</time></trkpt><trkpt lat="63.98094559" lon="-18.8486824"><ele>595.6</ele><time>2012-07-24T13:59:29.0000000+00:00</time></trkpt><trkpt lat="63.9808197" lon="-18.84818459"><ele>593.3</ele><time>2012-07-24T13:59:34.0000000+00:00</time></trkpt><trkpt lat="63.98074341" lon="-18.84741592"><ele>591.3</ele><time>2012-07-24T13:59:39.0000000+00:00</time></trkpt><trkpt lat="63.98052979" lon="-18.84678268"><ele>592.0</ele><time>2012-07-24T13:59:44.0000000+00:00</time></trkpt><trkpt lat="63.98036957" lon="-18.84655571"><ele>594.1</ele><time>2012-07-24T13:59:49.0000000+00:00</time></trkpt><trkpt lat="63.98031235" lon="-18.84645653"><ele>595.4</ele><time>2012-07-24T13:59:54.0000000+00:00</time></trkpt><trkpt lat="63.98023605" lon="-18.84641838"><ele>595.5</ele><time>2012-07-24T13:59:59.0000000+00:00</time></trkpt><trkpt lat="63.98015213" lon="-18.84636116"><ele>596.0</ele><time>2012-07-24T14:00:04.0000000+00:00</time></trkpt><trkpt lat="63.98003006" lon="-18.84631348"><ele>596.7</ele><time>2012-07-24T14:00:09.0000000+00:00</time></trkpt><trkpt lat="63.97991943" lon="-18.84630394"><ele>596.6</ele><time>2012-07-24T14:00:14.0000000+00:00</time></trkpt><trkpt lat="63.97980118" lon="-18.84625244"><ele>596.7</ele><time>2012-07-24T14:00:19.0000000+00:00</time></trkpt><trkpt lat="63.97968674" lon="-18.8461647"><ele>596.7</ele><time>2012-07-24T14:00:24.0000000+00:00</time></trkpt><trkpt lat="63.9795723" lon="-18.84602737"><ele>596.8</ele><time>2012-07-24T14:00:29.0000000+00:00</time></trkpt><trkpt lat="63.97945404" lon="-18.84587479"><ele>596.7</ele><time>2012-07-24T14:00:34.0000000+00:00</time></trkpt><trkpt lat="63.97937012" lon="-18.84571838"><ele>597.5</ele><time>2012-07-24T14:00:39.0000000+00:00</time></trkpt><trkpt lat="63.97927475" lon="-18.84561348"><ele>597.6</ele><time>2012-07-24T14:00:44.0000000+00:00</time></trkpt><trkpt lat="63.97918701" lon="-18.84541321"><ele>597.3</ele><time>2012-07-24T14:00:49.0000000+00:00</time></trkpt><trkpt lat="63.97906876" lon="-18.84522247"><ele>598.6</ele><time>2012-07-24T14:00:54.0000000+00:00</time></trkpt><trkpt lat="63.97896957" lon="-18.84501267"><ele>599.1</ele><time>2012-07-24T14:00:59.0000000+00:00</time></trkpt><trkpt lat="63.97886276" lon="-18.84476852"><ele>599.0</ele><time>2012-07-24T14:01:04.0000000+00:00</time></trkpt><trkpt lat="63.97876358" lon="-18.84453011"><ele>599.2</ele><time>2012-07-24T14:01:09.0000000+00:00</time></trkpt><trkpt lat="63.97865677" lon="-18.84429169"><ele>598.9</ele><time>2012-07-24T14:01:14.0000000+00:00</time></trkpt><trkpt lat="63.97854233" lon="-18.8440342"><ele>598.1</ele><time>2012-07-24T14:01:19.0000000+00:00</time></trkpt><trkpt lat="63.97840881" lon="-18.84381294"><ele>598.3</ele><time>2012-07-24T14:01:24.0000000+00:00</time></trkpt><trkpt lat="63.97817612" lon="-18.84365654"><ele>595.6</ele><time>2012-07-24T14:01:29.0000000+00:00</time></trkpt><trkpt lat="63.97776032" lon="-18.84356308"><ele>590.1</ele><time>2012-07-24T14:01:34.0000000+00:00</time></trkpt><trkpt lat="63.97728348" lon="-18.84380531"><ele>589.1</ele><time>2012-07-24T14:01:39.0000000+00:00</time></trkpt><trkpt lat="63.97689056" lon="-18.84406662"><ele>589.2</ele><time>2012-07-24T14:01:44.0000000+00:00</time></trkpt><trkpt lat="63.97658157" lon="-18.84427261"><ele>589.4</ele><time>2012-07-24T14:01:49.0000000+00:00</time></trkpt><trkpt lat="63.97634506" lon="-18.84443855"><ele>589.3</ele><time>2012-07-24T14:01:54.0000000+00:00</time></trkpt><trkpt lat="63.97615051" lon="-18.84455681"><ele>590.2</ele><time>2012-07-24T14:01:59.0000000+00:00</time></trkpt><trkpt lat="63.97597122" lon="-18.84466171"><ele>591.0</ele><time>2012-07-24T14:02:04.0000000+00:00</time></trkpt><trkpt lat="63.97580719" lon="-18.84476852"><ele>591.6</ele><time>2012-07-24T14:02:09.0000000+00:00</time></trkpt><trkpt lat="63.97563934" lon="-18.84488297"><ele>590.6</ele><time>2012-07-24T14:02:14.0000000+00:00</time></trkpt><trkpt lat="63.9754715" lon="-18.8449688"><ele>591.4</ele><time>2012-07-24T14:02:19.0000000+00:00</time></trkpt><trkpt lat="63.97531128" lon="-18.84507561"><ele>591.8</ele><time>2012-07-24T14:02:24.0000000+00:00</time></trkpt><trkpt lat="63.97517395" lon="-18.84516525"><ele>591.1</ele><time>2012-07-24T14:02:29.0000000+00:00</time></trkpt><trkpt lat="63.97504425" lon="-18.84525299"><ele>589.8</ele><time>2012-07-24T14:02:34.0000000+00:00</time></trkpt><trkpt lat="63.974926" lon="-18.84535217"><ele>589.0</ele><time>2012-07-24T14:02:39.0000000+00:00</time></trkpt><trkpt lat="63.97486115" lon="-18.84546089"><ele>588.8</ele><time>2012-07-24T14:02:44.0000000+00:00</time></trkpt><trkpt lat="63.97482681" lon="-18.84548187"><ele>588.8</ele><time>2012-07-24T14:02:49.0000000+00:00</time></trkpt><trkpt lat="63.97483063" lon="-18.84548187"><ele>588.6</ele><time>2012-07-24T14:02:54.0000000+00:00</time></trkpt><trkpt lat="63.97483063" lon="-18.84548187"><ele>588.7</ele><time>2012-07-24T14:02:59.0000000+00:00</time></trkpt><trkpt lat="63.97483063" lon="-18.84548187"><ele>588.8</ele><time>2012-07-24T14:03:04.0000000+00:00</time></trkpt><trkpt lat="63.97483063" lon="-18.84547997"><ele>588.9</ele><time>2012-07-24T14:03:09.0000000+00:00</time></trkpt><trkpt lat="63.97486115" lon="-18.84540749"><ele>588.0</ele><time>2012-07-24T14:03:14.0000000+00:00</time></trkpt><trkpt lat="63.97486496" lon="-18.84542656"><ele>586.7</ele><time>2012-07-24T14:03:19.0000000+00:00</time></trkpt><trkpt lat="63.97486496" lon="-18.84543228"><ele>586.8</ele><time>2012-07-24T14:03:24.0000000+00:00</time></trkpt><trkpt lat="63.97486496" lon="-18.84543037"><ele>587.0</ele><time>2012-07-24T14:03:29.0000000+00:00</time></trkpt><trkpt lat="63.97488403" lon="-18.845438"><ele>585.3</ele><time>2012-07-24T14:03:34.0000000+00:00</time></trkpt><trkpt lat="63.97488403" lon="-18.84547997"><ele>585.6</ele><time>2012-07-24T14:03:39.0000000+00:00</time></trkpt><trkpt lat="63.97489166" lon="-18.84548187"><ele>585.6</ele><time>2012-07-24T14:03:44.0000000+00:00</time></trkpt><trkpt lat="63.97489166" lon="-18.84548187"><ele>585.7</ele><time>2012-07-24T14:03:49.0000000+00:00</time></trkpt><trkpt lat="63.97489166" lon="-18.84548187"><ele>585.9</ele><time>2012-07-24T14:03:54.0000000+00:00</time></trkpt><trkpt lat="63.97489166" lon="-18.84548187"><ele>585.9</ele><time>2012-07-24T14:03:59.0000000+00:00</time></trkpt><trkpt lat="63.97489166" lon="-18.84547615"><ele>586.1</ele><time>2012-07-24T14:04:04.0000000+00:00</time></trkpt><trkpt lat="63.97489548" lon="-18.84547615"><ele>586.1</ele><time>2012-07-24T14:04:09.0000000+00:00</time></trkpt><trkpt lat="63.97489548" lon="-18.84547424"><ele>586.2</ele><time>2012-07-24T14:04:14.0000000+00:00</time></trkpt><trkpt lat="63.97491074" lon="-18.84547806"><ele>587.3</ele><time>2012-07-24T14:04:19.0000000+00:00</time></trkpt><trkpt lat="63.97490692" lon="-18.84546661"><ele>587.5</ele><time>2012-07-24T14:04:24.0000000+00:00</time></trkpt><trkpt lat="63.97488022" lon="-18.84542847"><ele>587.4</ele><time>2012-07-24T14:04:29.0000000+00:00</time></trkpt><trkpt lat="63.97488022" lon="-18.8454113"><ele>587.3</ele><time>2012-07-24T14:04:34.0000000+00:00</time></trkpt><trkpt lat="63.9748764" lon="-18.84541321"><ele>587.3</ele><time>2012-07-24T14:04:39.0000000+00:00</time></trkpt><trkpt lat="63.97488022" lon="-18.84540939"><ele>587.3</ele><time>2012-07-24T14:04:44.0000000+00:00</time></trkpt><trkpt lat="63.97483826" lon="-18.84524345"><ele>587.4</ele><time>2012-07-24T14:04:49.0000000+00:00</time></trkpt><trkpt lat="63.97478104" lon="-18.84510803"><ele>587.6</ele><time>2012-07-24T14:04:54.0000000+00:00</time></trkpt><trkpt lat="63.9747467" lon="-18.84492493"><ele>587.8</ele><time>2012-07-24T14:04:59.0000000+00:00</time></trkpt><trkpt lat="63.97476578" lon="-18.84487343"><ele>588.7</ele><time>2012-07-24T14:05:04.0000000+00:00</time></trkpt><trkpt lat="63.97476196" lon="-18.84494782"><ele>589.2</ele><time>2012-07-24T14:05:09.0000000+00:00</time></trkpt><trkpt lat="63.97471237" lon="-18.84502411"><ele>589.2</ele><time>2012-07-24T14:05:14.0000000+00:00</time></trkpt><trkpt lat="63.97470093" lon="-18.84503937"><ele>589.2</ele><time>2012-07-24T14:05:19.0000000+00:00</time></trkpt><trkpt lat="63.97471237" lon="-18.84507179"><ele>588.2</ele><time>2012-07-24T14:05:24.0000000+00:00</time></trkpt><trkpt lat="63.97472" lon="-18.84508324"><ele>588.9</ele><time>2012-07-24T14:05:29.0000000+00:00</time></trkpt><trkpt lat="63.97472" lon="-18.84508324"><ele>589.1</ele><time>2012-07-24T14:05:34.0000000+00:00</time></trkpt><trkpt lat="63.97472" lon="-18.84508514"><ele>589.1</ele><time>2012-07-24T14:05:39.0000000+00:00</time></trkpt><trkpt lat="63.97472" lon="-18.84508514"><ele>589.1</ele><time>2012-07-24T14:05:44.0000000+00:00</time></trkpt><trkpt lat="63.97472" lon="-18.84508514"><ele>589.1</ele><time>2012-07-24T14:05:49.0000000+00:00</time></trkpt><trkpt lat="63.97472" lon="-18.84508514"><ele>589.1</ele><time>2012-07-24T14:05:54.0000000+00:00</time></trkpt><trkpt lat="63.97472" lon="-18.84508514"><ele>589.1</ele><time>2012-07-24T14:05:59.0000000+00:00</time></trkpt><trkpt lat="63.97472" lon="-18.84508324"><ele>589.0</ele><time>2012-07-24T14:06:04.0000000+00:00</time></trkpt><trkpt lat="63.97472" lon="-18.84508324"><ele>589.0</ele><time>2012-07-24T14:06:09.0000000+00:00</time></trkpt><trkpt lat="63.97472" lon="-18.84508324"><ele>589.0</ele><time>2012-07-24T14:06:14.0000000+00:00</time></trkpt><trkpt lat="63.97472" lon="-18.84508324"><ele>589.0</ele><time>2012-07-24T14:06:19.0000000+00:00</time></trkpt><trkpt lat="63.97472" lon="-18.84508324"><ele>589.0</ele><time>2012-07-24T14:06:24.0000000+00:00</time></trkpt><trkpt lat="63.97472" lon="-18.84508324"><ele>589.0</ele><time>2012-07-24T14:06:29.0000000+00:00</time></trkpt><trkpt lat="63.97472" lon="-18.84508324"><ele>589.0</ele><time>2012-07-24T14:06:34.0000000+00:00</time></trkpt><trkpt lat="63.97472" lon="-18.84508324"><ele>589.0</ele><time>2012-07-24T14:06:39.0000000+00:00</time></trkpt><trkpt lat="63.97472" lon="-18.84508324"><ele>589.0</ele><time>2012-07-24T14:06:44.0000000+00:00</time></trkpt><trkpt lat="63.97472" lon="-18.84508324"><ele>589.0</ele><time>2012-07-24T14:06:49.0000000+00:00</time></trkpt><trkpt lat="63.97472" lon="-18.84508324"><ele>588.9</ele><time>2012-07-24T14:06:54.0000000+00:00</time></trkpt><trkpt lat="63.97472" lon="-18.84508324"><ele>588.9</ele><time>2012-07-24T14:06:59.0000000+00:00</time></trkpt><trkpt lat="63.97472" lon="-18.84508324"><ele>588.9</ele><time>2012-07-24T14:07:04.0000000+00:00</time></trkpt><trkpt lat="63.97472382" lon="-18.84508324"><ele>588.9</ele><time>2012-07-24T14:07:09.0000000+00:00</time></trkpt><trkpt lat="63.97472382" lon="-18.84508324"><ele>588.9</ele><time>2012-07-24T14:07:14.0000000+00:00</time></trkpt><trkpt lat="63.97472382" lon="-18.84508133"><ele>588.9</ele><time>2012-07-24T14:07:19.0000000+00:00</time></trkpt><trkpt lat="63.97472382" lon="-18.84508133"><ele>588.9</ele><time>2012-07-24T14:07:24.0000000+00:00</time></trkpt><trkpt lat="63.97472" lon="-18.84508133"><ele>588.9</ele><time>2012-07-24T14:07:29.0000000+00:00</time></trkpt><trkpt lat="63.97472" lon="-18.84508133"><ele>588.9</ele><time>2012-07-24T14:07:34.0000000+00:00</time></trkpt><trkpt lat="63.97472" lon="-18.84508133"><ele>588.9</ele><time>2012-07-24T14:07:39.0000000+00:00</time></trkpt><trkpt lat="63.97472382" lon="-18.84508133"><ele>588.9</ele><time>2012-07-24T14:07:44.0000000+00:00</time></trkpt><trkpt lat="63.97472382" lon="-18.84508133"><ele>588.9</ele><time>2012-07-24T14:07:49.0000000+00:00</time></trkpt><trkpt lat="63.97472382" lon="-18.84508133"><ele>588.9</ele><time>2012-07-24T14:07:54.0000000+00:00</time></trkpt><trkpt lat="63.97472382" lon="-18.84508133"><ele>588.9</ele><time>2012-07-24T14:07:59.0000000+00:00</time></trkpt><trkpt lat="63.97472382" lon="-18.84508133"><ele>588.9</ele><time>2012-07-24T14:08:04.0000000+00:00</time></trkpt><trkpt lat="63.97472382" lon="-18.84508133"><ele>588.9</ele><time>2012-07-24T14:08:09.0000000+00:00</time></trkpt><trkpt lat="63.97472382" lon="-18.84508133"><ele>588.9</ele><time>2012-07-24T14:08:14.0000000+00:00</time></trkpt><trkpt lat="63.97472382" lon="-18.84508133"><ele>588.9</ele><time>2012-07-24T14:08:19.0000000+00:00</time></trkpt><trkpt lat="63.97472382" lon="-18.84508133"><ele>588.9</ele><time>2012-07-24T14:08:24.0000000+00:00</time></trkpt><trkpt lat="63.97472382" lon="-18.84508133"><ele>588.8</ele><time>2012-07-24T14:08:29.0000000+00:00</time></trkpt><trkpt lat="63.97472382" lon="-18.84508133"><ele>588.8</ele><time>2012-07-24T14:08:34.0000000+00:00</time></trkpt><trkpt lat="63.97472" lon="-18.84508133"><ele>588.9</ele><time>2012-07-24T14:08:39.0000000+00:00</time></trkpt><trkpt lat="63.97472" lon="-18.84508133"><ele>588.9</ele><time>2012-07-24T14:08:44.0000000+00:00</time></trkpt><trkpt lat="63.97472382" lon="-18.84508133"><ele>588.9</ele><time>2012-07-24T14:08:49.0000000+00:00</time></trkpt><trkpt lat="63.97472763" lon="-18.84507942"><ele>589.3</ele><time>2012-07-24T14:08:54.0000000+00:00</time></trkpt><trkpt lat="63.97472763" lon="-18.84507942"><ele>589.4</ele><time>2012-07-24T14:08:59.0000000+00:00</time></trkpt><trkpt lat="63.97472763" lon="-18.84507942"><ele>589.4</ele><time>2012-07-24T14:09:04.0000000+00:00</time></trkpt><trkpt lat="63.97472" lon="-18.84507179"><ele>589.6</ele><time>2012-07-24T14:09:09.0000000+00:00</time></trkpt><trkpt lat="63.97471619" lon="-18.84506989"><ele>589.4</ele><time>2012-07-24T14:09:14.0000000+00:00</time></trkpt><trkpt lat="63.97471619" lon="-18.84506989"><ele>589.4</ele><time>2012-07-24T14:09:19.0000000+00:00</time></trkpt><trkpt lat="63.97471619" lon="-18.84506798"><ele>589.4</ele><time>2012-07-24T14:09:24.0000000+00:00</time></trkpt><trkpt lat="63.97471619" lon="-18.84506798"><ele>589.4</ele><time>2012-07-24T14:09:29.0000000+00:00</time></trkpt><trkpt lat="63.97471619" lon="-18.84506798"><ele>589.4</ele><time>2012-07-24T14:09:34.0000000+00:00</time></trkpt><trkpt lat="63.97471619" lon="-18.84506798"><ele>589.4</ele><time>2012-07-24T14:09:39.0000000+00:00</time></trkpt><trkpt lat="63.97471619" lon="-18.84506798"><ele>589.4</ele><time>2012-07-24T14:09:44.0000000+00:00</time></trkpt><trkpt lat="63.97471619" lon="-18.84506798"><ele>589.4</ele><time>2012-07-24T14:09:49.0000000+00:00</time></trkpt><trkpt lat="63.97471619" lon="-18.84506798"><ele>589.4</ele><time>2012-07-24T14:09:54.0000000+00:00</time></trkpt><trkpt lat="63.97471619" lon="-18.84506798"><ele>589.4</ele><time>2012-07-24T14:09:59.0000000+00:00</time></trkpt><trkpt lat="63.97471619" lon="-18.84506798"><ele>589.4</ele><time>2012-07-24T14:10:04.0000000+00:00</time></trkpt><trkpt lat="63.97471619" lon="-18.84506798"><ele>589.4</ele><time>2012-07-24T14:10:09.0000000+00:00</time></trkpt><trkpt lat="63.97471619" lon="-18.84506798"><ele>589.3</ele><time>2012-07-24T14:10:14.0000000+00:00</time></trkpt><trkpt lat="63.97471619" lon="-18.84506798"><ele>589.3</ele><time>2012-07-24T14:10:19.0000000+00:00</time></trkpt><trkpt lat="63.97471619" lon="-18.84506607"><ele>589.3</ele><time>2012-07-24T14:10:24.0000000+00:00</time></trkpt><trkpt lat="63.97471619" lon="-18.84506607"><ele>589.3</ele><time>2012-07-24T14:10:29.0000000+00:00</time></trkpt><trkpt lat="63.97471619" lon="-18.84506607"><ele>589.3</ele><time>2012-07-24T14:10:34.0000000+00:00</time></trkpt><trkpt lat="63.97471619" lon="-18.84506416"><ele>589.2</ele><time>2012-07-24T14:10:39.0000000+00:00</time></trkpt><trkpt lat="63.97471619" lon="-18.84506607"><ele>589.2</ele><time>2012-07-24T14:10:44.0000000+00:00</time></trkpt><trkpt lat="63.97471619" lon="-18.84506416"><ele>589.2</ele><time>2012-07-24T14:10:49.0000000+00:00</time></trkpt><trkpt lat="63.97471619" lon="-18.84506416"><ele>589.2</ele><time>2012-07-24T14:10:54.0000000+00:00</time></trkpt><trkpt lat="63.97471619" lon="-18.84506416"><ele>589.2</ele><time>2012-07-24T14:10:59.0000000+00:00</time></trkpt><trkpt lat="63.97471619" lon="-18.84506416"><ele>589.2</ele><time>2012-07-24T14:11:04.0000000+00:00</time></trkpt><trkpt lat="63.97471619" lon="-18.84506416"><ele>589.2</ele><time>2012-07-24T14:11:09.0000000+00:00</time></trkpt><trkpt lat="63.97471619" lon="-18.84506416"><ele>589.2</ele><time>2012-07-24T14:11:14.0000000+00:00</time></trkpt><trkpt lat="63.97471619" lon="-18.84506416"><ele>589.1</ele><time>2012-07-24T14:11:19.0000000+00:00</time></trkpt><trkpt lat="63.97471619" lon="-18.84506416"><ele>589.1</ele><time>2012-07-24T14:11:24.0000000+00:00</time></trkpt><trkpt lat="63.97471237" lon="-18.84506226"><ele>589.1</ele><time>2012-07-24T14:11:29.0000000+00:00</time></trkpt><trkpt lat="63.97471237" lon="-18.84506226"><ele>589.1</ele><time>2012-07-24T14:11:34.0000000+00:00</time></trkpt><trkpt lat="63.97471237" lon="-18.84506226"><ele>589.0</ele><time>2012-07-24T14:11:39.0000000+00:00</time></trkpt><trkpt lat="63.97471237" lon="-18.84506226"><ele>589.0</ele><time>2012-07-24T14:11:44.0000000+00:00</time></trkpt><trkpt lat="63.97470474" lon="-18.84499359"><ele>587.2</ele><time>2012-07-24T14:11:49.0000000+00:00</time></trkpt><trkpt lat="63.97470093" lon="-18.84498978"><ele>586.8</ele><time>2012-07-24T14:11:54.0000000+00:00</time></trkpt><trkpt lat="63.97470093" lon="-18.84498978"><ele>586.6</ele><time>2012-07-24T14:11:59.0000000+00:00</time></trkpt><trkpt lat="63.97470093" lon="-18.84498978"><ele>586.6</ele><time>2012-07-24T14:12:04.0000000+00:00</time></trkpt><trkpt lat="63.97470093" lon="-18.84498978"><ele>586.6</ele><time>2012-07-24T14:12:09.0000000+00:00</time></trkpt><trkpt lat="63.97470093" lon="-18.84498978"><ele>586.6</ele><time>2012-07-24T14:12:14.0000000+00:00</time></trkpt><trkpt lat="63.97470093" lon="-18.84498978"><ele>586.6</ele><time>2012-07-24T14:12:19.0000000+00:00</time></trkpt><trkpt lat="63.97470093" lon="-18.84498978"><ele>586.5</ele><time>2012-07-24T14:12:24.0000000+00:00</time></trkpt><trkpt lat="63.97470093" lon="-18.84498978"><ele>586.5</ele><time>2012-07-24T14:12:29.0000000+00:00</time></trkpt><trkpt lat="63.97470093" lon="-18.84498978"><ele>586.5</ele><time>2012-07-24T14:12:34.0000000+00:00</time></trkpt><trkpt lat="63.97470093" lon="-18.84498978"><ele>586.5</ele><time>2012-07-24T14:12:39.0000000+00:00</time></trkpt><trkpt lat="63.97470093" lon="-18.84498978"><ele>586.5</ele><time>2012-07-24T14:12:44.0000000+00:00</time></trkpt><trkpt lat="63.97470093" lon="-18.84498978"><ele>586.5</ele><time>2012-07-24T14:12:49.0000000+00:00</time></trkpt><trkpt lat="63.97470093" lon="-18.84499168"><ele>586.5</ele><time>2012-07-24T14:12:54.0000000+00:00</time></trkpt><trkpt lat="63.97470093" lon="-18.84499168"><ele>586.5</ele><time>2012-07-24T14:12:59.0000000+00:00</time></trkpt><trkpt lat="63.97470093" lon="-18.84499168"><ele>586.4</ele><time>2012-07-24T14:13:04.0000000+00:00</time></trkpt><trkpt lat="63.97470093" lon="-18.84499168"><ele>586.4</ele><time>2012-07-24T14:13:09.0000000+00:00</time></trkpt><trkpt lat="63.97470093" lon="-18.84499168"><ele>586.4</ele><time>2012-07-24T14:13:14.0000000+00:00</time></trkpt><trkpt lat="63.97470093" lon="-18.84499168"><ele>586.4</ele><time>2012-07-24T14:13:19.0000000+00:00</time></trkpt><trkpt lat="63.97470093" lon="-18.84499168"><ele>586.4</ele><time>2012-07-24T14:13:24.0000000+00:00</time></trkpt><trkpt lat="63.97470093" lon="-18.84499168"><ele>586.4</ele><time>2012-07-24T14:13:29.0000000+00:00</time></trkpt><trkpt lat="63.97470093" lon="-18.84499168"><ele>586.4</ele><time>2012-07-24T14:13:34.0000000+00:00</time></trkpt><trkpt lat="63.97470093" lon="-18.84499168"><ele>586.3</ele><time>2012-07-24T14:13:39.0000000+00:00</time></trkpt><trkpt lat="63.97470093" lon="-18.84499168"><ele>586.3</ele><time>2012-07-24T14:13:44.0000000+00:00</time></trkpt><trkpt lat="63.97470093" lon="-18.84499359"><ele>586.3</ele><time>2012-07-24T14:13:49.0000000+00:00</time></trkpt><trkpt lat="63.97470093" lon="-18.84499359"><ele>586.3</ele><time>2012-07-24T14:13:54.0000000+00:00</time></trkpt><trkpt lat="63.97469711" lon="-18.84499359"><ele>586.3</ele><time>2012-07-24T14:13:59.0000000+00:00</time></trkpt><trkpt lat="63.97469711" lon="-18.84499359"><ele>586.3</ele><time>2012-07-24T14:14:04.0000000+00:00</time></trkpt><trkpt lat="63.97469711" lon="-18.84499359"><ele>586.2</ele><time>2012-07-24T14:14:09.0000000+00:00</time></trkpt><trkpt lat="63.97469711" lon="-18.84499359"><ele>586.2</ele><time>2012-07-24T14:14:14.0000000+00:00</time></trkpt><trkpt lat="63.97469711" lon="-18.84499359"><ele>586.2</ele><time>2012-07-24T14:14:19.0000000+00:00</time></trkpt><trkpt lat="63.97469711" lon="-18.84499359"><ele>586.2</ele><time>2012-07-24T14:14:24.0000000+00:00</time></trkpt><trkpt lat="63.97469711" lon="-18.84499359"><ele>586.2</ele><time>2012-07-24T14:14:29.0000000+00:00</time></trkpt><trkpt lat="63.97469711" lon="-18.84499359"><ele>586.2</ele><time>2012-07-24T14:14:34.0000000+00:00</time></trkpt><trkpt lat="63.97469711" lon="-18.84499359"><ele>586.2</ele><time>2012-07-24T14:14:39.0000000+00:00</time></trkpt><trkpt lat="63.97469711" lon="-18.8449955"><ele>586.1</ele><time>2012-07-24T14:14:44.0000000+00:00</time></trkpt><trkpt lat="63.97469711" lon="-18.8449955"><ele>586.1</ele><time>2012-07-24T14:14:49.0000000+00:00</time></trkpt><trkpt lat="63.97469711" lon="-18.8449955"><ele>586.1</ele><time>2012-07-24T14:14:54.0000000+00:00</time></trkpt><trkpt lat="63.97469711" lon="-18.8449955"><ele>586.1</ele><time>2012-07-24T14:14:59.0000000+00:00</time></trkpt><trkpt lat="63.97469711" lon="-18.8449955"><ele>586.0</ele><time>2012-07-24T14:15:04.0000000+00:00</time></trkpt><trkpt lat="63.97469711" lon="-18.8449955"><ele>586.0</ele><time>2012-07-24T14:15:09.0000000+00:00</time></trkpt><trkpt lat="63.97468948" lon="-18.84494019"><ele>586.2</ele><time>2012-07-24T14:15:14.0000000+00:00</time></trkpt><trkpt lat="63.9746933" lon="-18.84493446"><ele>585.9</ele><time>2012-07-24T14:15:19.0000000+00:00</time></trkpt><trkpt lat="63.97468948" lon="-18.8448925"><ele>585.4</ele><time>2012-07-24T14:15:24.0000000+00:00</time></trkpt><trkpt lat="63.97467804" lon="-18.84473229"><ele>583.8</ele><time>2012-07-24T14:15:29.0000000+00:00</time></trkpt><trkpt lat="63.97466278" lon="-18.84453201"><ele>584.0</ele><time>2012-07-24T14:15:34.0000000+00:00</time></trkpt><trkpt lat="63.974617" lon="-18.84428406"><ele>584.4</ele><time>2012-07-24T14:15:39.0000000+00:00</time></trkpt><trkpt lat="63.97455597" lon="-18.84412575"><ele>585.9</ele><time>2012-07-24T14:15:44.0000000+00:00</time></trkpt><trkpt lat="63.97453308" lon="-18.84403229"><ele>586.5</ele><time>2012-07-24T14:15:49.0000000+00:00</time></trkpt><trkpt lat="63.97452164" lon="-18.84402275"><ele>586.4</ele><time>2012-07-24T14:15:54.0000000+00:00</time></trkpt><trkpt lat="63.97451782" lon="-18.84401321"><ele>586.7</ele><time>2012-07-24T14:15:59.0000000+00:00</time></trkpt><trkpt lat="63.97452164" lon="-18.84403992"><ele>586.6</ele><time>2012-07-24T14:16:04.0000000+00:00</time></trkpt><trkpt lat="63.97452164" lon="-18.8440342"><ele>586.9</ele><time>2012-07-24T14:16:09.0000000+00:00</time></trkpt><trkpt lat="63.97451782" lon="-18.84402084"><ele>587.0</ele><time>2012-07-24T14:16:14.0000000+00:00</time></trkpt><trkpt lat="63.97447968" lon="-18.84405518"><ele>587.3</ele><time>2012-07-24T14:16:19.0000000+00:00</time></trkpt><trkpt lat="63.97445297" lon="-18.8440361"><ele>588.0</ele><time>2012-07-24T14:16:24.0000000+00:00</time></trkpt><trkpt lat="63.97445297" lon="-18.84400177"><ele>588.8</ele><time>2012-07-24T14:16:29.0000000+00:00</time></trkpt><trkpt lat="63.97442246" lon="-18.84395981"><ele>588.8</ele><time>2012-07-24T14:16:34.0000000+00:00</time></trkpt><trkpt lat="63.97441483" lon="-18.84394455"><ele>588.0</ele><time>2012-07-24T14:16:39.0000000+00:00</time></trkpt><trkpt lat="63.97442627" lon="-18.84394455"><ele>587.8</ele><time>2012-07-24T14:16:44.0000000+00:00</time></trkpt><trkpt lat="63.97442627" lon="-18.84388733"><ele>587.8</ele><time>2012-07-24T14:16:49.0000000+00:00</time></trkpt><trkpt lat="63.97444534" lon="-18.84380913"><ele>587.3</ele><time>2012-07-24T14:16:54.0000000+00:00</time></trkpt><trkpt lat="63.97447586" lon="-18.84374428"><ele>586.7</ele><time>2012-07-24T14:16:59.0000000+00:00</time></trkpt><trkpt lat="63.97450638" lon="-18.84365273"><ele>586.5</ele><time>2012-07-24T14:17:04.0000000+00:00</time></trkpt><trkpt lat="63.97450638" lon="-18.84363365"><ele>586.3</ele><time>2012-07-24T14:17:09.0000000+00:00</time></trkpt><trkpt lat="63.97450638" lon="-18.84363556"><ele>586.3</ele><time>2012-07-24T14:17:14.0000000+00:00</time></trkpt><trkpt lat="63.97450638" lon="-18.84363365"><ele>586.3</ele><time>2012-07-24T14:17:19.0000000+00:00</time></trkpt><trkpt lat="63.97450638" lon="-18.84363365"><ele>586.3</ele><time>2012-07-24T14:17:24.0000000+00:00</time></trkpt><trkpt lat="63.97453308" lon="-18.84355545"><ele>586.4</ele><time>2012-07-24T14:17:29.0000000+00:00</time></trkpt><trkpt lat="63.97453308" lon="-18.84345627"><ele>585.4</ele><time>2012-07-24T14:17:34.0000000+00:00</time></trkpt><trkpt lat="63.97452927" lon="-18.84340286"><ele>585.2</ele><time>2012-07-24T14:17:39.0000000+00:00</time></trkpt><trkpt lat="63.97452545" lon="-18.84337997"><ele>585.0</ele><time>2012-07-24T14:17:44.0000000+00:00</time></trkpt><trkpt lat="63.97452927" lon="-18.84331703"><ele>585.1</ele><time>2012-07-24T14:17:49.0000000+00:00</time></trkpt><trkpt lat="63.9745369" lon="-18.84331894"><ele>585.6</ele><time>2012-07-24T14:17:54.0000000+00:00</time></trkpt><trkpt lat="63.9745369" lon="-18.84331894"><ele>585.6</ele><time>2012-07-24T14:17:59.0000000+00:00</time></trkpt><trkpt lat="63.9745369" lon="-18.84331894"><ele>585.5</ele><time>2012-07-24T14:18:04.0000000+00:00</time></trkpt><trkpt lat="63.97452545" lon="-18.84319115"><ele>585.7</ele><time>2012-07-24T14:18:09.0000000+00:00</time></trkpt><trkpt lat="63.97449112" lon="-18.8429203"><ele>586.4</ele><time>2012-07-24T14:18:14.0000000+00:00</time></trkpt><trkpt lat="63.97446823" lon="-18.84261513"><ele>586.1</ele><time>2012-07-24T14:18:19.0000000+00:00</time></trkpt><trkpt lat="63.97443771" lon="-18.84228706"><ele>586.3</ele><time>2012-07-24T14:18:24.0000000+00:00</time></trkpt><trkpt lat="63.97441864" lon="-18.84194565"><ele>586.6</ele><time>2012-07-24T14:18:29.0000000+00:00</time></trkpt><trkpt lat="63.97438812" lon="-18.84158897"><ele>586.5</ele><time>2012-07-24T14:18:34.0000000+00:00</time></trkpt><trkpt lat="63.97435761" lon="-18.84121513"><ele>586.6</ele><time>2012-07-24T14:18:39.0000000+00:00</time></trkpt><trkpt lat="63.97432709" lon="-18.84081459"><ele>587.1</ele><time>2012-07-24T14:18:44.0000000+00:00</time></trkpt><trkpt lat="63.97433472" lon="-18.84044266"><ele>586.6</ele><time>2012-07-24T14:18:49.0000000+00:00</time></trkpt><trkpt lat="63.97435379" lon="-18.84003449"><ele>586.1</ele><time>2012-07-24T14:18:54.0000000+00:00</time></trkpt><trkpt lat="63.97437668" lon="-18.83961487"><ele>585.2</ele><time>2012-07-24T14:18:59.0000000+00:00</time></trkpt><trkpt lat="63.97440338" lon="-18.83917046"><ele>585.0</ele><time>2012-07-24T14:19:04.0000000+00:00</time></trkpt><trkpt lat="63.97441864" lon="-18.83876419"><ele>584.7</ele><time>2012-07-24T14:19:09.0000000+00:00</time></trkpt><trkpt lat="63.97437668" lon="-18.83834648"><ele>585.1</ele><time>2012-07-24T14:19:14.0000000+00:00</time></trkpt><trkpt lat="63.97428513" lon="-18.83799553"><ele>585.5</ele><time>2012-07-24T14:19:19.0000000+00:00</time></trkpt><trkpt lat="63.97417069" lon="-18.83769417"><ele>586.4</ele><time>2012-07-24T14:19:24.0000000+00:00</time></trkpt><trkpt lat="63.97406387" lon="-18.8374157"><ele>586.6</ele><time>2012-07-24T14:19:29.0000000+00:00</time></trkpt><trkpt lat="63.97396851" lon="-18.83715248"><ele>587.8</ele><time>2012-07-24T14:19:34.0000000+00:00</time></trkpt><trkpt lat="63.97393036" lon="-18.83702278"><ele>589.1</ele><time>2012-07-24T14:19:39.0000000+00:00</time></trkpt><trkpt lat="63.97389221" lon="-18.83689117"><ele>591.0</ele><time>2012-07-24T14:19:44.0000000+00:00</time></trkpt><trkpt lat="63.97386932" lon="-18.83675575"><ele>593.4</ele><time>2012-07-24T14:19:49.0000000+00:00</time></trkpt><trkpt lat="63.97382355" lon="-18.83662224"><ele>594.2</ele><time>2012-07-24T14:19:54.0000000+00:00</time></trkpt><trkpt lat="63.97379684" lon="-18.83651352"><ele>593.8</ele><time>2012-07-24T14:19:59.0000000+00:00</time></trkpt><trkpt lat="63.97374344" lon="-18.83629608"><ele>593.8</ele><time>2012-07-24T14:20:04.0000000+00:00</time></trkpt><trkpt lat="63.97372437" lon="-18.83611679"><ele>594.7</ele><time>2012-07-24T14:20:09.0000000+00:00</time></trkpt><trkpt lat="63.97372437" lon="-18.83601761"><ele>594.7</ele><time>2012-07-24T14:20:14.0000000+00:00</time></trkpt><trkpt lat="63.97368622" lon="-18.83581352"><ele>595.4</ele><time>2012-07-24T14:20:19.0000000+00:00</time></trkpt><trkpt lat="63.97364044" lon="-18.83559609"><ele>595.4</ele><time>2012-07-24T14:20:24.0000000+00:00</time></trkpt><trkpt lat="63.97359085" lon="-18.83538628"><ele>596.1</ele><time>2012-07-24T14:20:29.0000000+00:00</time></trkpt><trkpt lat="63.97352219" lon="-18.83517838"><ele>596.8</ele><time>2012-07-24T14:20:34.0000000+00:00</time></trkpt><trkpt lat="63.97345352" lon="-18.83492088"><ele>597.4</ele><time>2012-07-24T14:20:39.0000000+00:00</time></trkpt><trkpt lat="63.97339249" lon="-18.83465958"><ele>597.8</ele><time>2012-07-24T14:20:44.0000000+00:00</time></trkpt><trkpt lat="63.97333145" lon="-18.8343792"><ele>597.8</ele><time>2012-07-24T14:20:49.0000000+00:00</time></trkpt><trkpt lat="63.97326279" lon="-18.83415031"><ele>598.4</ele><time>2012-07-24T14:20:54.0000000+00:00</time></trkpt><trkpt lat="63.97319794" lon="-18.83386612"><ele>597.9</ele><time>2012-07-24T14:20:59.0000000+00:00</time></trkpt><trkpt lat="63.97311783" lon="-18.83354759"><ele>597.4</ele><time>2012-07-24T14:21:04.0000000+00:00</time></trkpt><trkpt lat="63.97303009" lon="-18.83319473"><ele>596.2</ele><time>2012-07-24T14:21:09.0000000+00:00</time></trkpt><trkpt lat="63.97294235" lon="-18.8328495"><ele>595.4</ele><time>2012-07-24T14:21:14.0000000+00:00</time></trkpt><trkpt lat="63.9728508" lon="-18.83247948"><ele>594.3</ele><time>2012-07-24T14:21:19.0000000+00:00</time></trkpt><trkpt lat="63.97275543" lon="-18.83209801"><ele>593.3</ele><time>2012-07-24T14:21:24.0000000+00:00</time></trkpt><trkpt lat="63.97264481" lon="-18.83169365"><ele>593.2</ele><time>2012-07-24T14:21:29.0000000+00:00</time></trkpt><trkpt lat="63.97253418" lon="-18.83129692"><ele>593.3</ele><time>2012-07-24T14:21:34.0000000+00:00</time></trkpt><trkpt lat="63.97241592" lon="-18.83088684"><ele>595.3</ele><time>2012-07-24T14:21:39.0000000+00:00</time></trkpt><trkpt lat="63.97229767" lon="-18.83047295"><ele>596.5</ele><time>2012-07-24T14:21:44.0000000+00:00</time></trkpt><trkpt lat="63.97219086" lon="-18.83007431"><ele>596.6</ele><time>2012-07-24T14:21:49.0000000+00:00</time></trkpt><trkpt lat="63.97207642" lon="-18.82971191"><ele>595.8</ele><time>2012-07-24T14:21:54.0000000+00:00</time></trkpt><trkpt lat="63.97193146" lon="-18.82926941"><ele>594.1</ele><time>2012-07-24T14:21:59.0000000+00:00</time></trkpt><trkpt lat="63.97172165" lon="-18.82874107"><ele>592.6</ele><time>2012-07-24T14:22:04.0000000+00:00</time></trkpt><trkpt lat="63.97151947" lon="-18.82827568"><ele>592.3</ele><time>2012-07-24T14:22:09.0000000+00:00</time></trkpt><trkpt lat="63.97135925" lon="-18.82785416"><ele>591.4</ele><time>2012-07-24T14:22:14.0000000+00:00</time></trkpt><trkpt lat="63.97126389" lon="-18.827425"><ele>591.0</ele><time>2012-07-24T14:22:19.0000000+00:00</time></trkpt><trkpt lat="63.97119522" lon="-18.82699013"><ele>591.4</ele><time>2012-07-24T14:22:24.0000000+00:00</time></trkpt><trkpt lat="63.971138" lon="-18.82659149"><ele>592.2</ele><time>2012-07-24T14:22:29.0000000+00:00</time></trkpt><trkpt lat="63.97108841" lon="-18.8263073"><ele>592.4</ele><time>2012-07-24T14:22:34.0000000+00:00</time></trkpt><trkpt lat="63.97103882" lon="-18.82619858"><ele>592.3</ele><time>2012-07-24T14:22:39.0000000+00:00</time></trkpt><trkpt lat="63.97103119" lon="-18.82620049"><ele>591.9</ele><time>2012-07-24T14:22:44.0000000+00:00</time></trkpt><trkpt lat="63.97103119" lon="-18.82620239"><ele>592.1</ele><time>2012-07-24T14:22:49.0000000+00:00</time></trkpt><trkpt lat="63.97103119" lon="-18.82620239"><ele>592.1</ele><time>2012-07-24T14:22:54.0000000+00:00</time></trkpt><trkpt lat="63.97103119" lon="-18.82620049"><ele>592.1</ele><time>2012-07-24T14:22:59.0000000+00:00</time></trkpt><trkpt lat="63.97103119" lon="-18.82620049"><ele>592.2</ele><time>2012-07-24T14:23:04.0000000+00:00</time></trkpt><trkpt lat="63.97103119" lon="-18.82620239"><ele>592.2</ele><time>2012-07-24T14:23:09.0000000+00:00</time></trkpt><trkpt lat="63.97103119" lon="-18.82620239"><ele>592.2</ele><time>2012-07-24T14:23:14.0000000+00:00</time></trkpt><trkpt lat="63.97103119" lon="-18.82620239"><ele>592.2</ele><time>2012-07-24T14:23:19.0000000+00:00</time></trkpt><trkpt lat="63.97103119" lon="-18.82620239"><ele>592.2</ele><time>2012-07-24T14:23:24.0000000+00:00</time></trkpt><trkpt lat="63.97103119" lon="-18.82620049"><ele>592.2</ele><time>2012-07-24T14:23:29.0000000+00:00</time></trkpt><trkpt lat="63.971035" lon="-18.82620049"><ele>592.2</ele><time>2012-07-24T14:23:34.0000000+00:00</time></trkpt><trkpt lat="63.971035" lon="-18.82620049"><ele>592.2</ele><time>2012-07-24T14:23:39.0000000+00:00</time></trkpt><trkpt lat="63.971035" lon="-18.82620239"><ele>592.2</ele><time>2012-07-24T14:23:44.0000000+00:00</time></trkpt><trkpt lat="63.971035" lon="-18.82620239"><ele>592.2</ele><time>2012-07-24T14:23:49.0000000+00:00</time></trkpt><trkpt lat="63.971035" lon="-18.82620239"><ele>592.2</ele><time>2012-07-24T14:23:54.0000000+00:00</time></trkpt><trkpt lat="63.971035" lon="-18.82620049"><ele>592.2</ele><time>2012-07-24T14:23:59.0000000+00:00</time></trkpt><trkpt lat="63.97101975" lon="-18.82620239"><ele>592.1</ele><time>2012-07-24T14:24:04.0000000+00:00</time></trkpt><trkpt lat="63.97101975" lon="-18.82619667"><ele>591.7</ele><time>2012-07-24T14:24:09.0000000+00:00</time></trkpt><trkpt lat="63.97101975" lon="-18.82619667"><ele>591.7</ele><time>2012-07-24T14:24:14.0000000+00:00</time></trkpt><trkpt lat="63.97101975" lon="-18.82619858"><ele>591.7</ele><time>2012-07-24T14:24:19.0000000+00:00</time></trkpt><trkpt lat="63.97101975" lon="-18.82619858"><ele>591.7</ele><time>2012-07-24T14:24:24.0000000+00:00</time></trkpt><trkpt lat="63.97101975" lon="-18.82619858"><ele>591.7</ele><time>2012-07-24T14:24:29.0000000+00:00</time></trkpt><trkpt lat="63.97101975" lon="-18.82619858"><ele>591.7</ele><time>2012-07-24T14:24:34.0000000+00:00</time></trkpt><trkpt lat="63.97101975" lon="-18.82619858"><ele>591.7</ele><time>2012-07-24T14:24:39.0000000+00:00</time></trkpt><trkpt lat="63.97101975" lon="-18.82620049"><ele>591.7</ele><time>2012-07-24T14:24:44.0000000+00:00</time></trkpt><trkpt lat="63.97101975" lon="-18.82620049"><ele>591.7</ele><time>2012-07-24T14:24:49.0000000+00:00</time></trkpt><trkpt lat="63.97101975" lon="-18.82620049"><ele>591.7</ele><time>2012-07-24T14:24:54.0000000+00:00</time></trkpt><trkpt lat="63.97101975" lon="-18.82620049"><ele>591.7</ele><time>2012-07-24T14:24:59.0000000+00:00</time></trkpt><trkpt lat="63.97101975" lon="-18.82620049"><ele>591.7</ele><time>2012-07-24T14:25:04.0000000+00:00</time></trkpt><trkpt lat="63.97101975" lon="-18.82620049"><ele>591.6</ele><time>2012-07-24T14:25:09.0000000+00:00</time></trkpt><trkpt lat="63.97101975" lon="-18.82620049"><ele>591.6</ele><time>2012-07-24T14:25:14.0000000+00:00</time></trkpt><trkpt lat="63.97101975" lon="-18.82620049"><ele>591.6</ele><time>2012-07-24T14:25:19.0000000+00:00</time></trkpt><trkpt lat="63.97101975" lon="-18.82620239"><ele>591.6</ele><time>2012-07-24T14:25:24.0000000+00:00</time></trkpt><trkpt lat="63.97101975" lon="-18.82620239"><ele>591.6</ele><time>2012-07-24T14:25:29.0000000+00:00</time></trkpt><trkpt lat="63.97101975" lon="-18.82620239"><ele>591.6</ele><time>2012-07-24T14:25:34.0000000+00:00</time></trkpt><trkpt lat="63.97101975" lon="-18.82620239"><ele>591.6</ele><time>2012-07-24T14:25:39.0000000+00:00</time></trkpt><trkpt lat="63.97101975" lon="-18.82620239"><ele>591.6</ele><time>2012-07-24T14:25:44.0000000+00:00</time></trkpt><trkpt lat="63.97102356" lon="-18.82620239"><ele>591.6</ele><time>2012-07-24T14:25:49.0000000+00:00</time></trkpt><trkpt lat="63.97102356" lon="-18.82620239"><ele>591.6</ele><time>2012-07-24T14:25:54.0000000+00:00</time></trkpt><trkpt lat="63.97102356" lon="-18.82621384"><ele>591.7</ele><time>2012-07-24T14:25:59.0000000+00:00</time></trkpt><trkpt lat="63.97102737" lon="-18.82620812"><ele>591.8</ele><time>2012-07-24T14:26:04.0000000+00:00</time></trkpt><trkpt lat="63.97101593" lon="-18.82614517"><ele>590.9</ele><time>2012-07-24T14:26:09.0000000+00:00</time></trkpt><trkpt lat="63.97101212" lon="-18.82610512"><ele>590.9</ele><time>2012-07-24T14:26:14.0000000+00:00</time></trkpt><trkpt lat="63.97099304" lon="-18.82605553"><ele>590.5</ele><time>2012-07-24T14:26:19.0000000+00:00</time></trkpt><trkpt lat="63.97099304" lon="-18.82600212"><ele>591.4</ele><time>2012-07-24T14:26:24.0000000+00:00</time></trkpt><trkpt lat="63.97099304" lon="-18.82598496"><ele>591.1</ele><time>2012-07-24T14:26:29.0000000+00:00</time></trkpt><trkpt lat="63.97098923" lon="-18.82598305"><ele>591.0</ele><time>2012-07-24T14:26:34.0000000+00:00</time></trkpt><trkpt lat="63.97098923" lon="-18.82598305"><ele>591.0</ele><time>2012-07-24T14:26:39.0000000+00:00</time></trkpt><trkpt lat="63.97098923" lon="-18.82598305"><ele>591.0</ele><time>2012-07-24T14:26:44.0000000+00:00</time></trkpt><trkpt lat="63.97098923" lon="-18.82598114"><ele>591.0</ele><time>2012-07-24T14:26:49.0000000+00:00</time></trkpt><trkpt lat="63.97098923" lon="-18.82598114"><ele>591.0</ele><time>2012-07-24T14:26:54.0000000+00:00</time></trkpt><trkpt lat="63.97098923" lon="-18.82598114"><ele>590.9</ele><time>2012-07-24T14:26:59.0000000+00:00</time></trkpt><trkpt lat="63.97098923" lon="-18.82598114"><ele>590.9</ele><time>2012-07-24T14:27:04.0000000+00:00</time></trkpt><trkpt lat="63.97098923" lon="-18.82597923"><ele>590.9</ele><time>2012-07-24T14:27:09.0000000+00:00</time></trkpt><trkpt lat="63.97098541" lon="-18.82597923"><ele>590.9</ele><time>2012-07-24T14:27:14.0000000+00:00</time></trkpt><trkpt lat="63.97098541" lon="-18.82597923"><ele>590.9</ele><time>2012-07-24T14:27:19.0000000+00:00</time></trkpt><trkpt lat="63.97098541" lon="-18.82598114"><ele>590.9</ele><time>2012-07-24T14:27:24.0000000+00:00</time></trkpt><trkpt lat="63.97098541" lon="-18.82598114"><ele>590.9</ele><time>2012-07-24T14:27:29.0000000+00:00</time></trkpt><trkpt lat="63.97098541" lon="-18.82598114"><ele>590.8</ele><time>2012-07-24T14:27:34.0000000+00:00</time></trkpt><trkpt lat="63.97098541" lon="-18.82598114"><ele>590.8</ele><time>2012-07-24T14:27:39.0000000+00:00</time></trkpt><trkpt lat="63.97098541" lon="-18.82598114"><ele>590.8</ele><time>2012-07-24T14:27:44.0000000+00:00</time></trkpt><trkpt lat="63.97098541" lon="-18.82598114"><ele>590.8</ele><time>2012-07-24T14:27:49.0000000+00:00</time></trkpt><trkpt lat="63.97098541" lon="-18.82598114"><ele>590.8</ele><time>2012-07-24T14:27:54.0000000+00:00</time></trkpt><trkpt lat="63.97098541" lon="-18.82598114"><ele>590.8</ele><time>2012-07-24T14:27:59.0000000+00:00</time></trkpt><trkpt lat="63.97098541" lon="-18.82598114"><ele>590.8</ele><time>2012-07-24T14:28:04.0000000+00:00</time></trkpt><trkpt lat="63.97098541" lon="-18.82598114"><ele>590.8</ele><time>2012-07-24T14:28:09.0000000+00:00</time></trkpt><trkpt lat="63.9709816" lon="-18.82598114"><ele>590.8</ele><time>2012-07-24T14:28:14.0000000+00:00</time></trkpt><trkpt lat="63.9709816" lon="-18.82598114"><ele>590.8</ele><time>2012-07-24T14:28:19.0000000+00:00</time></trkpt><trkpt lat="63.9709816" lon="-18.82597923"><ele>590.7</ele><time>2012-07-24T14:28:24.0000000+00:00</time></trkpt><trkpt lat="63.9709816" lon="-18.82597923"><ele>590.7</ele><time>2012-07-24T14:28:29.0000000+00:00</time></trkpt><trkpt lat="63.9709816" lon="-18.82597923"><ele>590.7</ele><time>2012-07-24T14:28:34.0000000+00:00</time></trkpt><trkpt lat="63.9709816" lon="-18.82597923"><ele>590.7</ele><time>2012-07-24T14:28:39.0000000+00:00</time></trkpt><trkpt lat="63.9709816" lon="-18.82598114"><ele>590.7</ele><time>2012-07-24T14:28:44.0000000+00:00</time></trkpt><trkpt lat="63.9709816" lon="-18.82598114"><ele>590.7</ele><time>2012-07-24T14:28:49.0000000+00:00</time></trkpt><trkpt lat="63.9709816" lon="-18.82598114"><ele>590.7</ele><time>2012-07-24T14:28:54.0000000+00:00</time></trkpt><trkpt lat="63.9709816" lon="-18.82598114"><ele>590.7</ele><time>2012-07-24T14:28:59.0000000+00:00</time></trkpt><trkpt lat="63.9709816" lon="-18.82598114"><ele>590.7</ele><time>2012-07-24T14:29:04.0000000+00:00</time></trkpt><trkpt lat="63.9709816" lon="-18.82598114"><ele>590.6</ele><time>2012-07-24T14:29:09.0000000+00:00</time></trkpt><trkpt lat="63.9709816" lon="-18.82598114"><ele>590.6</ele><time>2012-07-24T14:29:14.0000000+00:00</time></trkpt><trkpt lat="63.9709816" lon="-18.82598114"><ele>590.6</ele><time>2012-07-24T14:29:19.0000000+00:00</time></trkpt><trkpt lat="63.9709816" lon="-18.82598114"><ele>590.6</ele><time>2012-07-24T14:29:24.0000000+00:00</time></trkpt><trkpt lat="63.9709816" lon="-18.82598114"><ele>590.6</ele><time>2012-07-24T14:29:29.0000000+00:00</time></trkpt><trkpt lat="63.9709816" lon="-18.82598114"><ele>590.6</ele><time>2012-07-24T14:29:34.0000000+00:00</time></trkpt><trkpt lat="63.9709816" lon="-18.82598114"><ele>590.6</ele><time>2012-07-24T14:29:39.0000000+00:00</time></trkpt><trkpt lat="63.9709816" lon="-18.82598114"><ele>590.6</ele><time>2012-07-24T14:29:44.0000000+00:00</time></trkpt><trkpt lat="63.9709816" lon="-18.82598305"><ele>590.6</ele><time>2012-07-24T14:29:49.0000000+00:00</time></trkpt><trkpt lat="63.9709816" lon="-18.82598305"><ele>590.6</ele><time>2012-07-24T14:29:54.0000000+00:00</time></trkpt><trkpt lat="63.9709816" lon="-18.82598305"><ele>590.6</ele><time>2012-07-24T14:29:59.0000000+00:00</time></trkpt><trkpt lat="63.9709816" lon="-18.82598305"><ele>590.6</ele><time>2012-07-24T14:30:04.0000000+00:00</time></trkpt><trkpt lat="63.9709816" lon="-18.82598305"><ele>590.6</ele><time>2012-07-24T14:30:09.0000000+00:00</time></trkpt><trkpt lat="63.9709816" lon="-18.82598305"><ele>590.6</ele><time>2012-07-24T14:30:14.0000000+00:00</time></trkpt><trkpt lat="63.9709816" lon="-18.82598305"><ele>590.6</ele><time>2012-07-24T14:30:19.0000000+00:00</time></trkpt><trkpt lat="63.9709816" lon="-18.82598305"><ele>590.6</ele><time>2012-07-24T14:30:24.0000000+00:00</time></trkpt><trkpt lat="63.9709816" lon="-18.82598305"><ele>590.6</ele><time>2012-07-24T14:30:29.0000000+00:00</time></trkpt><trkpt lat="63.97098541" lon="-18.82596779"><ele>591.1</ele><time>2012-07-24T14:30:34.0000000+00:00</time></trkpt><trkpt lat="63.9709816" lon="-18.82595825"><ele>591.1</ele><time>2012-07-24T14:30:39.0000000+00:00</time></trkpt><trkpt lat="63.9709816" lon="-18.82595825"><ele>591.1</ele><time>2012-07-24T14:30:44.0000000+00:00</time></trkpt><trkpt lat="63.97098541" lon="-18.8259449"><ele>591.4</ele><time>2012-07-24T14:30:49.0000000+00:00</time></trkpt><trkpt lat="63.97100067" lon="-18.82591438"><ele>591.0</ele><time>2012-07-24T14:30:54.0000000+00:00</time></trkpt><trkpt lat="63.97100067" lon="-18.82592201"><ele>590.8</ele><time>2012-07-24T14:30:59.0000000+00:00</time></trkpt><trkpt lat="63.97100067" lon="-18.82592201"><ele>590.7</ele><time>2012-07-24T14:31:04.0000000+00:00</time></trkpt><trkpt lat="63.97101212" lon="-18.8258915"><ele>590.5</ele><time>2012-07-24T14:31:09.0000000+00:00</time></trkpt><trkpt lat="63.97102356" lon="-18.82587814"><ele>590.6</ele><time>2012-07-24T14:31:14.0000000+00:00</time></trkpt><trkpt lat="63.97103119" lon="-18.82581329"><ele>590.4</ele><time>2012-07-24T14:31:19.0000000+00:00</time></trkpt><trkpt lat="63.97103119" lon="-18.82559395"><ele>591.1</ele><time>2012-07-24T14:31:24.0000000+00:00</time></trkpt><trkpt lat="63.97098541" lon="-18.82530975"><ele>591.5</ele><time>2012-07-24T14:31:29.0000000+00:00</time></trkpt><trkpt lat="63.97095871" lon="-18.825037"><ele>591.9</ele><time>2012-07-24T14:31:34.0000000+00:00</time></trkpt><trkpt lat="63.97094345" lon="-18.82476044"><ele>593.2</ele><time>2012-07-24T14:31:39.0000000+00:00</time></trkpt><trkpt lat="63.97092056" lon="-18.82458878"><ele>593.7</ele><time>2012-07-24T14:31:44.0000000+00:00</time></trkpt><trkpt lat="63.9708786" lon="-18.82437325"><ele>592.9</ele><time>2012-07-24T14:31:49.0000000+00:00</time></trkpt><trkpt lat="63.97085571" lon="-18.82418442"><ele>593.0</ele><time>2012-07-24T14:31:54.0000000+00:00</time></trkpt><trkpt lat="63.97081375" lon="-18.82395363"><ele>593.8</ele><time>2012-07-24T14:31:58.0000000+00:00</time></trkpt><trkpt lat="63.9708252" lon="-18.82394409"><ele>595.3</ele><time>2012-07-24T14:32:04.0000000+00:00</time></trkpt><trkpt lat="63.97081757" lon="-18.82394409"><ele>595.7</ele><time>2012-07-24T14:32:09.0000000+00:00</time></trkpt><trkpt lat="63.97081757" lon="-18.82394028"><ele>595.4</ele><time>2012-07-24T14:32:14.0000000+00:00</time></trkpt><trkpt lat="63.97081757" lon="-18.8239193"><ele>595.4</ele><time>2012-07-24T14:32:19.0000000+00:00</time></trkpt><trkpt lat="63.97081375" lon="-18.82392502"><ele>595.8</ele><time>2012-07-24T14:32:24.0000000+00:00</time></trkpt><trkpt lat="63.97081375" lon="-18.82392693"><ele>595.8</ele><time>2012-07-24T14:32:29.0000000+00:00</time></trkpt><trkpt lat="63.97081375" lon="-18.82392502"><ele>595.8</ele><time>2012-07-24T14:32:34.0000000+00:00</time></trkpt><trkpt lat="63.97081375" lon="-18.82392693"><ele>595.8</ele><time>2012-07-24T14:32:39.0000000+00:00</time></trkpt><trkpt lat="63.97081375" lon="-18.82392502"><ele>595.8</ele><time>2012-07-24T14:32:44.0000000+00:00</time></trkpt><trkpt lat="63.97081375" lon="-18.82392502"><ele>595.8</ele><time>2012-07-24T14:32:49.0000000+00:00</time></trkpt><trkpt lat="63.97081375" lon="-18.82392502"><ele>595.8</ele><time>2012-07-24T14:32:54.0000000+00:00</time></trkpt><trkpt lat="63.97079468" lon="-18.82385445"><ele>596.1</ele><time>2012-07-24T14:32:59.0000000+00:00</time></trkpt><trkpt lat="63.9707489" lon="-18.82365418"><ele>596.5</ele><time>2012-07-24T14:33:04.0000000+00:00</time></trkpt><trkpt lat="63.97065353" lon="-18.82345581"><ele>596.8</ele><time>2012-07-24T14:33:09.0000000+00:00</time></trkpt><trkpt lat="63.97052765" lon="-18.82328224"><ele>598.0</ele><time>2012-07-24T14:33:14.0000000+00:00</time></trkpt><trkpt lat="63.97039795" lon="-18.82310867"><ele>600.6</ele><time>2012-07-24T14:33:19.0000000+00:00</time></trkpt><trkpt lat="63.97026444" lon="-18.82291222"><ele>600.1</ele><time>2012-07-24T14:33:24.0000000+00:00</time></trkpt><trkpt lat="63.97011948" lon="-18.82269096"><ele>599.7</ele><time>2012-07-24T14:33:29.0000000+00:00</time></trkpt><trkpt lat="63.9699707" lon="-18.82247925"><ele>601.9</ele><time>2012-07-24T14:33:34.0000000+00:00</time></trkpt><trkpt lat="63.96982193" lon="-18.82224274"><ele>602.3</ele><time>2012-07-24T14:33:39.0000000+00:00</time></trkpt><trkpt lat="63.96966934" lon="-18.8219738"><ele>603.0</ele><time>2012-07-24T14:33:44.0000000+00:00</time></trkpt><trkpt lat="63.96951294" lon="-18.82173729"><ele>604.4</ele><time>2012-07-24T14:33:49.0000000+00:00</time></trkpt><trkpt lat="63.96936035" lon="-18.82149506"><ele>606.9</ele><time>2012-07-24T14:33:54.0000000+00:00</time></trkpt><trkpt lat="63.96920776" lon="-18.82123566"><ele>607.3</ele><time>2012-07-24T14:33:59.0000000+00:00</time></trkpt><trkpt lat="63.96905518" lon="-18.82096481"><ele>607.2</ele><time>2012-07-24T14:34:04.0000000+00:00</time></trkpt><trkpt lat="63.96889877" lon="-18.82072449"><ele>606.9</ele><time>2012-07-24T14:34:09.0000000+00:00</time></trkpt><trkpt lat="63.96875" lon="-18.82046509"><ele>605.6</ele><time>2012-07-24T14:34:14.0000000+00:00</time></trkpt><trkpt lat="63.96859741" lon="-18.82024765"><ele>606.5</ele><time>2012-07-24T14:34:19.0000000+00:00</time></trkpt><trkpt lat="63.96842575" lon="-18.82006264"><ele>606.1</ele><time>2012-07-24T14:34:24.0000000+00:00</time></trkpt><trkpt lat="63.96829224" lon="-18.8198719"><ele>607.0</ele><time>2012-07-24T14:34:29.0000000+00:00</time></trkpt><trkpt lat="63.96820068" lon="-18.81961632"><ele>606.2</ele><time>2012-07-24T14:34:34.0000000+00:00</time></trkpt><trkpt lat="63.96817017" lon="-18.81928062"><ele>605.6</ele><time>2012-07-24T14:34:39.0000000+00:00</time></trkpt><trkpt lat="63.96819305" lon="-18.81896401"><ele>603.1</ele><time>2012-07-24T14:34:44.0000000+00:00</time></trkpt><trkpt lat="63.96821976" lon="-18.81870651"><ele>600.4</ele><time>2012-07-24T14:34:49.0000000+00:00</time></trkpt><trkpt lat="63.96821594" lon="-18.81864357"><ele>598.8</ele><time>2012-07-24T14:34:54.0000000+00:00</time></trkpt><trkpt lat="63.96821213" lon="-18.81864166"><ele>598.6</ele><time>2012-07-24T14:34:59.0000000+00:00</time></trkpt><trkpt lat="63.96821594" lon="-18.81865311"><ele>598.6</ele><time>2012-07-24T14:35:04.0000000+00:00</time></trkpt><trkpt lat="63.96822357" lon="-18.81872559"><ele>599.8</ele><time>2012-07-24T14:35:09.0000000+00:00</time></trkpt><trkpt lat="63.96820831" lon="-18.81885338"><ele>600.0</ele><time>2012-07-24T14:35:14.0000000+00:00</time></trkpt><trkpt lat="63.96818543" lon="-18.81900787"><ele>599.5</ele><time>2012-07-24T14:35:19.0000000+00:00</time></trkpt><trkpt lat="63.96817398" lon="-18.81906891"><ele>599.7</ele><time>2012-07-24T14:35:24.0000000+00:00</time></trkpt><trkpt lat="63.96817398" lon="-18.81905365"><ele>599.8</ele><time>2012-07-24T14:35:29.0000000+00:00</time></trkpt><trkpt lat="63.9681778" lon="-18.81904411"><ele>599.6</ele><time>2012-07-24T14:35:34.0000000+00:00</time></trkpt><trkpt lat="63.96831894" lon="-18.81867218"><ele>597.5</ele><time>2012-07-24T14:35:39.0000000+00:00</time></trkpt><trkpt lat="63.96838379" lon="-18.81846428"><ele>600.1</ele><time>2012-07-24T14:35:44.0000000+00:00</time></trkpt><trkpt lat="63.96834946" lon="-18.81828308"><ele>600.8</ele><time>2012-07-24T14:35:49.0000000+00:00</time></trkpt><trkpt lat="63.96829224" lon="-18.81805801"><ele>598.9</ele><time>2012-07-24T14:35:54.0000000+00:00</time></trkpt><trkpt lat="63.96825409" lon="-18.81783867"><ele>599.4</ele><time>2012-07-24T14:35:59.0000000+00:00</time></trkpt><trkpt lat="63.96822739" lon="-18.81762695"><ele>600.1</ele><time>2012-07-24T14:36:04.0000000+00:00</time></trkpt><trkpt lat="63.96816635" lon="-18.81745148"><ele>601.1</ele><time>2012-07-24T14:36:09.0000000+00:00</time></trkpt><trkpt lat="63.96811676" lon="-18.81723785"><ele>601.5</ele><time>2012-07-24T14:36:14.0000000+00:00</time></trkpt><trkpt lat="63.96812058" lon="-18.8169632"><ele>601.7</ele><time>2012-07-24T14:36:19.0000000+00:00</time></trkpt><trkpt lat="63.96813965" lon="-18.81675339"><ele>601.8</ele><time>2012-07-24T14:36:24.0000000+00:00</time></trkpt><trkpt lat="63.96814346" lon="-18.81658936"><ele>600.7</ele><time>2012-07-24T14:36:29.0000000+00:00</time></trkpt><trkpt lat="63.9681015" lon="-18.81641769"><ele>600.3</ele><time>2012-07-24T14:36:34.0000000+00:00</time></trkpt><trkpt lat="63.96810532" lon="-18.81633377"><ele>599.9</ele><time>2012-07-24T14:36:39.0000000+00:00</time></trkpt><trkpt lat="63.96812058" lon="-18.81631851"><ele>599.2</ele><time>2012-07-24T14:36:44.0000000+00:00</time></trkpt><trkpt lat="63.96816635" lon="-18.81637573"><ele>599.3</ele><time>2012-07-24T14:36:49.0000000+00:00</time></trkpt><trkpt lat="63.96818161" lon="-18.81643486"><ele>599.3</ele><time>2012-07-24T14:36:54.0000000+00:00</time></trkpt><trkpt lat="63.9681778" lon="-18.81643295"><ele>599.3</ele><time>2012-07-24T14:36:59.0000000+00:00</time></trkpt><trkpt lat="63.9681778" lon="-18.81643295"><ele>599.3</ele><time>2012-07-24T14:37:04.0000000+00:00</time></trkpt><trkpt lat="63.9681778" lon="-18.81643105"><ele>599.4</ele><time>2012-07-24T14:37:09.0000000+00:00</time></trkpt><trkpt lat="63.9681778" lon="-18.81643105"><ele>599.3</ele><time>2012-07-24T14:37:14.0000000+00:00</time></trkpt><trkpt lat="63.9681778" lon="-18.81643105"><ele>599.4</ele><time>2012-07-24T14:37:19.0000000+00:00</time></trkpt><trkpt lat="63.9681778" lon="-18.81643105"><ele>599.3</ele><time>2012-07-24T14:37:24.0000000+00:00</time></trkpt><trkpt lat="63.9681778" lon="-18.81643105"><ele>599.3</ele><time>2012-07-24T14:37:29.0000000+00:00</time></trkpt><trkpt lat="63.9681778" lon="-18.81643105"><ele>599.2</ele><time>2012-07-24T14:37:34.0000000+00:00</time></trkpt><trkpt lat="63.9681778" lon="-18.81643105"><ele>599.2</ele><time>2012-07-24T14:37:39.0000000+00:00</time></trkpt><trkpt lat="63.9681778" lon="-18.81643105"><ele>599.1</ele><time>2012-07-24T14:37:44.0000000+00:00</time></trkpt><trkpt lat="63.96817398" lon="-18.81642914"><ele>598.9</ele><time>2012-07-24T14:37:49.0000000+00:00</time></trkpt><trkpt lat="63.96817398" lon="-18.81642914"><ele>598.7</ele><time>2012-07-24T14:37:54.0000000+00:00</time></trkpt><trkpt lat="63.9682045" lon="-18.81648254"><ele>598.6</ele><time>2012-07-24T14:37:59.0000000+00:00</time></trkpt><trkpt lat="63.96824265" lon="-18.81655121"><ele>597.4</ele><time>2012-07-24T14:38:04.0000000+00:00</time></trkpt><trkpt lat="63.96828842" lon="-18.81661415"><ele>597.3</ele><time>2012-07-24T14:38:09.0000000+00:00</time></trkpt><trkpt lat="63.96835327" lon="-18.81665611"><ele>597.3</ele><time>2012-07-24T14:38:14.0000000+00:00</time></trkpt><trkpt lat="63.96840286" lon="-18.81674194"><ele>597.4</ele><time>2012-07-24T14:38:19.0000000+00:00</time></trkpt><trkpt lat="63.9684372" lon="-18.81679916"><ele>597.4</ele><time>2012-07-24T14:38:24.0000000+00:00</time></trkpt><trkpt lat="63.96845245" lon="-18.81681252"><ele>597.2</ele><time>2012-07-24T14:38:29.0000000+00:00</time></trkpt><trkpt lat="63.96845245" lon="-18.81681442"><ele>597.1</ele><time>2012-07-24T14:38:34.0000000+00:00</time></trkpt><trkpt lat="63.96845245" lon="-18.81681442"><ele>597.1</ele><time>2012-07-24T14:38:39.0000000+00:00</time></trkpt><trkpt lat="63.96845245" lon="-18.81681442"><ele>597.0</ele><time>2012-07-24T14:38:44.0000000+00:00</time></trkpt><trkpt lat="63.96845245" lon="-18.81681442"><ele>597.0</ele><time>2012-07-24T14:38:49.0000000+00:00</time></trkpt><trkpt lat="63.96845245" lon="-18.81681252"><ele>597.0</ele><time>2012-07-24T14:38:54.0000000+00:00</time></trkpt><trkpt lat="63.96845245" lon="-18.81681252"><ele>597.0</ele><time>2012-07-24T14:38:59.0000000+00:00</time></trkpt><trkpt lat="63.96845245" lon="-18.81681252"><ele>597.0</ele><time>2012-07-24T14:39:04.0000000+00:00</time></trkpt><trkpt lat="63.96845245" lon="-18.81681252"><ele>597.0</ele><time>2012-07-24T14:39:09.0000000+00:00</time></trkpt><trkpt lat="63.96845245" lon="-18.81681252"><ele>597.0</ele><time>2012-07-24T14:39:14.0000000+00:00</time></trkpt><trkpt lat="63.96845245" lon="-18.81681252"><ele>596.9</ele><time>2012-07-24T14:39:19.0000000+00:00</time></trkpt><trkpt lat="63.96845245" lon="-18.81681252"><ele>596.9</ele><time>2012-07-24T14:39:24.0000000+00:00</time></trkpt><trkpt lat="63.96845245" lon="-18.81681061"><ele>596.9</ele><time>2012-07-24T14:39:29.0000000+00:00</time></trkpt><trkpt lat="63.96845245" lon="-18.81681061"><ele>596.9</ele><time>2012-07-24T14:39:34.0000000+00:00</time></trkpt><trkpt lat="63.96845245" lon="-18.81681061"><ele>596.9</ele><time>2012-07-24T14:39:39.0000000+00:00</time></trkpt><trkpt lat="63.96845245" lon="-18.81681061"><ele>596.9</ele><time>2012-07-24T14:39:44.0000000+00:00</time></trkpt><trkpt lat="63.96845245" lon="-18.81681061"><ele>596.9</ele><time>2012-07-24T14:39:49.0000000+00:00</time></trkpt><trkpt lat="63.96845245" lon="-18.81681061"><ele>596.9</ele><time>2012-07-24T14:39:54.0000000+00:00</time></trkpt><trkpt lat="63.96845245" lon="-18.81681061"><ele>596.9</ele><time>2012-07-24T14:39:59.0000000+00:00</time></trkpt><trkpt lat="63.96845245" lon="-18.81681061"><ele>596.9</ele><time>2012-07-24T14:40:04.0000000+00:00</time></trkpt><trkpt lat="63.96845245" lon="-18.81681061"><ele>596.9</ele><time>2012-07-24T14:40:09.0000000+00:00</time></trkpt><trkpt lat="63.96844482" lon="-18.81682015"><ele>596.3</ele><time>2012-07-24T14:40:14.0000000+00:00</time></trkpt><trkpt lat="63.96840286" lon="-18.81678009"><ele>595.4</ele><time>2012-07-24T14:40:19.0000000+00:00</time></trkpt><trkpt lat="63.9683342" lon="-18.81672478"><ele>595.5</ele><time>2012-07-24T14:40:24.0000000+00:00</time></trkpt><trkpt lat="63.96827698" lon="-18.8166256"><ele>595.5</ele><time>2012-07-24T14:40:29.0000000+00:00</time></trkpt><trkpt lat="63.9682312" lon="-18.81655121"><ele>594.7</ele><time>2012-07-24T14:40:34.0000000+00:00</time></trkpt><trkpt lat="63.96820831" lon="-18.81649971"><ele>595.0</ele><time>2012-07-24T14:40:39.0000000+00:00</time></trkpt><trkpt lat="63.96820831" lon="-18.81650543"><ele>594.5</ele><time>2012-07-24T14:40:44.0000000+00:00</time></trkpt><trkpt lat="63.96821213" lon="-18.81651688"><ele>594.5</ele><time>2012-07-24T14:40:49.0000000+00:00</time></trkpt><trkpt lat="63.96823502" lon="-18.81656838"><ele>594.5</ele><time>2012-07-24T14:40:54.0000000+00:00</time></trkpt><trkpt lat="63.96828461" lon="-18.81662941"><ele>594.1</ele><time>2012-07-24T14:40:59.0000000+00:00</time></trkpt><trkpt lat="63.9683342" lon="-18.81668472"><ele>594.1</ele><time>2012-07-24T14:41:04.0000000+00:00</time></trkpt><trkpt lat="63.96838379" lon="-18.8167305"><ele>594.5</ele><time>2012-07-24T14:41:09.0000000+00:00</time></trkpt><trkpt lat="63.96841049" lon="-18.81678772"><ele>595.4</ele><time>2012-07-24T14:41:14.0000000+00:00</time></trkpt><trkpt lat="63.96841431" lon="-18.81677246"><ele>595.7</ele><time>2012-07-24T14:41:19.0000000+00:00</time></trkpt><trkpt lat="63.96841431" lon="-18.81677246"><ele>595.6</ele><time>2012-07-24T14:41:24.0000000+00:00</time></trkpt><trkpt lat="63.96841049" lon="-18.81677246"><ele>595.6</ele><time>2012-07-24T14:41:29.0000000+00:00</time></trkpt><trkpt lat="63.96841049" lon="-18.81677246"><ele>595.6</ele><time>2012-07-24T14:41:34.0000000+00:00</time></trkpt><trkpt lat="63.96841431" lon="-18.81677246"><ele>595.6</ele><time>2012-07-24T14:41:39.0000000+00:00</time></trkpt><trkpt lat="63.96841049" lon="-18.81677246"><ele>595.6</ele><time>2012-07-24T14:41:44.0000000+00:00</time></trkpt><trkpt lat="63.96841049" lon="-18.81677055"><ele>595.6</ele><time>2012-07-24T14:41:49.0000000+00:00</time></trkpt><trkpt lat="63.96841049" lon="-18.81677055"><ele>595.6</ele><time>2012-07-24T14:41:54.0000000+00:00</time></trkpt><trkpt lat="63.96841049" lon="-18.81677055"><ele>595.6</ele><time>2012-07-24T14:41:59.0000000+00:00</time></trkpt><trkpt lat="63.96841049" lon="-18.81677055"><ele>595.6</ele><time>2012-07-24T14:42:04.0000000+00:00</time></trkpt><trkpt lat="63.96841049" lon="-18.81677055"><ele>595.6</ele><time>2012-07-24T14:42:09.0000000+00:00</time></trkpt><trkpt lat="63.96841049" lon="-18.81676865"><ele>595.6</ele><time>2012-07-24T14:42:14.0000000+00:00</time></trkpt><trkpt lat="63.96841049" lon="-18.81676865"><ele>595.6</ele><time>2012-07-24T14:42:19.0000000+00:00</time></trkpt><trkpt lat="63.96841049" lon="-18.81676865"><ele>595.6</ele><time>2012-07-24T14:42:24.0000000+00:00</time></trkpt><trkpt lat="63.96841049" lon="-18.81676865"><ele>595.6</ele><time>2012-07-24T14:42:29.0000000+00:00</time></trkpt><trkpt lat="63.96841049" lon="-18.81676865"><ele>595.6</ele><time>2012-07-24T14:42:34.0000000+00:00</time></trkpt><trkpt lat="63.96841049" lon="-18.81676865"><ele>595.6</ele><time>2012-07-24T14:42:39.0000000+00:00</time></trkpt><trkpt lat="63.96841049" lon="-18.81676865"><ele>595.6</ele><time>2012-07-24T14:42:44.0000000+00:00</time></trkpt><trkpt lat="63.96841049" lon="-18.81676865"><ele>595.6</ele><time>2012-07-24T14:42:49.0000000+00:00</time></trkpt><trkpt lat="63.9684372" lon="-18.81676674"><ele>596.7</ele><time>2012-07-24T14:42:54.0000000+00:00</time></trkpt><trkpt lat="63.96847916" lon="-18.8167553"><ele>597.4</ele><time>2012-07-24T14:42:59.0000000+00:00</time></trkpt><trkpt lat="63.96850586" lon="-18.81667519"><ele>597.1</ele><time>2012-07-24T14:43:04.0000000+00:00</time></trkpt><trkpt lat="63.96853638" lon="-18.81659126"><ele>596.1</ele><time>2012-07-24T14:43:09.0000000+00:00</time></trkpt><trkpt lat="63.96854782" lon="-18.8165493"><ele>595.9</ele><time>2012-07-24T14:43:14.0000000+00:00</time></trkpt><trkpt lat="63.96854401" lon="-18.81647492"><ele>595.4</ele><time>2012-07-24T14:43:19.0000000+00:00</time></trkpt><trkpt lat="63.96852875" lon="-18.81640625"><ele>594.4</ele><time>2012-07-24T14:43:24.0000000+00:00</time></trkpt><trkpt lat="63.96852493" lon="-18.81633949"><ele>593.4</ele><time>2012-07-24T14:43:29.0000000+00:00</time></trkpt><trkpt lat="63.96852493" lon="-18.8162365"><ele>592.7</ele><time>2012-07-24T14:43:34.0000000+00:00</time></trkpt><trkpt lat="63.96850967" lon="-18.81616974"><ele>593.6</ele><time>2012-07-24T14:43:39.0000000+00:00</time></trkpt><trkpt lat="63.96850205" lon="-18.81616402"><ele>593.8</ele><time>2012-07-24T14:43:44.0000000+00:00</time></trkpt><trkpt lat="63.9684906" lon="-18.81611252"><ele>593.9</ele><time>2012-07-24T14:43:49.0000000+00:00</time></trkpt><trkpt lat="63.96845627" lon="-18.81602287"><ele>593.3</ele><time>2012-07-24T14:43:54.0000000+00:00</time></trkpt><trkpt lat="63.96842575" lon="-18.81595612"><ele>594.8</ele><time>2012-07-24T14:43:59.0000000+00:00</time></trkpt><trkpt lat="63.96839142" lon="-18.81595612"><ele>595.1</ele><time>2012-07-24T14:44:04.0000000+00:00</time></trkpt><trkpt lat="63.96836853" lon="-18.81591415"><ele>594.5</ele><time>2012-07-24T14:44:09.0000000+00:00</time></trkpt><trkpt lat="63.96836472" lon="-18.81592369"><ele>594.0</ele><time>2012-07-24T14:44:14.0000000+00:00</time></trkpt><trkpt lat="63.96836472" lon="-18.81587029"><ele>592.1</ele><time>2012-07-24T14:44:19.0000000+00:00</time></trkpt><trkpt lat="63.96836472" lon="-18.81576729"><ele>591.5</ele><time>2012-07-24T14:44:24.0000000+00:00</time></trkpt><trkpt lat="63.96837235" lon="-18.81573677"><ele>591.6</ele><time>2012-07-24T14:44:29.0000000+00:00</time></trkpt><trkpt lat="63.96835709" lon="-18.81564903"><ele>591.4</ele><time>2012-07-24T14:44:34.0000000+00:00</time></trkpt><trkpt lat="63.96839523" lon="-18.81552315"><ele>590.7</ele><time>2012-07-24T14:44:39.0000000+00:00</time></trkpt><trkpt lat="63.96841812" lon="-18.81542015"><ele>590.1</ele><time>2012-07-24T14:44:44.0000000+00:00</time></trkpt><trkpt lat="63.96842575" lon="-18.81529617"><ele>589.3</ele><time>2012-07-24T14:44:49.0000000+00:00</time></trkpt><trkpt lat="63.96844482" lon="-18.81516838"><ele>589.1</ele><time>2012-07-24T14:44:54.0000000+00:00</time></trkpt><trkpt lat="63.96844864" lon="-18.81505585"><ele>588.9</ele><time>2012-07-24T14:44:59.0000000+00:00</time></trkpt><trkpt lat="63.96846771" lon="-18.81493187"><ele>588.5</ele><time>2012-07-24T14:45:04.0000000+00:00</time></trkpt><trkpt lat="63.96848297" lon="-18.81481171"><ele>588.2</ele><time>2012-07-24T14:45:09.0000000+00:00</time></trkpt><trkpt lat="63.9684906" lon="-18.81468773"><ele>588.0</ele><time>2012-07-24T14:45:14.0000000+00:00</time></trkpt><trkpt lat="63.96850967" lon="-18.81455994"><ele>588.7</ele><time>2012-07-24T14:45:19.0000000+00:00</time></trkpt><trkpt lat="63.96852875" lon="-18.81441689"><ele>588.3</ele><time>2012-07-24T14:45:24.0000000+00:00</time></trkpt><trkpt lat="63.96854782" lon="-18.81430244"><ele>588.4</ele><time>2012-07-24T14:45:29.0000000+00:00</time></trkpt><trkpt lat="63.96854019" lon="-18.8142128"><ele>587.8</ele><time>2012-07-24T14:45:34.0000000+00:00</time></trkpt><trkpt lat="63.96857071" lon="-18.81411171"><ele>588.2</ele><time>2012-07-24T14:45:39.0000000+00:00</time></trkpt><trkpt lat="63.96858597" lon="-18.81406784"><ele>587.6</ele><time>2012-07-24T14:45:44.0000000+00:00</time></trkpt><trkpt lat="63.96858597" lon="-18.81407547"><ele>587.6</ele><time>2012-07-24T14:45:49.0000000+00:00</time></trkpt><trkpt lat="63.96858597" lon="-18.81407166"><ele>587.6</ele><time>2012-07-24T14:45:54.0000000+00:00</time></trkpt><trkpt lat="63.96857834" lon="-18.81406593"><ele>587.6</ele><time>2012-07-24T14:45:59.0000000+00:00</time></trkpt><trkpt lat="63.96857834" lon="-18.81407166"><ele>587.6</ele><time>2012-07-24T14:46:04.0000000+00:00</time></trkpt><trkpt lat="63.96857834" lon="-18.81406975"><ele>587.6</ele><time>2012-07-24T14:46:09.0000000+00:00</time></trkpt><trkpt lat="63.96858215" lon="-18.81407547"><ele>587.6</ele><time>2012-07-24T14:46:14.0000000+00:00</time></trkpt><trkpt lat="63.96858215" lon="-18.8140831"><ele>587.6</ele><time>2012-07-24T14:46:19.0000000+00:00</time></trkpt><trkpt lat="63.96858978" lon="-18.81409454"><ele>587.7</ele><time>2012-07-24T14:46:24.0000000+00:00</time></trkpt><trkpt lat="63.96858978" lon="-18.81409454"><ele>587.7</ele><time>2012-07-24T14:46:29.0000000+00:00</time></trkpt><trkpt lat="63.9685936" lon="-18.81408882"><ele>587.7</ele><time>2012-07-24T14:46:34.0000000+00:00</time></trkpt><trkpt lat="63.96859741" lon="-18.81409645"><ele>587.8</ele><time>2012-07-24T14:46:39.0000000+00:00</time></trkpt><trkpt lat="63.96860504" lon="-18.81409836"><ele>587.8</ele><time>2012-07-24T14:46:44.0000000+00:00</time></trkpt><trkpt lat="63.96860504" lon="-18.81409836"><ele>587.8</ele><time>2012-07-24T14:46:49.0000000+00:00</time></trkpt><trkpt lat="63.96860886" lon="-18.81410599"><ele>587.8</ele><time>2012-07-24T14:46:54.0000000+00:00</time></trkpt><trkpt lat="63.96860504" lon="-18.81410408"><ele>587.8</ele><time>2012-07-24T14:46:59.0000000+00:00</time></trkpt><trkpt lat="63.96860123" lon="-18.81409645"><ele>587.8</ele><time>2012-07-24T14:47:04.0000000+00:00</time></trkpt><trkpt lat="63.96860123" lon="-18.81409073"><ele>587.8</ele><time>2012-07-24T14:47:09.0000000+00:00</time></trkpt><trkpt lat="63.96860123" lon="-18.81407356"><ele>587.8</ele><time>2012-07-24T14:47:14.0000000+00:00</time></trkpt><trkpt lat="63.96859741" lon="-18.81407738"><ele>587.8</ele><time>2012-07-24T14:47:19.0000000+00:00</time></trkpt><trkpt lat="63.9685936" lon="-18.81407166"><ele>587.8</ele><time>2012-07-24T14:47:24.0000000+00:00</time></trkpt><trkpt lat="63.96858597" lon="-18.81406593"><ele>587.8</ele><time>2012-07-24T14:47:29.0000000+00:00</time></trkpt><trkpt lat="63.96858215" lon="-18.81406021"><ele>587.8</ele><time>2012-07-24T14:47:34.0000000+00:00</time></trkpt><trkpt lat="63.96858215" lon="-18.81404877"><ele>587.8</ele><time>2012-07-24T14:47:39.0000000+00:00</time></trkpt><trkpt lat="63.96858597" lon="-18.81404877"><ele>587.8</ele><time>2012-07-24T14:47:44.0000000+00:00</time></trkpt><trkpt lat="63.96858978" lon="-18.81404114"><ele>587.8</ele><time>2012-07-24T14:47:49.0000000+00:00</time></trkpt><trkpt lat="63.96858215" lon="-18.81402588"><ele>587.8</ele><time>2012-07-24T14:47:54.0000000+00:00</time></trkpt><trkpt lat="63.96857834" lon="-18.81402588"><ele>587.7</ele><time>2012-07-24T14:47:59.0000000+00:00</time></trkpt><trkpt lat="63.96857452" lon="-18.81402779"><ele>587.7</ele><time>2012-07-24T14:48:04.0000000+00:00</time></trkpt><trkpt lat="63.9685669" lon="-18.8140316"><ele>587.7</ele><time>2012-07-24T14:48:09.0000000+00:00</time></trkpt><trkpt lat="63.9685669" lon="-18.8140316"><ele>587.7</ele><time>2012-07-24T14:48:14.0000000+00:00</time></trkpt><trkpt lat="63.96856308" lon="-18.81402969"><ele>587.7</ele><time>2012-07-24T14:48:19.0000000+00:00</time></trkpt><trkpt lat="63.9685669" lon="-18.81403351"><ele>587.6</ele><time>2012-07-24T14:48:24.0000000+00:00</time></trkpt><trkpt lat="63.96857071" lon="-18.81403923"><ele>587.6</ele><time>2012-07-24T14:48:29.0000000+00:00</time></trkpt><trkpt lat="63.96857452" lon="-18.81404305"><ele>587.6</ele><time>2012-07-24T14:48:34.0000000+00:00</time></trkpt><trkpt lat="63.9685669" lon="-18.81405258"><ele>587.6</ele><time>2012-07-24T14:48:39.0000000+00:00</time></trkpt><trkpt lat="63.9685669" lon="-18.81406403"><ele>587.6</ele><time>2012-07-24T14:48:44.0000000+00:00</time></trkpt><trkpt lat="63.96857071" lon="-18.81406975"><ele>587.5</ele><time>2012-07-24T14:48:49.0000000+00:00</time></trkpt><trkpt lat="63.96857452" lon="-18.8140831"><ele>587.5</ele><time>2012-07-24T14:48:54.0000000+00:00</time></trkpt><trkpt lat="63.96857071" lon="-18.81408501"><ele>587.5</ele><time>2012-07-24T14:48:59.0000000+00:00</time></trkpt><trkpt lat="63.9685669" lon="-18.81408119"><ele>587.5</ele><time>2012-07-24T14:49:04.0000000+00:00</time></trkpt><trkpt lat="63.96856308" lon="-18.81408119"><ele>587.5</ele><time>2012-07-24T14:49:09.0000000+00:00</time></trkpt><trkpt lat="63.9685669" lon="-18.81408691"><ele>587.4</ele><time>2012-07-24T14:49:14.0000000+00:00</time></trkpt><trkpt lat="63.9685669" lon="-18.81409645"><ele>587.5</ele><time>2012-07-24T14:49:19.0000000+00:00</time></trkpt><trkpt lat="63.9685669" lon="-18.81409454"><ele>587.4</ele><time>2012-07-24T14:49:24.0000000+00:00</time></trkpt><trkpt lat="63.9685669" lon="-18.81409264"><ele>587.3</ele><time>2012-07-24T14:49:29.0000000+00:00</time></trkpt><trkpt lat="63.9685669" lon="-18.81409264"><ele>587.2</ele><time>2012-07-24T14:49:34.0000000+00:00</time></trkpt><trkpt lat="63.9685669" lon="-18.81409454"><ele>587.1</ele><time>2012-07-24T14:49:39.0000000+00:00</time></trkpt><trkpt lat="63.9685669" lon="-18.81409264"><ele>587.1</ele><time>2012-07-24T14:49:44.0000000+00:00</time></trkpt><trkpt lat="63.9685669" lon="-18.81409264"><ele>587.1</ele><time>2012-07-24T14:49:49.0000000+00:00</time></trkpt><trkpt lat="63.9685669" lon="-18.81409264"><ele>587.0</ele><time>2012-07-24T14:49:54.0000000+00:00</time></trkpt><trkpt lat="63.9685669" lon="-18.81409264"><ele>587.0</ele><time>2012-07-24T14:49:59.0000000+00:00</time></trkpt><trkpt lat="63.9685669" lon="-18.81409264"><ele>587.1</ele><time>2012-07-24T14:50:04.0000000+00:00</time></trkpt><trkpt lat="63.96857071" lon="-18.81408501"><ele>587.0</ele><time>2012-07-24T14:50:09.0000000+00:00</time></trkpt><trkpt lat="63.96857071" lon="-18.81407738"><ele>587.0</ele><time>2012-07-24T14:50:14.0000000+00:00</time></trkpt><trkpt lat="63.96857071" lon="-18.81407738"><ele>587.0</ele><time>2012-07-24T14:50:19.0000000+00:00</time></trkpt><trkpt lat="63.96857071" lon="-18.81407738"><ele>586.9</ele><time>2012-07-24T14:50:24.0000000+00:00</time></trkpt><trkpt lat="63.96857071" lon="-18.81407738"><ele>586.9</ele><time>2012-07-24T14:50:29.0000000+00:00</time></trkpt><trkpt lat="63.96857071" lon="-18.81406784"><ele>586.8</ele><time>2012-07-24T14:50:34.0000000+00:00</time></trkpt><trkpt lat="63.96857834" lon="-18.81405449"><ele>586.9</ele><time>2012-07-24T14:50:39.0000000+00:00</time></trkpt><trkpt lat="63.9686203" lon="-18.81393242"><ele>586.0</ele><time>2012-07-24T14:50:44.0000000+00:00</time></trkpt><trkpt lat="63.96866226" lon="-18.81373787"><ele>586.3</ele><time>2012-07-24T14:50:49.0000000+00:00</time></trkpt><trkpt lat="63.96871567" lon="-18.81352043"><ele>586.6</ele><time>2012-07-24T14:50:54.0000000+00:00</time></trkpt><trkpt lat="63.96876526" lon="-18.81327629"><ele>587.5</ele><time>2012-07-24T14:50:59.0000000+00:00</time></trkpt><trkpt lat="63.96883011" lon="-18.81301117"><ele>587.4</ele><time>2012-07-24T14:51:04.0000000+00:00</time></trkpt><trkpt lat="63.96889877" lon="-18.81274986"><ele>587.5</ele><time>2012-07-24T14:51:09.0000000+00:00</time></trkpt><trkpt lat="63.96896744" lon="-18.81246376"><ele>587.7</ele><time>2012-07-24T14:51:14.0000000+00:00</time></trkpt><trkpt lat="63.96904755" lon="-18.81215096"><ele>588.3</ele><time>2012-07-24T14:51:19.0000000+00:00</time></trkpt><trkpt lat="63.96912003" lon="-18.81181526"><ele>588.5</ele><time>2012-07-24T14:51:24.0000000+00:00</time></trkpt><trkpt lat="63.96919251" lon="-18.81147385"><ele>588.7</ele><time>2012-07-24T14:51:29.0000000+00:00</time></trkpt><trkpt lat="63.96927643" lon="-18.81113625"><ele>589.1</ele><time>2012-07-24T14:51:34.0000000+00:00</time></trkpt><trkpt lat="63.96936035" lon="-18.81078911"><ele>589.0</ele><time>2012-07-24T14:51:39.0000000+00:00</time></trkpt><trkpt lat="63.96947479" lon="-18.81050491"><ele>589.1</ele><time>2012-07-24T14:51:44.0000000+00:00</time></trkpt><trkpt lat="63.96957779" lon="-18.81029892"><ele>589.7</ele><time>2012-07-24T14:51:49.0000000+00:00</time></trkpt><trkpt lat="63.9696846" lon="-18.8100071"><ele>589.2</ele><time>2012-07-24T14:51:54.0000000+00:00</time></trkpt><trkpt lat="63.96981049" lon="-18.80973625"><ele>589.1</ele><time>2012-07-24T14:51:59.0000000+00:00</time></trkpt><trkpt lat="63.96993637" lon="-18.8094883"><ele>589.5</ele><time>2012-07-24T14:52:04.0000000+00:00</time></trkpt><trkpt lat="63.97004318" lon="-18.80928993"><ele>589.1</ele><time>2012-07-24T14:52:09.0000000+00:00</time></trkpt><trkpt lat="63.97015762" lon="-18.80909348"><ele>590.0</ele><time>2012-07-24T14:52:14.0000000+00:00</time></trkpt><trkpt lat="63.97026825" lon="-18.80891419"><ele>589.8</ele><time>2012-07-24T14:52:19.0000000+00:00</time></trkpt><trkpt lat="63.97036362" lon="-18.80872917"><ele>590.4</ele><time>2012-07-24T14:52:24.0000000+00:00</time></trkpt><trkpt lat="63.97042084" lon="-18.80857086"><ele>590.4</ele><time>2012-07-24T14:52:29.0000000+00:00</time></trkpt><trkpt lat="63.97045136" lon="-18.80839348"><ele>591.7</ele><time>2012-07-24T14:52:34.0000000+00:00</time></trkpt><trkpt lat="63.97045136" lon="-18.8082161"><ele>593.3</ele><time>2012-07-24T14:52:39.0000000+00:00</time></trkpt><trkpt lat="63.97041321" lon="-18.80800247"><ele>595.1</ele><time>2012-07-24T14:52:44.0000000+00:00</time></trkpt><trkpt lat="63.97040176" lon="-18.8078537"><ele>595.1</ele><time>2012-07-24T14:52:49.0000000+00:00</time></trkpt><trkpt lat="63.9703598" lon="-18.80771065"><ele>595.2</ele><time>2012-07-24T14:52:54.0000000+00:00</time></trkpt><trkpt lat="63.97032547" lon="-18.80758286"><ele>594.5</ele><time>2012-07-24T14:52:59.0000000+00:00</time></trkpt><trkpt lat="63.97029495" lon="-18.8074398"><ele>594.3</ele><time>2012-07-24T14:53:04.0000000+00:00</time></trkpt><trkpt lat="63.97027588" lon="-18.80727577"><ele>594.1</ele><time>2012-07-24T14:53:09.0000000+00:00</time></trkpt><trkpt lat="63.97025299" lon="-18.80709648"><ele>593.8</ele><time>2012-07-24T14:53:14.0000000+00:00</time></trkpt><trkpt lat="63.9702301" lon="-18.80690384"><ele>593.8</ele><time>2012-07-24T14:53:19.0000000+00:00</time></trkpt><trkpt lat="63.97019959" lon="-18.80665016"><ele>591.6</ele><time>2012-07-24T14:53:24.0000000+00:00</time></trkpt><trkpt lat="63.97018433" lon="-18.80636597"><ele>592.2</ele><time>2012-07-24T14:53:29.0000000+00:00</time></trkpt><trkpt lat="63.97016144" lon="-18.80608749"><ele>592.4</ele><time>2012-07-24T14:53:34.0000000+00:00</time></trkpt><trkpt lat="63.97014618" lon="-18.80586624"><ele>591.8</ele><time>2012-07-24T14:53:39.0000000+00:00</time></trkpt><trkpt lat="63.97013092" lon="-18.80563927"><ele>592.9</ele><time>2012-07-24T14:53:44.0000000+00:00</time></trkpt><trkpt lat="63.97012329" lon="-18.80540657"><ele>594.1</ele><time>2012-07-24T14:53:49.0000000+00:00</time></trkpt><trkpt lat="63.97014237" lon="-18.80518913"><ele>595.2</ele><time>2012-07-24T14:53:54.0000000+00:00</time></trkpt><trkpt lat="63.97015381" lon="-18.8049717"><ele>595.7</ele><time>2012-07-24T14:53:59.0000000+00:00</time></trkpt><trkpt lat="63.97015762" lon="-18.80477905"><ele>596.9</ele><time>2012-07-24T14:54:04.0000000+00:00</time></trkpt><trkpt lat="63.97016907" lon="-18.80454063"><ele>597.4</ele><time>2012-07-24T14:54:09.0000000+00:00</time></trkpt><trkpt lat="63.97018814" lon="-18.80429459"><ele>598.4</ele><time>2012-07-24T14:54:14.0000000+00:00</time></trkpt><trkpt lat="63.97019577" lon="-18.80405235"><ele>600.1</ele><time>2012-07-24T14:54:19.0000000+00:00</time></trkpt><trkpt lat="63.97019577" lon="-18.80378914"><ele>597.7</ele><time>2012-07-24T14:54:24.0000000+00:00</time></trkpt><trkpt lat="63.97021103" lon="-18.80352211"><ele>599.3</ele><time>2012-07-24T14:54:29.0000000+00:00</time></trkpt><trkpt lat="63.97022247" lon="-18.8032856"><ele>601.6</ele><time>2012-07-24T14:54:34.0000000+00:00</time></trkpt><trkpt lat="63.9702301" lon="-18.8030777"><ele>603.0</ele><time>2012-07-24T14:54:39.0000000+00:00</time></trkpt><trkpt lat="63.97024155" lon="-18.80286408"><ele>604.9</ele><time>2012-07-24T14:54:44.0000000+00:00</time></trkpt><trkpt lat="63.97026825" lon="-18.80262566"><ele>605.8</ele><time>2012-07-24T14:54:49.0000000+00:00</time></trkpt><trkpt lat="63.9703064" lon="-18.80237198"><ele>606.5</ele><time>2012-07-24T14:54:54.0000000+00:00</time></trkpt><trkpt lat="63.97037506" lon="-18.80207825"><ele>604.4</ele><time>2012-07-24T14:54:59.0000000+00:00</time></trkpt><trkpt lat="63.97051239" lon="-18.80175018"><ele>602.6</ele><time>2012-07-24T14:55:04.0000000+00:00</time></trkpt><trkpt lat="63.97063828" lon="-18.80138969"><ele>599.4</ele><time>2012-07-24T14:55:09.0000000+00:00</time></trkpt><trkpt lat="63.97072601" lon="-18.80082321"><ele>598.1</ele><time>2012-07-24T14:55:14.0000000+00:00</time></trkpt><trkpt lat="63.97079468" lon="-18.80042839"><ele>599.8</ele><time>2012-07-24T14:55:19.0000000+00:00</time></trkpt><trkpt lat="63.97087097" lon="-18.80011177"><ele>600.1</ele><time>2012-07-24T14:55:24.0000000+00:00</time></trkpt><trkpt lat="63.9709549" lon="-18.79986382"><ele>601.3</ele><time>2012-07-24T14:55:29.0000000+00:00</time></trkpt><trkpt lat="63.97102356" lon="-18.79961205"><ele>600.1</ele><time>2012-07-24T14:55:34.0000000+00:00</time></trkpt><trkpt lat="63.97109222" lon="-18.79934692"><ele>599.5</ele><time>2012-07-24T14:55:39.0000000+00:00</time></trkpt><trkpt lat="63.97116089" lon="-18.79910469"><ele>600.3</ele><time>2012-07-24T14:55:44.0000000+00:00</time></trkpt><trkpt lat="63.97123718" lon="-18.79883003"><ele>599.2</ele><time>2012-07-24T14:55:49.0000000+00:00</time></trkpt><trkpt lat="63.97130966" lon="-18.79855347"><ele>600.1</ele><time>2012-07-24T14:55:54.0000000+00:00</time></trkpt><trkpt lat="63.97139359" lon="-18.79834938"><ele>598.8</ele><time>2012-07-24T14:55:59.0000000+00:00</time></trkpt><trkpt lat="63.97149277" lon="-18.79813957"><ele>596.5</ele><time>2012-07-24T14:56:04.0000000+00:00</time></trkpt><trkpt lat="63.97163773" lon="-18.79797173"><ele>591.0</ele><time>2012-07-24T14:56:09.0000000+00:00</time></trkpt><trkpt lat="63.97178268" lon="-18.79780769"><ele>586.9</ele><time>2012-07-24T14:56:14.0000000+00:00</time></trkpt><trkpt lat="63.97195816" lon="-18.7975769"><ele>584.8</ele><time>2012-07-24T14:56:19.0000000+00:00</time></trkpt><trkpt lat="63.97198105" lon="-18.79753113"><ele>586.8</ele><time>2012-07-24T14:56:24.0000000+00:00</time></trkpt><trkpt lat="63.97198868" lon="-18.79752541"><ele>586.7</ele><time>2012-07-24T14:56:29.0000000+00:00</time></trkpt><trkpt lat="63.97199249" lon="-18.7975235"><ele>586.5</ele><time>2012-07-24T14:56:34.0000000+00:00</time></trkpt><trkpt lat="63.97198868" lon="-18.79752731"><ele>586.5</ele><time>2012-07-24T14:56:39.0000000+00:00</time></trkpt><trkpt lat="63.97198868" lon="-18.79752541"><ele>586.4</ele><time>2012-07-24T14:56:44.0000000+00:00</time></trkpt><trkpt lat="63.97198868" lon="-18.79752541"><ele>586.4</ele><time>2012-07-24T14:56:49.0000000+00:00</time></trkpt><trkpt lat="63.97198868" lon="-18.7975235"><ele>586.4</ele><time>2012-07-24T14:56:54.0000000+00:00</time></trkpt><trkpt lat="63.97198868" lon="-18.79752541"><ele>586.4</ele><time>2012-07-24T14:56:59.0000000+00:00</time></trkpt><trkpt lat="63.97198868" lon="-18.79752541"><ele>586.4</ele><time>2012-07-24T14:57:04.0000000+00:00</time></trkpt><trkpt lat="63.97203064" lon="-18.79738808"><ele>586.7</ele><time>2012-07-24T14:57:09.0000000+00:00</time></trkpt><trkpt lat="63.97213364" lon="-18.79711151"><ele>585.2</ele><time>2012-07-24T14:57:14.0000000+00:00</time></trkpt><trkpt lat="63.97222138" lon="-18.79680061"><ele>583.9</ele><time>2012-07-24T14:57:19.0000000+00:00</time></trkpt><trkpt lat="63.9723053" lon="-18.79646492"><ele>583.1</ele><time>2012-07-24T14:57:24.0000000+00:00</time></trkpt><trkpt lat="63.97236633" lon="-18.79616928"><ele>585.2</ele><time>2012-07-24T14:57:29.0000000+00:00</time></trkpt><trkpt lat="63.97236633" lon="-18.79612923"><ele>586.1</ele><time>2012-07-24T14:57:34.0000000+00:00</time></trkpt><trkpt lat="63.97236633" lon="-18.79612923"><ele>586.2</ele><time>2012-07-24T14:57:39.0000000+00:00</time></trkpt><trkpt lat="63.97236633" lon="-18.79612732"><ele>586.1</ele><time>2012-07-24T14:57:44.0000000+00:00</time></trkpt><trkpt lat="63.97237015" lon="-18.79612541"><ele>586.2</ele><time>2012-07-24T14:57:49.0000000+00:00</time></trkpt><trkpt lat="63.97241592" lon="-18.79592514"><ele>585.6</ele><time>2012-07-24T14:57:54.0000000+00:00</time></trkpt><trkpt lat="63.9724617" lon="-18.79561806"><ele>585.8</ele><time>2012-07-24T14:57:59.0000000+00:00</time></trkpt><trkpt lat="63.97253037" lon="-18.79527473"><ele>586.1</ele><time>2012-07-24T14:58:04.0000000+00:00</time></trkpt><trkpt lat="63.97256088" lon="-18.79493904"><ele>586.4</ele><time>2012-07-24T14:58:09.0000000+00:00</time></trkpt><trkpt lat="63.9726181" lon="-18.79457092"><ele>588.7</ele><time>2012-07-24T14:58:14.0000000+00:00</time></trkpt><trkpt lat="63.97264862" lon="-18.79423523"><ele>588.2</ele><time>2012-07-24T14:58:19.0000000+00:00</time></trkpt><trkpt lat="63.9726944" lon="-18.7940197"><ele>589.8</ele><time>2012-07-24T14:58:24.0000000+00:00</time></trkpt><trkpt lat="63.97275925" lon="-18.79384041"><ele>588.2</ele><time>2012-07-24T14:58:29.0000000+00:00</time></trkpt><trkpt lat="63.97284699" lon="-18.79358101"><ele>587.7</ele><time>2012-07-24T14:58:34.0000000+00:00</time></trkpt><trkpt lat="63.97294235" lon="-18.79336548"><ele>588.7</ele><time>2012-07-24T14:58:39.0000000+00:00</time></trkpt><trkpt lat="63.97301865" lon="-18.79323006"><ele>590.5</ele><time>2012-07-24T14:58:44.0000000+00:00</time></trkpt><trkpt lat="63.97314072" lon="-18.79319"><ele>591.2</ele><time>2012-07-24T14:58:49.0000000+00:00</time></trkpt><trkpt lat="63.97318268" lon="-18.79301453"><ele>592.1</ele><time>2012-07-24T14:58:54.0000000+00:00</time></trkpt><trkpt lat="63.97324371" lon="-18.79286385"><ele>594.5</ele><time>2012-07-24T14:58:59.0000000+00:00</time></trkpt><trkpt lat="63.97332764" lon="-18.79274559"><ele>594.8</ele><time>2012-07-24T14:59:04.0000000+00:00</time></trkpt><trkpt lat="63.973423" lon="-18.79263687"><ele>594.9</ele><time>2012-07-24T14:59:09.0000000+00:00</time></trkpt><trkpt lat="63.97349548" lon="-18.79253197"><ele>594.3</ele><time>2012-07-24T14:59:14.0000000+00:00</time></trkpt><trkpt lat="63.97357941" lon="-18.79242516"><ele>594.3</ele><time>2012-07-24T14:59:19.0000000+00:00</time></trkpt><trkpt lat="63.97364426" lon="-18.79228973"><ele>592.4</ele><time>2012-07-24T14:59:24.0000000+00:00</time></trkpt><trkpt lat="63.97372818" lon="-18.79214859"><ele>590.1</ele><time>2012-07-24T14:59:29.0000000+00:00</time></trkpt><trkpt lat="63.97382355" lon="-18.7919941"><ele>591.7</ele><time>2012-07-24T14:59:34.0000000+00:00</time></trkpt><trkpt lat="63.97392654" lon="-18.79181862"><ele>589.7</ele><time>2012-07-24T14:59:39.0000000+00:00</time></trkpt><trkpt lat="63.97402191" lon="-18.7916069"><ele>587.7</ele><time>2012-07-24T14:59:44.0000000+00:00</time></trkpt><trkpt lat="63.97407913" lon="-18.7913723"><ele>584.5</ele><time>2012-07-24T14:59:49.0000000+00:00</time></trkpt><trkpt lat="63.97414017" lon="-18.79118156"><ele>582.8</ele><time>2012-07-24T14:59:54.0000000+00:00</time></trkpt><trkpt lat="63.97422028" lon="-18.7909832"><ele>579.0</ele><time>2012-07-24T14:59:59.0000000+00:00</time></trkpt><trkpt lat="63.97431564" lon="-18.79074478"><ele>582.2</ele><time>2012-07-24T15:00:04.0000000+00:00</time></trkpt><trkpt lat="63.97439957" lon="-18.79052162"><ele>583.8</ele><time>2012-07-24T15:00:09.0000000+00:00</time></trkpt><trkpt lat="63.97448349" lon="-18.79030037"><ele>583.6</ele><time>2012-07-24T15:00:14.0000000+00:00</time></trkpt><trkpt lat="63.97458267" lon="-18.79008293"><ele>584.6</ele><time>2012-07-24T15:00:19.0000000+00:00</time></trkpt><trkpt lat="63.97464752" lon="-18.7898407"><ele>584.7</ele><time>2012-07-24T15:00:24.0000000+00:00</time></trkpt><trkpt lat="63.97472" lon="-18.78960419"><ele>586.1</ele><time>2012-07-24T15:00:29.0000000+00:00</time></trkpt><trkpt lat="63.97480393" lon="-18.78941155"><ele>586.1</ele><time>2012-07-24T15:00:34.0000000+00:00</time></trkpt><trkpt lat="63.97488022" lon="-18.78917885"><ele>587.6</ele><time>2012-07-24T15:00:39.0000000+00:00</time></trkpt><trkpt lat="63.97493362" lon="-18.78894043"><ele>586.1</ele><time>2012-07-24T15:00:44.0000000+00:00</time></trkpt><trkpt lat="63.97500992" lon="-18.78869438"><ele>587.8</ele><time>2012-07-24T15:00:49.0000000+00:00</time></trkpt><trkpt lat="63.97509384" lon="-18.78847313"><ele>589.7</ele><time>2012-07-24T15:00:54.0000000+00:00</time></trkpt><trkpt lat="63.97517395" lon="-18.7882843"><ele>592.6</ele><time>2012-07-24T15:00:59.0000000+00:00</time></trkpt><trkpt lat="63.97524262" lon="-18.78806877"><ele>593.9</ele><time>2012-07-24T15:01:04.0000000+00:00</time></trkpt><trkpt lat="63.97532272" lon="-18.7878418"><ele>596.4</ele><time>2012-07-24T15:01:09.0000000+00:00</time></trkpt><trkpt lat="63.97535324" lon="-18.78762627"><ele>596.5</ele><time>2012-07-24T15:01:14.0000000+00:00</time></trkpt><trkpt lat="63.97540665" lon="-18.7874527"><ele>596.2</ele><time>2012-07-24T15:01:19.0000000+00:00</time></trkpt><trkpt lat="63.97548294" lon="-18.78727722"><ele>597.4</ele><time>2012-07-24T15:01:24.0000000+00:00</time></trkpt><trkpt lat="63.9755249" lon="-18.78701401"><ele>595.5</ele><time>2012-07-24T15:01:29.0000000+00:00</time></trkpt><trkpt lat="63.97556686" lon="-18.78677368"><ele>595.3</ele><time>2012-07-24T15:01:34.0000000+00:00</time></trkpt><trkpt lat="63.97557831" lon="-18.78656006"><ele>591.4</ele><time>2012-07-24T15:01:39.0000000+00:00</time></trkpt><trkpt lat="63.97560501" lon="-18.78633118"><ele>591.0</ele><time>2012-07-24T15:01:44.0000000+00:00</time></trkpt><trkpt lat="63.97566605" lon="-18.78614616"><ele>592.6</ele><time>2012-07-24T15:01:49.0000000+00:00</time></trkpt><trkpt lat="63.97572327" lon="-18.785923"><ele>595.4</ele><time>2012-07-24T15:01:54.0000000+00:00</time></trkpt><trkpt lat="63.97578812" lon="-18.78566361"><ele>594.3</ele><time>2012-07-24T15:01:59.0000000+00:00</time></trkpt><trkpt lat="63.97584534" lon="-18.78550339"><ele>593.7</ele><time>2012-07-24T15:02:04.0000000+00:00</time></trkpt><trkpt lat="63.97592545" lon="-18.78536034"><ele>594.4</ele><time>2012-07-24T15:02:09.0000000+00:00</time></trkpt><trkpt lat="63.97600555" lon="-18.78522492"><ele>593.7</ele><time>2012-07-24T15:02:14.0000000+00:00</time></trkpt><trkpt lat="63.97609329" lon="-18.78508568"><ele>595.0</ele><time>2012-07-24T15:02:19.0000000+00:00</time></trkpt><trkpt lat="63.97618103" lon="-18.78493118"><ele>597.0</ele><time>2012-07-24T15:02:24.0000000+00:00</time></trkpt><trkpt lat="63.97625732" lon="-18.78470612"><ele>594.6</ele><time>2012-07-24T15:02:29.0000000+00:00</time></trkpt><trkpt lat="63.97635269" lon="-18.78451157"><ele>598.2</ele><time>2012-07-24T15:02:34.0000000+00:00</time></trkpt><trkpt lat="63.9764328" lon="-18.78428841"><ele>597.8</ele><time>2012-07-24T15:02:39.0000000+00:00</time></trkpt><trkpt lat="63.97651291" lon="-18.78405571"><ele>600.7</ele><time>2012-07-24T15:02:44.0000000+00:00</time></trkpt><trkpt lat="63.97657013" lon="-18.78381157"><ele>598.6</ele><time>2012-07-24T15:02:49.0000000+00:00</time></trkpt><trkpt lat="63.97662354" lon="-18.78360939"><ele>599.8</ele><time>2012-07-24T15:02:54.0000000+00:00</time></trkpt><trkpt lat="63.9766922" lon="-18.78337288"><ele>597.8</ele><time>2012-07-24T15:02:59.0000000+00:00</time></trkpt><trkpt lat="63.97673798" lon="-18.78318787"><ele>599.0</ele><time>2012-07-24T15:03:04.0000000+00:00</time></trkpt><trkpt lat="63.97679138" lon="-18.78309631"><ele>600.5</ele><time>2012-07-24T15:03:09.0000000+00:00</time></trkpt><trkpt lat="63.97679901" lon="-18.78309822"><ele>601.6</ele><time>2012-07-24T15:03:14.0000000+00:00</time></trkpt><trkpt lat="63.97679901" lon="-18.78308868"><ele>601.8</ele><time>2012-07-24T15:03:19.0000000+00:00</time></trkpt><trkpt lat="63.97679901" lon="-18.78307343"><ele>602.0</ele><time>2012-07-24T15:03:24.0000000+00:00</time></trkpt><trkpt lat="63.97680283" lon="-18.78306007"><ele>602.1</ele><time>2012-07-24T15:03:29.0000000+00:00</time></trkpt><trkpt lat="63.97681046" lon="-18.78306198"><ele>602.3</ele><time>2012-07-24T15:03:34.0000000+00:00</time></trkpt><trkpt lat="63.97681046" lon="-18.78306007"><ele>602.4</ele><time>2012-07-24T15:03:39.0000000+00:00</time></trkpt><trkpt lat="63.97681427" lon="-18.78305817"><ele>602.5</ele><time>2012-07-24T15:03:44.0000000+00:00</time></trkpt><trkpt lat="63.97681427" lon="-18.78305626"><ele>602.6</ele><time>2012-07-24T15:03:49.0000000+00:00</time></trkpt><trkpt lat="63.97681427" lon="-18.78305626"><ele>602.6</ele><time>2012-07-24T15:03:54.0000000+00:00</time></trkpt><trkpt lat="63.97681427" lon="-18.78305817"><ele>602.6</ele><time>2012-07-24T15:03:59.0000000+00:00</time></trkpt><trkpt lat="63.97681427" lon="-18.78305817"><ele>602.6</ele><time>2012-07-24T15:04:04.0000000+00:00</time></trkpt><trkpt lat="63.97681427" lon="-18.78306007"><ele>602.6</ele><time>2012-07-24T15:04:09.0000000+00:00</time></trkpt><trkpt lat="63.97681427" lon="-18.78306007"><ele>602.6</ele><time>2012-07-24T15:04:14.0000000+00:00</time></trkpt><trkpt lat="63.97681427" lon="-18.78306007"><ele>602.5</ele><time>2012-07-24T15:04:19.0000000+00:00</time></trkpt><trkpt lat="63.97681046" lon="-18.78305626"><ele>602.4</ele><time>2012-07-24T15:04:24.0000000+00:00</time></trkpt><trkpt lat="63.97680664" lon="-18.78304863"><ele>602.3</ele><time>2012-07-24T15:04:29.0000000+00:00</time></trkpt><trkpt lat="63.97680664" lon="-18.78304291"><ele>602.1</ele><time>2012-07-24T15:04:34.0000000+00:00</time></trkpt><trkpt lat="63.97680283" lon="-18.78303337"><ele>602.0</ele><time>2012-07-24T15:04:39.0000000+00:00</time></trkpt><trkpt lat="63.97679901" lon="-18.78302574"><ele>602.0</ele><time>2012-07-24T15:04:44.0000000+00:00</time></trkpt><trkpt lat="63.9767952" lon="-18.78302383"><ele>602.0</ele><time>2012-07-24T15:04:49.0000000+00:00</time></trkpt><trkpt lat="63.9767952" lon="-18.78302383"><ele>602.0</ele><time>2012-07-24T15:04:54.0000000+00:00</time></trkpt><trkpt lat="63.97679901" lon="-18.78302765"><ele>602.1</ele><time>2012-07-24T15:04:59.0000000+00:00</time></trkpt><trkpt lat="63.97679901" lon="-18.78303337"><ele>602.1</ele><time>2012-07-24T15:05:04.0000000+00:00</time></trkpt><trkpt lat="63.97680283" lon="-18.78303909"><ele>602.1</ele><time>2012-07-24T15:05:09.0000000+00:00</time></trkpt><trkpt lat="63.97680283" lon="-18.78304482"><ele>602.1</ele><time>2012-07-24T15:05:14.0000000+00:00</time></trkpt><trkpt lat="63.97680283" lon="-18.78304863"><ele>602.2</ele><time>2012-07-24T15:05:19.0000000+00:00</time></trkpt><trkpt lat="63.97680283" lon="-18.78305054"><ele>602.1</ele><time>2012-07-24T15:05:24.0000000+00:00</time></trkpt><trkpt lat="63.97679901" lon="-18.78305244"><ele>602.1</ele><time>2012-07-24T15:05:29.0000000+00:00</time></trkpt><trkpt lat="63.97679901" lon="-18.78305626"><ele>602.0</ele><time>2012-07-24T15:05:34.0000000+00:00</time></trkpt><trkpt lat="63.97679901" lon="-18.78306389"><ele>601.8</ele><time>2012-07-24T15:05:39.0000000+00:00</time></trkpt><trkpt lat="63.97680283" lon="-18.7830658"><ele>601.5</ele><time>2012-07-24T15:05:44.0000000+00:00</time></trkpt><trkpt lat="63.97680283" lon="-18.78306389"><ele>601.2</ele><time>2012-07-24T15:05:49.0000000+00:00</time></trkpt><trkpt lat="63.97679901" lon="-18.78306198"><ele>600.7</ele><time>2012-07-24T15:05:54.0000000+00:00</time></trkpt><trkpt lat="63.97679901" lon="-18.78305817"><ele>599.8</ele><time>2012-07-24T15:05:59.0000000+00:00</time></trkpt><trkpt lat="63.97679901" lon="-18.78304863"><ele>597.9</ele><time>2012-07-24T15:06:04.0000000+00:00</time></trkpt><trkpt lat="63.9767952" lon="-18.783041"><ele>596.0</ele><time>2012-07-24T15:06:09.0000000+00:00</time></trkpt><trkpt lat="63.9767952" lon="-18.78303146"><ele>594.1</ele><time>2012-07-24T15:06:14.0000000+00:00</time></trkpt><trkpt lat="63.97679138" lon="-18.78302002"><ele>592.2</ele><time>2012-07-24T15:06:19.0000000+00:00</time></trkpt><trkpt lat="63.97678757" lon="-18.78300858"><ele>590.3</ele><time>2012-07-24T15:06:24.0000000+00:00</time></trkpt><trkpt lat="63.97678375" lon="-18.78299332"><ele>588.4</ele><time>2012-07-24T15:06:29.0000000+00:00</time></trkpt><trkpt lat="63.97677994" lon="-18.78297997"><ele>586.5</ele><time>2012-07-24T15:06:34.0000000+00:00</time></trkpt><trkpt lat="63.97677994" lon="-18.78297043"><ele>584.6</ele><time>2012-07-24T15:06:39.0000000+00:00</time></trkpt><trkpt lat="63.97677612" lon="-18.78296471"><ele>582.7</ele><time>2012-07-24T15:06:44.0000000+00:00</time></trkpt><trkpt lat="63.97677612" lon="-18.78295898"><ele>580.8</ele><time>2012-07-24T15:06:49.0000000+00:00</time></trkpt><trkpt lat="63.97677612" lon="-18.78295708"><ele>579.1</ele><time>2012-07-24T15:06:54.0000000+00:00</time></trkpt><trkpt lat="63.97677612" lon="-18.78295517"><ele>577.5</ele><time>2012-07-24T15:06:59.0000000+00:00</time></trkpt><trkpt lat="63.97677612" lon="-18.78295326"><ele>576.0</ele><time>2012-07-24T15:07:04.0000000+00:00</time></trkpt><trkpt lat="63.97677612" lon="-18.78294945"><ele>574.8</ele><time>2012-07-24T15:07:09.0000000+00:00</time></trkpt><trkpt lat="63.97677612" lon="-18.78294373"><ele>573.6</ele><time>2012-07-24T15:07:14.0000000+00:00</time></trkpt><trkpt lat="63.97677231" lon="-18.782938"><ele>572.6</ele><time>2012-07-24T15:07:19.0000000+00:00</time></trkpt><trkpt lat="63.97677231" lon="-18.782938"><ele>571.8</ele><time>2012-07-24T15:07:24.0000000+00:00</time></trkpt><trkpt lat="63.97677612" lon="-18.78294182"><ele>571.1</ele><time>2012-07-24T15:07:29.0000000+00:00</time></trkpt><trkpt lat="63.97677994" lon="-18.78295136"><ele>570.5</ele><time>2012-07-24T15:07:34.0000000+00:00</time></trkpt><trkpt lat="63.97677994" lon="-18.78295708"><ele>569.9</ele><time>2012-07-24T15:07:39.0000000+00:00</time></trkpt><trkpt lat="63.97678375" lon="-18.78296471"><ele>569.4</ele><time>2012-07-24T15:07:44.0000000+00:00</time></trkpt><trkpt lat="63.97678375" lon="-18.78297043"><ele>569.1</ele><time>2012-07-24T15:07:49.0000000+00:00</time></trkpt><trkpt lat="63.97678375" lon="-18.78297234"><ele>568.9</ele><time>2012-07-24T15:07:54.0000000+00:00</time></trkpt><trkpt lat="63.97678375" lon="-18.78297424"><ele>568.9</ele><time>2012-07-24T15:07:59.0000000+00:00</time></trkpt><trkpt lat="63.97677994" lon="-18.78297424"><ele>568.9</ele><time>2012-07-24T15:08:04.0000000+00:00</time></trkpt><trkpt lat="63.97677994" lon="-18.78297424"><ele>569.0</ele><time>2012-07-24T15:08:09.0000000+00:00</time></trkpt><trkpt lat="63.97678375" lon="-18.78297997"><ele>569.1</ele><time>2012-07-24T15:08:14.0000000+00:00</time></trkpt><trkpt lat="63.97678375" lon="-18.78298378"><ele>569.1</ele><time>2012-07-24T15:08:19.0000000+00:00</time></trkpt><trkpt lat="63.97678375" lon="-18.78298569"><ele>569.2</ele><time>2012-07-24T15:08:24.0000000+00:00</time></trkpt><trkpt lat="63.97678375" lon="-18.78298569"><ele>569.3</ele><time>2012-07-24T15:08:29.0000000+00:00</time></trkpt><trkpt lat="63.97678375" lon="-18.7829876"><ele>569.3</ele><time>2012-07-24T15:08:34.0000000+00:00</time></trkpt><trkpt lat="63.97678375" lon="-18.7829876"><ele>569.4</ele><time>2012-07-24T15:08:39.0000000+00:00</time></trkpt><trkpt lat="63.97678375" lon="-18.7829876"><ele>569.5</ele><time>2012-07-24T15:08:44.0000000+00:00</time></trkpt><trkpt lat="63.97678757" lon="-18.7829895"><ele>569.5</ele><time>2012-07-24T15:08:49.0000000+00:00</time></trkpt><trkpt lat="63.97678757" lon="-18.7829895"><ele>569.5</ele><time>2012-07-24T15:08:54.0000000+00:00</time></trkpt><trkpt lat="63.97678375" lon="-18.7829895"><ele>569.6</ele><time>2012-07-24T15:08:59.0000000+00:00</time></trkpt><trkpt lat="63.97678375" lon="-18.7829895"><ele>569.6</ele><time>2012-07-24T15:09:04.0000000+00:00</time></trkpt><trkpt lat="63.97678375" lon="-18.7829895"><ele>569.6</ele><time>2012-07-24T15:09:09.0000000+00:00</time></trkpt><trkpt lat="63.97678375" lon="-18.7829895"><ele>569.7</ele><time>2012-07-24T15:09:14.0000000+00:00</time></trkpt><trkpt lat="63.97678375" lon="-18.7829895"><ele>569.7</ele><time>2012-07-24T15:09:19.0000000+00:00</time></trkpt><trkpt lat="63.97678375" lon="-18.7829895"><ele>569.7</ele><time>2012-07-24T15:09:24.0000000+00:00</time></trkpt><trkpt lat="63.97678375" lon="-18.7829895"><ele>569.7</ele><time>2012-07-24T15:09:29.0000000+00:00</time></trkpt><trkpt lat="63.97678375" lon="-18.7829895"><ele>569.7</ele><time>2012-07-24T15:09:34.0000000+00:00</time></trkpt><trkpt lat="63.97678375" lon="-18.7829876"><ele>569.7</ele><time>2012-07-24T15:09:39.0000000+00:00</time></trkpt><trkpt lat="63.97678375" lon="-18.78298378"><ele>569.7</ele><time>2012-07-24T15:09:44.0000000+00:00</time></trkpt><trkpt lat="63.97677994" lon="-18.78297806"><ele>569.7</ele><time>2012-07-24T15:09:49.0000000+00:00</time></trkpt><trkpt lat="63.97677612" lon="-18.78296852"><ele>569.7</ele><time>2012-07-24T15:09:54.0000000+00:00</time></trkpt><trkpt lat="63.97677231" lon="-18.78295708"><ele>569.7</ele><time>2012-07-24T15:09:59.0000000+00:00</time></trkpt><trkpt lat="63.97676849" lon="-18.78294563"><ele>569.7</ele><time>2012-07-24T15:10:04.0000000+00:00</time></trkpt><trkpt lat="63.97676468" lon="-18.78293419"><ele>569.8</ele><time>2012-07-24T15:10:09.0000000+00:00</time></trkpt><trkpt lat="63.97676468" lon="-18.78292656"><ele>569.9</ele><time>2012-07-24T15:10:14.0000000+00:00</time></trkpt><trkpt lat="63.97676086" lon="-18.78292275"><ele>570.0</ele><time>2012-07-24T15:10:19.0000000+00:00</time></trkpt><trkpt lat="63.97676086" lon="-18.78291893"><ele>570.4</ele><time>2012-07-24T15:10:24.0000000+00:00</time></trkpt><trkpt lat="63.97676086" lon="-18.78291893"><ele>570.6</ele><time>2012-07-24T15:10:29.0000000+00:00</time></trkpt><trkpt lat="63.97676086" lon="-18.78292084"><ele>570.7</ele><time>2012-07-24T15:10:34.0000000+00:00</time></trkpt><trkpt lat="63.97676086" lon="-18.78292084"><ele>570.7</ele><time>2012-07-24T15:10:39.0000000+00:00</time></trkpt><trkpt lat="63.97676086" lon="-18.78292084"><ele>570.8</ele><time>2012-07-24T15:10:44.0000000+00:00</time></trkpt><trkpt lat="63.97676086" lon="-18.78292275"><ele>570.8</ele><time>2012-07-24T15:10:49.0000000+00:00</time></trkpt><trkpt lat="63.97676086" lon="-18.78292275"><ele>570.8</ele><time>2012-07-24T15:10:54.0000000+00:00</time></trkpt><trkpt lat="63.97676086" lon="-18.78292275"><ele>570.8</ele><time>2012-07-24T15:10:59.0000000+00:00</time></trkpt><trkpt lat="63.97676086" lon="-18.78292275"><ele>570.8</ele><time>2012-07-24T15:11:04.0000000+00:00</time></trkpt><trkpt lat="63.97676086" lon="-18.78292465"><ele>570.9</ele><time>2012-07-24T15:11:09.0000000+00:00</time></trkpt><trkpt lat="63.97676086" lon="-18.78292465"><ele>570.9</ele><time>2012-07-24T15:11:14.0000000+00:00</time></trkpt><trkpt lat="63.97676086" lon="-18.78292465"><ele>571.0</ele><time>2012-07-24T15:11:19.0000000+00:00</time></trkpt><trkpt lat="63.97676086" lon="-18.78292465"><ele>571.1</ele><time>2012-07-24T15:11:24.0000000+00:00</time></trkpt><trkpt lat="63.97676086" lon="-18.78292275"><ele>571.1</ele><time>2012-07-24T15:11:29.0000000+00:00</time></trkpt><trkpt lat="63.97676086" lon="-18.78292275"><ele>571.1</ele><time>2012-07-24T15:11:34.0000000+00:00</time></trkpt><trkpt lat="63.97676086" lon="-18.78292275"><ele>571.2</ele><time>2012-07-24T15:11:39.0000000+00:00</time></trkpt><trkpt lat="63.97676086" lon="-18.78292275"><ele>571.3</ele><time>2012-07-24T15:11:44.0000000+00:00</time></trkpt><trkpt lat="63.97676086" lon="-18.78292084"><ele>571.3</ele><time>2012-07-24T15:11:49.0000000+00:00</time></trkpt><trkpt lat="63.97676086" lon="-18.78292084"><ele>571.4</ele><time>2012-07-24T15:11:54.0000000+00:00</time></trkpt><trkpt lat="63.97676086" lon="-18.78292084"><ele>571.4</ele><time>2012-07-24T15:11:59.0000000+00:00</time></trkpt><trkpt lat="63.97676086" lon="-18.78292084"><ele>571.5</ele><time>2012-07-24T15:12:04.0000000+00:00</time></trkpt><trkpt lat="63.97676086" lon="-18.78292084"><ele>571.5</ele><time>2012-07-24T15:12:09.0000000+00:00</time></trkpt><trkpt lat="63.97676086" lon="-18.78292084"><ele>571.6</ele><time>2012-07-24T15:12:14.0000000+00:00</time></trkpt><trkpt lat="63.97676086" lon="-18.78292275"><ele>571.6</ele><time>2012-07-24T15:12:19.0000000+00:00</time></trkpt><trkpt lat="63.97676086" lon="-18.78292275"><ele>571.7</ele><time>2012-07-24T15:12:24.0000000+00:00</time></trkpt><trkpt lat="63.97676086" lon="-18.78292275"><ele>571.7</ele><time>2012-07-24T15:12:29.0000000+00:00</time></trkpt><trkpt lat="63.97676086" lon="-18.78292275"><ele>571.8</ele><time>2012-07-24T15:12:34.0000000+00:00</time></trkpt><trkpt lat="63.97676086" lon="-18.78292465"><ele>571.8</ele><time>2012-07-24T15:12:39.0000000+00:00</time></trkpt><trkpt lat="63.97676086" lon="-18.78292465"><ele>571.8</ele><time>2012-07-24T15:12:44.0000000+00:00</time></trkpt><trkpt lat="63.97676086" lon="-18.78292465"><ele>571.9</ele><time>2012-07-24T15:12:49.0000000+00:00</time></trkpt><trkpt lat="63.97676086" lon="-18.78292465"><ele>571.9</ele><time>2012-07-24T15:12:54.0000000+00:00</time></trkpt><trkpt lat="63.97676086" lon="-18.78292465"><ele>572.0</ele><time>2012-07-24T15:12:59.0000000+00:00</time></trkpt><trkpt lat="63.97676086" lon="-18.78292465"><ele>572.0</ele><time>2012-07-24T15:13:04.0000000+00:00</time></trkpt><trkpt lat="63.97676086" lon="-18.78292465"><ele>572.1</ele><time>2012-07-24T15:13:09.0000000+00:00</time></trkpt><trkpt lat="63.97676086" lon="-18.78292656"><ele>572.1</ele><time>2012-07-24T15:13:14.0000000+00:00</time></trkpt><trkpt lat="63.97676086" lon="-18.78292656"><ele>572.2</ele><time>2012-07-24T15:13:19.0000000+00:00</time></trkpt><trkpt lat="63.97676086" lon="-18.78292656"><ele>572.2</ele><time>2012-07-24T15:13:24.0000000+00:00</time></trkpt><trkpt lat="63.97676086" lon="-18.78292847"><ele>572.3</ele><time>2012-07-24T15:13:29.0000000+00:00</time></trkpt><trkpt lat="63.97676086" lon="-18.78293037"><ele>572.4</ele><time>2012-07-24T15:13:34.0000000+00:00</time></trkpt><trkpt lat="63.97676086" lon="-18.78293037"><ele>572.4</ele><time>2012-07-24T15:13:39.0000000+00:00</time></trkpt><trkpt lat="63.97676086" lon="-18.78293037"><ele>572.5</ele><time>2012-07-24T15:13:44.0000000+00:00</time></trkpt><trkpt lat="63.97676086" lon="-18.78293037"><ele>572.5</ele><time>2012-07-24T15:13:49.0000000+00:00</time></trkpt><trkpt lat="63.97676086" lon="-18.78293037"><ele>572.5</ele><time>2012-07-24T15:13:54.0000000+00:00</time></trkpt><trkpt lat="63.97675705" lon="-18.78293037"><ele>572.6</ele><time>2012-07-24T15:13:59.0000000+00:00</time></trkpt><trkpt lat="63.97675705" lon="-18.78293037"><ele>572.6</ele><time>2012-07-24T15:14:04.0000000+00:00</time></trkpt><trkpt lat="63.97675705" lon="-18.78293037"><ele>572.6</ele><time>2012-07-24T15:14:09.0000000+00:00</time></trkpt><trkpt lat="63.97675705" lon="-18.78293228"><ele>572.7</ele><time>2012-07-24T15:14:14.0000000+00:00</time></trkpt><trkpt lat="63.97675705" lon="-18.78293228"><ele>572.7</ele><time>2012-07-24T15:14:19.0000000+00:00</time></trkpt><trkpt lat="63.97675705" lon="-18.78293228"><ele>572.8</ele><time>2012-07-24T15:14:24.0000000+00:00</time></trkpt><trkpt lat="63.97675705" lon="-18.78293419"><ele>572.8</ele><time>2012-07-24T15:14:29.0000000+00:00</time></trkpt><trkpt lat="63.97675705" lon="-18.78293419"><ele>572.9</ele><time>2012-07-24T15:14:34.0000000+00:00</time></trkpt><trkpt lat="63.97675705" lon="-18.7829361"><ele>572.9</ele><time>2012-07-24T15:14:39.0000000+00:00</time></trkpt><trkpt lat="63.97675705" lon="-18.7829361"><ele>573.0</ele><time>2012-07-24T15:14:44.0000000+00:00</time></trkpt><trkpt lat="63.97675705" lon="-18.7829361"><ele>573.0</ele><time>2012-07-24T15:14:49.0000000+00:00</time></trkpt><trkpt lat="63.97675705" lon="-18.7829361"><ele>573.1</ele><time>2012-07-24T15:14:54.0000000+00:00</time></trkpt><trkpt lat="63.97675705" lon="-18.782938"><ele>573.2</ele><time>2012-07-24T15:14:59.0000000+00:00</time></trkpt><trkpt lat="63.97675705" lon="-18.782938"><ele>573.2</ele><time>2012-07-24T15:15:04.0000000+00:00</time></trkpt><trkpt lat="63.97675705" lon="-18.782938"><ele>573.3</ele><time>2012-07-24T15:15:09.0000000+00:00</time></trkpt><trkpt lat="63.97675705" lon="-18.78293991"><ele>573.3</ele><time>2012-07-24T15:15:14.0000000+00:00</time></trkpt><trkpt lat="63.97675705" lon="-18.78293991"><ele>573.3</ele><time>2012-07-24T15:15:19.0000000+00:00</time></trkpt><trkpt lat="63.97675705" lon="-18.78294182"><ele>573.4</ele><time>2012-07-24T15:15:24.0000000+00:00</time></trkpt><trkpt lat="63.97675705" lon="-18.78294182"><ele>573.5</ele><time>2012-07-24T15:15:29.0000000+00:00</time></trkpt><trkpt lat="63.97675705" lon="-18.78294373"><ele>573.5</ele><time>2012-07-24T15:15:34.0000000+00:00</time></trkpt><trkpt lat="63.97675705" lon="-18.78294373"><ele>573.5</ele><time>2012-07-24T15:15:39.0000000+00:00</time></trkpt><trkpt lat="63.97675705" lon="-18.78294563"><ele>573.5</ele><time>2012-07-24T15:15:44.0000000+00:00</time></trkpt><trkpt lat="63.97675705" lon="-18.78294563"><ele>573.5</ele><time>2012-07-24T15:15:49.0000000+00:00</time></trkpt><trkpt lat="63.97675705" lon="-18.78294754"><ele>573.6</ele><time>2012-07-24T15:15:54.0000000+00:00</time></trkpt><trkpt lat="63.97675705" lon="-18.78294754"><ele>573.6</ele><time>2012-07-24T15:15:59.0000000+00:00</time></trkpt><trkpt lat="63.97675705" lon="-18.78294754"><ele>573.6</ele><time>2012-07-24T15:16:04.0000000+00:00</time></trkpt><trkpt lat="63.97675705" lon="-18.78294945"><ele>573.7</ele><time>2012-07-24T15:16:09.0000000+00:00</time></trkpt><trkpt lat="63.97675705" lon="-18.78294945"><ele>573.7</ele><time>2012-07-24T15:16:14.0000000+00:00</time></trkpt><trkpt lat="63.97675705" lon="-18.78294945"><ele>573.8</ele><time>2012-07-24T15:16:19.0000000+00:00</time></trkpt><trkpt lat="63.97676086" lon="-18.78295136"><ele>573.8</ele><time>2012-07-24T15:16:24.0000000+00:00</time></trkpt><trkpt lat="63.97676086" lon="-18.78295136"><ele>573.8</ele><time>2012-07-24T15:16:29.0000000+00:00</time></trkpt><trkpt lat="63.97676086" lon="-18.78295136"><ele>573.9</ele><time>2012-07-24T15:16:34.0000000+00:00</time></trkpt><trkpt lat="63.97676086" lon="-18.78295136"><ele>573.9</ele><time>2012-07-24T15:16:39.0000000+00:00</time></trkpt><trkpt lat="63.97676086" lon="-18.78295136"><ele>574.0</ele><time>2012-07-24T15:16:44.0000000+00:00</time></trkpt><trkpt lat="63.97676086" lon="-18.78295326"><ele>574.0</ele><time>2012-07-24T15:16:49.0000000+00:00</time></trkpt><trkpt lat="63.97676086" lon="-18.78295326"><ele>574.1</ele><time>2012-07-24T15:16:54.0000000+00:00</time></trkpt><trkpt lat="63.97676086" lon="-18.78295326"><ele>574.1</ele><time>2012-07-24T15:16:59.0000000+00:00</time></trkpt><trkpt lat="63.97676086" lon="-18.78295326"><ele>574.1</ele><time>2012-07-24T15:17:04.0000000+00:00</time></trkpt><trkpt lat="63.97676086" lon="-18.78295517"><ele>574.2</ele><time>2012-07-24T15:17:09.0000000+00:00</time></trkpt><trkpt lat="63.97676086" lon="-18.78295517"><ele>574.2</ele><time>2012-07-24T15:17:14.0000000+00:00</time></trkpt><trkpt lat="63.97676086" lon="-18.78295517"><ele>574.2</ele><time>2012-07-24T15:17:19.0000000+00:00</time></trkpt><trkpt lat="63.97676086" lon="-18.78295708"><ele>574.2</ele><time>2012-07-24T15:17:24.0000000+00:00</time></trkpt><trkpt lat="63.97676086" lon="-18.78295708"><ele>574.2</ele><time>2012-07-24T15:17:29.0000000+00:00</time></trkpt><trkpt lat="63.97676086" lon="-18.78295708"><ele>574.3</ele><time>2012-07-24T15:17:34.0000000+00:00</time></trkpt><trkpt lat="63.97676086" lon="-18.78295898"><ele>574.3</ele><time>2012-07-24T15:17:39.0000000+00:00</time></trkpt><trkpt lat="63.97676086" lon="-18.78295898"><ele>574.3</ele><time>2012-07-24T15:17:44.0000000+00:00</time></trkpt><trkpt lat="63.97676086" lon="-18.78295898"><ele>574.3</ele><time>2012-07-24T15:17:49.0000000+00:00</time></trkpt><trkpt lat="63.97676086" lon="-18.78295898"><ele>574.3</ele><time>2012-07-24T15:17:54.0000000+00:00</time></trkpt><trkpt lat="63.97676086" lon="-18.78296089"><ele>574.3</ele><time>2012-07-24T15:17:59.0000000+00:00</time></trkpt><trkpt lat="63.97676086" lon="-18.78296089"><ele>574.3</ele><time>2012-07-24T15:18:04.0000000+00:00</time></trkpt><trkpt lat="63.97676086" lon="-18.78296089"><ele>574.4</ele><time>2012-07-24T15:18:09.0000000+00:00</time></trkpt><trkpt lat="63.97676086" lon="-18.78296089"><ele>574.4</ele><time>2012-07-24T15:18:14.0000000+00:00</time></trkpt><trkpt lat="63.97676086" lon="-18.78296089"><ele>574.4</ele><time>2012-07-24T15:18:19.0000000+00:00</time></trkpt><trkpt lat="63.97676086" lon="-18.7829628"><ele>574.5</ele><time>2012-07-24T15:18:24.0000000+00:00</time></trkpt><trkpt lat="63.97676086" lon="-18.7829628"><ele>574.5</ele><time>2012-07-24T15:18:29.0000000+00:00</time></trkpt><trkpt lat="63.97676086" lon="-18.7829628"><ele>574.5</ele><time>2012-07-24T15:18:34.0000000+00:00</time></trkpt><trkpt lat="63.97676086" lon="-18.78296471"><ele>574.5</ele><time>2012-07-24T15:18:39.0000000+00:00</time></trkpt><trkpt lat="63.97676086" lon="-18.78296471"><ele>574.5</ele><time>2012-07-24T15:18:44.0000000+00:00</time></trkpt><trkpt lat="63.97676086" lon="-18.78296471"><ele>574.5</ele><time>2012-07-24T15:18:49.0000000+00:00</time></trkpt><trkpt lat="63.97676086" lon="-18.78296661"><ele>574.5</ele><time>2012-07-24T15:18:54.0000000+00:00</time></trkpt><trkpt lat="63.97676086" lon="-18.78296661"><ele>574.5</ele><time>2012-07-24T15:18:59.0000000+00:00</time></trkpt><trkpt lat="63.97676086" lon="-18.78296661"><ele>574.6</ele><time>2012-07-24T15:19:04.0000000+00:00</time></trkpt><trkpt lat="63.97676086" lon="-18.78296661"><ele>574.6</ele><time>2012-07-24T15:19:09.0000000+00:00</time></trkpt><trkpt lat="63.97676086" lon="-18.78296852"><ele>574.6</ele><time>2012-07-24T15:19:14.0000000+00:00</time></trkpt><trkpt lat="63.97676086" lon="-18.78296852"><ele>574.6</ele><time>2012-07-24T15:19:19.0000000+00:00</time></trkpt><trkpt lat="63.97676086" lon="-18.78296852"><ele>574.7</ele><time>2012-07-24T15:19:24.0000000+00:00</time></trkpt><trkpt lat="63.97676086" lon="-18.78296852"><ele>574.7</ele><time>2012-07-24T15:19:29.0000000+00:00</time></trkpt><trkpt lat="63.97676086" lon="-18.78296852"><ele>574.7</ele><time>2012-07-24T15:19:34.0000000+00:00</time></trkpt><trkpt lat="63.97676086" lon="-18.78297043"><ele>574.8</ele><time>2012-07-24T15:19:39.0000000+00:00</time></trkpt><trkpt lat="63.97676468" lon="-18.78297234"><ele>574.7</ele><time>2012-07-24T15:19:44.0000000+00:00</time></trkpt><trkpt lat="63.97676849" lon="-18.78299141"><ele>575.4</ele><time>2012-07-24T15:19:49.0000000+00:00</time></trkpt><trkpt lat="63.97676849" lon="-18.78299141"><ele>575.4</ele><time>2012-07-24T15:19:54.0000000+00:00</time></trkpt><trkpt lat="63.97676849" lon="-18.78299141"><ele>575.4</ele><time>2012-07-24T15:19:59.0000000+00:00</time></trkpt><trkpt lat="63.97676849" lon="-18.78299141"><ele>575.4</ele><time>2012-07-24T15:20:04.0000000+00:00</time></trkpt><trkpt lat="63.97676849" lon="-18.78299332"><ele>575.4</ele><time>2012-07-24T15:20:09.0000000+00:00</time></trkpt><trkpt lat="63.97676849" lon="-18.78299332"><ele>575.5</ele><time>2012-07-24T15:20:14.0000000+00:00</time></trkpt><trkpt lat="63.97676849" lon="-18.78299332"><ele>575.5</ele><time>2012-07-24T15:20:19.0000000+00:00</time></trkpt><trkpt lat="63.97676849" lon="-18.78299332"><ele>575.5</ele><time>2012-07-24T15:20:24.0000000+00:00</time></trkpt><trkpt lat="63.97676849" lon="-18.78299522"><ele>575.6</ele><time>2012-07-24T15:20:29.0000000+00:00</time></trkpt><trkpt lat="63.97676849" lon="-18.78299522"><ele>575.6</ele><time>2012-07-24T15:20:34.0000000+00:00</time></trkpt><trkpt lat="63.97676849" lon="-18.78299522"><ele>575.6</ele><time>2012-07-24T15:20:39.0000000+00:00</time></trkpt><trkpt lat="63.97676849" lon="-18.78299522"><ele>575.6</ele><time>2012-07-24T15:20:44.0000000+00:00</time></trkpt><trkpt lat="63.97676849" lon="-18.78299713"><ele>575.6</ele><time>2012-07-24T15:20:49.0000000+00:00</time></trkpt><trkpt lat="63.97676849" lon="-18.78299713"><ele>575.7</ele><time>2012-07-24T15:20:54.0000000+00:00</time></trkpt><trkpt lat="63.97676849" lon="-18.78299713"><ele>575.7</ele><time>2012-07-24T15:20:59.0000000+00:00</time></trkpt><trkpt lat="63.97676849" lon="-18.78299713"><ele>575.7</ele><time>2012-07-24T15:21:04.0000000+00:00</time></trkpt><trkpt lat="63.97676849" lon="-18.78299713"><ele>575.8</ele><time>2012-07-24T15:21:09.0000000+00:00</time></trkpt><trkpt lat="63.97676849" lon="-18.78299904"><ele>575.8</ele><time>2012-07-24T15:21:14.0000000+00:00</time></trkpt><trkpt lat="63.97676849" lon="-18.78299904"><ele>575.8</ele><time>2012-07-24T15:21:19.0000000+00:00</time></trkpt><trkpt lat="63.97676849" lon="-18.78299904"><ele>575.8</ele><time>2012-07-24T15:21:24.0000000+00:00</time></trkpt><trkpt lat="63.97676849" lon="-18.78299904"><ele>575.8</ele><time>2012-07-24T15:21:29.0000000+00:00</time></trkpt><trkpt lat="63.97676849" lon="-18.78299904"><ele>575.8</ele><time>2012-07-24T15:21:34.0000000+00:00</time></trkpt><trkpt lat="63.97676849" lon="-18.78300095"><ele>575.9</ele><time>2012-07-24T15:21:39.0000000+00:00</time></trkpt><trkpt lat="63.97676849" lon="-18.78300095"><ele>575.9</ele><time>2012-07-24T15:21:44.0000000+00:00</time></trkpt><trkpt lat="63.97676849" lon="-18.78300095"><ele>575.9</ele><time>2012-07-24T15:21:49.0000000+00:00</time></trkpt><trkpt lat="63.97676849" lon="-18.78300095"><ele>575.9</ele><time>2012-07-24T15:21:54.0000000+00:00</time></trkpt><trkpt lat="63.97676849" lon="-18.78300095"><ele>575.9</ele><time>2012-07-24T15:21:59.0000000+00:00</time></trkpt><trkpt lat="63.97676849" lon="-18.78300095"><ele>576.0</ele><time>2012-07-24T15:22:04.0000000+00:00</time></trkpt><trkpt lat="63.97676849" lon="-18.78300285"><ele>576.0</ele><time>2012-07-24T15:22:09.0000000+00:00</time></trkpt><trkpt lat="63.97676849" lon="-18.78300285"><ele>576.0</ele><time>2012-07-24T15:22:14.0000000+00:00</time></trkpt><trkpt lat="63.97676849" lon="-18.78300285"><ele>576.0</ele><time>2012-07-24T15:22:19.0000000+00:00</time></trkpt><trkpt lat="63.97676849" lon="-18.78300285"><ele>576.0</ele><time>2012-07-24T15:22:24.0000000+00:00</time></trkpt><trkpt lat="63.97676849" lon="-18.78300285"><ele>576.0</ele><time>2012-07-24T15:22:29.0000000+00:00</time></trkpt><trkpt lat="63.97676849" lon="-18.78300476"><ele>576.0</ele><time>2012-07-24T15:22:34.0000000+00:00</time></trkpt><trkpt lat="63.97676849" lon="-18.78300476"><ele>576.0</ele><time>2012-07-24T15:22:39.0000000+00:00</time></trkpt><trkpt lat="63.97676849" lon="-18.78300476"><ele>576.0</ele><time>2012-07-24T15:22:44.0000000+00:00</time></trkpt><trkpt lat="63.97676849" lon="-18.78300476"><ele>576.0</ele><time>2012-07-24T15:22:49.0000000+00:00</time></trkpt><trkpt lat="63.97676849" lon="-18.78300667"><ele>576.1</ele><time>2012-07-24T15:22:54.0000000+00:00</time></trkpt><trkpt lat="63.97676849" lon="-18.78300667"><ele>576.1</ele><time>2012-07-24T15:22:59.0000000+00:00</time></trkpt><trkpt lat="63.97676849" lon="-18.78300667"><ele>576.1</ele><time>2012-07-24T15:23:04.0000000+00:00</time></trkpt><trkpt lat="63.97676849" lon="-18.78300858"><ele>576.1</ele><time>2012-07-24T15:23:09.0000000+00:00</time></trkpt><trkpt lat="63.97676849" lon="-18.78300858"><ele>576.1</ele><time>2012-07-24T15:23:14.0000000+00:00</time></trkpt><trkpt lat="63.97676849" lon="-18.78300858"><ele>576.1</ele><time>2012-07-24T15:23:19.0000000+00:00</time></trkpt><trkpt lat="63.97676849" lon="-18.78300858"><ele>576.1</ele><time>2012-07-24T15:23:24.0000000+00:00</time></trkpt><trkpt lat="63.97676849" lon="-18.78300858"><ele>576.2</ele><time>2012-07-24T15:23:29.0000000+00:00</time></trkpt><trkpt lat="63.97676849" lon="-18.78300858"><ele>576.2</ele><time>2012-07-24T15:23:34.0000000+00:00</time></trkpt><trkpt lat="63.97676849" lon="-18.78301048"><ele>576.2</ele><time>2012-07-24T15:23:39.0000000+00:00</time></trkpt><trkpt lat="63.97676849" lon="-18.78301048"><ele>576.2</ele><time>2012-07-24T15:23:44.0000000+00:00</time></trkpt><trkpt lat="63.97676849" lon="-18.78301048"><ele>576.2</ele><time>2012-07-24T15:23:49.0000000+00:00</time></trkpt><trkpt lat="63.97676849" lon="-18.78301048"><ele>576.2</ele><time>2012-07-24T15:23:54.0000000+00:00</time></trkpt><trkpt lat="63.97676849" lon="-18.78301048"><ele>576.3</ele><time>2012-07-24T15:23:59.0000000+00:00</time></trkpt><trkpt lat="63.97676849" lon="-18.78301048"><ele>576.3</ele><time>2012-07-24T15:24:04.0000000+00:00</time></trkpt><trkpt lat="63.97676849" lon="-18.78301048"><ele>576.3</ele><time>2012-07-24T15:24:09.0000000+00:00</time></trkpt><trkpt lat="63.97676849" lon="-18.78301239"><ele>576.3</ele><time>2012-07-24T15:24:14.0000000+00:00</time></trkpt><trkpt lat="63.97676849" lon="-18.78301239"><ele>576.3</ele><time>2012-07-24T15:24:19.0000000+00:00</time></trkpt><trkpt lat="63.97676849" lon="-18.78301239"><ele>576.4</ele><time>2012-07-24T15:24:24.0000000+00:00</time></trkpt><trkpt lat="63.97676849" lon="-18.78301239"><ele>576.4</ele><time>2012-07-24T15:24:29.0000000+00:00</time></trkpt><trkpt lat="63.97676849" lon="-18.7830143"><ele>576.4</ele><time>2012-07-24T15:24:34.0000000+00:00</time></trkpt><trkpt lat="63.97676849" lon="-18.7830143"><ele>576.4</ele><time>2012-07-24T15:24:39.0000000+00:00</time></trkpt><trkpt lat="63.97676849" lon="-18.7830143"><ele>576.4</ele><time>2012-07-24T15:24:44.0000000+00:00</time></trkpt><trkpt lat="63.97676849" lon="-18.7830143"><ele>576.5</ele><time>2012-07-24T15:24:49.0000000+00:00</time></trkpt><trkpt lat="63.97676849" lon="-18.7830143"><ele>576.5</ele><time>2012-07-24T15:24:54.0000000+00:00</time></trkpt><trkpt lat="63.97676849" lon="-18.7830143"><ele>576.5</ele><time>2012-07-24T15:24:59.0000000+00:00</time></trkpt><trkpt lat="63.97676849" lon="-18.7830143"><ele>576.5</ele><time>2012-07-24T15:25:04.0000000+00:00</time></trkpt><trkpt lat="63.97676849" lon="-18.7830143"><ele>576.5</ele><time>2012-07-24T15:25:09.0000000+00:00</time></trkpt><trkpt lat="63.97676849" lon="-18.7830143"><ele>576.5</ele><time>2012-07-24T15:25:14.0000000+00:00</time></trkpt><trkpt lat="63.97676849" lon="-18.7830143"><ele>576.5</ele><time>2012-07-24T15:25:19.0000000+00:00</time></trkpt><trkpt lat="63.97676849" lon="-18.7830143"><ele>576.5</ele><time>2012-07-24T15:25:24.0000000+00:00</time></trkpt><trkpt lat="63.97676849" lon="-18.7830143"><ele>576.5</ele><time>2012-07-24T15:25:29.0000000+00:00</time></trkpt><trkpt lat="63.97676849" lon="-18.78301621"><ele>576.5</ele><time>2012-07-24T15:25:34.0000000+00:00</time></trkpt><trkpt lat="63.97676849" lon="-18.78301621"><ele>576.6</ele><time>2012-07-24T15:25:39.0000000+00:00</time></trkpt><trkpt lat="63.97676849" lon="-18.78301621"><ele>576.6</ele><time>2012-07-24T15:25:44.0000000+00:00</time></trkpt><trkpt lat="63.97676849" lon="-18.78301621"><ele>576.6</ele><time>2012-07-24T15:25:49.0000000+00:00</time></trkpt><trkpt lat="63.97676849" lon="-18.78301621"><ele>576.6</ele><time>2012-07-24T15:25:54.0000000+00:00</time></trkpt><trkpt lat="63.97676849" lon="-18.78301621"><ele>576.6</ele><time>2012-07-24T15:25:59.0000000+00:00</time></trkpt><trkpt lat="63.97676849" lon="-18.78301621"><ele>576.6</ele><time>2012-07-24T15:26:04.0000000+00:00</time></trkpt><trkpt lat="63.97676849" lon="-18.78301621"><ele>576.6</ele><time>2012-07-24T15:26:09.0000000+00:00</time></trkpt><trkpt lat="63.97676849" lon="-18.78301811"><ele>576.6</ele><time>2012-07-24T15:26:14.0000000+00:00</time></trkpt><trkpt lat="63.97676849" lon="-18.78301811"><ele>576.7</ele><time>2012-07-24T15:26:19.0000000+00:00</time></trkpt><trkpt lat="63.97676849" lon="-18.78301811"><ele>576.7</ele><time>2012-07-24T15:26:24.0000000+00:00</time></trkpt><trkpt lat="63.97676849" lon="-18.78301811"><ele>576.7</ele><time>2012-07-24T15:26:29.0000000+00:00</time></trkpt><trkpt lat="63.97676849" lon="-18.78301811"><ele>576.7</ele><time>2012-07-24T15:26:34.0000000+00:00</time></trkpt><trkpt lat="63.97676849" lon="-18.78301811"><ele>576.7</ele><time>2012-07-24T15:26:39.0000000+00:00</time></trkpt><trkpt lat="63.97676849" lon="-18.78301811"><ele>576.7</ele><time>2012-07-24T15:26:44.0000000+00:00</time></trkpt><trkpt lat="63.97676849" lon="-18.78301811"><ele>576.8</ele><time>2012-07-24T15:26:49.0000000+00:00</time></trkpt><trkpt lat="63.97676849" lon="-18.78302002"><ele>576.8</ele><time>2012-07-24T15:26:54.0000000+00:00</time></trkpt><trkpt lat="63.97676849" lon="-18.78302002"><ele>576.8</ele><time>2012-07-24T15:26:59.0000000+00:00</time></trkpt><trkpt lat="63.97676849" lon="-18.78302002"><ele>576.8</ele><time>2012-07-24T15:27:04.0000000+00:00</time></trkpt><trkpt lat="63.97676849" lon="-18.78302002"><ele>576.8</ele><time>2012-07-24T15:27:09.0000000+00:00</time></trkpt><trkpt lat="63.97676849" lon="-18.78302002"><ele>576.8</ele><time>2012-07-24T15:27:14.0000000+00:00</time></trkpt><trkpt lat="63.97676849" lon="-18.78302002"><ele>576.8</ele><time>2012-07-24T15:27:19.0000000+00:00</time></trkpt><trkpt lat="63.97676849" lon="-18.78302002"><ele>576.8</ele><time>2012-07-24T15:27:24.0000000+00:00</time></trkpt><trkpt lat="63.97676849" lon="-18.78302002"><ele>576.8</ele><time>2012-07-24T15:27:29.0000000+00:00</time></trkpt><trkpt lat="63.97676849" lon="-18.78302193"><ele>576.8</ele><time>2012-07-24T15:27:34.0000000+00:00</time></trkpt><trkpt lat="63.97676849" lon="-18.78302193"><ele>576.8</ele><time>2012-07-24T15:27:39.0000000+00:00</time></trkpt><trkpt lat="63.97676849" lon="-18.78302193"><ele>576.9</ele><time>2012-07-24T15:27:44.0000000+00:00</time></trkpt><trkpt lat="63.97676849" lon="-18.78302193"><ele>576.9</ele><time>2012-07-24T15:27:49.0000000+00:00</time></trkpt><trkpt lat="63.97676849" lon="-18.78302193"><ele>576.9</ele><time>2012-07-24T15:27:54.0000000+00:00</time></trkpt><trkpt lat="63.97676849" lon="-18.78302383"><ele>576.9</ele><time>2012-07-24T15:27:59.0000000+00:00</time></trkpt><trkpt lat="63.97676849" lon="-18.78302383"><ele>576.9</ele><time>2012-07-24T15:28:04.0000000+00:00</time></trkpt><trkpt lat="63.97676849" lon="-18.78302383"><ele>576.9</ele><time>2012-07-24T15:28:09.0000000+00:00</time></trkpt><trkpt lat="63.97676849" lon="-18.78302383"><ele>577.0</ele><time>2012-07-24T15:28:14.0000000+00:00</time></trkpt><trkpt lat="63.97676849" lon="-18.78302383"><ele>577.0</ele><time>2012-07-24T15:28:19.0000000+00:00</time></trkpt><trkpt lat="63.97676849" lon="-18.78302383"><ele>577.0</ele><time>2012-07-24T15:28:24.0000000+00:00</time></trkpt><trkpt lat="63.97676849" lon="-18.78302383"><ele>577.0</ele><time>2012-07-24T15:28:29.0000000+00:00</time></trkpt><trkpt lat="63.97676849" lon="-18.78302574"><ele>577.0</ele><time>2012-07-24T15:28:34.0000000+00:00</time></trkpt><trkpt lat="63.97676849" lon="-18.78302574"><ele>577.0</ele><time>2012-07-24T15:28:39.0000000+00:00</time></trkpt><trkpt lat="63.97676849" lon="-18.78302574"><ele>577.1</ele><time>2012-07-24T15:28:44.0000000+00:00</time></trkpt><trkpt lat="63.97676849" lon="-18.78302574"><ele>577.1</ele><time>2012-07-24T15:28:49.0000000+00:00</time></trkpt><trkpt lat="63.97676849" lon="-18.78302574"><ele>577.1</ele><time>2012-07-24T15:28:54.0000000+00:00</time></trkpt><trkpt lat="63.97676849" lon="-18.78302765"><ele>577.2</ele><time>2012-07-24T15:28:59.0000000+00:00</time></trkpt><trkpt lat="63.97676849" lon="-18.78302765"><ele>577.2</ele><time>2012-07-24T15:29:04.0000000+00:00</time></trkpt><trkpt lat="63.97676849" lon="-18.78302765"><ele>577.3</ele><time>2012-07-24T15:29:09.0000000+00:00</time></trkpt><trkpt lat="63.97676849" lon="-18.78302765"><ele>577.3</ele><time>2012-07-24T15:29:14.0000000+00:00</time></trkpt><trkpt lat="63.97676849" lon="-18.78302765"><ele>577.4</ele><time>2012-07-24T15:29:19.0000000+00:00</time></trkpt><trkpt lat="63.97676849" lon="-18.78302765"><ele>577.4</ele><time>2012-07-24T15:29:24.0000000+00:00</time></trkpt><trkpt lat="63.97676849" lon="-18.78302765"><ele>577.4</ele><time>2012-07-24T15:29:29.0000000+00:00</time></trkpt><trkpt lat="63.97676849" lon="-18.78302765"><ele>577.5</ele><time>2012-07-24T15:29:34.0000000+00:00</time></trkpt><trkpt lat="63.97676849" lon="-18.78302765"><ele>577.5</ele><time>2012-07-24T15:29:39.0000000+00:00</time></trkpt><trkpt lat="63.97676849" lon="-18.78302956"><ele>577.5</ele><time>2012-07-24T15:29:44.0000000+00:00</time></trkpt><trkpt lat="63.97676849" lon="-18.78302956"><ele>577.6</ele><time>2012-07-24T15:29:49.0000000+00:00</time></trkpt><trkpt lat="63.97676849" lon="-18.78302956"><ele>577.6</ele><time>2012-07-24T15:29:54.0000000+00:00</time></trkpt><trkpt lat="63.97676849" lon="-18.78302956"><ele>577.7</ele><time>2012-07-24T15:29:59.0000000+00:00</time></trkpt><trkpt lat="63.97676849" lon="-18.78302956"><ele>577.7</ele><time>2012-07-24T15:30:04.0000000+00:00</time></trkpt><trkpt lat="63.97676849" lon="-18.78302956"><ele>577.7</ele><time>2012-07-24T15:30:09.0000000+00:00</time></trkpt><trkpt lat="63.97676849" lon="-18.78302956"><ele>577.8</ele><time>2012-07-24T15:30:14.0000000+00:00</time></trkpt><trkpt lat="63.97676849" lon="-18.78302956"><ele>577.8</ele><time>2012-07-24T15:30:19.0000000+00:00</time></trkpt><trkpt lat="63.97676849" lon="-18.78302956"><ele>577.8</ele><time>2012-07-24T15:30:24.0000000+00:00</time></trkpt><trkpt lat="63.97676849" lon="-18.78302956"><ele>577.8</ele><time>2012-07-24T15:30:29.0000000+00:00</time></trkpt><trkpt lat="63.97676849" lon="-18.78302956"><ele>577.9</ele><time>2012-07-24T15:30:34.0000000+00:00</time></trkpt><trkpt lat="63.97676849" lon="-18.78302956"><ele>577.9</ele><time>2012-07-24T15:30:39.0000000+00:00</time></trkpt><trkpt lat="63.97676849" lon="-18.78302956"><ele>577.9</ele><time>2012-07-24T15:30:44.0000000+00:00</time></trkpt><trkpt lat="63.97676849" lon="-18.78302956"><ele>577.9</ele><time>2012-07-24T15:30:49.0000000+00:00</time></trkpt><trkpt lat="63.97676849" lon="-18.78303146"><ele>578.0</ele><time>2012-07-24T15:30:54.0000000+00:00</time></trkpt><trkpt lat="63.97676849" lon="-18.78303146"><ele>578.0</ele><time>2012-07-24T15:30:59.0000000+00:00</time></trkpt><trkpt lat="63.97676849" lon="-18.78303146"><ele>578.0</ele><time>2012-07-24T15:31:04.0000000+00:00</time></trkpt><trkpt lat="63.97676849" lon="-18.78303146"><ele>578.1</ele><time>2012-07-24T15:31:09.0000000+00:00</time></trkpt><trkpt lat="63.97676849" lon="-18.78303146"><ele>578.1</ele><time>2012-07-24T15:31:14.0000000+00:00</time></trkpt><trkpt lat="63.97676849" lon="-18.78303146"><ele>578.1</ele><time>2012-07-24T15:31:19.0000000+00:00</time></trkpt><trkpt lat="63.97676849" lon="-18.78303146"><ele>578.2</ele><time>2012-07-24T15:31:24.0000000+00:00</time></trkpt><trkpt lat="63.97676849" lon="-18.78303146"><ele>578.2</ele><time>2012-07-24T15:31:29.0000000+00:00</time></trkpt><trkpt lat="63.97676849" lon="-18.78303146"><ele>578.3</ele><time>2012-07-24T15:31:34.0000000+00:00</time></trkpt><trkpt lat="63.97676849" lon="-18.78303146"><ele>578.3</ele><time>2012-07-24T15:31:39.0000000+00:00</time></trkpt><trkpt lat="63.97676849" lon="-18.78303146"><ele>578.3</ele><time>2012-07-24T15:31:44.0000000+00:00</time></trkpt><trkpt lat="63.97676849" lon="-18.78303146"><ele>578.3</ele><time>2012-07-24T15:31:49.0000000+00:00</time></trkpt><trkpt lat="63.97676849" lon="-18.78303146"><ele>578.4</ele><time>2012-07-24T15:31:54.0000000+00:00</time></trkpt><trkpt lat="63.97676849" lon="-18.78303146"><ele>578.4</ele><time>2012-07-24T15:31:59.0000000+00:00</time></trkpt><trkpt lat="63.97676849" lon="-18.78303146"><ele>578.4</ele><time>2012-07-24T15:32:04.0000000+00:00</time></trkpt><trkpt lat="63.97676849" lon="-18.78303146"><ele>578.5</ele><time>2012-07-24T15:32:09.0000000+00:00</time></trkpt><trkpt lat="63.97676849" lon="-18.78303337"><ele>578.5</ele><time>2012-07-24T15:32:14.0000000+00:00</time></trkpt><trkpt lat="63.97676849" lon="-18.78303337"><ele>578.5</ele><time>2012-07-24T15:32:19.0000000+00:00</time></trkpt><trkpt lat="63.97676849" lon="-18.78303337"><ele>578.6</ele><time>2012-07-24T15:32:24.0000000+00:00</time></trkpt><trkpt lat="63.97676849" lon="-18.78303337"><ele>578.6</ele><time>2012-07-24T15:32:29.0000000+00:00</time></trkpt><trkpt lat="63.97676849" lon="-18.78303337"><ele>578.6</ele><time>2012-07-24T15:32:34.0000000+00:00</time></trkpt><trkpt lat="63.97676849" lon="-18.78303337"><ele>578.6</ele><time>2012-07-24T15:32:39.0000000+00:00</time></trkpt><trkpt lat="63.97676849" lon="-18.78303337"><ele>578.7</ele><time>2012-07-24T15:32:44.0000000+00:00</time></trkpt><trkpt lat="63.97676849" lon="-18.78303337"><ele>578.7</ele><time>2012-07-24T15:32:49.0000000+00:00</time></trkpt><trkpt lat="63.97676849" lon="-18.78303337"><ele>578.7</ele><time>2012-07-24T15:32:54.0000000+00:00</time></trkpt><trkpt lat="63.97676849" lon="-18.78303337"><ele>578.8</ele><time>2012-07-24T15:32:59.0000000+00:00</time></trkpt><trkpt lat="63.97676849" lon="-18.78303337"><ele>578.8</ele><time>2012-07-24T15:33:04.0000000+00:00</time></trkpt><trkpt lat="63.97676849" lon="-18.78303337"><ele>578.8</ele><time>2012-07-24T15:33:09.0000000+00:00</time></trkpt><trkpt lat="63.97676849" lon="-18.78303337"><ele>578.9</ele><time>2012-07-24T15:33:14.0000000+00:00</time></trkpt><trkpt lat="63.97676849" lon="-18.78303337"><ele>578.9</ele><time>2012-07-24T15:33:19.0000000+00:00</time></trkpt><trkpt lat="63.97676849" lon="-18.78303337"><ele>578.9</ele><time>2012-07-24T15:33:24.0000000+00:00</time></trkpt><trkpt lat="63.97676849" lon="-18.78303337"><ele>579.0</ele><time>2012-07-24T15:33:29.0000000+00:00</time></trkpt><trkpt lat="63.97676849" lon="-18.78303337"><ele>579.0</ele><time>2012-07-24T15:33:34.0000000+00:00</time></trkpt><trkpt lat="63.97676849" lon="-18.78303337"><ele>579.0</ele><time>2012-07-24T15:33:39.0000000+00:00</time></trkpt><trkpt lat="63.97676849" lon="-18.78303337"><ele>579.0</ele><time>2012-07-24T15:33:44.0000000+00:00</time></trkpt><trkpt lat="63.97676849" lon="-18.78303337"><ele>579.1</ele><time>2012-07-24T15:33:49.0000000+00:00</time></trkpt><trkpt lat="63.97676849" lon="-18.78303337"><ele>579.1</ele><time>2012-07-24T15:33:54.0000000+00:00</time></trkpt><trkpt lat="63.97676849" lon="-18.78303337"><ele>579.1</ele><time>2012-07-24T15:33:59.0000000+00:00</time></trkpt><trkpt lat="63.97676849" lon="-18.78303337"><ele>579.2</ele><time>2012-07-24T15:34:04.0000000+00:00</time></trkpt><trkpt lat="63.97676849" lon="-18.78303337"><ele>579.2</ele><time>2012-07-24T15:34:09.0000000+00:00</time></trkpt><trkpt lat="63.97676849" lon="-18.78303337"><ele>579.2</ele><time>2012-07-24T15:34:14.0000000+00:00</time></trkpt><trkpt lat="63.97676849" lon="-18.78303337"><ele>579.2</ele><time>2012-07-24T15:34:19.0000000+00:00</time></trkpt><trkpt lat="63.97676849" lon="-18.78303337"><ele>579.3</ele><time>2012-07-24T15:34:24.0000000+00:00</time></trkpt><trkpt lat="63.97676849" lon="-18.78303528"><ele>579.3</ele><time>2012-07-24T15:34:29.0000000+00:00</time></trkpt><trkpt lat="63.97676849" lon="-18.78303528"><ele>579.3</ele><time>2012-07-24T15:34:34.0000000+00:00</time></trkpt><trkpt lat="63.97676849" lon="-18.78303528"><ele>579.3</ele><time>2012-07-24T15:34:39.0000000+00:00</time></trkpt><trkpt lat="63.97676849" lon="-18.78303528"><ele>579.4</ele><time>2012-07-24T15:34:44.0000000+00:00</time></trkpt><trkpt lat="63.97676849" lon="-18.78303528"><ele>579.4</ele><time>2012-07-24T15:34:49.0000000+00:00</time></trkpt><trkpt lat="63.97676849" lon="-18.78303528"><ele>579.4</ele><time>2012-07-24T15:34:54.0000000+00:00</time></trkpt><trkpt lat="63.97676849" lon="-18.78303528"><ele>579.4</ele><time>2012-07-24T15:34:59.0000000+00:00</time></trkpt><trkpt lat="63.97676849" lon="-18.78303528"><ele>579.5</ele><time>2012-07-24T15:35:04.0000000+00:00</time></trkpt><trkpt lat="63.97676849" lon="-18.78303528"><ele>579.5</ele><time>2012-07-24T15:35:09.0000000+00:00</time></trkpt><trkpt lat="63.97676849" lon="-18.78303528"><ele>579.5</ele><time>2012-07-24T15:35:14.0000000+00:00</time></trkpt><trkpt lat="63.97676849" lon="-18.78303528"><ele>579.5</ele><time>2012-07-24T15:35:19.0000000+00:00</time></trkpt><trkpt lat="63.97676849" lon="-18.78303528"><ele>579.6</ele><time>2012-07-24T15:35:24.0000000+00:00</time></trkpt><trkpt lat="63.97676849" lon="-18.78303528"><ele>579.6</ele><time>2012-07-24T15:35:29.0000000+00:00</time></trkpt><trkpt lat="63.97676849" lon="-18.78303528"><ele>579.6</ele><time>2012-07-24T15:35:34.0000000+00:00</time></trkpt><trkpt lat="63.97676849" lon="-18.78303528"><ele>579.6</ele><time>2012-07-24T15:35:39.0000000+00:00</time></trkpt><trkpt lat="63.97676849" lon="-18.78303528"><ele>579.6</ele><time>2012-07-24T15:35:44.0000000+00:00</time></trkpt><trkpt lat="63.97676849" lon="-18.78303528"><ele>579.7</ele><time>2012-07-24T15:35:49.0000000+00:00</time></trkpt><trkpt lat="63.97676849" lon="-18.78303528"><ele>579.7</ele><time>2012-07-24T15:35:54.0000000+00:00</time></trkpt><trkpt lat="63.97676849" lon="-18.78303528"><ele>579.8</ele><time>2012-07-24T15:35:59.0000000+00:00</time></trkpt><trkpt lat="63.97676849" lon="-18.78303528"><ele>579.8</ele><time>2012-07-24T15:36:04.0000000+00:00</time></trkpt><trkpt lat="63.97676849" lon="-18.78303528"><ele>579.8</ele><time>2012-07-24T15:36:09.0000000+00:00</time></trkpt><trkpt lat="63.97676849" lon="-18.78303528"><ele>579.8</ele><time>2012-07-24T15:36:14.0000000+00:00</time></trkpt><trkpt lat="63.97676849" lon="-18.78303528"><ele>579.8</ele><time>2012-07-24T15:36:19.0000000+00:00</time></trkpt><trkpt lat="63.97676849" lon="-18.78303528"><ele>579.9</ele><time>2012-07-24T15:36:24.0000000+00:00</time></trkpt><trkpt lat="63.97676849" lon="-18.78303528"><ele>579.9</ele><time>2012-07-24T15:36:29.0000000+00:00</time></trkpt><trkpt lat="63.97676849" lon="-18.78302765"><ele>580.1</ele><time>2012-07-24T15:36:34.0000000+00:00</time></trkpt><trkpt lat="63.97676849" lon="-18.78302574"><ele>580.1</ele><time>2012-07-24T15:36:39.0000000+00:00</time></trkpt><trkpt lat="63.97676849" lon="-18.78302574"><ele>580.1</ele><time>2012-07-24T15:36:44.0000000+00:00</time></trkpt><trkpt lat="63.97676849" lon="-18.78302765"><ele>580.1</ele><time>2012-07-24T15:36:49.0000000+00:00</time></trkpt><trkpt lat="63.97676849" lon="-18.78302765"><ele>580.1</ele><time>2012-07-24T15:36:54.0000000+00:00</time></trkpt><trkpt lat="63.97676849" lon="-18.78302765"><ele>580.2</ele><time>2012-07-24T15:36:59.0000000+00:00</time></trkpt><trkpt lat="63.97676849" lon="-18.78302765"><ele>580.1</ele><time>2012-07-24T15:37:04.0000000+00:00</time></trkpt><trkpt lat="63.97676849" lon="-18.78302765"><ele>580.1</ele><time>2012-07-24T15:37:09.0000000+00:00</time></trkpt><trkpt lat="63.97676849" lon="-18.78302765"><ele>580.2</ele><time>2012-07-24T15:37:14.0000000+00:00</time></trkpt><trkpt lat="63.97676849" lon="-18.78302765"><ele>580.1</ele><time>2012-07-24T15:37:19.0000000+00:00</time></trkpt><trkpt lat="63.97676849" lon="-18.78302765"><ele>580.2</ele><time>2012-07-24T15:37:24.0000000+00:00</time></trkpt><trkpt lat="63.97676849" lon="-18.78302765"><ele>580.2</ele><time>2012-07-24T15:37:29.0000000+00:00</time></trkpt><trkpt lat="63.97676849" lon="-18.78302765"><ele>580.2</ele><time>2012-07-24T15:37:34.0000000+00:00</time></trkpt><trkpt lat="63.97676849" lon="-18.78302765"><ele>580.2</ele><time>2012-07-24T15:37:39.0000000+00:00</time></trkpt><trkpt lat="63.97677231" lon="-18.78302765"><ele>580.2</ele><time>2012-07-24T15:37:44.0000000+00:00</time></trkpt><trkpt lat="63.97677231" lon="-18.78302765"><ele>580.2</ele><time>2012-07-24T15:37:49.0000000+00:00</time></trkpt><trkpt lat="63.97677231" lon="-18.78302956"><ele>580.2</ele><time>2012-07-24T15:37:54.0000000+00:00</time></trkpt><trkpt lat="63.97676849" lon="-18.78302956"><ele>580.2</ele><time>2012-07-24T15:37:59.0000000+00:00</time></trkpt><trkpt lat="63.97677231" lon="-18.78302956"><ele>580.2</ele><time>2012-07-24T15:38:04.0000000+00:00</time></trkpt><trkpt lat="63.97677231" lon="-18.78302956"><ele>580.2</ele><time>2012-07-24T15:38:09.0000000+00:00</time></trkpt><trkpt lat="63.97677231" lon="-18.78302956"><ele>580.2</ele><time>2012-07-24T15:38:14.0000000+00:00</time></trkpt><trkpt lat="63.97677231" lon="-18.78302956"><ele>580.2</ele><time>2012-07-24T15:38:19.0000000+00:00</time></trkpt><trkpt lat="63.97677231" lon="-18.78302956"><ele>580.2</ele><time>2012-07-24T15:38:24.0000000+00:00</time></trkpt><trkpt lat="63.97677231" lon="-18.78302956"><ele>580.2</ele><time>2012-07-24T15:38:29.0000000+00:00</time></trkpt><trkpt lat="63.97677231" lon="-18.78302956"><ele>580.2</ele><time>2012-07-24T15:38:34.0000000+00:00</time></trkpt><trkpt lat="63.97677231" lon="-18.78302956"><ele>580.3</ele><time>2012-07-24T15:38:39.0000000+00:00</time></trkpt><trkpt lat="63.97677231" lon="-18.78302956"><ele>580.3</ele><time>2012-07-24T15:38:44.0000000+00:00</time></trkpt><trkpt lat="63.97677231" lon="-18.78302956"><ele>580.3</ele><time>2012-07-24T15:38:49.0000000+00:00</time></trkpt><trkpt lat="63.97677231" lon="-18.78302956"><ele>580.3</ele><time>2012-07-24T15:38:54.0000000+00:00</time></trkpt><trkpt lat="63.97677231" lon="-18.78302956"><ele>580.3</ele><time>2012-07-24T15:38:59.0000000+00:00</time></trkpt><trkpt lat="63.97677231" lon="-18.78302956"><ele>580.3</ele><time>2012-07-24T15:39:04.0000000+00:00</time></trkpt><trkpt lat="63.97677231" lon="-18.78302956"><ele>580.4</ele><time>2012-07-24T15:39:09.0000000+00:00</time></trkpt><trkpt lat="63.97676849" lon="-18.78302956"><ele>580.4</ele><time>2012-07-24T15:39:14.0000000+00:00</time></trkpt><trkpt lat="63.97677231" lon="-18.78302956"><ele>580.4</ele><time>2012-07-24T15:39:19.0000000+00:00</time></trkpt><trkpt lat="63.97677231" lon="-18.78303146"><ele>580.4</ele><time>2012-07-24T15:39:24.0000000+00:00</time></trkpt><trkpt lat="63.97677231" lon="-18.78303146"><ele>580.4</ele><time>2012-07-24T15:39:29.0000000+00:00</time></trkpt><trkpt lat="63.97676849" lon="-18.78303146"><ele>580.4</ele><time>2012-07-24T15:39:34.0000000+00:00</time></trkpt><trkpt lat="63.97676849" lon="-18.78302956"><ele>580.5</ele><time>2012-07-24T15:39:39.0000000+00:00</time></trkpt><trkpt lat="63.97676849" lon="-18.78302956"><ele>580.5</ele><time>2012-07-24T15:39:44.0000000+00:00</time></trkpt><trkpt lat="63.97676849" lon="-18.78303146"><ele>580.6</ele><time>2012-07-24T15:39:49.0000000+00:00</time></trkpt><trkpt lat="63.97676849" lon="-18.78303146"><ele>580.6</ele><time>2012-07-24T15:39:54.0000000+00:00</time></trkpt><trkpt lat="63.97676849" lon="-18.78303146"><ele>580.6</ele><time>2012-07-24T15:39:59.0000000+00:00</time></trkpt><trkpt lat="63.97676849" lon="-18.78303146"><ele>580.7</ele><time>2012-07-24T15:40:04.0000000+00:00</time></trkpt><trkpt lat="63.97676849" lon="-18.78303146"><ele>580.7</ele><time>2012-07-24T15:40:09.0000000+00:00</time></trkpt><trkpt lat="63.97676849" lon="-18.78303146"><ele>580.7</ele><time>2012-07-24T15:40:14.0000000+00:00</time></trkpt><trkpt lat="63.97676849" lon="-18.78303146"><ele>580.8</ele><time>2012-07-24T15:40:19.0000000+00:00</time></trkpt><trkpt lat="63.97676849" lon="-18.78303146"><ele>580.8</ele><time>2012-07-24T15:40:24.0000000+00:00</time></trkpt><trkpt lat="63.97676849" lon="-18.78303146"><ele>580.8</ele><time>2012-07-24T15:40:29.0000000+00:00</time></trkpt><trkpt lat="63.97676849" lon="-18.78303337"><ele>580.8</ele><time>2012-07-24T15:40:34.0000000+00:00</time></trkpt><trkpt lat="63.97676849" lon="-18.78303337"><ele>580.8</ele><time>2012-07-24T15:40:39.0000000+00:00</time></trkpt><trkpt lat="63.97676849" lon="-18.78303337"><ele>580.8</ele><time>2012-07-24T15:40:44.0000000+00:00</time></trkpt><trkpt lat="63.97676849" lon="-18.78303337"><ele>580.9</ele><time>2012-07-24T15:40:49.0000000+00:00</time></trkpt><trkpt lat="63.97677231" lon="-18.78302193"><ele>581.1</ele><time>2012-07-24T15:40:54.0000000+00:00</time></trkpt><trkpt lat="63.97684479" lon="-18.78281593"><ele>582.1</ele><time>2012-07-24T15:40:59.0000000+00:00</time></trkpt><trkpt lat="63.9769249" lon="-18.78254128"><ele>583.0</ele><time>2012-07-24T15:41:04.0000000+00:00</time></trkpt><trkpt lat="63.97697449" lon="-18.78237534"><ele>583.7</ele><time>2012-07-24T15:41:09.0000000+00:00</time></trkpt><trkpt lat="63.97698975" lon="-18.78229713"><ele>583.7</ele><time>2012-07-24T15:41:14.0000000+00:00</time></trkpt><trkpt lat="63.97700882" lon="-18.78223801"><ele>584.3</ele><time>2012-07-24T15:41:19.0000000+00:00</time></trkpt><trkpt lat="63.97702408" lon="-18.78220558"><ele>585.3</ele><time>2012-07-24T15:41:24.0000000+00:00</time></trkpt><trkpt lat="63.97703552" lon="-18.78217316"><ele>585.7</ele><time>2012-07-24T15:41:29.0000000+00:00</time></trkpt><trkpt lat="63.97703552" lon="-18.78217316"><ele>586.9</ele><time>2012-07-24T15:41:34.0000000+00:00</time></trkpt><trkpt lat="63.97703552" lon="-18.78217316"><ele>587.0</ele><time>2012-07-24T15:41:39.0000000+00:00</time></trkpt><trkpt lat="63.97703552" lon="-18.78217316"><ele>586.9</ele><time>2012-07-24T15:41:44.0000000+00:00</time></trkpt><trkpt lat="63.97703552" lon="-18.78217316"><ele>586.9</ele><time>2012-07-24T15:41:49.0000000+00:00</time></trkpt><trkpt lat="63.97703552" lon="-18.78217125"><ele>586.9</ele><time>2012-07-24T15:41:54.0000000+00:00</time></trkpt><trkpt lat="63.97703552" lon="-18.78217125"><ele>586.8</ele><time>2012-07-24T15:41:59.0000000+00:00</time></trkpt><trkpt lat="63.97703552" lon="-18.78217125"><ele>586.9</ele><time>2012-07-24T15:42:04.0000000+00:00</time></trkpt><trkpt lat="63.97703552" lon="-18.78217125"><ele>586.9</ele><time>2012-07-24T15:42:09.0000000+00:00</time></trkpt><trkpt lat="63.97703552" lon="-18.78217125"><ele>586.8</ele><time>2012-07-24T15:42:14.0000000+00:00</time></trkpt><trkpt lat="63.97703552" lon="-18.78217125"><ele>586.8</ele><time>2012-07-24T15:42:19.0000000+00:00</time></trkpt><trkpt lat="63.97703552" lon="-18.78217125"><ele>586.8</ele><time>2012-07-24T15:42:24.0000000+00:00</time></trkpt><trkpt lat="63.97703552" lon="-18.78216934"><ele>586.8</ele><time>2012-07-24T15:42:29.0000000+00:00</time></trkpt><trkpt lat="63.97703552" lon="-18.78216934"><ele>586.8</ele><time>2012-07-24T15:42:34.0000000+00:00</time></trkpt><trkpt lat="63.97703552" lon="-18.78216934"><ele>586.8</ele><time>2012-07-24T15:42:39.0000000+00:00</time></trkpt><trkpt lat="63.97703552" lon="-18.78216744"><ele>586.8</ele><time>2012-07-24T15:42:44.0000000+00:00</time></trkpt><trkpt lat="63.97705078" lon="-18.78212738"><ele>586.0</ele><time>2012-07-24T15:42:49.0000000+00:00</time></trkpt><trkpt lat="63.97707748" lon="-18.78209114"><ele>586.5</ele><time>2012-07-24T15:42:54.0000000+00:00</time></trkpt><trkpt lat="63.97708893" lon="-18.78207779"><ele>586.6</ele><time>2012-07-24T15:42:59.0000000+00:00</time></trkpt><trkpt lat="63.97710419" lon="-18.78206825"><ele>586.5</ele><time>2012-07-24T15:43:04.0000000+00:00</time></trkpt><trkpt lat="63.97711945" lon="-18.7820797"><ele>586.4</ele><time>2012-07-24T15:43:09.0000000+00:00</time></trkpt><trkpt lat="63.97716141" lon="-18.78209305"><ele>587.2</ele><time>2012-07-24T15:43:14.0000000+00:00</time></trkpt><trkpt lat="63.97720337" lon="-18.78211212"><ele>588.4</ele><time>2012-07-24T15:43:19.0000000+00:00</time></trkpt><trkpt lat="63.97722626" lon="-18.78207779"><ele>588.0</ele><time>2012-07-24T15:43:24.0000000+00:00</time></trkpt><trkpt lat="63.97721863" lon="-18.7820816"><ele>587.6</ele><time>2012-07-24T15:43:29.0000000+00:00</time></trkpt><trkpt lat="63.97722244" lon="-18.78204155"><ele>587.9</ele><time>2012-07-24T15:43:34.0000000+00:00</time></trkpt><trkpt lat="63.97725678" lon="-18.78199387"><ele>588.2</ele><time>2012-07-24T15:43:39.0000000+00:00</time></trkpt><trkpt lat="63.97729492" lon="-18.78190994"><ele>588.1</ele><time>2012-07-24T15:43:44.0000000+00:00</time></trkpt><trkpt lat="63.97731018" lon="-18.78186035"><ele>589.0</ele><time>2012-07-24T15:43:49.0000000+00:00</time></trkpt><trkpt lat="63.97732925" lon="-18.78180885"><ele>589.0</ele><time>2012-07-24T15:43:54.0000000+00:00</time></trkpt><trkpt lat="63.97737885" lon="-18.78176308"><ele>589.0</ele><time>2012-07-24T15:43:59.0000000+00:00</time></trkpt><trkpt lat="63.97742081" lon="-18.78174019"><ele>588.8</ele><time>2012-07-24T15:44:04.0000000+00:00</time></trkpt><trkpt lat="63.97746658" lon="-18.78167915"><ele>588.2</ele><time>2012-07-24T15:44:09.0000000+00:00</time></trkpt><trkpt lat="63.97748184" lon="-18.78160477"><ele>587.5</ele><time>2012-07-24T15:44:14.0000000+00:00</time></trkpt><trkpt lat="63.9774704" lon="-18.78158951"><ele>587.8</ele><time>2012-07-24T15:44:19.0000000+00:00</time></trkpt><trkpt lat="63.9774704" lon="-18.7815876"><ele>587.8</ele><time>2012-07-24T15:44:24.0000000+00:00</time></trkpt><trkpt lat="63.9774704" lon="-18.78158569"><ele>587.7</ele><time>2012-07-24T15:44:29.0000000+00:00</time></trkpt><trkpt lat="63.9774704" lon="-18.78158569"><ele>587.7</ele><time>2012-07-24T15:44:34.0000000+00:00</time></trkpt><trkpt lat="63.9774704" lon="-18.7815876"><ele>587.7</ele><time>2012-07-24T15:44:39.0000000+00:00</time></trkpt><trkpt lat="63.97747803" lon="-18.78160667"><ele>586.8</ele><time>2012-07-24T15:44:44.0000000+00:00</time></trkpt><trkpt lat="63.97747803" lon="-18.78161812"><ele>586.5</ele><time>2012-07-24T15:44:49.0000000+00:00</time></trkpt><trkpt lat="63.97750473" lon="-18.78159714"><ele>586.3</ele><time>2012-07-24T15:44:54.0000000+00:00</time></trkpt><trkpt lat="63.97753906" lon="-18.78164673"><ele>586.7</ele><time>2012-07-24T15:44:59.0000000+00:00</time></trkpt><trkpt lat="63.97755814" lon="-18.78163528"><ele>587.3</ele><time>2012-07-24T15:45:04.0000000+00:00</time></trkpt><trkpt lat="63.97755814" lon="-18.78163528"><ele>587.5</ele><time>2012-07-24T15:45:09.0000000+00:00</time></trkpt><trkpt lat="63.97755814" lon="-18.78163719"><ele>587.7</ele><time>2012-07-24T15:45:14.0000000+00:00</time></trkpt><trkpt lat="63.97755814" lon="-18.78163528"><ele>587.8</ele><time>2012-07-24T15:45:19.0000000+00:00</time></trkpt><trkpt lat="63.97755814" lon="-18.78163338"><ele>587.7</ele><time>2012-07-24T15:45:24.0000000+00:00</time></trkpt><trkpt lat="63.97755814" lon="-18.78163338"><ele>587.7</ele><time>2012-07-24T15:45:29.0000000+00:00</time></trkpt><trkpt lat="63.97755814" lon="-18.78163338"><ele>587.7</ele><time>2012-07-24T15:45:34.0000000+00:00</time></trkpt><trkpt lat="63.97755814" lon="-18.78163338"><ele>587.7</ele><time>2012-07-24T15:45:39.0000000+00:00</time></trkpt><trkpt lat="63.97756195" lon="-18.78163338"><ele>587.6</ele><time>2012-07-24T15:45:44.0000000+00:00</time></trkpt><trkpt lat="63.97756195" lon="-18.78163338"><ele>587.6</ele><time>2012-07-24T15:45:49.0000000+00:00</time></trkpt><trkpt lat="63.97756195" lon="-18.78163147"><ele>587.6</ele><time>2012-07-24T15:45:54.0000000+00:00</time></trkpt><trkpt lat="63.97758484" lon="-18.7815609"><ele>586.7</ele><time>2012-07-24T15:45:59.0000000+00:00</time></trkpt><trkpt lat="63.97760773" lon="-18.78153992"><ele>585.0</ele><time>2012-07-24T15:46:04.0000000+00:00</time></trkpt><trkpt lat="63.97762299" lon="-18.78152084"><ele>584.1</ele><time>2012-07-24T15:46:09.0000000+00:00</time></trkpt><trkpt lat="63.97770309" lon="-18.78144074"><ele>583.9</ele><time>2012-07-24T15:46:14.0000000+00:00</time></trkpt><trkpt lat="63.97776794" lon="-18.78136253"><ele>586.1</ele><time>2012-07-24T15:46:19.0000000+00:00</time></trkpt><trkpt lat="63.97784042" lon="-18.781353"><ele>587.9</ele><time>2012-07-24T15:46:24.0000000+00:00</time></trkpt><trkpt lat="63.97790909" lon="-18.78123856"><ele>589.6</ele><time>2012-07-24T15:46:29.0000000+00:00</time></trkpt><trkpt lat="63.97797012" lon="-18.78112221"><ele>591.5</ele><time>2012-07-24T15:46:34.0000000+00:00</time></trkpt><trkpt lat="63.97803497" lon="-18.78099632"><ele>594.2</ele><time>2012-07-24T15:46:39.0000000+00:00</time></trkpt><trkpt lat="63.97806549" lon="-18.78087425"><ele>594.2</ele><time>2012-07-24T15:46:44.0000000+00:00</time></trkpt><trkpt lat="63.97808838" lon="-18.78069305"><ele>595.3</ele><time>2012-07-24T15:46:49.0000000+00:00</time></trkpt><trkpt lat="63.9781189" lon="-18.78052521"><ele>596.0</ele><time>2012-07-24T15:46:54.0000000+00:00</time></trkpt><trkpt lat="63.97816849" lon="-18.78039551"><ele>596.7</ele><time>2012-07-24T15:46:59.0000000+00:00</time></trkpt><trkpt lat="63.97822189" lon="-18.78025627"><ele>597.6</ele><time>2012-07-24T15:47:04.0000000+00:00</time></trkpt><trkpt lat="63.97826767" lon="-18.78016281"><ele>597.6</ele><time>2012-07-24T15:47:09.0000000+00:00</time></trkpt><trkpt lat="63.97832489" lon="-18.78013802"><ele>598.1</ele><time>2012-07-24T15:47:14.0000000+00:00</time></trkpt><trkpt lat="63.9784317" lon="-18.78009796"><ele>598.9</ele><time>2012-07-24T15:47:19.0000000+00:00</time></trkpt><trkpt lat="63.97851944" lon="-18.78000069"><ele>600.1</ele><time>2012-07-24T15:47:24.0000000+00:00</time></trkpt><trkpt lat="63.97861099" lon="-18.77994537"><ele>600.3</ele><time>2012-07-24T15:47:29.0000000+00:00</time></trkpt><trkpt lat="63.97870636" lon="-18.7798481"><ele>598.0</ele><time>2012-07-24T15:47:34.0000000+00:00</time></trkpt><trkpt lat="63.97888565" lon="-18.77965736"><ele>597.5</ele><time>2012-07-24T15:47:39.0000000+00:00</time></trkpt><trkpt lat="63.9790802" lon="-18.77952766"><ele>593.4</ele><time>2012-07-24T15:47:44.0000000+00:00</time></trkpt><trkpt lat="63.97919083" lon="-18.77939796"><ele>592.7</ele><time>2012-07-24T15:47:49.0000000+00:00</time></trkpt><trkpt lat="63.97930527" lon="-18.77926064"><ele>592.6</ele><time>2012-07-24T15:47:54.0000000+00:00</time></trkpt><trkpt lat="63.97937012" lon="-18.77915955"><ele>591.1</ele><time>2012-07-24T15:47:59.0000000+00:00</time></trkpt><trkpt lat="63.97947311" lon="-18.7790966"><ele>589.0</ele><time>2012-07-24T15:48:04.0000000+00:00</time></trkpt><trkpt lat="63.97960281" lon="-18.77905655"><ele>589.7</ele><time>2012-07-24T15:48:09.0000000+00:00</time></trkpt><trkpt lat="63.97971344" lon="-18.77909851"><ele>588.9</ele><time>2012-07-24T15:48:14.0000000+00:00</time></trkpt><trkpt lat="63.97981262" lon="-18.77908325"><ele>588.2</ele><time>2012-07-24T15:48:19.0000000+00:00</time></trkpt><trkpt lat="63.97994614" lon="-18.77910423"><ele>588.9</ele><time>2012-07-24T15:48:24.0000000+00:00</time></trkpt><trkpt lat="63.98008347" lon="-18.77911377"><ele>589.3</ele><time>2012-07-24T15:48:29.0000000+00:00</time></trkpt><trkpt lat="63.98022842" lon="-18.7790966"><ele>589.2</ele><time>2012-07-24T15:48:34.0000000+00:00</time></trkpt><trkpt lat="63.98036194" lon="-18.77910042"><ele>588.9</ele><time>2012-07-24T15:48:39.0000000+00:00</time></trkpt><trkpt lat="63.98049164" lon="-18.77905464"><ele>588.9</ele><time>2012-07-24T15:48:44.0000000+00:00</time></trkpt><trkpt lat="63.98059464" lon="-18.77904701"><ele>588.8</ele><time>2012-07-24T15:48:49.0000000+00:00</time></trkpt><trkpt lat="63.98069" lon="-18.77913094"><ele>590.0</ele><time>2012-07-24T15:48:54.0000000+00:00</time></trkpt><trkpt lat="63.9808197" lon="-18.77920532"><ele>590.8</ele><time>2012-07-24T15:48:59.0000000+00:00</time></trkpt><trkpt lat="63.98095703" lon="-18.77920723"><ele>590.3</ele><time>2012-07-24T15:49:04.0000000+00:00</time></trkpt><trkpt lat="63.98111343" lon="-18.77910996"><ele>590.0</ele><time>2012-07-24T15:49:09.0000000+00:00</time></trkpt><trkpt lat="63.98127365" lon="-18.77900314"><ele>589.4</ele><time>2012-07-24T15:49:14.0000000+00:00</time></trkpt><trkpt lat="63.98140717" lon="-18.7789135"><ele>589.2</ele><time>2012-07-24T15:49:19.0000000+00:00</time></trkpt><trkpt lat="63.98153687" lon="-18.77886772"><ele>590.1</ele><time>2012-07-24T15:49:24.0000000+00:00</time></trkpt><trkpt lat="63.98165131" lon="-18.77894211"><ele>591.4</ele><time>2012-07-24T15:49:29.0000000+00:00</time></trkpt><trkpt lat="63.98175049" lon="-18.77892685"><ele>590.4</ele><time>2012-07-24T15:49:34.0000000+00:00</time></trkpt><trkpt lat="63.98175049" lon="-18.7789135"><ele>588.4</ele><time>2012-07-24T15:49:39.0000000+00:00</time></trkpt><trkpt lat="63.98175049" lon="-18.7789135"><ele>588.4</ele><time>2012-07-24T15:49:44.0000000+00:00</time></trkpt><trkpt lat="63.98175049" lon="-18.77890968"><ele>588.3</ele><time>2012-07-24T15:49:49.0000000+00:00</time></trkpt><trkpt lat="63.98174286" lon="-18.77892494"><ele>588.4</ele><time>2012-07-24T15:49:54.0000000+00:00</time></trkpt><trkpt lat="63.98171997" lon="-18.77892304"><ele>589.5</ele><time>2012-07-24T15:49:59.0000000+00:00</time></trkpt><trkpt lat="63.98172379" lon="-18.77893066"><ele>590.0</ele><time>2012-07-24T15:50:04.0000000+00:00</time></trkpt><trkpt lat="63.98171997" lon="-18.77893448"><ele>590.2</ele><time>2012-07-24T15:50:09.0000000+00:00</time></trkpt><trkpt lat="63.98171997" lon="-18.77894211"><ele>590.3</ele><time>2012-07-24T15:50:14.0000000+00:00</time></trkpt><trkpt lat="63.98171997" lon="-18.77894974"><ele>590.4</ele><time>2012-07-24T15:50:19.0000000+00:00</time></trkpt><trkpt lat="63.98171616" lon="-18.77895355"><ele>590.5</ele><time>2012-07-24T15:50:24.0000000+00:00</time></trkpt><trkpt lat="63.98171616" lon="-18.77896118"><ele>590.5</ele><time>2012-07-24T15:50:29.0000000+00:00</time></trkpt><trkpt lat="63.98171234" lon="-18.77891922"><ele>590.8</ele><time>2012-07-24T15:50:34.0000000+00:00</time></trkpt><trkpt lat="63.98174286" lon="-18.77884293"><ele>590.9</ele><time>2012-07-24T15:50:39.0000000+00:00</time></trkpt><trkpt lat="63.9817543" lon="-18.77878571"><ele>589.8</ele><time>2012-07-24T15:50:44.0000000+00:00</time></trkpt><trkpt lat="63.98178101" lon="-18.77872658"><ele>589.8</ele><time>2012-07-24T15:50:49.0000000+00:00</time></trkpt><trkpt lat="63.98177338" lon="-18.77868271"><ele>590.8</ele><time>2012-07-24T15:50:54.0000000+00:00</time></trkpt><trkpt lat="63.98178101" lon="-18.77871513"><ele>591.1</ele><time>2012-07-24T15:50:59.0000000+00:00</time></trkpt><trkpt lat="63.98177719" lon="-18.77871895"><ele>591.2</ele><time>2012-07-24T15:51:04.0000000+00:00</time></trkpt><trkpt lat="63.98179245" lon="-18.7786808"><ele>592.5</ele><time>2012-07-24T15:51:09.0000000+00:00</time></trkpt><trkpt lat="63.98179245" lon="-18.77864647"><ele>593.1</ele><time>2012-07-24T15:51:14.0000000+00:00</time></trkpt><trkpt lat="63.98179245" lon="-18.77864456"><ele>593.3</ele><time>2012-07-24T15:51:19.0000000+00:00</time></trkpt><trkpt lat="63.98182297" lon="-18.77867889"><ele>593.3</ele><time>2012-07-24T15:51:24.0000000+00:00</time></trkpt><trkpt lat="63.98187256" lon="-18.77874374"><ele>592.9</ele><time>2012-07-24T15:51:29.0000000+00:00</time></trkpt><trkpt lat="63.98192596" lon="-18.77882004"><ele>592.6</ele><time>2012-07-24T15:51:34.0000000+00:00</time></trkpt><trkpt lat="63.98196411" lon="-18.7788353"><ele>593.0</ele><time>2012-07-24T15:51:39.0000000+00:00</time></trkpt><trkpt lat="63.98196411" lon="-18.77882195"><ele>593.5</ele><time>2012-07-24T15:51:44.0000000+00:00</time></trkpt><trkpt lat="63.98196411" lon="-18.77881813"><ele>593.9</ele><time>2012-07-24T15:51:49.0000000+00:00</time></trkpt><trkpt lat="63.98196793" lon="-18.77881241"><ele>594.2</ele><time>2012-07-24T15:51:54.0000000+00:00</time></trkpt><trkpt lat="63.98199081" lon="-18.77882767"><ele>594.4</ele><time>2012-07-24T15:51:59.0000000+00:00</time></trkpt><trkpt lat="63.9820137" lon="-18.77883339"><ele>594.7</ele><time>2012-07-24T15:52:04.0000000+00:00</time></trkpt><trkpt lat="63.98207092" lon="-18.77887344"><ele>594.1</ele><time>2012-07-24T15:52:09.0000000+00:00</time></trkpt><trkpt lat="63.98214722" lon="-18.77898216"><ele>593.5</ele><time>2012-07-24T15:52:14.0000000+00:00</time></trkpt><trkpt lat="63.9822464" lon="-18.77912903"><ele>594.5</ele><time>2012-07-24T15:52:19.0000000+00:00</time></trkpt><trkpt lat="63.98232269" lon="-18.77923393"><ele>593.9</ele><time>2012-07-24T15:52:24.0000000+00:00</time></trkpt><trkpt lat="63.98242569" lon="-18.77935982"><ele>593.6</ele><time>2012-07-24T15:52:29.0000000+00:00</time></trkpt><trkpt lat="63.98250961" lon="-18.77958107"><ele>592.4</ele><time>2012-07-24T15:52:34.0000000+00:00</time></trkpt><trkpt lat="63.98258591" lon="-18.77967072"><ele>592.7</ele><time>2012-07-24T15:52:39.0000000+00:00</time></trkpt><trkpt lat="63.98269653" lon="-18.77970886"><ele>593.8</ele><time>2012-07-24T15:52:44.0000000+00:00</time></trkpt><trkpt lat="63.98281479" lon="-18.77962303"><ele>592.5</ele><time>2012-07-24T15:52:49.0000000+00:00</time></trkpt><trkpt lat="63.98293686" lon="-18.77945328"><ele>592.5</ele><time>2012-07-24T15:52:54.0000000+00:00</time></trkpt><trkpt lat="63.98303986" lon="-18.77927399"><ele>592.1</ele><time>2012-07-24T15:52:59.0000000+00:00</time></trkpt><trkpt lat="63.98310852" lon="-18.77906036"><ele>592.4</ele><time>2012-07-24T15:53:04.0000000+00:00</time></trkpt><trkpt lat="63.98316193" lon="-18.77889824"><ele>592.3</ele><time>2012-07-24T15:53:09.0000000+00:00</time></trkpt><trkpt lat="63.98321533" lon="-18.77880096"><ele>592.5</ele><time>2012-07-24T15:53:14.0000000+00:00</time></trkpt><trkpt lat="63.98325348" lon="-18.77860832"><ele>594.0</ele><time>2012-07-24T15:53:19.0000000+00:00</time></trkpt><trkpt lat="63.98327255" lon="-18.77844429"><ele>595.3</ele><time>2012-07-24T15:53:24.0000000+00:00</time></trkpt><trkpt lat="63.98332977" lon="-18.7782402"><ele>596.4</ele><time>2012-07-24T15:53:29.0000000+00:00</time></trkpt><trkpt lat="63.98342133" lon="-18.77806854"><ele>596.4</ele><time>2012-07-24T15:53:34.0000000+00:00</time></trkpt><trkpt lat="63.98352814" lon="-18.77793121"><ele>595.9</ele><time>2012-07-24T15:53:39.0000000+00:00</time></trkpt><trkpt lat="63.98364258" lon="-18.77783394"><ele>595.5</ele><time>2012-07-24T15:53:44.0000000+00:00</time></trkpt><trkpt lat="63.98377991" lon="-18.77782059"><ele>593.8</ele><time>2012-07-24T15:53:49.0000000+00:00</time></trkpt><trkpt lat="63.98390198" lon="-18.77786064"><ele>593.1</ele><time>2012-07-24T15:53:54.0000000+00:00</time></trkpt><trkpt lat="63.98401642" lon="-18.77793312"><ele>593.0</ele><time>2012-07-24T15:53:59.0000000+00:00</time></trkpt><trkpt lat="63.98413849" lon="-18.77800179"><ele>593.5</ele><time>2012-07-24T15:54:04.0000000+00:00</time></trkpt><trkpt lat="63.98425293" lon="-18.77808762"><ele>593.4</ele><time>2012-07-24T15:54:09.0000000+00:00</time></trkpt><trkpt lat="63.98437119" lon="-18.77823067"><ele>594.3</ele><time>2012-07-24T15:54:14.0000000+00:00</time></trkpt><trkpt lat="63.984478" lon="-18.77841759"><ele>593.2</ele><time>2012-07-24T15:54:19.0000000+00:00</time></trkpt><trkpt lat="63.98456955" lon="-18.77865791"><ele>592.8</ele><time>2012-07-24T15:54:24.0000000+00:00</time></trkpt><trkpt lat="63.98465729" lon="-18.77889252"><ele>593.2</ele><time>2012-07-24T15:54:29.0000000+00:00</time></trkpt><trkpt lat="63.98472595" lon="-18.77909088"><ele>592.5</ele><time>2012-07-24T15:54:34.0000000+00:00</time></trkpt><trkpt lat="63.98476791" lon="-18.7793045"><ele>593.1</ele><time>2012-07-24T15:54:39.0000000+00:00</time></trkpt><trkpt lat="63.98482132" lon="-18.77950859"><ele>593.0</ele><time>2012-07-24T15:54:44.0000000+00:00</time></trkpt><trkpt lat="63.98487091" lon="-18.77966309"><ele>594.8</ele><time>2012-07-24T15:54:49.0000000+00:00</time></trkpt><trkpt lat="63.98490906" lon="-18.77976608"><ele>595.1</ele><time>2012-07-24T15:54:54.0000000+00:00</time></trkpt><trkpt lat="63.98498154" lon="-18.77985001"><ele>595.8</ele><time>2012-07-24T15:54:59.0000000+00:00</time></trkpt><trkpt lat="63.98503876" lon="-18.77988434"><ele>597.7</ele><time>2012-07-24T15:55:04.0000000+00:00</time></trkpt><trkpt lat="63.98511887" lon="-18.7798748"><ele>599.1</ele><time>2012-07-24T15:55:09.0000000+00:00</time></trkpt><trkpt lat="63.98521042" lon="-18.7798214"><ele>601.0</ele><time>2012-07-24T15:55:14.0000000+00:00</time></trkpt><trkpt lat="63.98527527" lon="-18.77972984"><ele>601.0</ele><time>2012-07-24T15:55:19.0000000+00:00</time></trkpt><trkpt lat="63.9853363" lon="-18.77966309"><ele>602.3</ele><time>2012-07-24T15:55:24.0000000+00:00</time></trkpt><trkpt lat="63.98541641" lon="-18.77955055"><ele>603.4</ele><time>2012-07-24T15:55:29.0000000+00:00</time></trkpt><trkpt lat="63.98548126" lon="-18.77941704"><ele>604.0</ele><time>2012-07-24T15:55:34.0000000+00:00</time></trkpt><trkpt lat="63.9855423" lon="-18.77928352"><ele>604.5</ele><time>2012-07-24T15:55:39.0000000+00:00</time></trkpt><trkpt lat="63.9855957" lon="-18.77907944"><ele>604.9</ele><time>2012-07-24T15:55:44.0000000+00:00</time></trkpt><trkpt lat="63.98566055" lon="-18.77890396"><ele>604.8</ele><time>2012-07-24T15:55:49.0000000+00:00</time></trkpt><trkpt lat="63.98570252" lon="-18.77871323"><ele>607.0</ele><time>2012-07-24T15:55:54.0000000+00:00</time></trkpt><trkpt lat="63.98569489" lon="-18.77847672"><ele>607.1</ele><time>2012-07-24T15:55:59.0000000+00:00</time></trkpt><trkpt lat="63.98570252" lon="-18.77826881"><ele>608.0</ele><time>2012-07-24T15:56:04.0000000+00:00</time></trkpt><trkpt lat="63.9856987" lon="-18.77805901"><ele>608.8</ele><time>2012-07-24T15:56:09.0000000+00:00</time></trkpt><trkpt lat="63.98571396" lon="-18.77783966"><ele>611.1</ele><time>2012-07-24T15:56:14.0000000+00:00</time></trkpt><trkpt lat="63.9857254" lon="-18.77762985"><ele>613.0</ele><time>2012-07-24T15:56:19.0000000+00:00</time></trkpt><trkpt lat="63.98571396" lon="-18.77739334"><ele>612.6</ele><time>2012-07-24T15:56:24.0000000+00:00</time></trkpt><trkpt lat="63.98569107" lon="-18.77713013"><ele>612.3</ele><time>2012-07-24T15:56:29.0000000+00:00</time></trkpt><trkpt lat="63.98567581" lon="-18.77692795"><ele>613.0</ele><time>2012-07-24T15:56:34.0000000+00:00</time></trkpt><trkpt lat="63.98566437" lon="-18.77670288"><ele>613.0</ele><time>2012-07-24T15:56:39.0000000+00:00</time></trkpt><trkpt lat="63.98564911" lon="-18.776474"><ele>613.2</ele><time>2012-07-24T15:56:44.0000000+00:00</time></trkpt><trkpt lat="63.98564148" lon="-18.77630806"><ele>613.4</ele><time>2012-07-24T15:56:49.0000000+00:00</time></trkpt><trkpt lat="63.98563767" lon="-18.77613449"><ele>613.7</ele><time>2012-07-24T15:56:54.0000000+00:00</time></trkpt><trkpt lat="63.98563385" lon="-18.77596855"><ele>614.7</ele><time>2012-07-24T15:56:59.0000000+00:00</time></trkpt><trkpt lat="63.98563385" lon="-18.77578545"><ele>615.2</ele><time>2012-07-24T15:57:04.0000000+00:00</time></trkpt><trkpt lat="63.98562241" lon="-18.77566528"><ele>615.6</ele><time>2012-07-24T15:57:09.0000000+00:00</time></trkpt><trkpt lat="63.98560715" lon="-18.77545738"><ele>615.4</ele><time>2012-07-24T15:57:14.0000000+00:00</time></trkpt><trkpt lat="63.98559952" lon="-18.77521706"><ele>616.8</ele><time>2012-07-24T15:57:19.0000000+00:00</time></trkpt><trkpt lat="63.98560333" lon="-18.77501488"><ele>619.2</ele><time>2012-07-24T15:57:24.0000000+00:00</time></trkpt><trkpt lat="63.98560715" lon="-18.77482796"><ele>620.4</ele><time>2012-07-24T15:57:29.0000000+00:00</time></trkpt><trkpt lat="63.9855957" lon="-18.77461433"><ele>621.7</ele><time>2012-07-24T15:57:34.0000000+00:00</time></trkpt><trkpt lat="63.98559189" lon="-18.77458572"><ele>622.7</ele><time>2012-07-24T15:57:39.0000000+00:00</time></trkpt><trkpt lat="63.98559189" lon="-18.77457237"><ele>622.9</ele><time>2012-07-24T15:57:44.0000000+00:00</time></trkpt><trkpt lat="63.9855957" lon="-18.77445793"><ele>623.4</ele><time>2012-07-24T15:57:49.0000000+00:00</time></trkpt><trkpt lat="63.98561096" lon="-18.77435303"><ele>623.8</ele><time>2012-07-24T15:57:54.0000000+00:00</time></trkpt><trkpt lat="63.98562622" lon="-18.77426148"><ele>625.3</ele><time>2012-07-24T15:57:59.0000000+00:00</time></trkpt><trkpt lat="63.98566818" lon="-18.77418709"><ele>626.4</ele><time>2012-07-24T15:58:04.0000000+00:00</time></trkpt><trkpt lat="63.98568344" lon="-18.7741909"><ele>626.5</ele><time>2012-07-24T15:58:09.0000000+00:00</time></trkpt><trkpt lat="63.98568344" lon="-18.77415848"><ele>626.9</ele><time>2012-07-24T15:58:14.0000000+00:00</time></trkpt><trkpt lat="63.98569107" lon="-18.77417183"><ele>626.2</ele><time>2012-07-24T15:58:19.0000000+00:00</time></trkpt><trkpt lat="63.98569107" lon="-18.77415085"><ele>626.3</ele><time>2012-07-24T15:58:24.0000000+00:00</time></trkpt><trkpt lat="63.9856987" lon="-18.77406883"><ele>626.4</ele><time>2012-07-24T15:58:29.0000000+00:00</time></trkpt><trkpt lat="63.98571777" lon="-18.77401733"><ele>626.7</ele><time>2012-07-24T15:58:34.0000000+00:00</time></trkpt><trkpt lat="63.98572922" lon="-18.77398491"><ele>626.1</ele><time>2012-07-24T15:58:39.0000000+00:00</time></trkpt><trkpt lat="63.98573303" lon="-18.77398109"><ele>626.5</ele><time>2012-07-24T15:58:44.0000000+00:00</time></trkpt><trkpt lat="63.98574448" lon="-18.7739563"><ele>626.3</ele><time>2012-07-24T15:58:49.0000000+00:00</time></trkpt><trkpt lat="63.98574066" lon="-18.77395058"><ele>626.5</ele><time>2012-07-24T15:58:54.0000000+00:00</time></trkpt><trkpt lat="63.98575974" lon="-18.77390671"><ele>627.3</ele><time>2012-07-24T15:58:59.0000000+00:00</time></trkpt><trkpt lat="63.98579025" lon="-18.77386665"><ele>627.3</ele><time>2012-07-24T15:59:04.0000000+00:00</time></trkpt><trkpt lat="63.98582459" lon="-18.77382851"><ele>627.6</ele><time>2012-07-24T15:59:09.0000000+00:00</time></trkpt><trkpt lat="63.98586273" lon="-18.77379799"><ele>628.1</ele><time>2012-07-24T15:59:14.0000000+00:00</time></trkpt><trkpt lat="63.98589325" lon="-18.77379608"><ele>628.4</ele><time>2012-07-24T15:59:19.0000000+00:00</time></trkpt><trkpt lat="63.98594666" lon="-18.77379227"><ele>629.0</ele><time>2012-07-24T15:59:24.0000000+00:00</time></trkpt><trkpt lat="63.98598862" lon="-18.77379417"><ele>629.5</ele><time>2012-07-24T15:59:29.0000000+00:00</time></trkpt><trkpt lat="63.98601914" lon="-18.77384377"><ele>629.8</ele><time>2012-07-24T15:59:34.0000000+00:00</time></trkpt><trkpt lat="63.98603058" lon="-18.77384758"><ele>630.8</ele><time>2012-07-24T15:59:39.0000000+00:00</time></trkpt><trkpt lat="63.98603439" lon="-18.77384567"><ele>630.9</ele><time>2012-07-24T15:59:44.0000000+00:00</time></trkpt><trkpt lat="63.98603058" lon="-18.77384567"><ele>631.0</ele><time>2012-07-24T15:59:49.0000000+00:00</time></trkpt><trkpt lat="63.98603821" lon="-18.77383995"><ele>631.2</ele><time>2012-07-24T15:59:54.0000000+00:00</time></trkpt><trkpt lat="63.98606491" lon="-18.77383423"><ele>632.4</ele><time>2012-07-24T15:59:59.0000000+00:00</time></trkpt><trkpt lat="63.98609543" lon="-18.7738514"><ele>632.6</ele><time>2012-07-24T16:00:04.0000000+00:00</time></trkpt><trkpt lat="63.98611832" lon="-18.77385712"><ele>632.8</ele><time>2012-07-24T16:00:09.0000000+00:00</time></trkpt><trkpt lat="63.98613358" lon="-18.77384567"><ele>633.1</ele><time>2012-07-24T16:00:14.0000000+00:00</time></trkpt><trkpt lat="63.98616409" lon="-18.77383804"><ele>634.2</ele><time>2012-07-24T16:00:19.0000000+00:00</time></trkpt><trkpt lat="63.98617935" lon="-18.7738266"><ele>634.0</ele><time>2012-07-24T16:00:24.0000000+00:00</time></trkpt><trkpt lat="63.98619843" lon="-18.7737751"><ele>634.3</ele><time>2012-07-24T16:00:29.0000000+00:00</time></trkpt><trkpt lat="63.98622894" lon="-18.7737236"><ele>635.2</ele><time>2012-07-24T16:00:34.0000000+00:00</time></trkpt><trkpt lat="63.98625183" lon="-18.77366447"><ele>636.0</ele><time>2012-07-24T16:00:39.0000000+00:00</time></trkpt><trkpt lat="63.98626328" lon="-18.77357483"><ele>637.6</ele><time>2012-07-24T16:00:44.0000000+00:00</time></trkpt><trkpt lat="63.98627853" lon="-18.7735157"><ele>638.2</ele><time>2012-07-24T16:00:49.0000000+00:00</time></trkpt><trkpt lat="63.98627853" lon="-18.77351189"><ele>638.4</ele><time>2012-07-24T16:00:54.0000000+00:00</time></trkpt><trkpt lat="63.98627472" lon="-18.77344894"><ele>638.7</ele><time>2012-07-24T16:00:59.0000000+00:00</time></trkpt><trkpt lat="63.98628235" lon="-18.77345467"><ele>638.3</ele><time>2012-07-24T16:01:04.0000000+00:00</time></trkpt><trkpt lat="63.98627091" lon="-18.77337456"><ele>639.3</ele><time>2012-07-24T16:01:09.0000000+00:00</time></trkpt><trkpt lat="63.98625946" lon="-18.77325249"><ele>639.7</ele><time>2012-07-24T16:01:14.0000000+00:00</time></trkpt><trkpt lat="63.9862442" lon="-18.77316093"><ele>640.6</ele><time>2012-07-24T16:01:19.0000000+00:00</time></trkpt><trkpt lat="63.98624039" lon="-18.77308464"><ele>640.7</ele><time>2012-07-24T16:01:24.0000000+00:00</time></trkpt><trkpt lat="63.98623276" lon="-18.77300453"><ele>640.7</ele><time>2012-07-24T16:01:29.0000000+00:00</time></trkpt><trkpt lat="63.98623657" lon="-18.77294731"><ele>640.7</ele><time>2012-07-24T16:01:34.0000000+00:00</time></trkpt><trkpt lat="63.98623276" lon="-18.77288818"><ele>641.2</ele><time>2012-07-24T16:01:39.0000000+00:00</time></trkpt><trkpt lat="63.98623276" lon="-18.7728157"><ele>641.3</ele><time>2012-07-24T16:01:44.0000000+00:00</time></trkpt><trkpt lat="63.98624039" lon="-18.77277374"><ele>641.2</ele><time>2012-07-24T16:01:49.0000000+00:00</time></trkpt><trkpt lat="63.98622894" lon="-18.77272606"><ele>640.8</ele><time>2012-07-24T16:01:54.0000000+00:00</time></trkpt><trkpt lat="63.98622513" lon="-18.77270699"><ele>640.5</ele><time>2012-07-24T16:01:59.0000000+00:00</time></trkpt><trkpt lat="63.98622513" lon="-18.77271271"><ele>640.6</ele><time>2012-07-24T16:02:04.0000000+00:00</time></trkpt><trkpt lat="63.98622513" lon="-18.77271271"><ele>640.6</ele><time>2012-07-24T16:02:09.0000000+00:00</time></trkpt><trkpt lat="63.98622894" lon="-18.77267075"><ele>640.4</ele><time>2012-07-24T16:02:14.0000000+00:00</time></trkpt><trkpt lat="63.98622131" lon="-18.77261162"><ele>641.4</ele><time>2012-07-24T16:02:19.0000000+00:00</time></trkpt><trkpt lat="63.9862175" lon="-18.77252388"><ele>641.9</ele><time>2012-07-24T16:02:24.0000000+00:00</time></trkpt><trkpt lat="63.98621368" lon="-18.77239609"><ele>641.4</ele><time>2012-07-24T16:02:29.0000000+00:00</time></trkpt><trkpt lat="63.98619843" lon="-18.77231407"><ele>642.1</ele><time>2012-07-24T16:02:34.0000000+00:00</time></trkpt><trkpt lat="63.98617554" lon="-18.77225876"><ele>643.1</ele><time>2012-07-24T16:02:39.0000000+00:00</time></trkpt><trkpt lat="63.98617554" lon="-18.77223015"><ele>643.3</ele><time>2012-07-24T16:02:44.0000000+00:00</time></trkpt><trkpt lat="63.98617935" lon="-18.77222443"><ele>643.6</ele><time>2012-07-24T16:02:49.0000000+00:00</time></trkpt><trkpt lat="63.98617554" lon="-18.77218247"><ele>643.7</ele><time>2012-07-24T16:02:54.0000000+00:00</time></trkpt><trkpt lat="63.98614883" lon="-18.77215576"><ele>646.5</ele><time>2012-07-24T16:02:59.0000000+00:00</time></trkpt><trkpt lat="63.98613739" lon="-18.77210045"><ele>647.3</ele><time>2012-07-24T16:03:04.0000000+00:00</time></trkpt><trkpt lat="63.9861145" lon="-18.77205658"><ele>648.8</ele><time>2012-07-24T16:03:09.0000000+00:00</time></trkpt><trkpt lat="63.98608398" lon="-18.77198982"><ele>649.6</ele><time>2012-07-24T16:03:14.0000000+00:00</time></trkpt><trkpt lat="63.98606491" lon="-18.77192497"><ele>650.4</ele><time>2012-07-24T16:03:19.0000000+00:00</time></trkpt><trkpt lat="63.98604202" lon="-18.77187157"><ele>651.2</ele><time>2012-07-24T16:03:24.0000000+00:00</time></trkpt><trkpt lat="63.98602295" lon="-18.77179718"><ele>651.7</ele><time>2012-07-24T16:03:29.0000000+00:00</time></trkpt><trkpt lat="63.98601914" lon="-18.77169609"><ele>651.2</ele><time>2012-07-24T16:03:34.0000000+00:00</time></trkpt><trkpt lat="63.98603058" lon="-18.77158165"><ele>652.4</ele><time>2012-07-24T16:03:39.0000000+00:00</time></trkpt><trkpt lat="63.9860611" lon="-18.77148438"><ele>653.7</ele><time>2012-07-24T16:03:44.0000000+00:00</time></trkpt><trkpt lat="63.98608398" lon="-18.7713871"><ele>654.8</ele><time>2012-07-24T16:03:49.0000000+00:00</time></trkpt><trkpt lat="63.98610306" lon="-18.7713089"><ele>655.2</ele><time>2012-07-24T16:03:54.0000000+00:00</time></trkpt><trkpt lat="63.98610306" lon="-18.77129746"><ele>654.2</ele><time>2012-07-24T16:03:59.0000000+00:00</time></trkpt><trkpt lat="63.98610306" lon="-18.77129746"><ele>654.2</ele><time>2012-07-24T16:04:04.0000000+00:00</time></trkpt><trkpt lat="63.98610306" lon="-18.77129555"><ele>654.2</ele><time>2012-07-24T16:04:09.0000000+00:00</time></trkpt><trkpt lat="63.98610306" lon="-18.77129364"><ele>654.1</ele><time>2012-07-24T16:04:14.0000000+00:00</time></trkpt><trkpt lat="63.98610306" lon="-18.77129364"><ele>654.1</ele><time>2012-07-24T16:04:19.0000000+00:00</time></trkpt><trkpt lat="63.98610306" lon="-18.77129364"><ele>654.1</ele><time>2012-07-24T16:04:24.0000000+00:00</time></trkpt><trkpt lat="63.98610306" lon="-18.77129364"><ele>654.1</ele><time>2012-07-24T16:04:29.0000000+00:00</time></trkpt><trkpt lat="63.98610306" lon="-18.77129364"><ele>654.1</ele><time>2012-07-24T16:04:34.0000000+00:00</time></trkpt><trkpt lat="63.98610306" lon="-18.77128983"><ele>654.1</ele><time>2012-07-24T16:04:39.0000000+00:00</time></trkpt><trkpt lat="63.98612213" lon="-18.7712059"><ele>653.7</ele><time>2012-07-24T16:04:44.0000000+00:00</time></trkpt><trkpt lat="63.98616028" lon="-18.7709446"><ele>653.9</ele><time>2012-07-24T16:04:49.0000000+00:00</time></trkpt><trkpt lat="63.98620987" lon="-18.77056885"><ele>654.8</ele><time>2012-07-24T16:04:54.0000000+00:00</time></trkpt><trkpt lat="63.98624039" lon="-18.77026749"><ele>653.8</ele><time>2012-07-24T16:04:59.0000000+00:00</time></trkpt><trkpt lat="63.98624039" lon="-18.77004242"><ele>650.3</ele><time>2012-07-24T16:05:04.0000000+00:00</time></trkpt><trkpt lat="63.98625183" lon="-18.76989746"><ele>651.8</ele><time>2012-07-24T16:05:09.0000000+00:00</time></trkpt><trkpt lat="63.98623276" lon="-18.76958656"><ele>652.4</ele><time>2012-07-24T16:05:14.0000000+00:00</time></trkpt><trkpt lat="63.9861908" lon="-18.76925278"><ele>652.2</ele><time>2012-07-24T16:05:19.0000000+00:00</time></trkpt><trkpt lat="63.98617172" lon="-18.7691803"><ele>654.4</ele><time>2012-07-24T16:05:24.0000000+00:00</time></trkpt><trkpt lat="63.98616791" lon="-18.76913452"><ele>654.7</ele><time>2012-07-24T16:05:29.0000000+00:00</time></trkpt><trkpt lat="63.98614502" lon="-18.76906586"><ele>656.5</ele><time>2012-07-24T16:05:34.0000000+00:00</time></trkpt><trkpt lat="63.98613358" lon="-18.76898003"><ele>655.7</ele><time>2012-07-24T16:05:39.0000000+00:00</time></trkpt><trkpt lat="63.98610687" lon="-18.76891518"><ele>657.1</ele><time>2012-07-24T16:05:44.0000000+00:00</time></trkpt><trkpt lat="63.98608398" lon="-18.7688446"><ele>659.4</ele><time>2012-07-24T16:05:49.0000000+00:00</time></trkpt><trkpt lat="63.98606491" lon="-18.76876259"><ele>659.7</ele><time>2012-07-24T16:05:54.0000000+00:00</time></trkpt><trkpt lat="63.98603821" lon="-18.76870728"><ele>661.9</ele><time>2012-07-24T16:05:59.0000000+00:00</time></trkpt><trkpt lat="63.98601532" lon="-18.76865196"><ele>662.5</ele><time>2012-07-24T16:06:04.0000000+00:00</time></trkpt><trkpt lat="63.98599625" lon="-18.76857376"><ele>662.3</ele><time>2012-07-24T16:06:09.0000000+00:00</time></trkpt><trkpt lat="63.98597717" lon="-18.76847649"><ele>662.3</ele><time>2012-07-24T16:06:14.0000000+00:00</time></trkpt><trkpt lat="63.98594666" lon="-18.76842499"><ele>662.6</ele><time>2012-07-24T16:06:19.0000000+00:00</time></trkpt><trkpt lat="63.98590851" lon="-18.76835823"><ele>663.0</ele><time>2012-07-24T16:06:24.0000000+00:00</time></trkpt><trkpt lat="63.98586655" lon="-18.76830101"><ele>664.2</ele><time>2012-07-24T16:06:29.0000000+00:00</time></trkpt><trkpt lat="63.98583603" lon="-18.76825333"><ele>665.0</ele><time>2012-07-24T16:06:34.0000000+00:00</time></trkpt><trkpt lat="63.98580551" lon="-18.7681675"><ele>664.8</ele><time>2012-07-24T16:06:39.0000000+00:00</time></trkpt><trkpt lat="63.98579788" lon="-18.76807976"><ele>664.7</ele><time>2012-07-24T16:06:44.0000000+00:00</time></trkpt><trkpt lat="63.98578262" lon="-18.76799202"><ele>663.5</ele><time>2012-07-24T16:06:49.0000000+00:00</time></trkpt><trkpt lat="63.98576355" lon="-18.7679081"><ele>664.4</ele><time>2012-07-24T16:06:54.0000000+00:00</time></trkpt><trkpt lat="63.98572922" lon="-18.76781654"><ele>665.2</ele><time>2012-07-24T16:06:59.0000000+00:00</time></trkpt><trkpt lat="63.98569107" lon="-18.76775742"><ele>665.9</ele><time>2012-07-24T16:07:04.0000000+00:00</time></trkpt><trkpt lat="63.98566437" lon="-18.76769638"><ele>666.5</ele><time>2012-07-24T16:07:09.0000000+00:00</time></trkpt><trkpt lat="63.98562622" lon="-18.76765442"><ele>667.1</ele><time>2012-07-24T16:07:14.0000000+00:00</time></trkpt><trkpt lat="63.98558044" lon="-18.76764679"><ele>668.1</ele><time>2012-07-24T16:07:19.0000000+00:00</time></trkpt><trkpt lat="63.98553085" lon="-18.76760864"><ele>668.6</ele><time>2012-07-24T16:07:24.0000000+00:00</time></trkpt><trkpt lat="63.98549271" lon="-18.76757431"><ele>668.9</ele><time>2012-07-24T16:07:29.0000000+00:00</time></trkpt><trkpt lat="63.98544312" lon="-18.76753998"><ele>669.9</ele><time>2012-07-24T16:07:34.0000000+00:00</time></trkpt><trkpt lat="63.98539352" lon="-18.76753426"><ele>670.5</ele><time>2012-07-24T16:07:39.0000000+00:00</time></trkpt><trkpt lat="63.98534393" lon="-18.76752472"><ele>671.3</ele><time>2012-07-24T16:07:44.0000000+00:00</time></trkpt><trkpt lat="63.98530197" lon="-18.76753044"><ele>671.6</ele><time>2012-07-24T16:07:49.0000000+00:00</time></trkpt><trkpt lat="63.98524475" lon="-18.76754379"><ele>672.8</ele><time>2012-07-24T16:07:54.0000000+00:00</time></trkpt><trkpt lat="63.98519898" lon="-18.76758003"><ele>674.0</ele><time>2012-07-24T16:07:59.0000000+00:00</time></trkpt><trkpt lat="63.98514557" lon="-18.76755524"><ele>674.1</ele><time>2012-07-24T16:08:04.0000000+00:00</time></trkpt><trkpt lat="63.98509979" lon="-18.76758385"><ele>673.6</ele><time>2012-07-24T16:08:09.0000000+00:00</time></trkpt><trkpt lat="63.98503876" lon="-18.7675724"><ele>673.5</ele><time>2012-07-24T16:08:14.0000000+00:00</time></trkpt><trkpt lat="63.98498535" lon="-18.76762009"><ele>673.1</ele><time>2012-07-24T16:08:19.0000000+00:00</time></trkpt><trkpt lat="63.98493576" lon="-18.76763153"><ele>673.6</ele><time>2012-07-24T16:08:24.0000000+00:00</time></trkpt><trkpt lat="63.9848938" lon="-18.7676506"><ele>674.3</ele><time>2012-07-24T16:08:29.0000000+00:00</time></trkpt><trkpt lat="63.98485947" lon="-18.76765633"><ele>674.7</ele><time>2012-07-24T16:08:34.0000000+00:00</time></trkpt><trkpt lat="63.98481751" lon="-18.76766014"><ele>673.7</ele><time>2012-07-24T16:08:39.0000000+00:00</time></trkpt><trkpt lat="63.98479462" lon="-18.76768112"><ele>673.7</ele><time>2012-07-24T16:08:44.0000000+00:00</time></trkpt><trkpt lat="63.98474884" lon="-18.76768875"><ele>674.5</ele><time>2012-07-24T16:08:49.0000000+00:00</time></trkpt><trkpt lat="63.98471069" lon="-18.76771927"><ele>675.3</ele><time>2012-07-24T16:08:54.0000000+00:00</time></trkpt><trkpt lat="63.98467636" lon="-18.76773644"><ele>675.4</ele><time>2012-07-24T16:08:59.0000000+00:00</time></trkpt><trkpt lat="63.9846344" lon="-18.76774979"><ele>675.7</ele><time>2012-07-24T16:09:04.0000000+00:00</time></trkpt><trkpt lat="63.98458481" lon="-18.76777458"><ele>676.5</ele><time>2012-07-24T16:09:09.0000000+00:00</time></trkpt><trkpt lat="63.98452759" lon="-18.76777077"><ele>676.8</ele><time>2012-07-24T16:09:14.0000000+00:00</time></trkpt><trkpt lat="63.98451233" lon="-18.76779938"><ele>677.8</ele><time>2012-07-24T16:09:19.0000000+00:00</time></trkpt><trkpt lat="63.98443985" lon="-18.76784515"><ele>677.5</ele><time>2012-07-24T16:09:24.0000000+00:00</time></trkpt><trkpt lat="63.98436356" lon="-18.76788712"><ele>677.5</ele><time>2012-07-24T16:09:29.0000000+00:00</time></trkpt><trkpt lat="63.98427963" lon="-18.76796532"><ele>677.7</ele><time>2012-07-24T16:09:34.0000000+00:00</time></trkpt><trkpt lat="63.98421097" lon="-18.76800346"><ele>677.8</ele><time>2012-07-24T16:09:39.0000000+00:00</time></trkpt><trkpt lat="63.9841423" lon="-18.76807022"><ele>677.7</ele><time>2012-07-24T16:09:44.0000000+00:00</time></trkpt><trkpt lat="63.98406601" lon="-18.76812744"><ele>678.2</ele><time>2012-07-24T16:09:49.0000000+00:00</time></trkpt><trkpt lat="63.98397446" lon="-18.76818848"><ele>678.4</ele><time>2012-07-24T16:09:54.0000000+00:00</time></trkpt><trkpt lat="63.98387146" lon="-18.76827431"><ele>677.8</ele><time>2012-07-24T16:09:59.0000000+00:00</time></trkpt><trkpt lat="63.98374176" lon="-18.7683754"><ele>678.8</ele><time>2012-07-24T16:10:04.0000000+00:00</time></trkpt><trkpt lat="63.98360825" lon="-18.76854324"><ele>678.4</ele><time>2012-07-24T16:10:09.0000000+00:00</time></trkpt><trkpt lat="63.98347092" lon="-18.76875687"><ele>676.9</ele><time>2012-07-24T16:10:14.0000000+00:00</time></trkpt><trkpt lat="63.98339081" lon="-18.76896668"><ele>671.6</ele><time>2012-07-24T16:10:19.0000000+00:00</time></trkpt><trkpt lat="63.98335648" lon="-18.76918602"><ele>672.9</ele><time>2012-07-24T16:10:24.0000000+00:00</time></trkpt><trkpt lat="63.98332977" lon="-18.76947212"><ele>673.8</ele><time>2012-07-24T16:10:29.0000000+00:00</time></trkpt><trkpt lat="63.98331451" lon="-18.76974106"><ele>672.0</ele><time>2012-07-24T16:10:34.0000000+00:00</time></trkpt><trkpt lat="63.98328018" lon="-18.76996231"><ele>672.8</ele><time>2012-07-24T16:10:39.0000000+00:00</time></trkpt><trkpt lat="63.98324966" lon="-18.77014923"><ele>671.9</ele><time>2012-07-24T16:10:44.0000000+00:00</time></trkpt><trkpt lat="63.9832077" lon="-18.7702961"><ele>671.3</ele><time>2012-07-24T16:10:49.0000000+00:00</time></trkpt><trkpt lat="63.98318481" lon="-18.77040672"><ele>671.2</ele><time>2012-07-24T16:10:54.0000000+00:00</time></trkpt><trkpt lat="63.98314285" lon="-18.77052879"><ele>675.1</ele><time>2012-07-24T16:10:59.0000000+00:00</time></trkpt><trkpt lat="63.98308182" lon="-18.7706089"><ele>676.3</ele><time>2012-07-24T16:11:04.0000000+00:00</time></trkpt><trkpt lat="63.98304749" lon="-18.77064133"><ele>677.0</ele><time>2012-07-24T16:11:09.0000000+00:00</time></trkpt><trkpt lat="63.98304367" lon="-18.77063179"><ele>677.3</ele><time>2012-07-24T16:11:14.0000000+00:00</time></trkpt><trkpt lat="63.98303223" lon="-18.77062607"><ele>677.3</ele><time>2012-07-24T16:11:19.0000000+00:00</time></trkpt><trkpt lat="63.98299408" lon="-18.77064514"><ele>677.5</ele><time>2012-07-24T16:11:24.0000000+00:00</time></trkpt><trkpt lat="63.98295975" lon="-18.77064323"><ele>677.6</ele><time>2012-07-24T16:11:29.0000000+00:00</time></trkpt><trkpt lat="63.98293304" lon="-18.77064323"><ele>677.8</ele><time>2012-07-24T16:11:34.0000000+00:00</time></trkpt><trkpt lat="63.98291397" lon="-18.77062988"><ele>678.0</ele><time>2012-07-24T16:11:39.0000000+00:00</time></trkpt><trkpt lat="63.98287201" lon="-18.77056694"><ele>679.6</ele><time>2012-07-24T16:11:44.0000000+00:00</time></trkpt><trkpt lat="63.98284531" lon="-18.77050972"><ele>680.3</ele><time>2012-07-24T16:11:49.0000000+00:00</time></trkpt><trkpt lat="63.98283386" lon="-18.77045059"><ele>681.0</ele><time>2012-07-24T16:11:54.0000000+00:00</time></trkpt><trkpt lat="63.9828186" lon="-18.77041054"><ele>681.7</ele><time>2012-07-24T16:11:59.0000000+00:00</time></trkpt><trkpt lat="63.98280335" lon="-18.77036858"><ele>682.7</ele><time>2012-07-24T16:12:04.0000000+00:00</time></trkpt><trkpt lat="63.98280335" lon="-18.7703743"><ele>683.1</ele><time>2012-07-24T16:12:09.0000000+00:00</time></trkpt><trkpt lat="63.98278809" lon="-18.77031136"><ele>683.6</ele><time>2012-07-24T16:12:14.0000000+00:00</time></trkpt><trkpt lat="63.98276901" lon="-18.77023125"><ele>683.9</ele><time>2012-07-24T16:12:19.0000000+00:00</time></trkpt><trkpt lat="63.98274231" lon="-18.77014732"><ele>683.7</ele><time>2012-07-24T16:12:24.0000000+00:00</time></trkpt><trkpt lat="63.9827385" lon="-18.77013016"><ele>684.2</ele><time>2012-07-24T16:12:29.0000000+00:00</time></trkpt><trkpt lat="63.98273468" lon="-18.77009583"><ele>684.5</ele><time>2012-07-24T16:12:34.0000000+00:00</time></trkpt><trkpt lat="63.98272324" lon="-18.77005005"><ele>684.7</ele><time>2012-07-24T16:12:39.0000000+00:00</time></trkpt><trkpt lat="63.98270798" lon="-18.77001953"><ele>685.6</ele><time>2012-07-24T16:12:44.0000000+00:00</time></trkpt><trkpt lat="63.98270035" lon="-18.76999092"><ele>686.1</ele><time>2012-07-24T16:12:49.0000000+00:00</time></trkpt><trkpt lat="63.98269272" lon="-18.76993942"><ele>686.4</ele><time>2012-07-24T16:12:54.0000000+00:00</time></trkpt><trkpt lat="63.98268509" lon="-18.76989937"><ele>686.9</ele><time>2012-07-24T16:12:59.0000000+00:00</time></trkpt><trkpt lat="63.98267365" lon="-18.76985169"><ele>688.0</ele><time>2012-07-24T16:13:04.0000000+00:00</time></trkpt><trkpt lat="63.9826622" lon="-18.76982498"><ele>688.8</ele><time>2012-07-24T16:13:09.0000000+00:00</time></trkpt><trkpt lat="63.98265839" lon="-18.76981926"><ele>688.8</ele><time>2012-07-24T16:13:14.0000000+00:00</time></trkpt><trkpt lat="63.98264694" lon="-18.76977158"><ele>689.7</ele><time>2012-07-24T16:13:19.0000000+00:00</time></trkpt><trkpt lat="63.98262787" lon="-18.76971245"><ele>690.0</ele><time>2012-07-24T16:13:24.0000000+00:00</time></trkpt><trkpt lat="63.98262405" lon="-18.76969719"><ele>690.9</ele><time>2012-07-24T16:13:29.0000000+00:00</time></trkpt><trkpt lat="63.9826088" lon="-18.76961708"><ele>691.8</ele><time>2012-07-24T16:13:34.0000000+00:00</time></trkpt><trkpt lat="63.98258209" lon="-18.76953507"><ele>692.6</ele><time>2012-07-24T16:13:39.0000000+00:00</time></trkpt><trkpt lat="63.9825592" lon="-18.76944923"><ele>693.1</ele><time>2012-07-24T16:13:44.0000000+00:00</time></trkpt><trkpt lat="63.98254013" lon="-18.76937676"><ele>693.9</ele><time>2012-07-24T16:13:49.0000000+00:00</time></trkpt><trkpt lat="63.98252106" lon="-18.76931191"><ele>694.6</ele><time>2012-07-24T16:13:54.0000000+00:00</time></trkpt><trkpt lat="63.9825058" lon="-18.76924706"><ele>695.2</ele><time>2012-07-24T16:13:59.0000000+00:00</time></trkpt><trkpt lat="63.98249817" lon="-18.76915932"><ele>695.7</ele><time>2012-07-24T16:14:04.0000000+00:00</time></trkpt><trkpt lat="63.9824791" lon="-18.76909447"><ele>696.1</ele><time>2012-07-24T16:14:09.0000000+00:00</time></trkpt><trkpt lat="63.98246384" lon="-18.76902008"><ele>696.8</ele><time>2012-07-24T16:14:14.0000000+00:00</time></trkpt><trkpt lat="63.98244095" lon="-18.76893807"><ele>697.4</ele><time>2012-07-24T16:14:19.0000000+00:00</time></trkpt><trkpt lat="63.98242188" lon="-18.7688694"><ele>697.4</ele><time>2012-07-24T16:14:24.0000000+00:00</time></trkpt><trkpt lat="63.98241043" lon="-18.76880264"><ele>697.8</ele><time>2012-07-24T16:14:29.0000000+00:00</time></trkpt><trkpt lat="63.98239517" lon="-18.76872063"><ele>698.3</ele><time>2012-07-24T16:14:34.0000000+00:00</time></trkpt><trkpt lat="63.98237991" lon="-18.76864052"><ele>698.7</ele><time>2012-07-24T16:14:39.0000000+00:00</time></trkpt><trkpt lat="63.98235703" lon="-18.7685585"><ele>699.3</ele><time>2012-07-24T16:14:44.0000000+00:00</time></trkpt><trkpt lat="63.98233795" lon="-18.76848221"><ele>699.6</ele><time>2012-07-24T16:14:49.0000000+00:00</time></trkpt><trkpt lat="63.98232269" lon="-18.76839638"><ele>699.8</ele><time>2012-07-24T16:14:54.0000000+00:00</time></trkpt><trkpt lat="63.98231506" lon="-18.76836968"><ele>699.8</ele><time>2012-07-24T16:14:59.0000000+00:00</time></trkpt><trkpt lat="63.98231125" lon="-18.76836205"><ele>699.8</ele><time>2012-07-24T16:15:04.0000000+00:00</time></trkpt><trkpt lat="63.98229981" lon="-18.76829147"><ele>699.6</ele><time>2012-07-24T16:15:09.0000000+00:00</time></trkpt><trkpt lat="63.98228073" lon="-18.76822281"><ele>700.2</ele><time>2012-07-24T16:15:14.0000000+00:00</time></trkpt><trkpt lat="63.98226547" lon="-18.76815224"><ele>699.9</ele><time>2012-07-24T16:15:19.0000000+00:00</time></trkpt><trkpt lat="63.98225021" lon="-18.76810837"><ele>699.8</ele><time>2012-07-24T16:15:24.0000000+00:00</time></trkpt><trkpt lat="63.98222733" lon="-18.7680645"><ele>700.8</ele><time>2012-07-24T16:15:29.0000000+00:00</time></trkpt><trkpt lat="63.98221588" lon="-18.76802063"><ele>701.6</ele><time>2012-07-24T16:15:34.0000000+00:00</time></trkpt><trkpt lat="63.98221207" lon="-18.76802635"><ele>701.4</ele><time>2012-07-24T16:15:39.0000000+00:00</time></trkpt><trkpt lat="63.98220825" lon="-18.76801682"><ele>701.5</ele><time>2012-07-24T16:15:44.0000000+00:00</time></trkpt><trkpt lat="63.98219299" lon="-18.76796341"><ele>702.5</ele><time>2012-07-24T16:15:49.0000000+00:00</time></trkpt><trkpt lat="63.98217773" lon="-18.76791763"><ele>703.2</ele><time>2012-07-24T16:15:54.0000000+00:00</time></trkpt><trkpt lat="63.98216629" lon="-18.76789284"><ele>703.5</ele><time>2012-07-24T16:15:59.0000000+00:00</time></trkpt><trkpt lat="63.98215866" lon="-18.76787567"><ele>703.9</ele><time>2012-07-24T16:16:04.0000000+00:00</time></trkpt><trkpt lat="63.9821434" lon="-18.76782227"><ele>705.1</ele><time>2012-07-24T16:16:09.0000000+00:00</time></trkpt><trkpt lat="63.98213577" lon="-18.76776314"><ele>705.8</ele><time>2012-07-24T16:16:14.0000000+00:00</time></trkpt><trkpt lat="63.98212051" lon="-18.76769447"><ele>706.3</ele><time>2012-07-24T16:16:19.0000000+00:00</time></trkpt><trkpt lat="63.98210144" lon="-18.76764679"><ele>706.9</ele><time>2012-07-24T16:16:24.0000000+00:00</time></trkpt><trkpt lat="63.98210526" lon="-18.76765633"><ele>706.7</ele><time>2012-07-24T16:16:29.0000000+00:00</time></trkpt><trkpt lat="63.98209763" lon="-18.76762772"><ele>707.1</ele><time>2012-07-24T16:16:34.0000000+00:00</time></trkpt><trkpt lat="63.98208237" lon="-18.76756859"><ele>707.6</ele><time>2012-07-24T16:16:39.0000000+00:00</time></trkpt><trkpt lat="63.98206711" lon="-18.76750946"><ele>708.2</ele><time>2012-07-24T16:16:44.0000000+00:00</time></trkpt><trkpt lat="63.98205566" lon="-18.7674427"><ele>709.0</ele><time>2012-07-24T16:16:49.0000000+00:00</time></trkpt><trkpt lat="63.98204041" lon="-18.76740265"><ele>709.6</ele><time>2012-07-24T16:16:54.0000000+00:00</time></trkpt><trkpt lat="63.98202515" lon="-18.76734924"><ele>710.4</ele><time>2012-07-24T16:16:59.0000000+00:00</time></trkpt><trkpt lat="63.98200989" lon="-18.76730347"><ele>711.2</ele><time>2012-07-24T16:17:04.0000000+00:00</time></trkpt><trkpt lat="63.98200226" lon="-18.76723862"><ele>711.7</ele><time>2012-07-24T16:17:09.0000000+00:00</time></trkpt><trkpt lat="63.98199844" lon="-18.76723671"><ele>711.7</ele><time>2012-07-24T16:17:14.0000000+00:00</time></trkpt><trkpt lat="63.98199844" lon="-18.76719093"><ele>711.9</ele><time>2012-07-24T16:17:19.0000000+00:00</time></trkpt><trkpt lat="63.98199463" lon="-18.76711655"><ele>712.7</ele><time>2012-07-24T16:17:24.0000000+00:00</time></trkpt><trkpt lat="63.98199463" lon="-18.76704979"><ele>713.4</ele><time>2012-07-24T16:17:29.0000000+00:00</time></trkpt><trkpt lat="63.98199463" lon="-18.76697731"><ele>714.1</ele><time>2012-07-24T16:17:34.0000000+00:00</time></trkpt><trkpt lat="63.98199844" lon="-18.76686478"><ele>714.8</ele><time>2012-07-24T16:17:39.0000000+00:00</time></trkpt><trkpt lat="63.98200989" lon="-18.76678085"><ele>715.6</ele><time>2012-07-24T16:17:44.0000000+00:00</time></trkpt><trkpt lat="63.98202133" lon="-18.76670265"><ele>715.8</ele><time>2012-07-24T16:17:49.0000000+00:00</time></trkpt><trkpt lat="63.98202133" lon="-18.76662827"><ele>716.0</ele><time>2012-07-24T16:17:54.0000000+00:00</time></trkpt><trkpt lat="63.98201752" lon="-18.76663971"><ele>716.4</ele><time>2012-07-24T16:17:59.0000000+00:00</time></trkpt><trkpt lat="63.98201752" lon="-18.76663971"><ele>716.4</ele><time>2012-07-24T16:18:04.0000000+00:00</time></trkpt><trkpt lat="63.98201752" lon="-18.76663971"><ele>716.4</ele><time>2012-07-24T16:18:09.0000000+00:00</time></trkpt><trkpt lat="63.98201752" lon="-18.76663971"><ele>716.4</ele><time>2012-07-24T16:18:14.0000000+00:00</time></trkpt><trkpt lat="63.98201752" lon="-18.76663971"><ele>716.4</ele><time>2012-07-24T16:18:19.0000000+00:00</time></trkpt><trkpt lat="63.98201752" lon="-18.76663971"><ele>716.4</ele><time>2012-07-24T16:18:24.0000000+00:00</time></trkpt><trkpt lat="63.98201752" lon="-18.76663971"><ele>716.4</ele><time>2012-07-24T16:18:29.0000000+00:00</time></trkpt><trkpt lat="63.98201752" lon="-18.76663971"><ele>716.4</ele><time>2012-07-24T16:18:34.0000000+00:00</time></trkpt><trkpt lat="63.98201752" lon="-18.76663971"><ele>716.4</ele><time>2012-07-24T16:18:39.0000000+00:00</time></trkpt><trkpt lat="63.98201752" lon="-18.76663971"><ele>716.4</ele><time>2012-07-24T16:18:44.0000000+00:00</time></trkpt><trkpt lat="63.98201752" lon="-18.76663971"><ele>716.5</ele><time>2012-07-24T16:18:49.0000000+00:00</time></trkpt><trkpt lat="63.98201752" lon="-18.76663971"><ele>716.5</ele><time>2012-07-24T16:18:54.0000000+00:00</time></trkpt><trkpt lat="63.98201752" lon="-18.76663971"><ele>716.5</ele><time>2012-07-24T16:18:59.0000000+00:00</time></trkpt><trkpt lat="63.98201752" lon="-18.7666378"><ele>716.5</ele><time>2012-07-24T16:19:04.0000000+00:00</time></trkpt><trkpt lat="63.98201752" lon="-18.76662445"><ele>716.2</ele><time>2012-07-24T16:19:09.0000000+00:00</time></trkpt><trkpt lat="63.9820137" lon="-18.76661301"><ele>716.0</ele><time>2012-07-24T16:19:14.0000000+00:00</time></trkpt><trkpt lat="63.9820137" lon="-18.76660919"><ele>716.0</ele><time>2012-07-24T16:19:19.0000000+00:00</time></trkpt><trkpt lat="63.98202133" lon="-18.76640892"><ele>715.6</ele><time>2012-07-24T16:19:24.0000000+00:00</time></trkpt><trkpt lat="63.981987" lon="-18.76597023"><ele>713.8</ele><time>2012-07-24T16:19:29.0000000+00:00</time></trkpt><trkpt lat="63.98192596" lon="-18.76523399"><ele>710.1</ele><time>2012-07-24T16:19:34.0000000+00:00</time></trkpt><trkpt lat="63.98188019" lon="-18.76446343"><ele>708.6</ele><time>2012-07-24T16:19:39.0000000+00:00</time></trkpt><trkpt lat="63.98186493" lon="-18.76384544"><ele>707.4</ele><time>2012-07-24T16:19:44.0000000+00:00</time></trkpt><trkpt lat="63.98189163" lon="-18.7635994"><ele>706.6</ele><time>2012-07-24T16:19:49.0000000+00:00</time></trkpt><trkpt lat="63.98195648" lon="-18.76320648"><ele>705.2</ele><time>2012-07-24T16:19:54.0000000+00:00</time></trkpt><trkpt lat="63.98196793" lon="-18.76248932"><ele>702.5</ele><time>2012-07-24T16:19:59.0000000+00:00</time></trkpt><trkpt lat="63.9818573" lon="-18.76162148"><ele>699.8</ele><time>2012-07-24T16:20:04.0000000+00:00</time></trkpt><trkpt lat="63.98160553" lon="-18.76081657"><ele>695.7</ele><time>2012-07-24T16:20:09.0000000+00:00</time></trkpt><trkpt lat="63.98138046" lon="-18.76027107"><ele>693.0</ele><time>2012-07-24T16:20:14.0000000+00:00</time></trkpt><trkpt lat="63.98120117" lon="-18.75998879"><ele>690.1</ele><time>2012-07-24T16:20:19.0000000+00:00</time></trkpt><trkpt lat="63.98108292" lon="-18.75987053"><ele>688.8</ele><time>2012-07-24T16:20:24.0000000+00:00</time></trkpt><trkpt lat="63.98093796" lon="-18.75980568"><ele>690.4</ele><time>2012-07-24T16:20:29.0000000+00:00</time></trkpt><trkpt lat="63.98077011" lon="-18.75971603"><ele>691.3</ele><time>2012-07-24T16:20:34.0000000+00:00</time></trkpt><trkpt lat="63.98058319" lon="-18.75962639"><ele>691.2</ele><time>2012-07-24T16:20:39.0000000+00:00</time></trkpt><trkpt lat="63.98038101" lon="-18.7595253"><ele>691.6</ele><time>2012-07-24T16:20:44.0000000+00:00</time></trkpt><trkpt lat="63.98020172" lon="-18.75941277"><ele>692.1</ele><time>2012-07-24T16:20:49.0000000+00:00</time></trkpt><trkpt lat="63.98006058" lon="-18.7592926"><ele>691.3</ele><time>2012-07-24T16:20:54.0000000+00:00</time></trkpt><trkpt lat="63.97994614" lon="-18.7591095"><ele>691.1</ele><time>2012-07-24T16:20:59.0000000+00:00</time></trkpt><trkpt lat="63.9798584" lon="-18.7588768"><ele>691.6</ele><time>2012-07-24T16:21:04.0000000+00:00</time></trkpt><trkpt lat="63.97978592" lon="-18.75863648"><ele>692.3</ele><time>2012-07-24T16:21:09.0000000+00:00</time></trkpt><trkpt lat="63.97972107" lon="-18.75847244"><ele>692.0</ele><time>2012-07-24T16:21:14.0000000+00:00</time></trkpt><trkpt lat="63.97967529" lon="-18.758358"><ele>692.1</ele><time>2012-07-24T16:21:19.0000000+00:00</time></trkpt><trkpt lat="63.97967529" lon="-18.75835419"><ele>692.3</ele><time>2012-07-24T16:21:24.0000000+00:00</time></trkpt><trkpt lat="63.97967529" lon="-18.75835419"><ele>692.4</ele><time>2012-07-24T16:21:29.0000000+00:00</time></trkpt><trkpt lat="63.97967529" lon="-18.75835419"><ele>692.3</ele><time>2012-07-24T16:21:34.0000000+00:00</time></trkpt><trkpt lat="63.97967529" lon="-18.75835419"><ele>692.4</ele><time>2012-07-24T16:21:39.0000000+00:00</time></trkpt><trkpt lat="63.97967529" lon="-18.75835419"><ele>692.4</ele><time>2012-07-24T16:21:44.0000000+00:00</time></trkpt><trkpt lat="63.97967529" lon="-18.75835419"><ele>692.4</ele><time>2012-07-24T16:21:49.0000000+00:00</time></trkpt><trkpt lat="63.97967529" lon="-18.75835419"><ele>692.4</ele><time>2012-07-24T16:21:54.0000000+00:00</time></trkpt><trkpt lat="63.97967529" lon="-18.75835419"><ele>692.4</ele><time>2012-07-24T16:21:59.0000000+00:00</time></trkpt><trkpt lat="63.97967529" lon="-18.75835419"><ele>692.4</ele><time>2012-07-24T16:22:04.0000000+00:00</time></trkpt><trkpt lat="63.97967529" lon="-18.75835419"><ele>692.4</ele><time>2012-07-24T16:22:09.0000000+00:00</time></trkpt><trkpt lat="63.97967529" lon="-18.75835419"><ele>692.4</ele><time>2012-07-24T16:22:14.0000000+00:00</time></trkpt><trkpt lat="63.97967529" lon="-18.75835419"><ele>692.4</ele><time>2012-07-24T16:22:19.0000000+00:00</time></trkpt><trkpt lat="63.97967529" lon="-18.75835419"><ele>692.4</ele><time>2012-07-24T16:22:24.0000000+00:00</time></trkpt><trkpt lat="63.97967529" lon="-18.75835419"><ele>692.4</ele><time>2012-07-24T16:22:29.0000000+00:00</time></trkpt><trkpt lat="63.97967529" lon="-18.75835419"><ele>692.4</ele><time>2012-07-24T16:22:34.0000000+00:00</time></trkpt><trkpt lat="63.97967529" lon="-18.75835419"><ele>692.4</ele><time>2012-07-24T16:22:39.0000000+00:00</time></trkpt><trkpt lat="63.97967529" lon="-18.75835419"><ele>692.4</ele><time>2012-07-24T16:22:44.0000000+00:00</time></trkpt><trkpt lat="63.97967529" lon="-18.75835419"><ele>692.4</ele><time>2012-07-24T16:22:49.0000000+00:00</time></trkpt><trkpt lat="63.97967529" lon="-18.75835419"><ele>692.4</ele><time>2012-07-24T16:22:54.0000000+00:00</time></trkpt><trkpt lat="63.97967529" lon="-18.75835419"><ele>692.4</ele><time>2012-07-24T16:22:59.0000000+00:00</time></trkpt><trkpt lat="63.97967529" lon="-18.75835419"><ele>692.4</ele><time>2012-07-24T16:23:04.0000000+00:00</time></trkpt><trkpt lat="63.97967529" lon="-18.75835228"><ele>692.4</ele><time>2012-07-24T16:23:09.0000000+00:00</time></trkpt><trkpt lat="63.97967529" lon="-18.75835228"><ele>692.4</ele><time>2012-07-24T16:23:14.0000000+00:00</time></trkpt><trkpt lat="63.97967529" lon="-18.75835228"><ele>692.4</ele><time>2012-07-24T16:23:19.0000000+00:00</time></trkpt><trkpt lat="63.97967529" lon="-18.75835228"><ele>692.4</ele><time>2012-07-24T16:23:24.0000000+00:00</time></trkpt><trkpt lat="63.97967529" lon="-18.75835228"><ele>692.4</ele><time>2012-07-24T16:23:29.0000000+00:00</time></trkpt><trkpt lat="63.97967529" lon="-18.75835228"><ele>692.4</ele><time>2012-07-24T16:23:34.0000000+00:00</time></trkpt><trkpt lat="63.97967529" lon="-18.75835228"><ele>692.4</ele><time>2012-07-24T16:23:39.0000000+00:00</time></trkpt><trkpt lat="63.97967529" lon="-18.75835228"><ele>692.3</ele><time>2012-07-24T16:23:44.0000000+00:00</time></trkpt><trkpt lat="63.97967529" lon="-18.75835228"><ele>692.3</ele><time>2012-07-24T16:23:49.0000000+00:00</time></trkpt><trkpt lat="63.97967529" lon="-18.75835228"><ele>692.3</ele><time>2012-07-24T16:23:54.0000000+00:00</time></trkpt><trkpt lat="63.97967911" lon="-18.75832748"><ele>692.7</ele><time>2012-07-24T16:23:59.0000000+00:00</time></trkpt><trkpt lat="63.97968292" lon="-18.75832558"><ele>692.7</ele><time>2012-07-24T16:24:04.0000000+00:00</time></trkpt><trkpt lat="63.97967529" lon="-18.75830841"><ele>692.8</ele><time>2012-07-24T16:24:09.0000000+00:00</time></trkpt><trkpt lat="63.97961426" lon="-18.7581234"><ele>692.7</ele><time>2012-07-24T16:24:14.0000000+00:00</time></trkpt><trkpt lat="63.97949219" lon="-18.75780106"><ele>690.8</ele><time>2012-07-24T16:24:19.0000000+00:00</time></trkpt><trkpt lat="63.9793396" lon="-18.75730515"><ele>689.1</ele><time>2012-07-24T16:24:24.0000000+00:00</time></trkpt><trkpt lat="63.97919083" lon="-18.75688171"><ele>688.0</ele><time>2012-07-24T16:24:29.0000000+00:00</time></trkpt><trkpt lat="63.97907639" lon="-18.75654984"><ele>688.4</ele><time>2012-07-24T16:24:34.0000000+00:00</time></trkpt><trkpt lat="63.97896195" lon="-18.75627708"><ele>687.5</ele><time>2012-07-24T16:24:39.0000000+00:00</time></trkpt><trkpt lat="63.97880173" lon="-18.75600815"><ele>685.9</ele><time>2012-07-24T16:24:44.0000000+00:00</time></trkpt><trkpt lat="63.97862244" lon="-18.75576019"><ele>685.2</ele><time>2012-07-24T16:24:49.0000000+00:00</time></trkpt><trkpt lat="63.97843933" lon="-18.755476"><ele>684.3</ele><time>2012-07-24T16:24:54.0000000+00:00</time></trkpt><trkpt lat="63.97819519" lon="-18.75502205"><ele>680.6</ele><time>2012-07-24T16:24:59.0000000+00:00</time></trkpt><trkpt lat="63.97791672" lon="-18.75445175"><ele>676.5</ele><time>2012-07-24T16:25:04.0000000+00:00</time></trkpt><trkpt lat="63.97766495" lon="-18.75384903"><ele>673.9</ele><time>2012-07-24T16:25:09.0000000+00:00</time></trkpt><trkpt lat="63.9774437" lon="-18.75324631"><ele>672.2</ele><time>2012-07-24T16:25:14.0000000+00:00</time></trkpt><trkpt lat="63.97729492" lon="-18.75276756"><ele>671.9</ele><time>2012-07-24T16:25:19.0000000+00:00</time></trkpt><trkpt lat="63.97726822" lon="-18.7526207"><ele>672.0</ele><time>2012-07-24T16:25:24.0000000+00:00</time></trkpt><trkpt lat="63.97726822" lon="-18.75263596"><ele>673.0</ele><time>2012-07-24T16:25:29.0000000+00:00</time></trkpt><trkpt lat="63.97726822" lon="-18.75263786"><ele>673.1</ele><time>2012-07-24T16:25:34.0000000+00:00</time></trkpt><trkpt lat="63.9772644" lon="-18.75264359"><ele>673.1</ele><time>2012-07-24T16:25:39.0000000+00:00</time></trkpt><trkpt lat="63.9772644" lon="-18.75264549"><ele>673.1</ele><time>2012-07-24T16:25:44.0000000+00:00</time></trkpt><trkpt lat="63.97724152" lon="-18.75260162"><ele>673.1</ele><time>2012-07-24T16:25:49.0000000+00:00</time></trkpt><trkpt lat="63.97715378" lon="-18.75232506"><ele>672.7</ele><time>2012-07-24T16:25:54.0000000+00:00</time></trkpt><trkpt lat="63.97712708" lon="-18.7522583"><ele>672.0</ele><time>2012-07-24T16:25:59.0000000+00:00</time></trkpt><trkpt lat="63.97712708" lon="-18.75225449"><ele>672.0</ele><time>2012-07-24T16:26:04.0000000+00:00</time></trkpt><trkpt lat="63.9770813" lon="-18.75217629"><ele>671.7</ele><time>2012-07-24T16:26:09.0000000+00:00</time></trkpt><trkpt lat="63.9769516" lon="-18.75181007"><ele>669.6</ele><time>2012-07-24T16:26:14.0000000+00:00</time></trkpt><trkpt lat="63.97669601" lon="-18.75120354"><ele>667.1</ele><time>2012-07-24T16:26:19.0000000+00:00</time></trkpt><trkpt lat="63.97640228" lon="-18.7507"><ele>663.9</ele><time>2012-07-24T16:26:24.0000000+00:00</time></trkpt><trkpt lat="63.97620392" lon="-18.75032234"><ele>661.3</ele><time>2012-07-24T16:26:29.0000000+00:00</time></trkpt><trkpt lat="63.97603226" lon="-18.75003243"><ele>658.7</ele><time>2012-07-24T16:26:34.0000000+00:00</time></trkpt><trkpt lat="63.97589111" lon="-18.74966431"><ele>656.6</ele><time>2012-07-24T16:26:39.0000000+00:00</time></trkpt><trkpt lat="63.97577286" lon="-18.74921608"><ele>655.7</ele><time>2012-07-24T16:26:44.0000000+00:00</time></trkpt><trkpt lat="63.97566223" lon="-18.7487278"><ele>654.7</ele><time>2012-07-24T16:26:49.0000000+00:00</time></trkpt><trkpt lat="63.97554779" lon="-18.74818039"><ele>653.3</ele><time>2012-07-24T16:26:54.0000000+00:00</time></trkpt><trkpt lat="63.97544098" lon="-18.74766541"><ele>653.0</ele><time>2012-07-24T16:26:59.0000000+00:00</time></trkpt><trkpt lat="63.9753685" lon="-18.74725151"><ele>651.5</ele><time>2012-07-24T16:27:04.0000000+00:00</time></trkpt><trkpt lat="63.97536087" lon="-18.74716568"><ele>650.5</ele><time>2012-07-24T16:27:09.0000000+00:00</time></trkpt><trkpt lat="63.97536087" lon="-18.74716759"><ele>650.3</ele><time>2012-07-24T16:27:14.0000000+00:00</time></trkpt><trkpt lat="63.97531891" lon="-18.74704933"><ele>649.2</ele><time>2012-07-24T16:27:19.0000000+00:00</time></trkpt><trkpt lat="63.97513962" lon="-18.74660301"><ele>646.8</ele><time>2012-07-24T16:27:24.0000000+00:00</time></trkpt><trkpt lat="63.97487259" lon="-18.7460537"><ele>643.8</ele><time>2012-07-24T16:27:29.0000000+00:00</time></trkpt><trkpt lat="63.97452927" lon="-18.74547958"><ele>638.1</ele><time>2012-07-24T16:27:34.0000000+00:00</time></trkpt><trkpt lat="63.97419739" lon="-18.74492645"><ele>635.0</ele><time>2012-07-24T16:27:39.0000000+00:00</time></trkpt><trkpt lat="63.97389221" lon="-18.74451637"><ele>634.0</ele><time>2012-07-24T16:27:44.0000000+00:00</time></trkpt><trkpt lat="63.97366333" lon="-18.74417305"><ele>632.4</ele><time>2012-07-24T16:27:49.0000000+00:00</time></trkpt><trkpt lat="63.97346878" lon="-18.74387741"><ele>630.2</ele><time>2012-07-24T16:27:54.0000000+00:00</time></trkpt><trkpt lat="63.97322846" lon="-18.74345589"><ele>627.0</ele><time>2012-07-24T16:27:59.0000000+00:00</time></trkpt><trkpt lat="63.97298813" lon="-18.74279404"><ele>623.5</ele><time>2012-07-24T16:28:04.0000000+00:00</time></trkpt><trkpt lat="63.97268295" lon="-18.74224854"><ele>619.4</ele><time>2012-07-24T16:28:09.0000000+00:00</time></trkpt><trkpt lat="63.97238541" lon="-18.74189568"><ele>619.4</ele><time>2012-07-24T16:28:14.0000000+00:00</time></trkpt><trkpt lat="63.97216034" lon="-18.74157143"><ele>619.2</ele><time>2012-07-24T16:28:19.0000000+00:00</time></trkpt><trkpt lat="63.97195816" lon="-18.7414341"><ele>620.2</ele><time>2012-07-24T16:28:24.0000000+00:00</time></trkpt><trkpt lat="63.97180939" lon="-18.74127007"><ele>619.5</ele><time>2012-07-24T16:28:29.0000000+00:00</time></trkpt><trkpt lat="63.97166061" lon="-18.74105835"><ele>619.8</ele><time>2012-07-24T16:28:34.0000000+00:00</time></trkpt><trkpt lat="63.97148895" lon="-18.74089813"><ele>619.9</ele><time>2012-07-24T16:28:39.0000000+00:00</time></trkpt><trkpt lat="63.97133255" lon="-18.74074936"><ele>619.8</ele><time>2012-07-24T16:28:44.0000000+00:00</time></trkpt><trkpt lat="63.97117615" lon="-18.74060059"><ele>618.7</ele><time>2012-07-24T16:28:49.0000000+00:00</time></trkpt><trkpt lat="63.97101975" lon="-18.74043846"><ele>618.9</ele><time>2012-07-24T16:28:54.0000000+00:00</time></trkpt><trkpt lat="63.97085953" lon="-18.74024773"><ele>618.2</ele><time>2012-07-24T16:28:59.0000000+00:00</time></trkpt><trkpt lat="63.97073364" lon="-18.74002838"><ele>617.2</ele><time>2012-07-24T16:29:04.0000000+00:00</time></trkpt><trkpt lat="63.97064972" lon="-18.73993874"><ele>617.2</ele><time>2012-07-24T16:29:09.0000000+00:00</time></trkpt><trkpt lat="63.9706192" lon="-18.74000549"><ele>617.4</ele><time>2012-07-24T16:29:14.0000000+00:00</time></trkpt><trkpt lat="63.97062302" lon="-18.74001885"><ele>617.7</ele><time>2012-07-24T16:29:19.0000000+00:00</time></trkpt><trkpt lat="63.97062302" lon="-18.74001885"><ele>617.7</ele><time>2012-07-24T16:29:24.0000000+00:00</time></trkpt><trkpt lat="63.97062302" lon="-18.74002266"><ele>617.7</ele><time>2012-07-24T16:29:29.0000000+00:00</time></trkpt><trkpt lat="63.9706192" lon="-18.74004364"><ele>617.7</ele><time>2012-07-24T16:29:34.0000000+00:00</time></trkpt><trkpt lat="63.97062683" lon="-18.74017906"><ele>617.6</ele><time>2012-07-24T16:29:39.0000000+00:00</time></trkpt><trkpt lat="63.97063446" lon="-18.74033165"><ele>618.0</ele><time>2012-07-24T16:29:44.0000000+00:00</time></trkpt><trkpt lat="63.97063446" lon="-18.74034119"><ele>618.2</ele><time>2012-07-24T16:29:49.0000000+00:00</time></trkpt><trkpt lat="63.97063446" lon="-18.74034119"><ele>618.3</ele><time>2012-07-24T16:29:54.0000000+00:00</time></trkpt><trkpt lat="63.97063446" lon="-18.74034119"><ele>618.3</ele><time>2012-07-24T16:29:59.0000000+00:00</time></trkpt><trkpt lat="63.97063446" lon="-18.74034119"><ele>618.3</ele><time>2012-07-24T16:30:04.0000000+00:00</time></trkpt><trkpt lat="63.97063446" lon="-18.74034119"><ele>618.3</ele><time>2012-07-24T16:30:09.0000000+00:00</time></trkpt><trkpt lat="63.97063446" lon="-18.74034119"><ele>618.3</ele><time>2012-07-24T16:30:14.0000000+00:00</time></trkpt><trkpt lat="63.97063446" lon="-18.74034119"><ele>618.3</ele><time>2012-07-24T16:30:19.0000000+00:00</time></trkpt><trkpt lat="63.97063446" lon="-18.74034119"><ele>618.3</ele><time>2012-07-24T16:30:24.0000000+00:00</time></trkpt><trkpt lat="63.97064209" lon="-18.74034691"><ele>618.4</ele><time>2012-07-24T16:30:29.0000000+00:00</time></trkpt><trkpt lat="63.97064972" lon="-18.74035072"><ele>617.8</ele><time>2012-07-24T16:30:34.0000000+00:00</time></trkpt><trkpt lat="63.97064972" lon="-18.74034882"><ele>617.8</ele><time>2012-07-24T16:30:39.0000000+00:00</time></trkpt><trkpt lat="63.97063065" lon="-18.7403183"><ele>617.4</ele><time>2012-07-24T16:30:44.0000000+00:00</time></trkpt><trkpt lat="63.97061157" lon="-18.74021912"><ele>618.5</ele><time>2012-07-24T16:30:49.0000000+00:00</time></trkpt><trkpt lat="63.97060394" lon="-18.74011803"><ele>618.5</ele><time>2012-07-24T16:30:54.0000000+00:00</time></trkpt><trkpt lat="63.97060394" lon="-18.74009514"><ele>618.5</ele><time>2012-07-24T16:30:59.0000000+00:00</time></trkpt><trkpt lat="63.97060394" lon="-18.74008369"><ele>618.7</ele><time>2012-07-24T16:31:04.0000000+00:00</time></trkpt><trkpt lat="63.97062302" lon="-18.73996735"><ele>618.8</ele><time>2012-07-24T16:31:09.0000000+00:00</time></trkpt><trkpt lat="63.97063446" lon="-18.73995209"><ele>618.6</ele><time>2012-07-24T16:31:14.0000000+00:00</time></trkpt><trkpt lat="63.97063446" lon="-18.73995209"><ele>618.6</ele><time>2012-07-24T16:31:19.0000000+00:00</time></trkpt><trkpt lat="63.97063446" lon="-18.73995209"><ele>618.5</ele><time>2012-07-24T16:31:24.0000000+00:00</time></trkpt><trkpt lat="63.97063446" lon="-18.73995209"><ele>618.5</ele><time>2012-07-24T16:31:29.0000000+00:00</time></trkpt><trkpt lat="63.97063446" lon="-18.73995209"><ele>618.5</ele><time>2012-07-24T16:31:34.0000000+00:00</time></trkpt><trkpt lat="63.97063446" lon="-18.73995209"><ele>618.5</ele><time>2012-07-24T16:31:39.0000000+00:00</time></trkpt><trkpt lat="63.97063446" lon="-18.73995209"><ele>618.5</ele><time>2012-07-24T16:31:44.0000000+00:00</time></trkpt><trkpt lat="63.97063446" lon="-18.73995209"><ele>618.5</ele><time>2012-07-24T16:31:49.0000000+00:00</time></trkpt><trkpt lat="63.97063446" lon="-18.73995209"><ele>618.5</ele><time>2012-07-24T16:31:54.0000000+00:00</time></trkpt><trkpt lat="63.97063446" lon="-18.73995209"><ele>618.5</ele><time>2012-07-24T16:31:59.0000000+00:00</time></trkpt><trkpt lat="63.97062302" lon="-18.73999977"><ele>619.3</ele><time>2012-07-24T16:32:04.0000000+00:00</time></trkpt><trkpt lat="63.97062683" lon="-18.74002075"><ele>620.0</ele><time>2012-07-24T16:32:09.0000000+00:00</time></trkpt><trkpt lat="63.97062302" lon="-18.74002647"><ele>620.2</ele><time>2012-07-24T16:32:14.0000000+00:00</time></trkpt><trkpt lat="63.97062302" lon="-18.74002647"><ele>620.2</ele><time>2012-07-24T16:32:19.0000000+00:00</time></trkpt><trkpt lat="63.97062302" lon="-18.74002647"><ele>620.1</ele><time>2012-07-24T16:32:24.0000000+00:00</time></trkpt><trkpt lat="63.97061539" lon="-18.74001885"><ele>620.1</ele><time>2012-07-24T16:32:29.0000000+00:00</time></trkpt><trkpt lat="63.9705925" lon="-18.73999405"><ele>620.1</ele><time>2012-07-24T16:32:34.0000000+00:00</time></trkpt><trkpt lat="63.9705658" lon="-18.73996735"><ele>620.1</ele><time>2012-07-24T16:32:39.0000000+00:00</time></trkpt><trkpt lat="63.97053146" lon="-18.73990822"><ele>619.5</ele><time>2012-07-24T16:32:44.0000000+00:00</time></trkpt><trkpt lat="63.97050858" lon="-18.73984337"><ele>619.4</ele><time>2012-07-24T16:32:49.0000000+00:00</time></trkpt><trkpt lat="63.97050095" lon="-18.73983192"><ele>619.3</ele><time>2012-07-24T16:32:54.0000000+00:00</time></trkpt><trkpt lat="63.97047806" lon="-18.73981667"><ele>619.4</ele><time>2012-07-24T16:32:59.0000000+00:00</time></trkpt><trkpt lat="63.97047424" lon="-18.73982811"><ele>619.7</ele><time>2012-07-24T16:33:04.0000000+00:00</time></trkpt><trkpt lat="63.97042847" lon="-18.73973846"><ele>619.1</ele><time>2012-07-24T16:33:09.0000000+00:00</time></trkpt><trkpt lat="63.97037125" lon="-18.73964691"><ele>618.7</ele><time>2012-07-24T16:33:14.0000000+00:00</time></trkpt><trkpt lat="63.97029877" lon="-18.73956871"><ele>618.2</ele><time>2012-07-24T16:33:19.0000000+00:00</time></trkpt><trkpt lat="63.97022629" lon="-18.73950768"><ele>617.7</ele><time>2012-07-24T16:33:24.0000000+00:00</time></trkpt><trkpt lat="63.97012329" lon="-18.73945236"><ele>618.0</ele><time>2012-07-24T16:33:29.0000000+00:00</time></trkpt><trkpt lat="63.97003937" lon="-18.73939133"><ele>617.9</ele><time>2012-07-24T16:33:34.0000000+00:00</time></trkpt><trkpt lat="63.96995544" lon="-18.73931694"><ele>618.3</ele><time>2012-07-24T16:33:39.0000000+00:00</time></trkpt><trkpt lat="63.96984863" lon="-18.73918915"><ele>617.9</ele><time>2012-07-24T16:33:44.0000000+00:00</time></trkpt><trkpt lat="63.96974182" lon="-18.73907661"><ele>617.9</ele><time>2012-07-24T16:33:49.0000000+00:00</time></trkpt><trkpt lat="63.96962357" lon="-18.73894882"><ele>618.4</ele><time>2012-07-24T16:33:54.0000000+00:00</time></trkpt><trkpt lat="63.96951675" lon="-18.73880386"><ele>618.8</ele><time>2012-07-24T16:33:59.0000000+00:00</time></trkpt><trkpt lat="63.96939087" lon="-18.73864555"><ele>618.9</ele><time>2012-07-24T16:34:04.0000000+00:00</time></trkpt><trkpt lat="63.96925354" lon="-18.73848152"><ele>619.0</ele><time>2012-07-24T16:34:09.0000000+00:00</time></trkpt><trkpt lat="63.96911621" lon="-18.73828697"><ele>619.1</ele><time>2012-07-24T16:34:14.0000000+00:00</time></trkpt><trkpt lat="63.96897125" lon="-18.73812294"><ele>617.9</ele><time>2012-07-24T16:34:19.0000000+00:00</time></trkpt><trkpt lat="63.96881867" lon="-18.73798561"><ele>617.4</ele><time>2012-07-24T16:34:24.0000000+00:00</time></trkpt><trkpt lat="63.96867752" lon="-18.73786545"><ele>618.8</ele><time>2012-07-24T16:34:29.0000000+00:00</time></trkpt><trkpt lat="63.96852112" lon="-18.73779297"><ele>619.3</ele><time>2012-07-24T16:34:34.0000000+00:00</time></trkpt><trkpt lat="63.96837235" lon="-18.73778153"><ele>619.8</ele><time>2012-07-24T16:34:39.0000000+00:00</time></trkpt><trkpt lat="63.9682045" lon="-18.73781395"><ele>620.2</ele><time>2012-07-24T16:34:44.0000000+00:00</time></trkpt><trkpt lat="63.96802521" lon="-18.73785782"><ele>620.4</ele><time>2012-07-24T16:34:49.0000000+00:00</time></trkpt><trkpt lat="63.96785355" lon="-18.73786545"><ele>621.4</ele><time>2012-07-24T16:34:54.0000000+00:00</time></trkpt><trkpt lat="63.96770096" lon="-18.73781776"><ele>620.8</ele><time>2012-07-24T16:34:59.0000000+00:00</time></trkpt><trkpt lat="63.96757126" lon="-18.73767281"><ele>620.7</ele><time>2012-07-24T16:35:04.0000000+00:00</time></trkpt><trkpt lat="63.96743393" lon="-18.7376194"><ele>622.0</ele><time>2012-07-24T16:35:09.0000000+00:00</time></trkpt><trkpt lat="63.9673233" lon="-18.73747253"><ele>622.0</ele><time>2012-07-24T16:35:14.0000000+00:00</time></trkpt><trkpt lat="63.96722412" lon="-18.73737145"><ele>620.1</ele><time>2012-07-24T16:35:19.0000000+00:00</time></trkpt><trkpt lat="63.9671135" lon="-18.73725128"><ele>620.3</ele><time>2012-07-24T16:35:24.0000000+00:00</time></trkpt><trkpt lat="63.96699905" lon="-18.73714066"><ele>619.4</ele><time>2012-07-24T16:35:29.0000000+00:00</time></trkpt><trkpt lat="63.96689987" lon="-18.73701096"><ele>619.4</ele><time>2012-07-24T16:35:34.0000000+00:00</time></trkpt><trkpt lat="63.96683502" lon="-18.7369442"><ele>619.6</ele><time>2012-07-24T16:35:39.0000000+00:00</time></trkpt><trkpt lat="63.96676254" lon="-18.73684502"><ele>620.5</ele><time>2012-07-24T16:35:44.0000000+00:00</time></trkpt><trkpt lat="63.96668625" lon="-18.73673439"><ele>622.4</ele><time>2012-07-24T16:35:49.0000000+00:00</time></trkpt><trkpt lat="63.96662903" lon="-18.73665428"><ele>623.7</ele><time>2012-07-24T16:35:54.0000000+00:00</time></trkpt><trkpt lat="63.96656799" lon="-18.73654175"><ele>623.6</ele><time>2012-07-24T16:35:59.0000000+00:00</time></trkpt><trkpt lat="63.96647644" lon="-18.73641205"><ele>623.8</ele><time>2012-07-24T16:36:04.0000000+00:00</time></trkpt><trkpt lat="63.96641541" lon="-18.73633575"><ele>624.5</ele><time>2012-07-24T16:36:09.0000000+00:00</time></trkpt><trkpt lat="63.96637344" lon="-18.73628616"><ele>624.8</ele><time>2012-07-24T16:36:14.0000000+00:00</time></trkpt><trkpt lat="63.96630096" lon="-18.73620987"><ele>625.3</ele><time>2012-07-24T16:36:19.0000000+00:00</time></trkpt><trkpt lat="63.96623612" lon="-18.73616982"><ele>625.8</ele><time>2012-07-24T16:36:24.0000000+00:00</time></trkpt><trkpt lat="63.96616745" lon="-18.73616219"><ele>626.5</ele><time>2012-07-24T16:36:29.0000000+00:00</time></trkpt><trkpt lat="63.96609116" lon="-18.73612976"><ele>627.3</ele><time>2012-07-24T16:36:34.0000000+00:00</time></trkpt><trkpt lat="63.96604538" lon="-18.73608971"><ele>627.7</ele><time>2012-07-24T16:36:39.0000000+00:00</time></trkpt><trkpt lat="63.96596527" lon="-18.73603821"><ele>628.3</ele><time>2012-07-24T16:36:44.0000000+00:00</time></trkpt><trkpt lat="63.96587753" lon="-18.73596573"><ele>629.6</ele><time>2012-07-24T16:36:49.0000000+00:00</time></trkpt><trkpt lat="63.96578217" lon="-18.73586464"><ele>629.9</ele><time>2012-07-24T16:36:54.0000000+00:00</time></trkpt><trkpt lat="63.96567917" lon="-18.73575211"><ele>629.4</ele><time>2012-07-24T16:36:59.0000000+00:00</time></trkpt><trkpt lat="63.96559906" lon="-18.7356987"><ele>630.4</ele><time>2012-07-24T16:37:04.0000000+00:00</time></trkpt><trkpt lat="63.96559906" lon="-18.73570252"><ele>630.2</ele><time>2012-07-24T16:37:09.0000000+00:00</time></trkpt><trkpt lat="63.96559906" lon="-18.7356987"><ele>630.3</ele><time>2012-07-24T16:37:14.0000000+00:00</time></trkpt><trkpt lat="63.96556091" lon="-18.7356205"><ele>630.3</ele><time>2012-07-24T16:37:19.0000000+00:00</time></trkpt><trkpt lat="63.96550369" lon="-18.73553848"><ele>630.1</ele><time>2012-07-24T16:37:24.0000000+00:00</time></trkpt><trkpt lat="63.96543121" lon="-18.73548126"><ele>630.7</ele><time>2012-07-24T16:37:29.0000000+00:00</time></trkpt><trkpt lat="63.96537018" lon="-18.73538208"><ele>631.8</ele><time>2012-07-24T16:37:34.0000000+00:00</time></trkpt><trkpt lat="63.9653244" lon="-18.73530579"><ele>632.0</ele><time>2012-07-24T16:37:39.0000000+00:00</time></trkpt><trkpt lat="63.96530914" lon="-18.73526573"><ele>632.6</ele><time>2012-07-24T16:37:44.0000000+00:00</time></trkpt><trkpt lat="63.96525192" lon="-18.73516083"><ele>633.3</ele><time>2012-07-24T16:37:49.0000000+00:00</time></trkpt><trkpt lat="63.96520996" lon="-18.7351017"><ele>634.3</ele><time>2012-07-24T16:37:54.0000000+00:00</time></trkpt><trkpt lat="63.96517944" lon="-18.73503876"><ele>635.6</ele><time>2012-07-24T16:37:59.0000000+00:00</time></trkpt><trkpt lat="63.96511078" lon="-18.73492813"><ele>636.5</ele><time>2012-07-24T16:38:04.0000000+00:00</time></trkpt><trkpt lat="63.96504593" lon="-18.73480034"><ele>636.3</ele><time>2012-07-24T16:38:09.0000000+00:00</time></trkpt><trkpt lat="63.96500778" lon="-18.73472595"><ele>637.5</ele><time>2012-07-24T16:38:14.0000000+00:00</time></trkpt><trkpt lat="63.96496582" lon="-18.73463631"><ele>638.2</ele><time>2012-07-24T16:38:19.0000000+00:00</time></trkpt><trkpt lat="63.96493149" lon="-18.73456764"><ele>639.4</ele><time>2012-07-24T16:38:24.0000000+00:00</time></trkpt><trkpt lat="63.96489334" lon="-18.73450089"><ele>640.1</ele><time>2012-07-24T16:38:29.0000000+00:00</time></trkpt><trkpt lat="63.96484757" lon="-18.73443604"><ele>640.5</ele><time>2012-07-24T16:38:34.0000000+00:00</time></trkpt><trkpt lat="63.96481323" lon="-18.73437119"><ele>640.7</ele><time>2012-07-24T16:38:39.0000000+00:00</time></trkpt><trkpt lat="63.96476746" lon="-18.73428154"><ele>642.1</ele><time>2012-07-24T16:38:44.0000000+00:00</time></trkpt><trkpt lat="63.96473694" lon="-18.7342453"><ele>642.6</ele><time>2012-07-24T16:38:49.0000000+00:00</time></trkpt><trkpt lat="63.96473694" lon="-18.73423386"><ele>642.7</ele><time>2012-07-24T16:38:54.0000000+00:00</time></trkpt><trkpt lat="63.96473694" lon="-18.73423195"><ele>642.5</ele><time>2012-07-24T16:38:59.0000000+00:00</time></trkpt><trkpt lat="63.96470261" lon="-18.73417282"><ele>643.0</ele><time>2012-07-24T16:39:04.0000000+00:00</time></trkpt><trkpt lat="63.9646759" lon="-18.73408127"><ele>643.7</ele><time>2012-07-24T16:39:09.0000000+00:00</time></trkpt><trkpt lat="63.9646492" lon="-18.73399544"><ele>643.6</ele><time>2012-07-24T16:39:14.0000000+00:00</time></trkpt><trkpt lat="63.96463394" lon="-18.73390579"><ele>644.2</ele><time>2012-07-24T16:39:19.0000000+00:00</time></trkpt><trkpt lat="63.96462631" lon="-18.73389053"><ele>644.4</ele><time>2012-07-24T16:39:24.0000000+00:00</time></trkpt><trkpt lat="63.9646225" lon="-18.73389053"><ele>645.1</ele><time>2012-07-24T16:39:29.0000000+00:00</time></trkpt><trkpt lat="63.96461105" lon="-18.73386002"><ele>645.5</ele><time>2012-07-24T16:39:34.0000000+00:00</time></trkpt><trkpt lat="63.96459961" lon="-18.73380089"><ele>645.5</ele><time>2012-07-24T16:39:39.0000000+00:00</time></trkpt><trkpt lat="63.96458435" lon="-18.73373985"><ele>645.1</ele><time>2012-07-24T16:39:44.0000000+00:00</time></trkpt><trkpt lat="63.96457672" lon="-18.73373032"><ele>645.2</ele><time>2012-07-24T16:39:49.0000000+00:00</time></trkpt><trkpt lat="63.96455765" lon="-18.73365593"><ele>645.2</ele><time>2012-07-24T16:39:54.0000000+00:00</time></trkpt><trkpt lat="63.96453857" lon="-18.7335968"><ele>645.4</ele><time>2012-07-24T16:39:59.0000000+00:00</time></trkpt><trkpt lat="63.9645195" lon="-18.7335434"><ele>646.5</ele><time>2012-07-24T16:40:04.0000000+00:00</time></trkpt><trkpt lat="63.96451569" lon="-18.73353577"><ele>646.3</ele><time>2012-07-24T16:40:09.0000000+00:00</time></trkpt><trkpt lat="63.96451569" lon="-18.73353767"><ele>646.3</ele><time>2012-07-24T16:40:14.0000000+00:00</time></trkpt><trkpt lat="63.96451187" lon="-18.73353195"><ele>646.2</ele><time>2012-07-24T16:40:19.0000000+00:00</time></trkpt><trkpt lat="63.96448898" lon="-18.73346901"><ele>647.1</ele><time>2012-07-24T16:40:24.0000000+00:00</time></trkpt><trkpt lat="63.9644661" lon="-18.73339653"><ele>647.0</ele><time>2012-07-24T16:40:29.0000000+00:00</time></trkpt><trkpt lat="63.96444702" lon="-18.73336601"><ele>647.8</ele><time>2012-07-24T16:40:34.0000000+00:00</time></trkpt><trkpt lat="63.96443939" lon="-18.73332214"><ele>648.1</ele><time>2012-07-24T16:40:39.0000000+00:00</time></trkpt><trkpt lat="63.96443939" lon="-18.73331261"><ele>648.4</ele><time>2012-07-24T16:40:44.0000000+00:00</time></trkpt><trkpt lat="63.96443939" lon="-18.73331451"><ele>648.4</ele><time>2012-07-24T16:40:49.0000000+00:00</time></trkpt><trkpt lat="63.96443176" lon="-18.73330307"><ele>648.4</ele><time>2012-07-24T16:40:54.0000000+00:00</time></trkpt><trkpt lat="63.96440506" lon="-18.73322868"><ele>648.6</ele><time>2012-07-24T16:40:59.0000000+00:00</time></trkpt><trkpt lat="63.96436691" lon="-18.73313522"><ele>649.7</ele><time>2012-07-24T16:41:04.0000000+00:00</time></trkpt><trkpt lat="63.96434021" lon="-18.73306084"><ele>650.5</ele><time>2012-07-24T16:41:09.0000000+00:00</time></trkpt><trkpt lat="63.96431351" lon="-18.73296166"><ele>651.5</ele><time>2012-07-24T16:41:14.0000000+00:00</time></trkpt><trkpt lat="63.96428299" lon="-18.73288155"><ele>651.9</ele><time>2012-07-24T16:41:19.0000000+00:00</time></trkpt><trkpt lat="63.96424866" lon="-18.73279572"><ele>652.6</ele><time>2012-07-24T16:41:24.0000000+00:00</time></trkpt><trkpt lat="63.96421433" lon="-18.73270989"><ele>652.3</ele><time>2012-07-24T16:41:29.0000000+00:00</time></trkpt><trkpt lat="63.96417999" lon="-18.73262024"><ele>653.0</ele><time>2012-07-24T16:41:34.0000000+00:00</time></trkpt><trkpt lat="63.96414948" lon="-18.73250961"><ele>653.3</ele><time>2012-07-24T16:41:39.0000000+00:00</time></trkpt><trkpt lat="63.96411896" lon="-18.73244095"><ele>654.0</ele><time>2012-07-24T16:41:44.0000000+00:00</time></trkpt><trkpt lat="63.96409226" lon="-18.73232842"><ele>654.7</ele><time>2012-07-24T16:41:49.0000000+00:00</time></trkpt><trkpt lat="63.96406555" lon="-18.73221397"><ele>654.4</ele><time>2012-07-24T16:41:54.0000000+00:00</time></trkpt><trkpt lat="63.96405411" lon="-18.73216057"><ele>652.6</ele><time>2012-07-24T16:41:59.0000000+00:00</time></trkpt><trkpt lat="63.96402741" lon="-18.73211098"><ele>652.5</ele><time>2012-07-24T16:42:04.0000000+00:00</time></trkpt><trkpt lat="63.96399307" lon="-18.73204422"><ele>651.7</ele><time>2012-07-24T16:42:09.0000000+00:00</time></trkpt><trkpt lat="63.96397781" lon="-18.73195648"><ele>652.0</ele><time>2012-07-24T16:42:14.0000000+00:00</time></trkpt><trkpt lat="63.96396256" lon="-18.731884"><ele>652.8</ele><time>2012-07-24T16:42:19.0000000+00:00</time></trkpt><trkpt lat="63.96396637" lon="-18.73189545"><ele>653.6</ele><time>2012-07-24T16:42:24.0000000+00:00</time></trkpt><trkpt lat="63.96395874" lon="-18.73185921"><ele>653.8</ele><time>2012-07-24T16:42:29.0000000+00:00</time></trkpt><trkpt lat="63.96393967" lon="-18.73175621"><ele>654.5</ele><time>2012-07-24T16:42:34.0000000+00:00</time></trkpt><trkpt lat="63.96391296" lon="-18.73167419"><ele>654.7</ele><time>2012-07-24T16:42:39.0000000+00:00</time></trkpt><trkpt lat="63.96389008" lon="-18.73159599"><ele>655.7</ele><time>2012-07-24T16:42:44.0000000+00:00</time></trkpt><trkpt lat="63.96387482" lon="-18.73151398"><ele>657.3</ele><time>2012-07-24T16:42:49.0000000+00:00</time></trkpt><trkpt lat="63.96385574" lon="-18.73141861"><ele>658.2</ele><time>2012-07-24T16:42:54.0000000+00:00</time></trkpt><trkpt lat="63.96384049" lon="-18.73134041"><ele>659.2</ele><time>2012-07-24T16:42:59.0000000+00:00</time></trkpt><trkpt lat="63.96383286" lon="-18.7313118"><ele>659.5</ele><time>2012-07-24T16:43:04.0000000+00:00</time></trkpt><trkpt lat="63.9638176" lon="-18.73125267"><ele>659.9</ele><time>2012-07-24T16:43:09.0000000+00:00</time></trkpt><trkpt lat="63.96379471" lon="-18.73113442"><ele>660.4</ele><time>2012-07-24T16:43:14.0000000+00:00</time></trkpt><trkpt lat="63.96377945" lon="-18.73103142"><ele>661.5</ele><time>2012-07-24T16:43:19.0000000+00:00</time></trkpt><trkpt lat="63.96375275" lon="-18.7309227"><ele>661.6</ele><time>2012-07-24T16:43:24.0000000+00:00</time></trkpt><trkpt lat="63.96372223" lon="-18.73082352"><ele>662.4</ele><time>2012-07-24T16:43:29.0000000+00:00</time></trkpt><trkpt lat="63.96370316" lon="-18.73070335"><ele>663.1</ele><time>2012-07-24T16:43:34.0000000+00:00</time></trkpt><trkpt lat="63.96369171" lon="-18.73058891"><ele>663.5</ele><time>2012-07-24T16:43:39.0000000+00:00</time></trkpt><trkpt lat="63.96367264" lon="-18.73046303"><ele>664.6</ele><time>2012-07-24T16:43:44.0000000+00:00</time></trkpt><trkpt lat="63.96365356" lon="-18.73034096"><ele>665.2</ele><time>2012-07-24T16:43:49.0000000+00:00</time></trkpt><trkpt lat="63.96363449" lon="-18.7302208"><ele>664.4</ele><time>2012-07-24T16:43:54.0000000+00:00</time></trkpt><trkpt lat="63.96361923" lon="-18.73008156"><ele>664.7</ele><time>2012-07-24T16:43:59.0000000+00:00</time></trkpt><trkpt lat="63.96358872" lon="-18.72996903"><ele>665.8</ele><time>2012-07-24T16:44:04.0000000+00:00</time></trkpt><trkpt lat="63.96357346" lon="-18.72982407"><ele>666.5</ele><time>2012-07-24T16:44:09.0000000+00:00</time></trkpt><trkpt lat="63.96354294" lon="-18.72969246"><ele>666.9</ele><time>2012-07-24T16:44:14.0000000+00:00</time></trkpt><trkpt lat="63.96352005" lon="-18.72957039"><ele>666.8</ele><time>2012-07-24T16:44:19.0000000+00:00</time></trkpt><trkpt lat="63.9634819" lon="-18.72947502"><ele>667.5</ele><time>2012-07-24T16:44:24.0000000+00:00</time></trkpt><trkpt lat="63.96345902" lon="-18.72936821"><ele>667.8</ele><time>2012-07-24T16:44:29.0000000+00:00</time></trkpt><trkpt lat="63.96343994" lon="-18.72927856"><ele>668.6</ele><time>2012-07-24T16:44:34.0000000+00:00</time></trkpt><trkpt lat="63.96343613" lon="-18.7292366"><ele>669.5</ele><time>2012-07-24T16:44:39.0000000+00:00</time></trkpt><trkpt lat="63.96343231" lon="-18.72921372"><ele>670.8</ele><time>2012-07-24T16:44:44.0000000+00:00</time></trkpt><trkpt lat="63.96342468" lon="-18.72918701"><ele>670.5</ele><time>2012-07-24T16:44:49.0000000+00:00</time></trkpt><trkpt lat="63.96342087" lon="-18.72917557"><ele>670.9</ele><time>2012-07-24T16:44:54.0000000+00:00</time></trkpt><trkpt lat="63.96341705" lon="-18.72916412"><ele>671.3</ele><time>2012-07-24T16:44:59.0000000+00:00</time></trkpt><trkpt lat="63.96341324" lon="-18.72915649"><ele>671.7</ele><time>2012-07-24T16:45:04.0000000+00:00</time></trkpt><trkpt lat="63.96340942" lon="-18.72915077"><ele>672.1</ele><time>2012-07-24T16:45:09.0000000+00:00</time></trkpt><trkpt lat="63.96340179" lon="-18.72901917"><ele>672.8</ele><time>2012-07-24T16:45:14.0000000+00:00</time></trkpt><trkpt lat="63.96334839" lon="-18.72879028"><ele>673.5</ele><time>2012-07-24T16:45:19.0000000+00:00</time></trkpt><trkpt lat="63.96328735" lon="-18.72845841"><ele>672.5</ele><time>2012-07-24T16:45:24.0000000+00:00</time></trkpt><trkpt lat="63.96321106" lon="-18.72819519"><ele>671.6</ele><time>2012-07-24T16:45:29.0000000+00:00</time></trkpt><trkpt lat="63.9630928" lon="-18.72792435"><ele>666.9</ele><time>2012-07-24T16:45:34.0000000+00:00</time></trkpt><trkpt lat="63.96289825" lon="-18.72757721"><ele>664.5</ele><time>2012-07-24T16:45:39.0000000+00:00</time></trkpt><trkpt lat="63.96261978" lon="-18.72710228"><ele>660.6</ele><time>2012-07-24T16:45:44.0000000+00:00</time></trkpt><trkpt lat="63.9623909" lon="-18.72670364"><ele>660.9</ele><time>2012-07-24T16:45:49.0000000+00:00</time></trkpt><trkpt lat="63.96225357" lon="-18.72645378"><ele>661.8</ele><time>2012-07-24T16:45:54.0000000+00:00</time></trkpt><trkpt lat="63.9621048" lon="-18.72615814"><ele>659.3</ele><time>2012-07-24T16:45:59.0000000+00:00</time></trkpt><trkpt lat="63.9619751" lon="-18.72580147"><ele>658.2</ele><time>2012-07-24T16:46:04.0000000+00:00</time></trkpt><trkpt lat="63.96187973" lon="-18.72544861"><ele>658.5</ele><time>2012-07-24T16:46:09.0000000+00:00</time></trkpt><trkpt lat="63.96178436" lon="-18.72507668"><ele>658.1</ele><time>2012-07-24T16:46:14.0000000+00:00</time></trkpt><trkpt lat="63.96170807" lon="-18.72476006"><ele>654.3</ele><time>2012-07-24T16:46:19.0000000+00:00</time></trkpt><trkpt lat="63.96165848" lon="-18.72458267"><ele>654.6</ele><time>2012-07-24T16:46:24.0000000+00:00</time></trkpt><trkpt lat="63.96158981" lon="-18.72442436"><ele>653.9</ele><time>2012-07-24T16:46:29.0000000+00:00</time></trkpt><trkpt lat="63.9615593" lon="-18.72427559"><ele>654.1</ele><time>2012-07-24T16:46:34.0000000+00:00</time></trkpt><trkpt lat="63.96152496" lon="-18.72417259"><ele>653.5</ele><time>2012-07-24T16:46:39.0000000+00:00</time></trkpt><trkpt lat="63.96147919" lon="-18.72404289"><ele>653.8</ele><time>2012-07-24T16:46:44.0000000+00:00</time></trkpt><trkpt lat="63.96144867" lon="-18.72392654"><ele>653.3</ele><time>2012-07-24T16:46:49.0000000+00:00</time></trkpt><trkpt lat="63.96142578" lon="-18.72380638"><ele>654.4</ele><time>2012-07-24T16:46:54.0000000+00:00</time></trkpt><trkpt lat="63.96139145" lon="-18.72362328"><ele>654.3</ele><time>2012-07-24T16:46:59.0000000+00:00</time></trkpt><trkpt lat="63.96138001" lon="-18.72349548"><ele>655.3</ele><time>2012-07-24T16:47:04.0000000+00:00</time></trkpt><trkpt lat="63.96136856" lon="-18.72333336"><ele>655.8</ele><time>2012-07-24T16:47:09.0000000+00:00</time></trkpt><trkpt lat="63.96136856" lon="-18.72319603"><ele>656.6</ele><time>2012-07-24T16:47:14.0000000+00:00</time></trkpt><trkpt lat="63.96138001" lon="-18.72305489"><ele>658.3</ele><time>2012-07-24T16:47:19.0000000+00:00</time></trkpt><trkpt lat="63.96139908" lon="-18.72289467"><ele>659.1</ele><time>2012-07-24T16:47:24.0000000+00:00</time></trkpt><trkpt lat="63.96141815" lon="-18.72273254"><ele>659.5</ele><time>2012-07-24T16:47:29.0000000+00:00</time></trkpt><trkpt lat="63.96144104" lon="-18.72253799"><ele>660.1</ele><time>2012-07-24T16:47:34.0000000+00:00</time></trkpt><trkpt lat="63.96147537" lon="-18.72240067"><ele>660.9</ele><time>2012-07-24T16:47:39.0000000+00:00</time></trkpt><trkpt lat="63.96149063" lon="-18.72226715"><ele>662.0</ele><time>2012-07-24T16:47:44.0000000+00:00</time></trkpt><trkpt lat="63.96151733" lon="-18.72210693"><ele>662.0</ele><time>2012-07-24T16:47:49.0000000+00:00</time></trkpt><trkpt lat="63.96154785" lon="-18.72195816"><ele>662.0</ele><time>2012-07-24T16:47:54.0000000+00:00</time></trkpt><trkpt lat="63.96156311" lon="-18.72176552"><ele>663.5</ele><time>2012-07-24T16:47:59.0000000+00:00</time></trkpt><trkpt lat="63.96156693" lon="-18.72155571"><ele>664.2</ele><time>2012-07-24T16:48:04.0000000+00:00</time></trkpt><trkpt lat="63.96152878" lon="-18.72136116"><ele>663.5</ele><time>2012-07-24T16:48:09.0000000+00:00</time></trkpt><trkpt lat="63.9614563" lon="-18.72117233"><ele>661.6</ele><time>2012-07-24T16:48:14.0000000+00:00</time></trkpt><trkpt lat="63.96134949" lon="-18.72096443"><ele>660.4</ele><time>2012-07-24T16:48:19.0000000+00:00</time></trkpt><trkpt lat="63.96122742" lon="-18.72058296"><ele>659.1</ele><time>2012-07-24T16:48:24.0000000+00:00</time></trkpt><trkpt lat="63.96109772" lon="-18.71999931"><ele>660.6</ele><time>2012-07-24T16:48:29.0000000+00:00</time></trkpt><trkpt lat="63.96105576" lon="-18.7193718"><ele>660.3</ele><time>2012-07-24T16:48:34.0000000+00:00</time></trkpt><trkpt lat="63.96107101" lon="-18.71894074"><ele>659.1</ele><time>2012-07-24T16:48:39.0000000+00:00</time></trkpt><trkpt lat="63.96110916" lon="-18.71871185"><ele>659.2</ele><time>2012-07-24T16:48:44.0000000+00:00</time></trkpt><trkpt lat="63.96113205" lon="-18.71858025"><ele>659.4</ele><time>2012-07-24T16:48:49.0000000+00:00</time></trkpt><trkpt lat="63.96116638" lon="-18.71841621"><ele>659.3</ele><time>2012-07-24T16:48:54.0000000+00:00</time></trkpt><trkpt lat="63.96120071" lon="-18.71828461"><ele>658.9</ele><time>2012-07-24T16:48:59.0000000+00:00</time></trkpt><trkpt lat="63.96124268" lon="-18.71816063"><ele>659.1</ele><time>2012-07-24T16:49:04.0000000+00:00</time></trkpt><trkpt lat="63.96128845" lon="-18.71805"><ele>659.2</ele><time>2012-07-24T16:49:09.0000000+00:00</time></trkpt><trkpt lat="63.96134567" lon="-18.71792984"><ele>660.5</ele><time>2012-07-24T16:49:14.0000000+00:00</time></trkpt><trkpt lat="63.96140289" lon="-18.71780968"><ele>661.3</ele><time>2012-07-24T16:49:19.0000000+00:00</time></trkpt><trkpt lat="63.96144867" lon="-18.71767998"><ele>661.2</ele><time>2012-07-24T16:49:24.0000000+00:00</time></trkpt><trkpt lat="63.96149826" lon="-18.71751595"><ele>661.3</ele><time>2012-07-24T16:49:29.0000000+00:00</time></trkpt><trkpt lat="63.96155548" lon="-18.71738243"><ele>661.0</ele><time>2012-07-24T16:49:34.0000000+00:00</time></trkpt><trkpt lat="63.96160889" lon="-18.7172184"><ele>660.6</ele><time>2012-07-24T16:49:39.0000000+00:00</time></trkpt><trkpt lat="63.96167374" lon="-18.71705246"><ele>660.9</ele><time>2012-07-24T16:49:44.0000000+00:00</time></trkpt><trkpt lat="63.96174622" lon="-18.7168808"><ele>661.3</ele><time>2012-07-24T16:49:49.0000000+00:00</time></trkpt><trkpt lat="63.96181488" lon="-18.71670151"><ele>661.7</ele><time>2012-07-24T16:49:54.0000000+00:00</time></trkpt><trkpt lat="63.96188736" lon="-18.71652412"><ele>662.6</ele><time>2012-07-24T16:49:59.0000000+00:00</time></trkpt><trkpt lat="63.9619751" lon="-18.71636963"><ele>663.6</ele><time>2012-07-24T16:50:04.0000000+00:00</time></trkpt><trkpt lat="63.96202469" lon="-18.71624565"><ele>662.2</ele><time>2012-07-24T16:50:09.0000000+00:00</time></trkpt><trkpt lat="63.96209335" lon="-18.71616364"><ele>662.7</ele><time>2012-07-24T16:50:14.0000000+00:00</time></trkpt><trkpt lat="63.96218872" lon="-18.71602058"><ele>662.9</ele><time>2012-07-24T16:50:19.0000000+00:00</time></trkpt><trkpt lat="63.96225357" lon="-18.71588707"><ele>662.6</ele><time>2012-07-24T16:50:24.0000000+00:00</time></trkpt><trkpt lat="63.96225739" lon="-18.71588135"><ele>662.8</ele><time>2012-07-24T16:50:29.0000000+00:00</time></trkpt><trkpt lat="63.96225739" lon="-18.71588135"><ele>662.7</ele><time>2012-07-24T16:50:34.0000000+00:00</time></trkpt><trkpt lat="63.96225739" lon="-18.71588135"><ele>662.7</ele><time>2012-07-24T16:50:39.0000000+00:00</time></trkpt><trkpt lat="63.96225739" lon="-18.71588135"><ele>662.7</ele><time>2012-07-24T16:50:44.0000000+00:00</time></trkpt><trkpt lat="63.96225739" lon="-18.71588135"><ele>662.7</ele><time>2012-07-24T16:50:49.0000000+00:00</time></trkpt><trkpt lat="63.96225739" lon="-18.71588135"><ele>662.7</ele><time>2012-07-24T16:50:54.0000000+00:00</time></trkpt><trkpt lat="63.96225739" lon="-18.71588135"><ele>662.7</ele><time>2012-07-24T16:50:59.0000000+00:00</time></trkpt><trkpt lat="63.96225739" lon="-18.71588135"><ele>662.7</ele><time>2012-07-24T16:51:04.0000000+00:00</time></trkpt><trkpt lat="63.96225739" lon="-18.71588135"><ele>662.7</ele><time>2012-07-24T16:51:09.0000000+00:00</time></trkpt><trkpt lat="63.96225739" lon="-18.71588135"><ele>662.7</ele><time>2012-07-24T16:51:14.0000000+00:00</time></trkpt><trkpt lat="63.96225739" lon="-18.71588135"><ele>662.7</ele><time>2012-07-24T16:51:19.0000000+00:00</time></trkpt><trkpt lat="63.96225739" lon="-18.71588135"><ele>662.7</ele><time>2012-07-24T16:51:24.0000000+00:00</time></trkpt><trkpt lat="63.96225739" lon="-18.71588135"><ele>662.7</ele><time>2012-07-24T16:51:29.0000000+00:00</time></trkpt><trkpt lat="63.96225739" lon="-18.71588135"><ele>662.7</ele><time>2012-07-24T16:51:34.0000000+00:00</time></trkpt><trkpt lat="63.96225739" lon="-18.71588135"><ele>662.8</ele><time>2012-07-24T16:51:39.0000000+00:00</time></trkpt><trkpt lat="63.96225739" lon="-18.71588135"><ele>662.8</ele><time>2012-07-24T16:51:44.0000000+00:00</time></trkpt><trkpt lat="63.96225739" lon="-18.71588135"><ele>662.8</ele><time>2012-07-24T16:51:49.0000000+00:00</time></trkpt><trkpt lat="63.96225739" lon="-18.71588135"><ele>662.8</ele><time>2012-07-24T16:51:54.0000000+00:00</time></trkpt><trkpt lat="63.96225739" lon="-18.71588135"><ele>662.8</ele><time>2012-07-24T16:51:59.0000000+00:00</time></trkpt><trkpt lat="63.96225739" lon="-18.71588135"><ele>662.8</ele><time>2012-07-24T16:52:04.0000000+00:00</time></trkpt><trkpt lat="63.96225739" lon="-18.71588135"><ele>662.8</ele><time>2012-07-24T16:52:09.0000000+00:00</time></trkpt><trkpt lat="63.96225739" lon="-18.71588135"><ele>662.8</ele><time>2012-07-24T16:52:14.0000000+00:00</time></trkpt><trkpt lat="63.96225739" lon="-18.71588135"><ele>662.8</ele><time>2012-07-24T16:52:19.0000000+00:00</time></trkpt><trkpt lat="63.96225739" lon="-18.71588135"><ele>662.8</ele><time>2012-07-24T16:52:24.0000000+00:00</time></trkpt><trkpt lat="63.96225739" lon="-18.71588135"><ele>662.8</ele><time>2012-07-24T16:52:29.0000000+00:00</time></trkpt><trkpt lat="63.96225739" lon="-18.71588135"><ele>662.9</ele><time>2012-07-24T16:52:34.0000000+00:00</time></trkpt><trkpt lat="63.96225739" lon="-18.71588135"><ele>662.9</ele><time>2012-07-24T16:52:39.0000000+00:00</time></trkpt><trkpt lat="63.96225739" lon="-18.71588135"><ele>662.9</ele><time>2012-07-24T16:52:44.0000000+00:00</time></trkpt><trkpt lat="63.96225739" lon="-18.71588135"><ele>662.9</ele><time>2012-07-24T16:52:49.0000000+00:00</time></trkpt><trkpt lat="63.96225739" lon="-18.71588135"><ele>662.9</ele><time>2012-07-24T16:52:54.0000000+00:00</time></trkpt><trkpt lat="63.96225739" lon="-18.71588135"><ele>662.9</ele><time>2012-07-24T16:52:59.0000000+00:00</time></trkpt><trkpt lat="63.96225739" lon="-18.71588135"><ele>662.9</ele><time>2012-07-24T16:53:04.0000000+00:00</time></trkpt><trkpt lat="63.96225739" lon="-18.71588135"><ele>662.9</ele><time>2012-07-24T16:53:09.0000000+00:00</time></trkpt><trkpt lat="63.96225739" lon="-18.71588135"><ele>662.9</ele><time>2012-07-24T16:53:14.0000000+00:00</time></trkpt><trkpt lat="63.96225739" lon="-18.71588135"><ele>663.0</ele><time>2012-07-24T16:53:19.0000000+00:00</time></trkpt><trkpt lat="63.96225739" lon="-18.71588135"><ele>662.9</ele><time>2012-07-24T16:53:24.0000000+00:00</time></trkpt><trkpt lat="63.96225739" lon="-18.71588135"><ele>663.0</ele><time>2012-07-24T16:53:29.0000000+00:00</time></trkpt><trkpt lat="63.96225739" lon="-18.71588135"><ele>663.0</ele><time>2012-07-24T16:53:34.0000000+00:00</time></trkpt><trkpt lat="63.96225739" lon="-18.71588135"><ele>663.0</ele><time>2012-07-24T16:53:39.0000000+00:00</time></trkpt><trkpt lat="63.96225739" lon="-18.71588135"><ele>663.0</ele><time>2012-07-24T16:53:44.0000000+00:00</time></trkpt><trkpt lat="63.96225739" lon="-18.71588135"><ele>663.0</ele><time>2012-07-24T16:53:49.0000000+00:00</time></trkpt><trkpt lat="63.96225739" lon="-18.71587944"><ele>663.0</ele><time>2012-07-24T16:53:54.0000000+00:00</time></trkpt><trkpt lat="63.96225357" lon="-18.71591568"><ele>663.1</ele><time>2012-07-24T16:53:59.0000000+00:00</time></trkpt><trkpt lat="63.96220398" lon="-18.71603394"><ele>663.2</ele><time>2012-07-24T16:54:04.0000000+00:00</time></trkpt><trkpt lat="63.96212006" lon="-18.71619988"><ele>664.0</ele><time>2012-07-24T16:54:09.0000000+00:00</time></trkpt><trkpt lat="63.96199799" lon="-18.71637154"><ele>663.2</ele><time>2012-07-24T16:54:14.0000000+00:00</time></trkpt><trkpt lat="63.96189117" lon="-18.71661186"><ele>663.9</ele><time>2012-07-24T16:54:19.0000000+00:00</time></trkpt><trkpt lat="63.96180725" lon="-18.71679306"><ele>663.8</ele><time>2012-07-24T16:54:24.0000000+00:00</time></trkpt><trkpt lat="63.96178818" lon="-18.71689796"><ele>662.8</ele><time>2012-07-24T16:54:29.0000000+00:00</time></trkpt><trkpt lat="63.96178436" lon="-18.71688843"><ele>662.5</ele><time>2012-07-24T16:54:34.0000000+00:00</time></trkpt><trkpt lat="63.96178436" lon="-18.71688843"><ele>662.5</ele><time>2012-07-24T16:54:39.0000000+00:00</time></trkpt><trkpt lat="63.96178436" lon="-18.71688843"><ele>662.5</ele><time>2012-07-24T16:54:44.0000000+00:00</time></trkpt><trkpt lat="63.96178436" lon="-18.71689034"><ele>662.5</ele><time>2012-07-24T16:54:49.0000000+00:00</time></trkpt><trkpt lat="63.96178818" lon="-18.71689415"><ele>662.5</ele><time>2012-07-24T16:54:54.0000000+00:00</time></trkpt><trkpt lat="63.96178818" lon="-18.71689796"><ele>662.5</ele><time>2012-07-24T16:54:59.0000000+00:00</time></trkpt><trkpt lat="63.96178818" lon="-18.71689796"><ele>662.5</ele><time>2012-07-24T16:55:04.0000000+00:00</time></trkpt><trkpt lat="63.96178818" lon="-18.71689606"><ele>662.6</ele><time>2012-07-24T16:55:09.0000000+00:00</time></trkpt><trkpt lat="63.96178818" lon="-18.71689606"><ele>662.6</ele><time>2012-07-24T16:55:14.0000000+00:00</time></trkpt><trkpt lat="63.96178818" lon="-18.71689606"><ele>662.6</ele><time>2012-07-24T16:55:19.0000000+00:00</time></trkpt><trkpt lat="63.96178818" lon="-18.71689606"><ele>662.6</ele><time>2012-07-24T16:55:24.0000000+00:00</time></trkpt><trkpt lat="63.96178818" lon="-18.71689606"><ele>662.6</ele><time>2012-07-24T16:55:29.0000000+00:00</time></trkpt><trkpt lat="63.96178818" lon="-18.71689606"><ele>662.6</ele><time>2012-07-24T16:55:34.0000000+00:00</time></trkpt><trkpt lat="63.96178818" lon="-18.71689606"><ele>662.6</ele><time>2012-07-24T16:55:39.0000000+00:00</time></trkpt><trkpt lat="63.96178818" lon="-18.71689606"><ele>662.6</ele><time>2012-07-24T16:55:44.0000000+00:00</time></trkpt><trkpt lat="63.96178818" lon="-18.71689606"><ele>662.6</ele><time>2012-07-24T16:55:49.0000000+00:00</time></trkpt><trkpt lat="63.96178818" lon="-18.71689606"><ele>662.6</ele><time>2012-07-24T16:55:54.0000000+00:00</time></trkpt><trkpt lat="63.96178818" lon="-18.71689606"><ele>662.6</ele><time>2012-07-24T16:55:59.0000000+00:00</time></trkpt><trkpt lat="63.96178818" lon="-18.71689606"><ele>662.6</ele><time>2012-07-24T16:56:04.0000000+00:00</time></trkpt><trkpt lat="63.96178818" lon="-18.71689606"><ele>662.6</ele><time>2012-07-24T16:56:09.0000000+00:00</time></trkpt><trkpt lat="63.96178818" lon="-18.71689606"><ele>662.6</ele><time>2012-07-24T16:56:14.0000000+00:00</time></trkpt><trkpt lat="63.96178818" lon="-18.71689606"><ele>662.6</ele><time>2012-07-24T16:56:19.0000000+00:00</time></trkpt><trkpt lat="63.96178818" lon="-18.71689606"><ele>662.6</ele><time>2012-07-24T16:56:24.0000000+00:00</time></trkpt><trkpt lat="63.96178818" lon="-18.71689606"><ele>662.6</ele><time>2012-07-24T16:56:29.0000000+00:00</time></trkpt><trkpt lat="63.96178818" lon="-18.71689606"><ele>662.6</ele><time>2012-07-24T16:56:34.0000000+00:00</time></trkpt><trkpt lat="63.96178818" lon="-18.71689415"><ele>662.6</ele><time>2012-07-24T16:56:39.0000000+00:00</time></trkpt><trkpt lat="63.96178818" lon="-18.71689415"><ele>662.6</ele><time>2012-07-24T16:56:44.0000000+00:00</time></trkpt><trkpt lat="63.96178818" lon="-18.71689415"><ele>662.6</ele><time>2012-07-24T16:56:49.0000000+00:00</time></trkpt><trkpt lat="63.96178818" lon="-18.71689606"><ele>662.6</ele><time>2012-07-24T16:56:54.0000000+00:00</time></trkpt><trkpt lat="63.96178818" lon="-18.71689415"><ele>662.6</ele><time>2012-07-24T16:56:59.0000000+00:00</time></trkpt><trkpt lat="63.96178818" lon="-18.71689415"><ele>662.6</ele><time>2012-07-24T16:57:04.0000000+00:00</time></trkpt><trkpt lat="63.96178818" lon="-18.71689415"><ele>662.6</ele><time>2012-07-24T16:57:09.0000000+00:00</time></trkpt><trkpt lat="63.96178818" lon="-18.71689415"><ele>662.6</ele><time>2012-07-24T16:57:14.0000000+00:00</time></trkpt><trkpt lat="63.96178818" lon="-18.71689415"><ele>662.6</ele><time>2012-07-24T16:57:19.0000000+00:00</time></trkpt><trkpt lat="63.96178818" lon="-18.71689415"><ele>662.7</ele><time>2012-07-24T16:57:24.0000000+00:00</time></trkpt><trkpt lat="63.96178818" lon="-18.71689415"><ele>662.7</ele><time>2012-07-24T16:57:29.0000000+00:00</time></trkpt><trkpt lat="63.96178818" lon="-18.71689415"><ele>662.7</ele><time>2012-07-24T16:57:34.0000000+00:00</time></trkpt><trkpt lat="63.96178818" lon="-18.71689415"><ele>662.7</ele><time>2012-07-24T16:57:39.0000000+00:00</time></trkpt><trkpt lat="63.96178818" lon="-18.71689415"><ele>662.7</ele><time>2012-07-24T16:57:44.0000000+00:00</time></trkpt><trkpt lat="63.96179199" lon="-18.71689224"><ele>662.7</ele><time>2012-07-24T16:57:49.0000000+00:00</time></trkpt><trkpt lat="63.96179199" lon="-18.71689224"><ele>662.8</ele><time>2012-07-24T16:57:54.0000000+00:00</time></trkpt><trkpt lat="63.96179199" lon="-18.71689224"><ele>662.8</ele><time>2012-07-24T16:57:59.0000000+00:00</time></trkpt><trkpt lat="63.96179199" lon="-18.71689224"><ele>662.8</ele><time>2012-07-24T16:58:04.0000000+00:00</time></trkpt><trkpt lat="63.96179199" lon="-18.71689224"><ele>662.8</ele><time>2012-07-24T16:58:09.0000000+00:00</time></trkpt><trkpt lat="63.96179199" lon="-18.71689224"><ele>662.9</ele><time>2012-07-24T16:58:14.0000000+00:00</time></trkpt><trkpt lat="63.96179199" lon="-18.71689224"><ele>662.9</ele><time>2012-07-24T16:58:19.0000000+00:00</time></trkpt><trkpt lat="63.96179199" lon="-18.71689224"><ele>662.9</ele><time>2012-07-24T16:58:24.0000000+00:00</time></trkpt><trkpt lat="63.96179199" lon="-18.71689224"><ele>663.0</ele><time>2012-07-24T16:58:29.0000000+00:00</time></trkpt><trkpt lat="63.96179581" lon="-18.71687317"><ele>663.3</ele><time>2012-07-24T16:58:34.0000000+00:00</time></trkpt><trkpt lat="63.96180344" lon="-18.71689606"><ele>664.1</ele><time>2012-07-24T16:58:39.0000000+00:00</time></trkpt><trkpt lat="63.96179581" lon="-18.71692085"><ele>664.0</ele><time>2012-07-24T16:58:44.0000000+00:00</time></trkpt><trkpt lat="63.96175003" lon="-18.71705055"><ele>664.2</ele><time>2012-07-24T16:58:49.0000000+00:00</time></trkpt><trkpt lat="63.96167755" lon="-18.71724129"><ele>664.4</ele><time>2012-07-24T16:58:54.0000000+00:00</time></trkpt><trkpt lat="63.96161652" lon="-18.71742058"><ele>666.1</ele><time>2012-07-24T16:58:59.0000000+00:00</time></trkpt><trkpt lat="63.96153641" lon="-18.71761322"><ele>664.0</ele><time>2012-07-24T16:59:04.0000000+00:00</time></trkpt><trkpt lat="63.96143341" lon="-18.71781349"><ele>661.0</ele><time>2012-07-24T16:59:09.0000000+00:00</time></trkpt><trkpt lat="63.96134186" lon="-18.71801186"><ele>658.8</ele><time>2012-07-24T16:59:14.0000000+00:00</time></trkpt><trkpt lat="63.96123886" lon="-18.7182579"><ele>656.9</ele><time>2012-07-24T16:59:19.0000000+00:00</time></trkpt><trkpt lat="63.96112824" lon="-18.71871948"><ele>656.2</ele><time>2012-07-24T16:59:24.0000000+00:00</time></trkpt><trkpt lat="63.96107483" lon="-18.7193737"><ele>654.6</ele><time>2012-07-24T16:59:29.0000000+00:00</time></trkpt><trkpt lat="63.96111298" lon="-18.71998024"><ele>654.3</ele><time>2012-07-24T16:59:34.0000000+00:00</time></trkpt><trkpt lat="63.96117401" lon="-18.72031403"><ele>654.4</ele><time>2012-07-24T16:59:39.0000000+00:00</time></trkpt><trkpt lat="63.96121216" lon="-18.72049904"><ele>654.9</ele><time>2012-07-24T16:59:44.0000000+00:00</time></trkpt><trkpt lat="63.96125794" lon="-18.72063637"><ele>656.2</ele><time>2012-07-24T16:59:49.0000000+00:00</time></trkpt><trkpt lat="63.96131897" lon="-18.72084618"><ele>658.3</ele><time>2012-07-24T16:59:54.0000000+00:00</time></trkpt><trkpt lat="63.96137238" lon="-18.72093773"><ele>660.2</ele><time>2012-07-24T16:59:59.0000000+00:00</time></trkpt><trkpt lat="63.9614296" lon="-18.72103882"><ele>661.6</ele><time>2012-07-24T17:00:04.0000000+00:00</time></trkpt><trkpt lat="63.96149445" lon="-18.7211647"><ele>663.6</ele><time>2012-07-24T17:00:09.0000000+00:00</time></trkpt><trkpt lat="63.96154404" lon="-18.72132111"><ele>662.9</ele><time>2012-07-24T17:00:14.0000000+00:00</time></trkpt><trkpt lat="63.96158981" lon="-18.7215023"><ele>664.8</ele><time>2012-07-24T17:00:19.0000000+00:00</time></trkpt><trkpt lat="63.96160889" lon="-18.7217617"><ele>664.5</ele><time>2012-07-24T17:00:24.0000000+00:00</time></trkpt><trkpt lat="63.96157074" lon="-18.72210693"><ele>663.4</ele><time>2012-07-24T17:00:29.0000000+00:00</time></trkpt><trkpt lat="63.96149445" lon="-18.72254753"><ele>662.0</ele><time>2012-07-24T17:00:34.0000000+00:00</time></trkpt><trkpt lat="63.96141052" lon="-18.72306252"><ele>660.2</ele><time>2012-07-24T17:00:39.0000000+00:00</time></trkpt><trkpt lat="63.96144104" lon="-18.72376823"><ele>657.1</ele><time>2012-07-24T17:00:44.0000000+00:00</time></trkpt><trkpt lat="63.96162033" lon="-18.72444153"><ele>655.2</ele><time>2012-07-24T17:00:49.0000000+00:00</time></trkpt><trkpt lat="63.96183395" lon="-18.72518921"><ele>652.1</ele><time>2012-07-24T17:00:54.0000000+00:00</time></trkpt><trkpt lat="63.96199799" lon="-18.72583962"><ele>650.5</ele><time>2012-07-24T17:00:59.0000000+00:00</time></trkpt><trkpt lat="63.9621582" lon="-18.72627831"><ele>649.2</ele><time>2012-07-24T17:01:04.0000000+00:00</time></trkpt><trkpt lat="63.96232987" lon="-18.72663498"><ele>647.9</ele><time>2012-07-24T17:01:09.0000000+00:00</time></trkpt><trkpt lat="63.96252441" lon="-18.72696495"><ele>647.3</ele><time>2012-07-24T17:01:14.0000000+00:00</time></trkpt><trkpt lat="63.96272278" lon="-18.72732925"><ele>649.2</ele><time>2012-07-24T17:01:19.0000000+00:00</time></trkpt><trkpt lat="63.96284485" lon="-18.72759056"><ele>650.0</ele><time>2012-07-24T17:01:24.0000000+00:00</time></trkpt><trkpt lat="63.96291351" lon="-18.72771645"><ele>651.3</ele><time>2012-07-24T17:01:29.0000000+00:00</time></trkpt><trkpt lat="63.96295548" lon="-18.7277813"><ele>653.5</ele><time>2012-07-24T17:01:34.0000000+00:00</time></trkpt><trkpt lat="63.96298218" lon="-18.72779274"><ele>656.3</ele><time>2012-07-24T17:01:39.0000000+00:00</time></trkpt><trkpt lat="63.96302414" lon="-18.72781754"><ele>658.0</ele><time>2012-07-24T17:01:44.0000000+00:00</time></trkpt><trkpt lat="63.96305466" lon="-18.72785568"><ele>659.8</ele><time>2012-07-24T17:01:49.0000000+00:00</time></trkpt><trkpt lat="63.96308899" lon="-18.72791863"><ele>662.2</ele><time>2012-07-24T17:01:54.0000000+00:00</time></trkpt><trkpt lat="63.96311188" lon="-18.72797966"><ele>663.2</ele><time>2012-07-24T17:01:59.0000000+00:00</time></trkpt><trkpt lat="63.96313858" lon="-18.72801018"><ele>664.3</ele><time>2012-07-24T17:02:04.0000000+00:00</time></trkpt><trkpt lat="63.96315765" lon="-18.72802162"><ele>665.9</ele><time>2012-07-24T17:02:09.0000000+00:00</time></trkpt><trkpt lat="63.96318054" lon="-18.72805977"><ele>666.5</ele><time>2012-07-24T17:02:14.0000000+00:00</time></trkpt><trkpt lat="63.9631958" lon="-18.72810364"><ele>667.6</ele><time>2012-07-24T17:02:19.0000000+00:00</time></trkpt><trkpt lat="63.9632225" lon="-18.7281704"><ele>668.4</ele><time>2012-07-24T17:02:24.0000000+00:00</time></trkpt><trkpt lat="63.96324539" lon="-18.72827339"><ele>669.0</ele><time>2012-07-24T17:02:29.0000000+00:00</time></trkpt><trkpt lat="63.96327591" lon="-18.72836876"><ele>669.5</ele><time>2012-07-24T17:02:34.0000000+00:00</time></trkpt><trkpt lat="63.96330643" lon="-18.72848511"><ele>669.7</ele><time>2012-07-24T17:02:39.0000000+00:00</time></trkpt><trkpt lat="63.96331787" lon="-18.72863007"><ele>670.3</ele><time>2012-07-24T17:02:44.0000000+00:00</time></trkpt><trkpt lat="63.96333695" lon="-18.72867775"><ele>670.8</ele><time>2012-07-24T17:02:49.0000000+00:00</time></trkpt><trkpt lat="63.96336746" lon="-18.72877693"><ele>670.6</ele><time>2012-07-24T17:02:54.0000000+00:00</time></trkpt><trkpt lat="63.96341324" lon="-18.72900009"><ele>670.4</ele><time>2012-07-24T17:02:59.0000000+00:00</time></trkpt><trkpt lat="63.96346283" lon="-18.72924423"><ele>670.5</ele><time>2012-07-24T17:03:04.0000000+00:00</time></trkpt><trkpt lat="63.96352387" lon="-18.72947693"><ele>671.2</ele><time>2012-07-24T17:03:09.0000000+00:00</time></trkpt><trkpt lat="63.96358109" lon="-18.7297802"><ele>670.3</ele><time>2012-07-24T17:03:14.0000000+00:00</time></trkpt><trkpt lat="63.96365738" lon="-18.73012161"><ele>669.5</ele><time>2012-07-24T17:03:19.0000000+00:00</time></trkpt><trkpt lat="63.96371079" lon="-18.73042679"><ele>668.2</ele><time>2012-07-24T17:03:24.0000000+00:00</time></trkpt><trkpt lat="63.96376038" lon="-18.7306881"><ele>668.0</ele><time>2012-07-24T17:03:29.0000000+00:00</time></trkpt><trkpt lat="63.96380615" lon="-18.73095894"><ele>668.0</ele><time>2012-07-24T17:03:34.0000000+00:00</time></trkpt><trkpt lat="63.96390152" lon="-18.73137856"><ele>666.2</ele><time>2012-07-24T17:03:39.0000000+00:00</time></trkpt><trkpt lat="63.96403885" lon="-18.73197937"><ele>659.9</ele><time>2012-07-24T17:03:44.0000000+00:00</time></trkpt><trkpt lat="63.96422577" lon="-18.73261452"><ele>656.6</ele><time>2012-07-24T17:03:49.0000000+00:00</time></trkpt><trkpt lat="63.96436691" lon="-18.73303795"><ele>652.4</ele><time>2012-07-24T17:03:54.0000000+00:00</time></trkpt><trkpt lat="63.96452713" lon="-18.73351479"><ele>652.5</ele><time>2012-07-24T17:03:59.0000000+00:00</time></trkpt><trkpt lat="63.96472168" lon="-18.73410416"><ele>649.9</ele><time>2012-07-24T17:04:04.0000000+00:00</time></trkpt><trkpt lat="63.96501541" lon="-18.73472595"><ele>645.0</ele><time>2012-07-24T17:04:09.0000000+00:00</time></trkpt><trkpt lat="63.9654808" lon="-18.73550606"><ele>638.7</ele><time>2012-07-24T17:04:14.0000000+00:00</time></trkpt><trkpt lat="63.96596146" lon="-18.73600006"><ele>634.4</ele><time>2012-07-24T17:04:19.0000000+00:00</time></trkpt><trkpt lat="63.96633148" lon="-18.73625374"><ele>631.8</ele><time>2012-07-24T17:04:24.0000000+00:00</time></trkpt><trkpt lat="63.96666718" lon="-18.73669052"><ele>629.4</ele><time>2012-07-24T17:04:29.0000000+00:00</time></trkpt><trkpt lat="63.96704483" lon="-18.73719406"><ele>626.6</ele><time>2012-07-24T17:04:34.0000000+00:00</time></trkpt><trkpt lat="63.96740341" lon="-18.73761749"><ele>624.2</ele><time>2012-07-24T17:04:39.0000000+00:00</time></trkpt><trkpt lat="63.96757507" lon="-18.73776627"><ele>624.0</ele><time>2012-07-24T17:04:44.0000000+00:00</time></trkpt><trkpt lat="63.9676857" lon="-18.7378006"><ele>625.5</ele><time>2012-07-24T17:04:49.0000000+00:00</time></trkpt><trkpt lat="63.96784973" lon="-18.73779297"><ele>626.8</ele><time>2012-07-24T17:04:54.0000000+00:00</time></trkpt><trkpt lat="63.96800613" lon="-18.73778915"><ele>625.1</ele><time>2012-07-24T17:04:59.0000000+00:00</time></trkpt><trkpt lat="63.96815109" lon="-18.73776054"><ele>625.6</ele><time>2012-07-24T17:05:04.0000000+00:00</time></trkpt><trkpt lat="63.9683075" lon="-18.73771477"><ele>626.2</ele><time>2012-07-24T17:05:09.0000000+00:00</time></trkpt><trkpt lat="63.96846008" lon="-18.7377243"><ele>625.3</ele><time>2012-07-24T17:05:14.0000000+00:00</time></trkpt><trkpt lat="63.96860504" lon="-18.73777008"><ele>625.3</ele><time>2012-07-24T17:05:19.0000000+00:00</time></trkpt><trkpt lat="63.96873474" lon="-18.73786926"><ele>624.8</ele><time>2012-07-24T17:05:24.0000000+00:00</time></trkpt><trkpt lat="63.96889114" lon="-18.73800278"><ele>622.7</ele><time>2012-07-24T17:05:29.0000000+00:00</time></trkpt><trkpt lat="63.96908951" lon="-18.7382431"><ele>623.6</ele><time>2012-07-24T17:05:34.0000000+00:00</time></trkpt><trkpt lat="63.96928406" lon="-18.73849297"><ele>623.8</ele><time>2012-07-24T17:05:39.0000000+00:00</time></trkpt><trkpt lat="63.96945953" lon="-18.73869515"><ele>624.4</ele><time>2012-07-24T17:05:44.0000000+00:00</time></trkpt><trkpt lat="63.96963882" lon="-18.7389183"><ele>624.8</ele><time>2012-07-24T17:05:49.0000000+00:00</time></trkpt><trkpt lat="63.96984863" lon="-18.73917007"><ele>625.8</ele><time>2012-07-24T17:05:54.0000000+00:00</time></trkpt><trkpt lat="63.97006607" lon="-18.73937416"><ele>626.7</ele><time>2012-07-24T17:05:59.0000000+00:00</time></trkpt><trkpt lat="63.97024918" lon="-18.73951912"><ele>626.8</ele><time>2012-07-24T17:06:04.0000000+00:00</time></trkpt><trkpt lat="63.97040558" lon="-18.73965836"><ele>625.7</ele><time>2012-07-24T17:06:09.0000000+00:00</time></trkpt><trkpt lat="63.97052765" lon="-18.73996735"><ele>624.7</ele><time>2012-07-24T17:06:14.0000000+00:00</time></trkpt><trkpt lat="63.97063446" lon="-18.74009514"><ele>626.0</ele><time>2012-07-24T17:06:19.0000000+00:00</time></trkpt><trkpt lat="63.97063828" lon="-18.74009705"><ele>626.7</ele><time>2012-07-24T17:06:24.0000000+00:00</time></trkpt><trkpt lat="63.97063065" lon="-18.74010086"><ele>626.6</ele><time>2012-07-24T17:06:29.0000000+00:00</time></trkpt><trkpt lat="63.97064209" lon="-18.74005127"><ele>626.4</ele><time>2012-07-24T17:06:34.0000000+00:00</time></trkpt><trkpt lat="63.97065735" lon="-18.74000359"><ele>626.4</ele><time>2012-07-24T17:06:39.0000000+00:00</time></trkpt><trkpt lat="63.97067261" lon="-18.73999214"><ele>626.5</ele><time>2012-07-24T17:06:44.0000000+00:00</time></trkpt><trkpt lat="63.97071838" lon="-18.74003792"><ele>626.9</ele><time>2012-07-24T17:06:49.0000000+00:00</time></trkpt><trkpt lat="63.97080994" lon="-18.74017334"><ele>626.8</ele><time>2012-07-24T17:06:54.0000000+00:00</time></trkpt><trkpt lat="63.97090912" lon="-18.74030113"><ele>626.2</ele><time>2012-07-24T17:06:59.0000000+00:00</time></trkpt><trkpt lat="63.97103119" lon="-18.74043274"><ele>627.0</ele><time>2012-07-24T17:07:04.0000000+00:00</time></trkpt><trkpt lat="63.97114563" lon="-18.7405529"><ele>625.9</ele><time>2012-07-24T17:07:09.0000000+00:00</time></trkpt><trkpt lat="63.97127914" lon="-18.74070549"><ele>626.8</ele><time>2012-07-24T17:07:14.0000000+00:00</time></trkpt><trkpt lat="63.97142029" lon="-18.74085236"><ele>625.8</ele><time>2012-07-24T17:07:19.0000000+00:00</time></trkpt><trkpt lat="63.97155762" lon="-18.74100685"><ele>625.9</ele><time>2012-07-24T17:07:24.0000000+00:00</time></trkpt><trkpt lat="63.9716835" lon="-18.74114609"><ele>626.8</ele><time>2012-07-24T17:07:29.0000000+00:00</time></trkpt><trkpt lat="63.97182465" lon="-18.74129677"><ele>628.0</ele><time>2012-07-24T17:07:34.0000000+00:00</time></trkpt><trkpt lat="63.97195435" lon="-18.7414341"><ele>627.9</ele><time>2012-07-24T17:07:39.0000000+00:00</time></trkpt><trkpt lat="63.97209168" lon="-18.74154472"><ele>627.6</ele><time>2012-07-24T17:07:44.0000000+00:00</time></trkpt><trkpt lat="63.97223282" lon="-18.74168587"><ele>629.1</ele><time>2012-07-24T17:07:49.0000000+00:00</time></trkpt><trkpt lat="63.97237778" lon="-18.74185371"><ele>629.4</ele><time>2012-07-24T17:07:54.0000000+00:00</time></trkpt><trkpt lat="63.97252655" lon="-18.74202919"><ele>628.8</ele><time>2012-07-24T17:07:59.0000000+00:00</time></trkpt><trkpt lat="63.97267914" lon="-18.74223328"><ele>628.1</ele><time>2012-07-24T17:08:04.0000000+00:00</time></trkpt><trkpt lat="63.97279739" lon="-18.74238968"><ele>628.5</ele><time>2012-07-24T17:08:09.0000000+00:00</time></trkpt><trkpt lat="63.97290421" lon="-18.74256516"><ele>627.8</ele><time>2012-07-24T17:08:14.0000000+00:00</time></trkpt><trkpt lat="63.9729805" lon="-18.74269486"><ele>627.0</ele><time>2012-07-24T17:08:19.0000000+00:00</time></trkpt><trkpt lat="63.97304916" lon="-18.74288368"><ele>627.3</ele><time>2012-07-24T17:08:24.0000000+00:00</time></trkpt><trkpt lat="63.9731102" lon="-18.74305916"><ele>627.2</ele><time>2012-07-24T17:08:29.0000000+00:00</time></trkpt><trkpt lat="63.97318268" lon="-18.74325371"><ele>628.4</ele><time>2012-07-24T17:08:34.0000000+00:00</time></trkpt><trkpt lat="63.97322846" lon="-18.74344444"><ele>628.9</ele><time>2012-07-24T17:08:39.0000000+00:00</time></trkpt><trkpt lat="63.97328949" lon="-18.74357796"><ele>630.0</ele><time>2012-07-24T17:08:44.0000000+00:00</time></trkpt><trkpt lat="63.9733696" lon="-18.74369431"><ele>632.3</ele><time>2012-07-24T17:08:49.0000000+00:00</time></trkpt><trkpt lat="63.97344971" lon="-18.7438221"><ele>634.2</ele><time>2012-07-24T17:08:54.0000000+00:00</time></trkpt><trkpt lat="63.97354126" lon="-18.74393463"><ele>636.2</ele><time>2012-07-24T17:08:59.0000000+00:00</time></trkpt><trkpt lat="63.97360611" lon="-18.74403954"><ele>636.6</ele><time>2012-07-24T17:09:04.0000000+00:00</time></trkpt><trkpt lat="63.97369385" lon="-18.74414253"><ele>637.5</ele><time>2012-07-24T17:09:09.0000000+00:00</time></trkpt><trkpt lat="63.9737854" lon="-18.74426842"><ele>638.4</ele><time>2012-07-24T17:09:14.0000000+00:00</time></trkpt><trkpt lat="63.97386932" lon="-18.7443676"><ele>637.6</ele><time>2012-07-24T17:09:19.0000000+00:00</time></trkpt><trkpt lat="63.97393799" lon="-18.74444962"><ele>637.3</ele><time>2012-07-24T17:09:24.0000000+00:00</time></trkpt><trkpt lat="63.97401047" lon="-18.7445755"><ele>637.7</ele><time>2012-07-24T17:09:29.0000000+00:00</time></trkpt><trkpt lat="63.97408676" lon="-18.74467278"><ele>637.9</ele><time>2012-07-24T17:09:34.0000000+00:00</time></trkpt><trkpt lat="63.97415924" lon="-18.74476433"><ele>637.8</ele><time>2012-07-24T17:09:39.0000000+00:00</time></trkpt><trkpt lat="63.97422028" lon="-18.7448597"><ele>637.8</ele><time>2012-07-24T17:09:44.0000000+00:00</time></trkpt><trkpt lat="63.97428131" lon="-18.74498749"><ele>638.0</ele><time>2012-07-24T17:09:49.0000000+00:00</time></trkpt><trkpt lat="63.97433853" lon="-18.74508286"><ele>637.4</ele><time>2012-07-24T17:09:54.0000000+00:00</time></trkpt><trkpt lat="63.97441483" lon="-18.74521446"><ele>637.4</ele><time>2012-07-24T17:09:59.0000000+00:00</time></trkpt><trkpt lat="63.97447968" lon="-18.74530983"><ele>637.3</ele><time>2012-07-24T17:10:04.0000000+00:00</time></trkpt><trkpt lat="63.97454453" lon="-18.74545097"><ele>636.4</ele><time>2012-07-24T17:10:09.0000000+00:00</time></trkpt><trkpt lat="63.974617" lon="-18.74559593"><ele>636.8</ele><time>2012-07-24T17:10:14.0000000+00:00</time></trkpt><trkpt lat="63.9746933" lon="-18.74572372"><ele>637.8</ele><time>2012-07-24T17:10:19.0000000+00:00</time></trkpt><trkpt lat="63.97475433" lon="-18.74584007"><ele>638.2</ele><time>2012-07-24T17:10:24.0000000+00:00</time></trkpt><trkpt lat="63.97480774" lon="-18.74595261"><ele>638.2</ele><time>2012-07-24T17:10:29.0000000+00:00</time></trkpt><trkpt lat="63.97486877" lon="-18.74606323"><ele>638.9</ele><time>2012-07-24T17:10:34.0000000+00:00</time></trkpt><trkpt lat="63.9749527" lon="-18.74616242"><ele>640.4</ele><time>2012-07-24T17:10:39.0000000+00:00</time></trkpt><trkpt lat="63.97502136" lon="-18.74631119"><ele>642.2</ele><time>2012-07-24T17:10:44.0000000+00:00</time></trkpt><trkpt lat="63.9750824" lon="-18.7464428"><ele>642.5</ele><time>2012-07-24T17:10:49.0000000+00:00</time></trkpt><trkpt lat="63.97513199" lon="-18.74650002"><ele>644.7</ele><time>2012-07-24T17:10:54.0000000+00:00</time></trkpt><trkpt lat="63.97518921" lon="-18.74665451"><ele>646.5</ele><time>2012-07-24T17:10:59.0000000+00:00</time></trkpt><trkpt lat="63.97522736" lon="-18.74680328"><ele>647.5</ele><time>2012-07-24T17:11:04.0000000+00:00</time></trkpt><trkpt lat="63.97528458" lon="-18.74694252"><ele>650.0</ele><time>2012-07-24T17:11:09.0000000+00:00</time></trkpt><trkpt lat="63.97532272" lon="-18.74702454"><ele>650.6</ele><time>2012-07-24T17:11:14.0000000+00:00</time></trkpt><trkpt lat="63.97535324" lon="-18.74715614"><ele>651.8</ele><time>2012-07-24T17:11:19.0000000+00:00</time></trkpt><trkpt lat="63.9753685" lon="-18.74720955"><ele>652.3</ele><time>2012-07-24T17:11:24.0000000+00:00</time></trkpt><trkpt lat="63.9753685" lon="-18.74720764"><ele>652.4</ele><time>2012-07-24T17:11:29.0000000+00:00</time></trkpt><trkpt lat="63.97539139" lon="-18.74728966"><ele>653.0</ele><time>2012-07-24T17:11:34.0000000+00:00</time></trkpt><trkpt lat="63.97542572" lon="-18.74740601"><ele>653.5</ele><time>2012-07-24T17:11:39.0000000+00:00</time></trkpt><trkpt lat="63.97545242" lon="-18.74751282"><ele>653.8</ele><time>2012-07-24T17:11:44.0000000+00:00</time></trkpt><trkpt lat="63.9754715" lon="-18.74762917"><ele>654.1</ele><time>2012-07-24T17:11:49.0000000+00:00</time></trkpt><trkpt lat="63.97548294" lon="-18.74773979"><ele>654.5</ele><time>2012-07-24T17:11:54.0000000+00:00</time></trkpt><trkpt lat="63.97550964" lon="-18.7478714"><ele>655.4</ele><time>2012-07-24T17:11:59.0000000+00:00</time></trkpt><trkpt lat="63.97553635" lon="-18.74798775"><ele>655.7</ele><time>2012-07-24T17:12:04.0000000+00:00</time></trkpt><trkpt lat="63.97556305" lon="-18.74810791"><ele>656.3</ele><time>2012-07-24T17:12:09.0000000+00:00</time></trkpt><trkpt lat="63.97558594" lon="-18.74823189"><ele>656.6</ele><time>2012-07-24T17:12:14.0000000+00:00</time></trkpt><trkpt lat="63.97560883" lon="-18.74835587"><ele>657.6</ele><time>2012-07-24T17:12:19.0000000+00:00</time></trkpt><trkpt lat="63.97563934" lon="-18.74847603"><ele>658.1</ele><time>2012-07-24T17:12:24.0000000+00:00</time></trkpt><trkpt lat="63.97566605" lon="-18.74860954"><ele>658.6</ele><time>2012-07-24T17:12:29.0000000+00:00</time></trkpt><trkpt lat="63.97570419" lon="-18.74872589"><ele>659.3</ele><time>2012-07-24T17:12:34.0000000+00:00</time></trkpt><trkpt lat="63.97572327" lon="-18.74883461"><ele>660.0</ele><time>2012-07-24T17:12:39.0000000+00:00</time></trkpt><trkpt lat="63.97573853" lon="-18.7489605"><ele>660.3</ele><time>2012-07-24T17:12:44.0000000+00:00</time></trkpt><trkpt lat="63.97576141" lon="-18.74906349"><ele>660.1</ele><time>2012-07-24T17:12:49.0000000+00:00</time></trkpt><trkpt lat="63.97577667" lon="-18.74907684"><ele>660.5</ele><time>2012-07-24T17:12:54.0000000+00:00</time></trkpt><trkpt lat="63.97577286" lon="-18.74908257"><ele>660.4</ele><time>2012-07-24T17:12:59.0000000+00:00</time></trkpt><trkpt lat="63.9757843" lon="-18.7491703"><ele>660.2</ele><time>2012-07-24T17:13:04.0000000+00:00</time></trkpt><trkpt lat="63.97580719" lon="-18.74930954"><ele>661.4</ele><time>2012-07-24T17:13:09.0000000+00:00</time></trkpt><trkpt lat="63.97583771" lon="-18.74940109"><ele>661.3</ele><time>2012-07-24T17:13:14.0000000+00:00</time></trkpt><trkpt lat="63.97587967" lon="-18.74952316"><ele>661.6</ele><time>2012-07-24T17:13:19.0000000+00:00</time></trkpt><trkpt lat="63.97591782" lon="-18.74963951"><ele>661.3</ele><time>2012-07-24T17:13:24.0000000+00:00</time></trkpt><trkpt lat="63.97597504" lon="-18.74971771"><ele>661.9</ele><time>2012-07-24T17:13:29.0000000+00:00</time></trkpt><trkpt lat="63.97600174" lon="-18.74978638"><ele>662.0</ele><time>2012-07-24T17:13:34.0000000+00:00</time></trkpt><trkpt lat="63.97601318" lon="-18.74982262"><ele>661.7</ele><time>2012-07-24T17:13:39.0000000+00:00</time></trkpt><trkpt lat="63.97605515" lon="-18.74990845"><ele>662.6</ele><time>2012-07-24T17:13:44.0000000+00:00</time></trkpt><trkpt lat="63.97608566" lon="-18.75001335"><ele>662.8</ele><time>2012-07-24T17:13:49.0000000+00:00</time></trkpt><trkpt lat="63.97610855" lon="-18.75008965"><ele>663.8</ele><time>2012-07-24T17:13:54.0000000+00:00</time></trkpt><trkpt lat="63.9761467" lon="-18.75014496"><ele>664.5</ele><time>2012-07-24T17:13:59.0000000+00:00</time></trkpt><trkpt lat="63.97618866" lon="-18.75023842"><ele>665.3</ele><time>2012-07-24T17:14:04.0000000+00:00</time></trkpt><trkpt lat="63.97623444" lon="-18.75033951"><ele>666.2</ele><time>2012-07-24T17:14:09.0000000+00:00</time></trkpt><trkpt lat="63.9762764" lon="-18.75041962"><ele>666.8</ele><time>2012-07-24T17:14:14.0000000+00:00</time></trkpt><trkpt lat="63.97631836" lon="-18.75049019"><ele>667.1</ele><time>2012-07-24T17:14:19.0000000+00:00</time></trkpt><trkpt lat="63.97635651" lon="-18.75056267"><ele>667.6</ele><time>2012-07-24T17:14:24.0000000+00:00</time></trkpt><trkpt lat="63.97639084" lon="-18.75059128"><ele>667.2</ele><time>2012-07-24T17:14:29.0000000+00:00</time></trkpt><trkpt lat="63.97647476" lon="-18.75074196"><ele>667.3</ele><time>2012-07-24T17:14:34.0000000+00:00</time></trkpt><trkpt lat="63.97655869" lon="-18.75094223"><ele>667.8</ele><time>2012-07-24T17:14:39.0000000+00:00</time></trkpt><trkpt lat="63.97665024" lon="-18.75111961"><ele>667.9</ele><time>2012-07-24T17:14:44.0000000+00:00</time></trkpt><trkpt lat="63.97670746" lon="-18.75122452"><ele>668.8</ele><time>2012-07-24T17:14:49.0000000+00:00</time></trkpt><trkpt lat="63.97673416" lon="-18.75123024"><ele>668.6</ele><time>2012-07-24T17:14:54.0000000+00:00</time></trkpt><trkpt lat="63.97675705" lon="-18.75127602"><ele>668.7</ele><time>2012-07-24T17:14:59.0000000+00:00</time></trkpt><trkpt lat="63.97675324" lon="-18.75128746"><ele>668.6</ele><time>2012-07-24T17:15:04.0000000+00:00</time></trkpt><trkpt lat="63.97677231" lon="-18.75134087"><ele>668.2</ele><time>2012-07-24T17:15:09.0000000+00:00</time></trkpt><trkpt lat="63.97680283" lon="-18.75138664"><ele>668.5</ele><time>2012-07-24T17:15:14.0000000+00:00</time></trkpt><trkpt lat="63.97682953" lon="-18.75143623"><ele>668.3</ele><time>2012-07-24T17:15:19.0000000+00:00</time></trkpt><trkpt lat="63.97685242" lon="-18.75150299"><ele>668.8</ele><time>2012-07-24T17:15:24.0000000+00:00</time></trkpt><trkpt lat="63.97687531" lon="-18.75153351"><ele>669.2</ele><time>2012-07-24T17:15:29.0000000+00:00</time></trkpt><trkpt lat="63.97689819" lon="-18.75157929"><ele>669.2</ele><time>2012-07-24T17:15:34.0000000+00:00</time></trkpt><trkpt lat="63.97691345" lon="-18.75166893"><ele>669.0</ele><time>2012-07-24T17:15:39.0000000+00:00</time></trkpt><trkpt lat="63.97693634" lon="-18.75172234"><ele>669.1</ele><time>2012-07-24T17:15:44.0000000+00:00</time></trkpt><trkpt lat="63.97695923" lon="-18.75179291"><ele>669.6</ele><time>2012-07-24T17:15:49.0000000+00:00</time></trkpt><trkpt lat="63.97696304" lon="-18.75188446"><ele>668.4</ele><time>2012-07-24T17:15:54.0000000+00:00</time></trkpt><trkpt lat="63.97698593" lon="-18.75195313"><ele>668.8</ele><time>2012-07-24T17:15:59.0000000+00:00</time></trkpt><trkpt lat="63.97700501" lon="-18.75197983"><ele>669.4</ele><time>2012-07-24T17:16:04.0000000+00:00</time></trkpt><trkpt lat="63.97702408" lon="-18.75202751"><ele>670.0</ele><time>2012-07-24T17:16:09.0000000+00:00</time></trkpt><trkpt lat="63.97705078" lon="-18.75207901"><ele>670.9</ele><time>2012-07-24T17:16:14.0000000+00:00</time></trkpt><trkpt lat="63.9770813" lon="-18.75213623"><ele>672.0</ele><time>2012-07-24T17:16:19.0000000+00:00</time></trkpt><trkpt lat="63.97710037" lon="-18.75219154"><ele>673.0</ele><time>2012-07-24T17:16:24.0000000+00:00</time></trkpt><trkpt lat="63.97709656" lon="-18.75218201"><ele>673.8</ele><time>2012-07-24T17:16:29.0000000+00:00</time></trkpt><trkpt lat="63.97709656" lon="-18.75218391"><ele>674.2</ele><time>2012-07-24T17:16:34.0000000+00:00</time></trkpt><trkpt lat="63.97709656" lon="-18.75218582"><ele>674.6</ele><time>2012-07-24T17:16:39.0000000+00:00</time></trkpt><trkpt lat="63.97710037" lon="-18.75218773"><ele>675.0</ele><time>2012-07-24T17:16:44.0000000+00:00</time></trkpt><trkpt lat="63.97710419" lon="-18.75218964"><ele>675.4</ele><time>2012-07-24T17:16:49.0000000+00:00</time></trkpt><trkpt lat="63.97711182" lon="-18.75222969"><ele>676.2</ele><time>2012-07-24T17:16:54.0000000+00:00</time></trkpt><trkpt lat="63.97713471" lon="-18.75227737"><ele>677.0</ele><time>2012-07-24T17:16:59.0000000+00:00</time></trkpt><trkpt lat="63.97713852" lon="-18.75227928"><ele>677.6</ele><time>2012-07-24T17:17:04.0000000+00:00</time></trkpt><trkpt lat="63.97713852" lon="-18.75227737"><ele>677.7</ele><time>2012-07-24T17:17:09.0000000+00:00</time></trkpt><trkpt lat="63.97714233" lon="-18.75227928"><ele>677.8</ele><time>2012-07-24T17:17:14.0000000+00:00</time></trkpt><trkpt lat="63.97714233" lon="-18.75227928"><ele>677.8</ele><time>2012-07-24T17:17:19.0000000+00:00</time></trkpt><trkpt lat="63.97714233" lon="-18.75227928"><ele>677.8</ele><time>2012-07-24T17:17:24.0000000+00:00</time></trkpt><trkpt lat="63.97714233" lon="-18.75227928"><ele>677.8</ele><time>2012-07-24T17:17:29.0000000+00:00</time></trkpt><trkpt lat="63.97715378" lon="-18.75232887"><ele>677.0</ele><time>2012-07-24T17:17:34.0000000+00:00</time></trkpt><trkpt lat="63.97717667" lon="-18.75241089"><ele>676.5</ele><time>2012-07-24T17:17:39.0000000+00:00</time></trkpt><trkpt lat="63.97725296" lon="-18.7525692"><ele>676.5</ele><time>2012-07-24T17:17:44.0000000+00:00</time></trkpt><trkpt lat="63.97733307" lon="-18.75279999"><ele>677.9</ele><time>2012-07-24T17:17:49.0000000+00:00</time></trkpt><trkpt lat="63.97742462" lon="-18.75307083"><ele>680.0</ele><time>2012-07-24T17:17:54.0000000+00:00</time></trkpt><trkpt lat="63.97750855" lon="-18.75332832"><ele>682.2</ele><time>2012-07-24T17:17:59.0000000+00:00</time></trkpt><trkpt lat="63.97759247" lon="-18.75356102"><ele>683.0</ele><time>2012-07-24T17:18:04.0000000+00:00</time></trkpt><trkpt lat="63.97767258" lon="-18.75379753"><ele>683.1</ele><time>2012-07-24T17:18:09.0000000+00:00</time></trkpt><trkpt lat="63.97774124" lon="-18.75396729"><ele>683.2</ele><time>2012-07-24T17:18:14.0000000+00:00</time></trkpt><trkpt lat="63.97779846" lon="-18.75410461"><ele>681.7</ele><time>2012-07-24T17:18:19.0000000+00:00</time></trkpt><trkpt lat="63.97785568" lon="-18.75425911"><ele>680.9</ele><time>2012-07-24T17:18:24.0000000+00:00</time></trkpt><trkpt lat="63.9779129" lon="-18.75437164"><ele>680.1</ele><time>2012-07-24T17:18:29.0000000+00:00</time></trkpt><trkpt lat="63.97798538" lon="-18.7545433"><ele>680.7</ele><time>2012-07-24T17:18:34.0000000+00:00</time></trkpt><trkpt lat="63.97806168" lon="-18.75472641"><ele>681.8</ele><time>2012-07-24T17:18:39.0000000+00:00</time></trkpt><trkpt lat="63.97811508" lon="-18.75486755"><ele>681.9</ele><time>2012-07-24T17:18:44.0000000+00:00</time></trkpt><trkpt lat="63.97817612" lon="-18.75497818"><ele>683.0</ele><time>2012-07-24T17:18:49.0000000+00:00</time></trkpt><trkpt lat="63.97821808" lon="-18.7550869"><ele>683.5</ele><time>2012-07-24T17:18:54.0000000+00:00</time></trkpt><trkpt lat="63.97826386" lon="-18.75518036"><ele>683.2</ele><time>2012-07-24T17:18:59.0000000+00:00</time></trkpt><trkpt lat="63.97833633" lon="-18.75531006"><ele>684.3</ele><time>2012-07-24T17:19:04.0000000+00:00</time></trkpt><trkpt lat="63.978405" lon="-18.75543213"><ele>685.1</ele><time>2012-07-24T17:19:09.0000000+00:00</time></trkpt><trkpt lat="63.97845459" lon="-18.75556755"><ele>685.5</ele><time>2012-07-24T17:19:14.0000000+00:00</time></trkpt><trkpt lat="63.97852707" lon="-18.75568199"><ele>686.3</ele><time>2012-07-24T17:19:19.0000000+00:00</time></trkpt><trkpt lat="63.97860718" lon="-18.75580978"><ele>688.4</ele><time>2012-07-24T17:19:24.0000000+00:00</time></trkpt><trkpt lat="63.97869873" lon="-18.75595093"><ele>689.0</ele><time>2012-07-24T17:19:29.0000000+00:00</time></trkpt><trkpt lat="63.97879791" lon="-18.75609207"><ele>689.3</ele><time>2012-07-24T17:19:34.0000000+00:00</time></trkpt><trkpt lat="63.97890091" lon="-18.75621986"><ele>689.6</ele><time>2012-07-24T17:19:39.0000000+00:00</time></trkpt><trkpt lat="63.97900009" lon="-18.75637817"><ele>689.8</ele><time>2012-07-24T17:19:44.0000000+00:00</time></trkpt><trkpt lat="63.97910309" lon="-18.75658608"><ele>691.6</ele><time>2012-07-24T17:19:49.0000000+00:00</time></trkpt><trkpt lat="63.97919846" lon="-18.75683594"><ele>693.7</ele><time>2012-07-24T17:19:54.0000000+00:00</time></trkpt><trkpt lat="63.97928238" lon="-18.75709724"><ele>695.1</ele><time>2012-07-24T17:19:59.0000000+00:00</time></trkpt><trkpt lat="63.97937775" lon="-18.75736237"><ele>696.4</ele><time>2012-07-24T17:20:04.0000000+00:00</time></trkpt><trkpt lat="63.97945023" lon="-18.75760841"><ele>695.8</ele><time>2012-07-24T17:20:09.0000000+00:00</time></trkpt><trkpt lat="63.97952271" lon="-18.75781059"><ele>697.3</ele><time>2012-07-24T17:20:14.0000000+00:00</time></trkpt><trkpt lat="63.97957993" lon="-18.75795555"><ele>698.2</ele><time>2012-07-24T17:20:19.0000000+00:00</time></trkpt><trkpt lat="63.979599" lon="-18.75806618"><ele>698.1</ele><time>2012-07-24T17:20:24.0000000+00:00</time></trkpt><trkpt lat="63.97966003" lon="-18.75821114"><ele>698.4</ele><time>2012-07-24T17:20:29.0000000+00:00</time></trkpt><trkpt lat="63.97971726" lon="-18.75837517"><ele>698.6</ele><time>2012-07-24T17:20:34.0000000+00:00</time></trkpt><trkpt lat="63.97971344" lon="-18.75838471"><ele>698.9</ele><time>2012-07-24T17:20:39.0000000+00:00</time></trkpt><trkpt lat="63.97971344" lon="-18.75838661"><ele>699.2</ele><time>2012-07-24T17:20:44.0000000+00:00</time></trkpt><trkpt lat="63.97971726" lon="-18.75838661"><ele>699.4</ele><time>2012-07-24T17:20:49.0000000+00:00</time></trkpt><trkpt lat="63.97971726" lon="-18.75838471"><ele>699.4</ele><time>2012-07-24T17:20:54.0000000+00:00</time></trkpt><trkpt lat="63.97971726" lon="-18.75838471"><ele>699.4</ele><time>2012-07-24T17:20:59.0000000+00:00</time></trkpt><trkpt lat="63.97971726" lon="-18.75838471"><ele>699.4</ele><time>2012-07-24T17:21:04.0000000+00:00</time></trkpt><trkpt lat="63.97971344" lon="-18.7583828"><ele>699.3</ele><time>2012-07-24T17:21:09.0000000+00:00</time></trkpt><trkpt lat="63.97971344" lon="-18.7583828"><ele>699.4</ele><time>2012-07-24T17:21:14.0000000+00:00</time></trkpt><trkpt lat="63.97971344" lon="-18.7583828"><ele>699.4</ele><time>2012-07-24T17:21:19.0000000+00:00</time></trkpt><trkpt lat="63.97971344" lon="-18.7583828"><ele>699.4</ele><time>2012-07-24T17:21:24.0000000+00:00</time></trkpt><trkpt lat="63.97971344" lon="-18.7583828"><ele>699.4</ele><time>2012-07-24T17:21:29.0000000+00:00</time></trkpt><trkpt lat="63.97971344" lon="-18.7583828"><ele>699.4</ele><time>2012-07-24T17:21:34.0000000+00:00</time></trkpt><trkpt lat="63.97971344" lon="-18.7583828"><ele>699.4</ele><time>2012-07-24T17:21:39.0000000+00:00</time></trkpt><trkpt lat="63.97971344" lon="-18.7583828"><ele>699.4</ele><time>2012-07-24T17:21:44.0000000+00:00</time></trkpt><trkpt lat="63.97971726" lon="-18.7583828"><ele>699.4</ele><time>2012-07-24T17:21:49.0000000+00:00</time></trkpt><trkpt lat="63.97971726" lon="-18.7583828"><ele>699.4</ele><time>2012-07-24T17:21:54.0000000+00:00</time></trkpt><trkpt lat="63.97971726" lon="-18.7583828"><ele>699.4</ele><time>2012-07-24T17:21:59.0000000+00:00</time></trkpt><trkpt lat="63.97971726" lon="-18.7583828"><ele>699.4</ele><time>2012-07-24T17:22:04.0000000+00:00</time></trkpt><trkpt lat="63.97971726" lon="-18.7583828"><ele>699.4</ele><time>2012-07-24T17:22:09.0000000+00:00</time></trkpt><trkpt lat="63.97971726" lon="-18.7583828"><ele>699.4</ele><time>2012-07-24T17:22:14.0000000+00:00</time></trkpt><trkpt lat="63.97971726" lon="-18.7583828"><ele>699.4</ele><time>2012-07-24T17:22:19.0000000+00:00</time></trkpt><trkpt lat="63.97971726" lon="-18.7583828"><ele>699.4</ele><time>2012-07-24T17:22:24.0000000+00:00</time></trkpt><trkpt lat="63.97971726" lon="-18.7583828"><ele>699.4</ele><time>2012-07-24T17:22:29.0000000+00:00</time></trkpt><trkpt lat="63.97971726" lon="-18.7583828"><ele>699.4</ele><time>2012-07-24T17:22:34.0000000+00:00</time></trkpt><trkpt lat="63.97971726" lon="-18.7583828"><ele>699.4</ele><time>2012-07-24T17:22:39.0000000+00:00</time></trkpt><trkpt lat="63.97971344" lon="-18.75838852"><ele>699.4</ele><time>2012-07-24T17:22:44.0000000+00:00</time></trkpt><trkpt lat="63.97970963" lon="-18.75840187"><ele>699.6</ele><time>2012-07-24T17:22:49.0000000+00:00</time></trkpt><trkpt lat="63.97970963" lon="-18.75841332"><ele>700.0</ele><time>2012-07-24T17:22:54.0000000+00:00</time></trkpt><trkpt lat="63.97970963" lon="-18.75841522"><ele>700.1</ele><time>2012-07-24T17:22:59.0000000+00:00</time></trkpt><trkpt lat="63.97970963" lon="-18.75841522"><ele>700.1</ele><time>2012-07-24T17:23:04.0000000+00:00</time></trkpt><trkpt lat="63.97970963" lon="-18.75841522"><ele>700.0</ele><time>2012-07-24T17:23:09.0000000+00:00</time></trkpt><trkpt lat="63.97970963" lon="-18.75841522"><ele>700.0</ele><time>2012-07-24T17:23:14.0000000+00:00</time></trkpt><trkpt lat="63.9796257" lon="-18.75844193"><ele>699.2</ele><time>2012-07-24T17:23:19.0000000+00:00</time></trkpt><trkpt lat="63.97948837" lon="-18.75850105"><ele>697.8</ele><time>2012-07-24T17:23:24.0000000+00:00</time></trkpt><trkpt lat="63.97935867" lon="-18.7585659"><ele>696.6</ele><time>2012-07-24T17:23:29.0000000+00:00</time></trkpt><trkpt lat="63.97924042" lon="-18.75860405"><ele>696.2</ele><time>2012-07-24T17:23:34.0000000+00:00</time></trkpt><trkpt lat="63.97913361" lon="-18.75866318"><ele>695.5</ele><time>2012-07-24T17:23:39.0000000+00:00</time></trkpt><trkpt lat="63.97904587" lon="-18.75871277"><ele>694.0</ele><time>2012-07-24T17:23:44.0000000+00:00</time></trkpt><trkpt lat="63.97901154" lon="-18.75875282"><ele>693.1</ele><time>2012-07-24T17:23:49.0000000+00:00</time></trkpt><trkpt lat="63.97900772" lon="-18.75875092"><ele>692.9</ele><time>2012-07-24T17:23:54.0000000+00:00</time></trkpt><trkpt lat="63.97900772" lon="-18.75875092"><ele>692.9</ele><time>2012-07-24T17:23:59.0000000+00:00</time></trkpt><trkpt lat="63.97900772" lon="-18.75874901"><ele>692.9</ele><time>2012-07-24T17:24:04.0000000+00:00</time></trkpt><trkpt lat="63.97900391" lon="-18.75874519"><ele>692.9</ele><time>2012-07-24T17:24:09.0000000+00:00</time></trkpt><trkpt lat="63.97900391" lon="-18.75874901"><ele>692.9</ele><time>2012-07-24T17:24:14.0000000+00:00</time></trkpt><trkpt lat="63.97900391" lon="-18.75874901"><ele>692.9</ele><time>2012-07-24T17:24:19.0000000+00:00</time></trkpt><trkpt lat="63.97900391" lon="-18.75874519"><ele>692.9</ele><time>2012-07-24T17:24:24.0000000+00:00</time></trkpt><trkpt lat="63.97900391" lon="-18.75874519"><ele>692.9</ele><time>2012-07-24T17:24:29.0000000+00:00</time></trkpt><trkpt lat="63.97900391" lon="-18.7587471"><ele>693.0</ele><time>2012-07-24T17:24:34.0000000+00:00</time></trkpt><trkpt lat="63.97896957" lon="-18.75878716"><ele>693.0</ele><time>2012-07-24T17:24:39.0000000+00:00</time></trkpt><trkpt lat="63.97889328" lon="-18.75884819"><ele>692.4</ele><time>2012-07-24T17:24:44.0000000+00:00</time></trkpt><trkpt lat="63.97880173" lon="-18.75894165"><ele>691.9</ele><time>2012-07-24T17:24:49.0000000+00:00</time></trkpt><trkpt lat="63.97869873" lon="-18.75902367"><ele>691.0</ele><time>2012-07-24T17:24:54.0000000+00:00</time></trkpt><trkpt lat="63.97861481" lon="-18.75909615"><ele>690.9</ele><time>2012-07-24T17:24:59.0000000+00:00</time></trkpt><trkpt lat="63.97851944" lon="-18.75917435"><ele>689.9</ele><time>2012-07-24T17:25:04.0000000+00:00</time></trkpt><trkpt lat="63.97840881" lon="-18.75926971"><ele>689.8</ele><time>2012-07-24T17:25:09.0000000+00:00</time></trkpt><trkpt lat="63.97832871" lon="-18.75935936"><ele>689.8</ele><time>2012-07-24T17:25:14.0000000+00:00</time></trkpt><trkpt lat="63.97825623" lon="-18.75941467"><ele>688.7</ele><time>2012-07-24T17:25:19.0000000+00:00</time></trkpt><trkpt lat="63.97820664" lon="-18.75944328"><ele>688.7</ele><time>2012-07-24T17:25:24.0000000+00:00</time></trkpt><trkpt lat="63.97816086" lon="-18.7595253"><ele>689.3</ele><time>2012-07-24T17:25:29.0000000+00:00</time></trkpt><trkpt lat="63.9781456" lon="-18.759552"><ele>689.8</ele><time>2012-07-24T17:25:34.0000000+00:00</time></trkpt><trkpt lat="63.9781456" lon="-18.759552"><ele>690.1</ele><time>2012-07-24T17:25:39.0000000+00:00</time></trkpt><trkpt lat="63.9781456" lon="-18.759552"><ele>690.2</ele><time>2012-07-24T17:25:44.0000000+00:00</time></trkpt><trkpt lat="63.9781456" lon="-18.75955391"><ele>690.2</ele><time>2012-07-24T17:25:49.0000000+00:00</time></trkpt><trkpt lat="63.97813034" lon="-18.75959206"><ele>690.8</ele><time>2012-07-24T17:25:54.0000000+00:00</time></trkpt><trkpt lat="63.97812271" lon="-18.75962257"><ele>691.6</ele><time>2012-07-24T17:25:59.0000000+00:00</time></trkpt><trkpt lat="63.97812271" lon="-18.75963211"><ele>692.0</ele><time>2012-07-24T17:26:04.0000000+00:00</time></trkpt><trkpt lat="63.97809982" lon="-18.759655"><ele>692.8</ele><time>2012-07-24T17:26:09.0000000+00:00</time></trkpt><trkpt lat="63.97805405" lon="-18.7597065"><ele>693.5</ele><time>2012-07-24T17:26:14.0000000+00:00</time></trkpt><trkpt lat="63.97803879" lon="-18.75971794"><ele>693.0</ele><time>2012-07-24T17:26:19.0000000+00:00</time></trkpt><trkpt lat="63.97799301" lon="-18.75976563"><ele>692.9</ele><time>2012-07-24T17:26:24.0000000+00:00</time></trkpt><trkpt lat="63.97794342" lon="-18.75981522"><ele>693.0</ele><time>2012-07-24T17:26:29.0000000+00:00</time></trkpt><trkpt lat="63.97789383" lon="-18.75987434"><ele>693.4</ele><time>2012-07-24T17:26:34.0000000+00:00</time></trkpt><trkpt lat="63.97785187" lon="-18.75993729"><ele>694.4</ele><time>2012-07-24T17:26:39.0000000+00:00</time></trkpt><trkpt lat="63.97780609" lon="-18.76000214"><ele>695.1</ele><time>2012-07-24T17:26:44.0000000+00:00</time></trkpt><trkpt lat="63.97776413" lon="-18.76006889"><ele>695.7</ele><time>2012-07-24T17:26:49.0000000+00:00</time></trkpt><trkpt lat="63.97772217" lon="-18.76011467"><ele>695.5</ele><time>2012-07-24T17:26:54.0000000+00:00</time></trkpt><trkpt lat="63.97768402" lon="-18.7601738"><ele>696.2</ele><time>2012-07-24T17:26:59.0000000+00:00</time></trkpt><trkpt lat="63.97764587" lon="-18.7602253"><ele>696.1</ele><time>2012-07-24T17:27:04.0000000+00:00</time></trkpt><trkpt lat="63.97761536" lon="-18.76031113"><ele>695.4</ele><time>2012-07-24T17:27:09.0000000+00:00</time></trkpt><trkpt lat="63.97757721" lon="-18.76038933"><ele>695.7</ele><time>2012-07-24T17:27:14.0000000+00:00</time></trkpt><trkpt lat="63.97753525" lon="-18.76047897"><ele>697.6</ele><time>2012-07-24T17:27:19.0000000+00:00</time></trkpt><trkpt lat="63.97751617" lon="-18.7605629"><ele>697.2</ele><time>2012-07-24T17:27:24.0000000+00:00</time></trkpt><trkpt lat="63.97748947" lon="-18.76065254"><ele>697.4</ele><time>2012-07-24T17:27:29.0000000+00:00</time></trkpt><trkpt lat="63.97746277" lon="-18.76073647"><ele>697.7</ele><time>2012-07-24T17:27:34.0000000+00:00</time></trkpt><trkpt lat="63.97743225" lon="-18.7608242"><ele>698.1</ele><time>2012-07-24T17:27:39.0000000+00:00</time></trkpt><trkpt lat="63.97740555" lon="-18.7609005"><ele>697.4</ele><time>2012-07-24T17:27:44.0000000+00:00</time></trkpt><trkpt lat="63.97737885" lon="-18.76098633"><ele>697.6</ele><time>2012-07-24T17:27:49.0000000+00:00</time></trkpt><trkpt lat="63.97734833" lon="-18.76109886"><ele>698.2</ele><time>2012-07-24T17:27:54.0000000+00:00</time></trkpt><trkpt lat="63.97732544" lon="-18.7612114"><ele>698.6</ele><time>2012-07-24T17:27:59.0000000+00:00</time></trkpt><trkpt lat="63.97730255" lon="-18.76132011"><ele>698.8</ele><time>2012-07-24T17:28:04.0000000+00:00</time></trkpt><trkpt lat="63.97727966" lon="-18.76142502"><ele>699.3</ele><time>2012-07-24T17:28:09.0000000+00:00</time></trkpt><trkpt lat="63.97724533" lon="-18.76150131"><ele>700.3</ele><time>2012-07-24T17:28:14.0000000+00:00</time></trkpt><trkpt lat="63.97721863" lon="-18.76154709"><ele>700.3</ele><time>2012-07-24T17:28:19.0000000+00:00</time></trkpt><trkpt lat="63.97718048" lon="-18.76165199"><ele>700.4</ele><time>2012-07-24T17:28:24.0000000+00:00</time></trkpt><trkpt lat="63.97711563" lon="-18.76179123"><ele>700.7</ele><time>2012-07-24T17:28:29.0000000+00:00</time></trkpt><trkpt lat="63.97705078" lon="-18.76195145"><ele>700.8</ele><time>2012-07-24T17:28:34.0000000+00:00</time></trkpt><trkpt lat="63.97695923" lon="-18.76214218"><ele>700.8</ele><time>2012-07-24T17:28:39.0000000+00:00</time></trkpt><trkpt lat="63.97687531" lon="-18.76228142"><ele>701.1</ele><time>2012-07-24T17:28:44.0000000+00:00</time></trkpt><trkpt lat="63.9767952" lon="-18.76237106"><ele>701.0</ele><time>2012-07-24T17:28:49.0000000+00:00</time></trkpt><trkpt lat="63.97673035" lon="-18.76249123"><ele>701.3</ele><time>2012-07-24T17:28:54.0000000+00:00</time></trkpt><trkpt lat="63.97665787" lon="-18.76259422"><ele>701.6</ele><time>2012-07-24T17:28:59.0000000+00:00</time></trkpt><trkpt lat="63.97658539" lon="-18.76268387"><ele>701.9</ele><time>2012-07-24T17:29:04.0000000+00:00</time></trkpt><trkpt lat="63.97652054" lon="-18.76273727"><ele>702.0</ele><time>2012-07-24T17:29:09.0000000+00:00</time></trkpt><trkpt lat="63.97644806" lon="-18.76280022"><ele>702.1</ele><time>2012-07-24T17:29:14.0000000+00:00</time></trkpt><trkpt lat="63.97638321" lon="-18.76284027"><ele>702.0</ele><time>2012-07-24T17:29:19.0000000+00:00</time></trkpt><trkpt lat="63.97638702" lon="-18.76283455"><ele>702.0</ele><time>2012-07-24T17:29:24.0000000+00:00</time></trkpt><trkpt lat="63.97638702" lon="-18.76283073"><ele>701.9</ele><time>2012-07-24T17:29:29.0000000+00:00</time></trkpt><trkpt lat="63.97638702" lon="-18.76283264"><ele>701.9</ele><time>2012-07-24T17:29:34.0000000+00:00</time></trkpt><trkpt lat="63.9763794" lon="-18.76283646"><ele>701.7</ele><time>2012-07-24T17:29:39.0000000+00:00</time></trkpt><trkpt lat="63.97631455" lon="-18.7628994"><ele>701.7</ele><time>2012-07-24T17:29:44.0000000+00:00</time></trkpt><trkpt lat="63.97623825" lon="-18.7629776"><ele>702.2</ele><time>2012-07-24T17:29:49.0000000+00:00</time></trkpt><trkpt lat="63.97615814" lon="-18.76304245"><ele>702.8</ele><time>2012-07-24T17:29:54.0000000+00:00</time></trkpt><trkpt lat="63.97606659" lon="-18.76312828"><ele>703.0</ele><time>2012-07-24T17:29:59.0000000+00:00</time></trkpt><trkpt lat="63.97599793" lon="-18.76324463"><ele>703.5</ele><time>2012-07-24T17:30:04.0000000+00:00</time></trkpt><trkpt lat="63.97594833" lon="-18.76340294"><ele>704.3</ele><time>2012-07-24T17:30:09.0000000+00:00</time></trkpt><trkpt lat="63.975914" lon="-18.76350975"><ele>704.4</ele><time>2012-07-24T17:30:14.0000000+00:00</time></trkpt><trkpt lat="63.97586441" lon="-18.7636776"><ele>704.4</ele><time>2012-07-24T17:30:19.0000000+00:00</time></trkpt><trkpt lat="63.97582245" lon="-18.76384735"><ele>704.5</ele><time>2012-07-24T17:30:24.0000000+00:00</time></trkpt><trkpt lat="63.9757843" lon="-18.76401711"><ele>704.5</ele><time>2012-07-24T17:30:29.0000000+00:00</time></trkpt><trkpt lat="63.97575378" lon="-18.76420975"><ele>705.2</ele><time>2012-07-24T17:30:34.0000000+00:00</time></trkpt><trkpt lat="63.97570801" lon="-18.76438332"><ele>705.4</ele><time>2012-07-24T17:30:39.0000000+00:00</time></trkpt><trkpt lat="63.97566223" lon="-18.76455307"><ele>705.7</ele><time>2012-07-24T17:30:44.0000000+00:00</time></trkpt><trkpt lat="63.97561646" lon="-18.76473999"><ele>705.9</ele><time>2012-07-24T17:30:49.0000000+00:00</time></trkpt><trkpt lat="63.97556305" lon="-18.76485825"><ele>706.4</ele><time>2012-07-24T17:30:54.0000000+00:00</time></trkpt><trkpt lat="63.97550583" lon="-18.76495552"><ele>706.9</ele><time>2012-07-24T17:30:59.0000000+00:00</time></trkpt><trkpt lat="63.97547913" lon="-18.76499367"><ele>706.6</ele><time>2012-07-24T17:31:04.0000000+00:00</time></trkpt><trkpt lat="63.97544479" lon="-18.7650528"><ele>707.2</ele><time>2012-07-24T17:31:09.0000000+00:00</time></trkpt><trkpt lat="63.97541428" lon="-18.76510429"><ele>708.0</ele><time>2012-07-24T17:31:14.0000000+00:00</time></trkpt><trkpt lat="63.97537613" lon="-18.76512337"><ele>708.8</ele><time>2012-07-24T17:31:19.0000000+00:00</time></trkpt><trkpt lat="63.97533798" lon="-18.76515007"><ele>708.9</ele><time>2012-07-24T17:31:24.0000000+00:00</time></trkpt><trkpt lat="63.97531509" lon="-18.7651577"><ele>709.3</ele><time>2012-07-24T17:31:29.0000000+00:00</time></trkpt><trkpt lat="63.97531128" lon="-18.76516533"><ele>709.5</ele><time>2012-07-24T17:31:34.0000000+00:00</time></trkpt><trkpt lat="63.97531128" lon="-18.76516914"><ele>709.7</ele><time>2012-07-24T17:31:39.0000000+00:00</time></trkpt><trkpt lat="63.97531128" lon="-18.76517105"><ele>709.7</ele><time>2012-07-24T17:31:44.0000000+00:00</time></trkpt><trkpt lat="63.97531128" lon="-18.76517105"><ele>709.7</ele><time>2012-07-24T17:31:49.0000000+00:00</time></trkpt><trkpt lat="63.97531128" lon="-18.76517105"><ele>709.7</ele><time>2012-07-24T17:31:54.0000000+00:00</time></trkpt><trkpt lat="63.97531128" lon="-18.76517105"><ele>709.7</ele><time>2012-07-24T17:31:59.0000000+00:00</time></trkpt><trkpt lat="63.97531128" lon="-18.76517105"><ele>709.7</ele><time>2012-07-24T17:32:04.0000000+00:00</time></trkpt><trkpt lat="63.97531128" lon="-18.76517105"><ele>709.7</ele><time>2012-07-24T17:32:09.0000000+00:00</time></trkpt><trkpt lat="63.97531128" lon="-18.76517105"><ele>709.7</ele><time>2012-07-24T17:32:14.0000000+00:00</time></trkpt><trkpt lat="63.97531128" lon="-18.76517105"><ele>709.7</ele><time>2012-07-24T17:32:19.0000000+00:00</time></trkpt><trkpt lat="63.97531128" lon="-18.76517105"><ele>709.7</ele><time>2012-07-24T17:32:24.0000000+00:00</time></trkpt><trkpt lat="63.97531128" lon="-18.76517105"><ele>709.6</ele><time>2012-07-24T17:32:29.0000000+00:00</time></trkpt><trkpt lat="63.97531128" lon="-18.76517296"><ele>709.6</ele><time>2012-07-24T17:32:34.0000000+00:00</time></trkpt><trkpt lat="63.97531128" lon="-18.76517105"><ele>709.6</ele><time>2012-07-24T17:32:39.0000000+00:00</time></trkpt><trkpt lat="63.97531128" lon="-18.76517296"><ele>709.6</ele><time>2012-07-24T17:32:44.0000000+00:00</time></trkpt><trkpt lat="63.97529602" lon="-18.76519585"><ele>709.7</ele><time>2012-07-24T17:32:49.0000000+00:00</time></trkpt><trkpt lat="63.97521591" lon="-18.76525116"><ele>710.1</ele><time>2012-07-24T17:32:54.0000000+00:00</time></trkpt><trkpt lat="63.9751358" lon="-18.76529884"><ele>709.6</ele><time>2012-07-24T17:32:59.0000000+00:00</time></trkpt><trkpt lat="63.97500229" lon="-18.76538467"><ele>708.8</ele><time>2012-07-24T17:33:04.0000000+00:00</time></trkpt><trkpt lat="63.9748764" lon="-18.76544571"><ele>708.0</ele><time>2012-07-24T17:33:09.0000000+00:00</time></trkpt><trkpt lat="63.97476578" lon="-18.765522"><ele>707.4</ele><time>2012-07-24T17:33:14.0000000+00:00</time></trkpt><trkpt lat="63.97466278" lon="-18.76560593"><ele>707.2</ele><time>2012-07-24T17:33:19.0000000+00:00</time></trkpt><trkpt lat="63.97458267" lon="-18.76573753"><ele>706.8</ele><time>2012-07-24T17:33:24.0000000+00:00</time></trkpt><trkpt lat="63.97454071" lon="-18.76595116"><ele>706.4</ele><time>2012-07-24T17:33:29.0000000+00:00</time></trkpt><trkpt lat="63.97451782" lon="-18.76613617"><ele>706.3</ele><time>2012-07-24T17:33:34.0000000+00:00</time></trkpt><trkpt lat="63.97451401" lon="-18.76613617"><ele>706.3</ele><time>2012-07-24T17:33:39.0000000+00:00</time></trkpt><trkpt lat="63.97451401" lon="-18.76613617"><ele>706.3</ele><time>2012-07-24T17:33:44.0000000+00:00</time></trkpt><trkpt lat="63.97451401" lon="-18.76613617"><ele>706.3</ele><time>2012-07-24T17:33:49.0000000+00:00</time></trkpt><trkpt lat="63.97451401" lon="-18.76613998"><ele>706.3</ele><time>2012-07-24T17:33:54.0000000+00:00</time></trkpt><trkpt lat="63.97449875" lon="-18.76638985"><ele>706.1</ele><time>2012-07-24T17:33:59.0000000+00:00</time></trkpt><trkpt lat="63.97447968" lon="-18.76667023"><ele>705.7</ele><time>2012-07-24T17:34:04.0000000+00:00</time></trkpt><trkpt lat="63.97445679" lon="-18.7669754"><ele>704.5</ele><time>2012-07-24T17:34:09.0000000+00:00</time></trkpt><trkpt lat="63.97443008" lon="-18.76740837"><ele>702.5</ele><time>2012-07-24T17:34:14.0000000+00:00</time></trkpt><trkpt lat="63.9744072" lon="-18.76783752"><ele>701.2</ele><time>2012-07-24T17:34:19.0000000+00:00</time></trkpt><trkpt lat="63.97437286" lon="-18.76816559"><ele>699.5</ele><time>2012-07-24T17:34:24.0000000+00:00</time></trkpt><trkpt lat="63.97427368" lon="-18.76850891"><ele>697.9</ele><time>2012-07-24T17:34:29.0000000+00:00</time></trkpt><trkpt lat="63.97413254" lon="-18.76890183"><ele>696.8</ele><time>2012-07-24T17:34:34.0000000+00:00</time></trkpt><trkpt lat="63.9740448" lon="-18.76928711"><ele>695.2</ele><time>2012-07-24T17:34:39.0000000+00:00</time></trkpt><trkpt lat="63.97400665" lon="-18.76955605"><ele>694.8</ele><time>2012-07-24T17:34:44.0000000+00:00</time></trkpt><trkpt lat="63.97398758" lon="-18.76981545"><ele>694.6</ele><time>2012-07-24T17:34:49.0000000+00:00</time></trkpt><trkpt lat="63.97397995" lon="-18.77009773"><ele>693.6</ele><time>2012-07-24T17:34:54.0000000+00:00</time></trkpt><trkpt lat="63.97397232" lon="-18.77038765"><ele>693.0</ele><time>2012-07-24T17:34:59.0000000+00:00</time></trkpt><trkpt lat="63.97393799" lon="-18.77070808"><ele>692.1</ele><time>2012-07-24T17:35:04.0000000+00:00</time></trkpt><trkpt lat="63.97385788" lon="-18.77098274"><ele>690.8</ele><time>2012-07-24T17:35:09.0000000+00:00</time></trkpt><trkpt lat="63.9737587" lon="-18.77109528"><ele>689.8</ele><time>2012-07-24T17:35:14.0000000+00:00</time></trkpt><trkpt lat="63.97364426" lon="-18.77115631"><ele>688.7</ele><time>2012-07-24T17:35:19.0000000+00:00</time></trkpt><trkpt lat="63.97352982" lon="-18.77108383"><ele>688.1</ele><time>2012-07-24T17:35:24.0000000+00:00</time></trkpt><trkpt lat="63.97343826" lon="-18.77100563"><ele>686.9</ele><time>2012-07-24T17:35:29.0000000+00:00</time></trkpt><trkpt lat="63.97333908" lon="-18.77093124"><ele>685.9</ele><time>2012-07-24T17:35:34.0000000+00:00</time></trkpt><trkpt lat="63.97325516" lon="-18.77085495"><ele>685.2</ele><time>2012-07-24T17:35:39.0000000+00:00</time></trkpt><trkpt lat="63.97310257" lon="-18.77070999"><ele>683.9</ele><time>2012-07-24T17:35:44.0000000+00:00</time></trkpt><trkpt lat="63.97289276" lon="-18.77058792"><ele>682.0</ele><time>2012-07-24T17:35:49.0000000+00:00</time></trkpt><trkpt lat="63.97277451" lon="-18.7705574"><ele>682.7</ele><time>2012-07-24T17:35:54.0000000+00:00</time></trkpt><trkpt lat="63.97268677" lon="-18.77053261"><ele>682.3</ele><time>2012-07-24T17:35:59.0000000+00:00</time></trkpt><trkpt lat="63.97258377" lon="-18.77051163"><ele>681.9</ele><time>2012-07-24T17:36:04.0000000+00:00</time></trkpt><trkpt lat="63.9725647" lon="-18.77052116"><ele>683.1</ele><time>2012-07-24T17:36:09.0000000+00:00</time></trkpt><trkpt lat="63.9725647" lon="-18.77052307"><ele>683.2</ele><time>2012-07-24T17:36:14.0000000+00:00</time></trkpt><trkpt lat="63.9725647" lon="-18.77052116"><ele>683.2</ele><time>2012-07-24T17:36:19.0000000+00:00</time></trkpt><trkpt lat="63.9725647" lon="-18.77052307"><ele>683.2</ele><time>2012-07-24T17:36:24.0000000+00:00</time></trkpt><trkpt lat="63.9725647" lon="-18.77052498"><ele>683.3</ele><time>2012-07-24T17:36:29.0000000+00:00</time></trkpt><trkpt lat="63.97254562" lon="-18.77052116"><ele>683.4</ele><time>2012-07-24T17:36:34.0000000+00:00</time></trkpt><trkpt lat="63.97250748" lon="-18.77051354"><ele>683.8</ele><time>2012-07-24T17:36:39.0000000+00:00</time></trkpt><trkpt lat="63.97246933" lon="-18.77050591"><ele>684.3</ele><time>2012-07-24T17:36:44.0000000+00:00</time></trkpt><trkpt lat="63.972435" lon="-18.77048492"><ele>684.8</ele><time>2012-07-24T17:36:49.0000000+00:00</time></trkpt><trkpt lat="63.97239685" lon="-18.77046204"><ele>685.2</ele><time>2012-07-24T17:36:54.0000000+00:00</time></trkpt><trkpt lat="63.97236252" lon="-18.77046204"><ele>685.8</ele><time>2012-07-24T17:36:59.0000000+00:00</time></trkpt><trkpt lat="63.97232437" lon="-18.77046013"><ele>686.7</ele><time>2012-07-24T17:37:04.0000000+00:00</time></trkpt><trkpt lat="63.97229004" lon="-18.77044869"><ele>687.4</ele><time>2012-07-24T17:37:09.0000000+00:00</time></trkpt><trkpt lat="63.97224808" lon="-18.77044106"><ele>688.0</ele><time>2012-07-24T17:37:14.0000000+00:00</time></trkpt><trkpt lat="63.9722023" lon="-18.77044106"><ele>688.7</ele><time>2012-07-24T17:37:19.0000000+00:00</time></trkpt><trkpt lat="63.97216034" lon="-18.7704277"><ele>688.6</ele><time>2012-07-24T17:37:24.0000000+00:00</time></trkpt><trkpt lat="63.97215653" lon="-18.7704277"><ele>688.6</ele><time>2012-07-24T17:37:29.0000000+00:00</time></trkpt><trkpt lat="63.97215653" lon="-18.7704277"><ele>688.6</ele><time>2012-07-24T17:37:34.0000000+00:00</time></trkpt><trkpt lat="63.9721489" lon="-18.77042389"><ele>688.5</ele><time>2012-07-24T17:37:39.0000000+00:00</time></trkpt><trkpt lat="63.9720993" lon="-18.77041435"><ele>688.9</ele><time>2012-07-24T17:37:44.0000000+00:00</time></trkpt><trkpt lat="63.97206497" lon="-18.77039337"><ele>688.8</ele><time>2012-07-24T17:37:49.0000000+00:00</time></trkpt><trkpt lat="63.97206497" lon="-18.77039909"><ele>689.1</ele><time>2012-07-24T17:37:54.0000000+00:00</time></trkpt><trkpt lat="63.97206497" lon="-18.77040291"><ele>689.3</ele><time>2012-07-24T17:37:59.0000000+00:00</time></trkpt><trkpt lat="63.97205353" lon="-18.77040291"><ele>689.3</ele><time>2012-07-24T17:38:04.0000000+00:00</time></trkpt><trkpt lat="63.97200775" lon="-18.77040672"><ele>689.5</ele><time>2012-07-24T17:38:09.0000000+00:00</time></trkpt><trkpt lat="63.9719162" lon="-18.77044678"><ele>689.9</ele><time>2012-07-24T17:38:14.0000000+00:00</time></trkpt><trkpt lat="63.97181702" lon="-18.77046204"><ele>689.8</ele><time>2012-07-24T17:38:19.0000000+00:00</time></trkpt><trkpt lat="63.97171783" lon="-18.77052689"><ele>690.8</ele><time>2012-07-24T17:38:24.0000000+00:00</time></trkpt><trkpt lat="63.97160721" lon="-18.77056885"><ele>691.3</ele><time>2012-07-24T17:38:29.0000000+00:00</time></trkpt><trkpt lat="63.9715271" lon="-18.77061462"><ele>691.7</ele><time>2012-07-24T17:38:34.0000000+00:00</time></trkpt><trkpt lat="63.97145081" lon="-18.77061272"><ele>690.2</ele><time>2012-07-24T17:38:39.0000000+00:00</time></trkpt><trkpt lat="63.97137451" lon="-18.7706089"><ele>689.8</ele><time>2012-07-24T17:38:44.0000000+00:00</time></trkpt><trkpt lat="63.97136307" lon="-18.77058029"><ele>688.6</ele><time>2012-07-24T17:38:49.0000000+00:00</time></trkpt><trkpt lat="63.97135925" lon="-18.77057076"><ele>688.0</ele><time>2012-07-24T17:38:54.0000000+00:00</time></trkpt><trkpt lat="63.97135544" lon="-18.77056694"><ele>687.7</ele><time>2012-07-24T17:38:59.0000000+00:00</time></trkpt><trkpt lat="63.97135544" lon="-18.77056313"><ele>687.5</ele><time>2012-07-24T17:39:04.0000000+00:00</time></trkpt><trkpt lat="63.97135162" lon="-18.77056122"><ele>687.4</ele><time>2012-07-24T17:39:09.0000000+00:00</time></trkpt><trkpt lat="63.97135162" lon="-18.77055931"><ele>687.3</ele><time>2012-07-24T17:39:14.0000000+00:00</time></trkpt><trkpt lat="63.97135162" lon="-18.77056122"><ele>687.4</ele><time>2012-07-24T17:39:19.0000000+00:00</time></trkpt><trkpt lat="63.97132874" lon="-18.7705574"><ele>687.3</ele><time>2012-07-24T17:39:24.0000000+00:00</time></trkpt><trkpt lat="63.97124481" lon="-18.77047157"><ele>687.8</ele><time>2012-07-24T17:39:29.0000000+00:00</time></trkpt><trkpt lat="63.97117615" lon="-18.77033615"><ele>688.1</ele><time>2012-07-24T17:39:34.0000000+00:00</time></trkpt><trkpt lat="63.97111893" lon="-18.77018929"><ele>688.5</ele><time>2012-07-24T17:39:39.0000000+00:00</time></trkpt><trkpt lat="63.97105026" lon="-18.76994705"><ele>688.3</ele><time>2012-07-24T17:39:44.0000000+00:00</time></trkpt><trkpt lat="63.97099686" lon="-18.76972771"><ele>687.4</ele><time>2012-07-24T17:39:49.0000000+00:00</time></trkpt><trkpt lat="63.97092438" lon="-18.76948547"><ele>686.5</ele><time>2012-07-24T17:39:54.0000000+00:00</time></trkpt><trkpt lat="63.97083664" lon="-18.76924896"><ele>688.1</ele><time>2012-07-24T17:39:59.0000000+00:00</time></trkpt><trkpt lat="63.97076035" lon="-18.76901436"><ele>690.2</ele><time>2012-07-24T17:40:04.0000000+00:00</time></trkpt><trkpt lat="63.97068024" lon="-18.76875496"><ele>689.3</ele><time>2012-07-24T17:40:09.0000000+00:00</time></trkpt><trkpt lat="63.97060394" lon="-18.76856232"><ele>688.0</ele><time>2012-07-24T17:40:14.0000000+00:00</time></trkpt><trkpt lat="63.97054672" lon="-18.76836014"><ele>687.3</ele><time>2012-07-24T17:40:19.0000000+00:00</time></trkpt><trkpt lat="63.97052002" lon="-18.76828003"><ele>686.9</ele><time>2012-07-24T17:40:24.0000000+00:00</time></trkpt><trkpt lat="63.97052383" lon="-18.76827431"><ele>686.6</ele><time>2012-07-24T17:40:29.0000000+00:00</time></trkpt><trkpt lat="63.97053528" lon="-18.76830483"><ele>687.5</ele><time>2012-07-24T17:40:34.0000000+00:00</time></trkpt><trkpt lat="63.97053528" lon="-18.76830101"><ele>687.9</ele><time>2012-07-24T17:40:39.0000000+00:00</time></trkpt><trkpt lat="63.97053528" lon="-18.76830101"><ele>687.9</ele><time>2012-07-24T17:40:44.0000000+00:00</time></trkpt><trkpt lat="63.97053528" lon="-18.76830292"><ele>687.9</ele><time>2012-07-24T17:40:49.0000000+00:00</time></trkpt><trkpt lat="63.97053528" lon="-18.76830292"><ele>687.9</ele><time>2012-07-24T17:40:54.0000000+00:00</time></trkpt><trkpt lat="63.97052765" lon="-18.7682724"><ele>687.9</ele><time>2012-07-24T17:40:59.0000000+00:00</time></trkpt><trkpt lat="63.97046661" lon="-18.76804924"><ele>688.2</ele><time>2012-07-24T17:41:04.0000000+00:00</time></trkpt><trkpt lat="63.97039414" lon="-18.7678318"><ele>687.8</ele><time>2012-07-24T17:41:09.0000000+00:00</time></trkpt><trkpt lat="63.9703331" lon="-18.76763725"><ele>687.9</ele><time>2012-07-24T17:41:14.0000000+00:00</time></trkpt><trkpt lat="63.97025681" lon="-18.76733398"><ele>687.7</ele><time>2012-07-24T17:41:19.0000000+00:00</time></trkpt><trkpt lat="63.97016144" lon="-18.7668972"><ele>687.6</ele><time>2012-07-24T17:41:24.0000000+00:00</time></trkpt><trkpt lat="63.97006607" lon="-18.76651955"><ele>686.8</ele><time>2012-07-24T17:41:29.0000000+00:00</time></trkpt><trkpt lat="63.96999741" lon="-18.76613998"><ele>687.3</ele><time>2012-07-24T17:41:34.0000000+00:00</time></trkpt><trkpt lat="63.96992493" lon="-18.76587486"><ele>685.9</ele><time>2012-07-24T17:41:39.0000000+00:00</time></trkpt><trkpt lat="63.96986008" lon="-18.76563454"><ele>683.5</ele><time>2012-07-24T17:41:44.0000000+00:00</time></trkpt><trkpt lat="63.96979141" lon="-18.76540184"><ele>683.0</ele><time>2012-07-24T17:41:49.0000000+00:00</time></trkpt><trkpt lat="63.96972656" lon="-18.76515007"><ele>680.9</ele><time>2012-07-24T17:41:54.0000000+00:00</time></trkpt><trkpt lat="63.96968842" lon="-18.76490402"><ele>680.8</ele><time>2012-07-24T17:41:59.0000000+00:00</time></trkpt><trkpt lat="63.96960068" lon="-18.76464272"><ele>678.1</ele><time>2012-07-24T17:42:04.0000000+00:00</time></trkpt><trkpt lat="63.9695282" lon="-18.76446152"><ele>676.8</ele><time>2012-07-24T17:42:09.0000000+00:00</time></trkpt><trkpt lat="63.96942902" lon="-18.76413155"><ele>671.5</ele><time>2012-07-24T17:42:14.0000000+00:00</time></trkpt><trkpt lat="63.96929932" lon="-18.76369667"><ele>667.0</ele><time>2012-07-24T17:42:19.0000000+00:00</time></trkpt><trkpt lat="63.96917343" lon="-18.76344681"><ele>666.6</ele><time>2012-07-24T17:42:24.0000000+00:00</time></trkpt><trkpt lat="63.96907806" lon="-18.76332665"><ele>663.8</ele><time>2012-07-24T17:42:29.0000000+00:00</time></trkpt><trkpt lat="63.96900177" lon="-18.76321793"><ele>661.2</ele><time>2012-07-24T17:42:34.0000000+00:00</time></trkpt><trkpt lat="63.96891785" lon="-18.76307106"><ele>659.7</ele><time>2012-07-24T17:42:39.0000000+00:00</time></trkpt><trkpt lat="63.96879959" lon="-18.76288414"><ele>657.5</ele><time>2012-07-24T17:42:44.0000000+00:00</time></trkpt><trkpt lat="63.96869659" lon="-18.76271248"><ele>656.6</ele><time>2012-07-24T17:42:49.0000000+00:00</time></trkpt><trkpt lat="63.96858978" lon="-18.762537"><ele>656.5</ele><time>2012-07-24T17:42:54.0000000+00:00</time></trkpt><trkpt lat="63.96847534" lon="-18.7623806"><ele>653.7</ele><time>2012-07-24T17:42:59.0000000+00:00</time></trkpt><trkpt lat="63.96836853" lon="-18.76222038"><ele>651.9</ele><time>2012-07-24T17:43:04.0000000+00:00</time></trkpt><trkpt lat="63.96828461" lon="-18.76201057"><ele>652.2</ele><time>2012-07-24T17:43:09.0000000+00:00</time></trkpt><trkpt lat="63.96822739" lon="-18.76178551"><ele>655.5</ele><time>2012-07-24T17:43:14.0000000+00:00</time></trkpt><trkpt lat="63.96816635" lon="-18.76151848"><ele>658.8</ele><time>2012-07-24T17:43:19.0000000+00:00</time></trkpt><trkpt lat="63.9681015" lon="-18.76122475"><ele>659.6</ele><time>2012-07-24T17:43:24.0000000+00:00</time></trkpt><trkpt lat="63.96802521" lon="-18.76096535"><ele>659.6</ele><time>2012-07-24T17:43:29.0000000+00:00</time></trkpt><trkpt lat="63.96795273" lon="-18.76074028"><ele>658.5</ele><time>2012-07-24T17:43:34.0000000+00:00</time></trkpt><trkpt lat="63.96788788" lon="-18.76049805"><ele>660.0</ele><time>2012-07-24T17:43:39.0000000+00:00</time></trkpt><trkpt lat="63.96780777" lon="-18.76023483"><ele>660.8</ele><time>2012-07-24T17:43:44.0000000+00:00</time></trkpt><trkpt lat="63.96774292" lon="-18.76006317"><ele>659.0</ele><time>2012-07-24T17:43:49.0000000+00:00</time></trkpt><trkpt lat="63.96769333" lon="-18.75990677"><ele>658.2</ele><time>2012-07-24T17:43:54.0000000+00:00</time></trkpt><trkpt lat="63.9677124" lon="-18.75986481"><ele>661.2</ele><time>2012-07-24T17:43:59.0000000+00:00</time></trkpt><trkpt lat="63.9677124" lon="-18.7598629"><ele>661.3</ele><time>2012-07-24T17:44:04.0000000+00:00</time></trkpt><trkpt lat="63.96771622" lon="-18.75986671"><ele>661.3</ele><time>2012-07-24T17:44:09.0000000+00:00</time></trkpt><trkpt lat="63.96771622" lon="-18.75986862"><ele>661.2</ele><time>2012-07-24T17:44:14.0000000+00:00</time></trkpt><trkpt lat="63.9677124" lon="-18.75986671"><ele>661.2</ele><time>2012-07-24T17:44:19.0000000+00:00</time></trkpt><trkpt lat="63.96762085" lon="-18.75982285"><ele>660.1</ele><time>2012-07-24T17:44:24.0000000+00:00</time></trkpt><trkpt lat="63.96741867" lon="-18.75976944"><ele>655.7</ele><time>2012-07-24T17:44:29.0000000+00:00</time></trkpt><trkpt lat="63.96721649" lon="-18.75970459"><ele>651.5</ele><time>2012-07-24T17:44:34.0000000+00:00</time></trkpt><trkpt lat="63.96705246" lon="-18.75952339"><ele>647.3</ele><time>2012-07-24T17:44:39.0000000+00:00</time></trkpt><trkpt lat="63.96699905" lon="-18.75929642"><ele>647.5</ele><time>2012-07-24T17:44:44.0000000+00:00</time></trkpt><trkpt lat="63.96699905" lon="-18.75922966"><ele>648.4</ele><time>2012-07-24T17:44:49.0000000+00:00</time></trkpt><trkpt lat="63.96699905" lon="-18.75921059"><ele>648.4</ele><time>2012-07-24T17:44:54.0000000+00:00</time></trkpt><trkpt lat="63.96699905" lon="-18.75920487"><ele>648.4</ele><time>2012-07-24T17:44:59.0000000+00:00</time></trkpt><trkpt lat="63.96700287" lon="-18.75920487"><ele>648.4</ele><time>2012-07-24T17:45:04.0000000+00:00</time></trkpt><trkpt lat="63.9670105" lon="-18.75915146"><ele>648.4</ele><time>2012-07-24T17:45:09.0000000+00:00</time></trkpt><trkpt lat="63.96701813" lon="-18.75914002"><ele>648.1</ele><time>2012-07-24T17:45:14.0000000+00:00</time></trkpt><trkpt lat="63.9670105" lon="-18.759161"><ele>647.5</ele><time>2012-07-24T17:45:19.0000000+00:00</time></trkpt><trkpt lat="63.9670105" lon="-18.759161"><ele>647.5</ele><time>2012-07-24T17:45:24.0000000+00:00</time></trkpt><trkpt lat="63.96701431" lon="-18.75914002"><ele>647.9</ele><time>2012-07-24T17:45:29.0000000+00:00</time></trkpt><trkpt lat="63.96700668" lon="-18.75915337"><ele>647.3</ele><time>2012-07-24T17:45:34.0000000+00:00</time></trkpt><trkpt lat="63.96700668" lon="-18.75915146"><ele>647.2</ele><time>2012-07-24T17:45:39.0000000+00:00</time></trkpt><trkpt lat="63.96700287" lon="-18.75915337"><ele>647.2</ele><time>2012-07-24T17:45:44.0000000+00:00</time></trkpt><trkpt lat="63.96700287" lon="-18.75915527"><ele>647.1</ele><time>2012-07-24T17:45:49.0000000+00:00</time></trkpt><trkpt lat="63.96700287" lon="-18.75915527"><ele>647.1</ele><time>2012-07-24T17:45:54.0000000+00:00</time></trkpt><trkpt lat="63.96700287" lon="-18.75915527"><ele>647.0</ele><time>2012-07-24T17:45:59.0000000+00:00</time></trkpt><trkpt lat="63.96700287" lon="-18.75915527"><ele>647.0</ele><time>2012-07-24T17:46:04.0000000+00:00</time></trkpt><trkpt lat="63.96700287" lon="-18.75915527"><ele>647.0</ele><time>2012-07-24T17:46:09.0000000+00:00</time></trkpt><trkpt lat="63.96700287" lon="-18.75915527"><ele>647.0</ele><time>2012-07-24T17:46:14.0000000+00:00</time></trkpt><trkpt lat="63.96700287" lon="-18.75915527"><ele>647.0</ele><time>2012-07-24T17:46:19.0000000+00:00</time></trkpt><trkpt lat="63.96700287" lon="-18.75915527"><ele>647.0</ele><time>2012-07-24T17:46:24.0000000+00:00</time></trkpt><trkpt lat="63.96700287" lon="-18.75915527"><ele>647.0</ele><time>2012-07-24T17:46:29.0000000+00:00</time></trkpt><trkpt lat="63.96700287" lon="-18.75915527"><ele>647.0</ele><time>2012-07-24T17:46:34.0000000+00:00</time></trkpt><trkpt lat="63.96700287" lon="-18.75915718"><ele>646.9</ele><time>2012-07-24T17:46:39.0000000+00:00</time></trkpt><trkpt lat="63.96700287" lon="-18.75915718"><ele>646.9</ele><time>2012-07-24T17:46:44.0000000+00:00</time></trkpt><trkpt lat="63.96699524" lon="-18.75913239"><ele>647.6</ele><time>2012-07-24T17:46:49.0000000+00:00</time></trkpt><trkpt lat="63.96696091" lon="-18.7591095"><ele>647.6</ele><time>2012-07-24T17:46:54.0000000+00:00</time></trkpt><trkpt lat="63.96694183" lon="-18.75901985"><ele>648.5</ele><time>2012-07-24T17:46:59.0000000+00:00</time></trkpt><trkpt lat="63.96696472" lon="-18.75889397"><ele>649.7</ele><time>2012-07-24T17:47:04.0000000+00:00</time></trkpt><trkpt lat="63.96697998" lon="-18.75880241"><ele>648.9</ele><time>2012-07-24T17:47:09.0000000+00:00</time></trkpt><trkpt lat="63.96697617" lon="-18.75867462"><ele>648.6</ele><time>2012-07-24T17:47:14.0000000+00:00</time></trkpt><trkpt lat="63.96696472" lon="-18.75862122"><ele>648.7</ele><time>2012-07-24T17:47:19.0000000+00:00</time></trkpt><trkpt lat="63.96695709" lon="-18.75863075"><ele>647.8</ele><time>2012-07-24T17:47:24.0000000+00:00</time></trkpt><trkpt lat="63.96695709" lon="-18.75863266"><ele>647.8</ele><time>2012-07-24T17:47:29.0000000+00:00</time></trkpt><trkpt lat="63.96695709" lon="-18.75863266"><ele>647.8</ele><time>2012-07-24T17:47:34.0000000+00:00</time></trkpt><trkpt lat="63.96695709" lon="-18.75863266"><ele>647.8</ele><time>2012-07-24T17:47:39.0000000+00:00</time></trkpt><trkpt lat="63.96695709" lon="-18.75863266"><ele>647.8</ele><time>2012-07-24T17:47:44.0000000+00:00</time></trkpt><trkpt lat="63.96695709" lon="-18.75863266"><ele>647.8</ele><time>2012-07-24T17:47:49.0000000+00:00</time></trkpt><trkpt lat="63.96695328" lon="-18.75862503"><ele>647.8</ele><time>2012-07-24T17:47:54.0000000+00:00</time></trkpt><trkpt lat="63.96695328" lon="-18.75862122"><ele>646.8</ele><time>2012-07-24T17:47:59.0000000+00:00</time></trkpt><trkpt lat="63.96695328" lon="-18.75862122"><ele>646.8</ele><time>2012-07-24T17:48:04.0000000+00:00</time></trkpt><trkpt lat="63.96695328" lon="-18.75861549"><ele>646.8</ele><time>2012-07-24T17:48:09.0000000+00:00</time></trkpt><trkpt lat="63.96691513" lon="-18.75856018"><ele>646.3</ele><time>2012-07-24T17:48:14.0000000+00:00</time></trkpt><trkpt lat="63.96689606" lon="-18.75852585"><ele>646.5</ele><time>2012-07-24T17:48:19.0000000+00:00</time></trkpt><trkpt lat="63.96687317" lon="-18.75850678"><ele>646.5</ele><time>2012-07-24T17:48:24.0000000+00:00</time></trkpt><trkpt lat="63.9668045" lon="-18.75846481"><ele>646.8</ele><time>2012-07-24T17:48:29.0000000+00:00</time></trkpt><trkpt lat="63.96674347" lon="-18.75842285"><ele>646.6</ele><time>2012-07-24T17:48:34.0000000+00:00</time></trkpt><trkpt lat="63.96668243" lon="-18.75839615"><ele>647.2</ele><time>2012-07-24T17:48:39.0000000+00:00</time></trkpt><trkpt lat="63.96663284" lon="-18.75833321"><ele>647.3</ele><time>2012-07-24T17:48:44.0000000+00:00</time></trkpt><trkpt lat="63.96660614" lon="-18.7583065"><ele>646.7</ele><time>2012-07-24T17:48:49.0000000+00:00</time></trkpt><trkpt lat="63.96660233" lon="-18.75830841"><ele>646.4</ele><time>2012-07-24T17:48:54.0000000+00:00</time></trkpt><trkpt lat="63.96656799" lon="-18.75826454"><ele>645.5</ele><time>2012-07-24T17:48:59.0000000+00:00</time></trkpt><trkpt lat="63.96653366" lon="-18.75816917"><ele>644.1</ele><time>2012-07-24T17:49:04.0000000+00:00</time></trkpt><trkpt lat="63.96649933" lon="-18.75805283"><ele>643.8</ele><time>2012-07-24T17:49:09.0000000+00:00</time></trkpt><trkpt lat="63.96648026" lon="-18.75792503"><ele>645.0</ele><time>2012-07-24T17:49:14.0000000+00:00</time></trkpt><trkpt lat="63.96647644" lon="-18.75790787"><ele>645.9</ele><time>2012-07-24T17:49:19.0000000+00:00</time></trkpt><trkpt lat="63.96647644" lon="-18.7578907"><ele>646.3</ele><time>2012-07-24T17:49:24.0000000+00:00</time></trkpt><trkpt lat="63.96647644" lon="-18.757864"><ele>646.3</ele><time>2012-07-24T17:49:29.0000000+00:00</time></trkpt><trkpt lat="63.9664917" lon="-18.75771332"><ele>646.8</ele><time>2012-07-24T17:49:34.0000000+00:00</time></trkpt><trkpt lat="63.96653748" lon="-18.75757217"><ele>646.8</ele><time>2012-07-24T17:49:39.0000000+00:00</time></trkpt><trkpt lat="63.96658325" lon="-18.75734711"><ele>647.3</ele><time>2012-07-24T17:49:44.0000000+00:00</time></trkpt><trkpt lat="63.96663284" lon="-18.75710297"><ele>646.1</ele><time>2012-07-24T17:49:49.0000000+00:00</time></trkpt><trkpt lat="63.96667099" lon="-18.75683594"><ele>645.9</ele><time>2012-07-24T17:49:54.0000000+00:00</time></trkpt><trkpt lat="63.96664429" lon="-18.75654602"><ele>646.1</ele><time>2012-07-24T17:49:59.0000000+00:00</time></trkpt><trkpt lat="63.96660233" lon="-18.75627327"><ele>646.1</ele><time>2012-07-24T17:50:04.0000000+00:00</time></trkpt><trkpt lat="63.96653366" lon="-18.75597572"><ele>646.2</ele><time>2012-07-24T17:50:09.0000000+00:00</time></trkpt><trkpt lat="63.96646118" lon="-18.75571251"><ele>645.1</ele><time>2012-07-24T17:50:14.0000000+00:00</time></trkpt><trkpt lat="63.96641541" lon="-18.75543022"><ele>648.0</ele><time>2012-07-24T17:50:19.0000000+00:00</time></trkpt><trkpt lat="63.96636963" lon="-18.7551918"><ele>650.6</ele><time>2012-07-24T17:50:24.0000000+00:00</time></trkpt><trkpt lat="63.96632767" lon="-18.75489807"><ele>654.6</ele><time>2012-07-24T17:50:29.0000000+00:00</time></trkpt><trkpt lat="63.96626663" lon="-18.75464249"><ele>652.0</ele><time>2012-07-24T17:50:34.0000000+00:00</time></trkpt><trkpt lat="63.96622849" lon="-18.75441933"><ele>649.5</ele><time>2012-07-24T17:50:39.0000000+00:00</time></trkpt><trkpt lat="63.9662323" lon="-18.75415993"><ele>650.8</ele><time>2012-07-24T17:50:44.0000000+00:00</time></trkpt><trkpt lat="63.96622849" lon="-18.75391197"><ele>651.5</ele><time>2012-07-24T17:50:49.0000000+00:00</time></trkpt><trkpt lat="63.96622849" lon="-18.75371552"><ele>650.0</ele><time>2012-07-24T17:50:54.0000000+00:00</time></trkpt><trkpt lat="63.96623993" lon="-18.7535038"><ele>649.1</ele><time>2012-07-24T17:50:59.0000000+00:00</time></trkpt><trkpt lat="63.96622467" lon="-18.75331116"><ele>647.7</ele><time>2012-07-24T17:51:04.0000000+00:00</time></trkpt><trkpt lat="63.96622467" lon="-18.75318527"><ele>646.5</ele><time>2012-07-24T17:51:09.0000000+00:00</time></trkpt><trkpt lat="63.96622467" lon="-18.75317192"><ele>645.7</ele><time>2012-07-24T17:51:14.0000000+00:00</time></trkpt><trkpt lat="63.96622467" lon="-18.75316811"><ele>645.8</ele><time>2012-07-24T17:51:19.0000000+00:00</time></trkpt><trkpt lat="63.96622467" lon="-18.75308228"><ele>646.8</ele><time>2012-07-24T17:51:24.0000000+00:00</time></trkpt><trkpt lat="63.96622467" lon="-18.75296593"><ele>647.3</ele><time>2012-07-24T17:51:29.0000000+00:00</time></trkpt><trkpt lat="63.96623993" lon="-18.75286102"><ele>648.7</ele><time>2012-07-24T17:51:34.0000000+00:00</time></trkpt><trkpt lat="63.96624374" lon="-18.75282288"><ele>649.3</ele><time>2012-07-24T17:51:39.0000000+00:00</time></trkpt><trkpt lat="63.96624756" lon="-18.75281143"><ele>649.5</ele><time>2012-07-24T17:51:44.0000000+00:00</time></trkpt><trkpt lat="63.96624374" lon="-18.75278664"><ele>649.6</ele><time>2012-07-24T17:51:49.0000000+00:00</time></trkpt><trkpt lat="63.96625519" lon="-18.75268936"><ele>649.5</ele><time>2012-07-24T17:51:54.0000000+00:00</time></trkpt><trkpt lat="63.966259" lon="-18.75260735"><ele>650.0</ele><time>2012-07-24T17:51:59.0000000+00:00</time></trkpt><trkpt lat="63.96625137" lon="-18.75255013"><ele>650.2</ele><time>2012-07-24T17:52:04.0000000+00:00</time></trkpt><trkpt lat="63.96624374" lon="-18.75249672"><ele>650.7</ele><time>2012-07-24T17:52:09.0000000+00:00</time></trkpt><trkpt lat="63.96624756" lon="-18.75242615"><ele>651.0</ele><time>2012-07-24T17:52:14.0000000+00:00</time></trkpt><trkpt lat="63.96626282" lon="-18.75234032"><ele>651.3</ele><time>2012-07-24T17:52:19.0000000+00:00</time></trkpt><trkpt lat="63.96626282" lon="-18.75223923"><ele>652.2</ele><time>2012-07-24T17:52:24.0000000+00:00</time></trkpt><trkpt lat="63.96626282" lon="-18.75217438"><ele>652.9</ele><time>2012-07-24T17:52:29.0000000+00:00</time></trkpt><trkpt lat="63.96626282" lon="-18.75216866"><ele>653.1</ele><time>2012-07-24T17:52:34.0000000+00:00</time></trkpt><trkpt lat="63.96626663" lon="-18.75212479"><ele>653.1</ele><time>2012-07-24T17:52:39.0000000+00:00</time></trkpt><trkpt lat="63.96627045" lon="-18.75205994"><ele>653.1</ele><time>2012-07-24T17:52:44.0000000+00:00</time></trkpt><trkpt lat="63.96628571" lon="-18.75197601"><ele>653.4</ele><time>2012-07-24T17:52:49.0000000+00:00</time></trkpt><trkpt lat="63.96629715" lon="-18.75190926"><ele>653.7</ele><time>2012-07-24T17:52:54.0000000+00:00</time></trkpt><trkpt lat="63.96630096" lon="-18.7518425"><ele>654.5</ele><time>2012-07-24T17:52:59.0000000+00:00</time></trkpt><trkpt lat="63.96629334" lon="-18.75179863"><ele>654.9</ele><time>2012-07-24T17:53:04.0000000+00:00</time></trkpt><trkpt lat="63.96628571" lon="-18.75182152"><ele>654.7</ele><time>2012-07-24T17:53:09.0000000+00:00</time></trkpt><trkpt lat="63.96627426" lon="-18.75175285"><ele>655.2</ele><time>2012-07-24T17:53:14.0000000+00:00</time></trkpt><trkpt lat="63.96625519" lon="-18.75168228"><ele>655.3</ele><time>2012-07-24T17:53:19.0000000+00:00</time></trkpt><trkpt lat="63.96623612" lon="-18.75164604"><ele>654.8</ele><time>2012-07-24T17:53:24.0000000+00:00</time></trkpt><trkpt lat="63.9662323" lon="-18.7516613"><ele>653.7</ele><time>2012-07-24T17:53:29.0000000+00:00</time></trkpt><trkpt lat="63.96620941" lon="-18.75164604"><ele>653.6</ele><time>2012-07-24T17:53:34.0000000+00:00</time></trkpt><trkpt lat="63.96618652" lon="-18.75159073"><ele>653.4</ele><time>2012-07-24T17:53:39.0000000+00:00</time></trkpt><trkpt lat="63.96615219" lon="-18.75157547"><ele>653.2</ele><time>2012-07-24T17:53:44.0000000+00:00</time></trkpt><trkpt lat="63.96611023" lon="-18.75156784"><ele>653.0</ele><time>2012-07-24T17:53:49.0000000+00:00</time></trkpt><trkpt lat="63.96606445" lon="-18.7516079"><ele>653.4</ele><time>2012-07-24T17:53:54.0000000+00:00</time></trkpt><trkpt lat="63.96604919" lon="-18.75160217"><ele>653.6</ele><time>2012-07-24T17:53:59.0000000+00:00</time></trkpt><trkpt lat="63.96605301" lon="-18.75159264"><ele>653.6</ele><time>2012-07-24T17:54:04.0000000+00:00</time></trkpt><trkpt lat="63.96604919" lon="-18.75159073"><ele>653.6</ele><time>2012-07-24T17:54:09.0000000+00:00</time></trkpt><trkpt lat="63.96604919" lon="-18.75158691"><ele>653.7</ele><time>2012-07-24T17:54:14.0000000+00:00</time></trkpt><trkpt lat="63.96603775" lon="-18.75159264"><ele>653.9</ele><time>2012-07-24T17:54:19.0000000+00:00</time></trkpt><trkpt lat="63.96599579" lon="-18.75161743"><ele>655.0</ele><time>2012-07-24T17:54:24.0000000+00:00</time></trkpt><trkpt lat="63.96595764" lon="-18.75161934"><ele>655.2</ele><time>2012-07-24T17:54:29.0000000+00:00</time></trkpt><trkpt lat="63.96590805" lon="-18.75162888"><ele>655.6</ele><time>2012-07-24T17:54:34.0000000+00:00</time></trkpt><trkpt lat="63.9658699" lon="-18.75164414"><ele>656.0</ele><time>2012-07-24T17:54:39.0000000+00:00</time></trkpt><trkpt lat="63.9658432" lon="-18.75164795"><ele>656.9</ele><time>2012-07-24T17:54:44.0000000+00:00</time></trkpt><trkpt lat="63.96581268" lon="-18.75163841"><ele>657.6</ele><time>2012-07-24T17:54:49.0000000+00:00</time></trkpt><trkpt lat="63.96577454" lon="-18.75162315"><ele>658.1</ele><time>2012-07-24T17:54:54.0000000+00:00</time></trkpt><trkpt lat="63.96574402" lon="-18.7516098"><ele>658.8</ele><time>2012-07-24T17:54:59.0000000+00:00</time></trkpt><trkpt lat="63.96570587" lon="-18.75161171"><ele>659.6</ele><time>2012-07-24T17:55:04.0000000+00:00</time></trkpt><trkpt lat="63.96567154" lon="-18.75160217"><ele>660.3</ele><time>2012-07-24T17:55:09.0000000+00:00</time></trkpt><trkpt lat="63.96563721" lon="-18.7516098"><ele>660.8</ele><time>2012-07-24T17:55:14.0000000+00:00</time></trkpt><trkpt lat="63.96559143" lon="-18.75161362"><ele>661.6</ele><time>2012-07-24T17:55:19.0000000+00:00</time></trkpt><trkpt lat="63.96556091" lon="-18.75162315"><ele>662.2</ele><time>2012-07-24T17:55:24.0000000+00:00</time></trkpt><trkpt lat="63.9655304" lon="-18.75162506"><ele>663.1</ele><time>2012-07-24T17:55:29.0000000+00:00</time></trkpt><trkpt lat="63.96551895" lon="-18.75158691"><ele>663.9</ele><time>2012-07-24T17:55:34.0000000+00:00</time></trkpt><trkpt lat="63.96552658" lon="-18.75157738"><ele>664.7</ele><time>2012-07-24T17:55:39.0000000+00:00</time></trkpt><trkpt lat="63.96549606" lon="-18.75157547"><ele>665.5</ele><time>2012-07-24T17:55:44.0000000+00:00</time></trkpt><trkpt lat="63.96549606" lon="-18.75156021"><ele>666.0</ele><time>2012-07-24T17:55:49.0000000+00:00</time></trkpt><trkpt lat="63.96549225" lon="-18.7515564"><ele>666.4</ele><time>2012-07-24T17:55:54.0000000+00:00</time></trkpt><trkpt lat="63.96549225" lon="-18.75155258"><ele>666.8</ele><time>2012-07-24T17:55:59.0000000+00:00</time></trkpt><trkpt lat="63.96549225" lon="-18.75155258"><ele>667.2</ele><time>2012-07-24T17:56:04.0000000+00:00</time></trkpt><trkpt lat="63.96549225" lon="-18.75155067"><ele>667.6</ele><time>2012-07-24T17:56:09.0000000+00:00</time></trkpt><trkpt lat="63.96549225" lon="-18.75154877"><ele>668.0</ele><time>2012-07-24T17:56:14.0000000+00:00</time></trkpt><trkpt lat="63.96549225" lon="-18.75154877"><ele>668.4</ele><time>2012-07-24T17:56:19.0000000+00:00</time></trkpt><trkpt lat="63.96549225" lon="-18.75154495"><ele>668.8</ele><time>2012-07-24T17:56:24.0000000+00:00</time></trkpt><trkpt lat="63.96549225" lon="-18.75154495"><ele>669.3</ele><time>2012-07-24T17:56:29.0000000+00:00</time></trkpt><trkpt lat="63.96549225" lon="-18.75154686"><ele>669.8</ele><time>2012-07-24T17:56:34.0000000+00:00</time></trkpt><trkpt lat="63.96549225" lon="-18.75154877"><ele>670.4</ele><time>2012-07-24T17:56:39.0000000+00:00</time></trkpt><trkpt lat="63.96549225" lon="-18.75155067"><ele>671.0</ele><time>2012-07-24T17:56:44.0000000+00:00</time></trkpt><trkpt lat="63.96549225" lon="-18.75155067"><ele>671.5</ele><time>2012-07-24T17:56:49.0000000+00:00</time></trkpt><trkpt lat="63.96549225" lon="-18.75154686"><ele>671.9</ele><time>2012-07-24T17:56:54.0000000+00:00</time></trkpt><trkpt lat="63.96549225" lon="-18.75154305"><ele>672.3</ele><time>2012-07-24T17:56:59.0000000+00:00</time></trkpt><trkpt lat="63.96549225" lon="-18.75154114"><ele>672.4</ele><time>2012-07-24T17:57:04.0000000+00:00</time></trkpt><trkpt lat="63.96549225" lon="-18.75154114"><ele>672.4</ele><time>2012-07-24T17:57:09.0000000+00:00</time></trkpt><trkpt lat="63.96549225" lon="-18.75154114"><ele>672.4</ele><time>2012-07-24T17:57:14.0000000+00:00</time></trkpt><trkpt lat="63.96549225" lon="-18.75154114"><ele>672.4</ele><time>2012-07-24T17:57:19.0000000+00:00</time></trkpt><trkpt lat="63.96549225" lon="-18.75154114"><ele>672.4</ele><time>2012-07-24T17:57:24.0000000+00:00</time></trkpt><trkpt lat="63.96549225" lon="-18.75154305"><ele>672.4</ele><time>2012-07-24T17:57:29.0000000+00:00</time></trkpt><trkpt lat="63.96549225" lon="-18.75154305"><ele>672.4</ele><time>2012-07-24T17:57:34.0000000+00:00</time></trkpt><trkpt lat="63.96549225" lon="-18.75154305"><ele>672.3</ele><time>2012-07-24T17:57:39.0000000+00:00</time></trkpt><trkpt lat="63.96549225" lon="-18.75154305"><ele>672.3</ele><time>2012-07-24T17:57:44.0000000+00:00</time></trkpt><trkpt lat="63.96549225" lon="-18.75154305"><ele>672.3</ele><time>2012-07-24T17:57:49.0000000+00:00</time></trkpt><trkpt lat="63.96549225" lon="-18.75154305"><ele>672.3</ele><time>2012-07-24T17:57:54.0000000+00:00</time></trkpt><trkpt lat="63.96549225" lon="-18.75154305"><ele>672.3</ele><time>2012-07-24T17:57:59.0000000+00:00</time></trkpt><trkpt lat="63.96549225" lon="-18.75154305"><ele>672.3</ele><time>2012-07-24T17:58:04.0000000+00:00</time></trkpt><trkpt lat="63.96549225" lon="-18.75154114"><ele>672.3</ele><time>2012-07-24T17:58:09.0000000+00:00</time></trkpt><trkpt lat="63.96549225" lon="-18.75154114"><ele>672.3</ele><time>2012-07-24T17:58:14.0000000+00:00</time></trkpt><trkpt lat="63.96549225" lon="-18.75154114"><ele>672.3</ele><time>2012-07-24T17:58:19.0000000+00:00</time></trkpt><trkpt lat="63.96549225" lon="-18.75154305"><ele>672.3</ele><time>2012-07-24T17:58:24.0000000+00:00</time></trkpt><trkpt lat="63.96549225" lon="-18.75154114"><ele>672.3</ele><time>2012-07-24T17:58:29.0000000+00:00</time></trkpt><trkpt lat="63.96549225" lon="-18.75154305"><ele>672.3</ele><time>2012-07-24T17:58:34.0000000+00:00</time></trkpt><trkpt lat="63.96549225" lon="-18.75154305"><ele>672.3</ele><time>2012-07-24T17:58:39.0000000+00:00</time></trkpt><trkpt lat="63.96549225" lon="-18.75154305"><ele>672.3</ele><time>2012-07-24T17:58:44.0000000+00:00</time></trkpt><trkpt lat="63.96549225" lon="-18.75154305"><ele>672.2</ele><time>2012-07-24T17:58:49.0000000+00:00</time></trkpt><trkpt lat="63.96548843" lon="-18.75154305"><ele>672.2</ele><time>2012-07-24T17:58:54.0000000+00:00</time></trkpt><trkpt lat="63.96548843" lon="-18.75154305"><ele>672.2</ele><time>2012-07-24T17:58:59.0000000+00:00</time></trkpt><trkpt lat="63.9654808" lon="-18.7515316"><ele>672.3</ele><time>2012-07-24T17:59:04.0000000+00:00</time></trkpt><trkpt lat="63.96548462" lon="-18.75153923"><ele>671.9</ele><time>2012-07-24T17:59:09.0000000+00:00</time></trkpt><trkpt lat="63.9654808" lon="-18.75153923"><ele>671.8</ele><time>2012-07-24T17:59:14.0000000+00:00</time></trkpt><trkpt lat="63.9654808" lon="-18.75154305"><ele>671.8</ele><time>2012-07-24T17:59:19.0000000+00:00</time></trkpt><trkpt lat="63.96547318" lon="-18.75154114"><ele>671.7</ele><time>2012-07-24T17:59:24.0000000+00:00</time></trkpt><trkpt lat="63.96538925" lon="-18.75151825"><ele>671.4</ele><time>2012-07-24T17:59:29.0000000+00:00</time></trkpt><trkpt lat="63.96528626" lon="-18.75144386"><ele>671.5</ele><time>2012-07-24T17:59:34.0000000+00:00</time></trkpt><trkpt lat="63.96518326" lon="-18.75136566"><ele>671.5</ele><time>2012-07-24T17:59:39.0000000+00:00</time></trkpt><trkpt lat="63.96509552" lon="-18.75124168"><ele>670.3</ele><time>2012-07-24T17:59:44.0000000+00:00</time></trkpt><trkpt lat="63.96501923" lon="-18.75107193"><ele>668.1</ele><time>2012-07-24T17:59:49.0000000+00:00</time></trkpt><trkpt lat="63.96498489" lon="-18.75090408"><ele>664.7</ele><time>2012-07-24T17:59:54.0000000+00:00</time></trkpt><trkpt lat="63.96495438" lon="-18.75071335"><ele>663.9</ele><time>2012-07-24T17:59:59.0000000+00:00</time></trkpt><trkpt lat="63.96492767" lon="-18.75048637"><ele>665.3</ele><time>2012-07-24T18:00:04.0000000+00:00</time></trkpt><trkpt lat="63.96489334" lon="-18.75029182"><ele>668.0</ele><time>2012-07-24T18:00:09.0000000+00:00</time></trkpt><trkpt lat="63.96483231" lon="-18.75018883"><ele>668.4</ele><time>2012-07-24T18:00:14.0000000+00:00</time></trkpt><trkpt lat="63.96478653" lon="-18.75004578"><ele>666.9</ele><time>2012-07-24T18:00:19.0000000+00:00</time></trkpt><trkpt lat="63.96471787" lon="-18.74990273"><ele>667.6</ele><time>2012-07-24T18:00:24.0000000+00:00</time></trkpt><trkpt lat="63.96464157" lon="-18.7497673"><ele>667.6</ele><time>2012-07-24T18:00:29.0000000+00:00</time></trkpt><trkpt lat="63.96456146" lon="-18.74964905"><ele>667.9</ele><time>2012-07-24T18:00:34.0000000+00:00</time></trkpt><trkpt lat="63.96447754" lon="-18.74949837"><ele>668.7</ele><time>2012-07-24T18:00:39.0000000+00:00</time></trkpt><trkpt lat="63.9643898" lon="-18.74934959"><ele>668.4</ele><time>2012-07-24T18:00:44.0000000+00:00</time></trkpt><trkpt lat="63.96431732" lon="-18.74918175"><ele>668.3</ele><time>2012-07-24T18:00:49.0000000+00:00</time></trkpt><trkpt lat="63.96424866" lon="-18.74901772"><ele>668.5</ele><time>2012-07-24T18:00:54.0000000+00:00</time></trkpt><trkpt lat="63.96419907" lon="-18.74886894"><ele>667.4</ele><time>2012-07-24T18:00:59.0000000+00:00</time></trkpt><trkpt lat="63.9641571" lon="-18.74867058"><ele>667.9</ele><time>2012-07-24T18:01:04.0000000+00:00</time></trkpt><trkpt lat="63.96411514" lon="-18.74849892"><ele>668.2</ele><time>2012-07-24T18:01:09.0000000+00:00</time></trkpt><trkpt lat="63.96408844" lon="-18.748312"><ele>669.3</ele><time>2012-07-24T18:01:14.0000000+00:00</time></trkpt><trkpt lat="63.96405029" lon="-18.74809456"><ele>669.7</ele><time>2012-07-24T18:01:19.0000000+00:00</time></trkpt><trkpt lat="63.96400833" lon="-18.74783897"><ele>670.0</ele><time>2012-07-24T18:01:24.0000000+00:00</time></trkpt><trkpt lat="63.96395111" lon="-18.74761772"><ele>669.0</ele><time>2012-07-24T18:01:29.0000000+00:00</time></trkpt><trkpt lat="63.96392441" lon="-18.7474308"><ele>668.9</ele><time>2012-07-24T18:01:34.0000000+00:00</time></trkpt><trkpt lat="63.96392059" lon="-18.74739647"><ele>668.9</ele><time>2012-07-24T18:01:39.0000000+00:00</time></trkpt><trkpt lat="63.96392441" lon="-18.74739647"><ele>668.9</ele><time>2012-07-24T18:01:44.0000000+00:00</time></trkpt><trkpt lat="63.96392441" lon="-18.74739456"><ele>669.0</ele><time>2012-07-24T18:01:49.0000000+00:00</time></trkpt><trkpt lat="63.96392441" lon="-18.74739456"><ele>669.0</ele><time>2012-07-24T18:01:54.0000000+00:00</time></trkpt><trkpt lat="63.96392441" lon="-18.74739456"><ele>669.0</ele><time>2012-07-24T18:01:59.0000000+00:00</time></trkpt><trkpt lat="63.96392441" lon="-18.74739456"><ele>669.0</ele><time>2012-07-24T18:02:04.0000000+00:00</time></trkpt><trkpt lat="63.96392441" lon="-18.74739456"><ele>669.0</ele><time>2012-07-24T18:02:09.0000000+00:00</time></trkpt><trkpt lat="63.96392441" lon="-18.74739456"><ele>669.0</ele><time>2012-07-24T18:02:14.0000000+00:00</time></trkpt><trkpt lat="63.96392441" lon="-18.74739456"><ele>669.0</ele><time>2012-07-24T18:02:19.0000000+00:00</time></trkpt><trkpt lat="63.96392441" lon="-18.74739456"><ele>669.0</ele><time>2012-07-24T18:02:24.0000000+00:00</time></trkpt><trkpt lat="63.96391296" lon="-18.74741554"><ele>668.5</ele><time>2012-07-24T18:02:29.0000000+00:00</time></trkpt><trkpt lat="63.96390915" lon="-18.74738312"><ele>668.6</ele><time>2012-07-24T18:02:34.0000000+00:00</time></trkpt><trkpt lat="63.96388626" lon="-18.74727058"><ele>668.0</ele><time>2012-07-24T18:02:39.0000000+00:00</time></trkpt><trkpt lat="63.96387482" lon="-18.74719238"><ele>667.4</ele><time>2012-07-24T18:02:44.0000000+00:00</time></trkpt><trkpt lat="63.96385956" lon="-18.74721909"><ele>667.6</ele><time>2012-07-24T18:02:49.0000000+00:00</time></trkpt><trkpt lat="63.96384811" lon="-18.74721718"><ele>667.5</ele><time>2012-07-24T18:02:54.0000000+00:00</time></trkpt><trkpt lat="63.96384811" lon="-18.74721336"><ele>667.5</ele><time>2012-07-24T18:02:59.0000000+00:00</time></trkpt><trkpt lat="63.96384811" lon="-18.74721718"><ele>667.5</ele><time>2012-07-24T18:03:04.0000000+00:00</time></trkpt><trkpt lat="63.96384811" lon="-18.74721718"><ele>667.5</ele><time>2012-07-24T18:03:09.0000000+00:00</time></trkpt><trkpt lat="63.96384811" lon="-18.74721718"><ele>667.5</ele><time>2012-07-24T18:03:14.0000000+00:00</time></trkpt><trkpt lat="63.96384811" lon="-18.74721718"><ele>667.5</ele><time>2012-07-24T18:03:19.0000000+00:00</time></trkpt><trkpt lat="63.96384811" lon="-18.74721718"><ele>667.5</ele><time>2012-07-24T18:03:24.0000000+00:00</time></trkpt><trkpt lat="63.96384811" lon="-18.74721718"><ele>667.5</ele><time>2012-07-24T18:03:29.0000000+00:00</time></trkpt><trkpt lat="63.96384811" lon="-18.74721527"><ele>667.5</ele><time>2012-07-24T18:03:34.0000000+00:00</time></trkpt><trkpt lat="63.96384811" lon="-18.74721527"><ele>667.5</ele><time>2012-07-24T18:03:39.0000000+00:00</time></trkpt><trkpt lat="63.96384811" lon="-18.74721718"><ele>667.5</ele><time>2012-07-24T18:03:44.0000000+00:00</time></trkpt><trkpt lat="63.96384811" lon="-18.74720383"><ele>667.5</ele><time>2012-07-24T18:03:49.0000000+00:00</time></trkpt><trkpt lat="63.9638443" lon="-18.7471962"><ele>667.5</ele><time>2012-07-24T18:03:54.0000000+00:00</time></trkpt><trkpt lat="63.9638443" lon="-18.74718094"><ele>667.3</ele><time>2012-07-24T18:03:59.0000000+00:00</time></trkpt><trkpt lat="63.96382141" lon="-18.74714661"><ele>665.8</ele><time>2012-07-24T18:04:04.0000000+00:00</time></trkpt><trkpt lat="63.96376801" lon="-18.74706841"><ele>664.7</ele><time>2012-07-24T18:04:09.0000000+00:00</time></trkpt><trkpt lat="63.96373367" lon="-18.74701691"><ele>664.4</ele><time>2012-07-24T18:04:14.0000000+00:00</time></trkpt><trkpt lat="63.96369553" lon="-18.74697113"><ele>664.2</ele><time>2012-07-24T18:04:19.0000000+00:00</time></trkpt><trkpt lat="63.9636879" lon="-18.74695015"><ele>663.8</ele><time>2012-07-24T18:04:24.0000000+00:00</time></trkpt><trkpt lat="63.9636116" lon="-18.74679756"><ele>663.0</ele><time>2012-07-24T18:04:29.0000000+00:00</time></trkpt><trkpt lat="63.96355057" lon="-18.74658775"><ele>662.2</ele><time>2012-07-24T18:04:34.0000000+00:00</time></trkpt><trkpt lat="63.96350479" lon="-18.74632454"><ele>661.3</ele><time>2012-07-24T18:04:39.0000000+00:00</time></trkpt><trkpt lat="63.96342087" lon="-18.74599648"><ele>658.2</ele><time>2012-07-24T18:04:44.0000000+00:00</time></trkpt><trkpt lat="63.96331024" lon="-18.74570847"><ele>657.5</ele><time>2012-07-24T18:04:49.0000000+00:00</time></trkpt><trkpt lat="63.96321869" lon="-18.74552155"><ele>656.9</ele><time>2012-07-24T18:04:54.0000000+00:00</time></trkpt><trkpt lat="63.96312714" lon="-18.7452755"><ele>657.1</ele><time>2012-07-24T18:04:59.0000000+00:00</time></trkpt><trkpt lat="63.96302795" lon="-18.74505043"><ele>657.1</ele><time>2012-07-24T18:05:04.0000000+00:00</time></trkpt><trkpt lat="63.96292877" lon="-18.74481773"><ele>656.4</ele><time>2012-07-24T18:05:09.0000000+00:00</time></trkpt><trkpt lat="63.96282578" lon="-18.74460411"><ele>656.9</ele><time>2012-07-24T18:05:14.0000000+00:00</time></trkpt><trkpt lat="63.96271896" lon="-18.74441338"><ele>656.8</ele><time>2012-07-24T18:05:19.0000000+00:00</time></trkpt><trkpt lat="63.96264648" lon="-18.74428749"><ele>656.6</ele><time>2012-07-24T18:05:24.0000000+00:00</time></trkpt><trkpt lat="63.96255493" lon="-18.74417114"><ele>656.6</ele><time>2012-07-24T18:05:29.0000000+00:00</time></trkpt><trkpt lat="63.96246338" lon="-18.74406052"><ele>657.3</ele><time>2012-07-24T18:05:34.0000000+00:00</time></trkpt><trkpt lat="63.9623642" lon="-18.74392128"><ele>657.7</ele><time>2012-07-24T18:05:39.0000000+00:00</time></trkpt><trkpt lat="63.96223831" lon="-18.74378586"><ele>657.6</ele><time>2012-07-24T18:05:44.0000000+00:00</time></trkpt><trkpt lat="63.96211243" lon="-18.74367905"><ele>656.6</ele><time>2012-07-24T18:05:49.0000000+00:00</time></trkpt><trkpt lat="63.96199036" lon="-18.74357033"><ele>657.1</ele><time>2012-07-24T18:05:54.0000000+00:00</time></trkpt><trkpt lat="63.96186447" lon="-18.74346352"><ele>657.8</ele><time>2012-07-24T18:05:59.0000000+00:00</time></trkpt><trkpt lat="63.96176529" lon="-18.74335861"><ele>658.3</ele><time>2012-07-24T18:06:04.0000000+00:00</time></trkpt><trkpt lat="63.96166229" lon="-18.7432518"><ele>657.3</ele><time>2012-07-24T18:06:09.0000000+00:00</time></trkpt><trkpt lat="63.96154785" lon="-18.74317741"><ele>656.7</ele><time>2012-07-24T18:06:14.0000000+00:00</time></trkpt><trkpt lat="63.9614296" lon="-18.74309349"><ele>657.1</ele><time>2012-07-24T18:06:19.0000000+00:00</time></trkpt><trkpt lat="63.96129608" lon="-18.74297524"><ele>655.0</ele><time>2012-07-24T18:06:24.0000000+00:00</time></trkpt><trkpt lat="63.96118164" lon="-18.74284744"><ele>653.6</ele><time>2012-07-24T18:06:29.0000000+00:00</time></trkpt><trkpt lat="63.9610939" lon="-18.74271965"><ele>652.7</ele><time>2012-07-24T18:06:34.0000000+00:00</time></trkpt><trkpt lat="63.96101761" lon="-18.74254799"><ele>652.4</ele><time>2012-07-24T18:06:39.0000000+00:00</time></trkpt><trkpt lat="63.96092224" lon="-18.74231339"><ele>650.8</ele><time>2012-07-24T18:06:44.0000000+00:00</time></trkpt><trkpt lat="63.96078491" lon="-18.74197769"><ele>647.2</ele><time>2012-07-24T18:06:49.0000000+00:00</time></trkpt><trkpt lat="63.96082687" lon="-18.74155426"><ele>647.0</ele><time>2012-07-24T18:06:54.0000000+00:00</time></trkpt><trkpt lat="63.96097565" lon="-18.74123955"><ele>646.0</ele><time>2012-07-24T18:06:59.0000000+00:00</time></trkpt><trkpt lat="63.96111679" lon="-18.74090576"><ele>643.2</ele><time>2012-07-24T18:07:04.0000000+00:00</time></trkpt><trkpt lat="63.96125794" lon="-18.74054146"><ele>642.1</ele><time>2012-07-24T18:07:09.0000000+00:00</time></trkpt><trkpt lat="63.96132278" lon="-18.74026489"><ele>641.7</ele><time>2012-07-24T18:07:14.0000000+00:00</time></trkpt><trkpt lat="63.96132278" lon="-18.74016571"><ele>641.5</ele><time>2012-07-24T18:07:19.0000000+00:00</time></trkpt><trkpt lat="63.96132278" lon="-18.74015617"><ele>641.5</ele><time>2012-07-24T18:07:24.0000000+00:00</time></trkpt><trkpt lat="63.96131897" lon="-18.74015236"><ele>641.4</ele><time>2012-07-24T18:07:29.0000000+00:00</time></trkpt><trkpt lat="63.96130371" lon="-18.74010277"><ele>641.0</ele><time>2012-07-24T18:07:34.0000000+00:00</time></trkpt><trkpt lat="63.96128845" lon="-18.74004936"><ele>641.3</ele><time>2012-07-24T18:07:39.0000000+00:00</time></trkpt><trkpt lat="63.96127319" lon="-18.74006844"><ele>641.2</ele><time>2012-07-24T18:07:44.0000000+00:00</time></trkpt><trkpt lat="63.96125794" lon="-18.74006844"><ele>641.6</ele><time>2012-07-24T18:07:49.0000000+00:00</time></trkpt><trkpt lat="63.96123505" lon="-18.74006462"><ele>641.6</ele><time>2012-07-24T18:07:54.0000000+00:00</time></trkpt><trkpt lat="63.96122742" lon="-18.74007225"><ele>642.0</ele><time>2012-07-24T18:07:59.0000000+00:00</time></trkpt><trkpt lat="63.96120834" lon="-18.74004936"><ele>641.9</ele><time>2012-07-24T18:08:04.0000000+00:00</time></trkpt><trkpt lat="63.96120453" lon="-18.74005699"><ele>641.9</ele><time>2012-07-24T18:08:09.0000000+00:00</time></trkpt><trkpt lat="63.96120071" lon="-18.74003792"><ele>641.9</ele><time>2012-07-24T18:08:14.0000000+00:00</time></trkpt><trkpt lat="63.96120453" lon="-18.74003792"><ele>641.9</ele><time>2012-07-24T18:08:19.0000000+00:00</time></trkpt><trkpt lat="63.96120453" lon="-18.74003029"><ele>642.0</ele><time>2012-07-24T18:08:24.0000000+00:00</time></trkpt><trkpt lat="63.96120453" lon="-18.74002838"><ele>642.0</ele><time>2012-07-24T18:08:29.0000000+00:00</time></trkpt><trkpt lat="63.96120453" lon="-18.74002838"><ele>642.0</ele><time>2012-07-24T18:08:34.0000000+00:00</time></trkpt><trkpt lat="63.96120453" lon="-18.74002647"><ele>642.0</ele><time>2012-07-24T18:08:39.0000000+00:00</time></trkpt><trkpt lat="63.96120453" lon="-18.74002647"><ele>641.9</ele><time>2012-07-24T18:08:44.0000000+00:00</time></trkpt><trkpt lat="63.96120453" lon="-18.74002647"><ele>641.9</ele><time>2012-07-24T18:08:49.0000000+00:00</time></trkpt><trkpt lat="63.96120453" lon="-18.74002647"><ele>641.9</ele><time>2012-07-24T18:08:54.0000000+00:00</time></trkpt><trkpt lat="63.96120453" lon="-18.74002457"><ele>641.9</ele><time>2012-07-24T18:08:59.0000000+00:00</time></trkpt><trkpt lat="63.96120453" lon="-18.74002457"><ele>641.9</ele><time>2012-07-24T18:09:04.0000000+00:00</time></trkpt><trkpt lat="63.96120453" lon="-18.74002457"><ele>641.9</ele><time>2012-07-24T18:09:09.0000000+00:00</time></trkpt><trkpt lat="63.96120453" lon="-18.74002457"><ele>641.9</ele><time>2012-07-24T18:09:14.0000000+00:00</time></trkpt><trkpt lat="63.96118164" lon="-18.74001694"><ele>642.1</ele><time>2012-07-24T18:09:19.0000000+00:00</time></trkpt><trkpt lat="63.96115875" lon="-18.7400341"><ele>643.0</ele><time>2012-07-24T18:09:24.0000000+00:00</time></trkpt><trkpt lat="63.96112061" lon="-18.74004555"><ele>643.1</ele><time>2012-07-24T18:09:29.0000000+00:00</time></trkpt><trkpt lat="63.96110916" lon="-18.7400322"><ele>643.3</ele><time>2012-07-24T18:09:34.0000000+00:00</time></trkpt><trkpt lat="63.96110535" lon="-18.74002647"><ele>643.3</ele><time>2012-07-24T18:09:39.0000000+00:00</time></trkpt><trkpt lat="63.9610672" lon="-18.7400322"><ele>643.4</ele><time>2012-07-24T18:09:44.0000000+00:00</time></trkpt><trkpt lat="63.96100617" lon="-18.74002457"><ele>643.1</ele><time>2012-07-24T18:09:49.0000000+00:00</time></trkpt><trkpt lat="63.96095657" lon="-18.7400589"><ele>643.2</ele><time>2012-07-24T18:09:54.0000000+00:00</time></trkpt><trkpt lat="63.96092987" lon="-18.74005699"><ele>642.3</ele><time>2012-07-24T18:09:59.0000000+00:00</time></trkpt><trkpt lat="63.96088409" lon="-18.74007416"><ele>642.0</ele><time>2012-07-24T18:10:04.0000000+00:00</time></trkpt><trkpt lat="63.96082687" lon="-18.74008942"><ele>641.3</ele><time>2012-07-24T18:10:09.0000000+00:00</time></trkpt><trkpt lat="63.96077728" lon="-18.74008179"><ele>641.6</ele><time>2012-07-24T18:10:14.0000000+00:00</time></trkpt><trkpt lat="63.96072006" lon="-18.74009895"><ele>641.5</ele><time>2012-07-24T18:10:19.0000000+00:00</time></trkpt><trkpt lat="63.96071243" lon="-18.74010658"><ele>641.5</ele><time>2012-07-24T18:10:24.0000000+00:00</time></trkpt><trkpt lat="63.96071243" lon="-18.74010849"><ele>641.3</ele><time>2012-07-24T18:10:29.0000000+00:00</time></trkpt><trkpt lat="63.96068955" lon="-18.74011231"><ele>641.2</ele><time>2012-07-24T18:10:34.0000000+00:00</time></trkpt><trkpt lat="63.96064377" lon="-18.74014473"><ele>641.0</ele><time>2012-07-24T18:10:39.0000000+00:00</time></trkpt><trkpt lat="63.96060181" lon="-18.74018097"><ele>641.3</ele><time>2012-07-24T18:10:44.0000000+00:00</time></trkpt><trkpt lat="63.9605484" lon="-18.74021339"><ele>641.2</ele><time>2012-07-24T18:10:49.0000000+00:00</time></trkpt><trkpt lat="63.96050644" lon="-18.7402668"><ele>640.7</ele><time>2012-07-24T18:10:54.0000000+00:00</time></trkpt><trkpt lat="63.96046829" lon="-18.7402935"><ele>640.4</ele><time>2012-07-24T18:10:59.0000000+00:00</time></trkpt><trkpt lat="63.96044922" lon="-18.74029541"><ele>639.3</ele><time>2012-07-24T18:11:04.0000000+00:00</time></trkpt><trkpt lat="63.96043396" lon="-18.74032021"><ele>638.8</ele><time>2012-07-24T18:11:09.0000000+00:00</time></trkpt><trkpt lat="63.96040726" lon="-18.74038124"><ele>639.0</ele><time>2012-07-24T18:11:14.0000000+00:00</time></trkpt><trkpt lat="63.9603653" lon="-18.74043655"><ele>638.8</ele><time>2012-07-24T18:11:19.0000000+00:00</time></trkpt><trkpt lat="63.96035767" lon="-18.74043083"><ele>637.7</ele><time>2012-07-24T18:11:24.0000000+00:00</time></trkpt><trkpt lat="63.96035385" lon="-18.74043083"><ele>636.9</ele><time>2012-07-24T18:11:29.0000000+00:00</time></trkpt><trkpt lat="63.96035385" lon="-18.74042893"><ele>636.1</ele><time>2012-07-24T18:11:34.0000000+00:00</time></trkpt><trkpt lat="63.96035004" lon="-18.74043083"><ele>635.3</ele><time>2012-07-24T18:11:39.0000000+00:00</time></trkpt><trkpt lat="63.96034622" lon="-18.74043274"><ele>634.5</ele><time>2012-07-24T18:11:44.0000000+00:00</time></trkpt><trkpt lat="63.96034622" lon="-18.74042893"><ele>633.7</ele><time>2012-07-24T18:11:49.0000000+00:00</time></trkpt><trkpt lat="63.96034241" lon="-18.74043274"><ele>632.9</ele><time>2012-07-24T18:11:54.0000000+00:00</time></trkpt><trkpt lat="63.96033859" lon="-18.74044418"><ele>632.3</ele><time>2012-07-24T18:11:59.0000000+00:00</time></trkpt><trkpt lat="63.96031189" lon="-18.74047661"><ele>632.2</ele><time>2012-07-24T18:12:04.0000000+00:00</time></trkpt><trkpt lat="63.96027756" lon="-18.74054527"><ele>631.7</ele><time>2012-07-24T18:12:09.0000000+00:00</time></trkpt><trkpt lat="63.96026993" lon="-18.74058342"><ele>631.6</ele><time>2012-07-24T18:12:14.0000000+00:00</time></trkpt><trkpt lat="63.96026993" lon="-18.74058533"><ele>630.6</ele><time>2012-07-24T18:12:19.0000000+00:00</time></trkpt><trkpt lat="63.9602623" lon="-18.74058723"><ele>629.6</ele><time>2012-07-24T18:12:24.0000000+00:00</time></trkpt><trkpt lat="63.9602356" lon="-18.74062347"><ele>629.0</ele><time>2012-07-24T18:12:29.0000000+00:00</time></trkpt><trkpt lat="63.96020126" lon="-18.74065781"><ele>628.4</ele><time>2012-07-24T18:12:34.0000000+00:00</time></trkpt><trkpt lat="63.96017075" lon="-18.7406807"><ele>628.0</ele><time>2012-07-24T18:12:39.0000000+00:00</time></trkpt><trkpt lat="63.96013641" lon="-18.74072838"><ele>627.2</ele><time>2012-07-24T18:12:44.0000000+00:00</time></trkpt><trkpt lat="63.96010208" lon="-18.74078941"><ele>626.8</ele><time>2012-07-24T18:12:49.0000000+00:00</time></trkpt><trkpt lat="63.96006775" lon="-18.74081612"><ele>626.8</ele><time>2012-07-24T18:12:54.0000000+00:00</time></trkpt><trkpt lat="63.9600296" lon="-18.74085426"><ele>626.7</ele><time>2012-07-24T18:12:59.0000000+00:00</time></trkpt><trkpt lat="63.95999527" lon="-18.74088478"><ele>627.0</ele><time>2012-07-24T18:13:04.0000000+00:00</time></trkpt><trkpt lat="63.95996094" lon="-18.74092293"><ele>627.3</ele><time>2012-07-24T18:13:09.0000000+00:00</time></trkpt><trkpt lat="63.95992279" lon="-18.74094963"><ele>627.5</ele><time>2012-07-24T18:13:14.0000000+00:00</time></trkpt><trkpt lat="63.95991135" lon="-18.74094009"><ele>627.6</ele><time>2012-07-24T18:13:19.0000000+00:00</time></trkpt><trkpt lat="63.95988846" lon="-18.74095154"><ele>627.3</ele><time>2012-07-24T18:13:24.0000000+00:00</time></trkpt><trkpt lat="63.95984268" lon="-18.74098778"><ele>627.3</ele><time>2012-07-24T18:13:29.0000000+00:00</time></trkpt><trkpt lat="63.95979309" lon="-18.7410183"><ele>627.7</ele><time>2012-07-24T18:13:34.0000000+00:00</time></trkpt><trkpt lat="63.95975113" lon="-18.74106026"><ele>627.9</ele><time>2012-07-24T18:13:39.0000000+00:00</time></trkpt><trkpt lat="63.95970154" lon="-18.74110794"><ele>628.2</ele><time>2012-07-24T18:13:44.0000000+00:00</time></trkpt><trkpt lat="63.95965576" lon="-18.74108124"><ele>628.1</ele><time>2012-07-24T18:13:49.0000000+00:00</time></trkpt><trkpt lat="63.95966339" lon="-18.74102783"><ele>628.3</ele><time>2012-07-24T18:13:54.0000000+00:00</time></trkpt><trkpt lat="63.95965958" lon="-18.74101448"><ele>627.9</ele><time>2012-07-24T18:13:59.0000000+00:00</time></trkpt><trkpt lat="63.95966339" lon="-18.74100876"><ele>627.6</ele><time>2012-07-24T18:14:04.0000000+00:00</time></trkpt><trkpt lat="63.95965958" lon="-18.74100304"><ele>627.2</ele><time>2012-07-24T18:14:09.0000000+00:00</time></trkpt><trkpt lat="63.95965958" lon="-18.74099159"><ele>626.9</ele><time>2012-07-24T18:14:14.0000000+00:00</time></trkpt><trkpt lat="63.95965958" lon="-18.74098206"><ele>626.6</ele><time>2012-07-24T18:14:19.0000000+00:00</time></trkpt><trkpt lat="63.95965195" lon="-18.74102211"><ele>628.1</ele><time>2012-07-24T18:14:24.0000000+00:00</time></trkpt><trkpt lat="63.95961762" lon="-18.74105644"><ele>628.9</ele><time>2012-07-24T18:14:29.0000000+00:00</time></trkpt><trkpt lat="63.95952606" lon="-18.74115562"><ele>630.2</ele><time>2012-07-24T18:14:34.0000000+00:00</time></trkpt><trkpt lat="63.95942688" lon="-18.74119568"><ele>630.9</ele><time>2012-07-24T18:14:39.0000000+00:00</time></trkpt><trkpt lat="63.95934296" lon="-18.74123764"><ele>631.9</ele><time>2012-07-24T18:14:44.0000000+00:00</time></trkpt><trkpt lat="63.95927811" lon="-18.74126244"><ele>631.9</ele><time>2012-07-24T18:14:49.0000000+00:00</time></trkpt><trkpt lat="63.95918655" lon="-18.74123573"><ele>630.7</ele><time>2012-07-24T18:14:54.0000000+00:00</time></trkpt><trkpt lat="63.9591217" lon="-18.7412529"><ele>629.1</ele><time>2012-07-24T18:14:59.0000000+00:00</time></trkpt><trkpt lat="63.95903397" lon="-18.74128342"><ele>629.3</ele><time>2012-07-24T18:15:04.0000000+00:00</time></trkpt><trkpt lat="63.95896912" lon="-18.74129105"><ele>628.6</ele><time>2012-07-24T18:15:09.0000000+00:00</time></trkpt><trkpt lat="63.95888901" lon="-18.74134064"><ele>627.9</ele><time>2012-07-24T18:15:14.0000000+00:00</time></trkpt><trkpt lat="63.95879746" lon="-18.74134064"><ele>626.5</ele><time>2012-07-24T18:15:19.0000000+00:00</time></trkpt><trkpt lat="63.95870972" lon="-18.74133682"><ele>626.4</ele><time>2012-07-24T18:15:24.0000000+00:00</time></trkpt><trkpt lat="63.95862961" lon="-18.74137116"><ele>626.3</ele><time>2012-07-24T18:15:29.0000000+00:00</time></trkpt><trkpt lat="63.9585495" lon="-18.74137306"><ele>626.0</ele><time>2012-07-24T18:15:34.0000000+00:00</time></trkpt><trkpt lat="63.95845413" lon="-18.7413826"><ele>625.7</ele><time>2012-07-24T18:15:39.0000000+00:00</time></trkpt><trkpt lat="63.95837784" lon="-18.74139595"><ele>625.7</ele><time>2012-07-24T18:15:44.0000000+00:00</time></trkpt><trkpt lat="63.95828247" lon="-18.74137116"><ele>627.3</ele><time>2012-07-24T18:15:49.0000000+00:00</time></trkpt><trkpt lat="63.95819473" lon="-18.74133873"><ele>628.1</ele><time>2012-07-24T18:15:54.0000000+00:00</time></trkpt><trkpt lat="63.95810318" lon="-18.74132919"><ele>629.5</ele><time>2012-07-24T18:15:59.0000000+00:00</time></trkpt><trkpt lat="63.95803833" lon="-18.74132156"><ele>630.9</ele><time>2012-07-24T18:16:04.0000000+00:00</time></trkpt><trkpt lat="63.95795822" lon="-18.74124146"><ele>631.5</ele><time>2012-07-24T18:16:09.0000000+00:00</time></trkpt><trkpt lat="63.95787048" lon="-18.7412281"><ele>632.6</ele><time>2012-07-24T18:16:14.0000000+00:00</time></trkpt><trkpt lat="63.95778275" lon="-18.74120903"><ele>632.6</ele><time>2012-07-24T18:16:19.0000000+00:00</time></trkpt><trkpt lat="63.95769119" lon="-18.74119377"><ele>634.2</ele><time>2012-07-24T18:16:24.0000000+00:00</time></trkpt><trkpt lat="63.95759964" lon="-18.74116898"><ele>635.2</ele><time>2012-07-24T18:16:29.0000000+00:00</time></trkpt><trkpt lat="63.95751953" lon="-18.74115181"><ele>637.6</ele><time>2012-07-24T18:16:34.0000000+00:00</time></trkpt><trkpt lat="63.95741272" lon="-18.74110794"><ele>639.3</ele><time>2012-07-24T18:16:39.0000000+00:00</time></trkpt><trkpt lat="63.95732117" lon="-18.74104691"><ele>641.5</ele><time>2012-07-24T18:16:44.0000000+00:00</time></trkpt><trkpt lat="63.95722961" lon="-18.74100113"><ele>642.7</ele><time>2012-07-24T18:16:49.0000000+00:00</time></trkpt><trkpt lat="63.95713043" lon="-18.74093819"><ele>643.5</ele><time>2012-07-24T18:16:54.0000000+00:00</time></trkpt><trkpt lat="63.95703125" lon="-18.74085617"><ele>642.7</ele><time>2012-07-24T18:16:59.0000000+00:00</time></trkpt><trkpt lat="63.95693588" lon="-18.74076462"><ele>643.3</ele><time>2012-07-24T18:17:04.0000000+00:00</time></trkpt><trkpt lat="63.95684052" lon="-18.74065781"><ele>643.8</ele><time>2012-07-24T18:17:09.0000000+00:00</time></trkpt><trkpt lat="63.95674896" lon="-18.74055481"><ele>645.5</ele><time>2012-07-24T18:17:14.0000000+00:00</time></trkpt><trkpt lat="63.95663452" lon="-18.74039459"><ele>647.1</ele><time>2012-07-24T18:17:19.0000000+00:00</time></trkpt><trkpt lat="63.95646668" lon="-18.74015617"><ele>647.2</ele><time>2012-07-24T18:17:24.0000000+00:00</time></trkpt><trkpt lat="63.9562645" lon="-18.74007416"><ele>648.6</ele><time>2012-07-24T18:17:29.0000000+00:00</time></trkpt><trkpt lat="63.95620728" lon="-18.74006653"><ele>649.9</ele><time>2012-07-24T18:17:34.0000000+00:00</time></trkpt><trkpt lat="63.95621109" lon="-18.74005699"><ele>650.5</ele><time>2012-07-24T18:17:39.0000000+00:00</time></trkpt><trkpt lat="63.95621109" lon="-18.74005699"><ele>650.6</ele><time>2012-07-24T18:17:44.0000000+00:00</time></trkpt><trkpt lat="63.95621109" lon="-18.74005318"><ele>650.6</ele><time>2012-07-24T18:17:49.0000000+00:00</time></trkpt><trkpt lat="63.95621109" lon="-18.74005318"><ele>650.6</ele><time>2012-07-24T18:17:54.0000000+00:00</time></trkpt><trkpt lat="63.95621109" lon="-18.74005127"><ele>650.6</ele><time>2012-07-24T18:17:59.0000000+00:00</time></trkpt><trkpt lat="63.95620728" lon="-18.74005699"><ele>650.6</ele><time>2012-07-24T18:18:04.0000000+00:00</time></trkpt><trkpt lat="63.95620728" lon="-18.74005699"><ele>650.7</ele><time>2012-07-24T18:18:09.0000000+00:00</time></trkpt><trkpt lat="63.95620728" lon="-18.74005699"><ele>650.6</ele><time>2012-07-24T18:18:14.0000000+00:00</time></trkpt><trkpt lat="63.95620728" lon="-18.74005699"><ele>650.6</ele><time>2012-07-24T18:18:19.0000000+00:00</time></trkpt><trkpt lat="63.95619965" lon="-18.74006653"><ele>650.4</ele><time>2012-07-24T18:18:24.0000000+00:00</time></trkpt><trkpt lat="63.95614243" lon="-18.74008942"><ele>650.5</ele><time>2012-07-24T18:18:29.0000000+00:00</time></trkpt><trkpt lat="63.95609665" lon="-18.74013519"><ele>650.3</ele><time>2012-07-24T18:18:34.0000000+00:00</time></trkpt><trkpt lat="63.95604324" lon="-18.74018097"><ele>650.4</ele><time>2012-07-24T18:18:39.0000000+00:00</time></trkpt><trkpt lat="63.9560051" lon="-18.74021339"><ele>651.3</ele><time>2012-07-24T18:18:44.0000000+00:00</time></trkpt><trkpt lat="63.95596314" lon="-18.74023056"><ele>652.0</ele><time>2012-07-24T18:18:49.0000000+00:00</time></trkpt><trkpt lat="63.95595932" lon="-18.74023247"><ele>652.5</ele><time>2012-07-24T18:18:54.0000000+00:00</time></trkpt><trkpt lat="63.9559288" lon="-18.74026108"><ele>653.2</ele><time>2012-07-24T18:18:59.0000000+00:00</time></trkpt><trkpt lat="63.9559021" lon="-18.7402668"><ele>653.6</ele><time>2012-07-24T18:19:04.0000000+00:00</time></trkpt><trkpt lat="63.95586777" lon="-18.74026108"><ele>654.0</ele><time>2012-07-24T18:19:09.0000000+00:00</time></trkpt><trkpt lat="63.95585251" lon="-18.74027252"><ele>653.8</ele><time>2012-07-24T18:19:14.0000000+00:00</time></trkpt><trkpt lat="63.95585632" lon="-18.74028015"><ele>654.3</ele><time>2012-07-24T18:19:19.0000000+00:00</time></trkpt><trkpt lat="63.95586014" lon="-18.74028015"><ele>654.5</ele><time>2012-07-24T18:19:24.0000000+00:00</time></trkpt><trkpt lat="63.95585632" lon="-18.74028206"><ele>654.6</ele><time>2012-07-24T18:19:29.0000000+00:00</time></trkpt><trkpt lat="63.95586014" lon="-18.74028206"><ele>654.6</ele><time>2012-07-24T18:19:34.0000000+00:00</time></trkpt><trkpt lat="63.95582962" lon="-18.74027634"><ele>653.7</ele><time>2012-07-24T18:19:39.0000000+00:00</time></trkpt><trkpt lat="63.95579147" lon="-18.74028015"><ele>653.3</ele><time>2012-07-24T18:19:44.0000000+00:00</time></trkpt><trkpt lat="63.95576477" lon="-18.74027443"><ele>654.0</ele><time>2012-07-24T18:19:49.0000000+00:00</time></trkpt><trkpt lat="63.95576096" lon="-18.74027824"><ele>654.3</ele><time>2012-07-24T18:19:54.0000000+00:00</time></trkpt><trkpt lat="63.95576096" lon="-18.74027824"><ele>654.3</ele><time>2012-07-24T18:19:59.0000000+00:00</time></trkpt><trkpt lat="63.95575333" lon="-18.74028778"><ele>654.3</ele><time>2012-07-24T18:20:04.0000000+00:00</time></trkpt><trkpt lat="63.95572281" lon="-18.74030685"><ele>654.5</ele><time>2012-07-24T18:20:09.0000000+00:00</time></trkpt><trkpt lat="63.95568466" lon="-18.74031448"><ele>654.9</ele><time>2012-07-24T18:20:14.0000000+00:00</time></trkpt><trkpt lat="63.9556427" lon="-18.74031258"><ele>654.7</ele><time>2012-07-24T18:20:19.0000000+00:00</time></trkpt><trkpt lat="63.95560074" lon="-18.74031258"><ele>655.8</ele><time>2012-07-24T18:20:24.0000000+00:00</time></trkpt><trkpt lat="63.95556641" lon="-18.7402916"><ele>656.7</ele><time>2012-07-24T18:20:29.0000000+00:00</time></trkpt><trkpt lat="63.95552826" lon="-18.74031067"><ele>657.3</ele><time>2012-07-24T18:20:34.0000000+00:00</time></trkpt><trkpt lat="63.9554863" lon="-18.74033928"><ele>658.1</ele><time>2012-07-24T18:20:39.0000000+00:00</time></trkpt><trkpt lat="63.9554596" lon="-18.74037743"><ele>659.5</ele><time>2012-07-24T18:20:44.0000000+00:00</time></trkpt><trkpt lat="63.95542908" lon="-18.74044037"><ele>660.7</ele><time>2012-07-24T18:20:49.0000000+00:00</time></trkpt><trkpt lat="63.95537949" lon="-18.74047089"><ele>661.2</ele><time>2012-07-24T18:20:54.0000000+00:00</time></trkpt><trkpt lat="63.95536423" lon="-18.74046516"><ele>661.3</ele><time>2012-07-24T18:20:59.0000000+00:00</time></trkpt><trkpt lat="63.95533752" lon="-18.74049568"><ele>662.1</ele><time>2012-07-24T18:21:04.0000000+00:00</time></trkpt><trkpt lat="63.95530319" lon="-18.74053955"><ele>662.2</ele><time>2012-07-24T18:21:09.0000000+00:00</time></trkpt><trkpt lat="63.95527649" lon="-18.74058533"><ele>663.1</ele><time>2012-07-24T18:21:14.0000000+00:00</time></trkpt><trkpt lat="63.95524597" lon="-18.7406292"><ele>663.9</ele><time>2012-07-24T18:21:19.0000000+00:00</time></trkpt><trkpt lat="63.95519257" lon="-18.74065399"><ele>662.6</ele><time>2012-07-24T18:21:24.0000000+00:00</time></trkpt><trkpt lat="63.95516205" lon="-18.7406826"><ele>663.2</ele><time>2012-07-24T18:21:29.0000000+00:00</time></trkpt><trkpt lat="63.95513535" lon="-18.74071312"><ele>663.3</ele><time>2012-07-24T18:21:34.0000000+00:00</time></trkpt><trkpt lat="63.9550972" lon="-18.74072456"><ele>661.9</ele><time>2012-07-24T18:21:39.0000000+00:00</time></trkpt><trkpt lat="63.95507431" lon="-18.74076653"><ele>661.7</ele><time>2012-07-24T18:21:44.0000000+00:00</time></trkpt><trkpt lat="63.95504379" lon="-18.74078369"><ele>661.7</ele><time>2012-07-24T18:21:49.0000000+00:00</time></trkpt><trkpt lat="63.95500946" lon="-18.74078751"><ele>661.9</ele><time>2012-07-24T18:21:54.0000000+00:00</time></trkpt><trkpt lat="63.95497513" lon="-18.74078369"><ele>662.7</ele><time>2012-07-24T18:21:59.0000000+00:00</time></trkpt><trkpt lat="63.95496368" lon="-18.74075317"><ele>668.9</ele><time>2012-07-24T18:22:04.0000000+00:00</time></trkpt><trkpt lat="63.95494843" lon="-18.74069023"><ele>671.2</ele><time>2012-07-24T18:22:09.0000000+00:00</time></trkpt><trkpt lat="63.95494843" lon="-18.7406559"><ele>672.4</ele><time>2012-07-24T18:22:14.0000000+00:00</time></trkpt><trkpt lat="63.95494843" lon="-18.7406559"><ele>672.4</ele><time>2012-07-24T18:22:19.0000000+00:00</time></trkpt><trkpt lat="63.95495224" lon="-18.7406559"><ele>672.3</ele><time>2012-07-24T18:22:24.0000000+00:00</time></trkpt><trkpt lat="63.95495224" lon="-18.74065399"><ele>672.3</ele><time>2012-07-24T18:22:29.0000000+00:00</time></trkpt><trkpt lat="63.95495224" lon="-18.74065399"><ele>672.3</ele><time>2012-07-24T18:22:34.0000000+00:00</time></trkpt><trkpt lat="63.95495224" lon="-18.7406559"><ele>672.3</ele><time>2012-07-24T18:22:39.0000000+00:00</time></trkpt><trkpt lat="63.95495606" lon="-18.74065018"><ele>672.9</ele><time>2012-07-24T18:22:44.0000000+00:00</time></trkpt><trkpt lat="63.95495606" lon="-18.74065018"><ele>672.9</ele><time>2012-07-24T18:22:49.0000000+00:00</time></trkpt><trkpt lat="63.95495606" lon="-18.74065018"><ele>672.9</ele><time>2012-07-24T18:22:54.0000000+00:00</time></trkpt><trkpt lat="63.95495606" lon="-18.74065018"><ele>673.1</ele><time>2012-07-24T18:22:59.0000000+00:00</time></trkpt><trkpt lat="63.95495987" lon="-18.74064827"><ele>673.0</ele><time>2012-07-24T18:23:04.0000000+00:00</time></trkpt><trkpt lat="63.9549408" lon="-18.74055862"><ele>673.7</ele><time>2012-07-24T18:23:09.0000000+00:00</time></trkpt><trkpt lat="63.95491791" lon="-18.74044991"><ele>674.7</ele><time>2012-07-24T18:23:14.0000000+00:00</time></trkpt><trkpt lat="63.95489502" lon="-18.74035263"><ele>674.7</ele><time>2012-07-24T18:23:19.0000000+00:00</time></trkpt><trkpt lat="63.95485687" lon="-18.7402401"><ele>676.9</ele><time>2012-07-24T18:23:24.0000000+00:00</time></trkpt><trkpt lat="63.9548378" lon="-18.74013138"><ele>677.2</ele><time>2012-07-24T18:23:29.0000000+00:00</time></trkpt><trkpt lat="63.9548111" lon="-18.74001885"><ele>677.2</ele><time>2012-07-24T18:23:34.0000000+00:00</time></trkpt><trkpt lat="63.95482254" lon="-18.74001122"><ele>677.1</ele><time>2012-07-24T18:23:39.0000000+00:00</time></trkpt><trkpt lat="63.95482254" lon="-18.74001122"><ele>677.1</ele><time>2012-07-24T18:23:44.0000000+00:00</time></trkpt><trkpt lat="63.95482254" lon="-18.74001122"><ele>677.1</ele><time>2012-07-24T18:23:49.0000000+00:00</time></trkpt><trkpt lat="63.95481873" lon="-18.74001122"><ele>677.1</ele><time>2012-07-24T18:23:54.0000000+00:00</time></trkpt><trkpt lat="63.95482254" lon="-18.7400074"><ele>677.0</ele><time>2012-07-24T18:23:59.0000000+00:00</time></trkpt><trkpt lat="63.95482254" lon="-18.7400074"><ele>677.0</ele><time>2012-07-24T18:24:04.0000000+00:00</time></trkpt><trkpt lat="63.95482254" lon="-18.7400074"><ele>677.0</ele><time>2012-07-24T18:24:09.0000000+00:00</time></trkpt><trkpt lat="63.95482254" lon="-18.7400074"><ele>677.0</ele><time>2012-07-24T18:24:14.0000000+00:00</time></trkpt><trkpt lat="63.9548111" lon="-18.73996735"><ele>676.7</ele><time>2012-07-24T18:24:19.0000000+00:00</time></trkpt><trkpt lat="63.95476151" lon="-18.73987961"><ele>676.5</ele><time>2012-07-24T18:24:24.0000000+00:00</time></trkpt><trkpt lat="63.95471573" lon="-18.73982048"><ele>676.7</ele><time>2012-07-24T18:24:29.0000000+00:00</time></trkpt><trkpt lat="63.95468903" lon="-18.73980141"><ele>676.8</ele><time>2012-07-24T18:24:34.0000000+00:00</time></trkpt><trkpt lat="63.95467377" lon="-18.73982239"><ele>676.4</ele><time>2012-07-24T18:24:39.0000000+00:00</time></trkpt><trkpt lat="63.95459747" lon="-18.73980713"><ele>676.1</ele><time>2012-07-24T18:24:44.0000000+00:00</time></trkpt><trkpt lat="63.95445252" lon="-18.73971748"><ele>674.8</ele><time>2012-07-24T18:24:49.0000000+00:00</time></trkpt><trkpt lat="63.9542923" lon="-18.73957443"><ele>673.6</ele><time>2012-07-24T18:24:54.0000000+00:00</time></trkpt><trkpt lat="63.95409393" lon="-18.73940849"><ele>670.5</ele><time>2012-07-24T18:24:59.0000000+00:00</time></trkpt><trkpt lat="63.95388413" lon="-18.73923683"><ele>668.6</ele><time>2012-07-24T18:25:04.0000000+00:00</time></trkpt><trkpt lat="63.9537468" lon="-18.73913574"><ele>668.1</ele><time>2012-07-24T18:25:09.0000000+00:00</time></trkpt><trkpt lat="63.95359802" lon="-18.73905945"><ele>667.1</ele><time>2012-07-24T18:25:14.0000000+00:00</time></trkpt><trkpt lat="63.95344544" lon="-18.73893166"><ele>665.1</ele><time>2012-07-24T18:25:19.0000000+00:00</time></trkpt><trkpt lat="63.95335007" lon="-18.73890877"><ele>663.1</ele><time>2012-07-24T18:25:24.0000000+00:00</time></trkpt><trkpt lat="63.95323563" lon="-18.73899651"><ele>661.1</ele><time>2012-07-24T18:25:29.0000000+00:00</time></trkpt><trkpt lat="63.95308304" lon="-18.73921394"><ele>657.0</ele><time>2012-07-24T18:25:34.0000000+00:00</time></trkpt><trkpt lat="63.95290756" lon="-18.73915863"><ele>653.0</ele><time>2012-07-24T18:25:39.0000000+00:00</time></trkpt><trkpt lat="63.95280838" lon="-18.73877144"><ele>652.2</ele><time>2012-07-24T18:25:44.0000000+00:00</time></trkpt><trkpt lat="63.95275879" lon="-18.73849297"><ele>652.2</ele><time>2012-07-24T18:25:49.0000000+00:00</time></trkpt><trkpt lat="63.9527092" lon="-18.73829079"><ele>651.4</ele><time>2012-07-24T18:25:54.0000000+00:00</time></trkpt><trkpt lat="63.95266342" lon="-18.7381134"><ele>650.1</ele><time>2012-07-24T18:25:59.0000000+00:00</time></trkpt><trkpt lat="63.95259857" lon="-18.73787689"><ele>648.6</ele><time>2012-07-24T18:26:04.0000000+00:00</time></trkpt><trkpt lat="63.95251846" lon="-18.73764229"><ele>648.0</ele><time>2012-07-24T18:26:09.0000000+00:00</time></trkpt><trkpt lat="63.95240402" lon="-18.73746872"><ele>647.6</ele><time>2012-07-24T18:26:14.0000000+00:00</time></trkpt><trkpt lat="63.95231247" lon="-18.73736954"><ele>646.8</ele><time>2012-07-24T18:26:19.0000000+00:00</time></trkpt><trkpt lat="63.95226669" lon="-18.73731804"><ele>646.0</ele><time>2012-07-24T18:26:24.0000000+00:00</time></trkpt><trkpt lat="63.95225906" lon="-18.73731232"><ele>646.0</ele><time>2012-07-24T18:26:29.0000000+00:00</time></trkpt><trkpt lat="63.95225525" lon="-18.73731613"><ele>646.0</ele><time>2012-07-24T18:26:34.0000000+00:00</time></trkpt><trkpt lat="63.95223999" lon="-18.73727989"><ele>646.7</ele><time>2012-07-24T18:26:39.0000000+00:00</time></trkpt><trkpt lat="63.95220566" lon="-18.7372036"><ele>647.5</ele><time>2012-07-24T18:26:44.0000000+00:00</time></trkpt><trkpt lat="63.95215988" lon="-18.73710632"><ele>647.9</ele><time>2012-07-24T18:26:49.0000000+00:00</time></trkpt><trkpt lat="63.95211792" lon="-18.73702049"><ele>648.4</ele><time>2012-07-24T18:26:54.0000000+00:00</time></trkpt><trkpt lat="63.95207977" lon="-18.73693085"><ele>648.8</ele><time>2012-07-24T18:26:59.0000000+00:00</time></trkpt><trkpt lat="63.95204163" lon="-18.73689842"><ele>649.3</ele><time>2012-07-24T18:27:04.0000000+00:00</time></trkpt><trkpt lat="63.95200729" lon="-18.73685837"><ele>649.6</ele><time>2012-07-24T18:27:09.0000000+00:00</time></trkpt><trkpt lat="63.95198441" lon="-18.736763"><ele>650.0</ele><time>2012-07-24T18:27:14.0000000+00:00</time></trkpt><trkpt lat="63.9519577" lon="-18.73666"><ele>650.0</ele><time>2012-07-24T18:27:19.0000000+00:00</time></trkpt><trkpt lat="63.95191956" lon="-18.73653603"><ele>649.6</ele><time>2012-07-24T18:27:24.0000000+00:00</time></trkpt><trkpt lat="63.95188904" lon="-18.73641396"><ele>648.9</ele><time>2012-07-24T18:27:29.0000000+00:00</time></trkpt><trkpt lat="63.95185852" lon="-18.73630905"><ele>648.5</ele><time>2012-07-24T18:27:34.0000000+00:00</time></trkpt><trkpt lat="63.95182037" lon="-18.7361927"><ele>648.5</ele><time>2012-07-24T18:27:39.0000000+00:00</time></trkpt><trkpt lat="63.95177078" lon="-18.73610306"><ele>648.3</ele><time>2012-07-24T18:27:44.0000000+00:00</time></trkpt><trkpt lat="63.95174408" lon="-18.73605156"><ele>647.7</ele><time>2012-07-24T18:27:49.0000000+00:00</time></trkpt><trkpt lat="63.95174408" lon="-18.73604965"><ele>648.0</ele><time>2012-07-24T18:27:54.0000000+00:00</time></trkpt><trkpt lat="63.95174408" lon="-18.73604965"><ele>648.0</ele><time>2012-07-24T18:27:59.0000000+00:00</time></trkpt><trkpt lat="63.95174408" lon="-18.73604965"><ele>648.0</ele><time>2012-07-24T18:28:04.0000000+00:00</time></trkpt><trkpt lat="63.95174408" lon="-18.73604965"><ele>648.0</ele><time>2012-07-24T18:28:09.0000000+00:00</time></trkpt><trkpt lat="63.95174408" lon="-18.73604965"><ele>648.0</ele><time>2012-07-24T18:28:14.0000000+00:00</time></trkpt><trkpt lat="63.95174408" lon="-18.73604965"><ele>648.0</ele><time>2012-07-24T18:28:19.0000000+00:00</time></trkpt><trkpt lat="63.95169449" lon="-18.73600006"><ele>648.1</ele><time>2012-07-24T18:28:24.0000000+00:00</time></trkpt><trkpt lat="63.95164108" lon="-18.73591614"><ele>647.7</ele><time>2012-07-24T18:28:29.0000000+00:00</time></trkpt><trkpt lat="63.95158386" lon="-18.73585129"><ele>647.7</ele><time>2012-07-24T18:28:34.0000000+00:00</time></trkpt><trkpt lat="63.9515419" lon="-18.73576927"><ele>648.9</ele><time>2012-07-24T18:28:39.0000000+00:00</time></trkpt><trkpt lat="63.95148468" lon="-18.73570442"><ele>648.7</ele><time>2012-07-24T18:28:44.0000000+00:00</time></trkpt><trkpt lat="63.95143127" lon="-18.73567009"><ele>648.8</ele><time>2012-07-24T18:28:49.0000000+00:00</time></trkpt><trkpt lat="63.95140839" lon="-18.73565483"><ele>649.2</ele><time>2012-07-24T18:28:54.0000000+00:00</time></trkpt><trkpt lat="63.95137787" lon="-18.73563194"><ele>649.5</ele><time>2012-07-24T18:28:59.0000000+00:00</time></trkpt><trkpt lat="63.95137405" lon="-18.73563385"><ele>649.6</ele><time>2012-07-24T18:29:04.0000000+00:00</time></trkpt><trkpt lat="63.95134735" lon="-18.7356205"><ele>649.9</ele><time>2012-07-24T18:29:09.0000000+00:00</time></trkpt><trkpt lat="63.95132065" lon="-18.73559761"><ele>650.2</ele><time>2012-07-24T18:29:14.0000000+00:00</time></trkpt><trkpt lat="63.95130158" lon="-18.73558044"><ele>650.8</ele><time>2012-07-24T18:29:19.0000000+00:00</time></trkpt><trkpt lat="63.95130158" lon="-18.73556328"><ele>651.4</ele><time>2012-07-24T18:29:24.0000000+00:00</time></trkpt><trkpt lat="63.95130158" lon="-18.73556328"><ele>651.7</ele><time>2012-07-24T18:29:29.0000000+00:00</time></trkpt><trkpt lat="63.95128632" lon="-18.73554993"><ele>652.0</ele><time>2012-07-24T18:29:34.0000000+00:00</time></trkpt><trkpt lat="63.95127106" lon="-18.73551941"><ele>651.9</ele><time>2012-07-24T18:29:39.0000000+00:00</time></trkpt><trkpt lat="63.95126343" lon="-18.73552513"><ele>651.9</ele><time>2012-07-24T18:29:44.0000000+00:00</time></trkpt><trkpt lat="63.95122528" lon="-18.73549843"><ele>652.2</ele><time>2012-07-24T18:29:49.0000000+00:00</time></trkpt><trkpt lat="63.95120621" lon="-18.73548698"><ele>652.4</ele><time>2012-07-24T18:29:54.0000000+00:00</time></trkpt><trkpt lat="63.95120239" lon="-18.73549843"><ele>652.5</ele><time>2012-07-24T18:29:59.0000000+00:00</time></trkpt><trkpt lat="63.95120239" lon="-18.73549843"><ele>652.6</ele><time>2012-07-24T18:30:04.0000000+00:00</time></trkpt><trkpt lat="63.95120239" lon="-18.73549843"><ele>652.6</ele><time>2012-07-24T18:30:09.0000000+00:00</time></trkpt><trkpt lat="63.95120239" lon="-18.73549843"><ele>652.6</ele><time>2012-07-24T18:30:14.0000000+00:00</time></trkpt><trkpt lat="63.9511795" lon="-18.73547554"><ele>652.4</ele><time>2012-07-24T18:30:19.0000000+00:00</time></trkpt><trkpt lat="63.95114136" lon="-18.73545837"><ele>652.3</ele><time>2012-07-24T18:30:24.0000000+00:00</time></trkpt><trkpt lat="63.95111084" lon="-18.73545456"><ele>652.3</ele><time>2012-07-24T18:30:29.0000000+00:00</time></trkpt><trkpt lat="63.95107651" lon="-18.73544693"><ele>652.9</ele><time>2012-07-24T18:30:34.0000000+00:00</time></trkpt><trkpt lat="63.95103455" lon="-18.73542404"><ele>653.0</ele><time>2012-07-24T18:30:39.0000000+00:00</time></trkpt><trkpt lat="63.95100403" lon="-18.73537636"><ele>654.5</ele><time>2012-07-24T18:30:44.0000000+00:00</time></trkpt><trkpt lat="63.95097733" lon="-18.73534966"><ele>656.1</ele><time>2012-07-24T18:30:49.0000000+00:00</time></trkpt><trkpt lat="63.95097351" lon="-18.73532295"><ele>656.7</ele><time>2012-07-24T18:30:54.0000000+00:00</time></trkpt><trkpt lat="63.95094299" lon="-18.73529816"><ele>657.5</ele><time>2012-07-24T18:30:59.0000000+00:00</time></trkpt><trkpt lat="63.95090485" lon="-18.73526764"><ele>657.8</ele><time>2012-07-24T18:31:04.0000000+00:00</time></trkpt><trkpt lat="63.95085526" lon="-18.73522377"><ele>657.9</ele><time>2012-07-24T18:31:09.0000000+00:00</time></trkpt><trkpt lat="63.95080948" lon="-18.73518562"><ele>658.0</ele><time>2012-07-24T18:31:14.0000000+00:00</time></trkpt><trkpt lat="63.95075989" lon="-18.73514938"><ele>658.6</ele><time>2012-07-24T18:31:19.0000000+00:00</time></trkpt><trkpt lat="63.95075989" lon="-18.73514366"><ele>659.5</ele><time>2012-07-24T18:31:24.0000000+00:00</time></trkpt><trkpt lat="63.95072556" lon="-18.73512459"><ele>659.9</ele><time>2012-07-24T18:31:29.0000000+00:00</time></trkpt><trkpt lat="63.95067978" lon="-18.73513794"><ele>659.5</ele><time>2012-07-24T18:31:34.0000000+00:00</time></trkpt><trkpt lat="63.95065689" lon="-18.73515701"><ele>659.6</ele><time>2012-07-24T18:31:39.0000000+00:00</time></trkpt><trkpt lat="63.95066071" lon="-18.73515511"><ele>659.6</ele><time>2012-07-24T18:31:44.0000000+00:00</time></trkpt><trkpt lat="63.95065308" lon="-18.73517799"><ele>659.8</ele><time>2012-07-24T18:31:49.0000000+00:00</time></trkpt><trkpt lat="63.95061874" lon="-18.73526382"><ele>659.8</ele><time>2012-07-24T18:31:54.0000000+00:00</time></trkpt><trkpt lat="63.95060349" lon="-18.73532105"><ele>659.9</ele><time>2012-07-24T18:31:59.0000000+00:00</time></trkpt><trkpt lat="63.95058823" lon="-18.73539734"><ele>659.9</ele><time>2012-07-24T18:32:04.0000000+00:00</time></trkpt><trkpt lat="63.95058441" lon="-18.73547363"><ele>659.9</ele><time>2012-07-24T18:32:09.0000000+00:00</time></trkpt><trkpt lat="63.95057297" lon="-18.73557472"><ele>659.8</ele><time>2012-07-24T18:32:14.0000000+00:00</time></trkpt><trkpt lat="63.95056915" lon="-18.73566818"><ele>659.9</ele><time>2012-07-24T18:32:19.0000000+00:00</time></trkpt><trkpt lat="63.95056152" lon="-18.73575211"><ele>660.5</ele><time>2012-07-24T18:32:24.0000000+00:00</time></trkpt><trkpt lat="63.95055771" lon="-18.73583984"><ele>660.5</ele><time>2012-07-24T18:32:29.0000000+00:00</time></trkpt><trkpt lat="63.95053864" lon="-18.73592949"><ele>662.6</ele><time>2012-07-24T18:32:34.0000000+00:00</time></trkpt><trkpt lat="63.95052338" lon="-18.73602867"><ele>663.5</ele><time>2012-07-24T18:32:39.0000000+00:00</time></trkpt><trkpt lat="63.95049286" lon="-18.73612976"><ele>664.7</ele><time>2012-07-24T18:32:44.0000000+00:00</time></trkpt><trkpt lat="63.95046997" lon="-18.73624039"><ele>664.3</ele><time>2012-07-24T18:32:49.0000000+00:00</time></trkpt><trkpt lat="63.95043564" lon="-18.73634338"><ele>663.8</ele><time>2012-07-24T18:32:54.0000000+00:00</time></trkpt><trkpt lat="63.95040131" lon="-18.73641586"><ele>663.8</ele><time>2012-07-24T18:32:59.0000000+00:00</time></trkpt><trkpt lat="63.95040131" lon="-18.7364254"><ele>664.0</ele><time>2012-07-24T18:33:04.0000000+00:00</time></trkpt><trkpt lat="63.95039749" lon="-18.73641586"><ele>663.9</ele><time>2012-07-24T18:33:09.0000000+00:00</time></trkpt><trkpt lat="63.95037079" lon="-18.7364769"><ele>664.6</ele><time>2012-07-24T18:33:14.0000000+00:00</time></trkpt><trkpt lat="63.95034027" lon="-18.73653603"><ele>665.6</ele><time>2012-07-24T18:33:19.0000000+00:00</time></trkpt><trkpt lat="63.9502945" lon="-18.7365818"><ele>665.8</ele><time>2012-07-24T18:33:24.0000000+00:00</time></trkpt><trkpt lat="63.95023727" lon="-18.73663521"><ele>667.6</ele><time>2012-07-24T18:33:29.0000000+00:00</time></trkpt><trkpt lat="63.95017624" lon="-18.7366848"><ele>667.8</ele><time>2012-07-24T18:33:34.0000000+00:00</time></trkpt><trkpt lat="63.95013046" lon="-18.73678589"><ele>667.7</ele><time>2012-07-24T18:33:39.0000000+00:00</time></trkpt><trkpt lat="63.95010376" lon="-18.73690033"><ele>666.4</ele><time>2012-07-24T18:33:44.0000000+00:00</time></trkpt><trkpt lat="63.95006561" lon="-18.73701286"><ele>666.3</ele><time>2012-07-24T18:33:49.0000000+00:00</time></trkpt><trkpt lat="63.95004273" lon="-18.73712158"><ele>665.5</ele><time>2012-07-24T18:33:54.0000000+00:00</time></trkpt><trkpt lat="63.95001602" lon="-18.73724365"><ele>665.2</ele><time>2012-07-24T18:33:59.0000000+00:00</time></trkpt><trkpt lat="63.95000076" lon="-18.73734283"><ele>664.3</ele><time>2012-07-24T18:34:04.0000000+00:00</time></trkpt><trkpt lat="63.94997788" lon="-18.73743248"><ele>664.2</ele><time>2012-07-24T18:34:09.0000000+00:00</time></trkpt><trkpt lat="63.94997788" lon="-18.73743057"><ele>665.8</ele><time>2012-07-24T18:34:14.0000000+00:00</time></trkpt><trkpt lat="63.94998169" lon="-18.7374382"><ele>666.3</ele><time>2012-07-24T18:34:19.0000000+00:00</time></trkpt><trkpt lat="63.94996643" lon="-18.73743057"><ele>666.7</ele><time>2012-07-24T18:34:24.0000000+00:00</time></trkpt><trkpt lat="63.94996262" lon="-18.73740959"><ele>666.7</ele><time>2012-07-24T18:34:29.0000000+00:00</time></trkpt><trkpt lat="63.94997025" lon="-18.73740006"><ele>667.1</ele><time>2012-07-24T18:34:34.0000000+00:00</time></trkpt><trkpt lat="63.94996643" lon="-18.73748207"><ele>667.1</ele><time>2012-07-24T18:34:39.0000000+00:00</time></trkpt><trkpt lat="63.9499588" lon="-18.73758316"><ele>666.5</ele><time>2012-07-24T18:34:44.0000000+00:00</time></trkpt><trkpt lat="63.94993973" lon="-18.73766899"><ele>664.0</ele><time>2012-07-24T18:34:49.0000000+00:00</time></trkpt><trkpt lat="63.94992828" lon="-18.73776436"><ele>661.0</ele><time>2012-07-24T18:34:54.0000000+00:00</time></trkpt><trkpt lat="63.94991684" lon="-18.73785591"><ele>659.0</ele><time>2012-07-24T18:34:59.0000000+00:00</time></trkpt><trkpt lat="63.9499054" lon="-18.73797417"><ele>660.9</ele><time>2012-07-24T18:35:04.0000000+00:00</time></trkpt><trkpt lat="63.9499054" lon="-18.73807907"><ele>661.9</ele><time>2012-07-24T18:35:09.0000000+00:00</time></trkpt><trkpt lat="63.94991684" lon="-18.73817444"><ele>663.1</ele><time>2012-07-24T18:35:14.0000000+00:00</time></trkpt><trkpt lat="63.94991303" lon="-18.73826599"><ele>663.7</ele><time>2012-07-24T18:35:19.0000000+00:00</time></trkpt><trkpt lat="63.94991303" lon="-18.73830032"><ele>664.3</ele><time>2012-07-24T18:35:24.0000000+00:00</time></trkpt><trkpt lat="63.94991684" lon="-18.73830414"><ele>664.1</ele><time>2012-07-24T18:35:29.0000000+00:00</time></trkpt><trkpt lat="63.94990921" lon="-18.73839569"><ele>663.1</ele><time>2012-07-24T18:35:34.0000000+00:00</time></trkpt><trkpt lat="63.94990921" lon="-18.73852158"><ele>663.6</ele><time>2012-07-24T18:35:39.0000000+00:00</time></trkpt><trkpt lat="63.94991303" lon="-18.73861694"><ele>665.3</ele><time>2012-07-24T18:35:44.0000000+00:00</time></trkpt><trkpt lat="63.9499054" lon="-18.7387085"><ele>666.9</ele><time>2012-07-24T18:35:49.0000000+00:00</time></trkpt><trkpt lat="63.94989395" lon="-18.7387867"><ele>668.3</ele><time>2012-07-24T18:35:54.0000000+00:00</time></trkpt><trkpt lat="63.94988251" lon="-18.73889542"><ele>669.9</ele><time>2012-07-24T18:35:59.0000000+00:00</time></trkpt><trkpt lat="63.94987106" lon="-18.73900223"><ele>671.3</ele><time>2012-07-24T18:36:04.0000000+00:00</time></trkpt><trkpt lat="63.9498558" lon="-18.73907471"><ele>671.2</ele><time>2012-07-24T18:36:09.0000000+00:00</time></trkpt><trkpt lat="63.94986725" lon="-18.73908424"><ele>672.4</ele><time>2012-07-24T18:36:14.0000000+00:00</time></trkpt><trkpt lat="63.94985962" lon="-18.7392292"><ele>672.9</ele><time>2012-07-24T18:36:19.0000000+00:00</time></trkpt><trkpt lat="63.94984436" lon="-18.73942375"><ele>674.3</ele><time>2012-07-24T18:36:24.0000000+00:00</time></trkpt><trkpt lat="63.9498291" lon="-18.73965454"><ele>674.3</ele><time>2012-07-24T18:36:29.0000000+00:00</time></trkpt><trkpt lat="63.94978714" lon="-18.73990822"><ele>673.8</ele><time>2012-07-24T18:36:34.0000000+00:00</time></trkpt><trkpt lat="63.94970703" lon="-18.74010468"><ele>673.6</ele><time>2012-07-24T18:36:39.0000000+00:00</time></trkpt><trkpt lat="63.94960403" lon="-18.74010468"><ele>673.6</ele><time>2012-07-24T18:36:44.0000000+00:00</time></trkpt><trkpt lat="63.94949341" lon="-18.73993683"><ele>671.9</ele><time>2012-07-24T18:36:49.0000000+00:00</time></trkpt><trkpt lat="63.9493103" lon="-18.7397747"><ele>670.9</ele><time>2012-07-24T18:36:54.0000000+00:00</time></trkpt><trkpt lat="63.94919586" lon="-18.73974609"><ele>672.3</ele><time>2012-07-24T18:36:59.0000000+00:00</time></trkpt><trkpt lat="63.94910812" lon="-18.73973465"><ele>673.0</ele><time>2012-07-24T18:37:04.0000000+00:00</time></trkpt><trkpt lat="63.94902039" lon="-18.73973846"><ele>672.8</ele><time>2012-07-24T18:37:09.0000000+00:00</time></trkpt><trkpt lat="63.94892502" lon="-18.73971748"><ele>673.7</ele><time>2012-07-24T18:37:14.0000000+00:00</time></trkpt><trkpt lat="63.94884491" lon="-18.73970795"><ele>673.8</ele><time>2012-07-24T18:37:19.0000000+00:00</time></trkpt><trkpt lat="63.94879532" lon="-18.73971558"><ele>673.7</ele><time>2012-07-24T18:37:24.0000000+00:00</time></trkpt><trkpt lat="63.94878388" lon="-18.73972511"><ele>674.0</ele><time>2012-07-24T18:37:29.0000000+00:00</time></trkpt><trkpt lat="63.94878388" lon="-18.73973274"><ele>674.2</ele><time>2012-07-24T18:37:34.0000000+00:00</time></trkpt><trkpt lat="63.9487915" lon="-18.73973656"><ele>674.1</ele><time>2012-07-24T18:37:39.0000000+00:00</time></trkpt><trkpt lat="63.94881439" lon="-18.73975563"><ele>674.0</ele><time>2012-07-24T18:37:44.0000000+00:00</time></trkpt><trkpt lat="63.94883728" lon="-18.73980331"><ele>673.5</ele><time>2012-07-24T18:37:49.0000000+00:00</time></trkpt><trkpt lat="63.94886398" lon="-18.73987198"><ele>673.0</ele><time>2012-07-24T18:37:54.0000000+00:00</time></trkpt><trkpt lat="63.94885254" lon="-18.73987961"><ele>672.7</ele><time>2012-07-24T18:37:59.0000000+00:00</time></trkpt><trkpt lat="63.94885254" lon="-18.73987961"><ele>672.7</ele><time>2012-07-24T18:38:04.0000000+00:00</time></trkpt><trkpt lat="63.94884872" lon="-18.73981285"><ele>673.6</ele><time>2012-07-24T18:38:09.0000000+00:00</time></trkpt><trkpt lat="63.94884491" lon="-18.7397728"><ele>673.9</ele><time>2012-07-24T18:38:14.0000000+00:00</time></trkpt><trkpt lat="63.94884491" lon="-18.73976898"><ele>674.0</ele><time>2012-07-24T18:38:19.0000000+00:00</time></trkpt><trkpt lat="63.94883728" lon="-18.73975945"><ele>674.7</ele><time>2012-07-24T18:38:24.0000000+00:00</time></trkpt><trkpt lat="63.94882965" lon="-18.73975945"><ele>675.0</ele><time>2012-07-24T18:38:29.0000000+00:00</time></trkpt><trkpt lat="63.94883347" lon="-18.73975945"><ele>675.0</ele><time>2012-07-24T18:38:34.0000000+00:00</time></trkpt><trkpt lat="63.94882965" lon="-18.73975945"><ele>675.0</ele><time>2012-07-24T18:38:39.0000000+00:00</time></trkpt><trkpt lat="63.9487915" lon="-18.73976708"><ele>674.4</ele><time>2012-07-24T18:38:44.0000000+00:00</time></trkpt><trkpt lat="63.94872665" lon="-18.73976326"><ele>673.4</ele><time>2012-07-24T18:38:49.0000000+00:00</time></trkpt><trkpt lat="63.94863892" lon="-18.73979569"><ele>676.1</ele><time>2012-07-24T18:38:54.0000000+00:00</time></trkpt><trkpt lat="63.94850159" lon="-18.73980522"><ele>676.7</ele><time>2012-07-24T18:38:59.0000000+00:00</time></trkpt><trkpt lat="63.94838333" lon="-18.73975754"><ele>676.1</ele><time>2012-07-24T18:39:04.0000000+00:00</time></trkpt><trkpt lat="63.94826508" lon="-18.73968506"><ele>673.2</ele><time>2012-07-24T18:39:09.0000000+00:00</time></trkpt><trkpt lat="63.94815064" lon="-18.73945236"><ele>672.6</ele><time>2012-07-24T18:39:14.0000000+00:00</time></trkpt><trkpt lat="63.94801331" lon="-18.73904228"><ele>670.1</ele><time>2012-07-24T18:39:19.0000000+00:00</time></trkpt><trkpt lat="63.9478302" lon="-18.73846436"><ele>667.0</ele><time>2012-07-24T18:39:24.0000000+00:00</time></trkpt><trkpt lat="63.94769669" lon="-18.73808289"><ele>666.0</ele><time>2012-07-24T18:39:29.0000000+00:00</time></trkpt><trkpt lat="63.94757462" lon="-18.73772812"><ele>663.6</ele><time>2012-07-24T18:39:34.0000000+00:00</time></trkpt><trkpt lat="63.94743729" lon="-18.73736"><ele>660.9</ele><time>2012-07-24T18:39:39.0000000+00:00</time></trkpt><trkpt lat="63.94731522" lon="-18.73708534"><ele>657.7</ele><time>2012-07-24T18:39:44.0000000+00:00</time></trkpt><trkpt lat="63.94714737" lon="-18.73677826"><ele>651.4</ele><time>2012-07-24T18:39:49.0000000+00:00</time></trkpt><trkpt lat="63.94698715" lon="-18.73647499"><ele>647.0</ele><time>2012-07-24T18:39:54.0000000+00:00</time></trkpt><trkpt lat="63.94686127" lon="-18.73619461"><ele>644.2</ele><time>2012-07-24T18:39:59.0000000+00:00</time></trkpt><trkpt lat="63.94681931" lon="-18.73611641"><ele>643.0</ele><time>2012-07-24T18:40:04.0000000+00:00</time></trkpt><trkpt lat="63.94681931" lon="-18.73611641"><ele>642.7</ele><time>2012-07-24T18:40:09.0000000+00:00</time></trkpt><trkpt lat="63.94682694" lon="-18.7361126"><ele>641.9</ele><time>2012-07-24T18:40:14.0000000+00:00</time></trkpt><trkpt lat="63.94682312" lon="-18.73611069"><ele>642.0</ele><time>2012-07-24T18:40:19.0000000+00:00</time></trkpt><trkpt lat="63.94682312" lon="-18.73611069"><ele>641.9</ele><time>2012-07-24T18:40:24.0000000+00:00</time></trkpt><trkpt lat="63.94682312" lon="-18.7361126"><ele>641.9</ele><time>2012-07-24T18:40:29.0000000+00:00</time></trkpt><trkpt lat="63.94682312" lon="-18.7361126"><ele>641.9</ele><time>2012-07-24T18:40:34.0000000+00:00</time></trkpt><trkpt lat="63.94682312" lon="-18.7361126"><ele>641.9</ele><time>2012-07-24T18:40:39.0000000+00:00</time></trkpt><trkpt lat="63.94682312" lon="-18.73611641"><ele>641.9</ele><time>2012-07-24T18:40:44.0000000+00:00</time></trkpt><trkpt lat="63.94682312" lon="-18.73613739"><ele>642.0</ele><time>2012-07-24T18:40:49.0000000+00:00</time></trkpt><trkpt lat="63.94682312" lon="-18.73613739"><ele>642.0</ele><time>2012-07-24T18:40:54.0000000+00:00</time></trkpt><trkpt lat="63.94682312" lon="-18.73613739"><ele>642.0</ele><time>2012-07-24T18:40:59.0000000+00:00</time></trkpt><trkpt lat="63.94682312" lon="-18.73614121"><ele>642.0</ele><time>2012-07-24T18:41:04.0000000+00:00</time></trkpt><trkpt lat="63.94683075" lon="-18.73614311"><ele>642.1</ele><time>2012-07-24T18:41:09.0000000+00:00</time></trkpt><trkpt lat="63.94683075" lon="-18.7361393"><ele>642.0</ele><time>2012-07-24T18:41:14.0000000+00:00</time></trkpt><trkpt lat="63.94683456" lon="-18.73613167"><ele>642.0</ele><time>2012-07-24T18:41:19.0000000+00:00</time></trkpt><trkpt lat="63.94683456" lon="-18.73613358"><ele>642.0</ele><time>2012-07-24T18:41:24.0000000+00:00</time></trkpt><trkpt lat="63.94682694" lon="-18.73610115"><ele>642.1</ele><time>2012-07-24T18:41:29.0000000+00:00</time></trkpt><trkpt lat="63.94676971" lon="-18.7359848"><ele>642.1</ele><time>2012-07-24T18:41:34.0000000+00:00</time></trkpt><trkpt lat="63.94672394" lon="-18.73581886"><ele>642.4</ele><time>2012-07-24T18:41:39.0000000+00:00</time></trkpt><trkpt lat="63.94667816" lon="-18.73565865"><ele>643.0</ele><time>2012-07-24T18:41:44.0000000+00:00</time></trkpt><trkpt lat="63.94663239" lon="-18.73548698"><ele>641.7</ele><time>2012-07-24T18:41:49.0000000+00:00</time></trkpt><trkpt lat="63.94659042" lon="-18.73529816"><ele>640.0</ele><time>2012-07-24T18:41:54.0000000+00:00</time></trkpt><trkpt lat="63.9465332" lon="-18.73512268"><ele>638.1</ele><time>2012-07-24T18:41:59.0000000+00:00</time></trkpt><trkpt lat="63.94646454" lon="-18.73496056"><ele>635.5</ele><time>2012-07-24T18:42:04.0000000+00:00</time></trkpt><trkpt lat="63.94631958" lon="-18.7347889"><ele>631.0</ele><time>2012-07-24T18:42:09.0000000+00:00</time></trkpt><trkpt lat="63.94619751" lon="-18.73459053"><ele>628.4</ele><time>2012-07-24T18:42:14.0000000+00:00</time></trkpt><trkpt lat="63.94609833" lon="-18.7344017"><ele>627.4</ele><time>2012-07-24T18:42:19.0000000+00:00</time></trkpt><trkpt lat="63.94598007" lon="-18.73423386"><ele>626.6</ele><time>2012-07-24T18:42:24.0000000+00:00</time></trkpt><trkpt lat="63.94590759" lon="-18.73415756"><ele>624.3</ele><time>2012-07-24T18:42:29.0000000+00:00</time></trkpt><trkpt lat="63.94590759" lon="-18.73416901"><ele>623.5</ele><time>2012-07-24T18:42:34.0000000+00:00</time></trkpt><trkpt lat="63.94590759" lon="-18.73416519"><ele>623.3</ele><time>2012-07-24T18:42:39.0000000+00:00</time></trkpt><trkpt lat="63.94590759" lon="-18.7341671"><ele>623.1</ele><time>2012-07-24T18:42:44.0000000+00:00</time></trkpt><trkpt lat="63.94590378" lon="-18.7341671"><ele>623.1</ele><time>2012-07-24T18:42:49.0000000+00:00</time></trkpt><trkpt lat="63.94590378" lon="-18.7341671"><ele>623.1</ele><time>2012-07-24T18:42:54.0000000+00:00</time></trkpt><trkpt lat="63.94590378" lon="-18.7341671"><ele>623.0</ele><time>2012-07-24T18:42:59.0000000+00:00</time></trkpt><trkpt lat="63.94589996" lon="-18.73417473"><ele>623.0</ele><time>2012-07-24T18:43:04.0000000+00:00</time></trkpt><trkpt lat="63.94591141" lon="-18.73416519"><ele>623.0</ele><time>2012-07-24T18:43:09.0000000+00:00</time></trkpt><trkpt lat="63.94591522" lon="-18.73416328"><ele>623.0</ele><time>2012-07-24T18:43:14.0000000+00:00</time></trkpt><trkpt lat="63.94592285" lon="-18.73416138"><ele>623.0</ele><time>2012-07-24T18:43:19.0000000+00:00</time></trkpt><trkpt lat="63.94589996" lon="-18.73413658"><ele>623.0</ele><time>2012-07-24T18:43:24.0000000+00:00</time></trkpt><trkpt lat="63.94587326" lon="-18.73411751"><ele>622.8</ele><time>2012-07-24T18:43:29.0000000+00:00</time></trkpt><trkpt lat="63.94584656" lon="-18.73413086"><ele>623.3</ele><time>2012-07-24T18:43:34.0000000+00:00</time></trkpt><trkpt lat="63.94582748" lon="-18.73418236"><ele>624.5</ele><time>2012-07-24T18:43:39.0000000+00:00</time></trkpt><trkpt lat="63.94582367" lon="-18.7342186"><ele>625.6</ele><time>2012-07-24T18:43:44.0000000+00:00</time></trkpt><trkpt lat="63.94582367" lon="-18.73421669"><ele>625.8</ele><time>2012-07-24T18:43:49.0000000+00:00</time></trkpt><trkpt lat="63.94581604" lon="-18.73422623"><ele>625.9</ele><time>2012-07-24T18:43:54.0000000+00:00</time></trkpt><trkpt lat="63.9458046" lon="-18.73428154"><ele>626.5</ele><time>2012-07-24T18:43:59.0000000+00:00</time></trkpt><trkpt lat="63.94578934" lon="-18.73433685"><ele>627.4</ele><time>2012-07-24T18:44:04.0000000+00:00</time></trkpt><trkpt lat="63.94577408" lon="-18.73438835"><ele>628.3</ele><time>2012-07-24T18:44:09.0000000+00:00</time></trkpt><trkpt lat="63.94575882" lon="-18.73441315"><ele>628.1</ele><time>2012-07-24T18:44:14.0000000+00:00</time></trkpt><trkpt lat="63.94573975" lon="-18.73448372"><ele>628.2</ele><time>2012-07-24T18:44:19.0000000+00:00</time></trkpt><trkpt lat="63.94572449" lon="-18.7345562"><ele>630.2</ele><time>2012-07-24T18:44:24.0000000+00:00</time></trkpt><trkpt lat="63.94570923" lon="-18.73462105"><ele>631.3</ele><time>2012-07-24T18:44:29.0000000+00:00</time></trkpt><trkpt lat="63.94569016" lon="-18.73468208"><ele>633.5</ele><time>2012-07-24T18:44:34.0000000+00:00</time></trkpt><trkpt lat="63.94565964" lon="-18.7347374"><ele>632.8</ele><time>2012-07-24T18:44:39.0000000+00:00</time></trkpt><trkpt lat="63.94564056" lon="-18.73480415"><ele>633.4</ele><time>2012-07-24T18:44:44.0000000+00:00</time></trkpt><trkpt lat="63.94563675" lon="-18.7348156"><ele>633.5</ele><time>2012-07-24T18:44:49.0000000+00:00</time></trkpt><trkpt lat="63.94560623" lon="-18.7348671"><ele>633.6</ele><time>2012-07-24T18:44:54.0000000+00:00</time></trkpt><trkpt lat="63.94558716" lon="-18.73492813"><ele>633.3</ele><time>2012-07-24T18:44:59.0000000+00:00</time></trkpt><trkpt lat="63.94557571" lon="-18.73498344"><ele>632.2</ele><time>2012-07-24T18:45:04.0000000+00:00</time></trkpt><trkpt lat="63.94554901" lon="-18.73505783"><ele>632.9</ele><time>2012-07-24T18:45:09.0000000+00:00</time></trkpt><trkpt lat="63.94552994" lon="-18.73513985"><ele>634.6</ele><time>2012-07-24T18:45:14.0000000+00:00</time></trkpt><trkpt lat="63.94552231" lon="-18.73517227"><ele>634.2</ele><time>2012-07-24T18:45:19.0000000+00:00</time></trkpt><trkpt lat="63.94552231" lon="-18.73517609"><ele>634.0</ele><time>2012-07-24T18:45:24.0000000+00:00</time></trkpt><trkpt lat="63.94552231" lon="-18.73517799"><ele>633.9</ele><time>2012-07-24T18:45:29.0000000+00:00</time></trkpt><trkpt lat="63.94552231" lon="-18.73517799"><ele>633.9</ele><time>2012-07-24T18:45:34.0000000+00:00</time></trkpt><trkpt lat="63.94551468" lon="-18.73518181"><ele>633.7</ele><time>2012-07-24T18:45:39.0000000+00:00</time></trkpt><trkpt lat="63.94549942" lon="-18.73524094"><ele>633.8</ele><time>2012-07-24T18:45:44.0000000+00:00</time></trkpt><trkpt lat="63.94548416" lon="-18.73530197"><ele>634.2</ele><time>2012-07-24T18:45:49.0000000+00:00</time></trkpt><trkpt lat="63.94547272" lon="-18.73536491"><ele>634.9</ele><time>2012-07-24T18:45:54.0000000+00:00</time></trkpt><trkpt lat="63.94544601" lon="-18.73541832"><ele>635.9</ele><time>2012-07-24T18:45:59.0000000+00:00</time></trkpt><trkpt lat="63.9454155" lon="-18.73545837"><ele>636.8</ele><time>2012-07-24T18:46:04.0000000+00:00</time></trkpt><trkpt lat="63.94538498" lon="-18.73549271"><ele>637.6</ele><time>2012-07-24T18:46:09.0000000+00:00</time></trkpt><trkpt lat="63.94536209" lon="-18.73554993"><ele>637.9</ele><time>2012-07-24T18:46:14.0000000+00:00</time></trkpt><trkpt lat="63.9453392" lon="-18.73557663"><ele>637.7</ele><time>2012-07-24T18:46:19.0000000+00:00</time></trkpt><trkpt lat="63.94532394" lon="-18.73564529"><ele>637.7</ele><time>2012-07-24T18:46:24.0000000+00:00</time></trkpt><trkpt lat="63.94532394" lon="-18.73572159"><ele>637.6</ele><time>2012-07-24T18:46:29.0000000+00:00</time></trkpt><trkpt lat="63.94530487" lon="-18.73576737"><ele>638.2</ele><time>2012-07-24T18:46:34.0000000+00:00</time></trkpt><trkpt lat="63.94530869" lon="-18.73577499"><ele>638.6</ele><time>2012-07-24T18:46:39.0000000+00:00</time></trkpt><trkpt lat="63.94530487" lon="-18.73587227"><ele>638.5</ele><time>2012-07-24T18:46:44.0000000+00:00</time></trkpt><trkpt lat="63.94528961" lon="-18.73594284"><ele>638.8</ele><time>2012-07-24T18:46:49.0000000+00:00</time></trkpt><trkpt lat="63.94526291" lon="-18.73604012"><ele>640.1</ele><time>2012-07-24T18:46:54.0000000+00:00</time></trkpt><trkpt lat="63.94524384" lon="-18.73608971"><ele>641.4</ele><time>2012-07-24T18:46:59.0000000+00:00</time></trkpt><trkpt lat="63.94522858" lon="-18.736166"><ele>642.8</ele><time>2012-07-24T18:47:04.0000000+00:00</time></trkpt><trkpt lat="63.9452095" lon="-18.73626709"><ele>643.5</ele><time>2012-07-24T18:47:09.0000000+00:00</time></trkpt><trkpt lat="63.9451828" lon="-18.73636055"><ele>645.3</ele><time>2012-07-24T18:47:14.0000000+00:00</time></trkpt><trkpt lat="63.9451561" lon="-18.73641777"><ele>646.2</ele><time>2012-07-24T18:47:19.0000000+00:00</time></trkpt><trkpt lat="63.94514084" lon="-18.73644638"><ele>646.6</ele><time>2012-07-24T18:47:24.0000000+00:00</time></trkpt><trkpt lat="63.94513702" lon="-18.73645401"><ele>646.0</ele><time>2012-07-24T18:47:29.0000000+00:00</time></trkpt><trkpt lat="63.94511795" lon="-18.73652077"><ele>645.4</ele><time>2012-07-24T18:47:34.0000000+00:00</time></trkpt><trkpt lat="63.94508362" lon="-18.73655319"><ele>644.6</ele><time>2012-07-24T18:47:39.0000000+00:00</time></trkpt><trkpt lat="63.94504547" lon="-18.73660088"><ele>643.9</ele><time>2012-07-24T18:47:44.0000000+00:00</time></trkpt><trkpt lat="63.94501877" lon="-18.73662758"><ele>643.6</ele><time>2012-07-24T18:47:49.0000000+00:00</time></trkpt><trkpt lat="63.94501114" lon="-18.73661804"><ele>643.4</ele><time>2012-07-24T18:47:54.0000000+00:00</time></trkpt><trkpt lat="63.94500732" lon="-18.73662567"><ele>643.5</ele><time>2012-07-24T18:47:59.0000000+00:00</time></trkpt><trkpt lat="63.94497299" lon="-18.73662758"><ele>643.2</ele><time>2012-07-24T18:48:04.0000000+00:00</time></trkpt><trkpt lat="63.94491577" lon="-18.73667908"><ele>642.8</ele><time>2012-07-24T18:48:09.0000000+00:00</time></trkpt><trkpt lat="63.94486618" lon="-18.73669815"><ele>641.7</ele><time>2012-07-24T18:48:14.0000000+00:00</time></trkpt><trkpt lat="63.94482422" lon="-18.73670197"><ele>642.7</ele><time>2012-07-24T18:48:19.0000000+00:00</time></trkpt><trkpt lat="63.94482803" lon="-18.73667717"><ele>644.4</ele><time>2012-07-24T18:48:24.0000000+00:00</time></trkpt><trkpt lat="63.944767" lon="-18.73671722"><ele>643.0</ele><time>2012-07-24T18:48:29.0000000+00:00</time></trkpt><trkpt lat="63.94467163" lon="-18.7367115"><ele>642.8</ele><time>2012-07-24T18:48:34.0000000+00:00</time></trkpt><trkpt lat="63.94457245" lon="-18.73662376"><ele>642.3</ele><time>2012-07-24T18:48:39.0000000+00:00</time></trkpt><trkpt lat="63.94448853" lon="-18.73646545"><ele>643.4</ele><time>2012-07-24T18:48:44.0000000+00:00</time></trkpt><trkpt lat="63.9444046" lon="-18.73635674"><ele>644.1</ele><time>2012-07-24T18:48:49.0000000+00:00</time></trkpt><trkpt lat="63.94433594" lon="-18.73626709"><ele>643.8</ele><time>2012-07-24T18:48:54.0000000+00:00</time></trkpt><trkpt lat="63.94425201" lon="-18.73623848"><ele>642.0</ele><time>2012-07-24T18:48:59.0000000+00:00</time></trkpt><trkpt lat="63.94408417" lon="-18.73618889"><ele>637.7</ele><time>2012-07-24T18:49:04.0000000+00:00</time></trkpt><trkpt lat="63.94389725" lon="-18.73590469"><ele>633.5</ele><time>2012-07-24T18:49:09.0000000+00:00</time></trkpt><trkpt lat="63.94382095" lon="-18.73560333"><ele>631.4</ele><time>2012-07-24T18:49:14.0000000+00:00</time></trkpt><trkpt lat="63.94376373" lon="-18.73537064"><ele>629.7</ele><time>2012-07-24T18:49:19.0000000+00:00</time></trkpt><trkpt lat="63.9437027" lon="-18.73514366"><ele>628.8</ele><time>2012-07-24T18:49:24.0000000+00:00</time></trkpt><trkpt lat="63.94364166" lon="-18.73484612"><ele>627.2</ele><time>2012-07-24T18:49:29.0000000+00:00</time></trkpt><trkpt lat="63.94355393" lon="-18.73459625"><ele>624.5</ele><time>2012-07-24T18:49:34.0000000+00:00</time></trkpt><trkpt lat="63.94342804" lon="-18.73438644"><ele>622.0</ele><time>2012-07-24T18:49:39.0000000+00:00</time></trkpt><trkpt lat="63.94329453" lon="-18.73420334"><ele>620.0</ele><time>2012-07-24T18:49:44.0000000+00:00</time></trkpt><trkpt lat="63.94318008" lon="-18.73399353"><ele>618.3</ele><time>2012-07-24T18:49:49.0000000+00:00</time></trkpt><trkpt lat="63.94309235" lon="-18.73381043"><ele>616.1</ele><time>2012-07-24T18:49:54.0000000+00:00</time></trkpt><trkpt lat="63.94298935" lon="-18.73360062"><ele>615.0</ele><time>2012-07-24T18:49:59.0000000+00:00</time></trkpt><trkpt lat="63.94290543" lon="-18.73345184"><ele>615.3</ele><time>2012-07-24T18:50:04.0000000+00:00</time></trkpt><trkpt lat="63.94281006" lon="-18.73342705"><ele>612.3</ele><time>2012-07-24T18:50:09.0000000+00:00</time></trkpt><trkpt lat="63.94277191" lon="-18.73342705"><ele>612.6</ele><time>2012-07-24T18:50:14.0000000+00:00</time></trkpt><trkpt lat="63.94277573" lon="-18.73342323"><ele>612.9</ele><time>2012-07-24T18:50:19.0000000+00:00</time></trkpt><trkpt lat="63.94277573" lon="-18.73342514"><ele>613.0</ele><time>2012-07-24T18:50:24.0000000+00:00</time></trkpt><trkpt lat="63.94277573" lon="-18.73342323"><ele>613.0</ele><time>2012-07-24T18:50:29.0000000+00:00</time></trkpt><trkpt lat="63.94277573" lon="-18.73342323"><ele>613.0</ele><time>2012-07-24T18:50:34.0000000+00:00</time></trkpt><trkpt lat="63.94277573" lon="-18.73342323"><ele>613.0</ele><time>2012-07-24T18:50:39.0000000+00:00</time></trkpt><trkpt lat="63.94277573" lon="-18.73342323"><ele>613.0</ele><time>2012-07-24T18:50:44.0000000+00:00</time></trkpt><trkpt lat="63.94277573" lon="-18.73342323"><ele>613.0</ele><time>2012-07-24T18:50:49.0000000+00:00</time></trkpt><trkpt lat="63.94277573" lon="-18.73342133"><ele>613.0</ele><time>2012-07-24T18:50:54.0000000+00:00</time></trkpt><trkpt lat="63.94277573" lon="-18.73342133"><ele>613.0</ele><time>2012-07-24T18:50:59.0000000+00:00</time></trkpt><trkpt lat="63.94277573" lon="-18.73342133"><ele>613.0</ele><time>2012-07-24T18:51:04.0000000+00:00</time></trkpt><trkpt lat="63.94277573" lon="-18.73342133"><ele>613.0</ele><time>2012-07-24T18:51:09.0000000+00:00</time></trkpt><trkpt lat="63.94277573" lon="-18.73342133"><ele>613.0</ele><time>2012-07-24T18:51:14.0000000+00:00</time></trkpt><trkpt lat="63.94277573" lon="-18.73342133"><ele>613.0</ele><time>2012-07-24T18:51:19.0000000+00:00</time></trkpt><trkpt lat="63.94277573" lon="-18.73342323"><ele>612.9</ele><time>2012-07-24T18:51:24.0000000+00:00</time></trkpt><trkpt lat="63.94277573" lon="-18.73342323"><ele>612.9</ele><time>2012-07-24T18:51:29.0000000+00:00</time></trkpt><trkpt lat="63.94277573" lon="-18.73342323"><ele>612.9</ele><time>2012-07-24T18:51:34.0000000+00:00</time></trkpt><trkpt lat="63.94277191" lon="-18.73342323"><ele>612.9</ele><time>2012-07-24T18:51:39.0000000+00:00</time></trkpt><trkpt lat="63.94273377" lon="-18.73343849"><ele>612.9</ele><time>2012-07-24T18:51:44.0000000+00:00</time></trkpt><trkpt lat="63.94268799" lon="-18.73344994"><ele>612.5</ele><time>2012-07-24T18:51:49.0000000+00:00</time></trkpt><trkpt lat="63.9426384" lon="-18.73345184"><ele>612.6</ele><time>2012-07-24T18:51:54.0000000+00:00</time></trkpt><trkpt lat="63.94258118" lon="-18.73344994"><ele>610.0</ele><time>2012-07-24T18:51:59.0000000+00:00</time></trkpt><trkpt lat="63.94259262" lon="-18.73344231"><ele>610.9</ele><time>2012-07-24T18:52:04.0000000+00:00</time></trkpt><trkpt lat="63.94259262" lon="-18.73343086"><ele>611.2</ele><time>2012-07-24T18:52:09.0000000+00:00</time></trkpt><trkpt lat="63.94256592" lon="-18.73344421"><ele>610.6</ele><time>2012-07-24T18:52:14.0000000+00:00</time></trkpt><trkpt lat="63.9425354" lon="-18.73344421"><ele>611.2</ele><time>2012-07-24T18:52:19.0000000+00:00</time></trkpt><trkpt lat="63.94252014" lon="-18.73343658"><ele>611.3</ele><time>2012-07-24T18:52:24.0000000+00:00</time></trkpt><trkpt lat="63.94246292" lon="-18.73344421"><ele>612.3</ele><time>2012-07-24T18:52:29.0000000+00:00</time></trkpt><trkpt lat="63.94241333" lon="-18.73342323"><ele>612.6</ele><time>2012-07-24T18:52:34.0000000+00:00</time></trkpt><trkpt lat="63.94235611" lon="-18.7333889"><ele>613.7</ele><time>2012-07-24T18:52:39.0000000+00:00</time></trkpt><trkpt lat="63.94231415" lon="-18.73340988"><ele>613.9</ele><time>2012-07-24T18:52:44.0000000+00:00</time></trkpt><trkpt lat="63.94227982" lon="-18.73338699"><ele>613.6</ele><time>2012-07-24T18:52:49.0000000+00:00</time></trkpt><trkpt lat="63.9422493" lon="-18.73334503"><ele>613.5</ele><time>2012-07-24T18:52:54.0000000+00:00</time></trkpt><trkpt lat="63.94221115" lon="-18.73337364"><ele>609.3</ele><time>2012-07-24T18:52:59.0000000+00:00</time></trkpt><trkpt lat="63.94216919" lon="-18.7333355"><ele>608.6</ele><time>2012-07-24T18:53:04.0000000+00:00</time></trkpt><trkpt lat="63.94212341" lon="-18.73327828"><ele>609.1</ele><time>2012-07-24T18:53:09.0000000+00:00</time></trkpt><trkpt lat="63.94208527" lon="-18.73322868"><ele>609.8</ele><time>2012-07-24T18:53:14.0000000+00:00</time></trkpt><trkpt lat="63.94206619" lon="-18.73313332"><ele>610.3</ele><time>2012-07-24T18:53:19.0000000+00:00</time></trkpt><trkpt lat="63.94205093" lon="-18.73308373"><ele>610.6</ele><time>2012-07-24T18:53:24.0000000+00:00</time></trkpt><trkpt lat="63.94202423" lon="-18.73298073"><ele>610.5</ele><time>2012-07-24T18:53:29.0000000+00:00</time></trkpt><trkpt lat="63.94200134" lon="-18.7328949"><ele>610.7</ele><time>2012-07-24T18:53:34.0000000+00:00</time></trkpt><trkpt lat="63.94200134" lon="-18.7328949"><ele>611.0</ele><time>2012-07-24T18:53:39.0000000+00:00</time></trkpt><trkpt lat="63.94200134" lon="-18.7328949"><ele>611.1</ele><time>2012-07-24T18:53:44.0000000+00:00</time></trkpt><trkpt lat="63.9419899" lon="-18.73283768"><ele>611.6</ele><time>2012-07-24T18:53:49.0000000+00:00</time></trkpt><trkpt lat="63.94195175" lon="-18.73277092"><ele>611.1</ele><time>2012-07-24T18:53:54.0000000+00:00</time></trkpt><trkpt lat="63.94193268" lon="-18.73267174"><ele>609.6</ele><time>2012-07-24T18:53:59.0000000+00:00</time></trkpt><trkpt lat="63.94190979" lon="-18.73258972"><ele>609.2</ele><time>2012-07-24T18:54:04.0000000+00:00</time></trkpt><trkpt lat="63.94188309" lon="-18.73251152"><ele>610.2</ele><time>2012-07-24T18:54:09.0000000+00:00</time></trkpt><trkpt lat="63.94187164" lon="-18.73244286"><ele>609.6</ele><time>2012-07-24T18:54:14.0000000+00:00</time></trkpt><trkpt lat="63.9418602" lon="-18.73236847"><ele>609.7</ele><time>2012-07-24T18:54:19.0000000+00:00</time></trkpt><trkpt lat="63.9418602" lon="-18.73237228"><ele>609.8</ele><time>2012-07-24T18:54:24.0000000+00:00</time></trkpt><trkpt lat="63.94184876" lon="-18.73226357"><ele>610.8</ele><time>2012-07-24T18:54:29.0000000+00:00</time></trkpt><trkpt lat="63.94187164" lon="-18.73212242"><ele>613.0</ele><time>2012-07-24T18:54:34.0000000+00:00</time></trkpt><trkpt lat="63.94184876" lon="-18.73209"><ele>615.0</ele><time>2012-07-24T18:54:39.0000000+00:00</time></trkpt><trkpt lat="63.9418602" lon="-18.73204613"><ele>614.7</ele><time>2012-07-24T18:54:44.0000000+00:00</time></trkpt><trkpt lat="63.9418602" lon="-18.73204994"><ele>616.1</ele><time>2012-07-24T18:54:49.0000000+00:00</time></trkpt><trkpt lat="63.94186401" lon="-18.7320385"><ele>615.4</ele><time>2012-07-24T18:54:54.0000000+00:00</time></trkpt><trkpt lat="63.9418602" lon="-18.73203087"><ele>615.4</ele><time>2012-07-24T18:54:59.0000000+00:00</time></trkpt><trkpt lat="63.94185638" lon="-18.73202705"><ele>615.2</ele><time>2012-07-24T18:55:04.0000000+00:00</time></trkpt><trkpt lat="63.94185257" lon="-18.73200989"><ele>615.3</ele><time>2012-07-24T18:55:09.0000000+00:00</time></trkpt><trkpt lat="63.94185638" lon="-18.73186302"><ele>614.7</ele><time>2012-07-24T18:55:14.0000000+00:00</time></trkpt><trkpt lat="63.94189453" lon="-18.73169136"><ele>613.5</ele><time>2012-07-24T18:55:19.0000000+00:00</time></trkpt><trkpt lat="63.94188309" lon="-18.73146439"><ele>613.1</ele><time>2012-07-24T18:55:24.0000000+00:00</time></trkpt><trkpt lat="63.94185638" lon="-18.73119545"><ele>613.9</ele><time>2012-07-24T18:55:29.0000000+00:00</time></trkpt><trkpt lat="63.94182587" lon="-18.73095703"><ele>612.3</ele><time>2012-07-24T18:55:34.0000000+00:00</time></trkpt><trkpt lat="63.94176102" lon="-18.7306633"><ele>609.7</ele><time>2012-07-24T18:55:39.0000000+00:00</time></trkpt><trkpt lat="63.94171143" lon="-18.73036957"><ele>609.4</ele><time>2012-07-24T18:55:44.0000000+00:00</time></trkpt><trkpt lat="63.94167709" lon="-18.73014832"><ele>609.3</ele><time>2012-07-24T18:55:49.0000000+00:00</time></trkpt><trkpt lat="63.94162369" lon="-18.72994423"><ele>609.6</ele><time>2012-07-24T18:55:54.0000000+00:00</time></trkpt><trkpt lat="63.9415741" lon="-18.72977257"><ele>609.9</ele><time>2012-07-24T18:55:59.0000000+00:00</time></trkpt><trkpt lat="63.94152832" lon="-18.7296257"><ele>615.4</ele><time>2012-07-24T18:56:04.0000000+00:00</time></trkpt><trkpt lat="63.9414978" lon="-18.72947502"><ele>614.1</ele><time>2012-07-24T18:56:09.0000000+00:00</time></trkpt><trkpt lat="63.94149399" lon="-18.72945023"><ele>613.7</ele><time>2012-07-24T18:56:14.0000000+00:00</time></trkpt><trkpt lat="63.94149399" lon="-18.72945213"><ele>613.7</ele><time>2012-07-24T18:56:19.0000000+00:00</time></trkpt><trkpt lat="63.94149399" lon="-18.72945213"><ele>613.7</ele><time>2012-07-24T18:56:24.0000000+00:00</time></trkpt><trkpt lat="63.9414978" lon="-18.72945595"><ele>613.8</ele><time>2012-07-24T18:56:29.0000000+00:00</time></trkpt><trkpt lat="63.94150162" lon="-18.72946358"><ele>613.5</ele><time>2012-07-24T18:56:34.0000000+00:00</time></trkpt><trkpt lat="63.94150162" lon="-18.72946358"><ele>613.4</ele><time>2012-07-24T18:56:39.0000000+00:00</time></trkpt><trkpt lat="63.94150162" lon="-18.72946549"><ele>613.4</ele><time>2012-07-24T18:56:44.0000000+00:00</time></trkpt><trkpt lat="63.94150162" lon="-18.72946549"><ele>613.4</ele><time>2012-07-24T18:56:49.0000000+00:00</time></trkpt><trkpt lat="63.94150162" lon="-18.72946549"><ele>613.3</ele><time>2012-07-24T18:56:54.0000000+00:00</time></trkpt><trkpt lat="63.94150162" lon="-18.72946549"><ele>613.3</ele><time>2012-07-24T18:56:59.0000000+00:00</time></trkpt><trkpt lat="63.94150543" lon="-18.72946549"><ele>613.3</ele><time>2012-07-24T18:57:04.0000000+00:00</time></trkpt><trkpt lat="63.94150162" lon="-18.72946549"><ele>613.3</ele><time>2012-07-24T18:57:09.0000000+00:00</time></trkpt><trkpt lat="63.94150162" lon="-18.72946549"><ele>613.3</ele><time>2012-07-24T18:57:14.0000000+00:00</time></trkpt><trkpt lat="63.94150543" lon="-18.72946358"><ele>613.3</ele><time>2012-07-24T18:57:19.0000000+00:00</time></trkpt><trkpt lat="63.94150543" lon="-18.72945786"><ele>613.3</ele><time>2012-07-24T18:57:24.0000000+00:00</time></trkpt><trkpt lat="63.94150925" lon="-18.72945023"><ele>613.3</ele><time>2012-07-24T18:57:29.0000000+00:00</time></trkpt><trkpt lat="63.94152832" lon="-18.7294426"><ele>613.3</ele><time>2012-07-24T18:57:34.0000000+00:00</time></trkpt><trkpt lat="63.94153214" lon="-18.72945595"><ele>613.2</ele><time>2012-07-24T18:57:39.0000000+00:00</time></trkpt><trkpt lat="63.94153976" lon="-18.72946358"><ele>613.3</ele><time>2012-07-24T18:57:44.0000000+00:00</time></trkpt><trkpt lat="63.94154739" lon="-18.72945976"><ele>613.4</ele><time>2012-07-24T18:57:49.0000000+00:00</time></trkpt><trkpt lat="63.94155121" lon="-18.7294693"><ele>613.5</ele><time>2012-07-24T18:57:54.0000000+00:00</time></trkpt><trkpt lat="63.94155121" lon="-18.72947311"><ele>613.5</ele><time>2012-07-24T18:57:59.0000000+00:00</time></trkpt><trkpt lat="63.94155502" lon="-18.72947884"><ele>613.5</ele><time>2012-07-24T18:58:04.0000000+00:00</time></trkpt><trkpt lat="63.94155502" lon="-18.72947693"><ele>613.4</ele><time>2012-07-24T18:58:09.0000000+00:00</time></trkpt><trkpt lat="63.94155502" lon="-18.72947693"><ele>613.4</ele><time>2012-07-24T18:58:14.0000000+00:00</time></trkpt><trkpt lat="63.94155502" lon="-18.72948647"><ele>613.4</ele><time>2012-07-24T18:58:19.0000000+00:00</time></trkpt><trkpt lat="63.94155502" lon="-18.72948074"><ele>613.4</ele><time>2012-07-24T18:58:24.0000000+00:00</time></trkpt><trkpt lat="63.94155502" lon="-18.72948265"><ele>613.4</ele><time>2012-07-24T18:58:29.0000000+00:00</time></trkpt><trkpt lat="63.94155502" lon="-18.72948456"><ele>613.4</ele><time>2012-07-24T18:58:34.0000000+00:00</time></trkpt><trkpt lat="63.94155502" lon="-18.72948456"><ele>613.4</ele><time>2012-07-24T18:58:39.0000000+00:00</time></trkpt><trkpt lat="63.94155502" lon="-18.72948456"><ele>613.5</ele><time>2012-07-24T18:58:44.0000000+00:00</time></trkpt><trkpt lat="63.94155502" lon="-18.72948456"><ele>613.5</ele><time>2012-07-24T18:58:49.0000000+00:00</time></trkpt><trkpt lat="63.94155502" lon="-18.72948647"><ele>613.5</ele><time>2012-07-24T18:58:54.0000000+00:00</time></trkpt><trkpt lat="63.94155502" lon="-18.72948647"><ele>613.5</ele><time>2012-07-24T18:58:59.0000000+00:00</time></trkpt><trkpt lat="63.94155502" lon="-18.72948647"><ele>613.5</ele><time>2012-07-24T18:59:04.0000000+00:00</time></trkpt><trkpt lat="63.94155502" lon="-18.72948647"><ele>613.5</ele><time>2012-07-24T18:59:09.0000000+00:00</time></trkpt><trkpt lat="63.94155502" lon="-18.72948647"><ele>613.5</ele><time>2012-07-24T18:59:14.0000000+00:00</time></trkpt><trkpt lat="63.94155502" lon="-18.72948647"><ele>613.5</ele><time>2012-07-24T18:59:19.0000000+00:00</time></trkpt><trkpt lat="63.94155502" lon="-18.72948647"><ele>613.6</ele><time>2012-07-24T18:59:24.0000000+00:00</time></trkpt><trkpt lat="63.94155502" lon="-18.72948265"><ele>613.5</ele><time>2012-07-24T18:59:29.0000000+00:00</time></trkpt><trkpt lat="63.94155502" lon="-18.72948265"><ele>613.5</ele><time>2012-07-24T18:59:34.0000000+00:00</time></trkpt><trkpt lat="63.94155502" lon="-18.72948456"><ele>613.4</ele><time>2012-07-24T18:59:39.0000000+00:00</time></trkpt><trkpt lat="63.94155121" lon="-18.72947884"><ele>613.3</ele><time>2012-07-24T18:59:44.0000000+00:00</time></trkpt><trkpt lat="63.94155502" lon="-18.72948456"><ele>613.3</ele><time>2012-07-24T18:59:49.0000000+00:00</time></trkpt><trkpt lat="63.94155884" lon="-18.72948647"><ele>613.7</ele><time>2012-07-24T18:59:54.0000000+00:00</time></trkpt><trkpt lat="63.94155884" lon="-18.72948647"><ele>614.0</ele><time>2012-07-24T18:59:59.0000000+00:00</time></trkpt><trkpt lat="63.94155884" lon="-18.72948647"><ele>613.9</ele><time>2012-07-24T19:00:04.0000000+00:00</time></trkpt><trkpt lat="63.94155502" lon="-18.72948074"><ele>613.5</ele><time>2012-07-24T19:00:09.0000000+00:00</time></trkpt><trkpt lat="63.94155884" lon="-18.72945595"><ele>613.8</ele><time>2012-07-24T19:00:14.0000000+00:00</time></trkpt><trkpt lat="63.94156265" lon="-18.72945213"><ele>613.7</ele><time>2012-07-24T19:00:19.0000000+00:00</time></trkpt><trkpt lat="63.94156265" lon="-18.7294445"><ele>613.7</ele><time>2012-07-24T19:00:24.0000000+00:00</time></trkpt><trkpt lat="63.94156265" lon="-18.72945023"><ele>613.7</ele><time>2012-07-24T19:00:29.0000000+00:00</time></trkpt><trkpt lat="63.94155884" lon="-18.72945595"><ele>613.6</ele><time>2012-07-24T19:00:34.0000000+00:00</time></trkpt><trkpt lat="63.94155884" lon="-18.72945595"><ele>613.6</ele><time>2012-07-24T19:00:39.0000000+00:00</time></trkpt><trkpt lat="63.94155884" lon="-18.72945023"><ele>613.6</ele><time>2012-07-24T19:00:44.0000000+00:00</time></trkpt><trkpt lat="63.94155502" lon="-18.72944069"><ele>613.6</ele><time>2012-07-24T19:00:49.0000000+00:00</time></trkpt><trkpt lat="63.94155502" lon="-18.72943306"><ele>613.6</ele><time>2012-07-24T19:00:54.0000000+00:00</time></trkpt><trkpt lat="63.94155502" lon="-18.72942734"><ele>613.7</ele><time>2012-07-24T19:00:59.0000000+00:00</time></trkpt><trkpt lat="63.94155502" lon="-18.72942925"><ele>613.7</ele><time>2012-07-24T19:01:04.0000000+00:00</time></trkpt><trkpt lat="63.94155502" lon="-18.72943115"><ele>613.7</ele><time>2012-07-24T19:01:09.0000000+00:00</time></trkpt><trkpt lat="63.94155502" lon="-18.72943306"><ele>613.7</ele><time>2012-07-24T19:01:14.0000000+00:00</time></trkpt><trkpt lat="63.94153214" lon="-18.72946739"><ele>612.7</ele><time>2012-07-24T19:01:19.0000000+00:00</time></trkpt><trkpt lat="63.94153595" lon="-18.72944832"><ele>612.5</ele><time>2012-07-24T19:01:24.0000000+00:00</time></trkpt><trkpt lat="63.94153595" lon="-18.72944641"><ele>612.2</ele><time>2012-07-24T19:01:29.0000000+00:00</time></trkpt><trkpt lat="63.94153595" lon="-18.7294445"><ele>612.2</ele><time>2012-07-24T19:01:34.0000000+00:00</time></trkpt><trkpt lat="63.94153595" lon="-18.7294445"><ele>612.2</ele><time>2012-07-24T19:01:39.0000000+00:00</time></trkpt><trkpt lat="63.94153595" lon="-18.7294445"><ele>612.2</ele><time>2012-07-24T19:01:44.0000000+00:00</time></trkpt><trkpt lat="63.94153595" lon="-18.7294445"><ele>612.2</ele><time>2012-07-24T19:01:49.0000000+00:00</time></trkpt><trkpt lat="63.94153595" lon="-18.7294445"><ele>612.2</ele><time>2012-07-24T19:01:54.0000000+00:00</time></trkpt><trkpt lat="63.94153595" lon="-18.7294445"><ele>612.2</ele><time>2012-07-24T19:01:59.0000000+00:00</time></trkpt><trkpt lat="63.94153595" lon="-18.7294445"><ele>612.2</ele><time>2012-07-24T19:02:04.0000000+00:00</time></trkpt><trkpt lat="63.94153595" lon="-18.7294445"><ele>612.2</ele><time>2012-07-24T19:02:09.0000000+00:00</time></trkpt><trkpt lat="63.94153595" lon="-18.7294445"><ele>612.2</ele><time>2012-07-24T19:02:14.0000000+00:00</time></trkpt><trkpt lat="63.94153595" lon="-18.7294445"><ele>612.2</ele><time>2012-07-24T19:02:19.0000000+00:00</time></trkpt><trkpt lat="63.94153595" lon="-18.7294445"><ele>612.2</ele><time>2012-07-24T19:02:24.0000000+00:00</time></trkpt><trkpt lat="63.94153595" lon="-18.7294445"><ele>612.2</ele><time>2012-07-24T19:02:29.0000000+00:00</time></trkpt><trkpt lat="63.94153595" lon="-18.7294445"><ele>612.2</ele><time>2012-07-24T19:02:34.0000000+00:00</time></trkpt><trkpt lat="63.94153595" lon="-18.7294445"><ele>612.2</ele><time>2012-07-24T19:02:39.0000000+00:00</time></trkpt><trkpt lat="63.94154358" lon="-18.7294445"><ele>612.2</ele><time>2012-07-24T19:02:44.0000000+00:00</time></trkpt><trkpt lat="63.94155121" lon="-18.72944832"><ele>612.1</ele><time>2012-07-24T19:02:49.0000000+00:00</time></trkpt><trkpt lat="63.94155121" lon="-18.72945404"><ele>612.0</ele><time>2012-07-24T19:02:54.0000000+00:00</time></trkpt><trkpt lat="63.94155502" lon="-18.72945976"><ele>611.8</ele><time>2012-07-24T19:02:59.0000000+00:00</time></trkpt><trkpt lat="63.94155502" lon="-18.72946358"><ele>611.5</ele><time>2012-07-24T19:03:04.0000000+00:00</time></trkpt><trkpt lat="63.94155502" lon="-18.72946739"><ele>611.4</ele><time>2012-07-24T19:03:09.0000000+00:00</time></trkpt><trkpt lat="63.94155502" lon="-18.72946739"><ele>611.4</ele><time>2012-07-24T19:03:14.0000000+00:00</time></trkpt><trkpt lat="63.94154739" lon="-18.72945213"><ele>612.2</ele><time>2012-07-24T19:03:19.0000000+00:00</time></trkpt><trkpt lat="63.94154739" lon="-18.72945213"><ele>612.2</ele><time>2012-07-24T19:03:24.0000000+00:00</time></trkpt><trkpt lat="63.94154739" lon="-18.72945213"><ele>612.2</ele><time>2012-07-24T19:03:29.0000000+00:00</time></trkpt><trkpt lat="63.94154739" lon="-18.72945213"><ele>612.2</ele><time>2012-07-24T19:03:34.0000000+00:00</time></trkpt><trkpt lat="63.94154739" lon="-18.72945213"><ele>612.2</ele><time>2012-07-24T19:03:39.0000000+00:00</time></trkpt><trkpt lat="63.94156265" lon="-18.72944832"><ele>613.5</ele><time>2012-07-24T19:03:44.0000000+00:00</time></trkpt><trkpt lat="63.94155121" lon="-18.72945023"><ele>614.4</ele><time>2012-07-24T19:03:49.0000000+00:00</time></trkpt><trkpt lat="63.94153976" lon="-18.72943306"><ele>614.3</ele><time>2012-07-24T19:03:54.0000000+00:00</time></trkpt><trkpt lat="63.94153595" lon="-18.72941017"><ele>614.0</ele><time>2012-07-24T19:03:59.0000000+00:00</time></trkpt><trkpt lat="63.94153976" lon="-18.72940254"><ele>614.0</ele><time>2012-07-24T19:04:04.0000000+00:00</time></trkpt><trkpt lat="63.94153595" lon="-18.72939491"><ele>614.0</ele><time>2012-07-24T19:04:09.0000000+00:00</time></trkpt><trkpt lat="63.94152451" lon="-18.72939873"><ele>613.9</ele><time>2012-07-24T19:04:14.0000000+00:00</time></trkpt><trkpt lat="63.94151688" lon="-18.72941399"><ele>614.1</ele><time>2012-07-24T19:04:19.0000000+00:00</time></trkpt><trkpt lat="63.94150925" lon="-18.72942543"><ele>614.6</ele><time>2012-07-24T19:04:24.0000000+00:00</time></trkpt><trkpt lat="63.94151306" lon="-18.72942352"><ele>614.6</ele><time>2012-07-24T19:04:29.0000000+00:00</time></trkpt><trkpt lat="63.94151306" lon="-18.72942925"><ele>614.4</ele><time>2012-07-24T19:04:34.0000000+00:00</time></trkpt><trkpt lat="63.94151306" lon="-18.72943687"><ele>614.6</ele><time>2012-07-24T19:04:39.0000000+00:00</time></trkpt><trkpt lat="63.94151306" lon="-18.72943878"><ele>614.6</ele><time>2012-07-24T19:04:44.0000000+00:00</time></trkpt><trkpt lat="63.94151306" lon="-18.72943878"><ele>614.6</ele><time>2012-07-24T19:04:49.0000000+00:00</time></trkpt><trkpt lat="63.94151688" lon="-18.72942734"><ele>614.7</ele><time>2012-07-24T19:04:54.0000000+00:00</time></trkpt><trkpt lat="63.94151306" lon="-18.72941971"><ele>614.8</ele><time>2012-07-24T19:04:59.0000000+00:00</time></trkpt><trkpt lat="63.94151688" lon="-18.72941017"><ele>614.8</ele><time>2012-07-24T19:05:04.0000000+00:00</time></trkpt><trkpt lat="63.94151688" lon="-18.72941017"><ele>614.8</ele><time>2012-07-24T19:05:09.0000000+00:00</time></trkpt><trkpt lat="63.94150925" lon="-18.72944832"><ele>614.9</ele><time>2012-07-24T19:05:14.0000000+00:00</time></trkpt><trkpt lat="63.94150925" lon="-18.72945404"><ele>615.0</ele><time>2012-07-24T19:05:19.0000000+00:00</time></trkpt><trkpt lat="63.94151306" lon="-18.72945213"><ele>615.0</ele><time>2012-07-24T19:05:24.0000000+00:00</time></trkpt><trkpt lat="63.94151688" lon="-18.72945404"><ele>614.9</ele><time>2012-07-24T19:05:29.0000000+00:00</time></trkpt><trkpt lat="63.94151688" lon="-18.72945595"><ele>614.9</ele><time>2012-07-24T19:05:34.0000000+00:00</time></trkpt><trkpt lat="63.94152069" lon="-18.72945213"><ele>614.9</ele><time>2012-07-24T19:05:39.0000000+00:00</time></trkpt><trkpt lat="63.94152069" lon="-18.72944641"><ele>614.9</ele><time>2012-07-24T19:05:44.0000000+00:00</time></trkpt><trkpt lat="63.94152069" lon="-18.7294426"><ele>614.9</ele><time>2012-07-24T19:05:49.0000000+00:00</time></trkpt><trkpt lat="63.94152069" lon="-18.72944069"><ele>614.9</ele><time>2012-07-24T19:05:54.0000000+00:00</time></trkpt><trkpt lat="63.94151688" lon="-18.7294445"><ele>614.9</ele><time>2012-07-24T19:05:59.0000000+00:00</time></trkpt><trkpt lat="63.94151688" lon="-18.7294445"><ele>614.8</ele><time>2012-07-24T19:06:04.0000000+00:00</time></trkpt><trkpt lat="63.94151306" lon="-18.72944069"><ele>614.8</ele><time>2012-07-24T19:06:09.0000000+00:00</time></trkpt><trkpt lat="63.94150543" lon="-18.7294426"><ele>614.8</ele><time>2012-07-24T19:06:14.0000000+00:00</time></trkpt><trkpt lat="63.94151306" lon="-18.72946549"><ele>615.0</ele><time>2012-07-24T19:06:19.0000000+00:00</time></trkpt><trkpt lat="63.94151306" lon="-18.72946739"><ele>615.0</ele><time>2012-07-24T19:06:24.0000000+00:00</time></trkpt><trkpt lat="63.94151306" lon="-18.72946739"><ele>615.0</ele><time>2012-07-24T19:06:29.0000000+00:00</time></trkpt><trkpt lat="63.94151306" lon="-18.72946739"><ele>615.0</ele><time>2012-07-24T19:06:34.0000000+00:00</time></trkpt><trkpt lat="63.94151306" lon="-18.72946739"><ele>615.0</ele><time>2012-07-24T19:06:39.0000000+00:00</time></trkpt><trkpt lat="63.94151306" lon="-18.72946739"><ele>615.0</ele><time>2012-07-24T19:06:44.0000000+00:00</time></trkpt><trkpt lat="63.94151306" lon="-18.72946739"><ele>614.9</ele><time>2012-07-24T19:06:49.0000000+00:00</time></trkpt><trkpt lat="63.94149399" lon="-18.72940826"><ele>615.7</ele><time>2012-07-24T19:06:54.0000000+00:00</time></trkpt><trkpt lat="63.94146729" lon="-18.72930145"><ele>615.3</ele><time>2012-07-24T19:06:59.0000000+00:00</time></trkpt><trkpt lat="63.94146729" lon="-18.72924805"><ele>614.8</ele><time>2012-07-24T19:07:04.0000000+00:00</time></trkpt><trkpt lat="63.94145966" lon="-18.72924042"><ele>614.7</ele><time>2012-07-24T19:07:09.0000000+00:00</time></trkpt><trkpt lat="63.94145584" lon="-18.72920036"><ele>614.3</ele><time>2012-07-24T19:07:14.0000000+00:00</time></trkpt><trkpt lat="63.94142532" lon="-18.72905731"><ele>613.8</ele><time>2012-07-24T19:07:19.0000000+00:00</time></trkpt><trkpt lat="63.94138718" lon="-18.72886467"><ele>613.5</ele><time>2012-07-24T19:07:24.0000000+00:00</time></trkpt><trkpt lat="63.94133377" lon="-18.72867584"><ele>613.5</ele><time>2012-07-24T19:07:29.0000000+00:00</time></trkpt><trkpt lat="63.94128037" lon="-18.72849274"><ele>612.5</ele><time>2012-07-24T19:07:34.0000000+00:00</time></trkpt><trkpt lat="63.94122696" lon="-18.72832489"><ele>611.9</ele><time>2012-07-24T19:07:39.0000000+00:00</time></trkpt><trkpt lat="63.94118881" lon="-18.72812843"><ele>611.1</ele><time>2012-07-24T19:07:44.0000000+00:00</time></trkpt><trkpt lat="63.94115067" lon="-18.72797012"><ele>610.7</ele><time>2012-07-24T19:07:49.0000000+00:00</time></trkpt><trkpt lat="63.94109345" lon="-18.7277832"><ele>610.5</ele><time>2012-07-24T19:07:54.0000000+00:00</time></trkpt><trkpt lat="63.94104385" lon="-18.72762108"><ele>610.0</ele><time>2012-07-24T19:07:59.0000000+00:00</time></trkpt><trkpt lat="63.94100571" lon="-18.72747803"><ele>609.5</ele><time>2012-07-24T19:08:04.0000000+00:00</time></trkpt><trkpt lat="63.94094086" lon="-18.72738838"><ele>609.6</ele><time>2012-07-24T19:08:09.0000000+00:00</time></trkpt><trkpt lat="63.94084549" lon="-18.72726822"><ele>608.6</ele><time>2012-07-24T19:08:14.0000000+00:00</time></trkpt><trkpt lat="63.94073486" lon="-18.72714996"><ele>605.7</ele><time>2012-07-24T19:08:19.0000000+00:00</time></trkpt><trkpt lat="63.94059372" lon="-18.72698212"><ele>603.0</ele><time>2012-07-24T19:08:24.0000000+00:00</time></trkpt><trkpt lat="63.94042969" lon="-18.72686005"><ele>600.7</ele><time>2012-07-24T19:08:29.0000000+00:00</time></trkpt><trkpt lat="63.94029617" lon="-18.72679901"><ele>602.7</ele><time>2012-07-24T19:08:34.0000000+00:00</time></trkpt><trkpt lat="63.94021225" lon="-18.72671509"><ele>602.7</ele><time>2012-07-24T19:08:39.0000000+00:00</time></trkpt><trkpt lat="63.94012833" lon="-18.72663498"><ele>601.4</ele><time>2012-07-24T19:08:44.0000000+00:00</time></trkpt><trkpt lat="63.94006348" lon="-18.72657204"><ele>601.3</ele><time>2012-07-24T19:08:49.0000000+00:00</time></trkpt><trkpt lat="63.93997192" lon="-18.72654152"><ele>600.9</ele><time>2012-07-24T19:08:54.0000000+00:00</time></trkpt><trkpt lat="63.93989945" lon="-18.72643852"><ele>599.1</ele><time>2012-07-24T19:08:59.0000000+00:00</time></trkpt><trkpt lat="63.93977356" lon="-18.72628975"><ele>598.2</ele><time>2012-07-24T19:09:04.0000000+00:00</time></trkpt><trkpt lat="63.93960571" lon="-18.72616768"><ele>596.6</ele><time>2012-07-24T19:09:09.0000000+00:00</time></trkpt><trkpt lat="63.93944168" lon="-18.72612763"><ele>594.7</ele><time>2012-07-24T19:09:14.0000000+00:00</time></trkpt><trkpt lat="63.93926239" lon="-18.72614098"><ele>592.9</ele><time>2012-07-24T19:09:19.0000000+00:00</time></trkpt><trkpt lat="63.93901444" lon="-18.72617722"><ele>590.4</ele><time>2012-07-24T19:09:24.0000000+00:00</time></trkpt><trkpt lat="63.93879318" lon="-18.72621727"><ele>587.1</ele><time>2012-07-24T19:09:29.0000000+00:00</time></trkpt><trkpt lat="63.93864059" lon="-18.72621727"><ele>585.6</ele><time>2012-07-24T19:09:34.0000000+00:00</time></trkpt><trkpt lat="63.93848801" lon="-18.72622871"><ele>584.9</ele><time>2012-07-24T19:09:39.0000000+00:00</time></trkpt><trkpt lat="63.93835068" lon="-18.72628784"><ele>581.2</ele><time>2012-07-24T19:09:44.0000000+00:00</time></trkpt><trkpt lat="63.93819809" lon="-18.7262516"><ele>580.0</ele><time>2012-07-24T19:09:49.0000000+00:00</time></trkpt><trkpt lat="63.93806839" lon="-18.72624397"><ele>580.4</ele><time>2012-07-24T19:09:54.0000000+00:00</time></trkpt><trkpt lat="63.93794251" lon="-18.72621536"><ele>582.1</ele><time>2012-07-24T19:09:59.0000000+00:00</time></trkpt><trkpt lat="63.93780518" lon="-18.72616196"><ele>582.3</ele><time>2012-07-24T19:10:04.0000000+00:00</time></trkpt><trkpt lat="63.93770218" lon="-18.72610283"><ele>579.6</ele><time>2012-07-24T19:10:09.0000000+00:00</time></trkpt><trkpt lat="63.93759918" lon="-18.72604942"><ele>579.4</ele><time>2012-07-24T19:10:14.0000000+00:00</time></trkpt><trkpt lat="63.93751907" lon="-18.7259655"><ele>576.8</ele><time>2012-07-24T19:10:19.0000000+00:00</time></trkpt><trkpt lat="63.93745804" lon="-18.72581291"><ele>574.7</ele><time>2012-07-24T19:10:24.0000000+00:00</time></trkpt><trkpt lat="63.93740463" lon="-18.72566414"><ele>571.5</ele><time>2012-07-24T19:10:29.0000000+00:00</time></trkpt><trkpt lat="63.93734741" lon="-18.72552681"><ele>569.9</ele><time>2012-07-24T19:10:34.0000000+00:00</time></trkpt><trkpt lat="63.93728256" lon="-18.72537994"><ele>568.3</ele><time>2012-07-24T19:10:39.0000000+00:00</time></trkpt><trkpt lat="63.93722153" lon="-18.72532654"><ele>566.1</ele><time>2012-07-24T19:10:44.0000000+00:00</time></trkpt><trkpt lat="63.93721771" lon="-18.72537613"><ele>566.0</ele><time>2012-07-24T19:10:49.0000000+00:00</time></trkpt><trkpt lat="63.93720627" lon="-18.72538757"><ele>566.2</ele><time>2012-07-24T19:10:54.0000000+00:00</time></trkpt><trkpt lat="63.93716812" lon="-18.72533989"><ele>565.6</ele><time>2012-07-24T19:10:59.0000000+00:00</time></trkpt><trkpt lat="63.93715668" lon="-18.72535324"><ele>563.7</ele><time>2012-07-24T19:11:04.0000000+00:00</time></trkpt><trkpt lat="63.93715286" lon="-18.72534752"><ele>563.0</ele><time>2012-07-24T19:11:09.0000000+00:00</time></trkpt><trkpt lat="63.9371376" lon="-18.72527695"><ele>563.3</ele><time>2012-07-24T19:11:14.0000000+00:00</time></trkpt><trkpt lat="63.93712616" lon="-18.72517204"><ele>563.0</ele><time>2012-07-24T19:11:19.0000000+00:00</time></trkpt><trkpt lat="63.93713379" lon="-18.72511292"><ele>561.7</ele><time>2012-07-24T19:11:24.0000000+00:00</time></trkpt><trkpt lat="63.93714142" lon="-18.72510147"><ele>562.4</ele><time>2012-07-24T19:11:29.0000000+00:00</time></trkpt><trkpt lat="63.9371376" lon="-18.72508812"><ele>562.2</ele><time>2012-07-24T19:11:34.0000000+00:00</time></trkpt><trkpt lat="63.93714142" lon="-18.72504425"><ele>562.3</ele><time>2012-07-24T19:11:39.0000000+00:00</time></trkpt><trkpt lat="63.93715286" lon="-18.7250061"><ele>561.4</ele><time>2012-07-24T19:11:44.0000000+00:00</time></trkpt><trkpt lat="63.93715668" lon="-18.72495842"><ele>560.0</ele><time>2012-07-24T19:11:49.0000000+00:00</time></trkpt><trkpt lat="63.93716431" lon="-18.72491837"><ele>558.6</ele><time>2012-07-24T19:11:54.0000000+00:00</time></trkpt><trkpt lat="63.93717194" lon="-18.72483444"><ele>557.3</ele><time>2012-07-24T19:11:59.0000000+00:00</time></trkpt><trkpt lat="63.93718338" lon="-18.7247448"><ele>556.3</ele><time>2012-07-24T19:12:04.0000000+00:00</time></trkpt><trkpt lat="63.93718338" lon="-18.72466278"><ele>555.3</ele><time>2012-07-24T19:12:09.0000000+00:00</time></trkpt><trkpt lat="63.93717575" lon="-18.72456932"><ele>554.3</ele><time>2012-07-24T19:12:14.0000000+00:00</time></trkpt><trkpt lat="63.93717194" lon="-18.72448731"><ele>553.1</ele><time>2012-07-24T19:12:19.0000000+00:00</time></trkpt><trkpt lat="63.93717957" lon="-18.72445107"><ele>552.5</ele><time>2012-07-24T19:12:24.0000000+00:00</time></trkpt><trkpt lat="63.93718338" lon="-18.72443962"><ele>551.1</ele><time>2012-07-24T19:12:29.0000000+00:00</time></trkpt><trkpt lat="63.9371872" lon="-18.72440338"><ele>550.7</ele><time>2012-07-24T19:12:34.0000000+00:00</time></trkpt><trkpt lat="63.9371872" lon="-18.72426987"><ele>552.1</ele><time>2012-07-24T19:12:39.0000000+00:00</time></trkpt><trkpt lat="63.93719101" lon="-18.72420311"><ele>550.0</ele><time>2012-07-24T19:12:44.0000000+00:00</time></trkpt><trkpt lat="63.93719864" lon="-18.72412872"><ele>548.6</ele><time>2012-07-24T19:12:49.0000000+00:00</time></trkpt><trkpt lat="63.9372139" lon="-18.72405815"><ele>546.8</ele><time>2012-07-24T19:12:54.0000000+00:00</time></trkpt><trkpt lat="63.9372139" lon="-18.72400093"><ele>546.3</ele><time>2012-07-24T19:12:59.0000000+00:00</time></trkpt><trkpt lat="63.93720627" lon="-18.72401428"><ele>545.5</ele><time>2012-07-24T19:13:04.0000000+00:00</time></trkpt><trkpt lat="63.93720627" lon="-18.72402954"><ele>544.6</ele><time>2012-07-24T19:13:09.0000000+00:00</time></trkpt><trkpt lat="63.93720627" lon="-18.72403717"><ele>544.0</ele><time>2012-07-24T19:13:14.0000000+00:00</time></trkpt><trkpt lat="63.93722916" lon="-18.7239666"><ele>543.7</ele><time>2012-07-24T19:13:19.0000000+00:00</time></trkpt><trkpt lat="63.93724823" lon="-18.72389412"><ele>543.4</ele><time>2012-07-24T19:13:24.0000000+00:00</time></trkpt><trkpt lat="63.93722153" lon="-18.7237854"><ele>542.8</ele><time>2012-07-24T19:13:29.0000000+00:00</time></trkpt><trkpt lat="63.93722534" lon="-18.72379303"><ele>541.9</ele><time>2012-07-24T19:13:34.0000000+00:00</time></trkpt><trkpt lat="63.93722534" lon="-18.72380447"><ele>541.6</ele><time>2012-07-24T19:13:39.0000000+00:00</time></trkpt><trkpt lat="63.93724823" lon="-18.72383118"><ele>539.6</ele><time>2012-07-24T19:13:44.0000000+00:00</time></trkpt><trkpt lat="63.93725205" lon="-18.72382355"><ele>539.1</ele><time>2012-07-24T19:13:49.0000000+00:00</time></trkpt><trkpt lat="63.93726349" lon="-18.72380638"><ele>538.7</ele><time>2012-07-24T19:13:54.0000000+00:00</time></trkpt><trkpt lat="63.93728256" lon="-18.72371864"><ele>538.9</ele><time>2012-07-24T19:13:59.0000000+00:00</time></trkpt><trkpt lat="63.93729782" lon="-18.72375298"><ele>538.6</ele><time>2012-07-24T19:14:04.0000000+00:00</time></trkpt><trkpt lat="63.93729782" lon="-18.72373581"><ele>538.7</ele><time>2012-07-24T19:14:09.0000000+00:00</time></trkpt><trkpt lat="63.93729782" lon="-18.7237339"><ele>538.6</ele><time>2012-07-24T19:14:14.0000000+00:00</time></trkpt><trkpt lat="63.93730927" lon="-18.72360611"><ele>538.9</ele><time>2012-07-24T19:14:19.0000000+00:00</time></trkpt><trkpt lat="63.93731308" lon="-18.72354126"><ele>539.3</ele><time>2012-07-24T19:14:24.0000000+00:00</time></trkpt><trkpt lat="63.93732834" lon="-18.72354317"><ele>538.2</ele><time>2012-07-24T19:14:29.0000000+00:00</time></trkpt><trkpt lat="63.93732834" lon="-18.72355652"><ele>538.2</ele><time>2012-07-24T19:14:34.0000000+00:00</time></trkpt><trkpt lat="63.93732834" lon="-18.72355652"><ele>538.1</ele><time>2012-07-24T19:14:39.0000000+00:00</time></trkpt><trkpt lat="63.93732834" lon="-18.72355461"><ele>538.1</ele><time>2012-07-24T19:14:44.0000000+00:00</time></trkpt><trkpt lat="63.93732834" lon="-18.72354889"><ele>538.1</ele><time>2012-07-24T19:14:49.0000000+00:00</time></trkpt><trkpt lat="63.93732834" lon="-18.72354889"><ele>538.1</ele><time>2012-07-24T19:14:54.0000000+00:00</time></trkpt><trkpt lat="63.93732834" lon="-18.72356033"><ele>538.4</ele><time>2012-07-24T19:14:59.0000000+00:00</time></trkpt><trkpt lat="63.93732834" lon="-18.72356033"><ele>538.5</ele><time>2012-07-24T19:15:04.0000000+00:00</time></trkpt><trkpt lat="63.93732452" lon="-18.72355652"><ele>538.5</ele><time>2012-07-24T19:15:09.0000000+00:00</time></trkpt><trkpt lat="63.93732834" lon="-18.72356033"><ele>538.5</ele><time>2012-07-24T19:15:14.0000000+00:00</time></trkpt><trkpt lat="63.93732452" lon="-18.72355843"><ele>538.4</ele><time>2012-07-24T19:15:19.0000000+00:00</time></trkpt><trkpt lat="63.93732834" lon="-18.72356033"><ele>538.4</ele><time>2012-07-24T19:15:24.0000000+00:00</time></trkpt><trkpt lat="63.93733597" lon="-18.7235508"><ele>538.5</ele><time>2012-07-24T19:15:29.0000000+00:00</time></trkpt><trkpt lat="63.93733215" lon="-18.72354507"><ele>538.8</ele><time>2012-07-24T19:15:34.0000000+00:00</time></trkpt><trkpt lat="63.93732834" lon="-18.72355652"><ele>538.9</ele><time>2012-07-24T19:15:39.0000000+00:00</time></trkpt><trkpt lat="63.93732071" lon="-18.72351837"><ele>538.5</ele><time>2012-07-24T19:15:44.0000000+00:00</time></trkpt><trkpt lat="63.93730927" lon="-18.72353745"><ele>539.5</ele><time>2012-07-24T19:15:49.0000000+00:00</time></trkpt><trkpt lat="63.93730545" lon="-18.72355652"><ele>539.3</ele><time>2012-07-24T19:15:54.0000000+00:00</time></trkpt><trkpt lat="63.93729782" lon="-18.72355843"><ele>539.5</ele><time>2012-07-24T19:15:59.0000000+00:00</time></trkpt><trkpt lat="63.93727112" lon="-18.72357559"><ele>539.4</ele><time>2012-07-24T19:16:04.0000000+00:00</time></trkpt><trkpt lat="63.93727112" lon="-18.72354126"><ele>539.6</ele><time>2012-07-24T19:16:09.0000000+00:00</time></trkpt><trkpt lat="63.93726349" lon="-18.7235508"><ele>539.1</ele><time>2012-07-24T19:16:14.0000000+00:00</time></trkpt><trkpt lat="63.9372673" lon="-18.72355461"><ele>539.2</ele><time>2012-07-24T19:16:19.0000000+00:00</time></trkpt><trkpt lat="63.93725205" lon="-18.72351265"><ele>539.7</ele><time>2012-07-24T19:16:24.0000000+00:00</time></trkpt><trkpt lat="63.93722534" lon="-18.72348213"><ele>540.1</ele><time>2012-07-24T19:16:29.0000000+00:00</time></trkpt><trkpt lat="63.93720245" lon="-18.72342682"><ele>540.8</ele><time>2012-07-24T19:16:34.0000000+00:00</time></trkpt><trkpt lat="63.93720245" lon="-18.72340393"><ele>541.1</ele><time>2012-07-24T19:16:39.0000000+00:00</time></trkpt><trkpt lat="63.93719101" lon="-18.7233963"><ele>541.0</ele><time>2012-07-24T19:16:44.0000000+00:00</time></trkpt><trkpt lat="63.9371872" lon="-18.7233963"><ele>541.1</ele><time>2012-07-24T19:16:49.0000000+00:00</time></trkpt><trkpt lat="63.9371872" lon="-18.7233963"><ele>541.1</ele><time>2012-07-24T19:16:54.0000000+00:00</time></trkpt><trkpt lat="63.9371872" lon="-18.72339249"><ele>541.2</ele><time>2012-07-24T19:16:59.0000000+00:00</time></trkpt><trkpt lat="63.93718338" lon="-18.72338295"><ele>541.2</ele><time>2012-07-24T19:17:04.0000000+00:00</time></trkpt><trkpt lat="63.93718338" lon="-18.72338104"><ele>541.3</ele><time>2012-07-24T19:17:09.0000000+00:00</time></trkpt><trkpt lat="63.93718338" lon="-18.72337532"><ele>541.1</ele><time>2012-07-24T19:17:14.0000000+00:00</time></trkpt><trkpt lat="63.93718338" lon="-18.72337532"><ele>541.0</ele><time>2012-07-24T19:17:19.0000000+00:00</time></trkpt><trkpt lat="63.93718338" lon="-18.72337532"><ele>541.0</ele><time>2012-07-24T19:17:24.0000000+00:00</time></trkpt><trkpt lat="63.93718338" lon="-18.72337532"><ele>541.0</ele><time>2012-07-24T19:17:29.0000000+00:00</time></trkpt><trkpt lat="63.93718338" lon="-18.72337532"><ele>541.0</ele><time>2012-07-24T19:17:34.0000000+00:00</time></trkpt><trkpt lat="63.93718338" lon="-18.72337532"><ele>540.9</ele><time>2012-07-24T19:17:39.0000000+00:00</time></trkpt><trkpt lat="63.93718338" lon="-18.72337532"><ele>540.9</ele><time>2012-07-24T19:17:44.0000000+00:00</time></trkpt><trkpt lat="63.93717957" lon="-18.72338486"><ele>541.3</ele><time>2012-07-24T19:17:49.0000000+00:00</time></trkpt><trkpt lat="63.93717957" lon="-18.72338677"><ele>542.5</ele><time>2012-07-24T19:17:54.0000000+00:00</time></trkpt><trkpt lat="63.93717957" lon="-18.72338295"><ele>542.6</ele><time>2012-07-24T19:17:59.0000000+00:00</time></trkpt><trkpt lat="63.93719864" lon="-18.72329903"><ele>542.8</ele><time>2012-07-24T19:18:04.0000000+00:00</time></trkpt><trkpt lat="63.93722153" lon="-18.7232132"><ele>543.0</ele><time>2012-07-24T19:18:09.0000000+00:00</time></trkpt><trkpt lat="63.93724823" lon="-18.72309113"><ele>542.7</ele><time>2012-07-24T19:18:14.0000000+00:00</time></trkpt><trkpt lat="63.93727112" lon="-18.72296524"><ele>542.4</ele><time>2012-07-24T19:18:19.0000000+00:00</time></trkpt><trkpt lat="63.93726349" lon="-18.72287178"><ele>542.3</ele><time>2012-07-24T19:18:24.0000000+00:00</time></trkpt><trkpt lat="63.93725967" lon="-18.72283745"><ele>542.4</ele><time>2012-07-24T19:18:29.0000000+00:00</time></trkpt><trkpt lat="63.9372673" lon="-18.72275925"><ele>542.1</ele><time>2012-07-24T19:18:34.0000000+00:00</time></trkpt><trkpt lat="63.93725967" lon="-18.72266197"><ele>541.1</ele><time>2012-07-24T19:18:39.0000000+00:00</time></trkpt><trkpt lat="63.93724823" lon="-18.72255516"><ele>541.2</ele><time>2012-07-24T19:18:44.0000000+00:00</time></trkpt><trkpt lat="63.93722916" lon="-18.72245026"><ele>540.5</ele><time>2012-07-24T19:18:49.0000000+00:00</time></trkpt><trkpt lat="63.9371872" lon="-18.72238922"><ele>540.7</ele><time>2012-07-24T19:18:54.0000000+00:00</time></trkpt><trkpt lat="63.93715668" lon="-18.72235107"><ele>541.1</ele><time>2012-07-24T19:18:59.0000000+00:00</time></trkpt><trkpt lat="63.93712235" lon="-18.72228432"><ele>542.7</ele><time>2012-07-24T19:19:04.0000000+00:00</time></trkpt><trkpt lat="63.93708801" lon="-18.72223091"><ele>543.3</ele><time>2012-07-24T19:19:09.0000000+00:00</time></trkpt><trkpt lat="63.93704987" lon="-18.7222023"><ele>544.6</ele><time>2012-07-24T19:19:14.0000000+00:00</time></trkpt><trkpt lat="63.93703461" lon="-18.72223473"><ele>545.0</ele><time>2012-07-24T19:19:19.0000000+00:00</time></trkpt><trkpt lat="63.93702316" lon="-18.722229"><ele>545.2</ele><time>2012-07-24T19:19:24.0000000+00:00</time></trkpt><trkpt lat="63.93701553" lon="-18.72216606"><ele>546.1</ele><time>2012-07-24T19:19:29.0000000+00:00</time></trkpt><trkpt lat="63.93699646" lon="-18.72204018"><ele>546.6</ele><time>2012-07-24T19:19:34.0000000+00:00</time></trkpt><trkpt lat="63.93693924" lon="-18.7219162"><ele>545.3</ele><time>2012-07-24T19:19:39.0000000+00:00</time></trkpt><trkpt lat="63.93690491" lon="-18.72180748"><ele>544.6</ele><time>2012-07-24T19:19:44.0000000+00:00</time></trkpt><trkpt lat="63.93691254" lon="-18.72170258"><ele>544.2</ele><time>2012-07-24T19:19:49.0000000+00:00</time></trkpt><trkpt lat="63.93689728" lon="-18.72154999"><ele>542.1</ele><time>2012-07-24T19:19:54.0000000+00:00</time></trkpt><trkpt lat="63.93689728" lon="-18.72145462"><ele>541.5</ele><time>2012-07-24T19:19:59.0000000+00:00</time></trkpt><trkpt lat="63.93689346" lon="-18.72136879"><ele>541.0</ele><time>2012-07-24T19:20:04.0000000+00:00</time></trkpt><trkpt lat="63.9368782" lon="-18.72128296"><ele>541.1</ele><time>2012-07-24T19:20:09.0000000+00:00</time></trkpt><trkpt lat="63.93686295" lon="-18.7212162"><ele>540.8</ele><time>2012-07-24T19:20:14.0000000+00:00</time></trkpt><trkpt lat="63.93687439" lon="-18.72112846"><ele>541.8</ele><time>2012-07-24T19:20:19.0000000+00:00</time></trkpt><trkpt lat="63.93689728" lon="-18.7210331"><ele>541.5</ele><time>2012-07-24T19:20:24.0000000+00:00</time></trkpt><trkpt lat="63.93688965" lon="-18.72096634"><ele>542.4</ele><time>2012-07-24T19:20:29.0000000+00:00</time></trkpt><trkpt lat="63.93689346" lon="-18.72090149"><ele>545.0</ele><time>2012-07-24T19:20:34.0000000+00:00</time></trkpt><trkpt lat="63.93688583" lon="-18.72087097"><ele>547.3</ele><time>2012-07-24T19:20:39.0000000+00:00</time></trkpt><trkpt lat="63.9368515" lon="-18.72083855"><ele>547.5</ele><time>2012-07-24T19:20:44.0000000+00:00</time></trkpt><trkpt lat="63.93683243" lon="-18.72083283"><ele>548.6</ele><time>2012-07-24T19:20:49.0000000+00:00</time></trkpt><trkpt lat="63.9368248" lon="-18.72083283"><ele>549.1</ele><time>2012-07-24T19:20:54.0000000+00:00</time></trkpt><trkpt lat="63.9368248" lon="-18.72083283"><ele>549.5</ele><time>2012-07-24T19:20:59.0000000+00:00</time></trkpt><trkpt lat="63.9368248" lon="-18.72083283"><ele>549.5</ele><time>2012-07-24T19:21:04.0000000+00:00</time></trkpt><trkpt lat="63.9368248" lon="-18.72083283"><ele>549.5</ele><time>2012-07-24T19:21:09.0000000+00:00</time></trkpt><trkpt lat="63.9368248" lon="-18.72083283"><ele>549.5</ele><time>2012-07-24T19:21:14.0000000+00:00</time></trkpt><trkpt lat="63.9368248" lon="-18.72083283"><ele>549.5</ele><time>2012-07-24T19:21:19.0000000+00:00</time></trkpt><trkpt lat="63.93682098" lon="-18.72083092"><ele>549.6</ele><time>2012-07-24T19:21:24.0000000+00:00</time></trkpt><trkpt lat="63.93682098" lon="-18.72083092"><ele>549.6</ele><time>2012-07-24T19:21:29.0000000+00:00</time></trkpt><trkpt lat="63.93682098" lon="-18.72083092"><ele>549.6</ele><time>2012-07-24T19:21:34.0000000+00:00</time></trkpt><trkpt lat="63.93682098" lon="-18.72083092"><ele>549.5</ele><time>2012-07-24T19:21:39.0000000+00:00</time></trkpt><trkpt lat="63.93682098" lon="-18.72082901"><ele>549.6</ele><time>2012-07-24T19:21:44.0000000+00:00</time></trkpt><trkpt lat="63.93682098" lon="-18.72082901"><ele>549.6</ele><time>2012-07-24T19:21:49.0000000+00:00</time></trkpt><trkpt lat="63.93681717" lon="-18.7208252"><ele>549.6</ele><time>2012-07-24T19:21:54.0000000+00:00</time></trkpt><trkpt lat="63.93681335" lon="-18.72082329"><ele>549.7</ele><time>2012-07-24T19:21:59.0000000+00:00</time></trkpt><trkpt lat="63.93680954" lon="-18.72081757"><ele>550.0</ele><time>2012-07-24T19:22:04.0000000+00:00</time></trkpt><trkpt lat="63.93680954" lon="-18.72082138"><ele>550.5</ele><time>2012-07-24T19:22:09.0000000+00:00</time></trkpt><trkpt lat="63.93680954" lon="-18.72082901"><ele>551.0</ele><time>2012-07-24T19:22:14.0000000+00:00</time></trkpt><trkpt lat="63.93680954" lon="-18.72083473"><ele>551.6</ele><time>2012-07-24T19:22:19.0000000+00:00</time></trkpt><trkpt lat="63.93679428" lon="-18.72082901"><ele>551.9</ele><time>2012-07-24T19:22:24.0000000+00:00</time></trkpt><trkpt lat="63.93674469" lon="-18.72084236"><ele>551.3</ele><time>2012-07-24T19:22:29.0000000+00:00</time></trkpt><trkpt lat="63.93670273" lon="-18.72086716"><ele>550.8</ele><time>2012-07-24T19:22:34.0000000+00:00</time></trkpt><trkpt lat="63.93666077" lon="-18.72090721"><ele>552.2</ele><time>2012-07-24T19:22:39.0000000+00:00</time></trkpt><trkpt lat="63.93662262" lon="-18.72095108"><ele>552.8</ele><time>2012-07-24T19:22:44.0000000+00:00</time></trkpt><trkpt lat="63.93661499" lon="-18.72093582"><ele>552.5</ele><time>2012-07-24T19:22:49.0000000+00:00</time></trkpt><trkpt lat="63.93661499" lon="-18.72094154"><ele>552.6</ele><time>2012-07-24T19:22:54.0000000+00:00</time></trkpt><trkpt lat="63.93661118" lon="-18.72094154"><ele>552.6</ele><time>2012-07-24T19:22:59.0000000+00:00</time></trkpt><trkpt lat="63.93656921" lon="-18.7209816"><ele>551.4</ele><time>2012-07-24T19:23:04.0000000+00:00</time></trkpt><trkpt lat="63.93654251" lon="-18.72102737"><ele>549.6</ele><time>2012-07-24T19:23:09.0000000+00:00</time></trkpt><trkpt lat="63.93651962" lon="-18.72105789"><ele>548.8</ele><time>2012-07-24T19:23:14.0000000+00:00</time></trkpt><trkpt lat="63.93649674" lon="-18.72109222"><ele>548.2</ele><time>2012-07-24T19:23:19.0000000+00:00</time></trkpt><trkpt lat="63.93646622" lon="-18.72113419"><ele>547.7</ele><time>2012-07-24T19:23:24.0000000+00:00</time></trkpt><trkpt lat="63.93645096" lon="-18.72116852"><ele>548.1</ele><time>2012-07-24T19:23:29.0000000+00:00</time></trkpt><trkpt lat="63.93644333" lon="-18.72117424"><ele>548.2</ele><time>2012-07-24T19:23:34.0000000+00:00</time></trkpt><trkpt lat="63.93643951" lon="-18.72123337"><ele>548.9</ele><time>2012-07-24T19:23:39.0000000+00:00</time></trkpt><trkpt lat="63.93643951" lon="-18.72129822"><ele>549.3</ele><time>2012-07-24T19:23:44.0000000+00:00</time></trkpt><trkpt lat="63.9364357" lon="-18.72130203"><ele>549.4</ele><time>2012-07-24T19:23:49.0000000+00:00</time></trkpt><trkpt lat="63.93641663" lon="-18.72134399"><ele>550.3</ele><time>2012-07-24T19:23:54.0000000+00:00</time></trkpt><trkpt lat="63.93641281" lon="-18.7213707"><ele>550.4</ele><time>2012-07-24T19:23:59.0000000+00:00</time></trkpt><trkpt lat="63.936409" lon="-18.72142792"><ele>550.6</ele><time>2012-07-24T19:24:04.0000000+00:00</time></trkpt><trkpt lat="63.93640518" lon="-18.72150421"><ele>551.3</ele><time>2012-07-24T19:24:09.0000000+00:00</time></trkpt><trkpt lat="63.93640518" lon="-18.72158241"><ele>552.3</ele><time>2012-07-24T19:24:14.0000000+00:00</time></trkpt><trkpt lat="63.93639374" lon="-18.72166634"><ele>552.6</ele><time>2012-07-24T19:24:19.0000000+00:00</time></trkpt><trkpt lat="63.93637848" lon="-18.72170067"><ele>552.5</ele><time>2012-07-24T19:24:24.0000000+00:00</time></trkpt><trkpt lat="63.93636322" lon="-18.72174454"><ele>552.2</ele><time>2012-07-24T19:24:29.0000000+00:00</time></trkpt><trkpt lat="63.93637466" lon="-18.72179794"><ele>553.1</ele><time>2012-07-24T19:24:34.0000000+00:00</time></trkpt><trkpt lat="63.93637085" lon="-18.72185707"><ele>553.4</ele><time>2012-07-24T19:24:39.0000000+00:00</time></trkpt><trkpt lat="63.93635941" lon="-18.72183418"><ele>553.6</ele><time>2012-07-24T19:24:44.0000000+00:00</time></trkpt><trkpt lat="63.93635559" lon="-18.72183418"><ele>553.7</ele><time>2012-07-24T19:24:49.0000000+00:00</time></trkpt><trkpt lat="63.93634796" lon="-18.72182465"><ele>553.8</ele><time>2012-07-24T19:24:54.0000000+00:00</time></trkpt><trkpt lat="63.93634415" lon="-18.7218132"><ele>553.8</ele><time>2012-07-24T19:24:59.0000000+00:00</time></trkpt><trkpt lat="63.93634796" lon="-18.72180939"><ele>553.8</ele><time>2012-07-24T19:25:04.0000000+00:00</time></trkpt><trkpt lat="63.93634796" lon="-18.7218113"><ele>553.7</ele><time>2012-07-24T19:25:09.0000000+00:00</time></trkpt><trkpt lat="63.93634796" lon="-18.7218113"><ele>553.7</ele><time>2012-07-24T19:25:14.0000000+00:00</time></trkpt><trkpt lat="63.93634796" lon="-18.7218113"><ele>553.7</ele><time>2012-07-24T19:25:19.0000000+00:00</time></trkpt><trkpt lat="63.93634796" lon="-18.72180939"><ele>553.7</ele><time>2012-07-24T19:25:24.0000000+00:00</time></trkpt><trkpt lat="63.93634796" lon="-18.72180939"><ele>553.7</ele><time>2012-07-24T19:25:29.0000000+00:00</time></trkpt><trkpt lat="63.93634415" lon="-18.72182655"><ele>553.7</ele><time>2012-07-24T19:25:34.0000000+00:00</time></trkpt><trkpt lat="63.93632889" lon="-18.72190857"><ele>554.1</ele><time>2012-07-24T19:25:39.0000000+00:00</time></trkpt><trkpt lat="63.93631744" lon="-18.72198677"><ele>554.6</ele><time>2012-07-24T19:25:44.0000000+00:00</time></trkpt><trkpt lat="63.93629837" lon="-18.72205162"><ele>554.9</ele><time>2012-07-24T19:25:49.0000000+00:00</time></trkpt><trkpt lat="63.93628693" lon="-18.7221241"><ele>555.1</ele><time>2012-07-24T19:25:54.0000000+00:00</time></trkpt><trkpt lat="63.93629837" lon="-18.72221375"><ele>556.6</ele><time>2012-07-24T19:25:59.0000000+00:00</time></trkpt><trkpt lat="63.93630219" lon="-18.72229385"><ele>557.7</ele><time>2012-07-24T19:26:04.0000000+00:00</time></trkpt><trkpt lat="63.93631744" lon="-18.72232246"><ele>558.7</ele><time>2012-07-24T19:26:09.0000000+00:00</time></trkpt><trkpt lat="63.93632507" lon="-18.72234535"><ele>558.9</ele><time>2012-07-24T19:26:14.0000000+00:00</time></trkpt><trkpt lat="63.93634033" lon="-18.7224083"><ele>559.0</ele><time>2012-07-24T19:26:19.0000000+00:00</time></trkpt><trkpt lat="63.93635941" lon="-18.72247124"><ele>559.5</ele><time>2012-07-24T19:26:24.0000000+00:00</time></trkpt><trkpt lat="63.93635178" lon="-18.72250748"><ele>559.9</ele><time>2012-07-24T19:26:29.0000000+00:00</time></trkpt><trkpt lat="63.93637085" lon="-18.72258568"><ele>561.2</ele><time>2012-07-24T19:26:34.0000000+00:00</time></trkpt><trkpt lat="63.93636704" lon="-18.72257996"><ele>561.3</ele><time>2012-07-24T19:26:39.0000000+00:00</time></trkpt><trkpt lat="63.93637466" lon="-18.72266197"><ele>562.5</ele><time>2012-07-24T19:26:44.0000000+00:00</time></trkpt><trkpt lat="63.93638611" lon="-18.72274399"><ele>562.9</ele><time>2012-07-24T19:26:49.0000000+00:00</time></trkpt><trkpt lat="63.93640137" lon="-18.72279739"><ele>563.3</ele><time>2012-07-24T19:26:54.0000000+00:00</time></trkpt><trkpt lat="63.936409" lon="-18.72289276"><ele>563.9</ele><time>2012-07-24T19:26:59.0000000+00:00</time></trkpt><trkpt lat="63.936409" lon="-18.72290039"><ele>563.8</ele><time>2012-07-24T19:27:04.0000000+00:00</time></trkpt><trkpt lat="63.936409" lon="-18.72294235"><ele>564.1</ele><time>2012-07-24T19:27:09.0000000+00:00</time></trkpt><trkpt lat="63.93642807" lon="-18.72301483"><ele>564.2</ele><time>2012-07-24T19:27:14.0000000+00:00</time></trkpt><trkpt lat="63.93643951" lon="-18.72303009"><ele>564.7</ele><time>2012-07-24T19:27:19.0000000+00:00</time></trkpt><trkpt lat="63.93645096" lon="-18.72310829"><ele>565.8</ele><time>2012-07-24T19:27:24.0000000+00:00</time></trkpt><trkpt lat="63.93645096" lon="-18.72318077"><ele>567.5</ele><time>2012-07-24T19:27:29.0000000+00:00</time></trkpt><trkpt lat="63.9364624" lon="-18.72324562"><ele>567.9</ele><time>2012-07-24T19:27:34.0000000+00:00</time></trkpt><trkpt lat="63.93646622" lon="-18.72336006"><ele>569.8</ele><time>2012-07-24T19:27:39.0000000+00:00</time></trkpt><trkpt lat="63.93647003" lon="-18.72345352"><ele>571.7</ele><time>2012-07-24T19:27:44.0000000+00:00</time></trkpt><trkpt lat="63.93647003" lon="-18.72354126"><ele>572.8</ele><time>2012-07-24T19:27:49.0000000+00:00</time></trkpt><trkpt lat="63.93647385" lon="-18.7236042"><ele>574.2</ele><time>2012-07-24T19:27:54.0000000+00:00</time></trkpt><trkpt lat="63.93645859" lon="-18.72368431"><ele>575.5</ele><time>2012-07-24T19:27:59.0000000+00:00</time></trkpt><trkpt lat="63.93644714" lon="-18.72379494"><ele>576.7</ele><time>2012-07-24T19:28:04.0000000+00:00</time></trkpt><trkpt lat="63.93642807" lon="-18.72389603"><ele>577.4</ele><time>2012-07-24T19:28:09.0000000+00:00</time></trkpt><trkpt lat="63.93642807" lon="-18.72389984"><ele>577.0</ele><time>2012-07-24T19:28:14.0000000+00:00</time></trkpt><trkpt lat="63.93642807" lon="-18.72390175"><ele>577.1</ele><time>2012-07-24T19:28:19.0000000+00:00</time></trkpt><trkpt lat="63.93642807" lon="-18.72390175"><ele>577.1</ele><time>2012-07-24T19:28:24.0000000+00:00</time></trkpt><trkpt lat="63.93642807" lon="-18.72390175"><ele>577.1</ele><time>2012-07-24T19:28:29.0000000+00:00</time></trkpt><trkpt lat="63.93642807" lon="-18.72390175"><ele>577.2</ele><time>2012-07-24T19:28:34.0000000+00:00</time></trkpt><trkpt lat="63.93642807" lon="-18.72390366"><ele>577.2</ele><time>2012-07-24T19:28:39.0000000+00:00</time></trkpt><trkpt lat="63.93642426" lon="-18.72390938"><ele>577.1</ele><time>2012-07-24T19:28:44.0000000+00:00</time></trkpt><trkpt lat="63.93642426" lon="-18.7239151"><ele>577.2</ele><time>2012-07-24T19:28:49.0000000+00:00</time></trkpt><trkpt lat="63.93642426" lon="-18.7239151"><ele>577.2</ele><time>2012-07-24T19:28:54.0000000+00:00</time></trkpt><trkpt lat="63.93641663" lon="-18.7239399"><ele>577.1</ele><time>2012-07-24T19:28:59.0000000+00:00</time></trkpt><trkpt lat="63.93639755" lon="-18.72400856"><ele>576.7</ele><time>2012-07-24T19:29:04.0000000+00:00</time></trkpt><trkpt lat="63.93637848" lon="-18.72407723"><ele>575.9</ele><time>2012-07-24T19:29:09.0000000+00:00</time></trkpt><trkpt lat="63.93635178" lon="-18.7241497"><ele>574.8</ele><time>2012-07-24T19:29:14.0000000+00:00</time></trkpt><trkpt lat="63.93632507" lon="-18.72421837"><ele>574.2</ele><time>2012-07-24T19:29:19.0000000+00:00</time></trkpt><trkpt lat="63.93629074" lon="-18.72428322"><ele>574.5</ele><time>2012-07-24T19:29:24.0000000+00:00</time></trkpt><trkpt lat="63.93625641" lon="-18.7243042"><ele>574.6</ele><time>2012-07-24T19:29:29.0000000+00:00</time></trkpt><trkpt lat="63.93623352" lon="-18.72437096"><ele>575.3</ele><time>2012-07-24T19:29:34.0000000+00:00</time></trkpt><trkpt lat="63.93619919" lon="-18.72445869"><ele>575.5</ele><time>2012-07-24T19:29:39.0000000+00:00</time></trkpt><trkpt lat="63.93618393" lon="-18.72449112"><ele>575.7</ele><time>2012-07-24T19:29:44.0000000+00:00</time></trkpt><trkpt lat="63.93618393" lon="-18.72449303"><ele>575.8</ele><time>2012-07-24T19:29:49.0000000+00:00</time></trkpt><trkpt lat="63.93616867" lon="-18.72453499"><ele>576.8</ele><time>2012-07-24T19:29:54.0000000+00:00</time></trkpt><trkpt lat="63.9361496" lon="-18.72458458"><ele>578.1</ele><time>2012-07-24T19:29:59.0000000+00:00</time></trkpt><trkpt lat="63.93612289" lon="-18.72464943"><ele>578.7</ele><time>2012-07-24T19:30:04.0000000+00:00</time></trkpt><trkpt lat="63.93608475" lon="-18.72470474"><ele>579.7</ele><time>2012-07-24T19:30:09.0000000+00:00</time></trkpt><trkpt lat="63.93607712" lon="-18.72472191"><ele>580.2</ele><time>2012-07-24T19:30:14.0000000+00:00</time></trkpt><trkpt lat="63.93607712" lon="-18.72472191"><ele>579.6</ele><time>2012-07-24T19:30:19.0000000+00:00</time></trkpt><trkpt lat="63.93608475" lon="-18.72472572"><ele>580.2</ele><time>2012-07-24T19:30:24.0000000+00:00</time></trkpt><trkpt lat="63.93608475" lon="-18.72472382"><ele>580.7</ele><time>2012-07-24T19:30:29.0000000+00:00</time></trkpt><trkpt lat="63.93608856" lon="-18.72472382"><ele>581.0</ele><time>2012-07-24T19:30:34.0000000+00:00</time></trkpt><trkpt lat="63.93608856" lon="-18.72472382"><ele>581.0</ele><time>2012-07-24T19:30:39.0000000+00:00</time></trkpt><trkpt lat="63.93608856" lon="-18.72472382"><ele>580.9</ele><time>2012-07-24T19:30:44.0000000+00:00</time></trkpt><trkpt lat="63.93608856" lon="-18.72472191"><ele>580.9</ele><time>2012-07-24T19:30:49.0000000+00:00</time></trkpt><trkpt lat="63.93608856" lon="-18.72472191"><ele>580.9</ele><time>2012-07-24T19:30:54.0000000+00:00</time></trkpt><trkpt lat="63.93608856" lon="-18.72472191"><ele>580.9</ele><time>2012-07-24T19:30:59.0000000+00:00</time></trkpt><trkpt lat="63.93608475" lon="-18.72472"><ele>580.8</ele><time>2012-07-24T19:31:04.0000000+00:00</time></trkpt><trkpt lat="63.93608093" lon="-18.72470856"><ele>580.7</ele><time>2012-07-24T19:31:09.0000000+00:00</time></trkpt><trkpt lat="63.93608093" lon="-18.72470093"><ele>580.6</ele><time>2012-07-24T19:31:14.0000000+00:00</time></trkpt><trkpt lat="63.93608093" lon="-18.72469521"><ele>580.6</ele><time>2012-07-24T19:31:19.0000000+00:00</time></trkpt><trkpt lat="63.93606567" lon="-18.72472"><ele>580.5</ele><time>2012-07-24T19:31:24.0000000+00:00</time></trkpt><trkpt lat="63.93603134" lon="-18.72480774"><ele>580.2</ele><time>2012-07-24T19:31:29.0000000+00:00</time></trkpt><trkpt lat="63.93601227" lon="-18.72492027"><ele>580.7</ele><time>2012-07-24T19:31:34.0000000+00:00</time></trkpt><trkpt lat="63.93600082" lon="-18.72504234"><ele>581.8</ele><time>2012-07-24T19:31:39.0000000+00:00</time></trkpt><trkpt lat="63.93597794" lon="-18.72516441"><ele>582.6</ele><time>2012-07-24T19:31:44.0000000+00:00</time></trkpt><trkpt lat="63.93597031" lon="-18.7252636"><ele>584.6</ele><time>2012-07-24T19:31:49.0000000+00:00</time></trkpt><trkpt lat="63.9359436" lon="-18.72537231"><ele>587.0</ele><time>2012-07-24T19:31:54.0000000+00:00</time></trkpt><trkpt lat="63.93591309" lon="-18.72545242"><ele>588.8</ele><time>2012-07-24T19:31:59.0000000+00:00</time></trkpt><trkpt lat="63.93591309" lon="-18.72549439"><ele>590.4</ele><time>2012-07-24T19:32:04.0000000+00:00</time></trkpt><trkpt lat="63.9358902" lon="-18.72555351"><ele>591.5</ele><time>2012-07-24T19:32:09.0000000+00:00</time></trkpt><trkpt lat="63.9358635" lon="-18.72560883"><ele>592.5</ele><time>2012-07-24T19:32:14.0000000+00:00</time></trkpt><trkpt lat="63.93583679" lon="-18.72562981"><ele>594.2</ele><time>2012-07-24T19:32:19.0000000+00:00</time></trkpt><trkpt lat="63.9358139" lon="-18.72570229"><ele>595.1</ele><time>2012-07-24T19:32:24.0000000+00:00</time></trkpt><trkpt lat="63.93579483" lon="-18.72570229"><ele>594.4</ele><time>2012-07-24T19:32:29.0000000+00:00</time></trkpt><trkpt lat="63.93576813" lon="-18.72569466"><ele>594.7</ele><time>2012-07-24T19:32:34.0000000+00:00</time></trkpt><trkpt lat="63.93577194" lon="-18.72571755"><ele>594.4</ele><time>2012-07-24T19:32:39.0000000+00:00</time></trkpt><trkpt lat="63.9357605" lon="-18.72571945"><ele>593.2</ele><time>2012-07-24T19:32:44.0000000+00:00</time></trkpt><trkpt lat="63.93572617" lon="-18.72578812"><ele>593.4</ele><time>2012-07-24T19:32:49.0000000+00:00</time></trkpt><trkpt lat="63.93569946" lon="-18.72583199"><ele>592.8</ele><time>2012-07-24T19:32:54.0000000+00:00</time></trkpt><trkpt lat="63.93565369" lon="-18.72584724"><ele>592.0</ele><time>2012-07-24T19:32:59.0000000+00:00</time></trkpt><trkpt lat="63.93563461" lon="-18.7258625"><ele>592.0</ele><time>2012-07-24T19:33:04.0000000+00:00</time></trkpt><trkpt lat="63.93562698" lon="-18.72586823"><ele>591.9</ele><time>2012-07-24T19:33:09.0000000+00:00</time></trkpt><trkpt lat="63.93562317" lon="-18.7258606"><ele>591.6</ele><time>2012-07-24T19:33:14.0000000+00:00</time></trkpt><trkpt lat="63.93560791" lon="-18.72589493"><ele>591.9</ele><time>2012-07-24T19:33:19.0000000+00:00</time></trkpt><trkpt lat="63.93559265" lon="-18.72594261"><ele>592.6</ele><time>2012-07-24T19:33:24.0000000+00:00</time></trkpt><trkpt lat="63.93556595" lon="-18.72600555"><ele>594.6</ele><time>2012-07-24T19:33:29.0000000+00:00</time></trkpt><trkpt lat="63.93554306" lon="-18.72604942"><ele>594.9</ele><time>2012-07-24T19:33:34.0000000+00:00</time></trkpt><trkpt lat="63.93554688" lon="-18.72604752"><ele>595.3</ele><time>2012-07-24T19:33:39.0000000+00:00</time></trkpt><trkpt lat="63.93554306" lon="-18.72604752"><ele>595.4</ele><time>2012-07-24T19:33:44.0000000+00:00</time></trkpt><trkpt lat="63.93554306" lon="-18.72604942"><ele>595.4</ele><time>2012-07-24T19:33:49.0000000+00:00</time></trkpt><trkpt lat="63.93554306" lon="-18.72604942"><ele>595.4</ele><time>2012-07-24T19:33:54.0000000+00:00</time></trkpt><trkpt lat="63.93554306" lon="-18.72604942"><ele>595.4</ele><time>2012-07-24T19:33:59.0000000+00:00</time></trkpt><trkpt lat="63.93554306" lon="-18.72604942"><ele>595.4</ele><time>2012-07-24T19:34:04.0000000+00:00</time></trkpt><trkpt lat="63.93554306" lon="-18.72604942"><ele>595.4</ele><time>2012-07-24T19:34:09.0000000+00:00</time></trkpt><trkpt lat="63.93554306" lon="-18.72604942"><ele>595.4</ele><time>2012-07-24T19:34:14.0000000+00:00</time></trkpt><trkpt lat="63.93553543" lon="-18.7260704"><ele>595.5</ele><time>2012-07-24T19:34:19.0000000+00:00</time></trkpt><trkpt lat="63.93550873" lon="-18.72615624"><ele>594.9</ele><time>2012-07-24T19:34:24.0000000+00:00</time></trkpt><trkpt lat="63.93549347" lon="-18.72623444"><ele>595.7</ele><time>2012-07-24T19:34:29.0000000+00:00</time></trkpt><trkpt lat="63.93548203" lon="-18.72631645"><ele>597.9</ele><time>2012-07-24T19:34:34.0000000+00:00</time></trkpt><trkpt lat="63.93545914" lon="-18.72639465"><ele>598.5</ele><time>2012-07-24T19:34:39.0000000+00:00</time></trkpt><trkpt lat="63.93544006" lon="-18.72644615"><ele>599.4</ele><time>2012-07-24T19:34:44.0000000+00:00</time></trkpt><trkpt lat="63.93544006" lon="-18.72656441"><ele>601.0</ele><time>2012-07-24T19:34:49.0000000+00:00</time></trkpt><trkpt lat="63.93542481" lon="-18.72664452"><ele>601.4</ele><time>2012-07-24T19:34:54.0000000+00:00</time></trkpt><trkpt lat="63.93542099" lon="-18.72678947"><ele>603.2</ele><time>2012-07-24T19:34:59.0000000+00:00</time></trkpt><trkpt lat="63.93540955" lon="-18.7268486"><ele>602.9</ele><time>2012-07-24T19:35:04.0000000+00:00</time></trkpt><trkpt lat="63.93540573" lon="-18.72681236"><ele>601.6</ele><time>2012-07-24T19:35:09.0000000+00:00</time></trkpt><trkpt lat="63.93539429" lon="-18.72687149"><ele>601.1</ele><time>2012-07-24T19:35:14.0000000+00:00</time></trkpt><trkpt lat="63.93538284" lon="-18.72698021"><ele>600.3</ele><time>2012-07-24T19:35:19.0000000+00:00</time></trkpt><trkpt lat="63.93535996" lon="-18.7270298"><ele>600.3</ele><time>2012-07-24T19:35:24.0000000+00:00</time></trkpt><trkpt lat="63.93532562" lon="-18.72703934"><ele>599.7</ele><time>2012-07-24T19:35:29.0000000+00:00</time></trkpt><trkpt lat="63.93528366" lon="-18.72705841"><ele>599.9</ele><time>2012-07-24T19:35:34.0000000+00:00</time></trkpt><trkpt lat="63.93523789" lon="-18.72709465"><ele>599.9</ele><time>2012-07-24T19:35:39.0000000+00:00</time></trkpt><trkpt lat="63.93519974" lon="-18.72708511"><ele>599.9</ele><time>2012-07-24T19:35:44.0000000+00:00</time></trkpt><trkpt lat="63.93516922" lon="-18.72717476"><ele>599.5</ele><time>2012-07-24T19:35:49.0000000+00:00</time></trkpt><trkpt lat="63.93514633" lon="-18.72725105"><ele>598.6</ele><time>2012-07-24T19:35:54.0000000+00:00</time></trkpt><trkpt lat="63.93511581" lon="-18.72728348"><ele>599.2</ele><time>2012-07-24T19:35:59.0000000+00:00</time></trkpt><trkpt lat="63.9350853" lon="-18.72729302"><ele>599.4</ele><time>2012-07-24T19:36:04.0000000+00:00</time></trkpt><trkpt lat="63.93504715" lon="-18.72732353"><ele>599.2</ele><time>2012-07-24T19:36:09.0000000+00:00</time></trkpt><trkpt lat="63.93501282" lon="-18.7273407"><ele>599.9</ele><time>2012-07-24T19:36:14.0000000+00:00</time></trkpt><trkpt lat="63.93497849" lon="-18.72740936"><ele>599.3</ele><time>2012-07-24T19:36:19.0000000+00:00</time></trkpt><trkpt lat="63.93494415" lon="-18.72745132"><ele>598.8</ele><time>2012-07-24T19:36:24.0000000+00:00</time></trkpt><trkpt lat="63.93490601" lon="-18.72750664"><ele>599.1</ele><time>2012-07-24T19:36:29.0000000+00:00</time></trkpt><trkpt lat="63.93487549" lon="-18.72755814"><ele>600.2</ele><time>2012-07-24T19:36:34.0000000+00:00</time></trkpt><trkpt lat="63.93484879" lon="-18.72762108"><ele>600.6</ele><time>2012-07-24T19:36:39.0000000+00:00</time></trkpt><trkpt lat="63.93481445" lon="-18.72768593"><ele>601.3</ele><time>2012-07-24T19:36:44.0000000+00:00</time></trkpt><trkpt lat="63.93479538" lon="-18.72774506"><ele>601.9</ele><time>2012-07-24T19:36:49.0000000+00:00</time></trkpt><trkpt lat="63.93476868" lon="-18.72781563"><ele>603.0</ele><time>2012-07-24T19:36:54.0000000+00:00</time></trkpt><trkpt lat="63.93474579" lon="-18.72786331"><ele>603.5</ele><time>2012-07-24T19:36:59.0000000+00:00</time></trkpt><trkpt lat="63.93472672" lon="-18.72793961"><ele>605.4</ele><time>2012-07-24T19:37:04.0000000+00:00</time></trkpt><trkpt lat="63.93470383" lon="-18.72799873"><ele>606.6</ele><time>2012-07-24T19:37:09.0000000+00:00</time></trkpt><trkpt lat="63.93467712" lon="-18.7281189"><ele>606.7</ele><time>2012-07-24T19:37:14.0000000+00:00</time></trkpt><trkpt lat="63.93467331" lon="-18.72814369"><ele>606.2</ele><time>2012-07-24T19:37:19.0000000+00:00</time></trkpt><trkpt lat="63.93467331" lon="-18.72815323"><ele>606.2</ele><time>2012-07-24T19:37:24.0000000+00:00</time></trkpt><trkpt lat="63.93467331" lon="-18.72815514"><ele>606.3</ele><time>2012-07-24T19:37:29.0000000+00:00</time></trkpt><trkpt lat="63.93467331" lon="-18.72815514"><ele>606.3</ele><time>2012-07-24T19:37:34.0000000+00:00</time></trkpt><trkpt lat="63.93467331" lon="-18.72815514"><ele>606.3</ele><time>2012-07-24T19:37:39.0000000+00:00</time></trkpt><trkpt lat="63.93467331" lon="-18.72815704"><ele>606.3</ele><time>2012-07-24T19:37:44.0000000+00:00</time></trkpt><trkpt lat="63.93467331" lon="-18.72815704"><ele>606.4</ele><time>2012-07-24T19:37:49.0000000+00:00</time></trkpt><trkpt lat="63.93467331" lon="-18.72815704"><ele>606.4</ele><time>2012-07-24T19:37:54.0000000+00:00</time></trkpt><trkpt lat="63.93467331" lon="-18.72815704"><ele>606.3</ele><time>2012-07-24T19:37:59.0000000+00:00</time></trkpt><trkpt lat="63.93467331" lon="-18.72815895"><ele>606.3</ele><time>2012-07-24T19:38:04.0000000+00:00</time></trkpt><trkpt lat="63.93467331" lon="-18.72815895"><ele>606.3</ele><time>2012-07-24T19:38:09.0000000+00:00</time></trkpt><trkpt lat="63.93467331" lon="-18.72815895"><ele>606.3</ele><time>2012-07-24T19:38:14.0000000+00:00</time></trkpt><trkpt lat="63.93467331" lon="-18.72815895"><ele>606.4</ele><time>2012-07-24T19:38:19.0000000+00:00</time></trkpt><trkpt lat="63.93467331" lon="-18.72816277"><ele>606.9</ele><time>2012-07-24T19:38:24.0000000+00:00</time></trkpt><trkpt lat="63.93467331" lon="-18.72816277"><ele>607.3</ele><time>2012-07-24T19:38:29.0000000+00:00</time></trkpt><trkpt lat="63.93467331" lon="-18.72816277"><ele>607.3</ele><time>2012-07-24T19:38:34.0000000+00:00</time></trkpt><trkpt lat="63.93467331" lon="-18.72816277"><ele>607.3</ele><time>2012-07-24T19:38:39.0000000+00:00</time></trkpt><trkpt lat="63.93467331" lon="-18.72816277"><ele>607.3</ele><time>2012-07-24T19:38:44.0000000+00:00</time></trkpt><trkpt lat="63.93467331" lon="-18.72816086"><ele>607.3</ele><time>2012-07-24T19:38:49.0000000+00:00</time></trkpt><trkpt lat="63.93467331" lon="-18.72816086"><ele>607.3</ele><time>2012-07-24T19:38:54.0000000+00:00</time></trkpt><trkpt lat="63.93467331" lon="-18.72816277"><ele>607.3</ele><time>2012-07-24T19:38:59.0000000+00:00</time></trkpt><trkpt lat="63.93467331" lon="-18.72816277"><ele>607.3</ele><time>2012-07-24T19:39:04.0000000+00:00</time></trkpt><trkpt lat="63.93467331" lon="-18.72816467"><ele>607.3</ele><time>2012-07-24T19:39:09.0000000+00:00</time></trkpt><trkpt lat="63.93467331" lon="-18.72816277"><ele>607.3</ele><time>2012-07-24T19:39:14.0000000+00:00</time></trkpt><trkpt lat="63.93467331" lon="-18.72816467"><ele>607.3</ele><time>2012-07-24T19:39:19.0000000+00:00</time></trkpt><trkpt lat="63.93467331" lon="-18.72816467"><ele>607.3</ele><time>2012-07-24T19:39:24.0000000+00:00</time></trkpt><trkpt lat="63.93467331" lon="-18.72816467"><ele>607.3</ele><time>2012-07-24T19:39:29.0000000+00:00</time></trkpt><trkpt lat="63.93467331" lon="-18.72816467"><ele>607.3</ele><time>2012-07-24T19:39:34.0000000+00:00</time></trkpt><trkpt lat="63.93467331" lon="-18.72816467"><ele>607.3</ele><time>2012-07-24T19:39:39.0000000+00:00</time></trkpt><trkpt lat="63.93467331" lon="-18.72816467"><ele>607.3</ele><time>2012-07-24T19:39:44.0000000+00:00</time></trkpt><trkpt lat="63.93467331" lon="-18.72816467"><ele>607.3</ele><time>2012-07-24T19:39:49.0000000+00:00</time></trkpt><trkpt lat="63.93467331" lon="-18.72816467"><ele>607.3</ele><time>2012-07-24T19:39:54.0000000+00:00</time></trkpt><trkpt lat="63.93467331" lon="-18.72816467"><ele>607.3</ele><time>2012-07-24T19:39:59.0000000+00:00</time></trkpt><trkpt lat="63.93467331" lon="-18.72816467"><ele>607.2</ele><time>2012-07-24T19:40:04.0000000+00:00</time></trkpt><trkpt lat="63.93467331" lon="-18.72816467"><ele>607.2</ele><time>2012-07-24T19:40:09.0000000+00:00</time></trkpt><trkpt lat="63.93467331" lon="-18.72816467"><ele>607.2</ele><time>2012-07-24T19:40:14.0000000+00:00</time></trkpt><trkpt lat="63.93467331" lon="-18.72816467"><ele>607.2</ele><time>2012-07-24T19:40:19.0000000+00:00</time></trkpt><trkpt lat="63.93467331" lon="-18.72816277"><ele>607.2</ele><time>2012-07-24T19:40:24.0000000+00:00</time></trkpt><trkpt lat="63.93467331" lon="-18.72816277"><ele>607.2</ele><time>2012-07-24T19:40:29.0000000+00:00</time></trkpt><trkpt lat="63.93467331" lon="-18.72816277"><ele>607.2</ele><time>2012-07-24T19:40:34.0000000+00:00</time></trkpt><trkpt lat="63.93467331" lon="-18.72816277"><ele>607.2</ele><time>2012-07-24T19:40:39.0000000+00:00</time></trkpt><trkpt lat="63.93467331" lon="-18.72816467"><ele>607.2</ele><time>2012-07-24T19:40:44.0000000+00:00</time></trkpt><trkpt lat="63.93467331" lon="-18.72816467"><ele>607.2</ele><time>2012-07-24T19:40:49.0000000+00:00</time></trkpt><trkpt lat="63.93467331" lon="-18.72816467"><ele>607.2</ele><time>2012-07-24T19:40:54.0000000+00:00</time></trkpt><trkpt lat="63.93467331" lon="-18.72816467"><ele>607.2</ele><time>2012-07-24T19:40:59.0000000+00:00</time></trkpt><trkpt lat="63.93467331" lon="-18.72816467"><ele>607.2</ele><time>2012-07-24T19:41:04.0000000+00:00</time></trkpt><trkpt lat="63.93467331" lon="-18.72816467"><ele>607.2</ele><time>2012-07-24T19:41:09.0000000+00:00</time></trkpt><trkpt lat="63.93467331" lon="-18.72816467"><ele>607.1</ele><time>2012-07-24T19:41:14.0000000+00:00</time></trkpt><trkpt lat="63.93467331" lon="-18.72816467"><ele>607.1</ele><time>2012-07-24T19:41:19.0000000+00:00</time></trkpt><trkpt lat="63.93467331" lon="-18.72816467"><ele>607.1</ele><time>2012-07-24T19:41:24.0000000+00:00</time></trkpt><trkpt lat="63.93467331" lon="-18.72816467"><ele>607.1</ele><time>2012-07-24T19:41:29.0000000+00:00</time></trkpt><trkpt lat="63.93467331" lon="-18.72816467"><ele>607.1</ele><time>2012-07-24T19:41:34.0000000+00:00</time></trkpt><trkpt lat="63.93467331" lon="-18.72816658"><ele>607.1</ele><time>2012-07-24T19:41:39.0000000+00:00</time></trkpt><trkpt lat="63.93467331" lon="-18.72816658"><ele>607.1</ele><time>2012-07-24T19:41:44.0000000+00:00</time></trkpt><trkpt lat="63.93467331" lon="-18.72816658"><ele>607.1</ele><time>2012-07-24T19:41:49.0000000+00:00</time></trkpt><trkpt lat="63.93467331" lon="-18.72816658"><ele>607.1</ele><time>2012-07-24T19:41:54.0000000+00:00</time></trkpt><trkpt lat="63.93467331" lon="-18.72816658"><ele>607.1</ele><time>2012-07-24T19:41:59.0000000+00:00</time></trkpt><trkpt lat="63.93467331" lon="-18.72816658"><ele>607.1</ele><time>2012-07-24T19:42:04.0000000+00:00</time></trkpt><trkpt lat="63.93467331" lon="-18.72816658"><ele>607.1</ele><time>2012-07-24T19:42:09.0000000+00:00</time></trkpt><trkpt lat="63.93467331" lon="-18.72816849"><ele>607.1</ele><time>2012-07-24T19:42:14.0000000+00:00</time></trkpt><trkpt lat="63.93467331" lon="-18.7281704"><ele>607.1</ele><time>2012-07-24T19:42:19.0000000+00:00</time></trkpt><trkpt lat="63.93467331" lon="-18.7281704"><ele>607.0</ele><time>2012-07-24T19:42:24.0000000+00:00</time></trkpt><trkpt lat="63.93467331" lon="-18.7281704"><ele>607.0</ele><time>2012-07-24T19:42:29.0000000+00:00</time></trkpt><trkpt lat="63.93467331" lon="-18.7281704"><ele>607.0</ele><time>2012-07-24T19:42:34.0000000+00:00</time></trkpt><trkpt lat="63.93467331" lon="-18.7281704"><ele>607.0</ele><time>2012-07-24T19:42:39.0000000+00:00</time></trkpt><trkpt lat="63.93467331" lon="-18.72816849"><ele>607.0</ele><time>2012-07-24T19:42:44.0000000+00:00</time></trkpt><trkpt lat="63.93467712" lon="-18.72816849"><ele>607.0</ele><time>2012-07-24T19:42:49.0000000+00:00</time></trkpt><trkpt lat="63.93467712" lon="-18.72816849"><ele>607.0</ele><time>2012-07-24T19:42:54.0000000+00:00</time></trkpt><trkpt lat="63.93467712" lon="-18.72816849"><ele>607.0</ele><time>2012-07-24T19:42:59.0000000+00:00</time></trkpt><trkpt lat="63.93467712" lon="-18.72816849"><ele>607.0</ele><time>2012-07-24T19:43:04.0000000+00:00</time></trkpt><trkpt lat="63.93467712" lon="-18.72816849"><ele>607.0</ele><time>2012-07-24T19:43:09.0000000+00:00</time></trkpt><trkpt lat="63.93467712" lon="-18.72816849"><ele>607.0</ele><time>2012-07-24T19:43:14.0000000+00:00</time></trkpt><trkpt lat="63.93467712" lon="-18.72816849"><ele>607.0</ele><time>2012-07-24T19:43:19.0000000+00:00</time></trkpt><trkpt lat="63.93467712" lon="-18.72816849"><ele>607.0</ele><time>2012-07-24T19:43:24.0000000+00:00</time></trkpt><trkpt lat="63.93467712" lon="-18.72816849"><ele>607.0</ele><time>2012-07-24T19:43:29.0000000+00:00</time></trkpt><trkpt lat="63.93467712" lon="-18.72816849"><ele>607.0</ele><time>2012-07-24T19:43:34.0000000+00:00</time></trkpt><trkpt lat="63.93467712" lon="-18.72816849"><ele>607.0</ele><time>2012-07-24T19:43:39.0000000+00:00</time></trkpt><trkpt lat="63.93467712" lon="-18.72816467"><ele>607.0</ele><time>2012-07-24T19:43:44.0000000+00:00</time></trkpt><trkpt lat="63.93467712" lon="-18.72816467"><ele>607.0</ele><time>2012-07-24T19:43:49.0000000+00:00</time></trkpt><trkpt lat="63.93467712" lon="-18.72816658"><ele>607.0</ele><time>2012-07-24T19:43:54.0000000+00:00</time></trkpt><trkpt lat="63.93466568" lon="-18.72821808"><ele>607.7</ele><time>2012-07-24T19:43:59.0000000+00:00</time></trkpt><trkpt lat="63.93466568" lon="-18.72828484"><ele>607.6</ele><time>2012-07-24T19:44:04.0000000+00:00</time></trkpt><trkpt lat="63.93467331" lon="-18.72830772"><ele>607.2</ele><time>2012-07-24T19:44:09.0000000+00:00</time></trkpt><trkpt lat="63.9346695" lon="-18.72836685"><ele>607.5</ele><time>2012-07-24T19:44:14.0000000+00:00</time></trkpt><trkpt lat="63.93465424" lon="-18.7285099"><ele>608.3</ele><time>2012-07-24T19:44:19.0000000+00:00</time></trkpt><trkpt lat="63.93464661" lon="-18.72875023"><ele>609.1</ele><time>2012-07-24T19:44:24.0000000+00:00</time></trkpt><trkpt lat="63.93461227" lon="-18.72895622"><ele>610.1</ele><time>2012-07-24T19:44:29.0000000+00:00</time></trkpt><trkpt lat="63.93460083" lon="-18.72914696"><ele>611.4</ele><time>2012-07-24T19:44:34.0000000+00:00</time></trkpt><trkpt lat="63.93458557" lon="-18.72933579"><ele>611.4</ele><time>2012-07-24T19:44:39.0000000+00:00</time></trkpt><trkpt lat="63.93458557" lon="-18.72952652"><ele>611.2</ele><time>2012-07-24T19:44:44.0000000+00:00</time></trkpt><trkpt lat="63.93457031" lon="-18.7297039"><ele>611.4</ele><time>2012-07-24T19:44:49.0000000+00:00</time></trkpt><trkpt lat="63.93454361" lon="-18.72985458"><ele>611.7</ele><time>2012-07-24T19:44:54.0000000+00:00</time></trkpt><trkpt lat="63.93452072" lon="-18.73000526"><ele>611.9</ele><time>2012-07-24T19:44:59.0000000+00:00</time></trkpt><trkpt lat="63.93449783" lon="-18.73017502"><ele>613.4</ele><time>2012-07-24T19:45:04.0000000+00:00</time></trkpt><trkpt lat="63.93447876" lon="-18.73035431"><ele>613.0</ele><time>2012-07-24T19:45:09.0000000+00:00</time></trkpt><trkpt lat="63.93445587" lon="-18.73053551"><ele>612.1</ele><time>2012-07-24T19:45:14.0000000+00:00</time></trkpt><trkpt lat="63.93444443" lon="-18.73070145"><ele>612.2</ele><time>2012-07-24T19:45:19.0000000+00:00</time></trkpt><trkpt lat="63.9344101" lon="-18.730896"><ele>613.3</ele><time>2012-07-24T19:45:24.0000000+00:00</time></trkpt><trkpt lat="63.93440628" lon="-18.73091888"><ele>613.3</ele><time>2012-07-24T19:45:29.0000000+00:00</time></trkpt><trkpt lat="63.93441391" lon="-18.7309475"><ele>613.5</ele><time>2012-07-24T19:45:34.0000000+00:00</time></trkpt><trkpt lat="63.9344101" lon="-18.73104477"><ele>613.4</ele><time>2012-07-24T19:45:39.0000000+00:00</time></trkpt><trkpt lat="63.93440628" lon="-18.73114014"><ele>612.5</ele><time>2012-07-24T19:45:44.0000000+00:00</time></trkpt><trkpt lat="63.9344101" lon="-18.73121643"><ele>612.0</ele><time>2012-07-24T19:45:49.0000000+00:00</time></trkpt><trkpt lat="63.93441391" lon="-18.731287"><ele>612.2</ele><time>2012-07-24T19:45:54.0000000+00:00</time></trkpt><trkpt lat="63.93441773" lon="-18.73136139"><ele>612.0</ele><time>2012-07-24T19:45:59.0000000+00:00</time></trkpt><trkpt lat="63.93442154" lon="-18.73139954"><ele>611.8</ele><time>2012-07-24T19:46:04.0000000+00:00</time></trkpt><trkpt lat="63.93442154" lon="-18.73139954"><ele>611.7</ele><time>2012-07-24T19:46:09.0000000+00:00</time></trkpt><trkpt lat="63.93442917" lon="-18.73144913"><ele>612.1</ele><time>2012-07-24T19:46:14.0000000+00:00</time></trkpt><trkpt lat="63.93443298" lon="-18.73153114"><ele>612.4</ele><time>2012-07-24T19:46:19.0000000+00:00</time></trkpt><trkpt lat="63.9344368" lon="-18.73159981"><ele>612.3</ele><time>2012-07-24T19:46:24.0000000+00:00</time></trkpt><trkpt lat="63.93444824" lon="-18.7317009"><ele>612.0</ele><time>2012-07-24T19:46:29.0000000+00:00</time></trkpt><trkpt lat="63.9344635" lon="-18.73181915"><ele>612.7</ele><time>2012-07-24T19:46:34.0000000+00:00</time></trkpt><trkpt lat="63.93447876" lon="-18.73195076"><ele>612.6</ele><time>2012-07-24T19:46:39.0000000+00:00</time></trkpt><trkpt lat="63.93447495" lon="-18.73205566"><ele>612.2</ele><time>2012-07-24T19:46:44.0000000+00:00</time></trkpt><trkpt lat="63.93447113" lon="-18.7321682"><ele>611.4</ele><time>2012-07-24T19:46:49.0000000+00:00</time></trkpt><trkpt lat="63.93447495" lon="-18.73227692"><ele>612.2</ele><time>2012-07-24T19:46:54.0000000+00:00</time></trkpt><trkpt lat="63.93447113" lon="-18.73238945"><ele>612.8</ele><time>2012-07-24T19:46:59.0000000+00:00</time></trkpt><trkpt lat="63.9344635" lon="-18.73250198"><ele>612.4</ele><time>2012-07-24T19:47:04.0000000+00:00</time></trkpt><trkpt lat="63.93444443" lon="-18.73258591"><ele>612.2</ele><time>2012-07-24T19:47:09.0000000+00:00</time></trkpt><trkpt lat="63.93442535" lon="-18.73269081"><ele>613.1</ele><time>2012-07-24T19:47:14.0000000+00:00</time></trkpt><trkpt lat="63.93442154" lon="-18.73272705"><ele>613.7</ele><time>2012-07-24T19:47:19.0000000+00:00</time></trkpt><trkpt lat="63.93440247" lon="-18.73278809"><ele>614.0</ele><time>2012-07-24T19:47:24.0000000+00:00</time></trkpt><trkpt lat="63.93439102" lon="-18.73288536"><ele>614.1</ele><time>2012-07-24T19:47:29.0000000+00:00</time></trkpt><trkpt lat="63.93437958" lon="-18.7329464"><ele>614.8</ele><time>2012-07-24T19:47:34.0000000+00:00</time></trkpt><trkpt lat="63.93436813" lon="-18.73301315"><ele>615.5</ele><time>2012-07-24T19:47:39.0000000+00:00</time></trkpt><trkpt lat="63.93435288" lon="-18.73310852"><ele>616.1</ele><time>2012-07-24T19:47:44.0000000+00:00</time></trkpt><trkpt lat="63.9343338" lon="-18.73319244"><ele>616.2</ele><time>2012-07-24T19:47:49.0000000+00:00</time></trkpt><trkpt lat="63.93432236" lon="-18.73326111"><ele>617.0</ele><time>2012-07-24T19:47:54.0000000+00:00</time></trkpt><trkpt lat="63.93431473" lon="-18.73335075"><ele>618.5</ele><time>2012-07-24T19:47:59.0000000+00:00</time></trkpt><trkpt lat="63.93431854" lon="-18.73343849"><ele>619.8</ele><time>2012-07-24T19:48:04.0000000+00:00</time></trkpt><trkpt lat="63.93431473" lon="-18.73352432"><ele>620.8</ele><time>2012-07-24T19:48:09.0000000+00:00</time></trkpt><trkpt lat="63.93431473" lon="-18.73360252"><ele>621.9</ele><time>2012-07-24T19:48:14.0000000+00:00</time></trkpt><trkpt lat="63.93429184" lon="-18.73373032"><ele>622.7</ele><time>2012-07-24T19:48:19.0000000+00:00</time></trkpt><trkpt lat="63.93428803" lon="-18.73379517"><ele>623.3</ele><time>2012-07-24T19:48:24.0000000+00:00</time></trkpt><trkpt lat="63.93429184" lon="-18.73389244"><ele>624.0</ele><time>2012-07-24T19:48:29.0000000+00:00</time></trkpt><trkpt lat="63.9342804" lon="-18.73397827"><ele>624.7</ele><time>2012-07-24T19:48:34.0000000+00:00</time></trkpt><trkpt lat="63.93426895" lon="-18.73408127"><ele>623.9</ele><time>2012-07-24T19:48:39.0000000+00:00</time></trkpt><trkpt lat="63.93425369" lon="-18.73419571"><ele>622.8</ele><time>2012-07-24T19:48:44.0000000+00:00</time></trkpt><trkpt lat="63.93423462" lon="-18.73432922"><ele>623.0</ele><time>2012-07-24T19:48:49.0000000+00:00</time></trkpt><trkpt lat="63.93422699" lon="-18.73445129"><ele>623.3</ele><time>2012-07-24T19:48:54.0000000+00:00</time></trkpt><trkpt lat="63.93422318" lon="-18.73454666"><ele>624.4</ele><time>2012-07-24T19:48:59.0000000+00:00</time></trkpt><trkpt lat="63.93422699" lon="-18.73461914"><ele>622.5</ele><time>2012-07-24T19:49:04.0000000+00:00</time></trkpt><trkpt lat="63.93422699" lon="-18.73471451"><ele>621.8</ele><time>2012-07-24T19:49:09.0000000+00:00</time></trkpt><trkpt lat="63.93422318" lon="-18.73480415"><ele>620.8</ele><time>2012-07-24T19:49:14.0000000+00:00</time></trkpt><trkpt lat="63.93422699" lon="-18.73491669"><ele>620.6</ele><time>2012-07-24T19:49:19.0000000+00:00</time></trkpt><trkpt lat="63.93422699" lon="-18.7349987"><ele>620.3</ele><time>2012-07-24T19:49:24.0000000+00:00</time></trkpt><trkpt lat="63.9342308" lon="-18.73511505"><ele>619.1</ele><time>2012-07-24T19:49:29.0000000+00:00</time></trkpt><trkpt lat="63.93421936" lon="-18.73516274"><ele>619.5</ele><time>2012-07-24T19:49:34.0000000+00:00</time></trkpt><trkpt lat="63.93422318" lon="-18.73516846"><ele>619.6</ele><time>2012-07-24T19:49:39.0000000+00:00</time></trkpt><trkpt lat="63.93422699" lon="-18.73515892"><ele>619.6</ele><time>2012-07-24T19:49:44.0000000+00:00</time></trkpt><trkpt lat="63.93422699" lon="-18.73515892"><ele>619.5</ele><time>2012-07-24T19:49:49.0000000+00:00</time></trkpt><trkpt lat="63.93422699" lon="-18.73516274"><ele>619.5</ele><time>2012-07-24T19:49:54.0000000+00:00</time></trkpt><trkpt lat="63.93421936" lon="-18.73516846"><ele>619.8</ele><time>2012-07-24T19:49:59.0000000+00:00</time></trkpt><trkpt lat="63.93421936" lon="-18.73517418"><ele>619.8</ele><time>2012-07-24T19:50:04.0000000+00:00</time></trkpt><trkpt lat="63.93421936" lon="-18.73517799"><ele>619.7</ele><time>2012-07-24T19:50:09.0000000+00:00</time></trkpt><trkpt lat="63.93422318" lon="-18.73518562"><ele>619.5</ele><time>2012-07-24T19:50:14.0000000+00:00</time></trkpt><trkpt lat="63.93422318" lon="-18.73518562"><ele>619.5</ele><time>2012-07-24T19:50:19.0000000+00:00</time></trkpt><trkpt lat="63.93422318" lon="-18.73518562"><ele>619.5</ele><time>2012-07-24T19:50:24.0000000+00:00</time></trkpt><trkpt lat="63.93422318" lon="-18.73518562"><ele>619.4</ele><time>2012-07-24T19:50:29.0000000+00:00</time></trkpt><trkpt lat="63.93422318" lon="-18.73518562"><ele>619.5</ele><time>2012-07-24T19:50:34.0000000+00:00</time></trkpt><trkpt lat="63.93422318" lon="-18.73518562"><ele>619.5</ele><time>2012-07-24T19:50:39.0000000+00:00</time></trkpt><trkpt lat="63.93422318" lon="-18.73518562"><ele>619.5</ele><time>2012-07-24T19:50:44.0000000+00:00</time></trkpt><trkpt lat="63.93422318" lon="-18.73518562"><ele>619.5</ele><time>2012-07-24T19:50:49.0000000+00:00</time></trkpt><trkpt lat="63.93422318" lon="-18.73518562"><ele>619.5</ele><time>2012-07-24T19:50:54.0000000+00:00</time></trkpt><trkpt lat="63.93422318" lon="-18.73518562"><ele>619.5</ele><time>2012-07-24T19:50:59.0000000+00:00</time></trkpt><trkpt lat="63.93422318" lon="-18.73518562"><ele>619.5</ele><time>2012-07-24T19:51:04.0000000+00:00</time></trkpt><trkpt lat="63.93422318" lon="-18.73518562"><ele>619.5</ele><time>2012-07-24T19:51:09.0000000+00:00</time></trkpt><trkpt lat="63.93422318" lon="-18.73518562"><ele>619.5</ele><time>2012-07-24T19:51:14.0000000+00:00</time></trkpt><trkpt lat="63.93422318" lon="-18.73518562"><ele>619.5</ele><time>2012-07-24T19:51:19.0000000+00:00</time></trkpt><trkpt lat="63.93422318" lon="-18.73518562"><ele>619.5</ele><time>2012-07-24T19:51:24.0000000+00:00</time></trkpt><trkpt lat="63.93422318" lon="-18.73518562"><ele>619.5</ele><time>2012-07-24T19:51:29.0000000+00:00</time></trkpt><trkpt lat="63.93422318" lon="-18.73518562"><ele>619.5</ele><time>2012-07-24T19:51:34.0000000+00:00</time></trkpt><trkpt lat="63.93422318" lon="-18.73518562"><ele>619.5</ele><time>2012-07-24T19:51:39.0000000+00:00</time></trkpt><trkpt lat="63.93422318" lon="-18.73518372"><ele>619.5</ele><time>2012-07-24T19:51:44.0000000+00:00</time></trkpt><trkpt lat="63.93422318" lon="-18.73518562"><ele>619.5</ele><time>2012-07-24T19:51:49.0000000+00:00</time></trkpt><trkpt lat="63.93422318" lon="-18.73518562"><ele>619.5</ele><time>2012-07-24T19:51:54.0000000+00:00</time></trkpt><trkpt lat="63.93422318" lon="-18.73518562"><ele>619.5</ele><time>2012-07-24T19:51:59.0000000+00:00</time></trkpt><trkpt lat="63.93422318" lon="-18.73518562"><ele>619.5</ele><time>2012-07-24T19:52:04.0000000+00:00</time></trkpt><trkpt lat="63.93422318" lon="-18.73518562"><ele>619.5</ele><time>2012-07-24T19:52:09.0000000+00:00</time></trkpt><trkpt lat="63.93422318" lon="-18.73518753"><ele>619.5</ele><time>2012-07-24T19:52:14.0000000+00:00</time></trkpt><trkpt lat="63.93422318" lon="-18.73519135"><ele>619.6</ele><time>2012-07-24T19:52:19.0000000+00:00</time></trkpt><trkpt lat="63.93423462" lon="-18.73512459"><ele>616.6</ele><time>2012-07-24T19:52:24.0000000+00:00</time></trkpt><trkpt lat="63.93424225" lon="-18.73508644"><ele>615.8</ele><time>2012-07-24T19:52:29.0000000+00:00</time></trkpt><trkpt lat="63.93423462" lon="-18.73519898"><ele>616.9</ele><time>2012-07-24T19:52:34.0000000+00:00</time></trkpt><trkpt lat="63.93425369" lon="-18.73537254"><ele>616.8</ele><time>2012-07-24T19:52:39.0000000+00:00</time></trkpt><trkpt lat="63.93424988" lon="-18.73558998"><ele>616.3</ele><time>2012-07-24T19:52:44.0000000+00:00</time></trkpt><trkpt lat="63.93424606" lon="-18.73581696"><ele>616.1</ele><time>2012-07-24T19:52:49.0000000+00:00</time></trkpt><trkpt lat="63.93424225" lon="-18.73601914"><ele>615.7</ele><time>2012-07-24T19:52:54.0000000+00:00</time></trkpt><trkpt lat="63.93424225" lon="-18.73618507"><ele>616.6</ele><time>2012-07-24T19:52:59.0000000+00:00</time></trkpt><trkpt lat="63.93423843" lon="-18.73639488"><ele>617.7</ele><time>2012-07-24T19:53:04.0000000+00:00</time></trkpt><trkpt lat="63.93418884" lon="-18.73658562"><ele>617.1</ele><time>2012-07-24T19:53:09.0000000+00:00</time></trkpt><trkpt lat="63.93413925" lon="-18.73674202"><ele>618.2</ele><time>2012-07-24T19:53:14.0000000+00:00</time></trkpt><trkpt lat="63.93406677" lon="-18.73685455"><ele>620.3</ele><time>2012-07-24T19:53:19.0000000+00:00</time></trkpt><trkpt lat="63.93403244" lon="-18.7369175"><ele>622.4</ele><time>2012-07-24T19:53:24.0000000+00:00</time></trkpt><trkpt lat="63.93403626" lon="-18.73696137"><ele>623.9</ele><time>2012-07-24T19:53:29.0000000+00:00</time></trkpt><trkpt lat="63.93404388" lon="-18.73702812"><ele>625.7</ele><time>2012-07-24T19:53:34.0000000+00:00</time></trkpt><trkpt lat="63.934021" lon="-18.73701096"><ele>626.6</ele><time>2012-07-24T19:53:39.0000000+00:00</time></trkpt><trkpt lat="63.93400574" lon="-18.73702431"><ele>628.3</ele><time>2012-07-24T19:53:44.0000000+00:00</time></trkpt><trkpt lat="63.93396759" lon="-18.73707008"><ele>629.5</ele><time>2012-07-24T19:53:49.0000000+00:00</time></trkpt><trkpt lat="63.93393326" lon="-18.7371254"><ele>629.9</ele><time>2012-07-24T19:53:54.0000000+00:00</time></trkpt><trkpt lat="63.93387604" lon="-18.73722458"><ele>630.9</ele><time>2012-07-24T19:53:59.0000000+00:00</time></trkpt><trkpt lat="63.933815" lon="-18.73731995"><ele>631.4</ele><time>2012-07-24T19:54:04.0000000+00:00</time></trkpt><trkpt lat="63.93372726" lon="-18.73744202"><ele>631.8</ele><time>2012-07-24T19:54:09.0000000+00:00</time></trkpt><trkpt lat="63.93364334" lon="-18.73758316"><ele>631.1</ele><time>2012-07-24T19:54:14.0000000+00:00</time></trkpt><trkpt lat="63.93353272" lon="-18.7377739"><ele>628.3</ele><time>2012-07-24T19:54:19.0000000+00:00</time></trkpt><trkpt lat="63.93344116" lon="-18.73796272"><ele>629.5</ele><time>2012-07-24T19:54:24.0000000+00:00</time></trkpt><trkpt lat="63.93335724" lon="-18.73804855"><ele>629.1</ele><time>2012-07-24T19:54:29.0000000+00:00</time></trkpt><trkpt lat="63.9332695" lon="-18.73814201"><ele>629.6</ele><time>2012-07-24T19:54:34.0000000+00:00</time></trkpt><trkpt lat="63.93320084" lon="-18.73822594"><ele>629.5</ele><time>2012-07-24T19:54:39.0000000+00:00</time></trkpt><trkpt lat="63.93312836" lon="-18.7383194"><ele>629.9</ele><time>2012-07-24T19:54:44.0000000+00:00</time></trkpt><trkpt lat="63.93306351" lon="-18.73838615"><ele>629.8</ele><time>2012-07-24T19:54:49.0000000+00:00</time></trkpt><trkpt lat="63.93310165" lon="-18.73836327"><ele>628.5</ele><time>2012-07-24T19:54:54.0000000+00:00</time></trkpt><trkpt lat="63.9330864" lon="-18.73843384"><ele>629.6</ele><time>2012-07-24T19:54:59.0000000+00:00</time></trkpt><trkpt lat="63.93305969" lon="-18.73848152"><ele>630.4</ele><time>2012-07-24T19:55:04.0000000+00:00</time></trkpt><trkpt lat="63.93302155" lon="-18.73850441"><ele>631.8</ele><time>2012-07-24T19:55:09.0000000+00:00</time></trkpt><trkpt lat="63.93299103" lon="-18.73853493"><ele>633.2</ele><time>2012-07-24T19:55:14.0000000+00:00</time></trkpt><trkpt lat="63.93295288" lon="-18.73853111"><ele>634.0</ele><time>2012-07-24T19:55:19.0000000+00:00</time></trkpt><trkpt lat="63.93291092" lon="-18.73856354"><ele>634.2</ele><time>2012-07-24T19:55:24.0000000+00:00</time></trkpt><trkpt lat="63.93289566" lon="-18.73857117"><ele>634.7</ele><time>2012-07-24T19:55:29.0000000+00:00</time></trkpt><trkpt lat="63.93287277" lon="-18.73858643"><ele>634.9</ele><time>2012-07-24T19:55:34.0000000+00:00</time></trkpt><trkpt lat="63.93279648" lon="-18.73860931"><ele>634.7</ele><time>2012-07-24T19:55:39.0000000+00:00</time></trkpt><trkpt lat="63.93268204" lon="-18.73863983"><ele>634.7</ele><time>2012-07-24T19:55:44.0000000+00:00</time></trkpt><trkpt lat="63.93258667" lon="-18.73865318"><ele>636.0</ele><time>2012-07-24T19:55:49.0000000+00:00</time></trkpt><trkpt lat="63.9324913" lon="-18.738657"><ele>635.8</ele><time>2012-07-24T19:55:54.0000000+00:00</time></trkpt><trkpt lat="63.93235779" lon="-18.73869324"><ele>634.9</ele><time>2012-07-24T19:55:59.0000000+00:00</time></trkpt><trkpt lat="63.93221664" lon="-18.7387085"><ele>632.9</ele><time>2012-07-24T19:56:04.0000000+00:00</time></trkpt><trkpt lat="63.93209457" lon="-18.73873138"><ele>628.4</ele><time>2012-07-24T19:56:09.0000000+00:00</time></trkpt><trkpt lat="63.93198013" lon="-18.73876"><ele>625.1</ele><time>2012-07-24T19:56:14.0000000+00:00</time></trkpt><trkpt lat="63.93190002" lon="-18.73879051"><ele>622.3</ele><time>2012-07-24T19:56:19.0000000+00:00</time></trkpt><trkpt lat="63.93180847" lon="-18.73893738"><ele>621.4</ele><time>2012-07-24T19:56:24.0000000+00:00</time></trkpt><trkpt lat="63.93170166" lon="-18.73908615"><ele>619.5</ele><time>2012-07-24T19:56:29.0000000+00:00</time></trkpt><trkpt lat="63.93159866" lon="-18.73928833"><ele>619.9</ele><time>2012-07-24T19:56:34.0000000+00:00</time></trkpt><trkpt lat="63.93150711" lon="-18.73940849"><ele>619.8</ele><time>2012-07-24T19:56:39.0000000+00:00</time></trkpt><trkpt lat="63.93138123" lon="-18.73951721"><ele>617.6</ele><time>2012-07-24T19:56:44.0000000+00:00</time></trkpt><trkpt lat="63.93124771" lon="-18.73960495"><ele>616.2</ele><time>2012-07-24T19:56:49.0000000+00:00</time></trkpt><trkpt lat="63.93119812" lon="-18.73963356"><ele>618.7</ele><time>2012-07-24T19:56:54.0000000+00:00</time></trkpt><trkpt lat="63.93107605" lon="-18.73957062"><ele>619.5</ele><time>2012-07-24T19:56:59.0000000+00:00</time></trkpt><trkpt lat="63.93087769" lon="-18.73946571"><ele>616.7</ele><time>2012-07-24T19:57:04.0000000+00:00</time></trkpt><trkpt lat="63.93077087" lon="-18.73939705"><ele>618.2</ele><time>2012-07-24T19:57:09.0000000+00:00</time></trkpt><trkpt lat="63.93076325" lon="-18.739357"><ele>616.1</ele><time>2012-07-24T19:57:14.0000000+00:00</time></trkpt><trkpt lat="63.93076325" lon="-18.73934364"><ele>616.5</ele><time>2012-07-24T19:57:19.0000000+00:00</time></trkpt><trkpt lat="63.93075943" lon="-18.73933601"><ele>616.6</ele><time>2012-07-24T19:57:24.0000000+00:00</time></trkpt><trkpt lat="63.93076706" lon="-18.7393074"><ele>616.6</ele><time>2012-07-24T19:57:29.0000000+00:00</time></trkpt><trkpt lat="63.93075562" lon="-18.73932076"><ele>616.7</ele><time>2012-07-24T19:57:34.0000000+00:00</time></trkpt><trkpt lat="63.93074036" lon="-18.73938751"><ele>616.8</ele><time>2012-07-24T19:57:39.0000000+00:00</time></trkpt><trkpt lat="63.93072891" lon="-18.73939323"><ele>616.8</ele><time>2012-07-24T19:57:44.0000000+00:00</time></trkpt><trkpt lat="63.93072128" lon="-18.73933029"><ele>616.9</ele><time>2012-07-24T19:57:49.0000000+00:00</time></trkpt><trkpt lat="63.9306984" lon="-18.73926544"><ele>617.1</ele><time>2012-07-24T19:57:54.0000000+00:00</time></trkpt><trkpt lat="63.93067932" lon="-18.73927879"><ele>616.5</ele><time>2012-07-24T19:57:59.0000000+00:00</time></trkpt><trkpt lat="63.93068695" lon="-18.73934364"><ele>616.8</ele><time>2012-07-24T19:58:04.0000000+00:00</time></trkpt><trkpt lat="63.93068695" lon="-18.73936844"><ele>616.9</ele><time>2012-07-24T19:58:09.0000000+00:00</time></trkpt><trkpt lat="63.93068695" lon="-18.73937225"><ele>617.0</ele><time>2012-07-24T19:58:14.0000000+00:00</time></trkpt><trkpt lat="63.93068314" lon="-18.73936653"><ele>617.0</ele><time>2012-07-24T19:58:19.0000000+00:00</time></trkpt><trkpt lat="63.93067932" lon="-18.73936272"><ele>617.0</ele><time>2012-07-24T19:58:24.0000000+00:00</time></trkpt><trkpt lat="63.93067932" lon="-18.73936081"><ele>617.0</ele><time>2012-07-24T19:58:29.0000000+00:00</time></trkpt><trkpt lat="63.93067932" lon="-18.73936081"><ele>617.0</ele><time>2012-07-24T19:58:34.0000000+00:00</time></trkpt><trkpt lat="63.93067932" lon="-18.7393589"><ele>616.9</ele><time>2012-07-24T19:58:39.0000000+00:00</time></trkpt><trkpt lat="63.93067932" lon="-18.7393589"><ele>617.0</ele><time>2012-07-24T19:58:44.0000000+00:00</time></trkpt><trkpt lat="63.93067932" lon="-18.73936081"><ele>617.0</ele><time>2012-07-24T19:58:49.0000000+00:00</time></trkpt><trkpt lat="63.93067932" lon="-18.7393589"><ele>616.9</ele><time>2012-07-24T19:58:54.0000000+00:00</time></trkpt><trkpt lat="63.93068314" lon="-18.7393589"><ele>616.9</ele><time>2012-07-24T19:58:59.0000000+00:00</time></trkpt><trkpt lat="63.93068314" lon="-18.7393589"><ele>616.9</ele><time>2012-07-24T19:59:04.0000000+00:00</time></trkpt><trkpt lat="63.93068314" lon="-18.7393589"><ele>616.8</ele><time>2012-07-24T19:59:09.0000000+00:00</time></trkpt><trkpt lat="63.93068314" lon="-18.7393589"><ele>616.8</ele><time>2012-07-24T19:59:14.0000000+00:00</time></trkpt><trkpt lat="63.93068314" lon="-18.7393589"><ele>616.8</ele><time>2012-07-24T19:59:19.0000000+00:00</time></trkpt><trkpt lat="63.93068314" lon="-18.7393589"><ele>616.8</ele><time>2012-07-24T19:59:24.0000000+00:00</time></trkpt><trkpt lat="63.93068314" lon="-18.7393589"><ele>616.8</ele><time>2012-07-24T19:59:29.0000000+00:00</time></trkpt><trkpt lat="63.93068314" lon="-18.7393589"><ele>616.8</ele><time>2012-07-24T19:59:34.0000000+00:00</time></trkpt><trkpt lat="63.93068314" lon="-18.7393589"><ele>616.8</ele><time>2012-07-24T19:59:39.0000000+00:00</time></trkpt><trkpt lat="63.93068314" lon="-18.7393589"><ele>616.8</ele><time>2012-07-24T19:59:44.0000000+00:00</time></trkpt><trkpt lat="63.93068314" lon="-18.7393589"><ele>616.7</ele><time>2012-07-24T19:59:49.0000000+00:00</time></trkpt><trkpt lat="63.93068314" lon="-18.73936081"><ele>616.6</ele><time>2012-07-24T19:59:54.0000000+00:00</time></trkpt><trkpt lat="63.93068314" lon="-18.73937035"><ele>616.3</ele><time>2012-07-24T19:59:59.0000000+00:00</time></trkpt><trkpt lat="63.93068314" lon="-18.73937035"><ele>615.9</ele><time>2012-07-24T20:00:04.0000000+00:00</time></trkpt><trkpt lat="63.93067932" lon="-18.73936844"><ele>615.3</ele><time>2012-07-24T20:00:09.0000000+00:00</time></trkpt><trkpt lat="63.93067932" lon="-18.73936844"><ele>614.7</ele><time>2012-07-24T20:00:14.0000000+00:00</time></trkpt><trkpt lat="63.93067551" lon="-18.73936844"><ele>614.0</ele><time>2012-07-24T20:00:19.0000000+00:00</time></trkpt><trkpt lat="63.93067932" lon="-18.73937035"><ele>613.2</ele><time>2012-07-24T20:00:24.0000000+00:00</time></trkpt><trkpt lat="63.93067932" lon="-18.73937225"><ele>612.3</ele><time>2012-07-24T20:00:29.0000000+00:00</time></trkpt><trkpt lat="63.93068314" lon="-18.73937225"><ele>611.2</ele><time>2012-07-24T20:00:34.0000000+00:00</time></trkpt><trkpt lat="63.93068695" lon="-18.73937225"><ele>610.1</ele><time>2012-07-24T20:00:39.0000000+00:00</time></trkpt><trkpt lat="63.93068695" lon="-18.73937225"><ele>608.9</ele><time>2012-07-24T20:00:44.0000000+00:00</time></trkpt><trkpt lat="63.93068695" lon="-18.73937225"><ele>607.6</ele><time>2012-07-24T20:00:49.0000000+00:00</time></trkpt><trkpt lat="63.93069077" lon="-18.73937416"><ele>606.3</ele><time>2012-07-24T20:00:54.0000000+00:00</time></trkpt><trkpt lat="63.93069077" lon="-18.73937416"><ele>604.9</ele><time>2012-07-24T20:00:59.0000000+00:00</time></trkpt><trkpt lat="63.93069458" lon="-18.73937416"><ele>603.8</ele><time>2012-07-24T20:01:04.0000000+00:00</time></trkpt><trkpt lat="63.93069458" lon="-18.73937035"><ele>603.4</ele><time>2012-07-24T20:01:09.0000000+00:00</time></trkpt><trkpt lat="63.93069077" lon="-18.73936844"><ele>603.0</ele><time>2012-07-24T20:01:14.0000000+00:00</time></trkpt><trkpt lat="63.93069077" lon="-18.73936844"><ele>602.6</ele><time>2012-07-24T20:01:19.0000000+00:00</time></trkpt><trkpt lat="63.93069077" lon="-18.73936844"><ele>602.2</ele><time>2012-07-24T20:01:24.0000000+00:00</time></trkpt><trkpt lat="63.93069077" lon="-18.73936844"><ele>601.8</ele><time>2012-07-24T20:01:29.0000000+00:00</time></trkpt><trkpt lat="63.93069077" lon="-18.73936844"><ele>601.3</ele><time>2012-07-24T20:01:34.0000000+00:00</time></trkpt><trkpt lat="63.93069077" lon="-18.73936844"><ele>600.9</ele><time>2012-07-24T20:01:39.0000000+00:00</time></trkpt><trkpt lat="63.93069077" lon="-18.73936272"><ele>600.4</ele><time>2012-07-24T20:01:44.0000000+00:00</time></trkpt><trkpt lat="63.93068695" lon="-18.73936844"><ele>599.9</ele><time>2012-07-24T20:01:49.0000000+00:00</time></trkpt><trkpt lat="63.93069077" lon="-18.73937035"><ele>599.5</ele><time>2012-07-24T20:01:54.0000000+00:00</time></trkpt><trkpt lat="63.93068695" lon="-18.73937035"><ele>599.3</ele><time>2012-07-24T20:01:59.0000000+00:00</time></trkpt><trkpt lat="63.93068695" lon="-18.73937035"><ele>599.1</ele><time>2012-07-24T20:02:04.0000000+00:00</time></trkpt><trkpt lat="63.93068695" lon="-18.73937225"><ele>599.0</ele><time>2012-07-24T20:02:09.0000000+00:00</time></trkpt><trkpt lat="63.93068314" lon="-18.73936844"><ele>599.0</ele><time>2012-07-24T20:02:14.0000000+00:00</time></trkpt><trkpt lat="63.93067932" lon="-18.73936272"><ele>598.9</ele><time>2012-07-24T20:02:19.0000000+00:00</time></trkpt><trkpt lat="63.93067932" lon="-18.73933601"><ele>599.7</ele><time>2012-07-24T20:02:24.0000000+00:00</time></trkpt><trkpt lat="63.93066788" lon="-18.7393074"><ele>599.8</ele><time>2012-07-24T20:02:29.0000000+00:00</time></trkpt><trkpt lat="63.93064499" lon="-18.73929024"><ele>598.5</ele><time>2012-07-24T20:02:34.0000000+00:00</time></trkpt><trkpt lat="63.93061829" lon="-18.73921776"><ele>598.8</ele><time>2012-07-24T20:02:39.0000000+00:00</time></trkpt><trkpt lat="63.93059158" lon="-18.73914337"><ele>599.0</ele><time>2012-07-24T20:02:44.0000000+00:00</time></trkpt><trkpt lat="63.93058395" lon="-18.73911667"><ele>598.8</ele><time>2012-07-24T20:02:49.0000000+00:00</time></trkpt><trkpt lat="63.93055725" lon="-18.73906899"><ele>600.4</ele><time>2012-07-24T20:02:54.0000000+00:00</time></trkpt><trkpt lat="63.93054581" lon="-18.73901177"><ele>601.4</ele><time>2012-07-24T20:02:59.0000000+00:00</time></trkpt><trkpt lat="63.93052673" lon="-18.73892403"><ele>601.5</ele><time>2012-07-24T20:03:04.0000000+00:00</time></trkpt><trkpt lat="63.93050766" lon="-18.73881531"><ele>601.6</ele><time>2012-07-24T20:03:09.0000000+00:00</time></trkpt><trkpt lat="63.9305191" lon="-18.7387104"><ele>601.5</ele><time>2012-07-24T20:03:14.0000000+00:00</time></trkpt><trkpt lat="63.93054199" lon="-18.73857689"><ele>601.1</ele><time>2012-07-24T20:03:19.0000000+00:00</time></trkpt><trkpt lat="63.93056488" lon="-18.73842812"><ele>600.8</ele><time>2012-07-24T20:03:24.0000000+00:00</time></trkpt><trkpt lat="63.93056107" lon="-18.73832321"><ele>600.9</ele><time>2012-07-24T20:03:29.0000000+00:00</time></trkpt><trkpt lat="63.93054962" lon="-18.73816681"><ele>601.0</ele><time>2012-07-24T20:03:34.0000000+00:00</time></trkpt><trkpt lat="63.93054962" lon="-18.73805618"><ele>601.6</ele><time>2012-07-24T20:03:39.0000000+00:00</time></trkpt><trkpt lat="63.93054199" lon="-18.73790932"><ele>602.7</ele><time>2012-07-24T20:03:44.0000000+00:00</time></trkpt><trkpt lat="63.93053055" lon="-18.73780251"><ele>603.5</ele><time>2012-07-24T20:03:49.0000000+00:00</time></trkpt><trkpt lat="63.9305191" lon="-18.73769188"><ele>603.9</ele><time>2012-07-24T20:03:54.0000000+00:00</time></trkpt><trkpt lat="63.93050385" lon="-18.73759079"><ele>604.5</ele><time>2012-07-24T20:03:59.0000000+00:00</time></trkpt><trkpt lat="63.9304924" lon="-18.73750496"><ele>606.3</ele><time>2012-07-24T20:04:04.0000000+00:00</time></trkpt><trkpt lat="63.9304924" lon="-18.73744392"><ele>606.8</ele><time>2012-07-24T20:04:09.0000000+00:00</time></trkpt><trkpt lat="63.93048859" lon="-18.73736191"><ele>607.1</ele><time>2012-07-24T20:04:14.0000000+00:00</time></trkpt><trkpt lat="63.93048477" lon="-18.73731422"><ele>607.8</ele><time>2012-07-24T20:04:19.0000000+00:00</time></trkpt><trkpt lat="63.93048096" lon="-18.73723221"><ele>608.7</ele><time>2012-07-24T20:04:24.0000000+00:00</time></trkpt><trkpt lat="63.93047333" lon="-18.73714638"><ele>610.0</ele><time>2012-07-24T20:04:29.0000000+00:00</time></trkpt><trkpt lat="63.93045807" lon="-18.73706627"><ele>610.7</ele><time>2012-07-24T20:04:34.0000000+00:00</time></trkpt><trkpt lat="63.93045807" lon="-18.73706055"><ele>611.6</ele><time>2012-07-24T20:04:39.0000000+00:00</time></trkpt><trkpt lat="63.93046188" lon="-18.73706055"><ele>613.3</ele><time>2012-07-24T20:04:44.0000000+00:00</time></trkpt><trkpt lat="63.93038559" lon="-18.73680687"><ele>613.5</ele><time>2012-07-24T20:04:49.0000000+00:00</time></trkpt><trkpt lat="63.93025589" lon="-18.73642731"><ele>614.3</ele><time>2012-07-24T20:04:54.0000000+00:00</time></trkpt><trkpt lat="63.93025971" lon="-18.73640442"><ele>614.5</ele><time>2012-07-24T20:04:59.0000000+00:00</time></trkpt><trkpt lat="63.93023682" lon="-18.73634911"><ele>614.3</ele><time>2012-07-24T20:05:04.0000000+00:00</time></trkpt><trkpt lat="63.93021393" lon="-18.73627091"><ele>614.9</ele><time>2012-07-24T20:05:09.0000000+00:00</time></trkpt><trkpt lat="63.93019104" lon="-18.73617744"><ele>614.9</ele><time>2012-07-24T20:05:14.0000000+00:00</time></trkpt><trkpt lat="63.93015289" lon="-18.73614693"><ele>613.1</ele><time>2012-07-24T20:05:19.0000000+00:00</time></trkpt><trkpt lat="63.93016052" lon="-18.73610497"><ele>612.9</ele><time>2012-07-24T20:05:24.0000000+00:00</time></trkpt><trkpt lat="63.93013001" lon="-18.73603058"><ele>612.8</ele><time>2012-07-24T20:05:29.0000000+00:00</time></trkpt><trkpt lat="63.93012619" lon="-18.73601914"><ele>612.3</ele><time>2012-07-24T20:05:34.0000000+00:00</time></trkpt><trkpt lat="63.93011093" lon="-18.73594666"><ele>612.2</ele><time>2012-07-24T20:05:39.0000000+00:00</time></trkpt><trkpt lat="63.93008041" lon="-18.73586083"><ele>612.3</ele><time>2012-07-24T20:05:44.0000000+00:00</time></trkpt><trkpt lat="63.93007278" lon="-18.73571014"><ele>612.9</ele><time>2012-07-24T20:05:49.0000000+00:00</time></trkpt><trkpt lat="63.93005753" lon="-18.73562241"><ele>612.7</ele><time>2012-07-24T20:05:54.0000000+00:00</time></trkpt><trkpt lat="63.93003845" lon="-18.73555565"><ele>612.9</ele><time>2012-07-24T20:05:59.0000000+00:00</time></trkpt><trkpt lat="63.93002701" lon="-18.73545265"><ele>612.4</ele><time>2012-07-24T20:06:04.0000000+00:00</time></trkpt><trkpt lat="63.93001175" lon="-18.73540115"><ele>611.7</ele><time>2012-07-24T20:06:09.0000000+00:00</time></trkpt><trkpt lat="63.92995834" lon="-18.73516464"><ele>611.5</ele><time>2012-07-24T20:06:14.0000000+00:00</time></trkpt><trkpt lat="63.92993546" lon="-18.73499298"><ele>612.0</ele><time>2012-07-24T20:06:19.0000000+00:00</time></trkpt><trkpt lat="63.92990875" lon="-18.73482513"><ele>613.5</ele><time>2012-07-24T20:06:24.0000000+00:00</time></trkpt><trkpt lat="63.92988968" lon="-18.73468399"><ele>614.6</ele><time>2012-07-24T20:06:29.0000000+00:00</time></trkpt><trkpt lat="63.92986298" lon="-18.73448944"><ele>615.4</ele><time>2012-07-24T20:06:34.0000000+00:00</time></trkpt><trkpt lat="63.92984009" lon="-18.73436165"><ele>615.8</ele><time>2012-07-24T20:06:39.0000000+00:00</time></trkpt><trkpt lat="63.92980576" lon="-18.73420906"><ele>618.5</ele><time>2012-07-24T20:06:44.0000000+00:00</time></trkpt><trkpt lat="63.92976379" lon="-18.73405457"><ele>620.6</ele><time>2012-07-24T20:06:49.0000000+00:00</time></trkpt><trkpt lat="63.92973709" lon="-18.73409271"><ele>619.0</ele><time>2012-07-24T20:06:54.0000000+00:00</time></trkpt><trkpt lat="63.92971039" lon="-18.73403549"><ele>619.0</ele><time>2012-07-24T20:06:59.0000000+00:00</time></trkpt><trkpt lat="63.92967987" lon="-18.73396111"><ele>618.3</ele><time>2012-07-24T20:07:04.0000000+00:00</time></trkpt><trkpt lat="63.92965317" lon="-18.73393631"><ele>618.8</ele><time>2012-07-24T20:07:09.0000000+00:00</time></trkpt><trkpt lat="63.92962647" lon="-18.73389244"><ele>619.2</ele><time>2012-07-24T20:07:14.0000000+00:00</time></trkpt><trkpt lat="63.92962647" lon="-18.73390198"><ele>619.2</ele><time>2012-07-24T20:07:19.0000000+00:00</time></trkpt><trkpt lat="63.92962647" lon="-18.73389816"><ele>619.5</ele><time>2012-07-24T20:07:24.0000000+00:00</time></trkpt><trkpt lat="63.92962647" lon="-18.73389435"><ele>619.9</ele><time>2012-07-24T20:07:29.0000000+00:00</time></trkpt><trkpt lat="63.92961884" lon="-18.73386765"><ele>618.2</ele><time>2012-07-24T20:07:34.0000000+00:00</time></trkpt><trkpt lat="63.92962265" lon="-18.73386192"><ele>618.0</ele><time>2012-07-24T20:07:39.0000000+00:00</time></trkpt><trkpt lat="63.92962647" lon="-18.73386002"><ele>617.9</ele><time>2012-07-24T20:07:44.0000000+00:00</time></trkpt><trkpt lat="63.92962647" lon="-18.73386002"><ele>617.9</ele><time>2012-07-24T20:07:49.0000000+00:00</time></trkpt><trkpt lat="63.92962647" lon="-18.73385811"><ele>617.9</ele><time>2012-07-24T20:07:54.0000000+00:00</time></trkpt><trkpt lat="63.92962647" lon="-18.73385811"><ele>617.9</ele><time>2012-07-24T20:07:59.0000000+00:00</time></trkpt><trkpt lat="63.92962647" lon="-18.73385811"><ele>617.9</ele><time>2012-07-24T20:08:04.0000000+00:00</time></trkpt><trkpt lat="63.92962647" lon="-18.73385811"><ele>617.9</ele><time>2012-07-24T20:08:09.0000000+00:00</time></trkpt><trkpt lat="63.92961884" lon="-18.73381424"><ele>617.9</ele><time>2012-07-24T20:08:14.0000000+00:00</time></trkpt><trkpt lat="63.92961884" lon="-18.73377419"><ele>618.1</ele><time>2012-07-24T20:08:19.0000000+00:00</time></trkpt><trkpt lat="63.92960739" lon="-18.73374176"><ele>618.2</ele><time>2012-07-24T20:08:24.0000000+00:00</time></trkpt><trkpt lat="63.92956924" lon="-18.73366928"><ele>618.7</ele><time>2012-07-24T20:08:29.0000000+00:00</time></trkpt><trkpt lat="63.9295311" lon="-18.73360062"><ele>619.6</ele><time>2012-07-24T20:08:34.0000000+00:00</time></trkpt><trkpt lat="63.92948151" lon="-18.73357773"><ele>619.8</ele><time>2012-07-24T20:08:39.0000000+00:00</time></trkpt><trkpt lat="63.92945099" lon="-18.73355484"><ele>619.6</ele><time>2012-07-24T20:08:44.0000000+00:00</time></trkpt><trkpt lat="63.92946625" lon="-18.73355675"><ele>620.5</ele><time>2012-07-24T20:08:49.0000000+00:00</time></trkpt><trkpt lat="63.92945862" lon="-18.73355293"><ele>620.7</ele><time>2012-07-24T20:08:54.0000000+00:00</time></trkpt><trkpt lat="63.92944336" lon="-18.73352814"><ele>621.5</ele><time>2012-07-24T20:08:59.0000000+00:00</time></trkpt><trkpt lat="63.92941666" lon="-18.73349571"><ele>621.5</ele><time>2012-07-24T20:09:04.0000000+00:00</time></trkpt><trkpt lat="63.92938614" lon="-18.73344421"><ele>621.6</ele><time>2012-07-24T20:09:09.0000000+00:00</time></trkpt><trkpt lat="63.92936707" lon="-18.73340035"><ele>620.9</ele><time>2012-07-24T20:09:14.0000000+00:00</time></trkpt><trkpt lat="63.92934418" lon="-18.73335266"><ele>620.8</ele><time>2012-07-24T20:09:19.0000000+00:00</time></trkpt><trkpt lat="63.92933655" lon="-18.7333374"><ele>621.0</ele><time>2012-07-24T20:09:24.0000000+00:00</time></trkpt><trkpt lat="63.92932892" lon="-18.7333355"><ele>621.0</ele><time>2012-07-24T20:09:29.0000000+00:00</time></trkpt><trkpt lat="63.92932892" lon="-18.7333355"><ele>621.0</ele><time>2012-07-24T20:09:34.0000000+00:00</time></trkpt><trkpt lat="63.92932892" lon="-18.7333355"><ele>621.0</ele><time>2012-07-24T20:09:39.0000000+00:00</time></trkpt><trkpt lat="63.9293251" lon="-18.7333355"><ele>621.0</ele><time>2012-07-24T20:09:44.0000000+00:00</time></trkpt><trkpt lat="63.9293251" lon="-18.73333168"><ele>621.1</ele><time>2012-07-24T20:09:49.0000000+00:00</time></trkpt><trkpt lat="63.92929077" lon="-18.73328972"><ele>621.1</ele><time>2012-07-24T20:09:54.0000000+00:00</time></trkpt><trkpt lat="63.92926025" lon="-18.7332592"><ele>620.9</ele><time>2012-07-24T20:09:59.0000000+00:00</time></trkpt><trkpt lat="63.92922974" lon="-18.73320389"><ele>621.5</ele><time>2012-07-24T20:10:04.0000000+00:00</time></trkpt><trkpt lat="63.92918015" lon="-18.73316383"><ele>622.0</ele><time>2012-07-24T20:10:09.0000000+00:00</time></trkpt><trkpt lat="63.92915344" lon="-18.73312187"><ele>622.2</ele><time>2012-07-24T20:10:14.0000000+00:00</time></trkpt><trkpt lat="63.92911911" lon="-18.7330513"><ele>622.9</ele><time>2012-07-24T20:10:19.0000000+00:00</time></trkpt><trkpt lat="63.92910004" lon="-18.73298645"><ele>624.3</ele><time>2012-07-24T20:10:24.0000000+00:00</time></trkpt><trkpt lat="63.92910004" lon="-18.73294449"><ele>625.5</ele><time>2012-07-24T20:10:29.0000000+00:00</time></trkpt><trkpt lat="63.92908859" lon="-18.73291588"><ele>625.9</ele><time>2012-07-24T20:10:34.0000000+00:00</time></trkpt><trkpt lat="63.9290657" lon="-18.73283386"><ele>627.0</ele><time>2012-07-24T20:10:39.0000000+00:00</time></trkpt><trkpt lat="63.929039" lon="-18.73278809"><ele>627.6</ele><time>2012-07-24T20:10:44.0000000+00:00</time></trkpt><trkpt lat="63.92901993" lon="-18.7327652"><ele>627.9</ele><time>2012-07-24T20:10:49.0000000+00:00</time></trkpt><trkpt lat="63.92898941" lon="-18.73271942"><ele>628.6</ele><time>2012-07-24T20:10:54.0000000+00:00</time></trkpt><trkpt lat="63.92897034" lon="-18.73265457"><ele>630.4</ele><time>2012-07-24T20:10:59.0000000+00:00</time></trkpt><trkpt lat="63.92894745" lon="-18.73257256"><ele>631.5</ele><time>2012-07-24T20:11:04.0000000+00:00</time></trkpt><trkpt lat="63.92892075" lon="-18.73256874"><ele>632.8</ele><time>2012-07-24T20:11:09.0000000+00:00</time></trkpt><trkpt lat="63.92892838" lon="-18.73256493"><ele>633.9</ele><time>2012-07-24T20:11:14.0000000+00:00</time></trkpt><trkpt lat="63.92892075" lon="-18.73255539"><ele>633.7</ele><time>2012-07-24T20:11:19.0000000+00:00</time></trkpt><trkpt lat="63.92892456" lon="-18.73256493"><ele>633.8</ele><time>2012-07-24T20:11:24.0000000+00:00</time></trkpt><trkpt lat="63.92892075" lon="-18.73254776"><ele>634.5</ele><time>2012-07-24T20:11:29.0000000+00:00</time></trkpt><trkpt lat="63.92887878" lon="-18.73250961"><ele>634.5</ele><time>2012-07-24T20:11:34.0000000+00:00</time></trkpt><trkpt lat="63.92884445" lon="-18.7324543"><ele>634.3</ele><time>2012-07-24T20:11:39.0000000+00:00</time></trkpt><trkpt lat="63.92883301" lon="-18.73236466"><ele>633.9</ele><time>2012-07-24T20:11:44.0000000+00:00</time></trkpt><trkpt lat="63.92882538" lon="-18.73236656"><ele>633.5</ele><time>2012-07-24T20:11:49.0000000+00:00</time></trkpt><trkpt lat="63.92882538" lon="-18.73236466"><ele>633.6</ele><time>2012-07-24T20:11:54.0000000+00:00</time></trkpt><trkpt lat="63.92882538" lon="-18.73236466"><ele>633.6</ele><time>2012-07-24T20:11:59.0000000+00:00</time></trkpt><trkpt lat="63.92882538" lon="-18.73236466"><ele>633.6</ele><time>2012-07-24T20:12:04.0000000+00:00</time></trkpt><trkpt lat="63.92882538" lon="-18.73236466"><ele>633.6</ele><time>2012-07-24T20:12:09.0000000+00:00</time></trkpt><trkpt lat="63.92882538" lon="-18.73236466"><ele>633.6</ele><time>2012-07-24T20:12:14.0000000+00:00</time></trkpt><trkpt lat="63.92882538" lon="-18.73236466"><ele>633.6</ele><time>2012-07-24T20:12:19.0000000+00:00</time></trkpt><trkpt lat="63.92882538" lon="-18.73236466"><ele>633.6</ele><time>2012-07-24T20:12:24.0000000+00:00</time></trkpt><trkpt lat="63.92882538" lon="-18.73236466"><ele>633.5</ele><time>2012-07-24T20:12:29.0000000+00:00</time></trkpt><trkpt lat="63.92880631" lon="-18.7323513"><ele>633.3</ele><time>2012-07-24T20:12:34.0000000+00:00</time></trkpt><trkpt lat="63.92877579" lon="-18.7322731"><ele>633.2</ele><time>2012-07-24T20:12:39.0000000+00:00</time></trkpt><trkpt lat="63.92874146" lon="-18.73220635"><ele>633.0</ele><time>2012-07-24T20:12:44.0000000+00:00</time></trkpt><trkpt lat="63.92871475" lon="-18.73213959"><ele>632.9</ele><time>2012-07-24T20:12:49.0000000+00:00</time></trkpt><trkpt lat="63.92868805" lon="-18.7321167"><ele>633.1</ele><time>2012-07-24T20:12:54.0000000+00:00</time></trkpt><trkpt lat="63.92867279" lon="-18.73204804"><ele>633.5</ele><time>2012-07-24T20:12:59.0000000+00:00</time></trkpt><trkpt lat="63.9286499" lon="-18.73200607"><ele>633.1</ele><time>2012-07-24T20:13:04.0000000+00:00</time></trkpt><trkpt lat="63.92861939" lon="-18.73195839"><ele>633.1</ele><time>2012-07-24T20:13:09.0000000+00:00</time></trkpt><trkpt lat="63.92860031" lon="-18.73194885"><ele>632.7</ele><time>2012-07-24T20:13:14.0000000+00:00</time></trkpt><trkpt lat="63.92857361" lon="-18.73189354"><ele>633.0</ele><time>2012-07-24T20:13:19.0000000+00:00</time></trkpt><trkpt lat="63.92853928" lon="-18.73184967"><ele>633.4</ele><time>2012-07-24T20:13:24.0000000+00:00</time></trkpt><trkpt lat="63.92849731" lon="-18.73175049"><ele>633.6</ele><time>2012-07-24T20:13:29.0000000+00:00</time></trkpt><trkpt lat="63.92847443" lon="-18.73164558"><ele>632.8</ele><time>2012-07-24T20:13:34.0000000+00:00</time></trkpt><trkpt lat="63.92846298" lon="-18.73153305"><ele>632.9</ele><time>2012-07-24T20:13:39.0000000+00:00</time></trkpt><trkpt lat="63.92847443" lon="-18.7314148"><ele>635.5</ele><time>2012-07-24T20:13:44.0000000+00:00</time></trkpt><trkpt lat="63.92850876" lon="-18.73128128"><ele>636.2</ele><time>2012-07-24T20:13:49.0000000+00:00</time></trkpt><trkpt lat="63.92852783" lon="-18.73116112"><ele>637.4</ele><time>2012-07-24T20:13:54.0000000+00:00</time></trkpt><trkpt lat="63.92856216" lon="-18.73107147"><ele>639.2</ele><time>2012-07-24T20:13:59.0000000+00:00</time></trkpt><trkpt lat="63.92860413" lon="-18.73099899"><ele>642.1</ele><time>2012-07-24T20:14:04.0000000+00:00</time></trkpt><trkpt lat="63.92864227" lon="-18.73095703"><ele>643.3</ele><time>2012-07-24T20:14:09.0000000+00:00</time></trkpt><trkpt lat="63.92868424" lon="-18.73089409"><ele>645.0</ele><time>2012-07-24T20:14:14.0000000+00:00</time></trkpt><trkpt lat="63.92872238" lon="-18.7308178"><ele>645.9</ele><time>2012-07-24T20:14:19.0000000+00:00</time></trkpt><trkpt lat="63.92873383" lon="-18.7307415"><ele>646.4</ele><time>2012-07-24T20:14:24.0000000+00:00</time></trkpt><trkpt lat="63.92873383" lon="-18.73073196"><ele>645.3</ele><time>2012-07-24T20:14:29.0000000+00:00</time></trkpt><trkpt lat="63.92873764" lon="-18.73075104"><ele>645.8</ele><time>2012-07-24T20:14:34.0000000+00:00</time></trkpt><trkpt lat="63.92878723" lon="-18.73063469"><ele>646.9</ele><time>2012-07-24T20:14:39.0000000+00:00</time></trkpt><trkpt lat="63.92886353" lon="-18.7305088"><ele>646.0</ele><time>2012-07-24T20:14:44.0000000+00:00</time></trkpt><trkpt lat="63.92893601" lon="-18.73035812"><ele>644.9</ele><time>2012-07-24T20:14:49.0000000+00:00</time></trkpt><trkpt lat="63.92902374" lon="-18.73020935"><ele>644.1</ele><time>2012-07-24T20:14:54.0000000+00:00</time></trkpt><trkpt lat="63.92909622" lon="-18.73001099"><ele>644.1</ele><time>2012-07-24T20:14:59.0000000+00:00</time></trkpt><trkpt lat="63.92914581" lon="-18.72984886"><ele>643.4</ele><time>2012-07-24T20:15:04.0000000+00:00</time></trkpt><trkpt lat="63.92917633" lon="-18.72980309"><ele>643.3</ele><time>2012-07-24T20:15:09.0000000+00:00</time></trkpt><trkpt lat="63.9291954" lon="-18.72971153"><ele>641.7</ele><time>2012-07-24T20:15:14.0000000+00:00</time></trkpt><trkpt lat="63.92924881" lon="-18.72958183"><ele>641.5</ele><time>2012-07-24T20:15:19.0000000+00:00</time></trkpt><trkpt lat="63.92931747" lon="-18.72941208"><ele>639.7</ele><time>2012-07-24T20:15:24.0000000+00:00</time></trkpt><trkpt lat="63.92942047" lon="-18.72916412"><ele>637.6</ele><time>2012-07-24T20:15:29.0000000+00:00</time></trkpt><trkpt lat="63.92959213" lon="-18.72890663"><ele>635.6</ele><time>2012-07-24T20:15:34.0000000+00:00</time></trkpt><trkpt lat="63.92983627" lon="-18.72854614"><ele>632.2</ele><time>2012-07-24T20:15:39.0000000+00:00</time></trkpt><trkpt lat="63.92999268" lon="-18.72821808"><ele>628.8</ele><time>2012-07-24T20:15:44.0000000+00:00</time></trkpt><trkpt lat="63.93008423" lon="-18.72794914"><ele>628.1</ele><time>2012-07-24T20:15:49.0000000+00:00</time></trkpt><trkpt lat="63.93013382" lon="-18.72777557"><ele>627.1</ele><time>2012-07-24T20:15:54.0000000+00:00</time></trkpt><trkpt lat="63.93014526" lon="-18.7275753"><ele>628.5</ele><time>2012-07-24T20:15:59.0000000+00:00</time></trkpt><trkpt lat="63.93016815" lon="-18.72738648"><ele>627.9</ele><time>2012-07-24T20:16:04.0000000+00:00</time></trkpt><trkpt lat="63.93019486" lon="-18.72714806"><ele>632.6</ele><time>2012-07-24T20:16:09.0000000+00:00</time></trkpt><trkpt lat="63.93021011" lon="-18.72707939"><ele>632.5</ele><time>2012-07-24T20:16:14.0000000+00:00</time></trkpt><trkpt lat="63.9302063" lon="-18.72708511"><ele>632.8</ele><time>2012-07-24T20:16:19.0000000+00:00</time></trkpt><trkpt lat="63.9302063" lon="-18.72708511"><ele>632.8</ele><time>2012-07-24T20:16:24.0000000+00:00</time></trkpt><trkpt lat="63.9302063" lon="-18.7270813"><ele>632.8</ele><time>2012-07-24T20:16:29.0000000+00:00</time></trkpt><trkpt lat="63.93021011" lon="-18.72707748"><ele>632.8</ele><time>2012-07-24T20:16:34.0000000+00:00</time></trkpt><trkpt lat="63.93021011" lon="-18.72706986"><ele>632.8</ele><time>2012-07-24T20:16:39.0000000+00:00</time></trkpt><trkpt lat="63.93021011" lon="-18.72707367"><ele>632.8</ele><time>2012-07-24T20:16:44.0000000+00:00</time></trkpt><trkpt lat="63.93021393" lon="-18.72706986"><ele>632.8</ele><time>2012-07-24T20:16:49.0000000+00:00</time></trkpt><trkpt lat="63.93022156" lon="-18.72701454"><ele>632.6</ele><time>2012-07-24T20:16:54.0000000+00:00</time></trkpt><trkpt lat="63.93022537" lon="-18.72694016"><ele>632.9</ele><time>2012-07-24T20:16:59.0000000+00:00</time></trkpt><trkpt lat="63.93022537" lon="-18.72685814"><ele>632.7</ele><time>2012-07-24T20:17:04.0000000+00:00</time></trkpt><trkpt lat="63.93022919" lon="-18.72685242"><ele>632.6</ele><time>2012-07-24T20:17:09.0000000+00:00</time></trkpt><trkpt lat="63.93022537" lon="-18.72680664"><ele>631.9</ele><time>2012-07-24T20:17:14.0000000+00:00</time></trkpt><trkpt lat="63.93021393" lon="-18.72665215"><ele>631.0</ele><time>2012-07-24T20:17:19.0000000+00:00</time></trkpt><trkpt lat="63.93014145" lon="-18.72634125"><ele>628.2</ele><time>2012-07-24T20:17:24.0000000+00:00</time></trkpt><trkpt lat="63.92999649" lon="-18.72596359"><ele>625.5</ele><time>2012-07-24T20:17:29.0000000+00:00</time></trkpt><trkpt lat="63.9299202" lon="-18.72579193"><ele>624.7</ele><time>2012-07-24T20:17:34.0000000+00:00</time></trkpt><trkpt lat="63.92985916" lon="-18.7256012"><ele>624.2</ele><time>2012-07-24T20:17:39.0000000+00:00</time></trkpt><trkpt lat="63.92977905" lon="-18.72545433"><ele>622.9</ele><time>2012-07-24T20:17:44.0000000+00:00</time></trkpt><trkpt lat="63.92969894" lon="-18.72528648"><ele>622.9</ele><time>2012-07-24T20:17:49.0000000+00:00</time></trkpt><trkpt lat="63.92962647" lon="-18.72512627"><ele>621.7</ele><time>2012-07-24T20:17:54.0000000+00:00</time></trkpt><trkpt lat="63.92955017" lon="-18.72495461"><ele>619.4</ele><time>2012-07-24T20:17:59.0000000+00:00</time></trkpt><trkpt lat="63.92942047" lon="-18.72460938"><ele>617.2</ele><time>2012-07-24T20:18:04.0000000+00:00</time></trkpt><trkpt lat="63.92932892" lon="-18.72434044"><ele>616.2</ele><time>2012-07-24T20:18:09.0000000+00:00</time></trkpt><trkpt lat="63.92926025" lon="-18.72414589"><ele>614.9</ele><time>2012-07-24T20:18:14.0000000+00:00</time></trkpt><trkpt lat="63.9291954" lon="-18.7239399"><ele>613.3</ele><time>2012-07-24T20:18:19.0000000+00:00</time></trkpt><trkpt lat="63.92913818" lon="-18.72377014"><ele>609.8</ele><time>2012-07-24T20:18:24.0000000+00:00</time></trkpt><trkpt lat="63.92909622" lon="-18.72355652"><ele>607.9</ele><time>2012-07-24T20:18:29.0000000+00:00</time></trkpt><trkpt lat="63.92904282" lon="-18.72332764"><ele>606.9</ele><time>2012-07-24T20:18:34.0000000+00:00</time></trkpt><trkpt lat="63.9289856" lon="-18.72306252"><ele>605.3</ele><time>2012-07-24T20:18:39.0000000+00:00</time></trkpt><trkpt lat="63.92893982" lon="-18.72278786"><ele>602.9</ele><time>2012-07-24T20:18:44.0000000+00:00</time></trkpt><trkpt lat="63.92891312" lon="-18.72253227"><ele>600.4</ele><time>2012-07-24T20:18:49.0000000+00:00</time></trkpt><trkpt lat="63.92889786" lon="-18.7222786"><ele>598.2</ele><time>2012-07-24T20:18:54.0000000+00:00</time></trkpt><trkpt lat="63.9288826" lon="-18.72200012"><ele>595.9</ele><time>2012-07-24T20:18:59.0000000+00:00</time></trkpt><trkpt lat="63.92885971" lon="-18.72180367"><ele>592.6</ele><time>2012-07-24T20:19:04.0000000+00:00</time></trkpt><trkpt lat="63.92886734" lon="-18.72174645"><ele>590.3</ele><time>2012-07-24T20:19:09.0000000+00:00</time></trkpt><trkpt lat="63.92887116" lon="-18.72172737"><ele>588.6</ele><time>2012-07-24T20:19:14.0000000+00:00</time></trkpt><trkpt lat="63.92886353" lon="-18.72174454"><ele>588.1</ele><time>2012-07-24T20:19:19.0000000+00:00</time></trkpt><trkpt lat="63.92885971" lon="-18.72174263"><ele>587.9</ele><time>2012-07-24T20:19:24.0000000+00:00</time></trkpt><trkpt lat="63.92887497" lon="-18.7217598"><ele>587.4</ele><time>2012-07-24T20:19:29.0000000+00:00</time></trkpt><trkpt lat="63.92887878" lon="-18.72175789"><ele>587.5</ele><time>2012-07-24T20:19:34.0000000+00:00</time></trkpt><trkpt lat="63.9288826" lon="-18.72175217"><ele>587.7</ele><time>2012-07-24T20:19:39.0000000+00:00</time></trkpt><trkpt lat="63.9288826" lon="-18.72175026"><ele>587.8</ele><time>2012-07-24T20:19:44.0000000+00:00</time></trkpt><trkpt lat="63.9288826" lon="-18.72175217"><ele>587.8</ele><time>2012-07-24T20:19:49.0000000+00:00</time></trkpt><trkpt lat="63.9288826" lon="-18.72175407"><ele>587.8</ele><time>2012-07-24T20:19:54.0000000+00:00</time></trkpt><trkpt lat="63.9288826" lon="-18.72175598"><ele>587.8</ele><time>2012-07-24T20:19:59.0000000+00:00</time></trkpt><trkpt lat="63.9288826" lon="-18.72175789"><ele>587.7</ele><time>2012-07-24T20:20:04.0000000+00:00</time></trkpt><trkpt lat="63.9288826" lon="-18.7217598"><ele>587.7</ele><time>2012-07-24T20:20:09.0000000+00:00</time></trkpt><trkpt lat="63.9288826" lon="-18.7217598"><ele>587.7</ele><time>2012-07-24T20:20:14.0000000+00:00</time></trkpt><trkpt lat="63.9288826" lon="-18.7217598"><ele>587.6</ele><time>2012-07-24T20:20:19.0000000+00:00</time></trkpt><trkpt lat="63.9288826" lon="-18.72176361"><ele>587.6</ele><time>2012-07-24T20:20:24.0000000+00:00</time></trkpt><trkpt lat="63.9288826" lon="-18.72176361"><ele>587.6</ele><time>2012-07-24T20:20:29.0000000+00:00</time></trkpt><trkpt lat="63.92887878" lon="-18.72176552"><ele>587.6</ele><time>2012-07-24T20:20:34.0000000+00:00</time></trkpt><trkpt lat="63.92887878" lon="-18.72176552"><ele>587.6</ele><time>2012-07-24T20:20:39.0000000+00:00</time></trkpt><trkpt lat="63.92887878" lon="-18.72176552"><ele>587.6</ele><time>2012-07-24T20:20:44.0000000+00:00</time></trkpt><trkpt lat="63.92887878" lon="-18.72176743"><ele>587.6</ele><time>2012-07-24T20:20:49.0000000+00:00</time></trkpt><trkpt lat="63.92887878" lon="-18.72176743"><ele>587.6</ele><time>2012-07-24T20:20:54.0000000+00:00</time></trkpt><trkpt lat="63.92887878" lon="-18.72176743"><ele>587.6</ele><time>2012-07-24T20:20:59.0000000+00:00</time></trkpt><trkpt lat="63.92887878" lon="-18.72176743"><ele>587.6</ele><time>2012-07-24T20:21:04.0000000+00:00</time></trkpt><trkpt lat="63.92887878" lon="-18.72176933"><ele>587.7</ele><time>2012-07-24T20:21:09.0000000+00:00</time></trkpt><trkpt lat="63.92887878" lon="-18.72176933"><ele>587.7</ele><time>2012-07-24T20:21:14.0000000+00:00</time></trkpt><trkpt lat="63.92887878" lon="-18.72176933"><ele>587.7</ele><time>2012-07-24T20:21:19.0000000+00:00</time></trkpt><trkpt lat="63.92887878" lon="-18.72176933"><ele>587.7</ele><time>2012-07-24T20:21:24.0000000+00:00</time></trkpt><trkpt lat="63.92887878" lon="-18.72177124"><ele>587.7</ele><time>2012-07-24T20:21:29.0000000+00:00</time></trkpt><trkpt lat="63.92887878" lon="-18.72177124"><ele>587.7</ele><time>2012-07-24T20:21:34.0000000+00:00</time></trkpt><trkpt lat="63.92887878" lon="-18.72177124"><ele>587.6</ele><time>2012-07-24T20:21:39.0000000+00:00</time></trkpt><trkpt lat="63.92887878" lon="-18.72177315"><ele>587.7</ele><time>2012-07-24T20:21:44.0000000+00:00</time></trkpt><trkpt lat="63.92887878" lon="-18.72177506"><ele>587.6</ele><time>2012-07-24T20:21:49.0000000+00:00</time></trkpt><trkpt lat="63.92887878" lon="-18.72177887"><ele>587.6</ele><time>2012-07-24T20:21:54.0000000+00:00</time></trkpt><trkpt lat="63.92887497" lon="-18.72179031"><ele>587.6</ele><time>2012-07-24T20:21:59.0000000+00:00</time></trkpt><trkpt lat="63.92887878" lon="-18.72179794"><ele>587.6</ele><time>2012-07-24T20:22:04.0000000+00:00</time></trkpt><trkpt lat="63.92887878" lon="-18.72180176"><ele>587.5</ele><time>2012-07-24T20:22:09.0000000+00:00</time></trkpt><trkpt lat="63.92887878" lon="-18.72180367"><ele>587.5</ele><time>2012-07-24T20:22:14.0000000+00:00</time></trkpt><trkpt lat="63.92887878" lon="-18.72180557"><ele>587.6</ele><time>2012-07-24T20:22:19.0000000+00:00</time></trkpt><trkpt lat="63.92887878" lon="-18.72180557"><ele>587.4</ele><time>2012-07-24T20:22:24.0000000+00:00</time></trkpt><trkpt lat="63.92886734" lon="-18.72180748"><ele>587.9</ele><time>2012-07-24T20:22:29.0000000+00:00</time></trkpt><trkpt lat="63.92886353" lon="-18.72180748"><ele>589.0</ele><time>2012-07-24T20:22:34.0000000+00:00</time></trkpt><trkpt lat="63.92885971" lon="-18.72182083"><ele>588.3</ele><time>2012-07-24T20:22:39.0000000+00:00</time></trkpt><trkpt lat="63.92886353" lon="-18.72184563"><ele>587.8</ele><time>2012-07-24T20:22:44.0000000+00:00</time></trkpt><trkpt lat="63.92886734" lon="-18.72185135"><ele>587.4</ele><time>2012-07-24T20:22:49.0000000+00:00</time></trkpt><trkpt lat="63.92887116" lon="-18.72186089"><ele>587.1</ele><time>2012-07-24T20:22:54.0000000+00:00</time></trkpt><trkpt lat="63.92886734" lon="-18.72189713"><ele>586.6</ele><time>2012-07-24T20:22:59.0000000+00:00</time></trkpt><trkpt lat="63.92886353" lon="-18.72190476"><ele>584.3</ele><time>2012-07-24T20:23:04.0000000+00:00</time></trkpt><trkpt lat="63.92885971" lon="-18.72192764"><ele>584.1</ele><time>2012-07-24T20:23:09.0000000+00:00</time></trkpt><trkpt lat="63.9288559" lon="-18.7219429"><ele>583.6</ele><time>2012-07-24T20:23:14.0000000+00:00</time></trkpt><trkpt lat="63.92886734" lon="-18.72196007"><ele>583.4</ele><time>2012-07-24T20:23:19.0000000+00:00</time></trkpt><trkpt lat="63.9288826" lon="-18.7220459"><ele>583.6</ele><time>2012-07-24T20:23:24.0000000+00:00</time></trkpt><trkpt lat="63.9288826" lon="-18.72200203"><ele>583.6</ele><time>2012-07-24T20:23:29.0000000+00:00</time></trkpt><trkpt lat="63.92889023" lon="-18.7220192"><ele>583.3</ele><time>2012-07-24T20:23:34.0000000+00:00</time></trkpt><trkpt lat="63.92888641" lon="-18.72203064"><ele>583.1</ele><time>2012-07-24T20:23:39.0000000+00:00</time></trkpt><trkpt lat="63.9288826" lon="-18.72204018"><ele>582.8</ele><time>2012-07-24T20:23:44.0000000+00:00</time></trkpt><trkpt lat="63.92888641" lon="-18.72203827"><ele>583.1</ele><time>2012-07-24T20:23:49.0000000+00:00</time></trkpt><trkpt lat="63.9288826" lon="-18.72205925"><ele>583.2</ele><time>2012-07-24T20:23:54.0000000+00:00</time></trkpt><trkpt lat="63.9288826" lon="-18.72205925"><ele>582.9</ele><time>2012-07-24T20:23:59.0000000+00:00</time></trkpt><trkpt lat="63.92887878" lon="-18.72205925"><ele>582.6</ele><time>2012-07-24T20:24:04.0000000+00:00</time></trkpt><trkpt lat="63.92887878" lon="-18.72206116"><ele>582.5</ele><time>2012-07-24T20:24:09.0000000+00:00</time></trkpt><trkpt lat="63.92887878" lon="-18.72205925"><ele>582.6</ele><time>2012-07-24T20:24:14.0000000+00:00</time></trkpt><trkpt lat="63.92887878" lon="-18.72205925"><ele>582.7</ele><time>2012-07-24T20:24:19.0000000+00:00</time></trkpt><trkpt lat="63.92887878" lon="-18.72205925"><ele>582.7</ele><time>2012-07-24T20:24:24.0000000+00:00</time></trkpt><trkpt lat="63.92887878" lon="-18.72205734"><ele>582.7</ele><time>2012-07-24T20:24:29.0000000+00:00</time></trkpt><trkpt lat="63.92887878" lon="-18.72205734"><ele>582.7</ele><time>2012-07-24T20:24:34.0000000+00:00</time></trkpt><trkpt lat="63.92887878" lon="-18.72205734"><ele>582.7</ele><time>2012-07-24T20:24:39.0000000+00:00</time></trkpt><trkpt lat="63.92887878" lon="-18.72205925"><ele>582.8</ele><time>2012-07-24T20:24:44.0000000+00:00</time></trkpt><trkpt lat="63.92887497" lon="-18.72205925"><ele>582.8</ele><time>2012-07-24T20:24:49.0000000+00:00</time></trkpt><trkpt lat="63.92887497" lon="-18.72204399"><ele>582.9</ele><time>2012-07-24T20:24:54.0000000+00:00</time></trkpt><trkpt lat="63.92887497" lon="-18.72204018"><ele>583.0</ele><time>2012-07-24T20:24:59.0000000+00:00</time></trkpt><trkpt lat="63.92887497" lon="-18.72204399"><ele>583.0</ele><time>2012-07-24T20:25:04.0000000+00:00</time></trkpt><trkpt lat="63.92887497" lon="-18.72204399"><ele>583.0</ele><time>2012-07-24T20:25:09.0000000+00:00</time></trkpt><trkpt lat="63.92887497" lon="-18.72204208"><ele>583.0</ele><time>2012-07-24T20:25:14.0000000+00:00</time></trkpt><trkpt lat="63.92887497" lon="-18.72204208"><ele>583.0</ele><time>2012-07-24T20:25:19.0000000+00:00</time></trkpt><trkpt lat="63.92887497" lon="-18.72204208"><ele>583.0</ele><time>2012-07-24T20:25:24.0000000+00:00</time></trkpt><trkpt lat="63.92887497" lon="-18.72204018"><ele>583.0</ele><time>2012-07-24T20:25:29.0000000+00:00</time></trkpt><trkpt lat="63.92887497" lon="-18.72204018"><ele>583.0</ele><time>2012-07-24T20:25:34.0000000+00:00</time></trkpt><trkpt lat="63.92887497" lon="-18.72203827"><ele>583.0</ele><time>2012-07-24T20:25:39.0000000+00:00</time></trkpt><trkpt lat="63.92887497" lon="-18.72203827"><ele>583.0</ele><time>2012-07-24T20:25:44.0000000+00:00</time></trkpt><trkpt lat="63.92887497" lon="-18.72203636"><ele>583.1</ele><time>2012-07-24T20:25:49.0000000+00:00</time></trkpt><trkpt lat="63.92887878" lon="-18.72203636"><ele>583.1</ele><time>2012-07-24T20:25:54.0000000+00:00</time></trkpt><trkpt lat="63.92887878" lon="-18.72203445"><ele>583.1</ele><time>2012-07-24T20:25:59.0000000+00:00</time></trkpt><trkpt lat="63.92887497" lon="-18.72203445"><ele>583.2</ele><time>2012-07-24T20:26:04.0000000+00:00</time></trkpt><trkpt lat="63.92887497" lon="-18.72203445"><ele>583.2</ele><time>2012-07-24T20:26:09.0000000+00:00</time></trkpt><trkpt lat="63.92887497" lon="-18.72203255"><ele>583.2</ele><time>2012-07-24T20:26:14.0000000+00:00</time></trkpt><trkpt lat="63.92887497" lon="-18.72203064"><ele>583.3</ele><time>2012-07-24T20:26:19.0000000+00:00</time></trkpt><trkpt lat="63.92886734" lon="-18.72194862"><ele>585.4</ele><time>2012-07-24T20:26:24.0000000+00:00</time></trkpt><trkpt lat="63.92886734" lon="-18.72191811"><ele>588.9</ele><time>2012-07-24T20:26:29.0000000+00:00</time></trkpt><trkpt lat="63.92886734" lon="-18.72191811"><ele>589.1</ele><time>2012-07-24T20:26:34.0000000+00:00</time></trkpt><trkpt lat="63.92886734" lon="-18.72187233"><ele>589.4</ele><time>2012-07-24T20:26:39.0000000+00:00</time></trkpt><trkpt lat="63.92886734" lon="-18.72185135"><ele>590.1</ele><time>2012-07-24T20:26:44.0000000+00:00</time></trkpt><trkpt lat="63.92887116" lon="-18.72184563"><ele>590.1</ele><time>2012-07-24T20:26:49.0000000+00:00</time></trkpt><trkpt lat="63.92887116" lon="-18.72180176"><ele>590.9</ele><time>2012-07-24T20:26:54.0000000+00:00</time></trkpt><trkpt lat="63.92887878" lon="-18.72176552"><ele>590.6</ele><time>2012-07-24T20:26:59.0000000+00:00</time></trkpt><trkpt lat="63.92887878" lon="-18.72169876"><ele>590.5</ele><time>2012-07-24T20:27:04.0000000+00:00</time></trkpt><trkpt lat="63.92887497" lon="-18.72163582"><ele>589.6</ele><time>2012-07-24T20:27:09.0000000+00:00</time></trkpt><trkpt lat="63.92886353" lon="-18.72153854"><ele>588.7</ele><time>2012-07-24T20:27:14.0000000+00:00</time></trkpt><trkpt lat="63.9288559" lon="-18.72149277"><ele>587.1</ele><time>2012-07-24T20:27:19.0000000+00:00</time></trkpt><trkpt lat="63.92884064" lon="-18.72144699"><ele>584.8</ele><time>2012-07-24T20:27:24.0000000+00:00</time></trkpt><trkpt lat="63.92880631" lon="-18.72124863"><ele>582.8</ele><time>2012-07-24T20:27:29.0000000+00:00</time></trkpt><trkpt lat="63.92878723" lon="-18.72109413"><ele>579.6</ele><time>2012-07-24T20:27:34.0000000+00:00</time></trkpt><trkpt lat="63.9287529" lon="-18.72095871"><ele>577.7</ele><time>2012-07-24T20:27:39.0000000+00:00</time></trkpt><trkpt lat="63.9287529" lon="-18.72074699"><ele>576.7</ele><time>2012-07-24T20:27:44.0000000+00:00</time></trkpt><trkpt lat="63.92874908" lon="-18.72052383"><ele>574.0</ele><time>2012-07-24T20:27:49.0000000+00:00</time></trkpt><trkpt lat="63.9287796" lon="-18.7202816"><ele>571.6</ele><time>2012-07-24T20:27:54.0000000+00:00</time></trkpt><trkpt lat="63.9288826" lon="-18.71994782"><ele>567.8</ele><time>2012-07-24T20:27:59.0000000+00:00</time></trkpt><trkpt lat="63.92895508" lon="-18.71965599"><ele>569.6</ele><time>2012-07-24T20:28:04.0000000+00:00</time></trkpt><trkpt lat="63.92900848" lon="-18.7194519"><ele>568.7</ele><time>2012-07-24T20:28:09.0000000+00:00</time></trkpt><trkpt lat="63.9290657" lon="-18.71925926"><ele>567.7</ele><time>2012-07-24T20:28:14.0000000+00:00</time></trkpt><trkpt lat="63.9290657" lon="-18.71912193"><ele>567.4</ele><time>2012-07-24T20:28:19.0000000+00:00</time></trkpt><trkpt lat="63.9290657" lon="-18.71904182"><ele>568.5</ele><time>2012-07-24T20:28:24.0000000+00:00</time></trkpt><trkpt lat="63.92903137" lon="-18.71889496"><ele>567.9</ele><time>2012-07-24T20:28:29.0000000+00:00</time></trkpt><trkpt lat="63.92896271" lon="-18.71877861"><ele>567.2</ele><time>2012-07-24T20:28:34.0000000+00:00</time></trkpt><trkpt lat="63.92890549" lon="-18.71867752"><ele>566.3</ele><time>2012-07-24T20:28:39.0000000+00:00</time></trkpt><trkpt lat="63.9288559" lon="-18.71860123"><ele>565.8</ele><time>2012-07-24T20:28:44.0000000+00:00</time></trkpt><trkpt lat="63.92879486" lon="-18.71853828"><ele>565.1</ele><time>2012-07-24T20:28:49.0000000+00:00</time></trkpt><trkpt lat="63.92873764" lon="-18.71846962"><ele>565.2</ele><time>2012-07-24T20:28:54.0000000+00:00</time></trkpt><trkpt lat="63.9286499" lon="-18.71841049"><ele>565.4</ele><time>2012-07-24T20:28:59.0000000+00:00</time></trkpt><trkpt lat="63.92855454" lon="-18.71831894"><ele>565.9</ele><time>2012-07-24T20:29:04.0000000+00:00</time></trkpt><trkpt lat="63.9284668" lon="-18.71824455"><ele>566.7</ele><time>2012-07-24T20:29:09.0000000+00:00</time></trkpt><trkpt lat="63.9283905" lon="-18.71813965"><ele>567.3</ele><time>2012-07-24T20:29:14.0000000+00:00</time></trkpt><trkpt lat="63.92832565" lon="-18.71803093"><ele>568.9</ele><time>2012-07-24T20:29:19.0000000+00:00</time></trkpt><trkpt lat="63.9282608" lon="-18.71793175"><ele>568.8</ele><time>2012-07-24T20:29:24.0000000+00:00</time></trkpt><trkpt lat="63.92818832" lon="-18.71777725"><ele>569.0</ele><time>2012-07-24T20:29:29.0000000+00:00</time></trkpt><trkpt lat="63.92812347" lon="-18.71764374"><ele>569.2</ele><time>2012-07-24T20:29:34.0000000+00:00</time></trkpt><trkpt lat="63.92805862" lon="-18.71753502"><ele>569.1</ele><time>2012-07-24T20:29:39.0000000+00:00</time></trkpt><trkpt lat="63.92800522" lon="-18.71743584"><ele>568.9</ele><time>2012-07-24T20:29:44.0000000+00:00</time></trkpt><trkpt lat="63.92793274" lon="-18.7172966"><ele>567.4</ele><time>2012-07-24T20:29:49.0000000+00:00</time></trkpt><trkpt lat="63.92785263" lon="-18.71710587"><ele>567.9</ele><time>2012-07-24T20:29:54.0000000+00:00</time></trkpt><trkpt lat="63.92778015" lon="-18.71691513"><ele>567.4</ele><time>2012-07-24T20:29:59.0000000+00:00</time></trkpt><trkpt lat="63.92772675" lon="-18.71674347"><ele>568.2</ele><time>2012-07-24T20:30:04.0000000+00:00</time></trkpt><trkpt lat="63.92768478" lon="-18.71653366"><ele>567.8</ele><time>2012-07-24T20:30:09.0000000+00:00</time></trkpt><trkpt lat="63.92764282" lon="-18.71626663"><ele>568.0</ele><time>2012-07-24T20:30:14.0000000+00:00</time></trkpt><trkpt lat="63.92760086" lon="-18.71601296"><ele>569.5</ele><time>2012-07-24T20:30:19.0000000+00:00</time></trkpt><trkpt lat="63.92756653" lon="-18.71575737"><ele>570.8</ele><time>2012-07-24T20:30:24.0000000+00:00</time></trkpt><trkpt lat="63.92752457" lon="-18.7155323"><ele>569.9</ele><time>2012-07-24T20:30:29.0000000+00:00</time></trkpt><trkpt lat="63.92747879" lon="-18.71527481"><ele>570.5</ele><time>2012-07-24T20:30:34.0000000+00:00</time></trkpt><trkpt lat="63.92741776" lon="-18.71500969"><ele>567.9</ele><time>2012-07-24T20:30:39.0000000+00:00</time></trkpt><trkpt lat="63.92736435" lon="-18.71477699"><ele>568.3</ele><time>2012-07-24T20:30:44.0000000+00:00</time></trkpt><trkpt lat="63.92729569" lon="-18.71456337"><ele>566.5</ele><time>2012-07-24T20:30:49.0000000+00:00</time></trkpt><trkpt lat="63.92722702" lon="-18.71432495"><ele>567.2</ele><time>2012-07-24T20:30:54.0000000+00:00</time></trkpt><trkpt lat="63.92715454" lon="-18.71416283"><ele>565.4</ele><time>2012-07-24T20:30:59.0000000+00:00</time></trkpt><trkpt lat="63.92709732" lon="-18.71396446"><ele>567.3</ele><time>2012-07-24T20:31:04.0000000+00:00</time></trkpt><trkpt lat="63.92703629" lon="-18.71376991"><ele>567.4</ele><time>2012-07-24T20:31:09.0000000+00:00</time></trkpt><trkpt lat="63.92698669" lon="-18.71354103"><ele>568.5</ele><time>2012-07-24T20:31:14.0000000+00:00</time></trkpt><trkpt lat="63.9269371" lon="-18.71330261"><ele>571.7</ele><time>2012-07-24T20:31:19.0000000+00:00</time></trkpt><trkpt lat="63.92689896" lon="-18.71304703"><ele>573.3</ele><time>2012-07-24T20:31:24.0000000+00:00</time></trkpt><trkpt lat="63.926857" lon="-18.71278381"><ele>574.2</ele><time>2012-07-24T20:31:29.0000000+00:00</time></trkpt><trkpt lat="63.9268074" lon="-18.71256638"><ele>576.2</ele><time>2012-07-24T20:31:34.0000000+00:00</time></trkpt><trkpt lat="63.92675781" lon="-18.71233559"><ele>576.8</ele><time>2012-07-24T20:31:39.0000000+00:00</time></trkpt><trkpt lat="63.92669296" lon="-18.71214867"><ele>575.3</ele><time>2012-07-24T20:31:44.0000000+00:00</time></trkpt><trkpt lat="63.9266243" lon="-18.71196938"><ele>575.9</ele><time>2012-07-24T20:31:49.0000000+00:00</time></trkpt><trkpt lat="63.92655945" lon="-18.71174049"><ele>576.2</ele><time>2012-07-24T20:31:54.0000000+00:00</time></trkpt><trkpt lat="63.92651367" lon="-18.71152306"><ele>576.2</ele><time>2012-07-24T20:31:59.0000000+00:00</time></trkpt><trkpt lat="63.9264679" lon="-18.7113266"><ele>576.3</ele><time>2012-07-24T20:32:04.0000000+00:00</time></trkpt><trkpt lat="63.92642212" lon="-18.71112061"><ele>575.5</ele><time>2012-07-24T20:32:09.0000000+00:00</time></trkpt><trkpt lat="63.92639923" lon="-18.71089745"><ele>576.8</ele><time>2012-07-24T20:32:14.0000000+00:00</time></trkpt><trkpt lat="63.92636108" lon="-18.7106781"><ele>578.3</ele><time>2012-07-24T20:32:19.0000000+00:00</time></trkpt><trkpt lat="63.9263382" lon="-18.71045876"><ele>580.4</ele><time>2012-07-24T20:32:24.0000000+00:00</time></trkpt><trkpt lat="63.92632675" lon="-18.71024895"><ele>579.5</ele><time>2012-07-24T20:32:29.0000000+00:00</time></trkpt><trkpt lat="63.92636108" lon="-18.70997238"><ele>575.6</ele><time>2012-07-24T20:32:34.0000000+00:00</time></trkpt><trkpt lat="63.92640305" lon="-18.70976639"><ele>573.3</ele><time>2012-07-24T20:32:39.0000000+00:00</time></trkpt><trkpt lat="63.92646027" lon="-18.70954514"><ele>574.4</ele><time>2012-07-24T20:32:44.0000000+00:00</time></trkpt><trkpt lat="63.92651749" lon="-18.70929909"><ele>572.2</ele><time>2012-07-24T20:32:49.0000000+00:00</time></trkpt><trkpt lat="63.92657471" lon="-18.7090683"><ele>570.2</ele><time>2012-07-24T20:32:54.0000000+00:00</time></trkpt><trkpt lat="63.92660523" lon="-18.70886612"><ele>570.2</ele><time>2012-07-24T20:32:59.0000000+00:00</time></trkpt><trkpt lat="63.9266777" lon="-18.70856667"><ele>571.0</ele><time>2012-07-24T20:33:04.0000000+00:00</time></trkpt><trkpt lat="63.92677307" lon="-18.70832825"><ele>571.6</ele><time>2012-07-24T20:33:09.0000000+00:00</time></trkpt><trkpt lat="63.92686081" lon="-18.70807648"><ele>571.5</ele><time>2012-07-24T20:33:14.0000000+00:00</time></trkpt><trkpt lat="63.92695236" lon="-18.70783615"><ele>571.8</ele><time>2012-07-24T20:33:19.0000000+00:00</time></trkpt><trkpt lat="63.92703247" lon="-18.70758057"><ele>571.1</ele><time>2012-07-24T20:33:24.0000000+00:00</time></trkpt><trkpt lat="63.92710495" lon="-18.70730019"><ele>569.2</ele><time>2012-07-24T20:33:29.0000000+00:00</time></trkpt><trkpt lat="63.9271965" lon="-18.70702171"><ele>568.9</ele><time>2012-07-24T20:33:34.0000000+00:00</time></trkpt><trkpt lat="63.92729187" lon="-18.70675087"><ele>569.6</ele><time>2012-07-24T20:33:39.0000000+00:00</time></trkpt><trkpt lat="63.92736435" lon="-18.70645332"><ele>572.1</ele><time>2012-07-24T20:33:44.0000000+00:00</time></trkpt><trkpt lat="63.92741394" lon="-18.70614433"><ele>573.5</ele><time>2012-07-24T20:33:49.0000000+00:00</time></trkpt><trkpt lat="63.92744446" lon="-18.70590401"><ele>574.5</ele><time>2012-07-24T20:33:54.0000000+00:00</time></trkpt><trkpt lat="63.92745972" lon="-18.70567513"><ele>575.2</ele><time>2012-07-24T20:33:59.0000000+00:00</time></trkpt><trkpt lat="63.92746735" lon="-18.70553207"><ele>575.3</ele><time>2012-07-24T20:34:04.0000000+00:00</time></trkpt><trkpt lat="63.92746735" lon="-18.70534325"><ele>576.6</ele><time>2012-07-24T20:34:09.0000000+00:00</time></trkpt><trkpt lat="63.92747116" lon="-18.70510864"><ele>577.9</ele><time>2012-07-24T20:34:14.0000000+00:00</time></trkpt><trkpt lat="63.92747116" lon="-18.70486832"><ele>578.8</ele><time>2012-07-24T20:34:19.0000000+00:00</time></trkpt><trkpt lat="63.92747116" lon="-18.70463753"><ele>580.0</ele><time>2012-07-24T20:34:24.0000000+00:00</time></trkpt><trkpt lat="63.9274559" lon="-18.70448875"><ele>578.4</ele><time>2012-07-24T20:34:29.0000000+00:00</time></trkpt><trkpt lat="63.92743301" lon="-18.70430565"><ele>577.9</ele><time>2012-07-24T20:34:34.0000000+00:00</time></trkpt><trkpt lat="63.92737579" lon="-18.70415115"><ele>578.9</ele><time>2012-07-24T20:34:39.0000000+00:00</time></trkpt><trkpt lat="63.92730331" lon="-18.70394516"><ele>579.2</ele><time>2012-07-24T20:34:44.0000000+00:00</time></trkpt><trkpt lat="63.92721558" lon="-18.70380783"><ele>577.2</ele><time>2012-07-24T20:34:49.0000000+00:00</time></trkpt><trkpt lat="63.92714691" lon="-18.70365334"><ele>576.8</ele><time>2012-07-24T20:34:54.0000000+00:00</time></trkpt><trkpt lat="63.92708969" lon="-18.70354462"><ele>574.7</ele><time>2012-07-24T20:34:59.0000000+00:00</time></trkpt><trkpt lat="63.92705154" lon="-18.70347786"><ele>576.0</ele><time>2012-07-24T20:35:04.0000000+00:00</time></trkpt><trkpt lat="63.92705917" lon="-18.70348167"><ele>575.6</ele><time>2012-07-24T20:35:09.0000000+00:00</time></trkpt><trkpt lat="63.92705917" lon="-18.70347023"><ele>575.4</ele><time>2012-07-24T20:35:14.0000000+00:00</time></trkpt><trkpt lat="63.92705917" lon="-18.70346832"><ele>575.4</ele><time>2012-07-24T20:35:19.0000000+00:00</time></trkpt><trkpt lat="63.92705917" lon="-18.70346832"><ele>575.4</ele><time>2012-07-24T20:35:24.0000000+00:00</time></trkpt><trkpt lat="63.92705917" lon="-18.70346832"><ele>575.3</ele><time>2012-07-24T20:35:29.0000000+00:00</time></trkpt><trkpt lat="63.92705917" lon="-18.70346832"><ele>575.3</ele><time>2012-07-24T20:35:34.0000000+00:00</time></trkpt><trkpt lat="63.92705917" lon="-18.70347595"><ele>575.3</ele><time>2012-07-24T20:35:39.0000000+00:00</time></trkpt><trkpt lat="63.92705917" lon="-18.7034874"><ele>575.7</ele><time>2012-07-24T20:35:44.0000000+00:00</time></trkpt><trkpt lat="63.92705917" lon="-18.7034893"><ele>575.7</ele><time>2012-07-24T20:35:49.0000000+00:00</time></trkpt><trkpt lat="63.92705917" lon="-18.7034893"><ele>575.7</ele><time>2012-07-24T20:35:54.0000000+00:00</time></trkpt><trkpt lat="63.92705917" lon="-18.7034893"><ele>575.7</ele><time>2012-07-24T20:35:59.0000000+00:00</time></trkpt><trkpt lat="63.92705917" lon="-18.7034893"><ele>575.7</ele><time>2012-07-24T20:36:04.0000000+00:00</time></trkpt><trkpt lat="63.92705917" lon="-18.70349121"><ele>575.6</ele><time>2012-07-24T20:36:09.0000000+00:00</time></trkpt><trkpt lat="63.92702866" lon="-18.70345306"><ele>575.6</ele><time>2012-07-24T20:36:14.0000000+00:00</time></trkpt><trkpt lat="63.92694473" lon="-18.70339394"><ele>575.3</ele><time>2012-07-24T20:36:19.0000000+00:00</time></trkpt><trkpt lat="63.926857" lon="-18.70337296"><ele>575.3</ele><time>2012-07-24T20:36:24.0000000+00:00</time></trkpt><trkpt lat="63.92676163" lon="-18.7033329"><ele>575.0</ele><time>2012-07-24T20:36:29.0000000+00:00</time></trkpt><trkpt lat="63.92668152" lon="-18.70329094"><ele>575.1</ele><time>2012-07-24T20:36:34.0000000+00:00</time></trkpt><trkpt lat="63.92660141" lon="-18.70325661"><ele>574.2</ele><time>2012-07-24T20:36:39.0000000+00:00</time></trkpt><trkpt lat="63.9265976" lon="-18.70323372"><ele>574.0</ele><time>2012-07-24T20:36:44.0000000+00:00</time></trkpt><trkpt lat="63.92658615" lon="-18.70329666"><ele>572.8</ele><time>2012-07-24T20:36:49.0000000+00:00</time></trkpt><trkpt lat="63.92653275" lon="-18.70331764"><ele>573.3</ele><time>2012-07-24T20:36:54.0000000+00:00</time></trkpt><trkpt lat="63.92647934" lon="-18.70332527"><ele>573.7</ele><time>2012-07-24T20:36:59.0000000+00:00</time></trkpt><trkpt lat="63.92641068" lon="-18.70329666"><ele>575.0</ele><time>2012-07-24T20:37:04.0000000+00:00</time></trkpt><trkpt lat="63.92635346" lon="-18.70327759"><ele>575.8</ele><time>2012-07-24T20:37:09.0000000+00:00</time></trkpt><trkpt lat="63.92634583" lon="-18.70328713"><ele>575.1</ele><time>2012-07-24T20:37:14.0000000+00:00</time></trkpt><trkpt lat="63.92640686" lon="-18.70326805"><ele>574.7</ele><time>2012-07-24T20:37:19.0000000+00:00</time></trkpt><trkpt lat="63.92645645" lon="-18.70330238"><ele>573.8</ele><time>2012-07-24T20:37:24.0000000+00:00</time></trkpt><trkpt lat="63.92650604" lon="-18.70331001"><ele>574.2</ele><time>2012-07-24T20:37:29.0000000+00:00</time></trkpt><trkpt lat="63.92650986" lon="-18.7033062"><ele>574.0</ele><time>2012-07-24T20:37:34.0000000+00:00</time></trkpt><trkpt lat="63.92653656" lon="-18.70326614"><ele>575.5</ele><time>2012-07-24T20:37:39.0000000+00:00</time></trkpt><trkpt lat="63.9265976" lon="-18.70323753"><ele>575.2</ele><time>2012-07-24T20:37:44.0000000+00:00</time></trkpt><trkpt lat="63.92660141" lon="-18.70324326"><ele>574.8</ele><time>2012-07-24T20:37:49.0000000+00:00</time></trkpt><trkpt lat="63.92661285" lon="-18.70318604"><ele>573.6</ele><time>2012-07-24T20:37:54.0000000+00:00</time></trkpt><trkpt lat="63.92662811" lon="-18.70307159"><ele>573.3</ele><time>2012-07-24T20:37:59.0000000+00:00</time></trkpt><trkpt lat="63.92663193" lon="-18.70295525"><ele>572.1</ele><time>2012-07-24T20:38:04.0000000+00:00</time></trkpt><trkpt lat="63.92662811" lon="-18.70282173"><ele>573.3</ele><time>2012-07-24T20:38:09.0000000+00:00</time></trkpt><trkpt lat="63.92661667" lon="-18.7027626"><ele>574.3</ele><time>2012-07-24T20:38:14.0000000+00:00</time></trkpt><trkpt lat="63.92661667" lon="-18.70276642"><ele>575.6</ele><time>2012-07-24T20:38:19.0000000+00:00</time></trkpt><trkpt lat="63.92658615" lon="-18.7026825"><ele>576.4</ele><time>2012-07-24T20:38:24.0000000+00:00</time></trkpt><trkpt lat="63.92653275" lon="-18.70254517"><ele>576.9</ele><time>2012-07-24T20:38:29.0000000+00:00</time></trkpt><trkpt lat="63.92647553" lon="-18.70236969"><ele>577.4</ele><time>2012-07-24T20:38:34.0000000+00:00</time></trkpt><trkpt lat="63.92641068" lon="-18.7022171"><ele>578.1</ele><time>2012-07-24T20:38:39.0000000+00:00</time></trkpt><trkpt lat="63.9263649" lon="-18.70203972"><ele>578.7</ele><time>2012-07-24T20:38:44.0000000+00:00</time></trkpt><trkpt lat="63.92632675" lon="-18.70184135"><ele>579.6</ele><time>2012-07-24T20:38:49.0000000+00:00</time></trkpt><trkpt lat="63.92630005" lon="-18.70159721"><ele>580.4</ele><time>2012-07-24T20:38:54.0000000+00:00</time></trkpt><trkpt lat="63.92628479" lon="-18.70143318"><ele>580.5</ele><time>2012-07-24T20:38:59.0000000+00:00</time></trkpt><trkpt lat="63.92623901" lon="-18.70131874"><ele>579.8</ele><time>2012-07-24T20:39:04.0000000+00:00</time></trkpt><trkpt lat="63.92617798" lon="-18.70121193"><ele>579.9</ele><time>2012-07-24T20:39:09.0000000+00:00</time></trkpt><trkpt lat="63.92616653" lon="-18.70118523"><ele>578.7</ele><time>2012-07-24T20:39:14.0000000+00:00</time></trkpt><trkpt lat="63.92617035" lon="-18.70115852"><ele>578.4</ele><time>2012-07-24T20:39:19.0000000+00:00</time></trkpt><trkpt lat="63.92617035" lon="-18.70115662"><ele>578.4</ele><time>2012-07-24T20:39:24.0000000+00:00</time></trkpt><trkpt lat="63.92617035" lon="-18.70115089"><ele>578.4</ele><time>2012-07-24T20:39:29.0000000+00:00</time></trkpt><trkpt lat="63.92617035" lon="-18.70115852"><ele>578.1</ele><time>2012-07-24T20:39:34.0000000+00:00</time></trkpt><trkpt lat="63.92612457" lon="-18.70111084"><ele>577.8</ele><time>2012-07-24T20:39:39.0000000+00:00</time></trkpt><trkpt lat="63.92607498" lon="-18.70103264"><ele>578.6</ele><time>2012-07-24T20:39:44.0000000+00:00</time></trkpt><trkpt lat="63.92602158" lon="-18.70096397"><ele>578.6</ele><time>2012-07-24T20:39:49.0000000+00:00</time></trkpt><trkpt lat="63.92596054" lon="-18.7008934"><ele>577.9</ele><time>2012-07-24T20:39:54.0000000+00:00</time></trkpt><trkpt lat="63.92591095" lon="-18.70083237"><ele>578.0</ele><time>2012-07-24T20:39:59.0000000+00:00</time></trkpt><trkpt lat="63.92586136" lon="-18.7007885"><ele>578.5</ele><time>2012-07-24T20:40:04.0000000+00:00</time></trkpt><trkpt lat="63.92584229" lon="-18.70079231"><ele>578.3</ele><time>2012-07-24T20:40:09.0000000+00:00</time></trkpt><trkpt lat="63.9258194" lon="-18.70076942"><ele>578.2</ele><time>2012-07-24T20:40:14.0000000+00:00</time></trkpt><trkpt lat="63.92578125" lon="-18.7007637"><ele>578.3</ele><time>2012-07-24T20:40:19.0000000+00:00</time></trkpt><trkpt lat="63.92573929" lon="-18.70074081"><ele>578.6</ele><time>2012-07-24T20:40:24.0000000+00:00</time></trkpt><trkpt lat="63.92570114" lon="-18.70071411"><ele>579.9</ele><time>2012-07-24T20:40:29.0000000+00:00</time></trkpt><trkpt lat="63.92567444" lon="-18.70069122"><ele>580.3</ele><time>2012-07-24T20:40:34.0000000+00:00</time></trkpt><trkpt lat="63.92566681" lon="-18.70068932"><ele>579.1</ele><time>2012-07-24T20:40:39.0000000+00:00</time></trkpt><trkpt lat="63.92566681" lon="-18.70070076"><ele>578.3</ele><time>2012-07-24T20:40:44.0000000+00:00</time></trkpt><trkpt lat="63.92563629" lon="-18.70070648"><ele>578.4</ele><time>2012-07-24T20:40:49.0000000+00:00</time></trkpt><trkpt lat="63.92560196" lon="-18.70067596"><ele>578.7</ele><time>2012-07-24T20:40:54.0000000+00:00</time></trkpt><trkpt lat="63.92557144" lon="-18.70065498"><ele>579.1</ele><time>2012-07-24T20:40:59.0000000+00:00</time></trkpt><trkpt lat="63.92552948" lon="-18.70062447"><ele>579.5</ele><time>2012-07-24T20:41:04.0000000+00:00</time></trkpt><trkpt lat="63.92549896" lon="-18.70059967"><ele>579.8</ele><time>2012-07-24T20:41:09.0000000+00:00</time></trkpt><trkpt lat="63.92547226" lon="-18.70059586"><ele>579.2</ele><time>2012-07-24T20:41:14.0000000+00:00</time></trkpt><trkpt lat="63.9254303" lon="-18.70056534"><ele>579.1</ele><time>2012-07-24T20:41:19.0000000+00:00</time></trkpt><trkpt lat="63.92539978" lon="-18.70056534"><ele>579.5</ele><time>2012-07-24T20:41:24.0000000+00:00</time></trkpt><trkpt lat="63.92539597" lon="-18.70057678"><ele>578.8</ele><time>2012-07-24T20:41:29.0000000+00:00</time></trkpt><trkpt lat="63.92536545" lon="-18.70056534"><ele>578.4</ele><time>2012-07-24T20:41:34.0000000+00:00</time></trkpt><trkpt lat="63.92531967" lon="-18.70053864"><ele>578.1</ele><time>2012-07-24T20:41:39.0000000+00:00</time></trkpt><trkpt lat="63.92528153" lon="-18.70052719"><ele>579.2</ele><time>2012-07-24T20:41:44.0000000+00:00</time></trkpt><trkpt lat="63.92524719" lon="-18.70051575"><ele>580.2</ele><time>2012-07-24T20:41:49.0000000+00:00</time></trkpt><trkpt lat="63.92522049" lon="-18.70049858"><ele>580.9</ele><time>2012-07-24T20:41:54.0000000+00:00</time></trkpt><trkpt lat="63.92520142" lon="-18.7005043"><ele>580.2</ele><time>2012-07-24T20:41:59.0000000+00:00</time></trkpt><trkpt lat="63.92520142" lon="-18.70050621"><ele>580.3</ele><time>2012-07-24T20:42:04.0000000+00:00</time></trkpt><trkpt lat="63.92520142" lon="-18.70050621"><ele>580.1</ele><time>2012-07-24T20:42:09.0000000+00:00</time></trkpt><trkpt lat="63.92520142" lon="-18.70050621"><ele>580.1</ele><time>2012-07-24T20:42:14.0000000+00:00</time></trkpt><trkpt lat="63.92520142" lon="-18.70050621"><ele>580.1</ele><time>2012-07-24T20:42:19.0000000+00:00</time></trkpt><trkpt lat="63.92517853" lon="-18.70049858"><ele>580.0</ele><time>2012-07-24T20:42:24.0000000+00:00</time></trkpt><trkpt lat="63.92515945" lon="-18.70050621"><ele>580.3</ele><time>2012-07-24T20:42:29.0000000+00:00</time></trkpt><trkpt lat="63.92513275" lon="-18.70048142"><ele>580.5</ele><time>2012-07-24T20:42:34.0000000+00:00</time></trkpt><trkpt lat="63.92509842" lon="-18.70046806"><ele>581.5</ele><time>2012-07-24T20:42:39.0000000+00:00</time></trkpt><trkpt lat="63.9250679" lon="-18.70046043"><ele>583.3</ele><time>2012-07-24T20:42:44.0000000+00:00</time></trkpt><trkpt lat="63.92505646" lon="-18.70045471"><ele>582.3</ele><time>2012-07-24T20:42:49.0000000+00:00</time></trkpt><trkpt lat="63.92506027" lon="-18.70045471"><ele>582.3</ele><time>2012-07-24T20:42:54.0000000+00:00</time></trkpt><trkpt lat="63.9250412" lon="-18.70045471"><ele>582.5</ele><time>2012-07-24T20:42:59.0000000+00:00</time></trkpt><trkpt lat="63.9250145" lon="-18.70044708"><ele>582.9</ele><time>2012-07-24T20:43:04.0000000+00:00</time></trkpt><trkpt lat="63.92499542" lon="-18.70043182"><ele>583.0</ele><time>2012-07-24T20:43:09.0000000+00:00</time></trkpt><trkpt lat="63.92497253" lon="-18.70041847"><ele>582.4</ele><time>2012-07-24T20:43:14.0000000+00:00</time></trkpt><trkpt lat="63.92494202" lon="-18.70040703"><ele>583.0</ele><time>2012-07-24T20:43:19.0000000+00:00</time></trkpt><trkpt lat="63.92491531" lon="-18.70036697"><ele>584.6</ele><time>2012-07-24T20:43:24.0000000+00:00</time></trkpt><trkpt lat="63.92487717" lon="-18.7003479"><ele>585.5</ele><time>2012-07-24T20:43:29.0000000+00:00</time></trkpt><trkpt lat="63.92488098" lon="-18.70034599"><ele>586.1</ele><time>2012-07-24T20:43:34.0000000+00:00</time></trkpt><trkpt lat="63.92488098" lon="-18.70034599"><ele>586.1</ele><time>2012-07-24T20:43:39.0000000+00:00</time></trkpt><trkpt lat="63.92488098" lon="-18.70034599"><ele>586.1</ele><time>2012-07-24T20:43:44.0000000+00:00</time></trkpt><trkpt lat="63.92488098" lon="-18.70034409"><ele>586.1</ele><time>2012-07-24T20:43:49.0000000+00:00</time></trkpt><trkpt lat="63.92488098" lon="-18.70034409"><ele>586.1</ele><time>2012-07-24T20:43:54.0000000+00:00</time></trkpt><trkpt lat="63.92488098" lon="-18.70034409"><ele>586.2</ele><time>2012-07-24T20:43:59.0000000+00:00</time></trkpt><trkpt lat="63.92485809" lon="-18.70033073"><ele>586.3</ele><time>2012-07-24T20:44:04.0000000+00:00</time></trkpt><trkpt lat="63.92481232" lon="-18.70030785"><ele>587.6</ele><time>2012-07-24T20:44:09.0000000+00:00</time></trkpt><trkpt lat="63.92477036" lon="-18.70026398"><ele>590.3</ele><time>2012-07-24T20:44:14.0000000+00:00</time></trkpt><trkpt lat="63.92473602" lon="-18.70021629"><ele>591.5</ele><time>2012-07-24T20:44:19.0000000+00:00</time></trkpt><trkpt lat="63.92471314" lon="-18.7001915"><ele>593.1</ele><time>2012-07-24T20:44:24.0000000+00:00</time></trkpt><trkpt lat="63.92469025" lon="-18.70014"><ele>594.4</ele><time>2012-07-24T20:44:29.0000000+00:00</time></trkpt><trkpt lat="63.92468643" lon="-18.70014572"><ele>594.7</ele><time>2012-07-24T20:44:34.0000000+00:00</time></trkpt><trkpt lat="63.92466736" lon="-18.70009995"><ele>596.2</ele><time>2012-07-24T20:44:39.0000000+00:00</time></trkpt><trkpt lat="63.9246521" lon="-18.70010567"><ele>596.2</ele><time>2012-07-24T20:44:44.0000000+00:00</time></trkpt><trkpt lat="63.9246521" lon="-18.7001133"><ele>596.2</ele><time>2012-07-24T20:44:49.0000000+00:00</time></trkpt><trkpt lat="63.9246521" lon="-18.7001133"><ele>596.2</ele><time>2012-07-24T20:44:54.0000000+00:00</time></trkpt><trkpt lat="63.92464829" lon="-18.70013046"><ele>596.5</ele><time>2012-07-24T20:44:59.0000000+00:00</time></trkpt><trkpt lat="63.92462921" lon="-18.70010567"><ele>597.1</ele><time>2012-07-24T20:45:04.0000000+00:00</time></trkpt><trkpt lat="63.92459488" lon="-18.70009041"><ele>597.7</ele><time>2012-07-24T20:45:09.0000000+00:00</time></trkpt><trkpt lat="63.92457199" lon="-18.70011711"><ele>598.9</ele><time>2012-07-24T20:45:14.0000000+00:00</time></trkpt><trkpt lat="63.92454529" lon="-18.70013237"><ele>599.9</ele><time>2012-07-24T20:45:19.0000000+00:00</time></trkpt><trkpt lat="63.92453384" lon="-18.7000885"><ele>601.4</ele><time>2012-07-24T20:45:24.0000000+00:00</time></trkpt><trkpt lat="63.92452622" lon="-18.70007706"><ele>602.1</ele><time>2012-07-24T20:45:29.0000000+00:00</time></trkpt><trkpt lat="63.92451477" lon="-18.70007896"><ele>602.7</ele><time>2012-07-24T20:45:34.0000000+00:00</time></trkpt><trkpt lat="63.92451096" lon="-18.70007706"><ele>603.4</ele><time>2012-07-24T20:45:39.0000000+00:00</time></trkpt><trkpt lat="63.92450714" lon="-18.70008087"><ele>604.3</ele><time>2012-07-24T20:45:44.0000000+00:00</time></trkpt><trkpt lat="63.92449188" lon="-18.70005608"><ele>605.0</ele><time>2012-07-24T20:45:49.0000000+00:00</time></trkpt><trkpt lat="63.92446137" lon="-18.70004273"><ele>605.0</ele><time>2012-07-24T20:45:54.0000000+00:00</time></trkpt><trkpt lat="63.92443848" lon="-18.69999695"><ele>604.5</ele><time>2012-07-24T20:45:59.0000000+00:00</time></trkpt><trkpt lat="63.92441559" lon="-18.69994736"><ele>605.5</ele><time>2012-07-24T20:46:04.0000000+00:00</time></trkpt><trkpt lat="63.92439652" lon="-18.69991493"><ele>605.7</ele><time>2012-07-24T20:46:09.0000000+00:00</time></trkpt><trkpt lat="63.92438126" lon="-18.69989586"><ele>606.1</ele><time>2012-07-24T20:46:14.0000000+00:00</time></trkpt><trkpt lat="63.92437744" lon="-18.69990349"><ele>606.4</ele><time>2012-07-24T20:46:19.0000000+00:00</time></trkpt><trkpt lat="63.92437744" lon="-18.6999054"><ele>606.4</ele><time>2012-07-24T20:46:24.0000000+00:00</time></trkpt><trkpt lat="63.92437744" lon="-18.6999054"><ele>606.3</ele><time>2012-07-24T20:46:29.0000000+00:00</time></trkpt><trkpt lat="63.92437744" lon="-18.69990349"><ele>606.3</ele><time>2012-07-24T20:46:34.0000000+00:00</time></trkpt><trkpt lat="63.92435837" lon="-18.69986916"><ele>605.9</ele><time>2012-07-24T20:46:39.0000000+00:00</time></trkpt><trkpt lat="63.92433167" lon="-18.69981957"><ele>605.9</ele><time>2012-07-24T20:46:44.0000000+00:00</time></trkpt><trkpt lat="63.92429352" lon="-18.69979477"><ele>606.0</ele><time>2012-07-24T20:46:49.0000000+00:00</time></trkpt><trkpt lat="63.92425537" lon="-18.69975281"><ele>605.5</ele><time>2012-07-24T20:46:54.0000000+00:00</time></trkpt><trkpt lat="63.92423248" lon="-18.69969368"><ele>605.6</ele><time>2012-07-24T20:46:59.0000000+00:00</time></trkpt><trkpt lat="63.92419052" lon="-18.69966507"><ele>605.0</ele><time>2012-07-24T20:47:04.0000000+00:00</time></trkpt><trkpt lat="63.92415619" lon="-18.69965553"><ele>605.0</ele><time>2012-07-24T20:47:09.0000000+00:00</time></trkpt><trkpt lat="63.9241066" lon="-18.69961739"><ele>604.8</ele><time>2012-07-24T20:47:14.0000000+00:00</time></trkpt><trkpt lat="63.92406464" lon="-18.69957924"><ele>603.8</ele><time>2012-07-24T20:47:19.0000000+00:00</time></trkpt><trkpt lat="63.9240303" lon="-18.69959641"><ele>603.2</ele><time>2012-07-24T20:47:24.0000000+00:00</time></trkpt><trkpt lat="63.92402268" lon="-18.69958496"><ele>603.5</ele><time>2012-07-24T20:47:29.0000000+00:00</time></trkpt><trkpt lat="63.9240303" lon="-18.69955063"><ele>603.4</ele><time>2012-07-24T20:47:34.0000000+00:00</time></trkpt><trkpt lat="63.92399979" lon="-18.69953919"><ele>603.5</ele><time>2012-07-24T20:47:39.0000000+00:00</time></trkpt><trkpt lat="63.92396545" lon="-18.69953728"><ele>603.5</ele><time>2012-07-24T20:47:44.0000000+00:00</time></trkpt><trkpt lat="63.92392731" lon="-18.69951248"><ele>604.8</ele><time>2012-07-24T20:47:49.0000000+00:00</time></trkpt><trkpt lat="63.92388916" lon="-18.6995163"><ele>604.6</ele><time>2012-07-24T20:47:54.0000000+00:00</time></trkpt><trkpt lat="63.92385101" lon="-18.69952965"><ele>605.4</ele><time>2012-07-24T20:47:59.0000000+00:00</time></trkpt><trkpt lat="63.92383957" lon="-18.69949913"><ele>607.4</ele><time>2012-07-24T20:48:04.0000000+00:00</time></trkpt><trkpt lat="63.92383957" lon="-18.69950485"><ele>607.7</ele><time>2012-07-24T20:48:09.0000000+00:00</time></trkpt><trkpt lat="63.92384338" lon="-18.69950867"><ele>607.8</ele><time>2012-07-24T20:48:14.0000000+00:00</time></trkpt><trkpt lat="63.9238205" lon="-18.69952202"><ele>608.0</ele><time>2012-07-24T20:48:19.0000000+00:00</time></trkpt><trkpt lat="63.92378998" lon="-18.69949913"><ele>608.0</ele><time>2012-07-24T20:48:24.0000000+00:00</time></trkpt><trkpt lat="63.92376328" lon="-18.69949532"><ele>607.4</ele><time>2012-07-24T20:48:29.0000000+00:00</time></trkpt><trkpt lat="63.92374039" lon="-18.69949913"><ele>607.3</ele><time>2012-07-24T20:48:34.0000000+00:00</time></trkpt><trkpt lat="63.92373657" lon="-18.69950104"><ele>607.1</ele><time>2012-07-24T20:48:39.0000000+00:00</time></trkpt><trkpt lat="63.92373276" lon="-18.69950295"><ele>607.1</ele><time>2012-07-24T20:48:44.0000000+00:00</time></trkpt><trkpt lat="63.92372894" lon="-18.69949913"><ele>606.8</ele><time>2012-07-24T20:48:49.0000000+00:00</time></trkpt><trkpt lat="63.92369843" lon="-18.69950867"><ele>606.8</ele><time>2012-07-24T20:48:54.0000000+00:00</time></trkpt><trkpt lat="63.92366028" lon="-18.69952583"><ele>606.6</ele><time>2012-07-24T20:48:59.0000000+00:00</time></trkpt><trkpt lat="63.92362976" lon="-18.6995182"><ele>607.3</ele><time>2012-07-24T20:49:04.0000000+00:00</time></trkpt><trkpt lat="63.9235878" lon="-18.69953919"><ele>608.1</ele><time>2012-07-24T20:49:09.0000000+00:00</time></trkpt><trkpt lat="63.92355347" lon="-18.69956207"><ele>607.9</ele><time>2012-07-24T20:49:14.0000000+00:00</time></trkpt><trkpt lat="63.92354202" lon="-18.69956207"><ele>608.6</ele><time>2012-07-24T20:49:19.0000000+00:00</time></trkpt><trkpt lat="63.92353058" lon="-18.69956398"><ele>608.8</ele><time>2012-07-24T20:49:24.0000000+00:00</time></trkpt><trkpt lat="63.92347336" lon="-18.69962502"><ele>609.2</ele><time>2012-07-24T20:49:29.0000000+00:00</time></trkpt><trkpt lat="63.92342758" lon="-18.69966888"><ele>609.3</ele><time>2012-07-24T20:49:34.0000000+00:00</time></trkpt><trkpt lat="63.92338944" lon="-18.6996975"><ele>609.6</ele><time>2012-07-24T20:49:39.0000000+00:00</time></trkpt><trkpt lat="63.92335892" lon="-18.69969368"><ele>609.8</ele><time>2012-07-24T20:49:44.0000000+00:00</time></trkpt><trkpt lat="63.92335129" lon="-18.69969368"><ele>610.6</ele><time>2012-07-24T20:49:49.0000000+00:00</time></trkpt><trkpt lat="63.92334747" lon="-18.69971085"><ele>610.8</ele><time>2012-07-24T20:49:54.0000000+00:00</time></trkpt><trkpt lat="63.92335129" lon="-18.69972611"><ele>611.0</ele><time>2012-07-24T20:49:59.0000000+00:00</time></trkpt><trkpt lat="63.92335129" lon="-18.69972611"><ele>611.3</ele><time>2012-07-24T20:50:04.0000000+00:00</time></trkpt><trkpt lat="63.92335129" lon="-18.6997242"><ele>611.3</ele><time>2012-07-24T20:50:09.0000000+00:00</time></trkpt><trkpt lat="63.92335129" lon="-18.6997242"><ele>611.4</ele><time>2012-07-24T20:50:14.0000000+00:00</time></trkpt><trkpt lat="63.92335129" lon="-18.6997242"><ele>611.4</ele><time>2012-07-24T20:50:19.0000000+00:00</time></trkpt><trkpt lat="63.92333984" lon="-18.69972611"><ele>612.0</ele><time>2012-07-24T20:50:24.0000000+00:00</time></trkpt><trkpt lat="63.92329788" lon="-18.69968796"><ele>613.3</ele><time>2012-07-24T20:50:29.0000000+00:00</time></trkpt><trkpt lat="63.92329025" lon="-18.69968605"><ele>613.4</ele><time>2012-07-24T20:50:34.0000000+00:00</time></trkpt><trkpt lat="63.92327118" lon="-18.69964409"><ele>613.7</ele><time>2012-07-24T20:50:39.0000000+00:00</time></trkpt><trkpt lat="63.92324448" lon="-18.6995697"><ele>614.1</ele><time>2012-07-24T20:50:44.0000000+00:00</time></trkpt><trkpt lat="63.92320633" lon="-18.69953728"><ele>614.3</ele><time>2012-07-24T20:50:49.0000000+00:00</time></trkpt><trkpt lat="63.92319489" lon="-18.69952202"><ele>614.4</ele><time>2012-07-24T20:50:54.0000000+00:00</time></trkpt><trkpt lat="63.92316437" lon="-18.69947815"><ele>614.5</ele><time>2012-07-24T20:50:59.0000000+00:00</time></trkpt><trkpt lat="63.92314911" lon="-18.6994133"><ele>615.4</ele><time>2012-07-24T20:51:04.0000000+00:00</time></trkpt><trkpt lat="63.92313385" lon="-18.69939041"><ele>615.6</ele><time>2012-07-24T20:51:09.0000000+00:00</time></trkpt><trkpt lat="63.92311859" lon="-18.69937515"><ele>616.1</ele><time>2012-07-24T20:51:14.0000000+00:00</time></trkpt><trkpt lat="63.92311859" lon="-18.69935417"><ele>615.9</ele><time>2012-07-24T20:51:19.0000000+00:00</time></trkpt><trkpt lat="63.92312241" lon="-18.69935799"><ele>615.7</ele><time>2012-07-24T20:51:24.0000000+00:00</time></trkpt><trkpt lat="63.92312622" lon="-18.69934654"><ele>615.6</ele><time>2012-07-24T20:51:29.0000000+00:00</time></trkpt><trkpt lat="63.92312622" lon="-18.69934654"><ele>615.6</ele><time>2012-07-24T20:51:34.0000000+00:00</time></trkpt><trkpt lat="63.92312622" lon="-18.69934845"><ele>615.8</ele><time>2012-07-24T20:51:39.0000000+00:00</time></trkpt><trkpt lat="63.92312622" lon="-18.69934845"><ele>615.8</ele><time>2012-07-24T20:51:44.0000000+00:00</time></trkpt><trkpt lat="63.92312622" lon="-18.69934845"><ele>615.8</ele><time>2012-07-24T20:51:49.0000000+00:00</time></trkpt><trkpt lat="63.92312622" lon="-18.69934845"><ele>615.8</ele><time>2012-07-24T20:51:54.0000000+00:00</time></trkpt><trkpt lat="63.92312622" lon="-18.69934845"><ele>615.8</ele><time>2012-07-24T20:51:59.0000000+00:00</time></trkpt><trkpt lat="63.92310715" lon="-18.69935608"><ele>615.6</ele><time>2012-07-24T20:52:04.0000000+00:00</time></trkpt><trkpt lat="63.92308807" lon="-18.69935417"><ele>616.1</ele><time>2012-07-24T20:52:09.0000000+00:00</time></trkpt><trkpt lat="63.92304611" lon="-18.69932175"><ele>616.3</ele><time>2012-07-24T20:52:14.0000000+00:00</time></trkpt><trkpt lat="63.9230423" lon="-18.69931221"><ele>616.0</ele><time>2012-07-24T20:52:19.0000000+00:00</time></trkpt><trkpt lat="63.9230423" lon="-18.69932747"><ele>615.8</ele><time>2012-07-24T20:52:24.0000000+00:00</time></trkpt><trkpt lat="63.9230423" lon="-18.69932747"><ele>615.8</ele><time>2012-07-24T20:52:29.0000000+00:00</time></trkpt><trkpt lat="63.9230423" lon="-18.69932747"><ele>615.8</ele><time>2012-07-24T20:52:34.0000000+00:00</time></trkpt><trkpt lat="63.9230423" lon="-18.69932747"><ele>615.8</ele><time>2012-07-24T20:52:39.0000000+00:00</time></trkpt><trkpt lat="63.9230423" lon="-18.69932747"><ele>615.8</ele><time>2012-07-24T20:52:44.0000000+00:00</time></trkpt><trkpt lat="63.9230423" lon="-18.69932556"><ele>615.8</ele><time>2012-07-24T20:52:49.0000000+00:00</time></trkpt><trkpt lat="63.9230423" lon="-18.69932556"><ele>615.8</ele><time>2012-07-24T20:52:54.0000000+00:00</time></trkpt><trkpt lat="63.9230423" lon="-18.69932556"><ele>615.8</ele><time>2012-07-24T20:52:59.0000000+00:00</time></trkpt><trkpt lat="63.92300797" lon="-18.69924355"><ele>616.2</ele><time>2012-07-24T20:53:04.0000000+00:00</time></trkpt><trkpt lat="63.92298889" lon="-18.69919395"><ele>615.8</ele><time>2012-07-24T20:53:09.0000000+00:00</time></trkpt><trkpt lat="63.92296982" lon="-18.69913292"><ele>617.0</ele><time>2012-07-24T20:53:14.0000000+00:00</time></trkpt><trkpt lat="63.92295837" lon="-18.69909477"><ele>618.0</ele><time>2012-07-24T20:53:19.0000000+00:00</time></trkpt><trkpt lat="63.92293167" lon="-18.69908142"><ele>618.6</ele><time>2012-07-24T20:53:24.0000000+00:00</time></trkpt><trkpt lat="63.92290497" lon="-18.69906044"><ele>617.7</ele><time>2012-07-24T20:53:29.0000000+00:00</time></trkpt><trkpt lat="63.92287827" lon="-18.69903565"><ele>617.9</ele><time>2012-07-24T20:53:34.0000000+00:00</time></trkpt><trkpt lat="63.92285156" lon="-18.69897461"><ele>617.8</ele><time>2012-07-24T20:53:39.0000000+00:00</time></trkpt><trkpt lat="63.92284012" lon="-18.6989708"><ele>617.9</ele><time>2012-07-24T20:53:44.0000000+00:00</time></trkpt><trkpt lat="63.92284012" lon="-18.69896126"><ele>617.7</ele><time>2012-07-24T20:53:49.0000000+00:00</time></trkpt><trkpt lat="63.92281342" lon="-18.69891739"><ele>617.7</ele><time>2012-07-24T20:53:54.0000000+00:00</time></trkpt><trkpt lat="63.92277527" lon="-18.6988678"><ele>618.0</ele><time>2012-07-24T20:53:59.0000000+00:00</time></trkpt><trkpt lat="63.92274094" lon="-18.69883156"><ele>618.2</ele><time>2012-07-24T20:54:04.0000000+00:00</time></trkpt><trkpt lat="63.92271423" lon="-18.69875908"><ele>619.1</ele><time>2012-07-24T20:54:09.0000000+00:00</time></trkpt><trkpt lat="63.92271805" lon="-18.69870758"><ele>620.8</ele><time>2012-07-24T20:54:14.0000000+00:00</time></trkpt><trkpt lat="63.92269898" lon="-18.69864273"><ele>622.7</ele><time>2012-07-24T20:54:19.0000000+00:00</time></trkpt><trkpt lat="63.92269516" lon="-18.69855309"><ele>624.8</ele><time>2012-07-24T20:54:24.0000000+00:00</time></trkpt><trkpt lat="63.92266083" lon="-18.69846535"><ele>627.0</ele><time>2012-07-24T20:54:29.0000000+00:00</time></trkpt><trkpt lat="63.92264175" lon="-18.69841194"><ele>627.9</ele><time>2012-07-24T20:54:34.0000000+00:00</time></trkpt><trkpt lat="63.92261887" lon="-18.69834709"><ele>629.1</ele><time>2012-07-24T20:54:39.0000000+00:00</time></trkpt><trkpt lat="63.9225769" lon="-18.69829369"><ele>631.0</ele><time>2012-07-24T20:54:44.0000000+00:00</time></trkpt><trkpt lat="63.92255402" lon="-18.69824982"><ele>633.4</ele><time>2012-07-24T20:54:49.0000000+00:00</time></trkpt><trkpt lat="63.92253113" lon="-18.69822121"><ele>633.8</ele><time>2012-07-24T20:54:54.0000000+00:00</time></trkpt><trkpt lat="63.92250061" lon="-18.69816589"><ele>634.6</ele><time>2012-07-24T20:54:59.0000000+00:00</time></trkpt><trkpt lat="63.92246628" lon="-18.6981144"><ele>635.2</ele><time>2012-07-24T20:55:04.0000000+00:00</time></trkpt><trkpt lat="63.92243576" lon="-18.69807243"><ele>635.9</ele><time>2012-07-24T20:55:09.0000000+00:00</time></trkpt><trkpt lat="63.92240524" lon="-18.69802284"><ele>636.8</ele><time>2012-07-24T20:55:14.0000000+00:00</time></trkpt><trkpt lat="63.9223671" lon="-18.69796944"><ele>636.8</ele><time>2012-07-24T20:55:19.0000000+00:00</time></trkpt><trkpt lat="63.92233276" lon="-18.6979332"><ele>636.1</ele><time>2012-07-24T20:55:24.0000000+00:00</time></trkpt><trkpt lat="63.92233658" lon="-18.69794464"><ele>634.0</ele><time>2012-07-24T20:55:29.0000000+00:00</time></trkpt><trkpt lat="63.92233276" lon="-18.6979599"><ele>632.8</ele><time>2012-07-24T20:55:34.0000000+00:00</time></trkpt><trkpt lat="63.92230225" lon="-18.69791794"><ele>632.5</ele><time>2012-07-24T20:55:39.0000000+00:00</time></trkpt><trkpt lat="63.92226791" lon="-18.69790077"><ele>632.3</ele><time>2012-07-24T20:55:44.0000000+00:00</time></trkpt><trkpt lat="63.92224503" lon="-18.69789124"><ele>633.3</ele><time>2012-07-24T20:55:49.0000000+00:00</time></trkpt><trkpt lat="63.92224884" lon="-18.69789314"><ele>633.7</ele><time>2012-07-24T20:55:54.0000000+00:00</time></trkpt><trkpt lat="63.92224884" lon="-18.69790077"><ele>633.9</ele><time>2012-07-24T20:55:59.0000000+00:00</time></trkpt><trkpt lat="63.92221451" lon="-18.69788551"><ele>634.5</ele><time>2012-07-24T20:56:04.0000000+00:00</time></trkpt><trkpt lat="63.92216873" lon="-18.69786644"><ele>634.7</ele><time>2012-07-24T20:56:09.0000000+00:00</time></trkpt><trkpt lat="63.92211533" lon="-18.69782639"><ele>634.5</ele><time>2012-07-24T20:56:14.0000000+00:00</time></trkpt><trkpt lat="63.92206192" lon="-18.69776917"><ele>636.5</ele><time>2012-07-24T20:56:19.0000000+00:00</time></trkpt><trkpt lat="63.92201233" lon="-18.69773102"><ele>636.2</ele><time>2012-07-24T20:56:24.0000000+00:00</time></trkpt><trkpt lat="63.92195129" lon="-18.69768333"><ele>635.4</ele><time>2012-07-24T20:56:29.0000000+00:00</time></trkpt><trkpt lat="63.9219017" lon="-18.69766426"><ele>634.5</ele><time>2012-07-24T20:56:34.0000000+00:00</time></trkpt><trkpt lat="63.9218483" lon="-18.69763374"><ele>634.4</ele><time>2012-07-24T20:56:39.0000000+00:00</time></trkpt><trkpt lat="63.92179871" lon="-18.69761276"><ele>632.9</ele><time>2012-07-24T20:56:44.0000000+00:00</time></trkpt><trkpt lat="63.92174149" lon="-18.69758987"><ele>631.9</ele><time>2012-07-24T20:56:49.0000000+00:00</time></trkpt><trkpt lat="63.92168045" lon="-18.69756126"><ele>630.7</ele><time>2012-07-24T20:56:54.0000000+00:00</time></trkpt><trkpt lat="63.92162705" lon="-18.69750977"><ele>630.6</ele><time>2012-07-24T20:56:59.0000000+00:00</time></trkpt><trkpt lat="63.92156982" lon="-18.69744873"><ele>631.0</ele><time>2012-07-24T20:57:04.0000000+00:00</time></trkpt><trkpt lat="63.92152023" lon="-18.69741058"><ele>630.8</ele><time>2012-07-24T20:57:09.0000000+00:00</time></trkpt><trkpt lat="63.92146683" lon="-18.6973362"><ele>632.4</ele><time>2012-07-24T20:57:14.0000000+00:00</time></trkpt><trkpt lat="63.92142105" lon="-18.69726181"><ele>633.6</ele><time>2012-07-24T20:57:19.0000000+00:00</time></trkpt><trkpt lat="63.92137528" lon="-18.69720841"><ele>634.0</ele><time>2012-07-24T20:57:24.0000000+00:00</time></trkpt><trkpt lat="63.92133713" lon="-18.69714165"><ele>634.5</ele><time>2012-07-24T20:57:29.0000000+00:00</time></trkpt><trkpt lat="63.92129135" lon="-18.69708443"><ele>636.2</ele><time>2012-07-24T20:57:34.0000000+00:00</time></trkpt><trkpt lat="63.92124939" lon="-18.69702339"><ele>635.8</ele><time>2012-07-24T20:57:39.0000000+00:00</time></trkpt><trkpt lat="63.92121124" lon="-18.69694138"><ele>636.3</ele><time>2012-07-24T20:57:44.0000000+00:00</time></trkpt><trkpt lat="63.92116165" lon="-18.69688416"><ele>636.7</ele><time>2012-07-24T20:57:49.0000000+00:00</time></trkpt><trkpt lat="63.92112351" lon="-18.6968441"><ele>638.5</ele><time>2012-07-24T20:57:54.0000000+00:00</time></trkpt><trkpt lat="63.92109299" lon="-18.69677544"><ele>638.9</ele><time>2012-07-24T20:57:59.0000000+00:00</time></trkpt><trkpt lat="63.92105103" lon="-18.69672012"><ele>638.3</ele><time>2012-07-24T20:58:04.0000000+00:00</time></trkpt><trkpt lat="63.92101288" lon="-18.69668579"><ele>639.0</ele><time>2012-07-24T20:58:09.0000000+00:00</time></trkpt><trkpt lat="63.92097092" lon="-18.69669342"><ele>640.3</ele><time>2012-07-24T20:58:14.0000000+00:00</time></trkpt><trkpt lat="63.9209404" lon="-18.69667244"><ele>641.3</ele><time>2012-07-24T20:58:19.0000000+00:00</time></trkpt><trkpt lat="63.92089081" lon="-18.69667625"><ele>639.4</ele><time>2012-07-24T20:58:24.0000000+00:00</time></trkpt><trkpt lat="63.92086792" lon="-18.69667053"><ele>639.5</ele><time>2012-07-24T20:58:29.0000000+00:00</time></trkpt><trkpt lat="63.92087174" lon="-18.69667244"><ele>638.6</ele><time>2012-07-24T20:58:34.0000000+00:00</time></trkpt><trkpt lat="63.92087174" lon="-18.69667244"><ele>638.6</ele><time>2012-07-24T20:58:39.0000000+00:00</time></trkpt><trkpt lat="63.92086411" lon="-18.69668007"><ele>638.4</ele><time>2012-07-24T20:58:44.0000000+00:00</time></trkpt><trkpt lat="63.9208374" lon="-18.69670677"><ele>637.4</ele><time>2012-07-24T20:58:49.0000000+00:00</time></trkpt><trkpt lat="63.92082596" lon="-18.69673157"><ele>636.8</ele><time>2012-07-24T20:58:54.0000000+00:00</time></trkpt><trkpt lat="63.92081451" lon="-18.69678307"><ele>636.3</ele><time>2012-07-24T20:58:59.0000000+00:00</time></trkpt><trkpt lat="63.9208107" lon="-18.69676209"><ele>634.5</ele><time>2012-07-24T20:59:04.0000000+00:00</time></trkpt><trkpt lat="63.9208107" lon="-18.69676209"><ele>634.5</ele><time>2012-07-24T20:59:09.0000000+00:00</time></trkpt><trkpt lat="63.92080689" lon="-18.69676399"><ele>634.5</ele><time>2012-07-24T20:59:14.0000000+00:00</time></trkpt><trkpt lat="63.92080689" lon="-18.69676399"><ele>634.5</ele><time>2012-07-24T20:59:19.0000000+00:00</time></trkpt><trkpt lat="63.92080689" lon="-18.6967659"><ele>634.5</ele><time>2012-07-24T20:59:24.0000000+00:00</time></trkpt><trkpt lat="63.920784" lon="-18.6967926"><ele>634.6</ele><time>2012-07-24T20:59:29.0000000+00:00</time></trkpt><trkpt lat="63.92073441" lon="-18.69688606"><ele>634.6</ele><time>2012-07-24T20:59:34.0000000+00:00</time></trkpt><trkpt lat="63.92069244" lon="-18.6969738"><ele>633.7</ele><time>2012-07-24T20:59:39.0000000+00:00</time></trkpt><trkpt lat="63.92069244" lon="-18.6970253"><ele>633.9</ele><time>2012-07-24T20:59:44.0000000+00:00</time></trkpt><trkpt lat="63.92063904" lon="-18.69716263"><ele>634.3</ele><time>2012-07-24T20:59:49.0000000+00:00</time></trkpt><trkpt lat="63.920578" lon="-18.69734573"><ele>633.5</ele><time>2012-07-24T20:59:54.0000000+00:00</time></trkpt><trkpt lat="63.92050934" lon="-18.69755554"><ele>634.0</ele><time>2012-07-24T20:59:59.0000000+00:00</time></trkpt><trkpt lat="63.92046738" lon="-18.69771195"><ele>634.6</ele><time>2012-07-24T21:00:04.0000000+00:00</time></trkpt><trkpt lat="63.92042923" lon="-18.69784546"><ele>635.3</ele><time>2012-07-24T21:00:09.0000000+00:00</time></trkpt><trkpt lat="63.92040634" lon="-18.69800186"><ele>636.4</ele><time>2012-07-24T21:00:14.0000000+00:00</time></trkpt><trkpt lat="63.92035675" lon="-18.69810867"><ele>637.3</ele><time>2012-07-24T21:00:19.0000000+00:00</time></trkpt><trkpt lat="63.92031097" lon="-18.69829369"><ele>638.7</ele><time>2012-07-24T21:00:24.0000000+00:00</time></trkpt><trkpt lat="63.92027664" lon="-18.69848824"><ele>639.5</ele><time>2012-07-24T21:00:29.0000000+00:00</time></trkpt><trkpt lat="63.92027283" lon="-18.69859695"><ele>641.1</ele><time>2012-07-24T21:00:34.0000000+00:00</time></trkpt><trkpt lat="63.92027283" lon="-18.69862557"><ele>641.2</ele><time>2012-07-24T21:00:39.0000000+00:00</time></trkpt><trkpt lat="63.9202652" lon="-18.69864273"><ele>641.1</ele><time>2012-07-24T21:00:44.0000000+00:00</time></trkpt><trkpt lat="63.9202652" lon="-18.69864655"><ele>641.2</ele><time>2012-07-24T21:00:49.0000000+00:00</time></trkpt><trkpt lat="63.92026901" lon="-18.69863319"><ele>641.5</ele><time>2012-07-24T21:00:54.0000000+00:00</time></trkpt><trkpt lat="63.92026901" lon="-18.69862366"><ele>641.5</ele><time>2012-07-24T21:00:59.0000000+00:00</time></trkpt><trkpt lat="63.92026901" lon="-18.69862938"><ele>641.4</ele><time>2012-07-24T21:01:04.0000000+00:00</time></trkpt><trkpt lat="63.92026901" lon="-18.69862557"><ele>641.4</ele><time>2012-07-24T21:01:09.0000000+00:00</time></trkpt><trkpt lat="63.92026901" lon="-18.69862938"><ele>641.3</ele><time>2012-07-24T21:01:14.0000000+00:00</time></trkpt><trkpt lat="63.92026901" lon="-18.69862938"><ele>641.3</ele><time>2012-07-24T21:01:19.0000000+00:00</time></trkpt><trkpt lat="63.92026901" lon="-18.69862938"><ele>641.3</ele><time>2012-07-24T21:01:24.0000000+00:00</time></trkpt><trkpt lat="63.92026901" lon="-18.69862938"><ele>641.3</ele><time>2012-07-24T21:01:29.0000000+00:00</time></trkpt><trkpt lat="63.92026901" lon="-18.69862938"><ele>641.3</ele><time>2012-07-24T21:01:34.0000000+00:00</time></trkpt><trkpt lat="63.92026901" lon="-18.69862938"><ele>641.3</ele><time>2012-07-24T21:01:39.0000000+00:00</time></trkpt><trkpt lat="63.92026901" lon="-18.69862938"><ele>641.3</ele><time>2012-07-24T21:01:44.0000000+00:00</time></trkpt><trkpt lat="63.92026901" lon="-18.69863129"><ele>641.3</ele><time>2012-07-24T21:01:49.0000000+00:00</time></trkpt><trkpt lat="63.92026901" lon="-18.69863129"><ele>641.3</ele><time>2012-07-24T21:01:54.0000000+00:00</time></trkpt><trkpt lat="63.92026901" lon="-18.69863129"><ele>641.4</ele><time>2012-07-24T21:01:59.0000000+00:00</time></trkpt><trkpt lat="63.92026901" lon="-18.69863129"><ele>641.5</ele><time>2012-07-24T21:02:04.0000000+00:00</time></trkpt><trkpt lat="63.92026901" lon="-18.69863129"><ele>641.5</ele><time>2012-07-24T21:02:09.0000000+00:00</time></trkpt><trkpt lat="63.92026901" lon="-18.69863129"><ele>641.5</ele><time>2012-07-24T21:02:14.0000000+00:00</time></trkpt><trkpt lat="63.92026901" lon="-18.69863319"><ele>641.5</ele><time>2012-07-24T21:02:19.0000000+00:00</time></trkpt><trkpt lat="63.92026901" lon="-18.69863319"><ele>641.5</ele><time>2012-07-24T21:02:24.0000000+00:00</time></trkpt><trkpt lat="63.92026901" lon="-18.69863319"><ele>641.5</ele><time>2012-07-24T21:02:29.0000000+00:00</time></trkpt><trkpt lat="63.92026901" lon="-18.69863319"><ele>641.5</ele><time>2012-07-24T21:02:34.0000000+00:00</time></trkpt><trkpt lat="63.92026901" lon="-18.69863319"><ele>641.5</ele><time>2012-07-24T21:02:39.0000000+00:00</time></trkpt><trkpt lat="63.92026901" lon="-18.69863319"><ele>641.5</ele><time>2012-07-24T21:02:44.0000000+00:00</time></trkpt><trkpt lat="63.92026901" lon="-18.69863319"><ele>641.5</ele><time>2012-07-24T21:02:49.0000000+00:00</time></trkpt><trkpt lat="63.92027283" lon="-18.69860458"><ele>641.5</ele><time>2012-07-24T21:02:54.0000000+00:00</time></trkpt><trkpt lat="63.92026901" lon="-18.69860077"><ele>641.4</ele><time>2012-07-24T21:02:59.0000000+00:00</time></trkpt><trkpt lat="63.92026901" lon="-18.69859886"><ele>641.4</ele><time>2012-07-24T21:03:04.0000000+00:00</time></trkpt><trkpt lat="63.92026901" lon="-18.69860649"><ele>641.3</ele><time>2012-07-24T21:03:09.0000000+00:00</time></trkpt><trkpt lat="63.92027283" lon="-18.69861031"><ele>641.3</ele><time>2012-07-24T21:03:14.0000000+00:00</time></trkpt><trkpt lat="63.92027283" lon="-18.69860268"><ele>641.4</ele><time>2012-07-24T21:03:19.0000000+00:00</time></trkpt><trkpt lat="63.92027283" lon="-18.69859505"><ele>641.4</ele><time>2012-07-24T21:03:24.0000000+00:00</time></trkpt><trkpt lat="63.92027283" lon="-18.69857979"><ele>641.4</ele><time>2012-07-24T21:03:29.0000000+00:00</time></trkpt><trkpt lat="63.92027664" lon="-18.69857407"><ele>641.5</ele><time>2012-07-24T21:03:34.0000000+00:00</time></trkpt><trkpt lat="63.92027664" lon="-18.69857407"><ele>641.6</ele><time>2012-07-24T21:03:39.0000000+00:00</time></trkpt><trkpt lat="63.92027283" lon="-18.69857788"><ele>641.6</ele><time>2012-07-24T21:03:44.0000000+00:00</time></trkpt><trkpt lat="63.92027283" lon="-18.69857407"><ele>641.7</ele><time>2012-07-24T21:03:49.0000000+00:00</time></trkpt><trkpt lat="63.9202652" lon="-18.69856644"><ele>641.7</ele><time>2012-07-24T21:03:54.0000000+00:00</time></trkpt><trkpt lat="63.92026138" lon="-18.69857216"><ele>641.8</ele><time>2012-07-24T21:03:59.0000000+00:00</time></trkpt><trkpt lat="63.92025375" lon="-18.6985569"><ele>641.8</ele><time>2012-07-24T21:04:04.0000000+00:00</time></trkpt><trkpt lat="63.92026138" lon="-18.6985569"><ele>641.9</ele><time>2012-07-24T21:04:09.0000000+00:00</time></trkpt><trkpt lat="63.92026138" lon="-18.69853592"><ele>641.9</ele><time>2012-07-24T21:04:14.0000000+00:00</time></trkpt><trkpt lat="63.92025757" lon="-18.69851494"><ele>642.0</ele><time>2012-07-24T21:04:19.0000000+00:00</time></trkpt><trkpt lat="63.92024994" lon="-18.69849587"><ele>642.2</ele><time>2012-07-24T21:04:24.0000000+00:00</time></trkpt><trkpt lat="63.92024612" lon="-18.6984787"><ele>642.5</ele><time>2012-07-24T21:04:29.0000000+00:00</time></trkpt><trkpt lat="63.92024612" lon="-18.69846153"><ele>642.8</ele><time>2012-07-24T21:04:34.0000000+00:00</time></trkpt><trkpt lat="63.92024231" lon="-18.69844627"><ele>643.1</ele><time>2012-07-24T21:04:39.0000000+00:00</time></trkpt><trkpt lat="63.92024231" lon="-18.69843483"><ele>643.6</ele><time>2012-07-24T21:04:44.0000000+00:00</time></trkpt><trkpt lat="63.92024231" lon="-18.69842529"><ele>644.1</ele><time>2012-07-24T21:04:49.0000000+00:00</time></trkpt><trkpt lat="63.92024231" lon="-18.69842148"><ele>644.6</ele><time>2012-07-24T21:04:54.0000000+00:00</time></trkpt><trkpt lat="63.9202385" lon="-18.69841957"><ele>645.3</ele><time>2012-07-24T21:04:59.0000000+00:00</time></trkpt><trkpt lat="63.9202385" lon="-18.69841766"><ele>646.0</ele><time>2012-07-24T21:05:04.0000000+00:00</time></trkpt><trkpt lat="63.92023468" lon="-18.69841766"><ele>646.8</ele><time>2012-07-24T21:05:09.0000000+00:00</time></trkpt><trkpt lat="63.92023087" lon="-18.69841957"><ele>647.7</ele><time>2012-07-24T21:05:14.0000000+00:00</time></trkpt><trkpt lat="63.92022324" lon="-18.69842148"><ele>648.4</ele><time>2012-07-24T21:05:19.0000000+00:00</time></trkpt><trkpt lat="63.92021942" lon="-18.69842339"><ele>649.0</ele><time>2012-07-24T21:05:24.0000000+00:00</time></trkpt><trkpt lat="63.92021561" lon="-18.69842529"><ele>649.5</ele><time>2012-07-24T21:05:29.0000000+00:00</time></trkpt><trkpt lat="63.92021179" lon="-18.6984272"><ele>649.7</ele><time>2012-07-24T21:05:34.0000000+00:00</time></trkpt><trkpt lat="63.92021179" lon="-18.6984272"><ele>650.0</ele><time>2012-07-24T21:05:39.0000000+00:00</time></trkpt><trkpt lat="63.92021179" lon="-18.6984272"><ele>650.1</ele><time>2012-07-24T21:05:44.0000000+00:00</time></trkpt><trkpt lat="63.92021179" lon="-18.69842911"><ele>650.1</ele><time>2012-07-24T21:05:49.0000000+00:00</time></trkpt><trkpt lat="63.92021179" lon="-18.69842911"><ele>650.1</ele><time>2012-07-24T21:05:54.0000000+00:00</time></trkpt><trkpt lat="63.92021179" lon="-18.69842911"><ele>650.1</ele><time>2012-07-24T21:05:59.0000000+00:00</time></trkpt><trkpt lat="63.92021179" lon="-18.69843102"><ele>650.1</ele><time>2012-07-24T21:06:04.0000000+00:00</time></trkpt><trkpt lat="63.92021179" lon="-18.69843292"><ele>650.0</ele><time>2012-07-24T21:06:09.0000000+00:00</time></trkpt><trkpt lat="63.92021179" lon="-18.69843483"><ele>650.0</ele><time>2012-07-24T21:06:14.0000000+00:00</time></trkpt><trkpt lat="63.92021179" lon="-18.69843674"><ele>650.0</ele><time>2012-07-24T21:06:19.0000000+00:00</time></trkpt><trkpt lat="63.92021179" lon="-18.69843864"><ele>650.0</ele><time>2012-07-24T21:06:24.0000000+00:00</time></trkpt><trkpt lat="63.92021561" lon="-18.69844055"><ele>649.9</ele><time>2012-07-24T21:06:29.0000000+00:00</time></trkpt><trkpt lat="63.92021561" lon="-18.6984539"><ele>649.9</ele><time>2012-07-24T21:06:34.0000000+00:00</time></trkpt><trkpt lat="63.9202385" lon="-18.69858933"><ele>649.1</ele><time>2012-07-24T21:06:39.0000000+00:00</time></trkpt><trkpt lat="63.92024231" lon="-18.69860268"><ele>648.3</ele><time>2012-07-24T21:06:44.0000000+00:00</time></trkpt><trkpt lat="63.92024612" lon="-18.69860268"><ele>648.0</ele><time>2012-07-24T21:06:49.0000000+00:00</time></trkpt><trkpt lat="63.92024612" lon="-18.69859886"><ele>647.6</ele><time>2012-07-24T21:06:54.0000000+00:00</time></trkpt><trkpt lat="63.92024231" lon="-18.69859123"><ele>647.0</ele><time>2012-07-24T21:06:59.0000000+00:00</time></trkpt><trkpt lat="63.9202385" lon="-18.69858551"><ele>646.4</ele><time>2012-07-24T21:07:04.0000000+00:00</time></trkpt><trkpt lat="63.9202385" lon="-18.6985836"><ele>645.6</ele><time>2012-07-24T21:07:09.0000000+00:00</time></trkpt><trkpt lat="63.92023468" lon="-18.69857979"><ele>645.0</ele><time>2012-07-24T21:07:14.0000000+00:00</time></trkpt><trkpt lat="63.92023087" lon="-18.6985817"><ele>644.7</ele><time>2012-07-24T21:07:19.0000000+00:00</time></trkpt><trkpt lat="63.92023087" lon="-18.69858742"><ele>644.5</ele><time>2012-07-24T21:07:24.0000000+00:00</time></trkpt><trkpt lat="63.92021942" lon="-18.69865036"><ele>644.2</ele><time>2012-07-24T21:07:29.0000000+00:00</time></trkpt><trkpt lat="63.9201622" lon="-18.69886017"><ele>642.3</ele><time>2012-07-24T21:07:34.0000000+00:00</time></trkpt><trkpt lat="63.92010498" lon="-18.69901848"><ele>642.5</ele><time>2012-07-24T21:07:39.0000000+00:00</time></trkpt><trkpt lat="63.92004776" lon="-18.69917297"><ele>641.3</ele><time>2012-07-24T21:07:44.0000000+00:00</time></trkpt><trkpt lat="63.91995239" lon="-18.69939041"><ele>639.3</ele><time>2012-07-24T21:07:49.0000000+00:00</time></trkpt><trkpt lat="63.91981888" lon="-18.69967651"><ele>637.4</ele><time>2012-07-24T21:07:54.0000000+00:00</time></trkpt><trkpt lat="63.91966248" lon="-18.69996262"><ele>634.6</ele><time>2012-07-24T21:07:59.0000000+00:00</time></trkpt><trkpt lat="63.91947174" lon="-18.70028305"><ele>633.2</ele><time>2012-07-24T21:08:04.0000000+00:00</time></trkpt><trkpt lat="63.91928101" lon="-18.70070458"><ele>630.2</ele><time>2012-07-24T21:08:09.0000000+00:00</time></trkpt><trkpt lat="63.91914749" lon="-18.701334"><ele>626.4</ele><time>2012-07-24T21:08:14.0000000+00:00</time></trkpt><trkpt lat="63.91901398" lon="-18.70208359"><ele>627.2</ele><time>2012-07-24T21:08:19.0000000+00:00</time></trkpt><trkpt lat="63.91882324" lon="-18.70262909"><ele>624.5</ele><time>2012-07-24T21:08:24.0000000+00:00</time></trkpt><trkpt lat="63.9186554" lon="-18.70265389"><ele>624.8</ele><time>2012-07-24T21:08:29.0000000+00:00</time></trkpt><trkpt lat="63.9185791" lon="-18.70259476"><ele>625.5</ele><time>2012-07-24T21:08:34.0000000+00:00</time></trkpt><trkpt lat="63.91847611" lon="-18.70256996"><ele>625.1</ele><time>2012-07-24T21:08:39.0000000+00:00</time></trkpt><trkpt lat="63.91827393" lon="-18.70262718"><ele>623.8</ele><time>2012-07-24T21:08:44.0000000+00:00</time></trkpt><trkpt lat="63.91812515" lon="-18.70270729"><ele>621.9</ele><time>2012-07-24T21:08:49.0000000+00:00</time></trkpt><trkpt lat="63.91800308" lon="-18.70298576"><ele>619.3</ele><time>2012-07-24T21:08:54.0000000+00:00</time></trkpt><trkpt lat="63.91796112" lon="-18.7034874"><ele>617.5</ele><time>2012-07-24T21:08:59.0000000+00:00</time></trkpt><trkpt lat="63.91795731" lon="-18.70406914"><ele>615.6</ele><time>2012-07-24T21:09:04.0000000+00:00</time></trkpt><trkpt lat="63.91805267" lon="-18.70464325"><ele>616.5</ele><time>2012-07-24T21:09:09.0000000+00:00</time></trkpt><trkpt lat="63.91811371" lon="-18.70507622"><ele>614.7</ele><time>2012-07-24T21:09:14.0000000+00:00</time></trkpt><trkpt lat="63.91815186" lon="-18.70557022"><ele>611.5</ele><time>2012-07-24T21:09:19.0000000+00:00</time></trkpt><trkpt lat="63.91818619" lon="-18.70616722"><ele>609.9</ele><time>2012-07-24T21:09:24.0000000+00:00</time></trkpt><trkpt lat="63.91824722" lon="-18.70665741"><ele>609.3</ele><time>2012-07-24T21:09:29.0000000+00:00</time></trkpt><trkpt lat="63.91832352" lon="-18.70701599"><ele>609.2</ele><time>2012-07-24T21:09:34.0000000+00:00</time></trkpt><trkpt lat="63.91829681" lon="-18.707304"><ele>607.7</ele><time>2012-07-24T21:09:39.0000000+00:00</time></trkpt><trkpt lat="63.91820526" lon="-18.70776367"><ele>605.6</ele><time>2012-07-24T21:09:44.0000000+00:00</time></trkpt><trkpt lat="63.91821671" lon="-18.70827103"><ele>603.3</ele><time>2012-07-24T21:09:49.0000000+00:00</time></trkpt><trkpt lat="63.918293" lon="-18.70895958"><ele>600.8</ele><time>2012-07-24T21:09:54.0000000+00:00</time></trkpt><trkpt lat="63.91842651" lon="-18.70940399"><ele>600.9</ele><time>2012-07-24T21:09:59.0000000+00:00</time></trkpt><trkpt lat="63.91853333" lon="-18.70969009"><ele>604.9</ele><time>2012-07-24T21:10:04.0000000+00:00</time></trkpt><trkpt lat="63.91863251" lon="-18.70994568"><ele>604.0</ele><time>2012-07-24T21:10:09.0000000+00:00</time></trkpt><trkpt lat="63.91862488" lon="-18.70993996"><ele>603.9</ele><time>2012-07-24T21:10:14.0000000+00:00</time></trkpt><trkpt lat="63.91862488" lon="-18.70994186"><ele>603.9</ele><time>2012-07-24T21:10:19.0000000+00:00</time></trkpt><trkpt lat="63.91862488" lon="-18.70994186"><ele>603.8</ele><time>2012-07-24T21:10:24.0000000+00:00</time></trkpt><trkpt lat="63.91862488" lon="-18.70994377"><ele>603.8</ele><time>2012-07-24T21:10:29.0000000+00:00</time></trkpt><trkpt lat="63.91866303" lon="-18.71002388"><ele>603.1</ele><time>2012-07-24T21:10:34.0000000+00:00</time></trkpt><trkpt lat="63.91873932" lon="-18.71022415"><ele>603.0</ele><time>2012-07-24T21:10:39.0000000+00:00</time></trkpt><trkpt lat="63.91880035" lon="-18.71041489"><ele>604.3</ele><time>2012-07-24T21:10:44.0000000+00:00</time></trkpt><trkpt lat="63.91889191" lon="-18.71057701"><ele>604.6</ele><time>2012-07-24T21:10:49.0000000+00:00</time></trkpt><trkpt lat="63.91897965" lon="-18.71076775"><ele>604.7</ele><time>2012-07-24T21:10:54.0000000+00:00</time></trkpt><trkpt lat="63.91900635" lon="-18.71084213"><ele>605.0</ele><time>2012-07-24T21:10:59.0000000+00:00</time></trkpt><trkpt lat="63.91900253" lon="-18.71084595"><ele>604.8</ele><time>2012-07-24T21:11:04.0000000+00:00</time></trkpt><trkpt lat="63.91900253" lon="-18.71084976"><ele>604.8</ele><time>2012-07-24T21:11:09.0000000+00:00</time></trkpt><trkpt lat="63.91900253" lon="-18.71085358"><ele>604.9</ele><time>2012-07-24T21:11:14.0000000+00:00</time></trkpt><trkpt lat="63.91899872" lon="-18.71084595"><ele>604.9</ele><time>2012-07-24T21:11:19.0000000+00:00</time></trkpt><trkpt lat="63.91899872" lon="-18.71083641"><ele>604.8</ele><time>2012-07-24T21:11:24.0000000+00:00</time></trkpt><trkpt lat="63.9189949" lon="-18.71093559"><ele>604.5</ele><time>2012-07-24T21:11:29.0000000+00:00</time></trkpt><trkpt lat="63.91894913" lon="-18.7111454"><ele>604.5</ele><time>2012-07-24T21:11:34.0000000+00:00</time></trkpt><trkpt lat="63.91880035" lon="-18.71145058"><ele>600.7</ele><time>2012-07-24T21:11:39.0000000+00:00</time></trkpt><trkpt lat="63.91846085" lon="-18.71188545"><ele>595.6</ele><time>2012-07-24T21:11:44.0000000+00:00</time></trkpt><trkpt lat="63.91813278" lon="-18.71228027"><ele>595.2</ele><time>2012-07-24T21:11:49.0000000+00:00</time></trkpt><trkpt lat="63.91791534" lon="-18.71250153"><ele>596.2</ele><time>2012-07-24T21:11:54.0000000+00:00</time></trkpt><trkpt lat="63.91766357" lon="-18.71276474"><ele>593.2</ele><time>2012-07-24T21:11:59.0000000+00:00</time></trkpt><trkpt lat="63.91732407" lon="-18.71299362"><ele>592.0</ele><time>2012-07-24T21:12:04.0000000+00:00</time></trkpt><trkpt lat="63.91703033" lon="-18.71310425"><ele>591.8</ele><time>2012-07-24T21:12:09.0000000+00:00</time></trkpt><trkpt lat="63.91677475" lon="-18.71310806"><ele>591.2</ele><time>2012-07-24T21:12:14.0000000+00:00</time></trkpt><trkpt lat="63.9165535" lon="-18.7130127"><ele>589.2</ele><time>2012-07-24T21:12:19.0000000+00:00</time></trkpt><trkpt lat="63.91633606" lon="-18.71286583"><ele>587.9</ele><time>2012-07-24T21:12:24.0000000+00:00</time></trkpt><trkpt lat="63.91611481" lon="-18.71286202"><ele>585.7</ele><time>2012-07-24T21:12:29.0000000+00:00</time></trkpt><trkpt lat="63.91590118" lon="-18.71303749"><ele>585.8</ele><time>2012-07-24T21:12:34.0000000+00:00</time></trkpt><trkpt lat="63.91572952" lon="-18.71326065"><ele>587.4</ele><time>2012-07-24T21:12:39.0000000+00:00</time></trkpt><trkpt lat="63.91560364" lon="-18.71346855"><ele>587.5</ele><time>2012-07-24T21:12:44.0000000+00:00</time></trkpt><trkpt lat="63.9154129" lon="-18.71373367"><ele>585.3</ele><time>2012-07-24T21:12:49.0000000+00:00</time></trkpt><trkpt lat="63.91521072" lon="-18.71385574"><ele>584.3</ele><time>2012-07-24T21:12:54.0000000+00:00</time></trkpt><trkpt lat="63.91500855" lon="-18.71397018"><ele>583.5</ele><time>2012-07-24T21:12:59.0000000+00:00</time></trkpt><trkpt lat="63.91481018" lon="-18.71409416"><ele>582.8</ele><time>2012-07-24T21:13:04.0000000+00:00</time></trkpt><trkpt lat="63.9145813" lon="-18.71428299"><ele>581.8</ele><time>2012-07-24T21:13:09.0000000+00:00</time></trkpt><trkpt lat="63.91439438" lon="-18.71439552"><ele>582.6</ele><time>2012-07-24T21:13:14.0000000+00:00</time></trkpt><trkpt lat="63.91424561" lon="-18.71454239"><ele>583.4</ele><time>2012-07-24T21:13:19.0000000+00:00</time></trkpt><trkpt lat="63.91410828" lon="-18.71460724"><ele>584.1</ele><time>2012-07-24T21:13:24.0000000+00:00</time></trkpt><trkpt lat="63.9139595" lon="-18.7146759"><ele>584.8</ele><time>2012-07-24T21:13:29.0000000+00:00</time></trkpt><trkpt lat="63.91380692" lon="-18.71473122"><ele>584.4</ele><time>2012-07-24T21:13:34.0000000+00:00</time></trkpt><trkpt lat="63.91360855" lon="-18.71478653"><ele>585.7</ele><time>2012-07-24T21:13:39.0000000+00:00</time></trkpt><trkpt lat="63.91342545" lon="-18.71487999"><ele>585.6</ele><time>2012-07-24T21:13:44.0000000+00:00</time></trkpt><trkpt lat="63.91324616" lon="-18.71491242"><ele>582.9</ele><time>2012-07-24T21:13:49.0000000+00:00</time></trkpt><trkpt lat="63.91316223" lon="-18.71495438"><ele>580.8</ele><time>2012-07-24T21:13:54.0000000+00:00</time></trkpt><trkpt lat="63.91315842" lon="-18.71496201"><ele>581.0</ele><time>2012-07-24T21:13:59.0000000+00:00</time></trkpt><trkpt lat="63.9131546" lon="-18.71495819"><ele>580.8</ele><time>2012-07-24T21:14:04.0000000+00:00</time></trkpt><trkpt lat="63.9131546" lon="-18.71495819"><ele>580.8</ele><time>2012-07-24T21:14:09.0000000+00:00</time></trkpt><trkpt lat="63.9131546" lon="-18.71495628"><ele>580.7</ele><time>2012-07-24T21:14:14.0000000+00:00</time></trkpt><trkpt lat="63.91316223" lon="-18.71496201"><ele>580.6</ele><time>2012-07-24T21:14:19.0000000+00:00</time></trkpt><trkpt lat="63.91316605" lon="-18.71497154"><ele>580.5</ele><time>2012-07-24T21:14:24.0000000+00:00</time></trkpt><trkpt lat="63.91317749" lon="-18.71496391"><ele>580.4</ele><time>2012-07-24T21:14:29.0000000+00:00</time></trkpt><trkpt lat="63.91318131" lon="-18.71497154"><ele>580.1</ele><time>2012-07-24T21:14:34.0000000+00:00</time></trkpt><trkpt lat="63.91318893" lon="-18.71497917"><ele>579.8</ele><time>2012-07-24T21:14:39.0000000+00:00</time></trkpt><trkpt lat="63.91318131" lon="-18.71494675"><ele>581.1</ele><time>2012-07-24T21:14:44.0000000+00:00</time></trkpt><trkpt lat="63.91317368" lon="-18.71493149"><ele>581.4</ele><time>2012-07-24T21:14:49.0000000+00:00</time></trkpt><trkpt lat="63.91317368" lon="-18.71493149"><ele>581.6</ele><time>2012-07-24T21:14:54.0000000+00:00</time></trkpt><trkpt lat="63.91317749" lon="-18.7149353"><ele>581.5</ele><time>2012-07-24T21:14:59.0000000+00:00</time></trkpt><trkpt lat="63.91318131" lon="-18.71493912"><ele>581.3</ele><time>2012-07-24T21:15:04.0000000+00:00</time></trkpt><trkpt lat="63.91318893" lon="-18.71492958"><ele>581.3</ele><time>2012-07-24T21:15:09.0000000+00:00</time></trkpt><trkpt lat="63.91319656" lon="-18.7149334"><ele>581.3</ele><time>2012-07-24T21:15:14.0000000+00:00</time></trkpt><trkpt lat="63.91320801" lon="-18.71494675"><ele>580.9</ele><time>2012-07-24T21:15:19.0000000+00:00</time></trkpt><trkpt lat="63.91319275" lon="-18.7149334"><ele>581.6</ele><time>2012-07-24T21:15:24.0000000+00:00</time></trkpt><trkpt lat="63.91318131" lon="-18.71493149"><ele>581.9</ele><time>2012-07-24T21:15:29.0000000+00:00</time></trkpt><trkpt lat="63.91318512" lon="-18.7149353"><ele>581.9</ele><time>2012-07-24T21:15:34.0000000+00:00</time></trkpt><trkpt lat="63.91318893" lon="-18.71494103"><ele>581.7</ele><time>2012-07-24T21:15:39.0000000+00:00</time></trkpt><trkpt lat="63.91319656" lon="-18.71497154"><ele>581.7</ele><time>2012-07-24T21:15:44.0000000+00:00</time></trkpt><trkpt lat="63.91313934" lon="-18.71497154"><ele>580.8</ele><time>2012-07-24T21:15:49.0000000+00:00</time></trkpt><trkpt lat="63.91297913" lon="-18.715065"><ele>579.5</ele><time>2012-07-24T21:15:54.0000000+00:00</time></trkpt><trkpt lat="63.91280747" lon="-18.71518135"><ele>578.2</ele><time>2012-07-24T21:15:59.0000000+00:00</time></trkpt><trkpt lat="63.91260529" lon="-18.71523094"><ele>577.8</ele><time>2012-07-24T21:16:04.0000000+00:00</time></trkpt><trkpt lat="63.91238403" lon="-18.71524811"><ele>576.0</ele><time>2012-07-24T21:16:09.0000000+00:00</time></trkpt><trkpt lat="63.91215134" lon="-18.71520042"><ele>576.1</ele><time>2012-07-24T21:16:14.0000000+00:00</time></trkpt><trkpt lat="63.91191483" lon="-18.71516228"><ele>576.1</ele><time>2012-07-24T21:16:19.0000000+00:00</time></trkpt><trkpt lat="63.9116745" lon="-18.71516609"><ele>574.6</ele><time>2012-07-24T21:16:24.0000000+00:00</time></trkpt><trkpt lat="63.91141129" lon="-18.71513557"><ele>574.5</ele><time>2012-07-24T21:16:29.0000000+00:00</time></trkpt><trkpt lat="63.91115952" lon="-18.71499825"><ele>574.1</ele><time>2012-07-24T21:16:34.0000000+00:00</time></trkpt><trkpt lat="63.91090012" lon="-18.71488571"><ele>573.5</ele><time>2012-07-24T21:16:39.0000000+00:00</time></trkpt><trkpt lat="63.91064453" lon="-18.71480751"><ele>573.2</ele><time>2012-07-24T21:16:44.0000000+00:00</time></trkpt><trkpt lat="63.91039276" lon="-18.71473503"><ele>572.9</ele><time>2012-07-24T21:16:49.0000000+00:00</time></trkpt><trkpt lat="63.91015625" lon="-18.71457291"><ele>573.3</ele><time>2012-07-24T21:16:54.0000000+00:00</time></trkpt><trkpt lat="63.90996933" lon="-18.71430969"><ele>573.6</ele><time>2012-07-24T21:16:59.0000000+00:00</time></trkpt><trkpt lat="63.90983582" lon="-18.71408081"><ele>573.3</ele><time>2012-07-24T21:17:04.0000000+00:00</time></trkpt><trkpt lat="63.90967941" lon="-18.71386719"><ele>570.3</ele><time>2012-07-24T21:17:09.0000000+00:00</time></trkpt><trkpt lat="63.90942383" lon="-18.71382523"><ele>569.3</ele><time>2012-07-24T21:17:14.0000000+00:00</time></trkpt><trkpt lat="63.9091301" lon="-18.71380615"><ele>566.5</ele><time>2012-07-24T21:17:19.0000000+00:00</time></trkpt><trkpt lat="63.9088974" lon="-18.71370697"><ele>564.9</ele><time>2012-07-24T21:17:24.0000000+00:00</time></trkpt><trkpt lat="63.90856552" lon="-18.71339607"><ele>558.9</ele><time>2012-07-24T21:17:29.0000000+00:00</time></trkpt><trkpt lat="63.90821457" lon="-18.71336174"><ele>555.7</ele><time>2012-07-24T21:17:34.0000000+00:00</time></trkpt><trkpt lat="63.9078331" lon="-18.7131424"><ele>551.7</ele><time>2012-07-24T21:17:39.0000000+00:00</time></trkpt><trkpt lat="63.90745926" lon="-18.71277428"><ele>550.8</ele><time>2012-07-24T21:17:44.0000000+00:00</time></trkpt><trkpt lat="63.90720749" lon="-18.71243286"><ele>551.5</ele><time>2012-07-24T21:17:49.0000000+00:00</time></trkpt><trkpt lat="63.9070282" lon="-18.71215057"><ele>551.6</ele><time>2012-07-24T21:17:54.0000000+00:00</time></trkpt><trkpt lat="63.90681076" lon="-18.71191406"><ele>549.8</ele><time>2012-07-24T21:17:59.0000000+00:00</time></trkpt><trkpt lat="63.90655518" lon="-18.71177864"><ele>549.2</ele><time>2012-07-24T21:18:04.0000000+00:00</time></trkpt><trkpt lat="63.90626144" lon="-18.71177483"><ele>546.7</ele><time>2012-07-24T21:18:09.0000000+00:00</time></trkpt><trkpt lat="63.90598297" lon="-18.71177673"><ele>544.7</ele><time>2012-07-24T21:18:14.0000000+00:00</time></trkpt><trkpt lat="63.90572357" lon="-18.71172142"><ele>542.5</ele><time>2012-07-24T21:18:19.0000000+00:00</time></trkpt><trkpt lat="63.90542221" lon="-18.71159172"><ele>538.0</ele><time>2012-07-24T21:18:24.0000000+00:00</time></trkpt><trkpt lat="63.90503311" lon="-18.71140862"><ele>534.5</ele><time>2012-07-24T21:18:29.0000000+00:00</time></trkpt><trkpt lat="63.90462112" lon="-18.71104813"><ele>531.0</ele><time>2012-07-24T21:18:34.0000000+00:00</time></trkpt><trkpt lat="63.90429688" lon="-18.7107029"><ele>530.1</ele><time>2012-07-24T21:18:39.0000000+00:00</time></trkpt><trkpt lat="63.90407562" lon="-18.71037483"><ele>528.9</ele><time>2012-07-24T21:18:44.0000000+00:00</time></trkpt><trkpt lat="63.90395355" lon="-18.71016884"><ele>525.6</ele><time>2012-07-24T21:18:49.0000000+00:00</time></trkpt><trkpt lat="63.90379715" lon="-18.70988083"><ele>521.1</ele><time>2012-07-24T21:18:54.0000000+00:00</time></trkpt><trkpt lat="63.90350342" lon="-18.70932961"><ele>512.2</ele><time>2012-07-24T21:18:59.0000000+00:00</time></trkpt><trkpt lat="63.9030571" lon="-18.70856857"><ele>504.1</ele><time>2012-07-24T21:19:04.0000000+00:00</time></trkpt><trkpt lat="63.90257263" lon="-18.70784187"><ele>501.3</ele><time>2012-07-24T21:19:09.0000000+00:00</time></trkpt><trkpt lat="63.9021492" lon="-18.70739174"><ele>499.6</ele><time>2012-07-24T21:19:14.0000000+00:00</time></trkpt><trkpt lat="63.90192032" lon="-18.70733643"><ele>497.1</ele><time>2012-07-24T21:19:19.0000000+00:00</time></trkpt><trkpt lat="63.90175247" lon="-18.70728493"><ele>493.3</ele><time>2012-07-24T21:19:24.0000000+00:00</time></trkpt><trkpt lat="63.90159607" lon="-18.70720482"><ele>492.4</ele><time>2012-07-24T21:19:29.0000000+00:00</time></trkpt><trkpt lat="63.90145874" lon="-18.70711136"><ele>491.3</ele><time>2012-07-24T21:19:34.0000000+00:00</time></trkpt><trkpt lat="63.90132141" lon="-18.70692444"><ele>490.4</ele><time>2012-07-24T21:19:39.0000000+00:00</time></trkpt><trkpt lat="63.90115356" lon="-18.70669746"><ele>490.6</ele><time>2012-07-24T21:19:44.0000000+00:00</time></trkpt><trkpt lat="63.90102005" lon="-18.70661736"><ele>490.8</ele><time>2012-07-24T21:19:49.0000000+00:00</time></trkpt><trkpt lat="63.9008522" lon="-18.7066021"><ele>490.6</ele><time>2012-07-24T21:19:54.0000000+00:00</time></trkpt><trkpt lat="63.90066528" lon="-18.7065506"><ele>489.0</ele><time>2012-07-24T21:19:59.0000000+00:00</time></trkpt><trkpt lat="63.90047455" lon="-18.70645523"><ele>488.8</ele><time>2012-07-24T21:20:04.0000000+00:00</time></trkpt><trkpt lat="63.90029144" lon="-18.70632172"><ele>489.0</ele><time>2012-07-24T21:20:09.0000000+00:00</time></trkpt><trkpt lat="63.90006638" lon="-18.70611763"><ele>488.3</ele><time>2012-07-24T21:20:14.0000000+00:00</time></trkpt><trkpt lat="63.89982605" lon="-18.70599747"><ele>488.1</ele><time>2012-07-24T21:20:19.0000000+00:00</time></trkpt><trkpt lat="63.89962769" lon="-18.70586968"><ele>486.7</ele><time>2012-07-24T21:20:24.0000000+00:00</time></trkpt><trkpt lat="63.89946747" lon="-18.70575905"><ele>486.0</ele><time>2012-07-24T21:20:29.0000000+00:00</time></trkpt><trkpt lat="63.89930725" lon="-18.70572472"><ele>485.3</ele><time>2012-07-24T21:20:34.0000000+00:00</time></trkpt><trkpt lat="63.89917755" lon="-18.70584488"><ele>483.0</ele><time>2012-07-24T21:20:39.0000000+00:00</time></trkpt><trkpt lat="63.89913178" lon="-18.70602608"><ele>482.0</ele><time>2012-07-24T21:20:44.0000000+00:00</time></trkpt><trkpt lat="63.89909744" lon="-18.7061348"><ele>482.2</ele><time>2012-07-24T21:20:49.0000000+00:00</time></trkpt><trkpt lat="63.89902878" lon="-18.70620537"><ele>481.1</ele><time>2012-07-24T21:20:54.0000000+00:00</time></trkpt><trkpt lat="63.89896774" lon="-18.7064724"><ele>479.9</ele><time>2012-07-24T21:20:59.0000000+00:00</time></trkpt><trkpt lat="63.8990593" lon="-18.70672417"><ele>480.2</ele><time>2012-07-24T21:21:04.0000000+00:00</time></trkpt><trkpt lat="63.89916611" lon="-18.70697975"><ele>481.5</ele><time>2012-07-24T21:21:09.0000000+00:00</time></trkpt><trkpt lat="63.89923096" lon="-18.70725822"><ele>481.9</ele><time>2012-07-24T21:21:14.0000000+00:00</time></trkpt><trkpt lat="63.89923477" lon="-18.70757103"><ele>482.9</ele><time>2012-07-24T21:21:19.0000000+00:00</time></trkpt><trkpt lat="63.89916229" lon="-18.70774651"><ele>481.1</ele><time>2012-07-24T21:21:24.0000000+00:00</time></trkpt><trkpt lat="63.89904785" lon="-18.70786095"><ele>479.5</ele><time>2012-07-24T21:21:29.0000000+00:00</time></trkpt><trkpt lat="63.89896393" lon="-18.70803261"><ele>477.7</ele><time>2012-07-24T21:21:34.0000000+00:00</time></trkpt><trkpt lat="63.89890289" lon="-18.70822907"><ele>477.6</ele><time>2012-07-24T21:21:39.0000000+00:00</time></trkpt><trkpt lat="63.89888001" lon="-18.70836258"><ele>476.7</ele><time>2012-07-24T21:21:44.0000000+00:00</time></trkpt><trkpt lat="63.89887619" lon="-18.70840645"><ele>476.0</ele><time>2012-07-24T21:21:49.0000000+00:00</time></trkpt><trkpt lat="63.89888001" lon="-18.70841599"><ele>476.2</ele><time>2012-07-24T21:21:54.0000000+00:00</time></trkpt><trkpt lat="63.89888001" lon="-18.70841408"><ele>476.2</ele><time>2012-07-24T21:21:59.0000000+00:00</time></trkpt><trkpt lat="63.89888001" lon="-18.70841408"><ele>476.2</ele><time>2012-07-24T21:22:04.0000000+00:00</time></trkpt><trkpt lat="63.89888001" lon="-18.70841408"><ele>476.1</ele><time>2012-07-24T21:22:09.0000000+00:00</time></trkpt><trkpt lat="63.89888001" lon="-18.70841217"><ele>476.1</ele><time>2012-07-24T21:22:14.0000000+00:00</time></trkpt><trkpt lat="63.89888001" lon="-18.70841026"><ele>476.1</ele><time>2012-07-24T21:22:19.0000000+00:00</time></trkpt><trkpt lat="63.89888001" lon="-18.70841026"><ele>476.0</ele><time>2012-07-24T21:22:24.0000000+00:00</time></trkpt><trkpt lat="63.89888001" lon="-18.70841026"><ele>476.0</ele><time>2012-07-24T21:22:29.0000000+00:00</time></trkpt><trkpt lat="63.89888001" lon="-18.70841026"><ele>476.0</ele><time>2012-07-24T21:22:34.0000000+00:00</time></trkpt><trkpt lat="63.89888001" lon="-18.70841026"><ele>475.9</ele><time>2012-07-24T21:22:39.0000000+00:00</time></trkpt><trkpt lat="63.89888001" lon="-18.70840836"><ele>475.9</ele><time>2012-07-24T21:22:44.0000000+00:00</time></trkpt><trkpt lat="63.89888001" lon="-18.70840836"><ele>476.0</ele><time>2012-07-24T21:22:49.0000000+00:00</time></trkpt><trkpt lat="63.89888001" lon="-18.70840836"><ele>476.0</ele><time>2012-07-24T21:22:54.0000000+00:00</time></trkpt><trkpt lat="63.89888001" lon="-18.70840645"><ele>475.9</ele><time>2012-07-24T21:22:59.0000000+00:00</time></trkpt><trkpt lat="63.89888001" lon="-18.70840645"><ele>475.9</ele><time>2012-07-24T21:23:04.0000000+00:00</time></trkpt><trkpt lat="63.89888001" lon="-18.70840645"><ele>475.9</ele><time>2012-07-24T21:23:09.0000000+00:00</time></trkpt><trkpt lat="63.89888001" lon="-18.70840454"><ele>475.8</ele><time>2012-07-24T21:23:14.0000000+00:00</time></trkpt><trkpt lat="63.89888001" lon="-18.70840454"><ele>475.9</ele><time>2012-07-24T21:23:19.0000000+00:00</time></trkpt><trkpt lat="63.89888001" lon="-18.70840454"><ele>475.9</ele><time>2012-07-24T21:23:24.0000000+00:00</time></trkpt><trkpt lat="63.89888001" lon="-18.70840454"><ele>475.8</ele><time>2012-07-24T21:23:29.0000000+00:00</time></trkpt><trkpt lat="63.89888001" lon="-18.70840454"><ele>475.8</ele><time>2012-07-24T21:23:34.0000000+00:00</time></trkpt><trkpt lat="63.89888001" lon="-18.70840263"><ele>475.8</ele><time>2012-07-24T21:23:39.0000000+00:00</time></trkpt><trkpt lat="63.89888382" lon="-18.70841026"><ele>475.8</ele><time>2012-07-24T21:23:44.0000000+00:00</time></trkpt><trkpt lat="63.89889526" lon="-18.70839691"><ele>475.3</ele><time>2012-07-24T21:23:49.0000000+00:00</time></trkpt><trkpt lat="63.89890289" lon="-18.70838547"><ele>475.5</ele><time>2012-07-24T21:23:54.0000000+00:00</time></trkpt><trkpt lat="63.89890671" lon="-18.70837212"><ele>475.7</ele><time>2012-07-24T21:23:59.0000000+00:00</time></trkpt><trkpt lat="63.89893341" lon="-18.7081871"><ele>475.7</ele><time>2012-07-24T21:24:04.0000000+00:00</time></trkpt><trkpt lat="63.89896011" lon="-18.70803833"><ele>475.4</ele><time>2012-07-24T21:24:09.0000000+00:00</time></trkpt><trkpt lat="63.89896774" lon="-18.7078495"><ele>475.7</ele><time>2012-07-24T21:24:14.0000000+00:00</time></trkpt><trkpt lat="63.89895248" lon="-18.70765877"><ele>477.2</ele><time>2012-07-24T21:24:19.0000000+00:00</time></trkpt><trkpt lat="63.8989296" lon="-18.70747376"><ele>479.3</ele><time>2012-07-24T21:24:24.0000000+00:00</time></trkpt><trkpt lat="63.89891815" lon="-18.70731926"><ele>480.8</ele><time>2012-07-24T21:24:29.0000000+00:00</time></trkpt><trkpt lat="63.89889526" lon="-18.70716286"><ele>482.3</ele><time>2012-07-24T21:24:34.0000000+00:00</time></trkpt><trkpt lat="63.89888001" lon="-18.70698357"><ele>485.3</ele><time>2012-07-24T21:24:39.0000000+00:00</time></trkpt><trkpt lat="63.8988266" lon="-18.70685196"><ele>484.4</ele><time>2012-07-24T21:24:44.0000000+00:00</time></trkpt><trkpt lat="63.89876175" lon="-18.70687103"><ele>479.5</ele><time>2012-07-24T21:24:49.0000000+00:00</time></trkpt><trkpt lat="63.89874268" lon="-18.70693588"><ele>479.1</ele><time>2012-07-24T21:24:54.0000000+00:00</time></trkpt><trkpt lat="63.89873505" lon="-18.70694542"><ele>479.2</ele><time>2012-07-24T21:24:59.0000000+00:00</time></trkpt><trkpt lat="63.89873505" lon="-18.70694923"><ele>478.9</ele><time>2012-07-24T21:25:04.0000000+00:00</time></trkpt><trkpt lat="63.89871597" lon="-18.70691299"><ele>478.7</ele><time>2012-07-24T21:25:09.0000000+00:00</time></trkpt><trkpt lat="63.89872742" lon="-18.70702744"><ele>480.1</ele><time>2012-07-24T21:25:14.0000000+00:00</time></trkpt><trkpt lat="63.8987236" lon="-18.70704269"><ele>480.9</ele><time>2012-07-24T21:25:19.0000000+00:00</time></trkpt><trkpt lat="63.89871979" lon="-18.7070446"><ele>481.0</ele><time>2012-07-24T21:25:24.0000000+00:00</time></trkpt><trkpt lat="63.89871979" lon="-18.70704651"><ele>481.0</ele><time>2012-07-24T21:25:29.0000000+00:00</time></trkpt><trkpt lat="63.89871979" lon="-18.70703507"><ele>481.0</ele><time>2012-07-24T21:25:34.0000000+00:00</time></trkpt><trkpt lat="63.89871597" lon="-18.70704269"><ele>481.1</ele><time>2012-07-24T21:25:39.0000000+00:00</time></trkpt><trkpt lat="63.89872742" lon="-18.7069931"><ele>481.1</ele><time>2012-07-24T21:25:44.0000000+00:00</time></trkpt><trkpt lat="63.89873886" lon="-18.70695114"><ele>482.5</ele><time>2012-07-24T21:25:49.0000000+00:00</time></trkpt><trkpt lat="63.89875031" lon="-18.70693016"><ele>482.0</ele><time>2012-07-24T21:25:54.0000000+00:00</time></trkpt><trkpt lat="63.89875031" lon="-18.70693016"><ele>482.1</ele><time>2012-07-24T21:25:59.0000000+00:00</time></trkpt><trkpt lat="63.89878082" lon="-18.70691299"><ele>482.4</ele><time>2012-07-24T21:26:04.0000000+00:00</time></trkpt><trkpt lat="63.8987999" lon="-18.70704651"><ele>482.7</ele><time>2012-07-24T21:26:09.0000000+00:00</time></trkpt><trkpt lat="63.89881516" lon="-18.70722961"><ele>481.7</ele><time>2012-07-24T21:26:14.0000000+00:00</time></trkpt><trkpt lat="63.89883804" lon="-18.70739555"><ele>481.0</ele><time>2012-07-24T21:26:19.0000000+00:00</time></trkpt><trkpt lat="63.8988533" lon="-18.70756149"><ele>481.0</ele><time>2012-07-24T21:26:24.0000000+00:00</time></trkpt><trkpt lat="63.89888382" lon="-18.70773888"><ele>478.4</ele><time>2012-07-24T21:26:29.0000000+00:00</time></trkpt><trkpt lat="63.89890671" lon="-18.70787621"><ele>477.7</ele><time>2012-07-24T21:26:34.0000000+00:00</time></trkpt><trkpt lat="63.89894104" lon="-18.70801544"><ele>480.8</ele><time>2012-07-24T21:26:39.0000000+00:00</time></trkpt><trkpt lat="63.89891052" lon="-18.70818901"><ele>481.5</ele><time>2012-07-24T21:26:44.0000000+00:00</time></trkpt><trkpt lat="63.89889145" lon="-18.70825768"><ele>481.7</ele><time>2012-07-24T21:26:49.0000000+00:00</time></trkpt><trkpt lat="63.89891815" lon="-18.70813942"><ele>483.1</ele><time>2012-07-24T21:26:54.0000000+00:00</time></trkpt><trkpt lat="63.89893723" lon="-18.70796394"><ele>484.1</ele><time>2012-07-24T21:26:59.0000000+00:00</time></trkpt><trkpt lat="63.89892197" lon="-18.70790482"><ele>484.8</ele><time>2012-07-24T21:27:04.0000000+00:00</time></trkpt><trkpt lat="63.89888001" lon="-18.70769119"><ele>485.6</ele><time>2012-07-24T21:27:09.0000000+00:00</time></trkpt><trkpt lat="63.89887619" lon="-18.70737648"><ele>487.5</ele><time>2012-07-24T21:27:14.0000000+00:00</time></trkpt><trkpt lat="63.89889526" lon="-18.70706558"><ele>489.4</ele><time>2012-07-24T21:27:19.0000000+00:00</time></trkpt><trkpt lat="63.89886856" lon="-18.70684052"><ele>491.4</ele><time>2012-07-24T21:27:24.0000000+00:00</time></trkpt><trkpt lat="63.89881134" lon="-18.70668984"><ele>492.2</ele><time>2012-07-24T21:27:29.0000000+00:00</time></trkpt><trkpt lat="63.89876938" lon="-18.70661545"><ele>489.9</ele><time>2012-07-24T21:27:34.0000000+00:00</time></trkpt><trkpt lat="63.89876175" lon="-18.70658875"><ele>490.1</ele><time>2012-07-24T21:27:39.0000000+00:00</time></trkpt><trkpt lat="63.89870834" lon="-18.70659447"><ele>488.2</ele><time>2012-07-24T21:27:44.0000000+00:00</time></trkpt><trkpt lat="63.89867401" lon="-18.70660973"><ele>485.4</ele><time>2012-07-24T21:27:49.0000000+00:00</time></trkpt><trkpt lat="63.89865494" lon="-18.70663452"><ele>485.6</ele><time>2012-07-24T21:27:54.0000000+00:00</time></trkpt><trkpt lat="63.89861679" lon="-18.70669365"><ele>485.1</ele><time>2012-07-24T21:27:59.0000000+00:00</time></trkpt><trkpt lat="63.89858246" lon="-18.70665741"><ele>485.7</ele><time>2012-07-24T21:28:04.0000000+00:00</time></trkpt><trkpt lat="63.89855957" lon="-18.70658684"><ele>486.5</ele><time>2012-07-24T21:28:09.0000000+00:00</time></trkpt><trkpt lat="63.89855576" lon="-18.70645523"><ele>487.6</ele><time>2012-07-24T21:28:14.0000000+00:00</time></trkpt><trkpt lat="63.89857101" lon="-18.70640373"><ele>488.0</ele><time>2012-07-24T21:28:19.0000000+00:00</time></trkpt><trkpt lat="63.89857483" lon="-18.70638466"><ele>488.1</ele><time>2012-07-24T21:28:24.0000000+00:00</time></trkpt><trkpt lat="63.8985672" lon="-18.70628548"><ele>488.6</ele><time>2012-07-24T21:28:29.0000000+00:00</time></trkpt><trkpt lat="63.8985405" lon="-18.70620918"><ele>489.3</ele><time>2012-07-24T21:28:34.0000000+00:00</time></trkpt><trkpt lat="63.89854813" lon="-18.70615387"><ele>490.3</ele><time>2012-07-24T21:28:39.0000000+00:00</time></trkpt><trkpt lat="63.89857101" lon="-18.70606804"><ele>491.1</ele><time>2012-07-24T21:28:44.0000000+00:00</time></trkpt><trkpt lat="63.89857483" lon="-18.70607758"><ele>491.1</ele><time>2012-07-24T21:28:49.0000000+00:00</time></trkpt><trkpt lat="63.89858246" lon="-18.70601082"><ele>492.0</ele><time>2012-07-24T21:28:54.0000000+00:00</time></trkpt><trkpt lat="63.89859772" lon="-18.70593643"><ele>493.2</ele><time>2012-07-24T21:28:59.0000000+00:00</time></trkpt><trkpt lat="63.89860535" lon="-18.70585442"><ele>494.7</ele><time>2012-07-24T21:29:04.0000000+00:00</time></trkpt><trkpt lat="63.89860916" lon="-18.70577812"><ele>494.8</ele><time>2012-07-24T21:29:09.0000000+00:00</time></trkpt><trkpt lat="63.89860153" lon="-18.70568466"><ele>495.2</ele><time>2012-07-24T21:29:14.0000000+00:00</time></trkpt><trkpt lat="63.89860916" lon="-18.70564842"><ele>494.2</ele><time>2012-07-24T21:29:19.0000000+00:00</time></trkpt><trkpt lat="63.89857864" lon="-18.70553207"><ele>493.8</ele><time>2012-07-24T21:29:24.0000000+00:00</time></trkpt><trkpt lat="63.89854813" lon="-18.70552445"><ele>493.2</ele><time>2012-07-24T21:29:29.0000000+00:00</time></trkpt><trkpt lat="63.89851761" lon="-18.70545006"><ele>491.2</ele><time>2012-07-24T21:29:34.0000000+00:00</time></trkpt><trkpt lat="63.89848709" lon="-18.70538521"><ele>493.5</ele><time>2012-07-24T21:29:39.0000000+00:00</time></trkpt><trkpt lat="63.89844132" lon="-18.70525932"><ele>493.5</ele><time>2012-07-24T21:29:44.0000000+00:00</time></trkpt><trkpt lat="63.89844894" lon="-18.70523453"><ele>494.2</ele><time>2012-07-24T21:29:49.0000000+00:00</time></trkpt><trkpt lat="63.89844894" lon="-18.70523262"><ele>494.3</ele><time>2012-07-24T21:29:54.0000000+00:00</time></trkpt><trkpt lat="63.89844894" lon="-18.70523262"><ele>494.3</ele><time>2012-07-24T21:29:59.0000000+00:00</time></trkpt><trkpt lat="63.89845276" lon="-18.7052536"><ele>494.3</ele><time>2012-07-24T21:30:04.0000000+00:00</time></trkpt><trkpt lat="63.89839172" lon="-18.70524788"><ele>492.5</ele><time>2012-07-24T21:30:09.0000000+00:00</time></trkpt><trkpt lat="63.89825821" lon="-18.70517921"><ele>492.3</ele><time>2012-07-24T21:30:14.0000000+00:00</time></trkpt><trkpt lat="63.89814377" lon="-18.7050724"><ele>493.9</ele><time>2012-07-24T21:30:19.0000000+00:00</time></trkpt><trkpt lat="63.89807892" lon="-18.70492554"><ele>494.6</ele><time>2012-07-24T21:30:24.0000000+00:00</time></trkpt><trkpt lat="63.89803314" lon="-18.70473862"><ele>495.0</ele><time>2012-07-24T21:30:29.0000000+00:00</time></trkpt><trkpt lat="63.89794922" lon="-18.70451927"><ele>494.3</ele><time>2012-07-24T21:30:34.0000000+00:00</time></trkpt><trkpt lat="63.89782715" lon="-18.70435333"><ele>495.4</ele><time>2012-07-24T21:30:39.0000000+00:00</time></trkpt><trkpt lat="63.89773178" lon="-18.70427895"><ele>492.5</ele><time>2012-07-24T21:30:44.0000000+00:00</time></trkpt><trkpt lat="63.89764404" lon="-18.70421219"><ele>491.5</ele><time>2012-07-24T21:30:49.0000000+00:00</time></trkpt><trkpt lat="63.8975296" lon="-18.70412064"><ele>491.2</ele><time>2012-07-24T21:30:54.0000000+00:00</time></trkpt><trkpt lat="63.89741898" lon="-18.70401192"><ele>490.0</ele><time>2012-07-24T21:30:59.0000000+00:00</time></trkpt><trkpt lat="63.89726639" lon="-18.70384979"><ele>488.6</ele><time>2012-07-24T21:31:04.0000000+00:00</time></trkpt><trkpt lat="63.89711762" lon="-18.70367622"><ele>487.7</ele><time>2012-07-24T21:31:09.0000000+00:00</time></trkpt><trkpt lat="63.89701843" lon="-18.70347595"><ele>486.6</ele><time>2012-07-24T21:31:14.0000000+00:00</time></trkpt><trkpt lat="63.89699173" lon="-18.70317841"><ele>485.7</ele><time>2012-07-24T21:31:19.0000000+00:00</time></trkpt><trkpt lat="63.89706802" lon="-18.70281792"><ele>486.7</ele><time>2012-07-24T21:31:24.0000000+00:00</time></trkpt><trkpt lat="63.89710236" lon="-18.70243835"><ele>488.1</ele><time>2012-07-24T21:31:29.0000000+00:00</time></trkpt><trkpt lat="63.89710236" lon="-18.70194054"><ele>488.2</ele><time>2012-07-24T21:31:34.0000000+00:00</time></trkpt><trkpt lat="63.89710617" lon="-18.70125389"><ele>486.8</ele><time>2012-07-24T21:31:39.0000000+00:00</time></trkpt><trkpt lat="63.89718247" lon="-18.7007885"><ele>486.6</ele><time>2012-07-24T21:31:44.0000000+00:00</time></trkpt><trkpt lat="63.89723206" lon="-18.70028305"><ele>486.4</ele><time>2012-07-24T21:31:49.0000000+00:00</time></trkpt><trkpt lat="63.89738846" lon="-18.69990921"><ele>489.2</ele><time>2012-07-24T21:31:54.0000000+00:00</time></trkpt><trkpt lat="63.89738083" lon="-18.69960022"><ele>491.5</ele><time>2012-07-24T21:31:59.0000000+00:00</time></trkpt><trkpt lat="63.89736176" lon="-18.69942665"><ele>491.7</ele><time>2012-07-24T21:32:04.0000000+00:00</time></trkpt><trkpt lat="63.89740753" lon="-18.69927406"><ele>494.9</ele><time>2012-07-24T21:32:09.0000000+00:00</time></trkpt><trkpt lat="63.89751053" lon="-18.69912529"><ele>498.0</ele><time>2012-07-24T21:32:14.0000000+00:00</time></trkpt><trkpt lat="63.8976059" lon="-18.69886589"><ele>493.3</ele><time>2012-07-24T21:32:19.0000000+00:00</time></trkpt><trkpt lat="63.89770508" lon="-18.6984005"><ele>490.6</ele><time>2012-07-24T21:32:24.0000000+00:00</time></trkpt><trkpt lat="63.89776993" lon="-18.69816589"><ele>494.3</ele><time>2012-07-24T21:32:29.0000000+00:00</time></trkpt><trkpt lat="63.8978157" lon="-18.69780922"><ele>491.2</ele><time>2012-07-24T21:32:34.0000000+00:00</time></trkpt><trkpt lat="63.89773941" lon="-18.69739723"><ele>489.5</ele><time>2012-07-24T21:32:39.0000000+00:00</time></trkpt><trkpt lat="63.89772034" lon="-18.69698525"><ele>487.6</ele><time>2012-07-24T21:32:44.0000000+00:00</time></trkpt><trkpt lat="63.89767838" lon="-18.69653702"><ele>486.0</ele><time>2012-07-24T21:32:49.0000000+00:00</time></trkpt><trkpt lat="63.89770126" lon="-18.69630241"><ele>484.6</ele><time>2012-07-24T21:32:54.0000000+00:00</time></trkpt><trkpt lat="63.89769745" lon="-18.69629669"><ele>484.7</ele><time>2012-07-24T21:32:59.0000000+00:00</time></trkpt><trkpt lat="63.89769745" lon="-18.69629288"><ele>484.7</ele><time>2012-07-24T21:33:04.0000000+00:00</time></trkpt><trkpt lat="63.89770508" lon="-18.69618034"><ele>484.9</ele><time>2012-07-24T21:33:09.0000000+00:00</time></trkpt><trkpt lat="63.8977356" lon="-18.69595337"><ele>484.8</ele><time>2012-07-24T21:33:14.0000000+00:00</time></trkpt><trkpt lat="63.89775085" lon="-18.69587517"><ele>484.6</ele><time>2012-07-24T21:33:19.0000000+00:00</time></trkpt><trkpt lat="63.89775848" lon="-18.6958313"><ele>484.5</ele><time>2012-07-24T21:33:24.0000000+00:00</time></trkpt><trkpt lat="63.89776993" lon="-18.69581032"><ele>484.4</ele><time>2012-07-24T21:33:29.0000000+00:00</time></trkpt><trkpt lat="63.89780808" lon="-18.69570923"><ele>484.1</ele><time>2012-07-24T21:33:34.0000000+00:00</time></trkpt><trkpt lat="63.89786148" lon="-18.69550705"><ele>484.0</ele><time>2012-07-24T21:33:39.0000000+00:00</time></trkpt><trkpt lat="63.89787674" lon="-18.69534302"><ele>483.8</ele><time>2012-07-24T21:33:44.0000000+00:00</time></trkpt><trkpt lat="63.89788055" lon="-18.69511032"><ele>483.7</ele><time>2012-07-24T21:33:49.0000000+00:00</time></trkpt><trkpt lat="63.89791107" lon="-18.69490814"><ele>484.1</ele><time>2012-07-24T21:33:54.0000000+00:00</time></trkpt><trkpt lat="63.89793015" lon="-18.69484901"><ele>484.0</ele><time>2012-07-24T21:33:59.0000000+00:00</time></trkpt><trkpt lat="63.89796448" lon="-18.69462395"><ele>483.7</ele><time>2012-07-24T21:34:04.0000000+00:00</time></trkpt><trkpt lat="63.89796448" lon="-18.69459724"><ele>482.6</ele><time>2012-07-24T21:34:09.0000000+00:00</time></trkpt><trkpt lat="63.89796448" lon="-18.69454956"><ele>482.5</ele><time>2012-07-24T21:34:14.0000000+00:00</time></trkpt><trkpt lat="63.89793778" lon="-18.69453812"><ele>482.0</ele><time>2012-07-24T21:34:19.0000000+00:00</time></trkpt><trkpt lat="63.89790344" lon="-18.69448662"><ele>481.7</ele><time>2012-07-24T21:34:24.0000000+00:00</time></trkpt><trkpt lat="63.897892" lon="-18.6944828"><ele>482.1</ele><time>2012-07-24T21:34:29.0000000+00:00</time></trkpt><trkpt lat="63.89790726" lon="-18.69450378"><ele>481.9</ele><time>2012-07-24T21:34:34.0000000+00:00</time></trkpt><trkpt lat="63.89793015" lon="-18.69450378"><ele>481.4</ele><time>2012-07-24T21:34:39.0000000+00:00</time></trkpt><trkpt lat="63.89794159" lon="-18.69445801"><ele>481.1</ele><time>2012-07-24T21:34:44.0000000+00:00</time></trkpt><trkpt lat="63.89796448" lon="-18.69441223"><ele>480.4</ele><time>2012-07-24T21:34:49.0000000+00:00</time></trkpt><trkpt lat="63.89798355" lon="-18.69435692"><ele>480.0</ele><time>2012-07-24T21:34:54.0000000+00:00</time></trkpt><trkpt lat="63.89799118" lon="-18.69425392"><ele>479.8</ele><time>2012-07-24T21:34:59.0000000+00:00</time></trkpt><trkpt lat="63.89797592" lon="-18.69419098"><ele>478.9</ele><time>2012-07-24T21:35:04.0000000+00:00</time></trkpt><trkpt lat="63.89797974" lon="-18.69407654"><ele>478.8</ele><time>2012-07-24T21:35:09.0000000+00:00</time></trkpt><trkpt lat="63.89796066" lon="-18.69398117"><ele>478.2</ele><time>2012-07-24T21:35:14.0000000+00:00</time></trkpt><trkpt lat="63.89795685" lon="-18.69384193"><ele>477.6</ele><time>2012-07-24T21:35:19.0000000+00:00</time></trkpt><trkpt lat="63.89794159" lon="-18.69375038"><ele>476.8</ele><time>2012-07-24T21:35:24.0000000+00:00</time></trkpt><trkpt lat="63.8979187" lon="-18.69366837"><ele>475.9</ele><time>2012-07-24T21:35:29.0000000+00:00</time></trkpt><trkpt lat="63.89789581" lon="-18.69364929"><ele>475.3</ele><time>2012-07-24T21:35:34.0000000+00:00</time></trkpt><trkpt lat="63.89786911" lon="-18.69357109"><ele>473.8</ele><time>2012-07-24T21:35:39.0000000+00:00</time></trkpt><trkpt lat="63.89785767" lon="-18.69354439"><ele>473.4</ele><time>2012-07-24T21:35:44.0000000+00:00</time></trkpt><trkpt lat="63.89785004" lon="-18.69349289"><ele>471.7</ele><time>2012-07-24T21:35:49.0000000+00:00</time></trkpt><trkpt lat="63.89782333" lon="-18.69348908"><ele>470.6</ele><time>2012-07-24T21:35:54.0000000+00:00</time></trkpt><trkpt lat="63.89779282" lon="-18.69347191"><ele>469.0</ele><time>2012-07-24T21:35:59.0000000+00:00</time></trkpt><trkpt lat="63.89776993" lon="-18.69344521"><ele>468.2</ele><time>2012-07-24T21:36:04.0000000+00:00</time></trkpt><trkpt lat="63.89777756" lon="-18.69345856"><ele>466.7</ele><time>2012-07-24T21:36:09.0000000+00:00</time></trkpt><trkpt lat="63.89777756" lon="-18.69344521"><ele>466.5</ele><time>2012-07-24T21:36:14.0000000+00:00</time></trkpt><trkpt lat="63.89778519" lon="-18.69342041"><ele>466.2</ele><time>2012-07-24T21:36:19.0000000+00:00</time></trkpt><trkpt lat="63.8978157" lon="-18.69335938"><ele>465.7</ele><time>2012-07-24T21:36:24.0000000+00:00</time></trkpt><trkpt lat="63.89783859" lon="-18.69330216"><ele>464.9</ele><time>2012-07-24T21:36:29.0000000+00:00</time></trkpt><trkpt lat="63.89784622" lon="-18.69322205"><ele>464.3</ele><time>2012-07-24T21:36:34.0000000+00:00</time></trkpt><trkpt lat="63.89785004" lon="-18.69316673"><ele>463.7</ele><time>2012-07-24T21:36:39.0000000+00:00</time></trkpt><trkpt lat="63.89785004" lon="-18.69306755"><ele>463.0</ele><time>2012-07-24T21:36:44.0000000+00:00</time></trkpt><trkpt lat="63.89779663" lon="-18.69299507"><ele>461.5</ele><time>2012-07-24T21:36:49.0000000+00:00</time></trkpt><trkpt lat="63.89778137" lon="-18.692873"><ele>458.3</ele><time>2012-07-24T21:36:54.0000000+00:00</time></trkpt><trkpt lat="63.89778137" lon="-18.69282913"><ele>456.9</ele><time>2012-07-24T21:36:59.0000000+00:00</time></trkpt><trkpt lat="63.8977623" lon="-18.69272232"><ele>455.6</ele><time>2012-07-24T21:37:04.0000000+00:00</time></trkpt><trkpt lat="63.89775467" lon="-18.69265175"><ele>454.5</ele><time>2012-07-24T21:37:09.0000000+00:00</time></trkpt><trkpt lat="63.8977356" lon="-18.69261551"><ele>453.3</ele><time>2012-07-24T21:37:14.0000000+00:00</time></trkpt><trkpt lat="63.89773178" lon="-18.69250488"><ele>452.2</ele><time>2012-07-24T21:37:19.0000000+00:00</time></trkpt><trkpt lat="63.89772034" lon="-18.69240379"><ele>450.8</ele><time>2012-07-24T21:37:24.0000000+00:00</time></trkpt><trkpt lat="63.89770889" lon="-18.69223976"><ele>450.2</ele><time>2012-07-24T21:37:29.0000000+00:00</time></trkpt><trkpt lat="63.89771271" lon="-18.69214821"><ele>450.6</ele><time>2012-07-24T21:37:34.0000000+00:00</time></trkpt><trkpt lat="63.89772034" lon="-18.69205284"><ele>451.1</ele><time>2012-07-24T21:37:39.0000000+00:00</time></trkpt><trkpt lat="63.89770126" lon="-18.69198608"><ele>451.4</ele><time>2012-07-24T21:37:44.0000000+00:00</time></trkpt><trkpt lat="63.89768982" lon="-18.6918869"><ele>450.9</ele><time>2012-07-24T21:37:49.0000000+00:00</time></trkpt><trkpt lat="63.89769363" lon="-18.69177246"><ele>450.1</ele><time>2012-07-24T21:37:54.0000000+00:00</time></trkpt><trkpt lat="63.89772415" lon="-18.69164467"><ele>450.3</ele><time>2012-07-24T21:37:59.0000000+00:00</time></trkpt><trkpt lat="63.89775848" lon="-18.69155121"><ele>450.7</ele><time>2012-07-24T21:38:04.0000000+00:00</time></trkpt><trkpt lat="63.89781189" lon="-18.69145203"><ele>450.9</ele><time>2012-07-24T21:38:09.0000000+00:00</time></trkpt><trkpt lat="63.89785004" lon="-18.69137764"><ele>450.9</ele><time>2012-07-24T21:38:14.0000000+00:00</time></trkpt><trkpt lat="63.89785004" lon="-18.6913147"><ele>452.2</ele><time>2012-07-24T21:38:19.0000000+00:00</time></trkpt><trkpt lat="63.89782333" lon="-18.69119453"><ele>452.2</ele><time>2012-07-24T21:38:24.0000000+00:00</time></trkpt><trkpt lat="63.89781189" lon="-18.69105148"><ele>452.8</ele><time>2012-07-24T21:38:29.0000000+00:00</time></trkpt><trkpt lat="63.89780808" lon="-18.69088554"><ele>454.5</ele><time>2012-07-24T21:38:34.0000000+00:00</time></trkpt><trkpt lat="63.89782715" lon="-18.69080162"><ele>454.6</ele><time>2012-07-24T21:38:39.0000000+00:00</time></trkpt><trkpt lat="63.89785004" lon="-18.69068337"><ele>455.9</ele><time>2012-07-24T21:38:44.0000000+00:00</time></trkpt><trkpt lat="63.89787674" lon="-18.69066048"><ele>456.1</ele><time>2012-07-24T21:38:49.0000000+00:00</time></trkpt><trkpt lat="63.8979187" lon="-18.6906147"><ele>457.1</ele><time>2012-07-24T21:38:54.0000000+00:00</time></trkpt><trkpt lat="63.89796066" lon="-18.69069862"><ele>456.2</ele><time>2012-07-24T21:38:59.0000000+00:00</time></trkpt><trkpt lat="63.89797974" lon="-18.69081116"><ele>451.7</ele><time>2012-07-24T21:39:04.0000000+00:00</time></trkpt><trkpt lat="63.89797211" lon="-18.69080162"><ele>451.0</ele><time>2012-07-24T21:39:09.0000000+00:00</time></trkpt><trkpt lat="63.89792252" lon="-18.69070816"><ele>450.9</ele><time>2012-07-24T21:39:14.0000000+00:00</time></trkpt><trkpt lat="63.89791107" lon="-18.69070816"><ele>451.3</ele><time>2012-07-24T21:39:19.0000000+00:00</time></trkpt><trkpt lat="63.89792252" lon="-18.69067764"><ele>452.5</ele><time>2012-07-24T21:39:24.0000000+00:00</time></trkpt><trkpt lat="63.89793778" lon="-18.69068527"><ele>453.0</ele><time>2012-07-24T21:39:29.0000000+00:00</time></trkpt><trkpt lat="63.89794922" lon="-18.69069481"><ele>453.1</ele><time>2012-07-24T21:39:34.0000000+00:00</time></trkpt><trkpt lat="63.89791489" lon="-18.69071007"><ele>453.2</ele><time>2012-07-24T21:39:39.0000000+00:00</time></trkpt><trkpt lat="63.89792252" lon="-18.69068909"><ele>453.4</ele><time>2012-07-24T21:39:44.0000000+00:00</time></trkpt><trkpt lat="63.89792633" lon="-18.69072151"><ele>453.3</ele><time>2012-07-24T21:39:49.0000000+00:00</time></trkpt><trkpt lat="63.89789581" lon="-18.69072914"><ele>453.3</ele><time>2012-07-24T21:39:54.0000000+00:00</time></trkpt><trkpt lat="63.897995" lon="-18.69046593"><ele>438.1</ele><time>2012-07-24T21:40:24.0000000+00:00</time></trkpt><trkpt lat="63.89799881" lon="-18.69062042"><ele>450.8</ele><time>2012-07-24T21:40:29.0000000+00:00</time></trkpt><trkpt lat="63.89798355" lon="-18.6909008"><ele>441.8</ele><time>2012-07-24T21:40:54.0000000+00:00</time></trkpt><trkpt lat="63.8979187" lon="-18.69079399"><ele>441.1</ele><time>2012-07-24T21:40:59.0000000+00:00</time></trkpt><trkpt lat="63.89792633" lon="-18.69111633"><ele>409.8</ele><time>2012-07-24T21:41:29.0000000+00:00</time></trkpt><trkpt lat="63.89788437" lon="-18.69074631"><ele>445.3</ele><time>2012-07-24T21:41:34.0000000+00:00</time></trkpt><trkpt lat="63.897892" lon="-18.69073105"><ele>445.5</ele><time>2012-07-24T21:41:39.0000000+00:00</time></trkpt><trkpt lat="63.89791489" lon="-18.69079399"><ele>445.3</ele><time>2012-07-24T21:41:44.0000000+00:00</time></trkpt><trkpt lat="63.89791489" lon="-18.69080925"><ele>445.0</ele><time>2012-07-24T21:41:49.0000000+00:00</time></trkpt><trkpt lat="63.89791489" lon="-18.69080925"><ele>444.8</ele><time>2012-07-24T21:41:54.0000000+00:00</time></trkpt><trkpt lat="63.8979187" lon="-18.69077301"><ele>444.6</ele><time>2012-07-24T21:41:59.0000000+00:00</time></trkpt><trkpt lat="63.89792633" lon="-18.69077301"><ele>444.5</ele><time>2012-07-24T21:42:04.0000000+00:00</time></trkpt><trkpt lat="63.89793396" lon="-18.69076347"><ele>444.4</ele><time>2012-07-24T21:42:09.0000000+00:00</time></trkpt><trkpt lat="63.8979187" lon="-18.69079018"><ele>444.4</ele><time>2012-07-24T21:42:14.0000000+00:00</time></trkpt><trkpt lat="63.89790726" lon="-18.69077873"><ele>444.4</ele><time>2012-07-24T21:42:19.0000000+00:00</time></trkpt><trkpt lat="63.89790726" lon="-18.69076729"><ele>444.4</ele><time>2012-07-24T21:42:24.0000000+00:00</time></trkpt><trkpt lat="63.89785385" lon="-18.69058418"><ele>444.4</ele><time>2012-07-24T21:42:29.0000000+00:00</time></trkpt><trkpt lat="63.89787293" lon="-18.69060326"><ele>443.9</ele><time>2012-07-24T21:42:34.0000000+00:00</time></trkpt><trkpt lat="63.89786911" lon="-18.69058037"><ele>443.6</ele><time>2012-07-24T21:42:39.0000000+00:00</time></trkpt><trkpt lat="63.89786911" lon="-18.69058037"><ele>443.6</ele><time>2012-07-24T21:42:44.0000000+00:00</time></trkpt><trkpt lat="63.89786911" lon="-18.69058037"><ele>443.6</ele><time>2012-07-24T21:42:49.0000000+00:00</time></trkpt><trkpt lat="63.89786911" lon="-18.69058037"><ele>443.6</ele><time>2012-07-24T21:42:54.0000000+00:00</time></trkpt><trkpt lat="63.89786911" lon="-18.69058228"><ele>443.6</ele><time>2012-07-24T21:42:59.0000000+00:00</time></trkpt><trkpt lat="63.89786911" lon="-18.69058418"><ele>443.6</ele><time>2012-07-24T21:43:04.0000000+00:00</time></trkpt><trkpt lat="63.89786911" lon="-18.69058418"><ele>443.6</ele><time>2012-07-24T21:43:09.0000000+00:00</time></trkpt><trkpt lat="63.89786911" lon="-18.69058418"><ele>443.6</ele><time>2012-07-24T21:43:14.0000000+00:00</time></trkpt><trkpt lat="63.89786911" lon="-18.69058418"><ele>443.6</ele><time>2012-07-24T21:43:19.0000000+00:00</time></trkpt><trkpt lat="63.89786911" lon="-18.69058418"><ele>443.6</ele><time>2012-07-24T21:43:24.0000000+00:00</time></trkpt><trkpt lat="63.89786911" lon="-18.69058609"><ele>443.6</ele><time>2012-07-24T21:43:29.0000000+00:00</time></trkpt><trkpt lat="63.89787293" lon="-18.690588"><ele>443.6</ele><time>2012-07-24T21:43:34.0000000+00:00</time></trkpt><trkpt lat="63.89787293" lon="-18.690588"><ele>443.6</ele><time>2012-07-24T21:43:39.0000000+00:00</time></trkpt><trkpt lat="63.89787293" lon="-18.69058609"><ele>443.6</ele><time>2012-07-24T21:43:44.0000000+00:00</time></trkpt><trkpt lat="63.89787674" lon="-18.690588"><ele>443.6</ele><time>2012-07-24T21:43:49.0000000+00:00</time></trkpt><trkpt lat="63.89788055" lon="-18.69059753"><ele>443.6</ele><time>2012-07-24T21:43:54.0000000+00:00</time></trkpt><trkpt lat="63.89788055" lon="-18.69062996"><ele>443.7</ele><time>2012-07-24T21:43:59.0000000+00:00</time></trkpt><trkpt lat="63.89788055" lon="-18.6906414"><ele>443.7</ele><time>2012-07-24T21:44:04.0000000+00:00</time></trkpt><trkpt lat="63.89788055" lon="-18.6906395"><ele>443.7</ele><time>2012-07-24T21:44:09.0000000+00:00</time></trkpt><trkpt lat="63.89788818" lon="-18.69069481"><ele>443.2</ele><time>2012-07-24T21:44:14.0000000+00:00</time></trkpt><trkpt lat="63.897892" lon="-18.69068146"><ele>443.3</ele><time>2012-07-24T21:44:19.0000000+00:00</time></trkpt><trkpt lat="63.89787293" lon="-18.69066048"><ele>443.6</ele><time>2012-07-24T21:44:24.0000000+00:00</time></trkpt><trkpt lat="63.89787674" lon="-18.69067383"><ele>443.7</ele><time>2012-07-24T21:44:29.0000000+00:00</time></trkpt><trkpt lat="63.89787674" lon="-18.69068146"><ele>443.8</ele><time>2012-07-24T21:44:34.0000000+00:00</time></trkpt></trkseg><trkseg><trkpt lat="63.89785004" lon="-18.69068718"><ele>445.0</ele><time>2012-07-25T12:03:52.0000000+00:00</time></trkpt><trkpt lat="63.89784241" lon="-18.69064713"><ele>447.4</ele><time>2012-07-25T12:03:57.0000000+00:00</time></trkpt><trkpt lat="63.89783478" lon="-18.69055176"><ele>446.0</ele><time>2012-07-25T12:04:02.0000000+00:00</time></trkpt><trkpt lat="63.89780808" lon="-18.69047165"><ele>444.6</ele><time>2012-07-25T12:04:07.0000000+00:00</time></trkpt><trkpt lat="63.8977623" lon="-18.69050789"><ele>442.9</ele><time>2012-07-25T12:04:12.0000000+00:00</time></trkpt><trkpt lat="63.89770889" lon="-18.69061279"><ele>441.5</ele><time>2012-07-25T12:04:17.0000000+00:00</time></trkpt><trkpt lat="63.8976593" lon="-18.69075584"><ele>440.1</ele><time>2012-07-25T12:04:22.0000000+00:00</time></trkpt><trkpt lat="63.89759445" lon="-18.69078064"><ele>440.5</ele><time>2012-07-25T12:04:27.0000000+00:00</time></trkpt><trkpt lat="63.89759827" lon="-18.69077683"><ele>441.6</ele><time>2012-07-25T12:04:32.0000000+00:00</time></trkpt><trkpt lat="63.89759445" lon="-18.69077873"><ele>441.5</ele><time>2012-07-25T12:04:37.0000000+00:00</time></trkpt><trkpt lat="63.89759827" lon="-18.69077873"><ele>441.5</ele><time>2012-07-25T12:04:42.0000000+00:00</time></trkpt><trkpt lat="63.89760208" lon="-18.69077492"><ele>441.5</ele><time>2012-07-25T12:04:47.0000000+00:00</time></trkpt><trkpt lat="63.89768219" lon="-18.6907177"><ele>443.7</ele><time>2012-07-25T12:04:52.0000000+00:00</time></trkpt><trkpt lat="63.89773941" lon="-18.69076347"><ele>442.6</ele><time>2012-07-25T12:04:57.0000000+00:00</time></trkpt><trkpt lat="63.89779663" lon="-18.69074249"><ele>442.9</ele><time>2012-07-25T12:05:02.0000000+00:00</time></trkpt><trkpt lat="63.89779663" lon="-18.69073868"><ele>443.4</ele><time>2012-07-25T12:05:07.0000000+00:00</time></trkpt><trkpt lat="63.89779663" lon="-18.69073868"><ele>443.4</ele><time>2012-07-25T12:05:12.0000000+00:00</time></trkpt><trkpt lat="63.89779663" lon="-18.69073868"><ele>443.4</ele><time>2012-07-25T12:05:17.0000000+00:00</time></trkpt><trkpt lat="63.89779663" lon="-18.69073868"><ele>443.4</ele><time>2012-07-25T12:05:22.0000000+00:00</time></trkpt><trkpt lat="63.89779663" lon="-18.69073677"><ele>443.4</ele><time>2012-07-25T12:05:27.0000000+00:00</time></trkpt><trkpt lat="63.89780045" lon="-18.69073677"><ele>443.4</ele><time>2012-07-25T12:05:32.0000000+00:00</time></trkpt><trkpt lat="63.89780045" lon="-18.69073677"><ele>443.4</ele><time>2012-07-25T12:05:37.0000000+00:00</time></trkpt><trkpt lat="63.89780045" lon="-18.69073677"><ele>443.4</ele><time>2012-07-25T12:05:42.0000000+00:00</time></trkpt><trkpt lat="63.89780045" lon="-18.69073677"><ele>443.4</ele><time>2012-07-25T12:05:47.0000000+00:00</time></trkpt><trkpt lat="63.8978157" lon="-18.69073486"><ele>443.8</ele><time>2012-07-25T12:05:52.0000000+00:00</time></trkpt><trkpt lat="63.89784241" lon="-18.69073868"><ele>443.5</ele><time>2012-07-25T12:05:57.0000000+00:00</time></trkpt><trkpt lat="63.89784241" lon="-18.69074059"><ele>443.8</ele><time>2012-07-25T12:06:02.0000000+00:00</time></trkpt><trkpt lat="63.89780808" lon="-18.69079971"><ele>442.7</ele><time>2012-07-25T12:06:07.0000000+00:00</time></trkpt><trkpt lat="63.89777756" lon="-18.69088554"><ele>442.1</ele><time>2012-07-25T12:06:12.0000000+00:00</time></trkpt><trkpt lat="63.89778519" lon="-18.69095421"><ele>442.1</ele><time>2012-07-25T12:06:17.0000000+00:00</time></trkpt><trkpt lat="63.897789" lon="-18.69098663"><ele>443.2</ele><time>2012-07-25T12:06:22.0000000+00:00</time></trkpt><trkpt lat="63.89778519" lon="-18.6911068"><ele>442.9</ele><time>2012-07-25T12:06:27.0000000+00:00</time></trkpt><trkpt lat="63.89777756" lon="-18.69124603"><ele>443.0</ele><time>2012-07-25T12:06:32.0000000+00:00</time></trkpt><trkpt lat="63.89778519" lon="-18.69134522"><ele>444.2</ele><time>2012-07-25T12:06:37.0000000+00:00</time></trkpt><trkpt lat="63.89780426" lon="-18.69141769"><ele>444.7</ele><time>2012-07-25T12:06:42.0000000+00:00</time></trkpt><trkpt lat="63.89777374" lon="-18.69150353"><ele>447.0</ele><time>2012-07-25T12:06:47.0000000+00:00</time></trkpt><trkpt lat="63.89774704" lon="-18.69155312"><ele>449.1</ele><time>2012-07-25T12:06:52.0000000+00:00</time></trkpt><trkpt lat="63.89771271" lon="-18.69161797"><ele>449.5</ele><time>2012-07-25T12:06:57.0000000+00:00</time></trkpt><trkpt lat="63.89766693" lon="-18.6917038"><ele>450.1</ele><time>2012-07-25T12:07:02.0000000+00:00</time></trkpt><trkpt lat="63.89765549" lon="-18.69182396"><ele>450.1</ele><time>2012-07-25T12:07:07.0000000+00:00</time></trkpt><trkpt lat="63.89767075" lon="-18.69192314"><ele>450.7</ele><time>2012-07-25T12:07:12.0000000+00:00</time></trkpt><trkpt lat="63.89768219" lon="-18.6920166"><ele>453.6</ele><time>2012-07-25T12:07:17.0000000+00:00</time></trkpt><trkpt lat="63.89768982" lon="-18.69208717"><ele>454.3</ele><time>2012-07-25T12:07:22.0000000+00:00</time></trkpt><trkpt lat="63.89768219" lon="-18.69215393"><ele>454.2</ele><time>2012-07-25T12:07:27.0000000+00:00</time></trkpt><trkpt lat="63.89767838" lon="-18.69216347"><ele>453.7</ele><time>2012-07-25T12:07:32.0000000+00:00</time></trkpt><trkpt lat="63.89767838" lon="-18.69219399"><ele>453.7</ele><time>2012-07-25T12:07:37.0000000+00:00</time></trkpt><trkpt lat="63.89766312" lon="-18.69233131"><ele>453.6</ele><time>2012-07-25T12:07:42.0000000+00:00</time></trkpt><trkpt lat="63.89768219" lon="-18.69243813"><ele>455.0</ele><time>2012-07-25T12:07:47.0000000+00:00</time></trkpt><trkpt lat="63.89771652" lon="-18.69252205"><ele>454.8</ele><time>2012-07-25T12:07:52.0000000+00:00</time></trkpt><trkpt lat="63.89772797" lon="-18.69262314"><ele>455.5</ele><time>2012-07-25T12:07:57.0000000+00:00</time></trkpt><trkpt lat="63.8977356" lon="-18.6926899"><ele>456.0</ele><time>2012-07-25T12:08:02.0000000+00:00</time></trkpt><trkpt lat="63.89775848" lon="-18.69272614"><ele>454.2</ele><time>2012-07-25T12:08:07.0000000+00:00</time></trkpt><trkpt lat="63.89775467" lon="-18.69272041"><ele>454.3</ele><time>2012-07-25T12:08:12.0000000+00:00</time></trkpt><trkpt lat="63.8977623" lon="-18.69278145"><ele>455.0</ele><time>2012-07-25T12:08:17.0000000+00:00</time></trkpt><trkpt lat="63.89776993" lon="-18.692873"><ele>454.8</ele><time>2012-07-25T12:08:22.0000000+00:00</time></trkpt><trkpt lat="63.89776993" lon="-18.69298935"><ele>455.6</ele><time>2012-07-25T12:08:27.0000000+00:00</time></trkpt><trkpt lat="63.897789" lon="-18.69307137"><ele>456.5</ele><time>2012-07-25T12:08:32.0000000+00:00</time></trkpt><trkpt lat="63.89780808" lon="-18.69311523"><ele>458.6</ele><time>2012-07-25T12:08:37.0000000+00:00</time></trkpt><trkpt lat="63.89780808" lon="-18.6931324"><ele>458.6</ele><time>2012-07-25T12:08:42.0000000+00:00</time></trkpt><trkpt lat="63.89780808" lon="-18.69318008"><ele>458.1</ele><time>2012-07-25T12:08:47.0000000+00:00</time></trkpt><trkpt lat="63.89780808" lon="-18.69321442"><ele>458.5</ele><time>2012-07-25T12:08:52.0000000+00:00</time></trkpt><trkpt lat="63.89780426" lon="-18.69325447"><ele>458.4</ele><time>2012-07-25T12:08:57.0000000+00:00</time></trkpt><trkpt lat="63.89780808" lon="-18.69326973"><ele>458.6</ele><time>2012-07-25T12:09:02.0000000+00:00</time></trkpt><trkpt lat="63.89780426" lon="-18.69327354"><ele>458.7</ele><time>2012-07-25T12:09:07.0000000+00:00</time></trkpt><trkpt lat="63.897789" lon="-18.69332695"><ele>458.0</ele><time>2012-07-25T12:09:12.0000000+00:00</time></trkpt><trkpt lat="63.89779282" lon="-18.69337273"><ele>458.5</ele><time>2012-07-25T12:09:17.0000000+00:00</time></trkpt><trkpt lat="63.89777756" lon="-18.69342423"><ele>459.4</ele><time>2012-07-25T12:09:22.0000000+00:00</time></trkpt><trkpt lat="63.89775467" lon="-18.69346619"><ele>459.3</ele><time>2012-07-25T12:09:27.0000000+00:00</time></trkpt><trkpt lat="63.89773178" lon="-18.6935215"><ele>459.3</ele><time>2012-07-25T12:09:32.0000000+00:00</time></trkpt><trkpt lat="63.89772415" lon="-18.69354439"><ele>461.1</ele><time>2012-07-25T12:09:37.0000000+00:00</time></trkpt><trkpt lat="63.89772034" lon="-18.69359207"><ele>461.1</ele><time>2012-07-25T12:09:42.0000000+00:00</time></trkpt><trkpt lat="63.89770889" lon="-18.69364929"><ele>460.7</ele><time>2012-07-25T12:09:47.0000000+00:00</time></trkpt><trkpt lat="63.89770508" lon="-18.69366455"><ele>459.8</ele><time>2012-07-25T12:09:52.0000000+00:00</time></trkpt><trkpt lat="63.89772034" lon="-18.69367027"><ele>460.0</ele><time>2012-07-25T12:09:57.0000000+00:00</time></trkpt><trkpt lat="63.89772797" lon="-18.69371414"><ele>461.1</ele><time>2012-07-25T12:10:02.0000000+00:00</time></trkpt><trkpt lat="63.89772415" lon="-18.69374085"><ele>461.2</ele><time>2012-07-25T12:10:07.0000000+00:00</time></trkpt><trkpt lat="63.89772415" lon="-18.69374085"><ele>462.4</ele><time>2012-07-25T12:10:12.0000000+00:00</time></trkpt><trkpt lat="63.89773178" lon="-18.69376946"><ele>464.2</ele><time>2012-07-25T12:10:17.0000000+00:00</time></trkpt><trkpt lat="63.8977356" lon="-18.69380188"><ele>467.1</ele><time>2012-07-25T12:10:22.0000000+00:00</time></trkpt><trkpt lat="63.89773941" lon="-18.69384766"><ele>470.2</ele><time>2012-07-25T12:10:27.0000000+00:00</time></trkpt><trkpt lat="63.89773941" lon="-18.69388962"><ele>470.5</ele><time>2012-07-25T12:10:32.0000000+00:00</time></trkpt><trkpt lat="63.89775085" lon="-18.6939106"><ele>471.6</ele><time>2012-07-25T12:10:37.0000000+00:00</time></trkpt><trkpt lat="63.89775848" lon="-18.69390869"><ele>471.9</ele><time>2012-07-25T12:10:42.0000000+00:00</time></trkpt><trkpt lat="63.89775848" lon="-18.69390678"><ele>472.3</ele><time>2012-07-25T12:10:47.0000000+00:00</time></trkpt><trkpt lat="63.89775848" lon="-18.69389916"><ele>472.1</ele><time>2012-07-25T12:10:52.0000000+00:00</time></trkpt><trkpt lat="63.89775848" lon="-18.69396401"><ele>472.1</ele><time>2012-07-25T12:10:57.0000000+00:00</time></trkpt><trkpt lat="63.89775467" lon="-18.69403458"><ele>473.1</ele><time>2012-07-25T12:11:02.0000000+00:00</time></trkpt><trkpt lat="63.89775467" lon="-18.69409561"><ele>473.3</ele><time>2012-07-25T12:11:07.0000000+00:00</time></trkpt><trkpt lat="63.89775848" lon="-18.69414139"><ele>473.2</ele><time>2012-07-25T12:11:12.0000000+00:00</time></trkpt><trkpt lat="63.89776611" lon="-18.6941433"><ele>474.7</ele><time>2012-07-25T12:11:17.0000000+00:00</time></trkpt><trkpt lat="63.89776611" lon="-18.69416428"><ele>474.8</ele><time>2012-07-25T12:11:22.0000000+00:00</time></trkpt><trkpt lat="63.89775848" lon="-18.69423103"><ele>474.7</ele><time>2012-07-25T12:11:27.0000000+00:00</time></trkpt><trkpt lat="63.8977623" lon="-18.69429588"><ele>475.8</ele><time>2012-07-25T12:11:32.0000000+00:00</time></trkpt><trkpt lat="63.89776611" lon="-18.69436836"><ele>476.3</ele><time>2012-07-25T12:11:37.0000000+00:00</time></trkpt><trkpt lat="63.8977623" lon="-18.69444275"><ele>476.8</ele><time>2012-07-25T12:11:42.0000000+00:00</time></trkpt><trkpt lat="63.89775848" lon="-18.69450378"><ele>475.7</ele><time>2012-07-25T12:11:47.0000000+00:00</time></trkpt><trkpt lat="63.89773941" lon="-18.69457436"><ele>475.2</ele><time>2012-07-25T12:11:52.0000000+00:00</time></trkpt><trkpt lat="63.89772415" lon="-18.69466209"><ele>473.9</ele><time>2012-07-25T12:11:57.0000000+00:00</time></trkpt><trkpt lat="63.89770508" lon="-18.69470787"><ele>473.1</ele><time>2012-07-25T12:12:02.0000000+00:00</time></trkpt><trkpt lat="63.89769745" lon="-18.69480324"><ele>472.1</ele><time>2012-07-25T12:12:07.0000000+00:00</time></trkpt><trkpt lat="63.89769363" lon="-18.69486427"><ele>472.2</ele><time>2012-07-25T12:12:12.0000000+00:00</time></trkpt><trkpt lat="63.89767838" lon="-18.69491386"><ele>471.9</ele><time>2012-07-25T12:12:17.0000000+00:00</time></trkpt><trkpt lat="63.89765167" lon="-18.69498062"><ele>471.7</ele><time>2012-07-25T12:12:22.0000000+00:00</time></trkpt><trkpt lat="63.89763641" lon="-18.69508171"><ele>472.3</ele><time>2012-07-25T12:12:27.0000000+00:00</time></trkpt><trkpt lat="63.89761353" lon="-18.69514275"><ele>474.0</ele><time>2012-07-25T12:12:32.0000000+00:00</time></trkpt><trkpt lat="63.89757919" lon="-18.69517899"><ele>475.2</ele><time>2012-07-25T12:12:37.0000000+00:00</time></trkpt><trkpt lat="63.89756393" lon="-18.69525528"><ele>474.6</ele><time>2012-07-25T12:12:42.0000000+00:00</time></trkpt><trkpt lat="63.89756012" lon="-18.69531059"><ele>475.5</ele><time>2012-07-25T12:12:47.0000000+00:00</time></trkpt><trkpt lat="63.89754868" lon="-18.69537544"><ele>475.7</ele><time>2012-07-25T12:12:52.0000000+00:00</time></trkpt><trkpt lat="63.89751816" lon="-18.69548035"><ele>476.9</ele><time>2012-07-25T12:12:57.0000000+00:00</time></trkpt><trkpt lat="63.8975029" lon="-18.69552994"><ele>479.5</ele><time>2012-07-25T12:13:02.0000000+00:00</time></trkpt><trkpt lat="63.89749146" lon="-18.69562531"><ele>481.0</ele><time>2012-07-25T12:13:07.0000000+00:00</time></trkpt><trkpt lat="63.89748383" lon="-18.69564819"><ele>480.3</ele><time>2012-07-25T12:13:12.0000000+00:00</time></trkpt><trkpt lat="63.89748764" lon="-18.69563103"><ele>480.3</ele><time>2012-07-25T12:13:17.0000000+00:00</time></trkpt><trkpt lat="63.89748764" lon="-18.69563294"><ele>480.4</ele><time>2012-07-25T12:13:22.0000000+00:00</time></trkpt><trkpt lat="63.89748764" lon="-18.69564056"><ele>480.6</ele><time>2012-07-25T12:13:27.0000000+00:00</time></trkpt><trkpt lat="63.89748383" lon="-18.69572258"><ele>481.7</ele><time>2012-07-25T12:13:32.0000000+00:00</time></trkpt><trkpt lat="63.89749146" lon="-18.69585419"><ele>483.3</ele><time>2012-07-25T12:13:37.0000000+00:00</time></trkpt><trkpt lat="63.89749146" lon="-18.69597817"><ele>485.5</ele><time>2012-07-25T12:13:42.0000000+00:00</time></trkpt><trkpt lat="63.89748001" lon="-18.69613075"><ele>487.0</ele><time>2012-07-25T12:13:47.0000000+00:00</time></trkpt><trkpt lat="63.8974762" lon="-18.69621658"><ele>487.8</ele><time>2012-07-25T12:13:52.0000000+00:00</time></trkpt><trkpt lat="63.89745331" lon="-18.69630241"><ele>488.4</ele><time>2012-07-25T12:13:57.0000000+00:00</time></trkpt><trkpt lat="63.89744186" lon="-18.6964035"><ele>488.9</ele><time>2012-07-25T12:14:02.0000000+00:00</time></trkpt><trkpt lat="63.89741898" lon="-18.69654083"><ele>487.4</ele><time>2012-07-25T12:14:07.0000000+00:00</time></trkpt><trkpt lat="63.8973999" lon="-18.6967144"><ele>485.8</ele><time>2012-07-25T12:14:12.0000000+00:00</time></trkpt><trkpt lat="63.89740753" lon="-18.69680977"><ele>486.1</ele><time>2012-07-25T12:14:17.0000000+00:00</time></trkpt><trkpt lat="63.8973999" lon="-18.69685173"><ele>484.8</ele><time>2012-07-25T12:14:22.0000000+00:00</time></trkpt><trkpt lat="63.89737701" lon="-18.69693947"><ele>483.7</ele><time>2012-07-25T12:14:27.0000000+00:00</time></trkpt><trkpt lat="63.89730835" lon="-18.69709778"><ele>483.0</ele><time>2012-07-25T12:14:32.0000000+00:00</time></trkpt><trkpt lat="63.89723969" lon="-18.69728661"><ele>481.8</ele><time>2012-07-25T12:14:37.0000000+00:00</time></trkpt><trkpt lat="63.89719391" lon="-18.69747162"><ele>481.1</ele><time>2012-07-25T12:14:42.0000000+00:00</time></trkpt><trkpt lat="63.89715958" lon="-18.69765282"><ele>481.3</ele><time>2012-07-25T12:14:47.0000000+00:00</time></trkpt><trkpt lat="63.89710999" lon="-18.69787979"><ele>481.7</ele><time>2012-07-25T12:14:52.0000000+00:00</time></trkpt><trkpt lat="63.89706039" lon="-18.69811058"><ele>479.3</ele><time>2012-07-25T12:14:57.0000000+00:00</time></trkpt><trkpt lat="63.89702225" lon="-18.69832611"><ele>480.1</ele><time>2012-07-25T12:15:02.0000000+00:00</time></trkpt><trkpt lat="63.89701462" lon="-18.69854546"><ele>481.8</ele><time>2012-07-25T12:15:07.0000000+00:00</time></trkpt><trkpt lat="63.89701462" lon="-18.69881058"><ele>484.0</ele><time>2012-07-25T12:15:12.0000000+00:00</time></trkpt><trkpt lat="63.89700317" lon="-18.69906998"><ele>483.3</ele><time>2012-07-25T12:15:17.0000000+00:00</time></trkpt><trkpt lat="63.8969841" lon="-18.69928169"><ele>483.6</ele><time>2012-07-25T12:15:22.0000000+00:00</time></trkpt><trkpt lat="63.8969841" lon="-18.6994648"><ele>484.0</ele><time>2012-07-25T12:15:27.0000000+00:00</time></trkpt><trkpt lat="63.89696121" lon="-18.69960976"><ele>483.5</ele><time>2012-07-25T12:15:32.0000000+00:00</time></trkpt><trkpt lat="63.89692307" lon="-18.69976807"><ele>482.2</ele><time>2012-07-25T12:15:37.0000000+00:00</time></trkpt><trkpt lat="63.89693451" lon="-18.69994545"><ele>484.0</ele><time>2012-07-25T12:15:42.0000000+00:00</time></trkpt><trkpt lat="63.89693832" lon="-18.70009422"><ele>483.0</ele><time>2012-07-25T12:15:47.0000000+00:00</time></trkpt><trkpt lat="63.89696121" lon="-18.70033836"><ele>483.3</ele><time>2012-07-25T12:15:52.0000000+00:00</time></trkpt><trkpt lat="63.89698792" lon="-18.70053291"><ele>483.0</ele><time>2012-07-25T12:15:57.0000000+00:00</time></trkpt><trkpt lat="63.89700699" lon="-18.7007103"><ele>483.4</ele><time>2012-07-25T12:16:02.0000000+00:00</time></trkpt><trkpt lat="63.8970108" lon="-18.70090675"><ele>484.2</ele><time>2012-07-25T12:16:07.0000000+00:00</time></trkpt><trkpt lat="63.8970108" lon="-18.70111656"><ele>483.9</ele><time>2012-07-25T12:16:12.0000000+00:00</time></trkpt><trkpt lat="63.89704132" lon="-18.70133209"><ele>483.7</ele><time>2012-07-25T12:16:17.0000000+00:00</time></trkpt><trkpt lat="63.89706802" lon="-18.70156288"><ele>484.1</ele><time>2012-07-25T12:16:22.0000000+00:00</time></trkpt><trkpt lat="63.89706802" lon="-18.70182991"><ele>485.0</ele><time>2012-07-25T12:16:27.0000000+00:00</time></trkpt><trkpt lat="63.89707565" lon="-18.70205689"><ele>486.0</ele><time>2012-07-25T12:16:32.0000000+00:00</time></trkpt><trkpt lat="63.89707947" lon="-18.70223236"><ele>487.0</ele><time>2012-07-25T12:16:37.0000000+00:00</time></trkpt><trkpt lat="63.89707947" lon="-18.70241928"><ele>487.4</ele><time>2012-07-25T12:16:42.0000000+00:00</time></trkpt><trkpt lat="63.89706802" lon="-18.70258141"><ele>487.6</ele><time>2012-07-25T12:16:47.0000000+00:00</time></trkpt><trkpt lat="63.89704514" lon="-18.70281601"><ele>486.7</ele><time>2012-07-25T12:16:52.0000000+00:00</time></trkpt><trkpt lat="63.8969841" lon="-18.7030735"><ele>486.1</ele><time>2012-07-25T12:16:57.0000000+00:00</time></trkpt><trkpt lat="63.89694214" lon="-18.70321655"><ele>487.0</ele><time>2012-07-25T12:17:02.0000000+00:00</time></trkpt><trkpt lat="63.89692688" lon="-18.70335388"><ele>487.6</ele><time>2012-07-25T12:17:07.0000000+00:00</time></trkpt><trkpt lat="63.89692688" lon="-18.70333481"><ele>487.6</ele><time>2012-07-25T12:17:12.0000000+00:00</time></trkpt><trkpt lat="63.89692688" lon="-18.70333481"><ele>487.4</ele><time>2012-07-25T12:17:17.0000000+00:00</time></trkpt><trkpt lat="63.89692688" lon="-18.70333481"><ele>487.4</ele><time>2012-07-25T12:17:22.0000000+00:00</time></trkpt><trkpt lat="63.89692688" lon="-18.70333481"><ele>487.4</ele><time>2012-07-25T12:17:27.0000000+00:00</time></trkpt><trkpt lat="63.89692688" lon="-18.70333481"><ele>487.4</ele><time>2012-07-25T12:17:32.0000000+00:00</time></trkpt><trkpt lat="63.89692688" lon="-18.7033329"><ele>487.4</ele><time>2012-07-25T12:17:37.0000000+00:00</time></trkpt><trkpt lat="63.89692688" lon="-18.70332718"><ele>487.4</ele><time>2012-07-25T12:17:42.0000000+00:00</time></trkpt><trkpt lat="63.8969307" lon="-18.70332146"><ele>487.4</ele><time>2012-07-25T12:17:47.0000000+00:00</time></trkpt><trkpt lat="63.8969307" lon="-18.70332146"><ele>487.4</ele><time>2012-07-25T12:17:52.0000000+00:00</time></trkpt><trkpt lat="63.8969307" lon="-18.70332146"><ele>487.4</ele><time>2012-07-25T12:17:57.0000000+00:00</time></trkpt><trkpt lat="63.8969307" lon="-18.70332146"><ele>487.4</ele><time>2012-07-25T12:18:02.0000000+00:00</time></trkpt><trkpt lat="63.8969307" lon="-18.70332146"><ele>487.4</ele><time>2012-07-25T12:18:07.0000000+00:00</time></trkpt><trkpt lat="63.8969307" lon="-18.70332146"><ele>487.3</ele><time>2012-07-25T12:18:12.0000000+00:00</time></trkpt><trkpt lat="63.8969307" lon="-18.70332146"><ele>487.3</ele><time>2012-07-25T12:18:17.0000000+00:00</time></trkpt><trkpt lat="63.89692688" lon="-18.70332336"><ele>487.2</ele><time>2012-07-25T12:18:22.0000000+00:00</time></trkpt><trkpt lat="63.89692688" lon="-18.70332336"><ele>487.1</ele><time>2012-07-25T12:18:27.0000000+00:00</time></trkpt><trkpt lat="63.89692688" lon="-18.70332146"><ele>487.1</ele><time>2012-07-25T12:18:32.0000000+00:00</time></trkpt><trkpt lat="63.89692688" lon="-18.70332146"><ele>487.1</ele><time>2012-07-25T12:18:37.0000000+00:00</time></trkpt><trkpt lat="63.89692688" lon="-18.70332146"><ele>487.0</ele><time>2012-07-25T12:18:42.0000000+00:00</time></trkpt><trkpt lat="63.89692688" lon="-18.70332146"><ele>487.0</ele><time>2012-07-25T12:18:47.0000000+00:00</time></trkpt><trkpt lat="63.89692688" lon="-18.70332146"><ele>487.0</ele><time>2012-07-25T12:18:52.0000000+00:00</time></trkpt><trkpt lat="63.89692688" lon="-18.70332146"><ele>486.9</ele><time>2012-07-25T12:18:57.0000000+00:00</time></trkpt><trkpt lat="63.89692688" lon="-18.70332146"><ele>486.9</ele><time>2012-07-25T12:19:02.0000000+00:00</time></trkpt><trkpt lat="63.89692688" lon="-18.70332146"><ele>486.9</ele><time>2012-07-25T12:19:07.0000000+00:00</time></trkpt><trkpt lat="63.89692688" lon="-18.70332146"><ele>486.9</ele><time>2012-07-25T12:19:12.0000000+00:00</time></trkpt><trkpt lat="63.8969307" lon="-18.70332146"><ele>486.9</ele><time>2012-07-25T12:19:17.0000000+00:00</time></trkpt><trkpt lat="63.8969307" lon="-18.70332146"><ele>486.9</ele><time>2012-07-25T12:19:22.0000000+00:00</time></trkpt><trkpt lat="63.8969307" lon="-18.70332146"><ele>486.9</ele><time>2012-07-25T12:19:27.0000000+00:00</time></trkpt><trkpt lat="63.89692688" lon="-18.70332527"><ele>486.3</ele><time>2012-07-25T12:19:32.0000000+00:00</time></trkpt><trkpt lat="63.89688873" lon="-18.70326996"><ele>485.0</ele><time>2012-07-25T12:19:37.0000000+00:00</time></trkpt><trkpt lat="63.89682007" lon="-18.70310593"><ele>485.8</ele><time>2012-07-25T12:19:42.0000000+00:00</time></trkpt><trkpt lat="63.89676666" lon="-18.7029438"><ele>487.6</ele><time>2012-07-25T12:19:47.0000000+00:00</time></trkpt><trkpt lat="63.89671326" lon="-18.70284462"><ele>487.7</ele><time>2012-07-25T12:19:52.0000000+00:00</time></trkpt><trkpt lat="63.89671707" lon="-18.70285225"><ele>486.9</ele><time>2012-07-25T12:19:57.0000000+00:00</time></trkpt><trkpt lat="63.89669037" lon="-18.70279121"><ele>487.0</ele><time>2012-07-25T12:20:02.0000000+00:00</time></trkpt><trkpt lat="63.89662552" lon="-18.70265198"><ele>488.1</ele><time>2012-07-25T12:20:07.0000000+00:00</time></trkpt><trkpt lat="63.89656448" lon="-18.70248222"><ele>488.4</ele><time>2012-07-25T12:20:12.0000000+00:00</time></trkpt><trkpt lat="63.89652252" lon="-18.70231628"><ele>487.7</ele><time>2012-07-25T12:20:17.0000000+00:00</time></trkpt><trkpt lat="63.89651108" lon="-18.7022419"><ele>488.7</ele><time>2012-07-25T12:20:22.0000000+00:00</time></trkpt><trkpt lat="63.89649963" lon="-18.70222855"><ele>488.7</ele><time>2012-07-25T12:20:27.0000000+00:00</time></trkpt><trkpt lat="63.89649963" lon="-18.70222855"><ele>488.8</ele><time>2012-07-25T12:20:32.0000000+00:00</time></trkpt><trkpt lat="63.89649963" lon="-18.70222855"><ele>488.9</ele><time>2012-07-25T12:20:37.0000000+00:00</time></trkpt><trkpt lat="63.89649963" lon="-18.70222855"><ele>488.8</ele><time>2012-07-25T12:20:42.0000000+00:00</time></trkpt><trkpt lat="63.89649963" lon="-18.70222855"><ele>488.8</ele><time>2012-07-25T12:20:47.0000000+00:00</time></trkpt><trkpt lat="63.89649963" lon="-18.70222855"><ele>488.8</ele><time>2012-07-25T12:20:52.0000000+00:00</time></trkpt><trkpt lat="63.89649963" lon="-18.70222855"><ele>488.8</ele><time>2012-07-25T12:20:57.0000000+00:00</time></trkpt><trkpt lat="63.89649963" lon="-18.70222855"><ele>488.8</ele><time>2012-07-25T12:21:02.0000000+00:00</time></trkpt><trkpt lat="63.89648438" lon="-18.70219803"><ele>488.7</ele><time>2012-07-25T12:21:07.0000000+00:00</time></trkpt><trkpt lat="63.89648056" lon="-18.70217133"><ele>488.9</ele><time>2012-07-25T12:21:12.0000000+00:00</time></trkpt><trkpt lat="63.89645767" lon="-18.70207596"><ele>489.0</ele><time>2012-07-25T12:21:17.0000000+00:00</time></trkpt><trkpt lat="63.89638138" lon="-18.7017231"><ele>488.7</ele><time>2012-07-25T12:21:22.0000000+00:00</time></trkpt><trkpt lat="63.89628601" lon="-18.70140076"><ele>488.5</ele><time>2012-07-25T12:21:27.0000000+00:00</time></trkpt><trkpt lat="63.89624023" lon="-18.70123291"><ele>488.5</ele><time>2012-07-25T12:21:32.0000000+00:00</time></trkpt><trkpt lat="63.89616013" lon="-18.70108795"><ele>489.0</ele><time>2012-07-25T12:21:37.0000000+00:00</time></trkpt><trkpt lat="63.89610291" lon="-18.70096779"><ele>488.9</ele><time>2012-07-25T12:21:42.0000000+00:00</time></trkpt><trkpt lat="63.89603424" lon="-18.70083618"><ele>488.8</ele><time>2012-07-25T12:21:47.0000000+00:00</time></trkpt><trkpt lat="63.89596558" lon="-18.700737"><ele>489.9</ele><time>2012-07-25T12:21:52.0000000+00:00</time></trkpt><trkpt lat="63.89587021" lon="-18.70059586"><ele>490.3</ele><time>2012-07-25T12:21:57.0000000+00:00</time></trkpt><trkpt lat="63.8957901" lon="-18.70051193"><ele>490.3</ele><time>2012-07-25T12:22:02.0000000+00:00</time></trkpt><trkpt lat="63.89568329" lon="-18.70041657"><ele>490.1</ele><time>2012-07-25T12:22:07.0000000+00:00</time></trkpt><trkpt lat="63.89556503" lon="-18.70035172"><ele>490.3</ele><time>2012-07-25T12:22:12.0000000+00:00</time></trkpt><trkpt lat="63.89543915" lon="-18.70024681"><ele>489.2</ele><time>2012-07-25T12:22:17.0000000+00:00</time></trkpt><trkpt lat="63.89530945" lon="-18.70023346"><ele>489.1</ele><time>2012-07-25T12:22:22.0000000+00:00</time></trkpt><trkpt lat="63.89510346" lon="-18.70019341"><ele>489.1</ele><time>2012-07-25T12:22:27.0000000+00:00</time></trkpt><trkpt lat="63.89490128" lon="-18.70018768"><ele>489.4</ele><time>2012-07-25T12:22:32.0000000+00:00</time></trkpt><trkpt lat="63.89468002" lon="-18.70016861"><ele>489.2</ele><time>2012-07-25T12:22:37.0000000+00:00</time></trkpt><trkpt lat="63.89448547" lon="-18.70013619"><ele>490.2</ele><time>2012-07-25T12:22:42.0000000+00:00</time></trkpt><trkpt lat="63.89433289" lon="-18.70008087"><ele>490.5</ele><time>2012-07-25T12:22:47.0000000+00:00</time></trkpt><trkpt lat="63.89418411" lon="-18.70007706"><ele>493.3</ele><time>2012-07-25T12:22:52.0000000+00:00</time></trkpt><trkpt lat="63.89406967" lon="-18.70006752"><ele>492.8</ele><time>2012-07-25T12:22:57.0000000+00:00</time></trkpt><trkpt lat="63.89391708" lon="-18.70009232"><ele>492.0</ele><time>2012-07-25T12:23:02.0000000+00:00</time></trkpt><trkpt lat="63.89381027" lon="-18.70013619"><ele>490.9</ele><time>2012-07-25T12:23:07.0000000+00:00</time></trkpt><trkpt lat="63.89368057" lon="-18.70022774"><ele>491.6</ele><time>2012-07-25T12:23:12.0000000+00:00</time></trkpt><trkpt lat="63.89356232" lon="-18.70036125"><ele>490.9</ele><time>2012-07-25T12:23:17.0000000+00:00</time></trkpt><trkpt lat="63.89343643" lon="-18.70052338"><ele>490.8</ele><time>2012-07-25T12:23:22.0000000+00:00</time></trkpt><trkpt lat="63.89331055" lon="-18.70068932"><ele>489.3</ele><time>2012-07-25T12:23:27.0000000+00:00</time></trkpt><trkpt lat="63.89319992" lon="-18.70084381"><ele>488.3</ele><time>2012-07-25T12:23:32.0000000+00:00</time></trkpt><trkpt lat="63.89306259" lon="-18.70100212"><ele>488.4</ele><time>2012-07-25T12:23:37.0000000+00:00</time></trkpt><trkpt lat="63.89295578" lon="-18.70119476"><ele>492.6</ele><time>2012-07-25T12:23:42.0000000+00:00</time></trkpt><trkpt lat="63.8928566" lon="-18.70149231"><ele>491.9</ele><time>2012-07-25T12:23:47.0000000+00:00</time></trkpt><trkpt lat="63.89274216" lon="-18.70178413"><ele>490.8</ele><time>2012-07-25T12:23:52.0000000+00:00</time></trkpt><trkpt lat="63.89260101" lon="-18.70200348"><ele>491.1</ele><time>2012-07-25T12:23:57.0000000+00:00</time></trkpt><trkpt lat="63.89245987" lon="-18.7021389"><ele>491.8</ele><time>2012-07-25T12:24:02.0000000+00:00</time></trkpt><trkpt lat="63.89229584" lon="-18.70227242"><ele>493.5</ele><time>2012-07-25T12:24:07.0000000+00:00</time></trkpt><trkpt lat="63.89214706" lon="-18.70245171"><ele>494.4</ele><time>2012-07-25T12:24:12.0000000+00:00</time></trkpt><trkpt lat="63.89197922" lon="-18.70260048"><ele>494.0</ele><time>2012-07-25T12:24:17.0000000+00:00</time></trkpt><trkpt lat="63.89182282" lon="-18.70275688"><ele>493.1</ele><time>2012-07-25T12:24:22.0000000+00:00</time></trkpt><trkpt lat="63.8916626" lon="-18.70293236"><ele>492.7</ele><time>2012-07-25T12:24:27.0000000+00:00</time></trkpt><trkpt lat="63.89158249" lon="-18.70296478"><ele>490.0</ele><time>2012-07-25T12:24:32.0000000+00:00</time></trkpt><trkpt lat="63.8915863" lon="-18.70297051"><ele>488.2</ele><time>2012-07-25T12:24:37.0000000+00:00</time></trkpt><trkpt lat="63.8915863" lon="-18.70296288"><ele>488.2</ele><time>2012-07-25T12:24:42.0000000+00:00</time></trkpt><trkpt lat="63.8915863" lon="-18.70296097"><ele>488.2</ele><time>2012-07-25T12:24:47.0000000+00:00</time></trkpt><trkpt lat="63.8915863" lon="-18.70296288"><ele>488.2</ele><time>2012-07-25T12:24:52.0000000+00:00</time></trkpt><trkpt lat="63.8915863" lon="-18.70296669"><ele>488.2</ele><time>2012-07-25T12:24:57.0000000+00:00</time></trkpt><trkpt lat="63.89158249" lon="-18.70297813"><ele>488.2</ele><time>2012-07-25T12:25:02.0000000+00:00</time></trkpt><trkpt lat="63.89158249" lon="-18.70295906"><ele>488.1</ele><time>2012-07-25T12:25:07.0000000+00:00</time></trkpt><trkpt lat="63.89158249" lon="-18.70295906"><ele>488.1</ele><time>2012-07-25T12:25:12.0000000+00:00</time></trkpt><trkpt lat="63.8915863" lon="-18.70296097"><ele>488.1</ele><time>2012-07-25T12:25:17.0000000+00:00</time></trkpt><trkpt lat="63.8915863" lon="-18.70296097"><ele>488.0</ele><time>2012-07-25T12:25:22.0000000+00:00</time></trkpt><trkpt lat="63.8915863" lon="-18.70296288"><ele>488.0</ele><time>2012-07-25T12:25:27.0000000+00:00</time></trkpt><trkpt lat="63.89158249" lon="-18.70296097"><ele>488.0</ele><time>2012-07-25T12:25:32.0000000+00:00</time></trkpt><trkpt lat="63.89158249" lon="-18.70295906"><ele>488.0</ele><time>2012-07-25T12:25:37.0000000+00:00</time></trkpt><trkpt lat="63.8915863" lon="-18.70295525"><ele>488.0</ele><time>2012-07-25T12:25:42.0000000+00:00</time></trkpt><trkpt lat="63.89159012" lon="-18.70295906"><ele>488.0</ele><time>2012-07-25T12:25:47.0000000+00:00</time></trkpt><trkpt lat="63.89159012" lon="-18.70295906"><ele>488.0</ele><time>2012-07-25T12:25:52.0000000+00:00</time></trkpt><trkpt lat="63.89159393" lon="-18.70295715"><ele>488.0</ele><time>2012-07-25T12:25:57.0000000+00:00</time></trkpt><trkpt lat="63.89159012" lon="-18.70296288"><ele>488.0</ele><time>2012-07-25T12:26:02.0000000+00:00</time></trkpt><trkpt lat="63.8915863" lon="-18.70297241"><ele>488.0</ele><time>2012-07-25T12:26:07.0000000+00:00</time></trkpt><trkpt lat="63.8915863" lon="-18.70297813"><ele>488.0</ele><time>2012-07-25T12:26:12.0000000+00:00</time></trkpt><trkpt lat="63.89159012" lon="-18.70299149"><ele>487.9</ele><time>2012-07-25T12:26:17.0000000+00:00</time></trkpt><trkpt lat="63.89159012" lon="-18.7029953"><ele>487.9</ele><time>2012-07-25T12:26:22.0000000+00:00</time></trkpt><trkpt lat="63.8915863" lon="-18.70299721"><ele>487.9</ele><time>2012-07-25T12:26:27.0000000+00:00</time></trkpt><trkpt lat="63.8915863" lon="-18.70299339"><ele>487.9</ele><time>2012-07-25T12:26:32.0000000+00:00</time></trkpt><trkpt lat="63.89159012" lon="-18.70299339"><ele>487.9</ele><time>2012-07-25T12:26:37.0000000+00:00</time></trkpt><trkpt lat="63.89159012" lon="-18.70299149"><ele>487.9</ele><time>2012-07-25T12:26:42.0000000+00:00</time></trkpt><trkpt lat="63.89159012" lon="-18.70299339"><ele>487.9</ele><time>2012-07-25T12:26:47.0000000+00:00</time></trkpt><trkpt lat="63.8915863" lon="-18.7029953"><ele>487.9</ele><time>2012-07-25T12:26:52.0000000+00:00</time></trkpt><trkpt lat="63.89158249" lon="-18.70299721"><ele>487.9</ele><time>2012-07-25T12:26:57.0000000+00:00</time></trkpt><trkpt lat="63.89158249" lon="-18.70299339"><ele>487.9</ele><time>2012-07-25T12:27:02.0000000+00:00</time></trkpt><trkpt lat="63.8915863" lon="-18.70299721"><ele>487.9</ele><time>2012-07-25T12:27:07.0000000+00:00</time></trkpt><trkpt lat="63.8915863" lon="-18.70299721"><ele>487.9</ele><time>2012-07-25T12:27:12.0000000+00:00</time></trkpt><trkpt lat="63.8915863" lon="-18.70299721"><ele>487.9</ele><time>2012-07-25T12:27:17.0000000+00:00</time></trkpt><trkpt lat="63.8915863" lon="-18.70299912"><ele>487.7</ele><time>2012-07-25T12:27:22.0000000+00:00</time></trkpt><trkpt lat="63.8915863" lon="-18.70299912"><ele>487.6</ele><time>2012-07-25T12:27:27.0000000+00:00</time></trkpt><trkpt lat="63.8915863" lon="-18.70299912"><ele>487.6</ele><time>2012-07-25T12:27:32.0000000+00:00</time></trkpt><trkpt lat="63.8915863" lon="-18.70299912"><ele>487.6</ele><time>2012-07-25T12:27:37.0000000+00:00</time></trkpt><trkpt lat="63.8915863" lon="-18.70299912"><ele>487.6</ele><time>2012-07-25T12:27:42.0000000+00:00</time></trkpt><trkpt lat="63.8915863" lon="-18.70299912"><ele>487.6</ele><time>2012-07-25T12:27:47.0000000+00:00</time></trkpt><trkpt lat="63.8915863" lon="-18.70299912"><ele>487.6</ele><time>2012-07-25T12:27:52.0000000+00:00</time></trkpt><trkpt lat="63.8915863" lon="-18.70299912"><ele>487.6</ele><time>2012-07-25T12:27:57.0000000+00:00</time></trkpt><trkpt lat="63.8915863" lon="-18.70299912"><ele>487.6</ele><time>2012-07-25T12:28:02.0000000+00:00</time></trkpt><trkpt lat="63.8915863" lon="-18.70299912"><ele>487.6</ele><time>2012-07-25T12:28:07.0000000+00:00</time></trkpt><trkpt lat="63.8915863" lon="-18.70299912"><ele>487.6</ele><time>2012-07-25T12:28:12.0000000+00:00</time></trkpt><trkpt lat="63.8915863" lon="-18.70299912"><ele>487.6</ele><time>2012-07-25T12:28:17.0000000+00:00</time></trkpt><trkpt lat="63.8915863" lon="-18.70299912"><ele>487.6</ele><time>2012-07-25T12:28:22.0000000+00:00</time></trkpt><trkpt lat="63.8915863" lon="-18.70299912"><ele>487.6</ele><time>2012-07-25T12:28:27.0000000+00:00</time></trkpt><trkpt lat="63.8915863" lon="-18.70299912"><ele>487.6</ele><time>2012-07-25T12:28:32.0000000+00:00</time></trkpt><trkpt lat="63.89154816" lon="-18.70299912"><ele>487.4</ele><time>2012-07-25T12:28:37.0000000+00:00</time></trkpt><trkpt lat="63.89144516" lon="-18.70293999"><ele>486.5</ele><time>2012-07-25T12:28:42.0000000+00:00</time></trkpt><trkpt lat="63.89138031" lon="-18.70275497"><ele>486.5</ele><time>2012-07-25T12:28:47.0000000+00:00</time></trkpt><trkpt lat="63.89133072" lon="-18.70259094"><ele>486.2</ele><time>2012-07-25T12:28:52.0000000+00:00</time></trkpt><trkpt lat="63.8912735" lon="-18.70249939"><ele>486.1</ele><time>2012-07-25T12:28:57.0000000+00:00</time></trkpt><trkpt lat="63.89120102" lon="-18.70243835"><ele>485.8</ele><time>2012-07-25T12:29:02.0000000+00:00</time></trkpt><trkpt lat="63.89110565" lon="-18.70232773"><ele>485.0</ele><time>2012-07-25T12:29:07.0000000+00:00</time></trkpt><trkpt lat="63.89100647" lon="-18.70221329"><ele>484.6</ele><time>2012-07-25T12:29:12.0000000+00:00</time></trkpt><trkpt lat="63.89088821" lon="-18.70207596"><ele>484.8</ele><time>2012-07-25T12:29:17.0000000+00:00</time></trkpt><trkpt lat="63.89077377" lon="-18.70199966"><ele>484.5</ele><time>2012-07-25T12:29:22.0000000+00:00</time></trkpt><trkpt lat="63.89066696" lon="-18.70184135"><ele>484.5</ele><time>2012-07-25T12:29:27.0000000+00:00</time></trkpt><trkpt lat="63.89056015" lon="-18.70150757"><ele>486.9</ele><time>2012-07-25T12:29:32.0000000+00:00</time></trkpt><trkpt lat="63.89048386" lon="-18.70129013"><ele>485.2</ele><time>2012-07-25T12:29:37.0000000+00:00</time></trkpt><trkpt lat="63.89042664" lon="-18.70110321"><ele>483.5</ele><time>2012-07-25T12:29:42.0000000+00:00</time></trkpt><trkpt lat="63.8903389" lon="-18.70092392"><ele>484.3</ele><time>2012-07-25T12:29:47.0000000+00:00</time></trkpt><trkpt lat="63.89029694" lon="-18.70082665"><ele>485.0</ele><time>2012-07-25T12:29:52.0000000+00:00</time></trkpt><trkpt lat="63.89030075" lon="-18.70079994"><ele>484.3</ele><time>2012-07-25T12:29:57.0000000+00:00</time></trkpt><trkpt lat="63.89030457" lon="-18.70080376"><ele>484.2</ele><time>2012-07-25T12:30:02.0000000+00:00</time></trkpt><trkpt lat="63.8903122" lon="-18.70080185"><ele>484.1</ele><time>2012-07-25T12:30:07.0000000+00:00</time></trkpt><trkpt lat="63.89030838" lon="-18.70082283"><ele>484.2</ele><time>2012-07-25T12:30:12.0000000+00:00</time></trkpt><trkpt lat="63.89030075" lon="-18.70079422"><ele>483.9</ele><time>2012-07-25T12:30:17.0000000+00:00</time></trkpt><trkpt lat="63.89030075" lon="-18.70079613"><ele>483.8</ele><time>2012-07-25T12:30:22.0000000+00:00</time></trkpt><trkpt lat="63.89030075" lon="-18.70079613"><ele>483.9</ele><time>2012-07-25T12:30:27.0000000+00:00</time></trkpt><trkpt lat="63.89030457" lon="-18.70079613"><ele>484.0</ele><time>2012-07-25T12:30:32.0000000+00:00</time></trkpt><trkpt lat="63.89030075" lon="-18.70079231"><ele>484.3</ele><time>2012-07-25T12:30:37.0000000+00:00</time></trkpt><trkpt lat="63.89030075" lon="-18.70079041"><ele>484.3</ele><time>2012-07-25T12:30:42.0000000+00:00</time></trkpt><trkpt lat="63.89024735" lon="-18.70071983"><ele>484.4</ele><time>2012-07-25T12:30:47.0000000+00:00</time></trkpt><trkpt lat="63.89010239" lon="-18.70055008"><ele>484.2</ele><time>2012-07-25T12:30:52.0000000+00:00</time></trkpt><trkpt lat="63.8899498" lon="-18.70038414"><ele>482.6</ele><time>2012-07-25T12:30:57.0000000+00:00</time></trkpt><trkpt lat="63.88979721" lon="-18.70021057"><ele>482.1</ele><time>2012-07-25T12:31:02.0000000+00:00</time></trkpt><trkpt lat="63.88967133" lon="-18.70014954"><ele>481.8</ele><time>2012-07-25T12:31:07.0000000+00:00</time></trkpt><trkpt lat="63.88951874" lon="-18.70017815"><ele>482.3</ele><time>2012-07-25T12:31:12.0000000+00:00</time></trkpt><trkpt lat="63.88933182" lon="-18.70018578"><ele>482.3</ele><time>2012-07-25T12:31:17.0000000+00:00</time></trkpt><trkpt lat="63.88915253" lon="-18.70024872"><ele>481.4</ele><time>2012-07-25T12:31:22.0000000+00:00</time></trkpt><trkpt lat="63.88898087" lon="-18.70028687"><ele>481.2</ele><time>2012-07-25T12:31:27.0000000+00:00</time></trkpt><trkpt lat="63.88883209" lon="-18.70025444"><ele>481.5</ele><time>2012-07-25T12:31:32.0000000+00:00</time></trkpt><trkpt lat="63.88871002" lon="-18.70025444"><ele>481.1</ele><time>2012-07-25T12:31:37.0000000+00:00</time></trkpt><trkpt lat="63.88860321" lon="-18.70030212"><ele>482.6</ele><time>2012-07-25T12:31:42.0000000+00:00</time></trkpt><trkpt lat="63.88852692" lon="-18.70043373"><ele>484.8</ele><time>2012-07-25T12:31:47.0000000+00:00</time></trkpt><trkpt lat="63.88845825" lon="-18.7006073"><ele>485.4</ele><time>2012-07-25T12:31:52.0000000+00:00</time></trkpt><trkpt lat="63.88837051" lon="-18.70074081"><ele>486.5</ele><time>2012-07-25T12:31:57.0000000+00:00</time></trkpt><trkpt lat="63.88827896" lon="-18.70087242"><ele>486.6</ele><time>2012-07-25T12:32:02.0000000+00:00</time></trkpt><trkpt lat="63.88819122" lon="-18.70103645"><ele>486.8</ele><time>2012-07-25T12:32:07.0000000+00:00</time></trkpt><trkpt lat="63.88808441" lon="-18.70116806"><ele>487.0</ele><time>2012-07-25T12:32:12.0000000+00:00</time></trkpt><trkpt lat="63.88794327" lon="-18.7012825"><ele>488.3</ele><time>2012-07-25T12:32:17.0000000+00:00</time></trkpt><trkpt lat="63.88780212" lon="-18.70140457"><ele>488.5</ele><time>2012-07-25T12:32:22.0000000+00:00</time></trkpt><trkpt lat="63.88767624" lon="-18.70154572"><ele>490.1</ele><time>2012-07-25T12:32:27.0000000+00:00</time></trkpt><trkpt lat="63.88753128" lon="-18.70160294"><ele>490.2</ele><time>2012-07-25T12:32:32.0000000+00:00</time></trkpt><trkpt lat="63.88739395" lon="-18.70170021"><ele>489.3</ele><time>2012-07-25T12:32:37.0000000+00:00</time></trkpt><trkpt lat="63.88728714" lon="-18.70185089"><ele>488.0</ele><time>2012-07-25T12:32:42.0000000+00:00</time></trkpt><trkpt lat="63.88716126" lon="-18.70191956"><ele>488.6</ele><time>2012-07-25T12:32:47.0000000+00:00</time></trkpt><trkpt lat="63.88706589" lon="-18.70197868"><ele>488.5</ele><time>2012-07-25T12:32:52.0000000+00:00</time></trkpt><trkpt lat="63.88696671" lon="-18.70201111"><ele>487.5</ele><time>2012-07-25T12:32:57.0000000+00:00</time></trkpt><trkpt lat="63.88683319" lon="-18.70207787"><ele>486.1</ele><time>2012-07-25T12:33:02.0000000+00:00</time></trkpt><trkpt lat="63.88668442" lon="-18.70214081"><ele>487.1</ele><time>2012-07-25T12:33:07.0000000+00:00</time></trkpt><trkpt lat="63.88658142" lon="-18.70222092"><ele>485.6</ele><time>2012-07-25T12:33:12.0000000+00:00</time></trkpt><trkpt lat="63.88644409" lon="-18.70228195"><ele>489.4</ele><time>2012-07-25T12:33:17.0000000+00:00</time></trkpt><trkpt lat="63.88629913" lon="-18.70233345"><ele>491.9</ele><time>2012-07-25T12:33:22.0000000+00:00</time></trkpt><trkpt lat="63.88614655" lon="-18.70236778"><ele>492.0</ele><time>2012-07-25T12:33:27.0000000+00:00</time></trkpt><trkpt lat="63.88600922" lon="-18.70241928"><ele>492.0</ele><time>2012-07-25T12:33:32.0000000+00:00</time></trkpt><trkpt lat="63.88585663" lon="-18.70248222"><ele>487.8</ele><time>2012-07-25T12:33:37.0000000+00:00</time></trkpt><trkpt lat="63.8856926" lon="-18.70250511"><ele>488.8</ele><time>2012-07-25T12:33:42.0000000+00:00</time></trkpt><trkpt lat="63.88553238" lon="-18.70254517"><ele>488.1</ele><time>2012-07-25T12:33:47.0000000+00:00</time></trkpt><trkpt lat="63.88536835" lon="-18.70257568"><ele>488.0</ele><time>2012-07-25T12:33:52.0000000+00:00</time></trkpt><trkpt lat="63.88520813" lon="-18.70261383"><ele>488.1</ele><time>2012-07-25T12:33:57.0000000+00:00</time></trkpt><trkpt lat="63.88504028" lon="-18.70267868"><ele>487.8</ele><time>2012-07-25T12:34:02.0000000+00:00</time></trkpt><trkpt lat="63.88486481" lon="-18.70272255"><ele>488.2</ele><time>2012-07-25T12:34:07.0000000+00:00</time></trkpt><trkpt lat="63.88469315" lon="-18.70276642"><ele>488.5</ele><time>2012-07-25T12:34:12.0000000+00:00</time></trkpt><trkpt lat="63.884552" lon="-18.70279503"><ele>488.0</ele><time>2012-07-25T12:34:17.0000000+00:00</time></trkpt><trkpt lat="63.88438797" lon="-18.70277596"><ele>488.0</ele><time>2012-07-25T12:34:22.0000000+00:00</time></trkpt><trkpt lat="63.88422394" lon="-18.70278359"><ele>487.3</ele><time>2012-07-25T12:34:27.0000000+00:00</time></trkpt><trkpt lat="63.88406372" lon="-18.7028122"><ele>485.3</ele><time>2012-07-25T12:34:32.0000000+00:00</time></trkpt><trkpt lat="63.88389969" lon="-18.7028656"><ele>483.5</ele><time>2012-07-25T12:34:37.0000000+00:00</time></trkpt><trkpt lat="63.88373566" lon="-18.70293236"><ele>481.5</ele><time>2012-07-25T12:34:42.0000000+00:00</time></trkpt><trkpt lat="63.88357544" lon="-18.70301628"><ele>480.6</ele><time>2012-07-25T12:34:47.0000000+00:00</time></trkpt><trkpt lat="63.88344193" lon="-18.70305824"><ele>479.0</ele><time>2012-07-25T12:34:52.0000000+00:00</time></trkpt><trkpt lat="63.88327026" lon="-18.70312119"><ele>477.4</ele><time>2012-07-25T12:34:57.0000000+00:00</time></trkpt><trkpt lat="63.8830986" lon="-18.7031765"><ele>475.7</ele><time>2012-07-25T12:35:02.0000000+00:00</time></trkpt><trkpt lat="63.88293076" lon="-18.70322418"><ele>474.4</ele><time>2012-07-25T12:35:07.0000000+00:00</time></trkpt><trkpt lat="63.88276291" lon="-18.70326424"><ele>474.1</ele><time>2012-07-25T12:35:12.0000000+00:00</time></trkpt><trkpt lat="63.88259125" lon="-18.70327759"><ele>476.7</ele><time>2012-07-25T12:35:17.0000000+00:00</time></trkpt><trkpt lat="63.88243866" lon="-18.7032814"><ele>478.8</ele><time>2012-07-25T12:35:22.0000000+00:00</time></trkpt><trkpt lat="63.88227844" lon="-18.7032814"><ele>480.4</ele><time>2012-07-25T12:35:27.0000000+00:00</time></trkpt><trkpt lat="63.88217926" lon="-18.70328331"><ele>481.4</ele><time>2012-07-25T12:35:32.0000000+00:00</time></trkpt><trkpt lat="63.88206101" lon="-18.7033062"><ele>483.3</ele><time>2012-07-25T12:35:37.0000000+00:00</time></trkpt><trkpt lat="63.88192368" lon="-18.70338059"><ele>482.5</ele><time>2012-07-25T12:35:42.0000000+00:00</time></trkpt><trkpt lat="63.88180542" lon="-18.70350266"><ele>483.8</ele><time>2012-07-25T12:35:47.0000000+00:00</time></trkpt><trkpt lat="63.88169861" lon="-18.70369721"><ele>485.3</ele><time>2012-07-25T12:35:52.0000000+00:00</time></trkpt><trkpt lat="63.88159943" lon="-18.70394135"><ele>486.3</ele><time>2012-07-25T12:35:57.0000000+00:00</time></trkpt><trkpt lat="63.88150024" lon="-18.70415688"><ele>487.3</ele><time>2012-07-25T12:36:02.0000000+00:00</time></trkpt><trkpt lat="63.88141632" lon="-18.70436478"><ele>486.4</ele><time>2012-07-25T12:36:07.0000000+00:00</time></trkpt><trkpt lat="63.88131714" lon="-18.70456123"><ele>488.0</ele><time>2012-07-25T12:36:12.0000000+00:00</time></trkpt><trkpt lat="63.88121033" lon="-18.70482063"><ele>486.7</ele><time>2012-07-25T12:36:17.0000000+00:00</time></trkpt><trkpt lat="63.88111115" lon="-18.70510483"><ele>487.6</ele><time>2012-07-25T12:36:22.0000000+00:00</time></trkpt><trkpt lat="63.88100433" lon="-18.70540428"><ele>488.6</ele><time>2012-07-25T12:36:27.0000000+00:00</time></trkpt><trkpt lat="63.88092804" lon="-18.70579529"><ele>488.8</ele><time>2012-07-25T12:36:32.0000000+00:00</time></trkpt><trkpt lat="63.88090515" lon="-18.70614624"><ele>490.8</ele><time>2012-07-25T12:36:37.0000000+00:00</time></trkpt><trkpt lat="63.88095093" lon="-18.70644569"><ele>492.0</ele><time>2012-07-25T12:36:42.0000000+00:00</time></trkpt><trkpt lat="63.88101578" lon="-18.70677948"><ele>492.9</ele><time>2012-07-25T12:36:47.0000000+00:00</time></trkpt><trkpt lat="63.88101959" lon="-18.70715332"><ele>492.8</ele><time>2012-07-25T12:36:52.0000000+00:00</time></trkpt><trkpt lat="63.88095474" lon="-18.70750809"><ele>494.5</ele><time>2012-07-25T12:36:57.0000000+00:00</time></trkpt><trkpt lat="63.88090134" lon="-18.70772934"><ele>494.5</ele><time>2012-07-25T12:37:02.0000000+00:00</time></trkpt><trkpt lat="63.88088608" lon="-18.70773315"><ele>494.7</ele><time>2012-07-25T12:37:07.0000000+00:00</time></trkpt><trkpt lat="63.88088608" lon="-18.70773125"><ele>494.8</ele><time>2012-07-25T12:37:12.0000000+00:00</time></trkpt><trkpt lat="63.88088989" lon="-18.70773125"><ele>494.8</ele><time>2012-07-25T12:37:17.0000000+00:00</time></trkpt><trkpt lat="63.88088608" lon="-18.70773125"><ele>494.8</ele><time>2012-07-25T12:37:22.0000000+00:00</time></trkpt><trkpt lat="63.88088608" lon="-18.70772934"><ele>494.8</ele><time>2012-07-25T12:37:27.0000000+00:00</time></trkpt><trkpt lat="63.88088608" lon="-18.70772934"><ele>494.8</ele><time>2012-07-25T12:37:32.0000000+00:00</time></trkpt><trkpt lat="63.88088608" lon="-18.70772934"><ele>494.9</ele><time>2012-07-25T12:37:37.0000000+00:00</time></trkpt><trkpt lat="63.88088608" lon="-18.70772743"><ele>494.9</ele><time>2012-07-25T12:37:42.0000000+00:00</time></trkpt><trkpt lat="63.88088608" lon="-18.70772743"><ele>494.9</ele><time>2012-07-25T12:37:47.0000000+00:00</time></trkpt><trkpt lat="63.88088608" lon="-18.70772934"><ele>494.9</ele><time>2012-07-25T12:37:52.0000000+00:00</time></trkpt><trkpt lat="63.88088608" lon="-18.70772934"><ele>495.0</ele><time>2012-07-25T12:37:57.0000000+00:00</time></trkpt><trkpt lat="63.88088608" lon="-18.70772934"><ele>495.0</ele><time>2012-07-25T12:38:02.0000000+00:00</time></trkpt><trkpt lat="63.88088608" lon="-18.70772934"><ele>495.0</ele><time>2012-07-25T12:38:07.0000000+00:00</time></trkpt><trkpt lat="63.88088608" lon="-18.70772934"><ele>495.0</ele><time>2012-07-25T12:38:12.0000000+00:00</time></trkpt><trkpt lat="63.88088608" lon="-18.70772743"><ele>495.0</ele><time>2012-07-25T12:38:17.0000000+00:00</time></trkpt><trkpt lat="63.88088608" lon="-18.70772743"><ele>495.0</ele><time>2012-07-25T12:38:22.0000000+00:00</time></trkpt><trkpt lat="63.88088608" lon="-18.70772743"><ele>495.1</ele><time>2012-07-25T12:38:27.0000000+00:00</time></trkpt><trkpt lat="63.88088608" lon="-18.70772743"><ele>495.1</ele><time>2012-07-25T12:38:32.0000000+00:00</time></trkpt><trkpt lat="63.88088608" lon="-18.70772743"><ele>495.0</ele><time>2012-07-25T12:38:37.0000000+00:00</time></trkpt><trkpt lat="63.88088608" lon="-18.70772743"><ele>495.1</ele><time>2012-07-25T12:38:42.0000000+00:00</time></trkpt><trkpt lat="63.88088608" lon="-18.70772743"><ele>495.0</ele><time>2012-07-25T12:38:47.0000000+00:00</time></trkpt><trkpt lat="63.88088608" lon="-18.70772743"><ele>495.0</ele><time>2012-07-25T12:38:52.0000000+00:00</time></trkpt><trkpt lat="63.88088608" lon="-18.70772743"><ele>495.0</ele><time>2012-07-25T12:38:57.0000000+00:00</time></trkpt><trkpt lat="63.88088608" lon="-18.70772743"><ele>495.0</ele><time>2012-07-25T12:39:02.0000000+00:00</time></trkpt><trkpt lat="63.88088608" lon="-18.70772743"><ele>495.0</ele><time>2012-07-25T12:39:07.0000000+00:00</time></trkpt><trkpt lat="63.88088608" lon="-18.70772743"><ele>495.0</ele><time>2012-07-25T12:39:12.0000000+00:00</time></trkpt><trkpt lat="63.88088608" lon="-18.70772743"><ele>495.0</ele><time>2012-07-25T12:39:17.0000000+00:00</time></trkpt><trkpt lat="63.88088226" lon="-18.7077446"><ele>495.2</ele><time>2012-07-25T12:39:22.0000000+00:00</time></trkpt><trkpt lat="63.88085175" lon="-18.70779228"><ele>495.6</ele><time>2012-07-25T12:39:27.0000000+00:00</time></trkpt><trkpt lat="63.88080216" lon="-18.70787621"><ele>495.5</ele><time>2012-07-25T12:39:32.0000000+00:00</time></trkpt><trkpt lat="63.88072205" lon="-18.70799255"><ele>495.1</ele><time>2012-07-25T12:39:37.0000000+00:00</time></trkpt><trkpt lat="63.88061523" lon="-18.7081089"><ele>496.2</ele><time>2012-07-25T12:39:42.0000000+00:00</time></trkpt><trkpt lat="63.88049698" lon="-18.70820999"><ele>497.5</ele><time>2012-07-25T12:39:47.0000000+00:00</time></trkpt><trkpt lat="63.88037491" lon="-18.70830536"><ele>499.3</ele><time>2012-07-25T12:39:52.0000000+00:00</time></trkpt><trkpt lat="63.88024521" lon="-18.70841217"><ele>500.9</ele><time>2012-07-25T12:39:57.0000000+00:00</time></trkpt><trkpt lat="63.88011551" lon="-18.70855141"><ele>500.2</ele><time>2012-07-25T12:40:02.0000000+00:00</time></trkpt><trkpt lat="63.87998581" lon="-18.70871735"><ele>499.5</ele><time>2012-07-25T12:40:07.0000000+00:00</time></trkpt><trkpt lat="63.87984467" lon="-18.70892716"><ele>498.2</ele><time>2012-07-25T12:40:12.0000000+00:00</time></trkpt><trkpt lat="63.87971115" lon="-18.70915604"><ele>499.0</ele><time>2012-07-25T12:40:17.0000000+00:00</time></trkpt><trkpt lat="63.87958527" lon="-18.70940208"><ele>498.9</ele><time>2012-07-25T12:40:22.0000000+00:00</time></trkpt><trkpt lat="63.87948608" lon="-18.70969391"><ele>499.4</ele><time>2012-07-25T12:40:27.0000000+00:00</time></trkpt><trkpt lat="63.87939072" lon="-18.70998192"><ele>497.9</ele><time>2012-07-25T12:40:32.0000000+00:00</time></trkpt><trkpt lat="63.87929153" lon="-18.71026611"><ele>499.0</ele><time>2012-07-25T12:40:37.0000000+00:00</time></trkpt><trkpt lat="63.87923813" lon="-18.71058655"><ele>499.8</ele><time>2012-07-25T12:40:42.0000000+00:00</time></trkpt><trkpt lat="63.87923813" lon="-18.71092033"><ele>500.7</ele><time>2012-07-25T12:40:47.0000000+00:00</time></trkpt><trkpt lat="63.87923431" lon="-18.71134949"><ele>499.9</ele><time>2012-07-25T12:40:52.0000000+00:00</time></trkpt><trkpt lat="63.87922287" lon="-18.71177673"><ele>500.8</ele><time>2012-07-25T12:40:57.0000000+00:00</time></trkpt><trkpt lat="63.87919998" lon="-18.71217728"><ele>498.6</ele><time>2012-07-25T12:41:02.0000000+00:00</time></trkpt><trkpt lat="63.87913132" lon="-18.71256828"><ele>495.7</ele><time>2012-07-25T12:41:07.0000000+00:00</time></trkpt><trkpt lat="63.87904358" lon="-18.71293449"><ele>494.7</ele><time>2012-07-25T12:41:12.0000000+00:00</time></trkpt><trkpt lat="63.87895966" lon="-18.71332932"><ele>494.5</ele><time>2012-07-25T12:41:17.0000000+00:00</time></trkpt><trkpt lat="63.87889862" lon="-18.71377754"><ele>495.0</ele><time>2012-07-25T12:41:22.0000000+00:00</time></trkpt><trkpt lat="63.87886047" lon="-18.71425819"><ele>495.4</ele><time>2012-07-25T12:41:27.0000000+00:00</time></trkpt><trkpt lat="63.8788147" lon="-18.71472549"><ele>496.1</ele><time>2012-07-25T12:41:32.0000000+00:00</time></trkpt><trkpt lat="63.87876892" lon="-18.71519089"><ele>496.8</ele><time>2012-07-25T12:41:37.0000000+00:00</time></trkpt><trkpt lat="63.87871933" lon="-18.71560097"><ele>496.6</ele><time>2012-07-25T12:41:42.0000000+00:00</time></trkpt><trkpt lat="63.87865067" lon="-18.71603775"><ele>497.0</ele><time>2012-07-25T12:41:47.0000000+00:00</time></trkpt><trkpt lat="63.87854385" lon="-18.71639252"><ele>497.1</ele><time>2012-07-25T12:41:52.0000000+00:00</time></trkpt><trkpt lat="63.87837601" lon="-18.71657181"><ele>497.6</ele><time>2012-07-25T12:41:57.0000000+00:00</time></trkpt><trkpt lat="63.87821579" lon="-18.71672249"><ele>497.8</ele><time>2012-07-25T12:42:02.0000000+00:00</time></trkpt><trkpt lat="63.87804413" lon="-18.71688843"><ele>497.2</ele><time>2012-07-25T12:42:07.0000000+00:00</time></trkpt><trkpt lat="63.87786102" lon="-18.71703148"><ele>497.0</ele><time>2012-07-25T12:42:12.0000000+00:00</time></trkpt><trkpt lat="63.8776741" lon="-18.71705055"><ele>496.1</ele><time>2012-07-25T12:42:17.0000000+00:00</time></trkpt><trkpt lat="63.87750244" lon="-18.71697617"><ele>495.5</ele><time>2012-07-25T12:42:22.0000000+00:00</time></trkpt><trkpt lat="63.87735748" lon="-18.71690559"><ele>494.7</ele><time>2012-07-25T12:42:27.0000000+00:00</time></trkpt><trkpt lat="63.87721634" lon="-18.71680641"><ele>494.6</ele><time>2012-07-25T12:42:32.0000000+00:00</time></trkpt><trkpt lat="63.87706375" lon="-18.71673393"><ele>494.3</ele><time>2012-07-25T12:42:37.0000000+00:00</time></trkpt><trkpt lat="63.87692642" lon="-18.71675873"><ele>495.0</ele><time>2012-07-25T12:42:42.0000000+00:00</time></trkpt><trkpt lat="63.87678146" lon="-18.71690369"><ele>495.5</ele><time>2012-07-25T12:42:47.0000000+00:00</time></trkpt><trkpt lat="63.87665176" lon="-18.71706581"><ele>496.1</ele><time>2012-07-25T12:42:52.0000000+00:00</time></trkpt><trkpt lat="63.87652969" lon="-18.71721458"><ele>495.2</ele><time>2012-07-25T12:42:57.0000000+00:00</time></trkpt><trkpt lat="63.87639237" lon="-18.71735001"><ele>496.5</ele><time>2012-07-25T12:43:02.0000000+00:00</time></trkpt><trkpt lat="63.87625885" lon="-18.71748161"><ele>497.0</ele><time>2012-07-25T12:43:07.0000000+00:00</time></trkpt><trkpt lat="63.87612534" lon="-18.71755791"><ele>497.2</ele><time>2012-07-25T12:43:12.0000000+00:00</time></trkpt><trkpt lat="63.87596893" lon="-18.71761131"><ele>496.9</ele><time>2012-07-25T12:43:17.0000000+00:00</time></trkpt><trkpt lat="63.87581253" lon="-18.71772003"><ele>497.7</ele><time>2012-07-25T12:43:22.0000000+00:00</time></trkpt><trkpt lat="63.87566757" lon="-18.71786881"><ele>497.0</ele><time>2012-07-25T12:43:27.0000000+00:00</time></trkpt><trkpt lat="63.87552643" lon="-18.71803474"><ele>496.7</ele><time>2012-07-25T12:43:32.0000000+00:00</time></trkpt><trkpt lat="63.87537384" lon="-18.71820641"><ele>496.2</ele><time>2012-07-25T12:43:37.0000000+00:00</time></trkpt><trkpt lat="63.87524033" lon="-18.71839523"><ele>496.0</ele><time>2012-07-25T12:43:42.0000000+00:00</time></trkpt><trkpt lat="63.87511826" lon="-18.71863174"><ele>495.6</ele><time>2012-07-25T12:43:47.0000000+00:00</time></trkpt><trkpt lat="63.87500382" lon="-18.71886635"><ele>495.1</ele><time>2012-07-25T12:43:52.0000000+00:00</time></trkpt><trkpt lat="63.87486649" lon="-18.71909142"><ele>495.1</ele><time>2012-07-25T12:43:57.0000000+00:00</time></trkpt><trkpt lat="63.87471771" lon="-18.71927834"><ele>495.5</ele><time>2012-07-25T12:44:02.0000000+00:00</time></trkpt><trkpt lat="63.8745575" lon="-18.71947098"><ele>494.7</ele><time>2012-07-25T12:44:07.0000000+00:00</time></trkpt><trkpt lat="63.87440872" lon="-18.71969414"><ele>494.1</ele><time>2012-07-25T12:44:12.0000000+00:00</time></trkpt><trkpt lat="63.87428284" lon="-18.71995735"><ele>493.8</ele><time>2012-07-25T12:44:17.0000000+00:00</time></trkpt><trkpt lat="63.87414169" lon="-18.7201767"><ele>493.3</ele><time>2012-07-25T12:44:22.0000000+00:00</time></trkpt><trkpt lat="63.87398911" lon="-18.72034073"><ele>493.5</ele><time>2012-07-25T12:44:27.0000000+00:00</time></trkpt><trkpt lat="63.87384415" lon="-18.72053909"><ele>494.1</ele><time>2012-07-25T12:44:32.0000000+00:00</time></trkpt><trkpt lat="63.873703" lon="-18.72076416"><ele>495.0</ele><time>2012-07-25T12:44:37.0000000+00:00</time></trkpt><trkpt lat="63.87356949" lon="-18.7209568"><ele>495.0</ele><time>2012-07-25T12:44:42.0000000+00:00</time></trkpt><trkpt lat="63.87343979" lon="-18.72116661"><ele>494.7</ele><time>2012-07-25T12:44:47.0000000+00:00</time></trkpt><trkpt lat="63.87332153" lon="-18.7214489"><ele>494.6</ele><time>2012-07-25T12:44:52.0000000+00:00</time></trkpt><trkpt lat="63.87319946" lon="-18.72171783"><ele>494.1</ele><time>2012-07-25T12:44:57.0000000+00:00</time></trkpt><trkpt lat="63.87306976" lon="-18.72191429"><ele>493.9</ele><time>2012-07-25T12:45:02.0000000+00:00</time></trkpt><trkpt lat="63.87291718" lon="-18.72213554"><ele>493.8</ele><time>2012-07-25T12:45:07.0000000+00:00</time></trkpt><trkpt lat="63.8727684" lon="-18.7223835"><ele>492.6</ele><time>2012-07-25T12:45:12.0000000+00:00</time></trkpt><trkpt lat="63.87259674" lon="-18.72261238"><ele>492.7</ele><time>2012-07-25T12:45:17.0000000+00:00</time></trkpt><trkpt lat="63.87243271" lon="-18.72278023"><ele>493.5</ele><time>2012-07-25T12:45:22.0000000+00:00</time></trkpt><trkpt lat="63.87229157" lon="-18.72291756"><ele>494.9</ele><time>2012-07-25T12:45:27.0000000+00:00</time></trkpt><trkpt lat="63.87214661" lon="-18.72314453"><ele>493.7</ele><time>2012-07-25T12:45:32.0000000+00:00</time></trkpt><trkpt lat="63.87201309" lon="-18.72343636"><ele>493.0</ele><time>2012-07-25T12:45:37.0000000+00:00</time></trkpt><trkpt lat="63.87191391" lon="-18.72372627"><ele>493.4</ele><time>2012-07-25T12:45:42.0000000+00:00</time></trkpt><trkpt lat="63.8718071" lon="-18.7239666"><ele>492.8</ele><time>2012-07-25T12:45:47.0000000+00:00</time></trkpt><trkpt lat="63.87168121" lon="-18.7241745"><ele>492.8</ele><time>2012-07-25T12:45:52.0000000+00:00</time></trkpt><trkpt lat="63.87154007" lon="-18.72436905"><ele>493.0</ele><time>2012-07-25T12:45:57.0000000+00:00</time></trkpt><trkpt lat="63.87142944" lon="-18.72459221"><ele>493.3</ele><time>2012-07-25T12:46:02.0000000+00:00</time></trkpt><trkpt lat="63.87135696" lon="-18.72475624"><ele>492.6</ele><time>2012-07-25T12:46:07.0000000+00:00</time></trkpt><trkpt lat="63.87129593" lon="-18.72490883"><ele>492.4</ele><time>2012-07-25T12:46:12.0000000+00:00</time></trkpt><trkpt lat="63.87122345" lon="-18.72513771"><ele>492.5</ele><time>2012-07-25T12:46:17.0000000+00:00</time></trkpt><trkpt lat="63.87115479" lon="-18.72540474"><ele>492.5</ele><time>2012-07-25T12:46:22.0000000+00:00</time></trkpt><trkpt lat="63.87109757" lon="-18.72566223"><ele>492.3</ele><time>2012-07-25T12:46:27.0000000+00:00</time></trkpt><trkpt lat="63.87104034" lon="-18.72590065"><ele>492.7</ele><time>2012-07-25T12:46:32.0000000+00:00</time></trkpt><trkpt lat="63.87094879" lon="-18.72614098"><ele>493.5</ele><time>2012-07-25T12:46:37.0000000+00:00</time></trkpt><trkpt lat="63.87081146" lon="-18.72632217"><ele>493.3</ele><time>2012-07-25T12:46:42.0000000+00:00</time></trkpt><trkpt lat="63.87067795" lon="-18.72653389"><ele>493.0</ele><time>2012-07-25T12:46:47.0000000+00:00</time></trkpt><trkpt lat="63.87056351" lon="-18.72681999"><ele>492.0</ele><time>2012-07-25T12:46:52.0000000+00:00</time></trkpt><trkpt lat="63.87047577" lon="-18.72720146"><ele>492.7</ele><time>2012-07-25T12:46:57.0000000+00:00</time></trkpt><trkpt lat="63.87039948" lon="-18.72757149"><ele>492.7</ele><time>2012-07-25T12:47:02.0000000+00:00</time></trkpt><trkpt lat="63.87030792" lon="-18.72793579"><ele>491.4</ele><time>2012-07-25T12:47:07.0000000+00:00</time></trkpt><trkpt lat="63.87023163" lon="-18.72832108"><ele>492.7</ele><time>2012-07-25T12:47:12.0000000+00:00</time></trkpt><trkpt lat="63.87018967" lon="-18.72868729"><ele>493.5</ele><time>2012-07-25T12:47:17.0000000+00:00</time></trkpt><trkpt lat="63.87014389" lon="-18.72908402"><ele>493.8</ele><time>2012-07-25T12:47:22.0000000+00:00</time></trkpt><trkpt lat="63.87004852" lon="-18.72940254"><ele>493.9</ele><time>2012-07-25T12:47:27.0000000+00:00</time></trkpt><trkpt lat="63.86993027" lon="-18.72976112"><ele>493.2</ele><time>2012-07-25T12:47:32.0000000+00:00</time></trkpt><trkpt lat="63.86983109" lon="-18.73012734"><ele>493.1</ele><time>2012-07-25T12:47:37.0000000+00:00</time></trkpt><trkpt lat="63.86972809" lon="-18.73046494"><ele>491.7</ele><time>2012-07-25T12:47:42.0000000+00:00</time></trkpt><trkpt lat="63.86962509" lon="-18.73081589"><ele>491.2</ele><time>2012-07-25T12:47:47.0000000+00:00</time></trkpt><trkpt lat="63.8695221" lon="-18.73121262"><ele>491.0</ele><time>2012-07-25T12:47:52.0000000+00:00</time></trkpt><trkpt lat="63.86949539" lon="-18.73160744"><ele>491.2</ele><time>2012-07-25T12:47:57.0000000+00:00</time></trkpt><trkpt lat="63.86952591" lon="-18.73198509"><ele>491.2</ele><time>2012-07-25T12:48:02.0000000+00:00</time></trkpt><trkpt lat="63.8695488" lon="-18.7323246"><ele>490.6</ele><time>2012-07-25T12:48:07.0000000+00:00</time></trkpt><trkpt lat="63.86955261" lon="-18.73268509"><ele>491.2</ele><time>2012-07-25T12:48:12.0000000+00:00</time></trkpt><trkpt lat="63.86950684" lon="-18.73303986"><ele>491.9</ele><time>2012-07-25T12:48:17.0000000+00:00</time></trkpt><trkpt lat="63.86943054" lon="-18.73332214"><ele>491.7</ele><time>2012-07-25T12:48:22.0000000+00:00</time></trkpt><trkpt lat="63.86929321" lon="-18.73353577"><ele>491.0</ele><time>2012-07-25T12:48:27.0000000+00:00</time></trkpt><trkpt lat="63.869133" lon="-18.73361778"><ele>490.6</ele><time>2012-07-25T12:48:32.0000000+00:00</time></trkpt><trkpt lat="63.86894608" lon="-18.73358727"><ele>490.2</ele><time>2012-07-25T12:48:37.0000000+00:00</time></trkpt><trkpt lat="63.86878204" lon="-18.73353767"><ele>489.7</ele><time>2012-07-25T12:48:42.0000000+00:00</time></trkpt><trkpt lat="63.86863327" lon="-18.73348999"><ele>489.1</ele><time>2012-07-25T12:48:47.0000000+00:00</time></trkpt><trkpt lat="63.86848068" lon="-18.73347855"><ele>488.7</ele><time>2012-07-25T12:48:52.0000000+00:00</time></trkpt><trkpt lat="63.86832047" lon="-18.73347473"><ele>488.2</ele><time>2012-07-25T12:48:57.0000000+00:00</time></trkpt><trkpt lat="63.86816406" lon="-18.73349762"><ele>487.8</ele><time>2012-07-25T12:49:02.0000000+00:00</time></trkpt><trkpt lat="63.86802292" lon="-18.73358917"><ele>486.9</ele><time>2012-07-25T12:49:07.0000000+00:00</time></trkpt><trkpt lat="63.86788178" lon="-18.73372459"><ele>486.9</ele><time>2012-07-25T12:49:12.0000000+00:00</time></trkpt><trkpt lat="63.86775971" lon="-18.733881"><ele>486.9</ele><time>2012-07-25T12:49:17.0000000+00:00</time></trkpt><trkpt lat="63.86763763" lon="-18.73402977"><ele>486.9</ele><time>2012-07-25T12:49:22.0000000+00:00</time></trkpt><trkpt lat="63.86752701" lon="-18.73418045"><ele>487.0</ele><time>2012-07-25T12:49:27.0000000+00:00</time></trkpt><trkpt lat="63.86738968" lon="-18.73434067"><ele>486.8</ele><time>2012-07-25T12:49:32.0000000+00:00</time></trkpt><trkpt lat="63.86725998" lon="-18.73447609"><ele>486.6</ele><time>2012-07-25T12:49:37.0000000+00:00</time></trkpt><trkpt lat="63.86712265" lon="-18.73449707"><ele>486.7</ele><time>2012-07-25T12:49:42.0000000+00:00</time></trkpt><trkpt lat="63.86701965" lon="-18.73438263"><ele>485.7</ele><time>2012-07-25T12:49:47.0000000+00:00</time></trkpt><trkpt lat="63.86696625" lon="-18.73426628"><ele>487.2</ele><time>2012-07-25T12:49:52.0000000+00:00</time></trkpt><trkpt lat="63.86697006" lon="-18.73426819"><ele>487.2</ele><time>2012-07-25T12:49:57.0000000+00:00</time></trkpt><trkpt lat="63.86696243" lon="-18.7342453"><ele>487.1</ele><time>2012-07-25T12:50:02.0000000+00:00</time></trkpt><trkpt lat="63.86696625" lon="-18.73424149"><ele>487.0</ele><time>2012-07-25T12:50:07.0000000+00:00</time></trkpt><trkpt lat="63.86696625" lon="-18.73424721"><ele>486.9</ele><time>2012-07-25T12:50:12.0000000+00:00</time></trkpt><trkpt lat="63.86696243" lon="-18.73422051"><ele>486.9</ele><time>2012-07-25T12:50:17.0000000+00:00</time></trkpt><trkpt lat="63.86695099" lon="-18.73417664"><ele>487.0</ele><time>2012-07-25T12:50:22.0000000+00:00</time></trkpt><trkpt lat="63.86693955" lon="-18.73415184"><ele>487.1</ele><time>2012-07-25T12:50:27.0000000+00:00</time></trkpt><trkpt lat="63.86693955" lon="-18.73413658"><ele>487.3</ele><time>2012-07-25T12:50:32.0000000+00:00</time></trkpt><trkpt lat="63.86693192" lon="-18.73410416"><ele>487.6</ele><time>2012-07-25T12:50:37.0000000+00:00</time></trkpt><trkpt lat="63.86692429" lon="-18.73406982"><ele>488.0</ele><time>2012-07-25T12:50:42.0000000+00:00</time></trkpt><trkpt lat="63.86691666" lon="-18.73403549"><ele>488.3</ele><time>2012-07-25T12:50:47.0000000+00:00</time></trkpt><trkpt lat="63.86690521" lon="-18.73399544"><ele>488.7</ele><time>2012-07-25T12:50:52.0000000+00:00</time></trkpt><trkpt lat="63.86689758" lon="-18.73394394"><ele>489.1</ele><time>2012-07-25T12:50:57.0000000+00:00</time></trkpt><trkpt lat="63.86688995" lon="-18.73390579"><ele>489.7</ele><time>2012-07-25T12:51:02.0000000+00:00</time></trkpt><trkpt lat="63.86688232" lon="-18.73386192"><ele>490.4</ele><time>2012-07-25T12:51:07.0000000+00:00</time></trkpt><trkpt lat="63.86686325" lon="-18.73377228"><ele>491.4</ele><time>2012-07-25T12:51:12.0000000+00:00</time></trkpt><trkpt lat="63.86683273" lon="-18.73365974"><ele>493.9</ele><time>2012-07-25T12:51:17.0000000+00:00</time></trkpt><trkpt lat="63.86682129" lon="-18.73357391"><ele>495.1</ele><time>2012-07-25T12:51:22.0000000+00:00</time></trkpt><trkpt lat="63.86680603" lon="-18.73348236"><ele>496.1</ele><time>2012-07-25T12:51:27.0000000+00:00</time></trkpt><trkpt lat="63.86679459" lon="-18.7334137"><ele>496.9</ele><time>2012-07-25T12:51:32.0000000+00:00</time></trkpt><trkpt lat="63.86678314" lon="-18.73334694"><ele>497.1</ele><time>2012-07-25T12:51:37.0000000+00:00</time></trkpt><trkpt lat="63.86678696" lon="-18.7333107"><ele>497.4</ele><time>2012-07-25T12:51:42.0000000+00:00</time></trkpt><trkpt lat="63.8667717" lon="-18.733284"><ele>496.7</ele><time>2012-07-25T12:51:47.0000000+00:00</time></trkpt><trkpt lat="63.86675263" lon="-18.73322105"><ele>497.8</ele><time>2012-07-25T12:51:52.0000000+00:00</time></trkpt><trkpt lat="63.86674118" lon="-18.73316383"><ele>498.7</ele><time>2012-07-25T12:51:57.0000000+00:00</time></trkpt><trkpt lat="63.86672974" lon="-18.73309708"><ele>498.3</ele><time>2012-07-25T12:52:02.0000000+00:00</time></trkpt><trkpt lat="63.86671448" lon="-18.73303413"><ele>498.3</ele><time>2012-07-25T12:52:07.0000000+00:00</time></trkpt><trkpt lat="63.86671066" lon="-18.73303413"><ele>497.6</ele><time>2012-07-25T12:52:12.0000000+00:00</time></trkpt><trkpt lat="63.86670685" lon="-18.73303413"><ele>497.5</ele><time>2012-07-25T12:52:17.0000000+00:00</time></trkpt><trkpt lat="63.86669922" lon="-18.73293304"><ele>498.7</ele><time>2012-07-25T12:52:22.0000000+00:00</time></trkpt><trkpt lat="63.86668015" lon="-18.73286057"><ele>499.5</ele><time>2012-07-25T12:52:27.0000000+00:00</time></trkpt><trkpt lat="63.86666107" lon="-18.73278427"><ele>499.2</ele><time>2012-07-25T12:52:32.0000000+00:00</time></trkpt><trkpt lat="63.86663818" lon="-18.73269844"><ele>499.3</ele><time>2012-07-25T12:52:37.0000000+00:00</time></trkpt><trkpt lat="63.86662293" lon="-18.73263168"><ele>499.9</ele><time>2012-07-25T12:52:42.0000000+00:00</time></trkpt><trkpt lat="63.86659241" lon="-18.7325573"><ele>499.8</ele><time>2012-07-25T12:52:47.0000000+00:00</time></trkpt><trkpt lat="63.86655808" lon="-18.73244286"><ele>500.4</ele><time>2012-07-25T12:52:52.0000000+00:00</time></trkpt><trkpt lat="63.866539" lon="-18.73236656"><ele>500.2</ele><time>2012-07-25T12:52:57.0000000+00:00</time></trkpt><trkpt lat="63.86651611" lon="-18.73227692"><ele>500.0</ele><time>2012-07-25T12:53:02.0000000+00:00</time></trkpt><trkpt lat="63.86650085" lon="-18.73225212"><ele>500.4</ele><time>2012-07-25T12:53:07.0000000+00:00</time></trkpt><trkpt lat="63.86650085" lon="-18.73225212"><ele>500.4</ele><time>2012-07-25T12:53:12.0000000+00:00</time></trkpt><trkpt lat="63.86650085" lon="-18.73224831"><ele>500.2</ele><time>2012-07-25T12:53:17.0000000+00:00</time></trkpt><trkpt lat="63.86650085" lon="-18.73224831"><ele>500.2</ele><time>2012-07-25T12:53:22.0000000+00:00</time></trkpt><trkpt lat="63.86649704" lon="-18.73223305"><ele>500.2</ele><time>2012-07-25T12:53:27.0000000+00:00</time></trkpt><trkpt lat="63.86647415" lon="-18.73213768"><ele>499.7</ele><time>2012-07-25T12:53:32.0000000+00:00</time></trkpt><trkpt lat="63.86645126" lon="-18.7320385"><ele>499.5</ele><time>2012-07-25T12:53:37.0000000+00:00</time></trkpt><trkpt lat="63.86642838" lon="-18.73184776"><ele>500.2</ele><time>2012-07-25T12:53:42.0000000+00:00</time></trkpt><trkpt lat="63.8664093" lon="-18.73164368"><ele>501.3</ele><time>2012-07-25T12:53:47.0000000+00:00</time></trkpt><trkpt lat="63.86639023" lon="-18.73141861"><ele>502.5</ele><time>2012-07-25T12:53:52.0000000+00:00</time></trkpt><trkpt lat="63.86636353" lon="-18.73121643"><ele>502.1</ele><time>2012-07-25T12:53:57.0000000+00:00</time></trkpt><trkpt lat="63.86635971" lon="-18.73097038"><ele>503.3</ele><time>2012-07-25T12:54:02.0000000+00:00</time></trkpt><trkpt lat="63.86632919" lon="-18.73069954"><ele>503.8</ele><time>2012-07-25T12:54:07.0000000+00:00</time></trkpt><trkpt lat="63.86630631" lon="-18.7304039"><ele>503.6</ele><time>2012-07-25T12:54:12.0000000+00:00</time></trkpt><trkpt lat="63.86629486" lon="-18.73018646"><ele>503.9</ele><time>2012-07-25T12:54:17.0000000+00:00</time></trkpt><trkpt lat="63.8662796" lon="-18.72993851"><ele>504.5</ele><time>2012-07-25T12:54:22.0000000+00:00</time></trkpt><trkpt lat="63.86628342" lon="-18.72963524"><ele>508.2</ele><time>2012-07-25T12:54:27.0000000+00:00</time></trkpt><trkpt lat="63.86626053" lon="-18.72935486"><ele>507.4</ele><time>2012-07-25T12:54:32.0000000+00:00</time></trkpt><trkpt lat="63.86620331" lon="-18.72904778"><ele>506.6</ele><time>2012-07-25T12:54:37.0000000+00:00</time></trkpt><trkpt lat="63.86609268" lon="-18.72879791"><ele>504.5</ele><time>2012-07-25T12:54:42.0000000+00:00</time></trkpt><trkpt lat="63.86597443" lon="-18.72873306"><ele>502.4</ele><time>2012-07-25T12:54:47.0000000+00:00</time></trkpt><trkpt lat="63.86585617" lon="-18.72872734"><ele>501.7</ele><time>2012-07-25T12:54:52.0000000+00:00</time></trkpt><trkpt lat="63.86573792" lon="-18.72872353"><ele>502.5</ele><time>2012-07-25T12:54:57.0000000+00:00</time></trkpt><trkpt lat="63.86566544" lon="-18.72881317"><ele>502.7</ele><time>2012-07-25T12:55:02.0000000+00:00</time></trkpt><trkpt lat="63.86558151" lon="-18.72892761"><ele>505.2</ele><time>2012-07-25T12:55:07.0000000+00:00</time></trkpt><trkpt lat="63.86550903" lon="-18.72907066"><ele>507.8</ele><time>2012-07-25T12:55:12.0000000+00:00</time></trkpt><trkpt lat="63.86543274" lon="-18.72913551"><ele>509.2</ele><time>2012-07-25T12:55:17.0000000+00:00</time></trkpt><trkpt lat="63.86534882" lon="-18.72915649"><ele>509.8</ele><time>2012-07-25T12:55:22.0000000+00:00</time></trkpt><trkpt lat="63.86526108" lon="-18.72917938"><ele>511.0</ele><time>2012-07-25T12:55:27.0000000+00:00</time></trkpt><trkpt lat="63.86515427" lon="-18.72927284"><ele>509.7</ele><time>2012-07-25T12:55:32.0000000+00:00</time></trkpt><trkpt lat="63.86509323" lon="-18.72941017"><ele>510.7</ele><time>2012-07-25T12:55:37.0000000+00:00</time></trkpt><trkpt lat="63.86507034" lon="-18.72946358"><ele>512.8</ele><time>2012-07-25T12:55:42.0000000+00:00</time></trkpt><trkpt lat="63.86506653" lon="-18.72948456"><ele>513.2</ele><time>2012-07-25T12:55:47.0000000+00:00</time></trkpt><trkpt lat="63.86504746" lon="-18.72955895"><ele>514.8</ele><time>2012-07-25T12:55:52.0000000+00:00</time></trkpt><trkpt lat="63.86502457" lon="-18.72964478"><ele>515.2</ele><time>2012-07-25T12:55:57.0000000+00:00</time></trkpt><trkpt lat="63.86501312" lon="-18.72969246"><ele>516.2</ele><time>2012-07-25T12:56:02.0000000+00:00</time></trkpt><trkpt lat="63.86501312" lon="-18.72976494"><ele>517.7</ele><time>2012-07-25T12:56:07.0000000+00:00</time></trkpt><trkpt lat="63.86500549" lon="-18.72982788"><ele>518.5</ele><time>2012-07-25T12:56:12.0000000+00:00</time></trkpt><trkpt lat="63.86500168" lon="-18.7298317"><ele>518.0</ele><time>2012-07-25T12:56:17.0000000+00:00</time></trkpt><trkpt lat="63.86500168" lon="-18.72982788"><ele>517.7</ele><time>2012-07-25T12:56:22.0000000+00:00</time></trkpt><trkpt lat="63.86499405" lon="-18.72986412"><ele>517.8</ele><time>2012-07-25T12:56:27.0000000+00:00</time></trkpt><trkpt lat="63.86499405" lon="-18.72993469"><ele>518.0</ele><time>2012-07-25T12:56:32.0000000+00:00</time></trkpt><trkpt lat="63.86499023" lon="-18.72997665"><ele>517.2</ele><time>2012-07-25T12:56:37.0000000+00:00</time></trkpt><trkpt lat="63.86498642" lon="-18.73006058"><ele>517.6</ele><time>2012-07-25T12:56:42.0000000+00:00</time></trkpt><trkpt lat="63.86499023" lon="-18.73018837"><ele>518.6</ele><time>2012-07-25T12:56:47.0000000+00:00</time></trkpt><trkpt lat="63.86501312" lon="-18.73030472"><ele>519.0</ele><time>2012-07-25T12:56:52.0000000+00:00</time></trkpt><trkpt lat="63.86502838" lon="-18.73041153"><ele>519.7</ele><time>2012-07-25T12:56:57.0000000+00:00</time></trkpt><trkpt lat="63.86504364" lon="-18.73053551"><ele>520.0</ele><time>2012-07-25T12:57:02.0000000+00:00</time></trkpt><trkpt lat="63.86507034" lon="-18.73063278"><ele>520.2</ele><time>2012-07-25T12:57:07.0000000+00:00</time></trkpt><trkpt lat="63.86509323" lon="-18.7307663"><ele>521.3</ele><time>2012-07-25T12:57:12.0000000+00:00</time></trkpt><trkpt lat="63.86511993" lon="-18.73087502"><ele>522.5</ele><time>2012-07-25T12:57:17.0000000+00:00</time></trkpt><trkpt lat="63.86514282" lon="-18.73099327"><ele>522.8</ele><time>2012-07-25T12:57:22.0000000+00:00</time></trkpt><trkpt lat="63.86515808" lon="-18.73108673"><ele>522.7</ele><time>2012-07-25T12:57:27.0000000+00:00</time></trkpt><trkpt lat="63.86517716" lon="-18.73116875"><ele>523.3</ele><time>2012-07-25T12:57:32.0000000+00:00</time></trkpt><trkpt lat="63.8651886" lon="-18.73121071"><ele>523.3</ele><time>2012-07-25T12:57:37.0000000+00:00</time></trkpt><trkpt lat="63.86520386" lon="-18.7313385"><ele>522.5</ele><time>2012-07-25T12:57:42.0000000+00:00</time></trkpt><trkpt lat="63.86520767" lon="-18.73157501"><ele>522.5</ele><time>2012-07-25T12:57:47.0000000+00:00</time></trkpt><trkpt lat="63.86520004" lon="-18.73176193"><ele>525.0</ele><time>2012-07-25T12:57:52.0000000+00:00</time></trkpt><trkpt lat="63.86517716" lon="-18.73192215"><ele>524.7</ele><time>2012-07-25T12:57:57.0000000+00:00</time></trkpt><trkpt lat="63.86512756" lon="-18.73205757"><ele>522.3</ele><time>2012-07-25T12:58:02.0000000+00:00</time></trkpt><trkpt lat="63.86506653" lon="-18.73221207"><ele>520.0</ele><time>2012-07-25T12:58:07.0000000+00:00</time></trkpt><trkpt lat="63.86501694" lon="-18.7322979"><ele>519.0</ele><time>2012-07-25T12:58:12.0000000+00:00</time></trkpt><trkpt lat="63.86501694" lon="-18.73231506"><ele>521.0</ele><time>2012-07-25T12:58:17.0000000+00:00</time></trkpt><trkpt lat="63.86502457" lon="-18.73236084"><ele>522.3</ele><time>2012-07-25T12:58:22.0000000+00:00</time></trkpt><trkpt lat="63.86502838" lon="-18.73235703"><ele>522.7</ele><time>2012-07-25T12:58:27.0000000+00:00</time></trkpt><trkpt lat="63.86502838" lon="-18.73236084"><ele>522.7</ele><time>2012-07-25T12:58:32.0000000+00:00</time></trkpt><trkpt lat="63.86502075" lon="-18.73237228"><ele>522.9</ele><time>2012-07-25T12:58:37.0000000+00:00</time></trkpt><trkpt lat="63.86500168" lon="-18.73241043"><ele>523.9</ele><time>2012-07-25T12:58:42.0000000+00:00</time></trkpt><trkpt lat="63.86497879" lon="-18.73248291"><ele>525.1</ele><time>2012-07-25T12:58:47.0000000+00:00</time></trkpt><trkpt lat="63.86494446" lon="-18.73254776"><ele>525.5</ele><time>2012-07-25T12:58:52.0000000+00:00</time></trkpt><trkpt lat="63.86491776" lon="-18.73260117"><ele>526.2</ele><time>2012-07-25T12:58:57.0000000+00:00</time></trkpt><trkpt lat="63.8649025" lon="-18.73262978"><ele>526.8</ele><time>2012-07-25T12:59:02.0000000+00:00</time></trkpt><trkpt lat="63.86491013" lon="-18.73264313"><ele>527.2</ele><time>2012-07-25T12:59:07.0000000+00:00</time></trkpt><trkpt lat="63.86491013" lon="-18.73264313"><ele>527.1</ele><time>2012-07-25T12:59:12.0000000+00:00</time></trkpt><trkpt lat="63.86491013" lon="-18.73264313"><ele>527.3</ele><time>2012-07-25T12:59:17.0000000+00:00</time></trkpt><trkpt lat="63.86489105" lon="-18.73267746"><ele>527.9</ele><time>2012-07-25T12:59:22.0000000+00:00</time></trkpt><trkpt lat="63.86487579" lon="-18.73271179"><ele>528.7</ele><time>2012-07-25T12:59:27.0000000+00:00</time></trkpt><trkpt lat="63.86484909" lon="-18.73275566"><ele>529.0</ele><time>2012-07-25T12:59:32.0000000+00:00</time></trkpt><trkpt lat="63.86483002" lon="-18.73279381"><ele>528.2</ele><time>2012-07-25T12:59:37.0000000+00:00</time></trkpt><trkpt lat="63.86480713" lon="-18.73284721"><ele>528.7</ele><time>2012-07-25T12:59:42.0000000+00:00</time></trkpt><trkpt lat="63.86478806" lon="-18.73287201"><ele>529.0</ele><time>2012-07-25T12:59:47.0000000+00:00</time></trkpt><trkpt lat="63.86473084" lon="-18.73295593"><ele>529.8</ele><time>2012-07-25T12:59:52.0000000+00:00</time></trkpt><trkpt lat="63.86462021" lon="-18.73306465"><ele>530.2</ele><time>2012-07-25T12:59:57.0000000+00:00</time></trkpt><trkpt lat="63.86450958" lon="-18.73311615"><ele>531.4</ele><time>2012-07-25T13:00:02.0000000+00:00</time></trkpt><trkpt lat="63.86442947" lon="-18.73318863"><ele>532.9</ele><time>2012-07-25T13:00:07.0000000+00:00</time></trkpt><trkpt lat="63.86431503" lon="-18.73326683"><ele>534.4</ele><time>2012-07-25T13:00:12.0000000+00:00</time></trkpt><trkpt lat="63.8643074" lon="-18.73326683"><ele>535.3</ele><time>2012-07-25T13:00:17.0000000+00:00</time></trkpt><trkpt lat="63.86428452" lon="-18.73327065"><ele>535.7</ele><time>2012-07-25T13:00:22.0000000+00:00</time></trkpt><trkpt lat="63.86426926" lon="-18.73329163"><ele>535.9</ele><time>2012-07-25T13:00:27.0000000+00:00</time></trkpt><trkpt lat="63.86423111" lon="-18.73332405"><ele>536.5</ele><time>2012-07-25T13:00:32.0000000+00:00</time></trkpt><trkpt lat="63.86419296" lon="-18.73337555"><ele>537.0</ele><time>2012-07-25T13:00:37.0000000+00:00</time></trkpt><trkpt lat="63.86415863" lon="-18.73341942"><ele>537.8</ele><time>2012-07-25T13:00:42.0000000+00:00</time></trkpt><trkpt lat="63.8641243" lon="-18.7334652"><ele>537.5</ele><time>2012-07-25T13:00:47.0000000+00:00</time></trkpt><trkpt lat="63.8640976" lon="-18.73353958"><ele>538.4</ele><time>2012-07-25T13:00:52.0000000+00:00</time></trkpt><trkpt lat="63.86408234" lon="-18.7336216"><ele>540.5</ele><time>2012-07-25T13:00:57.0000000+00:00</time></trkpt><trkpt lat="63.86408234" lon="-18.73371887"><ele>541.5</ele><time>2012-07-25T13:01:02.0000000+00:00</time></trkpt><trkpt lat="63.86407089" lon="-18.73383713"><ele>543.1</ele><time>2012-07-25T13:01:07.0000000+00:00</time></trkpt><trkpt lat="63.86407089" lon="-18.73392296"><ele>544.1</ele><time>2012-07-25T13:01:12.0000000+00:00</time></trkpt><trkpt lat="63.86408234" lon="-18.73402786"><ele>544.5</ele><time>2012-07-25T13:01:17.0000000+00:00</time></trkpt><trkpt lat="63.86409378" lon="-18.73413277"><ele>544.0</ele><time>2012-07-25T13:01:22.0000000+00:00</time></trkpt><trkpt lat="63.86410904" lon="-18.73425674"><ele>544.8</ele><time>2012-07-25T13:01:27.0000000+00:00</time></trkpt><trkpt lat="63.86413193" lon="-18.734375"><ele>545.0</ele><time>2012-07-25T13:01:32.0000000+00:00</time></trkpt><trkpt lat="63.86413956" lon="-18.73451233"><ele>545.2</ele><time>2012-07-25T13:01:37.0000000+00:00</time></trkpt><trkpt lat="63.864151" lon="-18.7346096"><ele>545.0</ele><time>2012-07-25T13:01:42.0000000+00:00</time></trkpt><trkpt lat="63.86415482" lon="-18.73464775"><ele>545.8</ele><time>2012-07-25T13:01:47.0000000+00:00</time></trkpt><trkpt lat="63.86415482" lon="-18.7346611"><ele>545.8</ele><time>2012-07-25T13:01:52.0000000+00:00</time></trkpt><trkpt lat="63.864151" lon="-18.73483086"><ele>546.7</ele><time>2012-07-25T13:01:57.0000000+00:00</time></trkpt><trkpt lat="63.86414719" lon="-18.7350769"><ele>547.7</ele><time>2012-07-25T13:02:02.0000000+00:00</time></trkpt><trkpt lat="63.86413574" lon="-18.7353344"><ele>548.2</ele><time>2012-07-25T13:02:07.0000000+00:00</time></trkpt><trkpt lat="63.86411285" lon="-18.73563576"><ele>548.1</ele><time>2012-07-25T13:02:12.0000000+00:00</time></trkpt><trkpt lat="63.86407471" lon="-18.73592758"><ele>548.1</ele><time>2012-07-25T13:02:17.0000000+00:00</time></trkpt><trkpt lat="63.86403656" lon="-18.73605156"><ele>548.6</ele><time>2012-07-25T13:02:22.0000000+00:00</time></trkpt><trkpt lat="63.8639679" lon="-18.73615646"><ele>549.8</ele><time>2012-07-25T13:02:27.0000000+00:00</time></trkpt><trkpt lat="63.86387253" lon="-18.73624802"><ele>550.4</ele><time>2012-07-25T13:02:32.0000000+00:00</time></trkpt><trkpt lat="63.86380386" lon="-18.73637009"><ele>551.2</ele><time>2012-07-25T13:02:37.0000000+00:00</time></trkpt><trkpt lat="63.86374664" lon="-18.73650169"><ele>553.7</ele><time>2012-07-25T13:02:42.0000000+00:00</time></trkpt><trkpt lat="63.86368561" lon="-18.73663139"><ele>554.7</ele><time>2012-07-25T13:02:47.0000000+00:00</time></trkpt><trkpt lat="63.86363602" lon="-18.73677254"><ele>556.3</ele><time>2012-07-25T13:02:52.0000000+00:00</time></trkpt><trkpt lat="63.86359406" lon="-18.73689652"><ele>557.0</ele><time>2012-07-25T13:02:57.0000000+00:00</time></trkpt><trkpt lat="63.86355591" lon="-18.73705673"><ele>556.9</ele><time>2012-07-25T13:03:02.0000000+00:00</time></trkpt><trkpt lat="63.86351776" lon="-18.73720741"><ele>557.3</ele><time>2012-07-25T13:03:07.0000000+00:00</time></trkpt><trkpt lat="63.86349106" lon="-18.73735237"><ele>556.9</ele><time>2012-07-25T13:03:12.0000000+00:00</time></trkpt><trkpt lat="63.86346436" lon="-18.73750877"><ele>557.4</ele><time>2012-07-25T13:03:17.0000000+00:00</time></trkpt><trkpt lat="63.86343002" lon="-18.73772049"><ele>557.5</ele><time>2012-07-25T13:03:22.0000000+00:00</time></trkpt><trkpt lat="63.86340332" lon="-18.73786545"><ele>559.3</ele><time>2012-07-25T13:03:27.0000000+00:00</time></trkpt><trkpt lat="63.86338043" lon="-18.73806572"><ele>560.0</ele><time>2012-07-25T13:03:32.0000000+00:00</time></trkpt><trkpt lat="63.86336136" lon="-18.7382431"><ele>560.0</ele><time>2012-07-25T13:03:37.0000000+00:00</time></trkpt><trkpt lat="63.86333466" lon="-18.73843193"><ele>561.6</ele><time>2012-07-25T13:03:42.0000000+00:00</time></trkpt><trkpt lat="63.86330414" lon="-18.7386055"><ele>563.1</ele><time>2012-07-25T13:03:47.0000000+00:00</time></trkpt><trkpt lat="63.86324692" lon="-18.73878288"><ele>563.3</ele><time>2012-07-25T13:03:52.0000000+00:00</time></trkpt><trkpt lat="63.86318588" lon="-18.7389431"><ele>563.8</ele><time>2012-07-25T13:03:57.0000000+00:00</time></trkpt><trkpt lat="63.86312103" lon="-18.73917198"><ele>563.3</ele><time>2012-07-25T13:04:02.0000000+00:00</time></trkpt><trkpt lat="63.86304474" lon="-18.7394371"><ele>562.4</ele><time>2012-07-25T13:04:07.0000000+00:00</time></trkpt><trkpt lat="63.8629837" lon="-18.73968887"><ele>562.3</ele><time>2012-07-25T13:04:12.0000000+00:00</time></trkpt><trkpt lat="63.86294174" lon="-18.7399292"><ele>562.9</ele><time>2012-07-25T13:04:17.0000000+00:00</time></trkpt><trkpt lat="63.86289978" lon="-18.74012566"><ele>563.3</ele><time>2012-07-25T13:04:22.0000000+00:00</time></trkpt><trkpt lat="63.86285019" lon="-18.74032593"><ele>564.0</ele><time>2012-07-25T13:04:27.0000000+00:00</time></trkpt><trkpt lat="63.86277771" lon="-18.74056244"><ele>564.2</ele><time>2012-07-25T13:04:32.0000000+00:00</time></trkpt><trkpt lat="63.86267471" lon="-18.74073982"><ele>564.0</ele><time>2012-07-25T13:04:37.0000000+00:00</time></trkpt><trkpt lat="63.86259842" lon="-18.74085236"><ele>565.6</ele><time>2012-07-25T13:04:42.0000000+00:00</time></trkpt><trkpt lat="63.8625145" lon="-18.74096108"><ele>567.6</ele><time>2012-07-25T13:04:47.0000000+00:00</time></trkpt><trkpt lat="63.86243439" lon="-18.74105072"><ele>567.3</ele><time>2012-07-25T13:04:52.0000000+00:00</time></trkpt><trkpt lat="63.86235428" lon="-18.7410965"><ele>567.0</ele><time>2012-07-25T13:04:57.0000000+00:00</time></trkpt><trkpt lat="63.86226654" lon="-18.74115562"><ele>565.8</ele><time>2012-07-25T13:05:02.0000000+00:00</time></trkpt><trkpt lat="63.86216736" lon="-18.74123573"><ele>566.0</ele><time>2012-07-25T13:05:07.0000000+00:00</time></trkpt><trkpt lat="63.86206055" lon="-18.74128151"><ele>567.5</ele><time>2012-07-25T13:05:12.0000000+00:00</time></trkpt><trkpt lat="63.86196137" lon="-18.74131012"><ele>567.8</ele><time>2012-07-25T13:05:17.0000000+00:00</time></trkpt><trkpt lat="63.86193848" lon="-18.74131393"><ele>567.6</ele><time>2012-07-25T13:05:22.0000000+00:00</time></trkpt><trkpt lat="63.86193085" lon="-18.74132919"><ele>568.5</ele><time>2012-07-25T13:05:27.0000000+00:00</time></trkpt><trkpt lat="63.86190414" lon="-18.74134064"><ele>569.3</ele><time>2012-07-25T13:05:32.0000000+00:00</time></trkpt><trkpt lat="63.86186981" lon="-18.7413578"><ele>570.3</ele><time>2012-07-25T13:05:37.0000000+00:00</time></trkpt><trkpt lat="63.86183548" lon="-18.74135017"><ele>570.9</ele><time>2012-07-25T13:05:42.0000000+00:00</time></trkpt><trkpt lat="63.86179733" lon="-18.74136925"><ele>570.4</ele><time>2012-07-25T13:05:47.0000000+00:00</time></trkpt><trkpt lat="63.86175537" lon="-18.7413826"><ele>570.8</ele><time>2012-07-25T13:05:52.0000000+00:00</time></trkpt><trkpt lat="63.86171341" lon="-18.74140739"><ele>571.1</ele><time>2012-07-25T13:05:57.0000000+00:00</time></trkpt><trkpt lat="63.86167908" lon="-18.74141502"><ele>571.3</ele><time>2012-07-25T13:06:02.0000000+00:00</time></trkpt><trkpt lat="63.86165237" lon="-18.74143791"><ele>573.0</ele><time>2012-07-25T13:06:07.0000000+00:00</time></trkpt><trkpt lat="63.86159897" lon="-18.74147987"><ele>574.5</ele><time>2012-07-25T13:06:12.0000000+00:00</time></trkpt><trkpt lat="63.86155701" lon="-18.74150848"><ele>575.8</ele><time>2012-07-25T13:06:17.0000000+00:00</time></trkpt><trkpt lat="63.86151505" lon="-18.74152374"><ele>576.7</ele><time>2012-07-25T13:06:22.0000000+00:00</time></trkpt><trkpt lat="63.86145783" lon="-18.74154282"><ele>577.1</ele><time>2012-07-25T13:06:27.0000000+00:00</time></trkpt><trkpt lat="63.8614006" lon="-18.74154854"><ele>577.8</ele><time>2012-07-25T13:06:32.0000000+00:00</time></trkpt><trkpt lat="63.86135101" lon="-18.74154282"><ele>577.1</ele><time>2012-07-25T13:06:37.0000000+00:00</time></trkpt><trkpt lat="63.86127091" lon="-18.74151802"><ele>577.0</ele><time>2012-07-25T13:06:42.0000000+00:00</time></trkpt><trkpt lat="63.86120224" lon="-18.7414608"><ele>576.6</ele><time>2012-07-25T13:06:47.0000000+00:00</time></trkpt><trkpt lat="63.86114121" lon="-18.74140549"><ele>576.1</ele><time>2012-07-25T13:06:52.0000000+00:00</time></trkpt><trkpt lat="63.86108398" lon="-18.74128342"><ele>577.2</ele><time>2012-07-25T13:06:57.0000000+00:00</time></trkpt><trkpt lat="63.86104202" lon="-18.74109268"><ele>577.5</ele><time>2012-07-25T13:07:02.0000000+00:00</time></trkpt><trkpt lat="63.86103439" lon="-18.74093247"><ele>576.6</ele><time>2012-07-25T13:07:07.0000000+00:00</time></trkpt><trkpt lat="63.86104202" lon="-18.74086952"><ele>576.5</ele><time>2012-07-25T13:07:12.0000000+00:00</time></trkpt><trkpt lat="63.86103821" lon="-18.74081993"><ele>576.3</ele><time>2012-07-25T13:07:17.0000000+00:00</time></trkpt><trkpt lat="63.86099625" lon="-18.74055862"><ele>576.4</ele><time>2012-07-25T13:07:22.0000000+00:00</time></trkpt><trkpt lat="63.86095047" lon="-18.7403183"><ele>576.7</ele><time>2012-07-25T13:07:27.0000000+00:00</time></trkpt><trkpt lat="63.86093521" lon="-18.74008942"><ele>577.8</ele><time>2012-07-25T13:07:32.0000000+00:00</time></trkpt><trkpt lat="63.86090469" lon="-18.73983765"><ele>580.1</ele><time>2012-07-25T13:07:37.0000000+00:00</time></trkpt><trkpt lat="63.86086273" lon="-18.73956871"><ele>581.8</ele><time>2012-07-25T13:07:42.0000000+00:00</time></trkpt><trkpt lat="63.86080551" lon="-18.73925018"><ele>583.5</ele><time>2012-07-25T13:07:47.0000000+00:00</time></trkpt><trkpt lat="63.86073303" lon="-18.73897362"><ele>583.4</ele><time>2012-07-25T13:07:52.0000000+00:00</time></trkpt><trkpt lat="63.86064529" lon="-18.73872185"><ele>583.5</ele><time>2012-07-25T13:07:57.0000000+00:00</time></trkpt><trkpt lat="63.86054993" lon="-18.73850441"><ele>584.9</ele><time>2012-07-25T13:08:02.0000000+00:00</time></trkpt><trkpt lat="63.86046982" lon="-18.73823547"><ele>586.8</ele><time>2012-07-25T13:08:07.0000000+00:00</time></trkpt><trkpt lat="63.86044693" lon="-18.73791313"><ele>587.1</ele><time>2012-07-25T13:08:12.0000000+00:00</time></trkpt><trkpt lat="63.86048126" lon="-18.73760796"><ele>586.8</ele><time>2012-07-25T13:08:17.0000000+00:00</time></trkpt><trkpt lat="63.86054993" lon="-18.73732758"><ele>587.1</ele><time>2012-07-25T13:08:22.0000000+00:00</time></trkpt><trkpt lat="63.86061478" lon="-18.7369709"><ele>586.3</ele><time>2012-07-25T13:08:27.0000000+00:00</time></trkpt><trkpt lat="63.86062241" lon="-18.73674202"><ele>586.7</ele><time>2012-07-25T13:08:32.0000000+00:00</time></trkpt><trkpt lat="63.8605957" lon="-18.73651314"><ele>587.0</ele><time>2012-07-25T13:08:37.0000000+00:00</time></trkpt><trkpt lat="63.86056137" lon="-18.73627281"><ele>586.1</ele><time>2012-07-25T13:08:42.0000000+00:00</time></trkpt><trkpt lat="63.86052704" lon="-18.73602295"><ele>585.9</ele><time>2012-07-25T13:08:47.0000000+00:00</time></trkpt><trkpt lat="63.86048889" lon="-18.73583603"><ele>586.1</ele><time>2012-07-25T13:08:52.0000000+00:00</time></trkpt><trkpt lat="63.86043549" lon="-18.73564529"><ele>585.6</ele><time>2012-07-25T13:08:57.0000000+00:00</time></trkpt><trkpt lat="63.86036301" lon="-18.73544312"><ele>584.6</ele><time>2012-07-25T13:09:02.0000000+00:00</time></trkpt><trkpt lat="63.8602829" lon="-18.73523712"><ele>583.6</ele><time>2012-07-25T13:09:07.0000000+00:00</time></trkpt><trkpt lat="63.86019135" lon="-18.73502731"><ele>583.0</ele><time>2012-07-25T13:09:12.0000000+00:00</time></trkpt><trkpt lat="63.86007309" lon="-18.73480415"><ele>580.2</ele><time>2012-07-25T13:09:17.0000000+00:00</time></trkpt><trkpt lat="63.8599205" lon="-18.7346077"><ele>578.1</ele><time>2012-07-25T13:09:22.0000000+00:00</time></trkpt><trkpt lat="63.8597908" lon="-18.73423958"><ele>577.2</ele><time>2012-07-25T13:09:27.0000000+00:00</time></trkpt><trkpt lat="63.85974121" lon="-18.73384666"><ele>577.4</ele><time>2012-07-25T13:09:32.0000000+00:00</time></trkpt><trkpt lat="63.85974503" lon="-18.73360825"><ele>578.1</ele><time>2012-07-25T13:09:37.0000000+00:00</time></trkpt><trkpt lat="63.85971451" lon="-18.73323631"><ele>578.7</ele><time>2012-07-25T13:09:42.0000000+00:00</time></trkpt><trkpt lat="63.85953522" lon="-18.73304939"><ele>577.1</ele><time>2012-07-25T13:09:47.0000000+00:00</time></trkpt><trkpt lat="63.85932159" lon="-18.73279762"><ele>572.3</ele><time>2012-07-25T13:09:52.0000000+00:00</time></trkpt><trkpt lat="63.85914612" lon="-18.7325592"><ele>569.2</ele><time>2012-07-25T13:09:57.0000000+00:00</time></trkpt><trkpt lat="63.85894775" lon="-18.73225594"><ele>566.6</ele><time>2012-07-25T13:10:02.0000000+00:00</time></trkpt><trkpt lat="63.85872269" lon="-18.73198319"><ele>564.3</ele><time>2012-07-25T13:10:07.0000000+00:00</time></trkpt><trkpt lat="63.85848999" lon="-18.7318058"><ele>561.3</ele><time>2012-07-25T13:10:12.0000000+00:00</time></trkpt><trkpt lat="63.85822678" lon="-18.73161888"><ele>558.5</ele><time>2012-07-25T13:10:17.0000000+00:00</time></trkpt><trkpt lat="63.85790253" lon="-18.73151207"><ele>554.9</ele><time>2012-07-25T13:10:22.0000000+00:00</time></trkpt><trkpt lat="63.85765457" lon="-18.73156929"><ele>554.2</ele><time>2012-07-25T13:10:27.0000000+00:00</time></trkpt><trkpt lat="63.85747528" lon="-18.73167801"><ele>553.1</ele><time>2012-07-25T13:10:32.0000000+00:00</time></trkpt><trkpt lat="63.85725784" lon="-18.7318325"><ele>548.5</ele><time>2012-07-25T13:10:37.0000000+00:00</time></trkpt><trkpt lat="63.85697937" lon="-18.73209572"><ele>547.4</ele><time>2012-07-25T13:10:42.0000000+00:00</time></trkpt><trkpt lat="63.85682678" lon="-18.73266029"><ele>546.4</ele><time>2012-07-25T13:10:47.0000000+00:00</time></trkpt><trkpt lat="63.85677719" lon="-18.73318291"><ele>551.9</ele><time>2012-07-25T13:10:52.0000000+00:00</time></trkpt><trkpt lat="63.8567009" lon="-18.73369408"><ele>553.2</ele><time>2012-07-25T13:10:57.0000000+00:00</time></trkpt><trkpt lat="63.85652924" lon="-18.73416519"><ele>550.9</ele><time>2012-07-25T13:11:02.0000000+00:00</time></trkpt><trkpt lat="63.85638046" lon="-18.73439217"><ele>549.8</ele><time>2012-07-25T13:11:07.0000000+00:00</time></trkpt><trkpt lat="63.85632706" lon="-18.73448944"><ele>550.2</ele><time>2012-07-25T13:11:12.0000000+00:00</time></trkpt><trkpt lat="63.85631943" lon="-18.73451614"><ele>549.9</ele><time>2012-07-25T13:11:17.0000000+00:00</time></trkpt><trkpt lat="63.85629654" lon="-18.7346592"><ele>551.3</ele><time>2012-07-25T13:11:22.0000000+00:00</time></trkpt><trkpt lat="63.85626221" lon="-18.73493004"><ele>551.1</ele><time>2012-07-25T13:11:27.0000000+00:00</time></trkpt><trkpt lat="63.85623932" lon="-18.73521614"><ele>550.9</ele><time>2012-07-25T13:11:32.0000000+00:00</time></trkpt><trkpt lat="63.85622025" lon="-18.73544884"><ele>550.2</ele><time>2012-07-25T13:11:37.0000000+00:00</time></trkpt><trkpt lat="63.85620117" lon="-18.73561859"><ele>550.7</ele><time>2012-07-25T13:11:42.0000000+00:00</time></trkpt><trkpt lat="63.85616684" lon="-18.73582459"><ele>550.8</ele><time>2012-07-25T13:11:47.0000000+00:00</time></trkpt><trkpt lat="63.85612488" lon="-18.73602676"><ele>551.8</ele><time>2012-07-25T13:11:52.0000000+00:00</time></trkpt><trkpt lat="63.85608292" lon="-18.73621559"><ele>552.8</ele><time>2012-07-25T13:11:57.0000000+00:00</time></trkpt><trkpt lat="63.85604858" lon="-18.73639679"><ele>554.0</ele><time>2012-07-25T13:12:02.0000000+00:00</time></trkpt><trkpt lat="63.85601807" lon="-18.73656273"><ele>554.9</ele><time>2012-07-25T13:12:07.0000000+00:00</time></trkpt><trkpt lat="63.85598755" lon="-18.73672104"><ele>556.0</ele><time>2012-07-25T13:12:12.0000000+00:00</time></trkpt><trkpt lat="63.8559494" lon="-18.73690605"><ele>557.7</ele><time>2012-07-25T13:12:17.0000000+00:00</time></trkpt><trkpt lat="63.85591126" lon="-18.7370739"><ele>558.9</ele><time>2012-07-25T13:12:22.0000000+00:00</time></trkpt><trkpt lat="63.85587311" lon="-18.73720551"><ele>559.1</ele><time>2012-07-25T13:12:27.0000000+00:00</time></trkpt><trkpt lat="63.85582733" lon="-18.7373333"><ele>558.1</ele><time>2012-07-25T13:12:32.0000000+00:00</time></trkpt><trkpt lat="63.8557663" lon="-18.73750114"><ele>558.5</ele><time>2012-07-25T13:12:37.0000000+00:00</time></trkpt><trkpt lat="63.85570145" lon="-18.73766518"><ele>559.0</ele><time>2012-07-25T13:12:42.0000000+00:00</time></trkpt><trkpt lat="63.85561752" lon="-18.73783302"><ele>560.4</ele><time>2012-07-25T13:12:47.0000000+00:00</time></trkpt><trkpt lat="63.85554886" lon="-18.73794556"><ele>556.3</ele><time>2012-07-25T13:12:52.0000000+00:00</time></trkpt><trkpt lat="63.85548782" lon="-18.73811722"><ele>557.5</ele><time>2012-07-25T13:12:57.0000000+00:00</time></trkpt><trkpt lat="63.85541916" lon="-18.73827362"><ele>558.2</ele><time>2012-07-25T13:13:02.0000000+00:00</time></trkpt><trkpt lat="63.85540009" lon="-18.73831177"><ele>559.0</ele><time>2012-07-25T13:13:07.0000000+00:00</time></trkpt><trkpt lat="63.85538101" lon="-18.73835373"><ele>560.1</ele><time>2012-07-25T13:13:12.0000000+00:00</time></trkpt><trkpt lat="63.85536575" lon="-18.73841095"><ele>561.1</ele><time>2012-07-25T13:13:17.0000000+00:00</time></trkpt><trkpt lat="63.85533142" lon="-18.73848915"><ele>562.4</ele><time>2012-07-25T13:13:22.0000000+00:00</time></trkpt><trkpt lat="63.85530472" lon="-18.73855591"><ele>563.9</ele><time>2012-07-25T13:13:27.0000000+00:00</time></trkpt><trkpt lat="63.8552742" lon="-18.73862648"><ele>565.5</ele><time>2012-07-25T13:13:32.0000000+00:00</time></trkpt><trkpt lat="63.85523987" lon="-18.73869133"><ele>566.0</ele><time>2012-07-25T13:13:37.0000000+00:00</time></trkpt><trkpt lat="63.85522461" lon="-18.73871613"><ele>565.5</ele><time>2012-07-25T13:13:42.0000000+00:00</time></trkpt><trkpt lat="63.85519409" lon="-18.73878098"><ele>567.0</ele><time>2012-07-25T13:13:47.0000000+00:00</time></trkpt><trkpt lat="63.85515213" lon="-18.73883629"><ele>567.7</ele><time>2012-07-25T13:13:52.0000000+00:00</time></trkpt><trkpt lat="63.85511398" lon="-18.73887444"><ele>567.8</ele><time>2012-07-25T13:13:57.0000000+00:00</time></trkpt><trkpt lat="63.85507965" lon="-18.73894119"><ele>567.9</ele><time>2012-07-25T13:14:02.0000000+00:00</time></trkpt><trkpt lat="63.85506058" lon="-18.73897934"><ele>567.7</ele><time>2012-07-25T13:14:07.0000000+00:00</time></trkpt><trkpt lat="63.85504913" lon="-18.73900604"><ele>567.5</ele><time>2012-07-25T13:14:12.0000000+00:00</time></trkpt><trkpt lat="63.85495377" lon="-18.73921967"><ele>566.2</ele><time>2012-07-25T13:14:17.0000000+00:00</time></trkpt><trkpt lat="63.85476303" lon="-18.73951149"><ele>565.7</ele><time>2012-07-25T13:14:22.0000000+00:00</time></trkpt><trkpt lat="63.85461044" lon="-18.73958778"><ele>565.6</ele><time>2012-07-25T13:14:27.0000000+00:00</time></trkpt><trkpt lat="63.85453415" lon="-18.73959541"><ele>565.5</ele><time>2012-07-25T13:14:32.0000000+00:00</time></trkpt><trkpt lat="63.85445023" lon="-18.73958206"><ele>565.5</ele><time>2012-07-25T13:14:37.0000000+00:00</time></trkpt><trkpt lat="63.85435104" lon="-18.73954392"><ele>565.9</ele><time>2012-07-25T13:14:42.0000000+00:00</time></trkpt><trkpt lat="63.85424423" lon="-18.73953056"><ele>566.7</ele><time>2012-07-25T13:14:47.0000000+00:00</time></trkpt><trkpt lat="63.85413742" lon="-18.73949051"><ele>567.7</ele><time>2012-07-25T13:14:52.0000000+00:00</time></trkpt><trkpt lat="63.85402298" lon="-18.73943138"><ele>567.3</ele><time>2012-07-25T13:14:57.0000000+00:00</time></trkpt><trkpt lat="63.85391998" lon="-18.739357"><ele>567.5</ele><time>2012-07-25T13:15:02.0000000+00:00</time></trkpt><trkpt lat="63.85379028" lon="-18.73929977"><ele>566.6</ele><time>2012-07-25T13:15:07.0000000+00:00</time></trkpt><trkpt lat="63.85362625" lon="-18.73923492"><ele>565.5</ele><time>2012-07-25T13:15:12.0000000+00:00</time></trkpt><trkpt lat="63.85346222" lon="-18.73917389"><ele>564.5</ele><time>2012-07-25T13:15:17.0000000+00:00</time></trkpt><trkpt lat="63.85331345" lon="-18.73911858"><ele>564.0</ele><time>2012-07-25T13:15:22.0000000+00:00</time></trkpt><trkpt lat="63.85316086" lon="-18.73905754"><ele>563.3</ele><time>2012-07-25T13:15:27.0000000+00:00</time></trkpt><trkpt lat="63.8530159" lon="-18.73901558"><ele>563.4</ele><time>2012-07-25T13:15:32.0000000+00:00</time></trkpt><trkpt lat="63.85289002" lon="-18.73896408"><ele>563.3</ele><time>2012-07-25T13:15:37.0000000+00:00</time></trkpt><trkpt lat="63.85277176" lon="-18.7389183"><ele>563.5</ele><time>2012-07-25T13:15:42.0000000+00:00</time></trkpt><trkpt lat="63.85263825" lon="-18.7388382"><ele>563.9</ele><time>2012-07-25T13:15:47.0000000+00:00</time></trkpt><trkpt lat="63.8525238" lon="-18.73871422"><ele>563.9</ele><time>2012-07-25T13:15:52.0000000+00:00</time></trkpt><trkpt lat="63.85240936" lon="-18.73855972"><ele>563.3</ele><time>2012-07-25T13:15:57.0000000+00:00</time></trkpt><trkpt lat="63.85231781" lon="-18.73837662"><ele>562.8</ele><time>2012-07-25T13:16:02.0000000+00:00</time></trkpt><trkpt lat="63.85221481" lon="-18.73812866"><ele>561.4</ele><time>2012-07-25T13:16:07.0000000+00:00</time></trkpt><trkpt lat="63.85212708" lon="-18.73788452"><ele>562.4</ele><time>2012-07-25T13:16:12.0000000+00:00</time></trkpt><trkpt lat="63.85202408" lon="-18.73776436"><ele>564.2</ele><time>2012-07-25T13:16:17.0000000+00:00</time></trkpt><trkpt lat="63.85181809" lon="-18.73756218"><ele>563.2</ele><time>2012-07-25T13:16:22.0000000+00:00</time></trkpt><trkpt lat="63.8515625" lon="-18.7373848"><ele>562.5</ele><time>2012-07-25T13:16:27.0000000+00:00</time></trkpt><trkpt lat="63.85126114" lon="-18.73716927"><ele>558.5</ele><time>2012-07-25T13:16:32.0000000+00:00</time></trkpt><trkpt lat="63.85100937" lon="-18.73694611"><ele>555.9</ele><time>2012-07-25T13:16:37.0000000+00:00</time></trkpt><trkpt lat="63.85094452" lon="-18.7369194"><ele>553.2</ele><time>2012-07-25T13:16:42.0000000+00:00</time></trkpt><trkpt lat="63.85093308" lon="-18.73690796"><ele>552.6</ele><time>2012-07-25T13:16:47.0000000+00:00</time></trkpt><trkpt lat="63.85093689" lon="-18.73690414"><ele>551.5</ele><time>2012-07-25T13:16:52.0000000+00:00</time></trkpt><trkpt lat="63.85093689" lon="-18.73688126"><ele>550.9</ele><time>2012-07-25T13:16:57.0000000+00:00</time></trkpt><trkpt lat="63.85094452" lon="-18.73687553"><ele>551.7</ele><time>2012-07-25T13:17:02.0000000+00:00</time></trkpt><trkpt lat="63.85095978" lon="-18.73690796"><ele>552.1</ele><time>2012-07-25T13:17:07.0000000+00:00</time></trkpt><trkpt lat="63.85096359" lon="-18.73691177"><ele>552.1</ele><time>2012-07-25T13:17:12.0000000+00:00</time></trkpt><trkpt lat="63.85096359" lon="-18.73691177"><ele>552.0</ele><time>2012-07-25T13:17:17.0000000+00:00</time></trkpt><trkpt lat="63.85095978" lon="-18.73690987"><ele>551.9</ele><time>2012-07-25T13:17:22.0000000+00:00</time></trkpt><trkpt lat="63.85095978" lon="-18.73690987"><ele>551.9</ele><time>2012-07-25T13:17:27.0000000+00:00</time></trkpt><trkpt lat="63.85095978" lon="-18.73690987"><ele>551.8</ele><time>2012-07-25T13:17:32.0000000+00:00</time></trkpt><trkpt lat="63.85095978" lon="-18.73690987"><ele>551.8</ele><time>2012-07-25T13:17:37.0000000+00:00</time></trkpt><trkpt lat="63.85095978" lon="-18.73690987"><ele>551.8</ele><time>2012-07-25T13:17:42.0000000+00:00</time></trkpt><trkpt lat="63.85095978" lon="-18.73690987"><ele>551.7</ele><time>2012-07-25T13:17:47.0000000+00:00</time></trkpt><trkpt lat="63.85095978" lon="-18.73690987"><ele>551.7</ele><time>2012-07-25T13:17:52.0000000+00:00</time></trkpt><trkpt lat="63.85095978" lon="-18.73690987"><ele>551.7</ele><time>2012-07-25T13:17:57.0000000+00:00</time></trkpt><trkpt lat="63.85095978" lon="-18.73690987"><ele>551.7</ele><time>2012-07-25T13:18:02.0000000+00:00</time></trkpt><trkpt lat="63.85095978" lon="-18.73690987"><ele>551.7</ele><time>2012-07-25T13:18:07.0000000+00:00</time></trkpt><trkpt lat="63.85095978" lon="-18.73691177"><ele>551.7</ele><time>2012-07-25T13:18:12.0000000+00:00</time></trkpt><trkpt lat="63.85090256" lon="-18.73689842"><ele>550.5</ele><time>2012-07-25T13:18:17.0000000+00:00</time></trkpt><trkpt lat="63.85077667" lon="-18.73694992"><ele>548.1</ele><time>2012-07-25T13:18:22.0000000+00:00</time></trkpt><trkpt lat="63.85061646" lon="-18.73710823"><ele>545.1</ele><time>2012-07-25T13:18:27.0000000+00:00</time></trkpt><trkpt lat="63.85039902" lon="-18.73725891"><ele>540.9</ele><time>2012-07-25T13:18:32.0000000+00:00</time></trkpt><trkpt lat="63.85019302" lon="-18.73735046"><ele>540.4</ele><time>2012-07-25T13:18:37.0000000+00:00</time></trkpt><trkpt lat="63.85003281" lon="-18.737463"><ele>536.8</ele><time>2012-07-25T13:18:42.0000000+00:00</time></trkpt><trkpt lat="63.84983826" lon="-18.73756218"><ele>533.5</ele><time>2012-07-25T13:18:47.0000000+00:00</time></trkpt><trkpt lat="63.84960175" lon="-18.73737335"><ele>529.0</ele><time>2012-07-25T13:18:52.0000000+00:00</time></trkpt><trkpt lat="63.84941101" lon="-18.7375679"><ele>527.6</ele><time>2012-07-25T13:18:57.0000000+00:00</time></trkpt><trkpt lat="63.84942246" lon="-18.73801231"><ele>528.8</ele><time>2012-07-25T13:19:02.0000000+00:00</time></trkpt><trkpt lat="63.84944916" lon="-18.73827362"><ele>531.4</ele><time>2012-07-25T13:19:07.0000000+00:00</time></trkpt><trkpt lat="63.84945679" lon="-18.7385788"><ele>533.5</ele><time>2012-07-25T13:19:12.0000000+00:00</time></trkpt><trkpt lat="63.84942627" lon="-18.73876381"><ele>535.1</ele><time>2012-07-25T13:19:17.0000000+00:00</time></trkpt><trkpt lat="63.84940338" lon="-18.7388401"><ele>533.9</ele><time>2012-07-25T13:19:22.0000000+00:00</time></trkpt><trkpt lat="63.84938812" lon="-18.73884773"><ele>534.1</ele><time>2012-07-25T13:19:27.0000000+00:00</time></trkpt><trkpt lat="63.84938431" lon="-18.7388401"><ele>534.4</ele><time>2012-07-25T13:19:32.0000000+00:00</time></trkpt><trkpt lat="63.84939575" lon="-18.73885346"><ele>536.6</ele><time>2012-07-25T13:19:37.0000000+00:00</time></trkpt><trkpt lat="63.84939575" lon="-18.73886108"><ele>537.6</ele><time>2012-07-25T13:19:42.0000000+00:00</time></trkpt><trkpt lat="63.84939957" lon="-18.73885918"><ele>537.9</ele><time>2012-07-25T13:19:47.0000000+00:00</time></trkpt><trkpt lat="63.84939957" lon="-18.73885727"><ele>537.9</ele><time>2012-07-25T13:19:52.0000000+00:00</time></trkpt><trkpt lat="63.84939957" lon="-18.73885727"><ele>537.9</ele><time>2012-07-25T13:19:57.0000000+00:00</time></trkpt><trkpt lat="63.84939957" lon="-18.73885727"><ele>537.9</ele><time>2012-07-25T13:20:02.0000000+00:00</time></trkpt><trkpt lat="63.84939957" lon="-18.73885536"><ele>537.9</ele><time>2012-07-25T13:20:07.0000000+00:00</time></trkpt><trkpt lat="63.84939957" lon="-18.73885536"><ele>537.9</ele><time>2012-07-25T13:20:12.0000000+00:00</time></trkpt><trkpt lat="63.84939957" lon="-18.73885536"><ele>537.9</ele><time>2012-07-25T13:20:17.0000000+00:00</time></trkpt><trkpt lat="63.84939957" lon="-18.73885727"><ele>537.9</ele><time>2012-07-25T13:20:22.0000000+00:00</time></trkpt><trkpt lat="63.84939957" lon="-18.73885727"><ele>537.9</ele><time>2012-07-25T13:20:27.0000000+00:00</time></trkpt><trkpt lat="63.84939957" lon="-18.73885727"><ele>537.9</ele><time>2012-07-25T13:20:32.0000000+00:00</time></trkpt><trkpt lat="63.8494072" lon="-18.73885155"><ele>537.3</ele><time>2012-07-25T13:20:37.0000000+00:00</time></trkpt><trkpt lat="63.84942627" lon="-18.73882294"><ele>536.8</ele><time>2012-07-25T13:20:42.0000000+00:00</time></trkpt><trkpt lat="63.84944153" lon="-18.73876572"><ele>536.1</ele><time>2012-07-25T13:20:47.0000000+00:00</time></trkpt><trkpt lat="63.8494339" lon="-18.73870468"><ele>536.6</ele><time>2012-07-25T13:20:52.0000000+00:00</time></trkpt><trkpt lat="63.84943771" lon="-18.73861122"><ele>535.8</ele><time>2012-07-25T13:20:57.0000000+00:00</time></trkpt><trkpt lat="63.84944534" lon="-18.73857689"><ele>533.5</ele><time>2012-07-25T13:21:02.0000000+00:00</time></trkpt><trkpt lat="63.84946442" lon="-18.73853493"><ele>532.6</ele><time>2012-07-25T13:21:07.0000000+00:00</time></trkpt><trkpt lat="63.84946442" lon="-18.73841476"><ele>532.0</ele><time>2012-07-25T13:21:12.0000000+00:00</time></trkpt><trkpt lat="63.84944153" lon="-18.73831368"><ele>532.0</ele><time>2012-07-25T13:21:17.0000000+00:00</time></trkpt><trkpt lat="63.84943771" lon="-18.73854828"><ele>532.2</ele><time>2012-07-25T13:21:22.0000000+00:00</time></trkpt><trkpt lat="63.8493309" lon="-18.73895836"><ele>532.0</ele><time>2012-07-25T13:21:27.0000000+00:00</time></trkpt><trkpt lat="63.84930801" lon="-18.73913193"><ele>533.5</ele><time>2012-07-25T13:21:32.0000000+00:00</time></trkpt><trkpt lat="63.84929276" lon="-18.73929405"><ele>533.9</ele><time>2012-07-25T13:21:37.0000000+00:00</time></trkpt><trkpt lat="63.84928513" lon="-18.73946762"><ele>534.3</ele><time>2012-07-25T13:21:42.0000000+00:00</time></trkpt><trkpt lat="63.84928513" lon="-18.73963356"><ele>534.9</ele><time>2012-07-25T13:21:47.0000000+00:00</time></trkpt><trkpt lat="63.84928513" lon="-18.73965836"><ele>535.2</ele><time>2012-07-25T13:21:52.0000000+00:00</time></trkpt><trkpt lat="63.84930039" lon="-18.739851"><ele>533.1</ele><time>2012-07-25T13:21:57.0000000+00:00</time></trkpt><trkpt lat="63.8493309" lon="-18.7401104"><ele>533.8</ele><time>2012-07-25T13:22:02.0000000+00:00</time></trkpt><trkpt lat="63.84937668" lon="-18.74034309"><ele>533.7</ele><time>2012-07-25T13:22:07.0000000+00:00</time></trkpt><trkpt lat="63.84939575" lon="-18.74049377"><ele>533.5</ele><time>2012-07-25T13:22:12.0000000+00:00</time></trkpt><trkpt lat="63.84942246" lon="-18.74061394"><ele>532.7</ele><time>2012-07-25T13:22:17.0000000+00:00</time></trkpt><trkpt lat="63.84944916" lon="-18.74077797"><ele>531.7</ele><time>2012-07-25T13:22:22.0000000+00:00</time></trkpt><trkpt lat="63.84944916" lon="-18.74094009"><ele>532.9</ele><time>2012-07-25T13:22:27.0000000+00:00</time></trkpt><trkpt lat="63.84938049" lon="-18.74116898"><ele>533.7</ele><time>2012-07-25T13:22:32.0000000+00:00</time></trkpt><trkpt lat="63.84934998" lon="-18.74128914"><ele>535.1</ele><time>2012-07-25T13:22:37.0000000+00:00</time></trkpt><trkpt lat="63.84934616" lon="-18.74130821"><ele>535.9</ele><time>2012-07-25T13:22:42.0000000+00:00</time></trkpt><trkpt lat="63.84934235" lon="-18.74137116"><ele>536.0</ele><time>2012-07-25T13:22:47.0000000+00:00</time></trkpt><trkpt lat="63.84934998" lon="-18.74146652"><ele>536.3</ele><time>2012-07-25T13:22:52.0000000+00:00</time></trkpt><trkpt lat="63.84932709" lon="-18.74156189"><ele>536.4</ele><time>2012-07-25T13:22:57.0000000+00:00</time></trkpt><trkpt lat="63.84930039" lon="-18.74164963"><ele>536.4</ele><time>2012-07-25T13:23:02.0000000+00:00</time></trkpt><trkpt lat="63.84929276" lon="-18.74167252"><ele>536.1</ele><time>2012-07-25T13:23:07.0000000+00:00</time></trkpt><trkpt lat="63.84928131" lon="-18.74170494"><ele>535.7</ele><time>2012-07-25T13:23:12.0000000+00:00</time></trkpt><trkpt lat="63.84927368" lon="-18.74169731"><ele>535.4</ele><time>2012-07-25T13:23:17.0000000+00:00</time></trkpt><trkpt lat="63.84927368" lon="-18.74169922"><ele>535.5</ele><time>2012-07-25T13:23:22.0000000+00:00</time></trkpt><trkpt lat="63.84927368" lon="-18.74169922"><ele>535.5</ele><time>2012-07-25T13:23:27.0000000+00:00</time></trkpt><trkpt lat="63.84927368" lon="-18.74169922"><ele>535.5</ele><time>2012-07-25T13:23:32.0000000+00:00</time></trkpt><trkpt lat="63.84927368" lon="-18.74169922"><ele>535.5</ele><time>2012-07-25T13:23:37.0000000+00:00</time></trkpt><trkpt lat="63.84926987" lon="-18.74170494"><ele>535.5</ele><time>2012-07-25T13:23:42.0000000+00:00</time></trkpt><trkpt lat="63.84923554" lon="-18.74170876"><ele>535.5</ele><time>2012-07-25T13:23:47.0000000+00:00</time></trkpt><trkpt lat="63.84920502" lon="-18.74170494"><ele>535.0</ele><time>2012-07-25T13:23:52.0000000+00:00</time></trkpt><trkpt lat="63.8491478" lon="-18.74176025"><ele>536.4</ele><time>2012-07-25T13:23:57.0000000+00:00</time></trkpt><trkpt lat="63.84912109" lon="-18.74181557"><ele>535.7</ele><time>2012-07-25T13:24:02.0000000+00:00</time></trkpt><trkpt lat="63.84908676" lon="-18.74192619"><ele>536.7</ele><time>2012-07-25T13:24:07.0000000+00:00</time></trkpt><trkpt lat="63.84907532" lon="-18.74199295"><ele>537.2</ele><time>2012-07-25T13:24:12.0000000+00:00</time></trkpt><trkpt lat="63.84905624" lon="-18.74202156"><ele>537.7</ele><time>2012-07-25T13:24:17.0000000+00:00</time></trkpt><trkpt lat="63.84901428" lon="-18.74207497"><ele>537.5</ele><time>2012-07-25T13:24:22.0000000+00:00</time></trkpt><trkpt lat="63.84897232" lon="-18.74218941"><ele>537.2</ele><time>2012-07-25T13:24:27.0000000+00:00</time></trkpt><trkpt lat="63.84893036" lon="-18.74233055"><ele>537.1</ele><time>2012-07-25T13:24:32.0000000+00:00</time></trkpt><trkpt lat="63.84888458" lon="-18.74243736"><ele>537.4</ele><time>2012-07-25T13:24:37.0000000+00:00</time></trkpt><trkpt lat="63.84888077" lon="-18.74245644"><ele>537.6</ele><time>2012-07-25T13:24:42.0000000+00:00</time></trkpt><trkpt lat="63.84887314" lon="-18.74245834"><ele>536.9</ele><time>2012-07-25T13:24:47.0000000+00:00</time></trkpt><trkpt lat="63.84887314" lon="-18.74245453"><ele>536.7</ele><time>2012-07-25T13:24:52.0000000+00:00</time></trkpt><trkpt lat="63.84887314" lon="-18.74245453"><ele>536.7</ele><time>2012-07-25T13:24:57.0000000+00:00</time></trkpt><trkpt lat="63.84887314" lon="-18.74245453"><ele>536.7</ele><time>2012-07-25T13:25:02.0000000+00:00</time></trkpt><trkpt lat="63.84887314" lon="-18.74245453"><ele>536.5</ele><time>2012-07-25T13:25:07.0000000+00:00</time></trkpt><trkpt lat="63.84886932" lon="-18.74245262"><ele>536.0</ele><time>2012-07-25T13:25:12.0000000+00:00</time></trkpt><trkpt lat="63.84878159" lon="-18.74256134"><ele>535.8</ele><time>2012-07-25T13:25:17.0000000+00:00</time></trkpt><trkpt lat="63.84876633" lon="-18.74258232"><ele>536.0</ele><time>2012-07-25T13:25:22.0000000+00:00</time></trkpt><trkpt lat="63.84875488" lon="-18.74259377"><ele>535.9</ele><time>2012-07-25T13:25:27.0000000+00:00</time></trkpt><trkpt lat="63.84869766" lon="-18.74263573"><ele>536.9</ele><time>2012-07-25T13:25:32.0000000+00:00</time></trkpt><trkpt lat="63.84859467" lon="-18.74278259"><ele>536.3</ele><time>2012-07-25T13:25:37.0000000+00:00</time></trkpt><trkpt lat="63.84848023" lon="-18.74294281"><ele>535.7</ele><time>2012-07-25T13:25:42.0000000+00:00</time></trkpt><trkpt lat="63.84837341" lon="-18.74312592"><ele>535.7</ele><time>2012-07-25T13:25:47.0000000+00:00</time></trkpt><trkpt lat="63.8482666" lon="-18.74332619"><ele>536.1</ele><time>2012-07-25T13:25:52.0000000+00:00</time></trkpt><trkpt lat="63.84816742" lon="-18.74352264"><ele>536.4</ele><time>2012-07-25T13:25:57.0000000+00:00</time></trkpt><trkpt lat="63.8480835" lon="-18.74365234"><ele>536.7</ele><time>2012-07-25T13:26:02.0000000+00:00</time></trkpt><trkpt lat="63.84801483" lon="-18.74384308"><ele>538.6</ele><time>2012-07-25T13:26:07.0000000+00:00</time></trkpt><trkpt lat="63.84795761" lon="-18.74404907"><ele>539.3</ele><time>2012-07-25T13:26:12.0000000+00:00</time></trkpt><trkpt lat="63.84788895" lon="-18.74426651"><ele>540.0</ele><time>2012-07-25T13:26:17.0000000+00:00</time></trkpt><trkpt lat="63.84780121" lon="-18.74449348"><ele>540.5</ele><time>2012-07-25T13:26:22.0000000+00:00</time></trkpt><trkpt lat="63.84773636" lon="-18.74469757"><ele>541.3</ele><time>2012-07-25T13:26:27.0000000+00:00</time></trkpt><trkpt lat="63.84767151" lon="-18.74493599"><ele>541.7</ele><time>2012-07-25T13:26:32.0000000+00:00</time></trkpt><trkpt lat="63.84762192" lon="-18.74514008"><ele>542.6</ele><time>2012-07-25T13:26:37.0000000+00:00</time></trkpt><trkpt lat="63.84760284" lon="-18.74520111"><ele>543.1</ele><time>2012-07-25T13:26:42.0000000+00:00</time></trkpt><trkpt lat="63.8475914" lon="-18.74523354"><ele>543.4</ele><time>2012-07-25T13:26:47.0000000+00:00</time></trkpt><trkpt lat="63.84757233" lon="-18.74531174"><ele>544.4</ele><time>2012-07-25T13:26:52.0000000+00:00</time></trkpt><trkpt lat="63.84755325" lon="-18.74539375"><ele>545.0</ele><time>2012-07-25T13:26:57.0000000+00:00</time></trkpt><trkpt lat="63.84753799" lon="-18.74546814"><ele>546.0</ele><time>2012-07-25T13:27:02.0000000+00:00</time></trkpt><trkpt lat="63.84751892" lon="-18.74553871"><ele>546.5</ele><time>2012-07-25T13:27:07.0000000+00:00</time></trkpt><trkpt lat="63.84750366" lon="-18.74559212"><ele>546.8</ele><time>2012-07-25T13:27:12.0000000+00:00</time></trkpt><trkpt lat="63.8474884" lon="-18.74562836"><ele>546.7</ele><time>2012-07-25T13:27:17.0000000+00:00</time></trkpt><trkpt lat="63.84747315" lon="-18.7456665"><ele>546.7</ele><time>2012-07-25T13:27:22.0000000+00:00</time></trkpt><trkpt lat="63.84745789" lon="-18.7457161"><ele>547.3</ele><time>2012-07-25T13:27:27.0000000+00:00</time></trkpt><trkpt lat="63.84744263" lon="-18.74575043"><ele>547.0</ele><time>2012-07-25T13:27:32.0000000+00:00</time></trkpt><trkpt lat="63.84741974" lon="-18.74580002"><ele>547.2</ele><time>2012-07-25T13:27:37.0000000+00:00</time></trkpt><trkpt lat="63.84739304" lon="-18.74588966"><ele>548.2</ele><time>2012-07-25T13:27:42.0000000+00:00</time></trkpt><trkpt lat="63.84737015" lon="-18.74594688"><ele>548.6</ele><time>2012-07-25T13:27:47.0000000+00:00</time></trkpt><trkpt lat="63.8473587" lon="-18.74598503"><ele>548.7</ele><time>2012-07-25T13:27:52.0000000+00:00</time></trkpt><trkpt lat="63.84734726" lon="-18.74603653"><ele>548.6</ele><time>2012-07-25T13:27:57.0000000+00:00</time></trkpt><trkpt lat="63.84732437" lon="-18.74606323"><ele>547.9</ele><time>2012-07-25T13:28:02.0000000+00:00</time></trkpt><trkpt lat="63.84729004" lon="-18.74610519"><ele>548.8</ele><time>2012-07-25T13:28:07.0000000+00:00</time></trkpt><trkpt lat="63.84725952" lon="-18.74613762"><ele>549.5</ele><time>2012-07-25T13:28:12.0000000+00:00</time></trkpt><trkpt lat="63.84722519" lon="-18.74617195"><ele>549.3</ele><time>2012-07-25T13:28:17.0000000+00:00</time></trkpt><trkpt lat="63.84719467" lon="-18.74619103"><ele>548.7</ele><time>2012-07-25T13:28:22.0000000+00:00</time></trkpt><trkpt lat="63.84716797" lon="-18.74622917"><ele>548.2</ele><time>2012-07-25T13:28:27.0000000+00:00</time></trkpt><trkpt lat="63.84712982" lon="-18.74628639"><ele>549.1</ele><time>2012-07-25T13:28:32.0000000+00:00</time></trkpt><trkpt lat="63.84709549" lon="-18.74632263"><ele>550.7</ele><time>2012-07-25T13:28:37.0000000+00:00</time></trkpt><trkpt lat="63.84705353" lon="-18.74635696"><ele>550.7</ele><time>2012-07-25T13:28:42.0000000+00:00</time></trkpt><trkpt lat="63.84705734" lon="-18.74637795"><ele>551.8</ele><time>2012-07-25T13:28:47.0000000+00:00</time></trkpt><trkpt lat="63.84703064" lon="-18.74641037"><ele>551.9</ele><time>2012-07-25T13:28:52.0000000+00:00</time></trkpt><trkpt lat="63.84698486" lon="-18.74645233"><ele>552.7</ele><time>2012-07-25T13:28:57.0000000+00:00</time></trkpt><trkpt lat="63.84695053" lon="-18.74649429"><ele>552.9</ele><time>2012-07-25T13:29:02.0000000+00:00</time></trkpt><trkpt lat="63.8469162" lon="-18.74654961"><ele>553.8</ele><time>2012-07-25T13:29:07.0000000+00:00</time></trkpt><trkpt lat="63.84687424" lon="-18.7465992"><ele>555.4</ele><time>2012-07-25T13:29:12.0000000+00:00</time></trkpt><trkpt lat="63.84684753" lon="-18.74662781"><ele>556.3</ele><time>2012-07-25T13:29:17.0000000+00:00</time></trkpt><trkpt lat="63.84682083" lon="-18.74665642"><ele>557.6</ele><time>2012-07-25T13:29:22.0000000+00:00</time></trkpt><trkpt lat="63.84680176" lon="-18.74670029"><ele>558.6</ele><time>2012-07-25T13:29:27.0000000+00:00</time></trkpt><trkpt lat="63.84676743" lon="-18.74673653"><ele>559.3</ele><time>2012-07-25T13:29:32.0000000+00:00</time></trkpt><trkpt lat="63.84673691" lon="-18.7467804"><ele>558.6</ele><time>2012-07-25T13:29:37.0000000+00:00</time></trkpt><trkpt lat="63.84670639" lon="-18.74680328"><ele>558.8</ele><time>2012-07-25T13:29:42.0000000+00:00</time></trkpt><trkpt lat="63.84666443" lon="-18.74683952"><ele>558.6</ele><time>2012-07-25T13:29:47.0000000+00:00</time></trkpt><trkpt lat="63.84663391" lon="-18.74687767"><ele>558.2</ele><time>2012-07-25T13:29:52.0000000+00:00</time></trkpt><trkpt lat="63.84661102" lon="-18.74690628"><ele>556.6</ele><time>2012-07-25T13:29:57.0000000+00:00</time></trkpt><trkpt lat="63.84656906" lon="-18.74697113"><ele>556.8</ele><time>2012-07-25T13:30:02.0000000+00:00</time></trkpt><trkpt lat="63.84653473" lon="-18.74700546"><ele>556.8</ele><time>2012-07-25T13:30:07.0000000+00:00</time></trkpt><trkpt lat="63.84649658" lon="-18.74705315"><ele>557.6</ele><time>2012-07-25T13:30:12.0000000+00:00</time></trkpt><trkpt lat="63.84645462" lon="-18.74711418"><ele>559.0</ele><time>2012-07-25T13:30:17.0000000+00:00</time></trkpt><trkpt lat="63.84641647" lon="-18.74718285"><ele>558.9</ele><time>2012-07-25T13:30:22.0000000+00:00</time></trkpt><trkpt lat="63.84637451" lon="-18.74726105"><ele>559.3</ele><time>2012-07-25T13:30:27.0000000+00:00</time></trkpt><trkpt lat="63.84632111" lon="-18.74733353"><ele>561.1</ele><time>2012-07-25T13:30:32.0000000+00:00</time></trkpt><trkpt lat="63.84628296" lon="-18.74738312"><ele>562.9</ele><time>2012-07-25T13:30:37.0000000+00:00</time></trkpt><trkpt lat="63.84625626" lon="-18.74743271"><ele>563.1</ele><time>2012-07-25T13:30:42.0000000+00:00</time></trkpt><trkpt lat="63.84622955" lon="-18.7474556"><ele>563.5</ele><time>2012-07-25T13:30:47.0000000+00:00</time></trkpt><trkpt lat="63.84619522" lon="-18.74751473"><ele>563.4</ele><time>2012-07-25T13:30:52.0000000+00:00</time></trkpt><trkpt lat="63.8461647" lon="-18.74756622"><ele>563.7</ele><time>2012-07-25T13:30:57.0000000+00:00</time></trkpt><trkpt lat="63.846138" lon="-18.74761391"><ele>565.4</ele><time>2012-07-25T13:31:02.0000000+00:00</time></trkpt><trkpt lat="63.84614182" lon="-18.74761963"><ele>565.7</ele><time>2012-07-25T13:31:07.0000000+00:00</time></trkpt><trkpt lat="63.846138" lon="-18.74762154"><ele>565.7</ele><time>2012-07-25T13:31:12.0000000+00:00</time></trkpt><trkpt lat="63.84611893" lon="-18.74768257"><ele>566.6</ele><time>2012-07-25T13:31:17.0000000+00:00</time></trkpt><trkpt lat="63.84609222" lon="-18.74774551"><ele>567.4</ele><time>2012-07-25T13:31:22.0000000+00:00</time></trkpt><trkpt lat="63.84605789" lon="-18.74784088"><ele>567.4</ele><time>2012-07-25T13:31:27.0000000+00:00</time></trkpt><trkpt lat="63.846035" lon="-18.74794388"><ele>567.6</ele><time>2012-07-25T13:31:32.0000000+00:00</time></trkpt><trkpt lat="63.84601212" lon="-18.7480526"><ele>568.4</ele><time>2012-07-25T13:31:37.0000000+00:00</time></trkpt><trkpt lat="63.84599304" lon="-18.74816132"><ele>569.0</ele><time>2012-07-25T13:31:42.0000000+00:00</time></trkpt><trkpt lat="63.8459816" lon="-18.74825096"><ele>569.1</ele><time>2012-07-25T13:31:47.0000000+00:00</time></trkpt><trkpt lat="63.84597397" lon="-18.7483387"><ele>571.2</ele><time>2012-07-25T13:31:52.0000000+00:00</time></trkpt><trkpt lat="63.84597778" lon="-18.74836922"><ele>571.5</ele><time>2012-07-25T13:31:57.0000000+00:00</time></trkpt><trkpt lat="63.84597778" lon="-18.74841309"><ele>571.3</ele><time>2012-07-25T13:32:02.0000000+00:00</time></trkpt><trkpt lat="63.8459816" lon="-18.74847984"><ele>572.2</ele><time>2012-07-25T13:32:07.0000000+00:00</time></trkpt><trkpt lat="63.84597778" lon="-18.74851036"><ele>572.5</ele><time>2012-07-25T13:32:12.0000000+00:00</time></trkpt><trkpt lat="63.84596634" lon="-18.74850464"><ele>572.4</ele><time>2012-07-25T13:32:17.0000000+00:00</time></trkpt><trkpt lat="63.84596252" lon="-18.74850464"><ele>572.1</ele><time>2012-07-25T13:32:22.0000000+00:00</time></trkpt><trkpt lat="63.84596634" lon="-18.74851227"><ele>572.1</ele><time>2012-07-25T13:32:27.0000000+00:00</time></trkpt><trkpt lat="63.84595871" lon="-18.74856377"><ele>572.1</ele><time>2012-07-25T13:32:32.0000000+00:00</time></trkpt><trkpt lat="63.84596252" lon="-18.74861336"><ele>572.4</ele><time>2012-07-25T13:32:37.0000000+00:00</time></trkpt><trkpt lat="63.84595871" lon="-18.74865341"><ele>572.6</ele><time>2012-07-25T13:32:42.0000000+00:00</time></trkpt><trkpt lat="63.8459549" lon="-18.74869537"><ele>572.9</ele><time>2012-07-25T13:32:47.0000000+00:00</time></trkpt><trkpt lat="63.84595108" lon="-18.74873734"><ele>573.0</ele><time>2012-07-25T13:32:52.0000000+00:00</time></trkpt><trkpt lat="63.84593582" lon="-18.74882889"><ele>576.8</ele><time>2012-07-25T13:32:57.0000000+00:00</time></trkpt><trkpt lat="63.84593201" lon="-18.74888802"><ele>577.5</ele><time>2012-07-25T13:33:02.0000000+00:00</time></trkpt><trkpt lat="63.84592438" lon="-18.74893379"><ele>578.6</ele><time>2012-07-25T13:33:07.0000000+00:00</time></trkpt><trkpt lat="63.84591675" lon="-18.74894524"><ele>578.5</ele><time>2012-07-25T13:33:12.0000000+00:00</time></trkpt><trkpt lat="63.84591675" lon="-18.74894524"><ele>578.5</ele><time>2012-07-25T13:33:17.0000000+00:00</time></trkpt><trkpt lat="63.84591675" lon="-18.74894905"><ele>578.6</ele><time>2012-07-25T13:33:22.0000000+00:00</time></trkpt><trkpt lat="63.84589768" lon="-18.74901962"><ele>579.3</ele><time>2012-07-25T13:33:27.0000000+00:00</time></trkpt><trkpt lat="63.84588242" lon="-18.74910164"><ele>579.6</ele><time>2012-07-25T13:33:32.0000000+00:00</time></trkpt><trkpt lat="63.84585953" lon="-18.74918556"><ele>579.9</ele><time>2012-07-25T13:33:37.0000000+00:00</time></trkpt><trkpt lat="63.84583664" lon="-18.74925613"><ele>579.9</ele><time>2012-07-25T13:33:42.0000000+00:00</time></trkpt><trkpt lat="63.84582138" lon="-18.74931526"><ele>579.2</ele><time>2012-07-25T13:33:47.0000000+00:00</time></trkpt><trkpt lat="63.84580612" lon="-18.74938011"><ele>579.9</ele><time>2012-07-25T13:33:52.0000000+00:00</time></trkpt><trkpt lat="63.84579086" lon="-18.74949265"><ele>581.1</ele><time>2012-07-25T13:33:57.0000000+00:00</time></trkpt><trkpt lat="63.84578705" lon="-18.74959374"><ele>581.7</ele><time>2012-07-25T13:34:02.0000000+00:00</time></trkpt><trkpt lat="63.84578323" lon="-18.74966621"><ele>581.6</ele><time>2012-07-25T13:34:07.0000000+00:00</time></trkpt><trkpt lat="63.84577942" lon="-18.74978256"><ele>582.5</ele><time>2012-07-25T13:34:12.0000000+00:00</time></trkpt><trkpt lat="63.8457756" lon="-18.74980354"><ele>582.2</ele><time>2012-07-25T13:34:17.0000000+00:00</time></trkpt><trkpt lat="63.84577942" lon="-18.74980354"><ele>582.5</ele><time>2012-07-25T13:34:22.0000000+00:00</time></trkpt><trkpt lat="63.84577942" lon="-18.74980354"><ele>582.4</ele><time>2012-07-25T13:34:27.0000000+00:00</time></trkpt><trkpt lat="63.8457756" lon="-18.74979591"><ele>582.3</ele><time>2012-07-25T13:34:32.0000000+00:00</time></trkpt><trkpt lat="63.8457756" lon="-18.74979401"><ele>582.0</ele><time>2012-07-25T13:34:37.0000000+00:00</time></trkpt><trkpt lat="63.8457756" lon="-18.74979019"><ele>581.9</ele><time>2012-07-25T13:34:42.0000000+00:00</time></trkpt><trkpt lat="63.8457756" lon="-18.74979019"><ele>581.8</ele><time>2012-07-25T13:34:47.0000000+00:00</time></trkpt><trkpt lat="63.8457756" lon="-18.7497921"><ele>581.8</ele><time>2012-07-25T13:34:52.0000000+00:00</time></trkpt><trkpt lat="63.8457756" lon="-18.7497921"><ele>581.8</ele><time>2012-07-25T13:34:57.0000000+00:00</time></trkpt><trkpt lat="63.84577942" lon="-18.7497921"><ele>581.8</ele><time>2012-07-25T13:35:02.0000000+00:00</time></trkpt><trkpt lat="63.84577942" lon="-18.74979019"><ele>581.8</ele><time>2012-07-25T13:35:07.0000000+00:00</time></trkpt><trkpt lat="63.84577942" lon="-18.74979019"><ele>581.7</ele><time>2012-07-25T13:35:12.0000000+00:00</time></trkpt><trkpt lat="63.84577942" lon="-18.74979019"><ele>581.7</ele><time>2012-07-25T13:35:17.0000000+00:00</time></trkpt><trkpt lat="63.84577942" lon="-18.7497921"><ele>581.7</ele><time>2012-07-25T13:35:22.0000000+00:00</time></trkpt><trkpt lat="63.84578705" lon="-18.74980927"><ele>581.8</ele><time>2012-07-25T13:35:27.0000000+00:00</time></trkpt><trkpt lat="63.84578705" lon="-18.74980927"><ele>582.0</ele><time>2012-07-25T13:35:32.0000000+00:00</time></trkpt><trkpt lat="63.84578705" lon="-18.74980927"><ele>582.0</ele><time>2012-07-25T13:35:37.0000000+00:00</time></trkpt><trkpt lat="63.84578705" lon="-18.74980927"><ele>582.0</ele><time>2012-07-25T13:35:42.0000000+00:00</time></trkpt><trkpt lat="63.84578705" lon="-18.74980927"><ele>582.0</ele><time>2012-07-25T13:35:47.0000000+00:00</time></trkpt><trkpt lat="63.84578705" lon="-18.74980927"><ele>582.0</ele><time>2012-07-25T13:35:52.0000000+00:00</time></trkpt><trkpt lat="63.84579086" lon="-18.74980927"><ele>582.0</ele><time>2012-07-25T13:35:57.0000000+00:00</time></trkpt><trkpt lat="63.84578705" lon="-18.74980927"><ele>581.9</ele><time>2012-07-25T13:36:02.0000000+00:00</time></trkpt><trkpt lat="63.84578705" lon="-18.74980927"><ele>581.9</ele><time>2012-07-25T13:36:07.0000000+00:00</time></trkpt><trkpt lat="63.84578705" lon="-18.74980736"><ele>581.9</ele><time>2012-07-25T13:36:12.0000000+00:00</time></trkpt><trkpt lat="63.84578705" lon="-18.74980736"><ele>581.9</ele><time>2012-07-25T13:36:17.0000000+00:00</time></trkpt><trkpt lat="63.84578705" lon="-18.74980736"><ele>581.9</ele><time>2012-07-25T13:36:22.0000000+00:00</time></trkpt><trkpt lat="63.84578705" lon="-18.74980736"><ele>581.9</ele><time>2012-07-25T13:36:27.0000000+00:00</time></trkpt><trkpt lat="63.84578705" lon="-18.74980736"><ele>581.9</ele><time>2012-07-25T13:36:32.0000000+00:00</time></trkpt><trkpt lat="63.84578705" lon="-18.74980736"><ele>581.9</ele><time>2012-07-25T13:36:37.0000000+00:00</time></trkpt><trkpt lat="63.84579086" lon="-18.74981499"><ele>581.8</ele><time>2012-07-25T13:36:42.0000000+00:00</time></trkpt><trkpt lat="63.84578323" lon="-18.74995613"><ele>581.2</ele><time>2012-07-25T13:36:47.0000000+00:00</time></trkpt><trkpt lat="63.84576798" lon="-18.75025177"><ele>581.3</ele><time>2012-07-25T13:36:52.0000000+00:00</time></trkpt><trkpt lat="63.84571075" lon="-18.75050926"><ele>581.0</ele><time>2012-07-25T13:36:57.0000000+00:00</time></trkpt><trkpt lat="63.84564972" lon="-18.75071526"><ele>580.6</ele><time>2012-07-25T13:37:02.0000000+00:00</time></trkpt><trkpt lat="63.84558106" lon="-18.75091171"><ele>580.6</ele><time>2012-07-25T13:37:07.0000000+00:00</time></trkpt><trkpt lat="63.84550858" lon="-18.75110626"><ele>580.9</ele><time>2012-07-25T13:37:12.0000000+00:00</time></trkpt><trkpt lat="63.8454361" lon="-18.75124168"><ele>581.4</ele><time>2012-07-25T13:37:17.0000000+00:00</time></trkpt><trkpt lat="63.8453598" lon="-18.75134659"><ele>581.8</ele><time>2012-07-25T13:37:22.0000000+00:00</time></trkpt><trkpt lat="63.84527969" lon="-18.7514267"><ele>582.8</ele><time>2012-07-25T13:37:27.0000000+00:00</time></trkpt><trkpt lat="63.84519959" lon="-18.75148583"><ele>583.2</ele><time>2012-07-25T13:37:32.0000000+00:00</time></trkpt><trkpt lat="63.8451004" lon="-18.75155449"><ele>584.6</ele><time>2012-07-25T13:37:37.0000000+00:00</time></trkpt><trkpt lat="63.84502029" lon="-18.75157166"><ele>585.1</ele><time>2012-07-25T13:37:42.0000000+00:00</time></trkpt><trkpt lat="63.84494019" lon="-18.75156975"><ele>585.5</ele><time>2012-07-25T13:37:47.0000000+00:00</time></trkpt><trkpt lat="63.84490585" lon="-18.7515564"><ele>586.0</ele><time>2012-07-25T13:37:52.0000000+00:00</time></trkpt><trkpt lat="63.84484482" lon="-18.75156212"><ele>585.4</ele><time>2012-07-25T13:37:57.0000000+00:00</time></trkpt><trkpt lat="63.8447609" lon="-18.75156784"><ele>585.2</ele><time>2012-07-25T13:38:02.0000000+00:00</time></trkpt><trkpt lat="63.84468079" lon="-18.75157929"><ele>585.7</ele><time>2012-07-25T13:38:07.0000000+00:00</time></trkpt><trkpt lat="63.84461212" lon="-18.75160217"><ele>587.1</ele><time>2012-07-25T13:38:12.0000000+00:00</time></trkpt><trkpt lat="63.84453964" lon="-18.75163269"><ele>588.2</ele><time>2012-07-25T13:38:17.0000000+00:00</time></trkpt><trkpt lat="63.84445953" lon="-18.75169373"><ele>589.3</ele><time>2012-07-25T13:38:22.0000000+00:00</time></trkpt><trkpt lat="63.84439087" lon="-18.75174904"><ele>590.4</ele><time>2012-07-25T13:38:27.0000000+00:00</time></trkpt><trkpt lat="63.84431458" lon="-18.75179482"><ele>591.2</ele><time>2012-07-25T13:38:32.0000000+00:00</time></trkpt><trkpt lat="63.84424973" lon="-18.75184059"><ele>591.7</ele><time>2012-07-25T13:38:37.0000000+00:00</time></trkpt><trkpt lat="63.84418106" lon="-18.75192642"><ele>592.3</ele><time>2012-07-25T13:38:42.0000000+00:00</time></trkpt><trkpt lat="63.84410095" lon="-18.75198746"><ele>592.7</ele><time>2012-07-25T13:38:47.0000000+00:00</time></trkpt><trkpt lat="63.84402847" lon="-18.75202179"><ele>592.8</ele><time>2012-07-25T13:38:52.0000000+00:00</time></trkpt><trkpt lat="63.84395218" lon="-18.75203514"><ele>593.6</ele><time>2012-07-25T13:38:57.0000000+00:00</time></trkpt><trkpt lat="63.84388733" lon="-18.75204659"><ele>594.3</ele><time>2012-07-25T13:39:02.0000000+00:00</time></trkpt><trkpt lat="63.84381485" lon="-18.75205803"><ele>595.7</ele><time>2012-07-25T13:39:07.0000000+00:00</time></trkpt><trkpt lat="63.84373474" lon="-18.75205421"><ele>595.8</ele><time>2012-07-25T13:39:12.0000000+00:00</time></trkpt><trkpt lat="63.84366608" lon="-18.75204849"><ele>597.1</ele><time>2012-07-25T13:39:17.0000000+00:00</time></trkpt><trkpt lat="63.84357834" lon="-18.75206947"><ele>597.7</ele><time>2012-07-25T13:39:22.0000000+00:00</time></trkpt><trkpt lat="63.84347534" lon="-18.75209236"><ele>597.9</ele><time>2012-07-25T13:39:27.0000000+00:00</time></trkpt><trkpt lat="63.84338379" lon="-18.75212097"><ele>598.7</ele><time>2012-07-25T13:39:32.0000000+00:00</time></trkpt><trkpt lat="63.84332275" lon="-18.75214386"><ele>599.0</ele><time>2012-07-25T13:39:37.0000000+00:00</time></trkpt><trkpt lat="63.84331513" lon="-18.7521534"><ele>599.9</ele><time>2012-07-25T13:39:42.0000000+00:00</time></trkpt><trkpt lat="63.84331513" lon="-18.75215149"><ele>599.9</ele><time>2012-07-25T13:39:47.0000000+00:00</time></trkpt><trkpt lat="63.84331513" lon="-18.75215149"><ele>599.9</ele><time>2012-07-25T13:39:52.0000000+00:00</time></trkpt><trkpt lat="63.84331513" lon="-18.75215149"><ele>599.9</ele><time>2012-07-25T13:39:57.0000000+00:00</time></trkpt><trkpt lat="63.84331513" lon="-18.75215149"><ele>599.9</ele><time>2012-07-25T13:40:02.0000000+00:00</time></trkpt><trkpt lat="63.84331513" lon="-18.75215149"><ele>599.9</ele><time>2012-07-25T13:40:07.0000000+00:00</time></trkpt><trkpt lat="63.84331513" lon="-18.75215149"><ele>599.9</ele><time>2012-07-25T13:40:12.0000000+00:00</time></trkpt><trkpt lat="63.84331513" lon="-18.75215149"><ele>599.9</ele><time>2012-07-25T13:40:17.0000000+00:00</time></trkpt><trkpt lat="63.84331513" lon="-18.75215149"><ele>599.9</ele><time>2012-07-25T13:40:22.0000000+00:00</time></trkpt><trkpt lat="63.84331513" lon="-18.75215149"><ele>599.9</ele><time>2012-07-25T13:40:27.0000000+00:00</time></trkpt><trkpt lat="63.84331513" lon="-18.75214577"><ele>599.9</ele><time>2012-07-25T13:40:32.0000000+00:00</time></trkpt><trkpt lat="63.84331513" lon="-18.75214577"><ele>599.9</ele><time>2012-07-25T13:40:37.0000000+00:00</time></trkpt><trkpt lat="63.84331513" lon="-18.75214768"><ele>599.9</ele><time>2012-07-25T13:40:42.0000000+00:00</time></trkpt><trkpt lat="63.84331513" lon="-18.75214577"><ele>599.9</ele><time>2012-07-25T13:40:47.0000000+00:00</time></trkpt><trkpt lat="63.84331513" lon="-18.75214577"><ele>599.9</ele><time>2012-07-25T13:40:52.0000000+00:00</time></trkpt><trkpt lat="63.84331513" lon="-18.75214577"><ele>599.9</ele><time>2012-07-25T13:40:57.0000000+00:00</time></trkpt><trkpt lat="63.84331513" lon="-18.75214005"><ele>599.6</ele><time>2012-07-25T13:41:02.0000000+00:00</time></trkpt><trkpt lat="63.84331513" lon="-18.75213814"><ele>599.6</ele><time>2012-07-25T13:41:07.0000000+00:00</time></trkpt><trkpt lat="63.84331513" lon="-18.75213814"><ele>599.6</ele><time>2012-07-25T13:41:12.0000000+00:00</time></trkpt><trkpt lat="63.84331513" lon="-18.75213814"><ele>599.6</ele><time>2012-07-25T13:41:17.0000000+00:00</time></trkpt><trkpt lat="63.84331513" lon="-18.75213814"><ele>599.6</ele><time>2012-07-25T13:41:22.0000000+00:00</time></trkpt><trkpt lat="63.84331513" lon="-18.75213814"><ele>599.6</ele><time>2012-07-25T13:41:27.0000000+00:00</time></trkpt><trkpt lat="63.84331513" lon="-18.75213814"><ele>599.6</ele><time>2012-07-25T13:41:32.0000000+00:00</time></trkpt><trkpt lat="63.84331513" lon="-18.75213814"><ele>599.6</ele><time>2012-07-25T13:41:37.0000000+00:00</time></trkpt><trkpt lat="63.84331513" lon="-18.75213814"><ele>599.6</ele><time>2012-07-25T13:41:42.0000000+00:00</time></trkpt><trkpt lat="63.84331513" lon="-18.75214005"><ele>599.5</ele><time>2012-07-25T13:41:47.0000000+00:00</time></trkpt><trkpt lat="63.84331513" lon="-18.75214005"><ele>599.5</ele><time>2012-07-25T13:41:52.0000000+00:00</time></trkpt><trkpt lat="63.84330368" lon="-18.7521534"><ele>599.4</ele><time>2012-07-25T13:41:57.0000000+00:00</time></trkpt><trkpt lat="63.84324265" lon="-18.75219917"><ele>598.4</ele><time>2012-07-25T13:42:02.0000000+00:00</time></trkpt><trkpt lat="63.84324265" lon="-18.75221634"><ele>599.4</ele><time>2012-07-25T13:42:07.0000000+00:00</time></trkpt><trkpt lat="63.84324265" lon="-18.75221443"><ele>599.3</ele><time>2012-07-25T13:42:12.0000000+00:00</time></trkpt><trkpt lat="63.84324265" lon="-18.75221252"><ele>599.3</ele><time>2012-07-25T13:42:17.0000000+00:00</time></trkpt><trkpt lat="63.84324265" lon="-18.75221443"><ele>599.3</ele><time>2012-07-25T13:42:22.0000000+00:00</time></trkpt><trkpt lat="63.84324265" lon="-18.75221443"><ele>599.3</ele><time>2012-07-25T13:42:27.0000000+00:00</time></trkpt><trkpt lat="63.84324265" lon="-18.75221443"><ele>599.3</ele><time>2012-07-25T13:42:32.0000000+00:00</time></trkpt><trkpt lat="63.84324265" lon="-18.75221443"><ele>599.3</ele><time>2012-07-25T13:42:37.0000000+00:00</time></trkpt><trkpt lat="63.84324265" lon="-18.75221443"><ele>599.3</ele><time>2012-07-25T13:42:42.0000000+00:00</time></trkpt><trkpt lat="63.84324265" lon="-18.75221443"><ele>599.3</ele><time>2012-07-25T13:42:47.0000000+00:00</time></trkpt><trkpt lat="63.84324265" lon="-18.75221443"><ele>599.3</ele><time>2012-07-25T13:42:52.0000000+00:00</time></trkpt><trkpt lat="63.84324265" lon="-18.75221443"><ele>599.3</ele><time>2012-07-25T13:42:57.0000000+00:00</time></trkpt><trkpt lat="63.84324265" lon="-18.75221443"><ele>599.3</ele><time>2012-07-25T13:43:02.0000000+00:00</time></trkpt><trkpt lat="63.84324265" lon="-18.75221443"><ele>599.3</ele><time>2012-07-25T13:43:07.0000000+00:00</time></trkpt><trkpt lat="63.84324265" lon="-18.75221443"><ele>599.3</ele><time>2012-07-25T13:43:12.0000000+00:00</time></trkpt><trkpt lat="63.84324265" lon="-18.75221443"><ele>599.3</ele><time>2012-07-25T13:43:17.0000000+00:00</time></trkpt><trkpt lat="63.84324265" lon="-18.75221443"><ele>599.3</ele><time>2012-07-25T13:43:22.0000000+00:00</time></trkpt><trkpt lat="63.84324265" lon="-18.75221634"><ele>599.4</ele><time>2012-07-25T13:43:27.0000000+00:00</time></trkpt><trkpt lat="63.84324265" lon="-18.75221634"><ele>599.4</ele><time>2012-07-25T13:43:32.0000000+00:00</time></trkpt><trkpt lat="63.84324265" lon="-18.75221634"><ele>599.5</ele><time>2012-07-25T13:43:37.0000000+00:00</time></trkpt><trkpt lat="63.84324265" lon="-18.75221825"><ele>599.5</ele><time>2012-07-25T13:43:42.0000000+00:00</time></trkpt><trkpt lat="63.84324265" lon="-18.75221825"><ele>599.5</ele><time>2012-07-25T13:43:47.0000000+00:00</time></trkpt><trkpt lat="63.84324265" lon="-18.75221825"><ele>599.5</ele><time>2012-07-25T13:43:52.0000000+00:00</time></trkpt><trkpt lat="63.84324265" lon="-18.75221825"><ele>599.5</ele><time>2012-07-25T13:43:57.0000000+00:00</time></trkpt><trkpt lat="63.84324265" lon="-18.75222015"><ele>599.5</ele><time>2012-07-25T13:44:02.0000000+00:00</time></trkpt><trkpt lat="63.84324265" lon="-18.75222015"><ele>599.5</ele><time>2012-07-25T13:44:07.0000000+00:00</time></trkpt><trkpt lat="63.84324265" lon="-18.75222015"><ele>599.5</ele><time>2012-07-25T13:44:12.0000000+00:00</time></trkpt><trkpt lat="63.84324265" lon="-18.75222206"><ele>599.5</ele><time>2012-07-25T13:44:17.0000000+00:00</time></trkpt><trkpt lat="63.84324265" lon="-18.75222206"><ele>599.5</ele><time>2012-07-25T13:44:22.0000000+00:00</time></trkpt><trkpt lat="63.84324646" lon="-18.75222397"><ele>599.5</ele><time>2012-07-25T13:44:27.0000000+00:00</time></trkpt><trkpt lat="63.84324646" lon="-18.75222397"><ele>599.5</ele><time>2012-07-25T13:44:32.0000000+00:00</time></trkpt><trkpt lat="63.84324646" lon="-18.75222397"><ele>599.5</ele><time>2012-07-25T13:44:37.0000000+00:00</time></trkpt><trkpt lat="63.84324646" lon="-18.75222397"><ele>599.5</ele><time>2012-07-25T13:44:42.0000000+00:00</time></trkpt><trkpt lat="63.84325028" lon="-18.7522316"><ele>599.5</ele><time>2012-07-25T13:44:47.0000000+00:00</time></trkpt><trkpt lat="63.84325028" lon="-18.75223351"><ele>599.7</ele><time>2012-07-25T13:44:52.0000000+00:00</time></trkpt><trkpt lat="63.84325409" lon="-18.7522316"><ele>599.7</ele><time>2012-07-25T13:44:57.0000000+00:00</time></trkpt><trkpt lat="63.84323502" lon="-18.75225067"><ele>599.8</ele><time>2012-07-25T13:45:02.0000000+00:00</time></trkpt><trkpt lat="63.84311676" lon="-18.75231552"><ele>599.8</ele><time>2012-07-25T13:45:07.0000000+00:00</time></trkpt><trkpt lat="63.84293366" lon="-18.75239182"><ele>598.5</ele><time>2012-07-25T13:45:12.0000000+00:00</time></trkpt><trkpt lat="63.84270477" lon="-18.75245476"><ele>597.8</ele><time>2012-07-25T13:45:17.0000000+00:00</time></trkpt><trkpt lat="63.84247971" lon="-18.75248718"><ele>597.0</ele><time>2012-07-25T13:45:22.0000000+00:00</time></trkpt><trkpt lat="63.84228134" lon="-18.75244522"><ele>596.3</ele><time>2012-07-25T13:45:27.0000000+00:00</time></trkpt><trkpt lat="63.84209442" lon="-18.75238609"><ele>596.8</ele><time>2012-07-25T13:45:32.0000000+00:00</time></trkpt><trkpt lat="63.84193802" lon="-18.75216484"><ele>594.3</ele><time>2012-07-25T13:45:37.0000000+00:00</time></trkpt><trkpt lat="63.84182739" lon="-18.75179672"><ele>593.3</ele><time>2012-07-25T13:45:42.0000000+00:00</time></trkpt><trkpt lat="63.84173584" lon="-18.75148201"><ele>593.3</ele><time>2012-07-25T13:45:47.0000000+00:00</time></trkpt><trkpt lat="63.84157944" lon="-18.75139618"><ele>591.5</ele><time>2012-07-25T13:45:52.0000000+00:00</time></trkpt><trkpt lat="63.84138107" lon="-18.75137711"><ele>588.7</ele><time>2012-07-25T13:45:57.0000000+00:00</time></trkpt><trkpt lat="63.84119034" lon="-18.75117302"><ele>587.6</ele><time>2012-07-25T13:46:02.0000000+00:00</time></trkpt><trkpt lat="63.84106064" lon="-18.75089645"><ele>586.7</ele><time>2012-07-25T13:46:07.0000000+00:00</time></trkpt><trkpt lat="63.84092331" lon="-18.7507"><ele>585.1</ele><time>2012-07-25T13:46:12.0000000+00:00</time></trkpt><trkpt lat="63.84082794" lon="-18.75066948"><ele>583.5</ele><time>2012-07-25T13:46:17.0000000+00:00</time></trkpt><trkpt lat="63.84067535" lon="-18.75065422"><ele>581.3</ele><time>2012-07-25T13:46:22.0000000+00:00</time></trkpt><trkpt lat="63.84049225" lon="-18.75064087"><ele>578.7</ele><time>2012-07-25T13:46:27.0000000+00:00</time></trkpt><trkpt lat="63.84030533" lon="-18.75059128"><ele>574.8</ele><time>2012-07-25T13:46:32.0000000+00:00</time></trkpt><trkpt lat="63.84012604" lon="-18.75057411"><ele>571.2</ele><time>2012-07-25T13:46:37.0000000+00:00</time></trkpt><trkpt lat="63.83989716" lon="-18.75052834"><ele>566.4</ele><time>2012-07-25T13:46:42.0000000+00:00</time></trkpt><trkpt lat="63.83956909" lon="-18.75058937"><ele>565.6</ele><time>2012-07-25T13:46:47.0000000+00:00</time></trkpt><trkpt lat="63.83928299" lon="-18.75086021"><ele>564.6</ele><time>2012-07-25T13:46:52.0000000+00:00</time></trkpt><trkpt lat="63.83906937" lon="-18.75082016"><ele>565.0</ele><time>2012-07-25T13:46:57.0000000+00:00</time></trkpt><trkpt lat="63.83890533" lon="-18.75078011"><ele>564.9</ele><time>2012-07-25T13:47:02.0000000+00:00</time></trkpt><trkpt lat="63.83872604" lon="-18.75076485"><ele>564.4</ele><time>2012-07-25T13:47:07.0000000+00:00</time></trkpt><trkpt lat="63.83844376" lon="-18.75068665"><ele>561.5</ele><time>2012-07-25T13:47:12.0000000+00:00</time></trkpt><trkpt lat="63.83813095" lon="-18.75048828"><ele>560.0</ele><time>2012-07-25T13:47:17.0000000+00:00</time></trkpt><trkpt lat="63.83786011" lon="-18.75020027"><ele>558.3</ele><time>2012-07-25T13:47:22.0000000+00:00</time></trkpt><trkpt lat="63.83766174" lon="-18.74991226"><ele>558.0</ele><time>2012-07-25T13:47:27.0000000+00:00</time></trkpt><trkpt lat="63.83750153" lon="-18.7496891"><ele>558.0</ele><time>2012-07-25T13:47:32.0000000+00:00</time></trkpt><trkpt lat="63.83740616" lon="-18.74954605"><ele>558.2</ele><time>2012-07-25T13:47:37.0000000+00:00</time></trkpt><trkpt lat="63.83731079" lon="-18.74932671"><ele>558.7</ele><time>2012-07-25T13:47:42.0000000+00:00</time></trkpt><trkpt lat="63.8372345" lon="-18.74912643"><ele>558.3</ele><time>2012-07-25T13:47:47.0000000+00:00</time></trkpt><trkpt lat="63.83714676" lon="-18.748909"><ele>557.7</ele><time>2012-07-25T13:47:52.0000000+00:00</time></trkpt><trkpt lat="63.83704758" lon="-18.74864197"><ele>557.4</ele><time>2012-07-25T13:47:57.0000000+00:00</time></trkpt><trkpt lat="63.83692932" lon="-18.74830055"><ele>556.4</ele><time>2012-07-25T13:48:02.0000000+00:00</time></trkpt><trkpt lat="63.83679581" lon="-18.74791336"><ele>555.0</ele><time>2012-07-25T13:48:07.0000000+00:00</time></trkpt><trkpt lat="63.83657837" lon="-18.74762535"><ele>554.4</ele><time>2012-07-25T13:48:12.0000000+00:00</time></trkpt><trkpt lat="63.83623123" lon="-18.7477417"><ele>550.9</ele><time>2012-07-25T13:48:17.0000000+00:00</time></trkpt><trkpt lat="63.83589172" lon="-18.7479229"><ele>552.2</ele><time>2012-07-25T13:48:22.0000000+00:00</time></trkpt><trkpt lat="63.83577347" lon="-18.74795342"><ele>551.1</ele><time>2012-07-25T13:48:27.0000000+00:00</time></trkpt><trkpt lat="63.83563614" lon="-18.74800682"><ele>550.5</ele><time>2012-07-25T13:48:32.0000000+00:00</time></trkpt><trkpt lat="63.83546829" lon="-18.74807167"><ele>550.5</ele><time>2012-07-25T13:48:37.0000000+00:00</time></trkpt><trkpt lat="63.83531189" lon="-18.74809647"><ele>551.2</ele><time>2012-07-25T13:48:42.0000000+00:00</time></trkpt><trkpt lat="63.83521652" lon="-18.74806976"><ele>551.5</ele><time>2012-07-25T13:48:47.0000000+00:00</time></trkpt><trkpt lat="63.83512497" lon="-18.74807739"><ele>552.1</ele><time>2012-07-25T13:48:52.0000000+00:00</time></trkpt><trkpt lat="63.83507156" lon="-18.74810028"><ele>552.5</ele><time>2012-07-25T13:48:57.0000000+00:00</time></trkpt><trkpt lat="63.83505631" lon="-18.74811363"><ele>553.0</ele><time>2012-07-25T13:49:02.0000000+00:00</time></trkpt><trkpt lat="63.83501434" lon="-18.748106"><ele>554.6</ele><time>2012-07-25T13:49:07.0000000+00:00</time></trkpt><trkpt lat="63.83496475" lon="-18.74810791"><ele>556.5</ele><time>2012-07-25T13:49:12.0000000+00:00</time></trkpt><trkpt lat="63.83492279" lon="-18.74811363"><ele>557.3</ele><time>2012-07-25T13:49:17.0000000+00:00</time></trkpt><trkpt lat="63.83488846" lon="-18.74812889"><ele>559.6</ele><time>2012-07-25T13:49:22.0000000+00:00</time></trkpt><trkpt lat="63.83486176" lon="-18.74819756"><ele>559.5</ele><time>2012-07-25T13:49:27.0000000+00:00</time></trkpt><trkpt lat="63.83482742" lon="-18.74819756"><ele>560.7</ele><time>2012-07-25T13:49:32.0000000+00:00</time></trkpt><trkpt lat="63.83478928" lon="-18.74819565"><ele>561.8</ele><time>2012-07-25T13:49:37.0000000+00:00</time></trkpt><trkpt lat="63.83475494" lon="-18.74821663"><ele>562.8</ele><time>2012-07-25T13:49:42.0000000+00:00</time></trkpt><trkpt lat="63.83472443" lon="-18.74823189"><ele>563.5</ele><time>2012-07-25T13:49:47.0000000+00:00</time></trkpt><trkpt lat="63.83468247" lon="-18.74824905"><ele>564.1</ele><time>2012-07-25T13:49:52.0000000+00:00</time></trkpt><trkpt lat="63.83464813" lon="-18.74826813"><ele>564.7</ele><time>2012-07-25T13:49:57.0000000+00:00</time></trkpt><trkpt lat="63.83462524" lon="-18.7483139"><ele>564.9</ele><time>2012-07-25T13:50:02.0000000+00:00</time></trkpt><trkpt lat="63.83458328" lon="-18.74835014"><ele>565.6</ele><time>2012-07-25T13:50:07.0000000+00:00</time></trkpt><trkpt lat="63.83454514" lon="-18.7483654"><ele>566.5</ele><time>2012-07-25T13:50:12.0000000+00:00</time></trkpt><trkpt lat="63.8345108" lon="-18.74834442"><ele>566.5</ele><time>2012-07-25T13:50:17.0000000+00:00</time></trkpt><trkpt lat="63.83446503" lon="-18.74837875"><ele>567.0</ele><time>2012-07-25T13:50:22.0000000+00:00</time></trkpt><trkpt lat="63.83443832" lon="-18.74842262"><ele>567.1</ele><time>2012-07-25T13:50:27.0000000+00:00</time></trkpt><trkpt lat="63.83440018" lon="-18.74841881"><ele>566.9</ele><time>2012-07-25T13:50:32.0000000+00:00</time></trkpt><trkpt lat="63.8343544" lon="-18.7484169"><ele>567.7</ele><time>2012-07-25T13:50:37.0000000+00:00</time></trkpt><trkpt lat="63.83432007" lon="-18.74840546"><ele>567.8</ele><time>2012-07-25T13:50:42.0000000+00:00</time></trkpt><trkpt lat="63.83428574" lon="-18.74839973"><ele>568.4</ele><time>2012-07-25T13:50:47.0000000+00:00</time></trkpt><trkpt lat="63.83423615" lon="-18.74836159"><ele>569.8</ele><time>2012-07-25T13:50:52.0000000+00:00</time></trkpt><trkpt lat="63.83419418" lon="-18.74834633"><ele>569.9</ele><time>2012-07-25T13:50:57.0000000+00:00</time></trkpt><trkpt lat="63.83415985" lon="-18.74831772"><ele>569.6</ele><time>2012-07-25T13:51:02.0000000+00:00</time></trkpt><trkpt lat="63.83411026" lon="-18.74828529"><ele>570.0</ele><time>2012-07-25T13:51:07.0000000+00:00</time></trkpt><trkpt lat="63.83405304" lon="-18.74829865"><ele>571.3</ele><time>2012-07-25T13:51:12.0000000+00:00</time></trkpt><trkpt lat="63.83401489" lon="-18.74831963"><ele>571.7</ele><time>2012-07-25T13:51:17.0000000+00:00</time></trkpt><trkpt lat="63.83398056" lon="-18.74835587"><ele>572.3</ele><time>2012-07-25T13:51:22.0000000+00:00</time></trkpt><trkpt lat="63.83394623" lon="-18.74840546"><ele>572.5</ele><time>2012-07-25T13:51:27.0000000+00:00</time></trkpt><trkpt lat="63.8339119" lon="-18.74848747"><ele>573.3</ele><time>2012-07-25T13:51:32.0000000+00:00</time></trkpt><trkpt lat="63.83388138" lon="-18.74856377"><ele>573.7</ele><time>2012-07-25T13:51:37.0000000+00:00</time></trkpt><trkpt lat="63.83386993" lon="-18.74860191"><ele>573.5</ele><time>2012-07-25T13:51:42.0000000+00:00</time></trkpt><trkpt lat="63.83387375" lon="-18.7485981"><ele>573.9</ele><time>2012-07-25T13:51:47.0000000+00:00</time></trkpt><trkpt lat="63.83387375" lon="-18.7485981"><ele>573.9</ele><time>2012-07-25T13:51:52.0000000+00:00</time></trkpt><trkpt lat="63.83387375" lon="-18.7485981"><ele>573.9</ele><time>2012-07-25T13:51:57.0000000+00:00</time></trkpt><trkpt lat="63.83387375" lon="-18.7485981"><ele>573.9</ele><time>2012-07-25T13:52:02.0000000+00:00</time></trkpt><trkpt lat="63.83386993" lon="-18.74862099"><ele>574.5</ele><time>2012-07-25T13:52:07.0000000+00:00</time></trkpt><trkpt lat="63.83386612" lon="-18.74864197"><ele>574.3</ele><time>2012-07-25T13:52:12.0000000+00:00</time></trkpt><trkpt lat="63.83385086" lon="-18.74868393"><ele>573.9</ele><time>2012-07-25T13:52:17.0000000+00:00</time></trkpt><trkpt lat="63.83385468" lon="-18.74869156"><ele>574.0</ele><time>2012-07-25T13:52:22.0000000+00:00</time></trkpt><trkpt lat="63.83385468" lon="-18.74869347"><ele>573.9</ele><time>2012-07-25T13:52:27.0000000+00:00</time></trkpt><trkpt lat="63.83385468" lon="-18.74869156"><ele>574.0</ele><time>2012-07-25T13:52:32.0000000+00:00</time></trkpt><trkpt lat="63.83385468" lon="-18.74869347"><ele>574.0</ele><time>2012-07-25T13:52:37.0000000+00:00</time></trkpt><trkpt lat="63.83385468" lon="-18.74869347"><ele>574.0</ele><time>2012-07-25T13:52:42.0000000+00:00</time></trkpt><trkpt lat="63.83385468" lon="-18.74869347"><ele>573.9</ele><time>2012-07-25T13:52:47.0000000+00:00</time></trkpt><trkpt lat="63.83385468" lon="-18.74869347"><ele>573.9</ele><time>2012-07-25T13:52:52.0000000+00:00</time></trkpt><trkpt lat="63.83385468" lon="-18.74869347"><ele>573.9</ele><time>2012-07-25T13:52:57.0000000+00:00</time></trkpt><trkpt lat="63.83385468" lon="-18.74869347"><ele>573.9</ele><time>2012-07-25T13:53:02.0000000+00:00</time></trkpt><trkpt lat="63.83385468" lon="-18.74869347"><ele>573.9</ele><time>2012-07-25T13:53:07.0000000+00:00</time></trkpt><trkpt lat="63.83385468" lon="-18.74869347"><ele>573.9</ele><time>2012-07-25T13:53:12.0000000+00:00</time></trkpt><trkpt lat="63.83385468" lon="-18.74869347"><ele>573.9</ele><time>2012-07-25T13:53:17.0000000+00:00</time></trkpt><trkpt lat="63.83385468" lon="-18.74869347"><ele>573.9</ele><time>2012-07-25T13:53:22.0000000+00:00</time></trkpt><trkpt lat="63.83385468" lon="-18.74869347"><ele>573.9</ele><time>2012-07-25T13:53:27.0000000+00:00</time></trkpt><trkpt lat="63.83382797" lon="-18.74889374"><ele>572.4</ele><time>2012-07-25T13:53:32.0000000+00:00</time></trkpt><trkpt lat="63.83382797" lon="-18.74952126"><ele>568.8</ele><time>2012-07-25T13:53:37.0000000+00:00</time></trkpt><trkpt lat="63.83397293" lon="-18.75030708"><ele>567.0</ele><time>2012-07-25T13:53:42.0000000+00:00</time></trkpt><trkpt lat="63.83413315" lon="-18.75100899"><ele>566.5</ele><time>2012-07-25T13:53:47.0000000+00:00</time></trkpt><trkpt lat="63.8342514" lon="-18.75156021"><ele>567.3</ele><time>2012-07-25T13:53:52.0000000+00:00</time></trkpt><trkpt lat="63.83430481" lon="-18.75192642"><ele>567.5</ele><time>2012-07-25T13:53:57.0000000+00:00</time></trkpt><trkpt lat="63.83427811" lon="-18.75224686"><ele>566.3</ele><time>2012-07-25T13:54:02.0000000+00:00</time></trkpt><trkpt lat="63.83416748" lon="-18.75270081"><ele>564.8</ele><time>2012-07-25T13:54:07.0000000+00:00</time></trkpt><trkpt lat="63.83400345" lon="-18.75323486"><ele>563.3</ele><time>2012-07-25T13:54:12.0000000+00:00</time></trkpt><trkpt lat="63.83381271" lon="-18.75380516"><ele>561.3</ele><time>2012-07-25T13:54:17.0000000+00:00</time></trkpt><trkpt lat="63.83364868" lon="-18.75439644"><ele>562.2</ele><time>2012-07-25T13:54:22.0000000+00:00</time></trkpt><trkpt lat="63.83355331" lon="-18.75465965"><ele>563.3</ele><time>2012-07-25T13:54:27.0000000+00:00</time></trkpt><trkpt lat="63.83347321" lon="-18.7548008"><ele>564.5</ele><time>2012-07-25T13:54:32.0000000+00:00</time></trkpt><trkpt lat="63.83338547" lon="-18.75494576"><ele>565.3</ele><time>2012-07-25T13:54:37.0000000+00:00</time></trkpt><trkpt lat="63.83329773" lon="-18.75507546"><ele>567.7</ele><time>2012-07-25T13:54:42.0000000+00:00</time></trkpt><trkpt lat="63.83320999" lon="-18.75522614"><ele>569.0</ele><time>2012-07-25T13:54:47.0000000+00:00</time></trkpt><trkpt lat="63.8331337" lon="-18.75537491"><ele>569.6</ele><time>2012-07-25T13:54:52.0000000+00:00</time></trkpt><trkpt lat="63.83304977" lon="-18.75553131"><ele>570.3</ele><time>2012-07-25T13:54:57.0000000+00:00</time></trkpt><trkpt lat="63.83295822" lon="-18.75569725"><ele>571.3</ele><time>2012-07-25T13:55:02.0000000+00:00</time></trkpt><trkpt lat="63.83287811" lon="-18.75588226"><ele>571.8</ele><time>2012-07-25T13:55:07.0000000+00:00</time></trkpt><trkpt lat="63.83280563" lon="-18.75607491"><ele>570.9</ele><time>2012-07-25T13:55:12.0000000+00:00</time></trkpt><trkpt lat="63.8327179" lon="-18.75624466"><ele>570.6</ele><time>2012-07-25T13:55:17.0000000+00:00</time></trkpt><trkpt lat="63.83263016" lon="-18.75641251"><ele>569.9</ele><time>2012-07-25T13:55:22.0000000+00:00</time></trkpt><trkpt lat="63.8325119" lon="-18.75660896"><ele>569.8</ele><time>2012-07-25T13:55:27.0000000+00:00</time></trkpt><trkpt lat="63.83240891" lon="-18.75673103"><ele>568.0</ele><time>2012-07-25T13:55:32.0000000+00:00</time></trkpt><trkpt lat="63.83240509" lon="-18.75676155"><ele>567.9</ele><time>2012-07-25T13:55:37.0000000+00:00</time></trkpt><trkpt lat="63.83240509" lon="-18.75676346"><ele>567.9</ele><time>2012-07-25T13:55:42.0000000+00:00</time></trkpt><trkpt lat="63.83240509" lon="-18.75676346"><ele>567.9</ele><time>2012-07-25T13:55:47.0000000+00:00</time></trkpt><trkpt lat="63.83240509" lon="-18.75676537"><ele>567.9</ele><time>2012-07-25T13:55:52.0000000+00:00</time></trkpt><trkpt lat="63.83240128" lon="-18.75676537"><ele>567.9</ele><time>2012-07-25T13:55:57.0000000+00:00</time></trkpt><trkpt lat="63.83240128" lon="-18.75676537"><ele>567.9</ele><time>2012-07-25T13:56:02.0000000+00:00</time></trkpt><trkpt lat="63.83240128" lon="-18.75676537"><ele>567.9</ele><time>2012-07-25T13:56:07.0000000+00:00</time></trkpt><trkpt lat="63.83240128" lon="-18.75676537"><ele>567.9</ele><time>2012-07-25T13:56:12.0000000+00:00</time></trkpt><trkpt lat="63.83240509" lon="-18.75675583"><ele>568.1</ele><time>2012-07-25T13:56:17.0000000+00:00</time></trkpt><trkpt lat="63.83240509" lon="-18.75675583"><ele>568.1</ele><time>2012-07-25T13:56:22.0000000+00:00</time></trkpt><trkpt lat="63.83240509" lon="-18.75675583"><ele>568.1</ele><time>2012-07-25T13:56:27.0000000+00:00</time></trkpt><trkpt lat="63.83240509" lon="-18.75675583"><ele>568.0</ele><time>2012-07-25T13:56:32.0000000+00:00</time></trkpt><trkpt lat="63.8323288" lon="-18.7568531"><ele>567.7</ele><time>2012-07-25T13:56:37.0000000+00:00</time></trkpt><trkpt lat="63.83216858" lon="-18.75695992"><ele>566.0</ele><time>2012-07-25T13:56:42.0000000+00:00</time></trkpt><trkpt lat="63.83204269" lon="-18.75716209"><ele>562.9</ele><time>2012-07-25T13:56:47.0000000+00:00</time></trkpt><trkpt lat="63.83197022" lon="-18.7574482"><ele>560.4</ele><time>2012-07-25T13:56:52.0000000+00:00</time></trkpt><trkpt lat="63.83192825" lon="-18.75772858"><ele>558.5</ele><time>2012-07-25T13:56:57.0000000+00:00</time></trkpt><trkpt lat="63.83189774" lon="-18.75831795"><ele>555.2</ele><time>2012-07-25T13:57:02.0000000+00:00</time></trkpt><trkpt lat="63.83182526" lon="-18.75908089"><ele>549.1</ele><time>2012-07-25T13:57:07.0000000+00:00</time></trkpt><trkpt lat="63.83151245" lon="-18.75970841"><ele>545.4</ele><time>2012-07-25T13:57:12.0000000+00:00</time></trkpt><trkpt lat="63.83121872" lon="-18.75995064"><ele>544.4</ele><time>2012-07-25T13:57:17.0000000+00:00</time></trkpt><trkpt lat="63.83099365" lon="-18.76003265"><ele>546.4</ele><time>2012-07-25T13:57:22.0000000+00:00</time></trkpt><trkpt lat="63.83080673" lon="-18.76012993"><ele>545.5</ele><time>2012-07-25T13:57:27.0000000+00:00</time></trkpt><trkpt lat="63.83061218" lon="-18.76019287"><ele>545.3</ele><time>2012-07-25T13:57:32.0000000+00:00</time></trkpt><trkpt lat="63.83041" lon="-18.76024628"><ele>544.8</ele><time>2012-07-25T13:57:37.0000000+00:00</time></trkpt><trkpt lat="63.83023834" lon="-18.7603035"><ele>544.1</ele><time>2012-07-25T13:57:42.0000000+00:00</time></trkpt><trkpt lat="63.83006668" lon="-18.76037788"><ele>543.7</ele><time>2012-07-25T13:57:47.0000000+00:00</time></trkpt><trkpt lat="63.82985306" lon="-18.76041985"><ele>543.5</ele><time>2012-07-25T13:57:52.0000000+00:00</time></trkpt><trkpt lat="63.82965088" lon="-18.76039696"><ele>541.8</ele><time>2012-07-25T13:57:57.0000000+00:00</time></trkpt><trkpt lat="63.82944489" lon="-18.76032829"><ele>541.7</ele><time>2012-07-25T13:58:02.0000000+00:00</time></trkpt><trkpt lat="63.82927704" lon="-18.76031876"><ele>541.8</ele><time>2012-07-25T13:58:07.0000000+00:00</time></trkpt><trkpt lat="63.82910919" lon="-18.76045418"><ele>539.5</ele><time>2012-07-25T13:58:12.0000000+00:00</time></trkpt><trkpt lat="63.82886124" lon="-18.76084137"><ele>537.0</ele><time>2012-07-25T13:58:17.0000000+00:00</time></trkpt><trkpt lat="63.82855606" lon="-18.76140404"><ele>535.0</ele><time>2012-07-25T13:58:22.0000000+00:00</time></trkpt><trkpt lat="63.82830811" lon="-18.76198006"><ele>533.8</ele><time>2012-07-25T13:58:27.0000000+00:00</time></trkpt><trkpt lat="63.82811737" lon="-18.76255035"><ele>532.4</ele><time>2012-07-25T13:58:32.0000000+00:00</time></trkpt><trkpt lat="63.82797623" lon="-18.7631321"><ele>531.5</ele><time>2012-07-25T13:58:37.0000000+00:00</time></trkpt><trkpt lat="63.82788849" lon="-18.76367188"><ele>530.6</ele><time>2012-07-25T13:58:42.0000000+00:00</time></trkpt><trkpt lat="63.82781982" lon="-18.76420593"><ele>530.1</ele><time>2012-07-25T13:58:47.0000000+00:00</time></trkpt><trkpt lat="63.82776642" lon="-18.7647152"><ele>530.2</ele><time>2012-07-25T13:58:52.0000000+00:00</time></trkpt><trkpt lat="63.82773209" lon="-18.76507568"><ele>531.1</ele><time>2012-07-25T13:58:57.0000000+00:00</time></trkpt><trkpt lat="63.82771683" lon="-18.76525497"><ele>531.5</ele><time>2012-07-25T13:59:02.0000000+00:00</time></trkpt><trkpt lat="63.82770157" lon="-18.76537514"><ele>532.0</ele><time>2012-07-25T13:59:07.0000000+00:00</time></trkpt><trkpt lat="63.82769394" lon="-18.76558113"><ele>532.4</ele><time>2012-07-25T13:59:12.0000000+00:00</time></trkpt><trkpt lat="63.82767487" lon="-18.76577187"><ele>533.1</ele><time>2012-07-25T13:59:17.0000000+00:00</time></trkpt><trkpt lat="63.82766724" lon="-18.76589775"><ele>533.1</ele><time>2012-07-25T13:59:22.0000000+00:00</time></trkpt><trkpt lat="63.82765961" lon="-18.76600647"><ele>533.0</ele><time>2012-07-25T13:59:27.0000000+00:00</time></trkpt><trkpt lat="63.82763672" lon="-18.76617813"><ele>532.4</ele><time>2012-07-25T13:59:32.0000000+00:00</time></trkpt><trkpt lat="63.8276062" lon="-18.76643753"><ele>531.3</ele><time>2012-07-25T13:59:37.0000000+00:00</time></trkpt><trkpt lat="63.82756043" lon="-18.76687431"><ele>529.2</ele><time>2012-07-25T13:59:42.0000000+00:00</time></trkpt><trkpt lat="63.82746506" lon="-18.76739502"><ele>527.9</ele><time>2012-07-25T13:59:47.0000000+00:00</time></trkpt><trkpt lat="63.82736206" lon="-18.76787567"><ele>528.1</ele><time>2012-07-25T13:59:52.0000000+00:00</time></trkpt><trkpt lat="63.82725525" lon="-18.76830101"><ele>526.6</ele><time>2012-07-25T13:59:57.0000000+00:00</time></trkpt><trkpt lat="63.82713699" lon="-18.76874161"><ele>523.3</ele><time>2012-07-25T14:00:02.0000000+00:00</time></trkpt><trkpt lat="63.82701492" lon="-18.76917076"><ele>520.6</ele><time>2012-07-25T14:00:07.0000000+00:00</time></trkpt><trkpt lat="63.82692719" lon="-18.76955223"><ele>518.0</ele><time>2012-07-25T14:00:12.0000000+00:00</time></trkpt><trkpt lat="63.82684708" lon="-18.76996613"><ele>514.8</ele><time>2012-07-25T14:00:17.0000000+00:00</time></trkpt><trkpt lat="63.82681274" lon="-18.77034569"><ele>512.4</ele><time>2012-07-25T14:00:22.0000000+00:00</time></trkpt><trkpt lat="63.82679749" lon="-18.77053833"><ele>511.0</ele><time>2012-07-25T14:00:27.0000000+00:00</time></trkpt><trkpt lat="63.82682419" lon="-18.77057648"><ele>512.9</ele><time>2012-07-25T14:00:32.0000000+00:00</time></trkpt><trkpt lat="63.826828" lon="-18.77058792"><ele>513.8</ele><time>2012-07-25T14:00:37.0000000+00:00</time></trkpt><trkpt lat="63.82682419" lon="-18.77058983"><ele>513.9</ele><time>2012-07-25T14:00:42.0000000+00:00</time></trkpt><trkpt lat="63.826828" lon="-18.77059174"><ele>513.9</ele><time>2012-07-25T14:00:47.0000000+00:00</time></trkpt><trkpt lat="63.826828" lon="-18.77059174"><ele>513.9</ele><time>2012-07-25T14:00:52.0000000+00:00</time></trkpt><trkpt lat="63.82682419" lon="-18.77059174"><ele>514.0</ele><time>2012-07-25T14:00:57.0000000+00:00</time></trkpt><trkpt lat="63.82682419" lon="-18.77059746"><ele>514.1</ele><time>2012-07-25T14:01:02.0000000+00:00</time></trkpt><trkpt lat="63.826828" lon="-18.77058983"><ele>514.1</ele><time>2012-07-25T14:01:07.0000000+00:00</time></trkpt><trkpt lat="63.826828" lon="-18.77058029"><ele>514.3</ele><time>2012-07-25T14:01:12.0000000+00:00</time></trkpt><trkpt lat="63.82683182" lon="-18.77057266"><ele>513.7</ele><time>2012-07-25T14:01:17.0000000+00:00</time></trkpt><trkpt lat="63.82683563" lon="-18.77057076"><ele>513.6</ele><time>2012-07-25T14:01:22.0000000+00:00</time></trkpt><trkpt lat="63.82683945" lon="-18.77057838"><ele>513.6</ele><time>2012-07-25T14:01:27.0000000+00:00</time></trkpt><trkpt lat="63.82686234" lon="-18.77057457"><ele>513.0</ele><time>2012-07-25T14:01:32.0000000+00:00</time></trkpt><trkpt lat="63.82686615" lon="-18.77056885"><ele>512.7</ele><time>2012-07-25T14:01:37.0000000+00:00</time></trkpt><trkpt lat="63.82687759" lon="-18.77058792"><ele>512.5</ele><time>2012-07-25T14:01:42.0000000+00:00</time></trkpt><trkpt lat="63.82686997" lon="-18.77060127"><ele>512.3</ele><time>2012-07-25T14:01:47.0000000+00:00</time></trkpt><trkpt lat="63.82686997" lon="-18.77060318"><ele>512.4</ele><time>2012-07-25T14:01:52.0000000+00:00</time></trkpt><trkpt lat="63.82687759" lon="-18.77059937"><ele>512.5</ele><time>2012-07-25T14:01:57.0000000+00:00</time></trkpt><trkpt lat="63.82688522" lon="-18.77059937"><ele>512.6</ele><time>2012-07-25T14:02:02.0000000+00:00</time></trkpt><trkpt lat="63.82688141" lon="-18.77059174"><ele>512.7</ele><time>2012-07-25T14:02:07.0000000+00:00</time></trkpt><trkpt lat="63.82686997" lon="-18.77058601"><ele>513.0</ele><time>2012-07-25T14:02:12.0000000+00:00</time></trkpt><trkpt lat="63.82684326" lon="-18.77062225"><ele>513.9</ele><time>2012-07-25T14:02:17.0000000+00:00</time></trkpt><trkpt lat="63.82684326" lon="-18.77067184"><ele>514.4</ele><time>2012-07-25T14:02:22.0000000+00:00</time></trkpt><trkpt lat="63.82684326" lon="-18.77067375"><ele>514.6</ele><time>2012-07-25T14:02:27.0000000+00:00</time></trkpt><trkpt lat="63.82684708" lon="-18.77070427"><ele>514.3</ele><time>2012-07-25T14:02:32.0000000+00:00</time></trkpt><trkpt lat="63.82687759" lon="-18.77077866"><ele>515.3</ele><time>2012-07-25T14:02:37.0000000+00:00</time></trkpt><trkpt lat="63.8269043" lon="-18.77083588"><ele>513.8</ele><time>2012-07-25T14:02:42.0000000+00:00</time></trkpt><trkpt lat="63.82692719" lon="-18.77090645"><ele>513.8</ele><time>2012-07-25T14:02:47.0000000+00:00</time></trkpt><trkpt lat="63.82694244" lon="-18.77094078"><ele>515.1</ele><time>2012-07-25T14:02:52.0000000+00:00</time></trkpt><trkpt lat="63.82693863" lon="-18.77097893"><ele>514.3</ele><time>2012-07-25T14:02:57.0000000+00:00</time></trkpt><trkpt lat="63.82696152" lon="-18.7710247"><ele>514.4</ele><time>2012-07-25T14:03:02.0000000+00:00</time></trkpt><trkpt lat="63.82699966" lon="-18.77104759"><ele>513.7</ele><time>2012-07-25T14:03:07.0000000+00:00</time></trkpt><trkpt lat="63.82705307" lon="-18.77103615"><ele>514.8</ele><time>2012-07-25T14:03:12.0000000+00:00</time></trkpt><trkpt lat="63.82709122" lon="-18.77105331"><ele>510.8</ele><time>2012-07-25T14:03:17.0000000+00:00</time></trkpt><trkpt lat="63.82710266" lon="-18.77105522"><ele>510.2</ele><time>2012-07-25T14:03:22.0000000+00:00</time></trkpt><trkpt lat="63.82711029" lon="-18.7710495"><ele>510.8</ele><time>2012-07-25T14:03:27.0000000+00:00</time></trkpt><trkpt lat="63.82715988" lon="-18.77106094"><ele>512.6</ele><time>2012-07-25T14:03:32.0000000+00:00</time></trkpt><trkpt lat="63.82720184" lon="-18.77108002"><ele>512.5</ele><time>2012-07-25T14:03:37.0000000+00:00</time></trkpt><trkpt lat="63.82721329" lon="-18.77116776"><ele>513.7</ele><time>2012-07-25T14:03:42.0000000+00:00</time></trkpt><trkpt lat="63.82720566" lon="-18.77126312"><ele>513.7</ele><time>2012-07-25T14:03:47.0000000+00:00</time></trkpt><trkpt lat="63.82719421" lon="-18.77136993"><ele>515.3</ele><time>2012-07-25T14:03:52.0000000+00:00</time></trkpt><trkpt lat="63.82718658" lon="-18.771492"><ele>516.4</ele><time>2012-07-25T14:03:57.0000000+00:00</time></trkpt><trkpt lat="63.82717896" lon="-18.77158165"><ele>517.3</ele><time>2012-07-25T14:04:02.0000000+00:00</time></trkpt><trkpt lat="63.82715607" lon="-18.7716198"><ele>519.3</ele><time>2012-07-25T14:04:07.0000000+00:00</time></trkpt><trkpt lat="63.82713318" lon="-18.77166939"><ele>521.5</ele><time>2012-07-25T14:04:12.0000000+00:00</time></trkpt><trkpt lat="63.82712555" lon="-18.77172279"><ele>523.7</ele><time>2012-07-25T14:04:17.0000000+00:00</time></trkpt><trkpt lat="63.82711411" lon="-18.77178383"><ele>525.5</ele><time>2012-07-25T14:04:22.0000000+00:00</time></trkpt><trkpt lat="63.82710648" lon="-18.77185822"><ele>527.1</ele><time>2012-07-25T14:04:27.0000000+00:00</time></trkpt><trkpt lat="63.82707214" lon="-18.77188492"><ele>526.6</ele><time>2012-07-25T14:04:32.0000000+00:00</time></trkpt><trkpt lat="63.82704163" lon="-18.77197075"><ele>527.7</ele><time>2012-07-25T14:04:37.0000000+00:00</time></trkpt><trkpt lat="63.82701492" lon="-18.77203178"><ele>528.4</ele><time>2012-07-25T14:04:42.0000000+00:00</time></trkpt><trkpt lat="63.82699204" lon="-18.7720623"><ele>527.0</ele><time>2012-07-25T14:04:47.0000000+00:00</time></trkpt><trkpt lat="63.82696915" lon="-18.7720871"><ele>526.2</ele><time>2012-07-25T14:04:52.0000000+00:00</time></trkpt><trkpt lat="63.82695389" lon="-18.77216721"><ele>526.9</ele><time>2012-07-25T14:04:57.0000000+00:00</time></trkpt><trkpt lat="63.826931" lon="-18.77223587"><ele>528.0</ele><time>2012-07-25T14:05:02.0000000+00:00</time></trkpt><trkpt lat="63.82691574" lon="-18.77231026"><ele>528.6</ele><time>2012-07-25T14:05:07.0000000+00:00</time></trkpt><trkpt lat="63.82690048" lon="-18.7723999"><ele>529.6</ele><time>2012-07-25T14:05:12.0000000+00:00</time></trkpt><trkpt lat="63.82689285" lon="-18.77240944"><ele>529.6</ele><time>2012-07-25T14:05:17.0000000+00:00</time></trkpt><trkpt lat="63.82689285" lon="-18.77240944"><ele>529.5</ele><time>2012-07-25T14:05:22.0000000+00:00</time></trkpt><trkpt lat="63.82688141" lon="-18.77243042"><ele>529.3</ele><time>2012-07-25T14:05:27.0000000+00:00</time></trkpt><trkpt lat="63.82685089" lon="-18.77251434"><ele>530.4</ele><time>2012-07-25T14:05:32.0000000+00:00</time></trkpt><trkpt lat="63.82682419" lon="-18.77258492"><ele>530.2</ele><time>2012-07-25T14:05:37.0000000+00:00</time></trkpt><trkpt lat="63.8268013" lon="-18.7726593"><ele>529.8</ele><time>2012-07-25T14:05:42.0000000+00:00</time></trkpt><trkpt lat="63.82676315" lon="-18.77268982"><ele>529.4</ele><time>2012-07-25T14:05:47.0000000+00:00</time></trkpt><trkpt lat="63.82673264" lon="-18.77275467"><ele>529.9</ele><time>2012-07-25T14:05:52.0000000+00:00</time></trkpt><trkpt lat="63.82670593" lon="-18.77285385"><ele>530.8</ele><time>2012-07-25T14:05:57.0000000+00:00</time></trkpt><trkpt lat="63.82664108" lon="-18.77286911"><ele>530.2</ele><time>2012-07-25T14:06:02.0000000+00:00</time></trkpt><trkpt lat="63.82658768" lon="-18.77292824"><ele>530.4</ele><time>2012-07-25T14:06:07.0000000+00:00</time></trkpt><trkpt lat="63.82652664" lon="-18.77297974"><ele>530.7</ele><time>2012-07-25T14:06:12.0000000+00:00</time></trkpt><trkpt lat="63.82649994" lon="-18.77303505"><ele>531.9</ele><time>2012-07-25T14:06:17.0000000+00:00</time></trkpt><trkpt lat="63.82644653" lon="-18.7730999"><ele>532.5</ele><time>2012-07-25T14:06:22.0000000+00:00</time></trkpt><trkpt lat="63.82640457" lon="-18.77314377"><ele>532.1</ele><time>2012-07-25T14:06:27.0000000+00:00</time></trkpt><trkpt lat="63.8263588" lon="-18.77318001"><ele>531.6</ele><time>2012-07-25T14:06:32.0000000+00:00</time></trkpt><trkpt lat="63.82633972" lon="-18.77321053"><ele>532.5</ele><time>2012-07-25T14:06:37.0000000+00:00</time></trkpt><trkpt lat="63.82633591" lon="-18.77321243"><ele>533.0</ele><time>2012-07-25T14:06:42.0000000+00:00</time></trkpt><trkpt lat="63.82633591" lon="-18.77321243"><ele>533.1</ele><time>2012-07-25T14:06:47.0000000+00:00</time></trkpt><trkpt lat="63.82633209" lon="-18.77321053"><ele>533.2</ele><time>2012-07-25T14:06:52.0000000+00:00</time></trkpt><trkpt lat="63.82634354" lon="-18.77319717"><ele>533.8</ele><time>2012-07-25T14:06:57.0000000+00:00</time></trkpt><trkpt lat="63.82633972" lon="-18.77320671"><ele>534.1</ele><time>2012-07-25T14:07:02.0000000+00:00</time></trkpt><trkpt lat="63.82631683" lon="-18.77322578"><ele>533.3</ele><time>2012-07-25T14:07:07.0000000+00:00</time></trkpt><trkpt lat="63.82632065" lon="-18.77322197"><ele>532.9</ele><time>2012-07-25T14:07:12.0000000+00:00</time></trkpt><trkpt lat="63.82631302" lon="-18.7732048"><ele>532.6</ele><time>2012-07-25T14:07:17.0000000+00:00</time></trkpt><trkpt lat="63.8263092" lon="-18.77319336"><ele>532.4</ele><time>2012-07-25T14:07:22.0000000+00:00</time></trkpt><trkpt lat="63.82624435" lon="-18.77323341"><ele>532.1</ele><time>2012-07-25T14:07:27.0000000+00:00</time></trkpt><trkpt lat="63.82613373" lon="-18.77333069"><ele>532.9</ele><time>2012-07-25T14:07:32.0000000+00:00</time></trkpt><trkpt lat="63.82603836" lon="-18.77340698"><ele>533.7</ele><time>2012-07-25T14:07:37.0000000+00:00</time></trkpt><trkpt lat="63.82591629" lon="-18.77350617"><ele>534.4</ele><time>2012-07-25T14:07:42.0000000+00:00</time></trkpt><trkpt lat="63.82580185" lon="-18.77363014"><ele>535.3</ele><time>2012-07-25T14:07:47.0000000+00:00</time></trkpt><trkpt lat="63.82569504" lon="-18.77375603"><ele>535.3</ele><time>2012-07-25T14:07:52.0000000+00:00</time></trkpt><trkpt lat="63.82561493" lon="-18.77388382"><ele>536.6</ele><time>2012-07-25T14:07:57.0000000+00:00</time></trkpt><trkpt lat="63.82551956" lon="-18.77401352"><ele>537.2</ele><time>2012-07-25T14:08:02.0000000+00:00</time></trkpt><trkpt lat="63.82541657" lon="-18.77416802"><ele>538.0</ele><time>2012-07-25T14:08:07.0000000+00:00</time></trkpt><trkpt lat="63.82530594" lon="-18.77432251"><ele>537.9</ele><time>2012-07-25T14:08:12.0000000+00:00</time></trkpt><trkpt lat="63.8252449" lon="-18.77451134"><ele>538.2</ele><time>2012-07-25T14:08:17.0000000+00:00</time></trkpt><trkpt lat="63.82515717" lon="-18.77468872"><ele>537.8</ele><time>2012-07-25T14:08:22.0000000+00:00</time></trkpt><trkpt lat="63.82508469" lon="-18.77483749"><ele>538.9</ele><time>2012-07-25T14:08:27.0000000+00:00</time></trkpt><trkpt lat="63.82502365" lon="-18.77500343"><ele>539.7</ele><time>2012-07-25T14:08:32.0000000+00:00</time></trkpt><trkpt lat="63.82497025" lon="-18.77516365"><ele>539.3</ele><time>2012-07-25T14:08:37.0000000+00:00</time></trkpt><trkpt lat="63.82493591" lon="-18.77529144"><ele>538.6</ele><time>2012-07-25T14:08:42.0000000+00:00</time></trkpt><trkpt lat="63.82493973" lon="-18.77528191"><ele>537.1</ele><time>2012-07-25T14:08:47.0000000+00:00</time></trkpt><trkpt lat="63.82493591" lon="-18.77528191"><ele>536.8</ele><time>2012-07-25T14:08:52.0000000+00:00</time></trkpt><trkpt lat="63.82493973" lon="-18.77527618"><ele>536.8</ele><time>2012-07-25T14:08:57.0000000+00:00</time></trkpt><trkpt lat="63.82493973" lon="-18.77527618"><ele>536.8</ele><time>2012-07-25T14:09:02.0000000+00:00</time></trkpt><trkpt lat="63.82493591" lon="-18.77527809"><ele>536.9</ele><time>2012-07-25T14:09:07.0000000+00:00</time></trkpt><trkpt lat="63.82493591" lon="-18.77527809"><ele>536.9</ele><time>2012-07-25T14:09:12.0000000+00:00</time></trkpt><trkpt lat="63.82493591" lon="-18.77528"><ele>536.9</ele><time>2012-07-25T14:09:17.0000000+00:00</time></trkpt><trkpt lat="63.82493591" lon="-18.77528"><ele>536.9</ele><time>2012-07-25T14:09:22.0000000+00:00</time></trkpt><trkpt lat="63.82493591" lon="-18.77528"><ele>536.9</ele><time>2012-07-25T14:09:27.0000000+00:00</time></trkpt><trkpt lat="63.8249321" lon="-18.77528"><ele>536.9</ele><time>2012-07-25T14:09:32.0000000+00:00</time></trkpt><trkpt lat="63.8249321" lon="-18.77528"><ele>536.9</ele><time>2012-07-25T14:09:37.0000000+00:00</time></trkpt><trkpt lat="63.8249321" lon="-18.77528"><ele>536.9</ele><time>2012-07-25T14:09:42.0000000+00:00</time></trkpt><trkpt lat="63.8249321" lon="-18.77528"><ele>536.9</ele><time>2012-07-25T14:09:47.0000000+00:00</time></trkpt><trkpt lat="63.8249321" lon="-18.77528"><ele>536.9</ele><time>2012-07-25T14:09:52.0000000+00:00</time></trkpt><trkpt lat="63.8249321" lon="-18.77528"><ele>536.9</ele><time>2012-07-25T14:09:57.0000000+00:00</time></trkpt><trkpt lat="63.82490158" lon="-18.77536202"><ele>536.5</ele><time>2012-07-25T14:10:02.0000000+00:00</time></trkpt><trkpt lat="63.82474899" lon="-18.77579498"><ele>533.1</ele><time>2012-07-25T14:10:07.0000000+00:00</time></trkpt><trkpt lat="63.82448196" lon="-18.77634811"><ele>528.8</ele><time>2012-07-25T14:10:12.0000000+00:00</time></trkpt><trkpt lat="63.82418823" lon="-18.77685928"><ele>526.1</ele><time>2012-07-25T14:10:17.0000000+00:00</time></trkpt><trkpt lat="63.82400894" lon="-18.77755928"><ele>524.7</ele><time>2012-07-25T14:10:22.0000000+00:00</time></trkpt><trkpt lat="63.82395554" lon="-18.77799797"><ele>525.5</ele><time>2012-07-25T14:10:27.0000000+00:00</time></trkpt><trkpt lat="63.82394409" lon="-18.77832604"><ele>526.5</ele><time>2012-07-25T14:10:32.0000000+00:00</time></trkpt><trkpt lat="63.82395935" lon="-18.7785759"><ele>528.2</ele><time>2012-07-25T14:10:37.0000000+00:00</time></trkpt><trkpt lat="63.82401657" lon="-18.7788353"><ele>527.8</ele><time>2012-07-25T14:10:42.0000000+00:00</time></trkpt><trkpt lat="63.82413483" lon="-18.77923584"><ele>524.8</ele><time>2012-07-25T14:10:47.0000000+00:00</time></trkpt><trkpt lat="63.82425308" lon="-18.7795887"><ele>521.8</ele><time>2012-07-25T14:10:52.0000000+00:00</time></trkpt><trkpt lat="63.8243866" lon="-18.78004456"><ele>518.0</ele><time>2012-07-25T14:10:57.0000000+00:00</time></trkpt><trkpt lat="63.82446671" lon="-18.7806282"><ele>513.8</ele><time>2012-07-25T14:11:02.0000000+00:00</time></trkpt><trkpt lat="63.82450485" lon="-18.78131485"><ele>510.3</ele><time>2012-07-25T14:11:07.0000000+00:00</time></trkpt><trkpt lat="63.82453156" lon="-18.78181648"><ele>508.9</ele><time>2012-07-25T14:11:12.0000000+00:00</time></trkpt><trkpt lat="63.82452393" lon="-18.78215981"><ele>508.7</ele><time>2012-07-25T14:11:17.0000000+00:00</time></trkpt><trkpt lat="63.82447815" lon="-18.78223991"><ele>508.2</ele><time>2012-07-25T14:11:22.0000000+00:00</time></trkpt><trkpt lat="63.82447052" lon="-18.78222275"><ele>508.4</ele><time>2012-07-25T14:11:27.0000000+00:00</time></trkpt><trkpt lat="63.82445908" lon="-18.78221321"><ele>508.5</ele><time>2012-07-25T14:11:32.0000000+00:00</time></trkpt><trkpt lat="63.82445908" lon="-18.78218842"><ele>508.5</ele><time>2012-07-25T14:11:37.0000000+00:00</time></trkpt><trkpt lat="63.82445526" lon="-18.78215027"><ele>508.5</ele><time>2012-07-25T14:11:42.0000000+00:00</time></trkpt><trkpt lat="63.82445526" lon="-18.78215027"><ele>508.4</ele><time>2012-07-25T14:11:47.0000000+00:00</time></trkpt><trkpt lat="63.82445526" lon="-18.78215218"><ele>508.4</ele><time>2012-07-25T14:11:52.0000000+00:00</time></trkpt><trkpt lat="63.82445526" lon="-18.78215218"><ele>508.4</ele><time>2012-07-25T14:11:57.0000000+00:00</time></trkpt><trkpt lat="63.82445145" lon="-18.78215027"><ele>508.4</ele><time>2012-07-25T14:12:02.0000000+00:00</time></trkpt><trkpt lat="63.82445145" lon="-18.78215027"><ele>508.3</ele><time>2012-07-25T14:12:07.0000000+00:00</time></trkpt><trkpt lat="63.82445145" lon="-18.78215027"><ele>508.3</ele><time>2012-07-25T14:12:12.0000000+00:00</time></trkpt><trkpt lat="63.82445145" lon="-18.78215027"><ele>508.3</ele><time>2012-07-25T14:12:17.0000000+00:00</time></trkpt><trkpt lat="63.82445145" lon="-18.7821579"><ele>508.3</ele><time>2012-07-25T14:12:22.0000000+00:00</time></trkpt><trkpt lat="63.82450485" lon="-18.78223229"><ele>508.5</ele><time>2012-07-25T14:12:27.0000000+00:00</time></trkpt><trkpt lat="63.82462692" lon="-18.78237343"><ele>508.3</ele><time>2012-07-25T14:12:32.0000000+00:00</time></trkpt><trkpt lat="63.82476425" lon="-18.78256989"><ele>508.6</ele><time>2012-07-25T14:12:37.0000000+00:00</time></trkpt><trkpt lat="63.82492447" lon="-18.78281403"><ele>508.7</ele><time>2012-07-25T14:12:42.0000000+00:00</time></trkpt><trkpt lat="63.82508469" lon="-18.78309059"><ele>508.2</ele><time>2012-07-25T14:12:47.0000000+00:00</time></trkpt><trkpt lat="63.82522583" lon="-18.78338814"><ele>507.9</ele><time>2012-07-25T14:12:52.0000000+00:00</time></trkpt><trkpt lat="63.82536697" lon="-18.78374481"><ele>508.3</ele><time>2012-07-25T14:12:57.0000000+00:00</time></trkpt><trkpt lat="63.82546997" lon="-18.78409195"><ele>507.7</ele><time>2012-07-25T14:13:02.0000000+00:00</time></trkpt><trkpt lat="63.82551193" lon="-18.78434563"><ele>506.9</ele><time>2012-07-25T14:13:07.0000000+00:00</time></trkpt><trkpt lat="63.82554627" lon="-18.78458595"><ele>506.2</ele><time>2012-07-25T14:13:12.0000000+00:00</time></trkpt><trkpt lat="63.82558823" lon="-18.78489685"><ele>507.2</ele><time>2012-07-25T14:13:17.0000000+00:00</time></trkpt><trkpt lat="63.82561874" lon="-18.78522301"><ele>506.1</ele><time>2012-07-25T14:13:22.0000000+00:00</time></trkpt><trkpt lat="63.82564545" lon="-18.7855587"><ele>505.6</ele><time>2012-07-25T14:13:27.0000000+00:00</time></trkpt><trkpt lat="63.82568741" lon="-18.78590012"><ele>505.7</ele><time>2012-07-25T14:13:32.0000000+00:00</time></trkpt><trkpt lat="63.82572556" lon="-18.78624153"><ele>505.8</ele><time>2012-07-25T14:13:37.0000000+00:00</time></trkpt><trkpt lat="63.82576752" lon="-18.78657913"><ele>506.0</ele><time>2012-07-25T14:13:42.0000000+00:00</time></trkpt><trkpt lat="63.82582474" lon="-18.78695679"><ele>507.8</ele><time>2012-07-25T14:13:47.0000000+00:00</time></trkpt><trkpt lat="63.82587433" lon="-18.78730965"><ele>509.6</ele><time>2012-07-25T14:13:52.0000000+00:00</time></trkpt><trkpt lat="63.82591248" lon="-18.78767014"><ele>511.0</ele><time>2012-07-25T14:13:57.0000000+00:00</time></trkpt><trkpt lat="63.82593536" lon="-18.78803062"><ele>511.6</ele><time>2012-07-25T14:14:02.0000000+00:00</time></trkpt><trkpt lat="63.82596207" lon="-18.78837395"><ele>511.6</ele><time>2012-07-25T14:14:07.0000000+00:00</time></trkpt><trkpt lat="63.82598496" lon="-18.78863525"><ele>511.1</ele><time>2012-07-25T14:14:12.0000000+00:00</time></trkpt><trkpt lat="63.82598877" lon="-18.78886604"><ele>510.7</ele><time>2012-07-25T14:14:17.0000000+00:00</time></trkpt><trkpt lat="63.82599258" lon="-18.78893662"><ele>510.5</ele><time>2012-07-25T14:14:22.0000000+00:00</time></trkpt><trkpt lat="63.82600021" lon="-18.7889328"><ele>510.6</ele><time>2012-07-25T14:14:27.0000000+00:00</time></trkpt><trkpt lat="63.8259964" lon="-18.78893089"><ele>510.6</ele><time>2012-07-25T14:14:32.0000000+00:00</time></trkpt><trkpt lat="63.82600021" lon="-18.78894806"><ele>510.7</ele><time>2012-07-25T14:14:37.0000000+00:00</time></trkpt><trkpt lat="63.82600403" lon="-18.7890358"><ele>511.0</ele><time>2012-07-25T14:14:42.0000000+00:00</time></trkpt><trkpt lat="63.82601166" lon="-18.78911591"><ele>511.3</ele><time>2012-07-25T14:14:47.0000000+00:00</time></trkpt><trkpt lat="63.82601547" lon="-18.78919601"><ele>511.9</ele><time>2012-07-25T14:14:52.0000000+00:00</time></trkpt><trkpt lat="63.82601929" lon="-18.78927231"><ele>512.4</ele><time>2012-07-25T14:14:57.0000000+00:00</time></trkpt><trkpt lat="63.82601929" lon="-18.78933144"><ele>512.8</ele><time>2012-07-25T14:15:02.0000000+00:00</time></trkpt><trkpt lat="63.82601929" lon="-18.78936958"><ele>512.9</ele><time>2012-07-25T14:15:07.0000000+00:00</time></trkpt><trkpt lat="63.82602692" lon="-18.78944206"><ele>513.5</ele><time>2012-07-25T14:15:12.0000000+00:00</time></trkpt><trkpt lat="63.82602692" lon="-18.78950119"><ele>514.1</ele><time>2012-07-25T14:15:17.0000000+00:00</time></trkpt><trkpt lat="63.82603073" lon="-18.78957367"><ele>514.5</ele><time>2012-07-25T14:15:22.0000000+00:00</time></trkpt><trkpt lat="63.82603455" lon="-18.78964615"><ele>515.0</ele><time>2012-07-25T14:15:27.0000000+00:00</time></trkpt><trkpt lat="63.82603836" lon="-18.78973579"><ele>515.2</ele><time>2012-07-25T14:15:32.0000000+00:00</time></trkpt><trkpt lat="63.82604218" lon="-18.78981209"><ele>514.7</ele><time>2012-07-25T14:15:37.0000000+00:00</time></trkpt><trkpt lat="63.82603836" lon="-18.78988648"><ele>514.2</ele><time>2012-07-25T14:15:42.0000000+00:00</time></trkpt><trkpt lat="63.82604218" lon="-18.78997231"><ele>514.3</ele><time>2012-07-25T14:15:47.0000000+00:00</time></trkpt><trkpt lat="63.82604218" lon="-18.79006767"><ele>514.0</ele><time>2012-07-25T14:15:52.0000000+00:00</time></trkpt><trkpt lat="63.82605362" lon="-18.79018402"><ele>514.2</ele><time>2012-07-25T14:15:57.0000000+00:00</time></trkpt><trkpt lat="63.82605743" lon="-18.79030418"><ele>514.2</ele><time>2012-07-25T14:16:02.0000000+00:00</time></trkpt><trkpt lat="63.82605743" lon="-18.79043007"><ele>514.0</ele><time>2012-07-25T14:16:07.0000000+00:00</time></trkpt><trkpt lat="63.82605743" lon="-18.79055786"><ele>514.5</ele><time>2012-07-25T14:16:12.0000000+00:00</time></trkpt><trkpt lat="63.82605743" lon="-18.79069138"><ele>513.5</ele><time>2012-07-25T14:16:17.0000000+00:00</time></trkpt><trkpt lat="63.82605743" lon="-18.79079056"><ele>513.1</ele><time>2012-07-25T14:16:22.0000000+00:00</time></trkpt><trkpt lat="63.82605743" lon="-18.7908802"><ele>513.9</ele><time>2012-07-25T14:16:27.0000000+00:00</time></trkpt><trkpt lat="63.82605362" lon="-18.79097748"><ele>514.4</ele><time>2012-07-25T14:16:32.0000000+00:00</time></trkpt><trkpt lat="63.82606125" lon="-18.79106903"><ele>514.9</ele><time>2012-07-25T14:16:37.0000000+00:00</time></trkpt><trkpt lat="63.82605362" lon="-18.79119301"><ele>515.5</ele><time>2012-07-25T14:16:42.0000000+00:00</time></trkpt><trkpt lat="63.82605362" lon="-18.79129791"><ele>516.3</ele><time>2012-07-25T14:16:47.0000000+00:00</time></trkpt><trkpt lat="63.82604981" lon="-18.7913456"><ele>515.8</ele><time>2012-07-25T14:16:52.0000000+00:00</time></trkpt><trkpt lat="63.82604218" lon="-18.79139328"><ele>516.7</ele><time>2012-07-25T14:16:57.0000000+00:00</time></trkpt><trkpt lat="63.82603455" lon="-18.79161453"><ele>517.1</ele><time>2012-07-25T14:17:02.0000000+00:00</time></trkpt><trkpt lat="63.82600021" lon="-18.79188919"><ele>516.8</ele><time>2012-07-25T14:17:07.0000000+00:00</time></trkpt><trkpt lat="63.82595444" lon="-18.79217148"><ele>516.2</ele><time>2012-07-25T14:17:12.0000000+00:00</time></trkpt><trkpt lat="63.82590103" lon="-18.7924633"><ele>515.6</ele><time>2012-07-25T14:17:17.0000000+00:00</time></trkpt><trkpt lat="63.82585144" lon="-18.79270744"><ele>515.0</ele><time>2012-07-25T14:17:22.0000000+00:00</time></trkpt><trkpt lat="63.82583618" lon="-18.7930584"><ele>515.1</ele><time>2012-07-25T14:17:27.0000000+00:00</time></trkpt><trkpt lat="63.82580948" lon="-18.79343605"><ele>514.7</ele><time>2012-07-25T14:17:32.0000000+00:00</time></trkpt><trkpt lat="63.82581329" lon="-18.79403877"><ele>513.2</ele><time>2012-07-25T14:17:37.0000000+00:00</time></trkpt><trkpt lat="63.82579804" lon="-18.79457855"><ele>514.8</ele><time>2012-07-25T14:17:42.0000000+00:00</time></trkpt><trkpt lat="63.82577515" lon="-18.79483223"><ele>516.3</ele><time>2012-07-25T14:17:47.0000000+00:00</time></trkpt><trkpt lat="63.82574463" lon="-18.79500961"><ele>516.8</ele><time>2012-07-25T14:17:52.0000000+00:00</time></trkpt><trkpt lat="63.8257103" lon="-18.79517746"><ele>517.3</ele><time>2012-07-25T14:17:57.0000000+00:00</time></trkpt><trkpt lat="63.82561493" lon="-18.79539299"><ele>517.5</ele><time>2012-07-25T14:18:02.0000000+00:00</time></trkpt><trkpt lat="63.82550049" lon="-18.79567719"><ele>517.2</ele><time>2012-07-25T14:18:07.0000000+00:00</time></trkpt><trkpt lat="63.8253746" lon="-18.79595375"><ele>516.8</ele><time>2012-07-25T14:18:12.0000000+00:00</time></trkpt><trkpt lat="63.82526398" lon="-18.79617119"><ele>516.3</ele><time>2012-07-25T14:18:17.0000000+00:00</time></trkpt><trkpt lat="63.82520294" lon="-18.79628372"><ele>516.7</ele><time>2012-07-25T14:18:22.0000000+00:00</time></trkpt><trkpt lat="63.82509613" lon="-18.79649162"><ele>516.8</ele><time>2012-07-25T14:18:27.0000000+00:00</time></trkpt><trkpt lat="63.82500839" lon="-18.79666901"><ele>518.0</ele><time>2012-07-25T14:18:32.0000000+00:00</time></trkpt><trkpt lat="63.82492447" lon="-18.79680061"><ele>518.8</ele><time>2012-07-25T14:18:37.0000000+00:00</time></trkpt><trkpt lat="63.82485199" lon="-18.79691315"><ele>519.6</ele><time>2012-07-25T14:18:42.0000000+00:00</time></trkpt><trkpt lat="63.82474899" lon="-18.79701614"><ele>519.0</ele><time>2012-07-25T14:18:47.0000000+00:00</time></trkpt><trkpt lat="63.82461929" lon="-18.79709816"><ele>518.6</ele><time>2012-07-25T14:18:52.0000000+00:00</time></trkpt><trkpt lat="63.82447434" lon="-18.79722214"><ele>516.8</ele><time>2012-07-25T14:18:57.0000000+00:00</time></trkpt><trkpt lat="63.82422257" lon="-18.79764366"><ele>511.2</ele><time>2012-07-25T14:19:02.0000000+00:00</time></trkpt><trkpt lat="63.82404327" lon="-18.79816437"><ele>511.8</ele><time>2012-07-25T14:19:07.0000000+00:00</time></trkpt><trkpt lat="63.82406998" lon="-18.79846191"><ele>512.3</ele><time>2012-07-25T14:19:12.0000000+00:00</time></trkpt><trkpt lat="63.82414246" lon="-18.79870033"><ele>512.9</ele><time>2012-07-25T14:19:17.0000000+00:00</time></trkpt><trkpt lat="63.82434082" lon="-18.7990551"><ele>509.9</ele><time>2012-07-25T14:19:22.0000000+00:00</time></trkpt><trkpt lat="63.82455444" lon="-18.79946518"><ele>510.2</ele><time>2012-07-25T14:19:27.0000000+00:00</time></trkpt><trkpt lat="63.82472992" lon="-18.79981232"><ele>511.2</ele><time>2012-07-25T14:19:32.0000000+00:00</time></trkpt><trkpt lat="63.82490921" lon="-18.80018044"><ele>511.8</ele><time>2012-07-25T14:19:37.0000000+00:00</time></trkpt><trkpt lat="63.82506943" lon="-18.80055809"><ele>513.2</ele><time>2012-07-25T14:19:42.0000000+00:00</time></trkpt><trkpt lat="63.8251915" lon="-18.80086899"><ele>513.3</ele><time>2012-07-25T14:19:47.0000000+00:00</time></trkpt><trkpt lat="63.82531738" lon="-18.80127144"><ele>511.9</ele><time>2012-07-25T14:19:52.0000000+00:00</time></trkpt><trkpt lat="63.82543564" lon="-18.80171967"><ele>511.6</ele><time>2012-07-25T14:19:57.0000000+00:00</time></trkpt><trkpt lat="63.82556152" lon="-18.80212402"><ele>511.8</ele><time>2012-07-25T14:20:02.0000000+00:00</time></trkpt><trkpt lat="63.82567978" lon="-18.80254364"><ele>511.4</ele><time>2012-07-25T14:20:07.0000000+00:00</time></trkpt><trkpt lat="63.82575607" lon="-18.80291176"><ele>512.7</ele><time>2012-07-25T14:20:12.0000000+00:00</time></trkpt><trkpt lat="63.82575989" lon="-18.80320931"><ele>513.6</ele><time>2012-07-25T14:20:17.0000000+00:00</time></trkpt><trkpt lat="63.82572937" lon="-18.8035202"><ele>511.0</ele><time>2012-07-25T14:20:22.0000000+00:00</time></trkpt><trkpt lat="63.82569885" lon="-18.80392838"><ele>511.1</ele><time>2012-07-25T14:20:27.0000000+00:00</time></trkpt><trkpt lat="63.82566834" lon="-18.80430794"><ele>511.0</ele><time>2012-07-25T14:20:32.0000000+00:00</time></trkpt><trkpt lat="63.82566071" lon="-18.80465317"><ele>511.5</ele><time>2012-07-25T14:20:37.0000000+00:00</time></trkpt><trkpt lat="63.82564926" lon="-18.80493736"><ele>510.7</ele><time>2012-07-25T14:20:42.0000000+00:00</time></trkpt><trkpt lat="63.82570267" lon="-18.80518723"><ele>511.0</ele><time>2012-07-25T14:20:47.0000000+00:00</time></trkpt><trkpt lat="63.82572937" lon="-18.80539703"><ele>510.5</ele><time>2012-07-25T14:20:52.0000000+00:00</time></trkpt><trkpt lat="63.82575607" lon="-18.80556488"><ele>511.2</ele><time>2012-07-25T14:20:57.0000000+00:00</time></trkpt><trkpt lat="63.82575989" lon="-18.80561066"><ele>511.0</ele><time>2012-07-25T14:21:02.0000000+00:00</time></trkpt><trkpt lat="63.82575989" lon="-18.80561256"><ele>511.0</ele><time>2012-07-25T14:21:07.0000000+00:00</time></trkpt><trkpt lat="63.8257637" lon="-18.80561256"><ele>511.0</ele><time>2012-07-25T14:21:12.0000000+00:00</time></trkpt><trkpt lat="63.8257637" lon="-18.80561066"><ele>511.1</ele><time>2012-07-25T14:21:17.0000000+00:00</time></trkpt><trkpt lat="63.8257637" lon="-18.80561256"><ele>511.1</ele><time>2012-07-25T14:21:22.0000000+00:00</time></trkpt><trkpt lat="63.8257637" lon="-18.80561256"><ele>511.2</ele><time>2012-07-25T14:21:27.0000000+00:00</time></trkpt><trkpt lat="63.8257637" lon="-18.80561447"><ele>511.2</ele><time>2012-07-25T14:21:32.0000000+00:00</time></trkpt><trkpt lat="63.82575989" lon="-18.8056221"><ele>510.6</ele><time>2012-07-25T14:21:37.0000000+00:00</time></trkpt><trkpt lat="63.82573319" lon="-18.80555916"><ele>510.2</ele><time>2012-07-25T14:21:42.0000000+00:00</time></trkpt><trkpt lat="63.82566834" lon="-18.8054142"><ele>509.9</ele><time>2012-07-25T14:21:47.0000000+00:00</time></trkpt><trkpt lat="63.82557297" lon="-18.80532455"><ele>510.7</ele><time>2012-07-25T14:21:52.0000000+00:00</time></trkpt><trkpt lat="63.8254776" lon="-18.80529022"><ele>509.6</ele><time>2012-07-25T14:21:57.0000000+00:00</time></trkpt><trkpt lat="63.82547379" lon="-18.80530167"><ele>508.8</ele><time>2012-07-25T14:22:02.0000000+00:00</time></trkpt><trkpt lat="63.82547379" lon="-18.80529976"><ele>508.8</ele><time>2012-07-25T14:22:07.0000000+00:00</time></trkpt><trkpt lat="63.82548904" lon="-18.80532455"><ele>509.0</ele><time>2012-07-25T14:22:12.0000000+00:00</time></trkpt><trkpt lat="63.82549667" lon="-18.80531693"><ele>508.9</ele><time>2012-07-25T14:22:17.0000000+00:00</time></trkpt><trkpt lat="63.82550049" lon="-18.80531311"><ele>509.3</ele><time>2012-07-25T14:22:22.0000000+00:00</time></trkpt><trkpt lat="63.82550049" lon="-18.80531311"><ele>509.4</ele><time>2012-07-25T14:22:27.0000000+00:00</time></trkpt><trkpt lat="63.82553482" lon="-18.80531311"><ele>509.5</ele><time>2012-07-25T14:22:32.0000000+00:00</time></trkpt><trkpt lat="63.82558441" lon="-18.80532074"><ele>509.6</ele><time>2012-07-25T14:22:37.0000000+00:00</time></trkpt><trkpt lat="63.825634" lon="-18.80537415"><ele>510.1</ele><time>2012-07-25T14:22:42.0000000+00:00</time></trkpt><trkpt lat="63.82566834" lon="-18.80543327"><ele>510.1</ele><time>2012-07-25T14:22:47.0000000+00:00</time></trkpt><trkpt lat="63.82568359" lon="-18.80546188"><ele>510.0</ele><time>2012-07-25T14:22:52.0000000+00:00</time></trkpt><trkpt lat="63.82575989" lon="-18.80547714"><ele>510.8</ele><time>2012-07-25T14:22:57.0000000+00:00</time></trkpt><trkpt lat="63.82581329" lon="-18.80552292"><ele>509.6</ele><time>2012-07-25T14:23:02.0000000+00:00</time></trkpt><trkpt lat="63.82588196" lon="-18.80554009"><ele>509.8</ele><time>2012-07-25T14:23:07.0000000+00:00</time></trkpt><trkpt lat="63.82592011" lon="-18.8056469"><ele>509.6</ele><time>2012-07-25T14:23:12.0000000+00:00</time></trkpt><trkpt lat="63.82595062" lon="-18.80574989"><ele>508.9</ele><time>2012-07-25T14:23:17.0000000+00:00</time></trkpt><trkpt lat="63.82601166" lon="-18.80583382"><ele>508.6</ele><time>2012-07-25T14:23:22.0000000+00:00</time></trkpt><trkpt lat="63.82607269" lon="-18.80588532"><ele>508.6</ele><time>2012-07-25T14:23:27.0000000+00:00</time></trkpt><trkpt lat="63.8261261" lon="-18.80589104"><ele>509.4</ele><time>2012-07-25T14:23:32.0000000+00:00</time></trkpt><trkpt lat="63.82618332" lon="-18.80592346"><ele>509.5</ele><time>2012-07-25T14:23:37.0000000+00:00</time></trkpt><trkpt lat="63.82624435" lon="-18.80599022"><ele>509.0</ele><time>2012-07-25T14:23:42.0000000+00:00</time></trkpt><trkpt lat="63.82630539" lon="-18.80603409"><ele>509.0</ele><time>2012-07-25T14:23:47.0000000+00:00</time></trkpt><trkpt lat="63.82636643" lon="-18.80605125"><ele>509.4</ele><time>2012-07-25T14:23:52.0000000+00:00</time></trkpt><trkpt lat="63.82642746" lon="-18.80608177"><ele>508.9</ele><time>2012-07-25T14:23:57.0000000+00:00</time></trkpt><trkpt lat="63.82650375" lon="-18.80612373"><ele>509.6</ele><time>2012-07-25T14:24:02.0000000+00:00</time></trkpt><trkpt lat="63.82657623" lon="-18.80615997"><ele>510.2</ele><time>2012-07-25T14:24:07.0000000+00:00</time></trkpt><trkpt lat="63.82664108" lon="-18.80620956"><ele>510.3</ele><time>2012-07-25T14:24:12.0000000+00:00</time></trkpt><trkpt lat="63.82671356" lon="-18.80623245"><ele>510.9</ele><time>2012-07-25T14:24:17.0000000+00:00</time></trkpt><trkpt lat="63.82678223" lon="-18.80622101"><ele>510.3</ele><time>2012-07-25T14:24:22.0000000+00:00</time></trkpt><trkpt lat="63.82683945" lon="-18.80629349"><ele>509.6</ele><time>2012-07-25T14:24:27.0000000+00:00</time></trkpt><trkpt lat="63.8269043" lon="-18.80638123"><ele>508.3</ele><time>2012-07-25T14:24:32.0000000+00:00</time></trkpt><trkpt lat="63.82696152" lon="-18.80647278"><ele>507.9</ele><time>2012-07-25T14:24:37.0000000+00:00</time></trkpt><trkpt lat="63.82701111" lon="-18.80657959"><ele>506.4</ele><time>2012-07-25T14:24:42.0000000+00:00</time></trkpt><trkpt lat="63.82705689" lon="-18.80667305"><ele>505.4</ele><time>2012-07-25T14:24:47.0000000+00:00</time></trkpt><trkpt lat="63.82709885" lon="-18.80674171"><ele>505.4</ele><time>2012-07-25T14:24:52.0000000+00:00</time></trkpt><trkpt lat="63.82714844" lon="-18.80682182"><ele>504.2</ele><time>2012-07-25T14:24:57.0000000+00:00</time></trkpt><trkpt lat="63.82720184" lon="-18.80690193"><ele>504.0</ele><time>2012-07-25T14:25:02.0000000+00:00</time></trkpt><trkpt lat="63.82725906" lon="-18.80698776"><ele>503.0</ele><time>2012-07-25T14:25:07.0000000+00:00</time></trkpt><trkpt lat="63.82731628" lon="-18.80709457"><ele>503.6</ele><time>2012-07-25T14:25:12.0000000+00:00</time></trkpt><trkpt lat="63.82736588" lon="-18.80718994"><ele>503.9</ele><time>2012-07-25T14:25:17.0000000+00:00</time></trkpt><trkpt lat="63.82735062" lon="-18.80731773"><ele>503.0</ele><time>2012-07-25T14:25:22.0000000+00:00</time></trkpt><trkpt lat="63.82735825" lon="-18.80746079"><ele>502.4</ele><time>2012-07-25T14:25:27.0000000+00:00</time></trkpt><trkpt lat="63.82736206" lon="-18.80752564"><ele>502.6</ele><time>2012-07-25T14:25:32.0000000+00:00</time></trkpt><trkpt lat="63.82735825" lon="-18.807621"><ele>502.3</ele><time>2012-07-25T14:25:37.0000000+00:00</time></trkpt><trkpt lat="63.82738876" lon="-18.80776405"><ele>502.0</ele><time>2012-07-25T14:25:42.0000000+00:00</time></trkpt><trkpt lat="63.82741165" lon="-18.8079052"><ele>501.9</ele><time>2012-07-25T14:25:47.0000000+00:00</time></trkpt><trkpt lat="63.82745743" lon="-18.80799866"><ele>501.4</ele><time>2012-07-25T14:25:52.0000000+00:00</time></trkpt><trkpt lat="63.82748795" lon="-18.80803108"><ele>501.9</ele><time>2012-07-25T14:25:57.0000000+00:00</time></trkpt><trkpt lat="63.82748795" lon="-18.80801582"><ele>502.0</ele><time>2012-07-25T14:26:02.0000000+00:00</time></trkpt><trkpt lat="63.82748795" lon="-18.80801582"><ele>502.0</ele><time>2012-07-25T14:26:07.0000000+00:00</time></trkpt><trkpt lat="63.82748413" lon="-18.8080101"><ele>502.1</ele><time>2012-07-25T14:26:12.0000000+00:00</time></trkpt><trkpt lat="63.82748413" lon="-18.8080101"><ele>502.1</ele><time>2012-07-25T14:26:17.0000000+00:00</time></trkpt><trkpt lat="63.82751846" lon="-18.80800247"><ele>502.3</ele><time>2012-07-25T14:26:22.0000000+00:00</time></trkpt><trkpt lat="63.82749939" lon="-18.8080101"><ele>502.1</ele><time>2012-07-25T14:26:27.0000000+00:00</time></trkpt><trkpt lat="63.82745361" lon="-18.80794525"><ele>501.8</ele><time>2012-07-25T14:26:32.0000000+00:00</time></trkpt><trkpt lat="63.82741165" lon="-18.80781746"><ele>502.5</ele><time>2012-07-25T14:26:37.0000000+00:00</time></trkpt><trkpt lat="63.82736588" lon="-18.80770493"><ele>502.2</ele><time>2012-07-25T14:26:42.0000000+00:00</time></trkpt><trkpt lat="63.82732391" lon="-18.80758286"><ele>502.3</ele><time>2012-07-25T14:26:47.0000000+00:00</time></trkpt><trkpt lat="63.82728577" lon="-18.80746269"><ele>502.3</ele><time>2012-07-25T14:26:52.0000000+00:00</time></trkpt><trkpt lat="63.82724762" lon="-18.80733872"><ele>502.0</ele><time>2012-07-25T14:26:57.0000000+00:00</time></trkpt><trkpt lat="63.82720184" lon="-18.80722237"><ele>502.0</ele><time>2012-07-25T14:27:02.0000000+00:00</time></trkpt><trkpt lat="63.82715988" lon="-18.80710983"><ele>502.0</ele><time>2012-07-25T14:27:07.0000000+00:00</time></trkpt><trkpt lat="63.82711029" lon="-18.80698204"><ele>502.6</ele><time>2012-07-25T14:27:12.0000000+00:00</time></trkpt><trkpt lat="63.82706833" lon="-18.80681801"><ele>501.8</ele><time>2012-07-25T14:27:17.0000000+00:00</time></trkpt><trkpt lat="63.82702637" lon="-18.80667496"><ele>501.8</ele><time>2012-07-25T14:27:22.0000000+00:00</time></trkpt><trkpt lat="63.82697678" lon="-18.80655861"><ele>502.9</ele><time>2012-07-25T14:27:27.0000000+00:00</time></trkpt><trkpt lat="63.826931" lon="-18.80643845"><ele>503.6</ele><time>2012-07-25T14:27:32.0000000+00:00</time></trkpt><trkpt lat="63.82687378" lon="-18.8063221"><ele>505.1</ele><time>2012-07-25T14:27:37.0000000+00:00</time></trkpt><trkpt lat="63.8268013" lon="-18.80623436"><ele>507.0</ele><time>2012-07-25T14:27:42.0000000+00:00</time></trkpt><trkpt lat="63.82673645" lon="-18.80613518"><ele>508.2</ele><time>2012-07-25T14:27:47.0000000+00:00</time></trkpt><trkpt lat="63.8266716" lon="-18.80602074"><ele>508.8</ele><time>2012-07-25T14:27:52.0000000+00:00</time></trkpt><trkpt lat="63.82660294" lon="-18.80591965"><ele>509.1</ele><time>2012-07-25T14:27:57.0000000+00:00</time></trkpt><trkpt lat="63.8265419" lon="-18.8057518"><ele>509.2</ele><time>2012-07-25T14:28:02.0000000+00:00</time></trkpt><trkpt lat="63.82648087" lon="-18.80565262"><ele>510.6</ele><time>2012-07-25T14:28:07.0000000+00:00</time></trkpt><trkpt lat="63.82641602" lon="-18.80553246"><ele>511.6</ele><time>2012-07-25T14:28:12.0000000+00:00</time></trkpt><trkpt lat="63.8263588" lon="-18.8053875"><ele>510.8</ele><time>2012-07-25T14:28:17.0000000+00:00</time></trkpt><trkpt lat="63.82628632" lon="-18.80527878"><ele>508.6</ele><time>2012-07-25T14:28:22.0000000+00:00</time></trkpt><trkpt lat="63.82622147" lon="-18.80517006"><ele>507.8</ele><time>2012-07-25T14:28:27.0000000+00:00</time></trkpt><trkpt lat="63.82615662" lon="-18.80507851"><ele>506.7</ele><time>2012-07-25T14:28:32.0000000+00:00</time></trkpt><trkpt lat="63.82608795" lon="-18.80496788"><ele>505.9</ele><time>2012-07-25T14:28:37.0000000+00:00</time></trkpt><trkpt lat="63.82601929" lon="-18.8049469"><ele>505.2</ele><time>2012-07-25T14:28:42.0000000+00:00</time></trkpt><trkpt lat="63.82595825" lon="-18.8049736"><ele>503.7</ele><time>2012-07-25T14:28:47.0000000+00:00</time></trkpt><trkpt lat="63.82588959" lon="-18.80503464"><ele>502.3</ele><time>2012-07-25T14:28:52.0000000+00:00</time></trkpt><trkpt lat="63.82582474" lon="-18.80511856"><ele>501.6</ele><time>2012-07-25T14:28:57.0000000+00:00</time></trkpt><trkpt lat="63.82577133" lon="-18.80524635"><ele>501.8</ele><time>2012-07-25T14:29:02.0000000+00:00</time></trkpt><trkpt lat="63.82571411" lon="-18.80538368"><ele>501.6</ele><time>2012-07-25T14:29:07.0000000+00:00</time></trkpt><trkpt lat="63.82567215" lon="-18.80550957"><ele>500.1</ele><time>2012-07-25T14:29:12.0000000+00:00</time></trkpt><trkpt lat="63.82564163" lon="-18.80565643"><ele>502.4</ele><time>2012-07-25T14:29:17.0000000+00:00</time></trkpt><trkpt lat="63.82564926" lon="-18.80567551"><ele>503.2</ele><time>2012-07-25T14:29:22.0000000+00:00</time></trkpt><trkpt lat="63.82564926" lon="-18.8056736"><ele>503.3</ele><time>2012-07-25T14:29:27.0000000+00:00</time></trkpt><trkpt lat="63.82564926" lon="-18.80567169"><ele>503.3</ele><time>2012-07-25T14:29:32.0000000+00:00</time></trkpt><trkpt lat="63.82564926" lon="-18.80567169"><ele>503.3</ele><time>2012-07-25T14:29:37.0000000+00:00</time></trkpt><trkpt lat="63.82564926" lon="-18.80567169"><ele>503.3</ele><time>2012-07-25T14:29:42.0000000+00:00</time></trkpt><trkpt lat="63.82564926" lon="-18.80567169"><ele>503.3</ele><time>2012-07-25T14:29:47.0000000+00:00</time></trkpt><trkpt lat="63.825634" lon="-18.80561638"><ele>503.4</ele><time>2012-07-25T14:29:52.0000000+00:00</time></trkpt><trkpt lat="63.825634" lon="-18.80560112"><ele>503.4</ele><time>2012-07-25T14:29:57.0000000+00:00</time></trkpt><trkpt lat="63.825634" lon="-18.80560112"><ele>503.4</ele><time>2012-07-25T14:30:02.0000000+00:00</time></trkpt><trkpt lat="63.825634" lon="-18.80560684"><ele>503.5</ele><time>2012-07-25T14:30:07.0000000+00:00</time></trkpt><trkpt lat="63.825634" lon="-18.80560684"><ele>503.5</ele><time>2012-07-25T14:30:12.0000000+00:00</time></trkpt><trkpt lat="63.825634" lon="-18.80560494"><ele>503.5</ele><time>2012-07-25T14:30:17.0000000+00:00</time></trkpt><trkpt lat="63.825634" lon="-18.80560303"><ele>503.5</ele><time>2012-07-25T14:30:22.0000000+00:00</time></trkpt><trkpt lat="63.825634" lon="-18.80560303"><ele>503.5</ele><time>2012-07-25T14:30:27.0000000+00:00</time></trkpt><trkpt lat="63.825634" lon="-18.80560303"><ele>503.5</ele><time>2012-07-25T14:30:32.0000000+00:00</time></trkpt><trkpt lat="63.825634" lon="-18.80560303"><ele>503.5</ele><time>2012-07-25T14:30:37.0000000+00:00</time></trkpt><trkpt lat="63.825634" lon="-18.80560303"><ele>503.5</ele><time>2012-07-25T14:30:42.0000000+00:00</time></trkpt><trkpt lat="63.825634" lon="-18.80560303"><ele>503.5</ele><time>2012-07-25T14:30:47.0000000+00:00</time></trkpt><trkpt lat="63.825634" lon="-18.80560303"><ele>503.5</ele><time>2012-07-25T14:30:52.0000000+00:00</time></trkpt><trkpt lat="63.82563782" lon="-18.80560303"><ele>503.5</ele><time>2012-07-25T14:30:57.0000000+00:00</time></trkpt><trkpt lat="63.825634" lon="-18.80560303"><ele>503.5</ele><time>2012-07-25T14:31:02.0000000+00:00</time></trkpt><trkpt lat="63.825634" lon="-18.80560303"><ele>503.5</ele><time>2012-07-25T14:31:07.0000000+00:00</time></trkpt><trkpt lat="63.825634" lon="-18.80560112"><ele>503.5</ele><time>2012-07-25T14:31:12.0000000+00:00</time></trkpt><trkpt lat="63.82562637" lon="-18.80560112"><ele>503.7</ele><time>2012-07-25T14:31:17.0000000+00:00</time></trkpt><trkpt lat="63.82561493" lon="-18.8055706"><ele>503.9</ele><time>2012-07-25T14:31:22.0000000+00:00</time></trkpt><trkpt lat="63.82559586" lon="-18.80552673"><ele>503.9</ele><time>2012-07-25T14:31:27.0000000+00:00</time></trkpt><trkpt lat="63.82555771" lon="-18.80545807"><ele>503.9</ele><time>2012-07-25T14:31:32.0000000+00:00</time></trkpt><trkpt lat="63.82555389" lon="-18.80537415"><ele>503.2</ele><time>2012-07-25T14:31:37.0000000+00:00</time></trkpt><trkpt lat="63.82553101" lon="-18.80532646"><ele>502.5</ele><time>2012-07-25T14:31:42.0000000+00:00</time></trkpt><trkpt lat="63.82547379" lon="-18.80529022"><ele>500.8</ele><time>2012-07-25T14:31:47.0000000+00:00</time></trkpt><trkpt lat="63.82546997" lon="-18.80528259"><ele>500.8</ele><time>2012-07-25T14:31:52.0000000+00:00</time></trkpt><trkpt lat="63.82546616" lon="-18.80525971"><ele>500.4</ele><time>2012-07-25T14:31:57.0000000+00:00</time></trkpt><trkpt lat="63.82546997" lon="-18.80524445"><ele>500.3</ele><time>2012-07-25T14:32:02.0000000+00:00</time></trkpt><trkpt lat="63.82546616" lon="-18.80523109"><ele>500.0</ele><time>2012-07-25T14:32:07.0000000+00:00</time></trkpt><trkpt lat="63.82544708" lon="-18.8051796"><ele>500.4</ele><time>2012-07-25T14:32:12.0000000+00:00</time></trkpt><trkpt lat="63.82539368" lon="-18.8050766"><ele>501.7</ele><time>2012-07-25T14:32:17.0000000+00:00</time></trkpt><trkpt lat="63.82536316" lon="-18.80504417"><ele>501.5</ele><time>2012-07-25T14:32:22.0000000+00:00</time></trkpt><trkpt lat="63.82535172" lon="-18.8050499"><ele>501.8</ele><time>2012-07-25T14:32:27.0000000+00:00</time></trkpt><trkpt lat="63.82538605" lon="-18.80507851"><ele>501.0</ele><time>2012-07-25T14:32:32.0000000+00:00</time></trkpt><trkpt lat="63.82544327" lon="-18.80517578"><ele>501.4</ele><time>2012-07-25T14:32:37.0000000+00:00</time></trkpt><trkpt lat="63.82548523" lon="-18.80526924"><ele>501.6</ele><time>2012-07-25T14:32:42.0000000+00:00</time></trkpt><trkpt lat="63.82549286" lon="-18.80537605"><ele>500.9</ele><time>2012-07-25T14:32:47.0000000+00:00</time></trkpt><trkpt lat="63.82549286" lon="-18.80550385"><ele>500.3</ele><time>2012-07-25T14:32:52.0000000+00:00</time></trkpt><trkpt lat="63.82549667" lon="-18.80555344"><ele>499.8</ele><time>2012-07-25T14:32:57.0000000+00:00</time></trkpt><trkpt lat="63.82549286" lon="-18.80554009"><ele>499.6</ele><time>2012-07-25T14:33:02.0000000+00:00</time></trkpt><trkpt lat="63.82549667" lon="-18.80552483"><ele>499.3</ele><time>2012-07-25T14:33:07.0000000+00:00</time></trkpt><trkpt lat="63.82550049" lon="-18.80551148"><ele>499.2</ele><time>2012-07-25T14:33:12.0000000+00:00</time></trkpt><trkpt lat="63.82550049" lon="-18.80550194"><ele>499.0</ele><time>2012-07-25T14:33:17.0000000+00:00</time></trkpt><trkpt lat="63.82550049" lon="-18.8054924"><ele>498.9</ele><time>2012-07-25T14:33:22.0000000+00:00</time></trkpt><trkpt lat="63.82550049" lon="-18.80548859"><ele>498.8</ele><time>2012-07-25T14:33:27.0000000+00:00</time></trkpt><trkpt lat="63.82550812" lon="-18.80548477"><ele>498.8</ele><time>2012-07-25T14:33:32.0000000+00:00</time></trkpt><trkpt lat="63.82550812" lon="-18.80548477"><ele>498.7</ele><time>2012-07-25T14:33:37.0000000+00:00</time></trkpt><trkpt lat="63.82550812" lon="-18.80548477"><ele>498.7</ele><time>2012-07-25T14:33:42.0000000+00:00</time></trkpt><trkpt lat="63.82550812" lon="-18.80548668"><ele>498.7</ele><time>2012-07-25T14:33:47.0000000+00:00</time></trkpt><trkpt lat="63.82550812" lon="-18.80548668"><ele>498.7</ele><time>2012-07-25T14:33:52.0000000+00:00</time></trkpt><trkpt lat="63.82550812" lon="-18.80548668"><ele>498.7</ele><time>2012-07-25T14:33:57.0000000+00:00</time></trkpt><trkpt lat="63.82550812" lon="-18.80548668"><ele>498.7</ele><time>2012-07-25T14:34:02.0000000+00:00</time></trkpt><trkpt lat="63.82550812" lon="-18.80548668"><ele>498.7</ele><time>2012-07-25T14:34:07.0000000+00:00</time></trkpt><trkpt lat="63.82550812" lon="-18.80548859"><ele>498.7</ele><time>2012-07-25T14:34:12.0000000+00:00</time></trkpt><trkpt lat="63.82552719" lon="-18.80546761"><ele>499.4</ele><time>2012-07-25T14:34:17.0000000+00:00</time></trkpt><trkpt lat="63.82553482" lon="-18.80541039"><ele>499.8</ele><time>2012-07-25T14:34:22.0000000+00:00</time></trkpt><trkpt lat="63.82553101" lon="-18.80539703"><ele>500.0</ele><time>2012-07-25T14:34:27.0000000+00:00</time></trkpt><trkpt lat="63.82553101" lon="-18.80540657"><ele>499.7</ele><time>2012-07-25T14:34:32.0000000+00:00</time></trkpt><trkpt lat="63.82552719" lon="-18.80541039"><ele>500.2</ele><time>2012-07-25T14:34:37.0000000+00:00</time></trkpt><trkpt lat="63.82553101" lon="-18.80540085"><ele>500.9</ele><time>2012-07-25T14:34:42.0000000+00:00</time></trkpt><trkpt lat="63.82553482" lon="-18.8053875"><ele>500.8</ele><time>2012-07-25T14:34:47.0000000+00:00</time></trkpt><trkpt lat="63.82552338" lon="-18.80535126"><ele>500.7</ele><time>2012-07-25T14:34:52.0000000+00:00</time></trkpt><trkpt lat="63.82553101" lon="-18.80533028"><ele>501.1</ele><time>2012-07-25T14:34:57.0000000+00:00</time></trkpt><trkpt lat="63.82554245" lon="-18.8052578"><ele>500.7</ele><time>2012-07-25T14:35:02.0000000+00:00</time></trkpt><trkpt lat="63.82553482" lon="-18.80525017"><ele>500.6</ele><time>2012-07-25T14:35:07.0000000+00:00</time></trkpt><trkpt lat="63.82551575" lon="-18.80527687"><ele>500.2</ele><time>2012-07-25T14:35:12.0000000+00:00</time></trkpt><trkpt lat="63.82549667" lon="-18.80531311"><ele>500.6</ele><time>2012-07-25T14:35:17.0000000+00:00</time></trkpt><trkpt lat="63.82549667" lon="-18.80530357"><ele>501.3</ele><time>2012-07-25T14:35:22.0000000+00:00</time></trkpt><trkpt lat="63.82549667" lon="-18.80530357"><ele>501.1</ele><time>2012-07-25T14:35:27.0000000+00:00</time></trkpt><trkpt lat="63.82549286" lon="-18.80530357"><ele>501.1</ele><time>2012-07-25T14:35:32.0000000+00:00</time></trkpt><trkpt lat="63.82548904" lon="-18.80528641"><ele>501.1</ele><time>2012-07-25T14:35:37.0000000+00:00</time></trkpt><trkpt lat="63.82543945" lon="-18.80516625"><ele>501.3</ele><time>2012-07-25T14:35:42.0000000+00:00</time></trkpt><trkpt lat="63.82540131" lon="-18.8050518"><ele>501.7</ele><time>2012-07-25T14:35:47.0000000+00:00</time></trkpt><trkpt lat="63.82537079" lon="-18.8049984"><ele>501.4</ele><time>2012-07-25T14:35:52.0000000+00:00</time></trkpt><trkpt lat="63.82535553" lon="-18.80497932"><ele>500.9</ele><time>2012-07-25T14:35:57.0000000+00:00</time></trkpt><trkpt lat="63.82535934" lon="-18.80497932"><ele>500.6</ele><time>2012-07-25T14:36:02.0000000+00:00</time></trkpt><trkpt lat="63.82535934" lon="-18.80497932"><ele>500.6</ele><time>2012-07-25T14:36:07.0000000+00:00</time></trkpt><trkpt lat="63.8253746" lon="-18.80502129"><ele>501.4</ele><time>2012-07-25T14:36:12.0000000+00:00</time></trkpt><trkpt lat="63.8253746" lon="-18.80501747"><ele>501.9</ele><time>2012-07-25T14:36:17.0000000+00:00</time></trkpt><trkpt lat="63.82537079" lon="-18.80501366"><ele>502.1</ele><time>2012-07-25T14:36:22.0000000+00:00</time></trkpt><trkpt lat="63.82536697" lon="-18.80501175"><ele>502.4</ele><time>2012-07-25T14:36:27.0000000+00:00</time></trkpt><trkpt lat="63.82536697" lon="-18.80501175"><ele>502.4</ele><time>2012-07-25T14:36:32.0000000+00:00</time></trkpt><trkpt lat="63.82536697" lon="-18.80501175"><ele>502.4</ele><time>2012-07-25T14:36:37.0000000+00:00</time></trkpt><trkpt lat="63.82536697" lon="-18.80501175"><ele>502.4</ele><time>2012-07-25T14:36:42.0000000+00:00</time></trkpt><trkpt lat="63.82536697" lon="-18.80501175"><ele>502.5</ele><time>2012-07-25T14:36:47.0000000+00:00</time></trkpt><trkpt lat="63.82536697" lon="-18.80501175"><ele>502.5</ele><time>2012-07-25T14:36:52.0000000+00:00</time></trkpt><trkpt lat="63.82536697" lon="-18.80501175"><ele>502.5</ele><time>2012-07-25T14:36:57.0000000+00:00</time></trkpt><trkpt lat="63.82536697" lon="-18.80501175"><ele>502.5</ele><time>2012-07-25T14:37:02.0000000+00:00</time></trkpt><trkpt lat="63.82536697" lon="-18.80501175"><ele>502.5</ele><time>2012-07-25T14:37:07.0000000+00:00</time></trkpt><trkpt lat="63.82536697" lon="-18.80501366"><ele>502.5</ele><time>2012-07-25T14:37:12.0000000+00:00</time></trkpt><trkpt lat="63.82536697" lon="-18.80501366"><ele>502.5</ele><time>2012-07-25T14:37:17.0000000+00:00</time></trkpt><trkpt lat="63.82536697" lon="-18.80501366"><ele>502.5</ele><time>2012-07-25T14:37:22.0000000+00:00</time></trkpt><trkpt lat="63.82537079" lon="-18.80501366"><ele>502.5</ele><time>2012-07-25T14:37:27.0000000+00:00</time></trkpt><trkpt lat="63.82543564" lon="-18.80501747"><ele>502.9</ele><time>2012-07-25T14:37:32.0000000+00:00</time></trkpt><trkpt lat="63.82550812" lon="-18.80508041"><ele>503.5</ele><time>2012-07-25T14:37:37.0000000+00:00</time></trkpt><trkpt lat="63.82555771" lon="-18.80516434"><ele>503.7</ele><time>2012-07-25T14:37:42.0000000+00:00</time></trkpt><trkpt lat="63.82555771" lon="-18.80520248"><ele>503.4</ele><time>2012-07-25T14:37:47.0000000+00:00</time></trkpt><trkpt lat="63.82556915" lon="-18.80526733"><ele>503.8</ele><time>2012-07-25T14:37:52.0000000+00:00</time></trkpt><trkpt lat="63.82562637" lon="-18.80539322"><ele>505.1</ele><time>2012-07-25T14:37:57.0000000+00:00</time></trkpt><trkpt lat="63.82567978" lon="-18.80547905"><ele>504.2</ele><time>2012-07-25T14:38:02.0000000+00:00</time></trkpt><trkpt lat="63.82569504" lon="-18.8055191"><ele>504.2</ele><time>2012-07-25T14:38:07.0000000+00:00</time></trkpt><trkpt lat="63.82569885" lon="-18.8055191"><ele>504.6</ele><time>2012-07-25T14:38:12.0000000+00:00</time></trkpt><trkpt lat="63.82569504" lon="-18.8055191"><ele>504.9</ele><time>2012-07-25T14:38:17.0000000+00:00</time></trkpt><trkpt lat="63.82569504" lon="-18.80552101"><ele>504.9</ele><time>2012-07-25T14:38:22.0000000+00:00</time></trkpt><trkpt lat="63.82569504" lon="-18.80552101"><ele>504.9</ele><time>2012-07-25T14:38:27.0000000+00:00</time></trkpt><trkpt lat="63.82569504" lon="-18.80552101"><ele>504.9</ele><time>2012-07-25T14:38:32.0000000+00:00</time></trkpt><trkpt lat="63.82569504" lon="-18.80552101"><ele>504.9</ele><time>2012-07-25T14:38:37.0000000+00:00</time></trkpt><trkpt lat="63.82569504" lon="-18.80552101"><ele>504.9</ele><time>2012-07-25T14:38:42.0000000+00:00</time></trkpt><trkpt lat="63.82569504" lon="-18.80552101"><ele>504.9</ele><time>2012-07-25T14:38:47.0000000+00:00</time></trkpt><trkpt lat="63.82569504" lon="-18.80552101"><ele>504.9</ele><time>2012-07-25T14:38:52.0000000+00:00</time></trkpt><trkpt lat="63.82569504" lon="-18.80552101"><ele>504.9</ele><time>2012-07-25T14:38:57.0000000+00:00</time></trkpt><trkpt lat="63.82569504" lon="-18.80552101"><ele>504.9</ele><time>2012-07-25T14:39:02.0000000+00:00</time></trkpt><trkpt lat="63.82569504" lon="-18.80552101"><ele>504.9</ele><time>2012-07-25T14:39:07.0000000+00:00</time></trkpt><trkpt lat="63.82569504" lon="-18.80552101"><ele>504.9</ele><time>2012-07-25T14:39:12.0000000+00:00</time></trkpt><trkpt lat="63.82569504" lon="-18.80552101"><ele>504.9</ele><time>2012-07-25T14:39:17.0000000+00:00</time></trkpt><trkpt lat="63.82569504" lon="-18.80552101"><ele>504.9</ele><time>2012-07-25T14:39:22.0000000+00:00</time></trkpt><trkpt lat="63.82569504" lon="-18.80552292"><ele>504.9</ele><time>2012-07-25T14:39:27.0000000+00:00</time></trkpt><trkpt lat="63.82569504" lon="-18.80552292"><ele>504.9</ele><time>2012-07-25T14:39:32.0000000+00:00</time></trkpt><trkpt lat="63.82566834" lon="-18.80549431"><ele>505.6</ele><time>2012-07-25T14:39:37.0000000+00:00</time></trkpt><trkpt lat="63.82566071" lon="-18.80546951"><ele>505.9</ele><time>2012-07-25T14:39:42.0000000+00:00</time></trkpt><trkpt lat="63.82566071" lon="-18.80547524"><ele>506.1</ele><time>2012-07-25T14:39:47.0000000+00:00</time></trkpt><trkpt lat="63.82567215" lon="-18.80541039"><ele>505.7</ele><time>2012-07-25T14:39:52.0000000+00:00</time></trkpt><trkpt lat="63.82563782" lon="-18.80529213"><ele>504.8</ele><time>2012-07-25T14:39:57.0000000+00:00</time></trkpt><trkpt lat="63.82559586" lon="-18.80518913"><ele>504.2</ele><time>2012-07-25T14:40:02.0000000+00:00</time></trkpt><trkpt lat="63.82554627" lon="-18.80509567"><ele>503.6</ele><time>2012-07-25T14:40:07.0000000+00:00</time></trkpt><trkpt lat="63.8255043" lon="-18.80501747"><ele>503.8</ele><time>2012-07-25T14:40:12.0000000+00:00</time></trkpt><trkpt lat="63.82544708" lon="-18.8049736"><ele>505.5</ele><time>2012-07-25T14:40:17.0000000+00:00</time></trkpt><trkpt lat="63.82538605" lon="-18.80497742"><ele>505.9</ele><time>2012-07-25T14:40:22.0000000+00:00</time></trkpt><trkpt lat="63.82536316" lon="-18.80498123"><ele>505.9</ele><time>2012-07-25T14:40:27.0000000+00:00</time></trkpt><trkpt lat="63.82535172" lon="-18.8048439"><ele>505.7</ele><time>2012-07-25T14:40:32.0000000+00:00</time></trkpt><trkpt lat="63.8253212" lon="-18.80470276"><ele>504.5</ele><time>2012-07-25T14:40:37.0000000+00:00</time></trkpt><trkpt lat="63.82531738" lon="-18.80458832"><ele>506.0</ele><time>2012-07-25T14:40:42.0000000+00:00</time></trkpt><trkpt lat="63.82527924" lon="-18.8044796"><ele>506.7</ele><time>2012-07-25T14:40:47.0000000+00:00</time></trkpt><trkpt lat="63.82523346" lon="-18.80439377"><ele>506.5</ele><time>2012-07-25T14:40:52.0000000+00:00</time></trkpt><trkpt lat="63.82518387" lon="-18.80435944"><ele>507.2</ele><time>2012-07-25T14:40:57.0000000+00:00</time></trkpt><trkpt lat="63.82516098" lon="-18.8042717"><ele>507.9</ele><time>2012-07-25T14:41:02.0000000+00:00</time></trkpt><trkpt lat="63.82514191" lon="-18.80417824"><ele>507.5</ele><time>2012-07-25T14:41:07.0000000+00:00</time></trkpt><trkpt lat="63.82513046" lon="-18.80414772"><ele>507.3</ele><time>2012-07-25T14:41:12.0000000+00:00</time></trkpt><trkpt lat="63.82513046" lon="-18.80412865"><ele>506.5</ele><time>2012-07-25T14:41:17.0000000+00:00</time></trkpt><trkpt lat="63.82513428" lon="-18.80412483"><ele>506.3</ele><time>2012-07-25T14:41:22.0000000+00:00</time></trkpt><trkpt lat="63.82513428" lon="-18.80413055"><ele>506.3</ele><time>2012-07-25T14:41:27.0000000+00:00</time></trkpt><trkpt lat="63.82513046" lon="-18.80413246"><ele>506.4</ele><time>2012-07-25T14:41:32.0000000+00:00</time></trkpt><trkpt lat="63.82514191" lon="-18.80414963"><ele>506.6</ele><time>2012-07-25T14:41:37.0000000+00:00</time></trkpt><trkpt lat="63.82513046" lon="-18.80416679"><ele>506.4</ele><time>2012-07-25T14:41:42.0000000+00:00</time></trkpt><trkpt lat="63.82513046" lon="-18.80415916"><ele>507.3</ele><time>2012-07-25T14:41:47.0000000+00:00</time></trkpt><trkpt lat="63.82513809" lon="-18.80417824"><ele>507.7</ele><time>2012-07-25T14:41:52.0000000+00:00</time></trkpt><trkpt lat="63.82514191" lon="-18.80418396"><ele>508.0</ele><time>2012-07-25T14:41:57.0000000+00:00</time></trkpt><trkpt lat="63.82514191" lon="-18.80418778"><ele>508.1</ele><time>2012-07-25T14:42:02.0000000+00:00</time></trkpt><trkpt lat="63.82513809" lon="-18.80418778"><ele>508.2</ele><time>2012-07-25T14:42:07.0000000+00:00</time></trkpt><trkpt lat="63.82514191" lon="-18.80418778"><ele>508.4</ele><time>2012-07-25T14:42:12.0000000+00:00</time></trkpt><trkpt lat="63.82514191" lon="-18.80419159"><ele>508.3</ele><time>2012-07-25T14:42:17.0000000+00:00</time></trkpt><trkpt lat="63.82514191" lon="-18.8041954"><ele>508.3</ele><time>2012-07-25T14:42:22.0000000+00:00</time></trkpt><trkpt lat="63.82514572" lon="-18.80419731"><ele>508.4</ele><time>2012-07-25T14:42:27.0000000+00:00</time></trkpt><trkpt lat="63.8251648" lon="-18.80421639"><ele>507.9</ele><time>2012-07-25T14:42:32.0000000+00:00</time></trkpt><trkpt lat="63.82516098" lon="-18.80419731"><ele>506.5</ele><time>2012-07-25T14:42:37.0000000+00:00</time></trkpt><trkpt lat="63.82516098" lon="-18.80419159"><ele>505.5</ele><time>2012-07-25T14:42:42.0000000+00:00</time></trkpt><trkpt lat="63.8251648" lon="-18.80418205"><ele>504.5</ele><time>2012-07-25T14:42:47.0000000+00:00</time></trkpt><trkpt lat="63.8251648" lon="-18.80418778"><ele>503.8</ele><time>2012-07-25T14:42:52.0000000+00:00</time></trkpt><trkpt lat="63.8251648" lon="-18.80417633"><ele>503.3</ele><time>2012-07-25T14:42:57.0000000+00:00</time></trkpt><trkpt lat="63.8251648" lon="-18.80417633"><ele>502.7</ele><time>2012-07-25T14:43:02.0000000+00:00</time></trkpt><trkpt lat="63.8251648" lon="-18.80417442"><ele>502.4</ele><time>2012-07-25T14:43:07.0000000+00:00</time></trkpt><trkpt lat="63.82514954" lon="-18.80417061"><ele>501.6</ele><time>2012-07-25T14:43:12.0000000+00:00</time></trkpt><trkpt lat="63.82514954" lon="-18.80415726"><ele>501.7</ele><time>2012-07-25T14:43:17.0000000+00:00</time></trkpt><trkpt lat="63.82514954" lon="-18.80416489"><ele>502.1</ele><time>2012-07-25T14:43:22.0000000+00:00</time></trkpt><trkpt lat="63.82514572" lon="-18.80415916"><ele>502.3</ele><time>2012-07-25T14:43:27.0000000+00:00</time></trkpt><trkpt lat="63.82514954" lon="-18.80416489"><ele>502.3</ele><time>2012-07-25T14:43:32.0000000+00:00</time></trkpt><trkpt lat="63.82515717" lon="-18.8041687"><ele>502.4</ele><time>2012-07-25T14:43:37.0000000+00:00</time></trkpt><trkpt lat="63.82515717" lon="-18.80417442"><ele>502.5</ele><time>2012-07-25T14:43:42.0000000+00:00</time></trkpt><trkpt lat="63.82516098" lon="-18.80418205"><ele>502.5</ele><time>2012-07-25T14:43:47.0000000+00:00</time></trkpt><trkpt lat="63.8251648" lon="-18.80418778"><ele>502.6</ele><time>2012-07-25T14:43:52.0000000+00:00</time></trkpt><trkpt lat="63.8251648" lon="-18.80419159"><ele>502.6</ele><time>2012-07-25T14:43:57.0000000+00:00</time></trkpt><trkpt lat="63.82516861" lon="-18.80419922"><ele>502.6</ele><time>2012-07-25T14:44:02.0000000+00:00</time></trkpt><trkpt lat="63.82516098" lon="-18.80417252"><ele>502.7</ele><time>2012-07-25T14:44:07.0000000+00:00</time></trkpt><trkpt lat="63.82515717" lon="-18.80416679"><ele>502.9</ele><time>2012-07-25T14:44:12.0000000+00:00</time></trkpt><trkpt lat="63.82515335" lon="-18.80417061"><ele>503.2</ele><time>2012-07-25T14:44:17.0000000+00:00</time></trkpt><trkpt lat="63.82515717" lon="-18.8041687"><ele>503.3</ele><time>2012-07-25T14:44:22.0000000+00:00</time></trkpt><trkpt lat="63.82516098" lon="-18.80414581"><ele>503.6</ele><time>2012-07-25T14:44:27.0000000+00:00</time></trkpt><trkpt lat="63.82517242" lon="-18.80414009"><ele>503.9</ele><time>2012-07-25T14:44:32.0000000+00:00</time></trkpt><trkpt lat="63.8251648" lon="-18.80416489"><ele>503.9</ele><time>2012-07-25T14:44:37.0000000+00:00</time></trkpt><trkpt lat="63.8251648" lon="-18.80416298"><ele>503.9</ele><time>2012-07-25T14:44:42.0000000+00:00</time></trkpt><trkpt lat="63.82516098" lon="-18.80416107"><ele>504.2</ele><time>2012-07-25T14:44:47.0000000+00:00</time></trkpt><trkpt lat="63.82515335" lon="-18.80415535"><ele>505.3</ele><time>2012-07-25T14:44:52.0000000+00:00</time></trkpt><trkpt lat="63.82515335" lon="-18.80415535"><ele>505.4</ele><time>2012-07-25T14:44:57.0000000+00:00</time></trkpt><trkpt lat="63.82513046" lon="-18.80416489"><ele>505.4</ele><time>2012-07-25T14:45:02.0000000+00:00</time></trkpt><trkpt lat="63.82513046" lon="-18.80416489"><ele>505.3</ele><time>2012-07-25T14:45:07.0000000+00:00</time></trkpt><trkpt lat="63.82513046" lon="-18.80416489"><ele>505.3</ele><time>2012-07-25T14:45:12.0000000+00:00</time></trkpt><trkpt lat="63.82512665" lon="-18.80416298"><ele>505.2</ele><time>2012-07-25T14:45:17.0000000+00:00</time></trkpt><trkpt lat="63.82512665" lon="-18.8041687"><ele>505.3</ele><time>2012-07-25T14:45:22.0000000+00:00</time></trkpt><trkpt lat="63.82512283" lon="-18.80417824"><ele>505.3</ele><time>2012-07-25T14:45:27.0000000+00:00</time></trkpt><trkpt lat="63.82512283" lon="-18.80417061"><ele>505.4</ele><time>2012-07-25T14:45:32.0000000+00:00</time></trkpt><trkpt lat="63.82511902" lon="-18.80417252"><ele>505.6</ele><time>2012-07-25T14:45:37.0000000+00:00</time></trkpt><trkpt lat="63.82511902" lon="-18.80416679"><ele>505.5</ele><time>2012-07-25T14:45:42.0000000+00:00</time></trkpt><trkpt lat="63.82511902" lon="-18.80416679"><ele>505.5</ele><time>2012-07-25T14:45:47.0000000+00:00</time></trkpt><trkpt lat="63.82512283" lon="-18.80416679"><ele>505.5</ele><time>2012-07-25T14:45:52.0000000+00:00</time></trkpt><trkpt lat="63.82511902" lon="-18.80416298"><ele>504.7</ele><time>2012-07-25T14:45:57.0000000+00:00</time></trkpt><trkpt lat="63.82511902" lon="-18.80416679"><ele>504.8</ele><time>2012-07-25T14:46:02.0000000+00:00</time></trkpt><trkpt lat="63.82511902" lon="-18.80416679"><ele>504.6</ele><time>2012-07-25T14:46:07.0000000+00:00</time></trkpt><trkpt lat="63.82511902" lon="-18.8041687"><ele>504.6</ele><time>2012-07-25T14:46:12.0000000+00:00</time></trkpt><trkpt lat="63.82511902" lon="-18.80416679"><ele>504.6</ele><time>2012-07-25T14:46:17.0000000+00:00</time></trkpt><trkpt lat="63.82511902" lon="-18.80416679"><ele>504.6</ele><time>2012-07-25T14:46:22.0000000+00:00</time></trkpt><trkpt lat="63.82511902" lon="-18.80416679"><ele>504.6</ele><time>2012-07-25T14:46:27.0000000+00:00</time></trkpt><trkpt lat="63.82511902" lon="-18.80416679"><ele>504.6</ele><time>2012-07-25T14:46:32.0000000+00:00</time></trkpt><trkpt lat="63.82511902" lon="-18.80416679"><ele>504.6</ele><time>2012-07-25T14:46:37.0000000+00:00</time></trkpt><trkpt lat="63.82511902" lon="-18.80416489"><ele>504.6</ele><time>2012-07-25T14:46:42.0000000+00:00</time></trkpt><trkpt lat="63.82511902" lon="-18.80416489"><ele>504.6</ele><time>2012-07-25T14:46:47.0000000+00:00</time></trkpt><trkpt lat="63.82511902" lon="-18.80416679"><ele>504.6</ele><time>2012-07-25T14:46:52.0000000+00:00</time></trkpt><trkpt lat="63.82511902" lon="-18.80416679"><ele>504.6</ele><time>2012-07-25T14:46:57.0000000+00:00</time></trkpt><trkpt lat="63.82512283" lon="-18.80416489"><ele>504.2</ele><time>2012-07-25T14:47:02.0000000+00:00</time></trkpt><trkpt lat="63.82512665" lon="-18.80416107"><ele>504.1</ele><time>2012-07-25T14:47:07.0000000+00:00</time></trkpt><trkpt lat="63.82512665" lon="-18.80416107"><ele>503.6</ele><time>2012-07-25T14:47:12.0000000+00:00</time></trkpt><trkpt lat="63.82512665" lon="-18.80416107"><ele>503.6</ele><time>2012-07-25T14:47:17.0000000+00:00</time></trkpt><trkpt lat="63.82512665" lon="-18.80416107"><ele>503.6</ele><time>2012-07-25T14:47:22.0000000+00:00</time></trkpt><trkpt lat="63.82512665" lon="-18.80416298"><ele>503.9</ele><time>2012-07-25T14:47:27.0000000+00:00</time></trkpt><trkpt lat="63.82513046" lon="-18.80414391"><ele>503.6</ele><time>2012-07-25T14:47:32.0000000+00:00</time></trkpt><trkpt lat="63.82513046" lon="-18.804142"><ele>503.8</ele><time>2012-07-25T14:47:37.0000000+00:00</time></trkpt><trkpt lat="63.82513046" lon="-18.804142"><ele>503.7</ele><time>2012-07-25T14:47:42.0000000+00:00</time></trkpt><trkpt lat="63.82513046" lon="-18.804142"><ele>503.7</ele><time>2012-07-25T14:47:47.0000000+00:00</time></trkpt><trkpt lat="63.82513046" lon="-18.804142"><ele>503.7</ele><time>2012-07-25T14:47:52.0000000+00:00</time></trkpt><trkpt lat="63.82513046" lon="-18.804142"><ele>503.7</ele><time>2012-07-25T14:47:57.0000000+00:00</time></trkpt><trkpt lat="63.82513046" lon="-18.804142"><ele>503.7</ele><time>2012-07-25T14:48:02.0000000+00:00</time></trkpt><trkpt lat="63.82513046" lon="-18.804142"><ele>503.7</ele><time>2012-07-25T14:48:07.0000000+00:00</time></trkpt><trkpt lat="63.82513046" lon="-18.804142"><ele>503.7</ele><time>2012-07-25T14:48:12.0000000+00:00</time></trkpt><trkpt lat="63.82513046" lon="-18.80414391"><ele>503.7</ele><time>2012-07-25T14:48:17.0000000+00:00</time></trkpt><trkpt lat="63.82513046" lon="-18.80414391"><ele>503.7</ele><time>2012-07-25T14:48:22.0000000+00:00</time></trkpt><trkpt lat="63.82513046" lon="-18.80414391"><ele>503.8</ele><time>2012-07-25T14:48:27.0000000+00:00</time></trkpt><trkpt lat="63.82513046" lon="-18.80414009"><ele>503.8</ele><time>2012-07-25T14:48:32.0000000+00:00</time></trkpt><trkpt lat="63.82513428" lon="-18.80412674"><ele>505.4</ele><time>2012-07-25T14:48:37.0000000+00:00</time></trkpt><trkpt lat="63.82514191" lon="-18.80413437"><ele>505.3</ele><time>2012-07-25T14:48:42.0000000+00:00</time></trkpt><trkpt lat="63.82514191" lon="-18.80413437"><ele>505.2</ele><time>2012-07-25T14:48:47.0000000+00:00</time></trkpt><trkpt lat="63.82514191" lon="-18.80413437"><ele>505.2</ele><time>2012-07-25T14:48:52.0000000+00:00</time></trkpt><trkpt lat="63.82514191" lon="-18.80413628"><ele>505.1</ele><time>2012-07-25T14:48:57.0000000+00:00</time></trkpt><trkpt lat="63.82514191" lon="-18.80413628"><ele>505.2</ele><time>2012-07-25T14:49:02.0000000+00:00</time></trkpt><trkpt lat="63.82514191" lon="-18.80413628"><ele>505.2</ele><time>2012-07-25T14:49:07.0000000+00:00</time></trkpt><trkpt lat="63.82514191" lon="-18.80413818"><ele>505.2</ele><time>2012-07-25T14:49:12.0000000+00:00</time></trkpt><trkpt lat="63.82514191" lon="-18.80413818"><ele>505.2</ele><time>2012-07-25T14:49:17.0000000+00:00</time></trkpt><trkpt lat="63.82514191" lon="-18.80414009"><ele>505.2</ele><time>2012-07-25T14:49:22.0000000+00:00</time></trkpt><trkpt lat="63.82514191" lon="-18.80414009"><ele>505.2</ele><time>2012-07-25T14:49:27.0000000+00:00</time></trkpt><trkpt lat="63.82514191" lon="-18.80414009"><ele>505.2</ele><time>2012-07-25T14:49:32.0000000+00:00</time></trkpt><trkpt lat="63.82514191" lon="-18.80413818"><ele>505.1</ele><time>2012-07-25T14:49:37.0000000+00:00</time></trkpt><trkpt lat="63.82511902" lon="-18.80409432"><ele>504.9</ele><time>2012-07-25T14:49:42.0000000+00:00</time></trkpt><trkpt lat="63.82509995" lon="-18.80404854"><ele>505.0</ele><time>2012-07-25T14:49:47.0000000+00:00</time></trkpt><trkpt lat="63.82509995" lon="-18.80405045"><ele>505.1</ele><time>2012-07-25T14:49:52.0000000+00:00</time></trkpt><trkpt lat="63.82509613" lon="-18.80404472"><ele>505.1</ele><time>2012-07-25T14:49:57.0000000+00:00</time></trkpt><trkpt lat="63.82509613" lon="-18.80404091"><ele>505.0</ele><time>2012-07-25T14:50:02.0000000+00:00</time></trkpt><trkpt lat="63.82509232" lon="-18.80404282"><ele>504.8</ele><time>2012-07-25T14:50:07.0000000+00:00</time></trkpt><trkpt lat="63.8250885" lon="-18.80405426"><ele>504.7</ele><time>2012-07-25T14:50:12.0000000+00:00</time></trkpt><trkpt lat="63.8250618" lon="-18.80411148"><ele>504.3</ele><time>2012-07-25T14:50:17.0000000+00:00</time></trkpt><trkpt lat="63.82502747" lon="-18.80416489"><ele>504.6</ele><time>2012-07-25T14:50:22.0000000+00:00</time></trkpt><trkpt lat="63.82500076" lon="-18.80424309"><ele>505.3</ele><time>2012-07-25T14:50:27.0000000+00:00</time></trkpt><trkpt lat="63.82497406" lon="-18.80433655"><ele>505.6</ele><time>2012-07-25T14:50:32.0000000+00:00</time></trkpt><trkpt lat="63.82495117" lon="-18.80442238"><ele>505.4</ele><time>2012-07-25T14:50:37.0000000+00:00</time></trkpt><trkpt lat="63.82495117" lon="-18.80443573"><ele>506.7</ele><time>2012-07-25T14:50:42.0000000+00:00</time></trkpt><trkpt lat="63.82495117" lon="-18.80443382"><ele>506.5</ele><time>2012-07-25T14:50:47.0000000+00:00</time></trkpt><trkpt lat="63.82495499" lon="-18.80443764"><ele>506.4</ele><time>2012-07-25T14:50:52.0000000+00:00</time></trkpt><trkpt lat="63.82495499" lon="-18.80443764"><ele>506.4</ele><time>2012-07-25T14:50:57.0000000+00:00</time></trkpt><trkpt lat="63.82495117" lon="-18.80443764"><ele>506.5</ele><time>2012-07-25T14:51:02.0000000+00:00</time></trkpt><trkpt lat="63.82495117" lon="-18.80443764"><ele>506.4</ele><time>2012-07-25T14:51:07.0000000+00:00</time></trkpt><trkpt lat="63.82495117" lon="-18.80443764"><ele>506.4</ele><time>2012-07-25T14:51:12.0000000+00:00</time></trkpt><trkpt lat="63.82495117" lon="-18.80443764"><ele>506.4</ele><time>2012-07-25T14:51:17.0000000+00:00</time></trkpt><trkpt lat="63.82495117" lon="-18.80443764"><ele>506.4</ele><time>2012-07-25T14:51:22.0000000+00:00</time></trkpt><trkpt lat="63.82495117" lon="-18.80443764"><ele>506.4</ele><time>2012-07-25T14:51:27.0000000+00:00</time></trkpt><trkpt lat="63.82495499" lon="-18.80443764"><ele>506.4</ele><time>2012-07-25T14:51:32.0000000+00:00</time></trkpt><trkpt lat="63.82495499" lon="-18.80443764"><ele>506.4</ele><time>2012-07-25T14:51:37.0000000+00:00</time></trkpt><trkpt lat="63.82495499" lon="-18.80443764"><ele>506.4</ele><time>2012-07-25T14:51:42.0000000+00:00</time></trkpt><trkpt lat="63.82495499" lon="-18.80443764"><ele>506.4</ele><time>2012-07-25T14:51:47.0000000+00:00</time></trkpt><trkpt lat="63.82495499" lon="-18.80443573"><ele>506.3</ele><time>2012-07-25T14:51:52.0000000+00:00</time></trkpt><trkpt lat="63.82495499" lon="-18.80443764"><ele>506.3</ele><time>2012-07-25T14:51:57.0000000+00:00</time></trkpt><trkpt lat="63.82495499" lon="-18.80443764"><ele>506.3</ele><time>2012-07-25T14:52:02.0000000+00:00</time></trkpt><trkpt lat="63.82495499" lon="-18.80443764"><ele>506.3</ele><time>2012-07-25T14:52:07.0000000+00:00</time></trkpt><trkpt lat="63.82495499" lon="-18.80443764"><ele>506.3</ele><time>2012-07-25T14:52:12.0000000+00:00</time></trkpt><trkpt lat="63.82495499" lon="-18.80443573"><ele>506.3</ele><time>2012-07-25T14:52:17.0000000+00:00</time></trkpt><trkpt lat="63.82495499" lon="-18.80443573"><ele>506.3</ele><time>2012-07-25T14:52:22.0000000+00:00</time></trkpt><trkpt lat="63.82495499" lon="-18.80443573"><ele>506.3</ele><time>2012-07-25T14:52:27.0000000+00:00</time></trkpt><trkpt lat="63.82495499" lon="-18.80443192"><ele>506.2</ele><time>2012-07-25T14:52:32.0000000+00:00</time></trkpt><trkpt lat="63.82495499" lon="-18.80443192"><ele>506.2</ele><time>2012-07-25T14:52:37.0000000+00:00</time></trkpt><trkpt lat="63.82495499" lon="-18.80443192"><ele>506.2</ele><time>2012-07-25T14:52:42.0000000+00:00</time></trkpt><trkpt lat="63.82495499" lon="-18.80443192"><ele>506.2</ele><time>2012-07-25T14:52:47.0000000+00:00</time></trkpt><trkpt lat="63.82495499" lon="-18.80443192"><ele>506.2</ele><time>2012-07-25T14:52:52.0000000+00:00</time></trkpt><trkpt lat="63.82495499" lon="-18.80443192"><ele>506.2</ele><time>2012-07-25T14:52:57.0000000+00:00</time></trkpt><trkpt lat="63.8249588" lon="-18.80443192"><ele>506.2</ele><time>2012-07-25T14:53:02.0000000+00:00</time></trkpt><trkpt lat="63.82497025" lon="-18.80440712"><ele>506.1</ele><time>2012-07-25T14:53:07.0000000+00:00</time></trkpt><trkpt lat="63.82500839" lon="-18.8043232"><ele>505.5</ele><time>2012-07-25T14:53:12.0000000+00:00</time></trkpt><trkpt lat="63.82503128" lon="-18.80428886"><ele>504.5</ele><time>2012-07-25T14:53:17.0000000+00:00</time></trkpt><trkpt lat="63.82506561" lon="-18.80428124"><ele>504.5</ele><time>2012-07-25T14:53:22.0000000+00:00</time></trkpt><trkpt lat="63.82510376" lon="-18.80425644"><ele>504.4</ele><time>2012-07-25T14:53:27.0000000+00:00</time></trkpt><trkpt lat="63.8251648" lon="-18.80428314"><ele>505.1</ele><time>2012-07-25T14:53:32.0000000+00:00</time></trkpt><trkpt lat="63.82521439" lon="-18.80438614"><ele>506.0</ele><time>2012-07-25T14:53:37.0000000+00:00</time></trkpt><trkpt lat="63.82527924" lon="-18.80444336"><ele>506.4</ele><time>2012-07-25T14:53:42.0000000+00:00</time></trkpt><trkpt lat="63.82530975" lon="-18.80446816"><ele>506.7</ele><time>2012-07-25T14:53:47.0000000+00:00</time></trkpt><trkpt lat="63.82535553" lon="-18.80448341"><ele>506.6</ele><time>2012-07-25T14:53:52.0000000+00:00</time></trkpt><trkpt lat="63.82538605" lon="-18.80457306"><ele>507.2</ele><time>2012-07-25T14:53:57.0000000+00:00</time></trkpt><trkpt lat="63.82540131" lon="-18.8047123"><ele>507.1</ele><time>2012-07-25T14:54:02.0000000+00:00</time></trkpt><trkpt lat="63.82542419" lon="-18.80485344"><ele>506.9</ele><time>2012-07-25T14:54:07.0000000+00:00</time></trkpt><trkpt lat="63.8254509" lon="-18.80496216"><ele>507.1</ele><time>2012-07-25T14:54:12.0000000+00:00</time></trkpt><trkpt lat="63.82546616" lon="-18.80509949"><ele>506.4</ele><time>2012-07-25T14:54:17.0000000+00:00</time></trkpt><trkpt lat="63.8254776" lon="-18.80516052"><ele>506.4</ele><time>2012-07-25T14:54:22.0000000+00:00</time></trkpt><trkpt lat="63.82551956" lon="-18.80524826"><ele>506.9</ele><time>2012-07-25T14:54:27.0000000+00:00</time></trkpt><trkpt lat="63.82555771" lon="-18.80535507"><ele>507.4</ele><time>2012-07-25T14:54:32.0000000+00:00</time></trkpt><trkpt lat="63.82556152" lon="-18.80545235"><ele>507.4</ele><time>2012-07-25T14:54:37.0000000+00:00</time></trkpt><trkpt lat="63.82556534" lon="-18.80545807"><ele>507.5</ele><time>2012-07-25T14:54:42.0000000+00:00</time></trkpt><trkpt lat="63.82556534" lon="-18.80545998"><ele>507.5</ele><time>2012-07-25T14:54:47.0000000+00:00</time></trkpt><trkpt lat="63.82556534" lon="-18.80545807"><ele>507.4</ele><time>2012-07-25T14:54:52.0000000+00:00</time></trkpt><trkpt lat="63.82556534" lon="-18.80545425"><ele>507.2</ele><time>2012-07-25T14:54:57.0000000+00:00</time></trkpt><trkpt lat="63.82556534" lon="-18.80545807"><ele>506.9</ele><time>2012-07-25T14:55:02.0000000+00:00</time></trkpt><trkpt lat="63.82556534" lon="-18.80545807"><ele>506.9</ele><time>2012-07-25T14:55:07.0000000+00:00</time></trkpt><trkpt lat="63.82556534" lon="-18.80545616"><ele>506.9</ele><time>2012-07-25T14:55:12.0000000+00:00</time></trkpt><trkpt lat="63.82555771" lon="-18.80544853"><ele>506.6</ele><time>2012-07-25T14:55:17.0000000+00:00</time></trkpt><trkpt lat="63.82554627" lon="-18.80544663"><ele>506.4</ele><time>2012-07-25T14:55:22.0000000+00:00</time></trkpt><trkpt lat="63.82554627" lon="-18.80543137"><ele>506.6</ele><time>2012-07-25T14:55:27.0000000+00:00</time></trkpt><trkpt lat="63.82554627" lon="-18.80541992"><ele>506.8</ele><time>2012-07-25T14:55:32.0000000+00:00</time></trkpt><trkpt lat="63.82554627" lon="-18.80542183"><ele>506.7</ele><time>2012-07-25T14:55:37.0000000+00:00</time></trkpt><trkpt lat="63.82554627" lon="-18.80542183"><ele>506.8</ele><time>2012-07-25T14:55:42.0000000+00:00</time></trkpt><trkpt lat="63.82554627" lon="-18.80542183"><ele>506.9</ele><time>2012-07-25T14:55:47.0000000+00:00</time></trkpt><trkpt lat="63.82554627" lon="-18.80542755"><ele>507.0</ele><time>2012-07-25T14:55:52.0000000+00:00</time></trkpt><trkpt lat="63.82555389" lon="-18.80545425"><ele>507.4</ele><time>2012-07-25T14:55:57.0000000+00:00</time></trkpt><trkpt lat="63.82555008" lon="-18.80546761"><ele>507.1</ele><time>2012-07-25T14:56:02.0000000+00:00</time></trkpt><trkpt lat="63.82554245" lon="-18.80546379"><ele>506.3</ele><time>2012-07-25T14:56:07.0000000+00:00</time></trkpt><trkpt lat="63.82552719" lon="-18.8054409"><ele>506.1</ele><time>2012-07-25T14:56:12.0000000+00:00</time></trkpt><trkpt lat="63.82552338" lon="-18.80545044"><ele>506.3</ele><time>2012-07-25T14:56:17.0000000+00:00</time></trkpt><trkpt lat="63.82552338" lon="-18.80545044"><ele>506.2</ele><time>2012-07-25T14:56:22.0000000+00:00</time></trkpt><trkpt lat="63.82552338" lon="-18.80545044"><ele>506.2</ele><time>2012-07-25T14:56:27.0000000+00:00</time></trkpt><trkpt lat="63.82552338" lon="-18.80545044"><ele>506.2</ele><time>2012-07-25T14:56:32.0000000+00:00</time></trkpt><trkpt lat="63.82552338" lon="-18.80545235"><ele>506.2</ele><time>2012-07-25T14:56:37.0000000+00:00</time></trkpt><trkpt lat="63.82552338" lon="-18.80544853"><ele>506.3</ele><time>2012-07-25T14:56:42.0000000+00:00</time></trkpt><trkpt lat="63.82553101" lon="-18.80543518"><ele>506.3</ele><time>2012-07-25T14:56:47.0000000+00:00</time></trkpt><trkpt lat="63.82553482" lon="-18.80537796"><ele>505.7</ele><time>2012-07-25T14:56:52.0000000+00:00</time></trkpt><trkpt lat="63.82553864" lon="-18.80532265"><ele>506.3</ele><time>2012-07-25T14:56:57.0000000+00:00</time></trkpt><trkpt lat="63.82553482" lon="-18.80531693"><ele>506.1</ele><time>2012-07-25T14:57:02.0000000+00:00</time></trkpt><trkpt lat="63.82553482" lon="-18.80531502"><ele>506.2</ele><time>2012-07-25T14:57:07.0000000+00:00</time></trkpt><trkpt lat="63.82553482" lon="-18.80531502"><ele>506.2</ele><time>2012-07-25T14:57:12.0000000+00:00</time></trkpt><trkpt lat="63.82553482" lon="-18.80531693"><ele>506.2</ele><time>2012-07-25T14:57:17.0000000+00:00</time></trkpt><trkpt lat="63.82553482" lon="-18.80531693"><ele>506.3</ele><time>2012-07-25T14:57:22.0000000+00:00</time></trkpt><trkpt lat="63.82553482" lon="-18.80531693"><ele>506.3</ele><time>2012-07-25T14:57:27.0000000+00:00</time></trkpt><trkpt lat="63.82553482" lon="-18.80531883"><ele>506.3</ele><time>2012-07-25T14:57:32.0000000+00:00</time></trkpt><trkpt lat="63.82553482" lon="-18.80531883"><ele>506.3</ele><time>2012-07-25T14:57:37.0000000+00:00</time></trkpt><trkpt lat="63.82553482" lon="-18.80531883"><ele>506.3</ele><time>2012-07-25T14:57:42.0000000+00:00</time></trkpt><trkpt lat="63.82553482" lon="-18.80531883"><ele>506.3</ele><time>2012-07-25T14:57:47.0000000+00:00</time></trkpt><trkpt lat="63.82553482" lon="-18.80532074"><ele>506.3</ele><time>2012-07-25T14:57:52.0000000+00:00</time></trkpt><trkpt lat="63.82553482" lon="-18.80533981"><ele>506.3</ele><time>2012-07-25T14:57:57.0000000+00:00</time></trkpt><trkpt lat="63.82554627" lon="-18.80546188"><ele>506.7</ele><time>2012-07-25T14:58:02.0000000+00:00</time></trkpt><trkpt lat="63.82554627" lon="-18.80548096"><ele>507.0</ele><time>2012-07-25T14:58:07.0000000+00:00</time></trkpt><trkpt lat="63.82554627" lon="-18.80548096"><ele>507.0</ele><time>2012-07-25T14:58:12.0000000+00:00</time></trkpt><trkpt lat="63.82554627" lon="-18.80548096"><ele>507.0</ele><time>2012-07-25T14:58:17.0000000+00:00</time></trkpt><trkpt lat="63.82555008" lon="-18.80548668"><ele>507.0</ele><time>2012-07-25T14:58:22.0000000+00:00</time></trkpt><trkpt lat="63.82555008" lon="-18.80548668"><ele>507.3</ele><time>2012-07-25T14:58:27.0000000+00:00</time></trkpt><trkpt lat="63.82555008" lon="-18.80548668"><ele>507.3</ele><time>2012-07-25T14:58:32.0000000+00:00</time></trkpt><trkpt lat="63.82555008" lon="-18.80548668"><ele>507.3</ele><time>2012-07-25T14:58:37.0000000+00:00</time></trkpt><trkpt lat="63.82555008" lon="-18.80548668"><ele>507.3</ele><time>2012-07-25T14:58:42.0000000+00:00</time></trkpt><trkpt lat="63.82555008" lon="-18.80548668"><ele>507.3</ele><time>2012-07-25T14:58:47.0000000+00:00</time></trkpt><trkpt lat="63.82555008" lon="-18.80549049"><ele>507.5</ele><time>2012-07-25T14:58:52.0000000+00:00</time></trkpt><trkpt lat="63.82555389" lon="-18.80549812"><ele>507.3</ele><time>2012-07-25T14:58:57.0000000+00:00</time></trkpt><trkpt lat="63.82554245" lon="-18.80543327"><ele>507.5</ele><time>2012-07-25T14:59:02.0000000+00:00</time></trkpt><trkpt lat="63.82556152" lon="-18.80526352"><ele>507.6</ele><time>2012-07-25T14:59:07.0000000+00:00</time></trkpt><trkpt lat="63.82556534" lon="-18.80518341"><ele>506.9</ele><time>2012-07-25T14:59:12.0000000+00:00</time></trkpt><trkpt lat="63.82555771" lon="-18.80517197"><ele>506.7</ele><time>2012-07-25T14:59:17.0000000+00:00</time></trkpt><trkpt lat="63.82556152" lon="-18.80517197"><ele>506.9</ele><time>2012-07-25T14:59:22.0000000+00:00</time></trkpt><trkpt lat="63.82556534" lon="-18.80517387"><ele>506.9</ele><time>2012-07-25T14:59:27.0000000+00:00</time></trkpt><trkpt lat="63.82556534" lon="-18.8050766"><ele>506.8</ele><time>2012-07-25T14:59:32.0000000+00:00</time></trkpt><trkpt lat="63.82555771" lon="-18.8050251"><ele>507.4</ele><time>2012-07-25T14:59:37.0000000+00:00</time></trkpt><trkpt lat="63.82555389" lon="-18.80503082"><ele>507.1</ele><time>2012-07-25T14:59:42.0000000+00:00</time></trkpt><trkpt lat="63.82553864" lon="-18.80504417"><ele>506.6</ele><time>2012-07-25T14:59:47.0000000+00:00</time></trkpt><trkpt lat="63.82555008" lon="-18.80507851"><ele>506.8</ele><time>2012-07-25T14:59:52.0000000+00:00</time></trkpt><trkpt lat="63.82556152" lon="-18.80520248"><ele>507.9</ele><time>2012-07-25T14:59:57.0000000+00:00</time></trkpt><trkpt lat="63.82556152" lon="-18.80519486"><ele>508.0</ele><time>2012-07-25T15:00:02.0000000+00:00</time></trkpt><trkpt lat="63.82556534" lon="-18.80523491"><ele>508.2</ele><time>2012-07-25T15:00:07.0000000+00:00</time></trkpt><trkpt lat="63.82556152" lon="-18.80523109"><ele>508.1</ele><time>2012-07-25T15:00:12.0000000+00:00</time></trkpt><trkpt lat="63.82556152" lon="-18.80523109"><ele>508.1</ele><time>2012-07-25T15:00:17.0000000+00:00</time></trkpt><trkpt lat="63.82556152" lon="-18.80523109"><ele>508.1</ele><time>2012-07-25T15:00:22.0000000+00:00</time></trkpt><trkpt lat="63.82556152" lon="-18.80523109"><ele>508.1</ele><time>2012-07-25T15:00:27.0000000+00:00</time></trkpt><trkpt lat="63.82556152" lon="-18.80523109"><ele>508.1</ele><time>2012-07-25T15:00:32.0000000+00:00</time></trkpt><trkpt lat="63.82556152" lon="-18.80522919"><ele>508.1</ele><time>2012-07-25T15:00:37.0000000+00:00</time></trkpt><trkpt lat="63.82556152" lon="-18.80522919"><ele>508.1</ele><time>2012-07-25T15:00:42.0000000+00:00</time></trkpt><trkpt lat="63.82556152" lon="-18.80522919"><ele>508.1</ele><time>2012-07-25T15:00:47.0000000+00:00</time></trkpt><trkpt lat="63.82555771" lon="-18.80522919"><ele>508.1</ele><time>2012-07-25T15:00:52.0000000+00:00</time></trkpt><trkpt lat="63.82555771" lon="-18.80522919"><ele>508.1</ele><time>2012-07-25T15:00:57.0000000+00:00</time></trkpt><trkpt lat="63.82555771" lon="-18.80522919"><ele>508.1</ele><time>2012-07-25T15:01:02.0000000+00:00</time></trkpt><trkpt lat="63.82555771" lon="-18.80522919"><ele>508.0</ele><time>2012-07-25T15:01:07.0000000+00:00</time></trkpt><trkpt lat="63.82555771" lon="-18.80522919"><ele>508.0</ele><time>2012-07-25T15:01:12.0000000+00:00</time></trkpt><trkpt lat="63.82555771" lon="-18.80522919"><ele>508.0</ele><time>2012-07-25T15:01:17.0000000+00:00</time></trkpt><trkpt lat="63.82555771" lon="-18.80522919"><ele>508.0</ele><time>2012-07-25T15:01:22.0000000+00:00</time></trkpt><trkpt lat="63.82555771" lon="-18.80522919"><ele>508.0</ele><time>2012-07-25T15:01:27.0000000+00:00</time></trkpt><trkpt lat="63.82555771" lon="-18.80522919"><ele>508.0</ele><time>2012-07-25T15:01:32.0000000+00:00</time></trkpt><trkpt lat="63.82555771" lon="-18.80522919"><ele>508.0</ele><time>2012-07-25T15:01:37.0000000+00:00</time></trkpt><trkpt lat="63.82555771" lon="-18.80522919"><ele>508.0</ele><time>2012-07-25T15:01:42.0000000+00:00</time></trkpt><trkpt lat="63.82556534" lon="-18.80519104"><ele>508.5</ele><time>2012-07-25T15:01:47.0000000+00:00</time></trkpt><trkpt lat="63.82557297" lon="-18.80514717"><ele>509.0</ele><time>2012-07-25T15:01:52.0000000+00:00</time></trkpt><trkpt lat="63.82553864" lon="-18.80515099"><ele>509.2</ele><time>2012-07-25T15:01:57.0000000+00:00</time></trkpt><trkpt lat="63.82553482" lon="-18.80514145"><ele>510.7</ele><time>2012-07-25T15:02:02.0000000+00:00</time></trkpt><trkpt lat="63.82553101" lon="-18.80513001"><ele>511.0</ele><time>2012-07-25T15:02:07.0000000+00:00</time></trkpt><trkpt lat="63.82553482" lon="-18.80513573"><ele>510.8</ele><time>2012-07-25T15:02:12.0000000+00:00</time></trkpt><trkpt lat="63.82553482" lon="-18.80513763"><ele>510.9</ele><time>2012-07-25T15:02:17.0000000+00:00</time></trkpt><trkpt lat="63.82553101" lon="-18.80513763"><ele>510.4</ele><time>2012-07-25T15:02:22.0000000+00:00</time></trkpt><trkpt lat="63.82553101" lon="-18.80513191"><ele>510.3</ele><time>2012-07-25T15:02:27.0000000+00:00</time></trkpt><trkpt lat="63.82553101" lon="-18.80513191"><ele>510.3</ele><time>2012-07-25T15:02:32.0000000+00:00</time></trkpt><trkpt lat="63.82553101" lon="-18.80513191"><ele>510.3</ele><time>2012-07-25T15:02:37.0000000+00:00</time></trkpt><trkpt lat="63.82553101" lon="-18.80513191"><ele>510.3</ele><time>2012-07-25T15:02:42.0000000+00:00</time></trkpt><trkpt lat="63.82553101" lon="-18.80513191"><ele>510.3</ele><time>2012-07-25T15:02:47.0000000+00:00</time></trkpt><trkpt lat="63.82553101" lon="-18.80513191"><ele>510.3</ele><time>2012-07-25T15:02:52.0000000+00:00</time></trkpt><trkpt lat="63.82553101" lon="-18.80513191"><ele>510.3</ele><time>2012-07-25T15:02:57.0000000+00:00</time></trkpt><trkpt lat="63.82553101" lon="-18.80513191"><ele>510.3</ele><time>2012-07-25T15:03:02.0000000+00:00</time></trkpt><trkpt lat="63.82553101" lon="-18.80513191"><ele>510.3</ele><time>2012-07-25T15:03:07.0000000+00:00</time></trkpt><trkpt lat="63.82553101" lon="-18.80513382"><ele>510.3</ele><time>2012-07-25T15:03:12.0000000+00:00</time></trkpt><trkpt lat="63.82555389" lon="-18.80513954"><ele>510.2</ele><time>2012-07-25T15:03:17.0000000+00:00</time></trkpt><trkpt lat="63.82553864" lon="-18.80515289"><ele>509.2</ele><time>2012-07-25T15:03:22.0000000+00:00</time></trkpt><trkpt lat="63.82550049" lon="-18.80511093"><ele>509.2</ele><time>2012-07-25T15:03:27.0000000+00:00</time></trkpt><trkpt lat="63.82548523" lon="-18.80511475"><ele>509.1</ele><time>2012-07-25T15:03:32.0000000+00:00</time></trkpt><trkpt lat="63.82548904" lon="-18.8052845"><ele>509.2</ele><time>2012-07-25T15:03:37.0000000+00:00</time></trkpt><trkpt lat="63.8254509" lon="-18.80547142"><ele>509.0</ele><time>2012-07-25T15:03:42.0000000+00:00</time></trkpt><trkpt lat="63.82543564" lon="-18.80564499"><ele>508.7</ele><time>2012-07-25T15:03:47.0000000+00:00</time></trkpt><trkpt lat="63.82543182" lon="-18.80584717"><ele>508.6</ele><time>2012-07-25T15:03:52.0000000+00:00</time></trkpt><trkpt lat="63.82543945" lon="-18.80596924"><ele>508.9</ele><time>2012-07-25T15:03:57.0000000+00:00</time></trkpt><trkpt lat="63.82540894" lon="-18.80613899"><ele>508.8</ele><time>2012-07-25T15:04:02.0000000+00:00</time></trkpt><trkpt lat="63.82537079" lon="-18.80633545"><ele>509.6</ele><time>2012-07-25T15:04:07.0000000+00:00</time></trkpt><trkpt lat="63.82528305" lon="-18.80644798"><ele>509.7</ele><time>2012-07-25T15:04:12.0000000+00:00</time></trkpt><trkpt lat="63.8251915" lon="-18.80649376"><ele>509.0</ele><time>2012-07-25T15:04:17.0000000+00:00</time></trkpt><trkpt lat="63.82509995" lon="-18.80656242"><ele>507.7</ele><time>2012-07-25T15:04:22.0000000+00:00</time></trkpt><trkpt lat="63.8249855" lon="-18.80657768"><ele>507.0</ele><time>2012-07-25T15:04:27.0000000+00:00</time></trkpt><trkpt lat="63.82487488" lon="-18.80658722"><ele>507.6</ele><time>2012-07-25T15:04:32.0000000+00:00</time></trkpt><trkpt lat="63.8247757" lon="-18.80656815"><ele>509.0</ele><time>2012-07-25T15:04:37.0000000+00:00</time></trkpt><trkpt lat="63.82470703" lon="-18.8066349"><ele>510.1</ele><time>2012-07-25T15:04:42.0000000+00:00</time></trkpt><trkpt lat="63.82463074" lon="-18.80665207"><ele>509.8</ele><time>2012-07-25T15:04:47.0000000+00:00</time></trkpt><trkpt lat="63.82456207" lon="-18.80676079"><ele>510.7</ele><time>2012-07-25T15:04:52.0000000+00:00</time></trkpt><trkpt lat="63.82452774" lon="-18.80676651"><ele>513.0</ele><time>2012-07-25T15:04:57.0000000+00:00</time></trkpt><trkpt lat="63.82452774" lon="-18.80674934"><ele>513.0</ele><time>2012-07-25T15:05:02.0000000+00:00</time></trkpt><trkpt lat="63.82452774" lon="-18.80674362"><ele>513.1</ele><time>2012-07-25T15:05:07.0000000+00:00</time></trkpt><trkpt lat="63.82453156" lon="-18.80674934"><ele>513.1</ele><time>2012-07-25T15:05:12.0000000+00:00</time></trkpt><trkpt lat="63.82453156" lon="-18.80674553"><ele>513.1</ele><time>2012-07-25T15:05:17.0000000+00:00</time></trkpt><trkpt lat="63.82453156" lon="-18.80675507"><ele>513.1</ele><time>2012-07-25T15:05:22.0000000+00:00</time></trkpt><trkpt lat="63.82453156" lon="-18.8067627"><ele>513.1</ele><time>2012-07-25T15:05:27.0000000+00:00</time></trkpt><trkpt lat="63.82453156" lon="-18.80677223"><ele>513.1</ele><time>2012-07-25T15:05:32.0000000+00:00</time></trkpt><trkpt lat="63.82452774" lon="-18.80677795"><ele>513.0</ele><time>2012-07-25T15:05:37.0000000+00:00</time></trkpt><trkpt lat="63.82452774" lon="-18.80677605"><ele>513.0</ele><time>2012-07-25T15:05:42.0000000+00:00</time></trkpt><trkpt lat="63.82452774" lon="-18.80677986"><ele>512.9</ele><time>2012-07-25T15:05:47.0000000+00:00</time></trkpt><trkpt lat="63.82452774" lon="-18.80677605"><ele>513.0</ele><time>2012-07-25T15:05:52.0000000+00:00</time></trkpt><trkpt lat="63.82452774" lon="-18.80677795"><ele>512.9</ele><time>2012-07-25T15:05:57.0000000+00:00</time></trkpt><trkpt lat="63.82452774" lon="-18.80677795"><ele>512.9</ele><time>2012-07-25T15:06:02.0000000+00:00</time></trkpt><trkpt lat="63.82452774" lon="-18.80677986"><ele>512.9</ele><time>2012-07-25T15:06:07.0000000+00:00</time></trkpt><trkpt lat="63.82452774" lon="-18.80677986"><ele>512.9</ele><time>2012-07-25T15:06:12.0000000+00:00</time></trkpt><trkpt lat="63.82452774" lon="-18.80677605"><ele>512.7</ele><time>2012-07-25T15:06:17.0000000+00:00</time></trkpt><trkpt lat="63.82453156" lon="-18.80676842"><ele>512.8</ele><time>2012-07-25T15:06:22.0000000+00:00</time></trkpt><trkpt lat="63.82452774" lon="-18.80676651"><ele>513.3</ele><time>2012-07-25T15:06:27.0000000+00:00</time></trkpt><trkpt lat="63.82452774" lon="-18.80678368"><ele>513.5</ele><time>2012-07-25T15:06:32.0000000+00:00</time></trkpt><trkpt lat="63.82455063" lon="-18.80681419"><ele>513.8</ele><time>2012-07-25T15:06:37.0000000+00:00</time></trkpt><trkpt lat="63.82453919" lon="-18.80680466"><ele>511.7</ele><time>2012-07-25T15:06:42.0000000+00:00</time></trkpt><trkpt lat="63.82453919" lon="-18.80680847"><ele>511.4</ele><time>2012-07-25T15:06:47.0000000+00:00</time></trkpt><trkpt lat="63.82453919" lon="-18.80680847"><ele>511.4</ele><time>2012-07-25T15:06:52.0000000+00:00</time></trkpt><trkpt lat="63.82452774" lon="-18.80682755"><ele>507.0</ele><time>2012-07-25T15:06:57.0000000+00:00</time></trkpt><trkpt lat="63.82454681" lon="-18.80683327"><ele>507.4</ele><time>2012-07-25T15:07:02.0000000+00:00</time></trkpt><trkpt lat="63.82455826" lon="-18.80685043"><ele>508.5</ele><time>2012-07-25T15:07:07.0000000+00:00</time></trkpt><trkpt lat="63.82455444" lon="-18.8068428"><ele>508.6</ele><time>2012-07-25T15:07:12.0000000+00:00</time></trkpt><trkpt lat="63.82455444" lon="-18.80683136"><ele>509.0</ele><time>2012-07-25T15:07:17.0000000+00:00</time></trkpt><trkpt lat="63.82455826" lon="-18.80684471"><ele>509.8</ele><time>2012-07-25T15:07:22.0000000+00:00</time></trkpt><trkpt lat="63.82456589" lon="-18.80682373"><ele>510.2</ele><time>2012-07-25T15:07:27.0000000+00:00</time></trkpt><trkpt lat="63.82461929" lon="-18.80681992"><ele>510.1</ele><time>2012-07-25T15:07:32.0000000+00:00</time></trkpt><trkpt lat="63.8246727" lon="-18.80679894"><ele>509.4</ele><time>2012-07-25T15:07:37.0000000+00:00</time></trkpt><trkpt lat="63.82468414" lon="-18.80679703"><ele>509.1</ele><time>2012-07-25T15:07:42.0000000+00:00</time></trkpt><trkpt lat="63.82468033" lon="-18.80679512"><ele>509.0</ele><time>2012-07-25T15:07:47.0000000+00:00</time></trkpt><trkpt lat="63.82468033" lon="-18.80679512"><ele>509.0</ele><time>2012-07-25T15:07:52.0000000+00:00</time></trkpt><trkpt lat="63.82468033" lon="-18.80679512"><ele>509.0</ele><time>2012-07-25T15:07:57.0000000+00:00</time></trkpt><trkpt lat="63.82468033" lon="-18.80679512"><ele>509.0</ele><time>2012-07-25T15:08:02.0000000+00:00</time></trkpt><trkpt lat="63.82468033" lon="-18.80677414"><ele>508.8</ele><time>2012-07-25T15:08:07.0000000+00:00</time></trkpt><trkpt lat="63.82463837" lon="-18.80677033"><ele>509.3</ele><time>2012-07-25T15:08:12.0000000+00:00</time></trkpt><trkpt lat="63.82459641" lon="-18.80681801"><ele>509.8</ele><time>2012-07-25T15:08:17.0000000+00:00</time></trkpt><trkpt lat="63.8245697" lon="-18.80687332"><ele>510.5</ele><time>2012-07-25T15:08:22.0000000+00:00</time></trkpt><trkpt lat="63.82458115" lon="-18.80685234"><ele>509.7</ele><time>2012-07-25T15:08:27.0000000+00:00</time></trkpt><trkpt lat="63.82463074" lon="-18.80680847"><ele>509.3</ele><time>2012-07-25T15:08:32.0000000+00:00</time></trkpt><trkpt lat="63.82466126" lon="-18.80676079"><ele>509.3</ele><time>2012-07-25T15:08:37.0000000+00:00</time></trkpt><trkpt lat="63.82464981" lon="-18.80675888"><ele>509.6</ele><time>2012-07-25T15:08:42.0000000+00:00</time></trkpt><trkpt lat="63.824646" lon="-18.80672836"><ele>509.9</ele><time>2012-07-25T15:08:47.0000000+00:00</time></trkpt><trkpt lat="63.82464981" lon="-18.80672836"><ele>509.9</ele><time>2012-07-25T15:08:52.0000000+00:00</time></trkpt><trkpt lat="63.824646" lon="-18.80672836"><ele>510.0</ele><time>2012-07-25T15:08:57.0000000+00:00</time></trkpt><trkpt lat="63.82464981" lon="-18.80672836"><ele>510.0</ele><time>2012-07-25T15:09:02.0000000+00:00</time></trkpt><trkpt lat="63.824646" lon="-18.80672836"><ele>510.0</ele><time>2012-07-25T15:09:07.0000000+00:00</time></trkpt><trkpt lat="63.824646" lon="-18.80672836"><ele>510.0</ele><time>2012-07-25T15:09:12.0000000+00:00</time></trkpt><trkpt lat="63.82464981" lon="-18.80672836"><ele>510.0</ele><time>2012-07-25T15:09:17.0000000+00:00</time></trkpt><trkpt lat="63.824646" lon="-18.80672836"><ele>510.1</ele><time>2012-07-25T15:09:22.0000000+00:00</time></trkpt><trkpt lat="63.82459259" lon="-18.80681419"><ele>510.9</ele><time>2012-07-25T15:09:27.0000000+00:00</time></trkpt><trkpt lat="63.82456589" lon="-18.80684471"><ele>511.0</ele><time>2012-07-25T15:09:32.0000000+00:00</time></trkpt><trkpt lat="63.82456589" lon="-18.8068428"><ele>511.2</ele><time>2012-07-25T15:09:37.0000000+00:00</time></trkpt><trkpt lat="63.8245697" lon="-18.8068409"><ele>511.2</ele><time>2012-07-25T15:09:42.0000000+00:00</time></trkpt><trkpt lat="63.82456589" lon="-18.80684471"><ele>511.2</ele><time>2012-07-25T15:09:47.0000000+00:00</time></trkpt><trkpt lat="63.82456589" lon="-18.80684471"><ele>511.2</ele><time>2012-07-25T15:09:52.0000000+00:00</time></trkpt><trkpt lat="63.82456589" lon="-18.80684471"><ele>511.2</ele><time>2012-07-25T15:09:57.0000000+00:00</time></trkpt><trkpt lat="63.82457352" lon="-18.8068676"><ele>510.9</ele><time>2012-07-25T15:10:02.0000000+00:00</time></trkpt><trkpt lat="63.82453919" lon="-18.80698967"><ele>511.3</ele><time>2012-07-25T15:10:07.0000000+00:00</time></trkpt><trkpt lat="63.82450485" lon="-18.80713654"><ele>511.7</ele><time>2012-07-25T15:10:12.0000000+00:00</time></trkpt><trkpt lat="63.82448959" lon="-18.80717278"><ele>511.0</ele><time>2012-07-25T15:10:17.0000000+00:00</time></trkpt><trkpt lat="63.8245163" lon="-18.80703735"><ele>511.3</ele><time>2012-07-25T15:10:22.0000000+00:00</time></trkpt><trkpt lat="63.82455826" lon="-18.80688858"><ele>511.7</ele><time>2012-07-25T15:10:27.0000000+00:00</time></trkpt><trkpt lat="63.82458115" lon="-18.80683708"><ele>512.0</ele><time>2012-07-25T15:10:32.0000000+00:00</time></trkpt><trkpt lat="63.82457352" lon="-18.80687904"><ele>511.5</ele><time>2012-07-25T15:10:37.0000000+00:00</time></trkpt><trkpt lat="63.82453919" lon="-18.80700111"><ele>511.7</ele><time>2012-07-25T15:10:42.0000000+00:00</time></trkpt><trkpt lat="63.82452011" lon="-18.80706215"><ele>512.0</ele><time>2012-07-25T15:10:47.0000000+00:00</time></trkpt><trkpt lat="63.82452011" lon="-18.80704689"><ele>511.0</ele><time>2012-07-25T15:10:52.0000000+00:00</time></trkpt><trkpt lat="63.82452011" lon="-18.80704689"><ele>511.0</ele><time>2012-07-25T15:10:57.0000000+00:00</time></trkpt><trkpt lat="63.8245163" lon="-18.80704498"><ele>510.9</ele><time>2012-07-25T15:11:02.0000000+00:00</time></trkpt><trkpt lat="63.8245163" lon="-18.80704498"><ele>510.9</ele><time>2012-07-25T15:11:07.0000000+00:00</time></trkpt><trkpt lat="63.8245163" lon="-18.80704498"><ele>510.9</ele><time>2012-07-25T15:11:12.0000000+00:00</time></trkpt><trkpt lat="63.82449722" lon="-18.80716515"><ele>511.7</ele><time>2012-07-25T15:11:17.0000000+00:00</time></trkpt><trkpt lat="63.82450485" lon="-18.80718803"><ele>512.7</ele><time>2012-07-25T15:11:22.0000000+00:00</time></trkpt><trkpt lat="63.82450867" lon="-18.80717468"><ele>512.0</ele><time>2012-07-25T15:11:27.0000000+00:00</time></trkpt><trkpt lat="63.82450867" lon="-18.80717278"><ele>511.9</ele><time>2012-07-25T15:11:32.0000000+00:00</time></trkpt><trkpt lat="63.82450867" lon="-18.80716896"><ele>511.7</ele><time>2012-07-25T15:11:37.0000000+00:00</time></trkpt><trkpt lat="63.82450867" lon="-18.80716896"><ele>511.7</ele><time>2012-07-25T15:11:42.0000000+00:00</time></trkpt><trkpt lat="63.82450867" lon="-18.80716896"><ele>511.7</ele><time>2012-07-25T15:11:47.0000000+00:00</time></trkpt><trkpt lat="63.82450867" lon="-18.80716896"><ele>511.7</ele><time>2012-07-25T15:11:52.0000000+00:00</time></trkpt><trkpt lat="63.82450867" lon="-18.80716705"><ele>511.7</ele><time>2012-07-25T15:11:57.0000000+00:00</time></trkpt><trkpt lat="63.82450867" lon="-18.80716705"><ele>511.7</ele><time>2012-07-25T15:12:02.0000000+00:00</time></trkpt><trkpt lat="63.82450867" lon="-18.80716705"><ele>511.7</ele><time>2012-07-25T15:12:07.0000000+00:00</time></trkpt><trkpt lat="63.82450867" lon="-18.80716705"><ele>511.8</ele><time>2012-07-25T15:12:12.0000000+00:00</time></trkpt><trkpt lat="63.82450485" lon="-18.80716705"><ele>511.8</ele><time>2012-07-25T15:12:17.0000000+00:00</time></trkpt><trkpt lat="63.82450485" lon="-18.80716705"><ele>511.8</ele><time>2012-07-25T15:12:22.0000000+00:00</time></trkpt><trkpt lat="63.82450485" lon="-18.80716515"><ele>511.8</ele><time>2012-07-25T15:12:27.0000000+00:00</time></trkpt><trkpt lat="63.82450485" lon="-18.80716515"><ele>511.8</ele><time>2012-07-25T15:12:32.0000000+00:00</time></trkpt><trkpt lat="63.82450485" lon="-18.80716515"><ele>511.8</ele><time>2012-07-25T15:12:37.0000000+00:00</time></trkpt><trkpt lat="63.82450485" lon="-18.80716515"><ele>511.8</ele><time>2012-07-25T15:12:42.0000000+00:00</time></trkpt><trkpt lat="63.82450485" lon="-18.80716515"><ele>511.8</ele><time>2012-07-25T15:12:47.0000000+00:00</time></trkpt><trkpt lat="63.82450485" lon="-18.80716515"><ele>511.8</ele><time>2012-07-25T15:12:52.0000000+00:00</time></trkpt><trkpt lat="63.82450485" lon="-18.80716515"><ele>511.8</ele><time>2012-07-25T15:12:57.0000000+00:00</time></trkpt><trkpt lat="63.82450485" lon="-18.80716515"><ele>511.8</ele><time>2012-07-25T15:13:02.0000000+00:00</time></trkpt><trkpt lat="63.82450485" lon="-18.80716515"><ele>511.8</ele><time>2012-07-25T15:13:07.0000000+00:00</time></trkpt><trkpt lat="63.82450485" lon="-18.80716515"><ele>511.7</ele><time>2012-07-25T15:13:12.0000000+00:00</time></trkpt><trkpt lat="63.82450485" lon="-18.80716515"><ele>511.7</ele><time>2012-07-25T15:13:17.0000000+00:00</time></trkpt><trkpt lat="63.82450485" lon="-18.80716515"><ele>511.7</ele><time>2012-07-25T15:13:22.0000000+00:00</time></trkpt><trkpt lat="63.82450485" lon="-18.80716515"><ele>511.7</ele><time>2012-07-25T15:13:27.0000000+00:00</time></trkpt><trkpt lat="63.82450485" lon="-18.80716515"><ele>511.7</ele><time>2012-07-25T15:13:32.0000000+00:00</time></trkpt><trkpt lat="63.82450485" lon="-18.80716324"><ele>511.4</ele><time>2012-07-25T15:13:37.0000000+00:00</time></trkpt><trkpt lat="63.82450485" lon="-18.80716324"><ele>511.3</ele><time>2012-07-25T15:13:42.0000000+00:00</time></trkpt><trkpt lat="63.82450485" lon="-18.80716324"><ele>511.3</ele><time>2012-07-25T15:13:47.0000000+00:00</time></trkpt><trkpt lat="63.82450485" lon="-18.80716324"><ele>511.3</ele><time>2012-07-25T15:13:52.0000000+00:00</time></trkpt><trkpt lat="63.82450104" lon="-18.80716324"><ele>511.3</ele><time>2012-07-25T15:13:57.0000000+00:00</time></trkpt><trkpt lat="63.82450104" lon="-18.80716324"><ele>511.3</ele><time>2012-07-25T15:14:02.0000000+00:00</time></trkpt><trkpt lat="63.82450104" lon="-18.80716324"><ele>511.3</ele><time>2012-07-25T15:14:07.0000000+00:00</time></trkpt><trkpt lat="63.82450104" lon="-18.80716324"><ele>511.3</ele><time>2012-07-25T15:14:12.0000000+00:00</time></trkpt><trkpt lat="63.82450104" lon="-18.80716324"><ele>511.3</ele><time>2012-07-25T15:14:17.0000000+00:00</time></trkpt><trkpt lat="63.82450104" lon="-18.80716324"><ele>511.3</ele><time>2012-07-25T15:14:22.0000000+00:00</time></trkpt><trkpt lat="63.82450104" lon="-18.80716324"><ele>511.3</ele><time>2012-07-25T15:14:27.0000000+00:00</time></trkpt><trkpt lat="63.82450104" lon="-18.80716324"><ele>511.3</ele><time>2012-07-25T15:14:32.0000000+00:00</time></trkpt><trkpt lat="63.82450104" lon="-18.80716324"><ele>511.3</ele><time>2012-07-25T15:14:37.0000000+00:00</time></trkpt><trkpt lat="63.82450104" lon="-18.80716324"><ele>511.3</ele><time>2012-07-25T15:14:42.0000000+00:00</time></trkpt><trkpt lat="63.82450104" lon="-18.80716324"><ele>511.3</ele><time>2012-07-25T15:14:47.0000000+00:00</time></trkpt><trkpt lat="63.82450867" lon="-18.80718422"><ele>511.2</ele><time>2012-07-25T15:14:52.0000000+00:00</time></trkpt><trkpt lat="63.82450485" lon="-18.80719376"><ele>510.8</ele><time>2012-07-25T15:14:57.0000000+00:00</time></trkpt><trkpt lat="63.82450485" lon="-18.80719376"><ele>510.8</ele><time>2012-07-25T15:15:02.0000000+00:00</time></trkpt><trkpt lat="63.82450485" lon="-18.80719376"><ele>510.8</ele><time>2012-07-25T15:15:07.0000000+00:00</time></trkpt><trkpt lat="63.82450485" lon="-18.80719376"><ele>510.8</ele><time>2012-07-25T15:15:12.0000000+00:00</time></trkpt><trkpt lat="63.82450485" lon="-18.80719566"><ele>510.8</ele><time>2012-07-25T15:15:17.0000000+00:00</time></trkpt><trkpt lat="63.82450485" lon="-18.80719566"><ele>510.8</ele><time>2012-07-25T15:15:22.0000000+00:00</time></trkpt><trkpt lat="63.82449722" lon="-18.8071785"><ele>510.4</ele><time>2012-07-25T15:15:27.0000000+00:00</time></trkpt><trkpt lat="63.82449722" lon="-18.80717087"><ele>508.7</ele><time>2012-07-25T15:15:32.0000000+00:00</time></trkpt><trkpt lat="63.82449341" lon="-18.80716515"><ele>508.9</ele><time>2012-07-25T15:15:37.0000000+00:00</time></trkpt><trkpt lat="63.82449341" lon="-18.80716515"><ele>509.4</ele><time>2012-07-25T15:15:42.0000000+00:00</time></trkpt><trkpt lat="63.82449341" lon="-18.80715942"><ele>509.6</ele><time>2012-07-25T15:15:47.0000000+00:00</time></trkpt><trkpt lat="63.82448959" lon="-18.80715752"><ele>509.7</ele><time>2012-07-25T15:15:52.0000000+00:00</time></trkpt><trkpt lat="63.82449341" lon="-18.80715752"><ele>509.7</ele><time>2012-07-25T15:15:57.0000000+00:00</time></trkpt><trkpt lat="63.82449341" lon="-18.80715752"><ele>509.7</ele><time>2012-07-25T15:16:02.0000000+00:00</time></trkpt><trkpt lat="63.82449341" lon="-18.80715752"><ele>509.8</ele><time>2012-07-25T15:16:07.0000000+00:00</time></trkpt><trkpt lat="63.82450867" lon="-18.80717087"><ele>510.5</ele><time>2012-07-25T15:16:12.0000000+00:00</time></trkpt><trkpt lat="63.82450867" lon="-18.80714798"><ele>510.6</ele><time>2012-07-25T15:16:17.0000000+00:00</time></trkpt><trkpt lat="63.82451248" lon="-18.80714417"><ele>510.7</ele><time>2012-07-25T15:16:22.0000000+00:00</time></trkpt><trkpt lat="63.82451248" lon="-18.80714226"><ele>510.9</ele><time>2012-07-25T15:16:27.0000000+00:00</time></trkpt><trkpt lat="63.82451248" lon="-18.80714226"><ele>510.9</ele><time>2012-07-25T15:16:32.0000000+00:00</time></trkpt><trkpt lat="63.82451248" lon="-18.80714226"><ele>510.9</ele><time>2012-07-25T15:16:37.0000000+00:00</time></trkpt><trkpt lat="63.82451248" lon="-18.80714226"><ele>510.8</ele><time>2012-07-25T15:16:42.0000000+00:00</time></trkpt><trkpt lat="63.82451248" lon="-18.80714226"><ele>510.8</ele><time>2012-07-25T15:16:47.0000000+00:00</time></trkpt><trkpt lat="63.82451248" lon="-18.80714417"><ele>510.8</ele><time>2012-07-25T15:16:52.0000000+00:00</time></trkpt><trkpt lat="63.82451248" lon="-18.80714417"><ele>510.8</ele><time>2012-07-25T15:16:57.0000000+00:00</time></trkpt><trkpt lat="63.82451248" lon="-18.80714226"><ele>510.8</ele><time>2012-07-25T15:17:02.0000000+00:00</time></trkpt><trkpt lat="63.82451248" lon="-18.80714035"><ele>510.7</ele><time>2012-07-25T15:17:07.0000000+00:00</time></trkpt><trkpt lat="63.82451248" lon="-18.80714035"><ele>510.6</ele><time>2012-07-25T15:17:12.0000000+00:00</time></trkpt><trkpt lat="63.82451248" lon="-18.80714035"><ele>510.6</ele><time>2012-07-25T15:17:17.0000000+00:00</time></trkpt><trkpt lat="63.82451248" lon="-18.80714035"><ele>510.5</ele><time>2012-07-25T15:17:22.0000000+00:00</time></trkpt><trkpt lat="63.82451248" lon="-18.80714035"><ele>510.5</ele><time>2012-07-25T15:17:27.0000000+00:00</time></trkpt><trkpt lat="63.82451248" lon="-18.80714035"><ele>510.5</ele><time>2012-07-25T15:17:32.0000000+00:00</time></trkpt><trkpt lat="63.82448959" lon="-18.80713463"><ele>509.7</ele><time>2012-07-25T15:17:37.0000000+00:00</time></trkpt><trkpt lat="63.82447815" lon="-18.80709076"><ele>510.3</ele><time>2012-07-25T15:17:42.0000000+00:00</time></trkpt><trkpt lat="63.82451248" lon="-18.80714417"><ele>509.8</ele><time>2012-07-25T15:17:47.0000000+00:00</time></trkpt><trkpt lat="63.82452011" lon="-18.80719376"><ele>507.9</ele><time>2012-07-25T15:17:52.0000000+00:00</time></trkpt><trkpt lat="63.8245163" lon="-18.80718422"><ele>506.7</ele><time>2012-07-25T15:17:57.0000000+00:00</time></trkpt><trkpt lat="63.82450485" lon="-18.80717278"><ele>506.9</ele><time>2012-07-25T15:18:02.0000000+00:00</time></trkpt><trkpt lat="63.82450485" lon="-18.80717659"><ele>506.8</ele><time>2012-07-25T15:18:07.0000000+00:00</time></trkpt><trkpt lat="63.82445908" lon="-18.80713654"><ele>506.3</ele><time>2012-07-25T15:18:12.0000000+00:00</time></trkpt><trkpt lat="63.82444382" lon="-18.80712128"><ele>504.4</ele><time>2012-07-25T15:18:17.0000000+00:00</time></trkpt><trkpt lat="63.82444382" lon="-18.80715942"><ele>504.5</ele><time>2012-07-25T15:18:22.0000000+00:00</time></trkpt><trkpt lat="63.82444382" lon="-18.80714798"><ele>504.4</ele><time>2012-07-25T15:18:27.0000000+00:00</time></trkpt><trkpt lat="63.82444382" lon="-18.80713654"><ele>504.8</ele><time>2012-07-25T15:18:32.0000000+00:00</time></trkpt><trkpt lat="63.82444" lon="-18.80713081"><ele>505.4</ele><time>2012-07-25T15:18:37.0000000+00:00</time></trkpt><trkpt lat="63.82444382" lon="-18.80712509"><ele>505.5</ele><time>2012-07-25T15:18:42.0000000+00:00</time></trkpt><trkpt lat="63.82446671" lon="-18.80713081"><ele>507.0</ele><time>2012-07-25T15:18:47.0000000+00:00</time></trkpt><trkpt lat="63.82448959" lon="-18.80719757"><ele>507.8</ele><time>2012-07-25T15:18:52.0000000+00:00</time></trkpt><trkpt lat="63.82449341" lon="-18.80722237"><ele>507.1</ele><time>2012-07-25T15:18:57.0000000+00:00</time></trkpt><trkpt lat="63.82447052" lon="-18.80716133"><ele>507.4</ele><time>2012-07-25T15:19:02.0000000+00:00</time></trkpt><trkpt lat="63.82444763" lon="-18.80712891"><ele>507.9</ele><time>2012-07-25T15:19:07.0000000+00:00</time></trkpt><trkpt lat="63.82444763" lon="-18.80712318"><ele>507.6</ele><time>2012-07-25T15:19:12.0000000+00:00</time></trkpt><trkpt lat="63.82444763" lon="-18.80712128"><ele>509.1</ele><time>2012-07-25T15:19:17.0000000+00:00</time></trkpt><trkpt lat="63.82448578" lon="-18.8071537"><ele>509.3</ele><time>2012-07-25T15:19:22.0000000+00:00</time></trkpt><trkpt lat="63.82449341" lon="-18.80714798"><ele>509.7</ele><time>2012-07-25T15:19:27.0000000+00:00</time></trkpt><trkpt lat="63.82445908" lon="-18.80709076"><ele>509.5</ele><time>2012-07-25T15:19:32.0000000+00:00</time></trkpt><trkpt lat="63.82445526" lon="-18.80708885"><ele>509.7</ele><time>2012-07-25T15:19:37.0000000+00:00</time></trkpt><trkpt lat="63.82445145" lon="-18.80709267"><ele>509.1</ele><time>2012-07-25T15:19:42.0000000+00:00</time></trkpt><trkpt lat="63.82445145" lon="-18.80708504"><ele>508.8</ele><time>2012-07-25T15:19:47.0000000+00:00</time></trkpt><trkpt lat="63.82444763" lon="-18.80708313"><ele>508.6</ele><time>2012-07-25T15:19:52.0000000+00:00</time></trkpt><trkpt lat="63.82444763" lon="-18.80708122"><ele>508.5</ele><time>2012-07-25T15:19:57.0000000+00:00</time></trkpt><trkpt lat="63.82445145" lon="-18.80708504"><ele>508.7</ele><time>2012-07-25T15:20:02.0000000+00:00</time></trkpt><trkpt lat="63.82445145" lon="-18.80709076"><ele>508.5</ele><time>2012-07-25T15:20:07.0000000+00:00</time></trkpt><trkpt lat="63.82445526" lon="-18.80709076"><ele>508.2</ele><time>2012-07-25T15:20:12.0000000+00:00</time></trkpt><trkpt lat="63.82445526" lon="-18.80709076"><ele>508.2</ele><time>2012-07-25T15:20:17.0000000+00:00</time></trkpt><trkpt lat="63.82445526" lon="-18.80709267"><ele>508.2</ele><time>2012-07-25T15:20:22.0000000+00:00</time></trkpt><trkpt lat="63.82445526" lon="-18.80709267"><ele>508.3</ele><time>2012-07-25T15:20:27.0000000+00:00</time></trkpt><trkpt lat="63.82445526" lon="-18.80709267"><ele>508.3</ele><time>2012-07-25T15:20:32.0000000+00:00</time></trkpt><trkpt lat="63.82445526" lon="-18.80709076"><ele>508.3</ele><time>2012-07-25T15:20:37.0000000+00:00</time></trkpt><trkpt lat="63.82445526" lon="-18.80709076"><ele>508.3</ele><time>2012-07-25T15:20:42.0000000+00:00</time></trkpt><trkpt lat="63.82445526" lon="-18.80709076"><ele>508.3</ele><time>2012-07-25T15:20:47.0000000+00:00</time></trkpt><trkpt lat="63.82445526" lon="-18.80709076"><ele>508.3</ele><time>2012-07-25T15:20:52.0000000+00:00</time></trkpt><trkpt lat="63.82446289" lon="-18.8070755"><ele>509.0</ele><time>2012-07-25T15:20:57.0000000+00:00</time></trkpt><trkpt lat="63.82450485" lon="-18.80701065"><ele>510.5</ele><time>2012-07-25T15:21:02.0000000+00:00</time></trkpt><trkpt lat="63.82455063" lon="-18.80696106"><ele>510.8</ele><time>2012-07-25T15:21:07.0000000+00:00</time></trkpt><trkpt lat="63.82463074" lon="-18.8068409"><ele>511.1</ele><time>2012-07-25T15:21:12.0000000+00:00</time></trkpt><trkpt lat="63.82466888" lon="-18.80679321"><ele>511.8</ele><time>2012-07-25T15:21:17.0000000+00:00</time></trkpt><trkpt lat="63.82471848" lon="-18.8067627"><ele>512.7</ele><time>2012-07-25T15:21:22.0000000+00:00</time></trkpt><trkpt lat="63.82470703" lon="-18.80675316"><ele>512.6</ele><time>2012-07-25T15:21:27.0000000+00:00</time></trkpt><trkpt lat="63.82463837" lon="-18.80684662"><ele>513.5</ele><time>2012-07-25T15:21:32.0000000+00:00</time></trkpt><trkpt lat="63.82457352" lon="-18.80695725"><ele>514.2</ele><time>2012-07-25T15:21:37.0000000+00:00</time></trkpt><trkpt lat="63.82452393" lon="-18.8070755"><ele>514.1</ele><time>2012-07-25T15:21:42.0000000+00:00</time></trkpt><trkpt lat="63.82447052" lon="-18.80709648"><ele>515.6</ele><time>2012-07-25T15:21:47.0000000+00:00</time></trkpt><trkpt lat="63.82445526" lon="-18.80709839"><ele>516.1</ele><time>2012-07-25T15:21:52.0000000+00:00</time></trkpt><trkpt lat="63.82446289" lon="-18.80710602"><ele>516.0</ele><time>2012-07-25T15:21:57.0000000+00:00</time></trkpt><trkpt lat="63.82445526" lon="-18.8071003"><ele>515.4</ele><time>2012-07-25T15:22:02.0000000+00:00</time></trkpt><trkpt lat="63.82445145" lon="-18.80710793"><ele>515.7</ele><time>2012-07-25T15:22:07.0000000+00:00</time></trkpt><trkpt lat="63.82444763" lon="-18.80708885"><ele>515.5</ele><time>2012-07-25T15:22:12.0000000+00:00</time></trkpt><trkpt lat="63.82445526" lon="-18.80707741"><ele>516.4</ele><time>2012-07-25T15:22:17.0000000+00:00</time></trkpt><trkpt lat="63.82445908" lon="-18.80708122"><ele>516.4</ele><time>2012-07-25T15:22:22.0000000+00:00</time></trkpt><trkpt lat="63.82445908" lon="-18.80708313"><ele>516.5</ele><time>2012-07-25T15:22:27.0000000+00:00</time></trkpt><trkpt lat="63.82445908" lon="-18.80708313"><ele>516.5</ele><time>2012-07-25T15:22:32.0000000+00:00</time></trkpt><trkpt lat="63.82445908" lon="-18.80708504"><ele>516.5</ele><time>2012-07-25T15:22:37.0000000+00:00</time></trkpt><trkpt lat="63.82445908" lon="-18.80708504"><ele>516.5</ele><time>2012-07-25T15:22:42.0000000+00:00</time></trkpt><trkpt lat="63.82445908" lon="-18.80708504"><ele>516.5</ele><time>2012-07-25T15:22:47.0000000+00:00</time></trkpt><trkpt lat="63.82445908" lon="-18.80708504"><ele>516.5</ele><time>2012-07-25T15:22:52.0000000+00:00</time></trkpt><trkpt lat="63.82446671" lon="-18.80708885"><ele>516.2</ele><time>2012-07-25T15:22:57.0000000+00:00</time></trkpt><trkpt lat="63.82447052" lon="-18.80710411"><ele>516.7</ele><time>2012-07-25T15:23:02.0000000+00:00</time></trkpt><trkpt lat="63.82447052" lon="-18.80710793"><ele>516.6</ele><time>2012-07-25T15:23:07.0000000+00:00</time></trkpt><trkpt lat="63.82445526" lon="-18.80710983"><ele>517.7</ele><time>2012-07-25T15:23:12.0000000+00:00</time></trkpt><trkpt lat="63.82444763" lon="-18.80713844"><ele>517.6</ele><time>2012-07-25T15:23:17.0000000+00:00</time></trkpt><trkpt lat="63.82444763" lon="-18.80713654"><ele>517.8</ele><time>2012-07-25T15:23:22.0000000+00:00</time></trkpt><trkpt lat="63.82444763" lon="-18.80713844"><ele>517.6</ele><time>2012-07-25T15:23:27.0000000+00:00</time></trkpt><trkpt lat="63.82444763" lon="-18.80713844"><ele>517.6</ele><time>2012-07-25T15:23:32.0000000+00:00</time></trkpt><trkpt lat="63.82444763" lon="-18.80713844"><ele>517.6</ele><time>2012-07-25T15:23:37.0000000+00:00</time></trkpt><trkpt lat="63.82444763" lon="-18.80713654"><ele>517.6</ele><time>2012-07-25T15:23:42.0000000+00:00</time></trkpt><trkpt lat="63.82444763" lon="-18.80713463"><ele>517.6</ele><time>2012-07-25T15:23:47.0000000+00:00</time></trkpt><trkpt lat="63.82445145" lon="-18.80713654"><ele>517.5</ele><time>2012-07-25T15:23:52.0000000+00:00</time></trkpt><trkpt lat="63.82445908" lon="-18.80714607"><ele>517.2</ele><time>2012-07-25T15:23:57.0000000+00:00</time></trkpt><trkpt lat="63.82446289" lon="-18.80715752"><ele>517.0</ele><time>2012-07-25T15:24:02.0000000+00:00</time></trkpt><trkpt lat="63.82446289" lon="-18.80716324"><ele>517.2</ele><time>2012-07-25T15:24:07.0000000+00:00</time></trkpt><trkpt lat="63.82446289" lon="-18.80715752"><ele>516.5</ele><time>2012-07-25T15:24:12.0000000+00:00</time></trkpt><trkpt lat="63.82445908" lon="-18.80716133"><ele>516.6</ele><time>2012-07-25T15:24:17.0000000+00:00</time></trkpt><trkpt lat="63.82445908" lon="-18.80715942"><ele>516.5</ele><time>2012-07-25T15:24:22.0000000+00:00</time></trkpt><trkpt lat="63.82445908" lon="-18.80715942"><ele>516.5</ele><time>2012-07-25T15:24:27.0000000+00:00</time></trkpt><trkpt lat="63.82446289" lon="-18.80718422"><ele>515.2</ele><time>2012-07-25T15:24:32.0000000+00:00</time></trkpt><trkpt lat="63.82446289" lon="-18.80722046"><ele>515.0</ele><time>2012-07-25T15:24:37.0000000+00:00</time></trkpt><trkpt lat="63.82446289" lon="-18.80723"><ele>515.1</ele><time>2012-07-25T15:24:42.0000000+00:00</time></trkpt><trkpt lat="63.82446289" lon="-18.80723"><ele>515.2</ele><time>2012-07-25T15:24:47.0000000+00:00</time></trkpt><trkpt lat="63.82446289" lon="-18.80723"><ele>515.1</ele><time>2012-07-25T15:24:52.0000000+00:00</time></trkpt><trkpt lat="63.82446289" lon="-18.8072319"><ele>514.9</ele><time>2012-07-25T15:24:57.0000000+00:00</time></trkpt><trkpt lat="63.82445908" lon="-18.80722809"><ele>514.3</ele><time>2012-07-25T15:25:02.0000000+00:00</time></trkpt><trkpt lat="63.82445145" lon="-18.80727959"><ele>514.2</ele><time>2012-07-25T15:25:07.0000000+00:00</time></trkpt><trkpt lat="63.82439804" lon="-18.80743027"><ele>514.1</ele><time>2012-07-25T15:25:12.0000000+00:00</time></trkpt><trkpt lat="63.82433701" lon="-18.80760956"><ele>513.7</ele><time>2012-07-25T15:25:17.0000000+00:00</time></trkpt><trkpt lat="63.82429886" lon="-18.8077488"><ele>513.0</ele><time>2012-07-25T15:25:22.0000000+00:00</time></trkpt><trkpt lat="63.82426834" lon="-18.80787849"><ele>512.7</ele><time>2012-07-25T15:25:27.0000000+00:00</time></trkpt><trkpt lat="63.82423019" lon="-18.80806541"><ele>514.6</ele><time>2012-07-25T15:25:32.0000000+00:00</time></trkpt><trkpt lat="63.82418823" lon="-18.80824852"><ele>515.5</ele><time>2012-07-25T15:25:37.0000000+00:00</time></trkpt><trkpt lat="63.8241539" lon="-18.80840683"><ele>517.5</ele><time>2012-07-25T15:25:42.0000000+00:00</time></trkpt><trkpt lat="63.82410431" lon="-18.80855751"><ele>518.3</ele><time>2012-07-25T15:25:47.0000000+00:00</time></trkpt><trkpt lat="63.82406616" lon="-18.80873489"><ele>520.2</ele><time>2012-07-25T15:25:52.0000000+00:00</time></trkpt><trkpt lat="63.82403946" lon="-18.80890465"><ele>517.5</ele><time>2012-07-25T15:25:57.0000000+00:00</time></trkpt><trkpt lat="63.82401276" lon="-18.80911827"><ele>515.6</ele><time>2012-07-25T15:26:02.0000000+00:00</time></trkpt><trkpt lat="63.82401657" lon="-18.80934715"><ele>515.1</ele><time>2012-07-25T15:26:07.0000000+00:00</time></trkpt><trkpt lat="63.8240509" lon="-18.80956841"><ele>515.6</ele><time>2012-07-25T15:26:12.0000000+00:00</time></trkpt><trkpt lat="63.82410812" lon="-18.8097229"><ele>515.2</ele><time>2012-07-25T15:26:17.0000000+00:00</time></trkpt><trkpt lat="63.82417679" lon="-18.80985451"><ele>516.0</ele><time>2012-07-25T15:26:22.0000000+00:00</time></trkpt><trkpt lat="63.82425308" lon="-18.80996132"><ele>517.2</ele><time>2012-07-25T15:26:27.0000000+00:00</time></trkpt><trkpt lat="63.82433319" lon="-18.81001473"><ele>518.0</ele><time>2012-07-25T15:26:32.0000000+00:00</time></trkpt><trkpt lat="63.8244133" lon="-18.81006432"><ele>520.2</ele><time>2012-07-25T15:26:37.0000000+00:00</time></trkpt><trkpt lat="63.82449722" lon="-18.81022644"><ele>520.8</ele><time>2012-07-25T15:26:42.0000000+00:00</time></trkpt><trkpt lat="63.82455444" lon="-18.81039429"><ele>520.4</ele><time>2012-07-25T15:26:47.0000000+00:00</time></trkpt><trkpt lat="63.82461548" lon="-18.81052971"><ele>520.4</ele><time>2012-07-25T15:26:52.0000000+00:00</time></trkpt><trkpt lat="63.82466507" lon="-18.81068802"><ele>520.5</ele><time>2012-07-25T15:26:57.0000000+00:00</time></trkpt><trkpt lat="63.82472611" lon="-18.8108139"><ele>519.6</ele><time>2012-07-25T15:27:02.0000000+00:00</time></trkpt><trkpt lat="63.82479858" lon="-18.81094933"><ele>520.0</ele><time>2012-07-25T15:27:07.0000000+00:00</time></trkpt><trkpt lat="63.82488251" lon="-18.81109619"><ele>520.3</ele><time>2012-07-25T15:27:12.0000000+00:00</time></trkpt><trkpt lat="63.82496643" lon="-18.81123734"><ele>520.6</ele><time>2012-07-25T15:27:17.0000000+00:00</time></trkpt><trkpt lat="63.82498932" lon="-18.81125832"><ele>519.8</ele><time>2012-07-25T15:27:22.0000000+00:00</time></trkpt><trkpt lat="63.82502365" lon="-18.81129265"><ele>519.9</ele><time>2012-07-25T15:27:27.0000000+00:00</time></trkpt><trkpt lat="63.82512665" lon="-18.81143189"><ele>520.0</ele><time>2012-07-25T15:27:32.0000000+00:00</time></trkpt><trkpt lat="63.82525635" lon="-18.81165505"><ele>519.0</ele><time>2012-07-25T15:27:37.0000000+00:00</time></trkpt><trkpt lat="63.82534409" lon="-18.81191635"><ele>518.9</ele><time>2012-07-25T15:27:42.0000000+00:00</time></trkpt><trkpt lat="63.82539749" lon="-18.81212044"><ele>518.5</ele><time>2012-07-25T15:27:47.0000000+00:00</time></trkpt><trkpt lat="63.82544708" lon="-18.81237793"><ele>518.5</ele><time>2012-07-25T15:27:52.0000000+00:00</time></trkpt><trkpt lat="63.8254776" lon="-18.8126297"><ele>518.1</ele><time>2012-07-25T15:27:57.0000000+00:00</time></trkpt><trkpt lat="63.82549286" lon="-18.81290054"><ele>517.4</ele><time>2012-07-25T15:28:02.0000000+00:00</time></trkpt><trkpt lat="63.8254509" lon="-18.81321526"><ele>517.2</ele><time>2012-07-25T15:28:07.0000000+00:00</time></trkpt><trkpt lat="63.82540512" lon="-18.81352425"><ele>516.6</ele><time>2012-07-25T15:28:12.0000000+00:00</time></trkpt><trkpt lat="63.82535934" lon="-18.81383133"><ele>517.5</ele><time>2012-07-25T15:28:17.0000000+00:00</time></trkpt><trkpt lat="63.82530975" lon="-18.81414795"><ele>518.1</ele><time>2012-07-25T15:28:22.0000000+00:00</time></trkpt><trkpt lat="63.82528305" lon="-18.81443214"><ele>518.4</ele><time>2012-07-25T15:28:27.0000000+00:00</time></trkpt><trkpt lat="63.82524872" lon="-18.81466103"><ele>518.2</ele><time>2012-07-25T15:28:32.0000000+00:00</time></trkpt><trkpt lat="63.8252182" lon="-18.81493187"><ele>517.8</ele><time>2012-07-25T15:28:37.0000000+00:00</time></trkpt><trkpt lat="63.82519531" lon="-18.8152256"><ele>518.1</ele><time>2012-07-25T15:28:42.0000000+00:00</time></trkpt><trkpt lat="63.82516861" lon="-18.81549454"><ele>518.4</ele><time>2012-07-25T15:28:47.0000000+00:00</time></trkpt><trkpt lat="63.82514191" lon="-18.81581497"><ele>519.3</ele><time>2012-07-25T15:28:52.0000000+00:00</time></trkpt><trkpt lat="63.82511902" lon="-18.81616402"><ele>518.5</ele><time>2012-07-25T15:28:57.0000000+00:00</time></trkpt><trkpt lat="63.82508469" lon="-18.81649017"><ele>519.0</ele><time>2012-07-25T15:29:02.0000000+00:00</time></trkpt><trkpt lat="63.8250618" lon="-18.81679726"><ele>520.0</ele><time>2012-07-25T15:29:07.0000000+00:00</time></trkpt><trkpt lat="63.82503128" lon="-18.81711006"><ele>519.8</ele><time>2012-07-25T15:29:12.0000000+00:00</time></trkpt><trkpt lat="63.82499695" lon="-18.81741333"><ele>519.4</ele><time>2012-07-25T15:29:17.0000000+00:00</time></trkpt><trkpt lat="63.8249588" lon="-18.8177166"><ele>518.6</ele><time>2012-07-25T15:29:22.0000000+00:00</time></trkpt><trkpt lat="63.82490921" lon="-18.81805611"><ele>519.0</ele><time>2012-07-25T15:29:27.0000000+00:00</time></trkpt><trkpt lat="63.82482147" lon="-18.81839562"><ele>520.6</ele><time>2012-07-25T15:29:32.0000000+00:00</time></trkpt><trkpt lat="63.82472992" lon="-18.81864166"><ele>520.3</ele><time>2012-07-25T15:29:37.0000000+00:00</time></trkpt><trkpt lat="63.82463455" lon="-18.81894302"><ele>519.5</ele><time>2012-07-25T15:29:42.0000000+00:00</time></trkpt><trkpt lat="63.82455444" lon="-18.81929207"><ele>519.3</ele><time>2012-07-25T15:29:47.0000000+00:00</time></trkpt><trkpt lat="63.82446671" lon="-18.81959152"><ele>520.4</ele><time>2012-07-25T15:29:52.0000000+00:00</time></trkpt><trkpt lat="63.82440567" lon="-18.81982231"><ele>521.0</ele><time>2012-07-25T15:29:57.0000000+00:00</time></trkpt><trkpt lat="63.82433319" lon="-18.82007217"><ele>521.2</ele><time>2012-07-25T15:30:02.0000000+00:00</time></trkpt><trkpt lat="63.82423782" lon="-18.82032967"><ele>521.8</ele><time>2012-07-25T15:30:07.0000000+00:00</time></trkpt><trkpt lat="63.8241272" lon="-18.82054138"><ele>523.7</ele><time>2012-07-25T15:30:12.0000000+00:00</time></trkpt><trkpt lat="63.82400894" lon="-18.82072067"><ele>525.3</ele><time>2012-07-25T15:30:17.0000000+00:00</time></trkpt><trkpt lat="63.82388306" lon="-18.82088471"><ele>526.4</ele><time>2012-07-25T15:30:22.0000000+00:00</time></trkpt><trkpt lat="63.82378388" lon="-18.82101059"><ele>526.6</ele><time>2012-07-25T15:30:27.0000000+00:00</time></trkpt><trkpt lat="63.82370758" lon="-18.82112694"><ele>527.4</ele><time>2012-07-25T15:30:32.0000000+00:00</time></trkpt><trkpt lat="63.82361221" lon="-18.82126045"><ele>527.6</ele><time>2012-07-25T15:30:37.0000000+00:00</time></trkpt><trkpt lat="63.82352448" lon="-18.82134819"><ele>527.3</ele><time>2012-07-25T15:30:42.0000000+00:00</time></trkpt><trkpt lat="63.82343674" lon="-18.82150078"><ele>529.0</ele><time>2012-07-25T15:30:47.0000000+00:00</time></trkpt><trkpt lat="63.82331848" lon="-18.82167816"><ele>528.8</ele><time>2012-07-25T15:30:52.0000000+00:00</time></trkpt><trkpt lat="63.82320023" lon="-18.8218174"><ele>529.0</ele><time>2012-07-25T15:30:57.0000000+00:00</time></trkpt><trkpt lat="63.82307816" lon="-18.82194519"><ele>528.5</ele><time>2012-07-25T15:31:02.0000000+00:00</time></trkpt><trkpt lat="63.82294846" lon="-18.82205391"><ele>527.4</ele><time>2012-07-25T15:31:07.0000000+00:00</time></trkpt><trkpt lat="63.8228302" lon="-18.82216644"><ele>527.7</ele><time>2012-07-25T15:31:12.0000000+00:00</time></trkpt><trkpt lat="63.82273102" lon="-18.82227135"><ele>527.8</ele><time>2012-07-25T15:31:17.0000000+00:00</time></trkpt><trkpt lat="63.82263184" lon="-18.8223629"><ele>527.1</ele><time>2012-07-25T15:31:22.0000000+00:00</time></trkpt><trkpt lat="63.82252121" lon="-18.82242966"><ele>526.7</ele><time>2012-07-25T15:31:27.0000000+00:00</time></trkpt><trkpt lat="63.82240677" lon="-18.82249069"><ele>524.4</ele><time>2012-07-25T15:31:32.0000000+00:00</time></trkpt><trkpt lat="63.8222847" lon="-18.82258797"><ele>524.4</ele><time>2012-07-25T15:31:37.0000000+00:00</time></trkpt><trkpt lat="63.82215118" lon="-18.82266998"><ele>523.3</ele><time>2012-07-25T15:31:42.0000000+00:00</time></trkpt><trkpt lat="63.82199097" lon="-18.822752"><ele>520.8</ele><time>2012-07-25T15:31:47.0000000+00:00</time></trkpt><trkpt lat="63.82187653" lon="-18.82287407"><ele>522.4</ele><time>2012-07-25T15:31:52.0000000+00:00</time></trkpt><trkpt lat="63.82175446" lon="-18.82297897"><ele>522.9</ele><time>2012-07-25T15:31:57.0000000+00:00</time></trkpt><trkpt lat="63.82161713" lon="-18.82304192"><ele>523.9</ele><time>2012-07-25T15:32:02.0000000+00:00</time></trkpt><trkpt lat="63.82147598" lon="-18.82303619"><ele>523.3</ele><time>2012-07-25T15:32:07.0000000+00:00</time></trkpt><trkpt lat="63.82133484" lon="-18.82307816"><ele>523.5</ele><time>2012-07-25T15:32:12.0000000+00:00</time></trkpt><trkpt lat="63.8211937" lon="-18.82316017"><ele>523.9</ele><time>2012-07-25T15:32:17.0000000+00:00</time></trkpt><trkpt lat="63.82106018" lon="-18.82325745"><ele>525.0</ele><time>2012-07-25T15:32:22.0000000+00:00</time></trkpt><trkpt lat="63.820961" lon="-18.8233738"><ele>525.6</ele><time>2012-07-25T15:32:27.0000000+00:00</time></trkpt><trkpt lat="63.820858" lon="-18.82344818"><ele>525.9</ele><time>2012-07-25T15:32:32.0000000+00:00</time></trkpt><trkpt lat="63.82072067" lon="-18.82351685"><ele>526.6</ele><time>2012-07-25T15:32:37.0000000+00:00</time></trkpt><trkpt lat="63.82055664" lon="-18.82360458"><ele>526.3</ele><time>2012-07-25T15:32:42.0000000+00:00</time></trkpt><trkpt lat="63.82039261" lon="-18.8237114"><ele>526.3</ele><time>2012-07-25T15:32:47.0000000+00:00</time></trkpt><trkpt lat="63.82021713" lon="-18.82378578"><ele>523.8</ele><time>2012-07-25T15:32:52.0000000+00:00</time></trkpt><trkpt lat="63.82001114" lon="-18.82382393"><ele>523.3</ele><time>2012-07-25T15:32:57.0000000+00:00</time></trkpt><trkpt lat="63.81980133" lon="-18.82386398"><ele>524.2</ele><time>2012-07-25T15:33:02.0000000+00:00</time></trkpt><trkpt lat="63.81959915" lon="-18.82389069"><ele>525.6</ele><time>2012-07-25T15:33:07.0000000+00:00</time></trkpt><trkpt lat="63.81939316" lon="-18.82390595"><ele>526.7</ele><time>2012-07-25T15:33:12.0000000+00:00</time></trkpt><trkpt lat="63.81918335" lon="-18.82392311"><ele>526.8</ele><time>2012-07-25T15:33:17.0000000+00:00</time></trkpt><trkpt lat="63.81900024" lon="-18.82394791"><ele>526.5</ele><time>2012-07-25T15:33:22.0000000+00:00</time></trkpt><trkpt lat="63.81881714" lon="-18.82400894"><ele>526.0</ele><time>2012-07-25T15:33:27.0000000+00:00</time></trkpt><trkpt lat="63.8185997" lon="-18.82407188"><ele>525.8</ele><time>2012-07-25T15:33:32.0000000+00:00</time></trkpt><trkpt lat="63.81835938" lon="-18.8240757"><ele>526.4</ele><time>2012-07-25T15:33:37.0000000+00:00</time></trkpt><trkpt lat="63.81815338" lon="-18.82406807"><ele>527.4</ele><time>2012-07-25T15:33:42.0000000+00:00</time></trkpt><trkpt lat="63.81798935" lon="-18.82408714"><ele>527.9</ele><time>2012-07-25T15:33:47.0000000+00:00</time></trkpt><trkpt lat="63.81780624" lon="-18.82421684"><ele>528.2</ele><time>2012-07-25T15:33:52.0000000+00:00</time></trkpt><trkpt lat="63.81761932" lon="-18.82436562"><ele>527.3</ele><time>2012-07-25T15:33:57.0000000+00:00</time></trkpt><trkpt lat="63.81744766" lon="-18.8244648"><ele>527.0</ele><time>2012-07-25T15:34:02.0000000+00:00</time></trkpt><trkpt lat="63.81725311" lon="-18.82450104"><ele>527.5</ele><time>2012-07-25T15:34:07.0000000+00:00</time></trkpt><trkpt lat="63.81707001" lon="-18.82456589"><ele>527.5</ele><time>2012-07-25T15:34:12.0000000+00:00</time></trkpt><trkpt lat="63.8168869" lon="-18.82464218"><ele>528.0</ele><time>2012-07-25T15:34:17.0000000+00:00</time></trkpt><trkpt lat="63.8167038" lon="-18.82472992"><ele>527.3</ele><time>2012-07-25T15:34:22.0000000+00:00</time></trkpt><trkpt lat="63.81651688" lon="-18.82481003"><ele>527.7</ele><time>2012-07-25T15:34:27.0000000+00:00</time></trkpt><trkpt lat="63.81633377" lon="-18.82485771"><ele>528.2</ele><time>2012-07-25T15:34:32.0000000+00:00</time></trkpt><trkpt lat="63.81614304" lon="-18.82485008"><ele>527.9</ele><time>2012-07-25T15:34:37.0000000+00:00</time></trkpt><trkpt lat="63.81593323" lon="-18.82486343"><ele>527.0</ele><time>2012-07-25T15:34:42.0000000+00:00</time></trkpt><trkpt lat="63.81573105" lon="-18.8249073"><ele>526.3</ele><time>2012-07-25T15:34:47.0000000+00:00</time></trkpt><trkpt lat="63.8155365" lon="-18.82494927"><ele>527.6</ele><time>2012-07-25T15:34:52.0000000+00:00</time></trkpt><trkpt lat="63.81533432" lon="-18.82495689"><ele>526.8</ele><time>2012-07-25T15:34:57.0000000+00:00</time></trkpt><trkpt lat="63.81515122" lon="-18.82500267"><ele>526.7</ele><time>2012-07-25T15:35:02.0000000+00:00</time></trkpt><trkpt lat="63.81502152" lon="-18.82513046"><ele>526.0</ele><time>2012-07-25T15:35:07.0000000+00:00</time></trkpt><trkpt lat="63.81495285" lon="-18.82533455"><ele>525.8</ele><time>2012-07-25T15:35:12.0000000+00:00</time></trkpt><trkpt lat="63.81492615" lon="-18.82565689"><ele>524.2</ele><time>2012-07-25T15:35:17.0000000+00:00</time></trkpt><trkpt lat="63.81487656" lon="-18.82612038"><ele>523.4</ele><time>2012-07-25T15:35:22.0000000+00:00</time></trkpt><trkpt lat="63.81482315" lon="-18.82641983"><ele>523.6</ele><time>2012-07-25T15:35:27.0000000+00:00</time></trkpt><trkpt lat="63.81479263" lon="-18.82659531"><ele>523.4</ele><time>2012-07-25T15:35:32.0000000+00:00</time></trkpt><trkpt lat="63.81476212" lon="-18.82680893"><ele>524.4</ele><time>2012-07-25T15:35:37.0000000+00:00</time></trkpt><trkpt lat="63.81475067" lon="-18.82699394"><ele>525.0</ele><time>2012-07-25T15:35:42.0000000+00:00</time></trkpt><trkpt lat="63.81476975" lon="-18.82717896"><ele>525.1</ele><time>2012-07-25T15:35:47.0000000+00:00</time></trkpt><trkpt lat="63.81483078" lon="-18.82736588"><ele>524.8</ele><time>2012-07-25T15:35:52.0000000+00:00</time></trkpt><trkpt lat="63.81489945" lon="-18.82747841"><ele>525.8</ele><time>2012-07-25T15:35:57.0000000+00:00</time></trkpt><trkpt lat="63.81496048" lon="-18.82775688"><ele>524.7</ele><time>2012-07-25T15:36:02.0000000+00:00</time></trkpt><trkpt lat="63.81498718" lon="-18.82817841"><ele>525.7</ele><time>2012-07-25T15:36:07.0000000+00:00</time></trkpt><trkpt lat="63.81497574" lon="-18.82847023"><ele>525.8</ele><time>2012-07-25T15:36:12.0000000+00:00</time></trkpt><trkpt lat="63.81494522" lon="-18.82873154"><ele>527.4</ele><time>2012-07-25T15:36:17.0000000+00:00</time></trkpt><trkpt lat="63.81491089" lon="-18.82897949"><ele>525.0</ele><time>2012-07-25T15:36:22.0000000+00:00</time></trkpt><trkpt lat="63.81490707" lon="-18.82919693"><ele>524.4</ele><time>2012-07-25T15:36:27.0000000+00:00</time></trkpt><trkpt lat="63.81489182" lon="-18.82949257"><ele>523.3</ele><time>2012-07-25T15:36:32.0000000+00:00</time></trkpt><trkpt lat="63.8149147" lon="-18.82979202"><ele>525.9</ele><time>2012-07-25T15:36:37.0000000+00:00</time></trkpt><trkpt lat="63.81492233" lon="-18.83002281"><ele>526.5</ele><time>2012-07-25T15:36:42.0000000+00:00</time></trkpt><trkpt lat="63.81489945" lon="-18.83026886"><ele>525.2</ele><time>2012-07-25T15:36:47.0000000+00:00</time></trkpt><trkpt lat="63.81486511" lon="-18.83048058"><ele>526.3</ele><time>2012-07-25T15:36:52.0000000+00:00</time></trkpt><trkpt lat="63.81476975" lon="-18.83076286"><ele>527.6</ele><time>2012-07-25T15:36:57.0000000+00:00</time></trkpt><trkpt lat="63.81464386" lon="-18.83106613"><ele>527.9</ele><time>2012-07-25T15:37:02.0000000+00:00</time></trkpt><trkpt lat="63.81454849" lon="-18.83129311"><ele>525.8</ele><time>2012-07-25T15:37:07.0000000+00:00</time></trkpt><trkpt lat="63.81448746" lon="-18.83153343"><ele>528.5</ele><time>2012-07-25T15:37:12.0000000+00:00</time></trkpt><trkpt lat="63.81443024" lon="-18.83184242"><ele>526.1</ele><time>2012-07-25T15:37:17.0000000+00:00</time></trkpt><trkpt lat="63.81435776" lon="-18.83229065"><ele>524.2</ele><time>2012-07-25T15:37:22.0000000+00:00</time></trkpt><trkpt lat="63.81430054" lon="-18.83268166"><ele>523.3</ele><time>2012-07-25T15:37:27.0000000+00:00</time></trkpt><trkpt lat="63.81426621" lon="-18.83308792"><ele>523.0</ele><time>2012-07-25T15:37:32.0000000+00:00</time></trkpt><trkpt lat="63.8142395" lon="-18.83355331"><ele>522.2</ele><time>2012-07-25T15:37:37.0000000+00:00</time></trkpt><trkpt lat="63.81420136" lon="-18.83398247"><ele>520.6</ele><time>2012-07-25T15:37:42.0000000+00:00</time></trkpt><trkpt lat="63.81410599" lon="-18.83435822"><ele>519.0</ele><time>2012-07-25T15:37:47.0000000+00:00</time></trkpt><trkpt lat="63.81390762" lon="-18.83467293"><ele>516.6</ele><time>2012-07-25T15:37:52.0000000+00:00</time></trkpt><trkpt lat="63.81371307" lon="-18.83496285"><ele>518.4</ele><time>2012-07-25T15:37:57.0000000+00:00</time></trkpt><trkpt lat="63.81358337" lon="-18.83522606"><ele>519.5</ele><time>2012-07-25T15:38:02.0000000+00:00</time></trkpt><trkpt lat="63.81347275" lon="-18.83553886"><ele>522.3</ele><time>2012-07-25T15:38:07.0000000+00:00</time></trkpt><trkpt lat="63.81336975" lon="-18.83584023"><ele>523.4</ele><time>2012-07-25T15:38:12.0000000+00:00</time></trkpt><trkpt lat="63.81324768" lon="-18.83614159"><ele>523.6</ele><time>2012-07-25T15:38:17.0000000+00:00</time></trkpt><trkpt lat="63.81313705" lon="-18.83642006"><ele>524.6</ele><time>2012-07-25T15:38:22.0000000+00:00</time></trkpt><trkpt lat="63.81303406" lon="-18.83669663"><ele>527.5</ele><time>2012-07-25T15:38:27.0000000+00:00</time></trkpt><trkpt lat="63.81293869" lon="-18.83695221"><ele>527.3</ele><time>2012-07-25T15:38:32.0000000+00:00</time></trkpt><trkpt lat="63.81287003" lon="-18.83716011"><ele>528.9</ele><time>2012-07-25T15:38:37.0000000+00:00</time></trkpt><trkpt lat="63.81285858" lon="-18.83716393"><ele>529.2</ele><time>2012-07-25T15:38:42.0000000+00:00</time></trkpt><trkpt lat="63.81285858" lon="-18.83716202"><ele>529.2</ele><time>2012-07-25T15:38:47.0000000+00:00</time></trkpt><trkpt lat="63.81285858" lon="-18.83716202"><ele>529.2</ele><time>2012-07-25T15:38:52.0000000+00:00</time></trkpt><trkpt lat="63.81285858" lon="-18.83716202"><ele>529.2</ele><time>2012-07-25T15:38:57.0000000+00:00</time></trkpt><trkpt lat="63.81285858" lon="-18.83716202"><ele>529.2</ele><time>2012-07-25T15:39:02.0000000+00:00</time></trkpt><trkpt lat="63.81285858" lon="-18.83716011"><ele>529.1</ele><time>2012-07-25T15:39:07.0000000+00:00</time></trkpt><trkpt lat="63.8128624" lon="-18.83714676"><ele>529.3</ele><time>2012-07-25T15:39:12.0000000+00:00</time></trkpt><trkpt lat="63.81287003" lon="-18.83715057"><ele>529.4</ele><time>2012-07-25T15:39:17.0000000+00:00</time></trkpt><trkpt lat="63.81296921" lon="-18.83715248"><ele>529.5</ele><time>2012-07-25T15:39:22.0000000+00:00</time></trkpt><trkpt lat="63.81311798" lon="-18.83729172"><ele>526.9</ele><time>2012-07-25T15:39:27.0000000+00:00</time></trkpt><trkpt lat="63.81323624" lon="-18.83756065"><ele>523.7</ele><time>2012-07-25T15:39:32.0000000+00:00</time></trkpt><trkpt lat="63.81335068" lon="-18.83798218"><ele>526.1</ele><time>2012-07-25T15:39:37.0000000+00:00</time></trkpt><trkpt lat="63.81344223" lon="-18.83843041"><ele>525.0</ele><time>2012-07-25T15:39:42.0000000+00:00</time></trkpt><trkpt lat="63.81350708" lon="-18.8388176"><ele>521.9</ele><time>2012-07-25T15:39:47.0000000+00:00</time></trkpt><trkpt lat="63.81357575" lon="-18.83908844"><ele>522.1</ele><time>2012-07-25T15:39:52.0000000+00:00</time></trkpt><trkpt lat="63.81362915" lon="-18.8393631"><ele>521.2</ele><time>2012-07-25T15:39:57.0000000+00:00</time></trkpt><trkpt lat="63.8136673" lon="-18.83956909"><ele>522.4</ele><time>2012-07-25T15:40:02.0000000+00:00</time></trkpt><trkpt lat="63.81370544" lon="-18.83982277"><ele>522.4</ele><time>2012-07-25T15:40:07.0000000+00:00</time></trkpt><trkpt lat="63.81375122" lon="-18.84013176"><ele>522.4</ele><time>2012-07-25T15:40:12.0000000+00:00</time></trkpt><trkpt lat="63.81378937" lon="-18.84047508"><ele>526.1</ele><time>2012-07-25T15:40:17.0000000+00:00</time></trkpt><trkpt lat="63.81384277" lon="-18.8408432"><ele>526.0</ele><time>2012-07-25T15:40:22.0000000+00:00</time></trkpt><trkpt lat="63.8139267" lon="-18.84122849"><ele>526.9</ele><time>2012-07-25T15:40:27.0000000+00:00</time></trkpt><trkpt lat="63.81403351" lon="-18.84152412"><ele>525.4</ele><time>2012-07-25T15:40:32.0000000+00:00</time></trkpt><trkpt lat="63.81416702" lon="-18.8417511"><ele>524.8</ele><time>2012-07-25T15:40:37.0000000+00:00</time></trkpt><trkpt lat="63.81429672" lon="-18.84197998"><ele>522.7</ele><time>2012-07-25T15:40:42.0000000+00:00</time></trkpt><trkpt lat="63.81442261" lon="-18.84225273"><ele>521.5</ele><time>2012-07-25T15:40:47.0000000+00:00</time></trkpt><trkpt lat="63.81453705" lon="-18.84251404"><ele>524.3</ele><time>2012-07-25T15:40:52.0000000+00:00</time></trkpt><trkpt lat="63.81464768" lon="-18.84278107"><ele>525.0</ele><time>2012-07-25T15:40:57.0000000+00:00</time></trkpt><trkpt lat="63.8147583" lon="-18.84307289"><ele>527.4</ele><time>2012-07-25T15:41:02.0000000+00:00</time></trkpt><trkpt lat="63.81486511" lon="-18.84337616"><ele>530.0</ele><time>2012-07-25T15:41:07.0000000+00:00</time></trkpt><trkpt lat="63.81495285" lon="-18.84368134"><ele>531.6</ele><time>2012-07-25T15:41:12.0000000+00:00</time></trkpt><trkpt lat="63.81502914" lon="-18.84391403"><ele>533.5</ele><time>2012-07-25T15:41:17.0000000+00:00</time></trkpt><trkpt lat="63.81510925" lon="-18.84419441"><ele>533.4</ele><time>2012-07-25T15:41:22.0000000+00:00</time></trkpt><trkpt lat="63.81519699" lon="-18.84447479"><ele>534.4</ele><time>2012-07-25T15:41:27.0000000+00:00</time></trkpt><trkpt lat="63.81528473" lon="-18.84476471"><ele>533.4</ele><time>2012-07-25T15:41:32.0000000+00:00</time></trkpt><trkpt lat="63.81538773" lon="-18.84501648"><ele>533.8</ele><time>2012-07-25T15:41:37.0000000+00:00</time></trkpt><trkpt lat="63.81550217" lon="-18.8453064"><ele>533.8</ele><time>2012-07-25T15:41:42.0000000+00:00</time></trkpt><trkpt lat="63.81562042" lon="-18.84558487"><ele>535.3</ele><time>2012-07-25T15:41:47.0000000+00:00</time></trkpt><trkpt lat="63.81575012" lon="-18.84584999"><ele>540.1</ele><time>2012-07-25T15:41:52.0000000+00:00</time></trkpt><trkpt lat="63.81585693" lon="-18.8461647"><ele>541.1</ele><time>2012-07-25T15:41:57.0000000+00:00</time></trkpt><trkpt lat="63.81593704" lon="-18.84640503"><ele>541.1</ele><time>2012-07-25T15:42:02.0000000+00:00</time></trkpt><trkpt lat="63.81599045" lon="-18.84658051"><ele>539.5</ele><time>2012-07-25T15:42:07.0000000+00:00</time></trkpt><trkpt lat="63.8160553" lon="-18.84682465"><ele>539.3</ele><time>2012-07-25T15:42:12.0000000+00:00</time></trkpt><trkpt lat="63.81612396" lon="-18.84706307"><ele>539.0</ele><time>2012-07-25T15:42:17.0000000+00:00</time></trkpt><trkpt lat="63.81621933" lon="-18.84726715"><ele>538.5</ele><time>2012-07-25T15:42:22.0000000+00:00</time></trkpt><trkpt lat="63.81629944" lon="-18.84744263"><ele>537.3</ele><time>2012-07-25T15:42:27.0000000+00:00</time></trkpt><trkpt lat="63.81639099" lon="-18.8476162"><ele>537.3</ele><time>2012-07-25T15:42:32.0000000+00:00</time></trkpt><trkpt lat="63.8164978" lon="-18.8477993"><ele>538.1</ele><time>2012-07-25T15:42:37.0000000+00:00</time></trkpt><trkpt lat="63.81661224" lon="-18.8479805"><ele>538.7</ele><time>2012-07-25T15:42:42.0000000+00:00</time></trkpt><trkpt lat="63.81671906" lon="-18.84821701"><ele>537.7</ele><time>2012-07-25T15:42:47.0000000+00:00</time></trkpt><trkpt lat="63.81682205" lon="-18.84843826"><ele>537.1</ele><time>2012-07-25T15:42:52.0000000+00:00</time></trkpt><trkpt lat="63.81694412" lon="-18.8486824"><ele>534.7</ele><time>2012-07-25T15:42:57.0000000+00:00</time></trkpt><trkpt lat="63.81706238" lon="-18.84893417"><ele>534.4</ele><time>2012-07-25T15:43:02.0000000+00:00</time></trkpt><trkpt lat="63.81717682" lon="-18.84918976"><ele>532.4</ele><time>2012-07-25T15:43:07.0000000+00:00</time></trkpt><trkpt lat="63.81728745" lon="-18.84945488"><ele>531.4</ele><time>2012-07-25T15:43:12.0000000+00:00</time></trkpt><trkpt lat="63.81738663" lon="-18.84975243"><ele>533.3</ele><time>2012-07-25T15:43:17.0000000+00:00</time></trkpt><trkpt lat="63.81749344" lon="-18.85004997"><ele>533.1</ele><time>2012-07-25T15:43:22.0000000+00:00</time></trkpt><trkpt lat="63.81761169" lon="-18.85032845"><ele>536.2</ele><time>2012-07-25T15:43:27.0000000+00:00</time></trkpt><trkpt lat="63.81773758" lon="-18.8506031"><ele>531.6</ele><time>2012-07-25T15:43:32.0000000+00:00</time></trkpt><trkpt lat="63.81784439" lon="-18.85090256"><ele>532.1</ele><time>2012-07-25T15:43:37.0000000+00:00</time></trkpt><trkpt lat="63.81795883" lon="-18.85122681"><ele>528.4</ele><time>2012-07-25T15:43:42.0000000+00:00</time></trkpt><trkpt lat="63.81807709" lon="-18.85149384"><ele>531.7</ele><time>2012-07-25T15:43:47.0000000+00:00</time></trkpt><trkpt lat="63.81820297" lon="-18.85170555"><ele>534.0</ele><time>2012-07-25T15:43:52.0000000+00:00</time></trkpt><trkpt lat="63.81835175" lon="-18.85187912"><ele>540.3</ele><time>2012-07-25T15:43:57.0000000+00:00</time></trkpt><trkpt lat="63.81846237" lon="-18.8520546"><ele>539.2</ele><time>2012-07-25T15:44:02.0000000+00:00</time></trkpt><trkpt lat="63.81855011" lon="-18.85222626"><ele>538.4</ele><time>2012-07-25T15:44:07.0000000+00:00</time></trkpt><trkpt lat="63.81861115" lon="-18.85238648"><ele>538.5</ele><time>2012-07-25T15:44:12.0000000+00:00</time></trkpt><trkpt lat="63.818676" lon="-18.85259438"><ele>538.7</ele><time>2012-07-25T15:44:17.0000000+00:00</time></trkpt><trkpt lat="63.8187561" lon="-18.85279846"><ele>537.9</ele><time>2012-07-25T15:44:22.0000000+00:00</time></trkpt><trkpt lat="63.8188591" lon="-18.85297394"><ele>537.5</ele><time>2012-07-25T15:44:27.0000000+00:00</time></trkpt><trkpt lat="63.81900406" lon="-18.85307121"><ele>537.5</ele><time>2012-07-25T15:44:32.0000000+00:00</time></trkpt><trkpt lat="63.81913376" lon="-18.8531971"><ele>538.4</ele><time>2012-07-25T15:44:37.0000000+00:00</time></trkpt><trkpt lat="63.81923676" lon="-18.853405"><ele>538.7</ele><time>2012-07-25T15:44:42.0000000+00:00</time></trkpt><trkpt lat="63.81929016" lon="-18.85372734"><ele>536.6</ele><time>2012-07-25T15:44:47.0000000+00:00</time></trkpt><trkpt lat="63.81928635" lon="-18.8540287"><ele>536.6</ele><time>2012-07-25T15:44:52.0000000+00:00</time></trkpt><trkpt lat="63.81926346" lon="-18.85424614"><ele>537.8</ele><time>2012-07-25T15:44:57.0000000+00:00</time></trkpt><trkpt lat="63.81924057" lon="-18.85451126"><ele>539.9</ele><time>2012-07-25T15:45:02.0000000+00:00</time></trkpt><trkpt lat="63.81920624" lon="-18.85479164"><ele>540.4</ele><time>2012-07-25T15:45:07.0000000+00:00</time></trkpt><trkpt lat="63.81917191" lon="-18.85506249"><ele>539.8</ele><time>2012-07-25T15:45:12.0000000+00:00</time></trkpt><trkpt lat="63.81912994" lon="-18.85528755"><ele>540.8</ele><time>2012-07-25T15:45:17.0000000+00:00</time></trkpt><trkpt lat="63.81907654" lon="-18.85546684"><ele>540.8</ele><time>2012-07-25T15:45:22.0000000+00:00</time></trkpt><trkpt lat="63.8190155" lon="-18.85565186"><ele>540.0</ele><time>2012-07-25T15:45:27.0000000+00:00</time></trkpt><trkpt lat="63.8189621" lon="-18.85586166"><ele>541.2</ele><time>2012-07-25T15:45:32.0000000+00:00</time></trkpt><trkpt lat="63.81890106" lon="-18.85608482"><ele>541.4</ele><time>2012-07-25T15:45:37.0000000+00:00</time></trkpt><trkpt lat="63.81884766" lon="-18.85629463"><ele>541.1</ele><time>2012-07-25T15:45:42.0000000+00:00</time></trkpt><trkpt lat="63.81881332" lon="-18.85648537"><ele>540.9</ele><time>2012-07-25T15:45:47.0000000+00:00</time></trkpt><trkpt lat="63.81877899" lon="-18.85669708"><ele>540.5</ele><time>2012-07-25T15:45:52.0000000+00:00</time></trkpt><trkpt lat="63.81876373" lon="-18.85688591"><ele>541.6</ele><time>2012-07-25T15:45:57.0000000+00:00</time></trkpt><trkpt lat="63.81873322" lon="-18.85712624"><ele>540.6</ele><time>2012-07-25T15:46:02.0000000+00:00</time></trkpt><trkpt lat="63.81870651" lon="-18.85737228"><ele>540.1</ele><time>2012-07-25T15:46:07.0000000+00:00</time></trkpt><trkpt lat="63.81871796" lon="-18.85768318"><ele>541.3</ele><time>2012-07-25T15:46:12.0000000+00:00</time></trkpt><trkpt lat="63.81877518" lon="-18.85793114"><ele>541.5</ele><time>2012-07-25T15:46:17.0000000+00:00</time></trkpt><trkpt lat="63.81888962" lon="-18.85818481"><ele>541.2</ele><time>2012-07-25T15:46:22.0000000+00:00</time></trkpt><trkpt lat="63.81900406" lon="-18.85852623"><ele>541.3</ele><time>2012-07-25T15:46:27.0000000+00:00</time></trkpt><trkpt lat="63.81907654" lon="-18.85887146"><ele>541.5</ele><time>2012-07-25T15:46:32.0000000+00:00</time></trkpt><trkpt lat="63.81914139" lon="-18.85921669"><ele>541.6</ele><time>2012-07-25T15:46:37.0000000+00:00</time></trkpt><trkpt lat="63.81922531" lon="-18.85961723"><ele>541.6</ele><time>2012-07-25T15:46:42.0000000+00:00</time></trkpt><trkpt lat="63.81930542" lon="-18.85998917"><ele>541.7</ele><time>2012-07-25T15:46:47.0000000+00:00</time></trkpt><trkpt lat="63.81938934" lon="-18.86035347"><ele>541.9</ele><time>2012-07-25T15:46:52.0000000+00:00</time></trkpt><trkpt lat="63.81946182" lon="-18.86073303"><ele>542.2</ele><time>2012-07-25T15:46:57.0000000+00:00</time></trkpt><trkpt lat="63.8195343" lon="-18.86112404"><ele>542.3</ele><time>2012-07-25T15:47:02.0000000+00:00</time></trkpt><trkpt lat="63.81958771" lon="-18.86154366"><ele>542.5</ele><time>2012-07-25T15:47:07.0000000+00:00</time></trkpt><trkpt lat="63.8196106" lon="-18.86196137"><ele>543.2</ele><time>2012-07-25T15:47:12.0000000+00:00</time></trkpt><trkpt lat="63.81962967" lon="-18.86233521"><ele>544.1</ele><time>2012-07-25T15:47:17.0000000+00:00</time></trkpt><trkpt lat="63.819664" lon="-18.86275673"><ele>543.8</ele><time>2012-07-25T15:47:22.0000000+00:00</time></trkpt><trkpt lat="63.81972122" lon="-18.86313438"><ele>543.9</ele><time>2012-07-25T15:47:27.0000000+00:00</time></trkpt><trkpt lat="63.81978607" lon="-18.86345482"><ele>544.4</ele><time>2012-07-25T15:47:32.0000000+00:00</time></trkpt><trkpt lat="63.81983185" lon="-18.86368179"><ele>544.2</ele><time>2012-07-25T15:47:37.0000000+00:00</time></trkpt><trkpt lat="63.81986618" lon="-18.86395645"><ele>544.2</ele><time>2012-07-25T15:47:42.0000000+00:00</time></trkpt><trkpt lat="63.81988525" lon="-18.86427116"><ele>543.3</ele><time>2012-07-25T15:47:47.0000000+00:00</time></trkpt><trkpt lat="63.81990051" lon="-18.86467552"><ele>541.7</ele><time>2012-07-25T15:47:52.0000000+00:00</time></trkpt><trkpt lat="63.81987763" lon="-18.86509323"><ele>541.9</ele><time>2012-07-25T15:47:57.0000000+00:00</time></trkpt><trkpt lat="63.81982422" lon="-18.86551476"><ele>541.5</ele><time>2012-07-25T15:48:02.0000000+00:00</time></trkpt><trkpt lat="63.81975174" lon="-18.86596108"><ele>541.1</ele><time>2012-07-25T15:48:07.0000000+00:00</time></trkpt><trkpt lat="63.81964493" lon="-18.86640549"><ele>541.1</ele><time>2012-07-25T15:48:12.0000000+00:00</time></trkpt><trkpt lat="63.81955719" lon="-18.86686134"><ele>541.4</ele><time>2012-07-25T15:48:17.0000000+00:00</time></trkpt><trkpt lat="63.81945038" lon="-18.86729431"><ele>541.8</ele><time>2012-07-25T15:48:22.0000000+00:00</time></trkpt><trkpt lat="63.81932449" lon="-18.8676796"><ele>542.1</ele><time>2012-07-25T15:48:27.0000000+00:00</time></trkpt><trkpt lat="63.81915665" lon="-18.8680687"><ele>542.5</ele><time>2012-07-25T15:48:32.0000000+00:00</time></trkpt><trkpt lat="63.81902313" lon="-18.86846924"><ele>543.6</ele><time>2012-07-25T15:48:37.0000000+00:00</time></trkpt><trkpt lat="63.81887054" lon="-18.86887169"><ele>544.2</ele><time>2012-07-25T15:48:42.0000000+00:00</time></trkpt><trkpt lat="63.81873322" lon="-18.86923599"><ele>545.1</ele><time>2012-07-25T15:48:47.0000000+00:00</time></trkpt><trkpt lat="63.81861115" lon="-18.86962891"><ele>546.4</ele><time>2012-07-25T15:48:52.0000000+00:00</time></trkpt><trkpt lat="63.81848526" lon="-18.86995506"><ele>547.2</ele><time>2012-07-25T15:48:57.0000000+00:00</time></trkpt><trkpt lat="63.81834793" lon="-18.87029457"><ele>548.1</ele><time>2012-07-25T15:49:02.0000000+00:00</time></trkpt><trkpt lat="63.81821442" lon="-18.87064171"><ele>549.3</ele><time>2012-07-25T15:49:07.0000000+00:00</time></trkpt><trkpt lat="63.81813812" lon="-18.87089539"><ele>548.0</ele><time>2012-07-25T15:49:12.0000000+00:00</time></trkpt><trkpt lat="63.81806946" lon="-18.8710804"><ele>545.1</ele><time>2012-07-25T15:49:17.0000000+00:00</time></trkpt><trkpt lat="63.81801987" lon="-18.87127495"><ele>543.2</ele><time>2012-07-25T15:49:22.0000000+00:00</time></trkpt><trkpt lat="63.81791687" lon="-18.87156868"><ele>541.7</ele><time>2012-07-25T15:49:27.0000000+00:00</time></trkpt><trkpt lat="63.81782532" lon="-18.87180328"><ele>544.3</ele><time>2012-07-25T15:49:32.0000000+00:00</time></trkpt><trkpt lat="63.81776047" lon="-18.87202835"><ele>547.0</ele><time>2012-07-25T15:49:37.0000000+00:00</time></trkpt><trkpt lat="63.81768036" lon="-18.87231445"><ele>546.4</ele><time>2012-07-25T15:49:42.0000000+00:00</time></trkpt><trkpt lat="63.81756973" lon="-18.87269211"><ele>545.1</ele><time>2012-07-25T15:49:47.0000000+00:00</time></trkpt><trkpt lat="63.81746292" lon="-18.8730545"><ele>545.0</ele><time>2012-07-25T15:49:52.0000000+00:00</time></trkpt><trkpt lat="63.817379" lon="-18.87338257"><ele>545.2</ele><time>2012-07-25T15:49:57.0000000+00:00</time></trkpt><trkpt lat="63.81729126" lon="-18.87369728"><ele>545.0</ele><time>2012-07-25T15:50:02.0000000+00:00</time></trkpt><trkpt lat="63.81721878" lon="-18.87401581"><ele>545.5</ele><time>2012-07-25T15:50:07.0000000+00:00</time></trkpt><trkpt lat="63.81713486" lon="-18.87433624"><ele>546.2</ele><time>2012-07-25T15:50:12.0000000+00:00</time></trkpt><trkpt lat="63.8170433" lon="-18.87465668"><ele>545.8</ele><time>2012-07-25T15:50:17.0000000+00:00</time></trkpt><trkpt lat="63.81694794" lon="-18.87496376"><ele>545.7</ele><time>2012-07-25T15:50:22.0000000+00:00</time></trkpt><trkpt lat="63.81684494" lon="-18.87522316"><ele>545.4</ele><time>2012-07-25T15:50:27.0000000+00:00</time></trkpt><trkpt lat="63.81674576" lon="-18.87543678"><ele>544.9</ele><time>2012-07-25T15:50:32.0000000+00:00</time></trkpt><trkpt lat="63.81664276" lon="-18.87571907"><ele>544.8</ele><time>2012-07-25T15:50:37.0000000+00:00</time></trkpt><trkpt lat="63.81658173" lon="-18.87591744"><ele>544.2</ele><time>2012-07-25T15:50:42.0000000+00:00</time></trkpt><trkpt lat="63.81655121" lon="-18.87602997"><ele>544.6</ele><time>2012-07-25T15:50:47.0000000+00:00</time></trkpt><trkpt lat="63.81654358" lon="-18.87604141"><ele>543.4</ele><time>2012-07-25T15:50:52.0000000+00:00</time></trkpt><trkpt lat="63.81654739" lon="-18.87603951"><ele>543.5</ele><time>2012-07-25T15:50:57.0000000+00:00</time></trkpt><trkpt lat="63.81654739" lon="-18.87604141"><ele>543.5</ele><time>2012-07-25T15:51:02.0000000+00:00</time></trkpt><trkpt lat="63.81653214" lon="-18.87610817"><ele>543.5</ele><time>2012-07-25T15:51:07.0000000+00:00</time></trkpt><trkpt lat="63.81649399" lon="-18.87625694"><ele>544.0</ele><time>2012-07-25T15:51:12.0000000+00:00</time></trkpt><trkpt lat="63.81648636" lon="-18.87628365"><ele>543.4</ele><time>2012-07-25T15:51:17.0000000+00:00</time></trkpt><trkpt lat="63.81648636" lon="-18.87627602"><ele>543.3</ele><time>2012-07-25T15:51:22.0000000+00:00</time></trkpt><trkpt lat="63.81648636" lon="-18.87625885"><ele>542.9</ele><time>2012-07-25T15:51:27.0000000+00:00</time></trkpt><trkpt lat="63.81648636" lon="-18.87628174"><ele>543.3</ele><time>2012-07-25T15:51:32.0000000+00:00</time></trkpt><trkpt lat="63.81648636" lon="-18.87627602"><ele>543.0</ele><time>2012-07-25T15:51:37.0000000+00:00</time></trkpt><trkpt lat="63.81648636" lon="-18.8762722"><ele>542.9</ele><time>2012-07-25T15:51:42.0000000+00:00</time></trkpt><trkpt lat="63.81648636" lon="-18.87626839"><ele>542.8</ele><time>2012-07-25T15:51:47.0000000+00:00</time></trkpt><trkpt lat="63.81648636" lon="-18.87627029"><ele>542.8</ele><time>2012-07-25T15:51:52.0000000+00:00</time></trkpt><trkpt lat="63.81644821" lon="-18.87644005"><ele>543.5</ele><time>2012-07-25T15:51:57.0000000+00:00</time></trkpt><trkpt lat="63.8163681" lon="-18.87674713"><ele>543.2</ele><time>2012-07-25T15:52:02.0000000+00:00</time></trkpt><trkpt lat="63.81628799" lon="-18.87708473"><ele>542.6</ele><time>2012-07-25T15:52:07.0000000+00:00</time></trkpt><trkpt lat="63.81620026" lon="-18.87740707"><ele>542.0</ele><time>2012-07-25T15:52:12.0000000+00:00</time></trkpt><trkpt lat="63.81611633" lon="-18.87769699"><ele>540.6</ele><time>2012-07-25T15:52:17.0000000+00:00</time></trkpt><trkpt lat="63.8160286" lon="-18.87801552"><ele>540.4</ele><time>2012-07-25T15:52:22.0000000+00:00</time></trkpt><trkpt lat="63.81595612" lon="-18.87832832"><ele>539.5</ele><time>2012-07-25T15:52:27.0000000+00:00</time></trkpt><trkpt lat="63.81588364" lon="-18.87858963"><ele>542.0</ele><time>2012-07-25T15:52:32.0000000+00:00</time></trkpt><trkpt lat="63.81581116" lon="-18.87886238"><ele>542.9</ele><time>2012-07-25T15:52:37.0000000+00:00</time></trkpt><trkpt lat="63.81573868" lon="-18.87917328"><ele>543.2</ele><time>2012-07-25T15:52:42.0000000+00:00</time></trkpt><trkpt lat="63.81564331" lon="-18.87951279"><ele>542.5</ele><time>2012-07-25T15:52:47.0000000+00:00</time></trkpt><trkpt lat="63.8155632" lon="-18.87981987"><ele>542.4</ele><time>2012-07-25T15:52:52.0000000+00:00</time></trkpt><trkpt lat="63.81548309" lon="-18.88009453"><ele>543.2</ele><time>2012-07-25T15:52:57.0000000+00:00</time></trkpt><trkpt lat="63.8154068" lon="-18.88037872"><ele>542.9</ele><time>2012-07-25T15:53:02.0000000+00:00</time></trkpt><trkpt lat="63.81535721" lon="-18.88059425"><ele>542.3</ele><time>2012-07-25T15:53:07.0000000+00:00</time></trkpt><trkpt lat="63.8153038" lon="-18.88074684"><ele>541.6</ele><time>2012-07-25T15:53:12.0000000+00:00</time></trkpt><trkpt lat="63.8152504" lon="-18.88090134"><ele>542.5</ele><time>2012-07-25T15:53:17.0000000+00:00</time></trkpt><trkpt lat="63.81518173" lon="-18.88111496"><ele>542.1</ele><time>2012-07-25T15:53:22.0000000+00:00</time></trkpt><trkpt lat="63.8151207" lon="-18.8813076"><ele>541.7</ele><time>2012-07-25T15:53:27.0000000+00:00</time></trkpt><trkpt lat="63.81504822" lon="-18.88144112"><ele>542.1</ele><time>2012-07-25T15:53:32.0000000+00:00</time></trkpt><trkpt lat="63.81499863" lon="-18.88169479"><ele>544.0</ele><time>2012-07-25T15:53:37.0000000+00:00</time></trkpt><trkpt lat="63.81492233" lon="-18.8819561"><ele>543.8</ele><time>2012-07-25T15:53:42.0000000+00:00</time></trkpt><trkpt lat="63.81485367" lon="-18.88218308"><ele>543.5</ele><time>2012-07-25T15:53:47.0000000+00:00</time></trkpt><trkpt lat="63.81484985" lon="-18.88221169"><ele>543.5</ele><time>2012-07-25T15:53:52.0000000+00:00</time></trkpt><trkpt lat="63.81484985" lon="-18.88220787"><ele>543.5</ele><time>2012-07-25T15:53:57.0000000+00:00</time></trkpt><trkpt lat="63.81484985" lon="-18.88219643"><ele>543.5</ele><time>2012-07-25T15:54:02.0000000+00:00</time></trkpt><trkpt lat="63.81485367" lon="-18.88218308"><ele>543.3</ele><time>2012-07-25T15:54:07.0000000+00:00</time></trkpt><trkpt lat="63.81485367" lon="-18.88218117"><ele>543.3</ele><time>2012-07-25T15:54:12.0000000+00:00</time></trkpt><trkpt lat="63.81485748" lon="-18.8821888"><ele>542.9</ele><time>2012-07-25T15:54:17.0000000+00:00</time></trkpt><trkpt lat="63.81480408" lon="-18.88233757"><ele>542.7</ele><time>2012-07-25T15:54:22.0000000+00:00</time></trkpt><trkpt lat="63.81474686" lon="-18.88254356"><ele>543.2</ele><time>2012-07-25T15:54:27.0000000+00:00</time></trkpt><trkpt lat="63.8147049" lon="-18.88275147"><ele>543.8</ele><time>2012-07-25T15:54:32.0000000+00:00</time></trkpt><trkpt lat="63.8146286" lon="-18.88296127"><ele>543.2</ele><time>2012-07-25T15:54:37.0000000+00:00</time></trkpt><trkpt lat="63.8145752" lon="-18.88316536"><ele>543.3</ele><time>2012-07-25T15:54:42.0000000+00:00</time></trkpt><trkpt lat="63.81451798" lon="-18.88339233"><ele>543.9</ele><time>2012-07-25T15:54:47.0000000+00:00</time></trkpt><trkpt lat="63.8144722" lon="-18.88360596"><ele>544.1</ele><time>2012-07-25T15:54:52.0000000+00:00</time></trkpt><trkpt lat="63.81441498" lon="-18.88381767"><ele>544.7</ele><time>2012-07-25T15:54:57.0000000+00:00</time></trkpt><trkpt lat="63.81436539" lon="-18.88401032"><ele>544.8</ele><time>2012-07-25T15:55:02.0000000+00:00</time></trkpt><trkpt lat="63.81430054" lon="-18.88418007"><ele>544.2</ele><time>2012-07-25T15:55:07.0000000+00:00</time></trkpt><trkpt lat="63.81425476" lon="-18.88436699"><ele>544.2</ele><time>2012-07-25T15:55:12.0000000+00:00</time></trkpt><trkpt lat="63.81421661" lon="-18.88458633"><ele>544.9</ele><time>2012-07-25T15:55:17.0000000+00:00</time></trkpt><trkpt lat="63.81417847" lon="-18.88476753"><ele>545.2</ele><time>2012-07-25T15:55:22.0000000+00:00</time></trkpt><trkpt lat="63.81411362" lon="-18.88490677"><ele>545.0</ele><time>2012-07-25T15:55:27.0000000+00:00</time></trkpt><trkpt lat="63.81404877" lon="-18.88505173"><ele>545.0</ele><time>2012-07-25T15:55:32.0000000+00:00</time></trkpt><trkpt lat="63.81399918" lon="-18.88523865"><ele>545.0</ele><time>2012-07-25T15:55:37.0000000+00:00</time></trkpt><trkpt lat="63.81391907" lon="-18.8854084"><ele>543.9</ele><time>2012-07-25T15:55:42.0000000+00:00</time></trkpt><trkpt lat="63.81388855" lon="-18.88559914"><ele>544.3</ele><time>2012-07-25T15:55:47.0000000+00:00</time></trkpt><trkpt lat="63.81386566" lon="-18.88580895"><ele>544.7</ele><time>2012-07-25T15:55:52.0000000+00:00</time></trkpt><trkpt lat="63.81378555" lon="-18.88596535"><ele>545.3</ele><time>2012-07-25T15:55:57.0000000+00:00</time></trkpt><trkpt lat="63.81370163" lon="-18.88610268"><ele>545.6</ele><time>2012-07-25T15:56:02.0000000+00:00</time></trkpt><trkpt lat="63.81362915" lon="-18.8862896"><ele>545.4</ele><time>2012-07-25T15:56:07.0000000+00:00</time></trkpt><trkpt lat="63.81356049" lon="-18.88644218"><ele>545.3</ele><time>2012-07-25T15:56:12.0000000+00:00</time></trkpt><trkpt lat="63.81349182" lon="-18.88662529"><ele>545.5</ele><time>2012-07-25T15:56:17.0000000+00:00</time></trkpt><trkpt lat="63.81342316" lon="-18.88679504"><ele>546.3</ele><time>2012-07-25T15:56:22.0000000+00:00</time></trkpt><trkpt lat="63.81335068" lon="-18.88698196"><ele>546.2</ele><time>2012-07-25T15:56:27.0000000+00:00</time></trkpt><trkpt lat="63.8132782" lon="-18.88716316"><ele>546.2</ele><time>2012-07-25T15:56:32.0000000+00:00</time></trkpt><trkpt lat="63.81322479" lon="-18.88733101"><ele>544.7</ele><time>2012-07-25T15:56:37.0000000+00:00</time></trkpt><trkpt lat="63.81316757" lon="-18.88750267"><ele>544.4</ele><time>2012-07-25T15:56:42.0000000+00:00</time></trkpt><trkpt lat="63.81310654" lon="-18.88766289"><ele>545.0</ele><time>2012-07-25T15:56:47.0000000+00:00</time></trkpt><trkpt lat="63.81305313" lon="-18.88783264"><ele>545.4</ele><time>2012-07-25T15:56:52.0000000+00:00</time></trkpt><trkpt lat="63.81298065" lon="-18.88796616"><ele>545.1</ele><time>2012-07-25T15:56:57.0000000+00:00</time></trkpt><trkpt lat="63.81290817" lon="-18.88804817"><ele>543.5</ele><time>2012-07-25T15:57:02.0000000+00:00</time></trkpt><trkpt lat="63.81282425" lon="-18.88824272"><ele>544.9</ele><time>2012-07-25T15:57:07.0000000+00:00</time></trkpt><trkpt lat="63.81273651" lon="-18.88843918"><ele>544.4</ele><time>2012-07-25T15:57:12.0000000+00:00</time></trkpt><trkpt lat="63.81265259" lon="-18.88863373"><ele>544.4</ele><time>2012-07-25T15:57:17.0000000+00:00</time></trkpt><trkpt lat="63.81257629" lon="-18.88882256"><ele>545.0</ele><time>2012-07-25T15:57:22.0000000+00:00</time></trkpt><trkpt lat="63.81249237" lon="-18.88903809"><ele>544.6</ele><time>2012-07-25T15:57:27.0000000+00:00</time></trkpt><trkpt lat="63.81242371" lon="-18.88912964"><ele>544.6</ele><time>2012-07-25T15:57:32.0000000+00:00</time></trkpt><trkpt lat="63.81235123" lon="-18.88934517"><ele>546.4</ele><time>2012-07-25T15:57:37.0000000+00:00</time></trkpt><trkpt lat="63.81229401" lon="-18.88955116"><ele>547.0</ele><time>2012-07-25T15:57:42.0000000+00:00</time></trkpt><trkpt lat="63.81221771" lon="-18.88971138"><ele>547.8</ele><time>2012-07-25T15:57:47.0000000+00:00</time></trkpt><trkpt lat="63.81214142" lon="-18.88990784"><ele>548.5</ele><time>2012-07-25T15:57:52.0000000+00:00</time></trkpt><trkpt lat="63.81205368" lon="-18.89011574"><ele>548.6</ele><time>2012-07-25T15:57:57.0000000+00:00</time></trkpt><trkpt lat="63.81197739" lon="-18.89029312"><ele>548.1</ele><time>2012-07-25T15:58:02.0000000+00:00</time></trkpt><trkpt lat="63.81190872" lon="-18.89033699"><ele>548.2</ele><time>2012-07-25T15:58:07.0000000+00:00</time></trkpt><trkpt lat="63.81185913" lon="-18.89027405"><ele>547.7</ele><time>2012-07-25T15:58:12.0000000+00:00</time></trkpt><trkpt lat="63.81187439" lon="-18.89015007"><ele>548.6</ele><time>2012-07-25T15:58:17.0000000+00:00</time></trkpt><trkpt lat="63.81190109" lon="-18.8902626"><ele>548.4</ele><time>2012-07-25T15:58:22.0000000+00:00</time></trkpt><trkpt lat="63.81186676" lon="-18.89047623"><ele>548.9</ele><time>2012-07-25T15:58:27.0000000+00:00</time></trkpt><trkpt lat="63.81181335" lon="-18.89068604"><ele>548.3</ele><time>2012-07-25T15:58:32.0000000+00:00</time></trkpt><trkpt lat="63.81174851" lon="-18.89090157"><ele>548.0</ele><time>2012-07-25T15:58:37.0000000+00:00</time></trkpt><trkpt lat="63.81166458" lon="-18.89111328"><ele>548.2</ele><time>2012-07-25T15:58:42.0000000+00:00</time></trkpt><trkpt lat="63.81158447" lon="-18.89131165"><ele>547.5</ele><time>2012-07-25T15:58:47.0000000+00:00</time></trkpt><trkpt lat="63.81150436" lon="-18.89154434"><ele>547.3</ele><time>2012-07-25T15:58:52.0000000+00:00</time></trkpt><trkpt lat="63.811409" lon="-18.89178467"><ele>546.4</ele><time>2012-07-25T15:58:57.0000000+00:00</time></trkpt><trkpt lat="63.81130981" lon="-18.89200592"><ele>546.2</ele><time>2012-07-25T15:59:02.0000000+00:00</time></trkpt><trkpt lat="63.81121445" lon="-18.89222336"><ele>545.0</ele><time>2012-07-25T15:59:07.0000000+00:00</time></trkpt><trkpt lat="63.81114197" lon="-18.89241982"><ele>544.3</ele><time>2012-07-25T15:59:12.0000000+00:00</time></trkpt><trkpt lat="63.81108093" lon="-18.89262962"><ele>543.6</ele><time>2012-07-25T15:59:17.0000000+00:00</time></trkpt><trkpt lat="63.81099701" lon="-18.89282608"><ele>543.5</ele><time>2012-07-25T15:59:22.0000000+00:00</time></trkpt><trkpt lat="63.81090546" lon="-18.8930397"><ele>543.8</ele><time>2012-07-25T15:59:27.0000000+00:00</time></trkpt><trkpt lat="63.81084442" lon="-18.89322662"><ele>543.4</ele><time>2012-07-25T15:59:32.0000000+00:00</time></trkpt><trkpt lat="63.81077194" lon="-18.89343643"><ele>543.2</ele><time>2012-07-25T15:59:37.0000000+00:00</time></trkpt><trkpt lat="63.81069565" lon="-18.8936615"><ele>543.7</ele><time>2012-07-25T15:59:42.0000000+00:00</time></trkpt><trkpt lat="63.81062317" lon="-18.89383125"><ele>543.7</ele><time>2012-07-25T15:59:47.0000000+00:00</time></trkpt><trkpt lat="63.81055832" lon="-18.89398384"><ele>543.5</ele><time>2012-07-25T15:59:52.0000000+00:00</time></trkpt><trkpt lat="63.81049347" lon="-18.89416122"><ele>543.9</ele><time>2012-07-25T15:59:57.0000000+00:00</time></trkpt><trkpt lat="63.81042862" lon="-18.89431191"><ele>543.7</ele><time>2012-07-25T16:00:02.0000000+00:00</time></trkpt><trkpt lat="63.81036377" lon="-18.89445686"><ele>544.4</ele><time>2012-07-25T16:00:07.0000000+00:00</time></trkpt><trkpt lat="63.81031418" lon="-18.89462662"><ele>545.5</ele><time>2012-07-25T16:00:12.0000000+00:00</time></trkpt><trkpt lat="63.81025314" lon="-18.89477348"><ele>544.9</ele><time>2012-07-25T16:00:17.0000000+00:00</time></trkpt><trkpt lat="63.81018829" lon="-18.89493752"><ele>544.6</ele><time>2012-07-25T16:00:22.0000000+00:00</time></trkpt><trkpt lat="63.81015015" lon="-18.89511681"><ele>544.3</ele><time>2012-07-25T16:00:27.0000000+00:00</time></trkpt><trkpt lat="63.81008911" lon="-18.8952179"><ele>544.3</ele><time>2012-07-25T16:00:32.0000000+00:00</time></trkpt><trkpt lat="63.81003571" lon="-18.89530945"><ele>543.8</ele><time>2012-07-25T16:00:37.0000000+00:00</time></trkpt><trkpt lat="63.81003571" lon="-18.89528656"><ele>544.0</ele><time>2012-07-25T16:00:42.0000000+00:00</time></trkpt><trkpt lat="63.81003571" lon="-18.89528656"><ele>543.7</ele><time>2012-07-25T16:00:47.0000000+00:00</time></trkpt><trkpt lat="63.81003571" lon="-18.89528656"><ele>543.6</ele><time>2012-07-25T16:00:52.0000000+00:00</time></trkpt><trkpt lat="63.81003189" lon="-18.89528847"><ele>543.5</ele><time>2012-07-25T16:00:57.0000000+00:00</time></trkpt><trkpt lat="63.81003189" lon="-18.8952961"><ele>543.6</ele><time>2012-07-25T16:01:02.0000000+00:00</time></trkpt><trkpt lat="63.81002808" lon="-18.89530182"><ele>543.3</ele><time>2012-07-25T16:01:07.0000000+00:00</time></trkpt><trkpt lat="63.81001282" lon="-18.89532852"><ele>543.4</ele><time>2012-07-25T16:01:12.0000000+00:00</time></trkpt><trkpt lat="63.81001663" lon="-18.89533043"><ele>543.3</ele><time>2012-07-25T16:01:17.0000000+00:00</time></trkpt><trkpt lat="63.81002426" lon="-18.89533997"><ele>543.2</ele><time>2012-07-25T16:01:22.0000000+00:00</time></trkpt><trkpt lat="63.81002426" lon="-18.89533997"><ele>543.1</ele><time>2012-07-25T16:01:27.0000000+00:00</time></trkpt><trkpt lat="63.81002426" lon="-18.89533997"><ele>543.0</ele><time>2012-07-25T16:01:32.0000000+00:00</time></trkpt><trkpt lat="63.81002426" lon="-18.89533997"><ele>543.0</ele><time>2012-07-25T16:01:37.0000000+00:00</time></trkpt><trkpt lat="63.81002426" lon="-18.89534378"><ele>542.9</ele><time>2012-07-25T16:01:42.0000000+00:00</time></trkpt><trkpt lat="63.81002045" lon="-18.89535713"><ele>542.8</ele><time>2012-07-25T16:01:47.0000000+00:00</time></trkpt><trkpt lat="63.80997849" lon="-18.8954773"><ele>543.0</ele><time>2012-07-25T16:01:52.0000000+00:00</time></trkpt><trkpt lat="63.80993652" lon="-18.89559555"><ele>543.8</ele><time>2012-07-25T16:01:57.0000000+00:00</time></trkpt><trkpt lat="63.80991745" lon="-18.89563179"><ele>543.4</ele><time>2012-07-25T16:02:02.0000000+00:00</time></trkpt><trkpt lat="63.80990982" lon="-18.89571762"><ele>543.8</ele><time>2012-07-25T16:02:07.0000000+00:00</time></trkpt><trkpt lat="63.8098526" lon="-18.8958168"><ele>543.6</ele><time>2012-07-25T16:02:12.0000000+00:00</time></trkpt><trkpt lat="63.80978394" lon="-18.89593697"><ele>543.7</ele><time>2012-07-25T16:02:17.0000000+00:00</time></trkpt><trkpt lat="63.80971527" lon="-18.89608192"><ele>543.2</ele><time>2012-07-25T16:02:22.0000000+00:00</time></trkpt><trkpt lat="63.80966187" lon="-18.89626122"><ele>543.2</ele><time>2012-07-25T16:02:27.0000000+00:00</time></trkpt><trkpt lat="63.80962753" lon="-18.89643669"><ele>543.7</ele><time>2012-07-25T16:02:32.0000000+00:00</time></trkpt><trkpt lat="63.80954361" lon="-18.89658165"><ele>542.8</ele><time>2012-07-25T16:02:37.0000000+00:00</time></trkpt><trkpt lat="63.80949402" lon="-18.89671516"><ele>542.0</ele><time>2012-07-25T16:02:42.0000000+00:00</time></trkpt><trkpt lat="63.80943298" lon="-18.8968792"><ele>540.9</ele><time>2012-07-25T16:02:47.0000000+00:00</time></trkpt><trkpt lat="63.80938339" lon="-18.89702606"><ele>540.9</ele><time>2012-07-25T16:02:52.0000000+00:00</time></trkpt><trkpt lat="63.80931473" lon="-18.89720535"><ele>540.7</ele><time>2012-07-25T16:02:57.0000000+00:00</time></trkpt><trkpt lat="63.80922699" lon="-18.89745331"><ele>540.4</ele><time>2012-07-25T16:03:02.0000000+00:00</time></trkpt><trkpt lat="63.80913544" lon="-18.89768791"><ele>539.1</ele><time>2012-07-25T16:03:07.0000000+00:00</time></trkpt><trkpt lat="63.80905914" lon="-18.89790154"><ele>539.8</ele><time>2012-07-25T16:03:12.0000000+00:00</time></trkpt><trkpt lat="63.80895996" lon="-18.89813805"><ele>540.2</ele><time>2012-07-25T16:03:17.0000000+00:00</time></trkpt><trkpt lat="63.80887985" lon="-18.89832306"><ele>540.4</ele><time>2012-07-25T16:03:22.0000000+00:00</time></trkpt><trkpt lat="63.80879974" lon="-18.89852142"><ele>540.8</ele><time>2012-07-25T16:03:27.0000000+00:00</time></trkpt><trkpt lat="63.80872345" lon="-18.89871979"><ele>541.2</ele><time>2012-07-25T16:03:32.0000000+00:00</time></trkpt><trkpt lat="63.80864334" lon="-18.8989048"><ele>541.2</ele><time>2012-07-25T16:03:37.0000000+00:00</time></trkpt><trkpt lat="63.80858231" lon="-18.89907455"><ele>542.5</ele><time>2012-07-25T16:03:42.0000000+00:00</time></trkpt><trkpt lat="63.80851746" lon="-18.89927673"><ele>543.8</ele><time>2012-07-25T16:03:47.0000000+00:00</time></trkpt><trkpt lat="63.80844879" lon="-18.89946938"><ele>542.8</ele><time>2012-07-25T16:03:52.0000000+00:00</time></trkpt><trkpt lat="63.80838776" lon="-18.89964867"><ele>544.2</ele><time>2012-07-25T16:03:57.0000000+00:00</time></trkpt><trkpt lat="63.80832291" lon="-18.89984894"><ele>543.7</ele><time>2012-07-25T16:04:02.0000000+00:00</time></trkpt><trkpt lat="63.80828095" lon="-18.89999771"><ele>544.2</ele><time>2012-07-25T16:04:07.0000000+00:00</time></trkpt><trkpt lat="63.80823517" lon="-18.90015221"><ele>545.8</ele><time>2012-07-25T16:04:12.0000000+00:00</time></trkpt><trkpt lat="63.80818176" lon="-18.90035057"><ele>546.9</ele><time>2012-07-25T16:04:17.0000000+00:00</time></trkpt><trkpt lat="63.80810928" lon="-18.90052795"><ele>546.8</ele><time>2012-07-25T16:04:22.0000000+00:00</time></trkpt><trkpt lat="63.80804443" lon="-18.90070343"><ele>546.5</ele><time>2012-07-25T16:04:27.0000000+00:00</time></trkpt><trkpt lat="63.80797577" lon="-18.90090942"><ele>546.7</ele><time>2012-07-25T16:04:32.0000000+00:00</time></trkpt><trkpt lat="63.8079071" lon="-18.9011116"><ele>548.3</ele><time>2012-07-25T16:04:37.0000000+00:00</time></trkpt><trkpt lat="63.80782318" lon="-18.90134239"><ele>548.4</ele><time>2012-07-25T16:04:42.0000000+00:00</time></trkpt><trkpt lat="63.80774307" lon="-18.90156174"><ele>547.5</ele><time>2012-07-25T16:04:47.0000000+00:00</time></trkpt><trkpt lat="63.80766678" lon="-18.9017601"><ele>548.5</ele><time>2012-07-25T16:04:52.0000000+00:00</time></trkpt><trkpt lat="63.80759049" lon="-18.90196991"><ele>548.7</ele><time>2012-07-25T16:04:57.0000000+00:00</time></trkpt><trkpt lat="63.80754471" lon="-18.90212441"><ele>548.1</ele><time>2012-07-25T16:05:02.0000000+00:00</time></trkpt><trkpt lat="63.80747223" lon="-18.9023304"><ele>547.1</ele><time>2012-07-25T16:05:07.0000000+00:00</time></trkpt><trkpt lat="63.80739212" lon="-18.90251923"><ele>545.8</ele><time>2012-07-25T16:05:12.0000000+00:00</time></trkpt><trkpt lat="63.8073082" lon="-18.90273285"><ele>544.8</ele><time>2012-07-25T16:05:17.0000000+00:00</time></trkpt><trkpt lat="63.8072319" lon="-18.90294647"><ele>544.3</ele><time>2012-07-25T16:05:22.0000000+00:00</time></trkpt><trkpt lat="63.80715179" lon="-18.903162"><ele>543.4</ele><time>2012-07-25T16:05:27.0000000+00:00</time></trkpt><trkpt lat="63.80707169" lon="-18.90336609"><ele>542.7</ele><time>2012-07-25T16:05:32.0000000+00:00</time></trkpt><trkpt lat="63.80699158" lon="-18.90358162"><ele>542.3</ele><time>2012-07-25T16:05:37.0000000+00:00</time></trkpt><trkpt lat="63.80690765" lon="-18.90380859"><ele>541.6</ele><time>2012-07-25T16:05:42.0000000+00:00</time></trkpt><trkpt lat="63.80681992" lon="-18.9040432"><ele>542.6</ele><time>2012-07-25T16:05:47.0000000+00:00</time></trkpt><trkpt lat="63.80673218" lon="-18.90426445"><ele>543.3</ele><time>2012-07-25T16:05:52.0000000+00:00</time></trkpt><trkpt lat="63.806633" lon="-18.90450668"><ele>544.0</ele><time>2012-07-25T16:05:57.0000000+00:00</time></trkpt><trkpt lat="63.80654526" lon="-18.90473557"><ele>541.9</ele><time>2012-07-25T16:06:02.0000000+00:00</time></trkpt><trkpt lat="63.8065033" lon="-18.90488815"><ele>540.7</ele><time>2012-07-25T16:06:07.0000000+00:00</time></trkpt><trkpt lat="63.80644226" lon="-18.9050293"><ele>540.3</ele><time>2012-07-25T16:06:12.0000000+00:00</time></trkpt><trkpt lat="63.80636215" lon="-18.90522766"><ele>539.2</ele><time>2012-07-25T16:06:17.0000000+00:00</time></trkpt><trkpt lat="63.80627823" lon="-18.90543556"><ele>537.4</ele><time>2012-07-25T16:06:22.0000000+00:00</time></trkpt><trkpt lat="63.80619431" lon="-18.90566063"><ele>537.8</ele><time>2012-07-25T16:06:27.0000000+00:00</time></trkpt><trkpt lat="63.80610657" lon="-18.90587044"><ele>538.4</ele><time>2012-07-25T16:06:32.0000000+00:00</time></trkpt><trkpt lat="63.80602264" lon="-18.90611649"><ele>538.0</ele><time>2012-07-25T16:06:37.0000000+00:00</time></trkpt><trkpt lat="63.80593872" lon="-18.90635872"><ele>538.8</ele><time>2012-07-25T16:06:42.0000000+00:00</time></trkpt><trkpt lat="63.80585098" lon="-18.90656662"><ele>540.2</ele><time>2012-07-25T16:06:47.0000000+00:00</time></trkpt><trkpt lat="63.80577469" lon="-18.90677834"><ele>541.9</ele><time>2012-07-25T16:06:52.0000000+00:00</time></trkpt><trkpt lat="63.8056984" lon="-18.90699196"><ele>542.8</ele><time>2012-07-25T16:06:57.0000000+00:00</time></trkpt><trkpt lat="63.80561447" lon="-18.90721512"><ele>543.3</ele><time>2012-07-25T16:07:02.0000000+00:00</time></trkpt><trkpt lat="63.80553055" lon="-18.907444"><ele>543.1</ele><time>2012-07-25T16:07:07.0000000+00:00</time></trkpt><trkpt lat="63.805439" lon="-18.9076767"><ele>543.1</ele><time>2012-07-25T16:07:12.0000000+00:00</time></trkpt><trkpt lat="63.80534744" lon="-18.9079113"><ele>543.5</ele><time>2012-07-25T16:07:17.0000000+00:00</time></trkpt><trkpt lat="63.80525208" lon="-18.90814781"><ele>543.8</ele><time>2012-07-25T16:07:22.0000000+00:00</time></trkpt><trkpt lat="63.80516052" lon="-18.90839195"><ele>543.9</ele><time>2012-07-25T16:07:27.0000000+00:00</time></trkpt><trkpt lat="63.80506516" lon="-18.908638"><ele>544.2</ele><time>2012-07-25T16:07:32.0000000+00:00</time></trkpt><trkpt lat="63.80496979" lon="-18.90888977"><ele>544.2</ele><time>2012-07-25T16:07:37.0000000+00:00</time></trkpt><trkpt lat="63.80487061" lon="-18.90913582"><ele>544.6</ele><time>2012-07-25T16:07:42.0000000+00:00</time></trkpt><trkpt lat="63.80477524" lon="-18.90938187"><ele>544.9</ele><time>2012-07-25T16:07:47.0000000+00:00</time></trkpt><trkpt lat="63.8046875" lon="-18.90963173"><ele>545.6</ele><time>2012-07-25T16:07:52.0000000+00:00</time></trkpt><trkpt lat="63.80459213" lon="-18.90987206"><ele>546.1</ele><time>2012-07-25T16:07:57.0000000+00:00</time></trkpt><trkpt lat="63.80449677" lon="-18.91010475"><ele>546.3</ele><time>2012-07-25T16:08:02.0000000+00:00</time></trkpt><trkpt lat="63.80439758" lon="-18.91034508"><ele>546.8</ele><time>2012-07-25T16:08:07.0000000+00:00</time></trkpt><trkpt lat="63.80430603" lon="-18.91059113"><ele>547.0</ele><time>2012-07-25T16:08:12.0000000+00:00</time></trkpt><trkpt lat="63.80421448" lon="-18.91085243"><ele>547.4</ele><time>2012-07-25T16:08:17.0000000+00:00</time></trkpt><trkpt lat="63.80412674" lon="-18.91107559"><ele>547.8</ele><time>2012-07-25T16:08:22.0000000+00:00</time></trkpt><trkpt lat="63.80404663" lon="-18.91129875"><ele>548.5</ele><time>2012-07-25T16:08:27.0000000+00:00</time></trkpt><trkpt lat="63.80397034" lon="-18.91151238"><ele>549.3</ele><time>2012-07-25T16:08:32.0000000+00:00</time></trkpt><trkpt lat="63.80387116" lon="-18.91174126"><ele>550.5</ele><time>2012-07-25T16:08:37.0000000+00:00</time></trkpt><trkpt lat="63.80378342" lon="-18.91198731"><ele>550.6</ele><time>2012-07-25T16:08:42.0000000+00:00</time></trkpt><trkpt lat="63.80368805" lon="-18.91223335"><ele>551.0</ele><time>2012-07-25T16:08:47.0000000+00:00</time></trkpt><trkpt lat="63.80360413" lon="-18.91247749"><ele>551.2</ele><time>2012-07-25T16:08:52.0000000+00:00</time></trkpt><trkpt lat="63.80351639" lon="-18.91272545"><ele>550.6</ele><time>2012-07-25T16:08:57.0000000+00:00</time></trkpt><trkpt lat="63.80342102" lon="-18.91298294"><ele>550.7</ele><time>2012-07-25T16:09:02.0000000+00:00</time></trkpt><trkpt lat="63.80332947" lon="-18.91322327"><ele>550.6</ele><time>2012-07-25T16:09:07.0000000+00:00</time></trkpt><trkpt lat="63.80324173" lon="-18.9134655"><ele>550.5</ele><time>2012-07-25T16:09:12.0000000+00:00</time></trkpt><trkpt lat="63.80315399" lon="-18.91372871"><ele>550.4</ele><time>2012-07-25T16:09:17.0000000+00:00</time></trkpt><trkpt lat="63.80305481" lon="-18.91399193"><ele>550.6</ele><time>2012-07-25T16:09:22.0000000+00:00</time></trkpt><trkpt lat="63.80296707" lon="-18.91425133"><ele>549.9</ele><time>2012-07-25T16:09:27.0000000+00:00</time></trkpt><trkpt lat="63.80286408" lon="-18.91452789"><ele>550.8</ele><time>2012-07-25T16:09:32.0000000+00:00</time></trkpt><trkpt lat="63.80276871" lon="-18.91479492"><ele>550.8</ele><time>2012-07-25T16:09:37.0000000+00:00</time></trkpt><trkpt lat="63.80268097" lon="-18.91504097"><ele>549.5</ele><time>2012-07-25T16:09:42.0000000+00:00</time></trkpt><trkpt lat="63.80258942" lon="-18.91529274"><ele>549.7</ele><time>2012-07-25T16:09:47.0000000+00:00</time></trkpt><trkpt lat="63.80249786" lon="-18.91555595"><ele>549.6</ele><time>2012-07-25T16:09:52.0000000+00:00</time></trkpt><trkpt lat="63.8024025" lon="-18.91580582"><ele>551.2</ele><time>2012-07-25T16:09:57.0000000+00:00</time></trkpt><trkpt lat="63.80231476" lon="-18.91605949"><ele>550.9</ele><time>2012-07-25T16:10:02.0000000+00:00</time></trkpt><trkpt lat="63.80222321" lon="-18.91630936"><ele>550.4</ele><time>2012-07-25T16:10:07.0000000+00:00</time></trkpt><trkpt lat="63.80212402" lon="-18.91656303"><ele>551.0</ele><time>2012-07-25T16:10:12.0000000+00:00</time></trkpt><trkpt lat="63.80202103" lon="-18.91683197"><ele>550.4</ele><time>2012-07-25T16:10:17.0000000+00:00</time></trkpt><trkpt lat="63.80192566" lon="-18.91708946"><ele>550.4</ele><time>2012-07-25T16:10:22.0000000+00:00</time></trkpt><trkpt lat="63.80183411" lon="-18.91733933"><ele>549.7</ele><time>2012-07-25T16:10:27.0000000+00:00</time></trkpt><trkpt lat="63.80173492" lon="-18.9175911"><ele>549.4</ele><time>2012-07-25T16:10:32.0000000+00:00</time></trkpt><trkpt lat="63.80164337" lon="-18.91783524"><ele>550.7</ele><time>2012-07-25T16:10:37.0000000+00:00</time></trkpt><trkpt lat="63.80153275" lon="-18.91810036"><ele>550.9</ele><time>2012-07-25T16:10:42.0000000+00:00</time></trkpt><trkpt lat="63.80142975" lon="-18.91838265"><ele>550.4</ele><time>2012-07-25T16:10:47.0000000+00:00</time></trkpt><trkpt lat="63.8013382" lon="-18.91862869"><ele>550.2</ele><time>2012-07-25T16:10:52.0000000+00:00</time></trkpt><trkpt lat="63.80125427" lon="-18.91888619"><ele>548.5</ele><time>2012-07-25T16:10:57.0000000+00:00</time></trkpt><trkpt lat="63.80115128" lon="-18.91917229"><ele>547.8</ele><time>2012-07-25T16:11:02.0000000+00:00</time></trkpt><trkpt lat="63.80103302" lon="-18.91947174"><ele>547.1</ele><time>2012-07-25T16:11:07.0000000+00:00</time></trkpt><trkpt lat="63.80093384" lon="-18.91970825"><ele>544.7</ele><time>2012-07-25T16:11:12.0000000+00:00</time></trkpt><trkpt lat="63.80082703" lon="-18.919981"><ele>542.0</ele><time>2012-07-25T16:11:17.0000000+00:00</time></trkpt><trkpt lat="63.80072022" lon="-18.92027283"><ele>543.2</ele><time>2012-07-25T16:11:22.0000000+00:00</time></trkpt><trkpt lat="63.8006134" lon="-18.92054176"><ele>542.3</ele><time>2012-07-25T16:11:27.0000000+00:00</time></trkpt><trkpt lat="63.80050659" lon="-18.92083168"><ele>541.1</ele><time>2012-07-25T16:11:32.0000000+00:00</time></trkpt><trkpt lat="63.80041504" lon="-18.92110634"><ele>544.1</ele><time>2012-07-25T16:11:37.0000000+00:00</time></trkpt><trkpt lat="63.8003273" lon="-18.92133522"><ele>546.9</ele><time>2012-07-25T16:11:42.0000000+00:00</time></trkpt><trkpt lat="63.80023575" lon="-18.92153931"><ele>547.0</ele><time>2012-07-25T16:11:47.0000000+00:00</time></trkpt><trkpt lat="63.80013657" lon="-18.92175674"><ele>546.5</ele><time>2012-07-25T16:11:52.0000000+00:00</time></trkpt><trkpt lat="63.80002594" lon="-18.92200661"><ele>545.8</ele><time>2012-07-25T16:11:57.0000000+00:00</time></trkpt><trkpt lat="63.79995346" lon="-18.92220306"><ele>547.7</ele><time>2012-07-25T16:12:02.0000000+00:00</time></trkpt><trkpt lat="63.79989624" lon="-18.92238426"><ele>549.2</ele><time>2012-07-25T16:12:07.0000000+00:00</time></trkpt><trkpt lat="63.7998085" lon="-18.92257309"><ele>550.9</ele><time>2012-07-25T16:12:12.0000000+00:00</time></trkpt><trkpt lat="63.79972458" lon="-18.9227829"><ele>555.5</ele><time>2012-07-25T16:12:17.0000000+00:00</time></trkpt><trkpt lat="63.79972839" lon="-18.92280579"><ele>556.7</ele><time>2012-07-25T16:12:22.0000000+00:00</time></trkpt><trkpt lat="63.79969788" lon="-18.92287636"><ele>558.4</ele><time>2012-07-25T16:12:27.0000000+00:00</time></trkpt><trkpt lat="63.79964066" lon="-18.92302704"><ele>559.5</ele><time>2012-07-25T16:12:32.0000000+00:00</time></trkpt><trkpt lat="63.79956055" lon="-18.92322922"><ele>559.6</ele><time>2012-07-25T16:12:37.0000000+00:00</time></trkpt><trkpt lat="63.79944229" lon="-18.92343712"><ele>558.5</ele><time>2012-07-25T16:12:42.0000000+00:00</time></trkpt><trkpt lat="63.79933548" lon="-18.92368317"><ele>558.2</ele><time>2012-07-25T16:12:47.0000000+00:00</time></trkpt><trkpt lat="63.7992363" lon="-18.92394066"><ele>557.4</ele><time>2012-07-25T16:12:52.0000000+00:00</time></trkpt><trkpt lat="63.79913712" lon="-18.92419624"><ele>557.0</ele><time>2012-07-25T16:12:57.0000000+00:00</time></trkpt><trkpt lat="63.79902268" lon="-18.92444801"><ele>555.8</ele><time>2012-07-25T16:13:02.0000000+00:00</time></trkpt><trkpt lat="63.79895401" lon="-18.92464829"><ele>554.5</ele><time>2012-07-25T16:13:07.0000000+00:00</time></trkpt><trkpt lat="63.79887009" lon="-18.92486572"><ele>554.9</ele><time>2012-07-25T16:13:12.0000000+00:00</time></trkpt><trkpt lat="63.79875946" lon="-18.92512894"><ele>556.1</ele><time>2012-07-25T16:13:17.0000000+00:00</time></trkpt><trkpt lat="63.79867935" lon="-18.92534447"><ele>556.0</ele><time>2012-07-25T16:13:22.0000000+00:00</time></trkpt><trkpt lat="63.79859543" lon="-18.92554855"><ele>554.9</ele><time>2012-07-25T16:13:27.0000000+00:00</time></trkpt><trkpt lat="63.79849243" lon="-18.92577362"><ele>553.6</ele><time>2012-07-25T16:13:32.0000000+00:00</time></trkpt><trkpt lat="63.79840088" lon="-18.92598915"><ele>552.0</ele><time>2012-07-25T16:13:37.0000000+00:00</time></trkpt><trkpt lat="63.79834747" lon="-18.92614746"><ele>552.3</ele><time>2012-07-25T16:13:42.0000000+00:00</time></trkpt><trkpt lat="63.79826355" lon="-18.92634392"><ele>551.2</ele><time>2012-07-25T16:13:47.0000000+00:00</time></trkpt><trkpt lat="63.79818344" lon="-18.92656708"><ele>552.1</ele><time>2012-07-25T16:13:52.0000000+00:00</time></trkpt><trkpt lat="63.79809952" lon="-18.92679787"><ele>552.3</ele><time>2012-07-25T16:13:57.0000000+00:00</time></trkpt><trkpt lat="63.79799652" lon="-18.9270401"><ele>551.6</ele><time>2012-07-25T16:14:02.0000000+00:00</time></trkpt><trkpt lat="63.79790497" lon="-18.92728615"><ele>549.0</ele><time>2012-07-25T16:14:07.0000000+00:00</time></trkpt><trkpt lat="63.79780197" lon="-18.92754936"><ele>551.8</ele><time>2012-07-25T16:14:12.0000000+00:00</time></trkpt><trkpt lat="63.7976799" lon="-18.92780304"><ele>551.2</ele><time>2012-07-25T16:14:17.0000000+00:00</time></trkpt><trkpt lat="63.79756928" lon="-18.92807007"><ele>550.2</ele><time>2012-07-25T16:14:22.0000000+00:00</time></trkpt><trkpt lat="63.7974968" lon="-18.92825317"><ele>549.8</ele><time>2012-07-25T16:14:27.0000000+00:00</time></trkpt><trkpt lat="63.79744339" lon="-18.9283638"><ele>550.5</ele><time>2012-07-25T16:14:32.0000000+00:00</time></trkpt><trkpt lat="63.79737854" lon="-18.928545"><ele>551.0</ele><time>2012-07-25T16:14:37.0000000+00:00</time></trkpt><trkpt lat="63.7972908" lon="-18.92873764"><ele>551.1</ele><time>2012-07-25T16:14:42.0000000+00:00</time></trkpt><trkpt lat="63.79719544" lon="-18.92895317"><ele>550.2</ele><time>2012-07-25T16:14:47.0000000+00:00</time></trkpt><trkpt lat="63.79709625" lon="-18.92918396"><ele>548.4</ele><time>2012-07-25T16:14:52.0000000+00:00</time></trkpt><trkpt lat="63.79702759" lon="-18.92936516"><ele>548.1</ele><time>2012-07-25T16:14:57.0000000+00:00</time></trkpt><trkpt lat="63.79696274" lon="-18.92953301"><ele>550.1</ele><time>2012-07-25T16:15:02.0000000+00:00</time></trkpt><trkpt lat="63.79693604" lon="-18.92963219"><ele>551.3</ele><time>2012-07-25T16:15:07.0000000+00:00</time></trkpt><trkpt lat="63.79690933" lon="-18.92970276"><ele>551.9</ele><time>2012-07-25T16:15:12.0000000+00:00</time></trkpt><trkpt lat="63.7968483" lon="-18.9298687"><ele>552.7</ele><time>2012-07-25T16:15:17.0000000+00:00</time></trkpt><trkpt lat="63.79679489" lon="-18.93008995"><ele>555.3</ele><time>2012-07-25T16:15:22.0000000+00:00</time></trkpt><trkpt lat="63.79679108" lon="-18.93016052"><ele>555.7</ele><time>2012-07-25T16:15:27.0000000+00:00</time></trkpt><trkpt lat="63.79679108" lon="-18.93013954"><ele>555.5</ele><time>2012-07-25T16:15:32.0000000+00:00</time></trkpt><trkpt lat="63.79679108" lon="-18.93013763"><ele>555.4</ele><time>2012-07-25T16:15:37.0000000+00:00</time></trkpt><trkpt lat="63.79678726" lon="-18.93013191"><ele>555.4</ele><time>2012-07-25T16:15:42.0000000+00:00</time></trkpt><trkpt lat="63.79678726" lon="-18.93013191"><ele>555.5</ele><time>2012-07-25T16:15:47.0000000+00:00</time></trkpt><trkpt lat="63.79678345" lon="-18.93013191"><ele>555.5</ele><time>2012-07-25T16:15:52.0000000+00:00</time></trkpt><trkpt lat="63.79678345" lon="-18.93013191"><ele>555.6</ele><time>2012-07-25T16:15:57.0000000+00:00</time></trkpt><trkpt lat="63.79678345" lon="-18.93013382"><ele>555.6</ele><time>2012-07-25T16:16:02.0000000+00:00</time></trkpt><trkpt lat="63.79678345" lon="-18.93013382"><ele>555.6</ele><time>2012-07-25T16:16:07.0000000+00:00</time></trkpt><trkpt lat="63.79678345" lon="-18.93013382"><ele>555.6</ele><time>2012-07-25T16:16:12.0000000+00:00</time></trkpt><trkpt lat="63.79678345" lon="-18.93013382"><ele>555.6</ele><time>2012-07-25T16:16:17.0000000+00:00</time></trkpt><trkpt lat="63.79678345" lon="-18.93013191"><ele>555.6</ele><time>2012-07-25T16:16:22.0000000+00:00</time></trkpt><trkpt lat="63.79678345" lon="-18.93013382"><ele>555.6</ele><time>2012-07-25T16:16:27.0000000+00:00</time></trkpt><trkpt lat="63.79678345" lon="-18.93013382"><ele>555.6</ele><time>2012-07-25T16:16:32.0000000+00:00</time></trkpt><trkpt lat="63.79678345" lon="-18.93013382"><ele>555.6</ele><time>2012-07-25T16:16:37.0000000+00:00</time></trkpt><trkpt lat="63.79678345" lon="-18.93013191"><ele>555.6</ele><time>2012-07-25T16:16:42.0000000+00:00</time></trkpt><trkpt lat="63.79678345" lon="-18.93013382"><ele>555.6</ele><time>2012-07-25T16:16:47.0000000+00:00</time></trkpt><trkpt lat="63.79678345" lon="-18.93013382"><ele>555.6</ele><time>2012-07-25T16:16:52.0000000+00:00</time></trkpt><trkpt lat="63.79678345" lon="-18.93013382"><ele>555.7</ele><time>2012-07-25T16:16:57.0000000+00:00</time></trkpt><trkpt lat="63.79678345" lon="-18.93013382"><ele>555.7</ele><time>2012-07-25T16:17:02.0000000+00:00</time></trkpt><trkpt lat="63.79678345" lon="-18.93013382"><ele>555.7</ele><time>2012-07-25T16:17:07.0000000+00:00</time></trkpt><trkpt lat="63.79678345" lon="-18.93013382"><ele>555.7</ele><time>2012-07-25T16:17:12.0000000+00:00</time></trkpt><trkpt lat="63.79678345" lon="-18.93013382"><ele>555.7</ele><time>2012-07-25T16:17:17.0000000+00:00</time></trkpt><trkpt lat="63.79678345" lon="-18.93013382"><ele>555.7</ele><time>2012-07-25T16:17:22.0000000+00:00</time></trkpt><trkpt lat="63.79678345" lon="-18.93013382"><ele>555.7</ele><time>2012-07-25T16:17:27.0000000+00:00</time></trkpt><trkpt lat="63.79678345" lon="-18.93013382"><ele>555.7</ele><time>2012-07-25T16:17:32.0000000+00:00</time></trkpt><trkpt lat="63.79678345" lon="-18.93013382"><ele>555.8</ele><time>2012-07-25T16:17:37.0000000+00:00</time></trkpt><trkpt lat="63.79678345" lon="-18.93013382"><ele>555.8</ele><time>2012-07-25T16:17:42.0000000+00:00</time></trkpt><trkpt lat="63.79678345" lon="-18.93013382"><ele>555.8</ele><time>2012-07-25T16:17:47.0000000+00:00</time></trkpt><trkpt lat="63.79678345" lon="-18.93013382"><ele>555.8</ele><time>2012-07-25T16:17:52.0000000+00:00</time></trkpt><trkpt lat="63.79678345" lon="-18.93013382"><ele>555.8</ele><time>2012-07-25T16:17:57.0000000+00:00</time></trkpt><trkpt lat="63.79675293" lon="-18.93015099"><ele>555.9</ele><time>2012-07-25T16:18:02.0000000+00:00</time></trkpt><trkpt lat="63.79670715" lon="-18.93026733"><ele>555.4</ele><time>2012-07-25T16:18:07.0000000+00:00</time></trkpt><trkpt lat="63.79663086" lon="-18.93043709"><ele>555.0</ele><time>2012-07-25T16:18:12.0000000+00:00</time></trkpt><trkpt lat="63.79654312" lon="-18.93063927"><ele>555.0</ele><time>2012-07-25T16:18:17.0000000+00:00</time></trkpt><trkpt lat="63.79645157" lon="-18.93085289"><ele>554.1</ele><time>2012-07-25T16:18:22.0000000+00:00</time></trkpt><trkpt lat="63.7963562" lon="-18.93111229"><ele>554.3</ele><time>2012-07-25T16:18:27.0000000+00:00</time></trkpt><trkpt lat="63.79627609" lon="-18.93131256"><ele>553.7</ele><time>2012-07-25T16:18:32.0000000+00:00</time></trkpt><trkpt lat="63.79618073" lon="-18.93161011"><ele>554.5</ele><time>2012-07-25T16:18:37.0000000+00:00</time></trkpt><trkpt lat="63.79610825" lon="-18.93184662"><ele>554.7</ele><time>2012-07-25T16:18:42.0000000+00:00</time></trkpt><trkpt lat="63.79603195" lon="-18.93205643"><ele>554.5</ele><time>2012-07-25T16:18:47.0000000+00:00</time></trkpt><trkpt lat="63.79596329" lon="-18.93229866"><ele>555.2</ele><time>2012-07-25T16:18:52.0000000+00:00</time></trkpt><trkpt lat="63.79591751" lon="-18.93248749"><ele>556.0</ele><time>2012-07-25T16:18:57.0000000+00:00</time></trkpt><trkpt lat="63.79586411" lon="-18.93273354"><ele>557.6</ele><time>2012-07-25T16:19:02.0000000+00:00</time></trkpt><trkpt lat="63.79582596" lon="-18.93296623"><ele>557.2</ele><time>2012-07-25T16:19:07.0000000+00:00</time></trkpt><trkpt lat="63.79578781" lon="-18.93323135"><ele>556.6</ele><time>2012-07-25T16:19:12.0000000+00:00</time></trkpt><trkpt lat="63.79574966" lon="-18.93348503"><ele>556.5</ele><time>2012-07-25T16:19:17.0000000+00:00</time></trkpt><trkpt lat="63.79571533" lon="-18.93373489"><ele>557.3</ele><time>2012-07-25T16:19:22.0000000+00:00</time></trkpt><trkpt lat="63.79568863" lon="-18.93397713"><ele>556.9</ele><time>2012-07-25T16:19:27.0000000+00:00</time></trkpt><trkpt lat="63.79567337" lon="-18.93423462"><ele>556.0</ele><time>2012-07-25T16:19:32.0000000+00:00</time></trkpt><trkpt lat="63.7956543" lon="-18.93450165"><ele>555.4</ele><time>2012-07-25T16:19:37.0000000+00:00</time></trkpt><trkpt lat="63.79565048" lon="-18.93482971"><ele>556.6</ele><time>2012-07-25T16:19:42.0000000+00:00</time></trkpt><trkpt lat="63.79562378" lon="-18.93515968"><ele>557.0</ele><time>2012-07-25T16:19:47.0000000+00:00</time></trkpt><trkpt lat="63.79561615" lon="-18.93541718"><ele>555.7</ele><time>2012-07-25T16:19:52.0000000+00:00</time></trkpt><trkpt lat="63.79560852" lon="-18.93564606"><ele>556.4</ele><time>2012-07-25T16:19:57.0000000+00:00</time></trkpt><trkpt lat="63.79560089" lon="-18.93588066"><ele>556.4</ele><time>2012-07-25T16:20:02.0000000+00:00</time></trkpt><trkpt lat="63.79559326" lon="-18.9361248"><ele>556.1</ele><time>2012-07-25T16:20:07.0000000+00:00</time></trkpt><trkpt lat="63.79559708" lon="-18.9363327"><ele>555.7</ele><time>2012-07-25T16:20:12.0000000+00:00</time></trkpt><trkpt lat="63.79558563" lon="-18.93656731"><ele>555.9</ele><time>2012-07-25T16:20:17.0000000+00:00</time></trkpt><trkpt lat="63.795578" lon="-18.9368"><ele>555.7</ele><time>2012-07-25T16:20:22.0000000+00:00</time></trkpt><trkpt lat="63.79557419" lon="-18.93707085"><ele>556.8</ele><time>2012-07-25T16:20:27.0000000+00:00</time></trkpt><trkpt lat="63.79556656" lon="-18.93733788"><ele>556.1</ele><time>2012-07-25T16:20:32.0000000+00:00</time></trkpt><trkpt lat="63.79555893" lon="-18.93763351"><ele>555.9</ele><time>2012-07-25T16:20:37.0000000+00:00</time></trkpt><trkpt lat="63.79557037" lon="-18.93792915"><ele>556.4</ele><time>2012-07-25T16:20:42.0000000+00:00</time></trkpt><trkpt lat="63.79557037" lon="-18.93818283"><ele>555.3</ele><time>2012-07-25T16:20:47.0000000+00:00</time></trkpt><trkpt lat="63.79558945" lon="-18.93850708"><ele>555.9</ele><time>2012-07-25T16:20:52.0000000+00:00</time></trkpt><trkpt lat="63.79559708" lon="-18.93883133"><ele>557.4</ele><time>2012-07-25T16:20:57.0000000+00:00</time></trkpt><trkpt lat="63.79561234" lon="-18.93907929"><ele>557.1</ele><time>2012-07-25T16:21:02.0000000+00:00</time></trkpt><trkpt lat="63.79560471" lon="-18.939291"><ele>557.0</ele><time>2012-07-25T16:21:07.0000000+00:00</time></trkpt><trkpt lat="63.79561997" lon="-18.9395771"><ele>557.0</ele><time>2012-07-25T16:21:12.0000000+00:00</time></trkpt><trkpt lat="63.79564285" lon="-18.93982124"><ele>557.4</ele><time>2012-07-25T16:21:17.0000000+00:00</time></trkpt><trkpt lat="63.79566574" lon="-18.94011307"><ele>559.4</ele><time>2012-07-25T16:21:22.0000000+00:00</time></trkpt><trkpt lat="63.79568863" lon="-18.94042969"><ele>559.8</ele><time>2012-07-25T16:21:27.0000000+00:00</time></trkpt><trkpt lat="63.79571915" lon="-18.94072151"><ele>559.4</ele><time>2012-07-25T16:21:32.0000000+00:00</time></trkpt><trkpt lat="63.79576111" lon="-18.9410038"><ele>560.9</ele><time>2012-07-25T16:21:37.0000000+00:00</time></trkpt><trkpt lat="63.79581451" lon="-18.94131279"><ele>561.5</ele><time>2012-07-25T16:21:42.0000000+00:00</time></trkpt><trkpt lat="63.79587174" lon="-18.94163322"><ele>562.8</ele><time>2012-07-25T16:21:47.0000000+00:00</time></trkpt><trkpt lat="63.79592514" lon="-18.94190216"><ele>562.9</ele><time>2012-07-25T16:21:52.0000000+00:00</time></trkpt><trkpt lat="63.79597855" lon="-18.94222069"><ele>561.8</ele><time>2012-07-25T16:21:57.0000000+00:00</time></trkpt><trkpt lat="63.79600906" lon="-18.94242287"><ele>560.3</ele><time>2012-07-25T16:22:02.0000000+00:00</time></trkpt><trkpt lat="63.79602051" lon="-18.9424572"><ele>561.1</ele><time>2012-07-25T16:22:07.0000000+00:00</time></trkpt><trkpt lat="63.79602051" lon="-18.94247627"><ele>560.8</ele><time>2012-07-25T16:22:12.0000000+00:00</time></trkpt><trkpt lat="63.79601669" lon="-18.94248009"><ele>560.2</ele><time>2012-07-25T16:22:17.0000000+00:00</time></trkpt><trkpt lat="63.79602814" lon="-18.94248772"><ele>559.6</ele><time>2012-07-25T16:22:22.0000000+00:00</time></trkpt><trkpt lat="63.79602814" lon="-18.94248772"><ele>559.3</ele><time>2012-07-25T16:22:27.0000000+00:00</time></trkpt><trkpt lat="63.79602432" lon="-18.94249535"><ele>559.1</ele><time>2012-07-25T16:22:32.0000000+00:00</time></trkpt><trkpt lat="63.79602051" lon="-18.94249344"><ele>559.2</ele><time>2012-07-25T16:22:37.0000000+00:00</time></trkpt><trkpt lat="63.79602051" lon="-18.94249535"><ele>559.2</ele><time>2012-07-25T16:22:42.0000000+00:00</time></trkpt><trkpt lat="63.79602051" lon="-18.94249725"><ele>559.3</ele><time>2012-07-25T16:22:47.0000000+00:00</time></trkpt><trkpt lat="63.79602051" lon="-18.94249725"><ele>559.3</ele><time>2012-07-25T16:22:52.0000000+00:00</time></trkpt><trkpt lat="63.79602051" lon="-18.94249725"><ele>559.3</ele><time>2012-07-25T16:22:57.0000000+00:00</time></trkpt><trkpt lat="63.79602051" lon="-18.94249725"><ele>559.3</ele><time>2012-07-25T16:23:02.0000000+00:00</time></trkpt><trkpt lat="63.79602051" lon="-18.94249725"><ele>559.3</ele><time>2012-07-25T16:23:07.0000000+00:00</time></trkpt><trkpt lat="63.79602432" lon="-18.94249344"><ele>559.3</ele><time>2012-07-25T16:23:12.0000000+00:00</time></trkpt><trkpt lat="63.79603577" lon="-18.94244003"><ele>559.4</ele><time>2012-07-25T16:23:17.0000000+00:00</time></trkpt><trkpt lat="63.7960434" lon="-18.9424324"><ele>559.5</ele><time>2012-07-25T16:23:22.0000000+00:00</time></trkpt><trkpt lat="63.79604721" lon="-18.9424305"><ele>559.5</ele><time>2012-07-25T16:23:27.0000000+00:00</time></trkpt><trkpt lat="63.79604721" lon="-18.94242859"><ele>559.5</ele><time>2012-07-25T16:23:32.0000000+00:00</time></trkpt><trkpt lat="63.79604721" lon="-18.94242668"><ele>559.5</ele><time>2012-07-25T16:23:37.0000000+00:00</time></trkpt><trkpt lat="63.79604721" lon="-18.94242859"><ele>559.5</ele><time>2012-07-25T16:23:42.0000000+00:00</time></trkpt><trkpt lat="63.79604721" lon="-18.94242859"><ele>559.5</ele><time>2012-07-25T16:23:47.0000000+00:00</time></trkpt><trkpt lat="63.79603958" lon="-18.94240189"><ele>559.4</ele><time>2012-07-25T16:23:52.0000000+00:00</time></trkpt><trkpt lat="63.79605484" lon="-18.94239616"><ele>558.6</ele><time>2012-07-25T16:23:57.0000000+00:00</time></trkpt><trkpt lat="63.79605866" lon="-18.94240761"><ele>558.7</ele><time>2012-07-25T16:24:02.0000000+00:00</time></trkpt><trkpt lat="63.79607773" lon="-18.94241333"><ele>558.8</ele><time>2012-07-25T16:24:07.0000000+00:00</time></trkpt><trkpt lat="63.79607773" lon="-18.94240952"><ele>558.9</ele><time>2012-07-25T16:24:12.0000000+00:00</time></trkpt><trkpt lat="63.7960701" lon="-18.9424057"><ele>559.1</ele><time>2012-07-25T16:24:17.0000000+00:00</time></trkpt><trkpt lat="63.7960701" lon="-18.94237137"><ele>559.3</ele><time>2012-07-25T16:24:22.0000000+00:00</time></trkpt><trkpt lat="63.7960968" lon="-18.94235611"><ele>559.5</ele><time>2012-07-25T16:24:27.0000000+00:00</time></trkpt><trkpt lat="63.7960968" lon="-18.94235611"><ele>559.5</ele><time>2012-07-25T16:24:32.0000000+00:00</time></trkpt><trkpt lat="63.7960968" lon="-18.94235611"><ele>559.5</ele><time>2012-07-25T16:24:37.0000000+00:00</time></trkpt><trkpt lat="63.7960968" lon="-18.94235611"><ele>559.5</ele><time>2012-07-25T16:24:42.0000000+00:00</time></trkpt><trkpt lat="63.7960968" lon="-18.94235611"><ele>559.5</ele><time>2012-07-25T16:24:47.0000000+00:00</time></trkpt><trkpt lat="63.7960968" lon="-18.94235611"><ele>559.5</ele><time>2012-07-25T16:24:52.0000000+00:00</time></trkpt><trkpt lat="63.7960968" lon="-18.94235802"><ele>559.5</ele><time>2012-07-25T16:24:57.0000000+00:00</time></trkpt><trkpt lat="63.7960968" lon="-18.94235802"><ele>559.5</ele><time>2012-07-25T16:25:02.0000000+00:00</time></trkpt><trkpt lat="63.7960968" lon="-18.94235802"><ele>559.6</ele><time>2012-07-25T16:25:07.0000000+00:00</time></trkpt><trkpt lat="63.7960968" lon="-18.94235802"><ele>559.6</ele><time>2012-07-25T16:25:12.0000000+00:00</time></trkpt><trkpt lat="63.7960968" lon="-18.94235802"><ele>559.6</ele><time>2012-07-25T16:25:17.0000000+00:00</time></trkpt><trkpt lat="63.7960968" lon="-18.94235802"><ele>559.6</ele><time>2012-07-25T16:25:22.0000000+00:00</time></trkpt><trkpt lat="63.7960968" lon="-18.94235802"><ele>559.6</ele><time>2012-07-25T16:25:27.0000000+00:00</time></trkpt><trkpt lat="63.7960968" lon="-18.94235802"><ele>559.6</ele><time>2012-07-25T16:25:32.0000000+00:00</time></trkpt><trkpt lat="63.7960968" lon="-18.94235802"><ele>559.6</ele><time>2012-07-25T16:25:37.0000000+00:00</time></trkpt><trkpt lat="63.7960968" lon="-18.94235802"><ele>559.6</ele><time>2012-07-25T16:25:42.0000000+00:00</time></trkpt><trkpt lat="63.7960968" lon="-18.94235802"><ele>559.6</ele><time>2012-07-25T16:25:47.0000000+00:00</time></trkpt><trkpt lat="63.7960968" lon="-18.94235802"><ele>559.6</ele><time>2012-07-25T16:25:52.0000000+00:00</time></trkpt><trkpt lat="63.7960968" lon="-18.94235802"><ele>559.6</ele><time>2012-07-25T16:25:57.0000000+00:00</time></trkpt><trkpt lat="63.7960968" lon="-18.94235802"><ele>559.6</ele><time>2012-07-25T16:26:02.0000000+00:00</time></trkpt><trkpt lat="63.7960968" lon="-18.94235802"><ele>559.6</ele><time>2012-07-25T16:26:07.0000000+00:00</time></trkpt><trkpt lat="63.7960968" lon="-18.94235802"><ele>559.6</ele><time>2012-07-25T16:26:12.0000000+00:00</time></trkpt><trkpt lat="63.7960968" lon="-18.94235802"><ele>559.6</ele><time>2012-07-25T16:26:17.0000000+00:00</time></trkpt><trkpt lat="63.7960968" lon="-18.94235802"><ele>559.6</ele><time>2012-07-25T16:26:22.0000000+00:00</time></trkpt><trkpt lat="63.7960968" lon="-18.94235992"><ele>559.6</ele><time>2012-07-25T16:26:27.0000000+00:00</time></trkpt><trkpt lat="63.79610062" lon="-18.94235992"><ele>559.6</ele><time>2012-07-25T16:26:32.0000000+00:00</time></trkpt><trkpt lat="63.79610062" lon="-18.94235992"><ele>559.6</ele><time>2012-07-25T16:26:37.0000000+00:00</time></trkpt><trkpt lat="63.79610062" lon="-18.94235992"><ele>559.6</ele><time>2012-07-25T16:26:42.0000000+00:00</time></trkpt><trkpt lat="63.79610062" lon="-18.94235992"><ele>559.5</ele><time>2012-07-25T16:26:47.0000000+00:00</time></trkpt><trkpt lat="63.79610062" lon="-18.94235992"><ele>559.5</ele><time>2012-07-25T16:26:52.0000000+00:00</time></trkpt><trkpt lat="63.79610062" lon="-18.94235992"><ele>559.5</ele><time>2012-07-25T16:26:57.0000000+00:00</time></trkpt><trkpt lat="63.79610062" lon="-18.94235992"><ele>559.5</ele><time>2012-07-25T16:27:02.0000000+00:00</time></trkpt><trkpt lat="63.79610062" lon="-18.94235992"><ele>559.5</ele><time>2012-07-25T16:27:07.0000000+00:00</time></trkpt><trkpt lat="63.79610062" lon="-18.94235992"><ele>559.5</ele><time>2012-07-25T16:27:12.0000000+00:00</time></trkpt><trkpt lat="63.79610062" lon="-18.94235992"><ele>559.5</ele><time>2012-07-25T16:27:17.0000000+00:00</time></trkpt><trkpt lat="63.79610062" lon="-18.94235992"><ele>559.5</ele><time>2012-07-25T16:27:22.0000000+00:00</time></trkpt><trkpt lat="63.79610062" lon="-18.94235992"><ele>559.5</ele><time>2012-07-25T16:27:27.0000000+00:00</time></trkpt><trkpt lat="63.79610062" lon="-18.94235992"><ele>559.5</ele><time>2012-07-25T16:27:32.0000000+00:00</time></trkpt><trkpt lat="63.79610062" lon="-18.94235992"><ele>559.5</ele><time>2012-07-25T16:27:37.0000000+00:00</time></trkpt><trkpt lat="63.79610062" lon="-18.94235992"><ele>559.5</ele><time>2012-07-25T16:27:42.0000000+00:00</time></trkpt><trkpt lat="63.79610062" lon="-18.94235992"><ele>559.5</ele><time>2012-07-25T16:27:47.0000000+00:00</time></trkpt><trkpt lat="63.79610062" lon="-18.94235992"><ele>559.5</ele><time>2012-07-25T16:27:52.0000000+00:00</time></trkpt><trkpt lat="63.79610062" lon="-18.94235992"><ele>559.5</ele><time>2012-07-25T16:27:57.0000000+00:00</time></trkpt><trkpt lat="63.79610062" lon="-18.94235992"><ele>559.5</ele><time>2012-07-25T16:28:02.0000000+00:00</time></trkpt><trkpt lat="63.79610062" lon="-18.94235992"><ele>559.5</ele><time>2012-07-25T16:28:07.0000000+00:00</time></trkpt><trkpt lat="63.79610062" lon="-18.94235992"><ele>559.5</ele><time>2012-07-25T16:28:12.0000000+00:00</time></trkpt><trkpt lat="63.79610062" lon="-18.94235992"><ele>559.5</ele><time>2012-07-25T16:28:17.0000000+00:00</time></trkpt><trkpt lat="63.79610062" lon="-18.94235992"><ele>559.5</ele><time>2012-07-25T16:28:22.0000000+00:00</time></trkpt><trkpt lat="63.79610062" lon="-18.94235992"><ele>559.5</ele><time>2012-07-25T16:28:27.0000000+00:00</time></trkpt><trkpt lat="63.79610062" lon="-18.94235992"><ele>559.5</ele><time>2012-07-25T16:28:32.0000000+00:00</time></trkpt><trkpt lat="63.79610062" lon="-18.94235992"><ele>559.5</ele><time>2012-07-25T16:28:37.0000000+00:00</time></trkpt><trkpt lat="63.79610062" lon="-18.94235992"><ele>559.5</ele><time>2012-07-25T16:28:42.0000000+00:00</time></trkpt><trkpt lat="63.79610062" lon="-18.94235992"><ele>559.5</ele><time>2012-07-25T16:28:47.0000000+00:00</time></trkpt><trkpt lat="63.79610062" lon="-18.94235992"><ele>559.5</ele><time>2012-07-25T16:28:52.0000000+00:00</time></trkpt><trkpt lat="63.79610062" lon="-18.94235992"><ele>559.5</ele><time>2012-07-25T16:28:57.0000000+00:00</time></trkpt><trkpt lat="63.79610062" lon="-18.94235992"><ele>559.5</ele><time>2012-07-25T16:29:02.0000000+00:00</time></trkpt><trkpt lat="63.79610062" lon="-18.94235992"><ele>559.5</ele><time>2012-07-25T16:29:07.0000000+00:00</time></trkpt><trkpt lat="63.79610062" lon="-18.94235992"><ele>559.5</ele><time>2012-07-25T16:29:12.0000000+00:00</time></trkpt><trkpt lat="63.79610062" lon="-18.94235992"><ele>559.5</ele><time>2012-07-25T16:29:17.0000000+00:00</time></trkpt><trkpt lat="63.79610062" lon="-18.94235992"><ele>559.5</ele><time>2012-07-25T16:29:22.0000000+00:00</time></trkpt><trkpt lat="63.79610062" lon="-18.94235992"><ele>559.5</ele><time>2012-07-25T16:29:27.0000000+00:00</time></trkpt><trkpt lat="63.79610062" lon="-18.94235992"><ele>559.5</ele><time>2012-07-25T16:29:32.0000000+00:00</time></trkpt><trkpt lat="63.79610062" lon="-18.94235992"><ele>559.5</ele><time>2012-07-25T16:29:37.0000000+00:00</time></trkpt><trkpt lat="63.79610062" lon="-18.94235992"><ele>559.5</ele><time>2012-07-25T16:29:42.0000000+00:00</time></trkpt><trkpt lat="63.79610062" lon="-18.94235992"><ele>559.5</ele><time>2012-07-25T16:29:47.0000000+00:00</time></trkpt><trkpt lat="63.79610062" lon="-18.94235992"><ele>559.5</ele><time>2012-07-25T16:29:52.0000000+00:00</time></trkpt><trkpt lat="63.79610062" lon="-18.94235992"><ele>559.5</ele><time>2012-07-25T16:29:57.0000000+00:00</time></trkpt><trkpt lat="63.79610062" lon="-18.94235992"><ele>559.5</ele><time>2012-07-25T16:30:02.0000000+00:00</time></trkpt><trkpt lat="63.79610062" lon="-18.94235992"><ele>559.5</ele><time>2012-07-25T16:30:07.0000000+00:00</time></trkpt><trkpt lat="63.79610062" lon="-18.94235802"><ele>559.5</ele><time>2012-07-25T16:30:12.0000000+00:00</time></trkpt><trkpt lat="63.79610062" lon="-18.94235992"><ele>559.5</ele><time>2012-07-25T16:30:17.0000000+00:00</time></trkpt><trkpt lat="63.7960968" lon="-18.94235802"><ele>559.5</ele><time>2012-07-25T16:30:22.0000000+00:00</time></trkpt><trkpt lat="63.7960968" lon="-18.94236183"><ele>559.6</ele><time>2012-07-25T16:30:27.0000000+00:00</time></trkpt><trkpt lat="63.7960968" lon="-18.94234848"><ele>559.9</ele><time>2012-07-25T16:30:32.0000000+00:00</time></trkpt><trkpt lat="63.79600906" lon="-18.94257736"><ele>568.8</ele><time>2012-07-25T17:15:03.0000000+00:00</time></trkpt><trkpt lat="63.79616547" lon="-18.9424839"><ele>573.7</ele><time>2012-07-25T17:15:08.0000000+00:00</time></trkpt><trkpt lat="63.79613876" lon="-18.94240761"><ele>580.2</ele><time>2012-07-25T17:15:14.0000000+00:00</time></trkpt><trkpt lat="63.79616928" lon="-18.94239998"><ele>582.3</ele><time>2012-07-25T17:15:20.0000000+00:00</time></trkpt><trkpt lat="63.7961998" lon="-18.94234848"><ele>583.2</ele><time>2012-07-25T17:15:25.0000000+00:00</time></trkpt><trkpt lat="63.79619598" lon="-18.94234276"><ele>583.7</ele><time>2012-07-25T17:15:30.0000000+00:00</time></trkpt><trkpt lat="63.79619598" lon="-18.94234085"><ele>581.2</ele><time>2012-07-25T17:15:35.0000000+00:00</time></trkpt><trkpt lat="63.79615784" lon="-18.94239235"><ele>578.6</ele><time>2012-07-25T17:15:40.0000000+00:00</time></trkpt><trkpt lat="63.79615021" lon="-18.94239998"><ele>578.5</ele><time>2012-07-25T17:15:45.0000000+00:00</time></trkpt><trkpt lat="63.79615021" lon="-18.9424057"><ele>578.5</ele><time>2012-07-25T17:15:50.0000000+00:00</time></trkpt><trkpt lat="63.79615021" lon="-18.94240952"><ele>578.5</ele><time>2012-07-25T17:15:55.0000000+00:00</time></trkpt><trkpt lat="63.79613113" lon="-18.94242096"><ele>575.7</ele><time>2012-07-25T17:16:00.0000000+00:00</time></trkpt><trkpt lat="63.79611969" lon="-18.94239235"><ele>575.3</ele><time>2012-07-25T17:16:05.0000000+00:00</time></trkpt><trkpt lat="63.79610443" lon="-18.94237328"><ele>574.7</ele><time>2012-07-25T17:16:10.0000000+00:00</time></trkpt><trkpt lat="63.79610062" lon="-18.94239807"><ele>574.1</ele><time>2012-07-25T17:16:15.0000000+00:00</time></trkpt><trkpt lat="63.79610825" lon="-18.94239426"><ele>573.9</ele><time>2012-07-25T17:16:20.0000000+00:00</time></trkpt><trkpt lat="63.79611206" lon="-18.94239426"><ele>573.9</ele><time>2012-07-25T17:16:25.0000000+00:00</time></trkpt><trkpt lat="63.79611206" lon="-18.94239235"><ele>573.9</ele><time>2012-07-25T17:16:30.0000000+00:00</time></trkpt><trkpt lat="63.79610825" lon="-18.94239044"><ele>573.9</ele><time>2012-07-25T17:16:35.0000000+00:00</time></trkpt><trkpt lat="63.79611206" lon="-18.94238281"><ele>573.8</ele><time>2012-07-25T17:16:40.0000000+00:00</time></trkpt><trkpt lat="63.79611969" lon="-18.9424057"><ele>572.1</ele><time>2012-07-25T17:16:45.0000000+00:00</time></trkpt><trkpt lat="63.79611969" lon="-18.9424057"><ele>571.7</ele><time>2012-07-25T17:16:50.0000000+00:00</time></trkpt><trkpt lat="63.79611206" lon="-18.94240761"><ele>570.8</ele><time>2012-07-25T17:16:55.0000000+00:00</time></trkpt><trkpt lat="63.79611206" lon="-18.9424057"><ele>570.6</ele><time>2012-07-25T17:17:00.0000000+00:00</time></trkpt><trkpt lat="63.79611206" lon="-18.94239616"><ele>570.4</ele><time>2012-07-25T17:17:05.0000000+00:00</time></trkpt><trkpt lat="63.79611206" lon="-18.94238663"><ele>570.1</ele><time>2012-07-25T17:17:10.0000000+00:00</time></trkpt><trkpt lat="63.79611206" lon="-18.94237328"><ele>569.4</ele><time>2012-07-25T17:17:15.0000000+00:00</time></trkpt><trkpt lat="63.79610062" lon="-18.94236183"><ele>568.7</ele><time>2012-07-25T17:17:20.0000000+00:00</time></trkpt><trkpt lat="63.79610825" lon="-18.94238663"><ele>568.2</ele><time>2012-07-25T17:17:25.0000000+00:00</time></trkpt><trkpt lat="63.79611206" lon="-18.94239426"><ele>568.0</ele><time>2012-07-25T17:17:30.0000000+00:00</time></trkpt><trkpt lat="63.79610443" lon="-18.94237518"><ele>567.4</ele><time>2012-07-25T17:17:35.0000000+00:00</time></trkpt><trkpt lat="63.79610825" lon="-18.94235802"><ele>566.8</ele><time>2012-07-25T17:17:40.0000000+00:00</time></trkpt><trkpt lat="63.79610825" lon="-18.94234276"><ele>566.1</ele><time>2012-07-25T17:17:45.0000000+00:00</time></trkpt><trkpt lat="63.79611588" lon="-18.94232559"><ele>565.5</ele><time>2012-07-25T17:17:50.0000000+00:00</time></trkpt><trkpt lat="63.79611206" lon="-18.9423275"><ele>564.9</ele><time>2012-07-25T17:17:55.0000000+00:00</time></trkpt><trkpt lat="63.79610825" lon="-18.94233322"><ele>564.3</ele><time>2012-07-25T17:18:00.0000000+00:00</time></trkpt><trkpt lat="63.79610825" lon="-18.94232941"><ele>563.6</ele><time>2012-07-25T17:18:05.0000000+00:00</time></trkpt><trkpt lat="63.79610825" lon="-18.94231796"><ele>563.0</ele><time>2012-07-25T17:18:10.0000000+00:00</time></trkpt><trkpt lat="63.79610825" lon="-18.94232178"><ele>562.4</ele><time>2012-07-25T17:18:15.0000000+00:00</time></trkpt><trkpt lat="63.79610825" lon="-18.94232369"><ele>562.1</ele><time>2012-07-25T17:18:20.0000000+00:00</time></trkpt><trkpt lat="63.79610825" lon="-18.9423275"><ele>561.6</ele><time>2012-07-25T17:18:25.0000000+00:00</time></trkpt><trkpt lat="63.79610825" lon="-18.94232178"><ele>561.1</ele><time>2012-07-25T17:18:30.0000000+00:00</time></trkpt><trkpt lat="63.79610825" lon="-18.94231415"><ele>560.8</ele><time>2012-07-25T17:18:35.0000000+00:00</time></trkpt><trkpt lat="63.79610825" lon="-18.94231224"><ele>560.7</ele><time>2012-07-25T17:18:40.0000000+00:00</time></trkpt><trkpt lat="63.79610825" lon="-18.94231415"><ele>560.8</ele><time>2012-07-25T17:18:45.0000000+00:00</time></trkpt><trkpt lat="63.79610825" lon="-18.94231606"><ele>560.8</ele><time>2012-07-25T17:18:50.0000000+00:00</time></trkpt><trkpt lat="63.79610825" lon="-18.94231606"><ele>560.8</ele><time>2012-07-25T17:18:55.0000000+00:00</time></trkpt><trkpt lat="63.79610825" lon="-18.94231606"><ele>560.8</ele><time>2012-07-25T17:19:00.0000000+00:00</time></trkpt><trkpt lat="63.79610825" lon="-18.94231606"><ele>560.8</ele><time>2012-07-25T17:19:05.0000000+00:00</time></trkpt><trkpt lat="63.79610825" lon="-18.94231796"><ele>560.8</ele><time>2012-07-25T17:19:10.0000000+00:00</time></trkpt><trkpt lat="63.79610825" lon="-18.94231796"><ele>560.8</ele><time>2012-07-25T17:19:15.0000000+00:00</time></trkpt><trkpt lat="63.79610825" lon="-18.94231796"><ele>560.8</ele><time>2012-07-25T17:19:20.0000000+00:00</time></trkpt><trkpt lat="63.79610825" lon="-18.94231796"><ele>560.8</ele><time>2012-07-25T17:19:25.0000000+00:00</time></trkpt><trkpt lat="63.79610825" lon="-18.94231796"><ele>560.9</ele><time>2012-07-25T17:19:30.0000000+00:00</time></trkpt><trkpt lat="63.79610825" lon="-18.94231796"><ele>560.8</ele><time>2012-07-25T17:19:35.0000000+00:00</time></trkpt><trkpt lat="63.79610825" lon="-18.94231796"><ele>560.8</ele><time>2012-07-25T17:19:40.0000000+00:00</time></trkpt><trkpt lat="63.79609299" lon="-18.94237137"><ele>561.7</ele><time>2012-07-25T17:19:45.0000000+00:00</time></trkpt><trkpt lat="63.7960701" lon="-18.94243431"><ele>561.9</ele><time>2012-07-25T17:19:50.0000000+00:00</time></trkpt><trkpt lat="63.7960701" lon="-18.94243813"><ele>561.9</ele><time>2012-07-25T17:19:55.0000000+00:00</time></trkpt><trkpt lat="63.7960701" lon="-18.94244003"><ele>561.9</ele><time>2012-07-25T17:20:00.0000000+00:00</time></trkpt><trkpt lat="63.7960701" lon="-18.94244003"><ele>561.9</ele><time>2012-07-25T17:20:05.0000000+00:00</time></trkpt><trkpt lat="63.7960701" lon="-18.9424324"><ele>561.7</ele><time>2012-07-25T17:20:10.0000000+00:00</time></trkpt><trkpt lat="63.7960701" lon="-18.9424324"><ele>561.6</ele><time>2012-07-25T17:20:15.0000000+00:00</time></trkpt><trkpt lat="63.7960701" lon="-18.9424324"><ele>561.6</ele><time>2012-07-25T17:20:20.0000000+00:00</time></trkpt><trkpt lat="63.7960701" lon="-18.9424324"><ele>561.6</ele><time>2012-07-25T17:20:25.0000000+00:00</time></trkpt><trkpt lat="63.7960701" lon="-18.9424324"><ele>561.6</ele><time>2012-07-25T17:20:30.0000000+00:00</time></trkpt><trkpt lat="63.79605866" lon="-18.94245148"><ele>561.5</ele><time>2012-07-25T17:20:35.0000000+00:00</time></trkpt><trkpt lat="63.79605103" lon="-18.94253731"><ele>562.3</ele><time>2012-07-25T17:20:40.0000000+00:00</time></trkpt><trkpt lat="63.7960434" lon="-18.94257736"><ele>562.5</ele><time>2012-07-25T17:20:45.0000000+00:00</time></trkpt><trkpt lat="63.7960434" lon="-18.94257546"><ele>562.5</ele><time>2012-07-25T17:20:50.0000000+00:00</time></trkpt><trkpt lat="63.7960434" lon="-18.94257546"><ele>562.6</ele><time>2012-07-25T17:20:55.0000000+00:00</time></trkpt><trkpt lat="63.7960434" lon="-18.94257546"><ele>562.5</ele><time>2012-07-25T17:21:00.0000000+00:00</time></trkpt><trkpt lat="63.79606628" lon="-18.9426384"><ele>562.0</ele><time>2012-07-25T17:21:05.0000000+00:00</time></trkpt><trkpt lat="63.79606628" lon="-18.94264984"><ele>561.5</ele><time>2012-07-25T17:21:10.0000000+00:00</time></trkpt><trkpt lat="63.79606628" lon="-18.94263649"><ele>560.5</ele><time>2012-07-25T17:21:15.0000000+00:00</time></trkpt><trkpt lat="63.79608917" lon="-18.94276238"><ele>559.9</ele><time>2012-07-25T17:21:20.0000000+00:00</time></trkpt><trkpt lat="63.79612351" lon="-18.94293213"><ele>559.6</ele><time>2012-07-25T17:21:25.0000000+00:00</time></trkpt><trkpt lat="63.79616928" lon="-18.943079"><ele>559.1</ele><time>2012-07-25T17:21:30.0000000+00:00</time></trkpt><trkpt lat="63.7961998" lon="-18.94322777"><ele>558.4</ele><time>2012-07-25T17:21:35.0000000+00:00</time></trkpt><trkpt lat="63.79624558" lon="-18.94347"><ele>559.2</ele><time>2012-07-25T17:21:40.0000000+00:00</time></trkpt><trkpt lat="63.79627228" lon="-18.94364357"><ele>558.7</ele><time>2012-07-25T17:21:45.0000000+00:00</time></trkpt><trkpt lat="63.7963028" lon="-18.94381142"><ele>558.0</ele><time>2012-07-25T17:21:50.0000000+00:00</time></trkpt><trkpt lat="63.79634094" lon="-18.94398689"><ele>557.6</ele><time>2012-07-25T17:21:55.0000000+00:00</time></trkpt><trkpt lat="63.79637909" lon="-18.94414902"><ele>557.5</ele><time>2012-07-25T17:22:00.0000000+00:00</time></trkpt><trkpt lat="63.79642868" lon="-18.94435883"><ele>558.7</ele><time>2012-07-25T17:22:05.0000000+00:00</time></trkpt><trkpt lat="63.79647827" lon="-18.94453049"><ele>558.6</ele><time>2012-07-25T17:22:10.0000000+00:00</time></trkpt><trkpt lat="63.79652786" lon="-18.94467545"><ele>559.5</ele><time>2012-07-25T17:22:15.0000000+00:00</time></trkpt><trkpt lat="63.7965889" lon="-18.94485664"><ele>560.0</ele><time>2012-07-25T17:22:20.0000000+00:00</time></trkpt><trkpt lat="63.79664993" lon="-18.9450779"><ele>561.3</ele><time>2012-07-25T17:22:25.0000000+00:00</time></trkpt><trkpt lat="63.79671097" lon="-18.94530678"><ele>563.6</ele><time>2012-07-25T17:22:30.0000000+00:00</time></trkpt><trkpt lat="63.79677963" lon="-18.94553947"><ele>566.1</ele><time>2012-07-25T17:22:35.0000000+00:00</time></trkpt><trkpt lat="63.79683304" lon="-18.94574547"><ele>567.0</ele><time>2012-07-25T17:22:40.0000000+00:00</time></trkpt><trkpt lat="63.79689407" lon="-18.94593239"><ele>566.7</ele><time>2012-07-25T17:22:45.0000000+00:00</time></trkpt><trkpt lat="63.79694367" lon="-18.94610786"><ele>566.4</ele><time>2012-07-25T17:22:50.0000000+00:00</time></trkpt><trkpt lat="63.79699707" lon="-18.94634819"><ele>567.4</ele><time>2012-07-25T17:22:55.0000000+00:00</time></trkpt><trkpt lat="63.79704285" lon="-18.94654274"><ele>567.2</ele><time>2012-07-25T17:23:00.0000000+00:00</time></trkpt><trkpt lat="63.79708862" lon="-18.94673348"><ele>567.9</ele><time>2012-07-25T17:23:05.0000000+00:00</time></trkpt><trkpt lat="63.79714584" lon="-18.94694519"><ele>568.3</ele><time>2012-07-25T17:23:10.0000000+00:00</time></trkpt><trkpt lat="63.79719925" lon="-18.9471817"><ele>568.6</ele><time>2012-07-25T17:23:15.0000000+00:00</time></trkpt><trkpt lat="63.79726028" lon="-18.94739914"><ele>568.1</ele><time>2012-07-25T17:23:20.0000000+00:00</time></trkpt><trkpt lat="63.79730988" lon="-18.94762039"><ele>567.7</ele><time>2012-07-25T17:23:25.0000000+00:00</time></trkpt><trkpt lat="63.79735184" lon="-18.94784355"><ele>568.0</ele><time>2012-07-25T17:23:30.0000000+00:00</time></trkpt><trkpt lat="63.7974205" lon="-18.94808769"><ele>569.9</ele><time>2012-07-25T17:23:35.0000000+00:00</time></trkpt><trkpt lat="63.79746628" lon="-18.94832039"><ele>570.5</ele><time>2012-07-25T17:23:40.0000000+00:00</time></trkpt><trkpt lat="63.79751587" lon="-18.94854927"><ele>570.8</ele><time>2012-07-25T17:23:45.0000000+00:00</time></trkpt><trkpt lat="63.79756928" lon="-18.9487915"><ele>571.3</ele><time>2012-07-25T17:23:50.0000000+00:00</time></trkpt><trkpt lat="63.79761505" lon="-18.94902229"><ele>571.9</ele><time>2012-07-25T17:23:55.0000000+00:00</time></trkpt><trkpt lat="63.79766464" lon="-18.94924164"><ele>571.9</ele><time>2012-07-25T17:24:00.0000000+00:00</time></trkpt><trkpt lat="63.79771423" lon="-18.94946098"><ele>572.2</ele><time>2012-07-25T17:24:05.0000000+00:00</time></trkpt><trkpt lat="63.79777527" lon="-18.94973373"><ele>574.0</ele><time>2012-07-25T17:24:10.0000000+00:00</time></trkpt><trkpt lat="63.79782105" lon="-18.94997597"><ele>574.5</ele><time>2012-07-25T17:24:15.0000000+00:00</time></trkpt><trkpt lat="63.7978859" lon="-18.95022392"><ele>574.9</ele><time>2012-07-25T17:24:20.0000000+00:00</time></trkpt><trkpt lat="63.79795456" lon="-18.9504776"><ele>574.9</ele><time>2012-07-25T17:24:25.0000000+00:00</time></trkpt><trkpt lat="63.79801178" lon="-18.95073128"><ele>575.1</ele><time>2012-07-25T17:24:30.0000000+00:00</time></trkpt><trkpt lat="63.798069" lon="-18.95100021"><ele>575.0</ele><time>2012-07-25T17:24:35.0000000+00:00</time></trkpt><trkpt lat="63.79814911" lon="-18.95126343"><ele>574.9</ele><time>2012-07-25T17:24:40.0000000+00:00</time></trkpt><trkpt lat="63.79824066" lon="-18.95156097"><ele>574.7</ele><time>2012-07-25T17:24:45.0000000+00:00</time></trkpt><trkpt lat="63.79832077" lon="-18.95185661"><ele>574.9</ele><time>2012-07-25T17:24:50.0000000+00:00</time></trkpt><trkpt lat="63.79839706" lon="-18.95218086"><ele>575.2</ele><time>2012-07-25T17:24:55.0000000+00:00</time></trkpt><trkpt lat="63.79846573" lon="-18.95245361"><ele>574.8</ele><time>2012-07-25T17:25:00.0000000+00:00</time></trkpt><trkpt lat="63.79851914" lon="-18.95259285"><ele>574.4</ele><time>2012-07-25T17:25:05.0000000+00:00</time></trkpt><trkpt lat="63.79853058" lon="-18.95256996"><ele>574.1</ele><time>2012-07-25T17:25:10.0000000+00:00</time></trkpt><trkpt lat="63.79853058" lon="-18.95256996"><ele>574.1</ele><time>2012-07-25T17:25:15.0000000+00:00</time></trkpt><trkpt lat="63.79853058" lon="-18.95256424"><ele>574.3</ele><time>2012-07-25T17:25:20.0000000+00:00</time></trkpt><trkpt lat="63.79853439" lon="-18.95256424"><ele>574.8</ele><time>2012-07-25T17:25:25.0000000+00:00</time></trkpt><trkpt lat="63.79855347" lon="-18.95252419"><ele>574.0</ele><time>2012-07-25T17:25:30.0000000+00:00</time></trkpt><trkpt lat="63.79858017" lon="-18.95247841"><ele>573.8</ele><time>2012-07-25T17:25:35.0000000+00:00</time></trkpt><trkpt lat="63.79858017" lon="-18.95247459"><ele>573.0</ele><time>2012-07-25T17:25:40.0000000+00:00</time></trkpt><trkpt lat="63.79858017" lon="-18.95247459"><ele>573.0</ele><time>2012-07-25T17:25:45.0000000+00:00</time></trkpt><trkpt lat="63.79858017" lon="-18.95247841"><ele>572.9</ele><time>2012-07-25T17:25:50.0000000+00:00</time></trkpt><trkpt lat="63.79858017" lon="-18.95247841"><ele>572.9</ele><time>2012-07-25T17:25:55.0000000+00:00</time></trkpt><trkpt lat="63.79858017" lon="-18.95247841"><ele>572.9</ele><time>2012-07-25T17:26:00.0000000+00:00</time></trkpt><trkpt lat="63.79858017" lon="-18.95247841"><ele>572.9</ele><time>2012-07-25T17:26:05.0000000+00:00</time></trkpt><trkpt lat="63.79858017" lon="-18.95247841"><ele>572.9</ele><time>2012-07-25T17:26:10.0000000+00:00</time></trkpt><trkpt lat="63.79858017" lon="-18.9524765"><ele>572.9</ele><time>2012-07-25T17:26:15.0000000+00:00</time></trkpt><trkpt lat="63.79858017" lon="-18.9524765"><ele>572.9</ele><time>2012-07-25T17:26:20.0000000+00:00</time></trkpt><trkpt lat="63.79858017" lon="-18.95247459"><ele>572.9</ele><time>2012-07-25T17:26:25.0000000+00:00</time></trkpt><trkpt lat="63.79858017" lon="-18.95247459"><ele>572.8</ele><time>2012-07-25T17:26:30.0000000+00:00</time></trkpt><trkpt lat="63.79858017" lon="-18.95247459"><ele>572.8</ele><time>2012-07-25T17:26:35.0000000+00:00</time></trkpt><trkpt lat="63.79858017" lon="-18.95247459"><ele>572.8</ele><time>2012-07-25T17:26:40.0000000+00:00</time></trkpt><trkpt lat="63.79858017" lon="-18.95247459"><ele>572.8</ele><time>2012-07-25T17:26:45.0000000+00:00</time></trkpt><trkpt lat="63.79858017" lon="-18.95247269"><ele>572.2</ele><time>2012-07-25T17:26:50.0000000+00:00</time></trkpt><trkpt lat="63.79857636" lon="-18.95246887"><ele>571.7</ele><time>2012-07-25T17:26:55.0000000+00:00</time></trkpt><trkpt lat="63.79857636" lon="-18.95247078"><ele>571.7</ele><time>2012-07-25T17:27:00.0000000+00:00</time></trkpt><trkpt lat="63.79861069" lon="-18.95240593"><ele>572.1</ele><time>2012-07-25T17:27:05.0000000+00:00</time></trkpt><trkpt lat="63.79861832" lon="-18.95241356"><ele>571.5</ele><time>2012-07-25T17:27:10.0000000+00:00</time></trkpt><trkpt lat="63.79861832" lon="-18.95242119"><ele>571.7</ele><time>2012-07-25T17:27:15.0000000+00:00</time></trkpt><trkpt lat="63.79862595" lon="-18.95244789"><ele>571.2</ele><time>2012-07-25T17:27:20.0000000+00:00</time></trkpt><trkpt lat="63.79862976" lon="-18.95248222"><ele>570.8</ele><time>2012-07-25T17:27:25.0000000+00:00</time></trkpt><trkpt lat="63.79863739" lon="-18.95248222"><ele>569.9</ele><time>2012-07-25T17:27:30.0000000+00:00</time></trkpt><trkpt lat="63.79863358" lon="-18.95247841"><ele>569.8</ele><time>2012-07-25T17:27:35.0000000+00:00</time></trkpt><trkpt lat="63.79862213" lon="-18.95251465"><ele>569.0</ele><time>2012-07-25T17:27:40.0000000+00:00</time></trkpt><trkpt lat="63.79860687" lon="-18.9525547"><ele>568.3</ele><time>2012-07-25T17:27:45.0000000+00:00</time></trkpt><trkpt lat="63.79859924" lon="-18.95257759"><ele>567.5</ele><time>2012-07-25T17:27:50.0000000+00:00</time></trkpt><trkpt lat="63.79860306" lon="-18.95263672"><ele>567.3</ele><time>2012-07-25T17:27:55.0000000+00:00</time></trkpt><trkpt lat="63.79859924" lon="-18.95269013"><ele>567.0</ele><time>2012-07-25T17:28:00.0000000+00:00</time></trkpt><trkpt lat="63.79859543" lon="-18.95270538"><ele>566.9</ele><time>2012-07-25T17:28:05.0000000+00:00</time></trkpt><trkpt lat="63.79860306" lon="-18.95277405"><ele>567.9</ele><time>2012-07-25T17:28:10.0000000+00:00</time></trkpt><trkpt lat="63.79863358" lon="-18.95279884"><ele>568.5</ele><time>2012-07-25T17:28:15.0000000+00:00</time></trkpt><trkpt lat="63.79864883" lon="-18.95286179"><ele>569.0</ele><time>2012-07-25T17:28:20.0000000+00:00</time></trkpt><trkpt lat="63.79864883" lon="-18.95288086"><ele>569.3</ele><time>2012-07-25T17:28:25.0000000+00:00</time></trkpt><trkpt lat="63.79864883" lon="-18.9529438"><ele>569.1</ele><time>2012-07-25T17:28:30.0000000+00:00</time></trkpt><trkpt lat="63.79864883" lon="-18.95305252"><ele>569.0</ele><time>2012-07-25T17:28:35.0000000+00:00</time></trkpt><trkpt lat="63.79864121" lon="-18.95317078"><ele>568.9</ele><time>2012-07-25T17:28:40.0000000+00:00</time></trkpt><trkpt lat="63.79863358" lon="-18.95329666"><ele>569.2</ele><time>2012-07-25T17:28:45.0000000+00:00</time></trkpt><trkpt lat="63.7986145" lon="-18.95342064"><ele>569.2</ele><time>2012-07-25T17:28:50.0000000+00:00</time></trkpt><trkpt lat="63.79860687" lon="-18.95355415"><ele>569.1</ele><time>2012-07-25T17:28:55.0000000+00:00</time></trkpt><trkpt lat="63.79860687" lon="-18.95368004"><ele>569.4</ele><time>2012-07-25T17:29:00.0000000+00:00</time></trkpt><trkpt lat="63.79861832" lon="-18.95380402"><ele>569.8</ele><time>2012-07-25T17:29:05.0000000+00:00</time></trkpt><trkpt lat="63.79863739" lon="-18.95390892"><ele>568.2</ele><time>2012-07-25T17:29:10.0000000+00:00</time></trkpt><trkpt lat="63.79864121" lon="-18.95401382"><ele>567.5</ele><time>2012-07-25T17:29:15.0000000+00:00</time></trkpt><trkpt lat="63.79865646" lon="-18.95409012"><ele>566.8</ele><time>2012-07-25T17:29:20.0000000+00:00</time></trkpt><trkpt lat="63.79868698" lon="-18.95417023"><ele>567.5</ele><time>2012-07-25T17:29:25.0000000+00:00</time></trkpt><trkpt lat="63.79870224" lon="-18.95423126"><ele>567.9</ele><time>2012-07-25T17:29:30.0000000+00:00</time></trkpt><trkpt lat="63.79870224" lon="-18.95423508"><ele>567.9</ele><time>2012-07-25T17:29:35.0000000+00:00</time></trkpt><trkpt lat="63.79870606" lon="-18.95425606"><ele>568.2</ele><time>2012-07-25T17:29:40.0000000+00:00</time></trkpt><trkpt lat="63.79873657" lon="-18.95433998"><ele>569.3</ele><time>2012-07-25T17:29:45.0000000+00:00</time></trkpt><trkpt lat="63.79876328" lon="-18.95439911"><ele>569.2</ele><time>2012-07-25T17:29:50.0000000+00:00</time></trkpt><trkpt lat="63.79879379" lon="-18.95445252"><ele>569.5</ele><time>2012-07-25T17:29:55.0000000+00:00</time></trkpt><trkpt lat="63.79878998" lon="-18.9544735"><ele>568.7</ele><time>2012-07-25T17:30:00.0000000+00:00</time></trkpt><trkpt lat="63.79877853" lon="-18.95448875"><ele>568.8</ele><time>2012-07-25T17:30:05.0000000+00:00</time></trkpt><trkpt lat="63.79876328" lon="-18.95452881"><ele>567.4</ele><time>2012-07-25T17:30:10.0000000+00:00</time></trkpt><trkpt lat="63.79875565" lon="-18.9546051"><ele>567.1</ele><time>2012-07-25T17:30:15.0000000+00:00</time></trkpt><trkpt lat="63.79875946" lon="-18.95462036"><ele>566.8</ele><time>2012-07-25T17:30:20.0000000+00:00</time></trkpt><trkpt lat="63.79876328" lon="-18.95463562"><ele>566.6</ele><time>2012-07-25T17:30:25.0000000+00:00</time></trkpt><trkpt lat="63.79876328" lon="-18.95465088"><ele>566.6</ele><time>2012-07-25T17:30:30.0000000+00:00</time></trkpt><trkpt lat="63.79876328" lon="-18.95464897"><ele>566.5</ele><time>2012-07-25T17:30:35.0000000+00:00</time></trkpt><trkpt lat="63.79876328" lon="-18.95464706"><ele>566.5</ele><time>2012-07-25T17:30:40.0000000+00:00</time></trkpt><trkpt lat="63.79876328" lon="-18.95467949"><ele>566.9</ele><time>2012-07-25T17:30:45.0000000+00:00</time></trkpt><trkpt lat="63.79876709" lon="-18.9546814"><ele>566.9</ele><time>2012-07-25T17:30:50.0000000+00:00</time></trkpt><trkpt lat="63.79877091" lon="-18.95469284"><ele>567.7</ele><time>2012-07-25T17:30:55.0000000+00:00</time></trkpt><trkpt lat="63.79877472" lon="-18.95471764"><ele>568.0</ele><time>2012-07-25T17:31:00.0000000+00:00</time></trkpt><trkpt lat="63.79878235" lon="-18.95473862"><ele>568.1</ele><time>2012-07-25T17:31:05.0000000+00:00</time></trkpt><trkpt lat="63.79880524" lon="-18.95474434"><ele>569.0</ele><time>2012-07-25T17:31:10.0000000+00:00</time></trkpt><trkpt lat="63.79880142" lon="-18.95472717"><ele>569.3</ele><time>2012-07-25T17:31:15.0000000+00:00</time></trkpt><trkpt lat="63.79880524" lon="-18.95474052"><ele>569.2</ele><time>2012-07-25T17:31:20.0000000+00:00</time></trkpt><trkpt lat="63.79881668" lon="-18.9547863"><ele>569.5</ele><time>2012-07-25T17:31:25.0000000+00:00</time></trkpt><trkpt lat="63.7988472" lon="-18.95483971"><ele>569.4</ele><time>2012-07-25T17:31:30.0000000+00:00</time></trkpt><trkpt lat="63.79887009" lon="-18.95487022"><ele>568.5</ele><time>2012-07-25T17:31:35.0000000+00:00</time></trkpt><trkpt lat="63.79886627" lon="-18.95487976"><ele>568.6</ele><time>2012-07-25T17:31:40.0000000+00:00</time></trkpt><trkpt lat="63.79888153" lon="-18.95484734"><ele>568.6</ele><time>2012-07-25T17:31:45.0000000+00:00</time></trkpt><trkpt lat="63.79891968" lon="-18.95476151"><ele>569.0</ele><time>2012-07-25T17:31:50.0000000+00:00</time></trkpt><trkpt lat="63.79894638" lon="-18.95470429"><ele>568.1</ele><time>2012-07-25T17:31:55.0000000+00:00</time></trkpt><trkpt lat="63.79899597" lon="-18.95473671"><ele>568.0</ele><time>2012-07-25T17:32:00.0000000+00:00</time></trkpt><trkpt lat="63.79901505" lon="-18.95476151"><ele>568.2</ele><time>2012-07-25T17:32:05.0000000+00:00</time></trkpt><trkpt lat="63.79902268" lon="-18.95476151"><ele>568.2</ele><time>2012-07-25T17:32:10.0000000+00:00</time></trkpt><trkpt lat="63.79902649" lon="-18.95474815"><ele>568.3</ele><time>2012-07-25T17:32:15.0000000+00:00</time></trkpt><trkpt lat="63.79902649" lon="-18.95473099"><ele>568.3</ele><time>2012-07-25T17:32:20.0000000+00:00</time></trkpt><trkpt lat="63.79902268" lon="-18.95471954"><ele>568.3</ele><time>2012-07-25T17:32:25.0000000+00:00</time></trkpt><trkpt lat="63.79902268" lon="-18.95470619"><ele>568.3</ele><time>2012-07-25T17:32:30.0000000+00:00</time></trkpt><trkpt lat="63.79902268" lon="-18.95470047"><ele>568.4</ele><time>2012-07-25T17:32:35.0000000+00:00</time></trkpt><trkpt lat="63.79902268" lon="-18.95470619"><ele>568.7</ele><time>2012-07-25T17:32:40.0000000+00:00</time></trkpt><trkpt lat="63.79902649" lon="-18.95469856"><ele>569.3</ele><time>2012-07-25T17:32:45.0000000+00:00</time></trkpt><trkpt lat="63.7990303" lon="-18.95470238"><ele>569.5</ele><time>2012-07-25T17:32:50.0000000+00:00</time></trkpt><trkpt lat="63.79903793" lon="-18.95470047"><ele>569.7</ele><time>2012-07-25T17:32:55.0000000+00:00</time></trkpt><trkpt lat="63.79902649" lon="-18.95471764"><ele>569.8</ele><time>2012-07-25T17:33:00.0000000+00:00</time></trkpt><trkpt lat="63.79902649" lon="-18.95471954"><ele>569.8</ele><time>2012-07-25T17:33:05.0000000+00:00</time></trkpt><trkpt lat="63.79902649" lon="-18.95471954"><ele>569.8</ele><time>2012-07-25T17:33:10.0000000+00:00</time></trkpt><trkpt lat="63.79902649" lon="-18.95471954"><ele>569.8</ele><time>2012-07-25T17:33:15.0000000+00:00</time></trkpt><trkpt lat="63.79902649" lon="-18.95471954"><ele>569.8</ele><time>2012-07-25T17:33:20.0000000+00:00</time></trkpt><trkpt lat="63.79902649" lon="-18.95471954"><ele>569.8</ele><time>2012-07-25T17:33:25.0000000+00:00</time></trkpt><trkpt lat="63.79902649" lon="-18.95471954"><ele>569.8</ele><time>2012-07-25T17:33:30.0000000+00:00</time></trkpt><trkpt lat="63.79902649" lon="-18.95471764"><ele>569.8</ele><time>2012-07-25T17:33:35.0000000+00:00</time></trkpt><trkpt lat="63.79902649" lon="-18.95471764"><ele>569.8</ele><time>2012-07-25T17:33:40.0000000+00:00</time></trkpt><trkpt lat="63.79902649" lon="-18.95471954"><ele>569.8</ele><time>2012-07-25T17:33:45.0000000+00:00</time></trkpt><trkpt lat="63.79902649" lon="-18.95471954"><ele>569.8</ele><time>2012-07-25T17:33:50.0000000+00:00</time></trkpt><trkpt lat="63.79902649" lon="-18.95471954"><ele>569.8</ele><time>2012-07-25T17:33:55.0000000+00:00</time></trkpt><trkpt lat="63.7990303" lon="-18.95472145"><ele>569.8</ele><time>2012-07-25T17:34:00.0000000+00:00</time></trkpt><trkpt lat="63.79903793" lon="-18.95471191"><ele>569.6</ele><time>2012-07-25T17:34:05.0000000+00:00</time></trkpt><trkpt lat="63.79904938" lon="-18.95471191"><ele>569.1</ele><time>2012-07-25T17:34:10.0000000+00:00</time></trkpt><trkpt lat="63.79909134" lon="-18.95475197"><ele>568.5</ele><time>2012-07-25T17:34:15.0000000+00:00</time></trkpt><trkpt lat="63.79916763" lon="-18.9548378"><ele>567.6</ele><time>2012-07-25T17:34:20.0000000+00:00</time></trkpt><trkpt lat="63.7992363" lon="-18.95490646"><ele>568.1</ele><time>2012-07-25T17:34:25.0000000+00:00</time></trkpt><trkpt lat="63.79929733" lon="-18.95496368"><ele>568.9</ele><time>2012-07-25T17:34:30.0000000+00:00</time></trkpt><trkpt lat="63.79938126" lon="-18.9550457"><ele>569.5</ele><time>2012-07-25T17:34:35.0000000+00:00</time></trkpt><trkpt lat="63.79948807" lon="-18.95512962"><ele>570.0</ele><time>2012-07-25T17:34:40.0000000+00:00</time></trkpt><trkpt lat="63.79955673" lon="-18.95521355"><ele>570.0</ele><time>2012-07-25T17:34:45.0000000+00:00</time></trkpt><trkpt lat="63.79964447" lon="-18.9553318"><ele>570.7</ele><time>2012-07-25T17:34:50.0000000+00:00</time></trkpt><trkpt lat="63.79971695" lon="-18.95545769"><ele>571.2</ele><time>2012-07-25T17:34:55.0000000+00:00</time></trkpt><trkpt lat="63.79980469" lon="-18.95555306"><ele>571.5</ele><time>2012-07-25T17:35:00.0000000+00:00</time></trkpt><trkpt lat="63.79988861" lon="-18.9556427"><ele>570.3</ele><time>2012-07-25T17:35:05.0000000+00:00</time></trkpt><trkpt lat="63.79999161" lon="-18.95569229"><ele>569.6</ele><time>2012-07-25T17:35:10.0000000+00:00</time></trkpt><trkpt lat="63.80008698" lon="-18.95569611"><ele>568.5</ele><time>2012-07-25T17:35:15.0000000+00:00</time></trkpt><trkpt lat="63.80018234" lon="-18.95570946"><ele>568.8</ele><time>2012-07-25T17:35:20.0000000+00:00</time></trkpt><trkpt lat="63.80027008" lon="-18.95571899"><ele>569.4</ele><time>2012-07-25T17:35:25.0000000+00:00</time></trkpt><trkpt lat="63.8003273" lon="-18.95573235"><ele>570.0</ele><time>2012-07-25T17:35:30.0000000+00:00</time></trkpt><trkpt lat="63.80033493" lon="-18.95575714"><ele>571.2</ele><time>2012-07-25T17:35:35.0000000+00:00</time></trkpt><trkpt lat="63.80033112" lon="-18.95575714"><ele>571.2</ele><time>2012-07-25T17:35:40.0000000+00:00</time></trkpt><trkpt lat="63.80033112" lon="-18.95575905"><ele>571.2</ele><time>2012-07-25T17:35:45.0000000+00:00</time></trkpt><trkpt lat="63.80033112" lon="-18.95575905"><ele>571.2</ele><time>2012-07-25T17:35:50.0000000+00:00</time></trkpt><trkpt lat="63.80033112" lon="-18.95575905"><ele>571.2</ele><time>2012-07-25T17:35:55.0000000+00:00</time></trkpt><trkpt lat="63.80037689" lon="-18.95588303"><ele>569.5</ele><time>2012-07-25T17:36:00.0000000+00:00</time></trkpt><trkpt lat="63.80042648" lon="-18.95615006"><ele>568.8</ele><time>2012-07-25T17:36:05.0000000+00:00</time></trkpt><trkpt lat="63.80046082" lon="-18.95648766"><ele>569.2</ele><time>2012-07-25T17:36:10.0000000+00:00</time></trkpt><trkpt lat="63.80046082" lon="-18.95682335"><ele>568.0</ele><time>2012-07-25T17:36:15.0000000+00:00</time></trkpt><trkpt lat="63.80046082" lon="-18.95718193"><ele>567.9</ele><time>2012-07-25T17:36:20.0000000+00:00</time></trkpt><trkpt lat="63.80046082" lon="-18.95751953"><ele>567.3</ele><time>2012-07-25T17:36:25.0000000+00:00</time></trkpt><trkpt lat="63.80047226" lon="-18.95783424"><ele>566.8</ele><time>2012-07-25T17:36:30.0000000+00:00</time></trkpt><trkpt lat="63.80047607" lon="-18.9581337"><ele>566.0</ele><time>2012-07-25T17:36:35.0000000+00:00</time></trkpt><trkpt lat="63.80049133" lon="-18.95840454"><ele>565.8</ele><time>2012-07-25T17:36:40.0000000+00:00</time></trkpt><trkpt lat="63.80051041" lon="-18.95866966"><ele>566.0</ele><time>2012-07-25T17:36:45.0000000+00:00</time></trkpt><trkpt lat="63.80055237" lon="-18.95894432"><ele>567.4</ele><time>2012-07-25T17:36:50.0000000+00:00</time></trkpt><trkpt lat="63.8005867" lon="-18.95924187"><ele>568.2</ele><time>2012-07-25T17:36:55.0000000+00:00</time></trkpt><trkpt lat="63.80063629" lon="-18.95954895"><ele>569.4</ele><time>2012-07-25T17:37:00.0000000+00:00</time></trkpt><trkpt lat="63.80067825" lon="-18.95985794"><ele>570.2</ele><time>2012-07-25T17:37:05.0000000+00:00</time></trkpt><trkpt lat="63.80072022" lon="-18.96015358"><ele>571.2</ele><time>2012-07-25T17:37:10.0000000+00:00</time></trkpt><trkpt lat="63.80076981" lon="-18.96045113"><ele>571.9</ele><time>2012-07-25T17:37:15.0000000+00:00</time></trkpt><trkpt lat="63.80082321" lon="-18.96074677"><ele>572.3</ele><time>2012-07-25T17:37:20.0000000+00:00</time></trkpt><trkpt lat="63.80088806" lon="-18.96104622"><ele>573.0</ele><time>2012-07-25T17:37:25.0000000+00:00</time></trkpt><trkpt lat="63.80094528" lon="-18.96132469"><ele>573.6</ele><time>2012-07-25T17:37:30.0000000+00:00</time></trkpt><trkpt lat="63.80101013" lon="-18.96162987"><ele>574.0</ele><time>2012-07-25T17:37:35.0000000+00:00</time></trkpt><trkpt lat="63.80106354" lon="-18.96194077"><ele>574.4</ele><time>2012-07-25T17:37:40.0000000+00:00</time></trkpt><trkpt lat="63.8011055" lon="-18.96226692"><ele>575.1</ele><time>2012-07-25T17:37:45.0000000+00:00</time></trkpt><trkpt lat="63.80113983" lon="-18.96261025"><ele>575.4</ele><time>2012-07-25T17:37:50.0000000+00:00</time></trkpt><trkpt lat="63.80116653" lon="-18.96294975"><ele>575.8</ele><time>2012-07-25T17:37:55.0000000+00:00</time></trkpt><trkpt lat="63.80118942" lon="-18.96328926"><ele>576.3</ele><time>2012-07-25T17:38:00.0000000+00:00</time></trkpt><trkpt lat="63.80121231" lon="-18.96363258"><ele>576.3</ele><time>2012-07-25T17:38:05.0000000+00:00</time></trkpt><trkpt lat="63.80122376" lon="-18.96396828"><ele>576.3</ele><time>2012-07-25T17:38:10.0000000+00:00</time></trkpt><trkpt lat="63.80124283" lon="-18.96429253"><ele>576.1</ele><time>2012-07-25T17:38:15.0000000+00:00</time></trkpt><trkpt lat="63.80127335" lon="-18.96463013"><ele>575.8</ele><time>2012-07-25T17:38:20.0000000+00:00</time></trkpt><trkpt lat="63.80130386" lon="-18.96495056"><ele>576.6</ele><time>2012-07-25T17:38:25.0000000+00:00</time></trkpt><trkpt lat="63.80134201" lon="-18.96525002"><ele>577.0</ele><time>2012-07-25T17:38:30.0000000+00:00</time></trkpt><trkpt lat="63.8013916" lon="-18.96557236"><ele>576.7</ele><time>2012-07-25T17:38:35.0000000+00:00</time></trkpt><trkpt lat="63.80143738" lon="-18.96587753"><ele>576.8</ele><time>2012-07-25T17:38:40.0000000+00:00</time></trkpt><trkpt lat="63.80148315" lon="-18.96614456"><ele>577.2</ele><time>2012-07-25T17:38:45.0000000+00:00</time></trkpt><trkpt lat="63.80152512" lon="-18.96642113"><ele>577.9</ele><time>2012-07-25T17:38:50.0000000+00:00</time></trkpt><trkpt lat="63.80158234" lon="-18.96671677"><ele>579.5</ele><time>2012-07-25T17:38:55.0000000+00:00</time></trkpt><trkpt lat="63.80163956" lon="-18.96701241"><ele>580.8</ele><time>2012-07-25T17:39:00.0000000+00:00</time></trkpt><trkpt lat="63.80168915" lon="-18.96730614"><ele>582.3</ele><time>2012-07-25T17:39:05.0000000+00:00</time></trkpt><trkpt lat="63.80174637" lon="-18.96757126"><ele>583.1</ele><time>2012-07-25T17:39:10.0000000+00:00</time></trkpt><trkpt lat="63.80180359" lon="-18.96785545"><ele>583.2</ele><time>2012-07-25T17:39:15.0000000+00:00</time></trkpt><trkpt lat="63.80188751" lon="-18.96811295"><ele>586.5</ele><time>2012-07-25T17:39:20.0000000+00:00</time></trkpt><trkpt lat="63.80195618" lon="-18.96839523"><ele>588.7</ele><time>2012-07-25T17:39:25.0000000+00:00</time></trkpt><trkpt lat="63.8020134" lon="-18.96870613"><ele>589.5</ele><time>2012-07-25T17:39:30.0000000+00:00</time></trkpt><trkpt lat="63.8020668" lon="-18.96904373"><ele>590.6</ele><time>2012-07-25T17:39:35.0000000+00:00</time></trkpt><trkpt lat="63.80211258" lon="-18.9693737"><ele>589.6</ele><time>2012-07-25T17:39:40.0000000+00:00</time></trkpt><trkpt lat="63.80216217" lon="-18.96971703"><ele>589.7</ele><time>2012-07-25T17:39:45.0000000+00:00</time></trkpt><trkpt lat="63.80221558" lon="-18.97002792"><ele>586.2</ele><time>2012-07-25T17:39:50.0000000+00:00</time></trkpt><trkpt lat="63.80225754" lon="-18.97040749"><ele>584.3</ele><time>2012-07-25T17:39:55.0000000+00:00</time></trkpt><trkpt lat="63.80231857" lon="-18.97077179"><ele>587.7</ele><time>2012-07-25T17:40:00.0000000+00:00</time></trkpt><trkpt lat="63.80239487" lon="-18.97115707"><ele>588.5</ele><time>2012-07-25T17:40:05.0000000+00:00</time></trkpt><trkpt lat="63.80244827" lon="-18.97151375"><ele>584.3</ele><time>2012-07-25T17:40:10.0000000+00:00</time></trkpt><trkpt lat="63.80249786" lon="-18.97188187"><ele>582.9</ele><time>2012-07-25T17:40:15.0000000+00:00</time></trkpt><trkpt lat="63.80255508" lon="-18.97227097"><ele>582.1</ele><time>2012-07-25T17:40:20.0000000+00:00</time></trkpt><trkpt lat="63.80260086" lon="-18.9726429"><ele>581.8</ele><time>2012-07-25T17:40:25.0000000+00:00</time></trkpt><trkpt lat="63.80264282" lon="-18.9730053"><ele>582.0</ele><time>2012-07-25T17:40:30.0000000+00:00</time></trkpt><trkpt lat="63.8026886" lon="-18.97339439"><ele>580.3</ele><time>2012-07-25T17:40:35.0000000+00:00</time></trkpt><trkpt lat="63.80275345" lon="-18.97379684"><ele>581.5</ele><time>2012-07-25T17:40:40.0000000+00:00</time></trkpt><trkpt lat="63.80282974" lon="-18.97419357"><ele>581.9</ele><time>2012-07-25T17:40:45.0000000+00:00</time></trkpt><trkpt lat="63.80290985" lon="-18.97447777"><ele>581.6</ele><time>2012-07-25T17:40:50.0000000+00:00</time></trkpt><trkpt lat="63.80299377" lon="-18.97478485"><ele>581.5</ele><time>2012-07-25T17:40:55.0000000+00:00</time></trkpt><trkpt lat="63.80308151" lon="-18.97506905"><ele>581.7</ele><time>2012-07-25T17:41:00.0000000+00:00</time></trkpt><trkpt lat="63.80317688" lon="-18.97533035"><ele>581.5</ele><time>2012-07-25T17:41:05.0000000+00:00</time></trkpt><trkpt lat="63.80326843" lon="-18.9756012"><ele>582.1</ele><time>2012-07-25T17:41:10.0000000+00:00</time></trkpt><trkpt lat="63.80335236" lon="-18.97584343"><ele>582.2</ele><time>2012-07-25T17:41:15.0000000+00:00</time></trkpt><trkpt lat="63.80344009" lon="-18.97609901"><ele>581.8</ele><time>2012-07-25T17:41:20.0000000+00:00</time></trkpt><trkpt lat="63.80352783" lon="-18.97634506"><ele>582.5</ele><time>2012-07-25T17:41:25.0000000+00:00</time></trkpt><trkpt lat="63.80361176" lon="-18.97657013"><ele>582.8</ele><time>2012-07-25T17:41:30.0000000+00:00</time></trkpt><trkpt lat="63.80369568" lon="-18.97680283"><ele>582.9</ele><time>2012-07-25T17:41:35.0000000+00:00</time></trkpt><trkpt lat="63.80377579" lon="-18.97703743"><ele>583.4</ele><time>2012-07-25T17:41:40.0000000+00:00</time></trkpt><trkpt lat="63.8038559" lon="-18.97725868"><ele>583.3</ele><time>2012-07-25T17:41:45.0000000+00:00</time></trkpt><trkpt lat="63.80393601" lon="-18.97749901"><ele>584.4</ele><time>2012-07-25T17:41:50.0000000+00:00</time></trkpt><trkpt lat="63.80401993" lon="-18.97778702"><ele>584.5</ele><time>2012-07-25T17:41:55.0000000+00:00</time></trkpt><trkpt lat="63.80410385" lon="-18.97810555"><ele>582.9</ele><time>2012-07-25T17:42:00.0000000+00:00</time></trkpt><trkpt lat="63.80418396" lon="-18.97855377"><ele>581.4</ele><time>2012-07-25T17:42:05.0000000+00:00</time></trkpt><trkpt lat="63.80422211" lon="-18.97894478"><ele>581.4</ele><time>2012-07-25T17:42:10.0000000+00:00</time></trkpt><trkpt lat="63.804245" lon="-18.97927666"><ele>581.6</ele><time>2012-07-25T17:42:15.0000000+00:00</time></trkpt><trkpt lat="63.80424881" lon="-18.97945595"><ele>582.0</ele><time>2012-07-25T17:42:20.0000000+00:00</time></trkpt><trkpt lat="63.80426407" lon="-18.97964668"><ele>581.6</ele><time>2012-07-25T17:42:25.0000000+00:00</time></trkpt><trkpt lat="63.80427551" lon="-18.9798584"><ele>582.5</ele><time>2012-07-25T17:42:30.0000000+00:00</time></trkpt><trkpt lat="63.80429077" lon="-18.98004723"><ele>583.8</ele><time>2012-07-25T17:42:35.0000000+00:00</time></trkpt><trkpt lat="63.80430222" lon="-18.98026085"><ele>584.5</ele><time>2012-07-25T17:42:40.0000000+00:00</time></trkpt><trkpt lat="63.80432129" lon="-18.98044014"><ele>585.2</ele><time>2012-07-25T17:42:45.0000000+00:00</time></trkpt><trkpt lat="63.80434036" lon="-18.9806366"><ele>586.5</ele><time>2012-07-25T17:42:50.0000000+00:00</time></trkpt><trkpt lat="63.80436325" lon="-18.98083878"><ele>587.2</ele><time>2012-07-25T17:42:55.0000000+00:00</time></trkpt><trkpt lat="63.80438232" lon="-18.98104668"><ele>588.0</ele><time>2012-07-25T17:43:00.0000000+00:00</time></trkpt><trkpt lat="63.80441284" lon="-18.98129654"><ele>588.2</ele><time>2012-07-25T17:43:05.0000000+00:00</time></trkpt><trkpt lat="63.80443955" lon="-18.98152924"><ele>588.2</ele><time>2012-07-25T17:43:10.0000000+00:00</time></trkpt><trkpt lat="63.80446625" lon="-18.98184395"><ele>586.8</ele><time>2012-07-25T17:43:15.0000000+00:00</time></trkpt><trkpt lat="63.80456924" lon="-18.98238182"><ele>586.7</ele><time>2012-07-25T17:43:20.0000000+00:00</time></trkpt><trkpt lat="63.80460739" lon="-18.98277664"><ele>587.3</ele><time>2012-07-25T17:43:25.0000000+00:00</time></trkpt><trkpt lat="63.80465317" lon="-18.98314095"><ele>587.9</ele><time>2012-07-25T17:43:30.0000000+00:00</time></trkpt><trkpt lat="63.80469894" lon="-18.9834652"><ele>587.3</ele><time>2012-07-25T17:43:35.0000000+00:00</time></trkpt><trkpt lat="63.80474091" lon="-18.98379898"><ele>586.4</ele><time>2012-07-25T17:43:40.0000000+00:00</time></trkpt><trkpt lat="63.80481339" lon="-18.98413086"><ele>587.0</ele><time>2012-07-25T17:43:45.0000000+00:00</time></trkpt><trkpt lat="63.80488586" lon="-18.98436546"><ele>587.8</ele><time>2012-07-25T17:43:50.0000000+00:00</time></trkpt><trkpt lat="63.80497742" lon="-18.98464203"><ele>588.5</ele><time>2012-07-25T17:43:55.0000000+00:00</time></trkpt><trkpt lat="63.8050766" lon="-18.98492813"><ele>589.4</ele><time>2012-07-25T17:44:00.0000000+00:00</time></trkpt><trkpt lat="63.80516052" lon="-18.9852047"><ele>589.3</ele><time>2012-07-25T17:44:05.0000000+00:00</time></trkpt><trkpt lat="63.80527878" lon="-18.98540115"><ele>586.7</ele><time>2012-07-25T17:44:10.0000000+00:00</time></trkpt><trkpt lat="63.80534744" lon="-18.98558426"><ele>586.4</ele><time>2012-07-25T17:44:15.0000000+00:00</time></trkpt><trkpt lat="63.80543518" lon="-18.985672"><ele>585.8</ele><time>2012-07-25T17:44:20.0000000+00:00</time></trkpt><trkpt lat="63.80550766" lon="-18.98583794"><ele>585.6</ele><time>2012-07-25T17:44:25.0000000+00:00</time></trkpt><trkpt lat="63.80550385" lon="-18.98584938"><ele>583.6</ele><time>2012-07-25T17:44:30.0000000+00:00</time></trkpt><trkpt lat="63.80551529" lon="-18.98590469"><ele>583.5</ele><time>2012-07-25T17:44:35.0000000+00:00</time></trkpt><trkpt lat="63.80553818" lon="-18.98596954"><ele>583.6</ele><time>2012-07-25T17:44:40.0000000+00:00</time></trkpt><trkpt lat="63.80556107" lon="-18.98604202"><ele>584.1</ele><time>2012-07-25T17:44:45.0000000+00:00</time></trkpt><trkpt lat="63.80557632" lon="-18.98612595"><ele>583.4</ele><time>2012-07-25T17:44:50.0000000+00:00</time></trkpt><trkpt lat="63.80559158" lon="-18.98617744"><ele>582.1</ele><time>2012-07-25T17:44:55.0000000+00:00</time></trkpt><trkpt lat="63.80558395" lon="-18.98622513"><ele>583.4</ele><time>2012-07-25T17:45:00.0000000+00:00</time></trkpt><trkpt lat="63.80558014" lon="-18.98625565"><ele>583.3</ele><time>2012-07-25T17:45:05.0000000+00:00</time></trkpt><trkpt lat="63.80557632" lon="-18.98630714"><ele>583.2</ele><time>2012-07-25T17:45:10.0000000+00:00</time></trkpt><trkpt lat="63.80558014" lon="-18.98638535"><ele>583.5</ele><time>2012-07-25T17:45:15.0000000+00:00</time></trkpt><trkpt lat="63.80557632" lon="-18.98645783"><ele>583.0</ele><time>2012-07-25T17:45:20.0000000+00:00</time></trkpt><trkpt lat="63.80557251" lon="-18.98648834"><ele>584.1</ele><time>2012-07-25T17:45:25.0000000+00:00</time></trkpt><trkpt lat="63.80556488" lon="-18.98648071"><ele>583.6</ele><time>2012-07-25T17:45:30.0000000+00:00</time></trkpt><trkpt lat="63.80556488" lon="-18.98651695"><ele>583.9</ele><time>2012-07-25T17:45:35.0000000+00:00</time></trkpt><trkpt lat="63.80556488" lon="-18.98659515"><ele>584.2</ele><time>2012-07-25T17:45:40.0000000+00:00</time></trkpt><trkpt lat="63.80558777" lon="-18.98666763"><ele>584.4</ele><time>2012-07-25T17:45:45.0000000+00:00</time></trkpt><trkpt lat="63.80560303" lon="-18.98670769"><ele>584.6</ele><time>2012-07-25T17:45:50.0000000+00:00</time></trkpt><trkpt lat="63.80561829" lon="-18.98677445"><ele>584.9</ele><time>2012-07-25T17:45:55.0000000+00:00</time></trkpt><trkpt lat="63.80563736" lon="-18.98686981"><ele>585.1</ele><time>2012-07-25T17:46:00.0000000+00:00</time></trkpt><trkpt lat="63.80565262" lon="-18.98698235"><ele>585.8</ele><time>2012-07-25T17:46:05.0000000+00:00</time></trkpt><trkpt lat="63.80566025" lon="-18.98700714"><ele>586.2</ele><time>2012-07-25T17:46:10.0000000+00:00</time></trkpt><trkpt lat="63.80566788" lon="-18.98707962"><ele>586.2</ele><time>2012-07-25T17:46:15.0000000+00:00</time></trkpt><trkpt lat="63.8056984" lon="-18.98725319"><ele>586.5</ele><time>2012-07-25T17:46:20.0000000+00:00</time></trkpt><trkpt lat="63.80571365" lon="-18.98744583"><ele>587.1</ele><time>2012-07-25T17:46:25.0000000+00:00</time></trkpt><trkpt lat="63.80573654" lon="-18.98769569"><ele>588.0</ele><time>2012-07-25T17:46:30.0000000+00:00</time></trkpt><trkpt lat="63.80576325" lon="-18.98795509"><ele>587.6</ele><time>2012-07-25T17:46:35.0000000+00:00</time></trkpt><trkpt lat="63.80578613" lon="-18.98820305"><ele>587.9</ele><time>2012-07-25T17:46:40.0000000+00:00</time></trkpt><trkpt lat="63.80580521" lon="-18.9884758"><ele>587.6</ele><time>2012-07-25T17:46:45.0000000+00:00</time></trkpt><trkpt lat="63.80583191" lon="-18.98876381"><ele>587.3</ele><time>2012-07-25T17:46:50.0000000+00:00</time></trkpt><trkpt lat="63.80585098" lon="-18.9890728"><ele>587.0</ele><time>2012-07-25T17:46:55.0000000+00:00</time></trkpt><trkpt lat="63.80587769" lon="-18.98937416"><ele>586.6</ele><time>2012-07-25T17:47:00.0000000+00:00</time></trkpt><trkpt lat="63.80590439" lon="-18.98966599"><ele>587.4</ele><time>2012-07-25T17:47:05.0000000+00:00</time></trkpt><trkpt lat="63.80593491" lon="-18.989954"><ele>587.3</ele><time>2012-07-25T17:47:10.0000000+00:00</time></trkpt><trkpt lat="63.80596924" lon="-18.99025726"><ele>587.0</ele><time>2012-07-25T17:47:15.0000000+00:00</time></trkpt><trkpt lat="63.80600357" lon="-18.99052048"><ele>587.6</ele><time>2012-07-25T17:47:20.0000000+00:00</time></trkpt><trkpt lat="63.80604553" lon="-18.99080467"><ele>587.5</ele><time>2012-07-25T17:47:25.0000000+00:00</time></trkpt><trkpt lat="63.80608749" lon="-18.99108887"><ele>587.4</ele><time>2012-07-25T17:47:30.0000000+00:00</time></trkpt><trkpt lat="63.80614471" lon="-18.99135399"><ele>588.3</ele><time>2012-07-25T17:47:35.0000000+00:00</time></trkpt><trkpt lat="63.80621338" lon="-18.9916153"><ele>589.9</ele><time>2012-07-25T17:47:40.0000000+00:00</time></trkpt><trkpt lat="63.80627823" lon="-18.99185944"><ele>590.6</ele><time>2012-07-25T17:47:45.0000000+00:00</time></trkpt><trkpt lat="63.80633545" lon="-18.99211311"><ele>590.7</ele><time>2012-07-25T17:47:50.0000000+00:00</time></trkpt><trkpt lat="63.8064003" lon="-18.99235344"><ele>591.6</ele><time>2012-07-25T17:47:55.0000000+00:00</time></trkpt><trkpt lat="63.80646515" lon="-18.9926033"><ele>591.9</ele><time>2012-07-25T17:48:00.0000000+00:00</time></trkpt><trkpt lat="63.80652618" lon="-18.99279022"><ele>592.6</ele><time>2012-07-25T17:48:05.0000000+00:00</time></trkpt><trkpt lat="63.80657959" lon="-18.99297333"><ele>592.8</ele><time>2012-07-25T17:48:10.0000000+00:00</time></trkpt><trkpt lat="63.80664063" lon="-18.99324226"><ele>591.6</ele><time>2012-07-25T17:48:15.0000000+00:00</time></trkpt><trkpt lat="63.80670548" lon="-18.99347115"><ele>591.5</ele><time>2012-07-25T17:48:20.0000000+00:00</time></trkpt><trkpt lat="63.80675507" lon="-18.99365997"><ele>591.9</ele><time>2012-07-25T17:48:25.0000000+00:00</time></trkpt><trkpt lat="63.80682373" lon="-18.9939003"><ele>592.5</ele><time>2012-07-25T17:48:30.0000000+00:00</time></trkpt><trkpt lat="63.80688858" lon="-18.99415779"><ele>592.9</ele><time>2012-07-25T17:48:35.0000000+00:00</time></trkpt><trkpt lat="63.80695343" lon="-18.99443054"><ele>593.1</ele><time>2012-07-25T17:48:40.0000000+00:00</time></trkpt><trkpt lat="63.80701065" lon="-18.99470329"><ele>593.0</ele><time>2012-07-25T17:48:45.0000000+00:00</time></trkpt><trkpt lat="63.80706024" lon="-18.9949131"><ele>595.0</ele><time>2012-07-25T17:48:50.0000000+00:00</time></trkpt><trkpt lat="63.80711746" lon="-18.99519348"><ele>595.0</ele><time>2012-07-25T17:48:55.0000000+00:00</time></trkpt><trkpt lat="63.80716705" lon="-18.99545479"><ele>596.4</ele><time>2012-07-25T17:49:00.0000000+00:00</time></trkpt><trkpt lat="63.8072319" lon="-18.99576378"><ele>595.9</ele><time>2012-07-25T17:49:05.0000000+00:00</time></trkpt><trkpt lat="63.80728912" lon="-18.9960537"><ele>595.7</ele><time>2012-07-25T17:49:10.0000000+00:00</time></trkpt><trkpt lat="63.80734634" lon="-18.99636459"><ele>596.4</ele><time>2012-07-25T17:49:15.0000000+00:00</time></trkpt><trkpt lat="63.80740356" lon="-18.99670601"><ele>596.2</ele><time>2012-07-25T17:49:20.0000000+00:00</time></trkpt><trkpt lat="63.80745697" lon="-18.9970665"><ele>595.9</ele><time>2012-07-25T17:49:25.0000000+00:00</time></trkpt><trkpt lat="63.80750275" lon="-18.99738312"><ele>596.2</ele><time>2012-07-25T17:49:30.0000000+00:00</time></trkpt><trkpt lat="63.80755615" lon="-18.99773979"><ele>595.8</ele><time>2012-07-25T17:49:35.0000000+00:00</time></trkpt><trkpt lat="63.80761719" lon="-18.99806023"><ele>595.9</ele><time>2012-07-25T17:49:40.0000000+00:00</time></trkpt><trkpt lat="63.80765915" lon="-18.99844933"><ele>593.5</ele><time>2012-07-25T17:49:45.0000000+00:00</time></trkpt><trkpt lat="63.80771637" lon="-18.99885368"><ele>592.9</ele><time>2012-07-25T17:49:50.0000000+00:00</time></trkpt><trkpt lat="63.80776978" lon="-18.99926186"><ele>591.7</ele><time>2012-07-25T17:49:55.0000000+00:00</time></trkpt><trkpt lat="63.80783081" lon="-18.99967575"><ele>591.2</ele><time>2012-07-25T17:50:00.0000000+00:00</time></trkpt><trkpt lat="63.80789185" lon="-19.00008965"><ele>591.6</ele><time>2012-07-25T17:50:05.0000000+00:00</time></trkpt><trkpt lat="63.8079567" lon="-19.00050545"><ele>592.8</ele><time>2012-07-25T17:50:10.0000000+00:00</time></trkpt><trkpt lat="63.80802155" lon="-19.00091744"><ele>593.4</ele><time>2012-07-25T17:50:15.0000000+00:00</time></trkpt><trkpt lat="63.8080864" lon="-19.0013504"><ele>594.8</ele><time>2012-07-25T17:50:20.0000000+00:00</time></trkpt><trkpt lat="63.80816269" lon="-19.00173569"><ele>596.3</ele><time>2012-07-25T17:50:25.0000000+00:00</time></trkpt><trkpt lat="63.80820847" lon="-19.00214195"><ele>595.9</ele><time>2012-07-25T17:50:30.0000000+00:00</time></trkpt><trkpt lat="63.80825806" lon="-19.00257301"><ele>594.8</ele><time>2012-07-25T17:50:35.0000000+00:00</time></trkpt><trkpt lat="63.80830383" lon="-19.00296402"><ele>592.8</ele><time>2012-07-25T17:50:40.0000000+00:00</time></trkpt><trkpt lat="63.80834961" lon="-19.00334168"><ele>593.4</ele><time>2012-07-25T17:50:45.0000000+00:00</time></trkpt><trkpt lat="63.80838394" lon="-19.00363922"><ele>593.1</ele><time>2012-07-25T17:50:50.0000000+00:00</time></trkpt><trkpt lat="63.80841446" lon="-19.00396347"><ele>594.2</ele><time>2012-07-25T17:50:55.0000000+00:00</time></trkpt><trkpt lat="63.80846024" lon="-19.00424957"><ele>594.9</ele><time>2012-07-25T17:51:00.0000000+00:00</time></trkpt><trkpt lat="63.80850601" lon="-19.0045414"><ele>596.0</ele><time>2012-07-25T17:51:05.0000000+00:00</time></trkpt><trkpt lat="63.80854034" lon="-19.00485802"><ele>597.3</ele><time>2012-07-25T17:51:10.0000000+00:00</time></trkpt><trkpt lat="63.80858231" lon="-19.00517654"><ele>598.3</ele><time>2012-07-25T17:51:15.0000000+00:00</time></trkpt><trkpt lat="63.80862045" lon="-19.00552368"><ele>598.3</ele><time>2012-07-25T17:51:20.0000000+00:00</time></trkpt><trkpt lat="63.80865479" lon="-19.00586128"><ele>599.5</ele><time>2012-07-25T17:51:25.0000000+00:00</time></trkpt><trkpt lat="63.80868912" lon="-19.00619316"><ele>600.8</ele><time>2012-07-25T17:51:30.0000000+00:00</time></trkpt><trkpt lat="63.80871582" lon="-19.00648117"><ele>601.2</ele><time>2012-07-25T17:51:35.0000000+00:00</time></trkpt><trkpt lat="63.80873108" lon="-19.00675583"><ele>600.8</ele><time>2012-07-25T17:51:40.0000000+00:00</time></trkpt><trkpt lat="63.80875015" lon="-19.00699806"><ele>601.2</ele><time>2012-07-25T17:51:45.0000000+00:00</time></trkpt><trkpt lat="63.80876541" lon="-19.00725555"><ele>602.3</ele><time>2012-07-25T17:51:50.0000000+00:00</time></trkpt><trkpt lat="63.80878449" lon="-19.0075264"><ele>601.9</ele><time>2012-07-25T17:51:55.0000000+00:00</time></trkpt><trkpt lat="63.80881119" lon="-19.00779152"><ele>603.6</ele><time>2012-07-25T17:52:00.0000000+00:00</time></trkpt><trkpt lat="63.80884171" lon="-19.00803566"><ele>605.3</ele><time>2012-07-25T17:52:05.0000000+00:00</time></trkpt><trkpt lat="63.80886841" lon="-19.00829125"><ele>605.6</ele><time>2012-07-25T17:52:10.0000000+00:00</time></trkpt><trkpt lat="63.80888748" lon="-19.00858307"><ele>603.0</ele><time>2012-07-25T17:52:15.0000000+00:00</time></trkpt><trkpt lat="63.808918" lon="-19.00884628"><ele>602.2</ele><time>2012-07-25T17:52:20.0000000+00:00</time></trkpt><trkpt lat="63.80895615" lon="-19.00908852"><ele>602.4</ele><time>2012-07-25T17:52:25.0000000+00:00</time></trkpt><trkpt lat="63.80899429" lon="-19.00932884"><ele>602.3</ele><time>2012-07-25T17:52:30.0000000+00:00</time></trkpt><trkpt lat="63.80904388" lon="-19.00959778"><ele>602.0</ele><time>2012-07-25T17:52:35.0000000+00:00</time></trkpt><trkpt lat="63.8090744" lon="-19.00985909"><ele>601.0</ele><time>2012-07-25T17:52:40.0000000+00:00</time></trkpt><trkpt lat="63.80912018" lon="-19.01012993"><ele>602.1</ele><time>2012-07-25T17:52:45.0000000+00:00</time></trkpt><trkpt lat="63.80915833" lon="-19.01037026"><ele>601.8</ele><time>2012-07-25T17:52:50.0000000+00:00</time></trkpt><trkpt lat="63.80919647" lon="-19.0106144"><ele>601.2</ele><time>2012-07-25T17:52:55.0000000+00:00</time></trkpt><trkpt lat="63.80923462" lon="-19.01088524"><ele>601.9</ele><time>2012-07-25T17:53:00.0000000+00:00</time></trkpt><trkpt lat="63.80927658" lon="-19.01115036"><ele>601.7</ele><time>2012-07-25T17:53:05.0000000+00:00</time></trkpt><trkpt lat="63.80932236" lon="-19.01140785"><ele>602.0</ele><time>2012-07-25T17:53:10.0000000+00:00</time></trkpt><trkpt lat="63.80936432" lon="-19.01167679"><ele>602.1</ele><time>2012-07-25T17:53:15.0000000+00:00</time></trkpt><trkpt lat="63.80940247" lon="-19.01195717"><ele>602.2</ele><time>2012-07-25T17:53:20.0000000+00:00</time></trkpt><trkpt lat="63.8094368" lon="-19.01222038"><ele>602.5</ele><time>2012-07-25T17:53:25.0000000+00:00</time></trkpt><trkpt lat="63.80947113" lon="-19.01247597"><ele>604.3</ele><time>2012-07-25T17:53:30.0000000+00:00</time></trkpt><trkpt lat="63.80950928" lon="-19.0127449"><ele>605.5</ele><time>2012-07-25T17:53:35.0000000+00:00</time></trkpt><trkpt lat="63.80954361" lon="-19.01300621"><ele>605.9</ele><time>2012-07-25T17:53:40.0000000+00:00</time></trkpt><trkpt lat="63.80958176" lon="-19.01327515"><ele>606.0</ele><time>2012-07-25T17:53:45.0000000+00:00</time></trkpt><trkpt lat="63.80964279" lon="-19.01353836"><ele>606.3</ele><time>2012-07-25T17:53:50.0000000+00:00</time></trkpt><trkpt lat="63.80969238" lon="-19.01381874"><ele>606.4</ele><time>2012-07-25T17:53:55.0000000+00:00</time></trkpt><trkpt lat="63.80972672" lon="-19.01410866"><ele>606.6</ele><time>2012-07-25T17:54:00.0000000+00:00</time></trkpt><trkpt lat="63.80977249" lon="-19.01439285"><ele>607.1</ele><time>2012-07-25T17:54:05.0000000+00:00</time></trkpt><trkpt lat="63.80979538" lon="-19.01461411"><ele>603.8</ele><time>2012-07-25T17:54:10.0000000+00:00</time></trkpt><trkpt lat="63.80984116" lon="-19.01491356"><ele>604.6</ele><time>2012-07-25T17:54:15.0000000+00:00</time></trkpt><trkpt lat="63.80989075" lon="-19.01519013"><ele>604.5</ele><time>2012-07-25T17:54:20.0000000+00:00</time></trkpt><trkpt lat="63.80992127" lon="-19.01547241"><ele>604.4</ele><time>2012-07-25T17:54:25.0000000+00:00</time></trkpt><trkpt lat="63.80997467" lon="-19.0157795"><ele>603.2</ele><time>2012-07-25T17:54:30.0000000+00:00</time></trkpt><trkpt lat="63.81001663" lon="-19.01609039"><ele>602.8</ele><time>2012-07-25T17:54:35.0000000+00:00</time></trkpt><trkpt lat="63.81007385" lon="-19.01636696"><ele>602.0</ele><time>2012-07-25T17:54:40.0000000+00:00</time></trkpt><trkpt lat="63.81012344" lon="-19.01665115"><ele>601.5</ele><time>2012-07-25T17:54:45.0000000+00:00</time></trkpt><trkpt lat="63.81016922" lon="-19.01690292"><ele>601.0</ele><time>2012-07-25T17:54:50.0000000+00:00</time></trkpt><trkpt lat="63.81020737" lon="-19.01709747"><ele>599.5</ele><time>2012-07-25T17:54:55.0000000+00:00</time></trkpt><trkpt lat="63.81023407" lon="-19.01725769"><ele>598.3</ele><time>2012-07-25T17:55:00.0000000+00:00</time></trkpt><trkpt lat="63.81024933" lon="-19.01737595"><ele>598.3</ele><time>2012-07-25T17:55:05.0000000+00:00</time></trkpt><trkpt lat="63.81028748" lon="-19.01756096"><ele>597.3</ele><time>2012-07-25T17:55:10.0000000+00:00</time></trkpt><trkpt lat="63.81031799" lon="-19.01772118"><ele>597.2</ele><time>2012-07-25T17:55:15.0000000+00:00</time></trkpt><trkpt lat="63.81034088" lon="-19.01791191"><ele>597.3</ele><time>2012-07-25T17:55:20.0000000+00:00</time></trkpt><trkpt lat="63.81036758" lon="-19.01808548"><ele>598.0</ele><time>2012-07-25T17:55:25.0000000+00:00</time></trkpt><trkpt lat="63.81040955" lon="-19.01826477"><ele>598.9</ele><time>2012-07-25T17:55:30.0000000+00:00</time></trkpt><trkpt lat="63.81042862" lon="-19.01838493"><ele>600.0</ele><time>2012-07-25T17:55:35.0000000+00:00</time></trkpt><trkpt lat="63.81045914" lon="-19.01858711"><ele>600.4</ele><time>2012-07-25T17:55:40.0000000+00:00</time></trkpt><trkpt lat="63.81049728" lon="-19.01877022"><ele>600.9</ele><time>2012-07-25T17:55:45.0000000+00:00</time></trkpt><trkpt lat="63.8105278" lon="-19.0189209"><ele>601.1</ele><time>2012-07-25T17:55:50.0000000+00:00</time></trkpt><trkpt lat="63.81057739" lon="-19.01921654"><ele>599.8</ele><time>2012-07-25T17:55:55.0000000+00:00</time></trkpt><trkpt lat="63.81064224" lon="-19.01955795"><ele>600.2</ele><time>2012-07-25T17:56:00.0000000+00:00</time></trkpt><trkpt lat="63.8106842" lon="-19.01984215"><ele>600.3</ele><time>2012-07-25T17:56:05.0000000+00:00</time></trkpt><trkpt lat="63.81069946" lon="-19.02005196"><ele>599.9</ele><time>2012-07-25T17:56:10.0000000+00:00</time></trkpt><trkpt lat="63.81074143" lon="-19.02028847"><ele>600.4</ele><time>2012-07-25T17:56:15.0000000+00:00</time></trkpt><trkpt lat="63.81077194" lon="-19.02051163"><ele>600.4</ele><time>2012-07-25T17:56:20.0000000+00:00</time></trkpt><trkpt lat="63.81076813" lon="-19.02068329"><ele>601.0</ele><time>2012-07-25T17:56:25.0000000+00:00</time></trkpt><trkpt lat="63.81079865" lon="-19.02079392"><ele>601.9</ele><time>2012-07-25T17:56:30.0000000+00:00</time></trkpt><trkpt lat="63.81082535" lon="-19.02092362"><ele>603.2</ele><time>2012-07-25T17:56:35.0000000+00:00</time></trkpt><trkpt lat="63.81085587" lon="-19.02105904"><ele>604.0</ele><time>2012-07-25T17:56:40.0000000+00:00</time></trkpt><trkpt lat="63.81089783" lon="-19.02125549"><ele>603.9</ele><time>2012-07-25T17:56:45.0000000+00:00</time></trkpt><trkpt lat="63.81097031" lon="-19.02159309"><ele>604.8</ele><time>2012-07-25T17:56:50.0000000+00:00</time></trkpt><trkpt lat="63.81101227" lon="-19.02191734"><ele>601.6</ele><time>2012-07-25T17:56:55.0000000+00:00</time></trkpt><trkpt lat="63.81106186" lon="-19.02223206"><ele>599.4</ele><time>2012-07-25T17:57:00.0000000+00:00</time></trkpt><trkpt lat="63.81112671" lon="-19.02260399"><ele>598.8</ele><time>2012-07-25T17:57:05.0000000+00:00</time></trkpt><trkpt lat="63.81119156" lon="-19.02298927"><ele>599.2</ele><time>2012-07-25T17:57:10.0000000+00:00</time></trkpt><trkpt lat="63.81127167" lon="-19.02340317"><ele>599.3</ele><time>2012-07-25T17:57:15.0000000+00:00</time></trkpt><trkpt lat="63.81134415" lon="-19.02375031"><ele>599.4</ele><time>2012-07-25T17:57:20.0000000+00:00</time></trkpt><trkpt lat="63.81141663" lon="-19.02417755"><ele>599.8</ele><time>2012-07-25T17:57:25.0000000+00:00</time></trkpt><trkpt lat="63.81148148" lon="-19.02463722"><ele>600.0</ele><time>2012-07-25T17:57:30.0000000+00:00</time></trkpt><trkpt lat="63.81155014" lon="-19.02505684"><ele>600.7</ele><time>2012-07-25T17:57:35.0000000+00:00</time></trkpt><trkpt lat="63.81160736" lon="-19.02537918"><ele>601.7</ele><time>2012-07-25T17:57:40.0000000+00:00</time></trkpt><trkpt lat="63.81164932" lon="-19.02556801"><ele>602.4</ele><time>2012-07-25T17:57:45.0000000+00:00</time></trkpt><trkpt lat="63.81168747" lon="-19.02575874"><ele>601.8</ele><time>2012-07-25T17:57:50.0000000+00:00</time></trkpt><trkpt lat="63.81170273" lon="-19.02593422"><ele>601.6</ele><time>2012-07-25T17:57:55.0000000+00:00</time></trkpt><trkpt lat="63.81174469" lon="-19.0261116"><ele>603.3</ele><time>2012-07-25T17:58:00.0000000+00:00</time></trkpt><trkpt lat="63.81176376" lon="-19.02621841"><ele>604.2</ele><time>2012-07-25T17:58:05.0000000+00:00</time></trkpt><trkpt lat="63.81180954" lon="-19.02643204"><ele>604.5</ele><time>2012-07-25T17:58:10.0000000+00:00</time></trkpt><trkpt lat="63.81185532" lon="-19.02669334"><ele>605.8</ele><time>2012-07-25T17:58:15.0000000+00:00</time></trkpt><trkpt lat="63.81190491" lon="-19.02701569"><ele>604.2</ele><time>2012-07-25T17:58:20.0000000+00:00</time></trkpt><trkpt lat="63.81196213" lon="-19.02733421"><ele>603.7</ele><time>2012-07-25T17:58:25.0000000+00:00</time></trkpt><trkpt lat="63.8120079" lon="-19.02766609"><ele>603.8</ele><time>2012-07-25T17:58:30.0000000+00:00</time></trkpt><trkpt lat="63.81205368" lon="-19.02795029"><ele>603.6</ele><time>2012-07-25T17:58:35.0000000+00:00</time></trkpt><trkpt lat="63.81210709" lon="-19.02819634"><ele>603.8</ele><time>2012-07-25T17:58:40.0000000+00:00</time></trkpt><trkpt lat="63.81217194" lon="-19.02846909"><ele>605.2</ele><time>2012-07-25T17:58:45.0000000+00:00</time></trkpt><trkpt lat="63.81222153" lon="-19.02875328"><ele>605.5</ele><time>2012-07-25T17:58:50.0000000+00:00</time></trkpt><trkpt lat="63.81227493" lon="-19.02908707"><ele>605.8</ele><time>2012-07-25T17:58:55.0000000+00:00</time></trkpt><trkpt lat="63.81232452" lon="-19.02940369"><ele>604.5</ele><time>2012-07-25T17:59:00.0000000+00:00</time></trkpt><trkpt lat="63.81236649" lon="-19.02978516"><ele>602.6</ele><time>2012-07-25T17:59:05.0000000+00:00</time></trkpt><trkpt lat="63.81242371" lon="-19.03008461"><ele>602.8</ele><time>2012-07-25T17:59:10.0000000+00:00</time></trkpt><trkpt lat="63.81246567" lon="-19.03039932"><ele>603.2</ele><time>2012-07-25T17:59:15.0000000+00:00</time></trkpt><trkpt lat="63.81252289" lon="-19.03065872"><ele>603.0</ele><time>2012-07-25T17:59:20.0000000+00:00</time></trkpt><trkpt lat="63.81259537" lon="-19.0309639"><ele>607.4</ele><time>2012-07-25T17:59:25.0000000+00:00</time></trkpt><trkpt lat="63.81264877" lon="-19.03130341"><ele>608.3</ele><time>2012-07-25T17:59:30.0000000+00:00</time></trkpt><trkpt lat="63.81269836" lon="-19.03164101"><ele>609.3</ele><time>2012-07-25T17:59:35.0000000+00:00</time></trkpt><trkpt lat="63.8127594" lon="-19.03196526"><ele>609.6</ele><time>2012-07-25T17:59:40.0000000+00:00</time></trkpt><trkpt lat="63.81281281" lon="-19.0322876"><ele>607.1</ele><time>2012-07-25T17:59:45.0000000+00:00</time></trkpt><trkpt lat="63.81285477" lon="-19.03258133"><ele>604.4</ele><time>2012-07-25T17:59:50.0000000+00:00</time></trkpt><trkpt lat="63.81289673" lon="-19.03290939"><ele>602.1</ele><time>2012-07-25T17:59:55.0000000+00:00</time></trkpt><trkpt lat="63.81294632" lon="-19.03323746"><ele>600.9</ele><time>2012-07-25T18:00:00.0000000+00:00</time></trkpt><trkpt lat="63.81300354" lon="-19.03355408"><ele>599.5</ele><time>2012-07-25T18:00:05.0000000+00:00</time></trkpt><trkpt lat="63.81306076" lon="-19.0338726"><ele>600.2</ele><time>2012-07-25T18:00:10.0000000+00:00</time></trkpt><trkpt lat="63.81310654" lon="-19.03417015"><ele>600.9</ele><time>2012-07-25T18:00:15.0000000+00:00</time></trkpt><trkpt lat="63.81315231" lon="-19.03447342"><ele>600.9</ele><time>2012-07-25T18:00:20.0000000+00:00</time></trkpt><trkpt lat="63.81320572" lon="-19.03477478"><ele>600.5</ele><time>2012-07-25T18:00:25.0000000+00:00</time></trkpt><trkpt lat="63.81325531" lon="-19.03507996"><ele>600.9</ele><time>2012-07-25T18:00:30.0000000+00:00</time></trkpt><trkpt lat="63.81330872" lon="-19.03538132"><ele>600.6</ele><time>2012-07-25T18:00:35.0000000+00:00</time></trkpt><trkpt lat="63.81335449" lon="-19.03568077"><ele>599.8</ele><time>2012-07-25T18:00:40.0000000+00:00</time></trkpt><trkpt lat="63.81339645" lon="-19.03598404"><ele>600.1</ele><time>2012-07-25T18:00:45.0000000+00:00</time></trkpt><trkpt lat="63.81343842" lon="-19.03627777"><ele>599.7</ele><time>2012-07-25T18:00:50.0000000+00:00</time></trkpt><trkpt lat="63.81348419" lon="-19.03650475"><ele>600.1</ele><time>2012-07-25T18:00:55.0000000+00:00</time></trkpt><trkpt lat="63.81349182" lon="-19.03650856"><ele>601.7</ele><time>2012-07-25T18:01:00.0000000+00:00</time></trkpt><trkpt lat="63.81349182" lon="-19.03651047"><ele>601.7</ele><time>2012-07-25T18:01:05.0000000+00:00</time></trkpt><trkpt lat="63.81349182" lon="-19.03651047"><ele>601.6</ele><time>2012-07-25T18:01:10.0000000+00:00</time></trkpt><trkpt lat="63.81349182" lon="-19.03651047"><ele>601.6</ele><time>2012-07-25T18:01:15.0000000+00:00</time></trkpt><trkpt lat="63.81349182" lon="-19.03651238"><ele>601.6</ele><time>2012-07-25T18:01:20.0000000+00:00</time></trkpt><trkpt lat="63.81349182" lon="-19.03651619"><ele>601.4</ele><time>2012-07-25T18:01:25.0000000+00:00</time></trkpt><trkpt lat="63.81349182" lon="-19.03651619"><ele>601.4</ele><time>2012-07-25T18:01:30.0000000+00:00</time></trkpt><trkpt lat="63.81349182" lon="-19.03651619"><ele>601.4</ele><time>2012-07-25T18:01:35.0000000+00:00</time></trkpt><trkpt lat="63.81349182" lon="-19.03651428"><ele>601.4</ele><time>2012-07-25T18:01:40.0000000+00:00</time></trkpt><trkpt lat="63.81349182" lon="-19.03651619"><ele>601.5</ele><time>2012-07-25T18:01:45.0000000+00:00</time></trkpt><trkpt lat="63.81349182" lon="-19.03651619"><ele>601.5</ele><time>2012-07-25T18:01:50.0000000+00:00</time></trkpt><trkpt lat="63.81349182" lon="-19.03651619"><ele>601.5</ele><time>2012-07-25T18:01:55.0000000+00:00</time></trkpt><trkpt lat="63.81349945" lon="-19.0365715"><ele>601.1</ele><time>2012-07-25T18:02:00.0000000+00:00</time></trkpt><trkpt lat="63.81354904" lon="-19.03683662"><ele>600.9</ele><time>2012-07-25T18:02:05.0000000+00:00</time></trkpt><trkpt lat="63.81361008" lon="-19.03714562"><ele>602.9</ele><time>2012-07-25T18:02:10.0000000+00:00</time></trkpt><trkpt lat="63.81366348" lon="-19.03746223"><ele>603.1</ele><time>2012-07-25T18:02:15.0000000+00:00</time></trkpt><trkpt lat="63.81370926" lon="-19.03773689"><ele>602.6</ele><time>2012-07-25T18:02:20.0000000+00:00</time></trkpt><trkpt lat="63.81375122" lon="-19.03800774"><ele>600.5</ele><time>2012-07-25T18:02:25.0000000+00:00</time></trkpt><trkpt lat="63.81379318" lon="-19.03827667"><ele>600.1</ele><time>2012-07-25T18:02:30.0000000+00:00</time></trkpt><trkpt lat="63.81383514" lon="-19.03854752"><ele>599.3</ele><time>2012-07-25T18:02:35.0000000+00:00</time></trkpt><trkpt lat="63.81388474" lon="-19.03883934"><ele>600.1</ele><time>2012-07-25T18:02:40.0000000+00:00</time></trkpt><trkpt lat="63.81393433" lon="-19.03913689"><ele>600.6</ele><time>2012-07-25T18:02:45.0000000+00:00</time></trkpt><trkpt lat="63.81397629" lon="-19.03944016"><ele>599.7</ele><time>2012-07-25T18:02:50.0000000+00:00</time></trkpt><trkpt lat="63.81403351" lon="-19.03974342"><ele>599.7</ele><time>2012-07-25T18:02:55.0000000+00:00</time></trkpt><trkpt lat="63.81409073" lon="-19.04005432"><ele>599.5</ele><time>2012-07-25T18:03:00.0000000+00:00</time></trkpt><trkpt lat="63.81413651" lon="-19.04033661"><ele>599.1</ele><time>2012-07-25T18:03:05.0000000+00:00</time></trkpt><trkpt lat="63.81418228" lon="-19.04055786"><ele>599.4</ele><time>2012-07-25T18:03:10.0000000+00:00</time></trkpt><trkpt lat="63.81422043" lon="-19.04079628"><ele>598.0</ele><time>2012-07-25T18:03:15.0000000+00:00</time></trkpt><trkpt lat="63.81427765" lon="-19.04113579"><ele>597.8</ele><time>2012-07-25T18:03:20.0000000+00:00</time></trkpt><trkpt lat="63.81433487" lon="-19.04142761"><ele>597.8</ele><time>2012-07-25T18:03:25.0000000+00:00</time></trkpt><trkpt lat="63.81438828" lon="-19.04172134"><ele>597.6</ele><time>2012-07-25T18:03:30.0000000+00:00</time></trkpt><trkpt lat="63.81441498" lon="-19.04201126"><ele>597.4</ele><time>2012-07-25T18:03:35.0000000+00:00</time></trkpt><trkpt lat="63.81444931" lon="-19.04232407"><ele>597.4</ele><time>2012-07-25T18:03:40.0000000+00:00</time></trkpt><trkpt lat="63.81451035" lon="-19.04263878"><ele>597.2</ele><time>2012-07-25T18:03:45.0000000+00:00</time></trkpt><trkpt lat="63.81457138" lon="-19.0429306"><ele>597.3</ele><time>2012-07-25T18:03:50.0000000+00:00</time></trkpt><trkpt lat="63.81462097" lon="-19.04319954"><ele>596.8</ele><time>2012-07-25T18:03:55.0000000+00:00</time></trkpt><trkpt lat="63.81465912" lon="-19.04349899"><ele>596.0</ele><time>2012-07-25T18:04:00.0000000+00:00</time></trkpt><trkpt lat="63.81471634" lon="-19.04376221"><ele>596.6</ele><time>2012-07-25T18:04:05.0000000+00:00</time></trkpt><trkpt lat="63.81477356" lon="-19.04406548"><ele>597.1</ele><time>2012-07-25T18:04:10.0000000+00:00</time></trkpt><trkpt lat="63.8148346" lon="-19.04440117"><ele>597.6</ele><time>2012-07-25T18:04:15.0000000+00:00</time></trkpt><trkpt lat="63.814888" lon="-19.04472542"><ele>597.7</ele><time>2012-07-25T18:04:20.0000000+00:00</time></trkpt><trkpt lat="63.81493759" lon="-19.04506111"><ele>598.2</ele><time>2012-07-25T18:04:25.0000000+00:00</time></trkpt><trkpt lat="63.81499481" lon="-19.04539871"><ele>598.7</ele><time>2012-07-25T18:04:30.0000000+00:00</time></trkpt><trkpt lat="63.81505203" lon="-19.04573441"><ele>598.2</ele><time>2012-07-25T18:04:35.0000000+00:00</time></trkpt><trkpt lat="63.81510544" lon="-19.04605866"><ele>598.2</ele><time>2012-07-25T18:04:40.0000000+00:00</time></trkpt><trkpt lat="63.81514359" lon="-19.04638863"><ele>598.5</ele><time>2012-07-25T18:04:45.0000000+00:00</time></trkpt><trkpt lat="63.81519699" lon="-19.04669571"><ele>599.8</ele><time>2012-07-25T18:04:50.0000000+00:00</time></trkpt><trkpt lat="63.81523895" lon="-19.04701424"><ele>600.9</ele><time>2012-07-25T18:04:55.0000000+00:00</time></trkpt><trkpt lat="63.81526566" lon="-19.0473156"><ele>600.0</ele><time>2012-07-25T18:05:00.0000000+00:00</time></trkpt><trkpt lat="63.81529617" lon="-19.04759216"><ele>600.6</ele><time>2012-07-25T18:05:05.0000000+00:00</time></trkpt><trkpt lat="63.81532669" lon="-19.04787254"><ele>599.9</ele><time>2012-07-25T18:05:10.0000000+00:00</time></trkpt><trkpt lat="63.81535721" lon="-19.04809189"><ele>599.2</ele><time>2012-07-25T18:05:15.0000000+00:00</time></trkpt><trkpt lat="63.81539536" lon="-19.04836273"><ele>597.3</ele><time>2012-07-25T18:05:20.0000000+00:00</time></trkpt><trkpt lat="63.81542206" lon="-19.04854965"><ele>596.3</ele><time>2012-07-25T18:05:25.0000000+00:00</time></trkpt><trkpt lat="63.81546021" lon="-19.04873276"><ele>597.1</ele><time>2012-07-25T18:05:30.0000000+00:00</time></trkpt><trkpt lat="63.81550217" lon="-19.04895592"><ele>598.4</ele><time>2012-07-25T18:05:35.0000000+00:00</time></trkpt><trkpt lat="63.81552887" lon="-19.04919434"><ele>599.2</ele><time>2012-07-25T18:05:40.0000000+00:00</time></trkpt><trkpt lat="63.81555557" lon="-19.04944038"><ele>598.8</ele><time>2012-07-25T18:05:45.0000000+00:00</time></trkpt><trkpt lat="63.81555557" lon="-19.04970551"><ele>596.8</ele><time>2012-07-25T18:05:50.0000000+00:00</time></trkpt><trkpt lat="63.81555557" lon="-19.04994583"><ele>596.5</ele><time>2012-07-25T18:05:55.0000000+00:00</time></trkpt><trkpt lat="63.81554413" lon="-19.05020714"><ele>598.1</ele><time>2012-07-25T18:06:00.0000000+00:00</time></trkpt><trkpt lat="63.8155365" lon="-19.05043984"><ele>600.6</ele><time>2012-07-25T18:06:05.0000000+00:00</time></trkpt><trkpt lat="63.81553268" lon="-19.05060196"><ele>603.4</ele><time>2012-07-25T18:06:10.0000000+00:00</time></trkpt><trkpt lat="63.81552506" lon="-19.05083847"><ele>604.4</ele><time>2012-07-25T18:06:15.0000000+00:00</time></trkpt><trkpt lat="63.81552887" lon="-19.05106926"><ele>608.4</ele><time>2012-07-25T18:06:20.0000000+00:00</time></trkpt><trkpt lat="63.8155365" lon="-19.05130386"><ele>609.9</ele><time>2012-07-25T18:06:25.0000000+00:00</time></trkpt><trkpt lat="63.81554031" lon="-19.05154991"><ele>610.3</ele><time>2012-07-25T18:06:30.0000000+00:00</time></trkpt><trkpt lat="63.81555939" lon="-19.05179215"><ele>612.2</ele><time>2012-07-25T18:06:35.0000000+00:00</time></trkpt><trkpt lat="63.81556702" lon="-19.05202675"><ele>611.8</ele><time>2012-07-25T18:06:40.0000000+00:00</time></trkpt><trkpt lat="63.81558609" lon="-19.05228806"><ele>611.7</ele><time>2012-07-25T18:06:45.0000000+00:00</time></trkpt><trkpt lat="63.81559372" lon="-19.05256844"><ele>611.0</ele><time>2012-07-25T18:06:50.0000000+00:00</time></trkpt><trkpt lat="63.81560898" lon="-19.05286598"><ele>610.8</ele><time>2012-07-25T18:06:55.0000000+00:00</time></trkpt><trkpt lat="63.81561661" lon="-19.05314446"><ele>611.8</ele><time>2012-07-25T18:07:00.0000000+00:00</time></trkpt><trkpt lat="63.81562042" lon="-19.05342293"><ele>612.8</ele><time>2012-07-25T18:07:05.0000000+00:00</time></trkpt><trkpt lat="63.81561279" lon="-19.05373192"><ele>613.9</ele><time>2012-07-25T18:07:10.0000000+00:00</time></trkpt><trkpt lat="63.81558991" lon="-19.05400276"><ele>614.5</ele><time>2012-07-25T18:07:15.0000000+00:00</time></trkpt><trkpt lat="63.81556702" lon="-19.05429077"><ele>614.9</ele><time>2012-07-25T18:07:20.0000000+00:00</time></trkpt><trkpt lat="63.81554794" lon="-19.05456352"><ele>613.6</ele><time>2012-07-25T18:07:25.0000000+00:00</time></trkpt><trkpt lat="63.81552506" lon="-19.05488586"><ele>612.8</ele><time>2012-07-25T18:07:30.0000000+00:00</time></trkpt><trkpt lat="63.81551743" lon="-19.05521393"><ele>612.0</ele><time>2012-07-25T18:07:35.0000000+00:00</time></trkpt><trkpt lat="63.81555557" lon="-19.05551148"><ele>611.5</ele><time>2012-07-25T18:07:40.0000000+00:00</time></trkpt><trkpt lat="63.81561661" lon="-19.05579186"><ele>612.2</ele><time>2012-07-25T18:07:45.0000000+00:00</time></trkpt><trkpt lat="63.81566238" lon="-19.05606461"><ele>613.1</ele><time>2012-07-25T18:07:50.0000000+00:00</time></trkpt><trkpt lat="63.81568146" lon="-19.0563221"><ele>608.5</ele><time>2012-07-25T18:07:55.0000000+00:00</time></trkpt><trkpt lat="63.81573105" lon="-19.05659294"><ele>609.6</ele><time>2012-07-25T18:08:00.0000000+00:00</time></trkpt><trkpt lat="63.81577301" lon="-19.05685616"><ele>610.4</ele><time>2012-07-25T18:08:05.0000000+00:00</time></trkpt><trkpt lat="63.81581116" lon="-19.05716133"><ele>610.3</ele><time>2012-07-25T18:08:10.0000000+00:00</time></trkpt><trkpt lat="63.81586456" lon="-19.05745888"><ele>611.4</ele><time>2012-07-25T18:08:15.0000000+00:00</time></trkpt><trkpt lat="63.81591034" lon="-19.05774498"><ele>610.9</ele><time>2012-07-25T18:08:20.0000000+00:00</time></trkpt><trkpt lat="63.81596756" lon="-19.05805016"><ele>612.0</ele><time>2012-07-25T18:08:25.0000000+00:00</time></trkpt><trkpt lat="63.81603241" lon="-19.05834198"><ele>613.2</ele><time>2012-07-25T18:08:30.0000000+00:00</time></trkpt><trkpt lat="63.816082" lon="-19.05862045"><ele>613.3</ele><time>2012-07-25T18:08:35.0000000+00:00</time></trkpt><trkpt lat="63.81614685" lon="-19.058918"><ele>613.3</ele><time>2012-07-25T18:08:40.0000000+00:00</time></trkpt><trkpt lat="63.81621933" lon="-19.05922318"><ele>613.0</ele><time>2012-07-25T18:08:45.0000000+00:00</time></trkpt><trkpt lat="63.81628037" lon="-19.05953217"><ele>612.1</ele><time>2012-07-25T18:08:50.0000000+00:00</time></trkpt><trkpt lat="63.81634903" lon="-19.05982208"><ele>611.7</ele><time>2012-07-25T18:08:55.0000000+00:00</time></trkpt><trkpt lat="63.81641769" lon="-19.06010628"><ele>612.3</ele><time>2012-07-25T18:09:00.0000000+00:00</time></trkpt><trkpt lat="63.81649017" lon="-19.06041718"><ele>612.0</ele><time>2012-07-25T18:09:05.0000000+00:00</time></trkpt><trkpt lat="63.81655884" lon="-19.06068802"><ele>613.0</ele><time>2012-07-25T18:09:10.0000000+00:00</time></trkpt><trkpt lat="63.8166275" lon="-19.06095886"><ele>612.7</ele><time>2012-07-25T18:09:15.0000000+00:00</time></trkpt><trkpt lat="63.81666565" lon="-19.06126785"><ele>604.5</ele><time>2012-07-25T18:09:20.0000000+00:00</time></trkpt><trkpt lat="63.8167305" lon="-19.06155586"><ele>603.8</ele><time>2012-07-25T18:09:25.0000000+00:00</time></trkpt><trkpt lat="63.81680679" lon="-19.06186485"><ele>601.9</ele><time>2012-07-25T18:09:30.0000000+00:00</time></trkpt><trkpt lat="63.81686783" lon="-19.06215477"><ele>605.6</ele><time>2012-07-25T18:09:35.0000000+00:00</time></trkpt><trkpt lat="63.81693268" lon="-19.06250572"><ele>607.0</ele><time>2012-07-25T18:09:40.0000000+00:00</time></trkpt><trkpt lat="63.81700516" lon="-19.0628624"><ele>607.1</ele><time>2012-07-25T18:09:45.0000000+00:00</time></trkpt><trkpt lat="63.81707001" lon="-19.06322861"><ele>606.3</ele><time>2012-07-25T18:09:50.0000000+00:00</time></trkpt><trkpt lat="63.81715012" lon="-19.06357765"><ele>609.5</ele><time>2012-07-25T18:09:55.0000000+00:00</time></trkpt><trkpt lat="63.81720734" lon="-19.06385231"><ele>610.8</ele><time>2012-07-25T18:10:00.0000000+00:00</time></trkpt><trkpt lat="63.81727982" lon="-19.06413651"><ele>611.8</ele><time>2012-07-25T18:10:05.0000000+00:00</time></trkpt><trkpt lat="63.81735611" lon="-19.06449509"><ele>612.5</ele><time>2012-07-25T18:10:10.0000000+00:00</time></trkpt><trkpt lat="63.8174324" lon="-19.06477737"><ele>612.1</ele><time>2012-07-25T18:10:15.0000000+00:00</time></trkpt><trkpt lat="63.81752396" lon="-19.06512642"><ele>612.8</ele><time>2012-07-25T18:10:20.0000000+00:00</time></trkpt><trkpt lat="63.81761551" lon="-19.06546783"><ele>613.3</ele><time>2012-07-25T18:10:25.0000000+00:00</time></trkpt><trkpt lat="63.81769562" lon="-19.06582451"><ele>612.9</ele><time>2012-07-25T18:10:30.0000000+00:00</time></trkpt><trkpt lat="63.81778336" lon="-19.06616402"><ele>614.9</ele><time>2012-07-25T18:10:35.0000000+00:00</time></trkpt><trkpt lat="63.81787491" lon="-19.06649017"><ele>615.0</ele><time>2012-07-25T18:10:40.0000000+00:00</time></trkpt><trkpt lat="63.81794739" lon="-19.06678772"><ele>614.2</ele><time>2012-07-25T18:10:45.0000000+00:00</time></trkpt><trkpt lat="63.81801605" lon="-19.06704712"><ele>616.4</ele><time>2012-07-25T18:10:50.0000000+00:00</time></trkpt><trkpt lat="63.81808853" lon="-19.06734848"><ele>617.4</ele><time>2012-07-25T18:10:55.0000000+00:00</time></trkpt><trkpt lat="63.81815338" lon="-19.06764221"><ele>616.6</ele><time>2012-07-25T18:11:00.0000000+00:00</time></trkpt><trkpt lat="63.81820679" lon="-19.06791878"><ele>617.6</ele><time>2012-07-25T18:11:05.0000000+00:00</time></trkpt><trkpt lat="63.81824493" lon="-19.0682354"><ele>616.8</ele><time>2012-07-25T18:11:10.0000000+00:00</time></trkpt><trkpt lat="63.81827164" lon="-19.06855965"><ele>616.5</ele><time>2012-07-25T18:11:15.0000000+00:00</time></trkpt><trkpt lat="63.81830597" lon="-19.06889916"><ele>615.3</ele><time>2012-07-25T18:11:20.0000000+00:00</time></trkpt><trkpt lat="63.81832123" lon="-19.06910706"><ele>612.9</ele><time>2012-07-25T18:11:25.0000000+00:00</time></trkpt><trkpt lat="63.81833267" lon="-19.06928635"><ele>612.3</ele><time>2012-07-25T18:11:30.0000000+00:00</time></trkpt><trkpt lat="63.81835175" lon="-19.06949425"><ele>612.2</ele><time>2012-07-25T18:11:35.0000000+00:00</time></trkpt><trkpt lat="63.81837463" lon="-19.06973648"><ele>611.6</ele><time>2012-07-25T18:11:40.0000000+00:00</time></trkpt><trkpt lat="63.8184166" lon="-19.06992912"><ele>614.5</ele><time>2012-07-25T18:11:45.0000000+00:00</time></trkpt><trkpt lat="63.81844711" lon="-19.07006645"><ele>614.1</ele><time>2012-07-25T18:11:50.0000000+00:00</time></trkpt><trkpt lat="63.81845856" lon="-19.07005119"><ele>616.9</ele><time>2012-07-25T18:11:55.0000000+00:00</time></trkpt><trkpt lat="63.81846237" lon="-19.0700531"><ele>617.7</ele><time>2012-07-25T18:12:00.0000000+00:00</time></trkpt><trkpt lat="63.81845856" lon="-19.07004547"><ele>618.0</ele><time>2012-07-25T18:12:05.0000000+00:00</time></trkpt><trkpt lat="63.81845856" lon="-19.07003593"><ele>618.0</ele><time>2012-07-25T18:12:10.0000000+00:00</time></trkpt><trkpt lat="63.81845856" lon="-19.07003593"><ele>618.0</ele><time>2012-07-25T18:12:15.0000000+00:00</time></trkpt><trkpt lat="63.81845856" lon="-19.07003975"><ele>618.1</ele><time>2012-07-25T18:12:20.0000000+00:00</time></trkpt><trkpt lat="63.81845856" lon="-19.07003975"><ele>618.1</ele><time>2012-07-25T18:12:25.0000000+00:00</time></trkpt><trkpt lat="63.81846619" lon="-19.07006645"><ele>617.8</ele><time>2012-07-25T18:12:30.0000000+00:00</time></trkpt><trkpt lat="63.81850052" lon="-19.07022858"><ele>617.8</ele><time>2012-07-25T18:12:35.0000000+00:00</time></trkpt><trkpt lat="63.81856155" lon="-19.07047081"><ele>617.3</ele><time>2012-07-25T18:12:40.0000000+00:00</time></trkpt><trkpt lat="63.81862259" lon="-19.07069397"><ele>617.7</ele><time>2012-07-25T18:12:45.0000000+00:00</time></trkpt><trkpt lat="63.81869125" lon="-19.0709362"><ele>617.3</ele><time>2012-07-25T18:12:50.0000000+00:00</time></trkpt><trkpt lat="63.81876373" lon="-19.07118034"><ele>616.8</ele><time>2012-07-25T18:12:55.0000000+00:00</time></trkpt><trkpt lat="63.81885147" lon="-19.07143211"><ele>617.1</ele><time>2012-07-25T18:13:00.0000000+00:00</time></trkpt><trkpt lat="63.81895065" lon="-19.07171631"><ele>618.2</ele><time>2012-07-25T18:13:05.0000000+00:00</time></trkpt><trkpt lat="63.81903839" lon="-19.07200623"><ele>617.0</ele><time>2012-07-25T18:13:10.0000000+00:00</time></trkpt><trkpt lat="63.81915283" lon="-19.07236481"><ele>615.9</ele><time>2012-07-25T18:13:15.0000000+00:00</time></trkpt><trkpt lat="63.81929398" lon="-19.0727787"><ele>616.0</ele><time>2012-07-25T18:13:20.0000000+00:00</time></trkpt><trkpt lat="63.81942749" lon="-19.07335091"><ele>616.4</ele><time>2012-07-25T18:13:25.0000000+00:00</time></trkpt><trkpt lat="63.8195343" lon="-19.07392311"><ele>615.1</ele><time>2012-07-25T18:13:30.0000000+00:00</time></trkpt><trkpt lat="63.81963348" lon="-19.07438088"><ele>613.6</ele><time>2012-07-25T18:13:35.0000000+00:00</time></trkpt><trkpt lat="63.81973267" lon="-19.07484818"><ele>611.6</ele><time>2012-07-25T18:13:40.0000000+00:00</time></trkpt><trkpt lat="63.8198204" lon="-19.07532692"><ele>609.9</ele><time>2012-07-25T18:13:45.0000000+00:00</time></trkpt><trkpt lat="63.81983566" lon="-19.07581139"><ele>608.0</ele><time>2012-07-25T18:13:50.0000000+00:00</time></trkpt><trkpt lat="63.81983948" lon="-19.07625198"><ele>605.6</ele><time>2012-07-25T18:13:55.0000000+00:00</time></trkpt><trkpt lat="63.81987763" lon="-19.07656479"><ele>606.6</ele><time>2012-07-25T18:14:00.0000000+00:00</time></trkpt><trkpt lat="63.81991196" lon="-19.07693672"><ele>606.2</ele><time>2012-07-25T18:14:05.0000000+00:00</time></trkpt><trkpt lat="63.81995773" lon="-19.07732391"><ele>606.0</ele><time>2012-07-25T18:14:10.0000000+00:00</time></trkpt><trkpt lat="63.82001495" lon="-19.07771301"><ele>605.7</ele><time>2012-07-25T18:14:15.0000000+00:00</time></trkpt><trkpt lat="63.82006073" lon="-19.0780983"><ele>605.5</ele><time>2012-07-25T18:14:20.0000000+00:00</time></trkpt><trkpt lat="63.82010651" lon="-19.07846832"><ele>605.5</ele><time>2012-07-25T18:14:25.0000000+00:00</time></trkpt><trkpt lat="63.82013702" lon="-19.07888603"><ele>605.0</ele><time>2012-07-25T18:14:30.0000000+00:00</time></trkpt><trkpt lat="63.82016373" lon="-19.07931137"><ele>604.3</ele><time>2012-07-25T18:14:35.0000000+00:00</time></trkpt><trkpt lat="63.82016754" lon="-19.0797348"><ele>602.5</ele><time>2012-07-25T18:14:40.0000000+00:00</time></trkpt><trkpt lat="63.82018662" lon="-19.08017349"><ele>602.8</ele><time>2012-07-25T18:14:45.0000000+00:00</time></trkpt><trkpt lat="63.82019424" lon="-19.08057213"><ele>602.4</ele><time>2012-07-25T18:14:50.0000000+00:00</time></trkpt><trkpt lat="63.8202095" lon="-19.0809021"><ele>601.8</ele><time>2012-07-25T18:14:55.0000000+00:00</time></trkpt><trkpt lat="63.82022858" lon="-19.08122444"><ele>602.0</ele><time>2012-07-25T18:15:00.0000000+00:00</time></trkpt><trkpt lat="63.82024384" lon="-19.08157158"><ele>601.3</ele><time>2012-07-25T18:15:05.0000000+00:00</time></trkpt><trkpt lat="63.82026291" lon="-19.08195686"><ele>601.9</ele><time>2012-07-25T18:15:10.0000000+00:00</time></trkpt><trkpt lat="63.82027817" lon="-19.0823822"><ele>602.5</ele><time>2012-07-25T18:15:15.0000000+00:00</time></trkpt><trkpt lat="63.82027054" lon="-19.08277893"><ele>602.8</ele><time>2012-07-25T18:15:20.0000000+00:00</time></trkpt><trkpt lat="63.82024002" lon="-19.08317757"><ele>602.8</ele><time>2012-07-25T18:15:25.0000000+00:00</time></trkpt><trkpt lat="63.82019806" lon="-19.08354759"><ele>602.3</ele><time>2012-07-25T18:15:30.0000000+00:00</time></trkpt><trkpt lat="63.82022095" lon="-19.08388138"><ele>602.8</ele><time>2012-07-25T18:15:35.0000000+00:00</time></trkpt><trkpt lat="63.82021713" lon="-19.08420181"><ele>602.4</ele><time>2012-07-25T18:15:40.0000000+00:00</time></trkpt><trkpt lat="63.82020569" lon="-19.08454514"><ele>602.2</ele><time>2012-07-25T18:15:45.0000000+00:00</time></trkpt><trkpt lat="63.8202095" lon="-19.08488655"><ele>603.5</ele><time>2012-07-25T18:15:50.0000000+00:00</time></trkpt><trkpt lat="63.82019806" lon="-19.0852108"><ele>602.9</ele><time>2012-07-25T18:15:55.0000000+00:00</time></trkpt><trkpt lat="63.82019806" lon="-19.08553886"><ele>602.6</ele><time>2012-07-25T18:16:00.0000000+00:00</time></trkpt><trkpt lat="63.82019424" lon="-19.08588409"><ele>602.5</ele><time>2012-07-25T18:16:05.0000000+00:00</time></trkpt><trkpt lat="63.82019806" lon="-19.08623695"><ele>603.7</ele><time>2012-07-25T18:16:10.0000000+00:00</time></trkpt><trkpt lat="63.82021332" lon="-19.08656311"><ele>604.3</ele><time>2012-07-25T18:16:15.0000000+00:00</time></trkpt><trkpt lat="63.8202095" lon="-19.0868969"><ele>602.6</ele><time>2012-07-25T18:16:20.0000000+00:00</time></trkpt><trkpt lat="63.82022095" lon="-19.08722115"><ele>602.7</ele><time>2012-07-25T18:16:25.0000000+00:00</time></trkpt><trkpt lat="63.82023239" lon="-19.08752632"><ele>602.9</ele><time>2012-07-25T18:16:30.0000000+00:00</time></trkpt><trkpt lat="63.82024002" lon="-19.08787155"><ele>603.3</ele><time>2012-07-25T18:16:35.0000000+00:00</time></trkpt><trkpt lat="63.82024765" lon="-19.08822632"><ele>604.2</ele><time>2012-07-25T18:16:40.0000000+00:00</time></trkpt><trkpt lat="63.82025909" lon="-19.08859062"><ele>603.5</ele><time>2012-07-25T18:16:45.0000000+00:00</time></trkpt><trkpt lat="63.82027435" lon="-19.08898544"><ele>602.6</ele><time>2012-07-25T18:16:50.0000000+00:00</time></trkpt><trkpt lat="63.82029724" lon="-19.08937073"><ele>601.3</ele><time>2012-07-25T18:16:55.0000000+00:00</time></trkpt><trkpt lat="63.82030487" lon="-19.08976555"><ele>601.6</ele><time>2012-07-25T18:17:00.0000000+00:00</time></trkpt><trkpt lat="63.82032013" lon="-19.09013557"><ele>600.9</ele><time>2012-07-25T18:17:05.0000000+00:00</time></trkpt><trkpt lat="63.82032776" lon="-19.09051323"><ele>601.1</ele><time>2012-07-25T18:17:10.0000000+00:00</time></trkpt><trkpt lat="63.8203392" lon="-19.09087372"><ele>602.7</ele><time>2012-07-25T18:17:15.0000000+00:00</time></trkpt><trkpt lat="63.82034302" lon="-19.09113693"><ele>602.8</ele><time>2012-07-25T18:17:20.0000000+00:00</time></trkpt><trkpt lat="63.82035065" lon="-19.09132004"><ele>604.9</ele><time>2012-07-25T18:17:25.0000000+00:00</time></trkpt><trkpt lat="63.8203392" lon="-19.09160042"><ele>603.8</ele><time>2012-07-25T18:17:30.0000000+00:00</time></trkpt><trkpt lat="63.8203392" lon="-19.09192276"><ele>603.9</ele><time>2012-07-25T18:17:35.0000000+00:00</time></trkpt><trkpt lat="63.82032013" lon="-19.09223557"><ele>603.0</ele><time>2012-07-25T18:17:40.0000000+00:00</time></trkpt><trkpt lat="63.82030869" lon="-19.09255409"><ele>601.8</ele><time>2012-07-25T18:17:45.0000000+00:00</time></trkpt><trkpt lat="63.82030487" lon="-19.09286881"><ele>602.1</ele><time>2012-07-25T18:17:50.0000000+00:00</time></trkpt><trkpt lat="63.82030487" lon="-19.09319687"><ele>603.5</ele><time>2012-07-25T18:17:55.0000000+00:00</time></trkpt><trkpt lat="63.82028961" lon="-19.09350586"><ele>602.6</ele><time>2012-07-25T18:18:00.0000000+00:00</time></trkpt><trkpt lat="63.82028198" lon="-19.09382248"><ele>602.4</ele><time>2012-07-25T18:18:05.0000000+00:00</time></trkpt><trkpt lat="63.82027054" lon="-19.09418106"><ele>602.7</ele><time>2012-07-25T18:18:10.0000000+00:00</time></trkpt><trkpt lat="63.82024765" lon="-19.09453011"><ele>601.2</ele><time>2012-07-25T18:18:15.0000000+00:00</time></trkpt><trkpt lat="63.82021713" lon="-19.09490204"><ele>600.3</ele><time>2012-07-25T18:18:20.0000000+00:00</time></trkpt><trkpt lat="63.82018662" lon="-19.09524536"><ele>601.2</ele><time>2012-07-25T18:18:25.0000000+00:00</time></trkpt><trkpt lat="63.8201561" lon="-19.09560204"><ele>601.4</ele><time>2012-07-25T18:18:30.0000000+00:00</time></trkpt><trkpt lat="63.82014084" lon="-19.0959034"><ele>602.1</ele><time>2012-07-25T18:18:35.0000000+00:00</time></trkpt><trkpt lat="63.82011032" lon="-19.09625053"><ele>599.7</ele><time>2012-07-25T18:18:40.0000000+00:00</time></trkpt><trkpt lat="63.82007217" lon="-19.09661865"><ele>599.6</ele><time>2012-07-25T18:18:45.0000000+00:00</time></trkpt><trkpt lat="63.82003784" lon="-19.09700203"><ele>599.7</ele><time>2012-07-25T18:18:50.0000000+00:00</time></trkpt><trkpt lat="63.81999588" lon="-19.09732628"><ele>601.0</ele><time>2012-07-25T18:18:55.0000000+00:00</time></trkpt><trkpt lat="63.81992722" lon="-19.09770203"><ele>602.1</ele><time>2012-07-25T18:19:00.0000000+00:00</time></trkpt><trkpt lat="63.81988907" lon="-19.09800911"><ele>601.6</ele><time>2012-07-25T18:19:05.0000000+00:00</time></trkpt><trkpt lat="63.81981278" lon="-19.09834671"><ele>601.6</ele><time>2012-07-25T18:19:10.0000000+00:00</time></trkpt><trkpt lat="63.81975555" lon="-19.09866524"><ele>601.4</ele><time>2012-07-25T18:19:15.0000000+00:00</time></trkpt><trkpt lat="63.81969452" lon="-19.09896469"><ele>601.4</ele><time>2012-07-25T18:19:20.0000000+00:00</time></trkpt><trkpt lat="63.81962967" lon="-19.09924126"><ele>601.4</ele><time>2012-07-25T18:19:25.0000000+00:00</time></trkpt><trkpt lat="63.81955719" lon="-19.09959221"><ele>599.1</ele><time>2012-07-25T18:19:30.0000000+00:00</time></trkpt><trkpt lat="63.81949997" lon="-19.09988022"><ele>600.4</ele><time>2012-07-25T18:19:35.0000000+00:00</time></trkpt><trkpt lat="63.81942368" lon="-19.10019112"><ele>599.5</ele><time>2012-07-25T18:19:40.0000000+00:00</time></trkpt><trkpt lat="63.81933975" lon="-19.10048866"><ele>598.6</ele><time>2012-07-25T18:19:45.0000000+00:00</time></trkpt><trkpt lat="63.8192749" lon="-19.10077858"><ele>598.9</ele><time>2012-07-25T18:19:50.0000000+00:00</time></trkpt><trkpt lat="63.81920242" lon="-19.1010437"><ele>599.7</ele><time>2012-07-25T18:19:55.0000000+00:00</time></trkpt><trkpt lat="63.81912994" lon="-19.10133362"><ele>601.1</ele><time>2012-07-25T18:20:00.0000000+00:00</time></trkpt><trkpt lat="63.81904602" lon="-19.10164452"><ele>602.2</ele><time>2012-07-25T18:20:05.0000000+00:00</time></trkpt><trkpt lat="63.81895065" lon="-19.10199928"><ele>600.2</ele><time>2012-07-25T18:20:10.0000000+00:00</time></trkpt><trkpt lat="63.81887436" lon="-19.10232163"><ele>598.3</ele><time>2012-07-25T18:20:15.0000000+00:00</time></trkpt><trkpt lat="63.81879425" lon="-19.10265923"><ele>597.2</ele><time>2012-07-25T18:20:20.0000000+00:00</time></trkpt><trkpt lat="63.81871033" lon="-19.10290527"><ele>598.4</ele><time>2012-07-25T18:20:25.0000000+00:00</time></trkpt><trkpt lat="63.81863785" lon="-19.10320473"><ele>599.5</ele><time>2012-07-25T18:20:30.0000000+00:00</time></trkpt><trkpt lat="63.81856537" lon="-19.10348511"><ele>600.9</ele><time>2012-07-25T18:20:35.0000000+00:00</time></trkpt><trkpt lat="63.81848526" lon="-19.10380364"><ele>600.1</ele><time>2012-07-25T18:20:40.0000000+00:00</time></trkpt><trkpt lat="63.81842423" lon="-19.10407829"><ele>601.1</ele><time>2012-07-25T18:20:45.0000000+00:00</time></trkpt><trkpt lat="63.81835175" lon="-19.10436821"><ele>601.8</ele><time>2012-07-25T18:20:50.0000000+00:00</time></trkpt><trkpt lat="63.81827927" lon="-19.10466957"><ele>602.0</ele><time>2012-07-25T18:20:55.0000000+00:00</time></trkpt><trkpt lat="63.81820679" lon="-19.10495758"><ele>602.5</ele><time>2012-07-25T18:21:00.0000000+00:00</time></trkpt><trkpt lat="63.81813812" lon="-19.10525322"><ele>602.1</ele><time>2012-07-25T18:21:05.0000000+00:00</time></trkpt><trkpt lat="63.81806183" lon="-19.1055603"><ele>601.8</ele><time>2012-07-25T18:21:10.0000000+00:00</time></trkpt><trkpt lat="63.81798554" lon="-19.10583496"><ele>599.8</ele><time>2012-07-25T18:21:15.0000000+00:00</time></trkpt><trkpt lat="63.81791687" lon="-19.10608864"><ele>599.9</ele><time>2012-07-25T18:21:20.0000000+00:00</time></trkpt><trkpt lat="63.81784439" lon="-19.10637283"><ele>600.0</ele><time>2012-07-25T18:21:25.0000000+00:00</time></trkpt><trkpt lat="63.81777573" lon="-19.10666275"><ele>600.3</ele><time>2012-07-25T18:21:30.0000000+00:00</time></trkpt><trkpt lat="63.8177948" lon="-19.10683441"><ele>592.2</ele><time>2012-07-25T18:21:35.0000000+00:00</time></trkpt><trkpt lat="63.81760025" lon="-19.10731888"><ele>595.4</ele><time>2012-07-25T18:21:41.0000000+00:00</time></trkpt><trkpt lat="63.8175354" lon="-19.10758972"><ele>597.6</ele><time>2012-07-25T18:21:46.0000000+00:00</time></trkpt><trkpt lat="63.81738663" lon="-19.10804939"><ele>596.5</ele><time>2012-07-25T18:21:51.0000000+00:00</time></trkpt><trkpt lat="63.81744766" lon="-19.10830689"><ele>583.9</ele><time>2012-07-25T18:21:59.0000000+00:00</time></trkpt><trkpt lat="63.81641388" lon="-19.11233521"><ele>599.3</ele><time>2012-07-25T18:26:33.0000000+00:00</time></trkpt><trkpt lat="63.81639862" lon="-19.11245728"><ele>605.6</ele><time>2012-07-25T18:26:39.0000000+00:00</time></trkpt><trkpt lat="63.81638336" lon="-19.11242867"><ele>602.7</ele><time>2012-07-25T18:26:44.0000000+00:00</time></trkpt><trkpt lat="63.81637955" lon="-19.11242867"><ele>604.7</ele><time>2012-07-25T18:26:50.0000000+00:00</time></trkpt><trkpt lat="63.81638718" lon="-19.11241722"><ele>604.7</ele><time>2012-07-25T18:26:55.0000000+00:00</time></trkpt><trkpt lat="63.81639481" lon="-19.11242485"><ele>604.4</ele><time>2012-07-25T18:27:00.0000000+00:00</time></trkpt><trkpt lat="63.81639862" lon="-19.11242867"><ele>604.8</ele><time>2012-07-25T18:27:05.0000000+00:00</time></trkpt><trkpt lat="63.81639862" lon="-19.11243248"><ele>604.9</ele><time>2012-07-25T18:27:10.0000000+00:00</time></trkpt><trkpt lat="63.81639862" lon="-19.11243248"><ele>604.8</ele><time>2012-07-25T18:27:15.0000000+00:00</time></trkpt><trkpt lat="63.81639862" lon="-19.11242485"><ele>604.8</ele><time>2012-07-25T18:27:20.0000000+00:00</time></trkpt><trkpt lat="63.81640244" lon="-19.11242485"><ele>604.8</ele><time>2012-07-25T18:27:25.0000000+00:00</time></trkpt><trkpt lat="63.81640625" lon="-19.11242294"><ele>604.8</ele><time>2012-07-25T18:27:30.0000000+00:00</time></trkpt><trkpt lat="63.81640625" lon="-19.11242676"><ele>604.8</ele><time>2012-07-25T18:27:35.0000000+00:00</time></trkpt><trkpt lat="63.81641007" lon="-19.11243248"><ele>604.7</ele><time>2012-07-25T18:27:40.0000000+00:00</time></trkpt><trkpt lat="63.81641007" lon="-19.11243439"><ele>604.7</ele><time>2012-07-25T18:27:45.0000000+00:00</time></trkpt><trkpt lat="63.81641007" lon="-19.1124363"><ele>604.7</ele><time>2012-07-25T18:27:50.0000000+00:00</time></trkpt><trkpt lat="63.81641388" lon="-19.1124363"><ele>604.7</ele><time>2012-07-25T18:27:55.0000000+00:00</time></trkpt><trkpt lat="63.81641388" lon="-19.1124382"><ele>604.7</ele><time>2012-07-25T18:28:00.0000000+00:00</time></trkpt><trkpt lat="63.81641388" lon="-19.11244011"><ele>604.7</ele><time>2012-07-25T18:28:05.0000000+00:00</time></trkpt><trkpt lat="63.81641388" lon="-19.11244011"><ele>604.6</ele><time>2012-07-25T18:28:10.0000000+00:00</time></trkpt><trkpt lat="63.81641388" lon="-19.11244202"><ele>604.6</ele><time>2012-07-25T18:28:15.0000000+00:00</time></trkpt><trkpt lat="63.81638718" lon="-19.11258698"><ele>604.2</ele><time>2012-07-25T18:28:20.0000000+00:00</time></trkpt><trkpt lat="63.81633759" lon="-19.11281014"><ele>603.5</ele><time>2012-07-25T18:28:25.0000000+00:00</time></trkpt><trkpt lat="63.81629562" lon="-19.11304092"><ele>605.1</ele><time>2012-07-25T18:28:30.0000000+00:00</time></trkpt><trkpt lat="63.8162384" lon="-19.11327553"><ele>604.8</ele><time>2012-07-25T18:28:35.0000000+00:00</time></trkpt><trkpt lat="63.81619644" lon="-19.11353684"><ele>604.2</ele><time>2012-07-25T18:28:40.0000000+00:00</time></trkpt><trkpt lat="63.81613922" lon="-19.1137867"><ele>604.2</ele><time>2012-07-25T18:28:45.0000000+00:00</time></trkpt><trkpt lat="63.81607819" lon="-19.11403656"><ele>605.3</ele><time>2012-07-25T18:28:50.0000000+00:00</time></trkpt><trkpt lat="63.81600952" lon="-19.11429405"><ele>606.6</ele><time>2012-07-25T18:28:55.0000000+00:00</time></trkpt><trkpt lat="63.81595993" lon="-19.11455727"><ele>607.1</ele><time>2012-07-25T18:29:00.0000000+00:00</time></trkpt><trkpt lat="63.8158989" lon="-19.11483765"><ele>606.8</ele><time>2012-07-25T18:29:05.0000000+00:00</time></trkpt><trkpt lat="63.81584168" lon="-19.11512566"><ele>606.8</ele><time>2012-07-25T18:29:10.0000000+00:00</time></trkpt><trkpt lat="63.81578827" lon="-19.11539841"><ele>606.8</ele><time>2012-07-25T18:29:15.0000000+00:00</time></trkpt><trkpt lat="63.81574249" lon="-19.11568832"><ele>605.8</ele><time>2012-07-25T18:29:20.0000000+00:00</time></trkpt><trkpt lat="63.81570053" lon="-19.11601067"><ele>606.8</ele><time>2012-07-25T18:29:25.0000000+00:00</time></trkpt><trkpt lat="63.81568146" lon="-19.11633682"><ele>608.1</ele><time>2012-07-25T18:29:30.0000000+00:00</time></trkpt><trkpt lat="63.81567383" lon="-19.11663055"><ele>608.8</ele><time>2012-07-25T18:29:35.0000000+00:00</time></trkpt><trkpt lat="63.81566238" lon="-19.11692429"><ele>608.9</ele><time>2012-07-25T18:29:40.0000000+00:00</time></trkpt><trkpt lat="63.81565476" lon="-19.11721611"><ele>609.2</ele><time>2012-07-25T18:29:45.0000000+00:00</time></trkpt><trkpt lat="63.81564713" lon="-19.11749077"><ele>609.0</ele><time>2012-07-25T18:29:50.0000000+00:00</time></trkpt><trkpt lat="63.81565094" lon="-19.11780167"><ele>608.7</ele><time>2012-07-25T18:29:55.0000000+00:00</time></trkpt><trkpt lat="63.81564713" lon="-19.11812401"><ele>607.6</ele><time>2012-07-25T18:30:00.0000000+00:00</time></trkpt><trkpt lat="63.81564331" lon="-19.11842537"><ele>605.2</ele><time>2012-07-25T18:30:05.0000000+00:00</time></trkpt><trkpt lat="63.81564331" lon="-19.11871529"><ele>602.7</ele><time>2012-07-25T18:30:10.0000000+00:00</time></trkpt><trkpt lat="63.81564713" lon="-19.11900902"><ele>602.1</ele><time>2012-07-25T18:30:15.0000000+00:00</time></trkpt><trkpt lat="63.81564331" lon="-19.1193676"><ele>605.0</ele><time>2012-07-25T18:30:20.0000000+00:00</time></trkpt><trkpt lat="63.81564713" lon="-19.11971283"><ele>605.3</ele><time>2012-07-25T18:30:25.0000000+00:00</time></trkpt><trkpt lat="63.81565476" lon="-19.12003136"><ele>606.0</ele><time>2012-07-25T18:30:30.0000000+00:00</time></trkpt><trkpt lat="63.81566238" lon="-19.1203804"><ele>605.3</ele><time>2012-07-25T18:30:35.0000000+00:00</time></trkpt><trkpt lat="63.81567764" lon="-19.12073135"><ele>605.0</ele><time>2012-07-25T18:30:40.0000000+00:00</time></trkpt><trkpt lat="63.81568527" lon="-19.12105942"><ele>603.2</ele><time>2012-07-25T18:30:45.0000000+00:00</time></trkpt><trkpt lat="63.8156929" lon="-19.12138176"><ele>603.5</ele><time>2012-07-25T18:30:50.0000000+00:00</time></trkpt><trkpt lat="63.81571579" lon="-19.12173843"><ele>603.1</ele><time>2012-07-25T18:30:55.0000000+00:00</time></trkpt><trkpt lat="63.81573105" lon="-19.12208176"><ele>603.6</ele><time>2012-07-25T18:31:00.0000000+00:00</time></trkpt><trkpt lat="63.81575394" lon="-19.12246704"><ele>605.4</ele><time>2012-07-25T18:31:05.0000000+00:00</time></trkpt><trkpt lat="63.8157692" lon="-19.12282181"><ele>608.2</ele><time>2012-07-25T18:31:10.0000000+00:00</time></trkpt><trkpt lat="63.81577683" lon="-19.12317085"><ele>610.4</ele><time>2012-07-25T18:31:15.0000000+00:00</time></trkpt><trkpt lat="63.81578064" lon="-19.12346649"><ele>612.6</ele><time>2012-07-25T18:31:20.0000000+00:00</time></trkpt><trkpt lat="63.81578445" lon="-19.12377548"><ele>613.3</ele><time>2012-07-25T18:31:25.0000000+00:00</time></trkpt><trkpt lat="63.81581497" lon="-19.12413216"><ele>611.9</ele><time>2012-07-25T18:31:30.0000000+00:00</time></trkpt><trkpt lat="63.81582642" lon="-19.124403"><ele>611.0</ele><time>2012-07-25T18:31:35.0000000+00:00</time></trkpt><trkpt lat="63.81583786" lon="-19.12468338"><ele>611.2</ele><time>2012-07-25T18:31:40.0000000+00:00</time></trkpt><trkpt lat="63.81585312" lon="-19.12501717"><ele>609.9</ele><time>2012-07-25T18:31:45.0000000+00:00</time></trkpt><trkpt lat="63.81587601" lon="-19.12528229"><ele>609.3</ele><time>2012-07-25T18:31:50.0000000+00:00</time></trkpt><trkpt lat="63.81587219" lon="-19.1255455"><ele>609.3</ele><time>2012-07-25T18:31:55.0000000+00:00</time></trkpt><trkpt lat="63.8158989" lon="-19.12586784"><ele>609.5</ele><time>2012-07-25T18:32:00.0000000+00:00</time></trkpt><trkpt lat="63.81591034" lon="-19.12620354"><ele>608.6</ele><time>2012-07-25T18:32:05.0000000+00:00</time></trkpt><trkpt lat="63.81593704" lon="-19.12654305"><ele>605.4</ele><time>2012-07-25T18:32:10.0000000+00:00</time></trkpt><trkpt lat="63.81595612" lon="-19.12689781"><ele>603.6</ele><time>2012-07-25T18:32:15.0000000+00:00</time></trkpt><trkpt lat="63.815979" lon="-19.1272068"><ele>602.2</ele><time>2012-07-25T18:32:20.0000000+00:00</time></trkpt><trkpt lat="63.81600189" lon="-19.12730026"><ele>605.4</ele><time>2012-07-25T18:32:25.0000000+00:00</time></trkpt><trkpt lat="63.81599808" lon="-19.12730408"><ele>605.8</ele><time>2012-07-25T18:32:30.0000000+00:00</time></trkpt><trkpt lat="63.81599808" lon="-19.12730789"><ele>606.0</ele><time>2012-07-25T18:32:35.0000000+00:00</time></trkpt><trkpt lat="63.81599808" lon="-19.12730598"><ele>606.0</ele><time>2012-07-25T18:32:40.0000000+00:00</time></trkpt><trkpt lat="63.81600189" lon="-19.12732887"><ele>606.2</ele><time>2012-07-25T18:32:45.0000000+00:00</time></trkpt><trkpt lat="63.81600952" lon="-19.12739372"><ele>606.5</ele><time>2012-07-25T18:32:50.0000000+00:00</time></trkpt><trkpt lat="63.81601334" lon="-19.12766075"><ele>606.6</ele><time>2012-07-25T18:32:55.0000000+00:00</time></trkpt><trkpt lat="63.81602478" lon="-19.12801361"><ele>607.2</ele><time>2012-07-25T18:33:00.0000000+00:00</time></trkpt><trkpt lat="63.81605148" lon="-19.12836456"><ele>607.3</ele><time>2012-07-25T18:33:05.0000000+00:00</time></trkpt><trkpt lat="63.81607819" lon="-19.12870407"><ele>607.7</ele><time>2012-07-25T18:33:10.0000000+00:00</time></trkpt><trkpt lat="63.81608582" lon="-19.12904167"><ele>608.6</ele><time>2012-07-25T18:33:15.0000000+00:00</time></trkpt><trkpt lat="63.81609726" lon="-19.12936974"><ele>609.4</ele><time>2012-07-25T18:33:20.0000000+00:00</time></trkpt><trkpt lat="63.81612396" lon="-19.12970352"><ele>610.5</ele><time>2012-07-25T18:33:25.0000000+00:00</time></trkpt><trkpt lat="63.81614685" lon="-19.13007927"><ele>611.2</ele><time>2012-07-25T18:33:30.0000000+00:00</time></trkpt><trkpt lat="63.81617355" lon="-19.13041496"><ele>611.9</ele><time>2012-07-25T18:33:35.0000000+00:00</time></trkpt><trkpt lat="63.81620026" lon="-19.13075829"><ele>613.1</ele><time>2012-07-25T18:33:40.0000000+00:00</time></trkpt><trkpt lat="63.81621552" lon="-19.13118362"><ele>612.7</ele><time>2012-07-25T18:33:45.0000000+00:00</time></trkpt><trkpt lat="63.8162384" lon="-19.13153648"><ele>612.5</ele><time>2012-07-25T18:33:50.0000000+00:00</time></trkpt><trkpt lat="63.81626511" lon="-19.13189507"><ele>612.2</ele><time>2012-07-25T18:33:55.0000000+00:00</time></trkpt><trkpt lat="63.81628037" lon="-19.13225174"><ele>612.3</ele><time>2012-07-25T18:34:00.0000000+00:00</time></trkpt><trkpt lat="63.81632233" lon="-19.13260841"><ele>613.5</ele><time>2012-07-25T18:34:05.0000000+00:00</time></trkpt><trkpt lat="63.81633759" lon="-19.13294601"><ele>614.4</ele><time>2012-07-25T18:34:10.0000000+00:00</time></trkpt><trkpt lat="63.81636047" lon="-19.13333702"><ele>613.7</ele><time>2012-07-25T18:34:15.0000000+00:00</time></trkpt><trkpt lat="63.81640244" lon="-19.13373375"><ele>611.3</ele><time>2012-07-25T18:34:20.0000000+00:00</time></trkpt><trkpt lat="63.81642914" lon="-19.13400078"><ele>603.8</ele><time>2012-07-25T18:34:25.0000000+00:00</time></trkpt><trkpt lat="63.81645966" lon="-19.1343174"><ele>604.1</ele><time>2012-07-25T18:34:30.0000000+00:00</time></trkpt><trkpt lat="63.8164978" lon="-19.13472176"><ele>602.8</ele><time>2012-07-25T18:34:35.0000000+00:00</time></trkpt><trkpt lat="63.81652069" lon="-19.13511086"><ele>600.1</ele><time>2012-07-25T18:34:40.0000000+00:00</time></trkpt><trkpt lat="63.81655121" lon="-19.13549995"><ele>598.8</ele><time>2012-07-25T18:34:45.0000000+00:00</time></trkpt><trkpt lat="63.81658936" lon="-19.13589478"><ele>597.1</ele><time>2012-07-25T18:34:50.0000000+00:00</time></trkpt><trkpt lat="63.81661987" lon="-19.13621903"><ele>598.5</ele><time>2012-07-25T18:34:55.0000000+00:00</time></trkpt><trkpt lat="63.81664658" lon="-19.13659668"><ele>597.0</ele><time>2012-07-25T18:35:00.0000000+00:00</time></trkpt><trkpt lat="63.81668091" lon="-19.13696861"><ele>595.0</ele><time>2012-07-25T18:35:05.0000000+00:00</time></trkpt><trkpt lat="63.81670761" lon="-19.13728905"><ele>595.3</ele><time>2012-07-25T18:35:10.0000000+00:00</time></trkpt><trkpt lat="63.81673813" lon="-19.13766861"><ele>594.5</ele><time>2012-07-25T18:35:15.0000000+00:00</time></trkpt><trkpt lat="63.81676865" lon="-19.13806915"><ele>594.3</ele><time>2012-07-25T18:35:20.0000000+00:00</time></trkpt><trkpt lat="63.81679535" lon="-19.13840103"><ele>593.7</ele><time>2012-07-25T18:35:25.0000000+00:00</time></trkpt><trkpt lat="63.81681061" lon="-19.13864899"><ele>594.2</ele><time>2012-07-25T18:35:30.0000000+00:00</time></trkpt><trkpt lat="63.81682968" lon="-19.13894272"><ele>593.3</ele><time>2012-07-25T18:35:35.0000000+00:00</time></trkpt><trkpt lat="63.81684876" lon="-19.13930702"><ele>592.9</ele><time>2012-07-25T18:35:40.0000000+00:00</time></trkpt><trkpt lat="63.81687546" lon="-19.13965416"><ele>592.2</ele><time>2012-07-25T18:35:45.0000000+00:00</time></trkpt><trkpt lat="63.81690216" lon="-19.13993073"><ele>594.7</ele><time>2012-07-25T18:35:50.0000000+00:00</time></trkpt><trkpt lat="63.81692123" lon="-19.14024353"><ele>594.8</ele><time>2012-07-25T18:35:55.0000000+00:00</time></trkpt><trkpt lat="63.81694412" lon="-19.14060402"><ele>595.9</ele><time>2012-07-25T18:36:00.0000000+00:00</time></trkpt><trkpt lat="63.81696701" lon="-19.14097786"><ele>595.8</ele><time>2012-07-25T18:36:05.0000000+00:00</time></trkpt><trkpt lat="63.8169899" lon="-19.14135742"><ele>595.1</ele><time>2012-07-25T18:36:10.0000000+00:00</time></trkpt><trkpt lat="63.81700897" lon="-19.14164162"><ele>595.3</ele><time>2012-07-25T18:36:15.0000000+00:00</time></trkpt><trkpt lat="63.81702423" lon="-19.14186478"><ele>595.0</ele><time>2012-07-25T18:36:20.0000000+00:00</time></trkpt><trkpt lat="63.81704712" lon="-19.14220619"><ele>593.9</ele><time>2012-07-25T18:36:25.0000000+00:00</time></trkpt><trkpt lat="63.81708145" lon="-19.14255905"><ele>593.0</ele><time>2012-07-25T18:36:30.0000000+00:00</time></trkpt><trkpt lat="63.8171196" lon="-19.14293098"><ele>592.7</ele><time>2012-07-25T18:36:35.0000000+00:00</time></trkpt><trkpt lat="63.81716538" lon="-19.1432972"><ele>592.4</ele><time>2012-07-25T18:36:40.0000000+00:00</time></trkpt><trkpt lat="63.81721497" lon="-19.14369774"><ele>593.0</ele><time>2012-07-25T18:36:45.0000000+00:00</time></trkpt><trkpt lat="63.81726837" lon="-19.14409065"><ele>593.2</ele><time>2012-07-25T18:36:50.0000000+00:00</time></trkpt><trkpt lat="63.81731796" lon="-19.14446259"><ele>592.8</ele><time>2012-07-25T18:36:55.0000000+00:00</time></trkpt><trkpt lat="63.817379" lon="-19.144804"><ele>593.6</ele><time>2012-07-25T18:37:00.0000000+00:00</time></trkpt><trkpt lat="63.81744766" lon="-19.14519501"><ele>593.9</ele><time>2012-07-25T18:37:05.0000000+00:00</time></trkpt><trkpt lat="63.8175087" lon="-19.1456089"><ele>593.6</ele><time>2012-07-25T18:37:10.0000000+00:00</time></trkpt><trkpt lat="63.81755829" lon="-19.14594269"><ele>593.7</ele><time>2012-07-25T18:37:15.0000000+00:00</time></trkpt><trkpt lat="63.81761551" lon="-19.14625168"><ele>594.8</ele><time>2012-07-25T18:37:20.0000000+00:00</time></trkpt><trkpt lat="63.81767654" lon="-19.14664459"><ele>595.4</ele><time>2012-07-25T18:37:25.0000000+00:00</time></trkpt><trkpt lat="63.81772995" lon="-19.14702606"><ele>595.0</ele><time>2012-07-25T18:37:30.0000000+00:00</time></trkpt><trkpt lat="63.81777954" lon="-19.14735031"><ele>594.8</ele><time>2012-07-25T18:37:35.0000000+00:00</time></trkpt><trkpt lat="63.81784821" lon="-19.14769936"><ele>596.3</ele><time>2012-07-25T18:37:40.0000000+00:00</time></trkpt><trkpt lat="63.81790924" lon="-19.14810181"><ele>598.6</ele><time>2012-07-25T18:37:45.0000000+00:00</time></trkpt><trkpt lat="63.81797409" lon="-19.14849281"><ele>598.2</ele><time>2012-07-25T18:37:50.0000000+00:00</time></trkpt><trkpt lat="63.81804276" lon="-19.14891434"><ele>597.4</ele><time>2012-07-25T18:37:55.0000000+00:00</time></trkpt><trkpt lat="63.81811523" lon="-19.1493187"><ele>597.3</ele><time>2012-07-25T18:38:00.0000000+00:00</time></trkpt><trkpt lat="63.81819153" lon="-19.14971924"><ele>596.8</ele><time>2012-07-25T18:38:05.0000000+00:00</time></trkpt><trkpt lat="63.81826401" lon="-19.15011787"><ele>593.7</ele><time>2012-07-25T18:38:10.0000000+00:00</time></trkpt><trkpt lat="63.81833649" lon="-19.15050316"><ele>593.0</ele><time>2012-07-25T18:38:15.0000000+00:00</time></trkpt><trkpt lat="63.81840897" lon="-19.15080452"><ele>597.8</ele><time>2012-07-25T18:38:20.0000000+00:00</time></trkpt><trkpt lat="63.81846619" lon="-19.15113449"><ele>596.5</ele><time>2012-07-25T18:38:25.0000000+00:00</time></trkpt><trkpt lat="63.81853485" lon="-19.15150833"><ele>594.8</ele><time>2012-07-25T18:38:30.0000000+00:00</time></trkpt><trkpt lat="63.81859207" lon="-19.15189552"><ele>595.0</ele><time>2012-07-25T18:38:35.0000000+00:00</time></trkpt><trkpt lat="63.81864548" lon="-19.15231895"><ele>594.4</ele><time>2012-07-25T18:38:40.0000000+00:00</time></trkpt><trkpt lat="63.81869507" lon="-19.15275765"><ele>593.4</ele><time>2012-07-25T18:38:45.0000000+00:00</time></trkpt><trkpt lat="63.81873703" lon="-19.15316391"><ele>590.4</ele><time>2012-07-25T18:38:50.0000000+00:00</time></trkpt><trkpt lat="63.81876755" lon="-19.15349197"><ele>592.4</ele><time>2012-07-25T18:38:55.0000000+00:00</time></trkpt><trkpt lat="63.81878281" lon="-19.15389252"><ele>591.4</ele><time>2012-07-25T18:39:00.0000000+00:00</time></trkpt><trkpt lat="63.81878281" lon="-19.15425301"><ele>594.2</ele><time>2012-07-25T18:39:05.0000000+00:00</time></trkpt><trkpt lat="63.81879425" lon="-19.15460205"><ele>594.3</ele><time>2012-07-25T18:39:10.0000000+00:00</time></trkpt><trkpt lat="63.8188057" lon="-19.15499687"><ele>593.3</ele><time>2012-07-25T18:39:15.0000000+00:00</time></trkpt><trkpt lat="63.81881714" lon="-19.15540314"><ele>594.5</ele><time>2012-07-25T18:39:20.0000000+00:00</time></trkpt><trkpt lat="63.81884003" lon="-19.15584183"><ele>595.0</ele><time>2012-07-25T18:39:25.0000000+00:00</time></trkpt><trkpt lat="63.81887054" lon="-19.15626335"><ele>597.6</ele><time>2012-07-25T18:39:30.0000000+00:00</time></trkpt><trkpt lat="63.81889725" lon="-19.15658569"><ele>598.5</ele><time>2012-07-25T18:39:35.0000000+00:00</time></trkpt><trkpt lat="63.81890869" lon="-19.15703201"><ele>598.0</ele><time>2012-07-25T18:39:40.0000000+00:00</time></trkpt><trkpt lat="63.81890869" lon="-19.15746117"><ele>597.0</ele><time>2012-07-25T18:39:45.0000000+00:00</time></trkpt><trkpt lat="63.81889343" lon="-19.1578579"><ele>594.5</ele><time>2012-07-25T18:39:50.0000000+00:00</time></trkpt><trkpt lat="63.8188858" lon="-19.15829277"><ele>591.0</ele><time>2012-07-25T18:39:55.0000000+00:00</time></trkpt><trkpt lat="63.81887817" lon="-19.15869904"><ele>588.9</ele><time>2012-07-25T18:40:00.0000000+00:00</time></trkpt><trkpt lat="63.81889343" lon="-19.15909576"><ele>587.2</ele><time>2012-07-25T18:40:05.0000000+00:00</time></trkpt><trkpt lat="63.81890488" lon="-19.15952873"><ele>587.5</ele><time>2012-07-25T18:40:10.0000000+00:00</time></trkpt><trkpt lat="63.81892014" lon="-19.15983582"><ele>587.6</ele><time>2012-07-25T18:40:15.0000000+00:00</time></trkpt><trkpt lat="63.81893158" lon="-19.16020012"><ele>588.3</ele><time>2012-07-25T18:40:20.0000000+00:00</time></trkpt><trkpt lat="63.81896973" lon="-19.16064262"><ele>588.2</ele><time>2012-07-25T18:40:25.0000000+00:00</time></trkpt><trkpt lat="63.81900024" lon="-19.16108513"><ele>588.0</ele><time>2012-07-25T18:40:30.0000000+00:00</time></trkpt><trkpt lat="63.81900406" lon="-19.16144562"><ele>588.2</ele><time>2012-07-25T18:40:35.0000000+00:00</time></trkpt><trkpt lat="63.81898499" lon="-19.16188049"><ele>587.9</ele><time>2012-07-25T18:40:40.0000000+00:00</time></trkpt><trkpt lat="63.8189621" lon="-19.16231346"><ele>587.5</ele><time>2012-07-25T18:40:45.0000000+00:00</time></trkpt><trkpt lat="63.8189621" lon="-19.1626339"><ele>585.5</ele><time>2012-07-25T18:40:50.0000000+00:00</time></trkpt><trkpt lat="63.81895447" lon="-19.16300964"><ele>586.1</ele><time>2012-07-25T18:40:55.0000000+00:00</time></trkpt><trkpt lat="63.81893539" lon="-19.16341972"><ele>585.8</ele><time>2012-07-25T18:41:00.0000000+00:00</time></trkpt><trkpt lat="63.81891251" lon="-19.16383934"><ele>585.4</ele><time>2012-07-25T18:41:05.0000000+00:00</time></trkpt><trkpt lat="63.8188858" lon="-19.16425896"><ele>583.1</ele><time>2012-07-25T18:41:10.0000000+00:00</time></trkpt><trkpt lat="63.81886673" lon="-19.16457558"><ele>582.3</ele><time>2012-07-25T18:41:15.0000000+00:00</time></trkpt><trkpt lat="63.81882477" lon="-19.16495895"><ele>581.5</ele><time>2012-07-25T18:41:20.0000000+00:00</time></trkpt><trkpt lat="63.81878281" lon="-19.16540146"><ele>582.2</ele><time>2012-07-25T18:41:25.0000000+00:00</time></trkpt><trkpt lat="63.81875229" lon="-19.1658783"><ele>583.6</ele><time>2012-07-25T18:41:30.0000000+00:00</time></trkpt><trkpt lat="63.8187294" lon="-19.16625023"><ele>581.6</ele><time>2012-07-25T18:41:35.0000000+00:00</time></trkpt><trkpt lat="63.81872177" lon="-19.16666603"><ele>581.8</ele><time>2012-07-25T18:41:40.0000000+00:00</time></trkpt><trkpt lat="63.81872559" lon="-19.16706657"><ele>583.1</ele><time>2012-07-25T18:41:45.0000000+00:00</time></trkpt><trkpt lat="63.8187294" lon="-19.16732407"><ele>583.7</ele><time>2012-07-25T18:41:50.0000000+00:00</time></trkpt><trkpt lat="63.81874847" lon="-19.16757965"><ele>583.7</ele><time>2012-07-25T18:41:55.0000000+00:00</time></trkpt><trkpt lat="63.81878662" lon="-19.1679821"><ele>586.4</ele><time>2012-07-25T18:42:00.0000000+00:00</time></trkpt><trkpt lat="63.81881714" lon="-19.16830635"><ele>589.3</ele><time>2012-07-25T18:42:05.0000000+00:00</time></trkpt><trkpt lat="63.81884003" lon="-19.16855049"><ele>589.9</ele><time>2012-07-25T18:42:10.0000000+00:00</time></trkpt><trkpt lat="63.8188591" lon="-19.1688385"><ele>590.2</ele><time>2012-07-25T18:42:15.0000000+00:00</time></trkpt><trkpt lat="63.81887817" lon="-19.16921425"><ele>590.0</ele><time>2012-07-25T18:42:20.0000000+00:00</time></trkpt><trkpt lat="63.81890106" lon="-19.16966629"><ele>590.4</ele><time>2012-07-25T18:42:25.0000000+00:00</time></trkpt><trkpt lat="63.81892014" lon="-19.1700573"><ele>588.3</ele><time>2012-07-25T18:42:30.0000000+00:00</time></trkpt><trkpt lat="63.81892014" lon="-19.17041397"><ele>588.6</ele><time>2012-07-25T18:42:35.0000000+00:00</time></trkpt><trkpt lat="63.81892014" lon="-19.17084122"><ele>588.8</ele><time>2012-07-25T18:42:40.0000000+00:00</time></trkpt><trkpt lat="63.81892014" lon="-19.17122459"><ele>587.0</ele><time>2012-07-25T18:42:45.0000000+00:00</time></trkpt><trkpt lat="63.81892395" lon="-19.17151451"><ele>586.3</ele><time>2012-07-25T18:42:50.0000000+00:00</time></trkpt><trkpt lat="63.81893158" lon="-19.17177963"><ele>587.5</ele><time>2012-07-25T18:42:55.0000000+00:00</time></trkpt><trkpt lat="63.81896591" lon="-19.1721096"><ele>586.6</ele><time>2012-07-25T18:43:00.0000000+00:00</time></trkpt><trkpt lat="63.81901169" lon="-19.1724968"><ele>588.6</ele><time>2012-07-25T18:43:05.0000000+00:00</time></trkpt><trkpt lat="63.81906128" lon="-19.17290688"><ele>588.9</ele><time>2012-07-25T18:43:10.0000000+00:00</time></trkpt><trkpt lat="63.81909561" lon="-19.17327309"><ele>585.0</ele><time>2012-07-25T18:43:15.0000000+00:00</time></trkpt><trkpt lat="63.81910706" lon="-19.17355156"><ele>585.0</ele><time>2012-07-25T18:43:20.0000000+00:00</time></trkpt><trkpt lat="63.81912231" lon="-19.17380524"><ele>584.4</ele><time>2012-07-25T18:43:25.0000000+00:00</time></trkpt><trkpt lat="63.8191452" lon="-19.17411423"><ele>584.4</ele><time>2012-07-25T18:43:30.0000000+00:00</time></trkpt><trkpt lat="63.81918716" lon="-19.17447853"><ele>584.9</ele><time>2012-07-25T18:43:35.0000000+00:00</time></trkpt><trkpt lat="63.81923294" lon="-19.17486"><ele>585.8</ele><time>2012-07-25T18:43:40.0000000+00:00</time></trkpt><trkpt lat="63.8192749" lon="-19.17523575"><ele>585.7</ele><time>2012-07-25T18:43:45.0000000+00:00</time></trkpt><trkpt lat="63.81932831" lon="-19.17561913"><ele>585.9</ele><time>2012-07-25T18:43:50.0000000+00:00</time></trkpt><trkpt lat="63.8193779" lon="-19.17600632"><ele>585.8</ele><time>2012-07-25T18:43:55.0000000+00:00</time></trkpt><trkpt lat="63.81942749" lon="-19.17636108"><ele>586.7</ele><time>2012-07-25T18:44:00.0000000+00:00</time></trkpt><trkpt lat="63.81947327" lon="-19.17668533"><ele>585.6</ele><time>2012-07-25T18:44:05.0000000+00:00</time></trkpt><trkpt lat="63.8195076" lon="-19.1769352"><ele>584.6</ele><time>2012-07-25T18:44:10.0000000+00:00</time></trkpt><trkpt lat="63.8195076" lon="-19.17698288"><ele>586.2</ele><time>2012-07-25T18:44:15.0000000+00:00</time></trkpt><trkpt lat="63.81951141" lon="-19.17698097"><ele>586.3</ele><time>2012-07-25T18:44:20.0000000+00:00</time></trkpt><trkpt lat="63.81951523" lon="-19.17697525"><ele>586.4</ele><time>2012-07-25T18:44:25.0000000+00:00</time></trkpt><trkpt lat="63.81951523" lon="-19.17697144"><ele>586.5</ele><time>2012-07-25T18:44:30.0000000+00:00</time></trkpt><trkpt lat="63.81951523" lon="-19.1769619"><ele>586.5</ele><time>2012-07-25T18:44:35.0000000+00:00</time></trkpt><trkpt lat="63.81952286" lon="-19.17698479"><ele>586.4</ele><time>2012-07-25T18:44:40.0000000+00:00</time></trkpt><trkpt lat="63.81955719" lon="-19.17724419"><ele>586.3</ele><time>2012-07-25T18:44:45.0000000+00:00</time></trkpt><trkpt lat="63.81964111" lon="-19.17755127"><ele>587.9</ele><time>2012-07-25T18:44:50.0000000+00:00</time></trkpt><trkpt lat="63.81975937" lon="-19.17784309"><ele>592.8</ele><time>2012-07-25T18:44:55.0000000+00:00</time></trkpt><trkpt lat="63.81988144" lon="-19.17807579"><ele>596.5</ele><time>2012-07-25T18:45:00.0000000+00:00</time></trkpt><trkpt lat="63.8200264" lon="-19.17830277"><ele>597.2</ele><time>2012-07-25T18:45:05.0000000+00:00</time></trkpt><trkpt lat="63.82015991" lon="-19.17855263"><ele>598.3</ele><time>2012-07-25T18:45:10.0000000+00:00</time></trkpt><trkpt lat="63.82027817" lon="-19.17883492"><ele>598.1</ele><time>2012-07-25T18:45:15.0000000+00:00</time></trkpt><trkpt lat="63.82037354" lon="-19.1791172"><ele>597.6</ele><time>2012-07-25T18:45:20.0000000+00:00</time></trkpt><trkpt lat="63.82046127" lon="-19.17943764"><ele>600.1</ele><time>2012-07-25T18:45:25.0000000+00:00</time></trkpt><trkpt lat="63.82050705" lon="-19.17978287"><ele>599.5</ele><time>2012-07-25T18:45:30.0000000+00:00</time></trkpt><trkpt lat="63.82052612" lon="-19.18018532"><ele>598.6</ele><time>2012-07-25T18:45:35.0000000+00:00</time></trkpt><trkpt lat="63.82053375" lon="-19.18054009"><ele>598.1</ele><time>2012-07-25T18:45:40.0000000+00:00</time></trkpt><trkpt lat="63.82055283" lon="-19.1809063"><ele>595.3</ele><time>2012-07-25T18:45:45.0000000+00:00</time></trkpt><trkpt lat="63.8205986" lon="-19.18127251"><ele>594.1</ele><time>2012-07-25T18:45:50.0000000+00:00</time></trkpt><trkpt lat="63.82062912" lon="-19.18144798"><ele>595.6</ele><time>2012-07-25T18:45:55.0000000+00:00</time></trkpt><trkpt lat="63.82067871" lon="-19.18161964"><ele>596.9</ele><time>2012-07-25T18:46:00.0000000+00:00</time></trkpt><trkpt lat="63.82077789" lon="-19.18181992"><ele>599.3</ele><time>2012-07-25T18:46:05.0000000+00:00</time></trkpt><trkpt lat="63.82089233" lon="-19.18205833"><ele>599.9</ele><time>2012-07-25T18:46:10.0000000+00:00</time></trkpt><trkpt lat="63.8210144" lon="-19.18231964"><ele>599.5</ele><time>2012-07-25T18:46:15.0000000+00:00</time></trkpt><trkpt lat="63.82112122" lon="-19.18265152"><ele>601.0</ele><time>2012-07-25T18:46:20.0000000+00:00</time></trkpt><trkpt lat="63.82121658" lon="-19.18299675"><ele>603.3</ele><time>2012-07-25T18:46:25.0000000+00:00</time></trkpt><trkpt lat="63.82128906" lon="-19.18332481"><ele>599.2</ele><time>2012-07-25T18:46:30.0000000+00:00</time></trkpt><trkpt lat="63.82134628" lon="-19.18361092"><ele>596.7</ele><time>2012-07-25T18:46:35.0000000+00:00</time></trkpt><trkpt lat="63.82144928" lon="-19.18398857"><ele>600.3</ele><time>2012-07-25T18:46:40.0000000+00:00</time></trkpt><trkpt lat="63.82155228" lon="-19.18437958"><ele>602.1</ele><time>2012-07-25T18:46:45.0000000+00:00</time></trkpt><trkpt lat="63.82166672" lon="-19.18478012"><ele>605.2</ele><time>2012-07-25T18:46:50.0000000+00:00</time></trkpt><trkpt lat="63.82178116" lon="-19.18518639"><ele>609.7</ele><time>2012-07-25T18:46:55.0000000+00:00</time></trkpt><trkpt lat="63.82190704" lon="-19.1855545"><ele>609.3</ele><time>2012-07-25T18:47:00.0000000+00:00</time></trkpt><trkpt lat="63.82203674" lon="-19.18594551"><ele>611.8</ele><time>2012-07-25T18:47:05.0000000+00:00</time></trkpt><trkpt lat="63.82214356" lon="-19.18627548"><ele>609.6</ele><time>2012-07-25T18:47:10.0000000+00:00</time></trkpt><trkpt lat="63.82226181" lon="-19.1865654"><ele>610.6</ele><time>2012-07-25T18:47:15.0000000+00:00</time></trkpt><trkpt lat="63.82237244" lon="-19.1868248"><ele>611.3</ele><time>2012-07-25T18:47:20.0000000+00:00</time></trkpt><trkpt lat="63.82246018" lon="-19.18710709"><ele>612.1</ele><time>2012-07-25T18:47:25.0000000+00:00</time></trkpt><trkpt lat="63.8225174" lon="-19.18741608"><ele>610.9</ele><time>2012-07-25T18:47:30.0000000+00:00</time></trkpt><trkpt lat="63.82256699" lon="-19.18774223"><ele>607.6</ele><time>2012-07-25T18:47:35.0000000+00:00</time></trkpt><trkpt lat="63.82263184" lon="-19.18815994"><ele>605.7</ele><time>2012-07-25T18:47:40.0000000+00:00</time></trkpt><trkpt lat="63.8227005" lon="-19.18854332"><ele>603.5</ele><time>2012-07-25T18:47:45.0000000+00:00</time></trkpt><trkpt lat="63.82273102" lon="-19.18886948"><ele>599.4</ele><time>2012-07-25T18:47:50.0000000+00:00</time></trkpt><trkpt lat="63.82268524" lon="-19.18925667"><ele>596.8</ele><time>2012-07-25T18:47:55.0000000+00:00</time></trkpt><trkpt lat="63.82253265" lon="-19.18948364"><ele>596.8</ele><time>2012-07-25T18:48:00.0000000+00:00</time></trkpt><trkpt lat="63.82236099" lon="-19.18969727"><ele>593.4</ele><time>2012-07-25T18:48:05.0000000+00:00</time></trkpt><trkpt lat="63.82224274" lon="-19.18997383"><ele>591.3</ele><time>2012-07-25T18:48:10.0000000+00:00</time></trkpt><trkpt lat="63.82218933" lon="-19.19031143"><ele>589.2</ele><time>2012-07-25T18:48:15.0000000+00:00</time></trkpt><trkpt lat="63.82217026" lon="-19.19061089"><ele>587.3</ele><time>2012-07-25T18:48:20.0000000+00:00</time></trkpt><trkpt lat="63.82217026" lon="-19.19091988"><ele>589.4</ele><time>2012-07-25T18:48:25.0000000+00:00</time></trkpt><trkpt lat="63.82210159" lon="-19.19124603"><ele>586.0</ele><time>2012-07-25T18:48:30.0000000+00:00</time></trkpt><trkpt lat="63.82194901" lon="-19.19158554"><ele>583.0</ele><time>2012-07-25T18:48:35.0000000+00:00</time></trkpt><trkpt lat="63.82179642" lon="-19.19197464"><ele>583.9</ele><time>2012-07-25T18:48:40.0000000+00:00</time></trkpt><trkpt lat="63.82165909" lon="-19.19233322"><ele>582.0</ele><time>2012-07-25T18:48:45.0000000+00:00</time></trkpt><trkpt lat="63.82152939" lon="-19.19269562"><ele>581.3</ele><time>2012-07-25T18:48:50.0000000+00:00</time></trkpt><trkpt lat="63.82142258" lon="-19.19310951"><ele>580.4</ele><time>2012-07-25T18:48:55.0000000+00:00</time></trkpt><trkpt lat="63.82137299" lon="-19.19341087"><ele>581.6</ele><time>2012-07-25T18:49:00.0000000+00:00</time></trkpt><trkpt lat="63.8213501" lon="-19.19362259"><ele>583.5</ele><time>2012-07-25T18:49:05.0000000+00:00</time></trkpt><trkpt lat="63.8213501" lon="-19.1938591"><ele>584.1</ele><time>2012-07-25T18:49:10.0000000+00:00</time></trkpt><trkpt lat="63.82133865" lon="-19.19410324"><ele>584.7</ele><time>2012-07-25T18:49:15.0000000+00:00</time></trkpt><trkpt lat="63.82129669" lon="-19.19434738"><ele>586.4</ele><time>2012-07-25T18:49:20.0000000+00:00</time></trkpt><trkpt lat="63.82123947" lon="-19.19452095"><ele>583.5</ele><time>2012-07-25T18:49:25.0000000+00:00</time></trkpt><trkpt lat="63.82123566" lon="-19.19454575"><ele>582.6</ele><time>2012-07-25T18:49:30.0000000+00:00</time></trkpt><trkpt lat="63.82119751" lon="-19.19462395"><ele>583.0</ele><time>2012-07-25T18:49:35.0000000+00:00</time></trkpt><trkpt lat="63.82111359" lon="-19.19473839"><ele>584.0</ele><time>2012-07-25T18:49:40.0000000+00:00</time></trkpt><trkpt lat="63.82104492" lon="-19.19483757"><ele>583.2</ele><time>2012-07-25T18:49:45.0000000+00:00</time></trkpt><trkpt lat="63.82097626" lon="-19.19499016"><ele>583.9</ele><time>2012-07-25T18:49:50.0000000+00:00</time></trkpt><trkpt lat="63.82094574" lon="-19.19519615"><ele>584.2</ele><time>2012-07-25T18:49:55.0000000+00:00</time></trkpt><trkpt lat="63.82094955" lon="-19.19536781"><ele>585.3</ele><time>2012-07-25T18:50:00.0000000+00:00</time></trkpt><trkpt lat="63.82096863" lon="-19.19549942"><ele>585.7</ele><time>2012-07-25T18:50:05.0000000+00:00</time></trkpt><trkpt lat="63.82098007" lon="-19.19570541"><ele>586.4</ele><time>2012-07-25T18:50:10.0000000+00:00</time></trkpt><trkpt lat="63.82100678" lon="-19.19600105"><ele>587.3</ele><time>2012-07-25T18:50:15.0000000+00:00</time></trkpt><trkpt lat="63.82104492" lon="-19.19631004"><ele>588.1</ele><time>2012-07-25T18:50:20.0000000+00:00</time></trkpt><trkpt lat="63.82106781" lon="-19.19660568"><ele>588.9</ele><time>2012-07-25T18:50:25.0000000+00:00</time></trkpt><trkpt lat="63.821064" lon="-19.19692802"><ele>586.4</ele><time>2012-07-25T18:50:30.0000000+00:00</time></trkpt><trkpt lat="63.82106781" lon="-19.19720268"><ele>586.3</ele><time>2012-07-25T18:50:35.0000000+00:00</time></trkpt><trkpt lat="63.821064" lon="-19.19750977"><ele>586.1</ele><time>2012-07-25T18:50:40.0000000+00:00</time></trkpt><trkpt lat="63.82102966" lon="-19.19781494"><ele>583.2</ele><time>2012-07-25T18:50:45.0000000+00:00</time></trkpt><trkpt lat="63.82099915" lon="-19.19809341"><ele>581.0</ele><time>2012-07-25T18:50:50.0000000+00:00</time></trkpt><trkpt lat="63.82101059" lon="-19.19828033"><ele>580.1</ele><time>2012-07-25T18:50:55.0000000+00:00</time></trkpt><trkpt lat="63.82100296" lon="-19.19830322"><ele>580.3</ele><time>2012-07-25T18:51:00.0000000+00:00</time></trkpt><trkpt lat="63.82100296" lon="-19.19831085"><ele>580.2</ele><time>2012-07-25T18:51:05.0000000+00:00</time></trkpt><trkpt lat="63.82100296" lon="-19.19831085"><ele>580.2</ele><time>2012-07-25T18:51:10.0000000+00:00</time></trkpt><trkpt lat="63.82099915" lon="-19.19830704"><ele>580.1</ele><time>2012-07-25T18:51:15.0000000+00:00</time></trkpt><trkpt lat="63.82100296" lon="-19.19831276"><ele>580.0</ele><time>2012-07-25T18:51:20.0000000+00:00</time></trkpt><trkpt lat="63.82100296" lon="-19.19835281"><ele>579.9</ele><time>2012-07-25T18:51:25.0000000+00:00</time></trkpt><trkpt lat="63.8209877" lon="-19.19855118"><ele>579.5</ele><time>2012-07-25T18:51:30.0000000+00:00</time></trkpt><trkpt lat="63.82093811" lon="-19.19871712"><ele>579.2</ele><time>2012-07-25T18:51:35.0000000+00:00</time></trkpt><trkpt lat="63.82089615" lon="-19.19891548"><ele>579.4</ele><time>2012-07-25T18:51:40.0000000+00:00</time></trkpt><trkpt lat="63.820858" lon="-19.19909287"><ele>579.2</ele><time>2012-07-25T18:51:45.0000000+00:00</time></trkpt><trkpt lat="63.82082748" lon="-19.19925118"><ele>579.2</ele><time>2012-07-25T18:51:50.0000000+00:00</time></trkpt><trkpt lat="63.82082367" lon="-19.19928551"><ele>579.9</ele><time>2012-07-25T18:51:55.0000000+00:00</time></trkpt><trkpt lat="63.82081986" lon="-19.19929123"><ele>580.1</ele><time>2012-07-25T18:52:00.0000000+00:00</time></trkpt><trkpt lat="63.82081986" lon="-19.19929123"><ele>580.4</ele><time>2012-07-25T18:52:05.0000000+00:00</time></trkpt><trkpt lat="63.82081986" lon="-19.19929123"><ele>580.3</ele><time>2012-07-25T18:52:10.0000000+00:00</time></trkpt><trkpt lat="63.82081986" lon="-19.19929123"><ele>580.3</ele><time>2012-07-25T18:52:15.0000000+00:00</time></trkpt><trkpt lat="63.82081986" lon="-19.19929123"><ele>580.3</ele><time>2012-07-25T18:52:20.0000000+00:00</time></trkpt><trkpt lat="63.82081986" lon="-19.19929314"><ele>580.3</ele><time>2012-07-25T18:52:25.0000000+00:00</time></trkpt><trkpt lat="63.82083893" lon="-19.19934273"><ele>581.0</ele><time>2012-07-25T18:52:30.0000000+00:00</time></trkpt><trkpt lat="63.82089996" lon="-19.19946671"><ele>581.2</ele><time>2012-07-25T18:52:35.0000000+00:00</time></trkpt><trkpt lat="63.82098389" lon="-19.19954491"><ele>581.0</ele><time>2012-07-25T18:52:40.0000000+00:00</time></trkpt><trkpt lat="63.82104492" lon="-19.19976616"><ele>579.4</ele><time>2012-07-25T18:52:45.0000000+00:00</time></trkpt><trkpt lat="63.82109833" lon="-19.20000649"><ele>579.2</ele><time>2012-07-25T18:52:50.0000000+00:00</time></trkpt><trkpt lat="63.82114792" lon="-19.20020676"><ele>582.0</ele><time>2012-07-25T18:52:55.0000000+00:00</time></trkpt><trkpt lat="63.82116318" lon="-19.20037842"><ele>583.8</ele><time>2012-07-25T18:53:00.0000000+00:00</time></trkpt><trkpt lat="63.82117844" lon="-19.20052147"><ele>585.3</ele><time>2012-07-25T18:53:05.0000000+00:00</time></trkpt><trkpt lat="63.8212204" lon="-19.20075417"><ele>584.9</ele><time>2012-07-25T18:53:10.0000000+00:00</time></trkpt><trkpt lat="63.82126617" lon="-19.2010231"><ele>583.3</ele><time>2012-07-25T18:53:15.0000000+00:00</time></trkpt><trkpt lat="63.82134628" lon="-19.20131874"><ele>583.8</ele><time>2012-07-25T18:53:20.0000000+00:00</time></trkpt><trkpt lat="63.82136536" lon="-19.20165253"><ele>584.3</ele><time>2012-07-25T18:53:25.0000000+00:00</time></trkpt><trkpt lat="63.82141876" lon="-19.20197296"><ele>586.0</ele><time>2012-07-25T18:53:30.0000000+00:00</time></trkpt><trkpt lat="63.82155991" lon="-19.20214081"><ele>582.5</ele><time>2012-07-25T18:53:35.0000000+00:00</time></trkpt><trkpt lat="63.82172775" lon="-19.20223618"><ele>578.7</ele><time>2012-07-25T18:53:40.0000000+00:00</time></trkpt><trkpt lat="63.82191467" lon="-19.2024498"><ele>579.8</ele><time>2012-07-25T18:53:45.0000000+00:00</time></trkpt><trkpt lat="63.82201386" lon="-19.20270538"><ele>578.8</ele><time>2012-07-25T18:53:50.0000000+00:00</time></trkpt><trkpt lat="63.82207871" lon="-19.203022"><ele>580.1</ele><time>2012-07-25T18:53:55.0000000+00:00</time></trkpt><trkpt lat="63.82209396" lon="-19.2032795"><ele>582.1</ele><time>2012-07-25T18:54:00.0000000+00:00</time></trkpt><trkpt lat="63.82209778" lon="-19.20353317"><ele>581.8</ele><time>2012-07-25T18:54:05.0000000+00:00</time></trkpt><trkpt lat="63.82210159" lon="-19.2038002"><ele>582.8</ele><time>2012-07-25T18:54:10.0000000+00:00</time></trkpt><trkpt lat="63.82213974" lon="-19.20410919"><ele>586.3</ele><time>2012-07-25T18:54:15.0000000+00:00</time></trkpt><trkpt lat="63.8221817" lon="-19.20441437"><ele>587.2</ele><time>2012-07-25T18:54:20.0000000+00:00</time></trkpt><trkpt lat="63.82221985" lon="-19.20468712"><ele>585.2</ele><time>2012-07-25T18:54:25.0000000+00:00</time></trkpt><trkpt lat="63.82225037" lon="-19.20493126"><ele>584.4</ele><time>2012-07-25T18:54:30.0000000+00:00</time></trkpt><trkpt lat="63.82230377" lon="-19.20516586"><ele>585.8</ele><time>2012-07-25T18:54:35.0000000+00:00</time></trkpt><trkpt lat="63.82236099" lon="-19.20550537"><ele>583.6</ele><time>2012-07-25T18:54:40.0000000+00:00</time></trkpt><trkpt lat="63.82242203" lon="-19.20585251"><ele>583.1</ele><time>2012-07-25T18:54:45.0000000+00:00</time></trkpt><trkpt lat="63.82244492" lon="-19.20602608"><ele>583.3</ele><time>2012-07-25T18:54:50.0000000+00:00</time></trkpt><trkpt lat="63.82248688" lon="-19.20623207"><ele>584.8</ele><time>2012-07-25T18:54:55.0000000+00:00</time></trkpt><trkpt lat="63.82254791" lon="-19.20655632"><ele>584.2</ele><time>2012-07-25T18:55:00.0000000+00:00</time></trkpt><trkpt lat="63.82263184" lon="-19.20685768"><ele>586.0</ele><time>2012-07-25T18:55:05.0000000+00:00</time></trkpt><trkpt lat="63.82270432" lon="-19.20704651"><ele>586.0</ele><time>2012-07-25T18:55:10.0000000+00:00</time></trkpt><trkpt lat="63.82278061" lon="-19.20719338"><ele>585.3</ele><time>2012-07-25T18:55:15.0000000+00:00</time></trkpt><trkpt lat="63.82289505" lon="-19.20724106"><ele>582.6</ele><time>2012-07-25T18:55:20.0000000+00:00</time></trkpt><trkpt lat="63.82302475" lon="-19.20720673"><ele>581.1</ele><time>2012-07-25T18:55:25.0000000+00:00</time></trkpt><trkpt lat="63.82314682" lon="-19.20730782"><ele>579.9</ele><time>2012-07-25T18:55:30.0000000+00:00</time></trkpt><trkpt lat="63.82323456" lon="-19.2075901"><ele>577.9</ele><time>2012-07-25T18:55:35.0000000+00:00</time></trkpt><trkpt lat="63.82330704" lon="-19.20788574"><ele>577.8</ele><time>2012-07-25T18:55:40.0000000+00:00</time></trkpt><trkpt lat="63.82338715" lon="-19.20820236"><ele>580.8</ele><time>2012-07-25T18:55:45.0000000+00:00</time></trkpt><trkpt lat="63.82345581" lon="-19.20860481"><ele>581.7</ele><time>2012-07-25T18:55:50.0000000+00:00</time></trkpt><trkpt lat="63.8235054" lon="-19.20901871"><ele>582.4</ele><time>2012-07-25T18:55:55.0000000+00:00</time></trkpt><trkpt lat="63.82357407" lon="-19.20936012"><ele>581.5</ele><time>2012-07-25T18:56:00.0000000+00:00</time></trkpt><trkpt lat="63.82364655" lon="-19.2096653"><ele>578.4</ele><time>2012-07-25T18:56:05.0000000+00:00</time></trkpt><trkpt lat="63.82368088" lon="-19.21001434"><ele>578.0</ele><time>2012-07-25T18:56:10.0000000+00:00</time></trkpt><trkpt lat="63.82371521" lon="-19.21036148"><ele>577.7</ele><time>2012-07-25T18:56:15.0000000+00:00</time></trkpt><trkpt lat="63.82375336" lon="-19.21067429"><ele>580.4</ele><time>2012-07-25T18:56:20.0000000+00:00</time></trkpt><trkpt lat="63.82379532" lon="-19.21100617"><ele>582.7</ele><time>2012-07-25T18:56:25.0000000+00:00</time></trkpt><trkpt lat="63.82383728" lon="-19.2113514"><ele>582.4</ele><time>2012-07-25T18:56:30.0000000+00:00</time></trkpt><trkpt lat="63.82393646" lon="-19.21170807"><ele>579.9</ele><time>2012-07-25T18:56:35.0000000+00:00</time></trkpt><trkpt lat="63.82402802" lon="-19.21197319"><ele>576.1</ele><time>2012-07-25T18:56:40.0000000+00:00</time></trkpt><trkpt lat="63.82410431" lon="-19.2122364"><ele>573.8</ele><time>2012-07-25T18:56:45.0000000+00:00</time></trkpt><trkpt lat="63.8241806" lon="-19.21253014"><ele>572.0</ele><time>2012-07-25T18:56:50.0000000+00:00</time></trkpt><trkpt lat="63.82424545" lon="-19.21283341"><ele>573.4</ele><time>2012-07-25T18:56:55.0000000+00:00</time></trkpt><trkpt lat="63.82429504" lon="-19.21310616"><ele>574.9</ele><time>2012-07-25T18:57:00.0000000+00:00</time></trkpt><trkpt lat="63.82440567" lon="-19.21338844"><ele>571.3</ele><time>2012-07-25T18:57:05.0000000+00:00</time></trkpt><trkpt lat="63.82458878" lon="-19.21369362"><ele>571.1</ele><time>2012-07-25T18:57:10.0000000+00:00</time></trkpt><trkpt lat="63.82481003" lon="-19.21410179"><ele>568.3</ele><time>2012-07-25T18:57:15.0000000+00:00</time></trkpt><trkpt lat="63.82492447" lon="-19.21442604"><ele>567.3</ele><time>2012-07-25T18:57:20.0000000+00:00</time></trkpt><trkpt lat="63.82501221" lon="-19.21468544"><ele>567.6</ele><time>2012-07-25T18:57:25.0000000+00:00</time></trkpt><trkpt lat="63.82508087" lon="-19.21477318"><ele>568.0</ele><time>2012-07-25T18:57:30.0000000+00:00</time></trkpt><trkpt lat="63.82508087" lon="-19.21476936"><ele>567.2</ele><time>2012-07-25T18:57:35.0000000+00:00</time></trkpt><trkpt lat="63.82510757" lon="-19.21481133"><ele>567.0</ele><time>2012-07-25T18:57:40.0000000+00:00</time></trkpt><trkpt lat="63.82516861" lon="-19.2148304"><ele>568.3</ele><time>2012-07-25T18:57:45.0000000+00:00</time></trkpt><trkpt lat="63.82520676" lon="-19.21478844"><ele>567.2</ele><time>2012-07-25T18:57:50.0000000+00:00</time></trkpt><trkpt lat="63.82519913" lon="-19.21477127"><ele>566.8</ele><time>2012-07-25T18:57:55.0000000+00:00</time></trkpt><trkpt lat="63.82519531" lon="-19.21477127"><ele>566.1</ele><time>2012-07-25T18:58:00.0000000+00:00</time></trkpt><trkpt lat="63.8251915" lon="-19.21477127"><ele>565.8</ele><time>2012-07-25T18:58:05.0000000+00:00</time></trkpt><trkpt lat="63.8251915" lon="-19.21477127"><ele>565.7</ele><time>2012-07-25T18:58:10.0000000+00:00</time></trkpt><trkpt lat="63.8251915" lon="-19.21477127"><ele>565.7</ele><time>2012-07-25T18:58:15.0000000+00:00</time></trkpt><trkpt lat="63.82520676" lon="-19.21477699"><ele>565.9</ele><time>2012-07-25T18:58:20.0000000+00:00</time></trkpt><trkpt lat="63.82521439" lon="-19.21473312"><ele>566.6</ele><time>2012-07-25T18:58:25.0000000+00:00</time></trkpt><trkpt lat="63.82523727" lon="-19.2145958"><ele>567.3</ele><time>2012-07-25T18:58:30.0000000+00:00</time></trkpt><trkpt lat="63.82522583" lon="-19.21453095"><ele>567.4</ele><time>2012-07-25T18:58:35.0000000+00:00</time></trkpt><trkpt lat="63.82523346" lon="-19.21450424"><ele>567.1</ele><time>2012-07-25T18:58:40.0000000+00:00</time></trkpt><trkpt lat="63.82522965" lon="-19.21450234"><ele>567.1</ele><time>2012-07-25T18:58:45.0000000+00:00</time></trkpt><trkpt lat="63.82522965" lon="-19.21449661"><ele>567.1</ele><time>2012-07-25T18:58:50.0000000+00:00</time></trkpt><trkpt lat="63.82525253" lon="-19.21440315"><ele>567.6</ele><time>2012-07-25T18:58:55.0000000+00:00</time></trkpt><trkpt lat="63.82527161" lon="-19.21426773"><ele>568.7</ele><time>2012-07-25T18:59:00.0000000+00:00</time></trkpt><trkpt lat="63.82526779" lon="-19.2142849"><ele>568.1</ele><time>2012-07-25T18:59:05.0000000+00:00</time></trkpt><trkpt lat="63.82526779" lon="-19.2142849"><ele>567.7</ele><time>2012-07-25T18:59:10.0000000+00:00</time></trkpt><trkpt lat="63.82526779" lon="-19.2142849"><ele>567.6</ele><time>2012-07-25T18:59:15.0000000+00:00</time></trkpt><trkpt lat="63.82526779" lon="-19.21427536"><ele>568.1</ele><time>2012-07-25T18:59:20.0000000+00:00</time></trkpt><trkpt lat="63.82527161" lon="-19.21422195"><ele>568.5</ele><time>2012-07-25T18:59:25.0000000+00:00</time></trkpt><trkpt lat="63.82528305" lon="-19.21409416"><ele>567.9</ele><time>2012-07-25T18:59:30.0000000+00:00</time></trkpt><trkpt lat="63.82530212" lon="-19.21400833"><ele>567.4</ele><time>2012-07-25T18:59:35.0000000+00:00</time></trkpt><trkpt lat="63.82533264" lon="-19.21391487"><ele>567.0</ele><time>2012-07-25T18:59:40.0000000+00:00</time></trkpt><trkpt lat="63.82535172" lon="-19.21386528"><ele>566.2</ele><time>2012-07-25T18:59:45.0000000+00:00</time></trkpt><trkpt lat="63.82539368" lon="-19.21379089"><ele>566.0</ele><time>2012-07-25T18:59:50.0000000+00:00</time></trkpt><trkpt lat="63.82542038" lon="-19.21376419"><ele>564.6</ele><time>2012-07-25T18:59:55.0000000+00:00</time></trkpt><trkpt lat="63.82544327" lon="-19.21374512"><ele>565.0</ele><time>2012-07-25T19:00:00.0000000+00:00</time></trkpt><trkpt lat="63.82546234" lon="-19.21376419"><ele>565.6</ele><time>2012-07-25T19:00:05.0000000+00:00</time></trkpt><trkpt lat="63.82546616" lon="-19.21376419"><ele>565.8</ele><time>2012-07-25T19:00:10.0000000+00:00</time></trkpt><trkpt lat="63.82546616" lon="-19.21375847"><ele>564.3</ele><time>2012-07-25T19:00:15.0000000+00:00</time></trkpt><trkpt lat="63.82546234" lon="-19.21375656"><ele>563.8</ele><time>2012-07-25T19:00:20.0000000+00:00</time></trkpt><trkpt lat="63.82546616" lon="-19.21373749"><ele>563.2</ele><time>2012-07-25T19:00:25.0000000+00:00</time></trkpt><trkpt lat="63.82546616" lon="-19.21373367"><ele>563.1</ele><time>2012-07-25T19:00:30.0000000+00:00</time></trkpt><trkpt lat="63.82546616" lon="-19.21374893"><ele>563.0</ele><time>2012-07-25T19:00:35.0000000+00:00</time></trkpt><trkpt lat="63.82545853" lon="-19.21371841"><ele>562.8</ele><time>2012-07-25T19:00:40.0000000+00:00</time></trkpt><trkpt lat="63.82540894" lon="-19.21366501"><ele>562.7</ele><time>2012-07-25T19:00:45.0000000+00:00</time></trkpt><trkpt lat="63.82536697" lon="-19.21362114"><ele>562.5</ele><time>2012-07-25T19:00:50.0000000+00:00</time></trkpt><trkpt lat="63.82535172" lon="-19.21354103"><ele>562.3</ele><time>2012-07-25T19:00:55.0000000+00:00</time></trkpt><trkpt lat="63.82533646" lon="-19.2134037"><ele>563.1</ele><time>2012-07-25T19:01:00.0000000+00:00</time></trkpt><trkpt lat="63.82533646" lon="-19.21338654"><ele>563.4</ele><time>2012-07-25T19:01:05.0000000+00:00</time></trkpt><trkpt lat="63.82533264" lon="-19.21336746"><ele>562.6</ele><time>2012-07-25T19:01:10.0000000+00:00</time></trkpt><trkpt lat="63.8253479" lon="-19.21346092"><ele>563.8</ele><time>2012-07-25T19:01:15.0000000+00:00</time></trkpt><trkpt lat="63.8253746" lon="-19.21358872"><ele>565.1</ele><time>2012-07-25T19:01:20.0000000+00:00</time></trkpt><trkpt lat="63.82540894" lon="-19.21372795"><ele>566.5</ele><time>2012-07-25T19:01:25.0000000+00:00</time></trkpt><trkpt lat="63.82546616" lon="-19.21379089"><ele>567.9</ele><time>2012-07-25T19:01:30.0000000+00:00</time></trkpt><trkpt lat="63.82547379" lon="-19.21379662"><ele>567.7</ele><time>2012-07-25T19:01:35.0000000+00:00</time></trkpt><trkpt lat="63.82547379" lon="-19.21379471"><ele>567.9</ele><time>2012-07-25T19:01:40.0000000+00:00</time></trkpt><trkpt lat="63.8254776" lon="-19.2137928"><ele>568.0</ele><time>2012-07-25T19:01:45.0000000+00:00</time></trkpt><trkpt lat="63.82548142" lon="-19.21379089"><ele>567.8</ele><time>2012-07-25T19:01:50.0000000+00:00</time></trkpt><trkpt lat="63.8254776" lon="-19.21378899"><ele>567.8</ele><time>2012-07-25T19:01:55.0000000+00:00</time></trkpt><trkpt lat="63.82548904" lon="-19.2137661"><ele>568.0</ele><time>2012-07-25T19:02:00.0000000+00:00</time></trkpt><trkpt lat="63.82552719" lon="-19.21370125"><ele>568.4</ele><time>2012-07-25T19:02:05.0000000+00:00</time></trkpt><trkpt lat="63.82557678" lon="-19.21363258"><ele>568.0</ele><time>2012-07-25T19:02:10.0000000+00:00</time></trkpt><trkpt lat="63.82559967" lon="-19.21357155"><ele>567.3</ele><time>2012-07-25T19:02:15.0000000+00:00</time></trkpt><trkpt lat="63.82563019" lon="-19.21354294"><ele>566.8</ele><time>2012-07-25T19:02:20.0000000+00:00</time></trkpt><trkpt lat="63.82562637" lon="-19.21354675"><ele>566.3</ele><time>2012-07-25T19:02:25.0000000+00:00</time></trkpt><trkpt lat="63.82562256" lon="-19.21355629"><ele>566.1</ele><time>2012-07-25T19:02:30.0000000+00:00</time></trkpt><trkpt lat="63.82559967" lon="-19.21358109"><ele>566.1</ele><time>2012-07-25T19:02:35.0000000+00:00</time></trkpt><trkpt lat="63.82556152" lon="-19.21363831"><ele>565.6</ele><time>2012-07-25T19:02:40.0000000+00:00</time></trkpt><trkpt lat="63.82555771" lon="-19.21366501"><ele>565.5</ele><time>2012-07-25T19:02:45.0000000+00:00</time></trkpt><trkpt lat="63.82555008" lon="-19.21367073"><ele>564.9</ele><time>2012-07-25T19:02:50.0000000+00:00</time></trkpt><trkpt lat="63.82555008" lon="-19.21365166"><ele>564.7</ele><time>2012-07-25T19:02:55.0000000+00:00</time></trkpt><trkpt lat="63.82556534" lon="-19.21362877"><ele>564.0</ele><time>2012-07-25T19:03:00.0000000+00:00</time></trkpt><trkpt lat="63.8256073" lon="-19.21358299"><ele>563.5</ele><time>2012-07-25T19:03:05.0000000+00:00</time></trkpt><trkpt lat="63.82561112" lon="-19.21357727"><ele>564.3</ele><time>2012-07-25T19:03:10.0000000+00:00</time></trkpt><trkpt lat="63.8256073" lon="-19.21358681"><ele>564.1</ele><time>2012-07-25T19:03:15.0000000+00:00</time></trkpt><trkpt lat="63.82560349" lon="-19.21358872"><ele>564.2</ele><time>2012-07-25T19:03:20.0000000+00:00</time></trkpt><trkpt lat="63.82560349" lon="-19.21359253"><ele>564.1</ele><time>2012-07-25T19:03:25.0000000+00:00</time></trkpt><trkpt lat="63.82560349" lon="-19.21359444"><ele>563.9</ele><time>2012-07-25T19:03:30.0000000+00:00</time></trkpt><trkpt lat="63.82561112" lon="-19.21357918"><ele>563.5</ele><time>2012-07-25T19:03:35.0000000+00:00</time></trkpt><trkpt lat="63.82561493" lon="-19.21356583"><ele>564.2</ele><time>2012-07-25T19:03:40.0000000+00:00</time></trkpt><trkpt lat="63.82562256" lon="-19.21356773"><ele>564.2</ele><time>2012-07-25T19:03:45.0000000+00:00</time></trkpt><trkpt lat="63.82562256" lon="-19.21357918"><ele>564.1</ele><time>2012-07-25T19:03:50.0000000+00:00</time></trkpt><trkpt lat="63.82563782" lon="-19.21357155"><ele>563.5</ele><time>2012-07-25T19:03:55.0000000+00:00</time></trkpt><trkpt lat="63.82568359" lon="-19.21352768"><ele>563.2</ele><time>2012-07-25T19:04:00.0000000+00:00</time></trkpt><trkpt lat="63.82571411" lon="-19.21345711"><ele>561.9</ele><time>2012-07-25T19:04:05.0000000+00:00</time></trkpt><trkpt lat="63.82572556" lon="-19.21343613"><ele>562.0</ele><time>2012-07-25T19:04:10.0000000+00:00</time></trkpt><trkpt lat="63.82574463" lon="-19.21341896"><ele>563.0</ele><time>2012-07-25T19:04:15.0000000+00:00</time></trkpt><trkpt lat="63.82577896" lon="-19.21337891"><ele>562.4</ele><time>2012-07-25T19:04:20.0000000+00:00</time></trkpt><trkpt lat="63.82579804" lon="-19.21333122"><ele>562.8</ele><time>2012-07-25T19:04:25.0000000+00:00</time></trkpt><trkpt lat="63.82579422" lon="-19.21332932"><ele>562.3</ele><time>2012-07-25T19:04:30.0000000+00:00</time></trkpt><trkpt lat="63.82579422" lon="-19.21332932"><ele>562.3</ele><time>2012-07-25T19:04:35.0000000+00:00</time></trkpt><trkpt lat="63.82580566" lon="-19.21331596"><ele>561.6</ele><time>2012-07-25T19:04:40.0000000+00:00</time></trkpt><trkpt lat="63.82582092" lon="-19.21329498"><ele>561.3</ele><time>2012-07-25T19:04:45.0000000+00:00</time></trkpt><trkpt lat="63.82582474" lon="-19.21328163"><ele>561.4</ele><time>2012-07-25T19:04:50.0000000+00:00</time></trkpt><trkpt lat="63.82583618" lon="-19.21322823"><ele>562.1</ele><time>2012-07-25T19:04:55.0000000+00:00</time></trkpt><trkpt lat="63.82583237" lon="-19.21312332"><ele>563.2</ele><time>2012-07-25T19:05:00.0000000+00:00</time></trkpt><trkpt lat="63.82585907" lon="-19.21310043"><ele>563.9</ele><time>2012-07-25T19:05:05.0000000+00:00</time></trkpt><trkpt lat="63.82588577" lon="-19.21313095"><ele>563.7</ele><time>2012-07-25T19:05:10.0000000+00:00</time></trkpt><trkpt lat="63.82588577" lon="-19.21313095"><ele>563.3</ele><time>2012-07-25T19:05:15.0000000+00:00</time></trkpt><trkpt lat="63.82591248" lon="-19.21316719"><ele>559.9</ele><time>2012-07-25T19:05:20.0000000+00:00</time></trkpt><trkpt lat="63.82595444" lon="-19.21319389"><ele>559.6</ele><time>2012-07-25T19:05:25.0000000+00:00</time></trkpt><trkpt lat="63.82598114" lon="-19.21323013"><ele>560.4</ele><time>2012-07-25T19:05:30.0000000+00:00</time></trkpt><trkpt lat="63.82600403" lon="-19.21325874"><ele>560.5</ele><time>2012-07-25T19:05:35.0000000+00:00</time></trkpt><trkpt lat="63.82604981" lon="-19.21332169"><ele>560.8</ele><time>2012-07-25T19:05:40.0000000+00:00</time></trkpt><trkpt lat="63.82608414" lon="-19.21337128"><ele>560.7</ele><time>2012-07-25T19:05:45.0000000+00:00</time></trkpt><trkpt lat="63.82611847" lon="-19.21344757"><ele>560.3</ele><time>2012-07-25T19:05:50.0000000+00:00</time></trkpt><trkpt lat="63.8261528" lon="-19.21351814"><ele>560.2</ele><time>2012-07-25T19:05:55.0000000+00:00</time></trkpt><trkpt lat="63.82619095" lon="-19.2135849"><ele>560.4</ele><time>2012-07-25T19:06:00.0000000+00:00</time></trkpt><trkpt lat="63.82623673" lon="-19.21363449"><ele>559.2</ele><time>2012-07-25T19:06:05.0000000+00:00</time></trkpt><trkpt lat="63.82624817" lon="-19.21367073"><ele>558.7</ele><time>2012-07-25T19:06:10.0000000+00:00</time></trkpt><trkpt lat="63.8262558" lon="-19.21364403"><ele>558.3</ele><time>2012-07-25T19:06:15.0000000+00:00</time></trkpt><trkpt lat="63.8262558" lon="-19.21360397"><ele>562.0</ele><time>2012-07-25T19:06:20.0000000+00:00</time></trkpt><trkpt lat="63.8262558" lon="-19.21360016"><ele>562.4</ele><time>2012-07-25T19:06:25.0000000+00:00</time></trkpt><trkpt lat="63.8262558" lon="-19.21360016"><ele>562.4</ele><time>2012-07-25T19:06:30.0000000+00:00</time></trkpt><trkpt lat="63.8262558" lon="-19.21360016"><ele>562.4</ele><time>2012-07-25T19:06:35.0000000+00:00</time></trkpt><trkpt lat="63.8262558" lon="-19.21360397"><ele>562.3</ele><time>2012-07-25T19:06:40.0000000+00:00</time></trkpt><trkpt lat="63.8262558" lon="-19.21357536"><ele>561.5</ele><time>2012-07-25T19:06:45.0000000+00:00</time></trkpt><trkpt lat="63.82626343" lon="-19.21359062"><ele>562.5</ele><time>2012-07-25T19:06:50.0000000+00:00</time></trkpt><trkpt lat="63.82628632" lon="-19.21356392"><ele>562.3</ele><time>2012-07-25T19:06:55.0000000+00:00</time></trkpt><trkpt lat="63.82629395" lon="-19.21356583"><ele>562.4</ele><time>2012-07-25T19:07:00.0000000+00:00</time></trkpt><trkpt lat="63.82629395" lon="-19.21356773"><ele>562.4</ele><time>2012-07-25T19:07:05.0000000+00:00</time></trkpt><trkpt lat="63.8263092" lon="-19.21351814"><ele>561.3</ele><time>2012-07-25T19:07:10.0000000+00:00</time></trkpt><trkpt lat="63.82635498" lon="-19.2133522"><ele>559.2</ele><time>2012-07-25T19:07:15.0000000+00:00</time></trkpt><trkpt lat="63.82643127" lon="-19.21317291"><ele>560.0</ele><time>2012-07-25T19:07:20.0000000+00:00</time></trkpt><trkpt lat="63.82649612" lon="-19.21296692"><ele>559.6</ele><time>2012-07-25T19:07:25.0000000+00:00</time></trkpt><trkpt lat="63.8265686" lon="-19.21271515"><ele>560.5</ele><time>2012-07-25T19:07:30.0000000+00:00</time></trkpt><trkpt lat="63.82662582" lon="-19.21244431"><ele>561.0</ele><time>2012-07-25T19:07:35.0000000+00:00</time></trkpt><trkpt lat="63.82669067" lon="-19.21219444"><ele>560.2</ele><time>2012-07-25T19:07:40.0000000+00:00</time></trkpt><trkpt lat="63.82677841" lon="-19.21196556"><ele>560.4</ele><time>2012-07-25T19:07:45.0000000+00:00</time></trkpt><trkpt lat="63.82686997" lon="-19.2117691"><ele>560.8</ele><time>2012-07-25T19:07:50.0000000+00:00</time></trkpt><trkpt lat="63.82698059" lon="-19.21150398"><ele>560.4</ele><time>2012-07-25T19:07:55.0000000+00:00</time></trkpt><trkpt lat="63.82710648" lon="-19.21120071"><ele>564.9</ele><time>2012-07-25T19:08:00.0000000+00:00</time></trkpt><trkpt lat="63.82720947" lon="-19.21094513"><ele>565.0</ele><time>2012-07-25T19:08:05.0000000+00:00</time></trkpt><trkpt lat="63.8273201" lon="-19.21073532"><ele>564.5</ele><time>2012-07-25T19:08:10.0000000+00:00</time></trkpt><trkpt lat="63.82744598" lon="-19.21051788"><ele>565.5</ele><time>2012-07-25T19:08:15.0000000+00:00</time></trkpt><trkpt lat="63.82756043" lon="-19.2103138"><ele>565.8</ele><time>2012-07-25T19:08:20.0000000+00:00</time></trkpt><trkpt lat="63.82765198" lon="-19.21009827"><ele>566.2</ele><time>2012-07-25T19:08:25.0000000+00:00</time></trkpt><trkpt lat="63.82772827" lon="-19.20985413"><ele>568.3</ele><time>2012-07-25T19:08:30.0000000+00:00</time></trkpt><trkpt lat="63.82777023" lon="-19.20966339"><ele>570.5</ele><time>2012-07-25T19:08:35.0000000+00:00</time></trkpt><trkpt lat="63.82780075" lon="-19.20950317"><ele>570.2</ele><time>2012-07-25T19:08:40.0000000+00:00</time></trkpt><trkpt lat="63.82788849" lon="-19.20936966"><ele>570.6</ele><time>2012-07-25T19:08:45.0000000+00:00</time></trkpt><trkpt lat="63.82801437" lon="-19.20922852"><ele>571.7</ele><time>2012-07-25T19:08:50.0000000+00:00</time></trkpt><trkpt lat="63.82815552" lon="-19.20905685"><ele>572.4</ele><time>2012-07-25T19:08:55.0000000+00:00</time></trkpt><trkpt lat="63.82825851" lon="-19.20879173"><ele>571.8</ele><time>2012-07-25T19:09:00.0000000+00:00</time></trkpt><trkpt lat="63.82832336" lon="-19.20848846"><ele>571.2</ele><time>2012-07-25T19:09:05.0000000+00:00</time></trkpt><trkpt lat="63.8283844" lon="-19.2081337"><ele>570.4</ele><time>2012-07-25T19:09:10.0000000+00:00</time></trkpt><trkpt lat="63.82847214" lon="-19.20778465"><ele>570.3</ele><time>2012-07-25T19:09:15.0000000+00:00</time></trkpt><trkpt lat="63.82861328" lon="-19.2074852"><ele>570.6</ele><time>2012-07-25T19:09:20.0000000+00:00</time></trkpt><trkpt lat="63.82871628" lon="-19.20719338"><ele>572.0</ele><time>2012-07-25T19:09:25.0000000+00:00</time></trkpt><trkpt lat="63.82875443" lon="-19.20691681"><ele>572.6</ele><time>2012-07-25T19:09:30.0000000+00:00</time></trkpt><trkpt lat="63.82876205" lon="-19.20666695"><ele>571.6</ele><time>2012-07-25T19:09:35.0000000+00:00</time></trkpt><trkpt lat="63.82874298" lon="-19.20635033"><ele>571.6</ele><time>2012-07-25T19:09:40.0000000+00:00</time></trkpt><trkpt lat="63.82872009" lon="-19.20600128"><ele>570.9</ele><time>2012-07-25T19:09:45.0000000+00:00</time></trkpt><trkpt lat="63.82867432" lon="-19.20561981"><ele>569.8</ele><time>2012-07-25T19:09:50.0000000+00:00</time></trkpt><trkpt lat="63.82859802" lon="-19.20519829"><ele>569.6</ele><time>2012-07-25T19:09:55.0000000+00:00</time></trkpt><trkpt lat="63.82854843" lon="-19.20478249"><ele>570.9</ele><time>2012-07-25T19:10:00.0000000+00:00</time></trkpt><trkpt lat="63.82857132" lon="-19.20429802"><ele>571.5</ele><time>2012-07-25T19:10:05.0000000+00:00</time></trkpt><trkpt lat="63.82869339" lon="-19.20391083"><ele>571.8</ele><time>2012-07-25T19:10:10.0000000+00:00</time></trkpt><trkpt lat="63.82888031" lon="-19.20383644"><ele>572.0</ele><time>2012-07-25T19:10:15.0000000+00:00</time></trkpt><trkpt lat="63.82906342" lon="-19.20414925"><ele>573.6</ele><time>2012-07-25T19:10:20.0000000+00:00</time></trkpt><trkpt lat="63.82926941" lon="-19.20443153"><ele>575.4</ele><time>2012-07-25T19:10:25.0000000+00:00</time></trkpt><trkpt lat="63.8294754" lon="-19.20468521"><ele>576.5</ele><time>2012-07-25T19:10:30.0000000+00:00</time></trkpt><trkpt lat="63.82966614" lon="-19.20486069"><ele>578.3</ele><time>2012-07-25T19:10:35.0000000+00:00</time></trkpt><trkpt lat="63.82985306" lon="-19.20487213"><ele>579.0</ele><time>2012-07-25T19:10:40.0000000+00:00</time></trkpt><trkpt lat="63.83005524" lon="-19.2047329"><ele>578.4</ele><time>2012-07-25T19:10:45.0000000+00:00</time></trkpt><trkpt lat="63.83021545" lon="-19.20451164"><ele>573.2</ele><time>2012-07-25T19:10:50.0000000+00:00</time></trkpt><trkpt lat="63.83037186" lon="-19.20423317"><ele>571.3</ele><time>2012-07-25T19:10:55.0000000+00:00</time></trkpt><trkpt lat="63.830513" lon="-19.20388603"><ele>571.4</ele><time>2012-07-25T19:11:00.0000000+00:00</time></trkpt><trkpt lat="63.83065033" lon="-19.20349312"><ele>571.0</ele><time>2012-07-25T19:11:05.0000000+00:00</time></trkpt><trkpt lat="63.8307991" lon="-19.20311165"><ele>570.7</ele><time>2012-07-25T19:11:10.0000000+00:00</time></trkpt><trkpt lat="63.83091354" lon="-19.20274162"><ele>571.6</ele><time>2012-07-25T19:11:15.0000000+00:00</time></trkpt><trkpt lat="63.8310051" lon="-19.20236206"><ele>573.5</ele><time>2012-07-25T19:11:20.0000000+00:00</time></trkpt><trkpt lat="63.83111191" lon="-19.20200348"><ele>571.7</ele><time>2012-07-25T19:11:25.0000000+00:00</time></trkpt><trkpt lat="63.83122635" lon="-19.20166397"><ele>569.3</ele><time>2012-07-25T19:11:30.0000000+00:00</time></trkpt><trkpt lat="63.83137131" lon="-19.20131111"><ele>568.0</ele><time>2012-07-25T19:11:35.0000000+00:00</time></trkpt><trkpt lat="63.83153915" lon="-19.2010479"><ele>566.9</ele><time>2012-07-25T19:11:40.0000000+00:00</time></trkpt><trkpt lat="63.83171463" lon="-19.2011261"><ele>565.8</ele><time>2012-07-25T19:11:45.0000000+00:00</time></trkpt><trkpt lat="63.83189011" lon="-19.201437"><ele>565.2</ele><time>2012-07-25T19:11:50.0000000+00:00</time></trkpt><trkpt lat="63.83207321" lon="-19.2018795"><ele>566.9</ele><time>2012-07-25T19:11:55.0000000+00:00</time></trkpt><trkpt lat="63.83222961" lon="-19.20231819"><ele>570.1</ele><time>2012-07-25T19:12:00.0000000+00:00</time></trkpt><trkpt lat="63.83228302" lon="-19.20274735"><ele>570.2</ele><time>2012-07-25T19:12:05.0000000+00:00</time></trkpt><trkpt lat="63.83232117" lon="-19.20321465"><ele>569.7</ele><time>2012-07-25T19:12:10.0000000+00:00</time></trkpt><trkpt lat="63.83233643" lon="-19.20367813"><ele>570.5</ele><time>2012-07-25T19:12:15.0000000+00:00</time></trkpt><trkpt lat="63.83234406" lon="-19.20414162"><ele>571.5</ele><time>2012-07-25T19:12:20.0000000+00:00</time></trkpt><trkpt lat="63.83226013" lon="-19.20446777"><ele>572.0</ele><time>2012-07-25T19:12:25.0000000+00:00</time></trkpt><trkpt lat="63.83216476" lon="-19.20472145"><ele>570.4</ele><time>2012-07-25T19:12:30.0000000+00:00</time></trkpt><trkpt lat="63.83206177" lon="-19.20493889"><ele>569.5</ele><time>2012-07-25T19:12:35.0000000+00:00</time></trkpt><trkpt lat="63.83198547" lon="-19.20509529"><ele>567.6</ele><time>2012-07-25T19:12:40.0000000+00:00</time></trkpt><trkpt lat="63.83195496" lon="-19.20516586"><ele>566.8</ele><time>2012-07-25T19:12:45.0000000+00:00</time></trkpt><trkpt lat="63.83195877" lon="-19.20519829"><ele>566.9</ele><time>2012-07-25T19:12:50.0000000+00:00</time></trkpt><trkpt lat="63.83195496" lon="-19.20524979"><ele>566.6</ele><time>2012-07-25T19:12:55.0000000+00:00</time></trkpt><trkpt lat="63.83200073" lon="-19.20530891"><ele>566.0</ele><time>2012-07-25T19:13:00.0000000+00:00</time></trkpt><trkpt lat="63.83203888" lon="-19.20534325"><ele>565.9</ele><time>2012-07-25T19:13:05.0000000+00:00</time></trkpt><trkpt lat="63.83204269" lon="-19.20533371"><ele>565.8</ele><time>2012-07-25T19:13:10.0000000+00:00</time></trkpt><trkpt lat="63.83205414" lon="-19.20531845"><ele>564.4</ele><time>2012-07-25T19:13:15.0000000+00:00</time></trkpt><trkpt lat="63.83205032" lon="-19.20530129"><ele>563.8</ele><time>2012-07-25T19:13:20.0000000+00:00</time></trkpt><trkpt lat="63.83201218" lon="-19.20527458"><ele>562.2</ele><time>2012-07-25T19:13:25.0000000+00:00</time></trkpt><trkpt lat="63.83199692" lon="-19.20524406"><ele>561.3</ele><time>2012-07-25T19:13:30.0000000+00:00</time></trkpt><trkpt lat="63.8319664" lon="-19.20532417"><ele>562.1</ele><time>2012-07-25T19:13:35.0000000+00:00</time></trkpt><trkpt lat="63.83196259" lon="-19.20545006"><ele>562.8</ele><time>2012-07-25T19:13:40.0000000+00:00</time></trkpt><trkpt lat="63.8319397" lon="-19.20554733"><ele>563.9</ele><time>2012-07-25T19:13:45.0000000+00:00</time></trkpt><trkpt lat="63.83193588" lon="-19.20566368"><ele>565.0</ele><time>2012-07-25T19:13:50.0000000+00:00</time></trkpt><trkpt lat="63.83191681" lon="-19.20580864"><ele>565.5</ele><time>2012-07-25T19:13:55.0000000+00:00</time></trkpt><trkpt lat="63.83190918" lon="-19.20591736"><ele>565.0</ele><time>2012-07-25T19:14:00.0000000+00:00</time></trkpt><trkpt lat="63.83190155" lon="-19.20606041"><ele>564.7</ele><time>2012-07-25T19:14:05.0000000+00:00</time></trkpt><trkpt lat="63.83190155" lon="-19.20619965"><ele>563.5</ele><time>2012-07-25T19:14:10.0000000+00:00</time></trkpt><trkpt lat="63.83189392" lon="-19.20617676"><ele>563.0</ele><time>2012-07-25T19:14:15.0000000+00:00</time></trkpt><trkpt lat="63.83188629" lon="-19.20606422"><ele>562.5</ele><time>2012-07-25T19:14:20.0000000+00:00</time></trkpt><trkpt lat="63.83188629" lon="-19.20588684"><ele>563.0</ele><time>2012-07-25T19:14:25.0000000+00:00</time></trkpt><trkpt lat="63.83189774" lon="-19.20576859"><ele>563.4</ele><time>2012-07-25T19:14:30.0000000+00:00</time></trkpt><trkpt lat="63.83192062" lon="-19.20565605"><ele>563.1</ele><time>2012-07-25T19:14:35.0000000+00:00</time></trkpt><trkpt lat="63.83192825" lon="-19.20561409"><ele>564.9</ele><time>2012-07-25T19:14:40.0000000+00:00</time></trkpt><trkpt lat="63.83192825" lon="-19.20562363"><ele>565.3</ele><time>2012-07-25T19:14:45.0000000+00:00</time></trkpt><trkpt lat="63.83192825" lon="-19.20560646"><ele>565.4</ele><time>2012-07-25T19:14:50.0000000+00:00</time></trkpt><trkpt lat="63.83192825" lon="-19.20549583"><ele>566.4</ele><time>2012-07-25T19:14:55.0000000+00:00</time></trkpt><trkpt lat="63.83193588" lon="-19.20538139"><ele>566.1</ele><time>2012-07-25T19:15:00.0000000+00:00</time></trkpt><trkpt lat="63.83194733" lon="-19.20528412"><ele>565.4</ele><time>2012-07-25T19:15:05.0000000+00:00</time></trkpt><trkpt lat="63.8319664" lon="-19.2052803"><ele>563.9</ele><time>2012-07-25T19:15:10.0000000+00:00</time></trkpt><trkpt lat="63.83197784" lon="-19.20528603"><ele>563.3</ele><time>2012-07-25T19:15:15.0000000+00:00</time></trkpt><trkpt lat="63.83197784" lon="-19.2052803"><ele>562.7</ele><time>2012-07-25T19:15:20.0000000+00:00</time></trkpt><trkpt lat="63.83197784" lon="-19.2052784"><ele>562.5</ele><time>2012-07-25T19:15:25.0000000+00:00</time></trkpt><trkpt lat="63.83197784" lon="-19.20527649"><ele>562.3</ele><time>2012-07-25T19:15:30.0000000+00:00</time></trkpt><trkpt lat="63.83197784" lon="-19.20527649"><ele>562.3</ele><time>2012-07-25T19:15:35.0000000+00:00</time></trkpt><trkpt lat="63.8319931" lon="-19.20529366"><ele>561.9</ele><time>2012-07-25T19:15:40.0000000+00:00</time></trkpt><trkpt lat="63.83200836" lon="-19.20530319"><ele>562.3</ele><time>2012-07-25T19:15:45.0000000+00:00</time></trkpt><trkpt lat="63.83200836" lon="-19.20531082"><ele>562.2</ele><time>2012-07-25T19:15:50.0000000+00:00</time></trkpt><trkpt lat="63.83200836" lon="-19.20533371"><ele>561.9</ele><time>2012-07-25T19:15:55.0000000+00:00</time></trkpt><trkpt lat="63.83200455" lon="-19.20532799"><ele>561.8</ele><time>2012-07-25T19:16:00.0000000+00:00</time></trkpt><trkpt lat="63.83200836" lon="-19.20531845"><ele>561.8</ele><time>2012-07-25T19:16:05.0000000+00:00</time></trkpt><trkpt lat="63.83200455" lon="-19.20530891"><ele>561.8</ele><time>2012-07-25T19:16:10.0000000+00:00</time></trkpt><trkpt lat="63.83200455" lon="-19.20529175"><ele>561.8</ele><time>2012-07-25T19:16:15.0000000+00:00</time></trkpt><trkpt lat="63.83200073" lon="-19.2052803"><ele>561.8</ele><time>2012-07-25T19:16:20.0000000+00:00</time></trkpt><trkpt lat="63.83200455" lon="-19.2052803"><ele>561.8</ele><time>2012-07-25T19:16:25.0000000+00:00</time></trkpt><trkpt lat="63.83200455" lon="-19.20528221"><ele>561.8</ele><time>2012-07-25T19:16:30.0000000+00:00</time></trkpt><trkpt lat="63.83200836" lon="-19.20528793"><ele>561.8</ele><time>2012-07-25T19:16:35.0000000+00:00</time></trkpt><trkpt lat="63.83201218" lon="-19.20529556"><ele>561.8</ele><time>2012-07-25T19:16:40.0000000+00:00</time></trkpt><trkpt lat="63.83201218" lon="-19.20529938"><ele>561.8</ele><time>2012-07-25T19:16:45.0000000+00:00</time></trkpt><trkpt lat="63.83201218" lon="-19.20529938"><ele>561.9</ele><time>2012-07-25T19:16:50.0000000+00:00</time></trkpt><trkpt lat="63.83201218" lon="-19.20529938"><ele>561.9</ele><time>2012-07-25T19:16:55.0000000+00:00</time></trkpt><trkpt lat="63.83201218" lon="-19.20529938"><ele>561.9</ele><time>2012-07-25T19:17:00.0000000+00:00</time></trkpt><trkpt lat="63.83201218" lon="-19.20529747"><ele>561.9</ele><time>2012-07-25T19:17:05.0000000+00:00</time></trkpt><trkpt lat="63.83201218" lon="-19.20530129"><ele>561.9</ele><time>2012-07-25T19:17:10.0000000+00:00</time></trkpt><trkpt lat="63.83201218" lon="-19.20530891"><ele>562.0</ele><time>2012-07-25T19:17:15.0000000+00:00</time></trkpt><trkpt lat="63.83201218" lon="-19.20530891"><ele>562.0</ele><time>2012-07-25T19:17:20.0000000+00:00</time></trkpt><trkpt lat="63.83201218" lon="-19.20530701"><ele>562.0</ele><time>2012-07-25T19:17:25.0000000+00:00</time></trkpt><trkpt lat="63.83201218" lon="-19.20530701"><ele>562.0</ele><time>2012-07-25T19:17:30.0000000+00:00</time></trkpt><trkpt lat="63.83201218" lon="-19.20530891"><ele>562.0</ele><time>2012-07-25T19:17:35.0000000+00:00</time></trkpt><trkpt lat="63.83201218" lon="-19.20530891"><ele>562.1</ele><time>2012-07-25T19:17:40.0000000+00:00</time></trkpt><trkpt lat="63.83201218" lon="-19.20530891"><ele>562.1</ele><time>2012-07-25T19:17:45.0000000+00:00</time></trkpt><trkpt lat="63.83201218" lon="-19.20530701"><ele>562.1</ele><time>2012-07-25T19:17:50.0000000+00:00</time></trkpt><trkpt lat="63.83201218" lon="-19.20530701"><ele>562.1</ele><time>2012-07-25T19:17:55.0000000+00:00</time></trkpt><trkpt lat="63.83201218" lon="-19.20530891"><ele>562.2</ele><time>2012-07-25T19:18:00.0000000+00:00</time></trkpt><trkpt lat="63.83201218" lon="-19.20530891"><ele>562.2</ele><time>2012-07-25T19:18:05.0000000+00:00</time></trkpt><trkpt lat="63.83201218" lon="-19.20530701"><ele>562.2</ele><time>2012-07-25T19:18:10.0000000+00:00</time></trkpt><trkpt lat="63.83201218" lon="-19.20530891"><ele>562.2</ele><time>2012-07-25T19:18:15.0000000+00:00</time></trkpt><trkpt lat="63.83201218" lon="-19.20530701"><ele>562.2</ele><time>2012-07-25T19:18:20.0000000+00:00</time></trkpt><trkpt lat="63.83201218" lon="-19.20530701"><ele>562.2</ele><time>2012-07-25T19:18:25.0000000+00:00</time></trkpt><trkpt lat="63.83200836" lon="-19.20530891"><ele>562.2</ele><time>2012-07-25T19:18:30.0000000+00:00</time></trkpt><trkpt lat="63.83200836" lon="-19.20530891"><ele>562.1</ele><time>2012-07-25T19:18:35.0000000+00:00</time></trkpt><trkpt lat="63.83200836" lon="-19.20530891"><ele>562.2</ele><time>2012-07-25T19:18:40.0000000+00:00</time></trkpt><trkpt lat="63.83200836" lon="-19.20530891"><ele>562.1</ele><time>2012-07-25T19:18:45.0000000+00:00</time></trkpt><trkpt lat="63.83200836" lon="-19.20530891"><ele>562.1</ele><time>2012-07-25T19:18:50.0000000+00:00</time></trkpt><trkpt lat="63.83200836" lon="-19.20530891"><ele>562.1</ele><time>2012-07-25T19:18:55.0000000+00:00</time></trkpt><trkpt lat="63.83200836" lon="-19.20530891"><ele>562.1</ele><time>2012-07-25T19:19:00.0000000+00:00</time></trkpt><trkpt lat="63.83200836" lon="-19.20530891"><ele>562.1</ele><time>2012-07-25T19:19:05.0000000+00:00</time></trkpt><trkpt lat="63.83200836" lon="-19.20530891"><ele>562.1</ele><time>2012-07-25T19:19:10.0000000+00:00</time></trkpt><trkpt lat="63.83200836" lon="-19.20530891"><ele>562.1</ele><time>2012-07-25T19:19:15.0000000+00:00</time></trkpt><trkpt lat="63.83200836" lon="-19.20530891"><ele>562.1</ele><time>2012-07-25T19:19:20.0000000+00:00</time></trkpt><trkpt lat="63.83200836" lon="-19.20530891"><ele>562.1</ele><time>2012-07-25T19:19:25.0000000+00:00</time></trkpt><trkpt lat="63.83200836" lon="-19.20530891"><ele>562.1</ele><time>2012-07-25T19:19:30.0000000+00:00</time></trkpt><trkpt lat="63.83200836" lon="-19.20530891"><ele>562.1</ele><time>2012-07-25T19:19:35.0000000+00:00</time></trkpt><trkpt lat="63.83200836" lon="-19.20530891"><ele>562.1</ele><time>2012-07-25T19:19:40.0000000+00:00</time></trkpt><trkpt lat="63.83200836" lon="-19.20530891"><ele>562.1</ele><time>2012-07-25T19:19:45.0000000+00:00</time></trkpt><trkpt lat="63.83200836" lon="-19.20531082"><ele>562.2</ele><time>2012-07-25T19:19:50.0000000+00:00</time></trkpt><trkpt lat="63.83200836" lon="-19.20531082"><ele>562.1</ele><time>2012-07-25T19:19:55.0000000+00:00</time></trkpt><trkpt lat="63.83200836" lon="-19.20531082"><ele>562.1</ele><time>2012-07-25T19:20:00.0000000+00:00</time></trkpt><trkpt lat="63.83200836" lon="-19.20531082"><ele>562.1</ele><time>2012-07-25T19:20:05.0000000+00:00</time></trkpt><trkpt lat="63.83200836" lon="-19.20531082"><ele>562.1</ele><time>2012-07-25T19:20:10.0000000+00:00</time></trkpt><trkpt lat="63.83200836" lon="-19.20531082"><ele>562.1</ele><time>2012-07-25T19:20:15.0000000+00:00</time></trkpt><trkpt lat="63.83200836" lon="-19.20531082"><ele>562.1</ele><time>2012-07-25T19:20:20.0000000+00:00</time></trkpt><trkpt lat="63.83200836" lon="-19.20531082"><ele>562.1</ele><time>2012-07-25T19:20:25.0000000+00:00</time></trkpt><trkpt lat="63.83200836" lon="-19.20531082"><ele>562.1</ele><time>2012-07-25T19:20:30.0000000+00:00</time></trkpt><trkpt lat="63.83200836" lon="-19.20530319"><ele>562.0</ele><time>2012-07-25T19:20:35.0000000+00:00</time></trkpt><trkpt lat="63.83200836" lon="-19.20530129"><ele>562.0</ele><time>2012-07-25T19:20:40.0000000+00:00</time></trkpt><trkpt lat="63.83200836" lon="-19.20530129"><ele>562.0</ele><time>2012-07-25T19:20:45.0000000+00:00</time></trkpt><trkpt lat="63.83200836" lon="-19.20530129"><ele>562.0</ele><time>2012-07-25T19:20:50.0000000+00:00</time></trkpt><trkpt lat="63.83200836" lon="-19.20530129"><ele>562.0</ele><time>2012-07-25T19:20:55.0000000+00:00</time></trkpt><trkpt lat="63.83200836" lon="-19.20530129"><ele>562.0</ele><time>2012-07-25T19:21:00.0000000+00:00</time></trkpt><trkpt lat="63.83200073" lon="-19.20528793"><ele>561.8</ele><time>2012-07-25T19:21:05.0000000+00:00</time></trkpt></trkseg><trkseg><trkpt lat="63.831604" lon="-19.20549202"><ele>542.6</ele><time>2012-07-26T10:39:34.0000000+00:00</time></trkpt><trkpt lat="63.83161926" lon="-19.20549965"><ele>548.4</ele><time>2012-07-26T10:39:39.0000000+00:00</time></trkpt><trkpt lat="63.8316536" lon="-19.20544243"><ele>551.4</ele><time>2012-07-26T10:39:44.0000000+00:00</time></trkpt><trkpt lat="63.83166504" lon="-19.20537758"><ele>550.1</ele><time>2012-07-26T10:39:49.0000000+00:00</time></trkpt><trkpt lat="63.83169556" lon="-19.20533752"><ele>553.4</ele><time>2012-07-26T10:39:54.0000000+00:00</time></trkpt><trkpt lat="63.83172989" lon="-19.20532227"><ele>558.3</ele><time>2012-07-26T10:39:59.0000000+00:00</time></trkpt><trkpt lat="63.83175659" lon="-19.20531082"><ele>560.5</ele><time>2012-07-26T10:40:04.0000000+00:00</time></trkpt><trkpt lat="63.83176804" lon="-19.20531464"><ele>559.6</ele><time>2012-07-26T10:40:09.0000000+00:00</time></trkpt><trkpt lat="63.83176422" lon="-19.20531082"><ele>559.5</ele><time>2012-07-26T10:40:14.0000000+00:00</time></trkpt><trkpt lat="63.83175278" lon="-19.20531464"><ele>559.0</ele><time>2012-07-26T10:40:19.0000000+00:00</time></trkpt><trkpt lat="63.8317337" lon="-19.20530129"><ele>559.0</ele><time>2012-07-26T10:40:24.0000000+00:00</time></trkpt><trkpt lat="63.8317337" lon="-19.20529938"><ele>559.0</ele><time>2012-07-26T10:40:29.0000000+00:00</time></trkpt><trkpt lat="63.83172607" lon="-19.20530891"><ele>558.5</ele><time>2012-07-26T10:40:34.0000000+00:00</time></trkpt><trkpt lat="63.83184433" lon="-19.20529175"><ele>577.5</ele><time>2012-07-26T10:40:39.0000000+00:00</time></trkpt><trkpt lat="63.83185577" lon="-19.20525932"><ele>579.5</ele><time>2012-07-26T10:40:44.0000000+00:00</time></trkpt><trkpt lat="63.83185577" lon="-19.20525742"><ele>579.5</ele><time>2012-07-26T10:40:49.0000000+00:00</time></trkpt><trkpt lat="63.83182526" lon="-19.20527458"><ele>575.2</ele><time>2012-07-26T10:40:54.0000000+00:00</time></trkpt><trkpt lat="63.83176422" lon="-19.20532036"><ele>570.5</ele><time>2012-07-26T10:40:59.0000000+00:00</time></trkpt><trkpt lat="63.83174896" lon="-19.20534515"><ele>568.9</ele><time>2012-07-26T10:41:04.0000000+00:00</time></trkpt><trkpt lat="63.83174896" lon="-19.20535088"><ele>568.9</ele><time>2012-07-26T10:41:09.0000000+00:00</time></trkpt><trkpt lat="63.83174515" lon="-19.20535469"><ele>568.9</ele><time>2012-07-26T10:41:14.0000000+00:00</time></trkpt><trkpt lat="63.83174515" lon="-19.2053566"><ele>568.8</ele><time>2012-07-26T10:41:19.0000000+00:00</time></trkpt><trkpt lat="63.83174133" lon="-19.20534325"><ele>568.8</ele><time>2012-07-26T10:41:24.0000000+00:00</time></trkpt><trkpt lat="63.83174515" lon="-19.20534134"><ele>568.8</ele><time>2012-07-26T10:41:29.0000000+00:00</time></trkpt><trkpt lat="63.83173752" lon="-19.20534325"><ele>568.8</ele><time>2012-07-26T10:41:34.0000000+00:00</time></trkpt><trkpt lat="63.83173752" lon="-19.20533371"><ele>568.8</ele><time>2012-07-26T10:41:39.0000000+00:00</time></trkpt><trkpt lat="63.83173752" lon="-19.2053299"><ele>568.8</ele><time>2012-07-26T10:41:44.0000000+00:00</time></trkpt><trkpt lat="63.83174515" lon="-19.2052803"><ele>568.7</ele><time>2012-07-26T10:41:49.0000000+00:00</time></trkpt><trkpt lat="63.83174133" lon="-19.20526695"><ele>568.6</ele><time>2012-07-26T10:41:54.0000000+00:00</time></trkpt><trkpt lat="63.83174133" lon="-19.20529938"><ele>569.5</ele><time>2012-07-26T10:41:59.0000000+00:00</time></trkpt><trkpt lat="63.8317337" lon="-19.2053051"><ele>569.8</ele><time>2012-07-26T10:42:04.0000000+00:00</time></trkpt><trkpt lat="63.83172989" lon="-19.20532227"><ele>569.9</ele><time>2012-07-26T10:42:09.0000000+00:00</time></trkpt><trkpt lat="63.8317337" lon="-19.20534515"><ele>570.5</ele><time>2012-07-26T10:42:14.0000000+00:00</time></trkpt><trkpt lat="63.83172989" lon="-19.20533562"><ele>570.3</ele><time>2012-07-26T10:42:19.0000000+00:00</time></trkpt><trkpt lat="63.8317337" lon="-19.20533562"><ele>570.1</ele><time>2012-07-26T10:42:24.0000000+00:00</time></trkpt><trkpt lat="63.83172989" lon="-19.20532608"><ele>570.0</ele><time>2012-07-26T10:42:29.0000000+00:00</time></trkpt><trkpt lat="63.83172607" lon="-19.20531273"><ele>570.0</ele><time>2012-07-26T10:42:34.0000000+00:00</time></trkpt><trkpt lat="63.83172989" lon="-19.20529747"><ele>570.1</ele><time>2012-07-26T10:42:39.0000000+00:00</time></trkpt><trkpt lat="63.8317337" lon="-19.20529366"><ele>570.2</ele><time>2012-07-26T10:42:44.0000000+00:00</time></trkpt><trkpt lat="63.83173752" lon="-19.20532799"><ele>570.4</ele><time>2012-07-26T10:42:49.0000000+00:00</time></trkpt><trkpt lat="63.8317337" lon="-19.20533371"><ele>570.6</ele><time>2012-07-26T10:42:54.0000000+00:00</time></trkpt><trkpt lat="63.83173752" lon="-19.20536423"><ele>570.8</ele><time>2012-07-26T10:42:59.0000000+00:00</time></trkpt><trkpt lat="63.83173752" lon="-19.20535851"><ele>570.9</ele><time>2012-07-26T10:43:04.0000000+00:00</time></trkpt><trkpt lat="63.83173752" lon="-19.20535469"><ele>570.8</ele><time>2012-07-26T10:43:09.0000000+00:00</time></trkpt><trkpt lat="63.83174133" lon="-19.20534706"><ele>570.8</ele><time>2012-07-26T10:43:14.0000000+00:00</time></trkpt><trkpt lat="63.83174133" lon="-19.20534134"><ele>570.8</ele><time>2012-07-26T10:43:19.0000000+00:00</time></trkpt><trkpt lat="63.83174133" lon="-19.20533943"><ele>570.8</ele><time>2012-07-26T10:43:24.0000000+00:00</time></trkpt><trkpt lat="63.83174133" lon="-19.20534134"><ele>570.8</ele><time>2012-07-26T10:43:29.0000000+00:00</time></trkpt><trkpt lat="63.83174133" lon="-19.20534134"><ele>570.8</ele><time>2012-07-26T10:43:34.0000000+00:00</time></trkpt><trkpt lat="63.83174133" lon="-19.20534134"><ele>570.8</ele><time>2012-07-26T10:43:39.0000000+00:00</time></trkpt><trkpt lat="63.83174133" lon="-19.20534325"><ele>570.7</ele><time>2012-07-26T10:43:44.0000000+00:00</time></trkpt><trkpt lat="63.83173752" lon="-19.20534325"><ele>570.7</ele><time>2012-07-26T10:43:49.0000000+00:00</time></trkpt><trkpt lat="63.83174515" lon="-19.20534134"><ele>570.7</ele><time>2012-07-26T10:43:54.0000000+00:00</time></trkpt><trkpt lat="63.83173752" lon="-19.20531082"><ele>570.5</ele><time>2012-07-26T10:43:59.0000000+00:00</time></trkpt><trkpt lat="63.83172226" lon="-19.20531654"><ele>569.9</ele><time>2012-07-26T10:44:04.0000000+00:00</time></trkpt><trkpt lat="63.83172226" lon="-19.20531273"><ele>569.8</ele><time>2012-07-26T10:44:09.0000000+00:00</time></trkpt><trkpt lat="63.83171845" lon="-19.20531654"><ele>569.8</ele><time>2012-07-26T10:44:14.0000000+00:00</time></trkpt><trkpt lat="63.83172226" lon="-19.20531273"><ele>569.8</ele><time>2012-07-26T10:44:19.0000000+00:00</time></trkpt><trkpt lat="63.83172226" lon="-19.20531082"><ele>569.8</ele><time>2012-07-26T10:44:24.0000000+00:00</time></trkpt><trkpt lat="63.83172226" lon="-19.20531082"><ele>569.6</ele><time>2012-07-26T10:44:29.0000000+00:00</time></trkpt><trkpt lat="63.83172226" lon="-19.2053299"><ele>569.3</ele><time>2012-07-26T10:44:34.0000000+00:00</time></trkpt><trkpt lat="63.83172226" lon="-19.20532799"><ele>569.3</ele><time>2012-07-26T10:44:39.0000000+00:00</time></trkpt><trkpt lat="63.83171845" lon="-19.20532608"><ele>569.3</ele><time>2012-07-26T10:44:44.0000000+00:00</time></trkpt><trkpt lat="63.83171463" lon="-19.20531845"><ele>569.2</ele><time>2012-07-26T10:44:49.0000000+00:00</time></trkpt><trkpt lat="63.83171463" lon="-19.20531082"><ele>569.2</ele><time>2012-07-26T10:44:54.0000000+00:00</time></trkpt><trkpt lat="63.831707" lon="-19.2053299"><ele>569.4</ele><time>2012-07-26T10:44:59.0000000+00:00</time></trkpt><trkpt lat="63.83170319" lon="-19.20538521"><ele>569.6</ele><time>2012-07-26T10:45:04.0000000+00:00</time></trkpt><trkpt lat="63.83169556" lon="-19.20541954"><ele>569.8</ele><time>2012-07-26T10:45:09.0000000+00:00</time></trkpt><trkpt lat="63.83169937" lon="-19.20542908"><ele>569.8</ele><time>2012-07-26T10:45:14.0000000+00:00</time></trkpt><trkpt lat="63.83169937" lon="-19.20544434"><ele>569.8</ele><time>2012-07-26T10:45:19.0000000+00:00</time></trkpt><trkpt lat="63.83170319" lon="-19.20545197"><ele>569.8</ele><time>2012-07-26T10:45:24.0000000+00:00</time></trkpt><trkpt lat="63.83171082" lon="-19.20545769"><ele>569.8</ele><time>2012-07-26T10:45:29.0000000+00:00</time></trkpt><trkpt lat="63.83171082" lon="-19.20544624"><ele>569.8</ele><time>2012-07-26T10:45:34.0000000+00:00</time></trkpt><trkpt lat="63.83171463" lon="-19.20545197"><ele>569.8</ele><time>2012-07-26T10:45:39.0000000+00:00</time></trkpt><trkpt lat="63.83171463" lon="-19.20545006"><ele>569.8</ele><time>2012-07-26T10:45:44.0000000+00:00</time></trkpt><trkpt lat="63.83171845" lon="-19.20544434"><ele>569.8</ele><time>2012-07-26T10:45:49.0000000+00:00</time></trkpt><trkpt lat="63.83171463" lon="-19.20543098"><ele>569.7</ele><time>2012-07-26T10:45:54.0000000+00:00</time></trkpt><trkpt lat="63.83171082" lon="-19.20536804"><ele>569.8</ele><time>2012-07-26T10:45:59.0000000+00:00</time></trkpt><trkpt lat="63.83172226" lon="-19.20535469"><ele>570.5</ele><time>2012-07-26T10:46:04.0000000+00:00</time></trkpt><trkpt lat="63.83172607" lon="-19.20534706"><ele>570.4</ele><time>2012-07-26T10:46:09.0000000+00:00</time></trkpt><trkpt lat="63.8317337" lon="-19.20535851"><ele>570.4</ele><time>2012-07-26T10:46:14.0000000+00:00</time></trkpt><trkpt lat="63.8317337" lon="-19.20536232"><ele>570.4</ele><time>2012-07-26T10:46:19.0000000+00:00</time></trkpt><trkpt lat="63.8317337" lon="-19.20537186"><ele>570.3</ele><time>2012-07-26T10:46:24.0000000+00:00</time></trkpt><trkpt lat="63.8317337" lon="-19.20537376"><ele>570.3</ele><time>2012-07-26T10:46:29.0000000+00:00</time></trkpt><trkpt lat="63.83172989" lon="-19.2053299"><ele>570.4</ele><time>2012-07-26T10:46:34.0000000+00:00</time></trkpt><trkpt lat="63.83173752" lon="-19.2053566"><ele>570.6</ele><time>2012-07-26T10:46:39.0000000+00:00</time></trkpt><trkpt lat="63.83173752" lon="-19.20535851"><ele>570.4</ele><time>2012-07-26T10:46:44.0000000+00:00</time></trkpt><trkpt lat="63.83174515" lon="-19.20540428"><ele>570.2</ele><time>2012-07-26T10:46:49.0000000+00:00</time></trkpt><trkpt lat="63.8317337" lon="-19.20541954"><ele>570.7</ele><time>2012-07-26T10:46:54.0000000+00:00</time></trkpt><trkpt lat="63.8317337" lon="-19.20542717"><ele>570.1</ele><time>2012-07-26T10:46:59.0000000+00:00</time></trkpt><trkpt lat="63.8317337" lon="-19.20543098"><ele>569.7</ele><time>2012-07-26T10:47:04.0000000+00:00</time></trkpt><trkpt lat="63.8317337" lon="-19.20542908"><ele>569.5</ele><time>2012-07-26T10:47:09.0000000+00:00</time></trkpt><trkpt lat="63.8317337" lon="-19.20542908"><ele>569.5</ele><time>2012-07-26T10:47:14.0000000+00:00</time></trkpt><trkpt lat="63.8317337" lon="-19.20542717"><ele>569.5</ele><time>2012-07-26T10:47:19.0000000+00:00</time></trkpt><trkpt lat="63.8317337" lon="-19.20542717"><ele>569.5</ele><time>2012-07-26T10:47:24.0000000+00:00</time></trkpt><trkpt lat="63.8317337" lon="-19.20542717"><ele>569.5</ele><time>2012-07-26T10:47:29.0000000+00:00</time></trkpt><trkpt lat="63.8317337" lon="-19.20542717"><ele>569.5</ele><time>2012-07-26T10:47:34.0000000+00:00</time></trkpt><trkpt lat="63.83174133" lon="-19.20542336"><ele>569.6</ele><time>2012-07-26T10:47:39.0000000+00:00</time></trkpt><trkpt lat="63.83174515" lon="-19.20541573"><ele>569.7</ele><time>2012-07-26T10:47:44.0000000+00:00</time></trkpt><trkpt lat="63.83174896" lon="-19.20540619"><ele>569.7</ele><time>2012-07-26T10:47:49.0000000+00:00</time></trkpt><trkpt lat="63.83175278" lon="-19.20539856"><ele>569.9</ele><time>2012-07-26T10:47:54.0000000+00:00</time></trkpt><trkpt lat="63.83175659" lon="-19.20538712"><ele>570.0</ele><time>2012-07-26T10:47:59.0000000+00:00</time></trkpt><trkpt lat="63.83175659" lon="-19.20537949"><ele>570.1</ele><time>2012-07-26T10:48:04.0000000+00:00</time></trkpt><trkpt lat="63.83175659" lon="-19.20537186"><ele>570.3</ele><time>2012-07-26T10:48:09.0000000+00:00</time></trkpt><trkpt lat="63.83175659" lon="-19.20536614"><ele>570.5</ele><time>2012-07-26T10:48:14.0000000+00:00</time></trkpt><trkpt lat="63.83176041" lon="-19.20534325"><ele>570.8</ele><time>2012-07-26T10:48:19.0000000+00:00</time></trkpt><trkpt lat="63.83175278" lon="-19.20534134"><ele>570.5</ele><time>2012-07-26T10:48:24.0000000+00:00</time></trkpt><trkpt lat="63.83174896" lon="-19.20534325"><ele>570.5</ele><time>2012-07-26T10:48:29.0000000+00:00</time></trkpt><trkpt lat="63.83174896" lon="-19.20534515"><ele>570.4</ele><time>2012-07-26T10:48:34.0000000+00:00</time></trkpt><trkpt lat="63.83174896" lon="-19.20534515"><ele>570.4</ele><time>2012-07-26T10:48:39.0000000+00:00</time></trkpt><trkpt lat="63.83174896" lon="-19.20534515"><ele>570.5</ele><time>2012-07-26T10:48:44.0000000+00:00</time></trkpt><trkpt lat="63.83174896" lon="-19.20534515"><ele>570.5</ele><time>2012-07-26T10:48:49.0000000+00:00</time></trkpt><trkpt lat="63.83175278" lon="-19.20533943"><ele>570.4</ele><time>2012-07-26T10:48:54.0000000+00:00</time></trkpt><trkpt lat="63.83174896" lon="-19.20530701"><ele>570.0</ele><time>2012-07-26T10:48:59.0000000+00:00</time></trkpt><trkpt lat="63.83174515" lon="-19.20529366"><ele>569.8</ele><time>2012-07-26T10:49:04.0000000+00:00</time></trkpt><trkpt lat="63.83177567" lon="-19.20521927"><ele>569.7</ele><time>2012-07-26T10:49:09.0000000+00:00</time></trkpt><trkpt lat="63.83180237" lon="-19.20516586"><ele>569.6</ele><time>2012-07-26T10:49:14.0000000+00:00</time></trkpt><trkpt lat="63.83182907" lon="-19.20520401"><ele>568.4</ele><time>2012-07-26T10:49:19.0000000+00:00</time></trkpt><trkpt lat="63.83186722" lon="-19.20526886"><ele>567.8</ele><time>2012-07-26T10:49:24.0000000+00:00</time></trkpt><trkpt lat="63.83189392" lon="-19.20542908"><ele>567.8</ele><time>2012-07-26T10:49:29.0000000+00:00</time></trkpt><trkpt lat="63.83191681" lon="-19.20554924"><ele>566.4</ele><time>2012-07-26T10:49:34.0000000+00:00</time></trkpt><trkpt lat="63.83190537" lon="-19.20572281"><ele>566.3</ele><time>2012-07-26T10:49:39.0000000+00:00</time></trkpt><trkpt lat="63.83189774" lon="-19.20590591"><ele>566.6</ele><time>2012-07-26T10:49:44.0000000+00:00</time></trkpt><trkpt lat="63.83190537" lon="-19.20608902"><ele>566.7</ele><time>2012-07-26T10:49:49.0000000+00:00</time></trkpt><trkpt lat="63.83192062" lon="-19.20623589"><ele>566.8</ele><time>2012-07-26T10:49:54.0000000+00:00</time></trkpt><trkpt lat="63.83193207" lon="-19.20628929"><ele>567.3</ele><time>2012-07-26T10:49:59.0000000+00:00</time></trkpt><trkpt lat="63.83192444" lon="-19.2062645"><ele>568.0</ele><time>2012-07-26T10:50:04.0000000+00:00</time></trkpt><trkpt lat="63.83191299" lon="-19.2062645"><ele>568.1</ele><time>2012-07-26T10:50:09.0000000+00:00</time></trkpt><trkpt lat="63.83191299" lon="-19.2062645"><ele>568.1</ele><time>2012-07-26T10:50:14.0000000+00:00</time></trkpt><trkpt lat="63.83191681" lon="-19.20625877"><ele>568.1</ele><time>2012-07-26T10:50:19.0000000+00:00</time></trkpt><trkpt lat="63.83192062" lon="-19.20625877"><ele>568.2</ele><time>2012-07-26T10:50:24.0000000+00:00</time></trkpt><trkpt lat="63.83192444" lon="-19.20626259"><ele>568.2</ele><time>2012-07-26T10:50:29.0000000+00:00</time></trkpt><trkpt lat="63.83192825" lon="-19.20627213"><ele>568.2</ele><time>2012-07-26T10:50:34.0000000+00:00</time></trkpt><trkpt lat="63.8319397" lon="-19.20628357"><ele>568.2</ele><time>2012-07-26T10:50:39.0000000+00:00</time></trkpt><trkpt lat="63.8319397" lon="-19.20630074"><ele>568.2</ele><time>2012-07-26T10:50:44.0000000+00:00</time></trkpt><trkpt lat="63.83192825" lon="-19.20613861"><ele>567.6</ele><time>2012-07-26T10:50:49.0000000+00:00</time></trkpt><trkpt lat="63.83192062" lon="-19.20598412"><ele>567.3</ele><time>2012-07-26T10:50:54.0000000+00:00</time></trkpt><trkpt lat="63.83190537" lon="-19.20583916"><ele>567.0</ele><time>2012-07-26T10:50:59.0000000+00:00</time></trkpt><trkpt lat="63.83187485" lon="-19.20572472"><ele>567.1</ele><time>2012-07-26T10:51:04.0000000+00:00</time></trkpt><trkpt lat="63.83187103" lon="-19.20562553"><ele>567.7</ele><time>2012-07-26T10:51:09.0000000+00:00</time></trkpt><trkpt lat="63.83192062" lon="-19.20552445"><ele>568.5</ele><time>2012-07-26T10:51:14.0000000+00:00</time></trkpt><trkpt lat="63.83194351" lon="-19.20544243"><ele>569.0</ele><time>2012-07-26T10:51:19.0000000+00:00</time></trkpt><trkpt lat="63.83193207" lon="-19.20528221"><ele>565.4</ele><time>2012-07-26T10:51:24.0000000+00:00</time></trkpt><trkpt lat="63.83189392" lon="-19.20526505"><ele>564.3</ele><time>2012-07-26T10:51:29.0000000+00:00</time></trkpt><trkpt lat="63.8318634" lon="-19.20519447"><ele>563.3</ele><time>2012-07-26T10:51:34.0000000+00:00</time></trkpt><trkpt lat="63.83180237" lon="-19.20519829"><ele>563.9</ele><time>2012-07-26T10:51:39.0000000+00:00</time></trkpt><trkpt lat="63.83175659" lon="-19.20526123"><ele>565.8</ele><time>2012-07-26T10:51:44.0000000+00:00</time></trkpt><trkpt lat="63.83173752" lon="-19.20536232"><ele>565.3</ele><time>2012-07-26T10:51:49.0000000+00:00</time></trkpt><trkpt lat="63.83172607" lon="-19.20538139"><ele>565.6</ele><time>2012-07-26T10:51:54.0000000+00:00</time></trkpt><trkpt lat="63.83172607" lon="-19.20538521"><ele>566.9</ele><time>2012-07-26T10:51:59.0000000+00:00</time></trkpt><trkpt lat="63.83172989" lon="-19.20539093"><ele>567.7</ele><time>2012-07-26T10:52:04.0000000+00:00</time></trkpt><trkpt lat="63.83172989" lon="-19.20539093"><ele>567.8</ele><time>2012-07-26T10:52:09.0000000+00:00</time></trkpt><trkpt lat="63.83172989" lon="-19.20539284"><ele>567.8</ele><time>2012-07-26T10:52:14.0000000+00:00</time></trkpt><trkpt lat="63.83173752" lon="-19.20536995"><ele>567.8</ele><time>2012-07-26T10:52:19.0000000+00:00</time></trkpt><trkpt lat="63.83174133" lon="-19.20536995"><ele>568.0</ele><time>2012-07-26T10:52:24.0000000+00:00</time></trkpt><trkpt lat="63.83174133" lon="-19.20536614"><ele>568.0</ele><time>2012-07-26T10:52:29.0000000+00:00</time></trkpt><trkpt lat="63.83174515" lon="-19.20536232"><ele>568.1</ele><time>2012-07-26T10:52:34.0000000+00:00</time></trkpt><trkpt lat="63.83174133" lon="-19.20537186"><ele>568.1</ele><time>2012-07-26T10:52:39.0000000+00:00</time></trkpt><trkpt lat="63.83174133" lon="-19.20536804"><ele>568.1</ele><time>2012-07-26T10:52:44.0000000+00:00</time></trkpt><trkpt lat="63.83174133" lon="-19.20536995"><ele>568.1</ele><time>2012-07-26T10:52:49.0000000+00:00</time></trkpt><trkpt lat="63.83174133" lon="-19.20536614"><ele>568.1</ele><time>2012-07-26T10:52:54.0000000+00:00</time></trkpt><trkpt lat="63.83174133" lon="-19.20536614"><ele>568.1</ele><time>2012-07-26T10:52:59.0000000+00:00</time></trkpt><trkpt lat="63.83174133" lon="-19.20536232"><ele>568.0</ele><time>2012-07-26T10:53:04.0000000+00:00</time></trkpt><trkpt lat="63.83174133" lon="-19.20535851"><ele>567.9</ele><time>2012-07-26T10:53:09.0000000+00:00</time></trkpt><trkpt lat="63.83174133" lon="-19.20536423"><ele>567.9</ele><time>2012-07-26T10:53:14.0000000+00:00</time></trkpt><trkpt lat="63.83174133" lon="-19.20536804"><ele>567.9</ele><time>2012-07-26T10:53:19.0000000+00:00</time></trkpt><trkpt lat="63.83172607" lon="-19.20531654"><ele>567.3</ele><time>2012-07-26T10:53:24.0000000+00:00</time></trkpt><trkpt lat="63.8317337" lon="-19.20529747"><ele>567.2</ele><time>2012-07-26T10:53:29.0000000+00:00</time></trkpt><trkpt lat="63.8317337" lon="-19.20529175"><ele>566.9</ele><time>2012-07-26T10:53:34.0000000+00:00</time></trkpt><trkpt lat="63.83176041" lon="-19.20523071"><ele>566.5</ele><time>2012-07-26T10:53:39.0000000+00:00</time></trkpt><trkpt lat="63.83177185" lon="-19.2052002"><ele>566.1</ele><time>2012-07-26T10:53:44.0000000+00:00</time></trkpt><trkpt lat="63.83174515" lon="-19.20527268"><ele>565.6</ele><time>2012-07-26T10:53:49.0000000+00:00</time></trkpt><trkpt lat="63.83172989" lon="-19.2052784"><ele>565.8</ele><time>2012-07-26T10:53:54.0000000+00:00</time></trkpt><trkpt lat="63.83172989" lon="-19.2052803"><ele>565.7</ele><time>2012-07-26T10:53:59.0000000+00:00</time></trkpt><trkpt lat="63.83172989" lon="-19.20528412"><ele>565.7</ele><time>2012-07-26T10:54:04.0000000+00:00</time></trkpt><trkpt lat="63.83172989" lon="-19.20529175"><ele>565.7</ele><time>2012-07-26T10:54:09.0000000+00:00</time></trkpt><trkpt lat="63.8317337" lon="-19.20526505"><ele>565.7</ele><time>2012-07-26T10:54:14.0000000+00:00</time></trkpt><trkpt lat="63.83176422" lon="-19.20516968"><ele>565.8</ele><time>2012-07-26T10:54:19.0000000+00:00</time></trkpt><trkpt lat="63.83179474" lon="-19.2050972"><ele>566.0</ele><time>2012-07-26T10:54:24.0000000+00:00</time></trkpt><trkpt lat="63.83179474" lon="-19.20498085"><ele>567.3</ele><time>2012-07-26T10:54:29.0000000+00:00</time></trkpt><trkpt lat="63.83180237" lon="-19.20483589"><ele>567.4</ele><time>2012-07-26T10:54:34.0000000+00:00</time></trkpt><trkpt lat="63.83183289" lon="-19.20475197"><ele>567.3</ele><time>2012-07-26T10:54:39.0000000+00:00</time></trkpt><trkpt lat="63.83185959" lon="-19.20464897"><ele>569.1</ele><time>2012-07-26T10:54:44.0000000+00:00</time></trkpt><trkpt lat="63.83185959" lon="-19.20464134"><ele>569.4</ele><time>2012-07-26T10:54:49.0000000+00:00</time></trkpt><trkpt lat="63.83184815" lon="-19.20463371"><ele>569.6</ele><time>2012-07-26T10:54:54.0000000+00:00</time></trkpt><trkpt lat="63.83182526" lon="-19.20462608"><ele>570.2</ele><time>2012-07-26T10:54:59.0000000+00:00</time></trkpt><trkpt lat="63.83179092" lon="-19.20458794"><ele>570.2</ele><time>2012-07-26T10:55:04.0000000+00:00</time></trkpt><trkpt lat="63.83175278" lon="-19.2045536"><ele>570.6</ele><time>2012-07-26T10:55:09.0000000+00:00</time></trkpt><trkpt lat="63.8317337" lon="-19.20454598"><ele>571.0</ele><time>2012-07-26T10:55:14.0000000+00:00</time></trkpt><trkpt lat="63.83177185" lon="-19.20460129"><ele>570.5</ele><time>2012-07-26T10:55:19.0000000+00:00</time></trkpt><trkpt lat="63.83177185" lon="-19.2046051"><ele>570.8</ele><time>2012-07-26T10:55:24.0000000+00:00</time></trkpt><trkpt lat="63.83176422" lon="-19.20460701"><ele>571.1</ele><time>2012-07-26T10:55:29.0000000+00:00</time></trkpt><trkpt lat="63.83176422" lon="-19.20460892"><ele>571.3</ele><time>2012-07-26T10:55:34.0000000+00:00</time></trkpt><trkpt lat="63.83176422" lon="-19.20461083"><ele>571.6</ele><time>2012-07-26T10:55:39.0000000+00:00</time></trkpt><trkpt lat="63.83176422" lon="-19.20460701"><ele>571.7</ele><time>2012-07-26T10:55:44.0000000+00:00</time></trkpt><trkpt lat="63.83176041" lon="-19.20460129"><ele>571.8</ele><time>2012-07-26T10:55:49.0000000+00:00</time></trkpt><trkpt lat="63.83176041" lon="-19.2046032"><ele>571.8</ele><time>2012-07-26T10:55:54.0000000+00:00</time></trkpt><trkpt lat="63.83175659" lon="-19.2046051"><ele>571.8</ele><time>2012-07-26T10:55:59.0000000+00:00</time></trkpt><trkpt lat="63.83174896" lon="-19.20460892"><ele>571.8</ele><time>2012-07-26T10:56:04.0000000+00:00</time></trkpt><trkpt lat="63.83175278" lon="-19.20466042"><ele>571.6</ele><time>2012-07-26T10:56:09.0000000+00:00</time></trkpt><trkpt lat="63.83176804" lon="-19.20481491"><ele>571.8</ele><time>2012-07-26T10:56:14.0000000+00:00</time></trkpt><trkpt lat="63.83174133" lon="-19.20495224"><ele>571.2</ele><time>2012-07-26T10:56:19.0000000+00:00</time></trkpt><trkpt lat="63.83170319" lon="-19.20505333"><ele>572.2</ele><time>2012-07-26T10:56:24.0000000+00:00</time></trkpt><trkpt lat="63.8316803" lon="-19.20518303"><ele>571.2</ele><time>2012-07-26T10:56:29.0000000+00:00</time></trkpt><trkpt lat="63.83171463" lon="-19.20529175"><ele>570.8</ele><time>2012-07-26T10:56:34.0000000+00:00</time></trkpt><trkpt lat="63.83174133" lon="-19.20528984"><ele>571.0</ele><time>2012-07-26T10:56:39.0000000+00:00</time></trkpt><trkpt lat="63.83174515" lon="-19.20529366"><ele>571.5</ele><time>2012-07-26T10:56:44.0000000+00:00</time></trkpt><trkpt lat="63.83174515" lon="-19.20529366"><ele>571.9</ele><time>2012-07-26T10:56:49.0000000+00:00</time></trkpt><trkpt lat="63.83174515" lon="-19.20529366"><ele>572.3</ele><time>2012-07-26T10:56:54.0000000+00:00</time></trkpt><trkpt lat="63.83174896" lon="-19.20529556"><ele>572.8</ele><time>2012-07-26T10:56:59.0000000+00:00</time></trkpt><trkpt lat="63.83175278" lon="-19.20529366"><ele>573.3</ele><time>2012-07-26T10:57:04.0000000+00:00</time></trkpt><trkpt lat="63.83175278" lon="-19.20529556"><ele>573.8</ele><time>2012-07-26T10:57:09.0000000+00:00</time></trkpt><trkpt lat="63.83174896" lon="-19.20529747"><ele>574.2</ele><time>2012-07-26T10:57:14.0000000+00:00</time></trkpt><trkpt lat="63.83174896" lon="-19.20529366"><ele>574.6</ele><time>2012-07-26T10:57:19.0000000+00:00</time></trkpt><trkpt lat="63.83174896" lon="-19.20530129"><ele>575.1</ele><time>2012-07-26T10:57:24.0000000+00:00</time></trkpt><trkpt lat="63.83175278" lon="-19.20530129"><ele>575.4</ele><time>2012-07-26T10:57:29.0000000+00:00</time></trkpt><trkpt lat="63.83175278" lon="-19.20530129"><ele>575.5</ele><time>2012-07-26T10:57:34.0000000+00:00</time></trkpt><trkpt lat="63.83175278" lon="-19.20531273"><ele>575.5</ele><time>2012-07-26T10:57:39.0000000+00:00</time></trkpt><trkpt lat="63.83175278" lon="-19.20532608"><ele>575.5</ele><time>2012-07-26T10:57:44.0000000+00:00</time></trkpt><trkpt lat="63.83174896" lon="-19.20533752"><ele>575.5</ele><time>2012-07-26T10:57:49.0000000+00:00</time></trkpt><trkpt lat="63.83175278" lon="-19.20535278"><ele>575.5</ele><time>2012-07-26T10:57:54.0000000+00:00</time></trkpt><trkpt lat="63.83175278" lon="-19.20536423"><ele>575.4</ele><time>2012-07-26T10:57:59.0000000+00:00</time></trkpt><trkpt lat="63.83175278" lon="-19.20537949"><ele>575.4</ele><time>2012-07-26T10:58:04.0000000+00:00</time></trkpt><trkpt lat="63.83175278" lon="-19.20539093"><ele>575.4</ele><time>2012-07-26T10:58:09.0000000+00:00</time></trkpt><trkpt lat="63.83174896" lon="-19.20539284"><ele>575.3</ele><time>2012-07-26T10:58:14.0000000+00:00</time></trkpt><trkpt lat="63.83174515" lon="-19.20539475"><ele>575.3</ele><time>2012-07-26T10:58:19.0000000+00:00</time></trkpt><trkpt lat="63.83173752" lon="-19.20539093"><ele>575.2</ele><time>2012-07-26T10:58:24.0000000+00:00</time></trkpt><trkpt lat="63.83173752" lon="-19.20538902"><ele>575.1</ele><time>2012-07-26T10:58:29.0000000+00:00</time></trkpt><trkpt lat="63.83174133" lon="-19.20537758"><ele>575.0</ele><time>2012-07-26T10:58:34.0000000+00:00</time></trkpt><trkpt lat="63.83175659" lon="-19.20545197"><ele>575.0</ele><time>2012-07-26T10:58:39.0000000+00:00</time></trkpt><trkpt lat="63.83176041" lon="-19.2054348"><ele>574.8</ele><time>2012-07-26T10:58:44.0000000+00:00</time></trkpt><trkpt lat="63.83177185" lon="-19.2054348"><ele>574.5</ele><time>2012-07-26T10:58:49.0000000+00:00</time></trkpt><trkpt lat="63.83177948" lon="-19.20542908"><ele>574.4</ele><time>2012-07-26T10:58:54.0000000+00:00</time></trkpt><trkpt lat="63.8317833" lon="-19.20542526"><ele>574.3</ele><time>2012-07-26T10:58:59.0000000+00:00</time></trkpt><trkpt lat="63.83179092" lon="-19.20542526"><ele>574.0</ele><time>2012-07-26T10:59:04.0000000+00:00</time></trkpt><trkpt lat="63.83179092" lon="-19.20542145"><ele>573.8</ele><time>2012-07-26T10:59:09.0000000+00:00</time></trkpt><trkpt lat="63.83177948" lon="-19.20541954"><ele>573.5</ele><time>2012-07-26T10:59:14.0000000+00:00</time></trkpt><trkpt lat="63.83177567" lon="-19.20542908"><ele>573.2</ele><time>2012-07-26T10:59:19.0000000+00:00</time></trkpt><trkpt lat="63.83177185" lon="-19.20543861"><ele>572.9</ele><time>2012-07-26T10:59:24.0000000+00:00</time></trkpt><trkpt lat="63.83177567" lon="-19.20544052"><ele>572.5</ele><time>2012-07-26T10:59:29.0000000+00:00</time></trkpt><trkpt lat="63.83176422" lon="-19.20543861"><ele>572.2</ele><time>2012-07-26T10:59:34.0000000+00:00</time></trkpt><trkpt lat="63.83174896" lon="-19.20545006"><ele>570.3</ele><time>2012-07-26T10:59:39.0000000+00:00</time></trkpt><trkpt lat="63.83174515" lon="-19.2054348"><ele>570.0</ele><time>2012-07-26T10:59:44.0000000+00:00</time></trkpt><trkpt lat="63.83174515" lon="-19.20542526"><ele>569.7</ele><time>2012-07-26T10:59:49.0000000+00:00</time></trkpt><trkpt lat="63.83174515" lon="-19.2054348"><ele>569.5</ele><time>2012-07-26T10:59:54.0000000+00:00</time></trkpt><trkpt lat="63.83172989" lon="-19.2054596"><ele>567.4</ele><time>2012-07-26T10:59:59.0000000+00:00</time></trkpt><trkpt lat="63.83172226" lon="-19.20547485"><ele>565.5</ele><time>2012-07-26T11:00:04.0000000+00:00</time></trkpt><trkpt lat="63.83172226" lon="-19.20554352"><ele>566.1</ele><time>2012-07-26T11:00:09.0000000+00:00</time></trkpt><trkpt lat="63.83169556" lon="-19.20556641"><ele>565.6</ele><time>2012-07-26T11:00:14.0000000+00:00</time></trkpt><trkpt lat="63.83168793" lon="-19.20557213"><ele>565.6</ele><time>2012-07-26T11:00:19.0000000+00:00</time></trkpt><trkpt lat="63.83161926" lon="-19.20564842"><ele>565.3</ele><time>2012-07-26T11:00:24.0000000+00:00</time></trkpt><trkpt lat="63.83151627" lon="-19.20570946"><ele>565.8</ele><time>2012-07-26T11:00:29.0000000+00:00</time></trkpt><trkpt lat="63.83143234" lon="-19.20582771"><ele>566.2</ele><time>2012-07-26T11:00:34.0000000+00:00</time></trkpt><trkpt lat="63.83134079" lon="-19.2059021"><ele>567.9</ele><time>2012-07-26T11:00:39.0000000+00:00</time></trkpt><trkpt lat="63.83128357" lon="-19.20606995"><ele>566.8</ele><time>2012-07-26T11:00:44.0000000+00:00</time></trkpt><trkpt lat="63.83120728" lon="-19.20619392"><ele>567.3</ele><time>2012-07-26T11:00:49.0000000+00:00</time></trkpt><trkpt lat="63.83120346" lon="-19.20618248"><ele>567.3</ele><time>2012-07-26T11:00:54.0000000+00:00</time></trkpt><trkpt lat="63.83118057" lon="-19.20622063"><ele>567.5</ele><time>2012-07-26T11:00:59.0000000+00:00</time></trkpt><trkpt lat="63.8311615" lon="-19.20625687"><ele>567.6</ele><time>2012-07-26T11:01:04.0000000+00:00</time></trkpt><trkpt lat="63.83111572" lon="-19.20621491"><ele>567.3</ele><time>2012-07-26T11:01:09.0000000+00:00</time></trkpt><trkpt lat="63.83106232" lon="-19.20622635"><ele>566.8</ele><time>2012-07-26T11:01:14.0000000+00:00</time></trkpt><trkpt lat="63.83102417" lon="-19.20620346"><ele>567.4</ele><time>2012-07-26T11:01:19.0000000+00:00</time></trkpt><trkpt lat="63.83099747" lon="-19.20617294"><ele>567.2</ele><time>2012-07-26T11:01:24.0000000+00:00</time></trkpt><trkpt lat="63.83095169" lon="-19.2061863"><ele>567.5</ele><time>2012-07-26T11:01:29.0000000+00:00</time></trkpt><trkpt lat="63.83093643" lon="-19.20617294"><ele>567.7</ele><time>2012-07-26T11:01:34.0000000+00:00</time></trkpt><trkpt lat="63.83092117" lon="-19.20620155"><ele>568.9</ele><time>2012-07-26T11:01:39.0000000+00:00</time></trkpt><trkpt lat="63.83091354" lon="-19.20621109"><ele>569.1</ele><time>2012-07-26T11:01:44.0000000+00:00</time></trkpt><trkpt lat="63.83091354" lon="-19.206213"><ele>569.1</ele><time>2012-07-26T11:01:49.0000000+00:00</time></trkpt><trkpt lat="63.83091354" lon="-19.20621491"><ele>569.1</ele><time>2012-07-26T11:01:54.0000000+00:00</time></trkpt><trkpt lat="63.83091354" lon="-19.20621491"><ele>569.1</ele><time>2012-07-26T11:01:59.0000000+00:00</time></trkpt><trkpt lat="63.83091354" lon="-19.20621681"><ele>569.1</ele><time>2012-07-26T11:02:04.0000000+00:00</time></trkpt><trkpt lat="63.83091354" lon="-19.20621681"><ele>569.1</ele><time>2012-07-26T11:02:09.0000000+00:00</time></trkpt><trkpt lat="63.83086014" lon="-19.20624352"><ele>569.2</ele><time>2012-07-26T11:02:14.0000000+00:00</time></trkpt><trkpt lat="63.8307724" lon="-19.20629692"><ele>568.9</ele><time>2012-07-26T11:02:19.0000000+00:00</time></trkpt><trkpt lat="63.83066559" lon="-19.20639801"><ele>567.9</ele><time>2012-07-26T11:02:24.0000000+00:00</time></trkpt><trkpt lat="63.83056641" lon="-19.20654106"><ele>567.8</ele><time>2012-07-26T11:02:29.0000000+00:00</time></trkpt><trkpt lat="63.83047104" lon="-19.20667839"><ele>567.5</ele><time>2012-07-26T11:02:34.0000000+00:00</time></trkpt><trkpt lat="63.83037186" lon="-19.20676613"><ele>570.0</ele><time>2012-07-26T11:02:39.0000000+00:00</time></trkpt><trkpt lat="63.83024979" lon="-19.20682335"><ele>569.7</ele><time>2012-07-26T11:02:44.0000000+00:00</time></trkpt><trkpt lat="63.83012009" lon="-19.20684433"><ele>567.6</ele><time>2012-07-26T11:02:49.0000000+00:00</time></trkpt><trkpt lat="63.8299675" lon="-19.20676613"><ele>564.7</ele><time>2012-07-26T11:02:54.0000000+00:00</time></trkpt><trkpt lat="63.82980347" lon="-19.20680046"><ele>563.0</ele><time>2012-07-26T11:02:59.0000000+00:00</time></trkpt><trkpt lat="63.82963181" lon="-19.20685768"><ele>562.7</ele><time>2012-07-26T11:03:04.0000000+00:00</time></trkpt><trkpt lat="63.82949829" lon="-19.20695305"><ele>563.4</ele><time>2012-07-26T11:03:09.0000000+00:00</time></trkpt><trkpt lat="63.82948303" lon="-19.20694351"><ele>563.0</ele><time>2012-07-26T11:03:14.0000000+00:00</time></trkpt><trkpt lat="63.8294487" lon="-19.20697022"><ele>563.8</ele><time>2012-07-26T11:03:19.0000000+00:00</time></trkpt><trkpt lat="63.82941055" lon="-19.20703697"><ele>564.7</ele><time>2012-07-26T11:03:24.0000000+00:00</time></trkpt><trkpt lat="63.82936478" lon="-19.20707703"><ele>564.3</ele><time>2012-07-26T11:03:29.0000000+00:00</time></trkpt><trkpt lat="63.82932282" lon="-19.20709229"><ele>564.4</ele><time>2012-07-26T11:03:34.0000000+00:00</time></trkpt><trkpt lat="63.8292923" lon="-19.20708656"><ele>564.6</ele><time>2012-07-26T11:03:39.0000000+00:00</time></trkpt><trkpt lat="63.82921219" lon="-19.20712471"><ele>564.7</ele><time>2012-07-26T11:03:44.0000000+00:00</time></trkpt><trkpt lat="63.82909393" lon="-19.20719147"><ele>564.8</ele><time>2012-07-26T11:03:49.0000000+00:00</time></trkpt><trkpt lat="63.82895279" lon="-19.20730782"><ele>562.5</ele><time>2012-07-26T11:03:54.0000000+00:00</time></trkpt><trkpt lat="63.82884216" lon="-19.20736694"><ele>561.8</ele><time>2012-07-26T11:03:59.0000000+00:00</time></trkpt><trkpt lat="63.82879257" lon="-19.20739937"><ele>562.4</ele><time>2012-07-26T11:04:04.0000000+00:00</time></trkpt><trkpt lat="63.82870483" lon="-19.2074585"><ele>561.9</ele><time>2012-07-26T11:04:09.0000000+00:00</time></trkpt><trkpt lat="63.82862091" lon="-19.20751381"><ele>561.3</ele><time>2012-07-26T11:04:14.0000000+00:00</time></trkpt><trkpt lat="63.82859039" lon="-19.20755959"><ele>558.7</ele><time>2012-07-26T11:04:19.0000000+00:00</time></trkpt><trkpt lat="63.82856751" lon="-19.20758438"><ele>558.5</ele><time>2012-07-26T11:04:24.0000000+00:00</time></trkpt><trkpt lat="63.82856751" lon="-19.2075882"><ele>558.6</ele><time>2012-07-26T11:04:29.0000000+00:00</time></trkpt><trkpt lat="63.82856751" lon="-19.2075901"><ele>558.6</ele><time>2012-07-26T11:04:34.0000000+00:00</time></trkpt><trkpt lat="63.82857132" lon="-19.20755577"><ele>558.6</ele><time>2012-07-26T11:04:39.0000000+00:00</time></trkpt><trkpt lat="63.82859421" lon="-19.20747757"><ele>558.3</ele><time>2012-07-26T11:04:44.0000000+00:00</time></trkpt><trkpt lat="63.82859039" lon="-19.20742416"><ele>558.0</ele><time>2012-07-26T11:04:49.0000000+00:00</time></trkpt><trkpt lat="63.82859039" lon="-19.20741272"><ele>556.9</ele><time>2012-07-26T11:04:54.0000000+00:00</time></trkpt><trkpt lat="63.82859802" lon="-19.20739746"><ele>556.7</ele><time>2012-07-26T11:04:59.0000000+00:00</time></trkpt><trkpt lat="63.82859039" lon="-19.20743561"><ele>556.4</ele><time>2012-07-26T11:05:04.0000000+00:00</time></trkpt><trkpt lat="63.82859802" lon="-19.20745277"><ele>556.5</ele><time>2012-07-26T11:05:09.0000000+00:00</time></trkpt><trkpt lat="63.82860565" lon="-19.2074604"><ele>556.5</ele><time>2012-07-26T11:05:14.0000000+00:00</time></trkpt><trkpt lat="63.82860565" lon="-19.2074585"><ele>556.4</ele><time>2012-07-26T11:05:19.0000000+00:00</time></trkpt><trkpt lat="63.82860565" lon="-19.20745659"><ele>556.4</ele><time>2012-07-26T11:05:24.0000000+00:00</time></trkpt><trkpt lat="63.82860184" lon="-19.20745468"><ele>556.5</ele><time>2012-07-26T11:05:29.0000000+00:00</time></trkpt><trkpt lat="63.82860565" lon="-19.20745468"><ele>556.5</ele><time>2012-07-26T11:05:34.0000000+00:00</time></trkpt><trkpt lat="63.82860947" lon="-19.20744896"><ele>556.5</ele><time>2012-07-26T11:05:39.0000000+00:00</time></trkpt><trkpt lat="63.82860947" lon="-19.20744705"><ele>556.6</ele><time>2012-07-26T11:05:44.0000000+00:00</time></trkpt><trkpt lat="63.82861328" lon="-19.20744515"><ele>556.6</ele><time>2012-07-26T11:05:49.0000000+00:00</time></trkpt><trkpt lat="63.8286171" lon="-19.20743752"><ele>556.6</ele><time>2012-07-26T11:05:54.0000000+00:00</time></trkpt><trkpt lat="63.82862473" lon="-19.20743752"><ele>556.7</ele><time>2012-07-26T11:05:59.0000000+00:00</time></trkpt><trkpt lat="63.82863236" lon="-19.20743752"><ele>556.9</ele><time>2012-07-26T11:06:04.0000000+00:00</time></trkpt><trkpt lat="63.82863998" lon="-19.20744133"><ele>557.1</ele><time>2012-07-26T11:06:09.0000000+00:00</time></trkpt><trkpt lat="63.82864761" lon="-19.20745659"><ele>557.4</ele><time>2012-07-26T11:06:14.0000000+00:00</time></trkpt><trkpt lat="63.82864761" lon="-19.20748138"><ele>557.7</ele><time>2012-07-26T11:06:19.0000000+00:00</time></trkpt><trkpt lat="63.82865524" lon="-19.20750046"><ele>558.0</ele><time>2012-07-26T11:06:24.0000000+00:00</time></trkpt><trkpt lat="63.82864761" lon="-19.2074852"><ele>558.9</ele><time>2012-07-26T11:06:29.0000000+00:00</time></trkpt><trkpt lat="63.82863236" lon="-19.20744133"><ele>560.9</ele><time>2012-07-26T11:06:34.0000000+00:00</time></trkpt><trkpt lat="63.82863236" lon="-19.20743942"><ele>560.9</ele><time>2012-07-26T11:06:39.0000000+00:00</time></trkpt><trkpt lat="63.82863236" lon="-19.20743752"><ele>560.8</ele><time>2012-07-26T11:06:44.0000000+00:00</time></trkpt><trkpt lat="63.82863236" lon="-19.20743561"><ele>560.9</ele><time>2012-07-26T11:06:49.0000000+00:00</time></trkpt><trkpt lat="63.82863236" lon="-19.20743561"><ele>560.8</ele><time>2012-07-26T11:06:54.0000000+00:00</time></trkpt><trkpt lat="63.82863617" lon="-19.2074337"><ele>560.2</ele><time>2012-07-26T11:06:59.0000000+00:00</time></trkpt><trkpt lat="63.82863617" lon="-19.20743561"><ele>559.2</ele><time>2012-07-26T11:07:04.0000000+00:00</time></trkpt><trkpt lat="63.82863998" lon="-19.20742607"><ele>558.2</ele><time>2012-07-26T11:07:09.0000000+00:00</time></trkpt><trkpt lat="63.82863998" lon="-19.20742416"><ele>557.3</ele><time>2012-07-26T11:07:14.0000000+00:00</time></trkpt><trkpt lat="63.82863998" lon="-19.20741653"><ele>556.3</ele><time>2012-07-26T11:07:19.0000000+00:00</time></trkpt><trkpt lat="63.82863617" lon="-19.20740318"><ele>555.5</ele><time>2012-07-26T11:07:24.0000000+00:00</time></trkpt><trkpt lat="63.82862854" lon="-19.20740128"><ele>554.7</ele><time>2012-07-26T11:07:29.0000000+00:00</time></trkpt><trkpt lat="63.82862091" lon="-19.20739937"><ele>554.0</ele><time>2012-07-26T11:07:34.0000000+00:00</time></trkpt><trkpt lat="63.82861328" lon="-19.20739174"><ele>553.3</ele><time>2012-07-26T11:07:39.0000000+00:00</time></trkpt><trkpt lat="63.82860947" lon="-19.20737839"><ele>552.5</ele><time>2012-07-26T11:07:44.0000000+00:00</time></trkpt><trkpt lat="63.82860565" lon="-19.20736313"><ele>551.9</ele><time>2012-07-26T11:07:49.0000000+00:00</time></trkpt><trkpt lat="63.82860565" lon="-19.20734787"><ele>551.3</ele><time>2012-07-26T11:07:54.0000000+00:00</time></trkpt><trkpt lat="63.82860184" lon="-19.2073307"><ele>550.7</ele><time>2012-07-26T11:07:59.0000000+00:00</time></trkpt><trkpt lat="63.82859802" lon="-19.20731545"><ele>550.2</ele><time>2012-07-26T11:08:04.0000000+00:00</time></trkpt><trkpt lat="63.82859802" lon="-19.20731354"><ele>549.8</ele><time>2012-07-26T11:08:09.0000000+00:00</time></trkpt><trkpt lat="63.82859802" lon="-19.20731163"><ele>549.4</ele><time>2012-07-26T11:08:14.0000000+00:00</time></trkpt><trkpt lat="63.82859802" lon="-19.20731163"><ele>549.0</ele><time>2012-07-26T11:08:19.0000000+00:00</time></trkpt><trkpt lat="63.82859802" lon="-19.20731163"><ele>548.7</ele><time>2012-07-26T11:08:24.0000000+00:00</time></trkpt><trkpt lat="63.82859802" lon="-19.20731163"><ele>548.4</ele><time>2012-07-26T11:08:29.0000000+00:00</time></trkpt><trkpt lat="63.82859802" lon="-19.20731163"><ele>548.2</ele><time>2012-07-26T11:08:34.0000000+00:00</time></trkpt><trkpt lat="63.82859802" lon="-19.20731163"><ele>548.1</ele><time>2012-07-26T11:08:39.0000000+00:00</time></trkpt><trkpt lat="63.82859802" lon="-19.20731354"><ele>548.1</ele><time>2012-07-26T11:08:44.0000000+00:00</time></trkpt><trkpt lat="63.82859802" lon="-19.20731354"><ele>548.2</ele><time>2012-07-26T11:08:49.0000000+00:00</time></trkpt><trkpt lat="63.82859802" lon="-19.20731354"><ele>548.3</ele><time>2012-07-26T11:08:54.0000000+00:00</time></trkpt><trkpt lat="63.82859802" lon="-19.20731354"><ele>548.5</ele><time>2012-07-26T11:08:59.0000000+00:00</time></trkpt><trkpt lat="63.82859802" lon="-19.20731354"><ele>548.7</ele><time>2012-07-26T11:09:04.0000000+00:00</time></trkpt><trkpt lat="63.82859802" lon="-19.20731163"><ele>549.1</ele><time>2012-07-26T11:09:09.0000000+00:00</time></trkpt><trkpt lat="63.82859802" lon="-19.20731163"><ele>549.5</ele><time>2012-07-26T11:09:14.0000000+00:00</time></trkpt><trkpt lat="63.82859802" lon="-19.20731163"><ele>550.1</ele><time>2012-07-26T11:09:19.0000000+00:00</time></trkpt><trkpt lat="63.82859802" lon="-19.20731163"><ele>550.6</ele><time>2012-07-26T11:09:24.0000000+00:00</time></trkpt><trkpt lat="63.82859802" lon="-19.20731163"><ele>551.2</ele><time>2012-07-26T11:09:29.0000000+00:00</time></trkpt><trkpt lat="63.82859802" lon="-19.20731163"><ele>551.8</ele><time>2012-07-26T11:09:34.0000000+00:00</time></trkpt><trkpt lat="63.82859802" lon="-19.20731545"><ele>552.4</ele><time>2012-07-26T11:09:39.0000000+00:00</time></trkpt><trkpt lat="63.82859802" lon="-19.20731926"><ele>552.9</ele><time>2012-07-26T11:09:44.0000000+00:00</time></trkpt><trkpt lat="63.82859802" lon="-19.20732117"><ele>553.6</ele><time>2012-07-26T11:09:49.0000000+00:00</time></trkpt><trkpt lat="63.82859802" lon="-19.20732117"><ele>554.3</ele><time>2012-07-26T11:09:54.0000000+00:00</time></trkpt><trkpt lat="63.82859802" lon="-19.20731926"><ele>555.0</ele><time>2012-07-26T11:09:59.0000000+00:00</time></trkpt><trkpt lat="63.82859802" lon="-19.20731926"><ele>555.7</ele><time>2012-07-26T11:10:04.0000000+00:00</time></trkpt><trkpt lat="63.82859421" lon="-19.20731926"><ele>556.5</ele><time>2012-07-26T11:10:09.0000000+00:00</time></trkpt><trkpt lat="63.82859421" lon="-19.20731926"><ele>557.1</ele><time>2012-07-26T11:10:14.0000000+00:00</time></trkpt><trkpt lat="63.82860947" lon="-19.20734024"><ele>558.1</ele><time>2012-07-26T11:10:19.0000000+00:00</time></trkpt><trkpt lat="63.82862091" lon="-19.20739365"><ele>560.8</ele><time>2012-07-26T11:10:24.0000000+00:00</time></trkpt><trkpt lat="63.82862091" lon="-19.20739174"><ele>561.0</ele><time>2012-07-26T11:10:29.0000000+00:00</time></trkpt><trkpt lat="63.82862091" lon="-19.20737457"><ele>561.1</ele><time>2012-07-26T11:10:34.0000000+00:00</time></trkpt><trkpt lat="63.82862091" lon="-19.20735741"><ele>561.1</ele><time>2012-07-26T11:10:39.0000000+00:00</time></trkpt><trkpt lat="63.82860947" lon="-19.20740128"><ele>561.3</ele><time>2012-07-26T11:10:44.0000000+00:00</time></trkpt><trkpt lat="63.82860184" lon="-19.2073803"><ele>562.5</ele><time>2012-07-26T11:10:49.0000000+00:00</time></trkpt><trkpt lat="63.82860184" lon="-19.20736694"><ele>562.5</ele><time>2012-07-26T11:10:54.0000000+00:00</time></trkpt><trkpt lat="63.82860184" lon="-19.20735741"><ele>562.5</ele><time>2012-07-26T11:10:59.0000000+00:00</time></trkpt><trkpt lat="63.82860184" lon="-19.20735741"><ele>562.6</ele><time>2012-07-26T11:11:04.0000000+00:00</time></trkpt><trkpt lat="63.82859802" lon="-19.20736694"><ele>562.6</ele><time>2012-07-26T11:11:09.0000000+00:00</time></trkpt><trkpt lat="63.82859039" lon="-19.2073822"><ele>562.6</ele><time>2012-07-26T11:11:14.0000000+00:00</time></trkpt><trkpt lat="63.82858658" lon="-19.20739746"><ele>562.7</ele><time>2012-07-26T11:11:19.0000000+00:00</time></trkpt><trkpt lat="63.82858276" lon="-19.207407"><ele>562.8</ele><time>2012-07-26T11:11:24.0000000+00:00</time></trkpt><trkpt lat="63.82858276" lon="-19.20741272"><ele>562.9</ele><time>2012-07-26T11:11:29.0000000+00:00</time></trkpt><trkpt lat="63.82858276" lon="-19.20742607"><ele>563.0</ele><time>2012-07-26T11:11:34.0000000+00:00</time></trkpt><trkpt lat="63.82858276" lon="-19.20743179"><ele>563.2</ele><time>2012-07-26T11:11:39.0000000+00:00</time></trkpt><trkpt lat="63.82858658" lon="-19.20744705"><ele>563.4</ele><time>2012-07-26T11:11:44.0000000+00:00</time></trkpt><trkpt lat="63.82858658" lon="-19.20746803"><ele>563.5</ele><time>2012-07-26T11:11:49.0000000+00:00</time></trkpt><trkpt lat="63.82859039" lon="-19.20748901"><ele>563.8</ele><time>2012-07-26T11:11:54.0000000+00:00</time></trkpt><trkpt lat="63.82859802" lon="-19.20750237"><ele>564.1</ele><time>2012-07-26T11:11:59.0000000+00:00</time></trkpt><trkpt lat="63.82859802" lon="-19.2075119"><ele>564.4</ele><time>2012-07-26T11:12:04.0000000+00:00</time></trkpt><trkpt lat="63.82859802" lon="-19.20751"><ele>564.8</ele><time>2012-07-26T11:12:09.0000000+00:00</time></trkpt><trkpt lat="63.82859039" lon="-19.20750618"><ele>565.3</ele><time>2012-07-26T11:12:14.0000000+00:00</time></trkpt><trkpt lat="63.82858658" lon="-19.20750046"><ele>565.6</ele><time>2012-07-26T11:12:19.0000000+00:00</time></trkpt><trkpt lat="63.82858658" lon="-19.20748901"><ele>566.0</ele><time>2012-07-26T11:12:24.0000000+00:00</time></trkpt><trkpt lat="63.82858658" lon="-19.20747185"><ele>566.4</ele><time>2012-07-26T11:12:29.0000000+00:00</time></trkpt><trkpt lat="63.82858658" lon="-19.20745659"><ele>566.8</ele><time>2012-07-26T11:12:34.0000000+00:00</time></trkpt><trkpt lat="63.82859039" lon="-19.20744515"><ele>567.2</ele><time>2012-07-26T11:12:39.0000000+00:00</time></trkpt><trkpt lat="63.82859421" lon="-19.2074337"><ele>567.6</ele><time>2012-07-26T11:12:44.0000000+00:00</time></trkpt><trkpt lat="63.82859802" lon="-19.20742798"><ele>568.1</ele><time>2012-07-26T11:12:49.0000000+00:00</time></trkpt><trkpt lat="63.82859802" lon="-19.20742416"><ele>568.6</ele><time>2012-07-26T11:12:54.0000000+00:00</time></trkpt><trkpt lat="63.82859802" lon="-19.20742035"><ele>569.1</ele><time>2012-07-26T11:12:59.0000000+00:00</time></trkpt><trkpt lat="63.82859802" lon="-19.20741844"><ele>569.7</ele><time>2012-07-26T11:13:04.0000000+00:00</time></trkpt><trkpt lat="63.82860184" lon="-19.20742226"><ele>570.4</ele><time>2012-07-26T11:13:09.0000000+00:00</time></trkpt><trkpt lat="63.82860184" lon="-19.20742607"><ele>571.0</ele><time>2012-07-26T11:13:14.0000000+00:00</time></trkpt><trkpt lat="63.82860184" lon="-19.2074337"><ele>571.7</ele><time>2012-07-26T11:13:19.0000000+00:00</time></trkpt><trkpt lat="63.82860184" lon="-19.20744324"><ele>572.4</ele><time>2012-07-26T11:13:24.0000000+00:00</time></trkpt><trkpt lat="63.82860184" lon="-19.20745468"><ele>573.1</ele><time>2012-07-26T11:13:29.0000000+00:00</time></trkpt><trkpt lat="63.82859802" lon="-19.2074585"><ele>573.8</ele><time>2012-07-26T11:13:34.0000000+00:00</time></trkpt><trkpt lat="63.82859802" lon="-19.20746613"><ele>574.4</ele><time>2012-07-26T11:13:39.0000000+00:00</time></trkpt><trkpt lat="63.82859802" lon="-19.20747757"><ele>575.1</ele><time>2012-07-26T11:13:44.0000000+00:00</time></trkpt><trkpt lat="63.82859421" lon="-19.20748329"><ele>575.7</ele><time>2012-07-26T11:13:49.0000000+00:00</time></trkpt><trkpt lat="63.82859039" lon="-19.20748138"><ele>576.3</ele><time>2012-07-26T11:13:54.0000000+00:00</time></trkpt><trkpt lat="63.82859039" lon="-19.20747566"><ele>576.9</ele><time>2012-07-26T11:13:59.0000000+00:00</time></trkpt><trkpt lat="63.82859039" lon="-19.20748138"><ele>577.4</ele><time>2012-07-26T11:14:04.0000000+00:00</time></trkpt><trkpt lat="63.82859039" lon="-19.20749092"><ele>578.0</ele><time>2012-07-26T11:14:09.0000000+00:00</time></trkpt><trkpt lat="63.82859421" lon="-19.20751"><ele>578.6</ele><time>2012-07-26T11:14:14.0000000+00:00</time></trkpt><trkpt lat="63.82859802" lon="-19.20753479"><ele>579.2</ele><time>2012-07-26T11:14:19.0000000+00:00</time></trkpt><trkpt lat="63.82859802" lon="-19.20755768"><ele>579.8</ele><time>2012-07-26T11:14:24.0000000+00:00</time></trkpt><trkpt lat="63.82860184" lon="-19.20757294"><ele>580.5</ele><time>2012-07-26T11:14:29.0000000+00:00</time></trkpt><trkpt lat="63.82860184" lon="-19.20758247"><ele>581.1</ele><time>2012-07-26T11:14:34.0000000+00:00</time></trkpt><trkpt lat="63.82860184" lon="-19.20758438"><ele>581.7</ele><time>2012-07-26T11:14:39.0000000+00:00</time></trkpt><trkpt lat="63.82859802" lon="-19.20758057"><ele>582.2</ele><time>2012-07-26T11:14:44.0000000+00:00</time></trkpt><trkpt lat="63.82859802" lon="-19.20757484"><ele>582.5</ele><time>2012-07-26T11:14:49.0000000+00:00</time></trkpt><trkpt lat="63.82860184" lon="-19.20755959"><ele>582.5</ele><time>2012-07-26T11:14:54.0000000+00:00</time></trkpt><trkpt lat="63.82860565" lon="-19.2075367"><ele>582.4</ele><time>2012-07-26T11:14:59.0000000+00:00</time></trkpt><trkpt lat="63.82860947" lon="-19.2075119"><ele>582.1</ele><time>2012-07-26T11:15:04.0000000+00:00</time></trkpt><trkpt lat="63.82861328" lon="-19.20750046"><ele>581.6</ele><time>2012-07-26T11:15:09.0000000+00:00</time></trkpt><trkpt lat="63.8286171" lon="-19.20750046"><ele>581.1</ele><time>2012-07-26T11:15:14.0000000+00:00</time></trkpt><trkpt lat="63.8286171" lon="-19.2075119"><ele>580.3</ele><time>2012-07-26T11:15:19.0000000+00:00</time></trkpt><trkpt lat="63.8286171" lon="-19.20752144"><ele>579.5</ele><time>2012-07-26T11:15:24.0000000+00:00</time></trkpt><trkpt lat="63.8286171" lon="-19.20752335"><ele>578.6</ele><time>2012-07-26T11:15:29.0000000+00:00</time></trkpt><trkpt lat="63.8286171" lon="-19.20752525"><ele>577.6</ele><time>2012-07-26T11:15:34.0000000+00:00</time></trkpt><trkpt lat="63.8286171" lon="-19.20752525"><ele>576.7</ele><time>2012-07-26T11:15:39.0000000+00:00</time></trkpt><trkpt lat="63.8286171" lon="-19.20753479"><ele>575.7</ele><time>2012-07-26T11:15:44.0000000+00:00</time></trkpt><trkpt lat="63.82862091" lon="-19.20754623"><ele>574.7</ele><time>2012-07-26T11:15:49.0000000+00:00</time></trkpt><trkpt lat="63.8286171" lon="-19.20755768"><ele>573.9</ele><time>2012-07-26T11:15:54.0000000+00:00</time></trkpt><trkpt lat="63.82861328" lon="-19.20755768"><ele>573.1</ele><time>2012-07-26T11:15:59.0000000+00:00</time></trkpt><trkpt lat="63.82860947" lon="-19.20755196"><ele>572.2</ele><time>2012-07-26T11:16:04.0000000+00:00</time></trkpt><trkpt lat="63.82860947" lon="-19.20754433"><ele>571.3</ele><time>2012-07-26T11:16:09.0000000+00:00</time></trkpt><trkpt lat="63.82860565" lon="-19.2075367"><ele>570.3</ele><time>2012-07-26T11:16:14.0000000+00:00</time></trkpt><trkpt lat="63.82860184" lon="-19.20752907"><ele>569.3</ele><time>2012-07-26T11:16:19.0000000+00:00</time></trkpt><trkpt lat="63.82860184" lon="-19.20751953"><ele>568.4</ele><time>2012-07-26T11:16:24.0000000+00:00</time></trkpt><trkpt lat="63.82859802" lon="-19.20751"><ele>567.5</ele><time>2012-07-26T11:16:29.0000000+00:00</time></trkpt><trkpt lat="63.82859421" lon="-19.20750237"><ele>566.7</ele><time>2012-07-26T11:16:34.0000000+00:00</time></trkpt><trkpt lat="63.82859039" lon="-19.20749474"><ele>565.8</ele><time>2012-07-26T11:16:39.0000000+00:00</time></trkpt><trkpt lat="63.82858658" lon="-19.20748711"><ele>565.0</ele><time>2012-07-26T11:16:44.0000000+00:00</time></trkpt><trkpt lat="63.82858276" lon="-19.20747948"><ele>564.1</ele><time>2012-07-26T11:16:49.0000000+00:00</time></trkpt><trkpt lat="63.82858276" lon="-19.20747376"><ele>563.3</ele><time>2012-07-26T11:16:54.0000000+00:00</time></trkpt><trkpt lat="63.82857895" lon="-19.20746803"><ele>562.5</ele><time>2012-07-26T11:16:59.0000000+00:00</time></trkpt><trkpt lat="63.82857513" lon="-19.2074585"><ele>561.8</ele><time>2012-07-26T11:17:04.0000000+00:00</time></trkpt><trkpt lat="63.82857132" lon="-19.20744705"><ele>561.2</ele><time>2012-07-26T11:17:09.0000000+00:00</time></trkpt><trkpt lat="63.82856369" lon="-19.20743561"><ele>560.5</ele><time>2012-07-26T11:17:14.0000000+00:00</time></trkpt><trkpt lat="63.82855988" lon="-19.20742416"><ele>560.0</ele><time>2012-07-26T11:17:19.0000000+00:00</time></trkpt><trkpt lat="63.82855988" lon="-19.20741081"><ele>559.6</ele><time>2012-07-26T11:17:24.0000000+00:00</time></trkpt><trkpt lat="63.82855606" lon="-19.20739555"><ele>559.3</ele><time>2012-07-26T11:17:29.0000000+00:00</time></trkpt><trkpt lat="63.82855225" lon="-19.2073822"><ele>559.1</ele><time>2012-07-26T11:17:34.0000000+00:00</time></trkpt><trkpt lat="63.82854843" lon="-19.20736694"><ele>559.0</ele><time>2012-07-26T11:17:39.0000000+00:00</time></trkpt><trkpt lat="63.82854462" lon="-19.20735359"><ele>558.8</ele><time>2012-07-26T11:17:44.0000000+00:00</time></trkpt><trkpt lat="63.82854462" lon="-19.20734215"><ele>558.8</ele><time>2012-07-26T11:17:49.0000000+00:00</time></trkpt><trkpt lat="63.8285408" lon="-19.20733643"><ele>558.8</ele><time>2012-07-26T11:17:54.0000000+00:00</time></trkpt><trkpt lat="63.8285408" lon="-19.20733833"><ele>559.0</ele><time>2012-07-26T11:17:59.0000000+00:00</time></trkpt><trkpt lat="63.8285408" lon="-19.20734406"><ele>559.2</ele><time>2012-07-26T11:18:04.0000000+00:00</time></trkpt><trkpt lat="63.8285408" lon="-19.20734596"><ele>559.2</ele><time>2012-07-26T11:18:09.0000000+00:00</time></trkpt><trkpt lat="63.8285408" lon="-19.20734596"><ele>559.2</ele><time>2012-07-26T11:18:14.0000000+00:00</time></trkpt><trkpt lat="63.8285408" lon="-19.20734787"><ele>559.2</ele><time>2012-07-26T11:18:19.0000000+00:00</time></trkpt><trkpt lat="63.8285408" lon="-19.20734787"><ele>559.3</ele><time>2012-07-26T11:18:24.0000000+00:00</time></trkpt><trkpt lat="63.82854462" lon="-19.20734787"><ele>559.3</ele><time>2012-07-26T11:18:29.0000000+00:00</time></trkpt><trkpt lat="63.82854462" lon="-19.20734978"><ele>559.3</ele><time>2012-07-26T11:18:34.0000000+00:00</time></trkpt><trkpt lat="63.82854462" lon="-19.20734978"><ele>559.3</ele><time>2012-07-26T11:18:39.0000000+00:00</time></trkpt><trkpt lat="63.82854462" lon="-19.20735169"><ele>559.4</ele><time>2012-07-26T11:18:44.0000000+00:00</time></trkpt><trkpt lat="63.82854462" lon="-19.20735169"><ele>559.4</ele><time>2012-07-26T11:18:49.0000000+00:00</time></trkpt><trkpt lat="63.82854462" lon="-19.20735359"><ele>559.4</ele><time>2012-07-26T11:18:54.0000000+00:00</time></trkpt><trkpt lat="63.82854462" lon="-19.20735359"><ele>559.5</ele><time>2012-07-26T11:18:59.0000000+00:00</time></trkpt><trkpt lat="63.82854462" lon="-19.2073555"><ele>559.5</ele><time>2012-07-26T11:19:04.0000000+00:00</time></trkpt><trkpt lat="63.82854462" lon="-19.2073555"><ele>559.5</ele><time>2012-07-26T11:19:09.0000000+00:00</time></trkpt><trkpt lat="63.82854462" lon="-19.2073555"><ele>559.5</ele><time>2012-07-26T11:19:14.0000000+00:00</time></trkpt><trkpt lat="63.82854462" lon="-19.20735741"><ele>559.6</ele><time>2012-07-26T11:19:19.0000000+00:00</time></trkpt><trkpt lat="63.82854462" lon="-19.20735741"><ele>559.6</ele><time>2012-07-26T11:19:24.0000000+00:00</time></trkpt><trkpt lat="63.82854462" lon="-19.20735741"><ele>559.6</ele><time>2012-07-26T11:19:29.0000000+00:00</time></trkpt><trkpt lat="63.82854462" lon="-19.20735741"><ele>559.6</ele><time>2012-07-26T11:19:34.0000000+00:00</time></trkpt><trkpt lat="63.82854462" lon="-19.2073555"><ele>559.6</ele><time>2012-07-26T11:19:39.0000000+00:00</time></trkpt><trkpt lat="63.8285408" lon="-19.20735741"><ele>559.7</ele><time>2012-07-26T11:19:44.0000000+00:00</time></trkpt><trkpt lat="63.8285408" lon="-19.20735741"><ele>559.7</ele><time>2012-07-26T11:19:49.0000000+00:00</time></trkpt><trkpt lat="63.8285408" lon="-19.20735741"><ele>559.7</ele><time>2012-07-26T11:19:54.0000000+00:00</time></trkpt><trkpt lat="63.8285408" lon="-19.20735741"><ele>559.7</ele><time>2012-07-26T11:19:59.0000000+00:00</time></trkpt><trkpt lat="63.82854462" lon="-19.20735741"><ele>559.7</ele><time>2012-07-26T11:20:04.0000000+00:00</time></trkpt><trkpt lat="63.82854462" lon="-19.20735741"><ele>559.8</ele><time>2012-07-26T11:20:09.0000000+00:00</time></trkpt><trkpt lat="63.82854462" lon="-19.20735931"><ele>559.8</ele><time>2012-07-26T11:20:14.0000000+00:00</time></trkpt><trkpt lat="63.82854462" lon="-19.20735931"><ele>559.8</ele><time>2012-07-26T11:20:19.0000000+00:00</time></trkpt><trkpt lat="63.82854462" lon="-19.20735931"><ele>559.8</ele><time>2012-07-26T11:20:24.0000000+00:00</time></trkpt><trkpt lat="63.82854462" lon="-19.20735931"><ele>559.9</ele><time>2012-07-26T11:20:29.0000000+00:00</time></trkpt><trkpt lat="63.82854462" lon="-19.20735931"><ele>559.9</ele><time>2012-07-26T11:20:34.0000000+00:00</time></trkpt><trkpt lat="63.82854462" lon="-19.20735931"><ele>559.9</ele><time>2012-07-26T11:20:39.0000000+00:00</time></trkpt><trkpt lat="63.82854462" lon="-19.20735931"><ele>559.9</ele><time>2012-07-26T11:20:44.0000000+00:00</time></trkpt><trkpt lat="63.82854462" lon="-19.20735931"><ele>559.9</ele><time>2012-07-26T11:20:49.0000000+00:00</time></trkpt><trkpt lat="63.82854462" lon="-19.20735931"><ele>559.9</ele><time>2012-07-26T11:20:54.0000000+00:00</time></trkpt><trkpt lat="63.82854843" lon="-19.20735931"><ele>559.9</ele><time>2012-07-26T11:20:59.0000000+00:00</time></trkpt><trkpt lat="63.82854843" lon="-19.20735741"><ele>559.9</ele><time>2012-07-26T11:21:04.0000000+00:00</time></trkpt><trkpt lat="63.82854843" lon="-19.20735741"><ele>559.9</ele><time>2012-07-26T11:21:09.0000000+00:00</time></trkpt><trkpt lat="63.82854843" lon="-19.20735741"><ele>559.9</ele><time>2012-07-26T11:21:14.0000000+00:00</time></trkpt><trkpt lat="63.82854843" lon="-19.20735741"><ele>559.9</ele><time>2012-07-26T11:21:19.0000000+00:00</time></trkpt><trkpt lat="63.82854843" lon="-19.20735741"><ele>559.9</ele><time>2012-07-26T11:21:24.0000000+00:00</time></trkpt><trkpt lat="63.82854843" lon="-19.20735741"><ele>559.9</ele><time>2012-07-26T11:21:29.0000000+00:00</time></trkpt><trkpt lat="63.82854843" lon="-19.20735741"><ele>559.9</ele><time>2012-07-26T11:21:34.0000000+00:00</time></trkpt><trkpt lat="63.82854843" lon="-19.20735741"><ele>559.9</ele><time>2012-07-26T11:21:39.0000000+00:00</time></trkpt><trkpt lat="63.82854843" lon="-19.20735741"><ele>559.9</ele><time>2012-07-26T11:21:44.0000000+00:00</time></trkpt><trkpt lat="63.82854843" lon="-19.2073555"><ele>559.9</ele><time>2012-07-26T11:21:49.0000000+00:00</time></trkpt><trkpt lat="63.82854843" lon="-19.20735741"><ele>559.9</ele><time>2012-07-26T11:21:54.0000000+00:00</time></trkpt><trkpt lat="63.82854843" lon="-19.2073555"><ele>559.9</ele><time>2012-07-26T11:21:59.0000000+00:00</time></trkpt><trkpt lat="63.82854843" lon="-19.2073555"><ele>559.9</ele><time>2012-07-26T11:22:04.0000000+00:00</time></trkpt><trkpt lat="63.82854843" lon="-19.20735741"><ele>560.0</ele><time>2012-07-26T11:22:09.0000000+00:00</time></trkpt><trkpt lat="63.82854843" lon="-19.20735741"><ele>560.0</ele><time>2012-07-26T11:22:14.0000000+00:00</time></trkpt><trkpt lat="63.82854843" lon="-19.20735741"><ele>560.0</ele><time>2012-07-26T11:22:19.0000000+00:00</time></trkpt><trkpt lat="63.82855225" lon="-19.20735741"><ele>560.0</ele><time>2012-07-26T11:22:24.0000000+00:00</time></trkpt><trkpt lat="63.82855225" lon="-19.20735741"><ele>560.0</ele><time>2012-07-26T11:22:29.0000000+00:00</time></trkpt><trkpt lat="63.82855225" lon="-19.20735741"><ele>559.9</ele><time>2012-07-26T11:22:34.0000000+00:00</time></trkpt><trkpt lat="63.82855225" lon="-19.2073555"><ele>559.9</ele><time>2012-07-26T11:22:39.0000000+00:00</time></trkpt><trkpt lat="63.82855606" lon="-19.20735741"><ele>559.9</ele><time>2012-07-26T11:22:44.0000000+00:00</time></trkpt><trkpt lat="63.82855988" lon="-19.20736122"><ele>559.9</ele><time>2012-07-26T11:22:49.0000000+00:00</time></trkpt><trkpt lat="63.82856369" lon="-19.20736694"><ele>559.9</ele><time>2012-07-26T11:22:54.0000000+00:00</time></trkpt><trkpt lat="63.82857132" lon="-19.20736694"><ele>559.9</ele><time>2012-07-26T11:22:59.0000000+00:00</time></trkpt><trkpt lat="63.82857513" lon="-19.20736694"><ele>559.9</ele><time>2012-07-26T11:23:04.0000000+00:00</time></trkpt><trkpt lat="63.82858276" lon="-19.20736885"><ele>559.9</ele><time>2012-07-26T11:23:09.0000000+00:00</time></trkpt><trkpt lat="63.82859039" lon="-19.20737076"><ele>559.9</ele><time>2012-07-26T11:23:14.0000000+00:00</time></trkpt><trkpt lat="63.82859802" lon="-19.20737839"><ele>559.8</ele><time>2012-07-26T11:23:19.0000000+00:00</time></trkpt><trkpt lat="63.82860565" lon="-19.20738792"><ele>559.8</ele><time>2012-07-26T11:23:24.0000000+00:00</time></trkpt><trkpt lat="63.82861328" lon="-19.20739365"><ele>559.7</ele><time>2012-07-26T11:23:29.0000000+00:00</time></trkpt><trkpt lat="63.82862091" lon="-19.20739365"><ele>559.7</ele><time>2012-07-26T11:23:34.0000000+00:00</time></trkpt><trkpt lat="63.82862473" lon="-19.20738983"><ele>559.7</ele><time>2012-07-26T11:23:39.0000000+00:00</time></trkpt><trkpt lat="63.82862854" lon="-19.2073822"><ele>559.6</ele><time>2012-07-26T11:23:44.0000000+00:00</time></trkpt><trkpt lat="63.82863236" lon="-19.20737839"><ele>559.6</ele><time>2012-07-26T11:23:49.0000000+00:00</time></trkpt><trkpt lat="63.82863236" lon="-19.20737457"><ele>559.6</ele><time>2012-07-26T11:23:54.0000000+00:00</time></trkpt><trkpt lat="63.82862854" lon="-19.20736885"><ele>559.5</ele><time>2012-07-26T11:23:59.0000000+00:00</time></trkpt><trkpt lat="63.82862473" lon="-19.20736504"><ele>559.5</ele><time>2012-07-26T11:24:04.0000000+00:00</time></trkpt><trkpt lat="63.8286171" lon="-19.20736122"><ele>559.4</ele><time>2012-07-26T11:24:09.0000000+00:00</time></trkpt><trkpt lat="63.82861328" lon="-19.20735359"><ele>559.4</ele><time>2012-07-26T11:24:14.0000000+00:00</time></trkpt><trkpt lat="63.82860565" lon="-19.20734787"><ele>559.4</ele><time>2012-07-26T11:24:19.0000000+00:00</time></trkpt><trkpt lat="63.82860184" lon="-19.20734596"><ele>559.4</ele><time>2012-07-26T11:24:24.0000000+00:00</time></trkpt><trkpt lat="63.82859802" lon="-19.20734596"><ele>559.4</ele><time>2012-07-26T11:24:29.0000000+00:00</time></trkpt><trkpt lat="63.82859421" lon="-19.20734406"><ele>559.4</ele><time>2012-07-26T11:24:34.0000000+00:00</time></trkpt><trkpt lat="63.82858658" lon="-19.20734215"><ele>559.3</ele><time>2012-07-26T11:24:39.0000000+00:00</time></trkpt><trkpt lat="63.82858276" lon="-19.20734406"><ele>559.3</ele><time>2012-07-26T11:24:44.0000000+00:00</time></trkpt><trkpt lat="63.82857895" lon="-19.20735169"><ele>559.2</ele><time>2012-07-26T11:24:49.0000000+00:00</time></trkpt><trkpt lat="63.82857513" lon="-19.20735931"><ele>559.2</ele><time>2012-07-26T11:24:54.0000000+00:00</time></trkpt><trkpt lat="63.82857132" lon="-19.20736504"><ele>559.1</ele><time>2012-07-26T11:24:59.0000000+00:00</time></trkpt><trkpt lat="63.82857132" lon="-19.20736694"><ele>559.0</ele><time>2012-07-26T11:25:04.0000000+00:00</time></trkpt><trkpt lat="63.82857132" lon="-19.20737076"><ele>558.9</ele><time>2012-07-26T11:25:09.0000000+00:00</time></trkpt><trkpt lat="63.82857132" lon="-19.20737076"><ele>558.9</ele><time>2012-07-26T11:25:14.0000000+00:00</time></trkpt><trkpt lat="63.82857132" lon="-19.20737267"><ele>558.9</ele><time>2012-07-26T11:25:19.0000000+00:00</time></trkpt><trkpt lat="63.82857132" lon="-19.20737076"><ele>558.9</ele><time>2012-07-26T11:25:24.0000000+00:00</time></trkpt><trkpt lat="63.82857132" lon="-19.20737076"><ele>558.9</ele><time>2012-07-26T11:25:29.0000000+00:00</time></trkpt><trkpt lat="63.82857132" lon="-19.20737076"><ele>558.9</ele><time>2012-07-26T11:25:34.0000000+00:00</time></trkpt><trkpt lat="63.82857132" lon="-19.20737076"><ele>558.9</ele><time>2012-07-26T11:25:39.0000000+00:00</time></trkpt><trkpt lat="63.82857132" lon="-19.20737076"><ele>558.9</ele><time>2012-07-26T11:25:44.0000000+00:00</time></trkpt><trkpt lat="63.82857132" lon="-19.20737076"><ele>558.8</ele><time>2012-07-26T11:25:49.0000000+00:00</time></trkpt><trkpt lat="63.82857132" lon="-19.20737076"><ele>558.9</ele><time>2012-07-26T11:25:54.0000000+00:00</time></trkpt><trkpt lat="63.82857132" lon="-19.20737076"><ele>558.8</ele><time>2012-07-26T11:25:59.0000000+00:00</time></trkpt><trkpt lat="63.82857132" lon="-19.20737076"><ele>558.8</ele><time>2012-07-26T11:26:04.0000000+00:00</time></trkpt><trkpt lat="63.82857132" lon="-19.20737076"><ele>558.9</ele><time>2012-07-26T11:26:09.0000000+00:00</time></trkpt><trkpt lat="63.82857513" lon="-19.20737076"><ele>558.9</ele><time>2012-07-26T11:26:14.0000000+00:00</time></trkpt><trkpt lat="63.82857513" lon="-19.20737076"><ele>558.9</ele><time>2012-07-26T11:26:19.0000000+00:00</time></trkpt><trkpt lat="63.82857513" lon="-19.20737076"><ele>558.9</ele><time>2012-07-26T11:26:24.0000000+00:00</time></trkpt><trkpt lat="63.82857513" lon="-19.20737076"><ele>558.9</ele><time>2012-07-26T11:26:29.0000000+00:00</time></trkpt><trkpt lat="63.82857513" lon="-19.20737076"><ele>558.9</ele><time>2012-07-26T11:26:34.0000000+00:00</time></trkpt><trkpt lat="63.82857513" lon="-19.20737076"><ele>559.0</ele><time>2012-07-26T11:26:39.0000000+00:00</time></trkpt><trkpt lat="63.82857513" lon="-19.20737267"><ele>559.0</ele><time>2012-07-26T11:26:44.0000000+00:00</time></trkpt><trkpt lat="63.82857513" lon="-19.20737267"><ele>559.0</ele><time>2012-07-26T11:26:49.0000000+00:00</time></trkpt><trkpt lat="63.82857513" lon="-19.20737267"><ele>559.0</ele><time>2012-07-26T11:26:54.0000000+00:00</time></trkpt><trkpt lat="63.82857513" lon="-19.20737267"><ele>559.0</ele><time>2012-07-26T11:26:59.0000000+00:00</time></trkpt><trkpt lat="63.82857513" lon="-19.20737267"><ele>559.1</ele><time>2012-07-26T11:27:04.0000000+00:00</time></trkpt><trkpt lat="63.82858658" lon="-19.20738602"><ele>559.6</ele><time>2012-07-26T11:27:09.0000000+00:00</time></trkpt><trkpt lat="63.82859421" lon="-19.20740318"><ele>559.1</ele><time>2012-07-26T11:27:14.0000000+00:00</time></trkpt><trkpt lat="63.82859421" lon="-19.20740891"><ele>559.1</ele><time>2012-07-26T11:27:19.0000000+00:00</time></trkpt><trkpt lat="63.82859039" lon="-19.20741081"><ele>559.0</ele><time>2012-07-26T11:27:24.0000000+00:00</time></trkpt><trkpt lat="63.82859039" lon="-19.20741081"><ele>559.0</ele><time>2012-07-26T11:27:29.0000000+00:00</time></trkpt><trkpt lat="63.82859039" lon="-19.20741081"><ele>559.0</ele><time>2012-07-26T11:27:34.0000000+00:00</time></trkpt><trkpt lat="63.82859039" lon="-19.20741081"><ele>559.0</ele><time>2012-07-26T11:27:39.0000000+00:00</time></trkpt><trkpt lat="63.82859421" lon="-19.20740891"><ele>559.0</ele><time>2012-07-26T11:27:44.0000000+00:00</time></trkpt><trkpt lat="63.82859421" lon="-19.207407"><ele>559.0</ele><time>2012-07-26T11:27:49.0000000+00:00</time></trkpt><trkpt lat="63.82859802" lon="-19.20740509"><ele>559.0</ele><time>2012-07-26T11:27:54.0000000+00:00</time></trkpt><trkpt lat="63.82860184" lon="-19.20739937"><ele>559.0</ele><time>2012-07-26T11:27:59.0000000+00:00</time></trkpt><trkpt lat="63.82860565" lon="-19.20739174"><ele>559.0</ele><time>2012-07-26T11:28:04.0000000+00:00</time></trkpt><trkpt lat="63.82860947" lon="-19.20738602"><ele>559.0</ele><time>2012-07-26T11:28:09.0000000+00:00</time></trkpt><trkpt lat="63.82861328" lon="-19.2073803"><ele>559.0</ele><time>2012-07-26T11:28:14.0000000+00:00</time></trkpt><trkpt lat="63.8286171" lon="-19.20737648"><ele>559.1</ele><time>2012-07-26T11:28:19.0000000+00:00</time></trkpt><trkpt lat="63.82862473" lon="-19.20737839"><ele>559.1</ele><time>2012-07-26T11:28:24.0000000+00:00</time></trkpt><trkpt lat="63.82862854" lon="-19.20738792"><ele>559.1</ele><time>2012-07-26T11:28:29.0000000+00:00</time></trkpt><trkpt lat="63.82863617" lon="-19.20739555"><ele>559.1</ele><time>2012-07-26T11:28:34.0000000+00:00</time></trkpt><trkpt lat="63.82863998" lon="-19.207407"><ele>559.1</ele><time>2012-07-26T11:28:39.0000000+00:00</time></trkpt><trkpt lat="63.82864761" lon="-19.20741653"><ele>559.1</ele><time>2012-07-26T11:28:44.0000000+00:00</time></trkpt><trkpt lat="63.82865143" lon="-19.20742798"><ele>559.2</ele><time>2012-07-26T11:28:49.0000000+00:00</time></trkpt><trkpt lat="63.82865524" lon="-19.20743752"><ele>559.3</ele><time>2012-07-26T11:28:54.0000000+00:00</time></trkpt><trkpt lat="63.82865906" lon="-19.20744515"><ele>559.3</ele><time>2012-07-26T11:28:59.0000000+00:00</time></trkpt><trkpt lat="63.82865906" lon="-19.20745468"><ele>559.4</ele><time>2012-07-26T11:29:04.0000000+00:00</time></trkpt><trkpt lat="63.82865906" lon="-19.20745468"><ele>559.4</ele><time>2012-07-26T11:29:09.0000000+00:00</time></trkpt><trkpt lat="63.82865906" lon="-19.20745468"><ele>559.5</ele><time>2012-07-26T11:29:14.0000000+00:00</time></trkpt><trkpt lat="63.82865906" lon="-19.20745468"><ele>559.5</ele><time>2012-07-26T11:29:19.0000000+00:00</time></trkpt><trkpt lat="63.82865906" lon="-19.20745468"><ele>559.5</ele><time>2012-07-26T11:29:24.0000000+00:00</time></trkpt><trkpt lat="63.82865906" lon="-19.20745468"><ele>559.7</ele><time>2012-07-26T11:29:29.0000000+00:00</time></trkpt><trkpt lat="63.82865906" lon="-19.20745468"><ele>559.7</ele><time>2012-07-26T11:29:34.0000000+00:00</time></trkpt><trkpt lat="63.82865906" lon="-19.20745468"><ele>559.7</ele><time>2012-07-26T11:29:39.0000000+00:00</time></trkpt><trkpt lat="63.82865906" lon="-19.20745468"><ele>559.7</ele><time>2012-07-26T11:29:44.0000000+00:00</time></trkpt><trkpt lat="63.82865906" lon="-19.20745468"><ele>559.7</ele><time>2012-07-26T11:29:49.0000000+00:00</time></trkpt><trkpt lat="63.82865906" lon="-19.20745468"><ele>559.7</ele><time>2012-07-26T11:29:54.0000000+00:00</time></trkpt><trkpt lat="63.82865906" lon="-19.20745468"><ele>559.7</ele><time>2012-07-26T11:29:59.0000000+00:00</time></trkpt><trkpt lat="63.82865906" lon="-19.20745468"><ele>559.7</ele><time>2012-07-26T11:30:04.0000000+00:00</time></trkpt><trkpt lat="63.82865906" lon="-19.20745468"><ele>559.7</ele><time>2012-07-26T11:30:09.0000000+00:00</time></trkpt><trkpt lat="63.82865524" lon="-19.20745468"><ele>559.7</ele><time>2012-07-26T11:30:14.0000000+00:00</time></trkpt><trkpt lat="63.82865524" lon="-19.20745468"><ele>559.7</ele><time>2012-07-26T11:30:19.0000000+00:00</time></trkpt><trkpt lat="63.82865524" lon="-19.20745468"><ele>559.7</ele><time>2012-07-26T11:30:24.0000000+00:00</time></trkpt><trkpt lat="63.82865524" lon="-19.20745277"><ele>559.8</ele><time>2012-07-26T11:30:29.0000000+00:00</time></trkpt><trkpt lat="63.82865524" lon="-19.20745087"><ele>559.8</ele><time>2012-07-26T11:30:34.0000000+00:00</time></trkpt><trkpt lat="63.82865524" lon="-19.20745087"><ele>559.8</ele><time>2012-07-26T11:30:39.0000000+00:00</time></trkpt><trkpt lat="63.82865524" lon="-19.20745087"><ele>559.8</ele><time>2012-07-26T11:30:44.0000000+00:00</time></trkpt><trkpt lat="63.82865524" lon="-19.20745087"><ele>559.8</ele><time>2012-07-26T11:30:49.0000000+00:00</time></trkpt><trkpt lat="63.82865524" lon="-19.20745087"><ele>559.9</ele><time>2012-07-26T11:30:54.0000000+00:00</time></trkpt><trkpt lat="63.82865524" lon="-19.20745087"><ele>559.9</ele><time>2012-07-26T11:30:59.0000000+00:00</time></trkpt><trkpt lat="63.82865524" lon="-19.20745087"><ele>559.9</ele><time>2012-07-26T11:31:04.0000000+00:00</time></trkpt><trkpt lat="63.82865524" lon="-19.20745087"><ele>559.9</ele><time>2012-07-26T11:31:09.0000000+00:00</time></trkpt><trkpt lat="63.82865524" lon="-19.20745087"><ele>559.9</ele><time>2012-07-26T11:31:14.0000000+00:00</time></trkpt><trkpt lat="63.82865524" lon="-19.20745087"><ele>559.9</ele><time>2012-07-26T11:31:19.0000000+00:00</time></trkpt><trkpt lat="63.82865524" lon="-19.20745087"><ele>559.9</ele><time>2012-07-26T11:31:24.0000000+00:00</time></trkpt><trkpt lat="63.82865524" lon="-19.20745087"><ele>559.9</ele><time>2012-07-26T11:31:29.0000000+00:00</time></trkpt><trkpt lat="63.82865143" lon="-19.20745087"><ele>559.9</ele><time>2012-07-26T11:31:34.0000000+00:00</time></trkpt><trkpt lat="63.82865143" lon="-19.20745087"><ele>560.0</ele><time>2012-07-26T11:31:39.0000000+00:00</time></trkpt><trkpt lat="63.82865143" lon="-19.20745087"><ele>560.0</ele><time>2012-07-26T11:31:44.0000000+00:00</time></trkpt><trkpt lat="63.82865143" lon="-19.20745087"><ele>560.0</ele><time>2012-07-26T11:31:49.0000000+00:00</time></trkpt><trkpt lat="63.82865143" lon="-19.20745087"><ele>560.0</ele><time>2012-07-26T11:31:54.0000000+00:00</time></trkpt><trkpt lat="63.82865143" lon="-19.20744896"><ele>560.0</ele><time>2012-07-26T11:31:59.0000000+00:00</time></trkpt><trkpt lat="63.82865143" lon="-19.20745087"><ele>559.9</ele><time>2012-07-26T11:32:04.0000000+00:00</time></trkpt><trkpt lat="63.82865143" lon="-19.20745087"><ele>560.0</ele><time>2012-07-26T11:32:09.0000000+00:00</time></trkpt><trkpt lat="63.82865143" lon="-19.20745087"><ele>560.0</ele><time>2012-07-26T11:32:14.0000000+00:00</time></trkpt><trkpt lat="63.82865143" lon="-19.20745277"><ele>560.0</ele><time>2012-07-26T11:32:19.0000000+00:00</time></trkpt><trkpt lat="63.82865143" lon="-19.20745277"><ele>560.0</ele><time>2012-07-26T11:32:24.0000000+00:00</time></trkpt><trkpt lat="63.82865143" lon="-19.20745277"><ele>560.0</ele><time>2012-07-26T11:32:29.0000000+00:00</time></trkpt><trkpt lat="63.82865143" lon="-19.20745277"><ele>560.0</ele><time>2012-07-26T11:32:34.0000000+00:00</time></trkpt><trkpt lat="63.82865143" lon="-19.20745277"><ele>560.0</ele><time>2012-07-26T11:32:39.0000000+00:00</time></trkpt><trkpt lat="63.82865143" lon="-19.20745277"><ele>560.0</ele><time>2012-07-26T11:32:44.0000000+00:00</time></trkpt><trkpt lat="63.82865143" lon="-19.20745277"><ele>560.0</ele><time>2012-07-26T11:32:49.0000000+00:00</time></trkpt><trkpt lat="63.82865143" lon="-19.20745277"><ele>560.0</ele><time>2012-07-26T11:32:54.0000000+00:00</time></trkpt><trkpt lat="63.82865143" lon="-19.20745277"><ele>560.0</ele><time>2012-07-26T11:32:59.0000000+00:00</time></trkpt><trkpt lat="63.82865143" lon="-19.20745468"><ele>560.0</ele><time>2012-07-26T11:33:04.0000000+00:00</time></trkpt><trkpt lat="63.82865143" lon="-19.20745277"><ele>560.1</ele><time>2012-07-26T11:33:09.0000000+00:00</time></trkpt><trkpt lat="63.82865143" lon="-19.20745468"><ele>560.1</ele><time>2012-07-26T11:33:14.0000000+00:00</time></trkpt><trkpt lat="63.82865143" lon="-19.20745468"><ele>560.1</ele><time>2012-07-26T11:33:19.0000000+00:00</time></trkpt><trkpt lat="63.82865143" lon="-19.20745468"><ele>560.1</ele><time>2012-07-26T11:33:24.0000000+00:00</time></trkpt><trkpt lat="63.82865143" lon="-19.20745468"><ele>560.1</ele><time>2012-07-26T11:33:29.0000000+00:00</time></trkpt><trkpt lat="63.82865143" lon="-19.20745468"><ele>560.1</ele><time>2012-07-26T11:33:34.0000000+00:00</time></trkpt><trkpt lat="63.82865143" lon="-19.20745468"><ele>560.2</ele><time>2012-07-26T11:33:39.0000000+00:00</time></trkpt><trkpt lat="63.82865143" lon="-19.20745468"><ele>560.2</ele><time>2012-07-26T11:33:44.0000000+00:00</time></trkpt><trkpt lat="63.82865143" lon="-19.20745659"><ele>560.1</ele><time>2012-07-26T11:33:49.0000000+00:00</time></trkpt><trkpt lat="63.82865143" lon="-19.20745468"><ele>560.1</ele><time>2012-07-26T11:33:54.0000000+00:00</time></trkpt><trkpt lat="63.82865143" lon="-19.20745468"><ele>560.2</ele><time>2012-07-26T11:33:59.0000000+00:00</time></trkpt><trkpt lat="63.82865143" lon="-19.20745468"><ele>560.2</ele><time>2012-07-26T11:34:04.0000000+00:00</time></trkpt><trkpt lat="63.82865143" lon="-19.20745468"><ele>560.2</ele><time>2012-07-26T11:34:09.0000000+00:00</time></trkpt><trkpt lat="63.82865143" lon="-19.20745468"><ele>560.1</ele><time>2012-07-26T11:34:14.0000000+00:00</time></trkpt><trkpt lat="63.82865143" lon="-19.20745468"><ele>560.1</ele><time>2012-07-26T11:34:19.0000000+00:00</time></trkpt><trkpt lat="63.82865143" lon="-19.20745468"><ele>560.1</ele><time>2012-07-26T11:34:24.0000000+00:00</time></trkpt><trkpt lat="63.82865143" lon="-19.20745468"><ele>560.1</ele><time>2012-07-26T11:34:29.0000000+00:00</time></trkpt><trkpt lat="63.82865143" lon="-19.20744705"><ele>560.2</ele><time>2012-07-26T11:34:34.0000000+00:00</time></trkpt><trkpt lat="63.82865143" lon="-19.20744133"><ele>560.2</ele><time>2012-07-26T11:34:39.0000000+00:00</time></trkpt><trkpt lat="63.82865524" lon="-19.20744133"><ele>560.1</ele><time>2012-07-26T11:34:44.0000000+00:00</time></trkpt><trkpt lat="63.82865143" lon="-19.20742226"><ele>559.8</ele><time>2012-07-26T11:34:49.0000000+00:00</time></trkpt><trkpt lat="63.82865143" lon="-19.20742226"><ele>559.5</ele><time>2012-07-26T11:34:54.0000000+00:00</time></trkpt><trkpt lat="63.82865143" lon="-19.20742416"><ele>559.3</ele><time>2012-07-26T11:34:59.0000000+00:00</time></trkpt><trkpt lat="63.82865143" lon="-19.20742416"><ele>559.3</ele><time>2012-07-26T11:35:04.0000000+00:00</time></trkpt><trkpt lat="63.82865143" lon="-19.20742416"><ele>559.3</ele><time>2012-07-26T11:35:09.0000000+00:00</time></trkpt><trkpt lat="63.82865143" lon="-19.20743179"><ele>559.3</ele><time>2012-07-26T11:35:14.0000000+00:00</time></trkpt><trkpt lat="63.82865524" lon="-19.20745468"><ele>559.3</ele><time>2012-07-26T11:35:19.0000000+00:00</time></trkpt><trkpt lat="63.82865524" lon="-19.20747376"><ele>559.3</ele><time>2012-07-26T11:35:24.0000000+00:00</time></trkpt><trkpt lat="63.82865524" lon="-19.20748138"><ele>559.3</ele><time>2012-07-26T11:35:29.0000000+00:00</time></trkpt><trkpt lat="63.82865524" lon="-19.2074852"><ele>559.4</ele><time>2012-07-26T11:35:34.0000000+00:00</time></trkpt><trkpt lat="63.82865906" lon="-19.20748901"><ele>559.6</ele><time>2012-07-26T11:35:39.0000000+00:00</time></trkpt><trkpt lat="63.82865906" lon="-19.20748901"><ele>559.7</ele><time>2012-07-26T11:35:44.0000000+00:00</time></trkpt><trkpt lat="63.82865906" lon="-19.20748901"><ele>559.8</ele><time>2012-07-26T11:35:49.0000000+00:00</time></trkpt><trkpt lat="63.82865906" lon="-19.20748901"><ele>559.8</ele><time>2012-07-26T11:35:54.0000000+00:00</time></trkpt><trkpt lat="63.82865906" lon="-19.20748901"><ele>559.8</ele><time>2012-07-26T11:35:59.0000000+00:00</time></trkpt><trkpt lat="63.82865906" lon="-19.20748901"><ele>559.8</ele><time>2012-07-26T11:36:04.0000000+00:00</time></trkpt><trkpt lat="63.82865906" lon="-19.20748901"><ele>559.8</ele><time>2012-07-26T11:36:09.0000000+00:00</time></trkpt><trkpt lat="63.82865906" lon="-19.20748711"><ele>559.9</ele><time>2012-07-26T11:36:14.0000000+00:00</time></trkpt><trkpt lat="63.82865906" lon="-19.20748711"><ele>559.9</ele><time>2012-07-26T11:36:19.0000000+00:00</time></trkpt><trkpt lat="63.82865906" lon="-19.2074852"><ele>559.9</ele><time>2012-07-26T11:36:24.0000000+00:00</time></trkpt><trkpt lat="63.82865906" lon="-19.2074852"><ele>559.9</ele><time>2012-07-26T11:36:29.0000000+00:00</time></trkpt><trkpt lat="63.82865906" lon="-19.2074852"><ele>559.9</ele><time>2012-07-26T11:36:34.0000000+00:00</time></trkpt><trkpt lat="63.82865524" lon="-19.2074852"><ele>559.9</ele><time>2012-07-26T11:36:39.0000000+00:00</time></trkpt><trkpt lat="63.82865524" lon="-19.20748329"><ele>559.9</ele><time>2012-07-26T11:36:44.0000000+00:00</time></trkpt><trkpt lat="63.82865524" lon="-19.20748329"><ele>559.9</ele><time>2012-07-26T11:36:49.0000000+00:00</time></trkpt><trkpt lat="63.82865524" lon="-19.20748138"><ele>559.9</ele><time>2012-07-26T11:36:54.0000000+00:00</time></trkpt><trkpt lat="63.82865524" lon="-19.20748138"><ele>559.9</ele><time>2012-07-26T11:36:59.0000000+00:00</time></trkpt><trkpt lat="63.82865524" lon="-19.20748138"><ele>559.9</ele><time>2012-07-26T11:37:04.0000000+00:00</time></trkpt><trkpt lat="63.82865524" lon="-19.20748138"><ele>559.9</ele><time>2012-07-26T11:37:09.0000000+00:00</time></trkpt><trkpt lat="63.82865524" lon="-19.20748138"><ele>559.9</ele><time>2012-07-26T11:37:14.0000000+00:00</time></trkpt><trkpt lat="63.82865524" lon="-19.20748138"><ele>560.0</ele><time>2012-07-26T11:37:19.0000000+00:00</time></trkpt><trkpt lat="63.82863998" lon="-19.2074337"><ele>561.8</ele><time>2012-07-26T11:37:24.0000000+00:00</time></trkpt><trkpt lat="63.82862854" lon="-19.20742989"><ele>561.9</ele><time>2012-07-26T11:37:29.0000000+00:00</time></trkpt><trkpt lat="63.82862854" lon="-19.20742989"><ele>562.0</ele><time>2012-07-26T11:37:34.0000000+00:00</time></trkpt><trkpt lat="63.82863617" lon="-19.20742798"><ele>562.0</ele><time>2012-07-26T11:37:39.0000000+00:00</time></trkpt><trkpt lat="63.82863998" lon="-19.20742226"><ele>562.0</ele><time>2012-07-26T11:37:44.0000000+00:00</time></trkpt><trkpt lat="63.82864761" lon="-19.20741844"><ele>562.1</ele><time>2012-07-26T11:37:49.0000000+00:00</time></trkpt><trkpt lat="63.82865143" lon="-19.20740891"><ele>562.1</ele><time>2012-07-26T11:37:54.0000000+00:00</time></trkpt><trkpt lat="63.82865524" lon="-19.20740128"><ele>562.1</ele><time>2012-07-26T11:37:59.0000000+00:00</time></trkpt><trkpt lat="63.82863617" lon="-19.20736694"><ele>562.1</ele><time>2012-07-26T11:38:04.0000000+00:00</time></trkpt><trkpt lat="63.82863617" lon="-19.20734596"><ele>561.9</ele><time>2012-07-26T11:38:09.0000000+00:00</time></trkpt><trkpt lat="63.82863236" lon="-19.20733643"><ele>561.7</ele><time>2012-07-26T11:38:14.0000000+00:00</time></trkpt><trkpt lat="63.82863236" lon="-19.20734596"><ele>561.7</ele><time>2012-07-26T11:38:19.0000000+00:00</time></trkpt><trkpt lat="63.82863236" lon="-19.20733833"><ele>561.8</ele><time>2012-07-26T11:38:24.0000000+00:00</time></trkpt><trkpt lat="63.82863236" lon="-19.20735931"><ele>561.6</ele><time>2012-07-26T11:38:29.0000000+00:00</time></trkpt><trkpt lat="63.82862473" lon="-19.20733261"><ele>561.3</ele><time>2012-07-26T11:38:34.0000000+00:00</time></trkpt><trkpt lat="63.82862854" lon="-19.20733643"><ele>561.4</ele><time>2012-07-26T11:38:39.0000000+00:00</time></trkpt><trkpt lat="63.82862854" lon="-19.20734215"><ele>561.6</ele><time>2012-07-26T11:38:44.0000000+00:00</time></trkpt><trkpt lat="63.82863236" lon="-19.20734406"><ele>561.7</ele><time>2012-07-26T11:38:49.0000000+00:00</time></trkpt><trkpt lat="63.82863236" lon="-19.20734406"><ele>561.7</ele><time>2012-07-26T11:38:54.0000000+00:00</time></trkpt><trkpt lat="63.82863236" lon="-19.20734406"><ele>561.7</ele><time>2012-07-26T11:38:59.0000000+00:00</time></trkpt><trkpt lat="63.82863236" lon="-19.20734406"><ele>561.7</ele><time>2012-07-26T11:39:04.0000000+00:00</time></trkpt><trkpt lat="63.82863236" lon="-19.20734406"><ele>561.7</ele><time>2012-07-26T11:39:09.0000000+00:00</time></trkpt><trkpt lat="63.82863236" lon="-19.20734406"><ele>561.7</ele><time>2012-07-26T11:39:14.0000000+00:00</time></trkpt><trkpt lat="63.82863236" lon="-19.20734596"><ele>561.8</ele><time>2012-07-26T11:39:19.0000000+00:00</time></trkpt><trkpt lat="63.82863236" lon="-19.20734596"><ele>561.8</ele><time>2012-07-26T11:39:24.0000000+00:00</time></trkpt><trkpt lat="63.82863236" lon="-19.20734596"><ele>561.8</ele><time>2012-07-26T11:39:29.0000000+00:00</time></trkpt><trkpt lat="63.82863236" lon="-19.20734787"><ele>561.6</ele><time>2012-07-26T11:39:34.0000000+00:00</time></trkpt><trkpt lat="63.8286438" lon="-19.20740128"><ele>561.3</ele><time>2012-07-26T11:39:39.0000000+00:00</time></trkpt><trkpt lat="63.82863617" lon="-19.20741653"><ele>560.4</ele><time>2012-07-26T11:39:44.0000000+00:00</time></trkpt><trkpt lat="63.82863617" lon="-19.20741653"><ele>560.4</ele><time>2012-07-26T11:39:49.0000000+00:00</time></trkpt><trkpt lat="63.82863998" lon="-19.20741272"><ele>560.4</ele><time>2012-07-26T11:39:54.0000000+00:00</time></trkpt><trkpt lat="63.82863998" lon="-19.20741272"><ele>560.5</ele><time>2012-07-26T11:39:59.0000000+00:00</time></trkpt><trkpt lat="63.82863998" lon="-19.20741081"><ele>560.5</ele><time>2012-07-26T11:40:04.0000000+00:00</time></trkpt><trkpt lat="63.82863998" lon="-19.20741081"><ele>560.4</ele><time>2012-07-26T11:40:09.0000000+00:00</time></trkpt><trkpt lat="63.82863998" lon="-19.20741081"><ele>560.4</ele><time>2012-07-26T11:40:14.0000000+00:00</time></trkpt><trkpt lat="63.82863998" lon="-19.20741081"><ele>560.4</ele><time>2012-07-26T11:40:19.0000000+00:00</time></trkpt><trkpt lat="63.82863998" lon="-19.20741081"><ele>560.3</ele><time>2012-07-26T11:40:24.0000000+00:00</time></trkpt><trkpt lat="63.82863998" lon="-19.20741081"><ele>560.3</ele><time>2012-07-26T11:40:29.0000000+00:00</time></trkpt><trkpt lat="63.82863998" lon="-19.20741081"><ele>560.2</ele><time>2012-07-26T11:40:34.0000000+00:00</time></trkpt><trkpt lat="63.82863998" lon="-19.20741081"><ele>560.2</ele><time>2012-07-26T11:40:39.0000000+00:00</time></trkpt><trkpt lat="63.82863998" lon="-19.20741081"><ele>560.2</ele><time>2012-07-26T11:40:44.0000000+00:00</time></trkpt><trkpt lat="63.82863998" lon="-19.20741081"><ele>560.2</ele><time>2012-07-26T11:40:49.0000000+00:00</time></trkpt><trkpt lat="63.82863998" lon="-19.20738602"><ele>560.7</ele><time>2012-07-26T11:40:54.0000000+00:00</time></trkpt><trkpt lat="63.8286438" lon="-19.20740509"><ele>562.4</ele><time>2012-07-26T11:40:59.0000000+00:00</time></trkpt><trkpt lat="63.82864761" lon="-19.20740891"><ele>562.5</ele><time>2012-07-26T11:41:04.0000000+00:00</time></trkpt><trkpt lat="63.82864761" lon="-19.20740318"><ele>562.6</ele><time>2012-07-26T11:41:09.0000000+00:00</time></trkpt><trkpt lat="63.82865143" lon="-19.20739937"><ele>562.6</ele><time>2012-07-26T11:41:14.0000000+00:00</time></trkpt><trkpt lat="63.82865143" lon="-19.20739746"><ele>562.8</ele><time>2012-07-26T11:41:19.0000000+00:00</time></trkpt><trkpt lat="63.82865143" lon="-19.20739746"><ele>563.0</ele><time>2012-07-26T11:41:24.0000000+00:00</time></trkpt><trkpt lat="63.82866287" lon="-19.20738983"><ele>562.9</ele><time>2012-07-26T11:41:29.0000000+00:00</time></trkpt><trkpt lat="63.82866287" lon="-19.20740891"><ele>562.6</ele><time>2012-07-26T11:41:34.0000000+00:00</time></trkpt><trkpt lat="63.82865906" lon="-19.20739365"><ele>562.9</ele><time>2012-07-26T11:41:39.0000000+00:00</time></trkpt><trkpt lat="63.8286438" lon="-19.20739365"><ele>562.9</ele><time>2012-07-26T11:41:44.0000000+00:00</time></trkpt><trkpt lat="63.82863998" lon="-19.207407"><ele>563.0</ele><time>2012-07-26T11:41:49.0000000+00:00</time></trkpt><trkpt lat="63.82863617" lon="-19.20739937"><ele>563.0</ele><time>2012-07-26T11:41:54.0000000+00:00</time></trkpt><trkpt lat="63.82863617" lon="-19.20740891"><ele>563.0</ele><time>2012-07-26T11:41:59.0000000+00:00</time></trkpt><trkpt lat="63.82862854" lon="-19.20740891"><ele>563.4</ele><time>2012-07-26T11:42:04.0000000+00:00</time></trkpt><trkpt lat="63.82863236" lon="-19.20741653"><ele>563.4</ele><time>2012-07-26T11:42:09.0000000+00:00</time></trkpt><trkpt lat="63.82862854" lon="-19.20745087"><ele>563.6</ele><time>2012-07-26T11:42:14.0000000+00:00</time></trkpt><trkpt lat="63.82862473" lon="-19.20745659"><ele>563.7</ele><time>2012-07-26T11:42:19.0000000+00:00</time></trkpt><trkpt lat="63.82862473" lon="-19.20746422"><ele>563.8</ele><time>2012-07-26T11:42:24.0000000+00:00</time></trkpt><trkpt lat="63.82862473" lon="-19.20746613"><ele>563.8</ele><time>2012-07-26T11:42:29.0000000+00:00</time></trkpt><trkpt lat="63.82862473" lon="-19.20746613"><ele>563.9</ele><time>2012-07-26T11:42:34.0000000+00:00</time></trkpt><trkpt lat="63.82862473" lon="-19.20746613"><ele>563.9</ele><time>2012-07-26T11:42:39.0000000+00:00</time></trkpt><trkpt lat="63.82862473" lon="-19.20746613"><ele>563.9</ele><time>2012-07-26T11:42:44.0000000+00:00</time></trkpt><trkpt lat="63.82862473" lon="-19.20746613"><ele>563.9</ele><time>2012-07-26T11:42:49.0000000+00:00</time></trkpt><trkpt lat="63.82862473" lon="-19.20746613"><ele>563.9</ele><time>2012-07-26T11:42:54.0000000+00:00</time></trkpt><trkpt lat="63.82862473" lon="-19.20746422"><ele>563.9</ele><time>2012-07-26T11:42:59.0000000+00:00</time></trkpt><trkpt lat="63.82862473" lon="-19.20746422"><ele>563.9</ele><time>2012-07-26T11:43:04.0000000+00:00</time></trkpt><trkpt lat="63.82862473" lon="-19.20746422"><ele>563.8</ele><time>2012-07-26T11:43:09.0000000+00:00</time></trkpt><trkpt lat="63.82862473" lon="-19.20746422"><ele>563.8</ele><time>2012-07-26T11:43:14.0000000+00:00</time></trkpt><trkpt lat="63.82862473" lon="-19.20746231"><ele>563.8</ele><time>2012-07-26T11:43:19.0000000+00:00</time></trkpt><trkpt lat="63.82862854" lon="-19.20745087"><ele>563.8</ele><time>2012-07-26T11:43:24.0000000+00:00</time></trkpt><trkpt lat="63.82862854" lon="-19.20743942"><ele>563.8</ele><time>2012-07-26T11:43:29.0000000+00:00</time></trkpt><trkpt lat="63.82862854" lon="-19.20743561"><ele>563.8</ele><time>2012-07-26T11:43:34.0000000+00:00</time></trkpt><trkpt lat="63.82862854" lon="-19.20743179"><ele>563.8</ele><time>2012-07-26T11:43:39.0000000+00:00</time></trkpt><trkpt lat="63.82862854" lon="-19.20742035"><ele>563.9</ele><time>2012-07-26T11:43:44.0000000+00:00</time></trkpt><trkpt lat="63.82863236" lon="-19.20741081"><ele>563.9</ele><time>2012-07-26T11:43:49.0000000+00:00</time></trkpt><trkpt lat="63.82863236" lon="-19.20740509"><ele>564.1</ele><time>2012-07-26T11:43:54.0000000+00:00</time></trkpt><trkpt lat="63.82863236" lon="-19.20739937"><ele>564.3</ele><time>2012-07-26T11:43:59.0000000+00:00</time></trkpt><trkpt lat="63.82863236" lon="-19.20739365"><ele>564.4</ele><time>2012-07-26T11:44:04.0000000+00:00</time></trkpt><trkpt lat="63.82863617" lon="-19.20738983"><ele>564.5</ele><time>2012-07-26T11:44:09.0000000+00:00</time></trkpt><trkpt lat="63.82863617" lon="-19.20738411"><ele>564.4</ele><time>2012-07-26T11:44:14.0000000+00:00</time></trkpt><trkpt lat="63.8286438" lon="-19.20735931"><ele>564.8</ele><time>2012-07-26T11:44:19.0000000+00:00</time></trkpt><trkpt lat="63.82863236" lon="-19.20737457"><ele>564.7</ele><time>2012-07-26T11:44:24.0000000+00:00</time></trkpt><trkpt lat="63.82862854" lon="-19.20742989"><ele>564.2</ele><time>2012-07-26T11:44:29.0000000+00:00</time></trkpt><trkpt lat="63.82862854" lon="-19.20742989"><ele>564.1</ele><time>2012-07-26T11:44:34.0000000+00:00</time></trkpt><trkpt lat="63.82863236" lon="-19.20742416"><ele>564.1</ele><time>2012-07-26T11:44:39.0000000+00:00</time></trkpt><trkpt lat="63.82863236" lon="-19.20744324"><ele>563.6</ele><time>2012-07-26T11:44:44.0000000+00:00</time></trkpt><trkpt lat="63.82861328" lon="-19.20746613"><ele>563.1</ele><time>2012-07-26T11:44:49.0000000+00:00</time></trkpt><trkpt lat="63.82861328" lon="-19.20745659"><ele>563.0</ele><time>2012-07-26T11:44:54.0000000+00:00</time></trkpt><trkpt lat="63.82861328" lon="-19.20744896"><ele>563.0</ele><time>2012-07-26T11:44:59.0000000+00:00</time></trkpt><trkpt lat="63.82861328" lon="-19.20744896"><ele>562.9</ele><time>2012-07-26T11:45:04.0000000+00:00</time></trkpt><trkpt lat="63.82861328" lon="-19.20744896"><ele>562.9</ele><time>2012-07-26T11:45:09.0000000+00:00</time></trkpt><trkpt lat="63.82861328" lon="-19.20744896"><ele>562.9</ele><time>2012-07-26T11:45:14.0000000+00:00</time></trkpt><trkpt lat="63.82861328" lon="-19.20744896"><ele>562.9</ele><time>2012-07-26T11:45:19.0000000+00:00</time></trkpt><trkpt lat="63.8286171" lon="-19.20745087"><ele>562.9</ele><time>2012-07-26T11:45:24.0000000+00:00</time></trkpt><trkpt lat="63.82862473" lon="-19.20742989"><ele>563.9</ele><time>2012-07-26T11:45:29.0000000+00:00</time></trkpt><trkpt lat="63.82863998" lon="-19.20742035"><ele>564.4</ele><time>2012-07-26T11:45:34.0000000+00:00</time></trkpt><trkpt lat="63.82863236" lon="-19.2074337"><ele>564.6</ele><time>2012-07-26T11:45:39.0000000+00:00</time></trkpt><trkpt lat="63.82863236" lon="-19.20744324"><ele>565.0</ele><time>2012-07-26T11:45:44.0000000+00:00</time></trkpt><trkpt lat="63.82863236" lon="-19.20743942"><ele>565.2</ele><time>2012-07-26T11:45:49.0000000+00:00</time></trkpt><trkpt lat="63.82863236" lon="-19.20743561"><ele>565.3</ele><time>2012-07-26T11:45:54.0000000+00:00</time></trkpt><trkpt lat="63.82863617" lon="-19.20744896"><ele>565.1</ele><time>2012-07-26T11:45:59.0000000+00:00</time></trkpt><trkpt lat="63.82863617" lon="-19.20744515"><ele>565.2</ele><time>2012-07-26T11:46:04.0000000+00:00</time></trkpt><trkpt lat="63.82863998" lon="-19.20743752"><ele>565.3</ele><time>2012-07-26T11:46:09.0000000+00:00</time></trkpt><trkpt lat="63.82863617" lon="-19.20744324"><ele>565.3</ele><time>2012-07-26T11:46:14.0000000+00:00</time></trkpt><trkpt lat="63.82863998" lon="-19.20744133"><ele>565.3</ele><time>2012-07-26T11:46:19.0000000+00:00</time></trkpt><trkpt lat="63.82863998" lon="-19.20743942"><ele>565.3</ele><time>2012-07-26T11:46:24.0000000+00:00</time></trkpt><trkpt lat="63.82863998" lon="-19.20743942"><ele>565.3</ele><time>2012-07-26T11:46:29.0000000+00:00</time></trkpt><trkpt lat="63.82863998" lon="-19.20743942"><ele>565.3</ele><time>2012-07-26T11:46:34.0000000+00:00</time></trkpt><trkpt lat="63.82863998" lon="-19.20743942"><ele>565.3</ele><time>2012-07-26T11:46:39.0000000+00:00</time></trkpt><trkpt lat="63.82863998" lon="-19.20743752"><ele>565.3</ele><time>2012-07-26T11:46:44.0000000+00:00</time></trkpt><trkpt lat="63.82863998" lon="-19.20743752"><ele>565.3</ele><time>2012-07-26T11:46:49.0000000+00:00</time></trkpt><trkpt lat="63.82863998" lon="-19.20743752"><ele>565.3</ele><time>2012-07-26T11:46:54.0000000+00:00</time></trkpt><trkpt lat="63.82863998" lon="-19.20743752"><ele>565.3</ele><time>2012-07-26T11:46:59.0000000+00:00</time></trkpt><trkpt lat="63.82863998" lon="-19.20743561"><ele>565.3</ele><time>2012-07-26T11:47:04.0000000+00:00</time></trkpt><trkpt lat="63.82863998" lon="-19.20743561"><ele>565.3</ele><time>2012-07-26T11:47:09.0000000+00:00</time></trkpt><trkpt lat="63.82863998" lon="-19.20743561"><ele>565.3</ele><time>2012-07-26T11:47:14.0000000+00:00</time></trkpt><trkpt lat="63.82863998" lon="-19.20743561"><ele>565.4</ele><time>2012-07-26T11:47:19.0000000+00:00</time></trkpt><trkpt lat="63.82863998" lon="-19.20743561"><ele>565.3</ele><time>2012-07-26T11:47:24.0000000+00:00</time></trkpt><trkpt lat="63.82863998" lon="-19.20743561"><ele>565.3</ele><time>2012-07-26T11:47:29.0000000+00:00</time></trkpt><trkpt lat="63.82863998" lon="-19.20743561"><ele>565.3</ele><time>2012-07-26T11:47:34.0000000+00:00</time></trkpt><trkpt lat="63.82863998" lon="-19.20743561"><ele>565.3</ele><time>2012-07-26T11:47:39.0000000+00:00</time></trkpt><trkpt lat="63.82863998" lon="-19.20743561"><ele>565.3</ele><time>2012-07-26T11:47:44.0000000+00:00</time></trkpt><trkpt lat="63.82863998" lon="-19.20743561"><ele>565.3</ele><time>2012-07-26T11:47:49.0000000+00:00</time></trkpt><trkpt lat="63.82863998" lon="-19.20743752"><ele>565.3</ele><time>2012-07-26T11:47:54.0000000+00:00</time></trkpt><trkpt lat="63.82863998" lon="-19.20743752"><ele>565.3</ele><time>2012-07-26T11:47:59.0000000+00:00</time></trkpt><trkpt lat="63.82863617" lon="-19.20743752"><ele>565.3</ele><time>2012-07-26T11:48:04.0000000+00:00</time></trkpt><trkpt lat="63.82863617" lon="-19.20743752"><ele>565.3</ele><time>2012-07-26T11:48:09.0000000+00:00</time></trkpt><trkpt lat="63.82863617" lon="-19.20743752"><ele>565.3</ele><time>2012-07-26T11:48:14.0000000+00:00</time></trkpt><trkpt lat="63.82863617" lon="-19.20743942"><ele>565.3</ele><time>2012-07-26T11:48:19.0000000+00:00</time></trkpt><trkpt lat="63.82863617" lon="-19.20743942"><ele>565.3</ele><time>2012-07-26T11:48:24.0000000+00:00</time></trkpt><trkpt lat="63.82863617" lon="-19.20743942"><ele>565.3</ele><time>2012-07-26T11:48:29.0000000+00:00</time></trkpt><trkpt lat="63.82863617" lon="-19.20743942"><ele>565.2</ele><time>2012-07-26T11:48:34.0000000+00:00</time></trkpt><trkpt lat="63.82863617" lon="-19.20743942"><ele>565.2</ele><time>2012-07-26T11:48:39.0000000+00:00</time></trkpt><trkpt lat="63.82863617" lon="-19.20743942"><ele>565.2</ele><time>2012-07-26T11:48:44.0000000+00:00</time></trkpt><trkpt lat="63.82863617" lon="-19.20744133"><ele>565.2</ele><time>2012-07-26T11:48:49.0000000+00:00</time></trkpt><trkpt lat="63.82863617" lon="-19.20744133"><ele>565.2</ele><time>2012-07-26T11:48:54.0000000+00:00</time></trkpt><trkpt lat="63.82863617" lon="-19.20744133"><ele>565.2</ele><time>2012-07-26T11:48:59.0000000+00:00</time></trkpt><trkpt lat="63.82863617" lon="-19.20744133"><ele>565.2</ele><time>2012-07-26T11:49:04.0000000+00:00</time></trkpt><trkpt lat="63.82863617" lon="-19.20744133"><ele>565.2</ele><time>2012-07-26T11:49:09.0000000+00:00</time></trkpt><trkpt lat="63.82863617" lon="-19.20744133"><ele>565.2</ele><time>2012-07-26T11:49:14.0000000+00:00</time></trkpt><trkpt lat="63.82863617" lon="-19.20744133"><ele>565.2</ele><time>2012-07-26T11:49:19.0000000+00:00</time></trkpt><trkpt lat="63.82863617" lon="-19.20744133"><ele>565.2</ele><time>2012-07-26T11:49:24.0000000+00:00</time></trkpt><trkpt lat="63.82863617" lon="-19.20744133"><ele>565.3</ele><time>2012-07-26T11:49:29.0000000+00:00</time></trkpt><trkpt lat="63.82863617" lon="-19.20744133"><ele>565.3</ele><time>2012-07-26T11:49:34.0000000+00:00</time></trkpt><trkpt lat="63.82863617" lon="-19.20743942"><ele>565.4</ele><time>2012-07-26T11:49:39.0000000+00:00</time></trkpt><trkpt lat="63.82863617" lon="-19.20743942"><ele>565.4</ele><time>2012-07-26T11:49:44.0000000+00:00</time></trkpt><trkpt lat="63.82863617" lon="-19.20743942"><ele>565.4</ele><time>2012-07-26T11:49:49.0000000+00:00</time></trkpt><trkpt lat="63.82863617" lon="-19.20743942"><ele>565.4</ele><time>2012-07-26T11:49:54.0000000+00:00</time></trkpt><trkpt lat="63.82863617" lon="-19.20743942"><ele>565.4</ele><time>2012-07-26T11:49:59.0000000+00:00</time></trkpt><trkpt lat="63.82863617" lon="-19.20743942"><ele>565.5</ele><time>2012-07-26T11:50:04.0000000+00:00</time></trkpt><trkpt lat="63.82863617" lon="-19.20743942"><ele>565.5</ele><time>2012-07-26T11:50:09.0000000+00:00</time></trkpt><trkpt lat="63.82863617" lon="-19.20743942"><ele>565.5</ele><time>2012-07-26T11:50:14.0000000+00:00</time></trkpt><trkpt lat="63.82863617" lon="-19.20743752"><ele>565.5</ele><time>2012-07-26T11:50:19.0000000+00:00</time></trkpt><trkpt lat="63.82863617" lon="-19.20743752"><ele>565.5</ele><time>2012-07-26T11:50:24.0000000+00:00</time></trkpt><trkpt lat="63.82863617" lon="-19.20743752"><ele>565.6</ele><time>2012-07-26T11:50:29.0000000+00:00</time></trkpt><trkpt lat="63.82863617" lon="-19.20743561"><ele>565.6</ele><time>2012-07-26T11:50:34.0000000+00:00</time></trkpt><trkpt lat="63.82863617" lon="-19.20743561"><ele>565.6</ele><time>2012-07-26T11:50:39.0000000+00:00</time></trkpt><trkpt lat="63.82863617" lon="-19.20743561"><ele>565.6</ele><time>2012-07-26T11:50:44.0000000+00:00</time></trkpt><trkpt lat="63.82863617" lon="-19.20743561"><ele>565.6</ele><time>2012-07-26T11:50:49.0000000+00:00</time></trkpt><trkpt lat="63.82863617" lon="-19.20743561"><ele>565.6</ele><time>2012-07-26T11:50:54.0000000+00:00</time></trkpt><trkpt lat="63.82863617" lon="-19.2074337"><ele>565.6</ele><time>2012-07-26T11:50:59.0000000+00:00</time></trkpt><trkpt lat="63.82863617" lon="-19.2074337"><ele>565.7</ele><time>2012-07-26T11:51:04.0000000+00:00</time></trkpt><trkpt lat="63.82863617" lon="-19.2074337"><ele>565.7</ele><time>2012-07-26T11:51:09.0000000+00:00</time></trkpt><trkpt lat="63.82863617" lon="-19.2074337"><ele>565.7</ele><time>2012-07-26T11:51:14.0000000+00:00</time></trkpt><trkpt lat="63.82863617" lon="-19.2074337"><ele>565.7</ele><time>2012-07-26T11:51:19.0000000+00:00</time></trkpt><trkpt lat="63.82863617" lon="-19.2074337"><ele>565.7</ele><time>2012-07-26T11:51:24.0000000+00:00</time></trkpt><trkpt lat="63.82863617" lon="-19.20742607"><ele>565.8</ele><time>2012-07-26T11:51:29.0000000+00:00</time></trkpt><trkpt lat="63.82863998" lon="-19.20741653"><ele>566.0</ele><time>2012-07-26T11:51:34.0000000+00:00</time></trkpt><trkpt lat="63.8286438" lon="-19.20743179"><ele>566.1</ele><time>2012-07-26T11:51:39.0000000+00:00</time></trkpt><trkpt lat="63.82863998" lon="-19.20743942"><ele>566.2</ele><time>2012-07-26T11:51:44.0000000+00:00</time></trkpt><trkpt lat="63.82865143" lon="-19.20743752"><ele>565.7</ele><time>2012-07-26T11:51:49.0000000+00:00</time></trkpt><trkpt lat="63.82865143" lon="-19.2074337"><ele>565.7</ele><time>2012-07-26T11:51:54.0000000+00:00</time></trkpt><trkpt lat="63.82865143" lon="-19.20742989"><ele>565.7</ele><time>2012-07-26T11:51:59.0000000+00:00</time></trkpt><trkpt lat="63.82865143" lon="-19.20742607"><ele>565.7</ele><time>2012-07-26T11:52:04.0000000+00:00</time></trkpt><trkpt lat="63.82865524" lon="-19.20742989"><ele>565.6</ele><time>2012-07-26T11:52:09.0000000+00:00</time></trkpt><trkpt lat="63.82863236" lon="-19.20750237"><ele>565.9</ele><time>2012-07-26T11:52:14.0000000+00:00</time></trkpt><trkpt lat="63.82863236" lon="-19.20751572"><ele>565.6</ele><time>2012-07-26T11:52:19.0000000+00:00</time></trkpt><trkpt lat="63.82863236" lon="-19.20753479"><ele>565.6</ele><time>2012-07-26T11:52:24.0000000+00:00</time></trkpt><trkpt lat="63.82862854" lon="-19.20754051"><ele>565.5</ele><time>2012-07-26T11:52:29.0000000+00:00</time></trkpt><trkpt lat="63.82862854" lon="-19.20754814"><ele>565.4</ele><time>2012-07-26T11:52:34.0000000+00:00</time></trkpt><trkpt lat="63.82862473" lon="-19.20755196"><ele>565.0</ele><time>2012-07-26T11:52:39.0000000+00:00</time></trkpt><trkpt lat="63.82862091" lon="-19.20755768"><ele>564.6</ele><time>2012-07-26T11:52:44.0000000+00:00</time></trkpt><trkpt lat="63.8286171" lon="-19.2075634"><ele>564.1</ele><time>2012-07-26T11:52:49.0000000+00:00</time></trkpt><trkpt lat="63.82857513" lon="-19.20764923"><ele>564.2</ele><time>2012-07-26T11:52:54.0000000+00:00</time></trkpt><trkpt lat="63.82850266" lon="-19.20778084"><ele>563.3</ele><time>2012-07-26T11:52:59.0000000+00:00</time></trkpt><trkpt lat="63.82842255" lon="-19.20796776"><ele>562.6</ele><time>2012-07-26T11:53:04.0000000+00:00</time></trkpt><trkpt lat="63.82836151" lon="-19.2082119"><ele>562.4</ele><time>2012-07-26T11:53:09.0000000+00:00</time></trkpt><trkpt lat="63.82831574" lon="-19.20846748"><ele>563.1</ele><time>2012-07-26T11:53:14.0000000+00:00</time></trkpt><trkpt lat="63.8282814" lon="-19.20866776"><ele>563.8</ele><time>2012-07-26T11:53:19.0000000+00:00</time></trkpt><trkpt lat="63.82824707" lon="-19.20885468"><ele>564.5</ele><time>2012-07-26T11:53:24.0000000+00:00</time></trkpt><trkpt lat="63.82816696" lon="-19.20904541"><ele>565.0</ele><time>2012-07-26T11:53:29.0000000+00:00</time></trkpt><trkpt lat="63.82806778" lon="-19.2092247"><ele>565.5</ele><time>2012-07-26T11:53:34.0000000+00:00</time></trkpt><trkpt lat="63.82796478" lon="-19.20927811"><ele>566.7</ele><time>2012-07-26T11:53:39.0000000+00:00</time></trkpt><trkpt lat="63.82787323" lon="-19.20934677"><ele>567.7</ele><time>2012-07-26T11:53:44.0000000+00:00</time></trkpt><trkpt lat="63.82778549" lon="-19.20946121"><ele>567.8</ele><time>2012-07-26T11:53:49.0000000+00:00</time></trkpt><trkpt lat="63.8277359" lon="-19.20974922"><ele>567.6</ele><time>2012-07-26T11:53:54.0000000+00:00</time></trkpt><trkpt lat="63.82765961" lon="-19.21009445"><ele>566.9</ele><time>2012-07-26T11:53:59.0000000+00:00</time></trkpt><trkpt lat="63.82754135" lon="-19.21040535"><ele>566.9</ele><time>2012-07-26T11:54:04.0000000+00:00</time></trkpt><trkpt lat="63.82737351" lon="-19.21067619"><ele>566.1</ele><time>2012-07-26T11:54:09.0000000+00:00</time></trkpt><trkpt lat="63.82725525" lon="-19.21089935"><ele>566.8</ele><time>2012-07-26T11:54:14.0000000+00:00</time></trkpt><trkpt lat="63.82726288" lon="-19.21088982"><ele>568.2</ele><time>2012-07-26T11:54:19.0000000+00:00</time></trkpt><trkpt lat="63.82726288" lon="-19.21089172"><ele>568.7</ele><time>2012-07-26T11:54:24.0000000+00:00</time></trkpt><trkpt lat="63.82726669" lon="-19.21089554"><ele>568.9</ele><time>2012-07-26T11:54:29.0000000+00:00</time></trkpt><trkpt lat="63.82726669" lon="-19.21091461"><ele>569.1</ele><time>2012-07-26T11:54:34.0000000+00:00</time></trkpt><trkpt lat="63.82726669" lon="-19.21093559"><ele>569.3</ele><time>2012-07-26T11:54:39.0000000+00:00</time></trkpt><trkpt lat="63.82726669" lon="-19.21093941"><ele>569.5</ele><time>2012-07-26T11:54:44.0000000+00:00</time></trkpt><trkpt lat="63.82727051" lon="-19.21093559"><ele>569.6</ele><time>2012-07-26T11:54:49.0000000+00:00</time></trkpt><trkpt lat="63.82727051" lon="-19.21095276"><ele>569.7</ele><time>2012-07-26T11:54:54.0000000+00:00</time></trkpt><trkpt lat="63.82730484" lon="-19.21089935"><ele>569.2</ele><time>2012-07-26T11:54:59.0000000+00:00</time></trkpt><trkpt lat="63.82740784" lon="-19.21073914"><ele>569.9</ele><time>2012-07-26T11:55:04.0000000+00:00</time></trkpt><trkpt lat="63.82752609" lon="-19.21053886"><ele>571.1</ele><time>2012-07-26T11:55:09.0000000+00:00</time></trkpt><trkpt lat="63.82763672" lon="-19.21030235"><ele>571.6</ele><time>2012-07-26T11:55:14.0000000+00:00</time></trkpt><trkpt lat="63.82773209" lon="-19.20997047"><ele>572.6</ele><time>2012-07-26T11:55:19.0000000+00:00</time></trkpt><trkpt lat="63.82778931" lon="-19.20970345"><ele>574.2</ele><time>2012-07-26T11:55:24.0000000+00:00</time></trkpt><trkpt lat="63.82779312" lon="-19.20956421"><ele>574.3</ele><time>2012-07-26T11:55:29.0000000+00:00</time></trkpt><trkpt lat="63.82779312" lon="-19.20957565"><ele>574.6</ele><time>2012-07-26T11:55:34.0000000+00:00</time></trkpt><trkpt lat="63.82778931" lon="-19.20956039"><ele>575.1</ele><time>2012-07-26T11:55:39.0000000+00:00</time></trkpt><trkpt lat="63.82776642" lon="-19.20960808"><ele>574.3</ele><time>2012-07-26T11:55:44.0000000+00:00</time></trkpt><trkpt lat="63.82771301" lon="-19.209898"><ele>573.5</ele><time>2012-07-26T11:55:49.0000000+00:00</time></trkpt><trkpt lat="63.82759476" lon="-19.21026039"><ele>572.0</ele><time>2012-07-26T11:55:54.0000000+00:00</time></trkpt><trkpt lat="63.82739639" lon="-19.21061325"><ele>573.0</ele><time>2012-07-26T11:55:59.0000000+00:00</time></trkpt><trkpt lat="63.82720184" lon="-19.21099091"><ele>569.8</ele><time>2012-07-26T11:56:04.0000000+00:00</time></trkpt><trkpt lat="63.82704544" lon="-19.2114048"><ele>567.4</ele><time>2012-07-26T11:56:09.0000000+00:00</time></trkpt><trkpt lat="63.82689667" lon="-19.21177101"><ele>562.5</ele><time>2012-07-26T11:56:14.0000000+00:00</time></trkpt><trkpt lat="63.82675552" lon="-19.21207237"><ele>562.7</ele><time>2012-07-26T11:56:19.0000000+00:00</time></trkpt><trkpt lat="63.82662582" lon="-19.21230125"><ele>563.5</ele><time>2012-07-26T11:56:24.0000000+00:00</time></trkpt><trkpt lat="63.82650757" lon="-19.21239853"><ele>562.7</ele><time>2012-07-26T11:56:29.0000000+00:00</time></trkpt><trkpt lat="63.82641983" lon="-19.21250534"><ele>564.1</ele><time>2012-07-26T11:56:34.0000000+00:00</time></trkpt><trkpt lat="63.82634735" lon="-19.21256256"><ele>565.5</ele><time>2012-07-26T11:56:39.0000000+00:00</time></trkpt><trkpt lat="63.82630539" lon="-19.21261406"><ele>566.9</ele><time>2012-07-26T11:56:44.0000000+00:00</time></trkpt><trkpt lat="63.82622147" lon="-19.21270561"><ele>568.6</ele><time>2012-07-26T11:56:49.0000000+00:00</time></trkpt><trkpt lat="63.82613373" lon="-19.21281242"><ele>569.7</ele><time>2012-07-26T11:56:54.0000000+00:00</time></trkpt><trkpt lat="63.82609177" lon="-19.2128582"><ele>569.6</ele><time>2012-07-26T11:56:59.0000000+00:00</time></trkpt><trkpt lat="63.82605743" lon="-19.21291924"><ele>567.0</ele><time>2012-07-26T11:57:04.0000000+00:00</time></trkpt><trkpt lat="63.82603073" lon="-19.21298218"><ele>567.0</ele><time>2012-07-26T11:57:09.0000000+00:00</time></trkpt><trkpt lat="63.82598877" lon="-19.21305656"><ele>568.0</ele><time>2012-07-26T11:57:14.0000000+00:00</time></trkpt><trkpt lat="63.82593918" lon="-19.21308708"><ele>567.4</ele><time>2012-07-26T11:57:19.0000000+00:00</time></trkpt><trkpt lat="63.82589722" lon="-19.21314049"><ele>566.5</ele><time>2012-07-26T11:57:24.0000000+00:00</time></trkpt><trkpt lat="63.82585526" lon="-19.21315384"><ele>566.7</ele><time>2012-07-26T11:57:29.0000000+00:00</time></trkpt><trkpt lat="63.82582474" lon="-19.21321297"><ele>565.5</ele><time>2012-07-26T11:57:34.0000000+00:00</time></trkpt><trkpt lat="63.82580566" lon="-19.21327019"><ele>564.7</ele><time>2012-07-26T11:57:39.0000000+00:00</time></trkpt><trkpt lat="63.82578278" lon="-19.21327591"><ele>564.2</ele><time>2012-07-26T11:57:44.0000000+00:00</time></trkpt><trkpt lat="63.82575226" lon="-19.21330833"><ele>564.3</ele><time>2012-07-26T11:57:49.0000000+00:00</time></trkpt><trkpt lat="63.82574081" lon="-19.21333313"><ele>565.3</ele><time>2012-07-26T11:57:54.0000000+00:00</time></trkpt><trkpt lat="63.82573319" lon="-19.21336556"><ele>564.8</ele><time>2012-07-26T11:57:59.0000000+00:00</time></trkpt><trkpt lat="63.82571793" lon="-19.21341896"><ele>565.3</ele><time>2012-07-26T11:58:04.0000000+00:00</time></trkpt><trkpt lat="63.82566834" lon="-19.21348381"><ele>565.7</ele><time>2012-07-26T11:58:09.0000000+00:00</time></trkpt><trkpt lat="63.82566452" lon="-19.21347809"><ele>565.3</ele><time>2012-07-26T11:58:14.0000000+00:00</time></trkpt><trkpt lat="63.82565689" lon="-19.21348953"><ele>565.2</ele><time>2012-07-26T11:58:19.0000000+00:00</time></trkpt><trkpt lat="63.82562637" lon="-19.21351242"><ele>565.2</ele><time>2012-07-26T11:58:24.0000000+00:00</time></trkpt><trkpt lat="63.82561112" lon="-19.2134819"><ele>564.4</ele><time>2012-07-26T11:58:29.0000000+00:00</time></trkpt><trkpt lat="63.82561112" lon="-19.21349335"><ele>564.4</ele><time>2012-07-26T11:58:34.0000000+00:00</time></trkpt><trkpt lat="63.82561112" lon="-19.21349716"><ele>564.4</ele><time>2012-07-26T11:58:39.0000000+00:00</time></trkpt><trkpt lat="63.82561112" lon="-19.21350288"><ele>564.4</ele><time>2012-07-26T11:58:44.0000000+00:00</time></trkpt><trkpt lat="63.8256073" lon="-19.21352196"><ele>564.5</ele><time>2012-07-26T11:58:49.0000000+00:00</time></trkpt><trkpt lat="63.82559967" lon="-19.2135334"><ele>563.8</ele><time>2012-07-26T11:58:54.0000000+00:00</time></trkpt><trkpt lat="63.82559967" lon="-19.21353531"><ele>564.0</ele><time>2012-07-26T11:58:59.0000000+00:00</time></trkpt><trkpt lat="63.82559586" lon="-19.21353531"><ele>564.2</ele><time>2012-07-26T11:59:04.0000000+00:00</time></trkpt><trkpt lat="63.82555771" lon="-19.21360016"><ele>564.2</ele><time>2012-07-26T11:59:09.0000000+00:00</time></trkpt><trkpt lat="63.8255043" lon="-19.21369362"><ele>564.1</ele><time>2012-07-26T11:59:14.0000000+00:00</time></trkpt><trkpt lat="63.82546997" lon="-19.21372986"><ele>564.8</ele><time>2012-07-26T11:59:19.0000000+00:00</time></trkpt><trkpt lat="63.82546234" lon="-19.21375465"><ele>564.6</ele><time>2012-07-26T11:59:24.0000000+00:00</time></trkpt><trkpt lat="63.82546234" lon="-19.21374893"><ele>564.6</ele><time>2012-07-26T11:59:29.0000000+00:00</time></trkpt><trkpt lat="63.82546616" lon="-19.21373367"><ele>565.3</ele><time>2012-07-26T11:59:34.0000000+00:00</time></trkpt><trkpt lat="63.82545853" lon="-19.21373749"><ele>565.3</ele><time>2012-07-26T11:59:39.0000000+00:00</time></trkpt><trkpt lat="63.82546234" lon="-19.21368408"><ele>566.4</ele><time>2012-07-26T11:59:44.0000000+00:00</time></trkpt><trkpt lat="63.82545471" lon="-19.2136898"><ele>566.3</ele><time>2012-07-26T11:59:49.0000000+00:00</time></trkpt><trkpt lat="63.82544327" lon="-19.21369934"><ele>566.2</ele><time>2012-07-26T11:59:54.0000000+00:00</time></trkpt><trkpt lat="63.8254509" lon="-19.21372032"><ele>567.3</ele><time>2012-07-26T11:59:59.0000000+00:00</time></trkpt><trkpt lat="63.82549286" lon="-19.21369743"><ele>567.7</ele><time>2012-07-26T12:00:04.0000000+00:00</time></trkpt><trkpt lat="63.82551193" lon="-19.21367645"><ele>567.9</ele><time>2012-07-26T12:00:09.0000000+00:00</time></trkpt><trkpt lat="63.82555771" lon="-19.2136097"><ele>566.8</ele><time>2012-07-26T12:00:14.0000000+00:00</time></trkpt><trkpt lat="63.8256073" lon="-19.21353722"><ele>566.6</ele><time>2012-07-26T12:00:19.0000000+00:00</time></trkpt><trkpt lat="63.82562637" lon="-19.21354485"><ele>567.0</ele><time>2012-07-26T12:00:24.0000000+00:00</time></trkpt><trkpt lat="63.82562637" lon="-19.21355057"><ele>566.8</ele><time>2012-07-26T12:00:29.0000000+00:00</time></trkpt><trkpt lat="63.82562637" lon="-19.21355057"><ele>566.8</ele><time>2012-07-26T12:00:34.0000000+00:00</time></trkpt><trkpt lat="63.82562637" lon="-19.21355057"><ele>566.8</ele><time>2012-07-26T12:00:39.0000000+00:00</time></trkpt><trkpt lat="63.82563019" lon="-19.21354103"><ele>566.1</ele><time>2012-07-26T12:00:44.0000000+00:00</time></trkpt><trkpt lat="63.82564163" lon="-19.21349335"><ele>565.6</ele><time>2012-07-26T12:00:49.0000000+00:00</time></trkpt><trkpt lat="63.82564545" lon="-19.21348381"><ele>566.1</ele><time>2012-07-26T12:00:54.0000000+00:00</time></trkpt><trkpt lat="63.82563782" lon="-19.21350479"><ele>566.4</ele><time>2012-07-26T12:00:59.0000000+00:00</time></trkpt><trkpt lat="63.82562256" lon="-19.21349716"><ele>565.6</ele><time>2012-07-26T12:01:04.0000000+00:00</time></trkpt><trkpt lat="63.8256073" lon="-19.21352387"><ele>564.2</ele><time>2012-07-26T12:01:09.0000000+00:00</time></trkpt><trkpt lat="63.82560349" lon="-19.21353531"><ele>564.1</ele><time>2012-07-26T12:01:14.0000000+00:00</time></trkpt><trkpt lat="63.82560349" lon="-19.21353149"><ele>563.9</ele><time>2012-07-26T12:01:19.0000000+00:00</time></trkpt><trkpt lat="63.82559967" lon="-19.21353531"><ele>563.8</ele><time>2012-07-26T12:01:24.0000000+00:00</time></trkpt><trkpt lat="63.82560349" lon="-19.21353531"><ele>563.8</ele><time>2012-07-26T12:01:29.0000000+00:00</time></trkpt><trkpt lat="63.82560349" lon="-19.21353531"><ele>563.8</ele><time>2012-07-26T12:01:34.0000000+00:00</time></trkpt><trkpt lat="63.82559967" lon="-19.21353912"><ele>563.8</ele><time>2012-07-26T12:01:39.0000000+00:00</time></trkpt><trkpt lat="63.82559204" lon="-19.21353531"><ele>563.9</ele><time>2012-07-26T12:01:44.0000000+00:00</time></trkpt><trkpt lat="63.82559204" lon="-19.21349335"><ele>564.1</ele><time>2012-07-26T12:01:49.0000000+00:00</time></trkpt><trkpt lat="63.82559586" lon="-19.21349716"><ele>564.2</ele><time>2012-07-26T12:01:54.0000000+00:00</time></trkpt><trkpt lat="63.82558823" lon="-19.21351814"><ele>565.5</ele><time>2012-07-26T12:01:59.0000000+00:00</time></trkpt><trkpt lat="63.82558441" lon="-19.21352196"><ele>567.5</ele><time>2012-07-26T12:02:04.0000000+00:00</time></trkpt><trkpt lat="63.82557678" lon="-19.21352577"><ele>567.6</ele><time>2012-07-26T12:02:09.0000000+00:00</time></trkpt><trkpt lat="63.82553482" lon="-19.21359253"><ele>566.2</ele><time>2012-07-26T12:02:14.0000000+00:00</time></trkpt><trkpt lat="63.82547379" lon="-19.21366119"><ele>567.5</ele><time>2012-07-26T12:02:19.0000000+00:00</time></trkpt><trkpt lat="63.82546234" lon="-19.21370697"><ele>566.4</ele><time>2012-07-26T12:02:24.0000000+00:00</time></trkpt><trkpt lat="63.82545471" lon="-19.21371079"><ele>564.6</ele><time>2012-07-26T12:02:29.0000000+00:00</time></trkpt><trkpt lat="63.82544327" lon="-19.21372795"><ele>564.1</ele><time>2012-07-26T12:02:34.0000000+00:00</time></trkpt><trkpt lat="63.82544708" lon="-19.2137146"><ele>564.4</ele><time>2012-07-26T12:02:39.0000000+00:00</time></trkpt><trkpt lat="63.82544708" lon="-19.2137146"><ele>564.3</ele><time>2012-07-26T12:02:44.0000000+00:00</time></trkpt><trkpt lat="63.82544708" lon="-19.2137146"><ele>564.3</ele><time>2012-07-26T12:02:49.0000000+00:00</time></trkpt><trkpt lat="63.82544708" lon="-19.21371269"><ele>564.4</ele><time>2012-07-26T12:02:54.0000000+00:00</time></trkpt><trkpt lat="63.8254509" lon="-19.21370697"><ele>563.9</ele><time>2012-07-26T12:02:59.0000000+00:00</time></trkpt><trkpt lat="63.82546234" lon="-19.21370506"><ele>563.8</ele><time>2012-07-26T12:03:04.0000000+00:00</time></trkpt><trkpt lat="63.82548523" lon="-19.21366119"><ele>563.6</ele><time>2012-07-26T12:03:09.0000000+00:00</time></trkpt><trkpt lat="63.82551956" lon="-19.2136364"><ele>563.4</ele><time>2012-07-26T12:03:14.0000000+00:00</time></trkpt><trkpt lat="63.82552338" lon="-19.21363258"><ele>564.2</ele><time>2012-07-26T12:03:19.0000000+00:00</time></trkpt><trkpt lat="63.82548142" lon="-19.21368599"><ele>564.4</ele><time>2012-07-26T12:03:24.0000000+00:00</time></trkpt><trkpt lat="63.82546616" lon="-19.21370506"><ele>563.3</ele><time>2012-07-26T12:03:29.0000000+00:00</time></trkpt><trkpt lat="63.8254776" lon="-19.21374321"><ele>561.3</ele><time>2012-07-26T12:03:34.0000000+00:00</time></trkpt><trkpt lat="63.82546997" lon="-19.2137413"><ele>561.7</ele><time>2012-07-26T12:03:39.0000000+00:00</time></trkpt><trkpt lat="63.82546997" lon="-19.21373367"><ele>561.8</ele><time>2012-07-26T12:03:44.0000000+00:00</time></trkpt><trkpt lat="63.82546616" lon="-19.21373749"><ele>561.5</ele><time>2012-07-26T12:03:49.0000000+00:00</time></trkpt><trkpt lat="63.82546234" lon="-19.21374321"><ele>561.6</ele><time>2012-07-26T12:03:54.0000000+00:00</time></trkpt><trkpt lat="63.82544327" lon="-19.21373177"><ele>561.6</ele><time>2012-07-26T12:03:59.0000000+00:00</time></trkpt><trkpt lat="63.82542419" lon="-19.21375847"><ele>562.2</ele><time>2012-07-26T12:04:04.0000000+00:00</time></trkpt><trkpt lat="63.82538986" lon="-19.21383095"><ele>561.2</ele><time>2012-07-26T12:04:09.0000000+00:00</time></trkpt><trkpt lat="63.82534409" lon="-19.21391869"><ele>560.8</ele><time>2012-07-26T12:04:14.0000000+00:00</time></trkpt><trkpt lat="63.82531357" lon="-19.21399689"><ele>560.1</ele><time>2012-07-26T12:04:19.0000000+00:00</time></trkpt><trkpt lat="63.8252449" lon="-19.2141571"><ele>561.8</ele><time>2012-07-26T12:04:24.0000000+00:00</time></trkpt><trkpt lat="63.82514954" lon="-19.21442604"><ele>561.9</ele><time>2012-07-26T12:04:29.0000000+00:00</time></trkpt><trkpt lat="63.82508087" lon="-19.21467018"><ele>562.2</ele><time>2012-07-26T12:04:34.0000000+00:00</time></trkpt><trkpt lat="63.82500076" lon="-19.21491242"><ele>562.9</ele><time>2012-07-26T12:04:39.0000000+00:00</time></trkpt><trkpt lat="63.82493591" lon="-19.21515465"><ele>565.3</ele><time>2012-07-26T12:04:44.0000000+00:00</time></trkpt><trkpt lat="63.82486725" lon="-19.21547127"><ele>562.8</ele><time>2012-07-26T12:04:49.0000000+00:00</time></trkpt><trkpt lat="63.82479477" lon="-19.21585083"><ele>562.7</ele><time>2012-07-26T12:04:54.0000000+00:00</time></trkpt><trkpt lat="63.82472229" lon="-19.21628761"><ele>562.4</ele><time>2012-07-26T12:04:59.0000000+00:00</time></trkpt><trkpt lat="63.824646" lon="-19.21674347"><ele>563.0</ele><time>2012-07-26T12:05:04.0000000+00:00</time></trkpt><trkpt lat="63.82454681" lon="-19.21717835"><ele>563.0</ele><time>2012-07-26T12:05:09.0000000+00:00</time></trkpt><trkpt lat="63.82443237" lon="-19.21760368"><ele>563.7</ele><time>2012-07-26T12:05:14.0000000+00:00</time></trkpt><trkpt lat="63.82431412" lon="-19.21791267"><ele>563.5</ele><time>2012-07-26T12:05:19.0000000+00:00</time></trkpt><trkpt lat="63.82416534" lon="-19.21815682"><ele>563.3</ele><time>2012-07-26T12:05:24.0000000+00:00</time></trkpt><trkpt lat="63.82397842" lon="-19.21837425"><ele>562.9</ele><time>2012-07-26T12:05:29.0000000+00:00</time></trkpt><trkpt lat="63.82377625" lon="-19.21858406"><ele>562.9</ele><time>2012-07-26T12:05:34.0000000+00:00</time></trkpt><trkpt lat="63.82359314" lon="-19.21878624"><ele>563.1</ele><time>2012-07-26T12:05:39.0000000+00:00</time></trkpt><trkpt lat="63.82341766" lon="-19.21896362"><ele>562.9</ele><time>2012-07-26T12:05:44.0000000+00:00</time></trkpt><trkpt lat="63.82325745" lon="-19.21915436"><ele>562.7</ele><time>2012-07-26T12:05:49.0000000+00:00</time></trkpt><trkpt lat="63.82313538" lon="-19.21920967"><ele>562.7</ele><time>2012-07-26T12:05:54.0000000+00:00</time></trkpt><trkpt lat="63.82301712" lon="-19.21920204"><ele>562.7</ele><time>2012-07-26T12:05:59.0000000+00:00</time></trkpt><trkpt lat="63.82291794" lon="-19.21918488"><ele>561.4</ele><time>2012-07-26T12:06:04.0000000+00:00</time></trkpt><trkpt lat="63.8228302" lon="-19.21925163"><ele>560.1</ele><time>2012-07-26T12:06:09.0000000+00:00</time></trkpt><trkpt lat="63.82281876" lon="-19.21932221"><ele>557.8</ele><time>2012-07-26T12:06:14.0000000+00:00</time></trkpt><trkpt lat="63.82281113" lon="-19.21932793"><ele>556.1</ele><time>2012-07-26T12:06:19.0000000+00:00</time></trkpt><trkpt lat="63.82281876" lon="-19.21935082"><ele>555.5</ele><time>2012-07-26T12:06:24.0000000+00:00</time></trkpt><trkpt lat="63.8228302" lon="-19.21938515"><ele>555.1</ele><time>2012-07-26T12:06:29.0000000+00:00</time></trkpt><trkpt lat="63.82289505" lon="-19.21955109"><ele>555.4</ele><time>2012-07-26T12:06:34.0000000+00:00</time></trkpt><trkpt lat="63.82296753" lon="-19.21968651"><ele>555.0</ele><time>2012-07-26T12:06:39.0000000+00:00</time></trkpt><trkpt lat="63.82300186" lon="-19.219841"><ele>554.6</ele><time>2012-07-26T12:06:44.0000000+00:00</time></trkpt><trkpt lat="63.82302475" lon="-19.21999359"><ele>553.9</ele><time>2012-07-26T12:06:49.0000000+00:00</time></trkpt><trkpt lat="63.82301331" lon="-19.22000694"><ele>554.3</ele><time>2012-07-26T12:06:54.0000000+00:00</time></trkpt><trkpt lat="63.82301331" lon="-19.22001267"><ele>555.1</ele><time>2012-07-26T12:06:59.0000000+00:00</time></trkpt><trkpt lat="63.82302094" lon="-19.22000122"><ele>556.2</ele><time>2012-07-26T12:07:04.0000000+00:00</time></trkpt><trkpt lat="63.82302856" lon="-19.22000313"><ele>556.4</ele><time>2012-07-26T12:07:09.0000000+00:00</time></trkpt><trkpt lat="63.82304001" lon="-19.2199688"><ele>557.3</ele><time>2012-07-26T12:07:14.0000000+00:00</time></trkpt><trkpt lat="63.82304001" lon="-19.21997643"><ele>558.2</ele><time>2012-07-26T12:07:19.0000000+00:00</time></trkpt><trkpt lat="63.82304382" lon="-19.21997833"><ele>558.1</ele><time>2012-07-26T12:07:24.0000000+00:00</time></trkpt><trkpt lat="63.82304382" lon="-19.21998406"><ele>558.0</ele><time>2012-07-26T12:07:29.0000000+00:00</time></trkpt><trkpt lat="63.82303619" lon="-19.22000313"><ele>558.0</ele><time>2012-07-26T12:07:34.0000000+00:00</time></trkpt><trkpt lat="63.82304382" lon="-19.22000885"><ele>558.1</ele><time>2012-07-26T12:07:39.0000000+00:00</time></trkpt><trkpt lat="63.82304382" lon="-19.22000885"><ele>558.1</ele><time>2012-07-26T12:07:44.0000000+00:00</time></trkpt><trkpt lat="63.82304001" lon="-19.22000504"><ele>558.1</ele><time>2012-07-26T12:07:49.0000000+00:00</time></trkpt><trkpt lat="63.82304001" lon="-19.21999359"><ele>558.1</ele><time>2012-07-26T12:07:54.0000000+00:00</time></trkpt><trkpt lat="63.82304001" lon="-19.21998596"><ele>558.1</ele><time>2012-07-26T12:07:59.0000000+00:00</time></trkpt><trkpt lat="63.82303238" lon="-19.21997452"><ele>558.2</ele><time>2012-07-26T12:08:04.0000000+00:00</time></trkpt><trkpt lat="63.82302856" lon="-19.21996498"><ele>558.3</ele><time>2012-07-26T12:08:09.0000000+00:00</time></trkpt><trkpt lat="63.82302475" lon="-19.21996307"><ele>558.4</ele><time>2012-07-26T12:08:14.0000000+00:00</time></trkpt><trkpt lat="63.82302475" lon="-19.21995735"><ele>558.7</ele><time>2012-07-26T12:08:19.0000000+00:00</time></trkpt><trkpt lat="63.82302856" lon="-19.21995544"><ele>558.8</ele><time>2012-07-26T12:08:24.0000000+00:00</time></trkpt><trkpt lat="63.82302856" lon="-19.21996117"><ele>558.9</ele><time>2012-07-26T12:08:29.0000000+00:00</time></trkpt><trkpt lat="63.82302856" lon="-19.21998215"><ele>559.1</ele><time>2012-07-26T12:08:34.0000000+00:00</time></trkpt><trkpt lat="63.82303238" lon="-19.21999359"><ele>559.4</ele><time>2012-07-26T12:08:39.0000000+00:00</time></trkpt><trkpt lat="63.82303238" lon="-19.21999741"><ele>559.5</ele><time>2012-07-26T12:08:44.0000000+00:00</time></trkpt><trkpt lat="63.82302094" lon="-19.22000122"><ele>559.6</ele><time>2012-07-26T12:08:49.0000000+00:00</time></trkpt><trkpt lat="63.82301331" lon="-19.22000885"><ele>560.1</ele><time>2012-07-26T12:08:54.0000000+00:00</time></trkpt><trkpt lat="63.82300568" lon="-19.22001648"><ele>560.4</ele><time>2012-07-26T12:08:59.0000000+00:00</time></trkpt><trkpt lat="63.82299423" lon="-19.22003937"><ele>561.0</ele><time>2012-07-26T12:09:04.0000000+00:00</time></trkpt><trkpt lat="63.82299042" lon="-19.22006607"><ele>562.3</ele><time>2012-07-26T12:09:09.0000000+00:00</time></trkpt><trkpt lat="63.82298279" lon="-19.22008896"><ele>562.6</ele><time>2012-07-26T12:09:14.0000000+00:00</time></trkpt><trkpt lat="63.82297897" lon="-19.22011757"><ele>563.6</ele><time>2012-07-26T12:09:19.0000000+00:00</time></trkpt><trkpt lat="63.8229599" lon="-19.22015572"><ele>563.6</ele><time>2012-07-26T12:09:24.0000000+00:00</time></trkpt><trkpt lat="63.82294083" lon="-19.22019386"><ele>563.3</ele><time>2012-07-26T12:09:29.0000000+00:00</time></trkpt><trkpt lat="63.82291412" lon="-19.22024155"><ele>562.6</ele><time>2012-07-26T12:09:34.0000000+00:00</time></trkpt><trkpt lat="63.82289887" lon="-19.22030067"><ele>563.0</ele><time>2012-07-26T12:09:39.0000000+00:00</time></trkpt><trkpt lat="63.82286835" lon="-19.22034454"><ele>563.3</ele><time>2012-07-26T12:09:44.0000000+00:00</time></trkpt><trkpt lat="63.82286072" lon="-19.22036362"><ele>563.1</ele><time>2012-07-26T12:09:49.0000000+00:00</time></trkpt><trkpt lat="63.8228569" lon="-19.22040367"><ele>563.9</ele><time>2012-07-26T12:09:54.0000000+00:00</time></trkpt><trkpt lat="63.8228569" lon="-19.22040939"><ele>564.1</ele><time>2012-07-26T12:09:59.0000000+00:00</time></trkpt><trkpt lat="63.8228569" lon="-19.22041893"><ele>563.8</ele><time>2012-07-26T12:10:04.0000000+00:00</time></trkpt><trkpt lat="63.82286072" lon="-19.22041321"><ele>563.5</ele><time>2012-07-26T12:10:09.0000000+00:00</time></trkpt><trkpt lat="63.82286453" lon="-19.22041512"><ele>563.3</ele><time>2012-07-26T12:10:14.0000000+00:00</time></trkpt><trkpt lat="63.82286835" lon="-19.22042465"><ele>563.0</ele><time>2012-07-26T12:10:19.0000000+00:00</time></trkpt><trkpt lat="63.82287216" lon="-19.22041893"><ele>562.8</ele><time>2012-07-26T12:10:24.0000000+00:00</time></trkpt><trkpt lat="63.82287598" lon="-19.22040939"><ele>562.7</ele><time>2012-07-26T12:10:29.0000000+00:00</time></trkpt><trkpt lat="63.82287979" lon="-19.2204113"><ele>562.5</ele><time>2012-07-26T12:10:34.0000000+00:00</time></trkpt><trkpt lat="63.82287216" lon="-19.22040749"><ele>562.5</ele><time>2012-07-26T12:10:39.0000000+00:00</time></trkpt><trkpt lat="63.82287216" lon="-19.22040367"><ele>562.6</ele><time>2012-07-26T12:10:44.0000000+00:00</time></trkpt><trkpt lat="63.82287216" lon="-19.22040367"><ele>562.8</ele><time>2012-07-26T12:10:49.0000000+00:00</time></trkpt><trkpt lat="63.82287216" lon="-19.22040367"><ele>562.8</ele><time>2012-07-26T12:10:54.0000000+00:00</time></trkpt><trkpt lat="63.82287216" lon="-19.22040558"><ele>562.9</ele><time>2012-07-26T12:10:59.0000000+00:00</time></trkpt><trkpt lat="63.82287216" lon="-19.22040558"><ele>562.9</ele><time>2012-07-26T12:11:04.0000000+00:00</time></trkpt><trkpt lat="63.82287216" lon="-19.22040558"><ele>562.9</ele><time>2012-07-26T12:11:09.0000000+00:00</time></trkpt><trkpt lat="63.82287216" lon="-19.22040558"><ele>562.9</ele><time>2012-07-26T12:11:14.0000000+00:00</time></trkpt><trkpt lat="63.82287216" lon="-19.22040558"><ele>562.9</ele><time>2012-07-26T12:11:19.0000000+00:00</time></trkpt><trkpt lat="63.82287216" lon="-19.22040558"><ele>562.9</ele><time>2012-07-26T12:11:24.0000000+00:00</time></trkpt><trkpt lat="63.82287216" lon="-19.22040558"><ele>563.0</ele><time>2012-07-26T12:11:29.0000000+00:00</time></trkpt><trkpt lat="63.82287216" lon="-19.22040749"><ele>563.0</ele><time>2012-07-26T12:11:34.0000000+00:00</time></trkpt><trkpt lat="63.82286835" lon="-19.22040749"><ele>563.0</ele><time>2012-07-26T12:11:39.0000000+00:00</time></trkpt><trkpt lat="63.82286835" lon="-19.22040749"><ele>563.0</ele><time>2012-07-26T12:11:44.0000000+00:00</time></trkpt><trkpt lat="63.82286835" lon="-19.22040749"><ele>563.0</ele><time>2012-07-26T12:11:49.0000000+00:00</time></trkpt><trkpt lat="63.82286835" lon="-19.22040749"><ele>563.0</ele><time>2012-07-26T12:11:54.0000000+00:00</time></trkpt><trkpt lat="63.82286835" lon="-19.22040749"><ele>563.0</ele><time>2012-07-26T12:11:59.0000000+00:00</time></trkpt><trkpt lat="63.82286835" lon="-19.22040749"><ele>563.0</ele><time>2012-07-26T12:12:04.0000000+00:00</time></trkpt><trkpt lat="63.82286835" lon="-19.22040749"><ele>563.0</ele><time>2012-07-26T12:12:09.0000000+00:00</time></trkpt><trkpt lat="63.82286835" lon="-19.22040749"><ele>563.0</ele><time>2012-07-26T12:12:14.0000000+00:00</time></trkpt><trkpt lat="63.82286835" lon="-19.22040749"><ele>563.0</ele><time>2012-07-26T12:12:19.0000000+00:00</time></trkpt><trkpt lat="63.82286835" lon="-19.22040749"><ele>563.0</ele><time>2012-07-26T12:12:24.0000000+00:00</time></trkpt><trkpt lat="63.82286835" lon="-19.22040749"><ele>563.0</ele><time>2012-07-26T12:12:29.0000000+00:00</time></trkpt><trkpt lat="63.82286835" lon="-19.22040749"><ele>563.0</ele><time>2012-07-26T12:12:34.0000000+00:00</time></trkpt><trkpt lat="63.82286835" lon="-19.22040749"><ele>563.0</ele><time>2012-07-26T12:12:39.0000000+00:00</time></trkpt><trkpt lat="63.82286835" lon="-19.22040749"><ele>563.0</ele><time>2012-07-26T12:12:44.0000000+00:00</time></trkpt><trkpt lat="63.82286835" lon="-19.22040749"><ele>563.0</ele><time>2012-07-26T12:12:49.0000000+00:00</time></trkpt><trkpt lat="63.82286835" lon="-19.22040558"><ele>563.0</ele><time>2012-07-26T12:12:54.0000000+00:00</time></trkpt><trkpt lat="63.82286835" lon="-19.22040749"><ele>563.0</ele><time>2012-07-26T12:12:59.0000000+00:00</time></trkpt><trkpt lat="63.82287216" lon="-19.22040749"><ele>563.0</ele><time>2012-07-26T12:13:04.0000000+00:00</time></trkpt><trkpt lat="63.82287598" lon="-19.22040558"><ele>563.0</ele><time>2012-07-26T12:13:09.0000000+00:00</time></trkpt><trkpt lat="63.82287979" lon="-19.22039795"><ele>563.1</ele><time>2012-07-26T12:13:14.0000000+00:00</time></trkpt><trkpt lat="63.82287979" lon="-19.22039032"><ele>563.1</ele><time>2012-07-26T12:13:19.0000000+00:00</time></trkpt><trkpt lat="63.82288361" lon="-19.22037888"><ele>563.1</ele><time>2012-07-26T12:13:24.0000000+00:00</time></trkpt><trkpt lat="63.82288361" lon="-19.22037125"><ele>563.1</ele><time>2012-07-26T12:13:29.0000000+00:00</time></trkpt><trkpt lat="63.82288361" lon="-19.22036743"><ele>563.1</ele><time>2012-07-26T12:13:34.0000000+00:00</time></trkpt><trkpt lat="63.82288361" lon="-19.22036171"><ele>563.2</ele><time>2012-07-26T12:13:39.0000000+00:00</time></trkpt><trkpt lat="63.82287598" lon="-19.2203579"><ele>563.2</ele><time>2012-07-26T12:13:44.0000000+00:00</time></trkpt><trkpt lat="63.82287216" lon="-19.22035408"><ele>563.2</ele><time>2012-07-26T12:13:49.0000000+00:00</time></trkpt><trkpt lat="63.82286453" lon="-19.22034645"><ele>563.3</ele><time>2012-07-26T12:13:54.0000000+00:00</time></trkpt><trkpt lat="63.82286072" lon="-19.22034073"><ele>563.4</ele><time>2012-07-26T12:13:59.0000000+00:00</time></trkpt><trkpt lat="63.82286072" lon="-19.2203331"><ele>563.5</ele><time>2012-07-26T12:14:04.0000000+00:00</time></trkpt><trkpt lat="63.82286072" lon="-19.22032929"><ele>563.6</ele><time>2012-07-26T12:14:09.0000000+00:00</time></trkpt><trkpt lat="63.82286453" lon="-19.22032929"><ele>563.8</ele><time>2012-07-26T12:14:14.0000000+00:00</time></trkpt><trkpt lat="63.82286453" lon="-19.22033119"><ele>563.9</ele><time>2012-07-26T12:14:19.0000000+00:00</time></trkpt><trkpt lat="63.82286453" lon="-19.2203331"><ele>563.9</ele><time>2012-07-26T12:14:24.0000000+00:00</time></trkpt><trkpt lat="63.82286072" lon="-19.22033691"><ele>564.0</ele><time>2012-07-26T12:14:29.0000000+00:00</time></trkpt><trkpt lat="63.8228569" lon="-19.22034454"><ele>564.0</ele><time>2012-07-26T12:14:34.0000000+00:00</time></trkpt><trkpt lat="63.82286072" lon="-19.22034645"><ele>564.2</ele><time>2012-07-26T12:14:39.0000000+00:00</time></trkpt><trkpt lat="63.82286072" lon="-19.22034073"><ele>564.3</ele><time>2012-07-26T12:14:44.0000000+00:00</time></trkpt><trkpt lat="63.82286072" lon="-19.22033882"><ele>564.4</ele><time>2012-07-26T12:14:49.0000000+00:00</time></trkpt><trkpt lat="63.82286072" lon="-19.22034073"><ele>564.4</ele><time>2012-07-26T12:14:54.0000000+00:00</time></trkpt><trkpt lat="63.82286453" lon="-19.22034264"><ele>564.7</ele><time>2012-07-26T12:14:59.0000000+00:00</time></trkpt><trkpt lat="63.8228569" lon="-19.22036171"><ele>564.3</ele><time>2012-07-26T12:15:04.0000000+00:00</time></trkpt><trkpt lat="63.82285309" lon="-19.22036743"><ele>564.4</ele><time>2012-07-26T12:15:09.0000000+00:00</time></trkpt><trkpt lat="63.82285309" lon="-19.22036743"><ele>564.5</ele><time>2012-07-26T12:15:14.0000000+00:00</time></trkpt><trkpt lat="63.82285309" lon="-19.22036743"><ele>564.5</ele><time>2012-07-26T12:15:19.0000000+00:00</time></trkpt><trkpt lat="63.82285309" lon="-19.22037125"><ele>564.6</ele><time>2012-07-26T12:15:24.0000000+00:00</time></trkpt><trkpt lat="63.82285309" lon="-19.22037125"><ele>564.6</ele><time>2012-07-26T12:15:29.0000000+00:00</time></trkpt><trkpt lat="63.82285309" lon="-19.22037125"><ele>564.6</ele><time>2012-07-26T12:15:34.0000000+00:00</time></trkpt><trkpt lat="63.82285309" lon="-19.22037125"><ele>564.6</ele><time>2012-07-26T12:15:39.0000000+00:00</time></trkpt><trkpt lat="63.82285309" lon="-19.22037315"><ele>564.6</ele><time>2012-07-26T12:15:44.0000000+00:00</time></trkpt><trkpt lat="63.82285309" lon="-19.22037315"><ele>564.6</ele><time>2012-07-26T12:15:49.0000000+00:00</time></trkpt><trkpt lat="63.82285309" lon="-19.22037315"><ele>564.6</ele><time>2012-07-26T12:15:54.0000000+00:00</time></trkpt><trkpt lat="63.8228569" lon="-19.22036934"><ele>564.8</ele><time>2012-07-26T12:15:59.0000000+00:00</time></trkpt><trkpt lat="63.82286453" lon="-19.22039795"><ele>565.2</ele><time>2012-07-26T12:16:04.0000000+00:00</time></trkpt><trkpt lat="63.82286453" lon="-19.22039795"><ele>565.2</ele><time>2012-07-26T12:16:09.0000000+00:00</time></trkpt><trkpt lat="63.82286453" lon="-19.22039795"><ele>565.2</ele><time>2012-07-26T12:16:14.0000000+00:00</time></trkpt><trkpt lat="63.82286453" lon="-19.22039795"><ele>565.2</ele><time>2012-07-26T12:16:19.0000000+00:00</time></trkpt><trkpt lat="63.82286453" lon="-19.22039795"><ele>565.3</ele><time>2012-07-26T12:16:24.0000000+00:00</time></trkpt><trkpt lat="63.82286453" lon="-19.22039795"><ele>565.3</ele><time>2012-07-26T12:16:29.0000000+00:00</time></trkpt><trkpt lat="63.82286453" lon="-19.22039795"><ele>565.3</ele><time>2012-07-26T12:16:34.0000000+00:00</time></trkpt><trkpt lat="63.82286453" lon="-19.22039986"><ele>565.5</ele><time>2012-07-26T12:16:39.0000000+00:00</time></trkpt><trkpt lat="63.82286453" lon="-19.22039986"><ele>565.5</ele><time>2012-07-26T12:16:44.0000000+00:00</time></trkpt><trkpt lat="63.82286453" lon="-19.22039986"><ele>565.5</ele><time>2012-07-26T12:16:49.0000000+00:00</time></trkpt><trkpt lat="63.8228569" lon="-19.22040176"><ele>566.0</ele><time>2012-07-26T12:16:54.0000000+00:00</time></trkpt><trkpt lat="63.82283783" lon="-19.22043037"><ele>565.9</ele><time>2012-07-26T12:16:59.0000000+00:00</time></trkpt><trkpt lat="63.82284164" lon="-19.22044373"><ele>565.5</ele><time>2012-07-26T12:17:04.0000000+00:00</time></trkpt><trkpt lat="63.82284164" lon="-19.22044182"><ele>565.5</ele><time>2012-07-26T12:17:09.0000000+00:00</time></trkpt><trkpt lat="63.82284164" lon="-19.22044373"><ele>565.6</ele><time>2012-07-26T12:17:14.0000000+00:00</time></trkpt><trkpt lat="63.82284164" lon="-19.22044563"><ele>565.6</ele><time>2012-07-26T12:17:19.0000000+00:00</time></trkpt><trkpt lat="63.82284164" lon="-19.22044563"><ele>565.6</ele><time>2012-07-26T12:17:24.0000000+00:00</time></trkpt><trkpt lat="63.82284164" lon="-19.22044563"><ele>565.6</ele><time>2012-07-26T12:17:29.0000000+00:00</time></trkpt><trkpt lat="63.82284164" lon="-19.22044563"><ele>565.6</ele><time>2012-07-26T12:17:34.0000000+00:00</time></trkpt><trkpt lat="63.82284164" lon="-19.22044563"><ele>565.6</ele><time>2012-07-26T12:17:39.0000000+00:00</time></trkpt><trkpt lat="63.82284164" lon="-19.22044563"><ele>565.6</ele><time>2012-07-26T12:17:44.0000000+00:00</time></trkpt><trkpt lat="63.82284164" lon="-19.22044563"><ele>565.6</ele><time>2012-07-26T12:17:49.0000000+00:00</time></trkpt><trkpt lat="63.82284164" lon="-19.22044563"><ele>565.6</ele><time>2012-07-26T12:17:54.0000000+00:00</time></trkpt><trkpt lat="63.82284164" lon="-19.22044754"><ele>565.6</ele><time>2012-07-26T12:17:59.0000000+00:00</time></trkpt><trkpt lat="63.82284164" lon="-19.22044754"><ele>565.6</ele><time>2012-07-26T12:18:04.0000000+00:00</time></trkpt><trkpt lat="63.82284164" lon="-19.22044563"><ele>565.6</ele><time>2012-07-26T12:18:09.0000000+00:00</time></trkpt><trkpt lat="63.82284164" lon="-19.22044563"><ele>565.6</ele><time>2012-07-26T12:18:14.0000000+00:00</time></trkpt><trkpt lat="63.82284164" lon="-19.22044563"><ele>565.6</ele><time>2012-07-26T12:18:19.0000000+00:00</time></trkpt><trkpt lat="63.82284164" lon="-19.22044563"><ele>565.6</ele><time>2012-07-26T12:18:24.0000000+00:00</time></trkpt><trkpt lat="63.82284164" lon="-19.22044563"><ele>565.6</ele><time>2012-07-26T12:18:29.0000000+00:00</time></trkpt><trkpt lat="63.82284164" lon="-19.22044563"><ele>565.6</ele><time>2012-07-26T12:18:34.0000000+00:00</time></trkpt><trkpt lat="63.82284164" lon="-19.22044563"><ele>565.6</ele><time>2012-07-26T12:18:39.0000000+00:00</time></trkpt><trkpt lat="63.82284164" lon="-19.22044563"><ele>565.6</ele><time>2012-07-26T12:18:44.0000000+00:00</time></trkpt><trkpt lat="63.82284164" lon="-19.22044563"><ele>565.6</ele><time>2012-07-26T12:18:49.0000000+00:00</time></trkpt><trkpt lat="63.82284164" lon="-19.22044373"><ele>565.6</ele><time>2012-07-26T12:18:54.0000000+00:00</time></trkpt><trkpt lat="63.82284164" lon="-19.22044373"><ele>565.6</ele><time>2012-07-26T12:18:59.0000000+00:00</time></trkpt><trkpt lat="63.82284164" lon="-19.22044373"><ele>565.6</ele><time>2012-07-26T12:19:04.0000000+00:00</time></trkpt><trkpt lat="63.82284164" lon="-19.22044373"><ele>565.6</ele><time>2012-07-26T12:19:09.0000000+00:00</time></trkpt><trkpt lat="63.82284164" lon="-19.22044373"><ele>565.7</ele><time>2012-07-26T12:19:14.0000000+00:00</time></trkpt><trkpt lat="63.82283402" lon="-19.22045517"><ele>565.5</ele><time>2012-07-26T12:19:19.0000000+00:00</time></trkpt><trkpt lat="63.82278824" lon="-19.22041512"><ele>565.5</ele><time>2012-07-26T12:19:24.0000000+00:00</time></trkpt><trkpt lat="63.8227005" lon="-19.22026634"><ele>565.6</ele><time>2012-07-26T12:19:29.0000000+00:00</time></trkpt><trkpt lat="63.82260895" lon="-19.22011757"><ele>565.5</ele><time>2012-07-26T12:19:34.0000000+00:00</time></trkpt><trkpt lat="63.82252121" lon="-19.219944"><ele>565.4</ele><time>2012-07-26T12:19:39.0000000+00:00</time></trkpt><trkpt lat="63.82242966" lon="-19.21990776"><ele>565.8</ele><time>2012-07-26T12:19:44.0000000+00:00</time></trkpt><trkpt lat="63.82236862" lon="-19.22016716"><ele>567.5</ele><time>2012-07-26T12:19:49.0000000+00:00</time></trkpt><trkpt lat="63.82228851" lon="-19.2205143"><ele>569.1</ele><time>2012-07-26T12:19:54.0000000+00:00</time></trkpt><trkpt lat="63.82221985" lon="-19.22081566"><ele>569.0</ele><time>2012-07-26T12:19:59.0000000+00:00</time></trkpt><trkpt lat="63.82214356" lon="-19.22113228"><ele>569.3</ele><time>2012-07-26T12:20:04.0000000+00:00</time></trkpt><trkpt lat="63.822052" lon="-19.22150421"><ele>569.7</ele><time>2012-07-26T12:20:09.0000000+00:00</time></trkpt><trkpt lat="63.82195282" lon="-19.22187996"><ele>569.4</ele><time>2012-07-26T12:20:14.0000000+00:00</time></trkpt><trkpt lat="63.82185364" lon="-19.22228622"><ele>571.8</ele><time>2012-07-26T12:20:19.0000000+00:00</time></trkpt><trkpt lat="63.8217659" lon="-19.22269249"><ele>574.2</ele><time>2012-07-26T12:20:24.0000000+00:00</time></trkpt><trkpt lat="63.82166672" lon="-19.22312737"><ele>573.9</ele><time>2012-07-26T12:20:29.0000000+00:00</time></trkpt><trkpt lat="63.82157135" lon="-19.22351456"><ele>573.7</ele><time>2012-07-26T12:20:34.0000000+00:00</time></trkpt><trkpt lat="63.82148361" lon="-19.22397232"><ele>571.9</ele><time>2012-07-26T12:20:39.0000000+00:00</time></trkpt><trkpt lat="63.82142258" lon="-19.22442818"><ele>573.6</ele><time>2012-07-26T12:20:44.0000000+00:00</time></trkpt><trkpt lat="63.82136154" lon="-19.22489739"><ele>574.1</ele><time>2012-07-26T12:20:49.0000000+00:00</time></trkpt><trkpt lat="63.82129288" lon="-19.22535324"><ele>574.4</ele><time>2012-07-26T12:20:54.0000000+00:00</time></trkpt><trkpt lat="63.82118607" lon="-19.22580719"><ele>573.9</ele><time>2012-07-26T12:20:59.0000000+00:00</time></trkpt><trkpt lat="63.82107544" lon="-19.22624779"><ele>572.0</ele><time>2012-07-26T12:21:04.0000000+00:00</time></trkpt><trkpt lat="63.82097626" lon="-19.22667503"><ele>572.7</ele><time>2012-07-26T12:21:09.0000000+00:00</time></trkpt><trkpt lat="63.82088471" lon="-19.22710037"><ele>571.8</ele><time>2012-07-26T12:21:14.0000000+00:00</time></trkpt><trkpt lat="63.82079315" lon="-19.22748184"><ele>571.0</ele><time>2012-07-26T12:21:19.0000000+00:00</time></trkpt><trkpt lat="63.82070923" lon="-19.22784805"><ele>570.9</ele><time>2012-07-26T12:21:24.0000000+00:00</time></trkpt><trkpt lat="63.82062149" lon="-19.22820282"><ele>571.3</ele><time>2012-07-26T12:21:29.0000000+00:00</time></trkpt><trkpt lat="63.8205452" lon="-19.22855949"><ele>571.2</ele><time>2012-07-26T12:21:34.0000000+00:00</time></trkpt><trkpt lat="63.82046509" lon="-19.2289238"><ele>571.6</ele><time>2012-07-26T12:21:39.0000000+00:00</time></trkpt><trkpt lat="63.82037735" lon="-19.22934914"><ele>570.6</ele><time>2012-07-26T12:21:44.0000000+00:00</time></trkpt><trkpt lat="63.82028961" lon="-19.22974777"><ele>570.9</ele><time>2012-07-26T12:21:49.0000000+00:00</time></trkpt><trkpt lat="63.82018662" lon="-19.23012352"><ele>574.3</ele><time>2012-07-26T12:21:54.0000000+00:00</time></trkpt><trkpt lat="63.82006836" lon="-19.23053932"><ele>576.2</ele><time>2012-07-26T12:21:59.0000000+00:00</time></trkpt><trkpt lat="63.81995392" lon="-19.23097801"><ele>577.5</ele><time>2012-07-26T12:22:04.0000000+00:00</time></trkpt><trkpt lat="63.81983948" lon="-19.23147965"><ele>575.2</ele><time>2012-07-26T12:22:09.0000000+00:00</time></trkpt><trkpt lat="63.81974411" lon="-19.2320118"><ele>575.0</ele><time>2012-07-26T12:22:14.0000000+00:00</time></trkpt><trkpt lat="63.81964874" lon="-19.23260689"><ele>575.1</ele><time>2012-07-26T12:22:19.0000000+00:00</time></trkpt><trkpt lat="63.81954575" lon="-19.23322296"><ele>573.8</ele><time>2012-07-26T12:22:24.0000000+00:00</time></trkpt><trkpt lat="63.81943131" lon="-19.23377228"><ele>569.4</ele><time>2012-07-26T12:22:29.0000000+00:00</time></trkpt><trkpt lat="63.8194046" lon="-19.2339077"><ele>569.4</ele><time>2012-07-26T12:22:34.0000000+00:00</time></trkpt><trkpt lat="63.81937408" lon="-19.23403168"><ele>568.3</ele><time>2012-07-26T12:22:39.0000000+00:00</time></trkpt><trkpt lat="63.81932449" lon="-19.23437119"><ele>568.7</ele><time>2012-07-26T12:22:44.0000000+00:00</time></trkpt><trkpt lat="63.81925964" lon="-19.23477173"><ele>568.2</ele><time>2012-07-26T12:22:49.0000000+00:00</time></trkpt><trkpt lat="63.81915665" lon="-19.2351799"><ele>566.7</ele><time>2012-07-26T12:22:54.0000000+00:00</time></trkpt><trkpt lat="63.81904221" lon="-19.23555565"><ele>567.5</ele><time>2012-07-26T12:22:59.0000000+00:00</time></trkpt><trkpt lat="63.81891632" lon="-19.23591805"><ele>569.8</ele><time>2012-07-26T12:23:04.0000000+00:00</time></trkpt><trkpt lat="63.81877899" lon="-19.23637009"><ele>570.8</ele><time>2012-07-26T12:23:09.0000000+00:00</time></trkpt><trkpt lat="63.81865311" lon="-19.23682785"><ele>572.5</ele><time>2012-07-26T12:23:14.0000000+00:00</time></trkpt><trkpt lat="63.81851959" lon="-19.23734856"><ele>572.3</ele><time>2012-07-26T12:23:19.0000000+00:00</time></trkpt><trkpt lat="63.81840134" lon="-19.23788834"><ele>572.8</ele><time>2012-07-26T12:23:24.0000000+00:00</time></trkpt><trkpt lat="63.81827545" lon="-19.23845673"><ele>572.0</ele><time>2012-07-26T12:23:29.0000000+00:00</time></trkpt><trkpt lat="63.81817246" lon="-19.23900986"><ele>571.9</ele><time>2012-07-26T12:23:34.0000000+00:00</time></trkpt><trkpt lat="63.81806183" lon="-19.23960114"><ele>568.9</ele><time>2012-07-26T12:23:39.0000000+00:00</time></trkpt><trkpt lat="63.81793976" lon="-19.24017525"><ele>568.5</ele><time>2012-07-26T12:23:44.0000000+00:00</time></trkpt><trkpt lat="63.81783295" lon="-19.24074364"><ele>569.6</ele><time>2012-07-26T12:23:49.0000000+00:00</time></trkpt><trkpt lat="63.81772995" lon="-19.24129295"><ele>570.5</ele><time>2012-07-26T12:23:54.0000000+00:00</time></trkpt><trkpt lat="63.81760407" lon="-19.24183846"><ele>572.2</ele><time>2012-07-26T12:23:59.0000000+00:00</time></trkpt><trkpt lat="63.81752396" lon="-19.24230194"><ele>572.7</ele><time>2012-07-26T12:24:04.0000000+00:00</time></trkpt><trkpt lat="63.81742477" lon="-19.24275208"><ele>572.1</ele><time>2012-07-26T12:24:09.0000000+00:00</time></trkpt><trkpt lat="63.81731796" lon="-19.24322701"><ele>571.8</ele><time>2012-07-26T12:24:14.0000000+00:00</time></trkpt><trkpt lat="63.81718826" lon="-19.24371529"><ele>570.3</ele><time>2012-07-26T12:24:19.0000000+00:00</time></trkpt><trkpt lat="63.81703949" lon="-19.24417496"><ele>569.1</ele><time>2012-07-26T12:24:24.0000000+00:00</time></trkpt><trkpt lat="63.81691361" lon="-19.24463654"><ele>568.5</ele><time>2012-07-26T12:24:29.0000000+00:00</time></trkpt><trkpt lat="63.81678009" lon="-19.24512672"><ele>565.5</ele><time>2012-07-26T12:24:34.0000000+00:00</time></trkpt><trkpt lat="63.81666565" lon="-19.24556351"><ele>567.4</ele><time>2012-07-26T12:24:39.0000000+00:00</time></trkpt><trkpt lat="63.81657028" lon="-19.24594116"><ele>568.0</ele><time>2012-07-26T12:24:44.0000000+00:00</time></trkpt><trkpt lat="63.81649399" lon="-19.24626923"><ele>567.5</ele><time>2012-07-26T12:24:49.0000000+00:00</time></trkpt><trkpt lat="63.81648636" lon="-19.24630928"><ele>559.9</ele><time>2012-07-26T12:24:54.0000000+00:00</time></trkpt><trkpt lat="63.81648636" lon="-19.24630737"><ele>559.9</ele><time>2012-07-26T12:24:59.0000000+00:00</time></trkpt><trkpt lat="63.81648636" lon="-19.24630737"><ele>559.8</ele><time>2012-07-26T12:25:04.0000000+00:00</time></trkpt><trkpt lat="63.81649017" lon="-19.24630737"><ele>559.7</ele><time>2012-07-26T12:25:09.0000000+00:00</time></trkpt><trkpt lat="63.81648636" lon="-19.24630547"><ele>559.7</ele><time>2012-07-26T12:25:14.0000000+00:00</time></trkpt><trkpt lat="63.81648636" lon="-19.24630547"><ele>559.7</ele><time>2012-07-26T12:25:19.0000000+00:00</time></trkpt><trkpt lat="63.81648636" lon="-19.24630547"><ele>559.6</ele><time>2012-07-26T12:25:24.0000000+00:00</time></trkpt><trkpt lat="63.81648636" lon="-19.24630547"><ele>559.6</ele><time>2012-07-26T12:25:29.0000000+00:00</time></trkpt><trkpt lat="63.81648636" lon="-19.24629784"><ele>559.6</ele><time>2012-07-26T12:25:34.0000000+00:00</time></trkpt><trkpt lat="63.81648636" lon="-19.24629593"><ele>559.6</ele><time>2012-07-26T12:25:39.0000000+00:00</time></trkpt><trkpt lat="63.81648636" lon="-19.24629593"><ele>559.5</ele><time>2012-07-26T12:25:44.0000000+00:00</time></trkpt><trkpt lat="63.81648636" lon="-19.24629593"><ele>559.5</ele><time>2012-07-26T12:25:49.0000000+00:00</time></trkpt><trkpt lat="63.81648636" lon="-19.24629593"><ele>559.5</ele><time>2012-07-26T12:25:54.0000000+00:00</time></trkpt><trkpt lat="63.81648636" lon="-19.24629593"><ele>559.5</ele><time>2012-07-26T12:25:59.0000000+00:00</time></trkpt><trkpt lat="63.81647873" lon="-19.24632263"><ele>559.4</ele><time>2012-07-26T12:26:04.0000000+00:00</time></trkpt><trkpt lat="63.81644058" lon="-19.24648666"><ele>558.0</ele><time>2012-07-26T12:26:09.0000000+00:00</time></trkpt><trkpt lat="63.81638718" lon="-19.24672318"><ele>558.4</ele><time>2012-07-26T12:26:14.0000000+00:00</time></trkpt><trkpt lat="63.81632233" lon="-19.24698067"><ele>558.4</ele><time>2012-07-26T12:26:19.0000000+00:00</time></trkpt><trkpt lat="63.81625366" lon="-19.24726677"><ele>558.0</ele><time>2012-07-26T12:26:24.0000000+00:00</time></trkpt><trkpt lat="63.81618881" lon="-19.2475853"><ele>557.4</ele><time>2012-07-26T12:26:29.0000000+00:00</time></trkpt><trkpt lat="63.81610489" lon="-19.24794197"><ele>556.1</ele><time>2012-07-26T12:26:34.0000000+00:00</time></trkpt><trkpt lat="63.81601715" lon="-19.24834251"><ele>554.8</ele><time>2012-07-26T12:26:39.0000000+00:00</time></trkpt><trkpt lat="63.8158989" lon="-19.2487812"><ele>553.7</ele><time>2012-07-26T12:26:44.0000000+00:00</time></trkpt><trkpt lat="63.81578445" lon="-19.24921799"><ele>553.8</ele><time>2012-07-26T12:26:49.0000000+00:00</time></trkpt><trkpt lat="63.8156662" lon="-19.24965286"><ele>553.7</ele><time>2012-07-26T12:26:54.0000000+00:00</time></trkpt><trkpt lat="63.81555939" lon="-19.25006294"><ele>552.7</ele><time>2012-07-26T12:26:59.0000000+00:00</time></trkpt><trkpt lat="63.8155098" lon="-19.25033188"><ele>550.6</ele><time>2012-07-26T12:27:04.0000000+00:00</time></trkpt><trkpt lat="63.81547165" lon="-19.250494"><ele>549.4</ele><time>2012-07-26T12:27:09.0000000+00:00</time></trkpt><trkpt lat="63.81541443" lon="-19.25071526"><ele>549.4</ele><time>2012-07-26T12:27:14.0000000+00:00</time></trkpt><trkpt lat="63.81536102" lon="-19.25100899"><ele>549.8</ele><time>2012-07-26T12:27:19.0000000+00:00</time></trkpt><trkpt lat="63.81529999" lon="-19.25122261"><ele>551.1</ele><time>2012-07-26T12:27:24.0000000+00:00</time></trkpt><trkpt lat="63.81522369" lon="-19.2515564"><ele>550.8</ele><time>2012-07-26T12:27:29.0000000+00:00</time></trkpt><trkpt lat="63.81511307" lon="-19.2520256"><ele>551.8</ele><time>2012-07-26T12:27:34.0000000+00:00</time></trkpt><trkpt lat="63.81500626" lon="-19.25251007"><ele>553.0</ele><time>2012-07-26T12:27:39.0000000+00:00</time></trkpt><trkpt lat="63.8149147" lon="-19.25294304"><ele>554.9</ele><time>2012-07-26T12:27:44.0000000+00:00</time></trkpt><trkpt lat="63.81483841" lon="-19.25324631"><ele>556.5</ele><time>2012-07-26T12:27:49.0000000+00:00</time></trkpt><trkpt lat="63.81478119" lon="-19.25353622"><ele>557.0</ele><time>2012-07-26T12:27:54.0000000+00:00</time></trkpt><trkpt lat="63.81470871" lon="-19.25387955"><ele>557.5</ele><time>2012-07-26T12:27:59.0000000+00:00</time></trkpt><trkpt lat="63.8146286" lon="-19.25423431"><ele>557.6</ele><time>2012-07-26T12:28:04.0000000+00:00</time></trkpt><trkpt lat="63.81454849" lon="-19.25460434"><ele>557.4</ele><time>2012-07-26T12:28:09.0000000+00:00</time></trkpt><trkpt lat="63.81445313" lon="-19.25499916"><ele>557.5</ele><time>2012-07-26T12:28:14.0000000+00:00</time></trkpt><trkpt lat="63.81436157" lon="-19.25536537"><ele>557.3</ele><time>2012-07-26T12:28:19.0000000+00:00</time></trkpt><trkpt lat="63.81425858" lon="-19.25579071"><ele>556.6</ele><time>2012-07-26T12:28:24.0000000+00:00</time></trkpt><trkpt lat="63.81415176" lon="-19.25627327"><ele>555.8</ele><time>2012-07-26T12:28:29.0000000+00:00</time></trkpt><trkpt lat="63.81406021" lon="-19.25673676"><ele>555.5</ele><time>2012-07-26T12:28:34.0000000+00:00</time></trkpt><trkpt lat="63.8139801" lon="-19.25718689"><ele>555.7</ele><time>2012-07-26T12:28:39.0000000+00:00</time></trkpt><trkpt lat="63.81389618" lon="-19.2576294"><ele>555.5</ele><time>2012-07-26T12:28:44.0000000+00:00</time></trkpt><trkpt lat="63.81383133" lon="-19.25803375"><ele>555.7</ele><time>2012-07-26T12:28:49.0000000+00:00</time></trkpt><trkpt lat="63.81377411" lon="-19.2585125"><ele>555.5</ele><time>2012-07-26T12:28:54.0000000+00:00</time></trkpt><trkpt lat="63.81371689" lon="-19.25901985"><ele>555.5</ele><time>2012-07-26T12:28:59.0000000+00:00</time></trkpt><trkpt lat="63.81367874" lon="-19.25946999"><ele>556.4</ele><time>2012-07-26T12:29:04.0000000+00:00</time></trkpt><trkpt lat="63.81364822" lon="-19.25982857"><ele>556.0</ele><time>2012-07-26T12:29:09.0000000+00:00</time></trkpt><trkpt lat="63.81363297" lon="-19.26011848"><ele>556.1</ele><time>2012-07-26T12:29:14.0000000+00:00</time></trkpt><trkpt lat="63.81364059" lon="-19.26030922"><ele>556.1</ele><time>2012-07-26T12:29:19.0000000+00:00</time></trkpt><trkpt lat="63.81364059" lon="-19.26056862"><ele>556.2</ele><time>2012-07-26T12:29:24.0000000+00:00</time></trkpt><trkpt lat="63.81365585" lon="-19.26086044"><ele>556.9</ele><time>2012-07-26T12:29:29.0000000+00:00</time></trkpt><trkpt lat="63.8136673" lon="-19.26119232"><ele>557.6</ele><time>2012-07-26T12:29:34.0000000+00:00</time></trkpt><trkpt lat="63.81366348" lon="-19.26156235"><ele>558.4</ele><time>2012-07-26T12:29:39.0000000+00:00</time></trkpt><trkpt lat="63.81364441" lon="-19.26195145"><ele>559.2</ele><time>2012-07-26T12:29:44.0000000+00:00</time></trkpt><trkpt lat="63.81360245" lon="-19.26239014"><ele>560.1</ele><time>2012-07-26T12:29:49.0000000+00:00</time></trkpt><trkpt lat="63.81353378" lon="-19.2627964"><ele>560.7</ele><time>2012-07-26T12:29:54.0000000+00:00</time></trkpt><trkpt lat="63.81345367" lon="-19.26317596"><ele>561.1</ele><time>2012-07-26T12:29:59.0000000+00:00</time></trkpt><trkpt lat="63.81339264" lon="-19.26349068"><ele>561.7</ele><time>2012-07-26T12:30:04.0000000+00:00</time></trkpt><trkpt lat="63.81330109" lon="-19.26384163"><ele>562.0</ele><time>2012-07-26T12:30:09.0000000+00:00</time></trkpt><trkpt lat="63.81321716" lon="-19.26422882"><ele>562.4</ele><time>2012-07-26T12:30:14.0000000+00:00</time></trkpt><trkpt lat="63.81311417" lon="-19.26461792"><ele>562.7</ele><time>2012-07-26T12:30:19.0000000+00:00</time></trkpt><trkpt lat="63.81303024" lon="-19.26494598"><ele>563.1</ele><time>2012-07-26T12:30:24.0000000+00:00</time></trkpt><trkpt lat="63.81290817" lon="-19.26531982"><ele>562.8</ele><time>2012-07-26T12:30:29.0000000+00:00</time></trkpt><trkpt lat="63.81280899" lon="-19.26572037"><ele>562.7</ele><time>2012-07-26T12:30:34.0000000+00:00</time></trkpt><trkpt lat="63.8127327" lon="-19.26611137"><ele>562.3</ele><time>2012-07-26T12:30:39.0000000+00:00</time></trkpt><trkpt lat="63.81261826" lon="-19.26653671"><ele>561.7</ele><time>2012-07-26T12:30:44.0000000+00:00</time></trkpt><trkpt lat="63.81248856" lon="-19.26698303"><ele>560.7</ele><time>2012-07-26T12:30:49.0000000+00:00</time></trkpt><trkpt lat="63.81236267" lon="-19.26742363"><ele>559.6</ele><time>2012-07-26T12:30:54.0000000+00:00</time></trkpt><trkpt lat="63.81223297" lon="-19.26788902"><ele>558.9</ele><time>2012-07-26T12:30:59.0000000+00:00</time></trkpt><trkpt lat="63.81210327" lon="-19.2683239"><ele>557.6</ele><time>2012-07-26T12:31:04.0000000+00:00</time></trkpt><trkpt lat="63.81201172" lon="-19.26874542"><ele>556.6</ele><time>2012-07-26T12:31:09.0000000+00:00</time></trkpt><trkpt lat="63.81191635" lon="-19.26911354"><ele>555.7</ele><time>2012-07-26T12:31:14.0000000+00:00</time></trkpt><trkpt lat="63.81182098" lon="-19.26949692"><ele>553.8</ele><time>2012-07-26T12:31:19.0000000+00:00</time></trkpt><trkpt lat="63.81169128" lon="-19.26988411"><ele>552.9</ele><time>2012-07-26T12:31:24.0000000+00:00</time></trkpt><trkpt lat="63.81158447" lon="-19.270298"><ele>552.5</ele><time>2012-07-26T12:31:29.0000000+00:00</time></trkpt><trkpt lat="63.81148148" lon="-19.27070999"><ele>550.5</ele><time>2012-07-26T12:31:34.0000000+00:00</time></trkpt><trkpt lat="63.81135559" lon="-19.2711277"><ele>549.0</ele><time>2012-07-26T12:31:39.0000000+00:00</time></trkpt><trkpt lat="63.81125259" lon="-19.27150345"><ele>548.3</ele><time>2012-07-26T12:31:44.0000000+00:00</time></trkpt><trkpt lat="63.81116104" lon="-19.27185822"><ele>549.3</ele><time>2012-07-26T12:31:49.0000000+00:00</time></trkpt><trkpt lat="63.81108475" lon="-19.27214813"><ele>554.0</ele><time>2012-07-26T12:31:54.0000000+00:00</time></trkpt><trkpt lat="63.81100845" lon="-19.27244186"><ele>553.7</ele><time>2012-07-26T12:31:59.0000000+00:00</time></trkpt><trkpt lat="63.8109436" lon="-19.27275276"><ele>552.1</ele><time>2012-07-26T12:32:04.0000000+00:00</time></trkpt><trkpt lat="63.81087875" lon="-19.27305222"><ele>555.5</ele><time>2012-07-26T12:32:09.0000000+00:00</time></trkpt><trkpt lat="63.81082916" lon="-19.27335167"><ele>556.8</ele><time>2012-07-26T12:32:14.0000000+00:00</time></trkpt><trkpt lat="63.8107605" lon="-19.27370262"><ele>557.9</ele><time>2012-07-26T12:32:19.0000000+00:00</time></trkpt><trkpt lat="63.81069565" lon="-19.27405167"><ele>558.9</ele><time>2012-07-26T12:32:24.0000000+00:00</time></trkpt><trkpt lat="63.81064987" lon="-19.2744236"><ele>558.8</ele><time>2012-07-26T12:32:29.0000000+00:00</time></trkpt><trkpt lat="63.81060791" lon="-19.27479744"><ele>560.5</ele><time>2012-07-26T12:32:34.0000000+00:00</time></trkpt><trkpt lat="63.81056595" lon="-19.27514267"><ele>562.1</ele><time>2012-07-26T12:32:39.0000000+00:00</time></trkpt><trkpt lat="63.81054306" lon="-19.27544403"><ele>562.5</ele><time>2012-07-26T12:32:44.0000000+00:00</time></trkpt><trkpt lat="63.81050491" lon="-19.27577782"><ele>563.2</ele><time>2012-07-26T12:32:49.0000000+00:00</time></trkpt><trkpt lat="63.81045914" lon="-19.27618218"><ele>563.5</ele><time>2012-07-26T12:32:54.0000000+00:00</time></trkpt><trkpt lat="63.81043243" lon="-19.27661896"><ele>563.3</ele><time>2012-07-26T12:32:59.0000000+00:00</time></trkpt><trkpt lat="63.81042099" lon="-19.2770462"><ele>563.0</ele><time>2012-07-26T12:33:04.0000000+00:00</time></trkpt><trkpt lat="63.8103714" lon="-19.27751541"><ele>562.5</ele><time>2012-07-26T12:33:09.0000000+00:00</time></trkpt><trkpt lat="63.81031036" lon="-19.27806473"><ele>562.0</ele><time>2012-07-26T12:33:14.0000000+00:00</time></trkpt><trkpt lat="63.81020355" lon="-19.27865791"><ele>561.5</ele><time>2012-07-26T12:33:19.0000000+00:00</time></trkpt><trkpt lat="63.81005096" lon="-19.27928352"><ele>560.7</ele><time>2012-07-26T12:33:24.0000000+00:00</time></trkpt><trkpt lat="63.80991745" lon="-19.2798214"><ele>559.8</ele><time>2012-07-26T12:33:29.0000000+00:00</time></trkpt><trkpt lat="63.80968094" lon="-19.28002358"><ele>558.9</ele><time>2012-07-26T12:33:34.0000000+00:00</time></trkpt><trkpt lat="63.80939102" lon="-19.27980042"><ele>558.0</ele><time>2012-07-26T12:33:39.0000000+00:00</time></trkpt><trkpt lat="63.80913544" lon="-19.27913284"><ele>556.8</ele><time>2012-07-26T12:33:44.0000000+00:00</time></trkpt><trkpt lat="63.80904007" lon="-19.27837753"><ele>556.8</ele><time>2012-07-26T12:33:49.0000000+00:00</time></trkpt><trkpt lat="63.80900192" lon="-19.27779388"><ele>555.9</ele><time>2012-07-26T12:33:54.0000000+00:00</time></trkpt><trkpt lat="63.80892563" lon="-19.27743149"><ele>556.1</ele><time>2012-07-26T12:33:59.0000000+00:00</time></trkpt><trkpt lat="63.80882263" lon="-19.27721024"><ele>555.5</ele><time>2012-07-26T12:34:04.0000000+00:00</time></trkpt><trkpt lat="63.80877304" lon="-19.27716065"><ele>554.8</ele><time>2012-07-26T12:34:09.0000000+00:00</time></trkpt><trkpt lat="63.8087616" lon="-19.27718544"><ele>552.0</ele><time>2012-07-26T12:34:14.0000000+00:00</time></trkpt><trkpt lat="63.80872345" lon="-19.27716255"><ele>547.9</ele><time>2012-07-26T12:34:19.0000000+00:00</time></trkpt><trkpt lat="63.8086853" lon="-19.27706909"><ele>546.5</ele><time>2012-07-26T12:34:24.0000000+00:00</time></trkpt><trkpt lat="63.80864716" lon="-19.27703285"><ele>546.3</ele><time>2012-07-26T12:34:29.0000000+00:00</time></trkpt><trkpt lat="63.80862045" lon="-19.27701378"><ele>544.5</ele><time>2012-07-26T12:34:34.0000000+00:00</time></trkpt><trkpt lat="63.80858994" lon="-19.27702904"><ele>544.4</ele><time>2012-07-26T12:34:39.0000000+00:00</time></trkpt><trkpt lat="63.80855942" lon="-19.27706718"><ele>544.7</ele><time>2012-07-26T12:34:44.0000000+00:00</time></trkpt><trkpt lat="63.80852509" lon="-19.277071"><ele>543.6</ele><time>2012-07-26T12:34:49.0000000+00:00</time></trkpt><trkpt lat="63.80848312" lon="-19.277071"><ele>543.3</ele><time>2012-07-26T12:34:54.0000000+00:00</time></trkpt><trkpt lat="63.80843353" lon="-19.27700043"><ele>543.2</ele><time>2012-07-26T12:34:59.0000000+00:00</time></trkpt><trkpt lat="63.80839157" lon="-19.27692604"><ele>540.4</ele><time>2012-07-26T12:35:04.0000000+00:00</time></trkpt><trkpt lat="63.80836487" lon="-19.27688408"><ele>538.0</ele><time>2012-07-26T12:35:09.0000000+00:00</time></trkpt><trkpt lat="63.8082962" lon="-19.27680969"><ele>537.0</ele><time>2012-07-26T12:35:14.0000000+00:00</time></trkpt><trkpt lat="63.80818176" lon="-19.2767067"><ele>536.6</ele><time>2012-07-26T12:35:19.0000000+00:00</time></trkpt><trkpt lat="63.80804443" lon="-19.276577"><ele>536.1</ele><time>2012-07-26T12:35:24.0000000+00:00</time></trkpt><trkpt lat="63.8079071" lon="-19.27648354"><ele>536.1</ele><time>2012-07-26T12:35:29.0000000+00:00</time></trkpt><trkpt lat="63.80776596" lon="-19.27639961"><ele>534.7</ele><time>2012-07-26T12:35:34.0000000+00:00</time></trkpt><trkpt lat="63.80759811" lon="-19.27632904"><ele>533.4</ele><time>2012-07-26T12:35:39.0000000+00:00</time></trkpt><trkpt lat="63.80745316" lon="-19.27625847"><ele>533.3</ele><time>2012-07-26T12:35:44.0000000+00:00</time></trkpt><trkpt lat="63.80731964" lon="-19.27619362"><ele>531.2</ele><time>2012-07-26T12:35:49.0000000+00:00</time></trkpt><trkpt lat="63.80719757" lon="-19.27615166"><ele>530.5</ele><time>2012-07-26T12:35:54.0000000+00:00</time></trkpt><trkpt lat="63.80703735" lon="-19.2760582"><ele>531.6</ele><time>2012-07-26T12:35:59.0000000+00:00</time></trkpt><trkpt lat="63.80688477" lon="-19.27596283"><ele>532.5</ele><time>2012-07-26T12:36:04.0000000+00:00</time></trkpt><trkpt lat="63.80675888" lon="-19.27583885"><ele>534.0</ele><time>2012-07-26T12:36:09.0000000+00:00</time></trkpt><trkpt lat="63.80666351" lon="-19.27569199"><ele>535.7</ele><time>2012-07-26T12:36:14.0000000+00:00</time></trkpt><trkpt lat="63.80658722" lon="-19.27552223"><ele>535.7</ele><time>2012-07-26T12:36:19.0000000+00:00</time></trkpt><trkpt lat="63.80651856" lon="-19.27540398"><ele>535.7</ele><time>2012-07-26T12:36:24.0000000+00:00</time></trkpt><trkpt lat="63.80647659" lon="-19.27525139"><ele>535.3</ele><time>2012-07-26T12:36:29.0000000+00:00</time></trkpt><trkpt lat="63.80643845" lon="-19.27511025"><ele>535.3</ele><time>2012-07-26T12:36:34.0000000+00:00</time></trkpt><trkpt lat="63.80638504" lon="-19.2752018"><ele>535.2</ele><time>2012-07-26T12:36:39.0000000+00:00</time></trkpt><trkpt lat="63.80632019" lon="-19.27538872"><ele>535.4</ele><time>2012-07-26T12:36:44.0000000+00:00</time></trkpt><trkpt lat="63.80629349" lon="-19.27560425"><ele>536.1</ele><time>2012-07-26T12:36:49.0000000+00:00</time></trkpt><trkpt lat="63.80625153" lon="-19.27577591"><ele>536.8</ele><time>2012-07-26T12:36:54.0000000+00:00</time></trkpt><trkpt lat="63.80621338" lon="-19.27590942"><ele>536.5</ele><time>2012-07-26T12:36:59.0000000+00:00</time></trkpt><trkpt lat="63.80619049" lon="-19.27611733"><ele>538.0</ele><time>2012-07-26T12:37:04.0000000+00:00</time></trkpt><trkpt lat="63.80616379" lon="-19.2763443"><ele>537.5</ele><time>2012-07-26T12:37:09.0000000+00:00</time></trkpt><trkpt lat="63.80614471" lon="-19.27651596"><ele>538.4</ele><time>2012-07-26T12:37:14.0000000+00:00</time></trkpt><trkpt lat="63.80608749" lon="-19.2767086"><ele>539.4</ele><time>2012-07-26T12:37:19.0000000+00:00</time></trkpt><trkpt lat="63.80606079" lon="-19.27686501"><ele>539.2</ele><time>2012-07-26T12:37:24.0000000+00:00</time></trkpt><trkpt lat="63.80607224" lon="-19.27687836"><ele>540.1</ele><time>2012-07-26T12:37:29.0000000+00:00</time></trkpt><trkpt lat="63.80606842" lon="-19.27689171"><ele>540.2</ele><time>2012-07-26T12:37:34.0000000+00:00</time></trkpt><trkpt lat="63.80606461" lon="-19.27692032"><ele>540.2</ele><time>2012-07-26T12:37:39.0000000+00:00</time></trkpt><trkpt lat="63.80606079" lon="-19.27695084"><ele>540.1</ele><time>2012-07-26T12:37:44.0000000+00:00</time></trkpt><trkpt lat="63.80605316" lon="-19.27696991"><ele>540.1</ele><time>2012-07-26T12:37:49.0000000+00:00</time></trkpt><trkpt lat="63.80604935" lon="-19.276968"><ele>540.1</ele><time>2012-07-26T12:37:54.0000000+00:00</time></trkpt><trkpt lat="63.80604935" lon="-19.27697182"><ele>540.1</ele><time>2012-07-26T12:37:59.0000000+00:00</time></trkpt><trkpt lat="63.80604553" lon="-19.27705765"><ele>540.0</ele><time>2012-07-26T12:38:04.0000000+00:00</time></trkpt><trkpt lat="63.80603027" lon="-19.27715683"><ele>539.7</ele><time>2012-07-26T12:38:09.0000000+00:00</time></trkpt><trkpt lat="63.80603409" lon="-19.27724648"><ele>539.4</ele><time>2012-07-26T12:38:14.0000000+00:00</time></trkpt><trkpt lat="63.80602264" lon="-19.27731133"><ele>538.9</ele><time>2012-07-26T12:38:19.0000000+00:00</time></trkpt><trkpt lat="63.80599976" lon="-19.27736664"><ele>538.3</ele><time>2012-07-26T12:38:24.0000000+00:00</time></trkpt><trkpt lat="63.80598831" lon="-19.27739716"><ele>537.1</ele><time>2012-07-26T12:38:29.0000000+00:00</time></trkpt><trkpt lat="63.8059845" lon="-19.27737999"><ele>536.8</ele><time>2012-07-26T12:38:34.0000000+00:00</time></trkpt><trkpt lat="63.80597687" lon="-19.27736092"><ele>536.4</ele><time>2012-07-26T12:38:39.0000000+00:00</time></trkpt><trkpt lat="63.80595779" lon="-19.27736664"><ele>536.5</ele><time>2012-07-26T12:38:44.0000000+00:00</time></trkpt><trkpt lat="63.80592728" lon="-19.27738953"><ele>536.7</ele><time>2012-07-26T12:38:49.0000000+00:00</time></trkpt><trkpt lat="63.80592728" lon="-19.2774334"><ele>537.0</ele><time>2012-07-26T12:38:54.0000000+00:00</time></trkpt><trkpt lat="63.80592346" lon="-19.27748108"><ele>537.0</ele><time>2012-07-26T12:38:59.0000000+00:00</time></trkpt><trkpt lat="63.8059082" lon="-19.27752876"><ele>537.1</ele><time>2012-07-26T12:39:04.0000000+00:00</time></trkpt><trkpt lat="63.80591583" lon="-19.27756691"><ele>537.2</ele><time>2012-07-26T12:39:09.0000000+00:00</time></trkpt><trkpt lat="63.80591583" lon="-19.27752876"><ele>537.1</ele><time>2012-07-26T12:39:14.0000000+00:00</time></trkpt><trkpt lat="63.80589294" lon="-19.27759934"><ele>536.8</ele><time>2012-07-26T12:39:19.0000000+00:00</time></trkpt><trkpt lat="63.80589676" lon="-19.27759743"><ele>536.7</ele><time>2012-07-26T12:39:24.0000000+00:00</time></trkpt><trkpt lat="63.80589294" lon="-19.27766991"><ele>536.7</ele><time>2012-07-26T12:39:29.0000000+00:00</time></trkpt><trkpt lat="63.80587769" lon="-19.27774239"><ele>536.9</ele><time>2012-07-26T12:39:34.0000000+00:00</time></trkpt><trkpt lat="63.8058548" lon="-19.27781487"><ele>537.0</ele><time>2012-07-26T12:39:39.0000000+00:00</time></trkpt><trkpt lat="63.80584717" lon="-19.27792168"><ele>537.3</ele><time>2012-07-26T12:39:44.0000000+00:00</time></trkpt><trkpt lat="63.80580139" lon="-19.2780056"><ele>537.8</ele><time>2012-07-26T12:39:49.0000000+00:00</time></trkpt><trkpt lat="63.80577469" lon="-19.27802277"><ele>538.2</ele><time>2012-07-26T12:39:54.0000000+00:00</time></trkpt><trkpt lat="63.80574799" lon="-19.27807999"><ele>538.6</ele><time>2012-07-26T12:39:59.0000000+00:00</time></trkpt><trkpt lat="63.80573273" lon="-19.27807999"><ele>539.2</ele><time>2012-07-26T12:40:04.0000000+00:00</time></trkpt><trkpt lat="63.80574036" lon="-19.2780838"><ele>539.6</ele><time>2012-07-26T12:40:09.0000000+00:00</time></trkpt><trkpt lat="63.80574799" lon="-19.2780838"><ele>540.0</ele><time>2012-07-26T12:40:14.0000000+00:00</time></trkpt><trkpt lat="63.8057518" lon="-19.27808571"><ele>540.4</ele><time>2012-07-26T12:40:19.0000000+00:00</time></trkpt><trkpt lat="63.8057518" lon="-19.27807808"><ele>540.8</ele><time>2012-07-26T12:40:24.0000000+00:00</time></trkpt><trkpt lat="63.8057518" lon="-19.27807236"><ele>541.2</ele><time>2012-07-26T12:40:29.0000000+00:00</time></trkpt><trkpt lat="63.80574799" lon="-19.27807236"><ele>541.6</ele><time>2012-07-26T12:40:34.0000000+00:00</time></trkpt><trkpt lat="63.80574417" lon="-19.27806091"><ele>542.0</ele><time>2012-07-26T12:40:39.0000000+00:00</time></trkpt><trkpt lat="63.80572891" lon="-19.27805328"><ele>541.9</ele><time>2012-07-26T12:40:44.0000000+00:00</time></trkpt><trkpt lat="63.80572891" lon="-19.27801323"><ele>541.4</ele><time>2012-07-26T12:40:49.0000000+00:00</time></trkpt><trkpt lat="63.8057251" lon="-19.27801704"><ele>541.1</ele><time>2012-07-26T12:40:54.0000000+00:00</time></trkpt><trkpt lat="63.8057251" lon="-19.27802086"><ele>541.1</ele><time>2012-07-26T12:40:59.0000000+00:00</time></trkpt><trkpt lat="63.80574799" lon="-19.27806282"><ele>541.2</ele><time>2012-07-26T12:41:04.0000000+00:00</time></trkpt><trkpt lat="63.80572891" lon="-19.27805138"><ele>541.0</ele><time>2012-07-26T12:41:09.0000000+00:00</time></trkpt><trkpt lat="63.80574036" lon="-19.27803993"><ele>540.7</ele><time>2012-07-26T12:41:14.0000000+00:00</time></trkpt><trkpt lat="63.80573654" lon="-19.2780304"><ele>540.6</ele><time>2012-07-26T12:41:19.0000000+00:00</time></trkpt><trkpt lat="63.80568314" lon="-19.27809143"><ele>540.5</ele><time>2012-07-26T12:41:24.0000000+00:00</time></trkpt><trkpt lat="63.80559158" lon="-19.27826309"><ele>539.9</ele><time>2012-07-26T12:41:29.0000000+00:00</time></trkpt><trkpt lat="63.80549622" lon="-19.27841568"><ele>539.5</ele><time>2012-07-26T12:41:34.0000000+00:00</time></trkpt><trkpt lat="63.80542374" lon="-19.27852821"><ele>539.1</ele><time>2012-07-26T12:41:39.0000000+00:00</time></trkpt><trkpt lat="63.80535126" lon="-19.27863693"><ele>538.5</ele><time>2012-07-26T12:41:44.0000000+00:00</time></trkpt><trkpt lat="63.80524445" lon="-19.27875137"><ele>537.8</ele><time>2012-07-26T12:41:49.0000000+00:00</time></trkpt><trkpt lat="63.80517197" lon="-19.27879334"><ele>537.3</ele><time>2012-07-26T12:41:54.0000000+00:00</time></trkpt><trkpt lat="63.80509186" lon="-19.27884102"><ele>537.5</ele><time>2012-07-26T12:41:59.0000000+00:00</time></trkpt><trkpt lat="63.80499649" lon="-19.27891731"><ele>537.3</ele><time>2012-07-26T12:42:04.0000000+00:00</time></trkpt><trkpt lat="63.80490494" lon="-19.27903175"><ele>537.3</ele><time>2012-07-26T12:42:09.0000000+00:00</time></trkpt><trkpt lat="63.80480194" lon="-19.27914429"><ele>537.7</ele><time>2012-07-26T12:42:14.0000000+00:00</time></trkpt><trkpt lat="63.80467606" lon="-19.27932167"><ele>537.8</ele><time>2012-07-26T12:42:19.0000000+00:00</time></trkpt><trkpt lat="63.80455399" lon="-19.27954483"><ele>538.3</ele><time>2012-07-26T12:42:24.0000000+00:00</time></trkpt><trkpt lat="63.80443192" lon="-19.27980042"><ele>538.6</ele><time>2012-07-26T12:42:29.0000000+00:00</time></trkpt><trkpt lat="63.8042717" lon="-19.28009415"><ele>539.2</ele><time>2012-07-26T12:42:34.0000000+00:00</time></trkpt><trkpt lat="63.80418396" lon="-19.28033447"><ele>540.2</ele><time>2012-07-26T12:42:39.0000000+00:00</time></trkpt><trkpt lat="63.80414963" lon="-19.28048706"><ele>540.0</ele><time>2012-07-26T12:42:44.0000000+00:00</time></trkpt><trkpt lat="63.80410767" lon="-19.28062058"><ele>539.4</ele><time>2012-07-26T12:42:49.0000000+00:00</time></trkpt><trkpt lat="63.80408478" lon="-19.28072357"><ele>542.1</ele><time>2012-07-26T12:42:54.0000000+00:00</time></trkpt><trkpt lat="63.8040123" lon="-19.28078842"><ele>543.5</ele><time>2012-07-26T12:42:59.0000000+00:00</time></trkpt><trkpt lat="63.80392456" lon="-19.2808876"><ele>544.9</ele><time>2012-07-26T12:43:04.0000000+00:00</time></trkpt><trkpt lat="63.80384064" lon="-19.28096199"><ele>544.7</ele><time>2012-07-26T12:43:09.0000000+00:00</time></trkpt><trkpt lat="63.8037796" lon="-19.28108978"><ele>545.3</ele><time>2012-07-26T12:43:14.0000000+00:00</time></trkpt><trkpt lat="63.80369568" lon="-19.28125"><ele>546.2</ele><time>2012-07-26T12:43:19.0000000+00:00</time></trkpt><trkpt lat="63.80361557" lon="-19.28142357"><ele>546.5</ele><time>2012-07-26T12:43:24.0000000+00:00</time></trkpt><trkpt lat="63.80353546" lon="-19.28159523"><ele>543.3</ele><time>2012-07-26T12:43:29.0000000+00:00</time></trkpt><trkpt lat="63.80352783" lon="-19.28155518"><ele>543.6</ele><time>2012-07-26T12:43:34.0000000+00:00</time></trkpt><trkpt lat="63.80351639" lon="-19.28157425"><ele>543.7</ele><time>2012-07-26T12:43:39.0000000+00:00</time></trkpt><trkpt lat="63.80351257" lon="-19.28158188"><ele>543.7</ele><time>2012-07-26T12:43:44.0000000+00:00</time></trkpt><trkpt lat="63.80351639" lon="-19.2815876"><ele>543.7</ele><time>2012-07-26T12:43:49.0000000+00:00</time></trkpt><trkpt lat="63.80351639" lon="-19.28157997"><ele>543.6</ele><time>2012-07-26T12:43:54.0000000+00:00</time></trkpt><trkpt lat="63.80351639" lon="-19.28157425"><ele>543.5</ele><time>2012-07-26T12:43:59.0000000+00:00</time></trkpt><trkpt lat="63.80351639" lon="-19.28156662"><ele>543.4</ele><time>2012-07-26T12:44:04.0000000+00:00</time></trkpt><trkpt lat="63.80351639" lon="-19.28155327"><ele>543.4</ele><time>2012-07-26T12:44:09.0000000+00:00</time></trkpt><trkpt lat="63.80352402" lon="-19.28150177"><ele>544.5</ele><time>2012-07-26T12:44:14.0000000+00:00</time></trkpt><trkpt lat="63.8035202" lon="-19.28149796"><ele>544.3</ele><time>2012-07-26T12:44:19.0000000+00:00</time></trkpt><trkpt lat="63.80351257" lon="-19.28150749"><ele>544.2</ele><time>2012-07-26T12:44:24.0000000+00:00</time></trkpt><trkpt lat="63.80350876" lon="-19.28151131"><ele>544.1</ele><time>2012-07-26T12:44:29.0000000+00:00</time></trkpt><trkpt lat="63.80350876" lon="-19.28152084"><ele>544.1</ele><time>2012-07-26T12:44:34.0000000+00:00</time></trkpt><trkpt lat="63.80350876" lon="-19.28151321"><ele>544.1</ele><time>2012-07-26T12:44:39.0000000+00:00</time></trkpt><trkpt lat="63.80350494" lon="-19.2815094"><ele>544.1</ele><time>2012-07-26T12:44:44.0000000+00:00</time></trkpt><trkpt lat="63.80350876" lon="-19.28151321"><ele>544.2</ele><time>2012-07-26T12:44:49.0000000+00:00</time></trkpt><trkpt lat="63.8035202" lon="-19.28151894"><ele>544.2</ele><time>2012-07-26T12:44:54.0000000+00:00</time></trkpt><trkpt lat="63.8035202" lon="-19.28152084"><ele>544.2</ele><time>2012-07-26T12:44:59.0000000+00:00</time></trkpt><trkpt lat="63.8035202" lon="-19.28151703"><ele>544.2</ele><time>2012-07-26T12:45:04.0000000+00:00</time></trkpt><trkpt lat="63.8035202" lon="-19.28152084"><ele>544.3</ele><time>2012-07-26T12:45:09.0000000+00:00</time></trkpt><trkpt lat="63.80352783" lon="-19.28152847"><ele>544.3</ele><time>2012-07-26T12:45:14.0000000+00:00</time></trkpt><trkpt lat="63.80353546" lon="-19.28153229"><ele>544.3</ele><time>2012-07-26T12:45:19.0000000+00:00</time></trkpt><trkpt lat="63.80354309" lon="-19.28153038"><ele>544.3</ele><time>2012-07-26T12:45:24.0000000+00:00</time></trkpt><trkpt lat="63.80354309" lon="-19.28152847"><ele>544.3</ele><time>2012-07-26T12:45:29.0000000+00:00</time></trkpt><trkpt lat="63.80353546" lon="-19.28152275"><ele>544.3</ele><time>2012-07-26T12:45:34.0000000+00:00</time></trkpt><trkpt lat="63.80353546" lon="-19.28152275"><ele>544.3</ele><time>2012-07-26T12:45:39.0000000+00:00</time></trkpt><trkpt lat="63.80353928" lon="-19.28152084"><ele>544.3</ele><time>2012-07-26T12:45:44.0000000+00:00</time></trkpt><trkpt lat="63.80353928" lon="-19.28152275"><ele>544.3</ele><time>2012-07-26T12:45:49.0000000+00:00</time></trkpt><trkpt lat="63.80353928" lon="-19.28152275"><ele>544.3</ele><time>2012-07-26T12:45:54.0000000+00:00</time></trkpt><trkpt lat="63.80353928" lon="-19.28152657"><ele>544.3</ele><time>2012-07-26T12:45:59.0000000+00:00</time></trkpt><trkpt lat="63.80353928" lon="-19.28152657"><ele>544.3</ele><time>2012-07-26T12:46:04.0000000+00:00</time></trkpt><trkpt lat="63.80353928" lon="-19.28152847"><ele>544.3</ele><time>2012-07-26T12:46:09.0000000+00:00</time></trkpt><trkpt lat="63.80353928" lon="-19.28152847"><ele>544.3</ele><time>2012-07-26T12:46:14.0000000+00:00</time></trkpt><trkpt lat="63.80353928" lon="-19.28152847"><ele>544.3</ele><time>2012-07-26T12:46:19.0000000+00:00</time></trkpt><trkpt lat="63.80353928" lon="-19.28152847"><ele>544.3</ele><time>2012-07-26T12:46:24.0000000+00:00</time></trkpt><trkpt lat="63.80353928" lon="-19.28152847"><ele>544.4</ele><time>2012-07-26T12:46:29.0000000+00:00</time></trkpt><trkpt lat="63.80353928" lon="-19.28152847"><ele>544.4</ele><time>2012-07-26T12:46:34.0000000+00:00</time></trkpt><trkpt lat="63.80353928" lon="-19.28152847"><ele>544.4</ele><time>2012-07-26T12:46:39.0000000+00:00</time></trkpt><trkpt lat="63.8035202" lon="-19.28157997"><ele>542.9</ele><time>2012-07-26T12:46:44.0000000+00:00</time></trkpt><trkpt lat="63.80347824" lon="-19.28166008"><ele>542.6</ele><time>2012-07-26T12:46:49.0000000+00:00</time></trkpt><trkpt lat="63.80344391" lon="-19.28169251"><ele>543.2</ele><time>2012-07-26T12:46:54.0000000+00:00</time></trkpt><trkpt lat="63.80343628" lon="-19.28170586"><ele>543.6</ele><time>2012-07-26T12:46:59.0000000+00:00</time></trkpt><trkpt lat="63.80343628" lon="-19.2816906"><ele>543.1</ele><time>2012-07-26T12:47:04.0000000+00:00</time></trkpt><trkpt lat="63.80344009" lon="-19.28167343"><ele>542.8</ele><time>2012-07-26T12:47:09.0000000+00:00</time></trkpt><trkpt lat="63.80343628" lon="-19.28166962"><ele>542.6</ele><time>2012-07-26T12:47:14.0000000+00:00</time></trkpt><trkpt lat="63.80341339" lon="-19.28180504"><ele>543.0</ele><time>2012-07-26T12:47:19.0000000+00:00</time></trkpt><trkpt lat="63.8033905" lon="-19.28206062"><ele>542.7</ele><time>2012-07-26T12:47:24.0000000+00:00</time></trkpt><trkpt lat="63.80337524" lon="-19.28238678"><ele>542.8</ele><time>2012-07-26T12:47:29.0000000+00:00</time></trkpt><trkpt lat="63.80338287" lon="-19.28264237"><ele>545.0</ele><time>2012-07-26T12:47:34.0000000+00:00</time></trkpt><trkpt lat="63.80337524" lon="-19.28297234"><ele>544.6</ele><time>2012-07-26T12:47:39.0000000+00:00</time></trkpt><trkpt lat="63.80337906" lon="-19.28334999"><ele>544.1</ele><time>2012-07-26T12:47:44.0000000+00:00</time></trkpt><trkpt lat="63.80337143" lon="-19.28372955"><ele>542.8</ele><time>2012-07-26T12:47:49.0000000+00:00</time></trkpt><trkpt lat="63.80335236" lon="-19.28411102"><ele>543.5</ele><time>2012-07-26T12:47:54.0000000+00:00</time></trkpt><trkpt lat="63.80332565" lon="-19.28455162"><ele>542.8</ele><time>2012-07-26T12:47:59.0000000+00:00</time></trkpt><trkpt lat="63.80329514" lon="-19.28524017"><ele>540.8</ele><time>2012-07-26T12:48:04.0000000+00:00</time></trkpt><trkpt lat="63.80331039" lon="-19.28619194"><ele>539.4</ele><time>2012-07-26T12:48:09.0000000+00:00</time></trkpt><trkpt lat="63.80328751" lon="-19.28703499"><ele>538.8</ele><time>2012-07-26T12:48:14.0000000+00:00</time></trkpt><trkpt lat="63.80324554" lon="-19.28753281"><ele>539.8</ele><time>2012-07-26T12:48:19.0000000+00:00</time></trkpt><trkpt lat="63.80323029" lon="-19.2878418"><ele>540.8</ele><time>2012-07-26T12:48:24.0000000+00:00</time></trkpt><trkpt lat="63.80320358" lon="-19.28819656"><ele>544.0</ele><time>2012-07-26T12:48:29.0000000+00:00</time></trkpt><trkpt lat="63.80319977" lon="-19.28847885"><ele>545.5</ele><time>2012-07-26T12:48:34.0000000+00:00</time></trkpt><trkpt lat="63.80321503" lon="-19.28881645"><ele>546.8</ele><time>2012-07-26T12:48:39.0000000+00:00</time></trkpt><trkpt lat="63.80323029" lon="-19.28905869"><ele>549.1</ele><time>2012-07-26T12:48:44.0000000+00:00</time></trkpt><trkpt lat="63.8032341" lon="-19.28928375"><ele>550.8</ele><time>2012-07-26T12:48:49.0000000+00:00</time></trkpt><trkpt lat="63.80325317" lon="-19.28951073"><ele>552.3</ele><time>2012-07-26T12:48:54.0000000+00:00</time></trkpt><trkpt lat="63.80323029" lon="-19.28969002"><ele>552.4</ele><time>2012-07-26T12:48:59.0000000+00:00</time></trkpt><trkpt lat="63.80321503" lon="-19.28981781"><ele>553.6</ele><time>2012-07-26T12:49:04.0000000+00:00</time></trkpt><trkpt lat="63.80318451" lon="-19.2899456"><ele>554.5</ele><time>2012-07-26T12:49:09.0000000+00:00</time></trkpt><trkpt lat="63.80315018" lon="-19.29007912"><ele>556.1</ele><time>2012-07-26T12:49:14.0000000+00:00</time></trkpt><trkpt lat="63.8031044" lon="-19.29020119"><ele>557.4</ele><time>2012-07-26T12:49:19.0000000+00:00</time></trkpt><trkpt lat="63.803051" lon="-19.29029846"><ele>558.1</ele><time>2012-07-26T12:49:24.0000000+00:00</time></trkpt><trkpt lat="63.80299377" lon="-19.29038239"><ele>558.9</ele><time>2012-07-26T12:49:29.0000000+00:00</time></trkpt><trkpt lat="63.80295181" lon="-19.29045868"><ele>559.3</ele><time>2012-07-26T12:49:34.0000000+00:00</time></trkpt><trkpt lat="63.80290222" lon="-19.29054833"><ele>559.9</ele><time>2012-07-26T12:49:39.0000000+00:00</time></trkpt><trkpt lat="63.802845" lon="-19.29067802"><ele>560.6</ele><time>2012-07-26T12:49:44.0000000+00:00</time></trkpt><trkpt lat="63.80277634" lon="-19.29085922"><ele>561.2</ele><time>2012-07-26T12:49:49.0000000+00:00</time></trkpt><trkpt lat="63.80273438" lon="-19.29102516"><ele>561.8</ele><time>2012-07-26T12:49:54.0000000+00:00</time></trkpt><trkpt lat="63.80272293" lon="-19.29115295"><ele>563.0</ele><time>2012-07-26T12:49:59.0000000+00:00</time></trkpt><trkpt lat="63.80272675" lon="-19.29122543"><ele>562.5</ele><time>2012-07-26T12:50:04.0000000+00:00</time></trkpt><trkpt lat="63.80272675" lon="-19.29122162"><ele>562.4</ele><time>2012-07-26T12:50:09.0000000+00:00</time></trkpt><trkpt lat="63.80272675" lon="-19.29122162"><ele>562.5</ele><time>2012-07-26T12:50:14.0000000+00:00</time></trkpt><trkpt lat="63.80272293" lon="-19.29122543"><ele>562.5</ele><time>2012-07-26T12:50:19.0000000+00:00</time></trkpt><trkpt lat="63.80272675" lon="-19.2912159"><ele>562.4</ele><time>2012-07-26T12:50:24.0000000+00:00</time></trkpt><trkpt lat="63.80273438" lon="-19.29121018"><ele>562.4</ele><time>2012-07-26T12:50:29.0000000+00:00</time></trkpt><trkpt lat="63.80274963" lon="-19.2911911"><ele>562.2</ele><time>2012-07-26T12:50:34.0000000+00:00</time></trkpt><trkpt lat="63.80274582" lon="-19.29118919"><ele>562.0</ele><time>2012-07-26T12:50:39.0000000+00:00</time></trkpt><trkpt lat="63.80273819" lon="-19.29117775"><ele>561.6</ele><time>2012-07-26T12:50:44.0000000+00:00</time></trkpt><trkpt lat="63.80272293" lon="-19.29121208"><ele>561.1</ele><time>2012-07-26T12:50:49.0000000+00:00</time></trkpt><trkpt lat="63.80271149" lon="-19.29139328"><ele>559.8</ele><time>2012-07-26T12:50:54.0000000+00:00</time></trkpt><trkpt lat="63.80269241" lon="-19.29165077"><ele>558.3</ele><time>2012-07-26T12:50:59.0000000+00:00</time></trkpt><trkpt lat="63.80268097" lon="-19.29190064"><ele>556.7</ele><time>2012-07-26T12:51:04.0000000+00:00</time></trkpt><trkpt lat="63.80267716" lon="-19.29216957"><ele>554.9</ele><time>2012-07-26T12:51:09.0000000+00:00</time></trkpt><trkpt lat="63.80265045" lon="-19.29249954"><ele>552.9</ele><time>2012-07-26T12:51:14.0000000+00:00</time></trkpt><trkpt lat="63.80263901" lon="-19.29281998"><ele>551.0</ele><time>2012-07-26T12:51:19.0000000+00:00</time></trkpt><trkpt lat="63.80260849" lon="-19.29318619"><ele>549.5</ele><time>2012-07-26T12:51:24.0000000+00:00</time></trkpt><trkpt lat="63.80256653" lon="-19.29355621"><ele>548.4</ele><time>2012-07-26T12:51:29.0000000+00:00</time></trkpt><trkpt lat="63.80250549" lon="-19.2939682"><ele>546.8</ele><time>2012-07-26T12:51:34.0000000+00:00</time></trkpt><trkpt lat="63.8024292" lon="-19.29437828"><ele>547.6</ele><time>2012-07-26T12:51:39.0000000+00:00</time></trkpt><trkpt lat="63.80235291" lon="-19.29477882"><ele>547.8</ele><time>2012-07-26T12:51:44.0000000+00:00</time></trkpt><trkpt lat="63.80225754" lon="-19.29514504"><ele>547.7</ele><time>2012-07-26T12:51:49.0000000+00:00</time></trkpt><trkpt lat="63.80215073" lon="-19.29555893"><ele>548.2</ele><time>2012-07-26T12:51:54.0000000+00:00</time></trkpt><trkpt lat="63.80204773" lon="-19.29596901"><ele>548.9</ele><time>2012-07-26T12:51:59.0000000+00:00</time></trkpt><trkpt lat="63.80197907" lon="-19.29630852"><ele>554.6</ele><time>2012-07-26T12:52:04.0000000+00:00</time></trkpt><trkpt lat="63.80191803" lon="-19.29663086"><ele>555.2</ele><time>2012-07-26T12:52:09.0000000+00:00</time></trkpt><trkpt lat="63.80186462" lon="-19.29705238"><ele>556.8</ele><time>2012-07-26T12:52:14.0000000+00:00</time></trkpt><trkpt lat="63.80182648" lon="-19.29746628"><ele>557.0</ele><time>2012-07-26T12:52:19.0000000+00:00</time></trkpt><trkpt lat="63.80179215" lon="-19.29784203"><ele>556.5</ele><time>2012-07-26T12:52:24.0000000+00:00</time></trkpt><trkpt lat="63.80175018" lon="-19.29819489"><ele>557.9</ele><time>2012-07-26T12:52:29.0000000+00:00</time></trkpt><trkpt lat="63.8016777" lon="-19.29857445"><ele>557.3</ele><time>2012-07-26T12:52:34.0000000+00:00</time></trkpt><trkpt lat="63.80164337" lon="-19.29897499"><ele>558.5</ele><time>2012-07-26T12:52:39.0000000+00:00</time></trkpt><trkpt lat="63.801651" lon="-19.29933739"><ele>557.9</ele><time>2012-07-26T12:52:44.0000000+00:00</time></trkpt><trkpt lat="63.80168152" lon="-19.29971886"><ele>557.3</ele><time>2012-07-26T12:52:49.0000000+00:00</time></trkpt><trkpt lat="63.80175781" lon="-19.30010605"><ele>558.7</ele><time>2012-07-26T12:52:54.0000000+00:00</time></trkpt><trkpt lat="63.80186844" lon="-19.30046845"><ele>558.9</ele><time>2012-07-26T12:52:59.0000000+00:00</time></trkpt><trkpt lat="63.80199432" lon="-19.30081177"><ele>559.1</ele><time>2012-07-26T12:53:04.0000000+00:00</time></trkpt><trkpt lat="63.80212021" lon="-19.30113792"><ele>559.0</ele><time>2012-07-26T12:53:09.0000000+00:00</time></trkpt><trkpt lat="63.80228424" lon="-19.30141068"><ele>558.3</ele><time>2012-07-26T12:53:14.0000000+00:00</time></trkpt><trkpt lat="63.80248642" lon="-19.30160713"><ele>556.6</ele><time>2012-07-26T12:53:19.0000000+00:00</time></trkpt><trkpt lat="63.80265427" lon="-19.30186844"><ele>555.3</ele><time>2012-07-26T12:53:24.0000000+00:00</time></trkpt><trkpt lat="63.80282211" lon="-19.30221176"><ele>553.4</ele><time>2012-07-26T12:53:29.0000000+00:00</time></trkpt><trkpt lat="63.80298233" lon="-19.30245972"><ele>552.6</ele><time>2012-07-26T12:53:34.0000000+00:00</time></trkpt><trkpt lat="63.80311203" lon="-19.3026886"><ele>551.7</ele><time>2012-07-26T12:53:39.0000000+00:00</time></trkpt><trkpt lat="63.80324936" lon="-19.3028965"><ele>549.8</ele><time>2012-07-26T12:53:44.0000000+00:00</time></trkpt><trkpt lat="63.8033371" lon="-19.30310631"><ele>548.1</ele><time>2012-07-26T12:53:49.0000000+00:00</time></trkpt><trkpt lat="63.80338287" lon="-19.30323982"><ele>546.7</ele><time>2012-07-26T12:53:54.0000000+00:00</time></trkpt><trkpt lat="63.80342484" lon="-19.30336762"><ele>547.1</ele><time>2012-07-26T12:53:59.0000000+00:00</time></trkpt><trkpt lat="63.8034668" lon="-19.30351448"><ele>547.9</ele><time>2012-07-26T12:54:04.0000000+00:00</time></trkpt><trkpt lat="63.80350494" lon="-19.30368996"><ele>547.9</ele><time>2012-07-26T12:54:09.0000000+00:00</time></trkpt><trkpt lat="63.80354691" lon="-19.3038826"><ele>547.2</ele><time>2012-07-26T12:54:14.0000000+00:00</time></trkpt><trkpt lat="63.80360031" lon="-19.3040905"><ele>546.6</ele><time>2012-07-26T12:54:19.0000000+00:00</time></trkpt><trkpt lat="63.80367279" lon="-19.30438423"><ele>547.1</ele><time>2012-07-26T12:54:24.0000000+00:00</time></trkpt><trkpt lat="63.80371857" lon="-19.30469513"><ele>546.8</ele><time>2012-07-26T12:54:29.0000000+00:00</time></trkpt><trkpt lat="63.8037529" lon="-19.30503464"><ele>547.2</ele><time>2012-07-26T12:54:34.0000000+00:00</time></trkpt><trkpt lat="63.80376434" lon="-19.30535317"><ele>547.5</ele><time>2012-07-26T12:54:39.0000000+00:00</time></trkpt><trkpt lat="63.8037796" lon="-19.30568123"><ele>547.9</ele><time>2012-07-26T12:54:44.0000000+00:00</time></trkpt><trkpt lat="63.80378723" lon="-19.30597878"><ele>548.2</ele><time>2012-07-26T12:54:49.0000000+00:00</time></trkpt><trkpt lat="63.80377197" lon="-19.3063221"><ele>548.2</ele><time>2012-07-26T12:54:54.0000000+00:00</time></trkpt><trkpt lat="63.80374146" lon="-19.30672646"><ele>547.7</ele><time>2012-07-26T12:54:59.0000000+00:00</time></trkpt><trkpt lat="63.80369186" lon="-19.30707741"><ele>547.8</ele><time>2012-07-26T12:55:04.0000000+00:00</time></trkpt><trkpt lat="63.80363464" lon="-19.30739403"><ele>548.2</ele><time>2012-07-26T12:55:09.0000000+00:00</time></trkpt><trkpt lat="63.80357361" lon="-19.30776596"><ele>548.4</ele><time>2012-07-26T12:55:14.0000000+00:00</time></trkpt><trkpt lat="63.80350113" lon="-19.30816841"><ele>549.4</ele><time>2012-07-26T12:55:19.0000000+00:00</time></trkpt><trkpt lat="63.80344391" lon="-19.30850792"><ele>549.7</ele><time>2012-07-26T12:55:24.0000000+00:00</time></trkpt><trkpt lat="63.80338287" lon="-19.30886841"><ele>549.2</ele><time>2012-07-26T12:55:29.0000000+00:00</time></trkpt><trkpt lat="63.80331421" lon="-19.30925942"><ele>550.4</ele><time>2012-07-26T12:55:34.0000000+00:00</time></trkpt><trkpt lat="63.80324173" lon="-19.30962753"><ele>550.4</ele><time>2012-07-26T12:55:39.0000000+00:00</time></trkpt><trkpt lat="63.80317307" lon="-19.31000328"><ele>550.6</ele><time>2012-07-26T12:55:44.0000000+00:00</time></trkpt><trkpt lat="63.80310822" lon="-19.3103199"><ele>550.0</ele><time>2012-07-26T12:55:49.0000000+00:00</time></trkpt><trkpt lat="63.803051" lon="-19.3106308"><ele>549.6</ele><time>2012-07-26T12:55:54.0000000+00:00</time></trkpt><trkpt lat="63.80297852" lon="-19.31100273"><ele>549.2</ele><time>2012-07-26T12:55:59.0000000+00:00</time></trkpt><trkpt lat="63.80290222" lon="-19.31132317"><ele>550.3</ele><time>2012-07-26T12:56:04.0000000+00:00</time></trkpt><trkpt lat="63.80283356" lon="-19.31162262"><ele>550.6</ele><time>2012-07-26T12:56:09.0000000+00:00</time></trkpt><trkpt lat="63.802742" lon="-19.31201172"><ele>553.3</ele><time>2012-07-26T12:56:14.0000000+00:00</time></trkpt><trkpt lat="63.80265808" lon="-19.31230736"><ele>552.1</ele><time>2012-07-26T12:56:19.0000000+00:00</time></trkpt><trkpt lat="63.8025856" lon="-19.31263542"><ele>551.0</ele><time>2012-07-26T12:56:24.0000000+00:00</time></trkpt><trkpt lat="63.80250168" lon="-19.31301498"><ele>550.5</ele><time>2012-07-26T12:56:29.0000000+00:00</time></trkpt><trkpt lat="63.80243301" lon="-19.31337166"><ele>548.9</ele><time>2012-07-26T12:56:34.0000000+00:00</time></trkpt><trkpt lat="63.80235291" lon="-19.31360054"><ele>547.6</ele><time>2012-07-26T12:56:39.0000000+00:00</time></trkpt><trkpt lat="63.80228424" lon="-19.31391144"><ele>548.3</ele><time>2012-07-26T12:56:44.0000000+00:00</time></trkpt><trkpt lat="63.80221939" lon="-19.31422806"><ele>548.4</ele><time>2012-07-26T12:56:49.0000000+00:00</time></trkpt><trkpt lat="63.80215073" lon="-19.31455994"><ele>548.4</ele><time>2012-07-26T12:56:54.0000000+00:00</time></trkpt><trkpt lat="63.80208588" lon="-19.31490707"><ele>546.6</ele><time>2012-07-26T12:56:59.0000000+00:00</time></trkpt><trkpt lat="63.8020134" lon="-19.31527519"><ele>545.0</ele><time>2012-07-26T12:57:04.0000000+00:00</time></trkpt><trkpt lat="63.80196762" lon="-19.31557655"><ele>545.7</ele><time>2012-07-26T12:57:09.0000000+00:00</time></trkpt><trkpt lat="63.80188751" lon="-19.31591606"><ele>547.0</ele><time>2012-07-26T12:57:14.0000000+00:00</time></trkpt><trkpt lat="63.80181503" lon="-19.31630135"><ele>548.4</ele><time>2012-07-26T12:57:19.0000000+00:00</time></trkpt><trkpt lat="63.80174637" lon="-19.31669235"><ele>549.9</ele><time>2012-07-26T12:57:24.0000000+00:00</time></trkpt><trkpt lat="63.80168533" lon="-19.31711578"><ele>553.0</ele><time>2012-07-26T12:57:29.0000000+00:00</time></trkpt><trkpt lat="63.80162048" lon="-19.31752396"><ele>553.4</ele><time>2012-07-26T12:57:34.0000000+00:00</time></trkpt><trkpt lat="63.80155945" lon="-19.31786919"><ele>551.8</ele><time>2012-07-26T12:57:39.0000000+00:00</time></trkpt><trkpt lat="63.8015213" lon="-19.31821251"><ele>552.5</ele><time>2012-07-26T12:57:44.0000000+00:00</time></trkpt><trkpt lat="63.80146408" lon="-19.31860161"><ele>552.8</ele><time>2012-07-26T12:57:49.0000000+00:00</time></trkpt><trkpt lat="63.80141068" lon="-19.31894112"><ele>551.3</ele><time>2012-07-26T12:57:54.0000000+00:00</time></trkpt><trkpt lat="63.80136871" lon="-19.31923866"><ele>550.5</ele><time>2012-07-26T12:57:59.0000000+00:00</time></trkpt><trkpt lat="63.80132294" lon="-19.31956291"><ele>548.3</ele><time>2012-07-26T12:58:04.0000000+00:00</time></trkpt><trkpt lat="63.80124664" lon="-19.31990624"><ele>548.6</ele><time>2012-07-26T12:58:09.0000000+00:00</time></trkpt><trkpt lat="63.80121231" lon="-19.32024956"><ele>547.1</ele><time>2012-07-26T12:58:14.0000000+00:00</time></trkpt><trkpt lat="63.80117035" lon="-19.32056236"><ele>547.3</ele><time>2012-07-26T12:58:19.0000000+00:00</time></trkpt><trkpt lat="63.80114365" lon="-19.32087898"><ele>547.6</ele><time>2012-07-26T12:58:24.0000000+00:00</time></trkpt><trkpt lat="63.80111313" lon="-19.3212471"><ele>547.4</ele><time>2012-07-26T12:58:29.0000000+00:00</time></trkpt><trkpt lat="63.80109406" lon="-19.32157898"><ele>546.4</ele><time>2012-07-26T12:58:34.0000000+00:00</time></trkpt><trkpt lat="63.80106354" lon="-19.32193565"><ele>547.0</ele><time>2012-07-26T12:58:39.0000000+00:00</time></trkpt><trkpt lat="63.80104446" lon="-19.32221603"><ele>546.7</ele><time>2012-07-26T12:58:44.0000000+00:00</time></trkpt><trkpt lat="63.80101013" lon="-19.32242775"><ele>545.6</ele><time>2012-07-26T12:58:49.0000000+00:00</time></trkpt><trkpt lat="63.80095673" lon="-19.32263756"><ele>545.2</ele><time>2012-07-26T12:58:54.0000000+00:00</time></trkpt><trkpt lat="63.80090332" lon="-19.32286835"><ele>545.7</ele><time>2012-07-26T12:58:59.0000000+00:00</time></trkpt><trkpt lat="63.80080795" lon="-19.3230896"><ele>543.9</ele><time>2012-07-26T12:59:04.0000000+00:00</time></trkpt><trkpt lat="63.80072022" lon="-19.3233242"><ele>543.7</ele><time>2012-07-26T12:59:09.0000000+00:00</time></trkpt><trkpt lat="63.80065155" lon="-19.32359505"><ele>543.7</ele><time>2012-07-26T12:59:14.0000000+00:00</time></trkpt><trkpt lat="63.80059052" lon="-19.32392693"><ele>543.5</ele><time>2012-07-26T12:59:19.0000000+00:00</time></trkpt><trkpt lat="63.80055237" lon="-19.3242836"><ele>543.2</ele><time>2012-07-26T12:59:24.0000000+00:00</time></trkpt><trkpt lat="63.80052185" lon="-19.32459259"><ele>542.9</ele><time>2012-07-26T12:59:29.0000000+00:00</time></trkpt><trkpt lat="63.80049515" lon="-19.32489204"><ele>543.3</ele><time>2012-07-26T12:59:34.0000000+00:00</time></trkpt><trkpt lat="63.80046845" lon="-19.32520294"><ele>543.1</ele><time>2012-07-26T12:59:39.0000000+00:00</time></trkpt><trkpt lat="63.80041122" lon="-19.32552528"><ele>542.6</ele><time>2012-07-26T12:59:44.0000000+00:00</time></trkpt><trkpt lat="63.80036926" lon="-19.3258915"><ele>541.4</ele><time>2012-07-26T12:59:49.0000000+00:00</time></trkpt><trkpt lat="63.80031586" lon="-19.32629776"><ele>540.3</ele><time>2012-07-26T12:59:54.0000000+00:00</time></trkpt><trkpt lat="63.80025864" lon="-19.32673454"><ele>539.5</ele><time>2012-07-26T12:59:59.0000000+00:00</time></trkpt><trkpt lat="63.80019379" lon="-19.3271637"><ele>539.0</ele><time>2012-07-26T13:00:04.0000000+00:00</time></trkpt><trkpt lat="63.80013657" lon="-19.32755089"><ele>539.9</ele><time>2012-07-26T13:00:09.0000000+00:00</time></trkpt><trkpt lat="63.80007172" lon="-19.32796288"><ele>540.3</ele><time>2012-07-26T13:00:14.0000000+00:00</time></trkpt><trkpt lat="63.80000687" lon="-19.3283577"><ele>540.3</ele><time>2012-07-26T13:00:19.0000000+00:00</time></trkpt><trkpt lat="63.79993439" lon="-19.32882309"><ele>540.6</ele><time>2012-07-26T13:00:24.0000000+00:00</time></trkpt><trkpt lat="63.79986954" lon="-19.32920456"><ele>540.3</ele><time>2012-07-26T13:00:29.0000000+00:00</time></trkpt><trkpt lat="63.79981995" lon="-19.3295269"><ele>540.4</ele><time>2012-07-26T13:00:34.0000000+00:00</time></trkpt><trkpt lat="63.79977417" lon="-19.32988548"><ele>541.3</ele><time>2012-07-26T13:00:39.0000000+00:00</time></trkpt><trkpt lat="63.79973602" lon="-19.33029747"><ele>540.0</ele><time>2012-07-26T13:00:44.0000000+00:00</time></trkpt><trkpt lat="63.79969788" lon="-19.33070946"><ele>539.6</ele><time>2012-07-26T13:00:49.0000000+00:00</time></trkpt><trkpt lat="63.7996521" lon="-19.33106613"><ele>539.1</ele><time>2012-07-26T13:00:54.0000000+00:00</time></trkpt><trkpt lat="63.79962158" lon="-19.33129883"><ele>539.3</ele><time>2012-07-26T13:00:59.0000000+00:00</time></trkpt><trkpt lat="63.79958725" lon="-19.33154869"><ele>539.7</ele><time>2012-07-26T13:01:04.0000000+00:00</time></trkpt><trkpt lat="63.79954147" lon="-19.33185005"><ele>540.0</ele><time>2012-07-26T13:01:09.0000000+00:00</time></trkpt><trkpt lat="63.79949951" lon="-19.33219147"><ele>539.7</ele><time>2012-07-26T13:01:14.0000000+00:00</time></trkpt><trkpt lat="63.79945374" lon="-19.33254242"><ele>538.9</ele><time>2012-07-26T13:01:19.0000000+00:00</time></trkpt><trkpt lat="63.79940796" lon="-19.33283234"><ele>538.3</ele><time>2012-07-26T13:01:24.0000000+00:00</time></trkpt><trkpt lat="63.79937363" lon="-19.33301735"><ele>538.3</ele><time>2012-07-26T13:01:29.0000000+00:00</time></trkpt><trkpt lat="63.79934311" lon="-19.33325577"><ele>540.0</ele><time>2012-07-26T13:01:34.0000000+00:00</time></trkpt><trkpt lat="63.79932022" lon="-19.33346176"><ele>539.6</ele><time>2012-07-26T13:01:39.0000000+00:00</time></trkpt><trkpt lat="63.79929352" lon="-19.33364487"><ele>539.0</ele><time>2012-07-26T13:01:44.0000000+00:00</time></trkpt><trkpt lat="63.79928207" lon="-19.333704"><ele>539.3</ele><time>2012-07-26T13:01:49.0000000+00:00</time></trkpt><trkpt lat="63.79928589" lon="-19.33369255"><ele>539.2</ele><time>2012-07-26T13:01:54.0000000+00:00</time></trkpt><trkpt lat="63.79929352" lon="-19.33368492"><ele>539.1</ele><time>2012-07-26T13:01:59.0000000+00:00</time></trkpt><trkpt lat="63.79929352" lon="-19.3336792"><ele>539.0</ele><time>2012-07-26T13:02:04.0000000+00:00</time></trkpt><trkpt lat="63.7992897" lon="-19.33366776"><ele>539.0</ele><time>2012-07-26T13:02:09.0000000+00:00</time></trkpt><trkpt lat="63.79929352" lon="-19.33366013"><ele>539.0</ele><time>2012-07-26T13:02:14.0000000+00:00</time></trkpt><trkpt lat="63.7992897" lon="-19.33366966"><ele>539.0</ele><time>2012-07-26T13:02:19.0000000+00:00</time></trkpt><trkpt lat="63.7992897" lon="-19.33367157"><ele>539.1</ele><time>2012-07-26T13:02:24.0000000+00:00</time></trkpt><trkpt lat="63.7992897" lon="-19.33367348"><ele>539.1</ele><time>2012-07-26T13:02:29.0000000+00:00</time></trkpt><trkpt lat="63.7992897" lon="-19.33367348"><ele>539.1</ele><time>2012-07-26T13:02:34.0000000+00:00</time></trkpt><trkpt lat="63.7992897" lon="-19.33367348"><ele>539.1</ele><time>2012-07-26T13:02:39.0000000+00:00</time></trkpt><trkpt lat="63.7992897" lon="-19.33367348"><ele>539.1</ele><time>2012-07-26T13:02:44.0000000+00:00</time></trkpt><trkpt lat="63.7992897" lon="-19.33367348"><ele>539.1</ele><time>2012-07-26T13:02:49.0000000+00:00</time></trkpt><trkpt lat="63.7992897" lon="-19.33367539"><ele>539.1</ele><time>2012-07-26T13:02:54.0000000+00:00</time></trkpt><trkpt lat="63.79929352" lon="-19.33370018"><ele>539.0</ele><time>2012-07-26T13:02:59.0000000+00:00</time></trkpt><trkpt lat="63.79928589" lon="-19.33377647"><ele>538.3</ele><time>2012-07-26T13:03:04.0000000+00:00</time></trkpt><trkpt lat="63.79923248" lon="-19.33408546"><ele>537.3</ele><time>2012-07-26T13:03:09.0000000+00:00</time></trkpt><trkpt lat="63.79918671" lon="-19.33438301"><ele>536.0</ele><time>2012-07-26T13:03:14.0000000+00:00</time></trkpt><trkpt lat="63.79914856" lon="-19.33468056"><ele>535.6</ele><time>2012-07-26T13:03:19.0000000+00:00</time></trkpt><trkpt lat="63.79909897" lon="-19.33501244"><ele>536.8</ele><time>2012-07-26T13:03:24.0000000+00:00</time></trkpt><trkpt lat="63.79905319" lon="-19.3353157"><ele>536.9</ele><time>2012-07-26T13:03:29.0000000+00:00</time></trkpt><trkpt lat="63.79901123" lon="-19.33564377"><ele>537.4</ele><time>2012-07-26T13:03:34.0000000+00:00</time></trkpt><trkpt lat="63.79896545" lon="-19.3360157"><ele>538.5</ele><time>2012-07-26T13:03:39.0000000+00:00</time></trkpt><trkpt lat="63.79891205" lon="-19.33639145"><ele>538.5</ele><time>2012-07-26T13:03:44.0000000+00:00</time></trkpt><trkpt lat="63.79885864" lon="-19.33674812"><ele>538.5</ele><time>2012-07-26T13:03:49.0000000+00:00</time></trkpt><trkpt lat="63.79880905" lon="-19.33710098"><ele>538.0</ele><time>2012-07-26T13:03:54.0000000+00:00</time></trkpt><trkpt lat="63.79875565" lon="-19.33746719"><ele>537.5</ele><time>2012-07-26T13:03:59.0000000+00:00</time></trkpt><trkpt lat="63.79871368" lon="-19.33781052"><ele>536.9</ele><time>2012-07-26T13:04:04.0000000+00:00</time></trkpt><trkpt lat="63.79867554" lon="-19.33811379"><ele>537.0</ele><time>2012-07-26T13:04:09.0000000+00:00</time></trkpt><trkpt lat="63.79862595" lon="-19.33833695"><ele>537.5</ele><time>2012-07-26T13:04:14.0000000+00:00</time></trkpt><trkpt lat="63.79855347" lon="-19.33849907"><ele>537.6</ele><time>2012-07-26T13:04:19.0000000+00:00</time></trkpt><trkpt lat="63.79856491" lon="-19.33851051"><ele>537.9</ele><time>2012-07-26T13:04:24.0000000+00:00</time></trkpt><trkpt lat="63.79856873" lon="-19.33856201"><ele>537.7</ele><time>2012-07-26T13:04:29.0000000+00:00</time></trkpt><trkpt lat="63.79857254" lon="-19.33862114"><ele>537.6</ele><time>2012-07-26T13:04:34.0000000+00:00</time></trkpt><trkpt lat="63.79856873" lon="-19.3387928"><ele>537.6</ele><time>2012-07-26T13:04:39.0000000+00:00</time></trkpt><trkpt lat="63.79858017" lon="-19.33908844"><ele>538.2</ele><time>2012-07-26T13:04:44.0000000+00:00</time></trkpt><trkpt lat="63.79854965" lon="-19.33938408"><ele>538.5</ele><time>2012-07-26T13:04:49.0000000+00:00</time></trkpt><trkpt lat="63.79851914" lon="-19.3396225"><ele>539.5</ele><time>2012-07-26T13:04:54.0000000+00:00</time></trkpt><trkpt lat="63.79848099" lon="-19.33988571"><ele>540.1</ele><time>2012-07-26T13:04:59.0000000+00:00</time></trkpt><trkpt lat="63.79843903" lon="-19.34020042"><ele>538.5</ele><time>2012-07-26T13:05:04.0000000+00:00</time></trkpt><trkpt lat="63.79840088" lon="-19.34055138"><ele>538.1</ele><time>2012-07-26T13:05:09.0000000+00:00</time></trkpt><trkpt lat="63.79837418" lon="-19.34090424"><ele>541.9</ele><time>2012-07-26T13:05:14.0000000+00:00</time></trkpt><trkpt lat="63.79833221" lon="-19.34119988"><ele>538.3</ele><time>2012-07-26T13:05:19.0000000+00:00</time></trkpt><trkpt lat="63.79829407" lon="-19.34147263"><ele>536.2</ele><time>2012-07-26T13:05:24.0000000+00:00</time></trkpt><trkpt lat="63.79825592" lon="-19.3417244"><ele>533.3</ele><time>2012-07-26T13:05:29.0000000+00:00</time></trkpt><trkpt lat="63.79824066" lon="-19.34201622"><ele>533.0</ele><time>2012-07-26T13:05:34.0000000+00:00</time></trkpt><trkpt lat="63.79823303" lon="-19.3423214"><ele>536.2</ele><time>2012-07-26T13:05:39.0000000+00:00</time></trkpt><trkpt lat="63.79821014" lon="-19.34254265"><ele>537.2</ele><time>2012-07-26T13:05:44.0000000+00:00</time></trkpt><trkpt lat="63.79825211" lon="-19.34273529"><ele>537.9</ele><time>2012-07-26T13:05:49.0000000+00:00</time></trkpt><trkpt lat="63.7983017" lon="-19.34299851"><ele>539.1</ele><time>2012-07-26T13:05:54.0000000+00:00</time></trkpt><trkpt lat="63.79835129" lon="-19.3432827"><ele>541.2</ele><time>2012-07-26T13:05:59.0000000+00:00</time></trkpt><trkpt lat="63.79841614" lon="-19.34359551"><ele>541.2</ele><time>2012-07-26T13:06:04.0000000+00:00</time></trkpt><trkpt lat="63.79848862" lon="-19.34386444"><ele>534.5</ele><time>2012-07-26T13:06:09.0000000+00:00</time></trkpt><trkpt lat="63.79856873" lon="-19.34415436"><ele>533.9</ele><time>2012-07-26T13:06:14.0000000+00:00</time></trkpt><trkpt lat="63.79864502" lon="-19.3444519"><ele>534.0</ele><time>2012-07-26T13:06:19.0000000+00:00</time></trkpt><trkpt lat="63.79871368" lon="-19.34475136"><ele>532.7</ele><time>2012-07-26T13:06:24.0000000+00:00</time></trkpt><trkpt lat="63.79876709" lon="-19.3450222"><ele>533.5</ele><time>2012-07-26T13:06:29.0000000+00:00</time></trkpt><trkpt lat="63.79883957" lon="-19.34535408"><ele>533.3</ele><time>2012-07-26T13:06:34.0000000+00:00</time></trkpt><trkpt lat="63.79891205" lon="-19.34568214"><ele>534.1</ele><time>2012-07-26T13:06:39.0000000+00:00</time></trkpt><trkpt lat="63.79897308" lon="-19.34598732"><ele>533.8</ele><time>2012-07-26T13:06:44.0000000+00:00</time></trkpt><trkpt lat="63.79902268" lon="-19.34627533"><ele>533.3</ele><time>2012-07-26T13:06:49.0000000+00:00</time></trkpt><trkpt lat="63.79908752" lon="-19.34657288"><ele>533.4</ele><time>2012-07-26T13:06:54.0000000+00:00</time></trkpt><trkpt lat="63.79915237" lon="-19.34688187"><ele>534.2</ele><time>2012-07-26T13:06:59.0000000+00:00</time></trkpt><trkpt lat="63.7992096" lon="-19.34718514"><ele>534.4</ele><time>2012-07-26T13:07:04.0000000+00:00</time></trkpt><trkpt lat="63.79927826" lon="-19.34755898"><ele>533.5</ele><time>2012-07-26T13:07:09.0000000+00:00</time></trkpt><trkpt lat="63.79934311" lon="-19.34802818"><ele>531.7</ele><time>2012-07-26T13:07:14.0000000+00:00</time></trkpt><trkpt lat="63.79944229" lon="-19.34851265"><ele>528.7</ele><time>2012-07-26T13:07:19.0000000+00:00</time></trkpt><trkpt lat="63.79961777" lon="-19.34904099"><ele>530.0</ele><time>2012-07-26T13:07:24.0000000+00:00</time></trkpt><trkpt lat="63.79974747" lon="-19.34968567"><ele>528.2</ele><time>2012-07-26T13:07:29.0000000+00:00</time></trkpt><trkpt lat="63.79980469" lon="-19.35033989"><ele>527.6</ele><time>2012-07-26T13:07:34.0000000+00:00</time></trkpt><trkpt lat="63.79975128" lon="-19.35086823"><ele>526.2</ele><time>2012-07-26T13:07:39.0000000+00:00</time></trkpt><trkpt lat="63.79969025" lon="-19.3513546"><ele>528.0</ele><time>2012-07-26T13:07:44.0000000+00:00</time></trkpt><trkpt lat="63.79961777" lon="-19.35175896"><ele>529.9</ele><time>2012-07-26T13:07:49.0000000+00:00</time></trkpt><trkpt lat="63.79956818" lon="-19.35212898"><ele>532.2</ele><time>2012-07-26T13:07:54.0000000+00:00</time></trkpt><trkpt lat="63.79955673" lon="-19.35247612"><ele>532.9</ele><time>2012-07-26T13:07:59.0000000+00:00</time></trkpt><trkpt lat="63.79959488" lon="-19.35279656"><ele>533.5</ele><time>2012-07-26T13:08:04.0000000+00:00</time></trkpt><trkpt lat="63.79968262" lon="-19.35314751"><ele>532.4</ele><time>2012-07-26T13:08:09.0000000+00:00</time></trkpt><trkpt lat="63.79979706" lon="-19.35347176"><ele>536.9</ele><time>2012-07-26T13:08:14.0000000+00:00</time></trkpt><trkpt lat="63.79988861" lon="-19.35367012"><ele>537.7</ele><time>2012-07-26T13:08:19.0000000+00:00</time></trkpt><trkpt lat="63.79995728" lon="-19.3538723"><ele>538.5</ele><time>2012-07-26T13:08:24.0000000+00:00</time></trkpt><trkpt lat="63.8000145" lon="-19.35409546"><ele>537.6</ele><time>2012-07-26T13:08:29.0000000+00:00</time></trkpt><trkpt lat="63.8000679" lon="-19.35430527"><ele>530.5</ele><time>2012-07-26T13:08:34.0000000+00:00</time></trkpt><trkpt lat="63.80012894" lon="-19.35447884"><ele>530.2</ele><time>2012-07-26T13:08:39.0000000+00:00</time></trkpt><trkpt lat="63.80018997" lon="-19.35469246"><ele>530.5</ele><time>2012-07-26T13:08:44.0000000+00:00</time></trkpt><trkpt lat="63.80023575" lon="-19.35494423"><ele>531.2</ele><time>2012-07-26T13:08:49.0000000+00:00</time></trkpt><trkpt lat="63.80028153" lon="-19.35527039"><ele>531.6</ele><time>2012-07-26T13:08:54.0000000+00:00</time></trkpt><trkpt lat="63.80028153" lon="-19.35549736"><ele>531.3</ele><time>2012-07-26T13:08:59.0000000+00:00</time></trkpt><trkpt lat="63.80027771" lon="-19.35577202"><ele>530.0</ele><time>2012-07-26T13:09:04.0000000+00:00</time></trkpt><trkpt lat="63.80028153" lon="-19.35610962"><ele>531.6</ele><time>2012-07-26T13:09:09.0000000+00:00</time></trkpt><trkpt lat="63.80027008" lon="-19.3563633"><ele>529.2</ele><time>2012-07-26T13:09:14.0000000+00:00</time></trkpt><trkpt lat="63.80020523" lon="-19.35661697"><ele>527.6</ele><time>2012-07-26T13:09:19.0000000+00:00</time></trkpt><trkpt lat="63.80013275" lon="-19.35694313"><ele>526.1</ele><time>2012-07-26T13:09:24.0000000+00:00</time></trkpt><trkpt lat="63.80007172" lon="-19.35725212"><ele>524.4</ele><time>2012-07-26T13:09:29.0000000+00:00</time></trkpt><trkpt lat="63.80002594" lon="-19.35749245"><ele>523.2</ele><time>2012-07-26T13:09:34.0000000+00:00</time></trkpt><trkpt lat="63.80005264" lon="-19.35771942"><ele>522.0</ele><time>2012-07-26T13:09:39.0000000+00:00</time></trkpt><trkpt lat="63.80008316" lon="-19.35794449"><ele>521.2</ele><time>2012-07-26T13:09:44.0000000+00:00</time></trkpt><trkpt lat="63.80015183" lon="-19.35807419"><ele>521.2</ele><time>2012-07-26T13:09:49.0000000+00:00</time></trkpt><trkpt lat="63.80023193" lon="-19.35823822"><ele>520.1</ele><time>2012-07-26T13:09:54.0000000+00:00</time></trkpt><trkpt lat="63.80027008" lon="-19.35842514"><ele>520.8</ele><time>2012-07-26T13:09:59.0000000+00:00</time></trkpt><trkpt lat="63.80031586" lon="-19.35866356"><ele>518.9</ele><time>2012-07-26T13:10:04.0000000+00:00</time></trkpt><trkpt lat="63.80033112" lon="-19.35885429"><ele>513.8</ele><time>2012-07-26T13:10:09.0000000+00:00</time></trkpt><trkpt lat="63.8003273" lon="-19.35904694"><ele>513.8</ele><time>2012-07-26T13:10:14.0000000+00:00</time></trkpt><trkpt lat="63.8003273" lon="-19.35930634"><ele>517.8</ele><time>2012-07-26T13:10:19.0000000+00:00</time></trkpt><trkpt lat="63.80029297" lon="-19.35962296"><ele>520.0</ele><time>2012-07-26T13:10:24.0000000+00:00</time></trkpt><trkpt lat="63.80023575" lon="-19.35998344"><ele>520.7</ele><time>2012-07-26T13:10:29.0000000+00:00</time></trkpt><trkpt lat="63.80018234" lon="-19.36032486"><ele>522.5</ele><time>2012-07-26T13:10:34.0000000+00:00</time></trkpt><trkpt lat="63.80012131" lon="-19.36062813"><ele>523.4</ele><time>2012-07-26T13:10:39.0000000+00:00</time></trkpt><trkpt lat="63.80006409" lon="-19.36096764"><ele>519.3</ele><time>2012-07-26T13:10:44.0000000+00:00</time></trkpt><trkpt lat="63.80002594" lon="-19.36125183"><ele>516.8</ele><time>2012-07-26T13:10:49.0000000+00:00</time></trkpt><trkpt lat="63.79999924" lon="-19.36159897"><ele>517.4</ele><time>2012-07-26T13:10:54.0000000+00:00</time></trkpt><trkpt lat="63.80000687" lon="-19.36194038"><ele>522.6</ele><time>2012-07-26T13:10:59.0000000+00:00</time></trkpt><trkpt lat="63.79998398" lon="-19.36226463"><ele>523.3</ele><time>2012-07-26T13:11:04.0000000+00:00</time></trkpt><trkpt lat="63.79996872" lon="-19.36251068"><ele>522.8</ele><time>2012-07-26T13:11:09.0000000+00:00</time></trkpt><trkpt lat="63.79997635" lon="-19.36257744"><ele>523.9</ele><time>2012-07-26T13:11:14.0000000+00:00</time></trkpt><trkpt lat="63.79997253" lon="-19.36258698"><ele>524.0</ele><time>2012-07-26T13:11:19.0000000+00:00</time></trkpt><trkpt lat="63.79997253" lon="-19.36258507"><ele>523.9</ele><time>2012-07-26T13:11:24.0000000+00:00</time></trkpt><trkpt lat="63.79997253" lon="-19.36258698"><ele>523.9</ele><time>2012-07-26T13:11:29.0000000+00:00</time></trkpt><trkpt lat="63.79997253" lon="-19.36258888"><ele>524.0</ele><time>2012-07-26T13:11:34.0000000+00:00</time></trkpt><trkpt lat="63.79996491" lon="-19.36262894"><ele>524.7</ele><time>2012-07-26T13:11:39.0000000+00:00</time></trkpt><trkpt lat="63.79994583" lon="-19.36289787"><ele>527.9</ele><time>2012-07-26T13:11:44.0000000+00:00</time></trkpt><trkpt lat="63.79990387" lon="-19.3632431"><ele>527.9</ele><time>2012-07-26T13:11:49.0000000+00:00</time></trkpt><trkpt lat="63.79986572" lon="-19.36359596"><ele>527.8</ele><time>2012-07-26T13:11:54.0000000+00:00</time></trkpt><trkpt lat="63.79983139" lon="-19.36396408"><ele>527.2</ele><time>2012-07-26T13:11:59.0000000+00:00</time></trkpt><trkpt lat="63.79980087" lon="-19.36436272"><ele>527.1</ele><time>2012-07-26T13:12:04.0000000+00:00</time></trkpt><trkpt lat="63.79974747" lon="-19.36467743"><ele>526.7</ele><time>2012-07-26T13:12:09.0000000+00:00</time></trkpt><trkpt lat="63.79971695" lon="-19.36503029"><ele>525.9</ele><time>2012-07-26T13:12:14.0000000+00:00</time></trkpt><trkpt lat="63.7996788" lon="-19.36543274"><ele>525.0</ele><time>2012-07-26T13:12:19.0000000+00:00</time></trkpt><trkpt lat="63.7996521" lon="-19.36577797"><ele>524.0</ele><time>2012-07-26T13:12:24.0000000+00:00</time></trkpt><trkpt lat="63.79960251" lon="-19.36621475"><ele>523.3</ele><time>2012-07-26T13:12:29.0000000+00:00</time></trkpt><trkpt lat="63.79951859" lon="-19.36666679"><ele>521.8</ele><time>2012-07-26T13:12:34.0000000+00:00</time></trkpt><trkpt lat="63.79942703" lon="-19.36704636"><ele>520.1</ele><time>2012-07-26T13:12:39.0000000+00:00</time></trkpt><trkpt lat="63.79932022" lon="-19.36740112"><ele>524.0</ele><time>2012-07-26T13:12:44.0000000+00:00</time></trkpt><trkpt lat="63.7992363" lon="-19.36771393"><ele>523.5</ele><time>2012-07-26T13:12:49.0000000+00:00</time></trkpt><trkpt lat="63.79914093" lon="-19.36802483"><ele>524.9</ele><time>2012-07-26T13:12:54.0000000+00:00</time></trkpt><trkpt lat="63.79903793" lon="-19.36836052"><ele>524.2</ele><time>2012-07-26T13:12:59.0000000+00:00</time></trkpt><trkpt lat="63.79894257" lon="-19.36864662"><ele>523.3</ele><time>2012-07-26T13:13:04.0000000+00:00</time></trkpt><trkpt lat="63.79885864" lon="-19.368927"><ele>523.6</ele><time>2012-07-26T13:13:09.0000000+00:00</time></trkpt><trkpt lat="63.79876709" lon="-19.36919403"><ele>521.7</ele><time>2012-07-26T13:13:14.0000000+00:00</time></trkpt><trkpt lat="63.79866409" lon="-19.3694706"><ele>519.5</ele><time>2012-07-26T13:13:19.0000000+00:00</time></trkpt><trkpt lat="63.79855728" lon="-19.36976814"><ele>523.5</ele><time>2012-07-26T13:13:24.0000000+00:00</time></trkpt><trkpt lat="63.79841995" lon="-19.37006378"><ele>522.1</ele><time>2012-07-26T13:13:29.0000000+00:00</time></trkpt><trkpt lat="63.79825211" lon="-19.37038231"><ele>520.4</ele><time>2012-07-26T13:13:34.0000000+00:00</time></trkpt><trkpt lat="63.79808807" lon="-19.37071228"><ele>519.2</ele><time>2012-07-26T13:13:39.0000000+00:00</time></trkpt><trkpt lat="63.79794693" lon="-19.37103081"><ele>517.3</ele><time>2012-07-26T13:13:44.0000000+00:00</time></trkpt><trkpt lat="63.7978096" lon="-19.37138367"><ele>515.1</ele><time>2012-07-26T13:13:49.0000000+00:00</time></trkpt><trkpt lat="63.79768372" lon="-19.37174034"><ele>514.4</ele><time>2012-07-26T13:13:54.0000000+00:00</time></trkpt><trkpt lat="63.79756165" lon="-19.37208557"><ele>511.1</ele><time>2012-07-26T13:13:59.0000000+00:00</time></trkpt><trkpt lat="63.79742432" lon="-19.37239647"><ele>508.8</ele><time>2012-07-26T13:14:04.0000000+00:00</time></trkpt><trkpt lat="63.79728699" lon="-19.37269402"><ele>508.1</ele><time>2012-07-26T13:14:09.0000000+00:00</time></trkpt><trkpt lat="63.79715347" lon="-19.3730011"><ele>508.4</ele><time>2012-07-26T13:14:14.0000000+00:00</time></trkpt><trkpt lat="63.79701614" lon="-19.37333298"><ele>508.3</ele><time>2012-07-26T13:14:19.0000000+00:00</time></trkpt><trkpt lat="63.79689407" lon="-19.3736763"><ele>509.1</ele><time>2012-07-26T13:14:24.0000000+00:00</time></trkpt><trkpt lat="63.796772" lon="-19.37402153"><ele>510.1</ele><time>2012-07-26T13:14:29.0000000+00:00</time></trkpt><trkpt lat="63.79666519" lon="-19.37433624"><ele>511.8</ele><time>2012-07-26T13:14:34.0000000+00:00</time></trkpt><trkpt lat="63.79657364" lon="-19.37462235"><ele>513.1</ele><time>2012-07-26T13:14:39.0000000+00:00</time></trkpt><trkpt lat="63.79646301" lon="-19.37489891"><ele>513.8</ele><time>2012-07-26T13:14:44.0000000+00:00</time></trkpt><trkpt lat="63.79636383" lon="-19.37524605"><ele>515.8</ele><time>2012-07-26T13:14:49.0000000+00:00</time></trkpt><trkpt lat="63.79632187" lon="-19.37553406"><ele>516.3</ele><time>2012-07-26T13:14:54.0000000+00:00</time></trkpt><trkpt lat="63.79630661" lon="-19.37573624"><ele>517.6</ele><time>2012-07-26T13:14:59.0000000+00:00</time></trkpt><trkpt lat="63.79632187" lon="-19.37594605"><ele>520.0</ele><time>2012-07-26T13:15:04.0000000+00:00</time></trkpt><trkpt lat="63.79635239" lon="-19.37617111"><ele>520.1</ele><time>2012-07-26T13:15:09.0000000+00:00</time></trkpt><trkpt lat="63.79636383" lon="-19.37644005"><ele>520.9</ele><time>2012-07-26T13:15:14.0000000+00:00</time></trkpt><trkpt lat="63.79634857" lon="-19.37670898"><ele>522.4</ele><time>2012-07-26T13:15:19.0000000+00:00</time></trkpt><trkpt lat="63.79629517" lon="-19.37695885"><ele>522.6</ele><time>2012-07-26T13:15:24.0000000+00:00</time></trkpt><trkpt lat="63.79619598" lon="-19.37717629"><ele>521.7</ele><time>2012-07-26T13:15:29.0000000+00:00</time></trkpt><trkpt lat="63.79610062" lon="-19.37744331"><ele>519.4</ele><time>2012-07-26T13:15:34.0000000+00:00</time></trkpt><trkpt lat="63.79601669" lon="-19.37769318"><ele>517.8</ele><time>2012-07-26T13:15:39.0000000+00:00</time></trkpt><trkpt lat="63.79597855" lon="-19.37798691"><ele>518.7</ele><time>2012-07-26T13:15:44.0000000+00:00</time></trkpt><trkpt lat="63.79600906" lon="-19.37826729"><ele>519.3</ele><time>2012-07-26T13:15:49.0000000+00:00</time></trkpt><trkpt lat="63.79606247" lon="-19.37845612"><ele>520.5</ele><time>2012-07-26T13:15:54.0000000+00:00</time></trkpt><trkpt lat="63.79611588" lon="-19.37862015"><ele>522.1</ele><time>2012-07-26T13:15:59.0000000+00:00</time></trkpt><trkpt lat="63.79615021" lon="-19.37881088"><ele>521.8</ele><time>2012-07-26T13:16:04.0000000+00:00</time></trkpt><trkpt lat="63.79616165" lon="-19.37905502"><ele>522.6</ele><time>2012-07-26T13:16:09.0000000+00:00</time></trkpt><trkpt lat="63.79613495" lon="-19.37926483"><ele>522.5</ele><time>2012-07-26T13:16:14.0000000+00:00</time></trkpt><trkpt lat="63.79607773" lon="-19.37950707"><ele>521.9</ele><time>2012-07-26T13:16:19.0000000+00:00</time></trkpt><trkpt lat="63.79601288" lon="-19.37970734"><ele>520.4</ele><time>2012-07-26T13:16:24.0000000+00:00</time></trkpt><trkpt lat="63.7959404" lon="-19.37988091"><ele>520.0</ele><time>2012-07-26T13:16:29.0000000+00:00</time></trkpt><trkpt lat="63.79585648" lon="-19.3800621"><ele>518.8</ele><time>2012-07-26T13:16:34.0000000+00:00</time></trkpt><trkpt lat="63.79576492" lon="-19.38023377"><ele>517.7</ele><time>2012-07-26T13:16:39.0000000+00:00</time></trkpt><trkpt lat="63.79568481" lon="-19.38040352"><ele>518.2</ele><time>2012-07-26T13:16:44.0000000+00:00</time></trkpt><trkpt lat="63.79560852" lon="-19.38056564"><ele>518.7</ele><time>2012-07-26T13:16:49.0000000+00:00</time></trkpt><trkpt lat="63.79552841" lon="-19.38073158"><ele>519.8</ele><time>2012-07-26T13:16:54.0000000+00:00</time></trkpt><trkpt lat="63.79544067" lon="-19.38091278"><ele>518.4</ele><time>2012-07-26T13:16:59.0000000+00:00</time></trkpt><trkpt lat="63.79536438" lon="-19.38111687"><ele>518.5</ele><time>2012-07-26T13:17:04.0000000+00:00</time></trkpt><trkpt lat="63.79529572" lon="-19.38128662"><ele>518.0</ele><time>2012-07-26T13:17:09.0000000+00:00</time></trkpt><trkpt lat="63.79524612" lon="-19.38154602"><ele>519.0</ele><time>2012-07-26T13:17:14.0000000+00:00</time></trkpt><trkpt lat="63.79519272" lon="-19.38177109"><ele>518.2</ele><time>2012-07-26T13:17:19.0000000+00:00</time></trkpt><trkpt lat="63.79514694" lon="-19.38202477"><ele>517.8</ele><time>2012-07-26T13:17:24.0000000+00:00</time></trkpt><trkpt lat="63.79508591" lon="-19.38221932"><ele>516.7</ele><time>2012-07-26T13:17:29.0000000+00:00</time></trkpt><trkpt lat="63.79500961" lon="-19.38244438"><ele>517.3</ele><time>2012-07-26T13:17:34.0000000+00:00</time></trkpt><trkpt lat="63.7949295" lon="-19.38267326"><ele>518.0</ele><time>2012-07-26T13:17:39.0000000+00:00</time></trkpt><trkpt lat="63.79484558" lon="-19.38288498"><ele>519.5</ele><time>2012-07-26T13:17:44.0000000+00:00</time></trkpt><trkpt lat="63.79475784" lon="-19.38309097"><ele>518.8</ele><time>2012-07-26T13:17:49.0000000+00:00</time></trkpt><trkpt lat="63.79470825" lon="-19.38330078"><ele>518.4</ele><time>2012-07-26T13:17:54.0000000+00:00</time></trkpt><trkpt lat="63.79466629" lon="-19.38352013"><ele>517.1</ele><time>2012-07-26T13:17:59.0000000+00:00</time></trkpt><trkpt lat="63.79462433" lon="-19.38380051"><ele>517.5</ele><time>2012-07-26T13:18:04.0000000+00:00</time></trkpt><trkpt lat="63.79459381" lon="-19.38402557"><ele>518.3</ele><time>2012-07-26T13:18:09.0000000+00:00</time></trkpt><trkpt lat="63.79455185" lon="-19.3842907"><ele>518.5</ele><time>2012-07-26T13:18:14.0000000+00:00</time></trkpt><trkpt lat="63.79450226" lon="-19.38461113"><ele>517.0</ele><time>2012-07-26T13:18:19.0000000+00:00</time></trkpt><trkpt lat="63.7944603" lon="-19.38488197"><ele>517.1</ele><time>2012-07-26T13:18:24.0000000+00:00</time></trkpt><trkpt lat="63.79441452" lon="-19.38510704"><ele>517.2</ele><time>2012-07-26T13:18:29.0000000+00:00</time></trkpt><trkpt lat="63.79438782" lon="-19.38532639"><ele>516.9</ele><time>2012-07-26T13:18:34.0000000+00:00</time></trkpt><trkpt lat="63.79434967" lon="-19.38555908"><ele>517.4</ele><time>2012-07-26T13:18:39.0000000+00:00</time></trkpt><trkpt lat="63.79430008" lon="-19.38580704"><ele>519.9</ele><time>2012-07-26T13:18:44.0000000+00:00</time></trkpt><trkpt lat="63.79426575" lon="-19.38599777"><ele>520.4</ele><time>2012-07-26T13:18:49.0000000+00:00</time></trkpt><trkpt lat="63.79422379" lon="-19.38624001"><ele>520.9</ele><time>2012-07-26T13:18:54.0000000+00:00</time></trkpt><trkpt lat="63.79414749" lon="-19.38643646"><ele>522.7</ele><time>2012-07-26T13:18:59.0000000+00:00</time></trkpt><trkpt lat="63.79407501" lon="-19.38660049"><ele>521.8</ele><time>2012-07-26T13:19:04.0000000+00:00</time></trkpt><trkpt lat="63.79401779" lon="-19.3868351"><ele>520.5</ele><time>2012-07-26T13:19:09.0000000+00:00</time></trkpt><trkpt lat="63.79397965" lon="-19.38704681"><ele>519.6</ele><time>2012-07-26T13:19:14.0000000+00:00</time></trkpt><trkpt lat="63.79395676" lon="-19.38727951"><ele>520.2</ele><time>2012-07-26T13:19:19.0000000+00:00</time></trkpt><trkpt lat="63.79391098" lon="-19.3874836"><ele>518.9</ele><time>2012-07-26T13:19:24.0000000+00:00</time></trkpt><trkpt lat="63.79388428" lon="-19.38771057"><ele>518.9</ele><time>2012-07-26T13:19:29.0000000+00:00</time></trkpt><trkpt lat="63.7938652" lon="-19.38793945"><ele>518.3</ele><time>2012-07-26T13:19:34.0000000+00:00</time></trkpt><trkpt lat="63.79382324" lon="-19.38817215"><ele>518.4</ele><time>2012-07-26T13:19:39.0000000+00:00</time></trkpt><trkpt lat="63.79379654" lon="-19.38840294"><ele>517.6</ele><time>2012-07-26T13:19:44.0000000+00:00</time></trkpt><trkpt lat="63.79379273" lon="-19.38862228"><ele>517.0</ele><time>2012-07-26T13:19:49.0000000+00:00</time></trkpt><trkpt lat="63.79378128" lon="-19.38880539"><ele>517.0</ele><time>2012-07-26T13:19:54.0000000+00:00</time></trkpt><trkpt lat="63.79373932" lon="-19.38897324"><ele>516.6</ele><time>2012-07-26T13:19:59.0000000+00:00</time></trkpt><trkpt lat="63.79367828" lon="-19.38915825"><ele>515.0</ele><time>2012-07-26T13:20:04.0000000+00:00</time></trkpt><trkpt lat="63.79360962" lon="-19.38935471"><ele>514.5</ele><time>2012-07-26T13:20:09.0000000+00:00</time></trkpt><trkpt lat="63.79355621" lon="-19.38953209"><ele>514.6</ele><time>2012-07-26T13:20:14.0000000+00:00</time></trkpt><trkpt lat="63.79347992" lon="-19.38970757"><ele>515.0</ele><time>2012-07-26T13:20:19.0000000+00:00</time></trkpt><trkpt lat="63.79343414" lon="-19.38993645"><ele>519.4</ele><time>2012-07-26T13:20:24.0000000+00:00</time></trkpt><trkpt lat="63.79337692" lon="-19.39014816"><ele>520.4</ele><time>2012-07-26T13:20:29.0000000+00:00</time></trkpt><trkpt lat="63.79328156" lon="-19.3903389"><ele>518.6</ele><time>2012-07-26T13:20:34.0000000+00:00</time></trkpt><trkpt lat="63.79319763" lon="-19.39061546"><ele>517.3</ele><time>2012-07-26T13:20:39.0000000+00:00</time></trkpt><trkpt lat="63.79316711" lon="-19.39093781"><ele>515.7</ele><time>2012-07-26T13:20:44.0000000+00:00</time></trkpt><trkpt lat="63.79316711" lon="-19.39128494"><ele>514.0</ele><time>2012-07-26T13:20:49.0000000+00:00</time></trkpt><trkpt lat="63.79317856" lon="-19.3915596"><ele>514.2</ele><time>2012-07-26T13:20:54.0000000+00:00</time></trkpt><trkpt lat="63.79315567" lon="-19.39181137"><ele>512.7</ele><time>2012-07-26T13:20:59.0000000+00:00</time></trkpt><trkpt lat="63.79309845" lon="-19.39205933"><ele>512.5</ele><time>2012-07-26T13:21:04.0000000+00:00</time></trkpt><trkpt lat="63.79299927" lon="-19.39225578"><ele>512.5</ele><time>2012-07-26T13:21:09.0000000+00:00</time></trkpt><trkpt lat="63.79289627" lon="-19.39236069"><ele>513.7</ele><time>2012-07-26T13:21:14.0000000+00:00</time></trkpt><trkpt lat="63.79278946" lon="-19.39247513"><ele>515.5</ele><time>2012-07-26T13:21:19.0000000+00:00</time></trkpt><trkpt lat="63.79272842" lon="-19.39264107"><ele>516.1</ele><time>2012-07-26T13:21:24.0000000+00:00</time></trkpt><trkpt lat="63.79267502" lon="-19.3928833"><ele>516.8</ele><time>2012-07-26T13:21:29.0000000+00:00</time></trkpt><trkpt lat="63.79261398" lon="-19.39310074"><ele>516.5</ele><time>2012-07-26T13:21:34.0000000+00:00</time></trkpt><trkpt lat="63.79254532" lon="-19.39335251"><ele>515.9</ele><time>2012-07-26T13:21:39.0000000+00:00</time></trkpt><trkpt lat="63.79249573" lon="-19.39358521"><ele>516.1</ele><time>2012-07-26T13:21:44.0000000+00:00</time></trkpt><trkpt lat="63.79241562" lon="-19.39385223"><ele>516.7</ele><time>2012-07-26T13:21:49.0000000+00:00</time></trkpt><trkpt lat="63.79233551" lon="-19.39410782"><ele>516.6</ele><time>2012-07-26T13:21:54.0000000+00:00</time></trkpt><trkpt lat="63.7922554" lon="-19.39435577"><ele>516.0</ele><time>2012-07-26T13:21:59.0000000+00:00</time></trkpt><trkpt lat="63.79217529" lon="-19.39458847"><ele>517.2</ele><time>2012-07-26T13:22:04.0000000+00:00</time></trkpt><trkpt lat="63.792099" lon="-19.39472389"><ele>516.5</ele><time>2012-07-26T13:22:09.0000000+00:00</time></trkpt><trkpt lat="63.79200363" lon="-19.39478111"><ele>516.2</ele><time>2012-07-26T13:22:14.0000000+00:00</time></trkpt><trkpt lat="63.79188919" lon="-19.39476013"><ele>515.7</ele><time>2012-07-26T13:22:19.0000000+00:00</time></trkpt><trkpt lat="63.79175186" lon="-19.394701"><ele>515.5</ele><time>2012-07-26T13:22:24.0000000+00:00</time></trkpt><trkpt lat="63.79161835" lon="-19.39466095"><ele>515.1</ele><time>2012-07-26T13:22:29.0000000+00:00</time></trkpt><trkpt lat="63.79148102" lon="-19.39472008"><ele>512.8</ele><time>2012-07-26T13:22:34.0000000+00:00</time></trkpt><trkpt lat="63.79135895" lon="-19.39494705"><ele>510.9</ele><time>2012-07-26T13:22:39.0000000+00:00</time></trkpt><trkpt lat="63.79125214" lon="-19.39524651"><ele>507.1</ele><time>2012-07-26T13:22:44.0000000+00:00</time></trkpt><trkpt lat="63.7911377" lon="-19.39561081"><ele>506.1</ele><time>2012-07-26T13:22:49.0000000+00:00</time></trkpt><trkpt lat="63.7909317" lon="-19.39581871"><ele>504.5</ele><time>2012-07-26T13:22:54.0000000+00:00</time></trkpt><trkpt lat="63.79070282" lon="-19.39606667"><ele>503.8</ele><time>2012-07-26T13:22:59.0000000+00:00</time></trkpt><trkpt lat="63.79050064" lon="-19.39645195"><ele>501.4</ele><time>2012-07-26T13:23:04.0000000+00:00</time></trkpt><trkpt lat="63.79036331" lon="-19.39681435"><ele>500.9</ele><time>2012-07-26T13:23:09.0000000+00:00</time></trkpt><trkpt lat="63.79020309" lon="-19.39715576"><ele>499.1</ele><time>2012-07-26T13:23:14.0000000+00:00</time></trkpt><trkpt lat="63.79001617" lon="-19.39752388"><ele>498.9</ele><time>2012-07-26T13:23:19.0000000+00:00</time></trkpt><trkpt lat="63.78987885" lon="-19.39782333"><ele>500.3</ele><time>2012-07-26T13:23:24.0000000+00:00</time></trkpt><trkpt lat="63.78985596" lon="-19.39793015"><ele>503.2</ele><time>2012-07-26T13:23:29.0000000+00:00</time></trkpt><trkpt lat="63.78985596" lon="-19.39793015"><ele>503.8</ele><time>2012-07-26T13:23:34.0000000+00:00</time></trkpt><trkpt lat="63.78985596" lon="-19.39793205"><ele>503.7</ele><time>2012-07-26T13:23:39.0000000+00:00</time></trkpt><trkpt lat="63.78982925" lon="-19.39801788"><ele>503.9</ele><time>2012-07-26T13:23:44.0000000+00:00</time></trkpt><trkpt lat="63.78979874" lon="-19.39817429"><ele>503.4</ele><time>2012-07-26T13:23:49.0000000+00:00</time></trkpt><trkpt lat="63.78977203" lon="-19.39835167"><ele>502.7</ele><time>2012-07-26T13:23:54.0000000+00:00</time></trkpt><trkpt lat="63.78975678" lon="-19.39857674"><ele>502.6</ele><time>2012-07-26T13:23:59.0000000+00:00</time></trkpt><trkpt lat="63.78974533" lon="-19.3988533"><ele>502.9</ele><time>2012-07-26T13:24:04.0000000+00:00</time></trkpt><trkpt lat="63.78974915" lon="-19.39910507"><ele>502.1</ele><time>2012-07-26T13:24:09.0000000+00:00</time></trkpt><trkpt lat="63.78978348" lon="-19.39942169"><ele>502.2</ele><time>2012-07-26T13:24:14.0000000+00:00</time></trkpt><trkpt lat="63.78983688" lon="-19.39987755"><ele>501.1</ele><time>2012-07-26T13:24:19.0000000+00:00</time></trkpt><trkpt lat="63.78977585" lon="-19.40025902"><ele>500.8</ele><time>2012-07-26T13:24:24.0000000+00:00</time></trkpt><trkpt lat="63.78966904" lon="-19.40058518"><ele>499.4</ele><time>2012-07-26T13:24:29.0000000+00:00</time></trkpt><trkpt lat="63.78956986" lon="-19.40090942"><ele>498.3</ele><time>2012-07-26T13:24:34.0000000+00:00</time></trkpt><trkpt lat="63.78948212" lon="-19.40121269"><ele>498.7</ele><time>2012-07-26T13:24:39.0000000+00:00</time></trkpt><trkpt lat="63.78940582" lon="-19.40151024"><ele>497.2</ele><time>2012-07-26T13:24:44.0000000+00:00</time></trkpt><trkpt lat="63.78931427" lon="-19.40182114"><ele>496.3</ele><time>2012-07-26T13:24:49.0000000+00:00</time></trkpt><trkpt lat="63.78924179" lon="-19.40213776"><ele>496.0</ele><time>2012-07-26T13:24:54.0000000+00:00</time></trkpt><trkpt lat="63.78915787" lon="-19.40246391"><ele>496.6</ele><time>2012-07-26T13:24:59.0000000+00:00</time></trkpt><trkpt lat="63.78909683" lon="-19.40281487"><ele>497.5</ele><time>2012-07-26T13:25:04.0000000+00:00</time></trkpt><trkpt lat="63.78905869" lon="-19.40313339"><ele>498.5</ele><time>2012-07-26T13:25:09.0000000+00:00</time></trkpt><trkpt lat="63.78903198" lon="-19.40346336"><ele>499.0</ele><time>2012-07-26T13:25:14.0000000+00:00</time></trkpt><trkpt lat="63.78899765" lon="-19.40373802"><ele>498.1</ele><time>2012-07-26T13:25:19.0000000+00:00</time></trkpt><trkpt lat="63.78896713" lon="-19.40403175"><ele>498.4</ele><time>2012-07-26T13:25:24.0000000+00:00</time></trkpt><trkpt lat="63.78894043" lon="-19.4043026"><ele>501.0</ele><time>2012-07-26T13:25:29.0000000+00:00</time></trkpt><trkpt lat="63.78889465" lon="-19.40453339"><ele>501.9</ele><time>2012-07-26T13:25:34.0000000+00:00</time></trkpt><trkpt lat="63.78884506" lon="-19.40478516"><ele>502.0</ele><time>2012-07-26T13:25:39.0000000+00:00</time></trkpt><trkpt lat="63.78881073" lon="-19.40509033"><ele>502.4</ele><time>2012-07-26T13:25:44.0000000+00:00</time></trkpt><trkpt lat="63.78879166" lon="-19.40535545"><ele>503.2</ele><time>2012-07-26T13:25:49.0000000+00:00</time></trkpt><trkpt lat="63.78878021" lon="-19.4056263"><ele>503.0</ele><time>2012-07-26T13:25:54.0000000+00:00</time></trkpt><trkpt lat="63.78875732" lon="-19.40588951"><ele>503.4</ele><time>2012-07-26T13:25:59.0000000+00:00</time></trkpt><trkpt lat="63.78874207" lon="-19.40613937"><ele>503.6</ele><time>2012-07-26T13:26:04.0000000+00:00</time></trkpt><trkpt lat="63.78871155" lon="-19.40642166"><ele>502.9</ele><time>2012-07-26T13:26:09.0000000+00:00</time></trkpt><trkpt lat="63.78864288" lon="-19.40672112"><ele>501.7</ele><time>2012-07-26T13:26:14.0000000+00:00</time></trkpt><trkpt lat="63.78855896" lon="-19.40691376"><ele>500.2</ele><time>2012-07-26T13:26:19.0000000+00:00</time></trkpt><trkpt lat="63.78850555" lon="-19.40734291"><ele>498.2</ele><time>2012-07-26T13:26:24.0000000+00:00</time></trkpt><trkpt lat="63.78834152" lon="-19.40808296"><ele>498.4</ele><time>2012-07-26T13:26:29.0000000+00:00</time></trkpt><trkpt lat="63.78807831" lon="-19.4086113"><ele>496.6</ele><time>2012-07-26T13:26:34.0000000+00:00</time></trkpt><trkpt lat="63.78781509" lon="-19.40888596"><ele>497.4</ele><time>2012-07-26T13:26:39.0000000+00:00</time></trkpt><trkpt lat="63.78756332" lon="-19.40906143"><ele>498.7</ele><time>2012-07-26T13:26:44.0000000+00:00</time></trkpt><trkpt lat="63.7873497" lon="-19.40923119"><ele>500.5</ele><time>2012-07-26T13:26:49.0000000+00:00</time></trkpt><trkpt lat="63.78724289" lon="-19.4093132"><ele>500.6</ele><time>2012-07-26T13:26:54.0000000+00:00</time></trkpt><trkpt lat="63.78715897" lon="-19.40939331"><ele>501.5</ele><time>2012-07-26T13:26:59.0000000+00:00</time></trkpt><trkpt lat="63.78704453" lon="-19.40950775"><ele>501.8</ele><time>2012-07-26T13:27:04.0000000+00:00</time></trkpt><trkpt lat="63.78696823" lon="-19.40960121"><ele>500.8</ele><time>2012-07-26T13:27:09.0000000+00:00</time></trkpt><trkpt lat="63.78688431" lon="-19.409729"><ele>499.1</ele><time>2012-07-26T13:27:14.0000000+00:00</time></trkpt><trkpt lat="63.78678894" lon="-19.40995789"><ele>497.5</ele><time>2012-07-26T13:27:19.0000000+00:00</time></trkpt><trkpt lat="63.78670883" lon="-19.41040039"><ele>494.8</ele><time>2012-07-26T13:27:24.0000000+00:00</time></trkpt><trkpt lat="63.78677368" lon="-19.4111042"><ele>492.6</ele><time>2012-07-26T13:27:29.0000000+00:00</time></trkpt><trkpt lat="63.78688431" lon="-19.411829"><ele>490.9</ele><time>2012-07-26T13:27:34.0000000+00:00</time></trkpt><trkpt lat="63.78694534" lon="-19.41251373"><ele>489.8</ele><time>2012-07-26T13:27:39.0000000+00:00</time></trkpt><trkpt lat="63.78702545" lon="-19.41308022"><ele>489.5</ele><time>2012-07-26T13:27:44.0000000+00:00</time></trkpt><trkpt lat="63.78714752" lon="-19.41347313"><ele>488.5</ele><time>2012-07-26T13:27:49.0000000+00:00</time></trkpt><trkpt lat="63.7872467" lon="-19.41383171"><ele>491.0</ele><time>2012-07-26T13:27:54.0000000+00:00</time></trkpt><trkpt lat="63.78731918" lon="-19.41413498"><ele>489.4</ele><time>2012-07-26T13:27:59.0000000+00:00</time></trkpt><trkpt lat="63.78731918" lon="-19.4144516"><ele>488.7</ele><time>2012-07-26T13:28:04.0000000+00:00</time></trkpt><trkpt lat="63.78723908" lon="-19.41477585"><ele>489.4</ele><time>2012-07-26T13:28:09.0000000+00:00</time></trkpt><trkpt lat="63.78712845" lon="-19.4151268"><ele>489.7</ele><time>2012-07-26T13:28:14.0000000+00:00</time></trkpt><trkpt lat="63.78699875" lon="-19.41551971"><ele>491.5</ele><time>2012-07-26T13:28:19.0000000+00:00</time></trkpt><trkpt lat="63.78690338" lon="-19.41594315"><ele>493.6</ele><time>2012-07-26T13:28:24.0000000+00:00</time></trkpt><trkpt lat="63.78678513" lon="-19.41634369"><ele>493.0</ele><time>2012-07-26T13:28:29.0000000+00:00</time></trkpt><trkpt lat="63.78672791" lon="-19.41666794"><ele>493.5</ele><time>2012-07-26T13:28:34.0000000+00:00</time></trkpt><trkpt lat="63.78669357" lon="-19.41698647"><ele>495.1</ele><time>2012-07-26T13:28:39.0000000+00:00</time></trkpt><trkpt lat="63.7866478" lon="-19.41734695"><ele>497.3</ele><time>2012-07-26T13:28:44.0000000+00:00</time></trkpt><trkpt lat="63.78657913" lon="-19.41770744"><ele>497.7</ele><time>2012-07-26T13:28:49.0000000+00:00</time></trkpt><trkpt lat="63.78649521" lon="-19.41790199"><ele>495.9</ele><time>2012-07-26T13:28:54.0000000+00:00</time></trkpt><trkpt lat="63.78643799" lon="-19.41810799"><ele>494.0</ele><time>2012-07-26T13:28:59.0000000+00:00</time></trkpt><trkpt lat="63.78636551" lon="-19.41838455"><ele>494.9</ele><time>2012-07-26T13:29:04.0000000+00:00</time></trkpt><trkpt lat="63.78628159" lon="-19.41867256"><ele>496.5</ele><time>2012-07-26T13:29:09.0000000+00:00</time></trkpt><trkpt lat="63.78619385" lon="-19.41894913"><ele>498.3</ele><time>2012-07-26T13:29:14.0000000+00:00</time></trkpt><trkpt lat="63.78610611" lon="-19.41922569"><ele>499.5</ele><time>2012-07-26T13:29:19.0000000+00:00</time></trkpt><trkpt lat="63.78601837" lon="-19.41954804"><ele>498.2</ele><time>2012-07-26T13:29:24.0000000+00:00</time></trkpt><trkpt lat="63.78593445" lon="-19.41991043"><ele>495.9</ele><time>2012-07-26T13:29:29.0000000+00:00</time></trkpt><trkpt lat="63.78582382" lon="-19.42034721"><ele>495.7</ele><time>2012-07-26T13:29:34.0000000+00:00</time></trkpt><trkpt lat="63.78575897" lon="-19.42079544"><ele>497.6</ele><time>2012-07-26T13:29:39.0000000+00:00</time></trkpt><trkpt lat="63.78566361" lon="-19.42115784"><ele>495.7</ele><time>2012-07-26T13:29:44.0000000+00:00</time></trkpt><trkpt lat="63.78557205" lon="-19.42150879"><ele>494.2</ele><time>2012-07-26T13:29:49.0000000+00:00</time></trkpt><trkpt lat="63.78546906" lon="-19.42193222"><ele>493.3</ele><time>2012-07-26T13:29:54.0000000+00:00</time></trkpt><trkpt lat="63.78536987" lon="-19.42232132"><ele>492.9</ele><time>2012-07-26T13:29:59.0000000+00:00</time></trkpt><trkpt lat="63.78527832" lon="-19.42269898"><ele>491.9</ele><time>2012-07-26T13:30:04.0000000+00:00</time></trkpt><trkpt lat="63.7851944" lon="-19.42312622"><ele>490.4</ele><time>2012-07-26T13:30:09.0000000+00:00</time></trkpt><trkpt lat="63.78511047" lon="-19.42358971"><ele>491.1</ele><time>2012-07-26T13:30:14.0000000+00:00</time></trkpt><trkpt lat="63.78500748" lon="-19.42403412"><ele>489.7</ele><time>2012-07-26T13:30:19.0000000+00:00</time></trkpt><trkpt lat="63.78487396" lon="-19.42453575"><ele>486.6</ele><time>2012-07-26T13:30:24.0000000+00:00</time></trkpt><trkpt lat="63.7846489" lon="-19.42512322"><ele>485.0</ele><time>2012-07-26T13:30:29.0000000+00:00</time></trkpt><trkpt lat="63.78443146" lon="-19.42552757"><ele>484.1</ele><time>2012-07-26T13:30:34.0000000+00:00</time></trkpt><trkpt lat="63.7842598" lon="-19.42585754"><ele>482.9</ele><time>2012-07-26T13:30:39.0000000+00:00</time></trkpt><trkpt lat="63.78411865" lon="-19.42612457"><ele>480.1</ele><time>2012-07-26T13:30:44.0000000+00:00</time></trkpt><trkpt lat="63.78391647" lon="-19.42652512"><ele>475.7</ele><time>2012-07-26T13:30:49.0000000+00:00</time></trkpt><trkpt lat="63.78369522" lon="-19.42697716"><ele>473.5</ele><time>2012-07-26T13:30:54.0000000+00:00</time></trkpt><trkpt lat="63.7834816" lon="-19.42724419"><ele>472.5</ele><time>2012-07-26T13:30:59.0000000+00:00</time></trkpt><trkpt lat="63.78329849" lon="-19.42715263"><ele>471.9</ele><time>2012-07-26T13:31:04.0000000+00:00</time></trkpt><trkpt lat="63.78303909" lon="-19.42689323"><ele>469.3</ele><time>2012-07-26T13:31:09.0000000+00:00</time></trkpt><trkpt lat="63.78276062" lon="-19.42663193"><ele>465.8</ele><time>2012-07-26T13:31:14.0000000+00:00</time></trkpt><trkpt lat="63.78263092" lon="-19.42645073"><ele>462.7</ele><time>2012-07-26T13:31:19.0000000+00:00</time></trkpt><trkpt lat="63.78261185" lon="-19.42612267"><ele>455.1</ele><time>2012-07-26T13:31:24.0000000+00:00</time></trkpt><trkpt lat="63.78268814" lon="-19.42577934"><ele>451.8</ele><time>2012-07-26T13:31:29.0000000+00:00</time></trkpt><trkpt lat="63.78277969" lon="-19.42544937"><ele>449.8</ele><time>2012-07-26T13:31:34.0000000+00:00</time></trkpt><trkpt lat="63.78279114" lon="-19.42505264"><ele>448.0</ele><time>2012-07-26T13:31:39.0000000+00:00</time></trkpt><trkpt lat="63.78281784" lon="-19.42470169"><ele>446.6</ele><time>2012-07-26T13:31:44.0000000+00:00</time></trkpt><trkpt lat="63.78289414" lon="-19.42432976"><ele>444.2</ele><time>2012-07-26T13:31:49.0000000+00:00</time></trkpt><trkpt lat="63.78302002" lon="-19.42394829"><ele>442.5</ele><time>2012-07-26T13:31:54.0000000+00:00</time></trkpt><trkpt lat="63.78310776" lon="-19.4234581"><ele>440.6</ele><time>2012-07-26T13:31:59.0000000+00:00</time></trkpt><trkpt lat="63.78303528" lon="-19.42285347"><ele>438.8</ele><time>2012-07-26T13:32:04.0000000+00:00</time></trkpt><trkpt lat="63.78298569" lon="-19.42227936"><ele>436.7</ele><time>2012-07-26T13:32:09.0000000+00:00</time></trkpt><trkpt lat="63.78292084" lon="-19.42194176"><ele>435.6</ele><time>2012-07-26T13:32:14.0000000+00:00</time></trkpt><trkpt lat="63.78284073" lon="-19.4218502"><ele>435.4</ele><time>2012-07-26T13:32:19.0000000+00:00</time></trkpt><trkpt lat="63.78275299" lon="-19.4218235"><ele>435.8</ele><time>2012-07-26T13:32:24.0000000+00:00</time></trkpt><trkpt lat="63.78266144" lon="-19.42178154"><ele>435.7</ele><time>2012-07-26T13:32:29.0000000+00:00</time></trkpt><trkpt lat="63.782547" lon="-19.42174339"><ele>435.9</ele><time>2012-07-26T13:32:34.0000000+00:00</time></trkpt><trkpt lat="63.78243637" lon="-19.42167664"><ele>436.3</ele><time>2012-07-26T13:32:39.0000000+00:00</time></trkpt><trkpt lat="63.78235245" lon="-19.42164421"><ele>437.5</ele><time>2012-07-26T13:32:44.0000000+00:00</time></trkpt><trkpt lat="63.78223801" lon="-19.42157936"><ele>438.1</ele><time>2012-07-26T13:32:49.0000000+00:00</time></trkpt><trkpt lat="63.78211594" lon="-19.42154121"><ele>439.0</ele><time>2012-07-26T13:32:54.0000000+00:00</time></trkpt><trkpt lat="63.78195953" lon="-19.42146683"><ele>438.8</ele><time>2012-07-26T13:32:59.0000000+00:00</time></trkpt><trkpt lat="63.78182221" lon="-19.42137909"><ele>438.6</ele><time>2012-07-26T13:33:04.0000000+00:00</time></trkpt><trkpt lat="63.78171539" lon="-19.42127419"><ele>438.0</ele><time>2012-07-26T13:33:09.0000000+00:00</time></trkpt><trkpt lat="63.78163147" lon="-19.42113495"><ele>438.7</ele><time>2012-07-26T13:33:14.0000000+00:00</time></trkpt><trkpt lat="63.78154755" lon="-19.42099762"><ele>436.1</ele><time>2012-07-26T13:33:19.0000000+00:00</time></trkpt><trkpt lat="63.78147125" lon="-19.42082977"><ele>434.6</ele><time>2012-07-26T13:33:24.0000000+00:00</time></trkpt><trkpt lat="63.78136444" lon="-19.42057228"><ele>432.4</ele><time>2012-07-26T13:33:29.0000000+00:00</time></trkpt><trkpt lat="63.78119659" lon="-19.42016983"><ele>428.5</ele><time>2012-07-26T13:33:34.0000000+00:00</time></trkpt><trkpt lat="63.7810669" lon="-19.41965675"><ele>425.4</ele><time>2012-07-26T13:33:39.0000000+00:00</time></trkpt><trkpt lat="63.78095627" lon="-19.41916275"><ele>427.0</ele><time>2012-07-26T13:33:44.0000000+00:00</time></trkpt><trkpt lat="63.78099442" lon="-19.41868019"><ele>428.1</ele><time>2012-07-26T13:33:49.0000000+00:00</time></trkpt><trkpt lat="63.78098679" lon="-19.41838646"><ele>431.1</ele><time>2012-07-26T13:33:54.0000000+00:00</time></trkpt><trkpt lat="63.78090668" lon="-19.41819763"><ele>432.9</ele><time>2012-07-26T13:33:59.0000000+00:00</time></trkpt><trkpt lat="63.7808075" lon="-19.41804886"><ele>434.7</ele><time>2012-07-26T13:34:04.0000000+00:00</time></trkpt><trkpt lat="63.78071594" lon="-19.41791344"><ele>436.3</ele><time>2012-07-26T13:34:09.0000000+00:00</time></trkpt><trkpt lat="63.78058624" lon="-19.41783333"><ele>436.3</ele><time>2012-07-26T13:34:14.0000000+00:00</time></trkpt><trkpt lat="63.78051758" lon="-19.41784477"><ele>437.3</ele><time>2012-07-26T13:34:19.0000000+00:00</time></trkpt><trkpt lat="63.78046799" lon="-19.41794205"><ele>438.7</ele><time>2012-07-26T13:34:24.0000000+00:00</time></trkpt><trkpt lat="63.78042221" lon="-19.41804886"><ele>439.9</ele><time>2012-07-26T13:34:29.0000000+00:00</time></trkpt><trkpt lat="63.78038025" lon="-19.41818047"><ele>443.0</ele><time>2012-07-26T13:34:34.0000000+00:00</time></trkpt><trkpt lat="63.78033829" lon="-19.41830444"><ele>443.0</ele><time>2012-07-26T13:34:39.0000000+00:00</time></trkpt><trkpt lat="63.78027344" lon="-19.41841126"><ele>442.8</ele><time>2012-07-26T13:34:44.0000000+00:00</time></trkpt><trkpt lat="63.7802124" lon="-19.41854096"><ele>442.6</ele><time>2012-07-26T13:34:49.0000000+00:00</time></trkpt><trkpt lat="63.78017044" lon="-19.41856575"><ele>441.9</ele><time>2012-07-26T13:34:54.0000000+00:00</time></trkpt><trkpt lat="63.78017044" lon="-19.4185791"><ele>441.8</ele><time>2012-07-26T13:34:59.0000000+00:00</time></trkpt><trkpt lat="63.78017044" lon="-19.41858482"><ele>441.9</ele><time>2012-07-26T13:35:04.0000000+00:00</time></trkpt><trkpt lat="63.78014374" lon="-19.41862869"><ele>442.1</ele><time>2012-07-26T13:35:09.0000000+00:00</time></trkpt><trkpt lat="63.78010941" lon="-19.41867065"><ele>442.4</ele><time>2012-07-26T13:35:14.0000000+00:00</time></trkpt><trkpt lat="63.78007889" lon="-19.4187088"><ele>442.5</ele><time>2012-07-26T13:35:19.0000000+00:00</time></trkpt><trkpt lat="63.78004456" lon="-19.41874313"><ele>442.8</ele><time>2012-07-26T13:35:24.0000000+00:00</time></trkpt><trkpt lat="63.78001404" lon="-19.41877174"><ele>443.3</ele><time>2012-07-26T13:35:29.0000000+00:00</time></trkpt><trkpt lat="63.77997589" lon="-19.41880417"><ele>443.9</ele><time>2012-07-26T13:35:34.0000000+00:00</time></trkpt><trkpt lat="63.77994537" lon="-19.41882706"><ele>444.4</ele><time>2012-07-26T13:35:39.0000000+00:00</time></trkpt><trkpt lat="63.77992249" lon="-19.41883659"><ele>445.0</ele><time>2012-07-26T13:35:44.0000000+00:00</time></trkpt><trkpt lat="63.77989197" lon="-19.41883659"><ele>445.6</ele><time>2012-07-26T13:35:49.0000000+00:00</time></trkpt><trkpt lat="63.77986527" lon="-19.41884232"><ele>446.3</ele><time>2012-07-26T13:35:54.0000000+00:00</time></trkpt><trkpt lat="63.7798233" lon="-19.41884804"><ele>446.9</ele><time>2012-07-26T13:35:59.0000000+00:00</time></trkpt><trkpt lat="63.77976608" lon="-19.41884232"><ele>446.9</ele><time>2012-07-26T13:36:04.0000000+00:00</time></trkpt><trkpt lat="63.77972412" lon="-19.41884422"><ele>447.5</ele><time>2012-07-26T13:36:09.0000000+00:00</time></trkpt><trkpt lat="63.77967453" lon="-19.41885757"><ele>449.4</ele><time>2012-07-26T13:36:14.0000000+00:00</time></trkpt><trkpt lat="63.77963638" lon="-19.41888237"><ele>450.4</ele><time>2012-07-26T13:36:19.0000000+00:00</time></trkpt><trkpt lat="63.77959442" lon="-19.41892242"><ele>450.5</ele><time>2012-07-26T13:36:24.0000000+00:00</time></trkpt><trkpt lat="63.7795372" lon="-19.41895104"><ele>452.1</ele><time>2012-07-26T13:36:29.0000000+00:00</time></trkpt><trkpt lat="63.77947235" lon="-19.418993"><ele>450.9</ele><time>2012-07-26T13:36:34.0000000+00:00</time></trkpt><trkpt lat="63.7794342" lon="-19.41905022"><ele>451.9</ele><time>2012-07-26T13:36:39.0000000+00:00</time></trkpt><trkpt lat="63.77938843" lon="-19.41908455"><ele>452.3</ele><time>2012-07-26T13:36:44.0000000+00:00</time></trkpt><trkpt lat="63.77936173" lon="-19.41913796"><ele>452.7</ele><time>2012-07-26T13:36:49.0000000+00:00</time></trkpt><trkpt lat="63.77930832" lon="-19.41918755"><ele>453.3</ele><time>2012-07-26T13:36:54.0000000+00:00</time></trkpt><trkpt lat="63.77925491" lon="-19.41924477"><ele>452.3</ele><time>2012-07-26T13:36:59.0000000+00:00</time></trkpt><trkpt lat="63.77919388" lon="-19.41929817"><ele>452.3</ele><time>2012-07-26T13:37:04.0000000+00:00</time></trkpt><trkpt lat="63.77915192" lon="-19.41935921"><ele>451.7</ele><time>2012-07-26T13:37:09.0000000+00:00</time></trkpt><trkpt lat="63.77912903" lon="-19.41940689"><ele>451.1</ele><time>2012-07-26T13:37:14.0000000+00:00</time></trkpt><trkpt lat="63.77908707" lon="-19.41945648"><ele>452.1</ele><time>2012-07-26T13:37:19.0000000+00:00</time></trkpt><trkpt lat="63.77903748" lon="-19.41952133"><ele>453.2</ele><time>2012-07-26T13:37:24.0000000+00:00</time></trkpt><trkpt lat="63.77898789" lon="-19.41961289"><ele>452.6</ele><time>2012-07-26T13:37:29.0000000+00:00</time></trkpt><trkpt lat="63.77894974" lon="-19.41967964"><ele>452.3</ele><time>2012-07-26T13:37:34.0000000+00:00</time></trkpt><trkpt lat="63.77890778" lon="-19.41975403"><ele>452.7</ele><time>2012-07-26T13:37:39.0000000+00:00</time></trkpt><trkpt lat="63.778862" lon="-19.41979408"><ele>452.3</ele><time>2012-07-26T13:37:44.0000000+00:00</time></trkpt><trkpt lat="63.77882385" lon="-19.41978073"><ele>452.3</ele><time>2012-07-26T13:37:49.0000000+00:00</time></trkpt><trkpt lat="63.77878952" lon="-19.41978836"><ele>452.0</ele><time>2012-07-26T13:37:54.0000000+00:00</time></trkpt><trkpt lat="63.77873612" lon="-19.41976547"><ele>451.9</ele><time>2012-07-26T13:37:59.0000000+00:00</time></trkpt><trkpt lat="63.77867127" lon="-19.41974258"><ele>452.5</ele><time>2012-07-26T13:38:04.0000000+00:00</time></trkpt><trkpt lat="63.7786293" lon="-19.41973496"><ele>453.2</ele><time>2012-07-26T13:38:09.0000000+00:00</time></trkpt><trkpt lat="63.7786293" lon="-19.41975403"><ele>454.3</ele><time>2012-07-26T13:38:14.0000000+00:00</time></trkpt><trkpt lat="63.7786293" lon="-19.41975594"><ele>454.3</ele><time>2012-07-26T13:38:19.0000000+00:00</time></trkpt><trkpt lat="63.7786293" lon="-19.41975403"><ele>454.3</ele><time>2012-07-26T13:38:24.0000000+00:00</time></trkpt><trkpt lat="63.77859116" lon="-19.41973114"><ele>454.4</ele><time>2012-07-26T13:38:29.0000000+00:00</time></trkpt><trkpt lat="63.77854157" lon="-19.41967583"><ele>453.8</ele><time>2012-07-26T13:38:34.0000000+00:00</time></trkpt><trkpt lat="63.77849579" lon="-19.41960716"><ele>453.0</ele><time>2012-07-26T13:38:39.0000000+00:00</time></trkpt><trkpt lat="63.77845383" lon="-19.41952705"><ele>452.7</ele><time>2012-07-26T13:38:44.0000000+00:00</time></trkpt><trkpt lat="63.77841187" lon="-19.41947746"><ele>452.4</ele><time>2012-07-26T13:38:49.0000000+00:00</time></trkpt><trkpt lat="63.77840424" lon="-19.41946411"><ele>452.3</ele><time>2012-07-26T13:38:54.0000000+00:00</time></trkpt><trkpt lat="63.77835083" lon="-19.4194603"><ele>452.2</ele><time>2012-07-26T13:38:59.0000000+00:00</time></trkpt><trkpt lat="63.77825165" lon="-19.41942596"><ele>453.7</ele><time>2012-07-26T13:39:04.0000000+00:00</time></trkpt><trkpt lat="63.77815247" lon="-19.41947937"><ele>456.6</ele><time>2012-07-26T13:39:09.0000000+00:00</time></trkpt><trkpt lat="63.77804184" lon="-19.41962624"><ele>457.0</ele><time>2012-07-26T13:39:14.0000000+00:00</time></trkpt><trkpt lat="63.77791977" lon="-19.41979218"><ele>456.6</ele><time>2012-07-26T13:39:19.0000000+00:00</time></trkpt><trkpt lat="63.77780533" lon="-19.4199295"><ele>454.8</ele><time>2012-07-26T13:39:24.0000000+00:00</time></trkpt><trkpt lat="63.77771759" lon="-19.42002869"><ele>457.1</ele><time>2012-07-26T13:39:29.0000000+00:00</time></trkpt><trkpt lat="63.77766037" lon="-19.4201088"><ele>458.4</ele><time>2012-07-26T13:39:34.0000000+00:00</time></trkpt><trkpt lat="63.77761841" lon="-19.42015648"><ele>458.8</ele><time>2012-07-26T13:39:39.0000000+00:00</time></trkpt><trkpt lat="63.77759934" lon="-19.42017365"><ele>458.2</ele><time>2012-07-26T13:39:44.0000000+00:00</time></trkpt><trkpt lat="63.77756882" lon="-19.42023277"><ele>459.8</ele><time>2012-07-26T13:39:49.0000000+00:00</time></trkpt><trkpt lat="63.77755356" lon="-19.42028046"><ele>460.1</ele><time>2012-07-26T13:39:54.0000000+00:00</time></trkpt><trkpt lat="63.77751541" lon="-19.42030907"><ele>461.5</ele><time>2012-07-26T13:39:59.0000000+00:00</time></trkpt><trkpt lat="63.77745819" lon="-19.42036438"><ele>462.0</ele><time>2012-07-26T13:40:04.0000000+00:00</time></trkpt><trkpt lat="63.77741623" lon="-19.42043877"><ele>462.6</ele><time>2012-07-26T13:40:09.0000000+00:00</time></trkpt><trkpt lat="63.77737045" lon="-19.4204731"><ele>464.0</ele><time>2012-07-26T13:40:14.0000000+00:00</time></trkpt><trkpt lat="63.77732849" lon="-19.42050171"><ele>464.4</ele><time>2012-07-26T13:40:19.0000000+00:00</time></trkpt><trkpt lat="63.77727127" lon="-19.42050552"><ele>464.0</ele><time>2012-07-26T13:40:24.0000000+00:00</time></trkpt><trkpt lat="63.77721405" lon="-19.42053223"><ele>463.9</ele><time>2012-07-26T13:40:29.0000000+00:00</time></trkpt><trkpt lat="63.77720261" lon="-19.42055702"><ele>463.1</ele><time>2012-07-26T13:40:34.0000000+00:00</time></trkpt><trkpt lat="63.77716065" lon="-19.42058563"><ele>463.4</ele><time>2012-07-26T13:40:39.0000000+00:00</time></trkpt><trkpt lat="63.77713776" lon="-19.42057419"><ele>464.9</ele><time>2012-07-26T13:40:44.0000000+00:00</time></trkpt><trkpt lat="63.77706909" lon="-19.42059708"><ele>465.0</ele><time>2012-07-26T13:40:49.0000000+00:00</time></trkpt><trkpt lat="63.77696228" lon="-19.42059326"><ele>465.0</ele><time>2012-07-26T13:40:54.0000000+00:00</time></trkpt><trkpt lat="63.77686691" lon="-19.42060661"><ele>466.6</ele><time>2012-07-26T13:40:59.0000000+00:00</time></trkpt><trkpt lat="63.77676392" lon="-19.42056847"><ele>466.4</ele><time>2012-07-26T13:41:04.0000000+00:00</time></trkpt><trkpt lat="63.77666855" lon="-19.4205246"><ele>467.0</ele><time>2012-07-26T13:41:09.0000000+00:00</time></trkpt><trkpt lat="63.77656937" lon="-19.42048836"><ele>467.6</ele><time>2012-07-26T13:41:14.0000000+00:00</time></trkpt><trkpt lat="63.77646256" lon="-19.4204731"><ele>470.0</ele><time>2012-07-26T13:41:19.0000000+00:00</time></trkpt><trkpt lat="63.77637863" lon="-19.42047119"><ele>470.9</ele><time>2012-07-26T13:41:24.0000000+00:00</time></trkpt><trkpt lat="63.77631378" lon="-19.42052651"><ele>471.0</ele><time>2012-07-26T13:41:29.0000000+00:00</time></trkpt><trkpt lat="63.77632904" lon="-19.42056656"><ele>472.8</ele><time>2012-07-26T13:41:34.0000000+00:00</time></trkpt><trkpt lat="63.77631378" lon="-19.42058945"><ele>475.5</ele><time>2012-07-26T13:41:39.0000000+00:00</time></trkpt><trkpt lat="63.77627564" lon="-19.42061043"><ele>476.0</ele><time>2012-07-26T13:41:44.0000000+00:00</time></trkpt><trkpt lat="63.7762413" lon="-19.42063141"><ele>476.6</ele><time>2012-07-26T13:41:49.0000000+00:00</time></trkpt><trkpt lat="63.77621841" lon="-19.42062759"><ele>476.8</ele><time>2012-07-26T13:41:54.0000000+00:00</time></trkpt><trkpt lat="63.77621841" lon="-19.42062569"><ele>476.8</ele><time>2012-07-26T13:41:59.0000000+00:00</time></trkpt><trkpt lat="63.77619934" lon="-19.42062378"><ele>476.6</ele><time>2012-07-26T13:42:04.0000000+00:00</time></trkpt><trkpt lat="63.77615356" lon="-19.42064476"><ele>476.8</ele><time>2012-07-26T13:42:09.0000000+00:00</time></trkpt><trkpt lat="63.77609634" lon="-19.42069054"><ele>476.4</ele><time>2012-07-26T13:42:14.0000000+00:00</time></trkpt><trkpt lat="63.77605057" lon="-19.42074394"><ele>476.5</ele><time>2012-07-26T13:42:19.0000000+00:00</time></trkpt><trkpt lat="63.77600861" lon="-19.42077065"><ele>476.1</ele><time>2012-07-26T13:42:24.0000000+00:00</time></trkpt><trkpt lat="63.77596664" lon="-19.42078781"><ele>476.2</ele><time>2012-07-26T13:42:29.0000000+00:00</time></trkpt><trkpt lat="63.77594757" lon="-19.42082214"><ele>477.4</ele><time>2012-07-26T13:42:34.0000000+00:00</time></trkpt><trkpt lat="63.77593231" lon="-19.42082596"><ele>478.0</ele><time>2012-07-26T13:42:39.0000000+00:00</time></trkpt><trkpt lat="63.77593231" lon="-19.42086792"><ele>478.4</ele><time>2012-07-26T13:42:44.0000000+00:00</time></trkpt><trkpt lat="63.77591705" lon="-19.42090607"><ele>478.9</ele><time>2012-07-26T13:42:49.0000000+00:00</time></trkpt><trkpt lat="63.77590561" lon="-19.42097282"><ele>479.3</ele><time>2012-07-26T13:42:54.0000000+00:00</time></trkpt><trkpt lat="63.77588272" lon="-19.42103958"><ele>479.9</ele><time>2012-07-26T13:42:59.0000000+00:00</time></trkpt><trkpt lat="63.77588272" lon="-19.42103386"><ele>480.6</ele><time>2012-07-26T13:43:04.0000000+00:00</time></trkpt><trkpt lat="63.77588272" lon="-19.42103386"><ele>480.6</ele><time>2012-07-26T13:43:09.0000000+00:00</time></trkpt><trkpt lat="63.77588272" lon="-19.42103195"><ele>480.5</ele><time>2012-07-26T13:43:14.0000000+00:00</time></trkpt><trkpt lat="63.77588272" lon="-19.42103195"><ele>480.5</ele><time>2012-07-26T13:43:19.0000000+00:00</time></trkpt><trkpt lat="63.77588272" lon="-19.42103195"><ele>480.5</ele><time>2012-07-26T13:43:24.0000000+00:00</time></trkpt><trkpt lat="63.77588272" lon="-19.42103386"><ele>480.5</ele><time>2012-07-26T13:43:29.0000000+00:00</time></trkpt><trkpt lat="63.77587891" lon="-19.42103958"><ele>480.6</ele><time>2012-07-26T13:43:34.0000000+00:00</time></trkpt><trkpt lat="63.77586365" lon="-19.42108727"><ele>481.2</ele><time>2012-07-26T13:43:39.0000000+00:00</time></trkpt><trkpt lat="63.7758522" lon="-19.42118454"><ele>481.9</ele><time>2012-07-26T13:43:44.0000000+00:00</time></trkpt><trkpt lat="63.77584839" lon="-19.42126274"><ele>482.5</ele><time>2012-07-26T13:43:49.0000000+00:00</time></trkpt><trkpt lat="63.77584839" lon="-19.42133331"><ele>483.3</ele><time>2012-07-26T13:43:54.0000000+00:00</time></trkpt><trkpt lat="63.77582169" lon="-19.42138481"><ele>483.9</ele><time>2012-07-26T13:43:59.0000000+00:00</time></trkpt><trkpt lat="63.77581024" lon="-19.42144775"><ele>484.0</ele><time>2012-07-26T13:44:04.0000000+00:00</time></trkpt><trkpt lat="63.77578735" lon="-19.42153168"><ele>483.5</ele><time>2012-07-26T13:44:09.0000000+00:00</time></trkpt><trkpt lat="63.77576447" lon="-19.42161942"><ele>483.1</ele><time>2012-07-26T13:44:14.0000000+00:00</time></trkpt><trkpt lat="63.77574921" lon="-19.42168236"><ele>482.9</ele><time>2012-07-26T13:44:19.0000000+00:00</time></trkpt><trkpt lat="63.77571869" lon="-19.42172241"><ele>482.8</ele><time>2012-07-26T13:44:24.0000000+00:00</time></trkpt><trkpt lat="63.77569962" lon="-19.42181587"><ele>482.7</ele><time>2012-07-26T13:44:29.0000000+00:00</time></trkpt><trkpt lat="63.77568436" lon="-19.42185593"><ele>483.0</ele><time>2012-07-26T13:44:34.0000000+00:00</time></trkpt><trkpt lat="63.7756691" lon="-19.42191696"><ele>483.5</ele><time>2012-07-26T13:44:39.0000000+00:00</time></trkpt><trkpt lat="63.77564621" lon="-19.42198181"><ele>483.7</ele><time>2012-07-26T13:44:44.0000000+00:00</time></trkpt><trkpt lat="63.77563095" lon="-19.42206001"><ele>483.6</ele><time>2012-07-26T13:44:49.0000000+00:00</time></trkpt><trkpt lat="63.77561951" lon="-19.42212486"><ele>484.4</ele><time>2012-07-26T13:44:54.0000000+00:00</time></trkpt><trkpt lat="63.77561569" lon="-19.4221592"><ele>484.6</ele><time>2012-07-26T13:44:59.0000000+00:00</time></trkpt><trkpt lat="63.77560425" lon="-19.42217636"><ele>484.9</ele><time>2012-07-26T13:45:04.0000000+00:00</time></trkpt><trkpt lat="63.77560043" lon="-19.42224312"><ele>486.2</ele><time>2012-07-26T13:45:09.0000000+00:00</time></trkpt><trkpt lat="63.77558518" lon="-19.42230797"><ele>487.1</ele><time>2012-07-26T13:45:14.0000000+00:00</time></trkpt><trkpt lat="63.77557373" lon="-19.42238617"><ele>487.7</ele><time>2012-07-26T13:45:19.0000000+00:00</time></trkpt><trkpt lat="63.77556229" lon="-19.42245483"><ele>488.1</ele><time>2012-07-26T13:45:24.0000000+00:00</time></trkpt><trkpt lat="63.77554321" lon="-19.42253113"><ele>488.4</ele><time>2012-07-26T13:45:29.0000000+00:00</time></trkpt><trkpt lat="63.77552414" lon="-19.42262268"><ele>488.2</ele><time>2012-07-26T13:45:34.0000000+00:00</time></trkpt><trkpt lat="63.77551651" lon="-19.4226799"><ele>487.5</ele><time>2012-07-26T13:45:39.0000000+00:00</time></trkpt><trkpt lat="63.77549744" lon="-19.42271805"><ele>486.8</ele><time>2012-07-26T13:45:44.0000000+00:00</time></trkpt><trkpt lat="63.77548218" lon="-19.42280197"><ele>486.6</ele><time>2012-07-26T13:45:49.0000000+00:00</time></trkpt><trkpt lat="63.77546692" lon="-19.42288208"><ele>486.1</ele><time>2012-07-26T13:45:54.0000000+00:00</time></trkpt><trkpt lat="63.77544785" lon="-19.42296219"><ele>485.5</ele><time>2012-07-26T13:45:59.0000000+00:00</time></trkpt><trkpt lat="63.77543259" lon="-19.42304039"><ele>485.0</ele><time>2012-07-26T13:46:04.0000000+00:00</time></trkpt><trkpt lat="63.77539825" lon="-19.42312622"><ele>484.4</ele><time>2012-07-26T13:46:09.0000000+00:00</time></trkpt><trkpt lat="63.77539444" lon="-19.423172"><ele>483.5</ele><time>2012-07-26T13:46:14.0000000+00:00</time></trkpt><trkpt lat="63.77536392" lon="-19.42323685"><ele>483.0</ele><time>2012-07-26T13:46:19.0000000+00:00</time></trkpt><trkpt lat="63.77532578" lon="-19.42329025"><ele>481.9</ele><time>2012-07-26T13:46:24.0000000+00:00</time></trkpt><trkpt lat="63.77530289" lon="-19.42334747"><ele>480.9</ele><time>2012-07-26T13:46:29.0000000+00:00</time></trkpt><trkpt lat="63.77528" lon="-19.42339516"><ele>479.8</ele><time>2012-07-26T13:46:34.0000000+00:00</time></trkpt><trkpt lat="63.77526474" lon="-19.42345238"><ele>480.8</ele><time>2012-07-26T13:46:39.0000000+00:00</time></trkpt><trkpt lat="63.77523041" lon="-19.42349434"><ele>480.3</ele><time>2012-07-26T13:46:44.0000000+00:00</time></trkpt><trkpt lat="63.775177" lon="-19.42351532"><ele>480.3</ele><time>2012-07-26T13:46:49.0000000+00:00</time></trkpt><trkpt lat="63.7751236" lon="-19.42353249"><ele>480.3</ele><time>2012-07-26T13:46:54.0000000+00:00</time></trkpt><trkpt lat="63.77508926" lon="-19.42358971"><ele>481.4</ele><time>2012-07-26T13:46:59.0000000+00:00</time></trkpt><trkpt lat="63.77509308" lon="-19.42357063"><ele>482.0</ele><time>2012-07-26T13:47:04.0000000+00:00</time></trkpt><trkpt lat="63.77508164" lon="-19.42356491"><ele>481.3</ele><time>2012-07-26T13:47:09.0000000+00:00</time></trkpt><trkpt lat="63.7750473" lon="-19.42358208"><ele>481.2</ele><time>2012-07-26T13:47:14.0000000+00:00</time></trkpt><trkpt lat="63.77500153" lon="-19.4236145"><ele>481.2</ele><time>2012-07-26T13:47:19.0000000+00:00</time></trkpt><trkpt lat="63.7749939" lon="-19.42362595"><ele>480.9</ele><time>2012-07-26T13:47:24.0000000+00:00</time></trkpt><trkpt lat="63.77499008" lon="-19.4236393"><ele>481.1</ele><time>2012-07-26T13:47:29.0000000+00:00</time></trkpt><trkpt lat="63.77499008" lon="-19.42361641"><ele>481.3</ele><time>2012-07-26T13:47:34.0000000+00:00</time></trkpt><trkpt lat="63.77498627" lon="-19.42360878"><ele>481.3</ele><time>2012-07-26T13:47:39.0000000+00:00</time></trkpt><trkpt lat="63.77494049" lon="-19.42362213"><ele>482.0</ele><time>2012-07-26T13:47:44.0000000+00:00</time></trkpt><trkpt lat="63.77492523" lon="-19.42366791"><ele>483.8</ele><time>2012-07-26T13:47:49.0000000+00:00</time></trkpt><trkpt lat="63.77492905" lon="-19.4236927"><ele>485.7</ele><time>2012-07-26T13:47:54.0000000+00:00</time></trkpt><trkpt lat="63.7748909" lon="-19.4236908"><ele>486.4</ele><time>2012-07-26T13:47:59.0000000+00:00</time></trkpt><trkpt lat="63.77485657" lon="-19.42370033"><ele>487.3</ele><time>2012-07-26T13:48:04.0000000+00:00</time></trkpt><trkpt lat="63.77482224" lon="-19.42367172"><ele>488.2</ele><time>2012-07-26T13:48:09.0000000+00:00</time></trkpt><trkpt lat="63.77479553" lon="-19.42367935"><ele>489.4</ele><time>2012-07-26T13:48:14.0000000+00:00</time></trkpt><trkpt lat="63.77476502" lon="-19.42368507"><ele>490.6</ele><time>2012-07-26T13:48:19.0000000+00:00</time></trkpt><trkpt lat="63.77472305" lon="-19.4236927"><ele>491.2</ele><time>2012-07-26T13:48:24.0000000+00:00</time></trkpt><trkpt lat="63.77468872" lon="-19.4236927"><ele>492.7</ele><time>2012-07-26T13:48:29.0000000+00:00</time></trkpt><trkpt lat="63.77463913" lon="-19.423666"><ele>494.4</ele><time>2012-07-26T13:48:34.0000000+00:00</time></trkpt><trkpt lat="63.77458954" lon="-19.42367554"><ele>496.1</ele><time>2012-07-26T13:48:39.0000000+00:00</time></trkpt><trkpt lat="63.77453613" lon="-19.423666"><ele>497.3</ele><time>2012-07-26T13:48:44.0000000+00:00</time></trkpt><trkpt lat="63.77450943" lon="-19.42365265"><ele>497.7</ele><time>2012-07-26T13:48:49.0000000+00:00</time></trkpt><trkpt lat="63.77447128" lon="-19.42362976"><ele>498.5</ele><time>2012-07-26T13:48:54.0000000+00:00</time></trkpt><trkpt lat="63.77442169" lon="-19.42363358"><ele>498.6</ele><time>2012-07-26T13:48:59.0000000+00:00</time></trkpt><trkpt lat="63.77437973" lon="-19.42362595"><ele>499.2</ele><time>2012-07-26T13:49:04.0000000+00:00</time></trkpt><trkpt lat="63.77433395" lon="-19.42362595"><ele>499.8</ele><time>2012-07-26T13:49:09.0000000+00:00</time></trkpt><trkpt lat="63.77429962" lon="-19.42359543"><ele>500.1</ele><time>2012-07-26T13:49:14.0000000+00:00</time></trkpt><trkpt lat="63.77425766" lon="-19.42359734"><ele>500.3</ele><time>2012-07-26T13:49:19.0000000+00:00</time></trkpt><trkpt lat="63.77420044" lon="-19.42355728"><ele>500.8</ele><time>2012-07-26T13:49:24.0000000+00:00</time></trkpt><trkpt lat="63.77415466" lon="-19.42350578"><ele>501.2</ele><time>2012-07-26T13:49:29.0000000+00:00</time></trkpt><trkpt lat="63.77417374" lon="-19.42347527"><ele>501.9</ele><time>2012-07-26T13:49:34.0000000+00:00</time></trkpt><trkpt lat="63.77416229" lon="-19.4234848"><ele>502.4</ele><time>2012-07-26T13:49:39.0000000+00:00</time></trkpt><trkpt lat="63.77411652" lon="-19.42345429"><ele>502.5</ele><time>2012-07-26T13:49:44.0000000+00:00</time></trkpt><trkpt lat="63.77407455" lon="-19.42341805"><ele>502.8</ele><time>2012-07-26T13:49:49.0000000+00:00</time></trkpt><trkpt lat="63.77403641" lon="-19.42342758"><ele>503.0</ele><time>2012-07-26T13:49:54.0000000+00:00</time></trkpt><trkpt lat="63.77398682" lon="-19.42344475"><ele>504.9</ele><time>2012-07-26T13:49:59.0000000+00:00</time></trkpt><trkpt lat="63.77393341" lon="-19.42342186"><ele>505.8</ele><time>2012-07-26T13:50:04.0000000+00:00</time></trkpt><trkpt lat="63.77389526" lon="-19.4234314"><ele>505.8</ele><time>2012-07-26T13:50:09.0000000+00:00</time></trkpt><trkpt lat="63.77384949" lon="-19.42339325"><ele>506.4</ele><time>2012-07-26T13:50:14.0000000+00:00</time></trkpt><trkpt lat="63.77378845" lon="-19.42338562"><ele>507.1</ele><time>2012-07-26T13:50:19.0000000+00:00</time></trkpt><trkpt lat="63.77375031" lon="-19.42338562"><ele>506.8</ele><time>2012-07-26T13:50:24.0000000+00:00</time></trkpt><trkpt lat="63.77373505" lon="-19.4234066"><ele>506.8</ele><time>2012-07-26T13:50:29.0000000+00:00</time></trkpt><trkpt lat="63.77370453" lon="-19.42345238"><ele>507.1</ele><time>2012-07-26T13:50:34.0000000+00:00</time></trkpt><trkpt lat="63.77371597" lon="-19.42344284"><ele>507.3</ele><time>2012-07-26T13:50:39.0000000+00:00</time></trkpt><trkpt lat="63.77371216" lon="-19.42344666"><ele>507.0</ele><time>2012-07-26T13:50:44.0000000+00:00</time></trkpt><trkpt lat="63.77370071" lon="-19.42348671"><ele>507.3</ele><time>2012-07-26T13:50:49.0000000+00:00</time></trkpt><trkpt lat="63.77367783" lon="-19.42354012"><ele>507.9</ele><time>2012-07-26T13:50:54.0000000+00:00</time></trkpt><trkpt lat="63.77365494" lon="-19.42359161"><ele>508.0</ele><time>2012-07-26T13:50:59.0000000+00:00</time></trkpt><trkpt lat="63.77363205" lon="-19.42366791"><ele>508.1</ele><time>2012-07-26T13:51:04.0000000+00:00</time></trkpt><trkpt lat="63.77360535" lon="-19.4237442"><ele>508.3</ele><time>2012-07-26T13:51:09.0000000+00:00</time></trkpt><trkpt lat="63.77358246" lon="-19.42380524"><ele>508.6</ele><time>2012-07-26T13:51:14.0000000+00:00</time></trkpt><trkpt lat="63.7735672" lon="-19.42385292"><ele>509.3</ele><time>2012-07-26T13:51:19.0000000+00:00</time></trkpt><trkpt lat="63.77356339" lon="-19.4238987"><ele>509.4</ele><time>2012-07-26T13:51:24.0000000+00:00</time></trkpt><trkpt lat="63.77355194" lon="-19.42395973"><ele>509.9</ele><time>2012-07-26T13:51:29.0000000+00:00</time></trkpt><trkpt lat="63.77353668" lon="-19.4240303"><ele>510.3</ele><time>2012-07-26T13:51:34.0000000+00:00</time></trkpt><trkpt lat="63.77352524" lon="-19.4240818"><ele>510.8</ele><time>2012-07-26T13:51:39.0000000+00:00</time></trkpt><trkpt lat="63.77351379" lon="-19.42414856"><ele>511.8</ele><time>2012-07-26T13:51:44.0000000+00:00</time></trkpt><trkpt lat="63.77350617" lon="-19.42423439"><ele>512.6</ele><time>2012-07-26T13:51:49.0000000+00:00</time></trkpt><trkpt lat="63.77350617" lon="-19.42429924"><ele>513.1</ele><time>2012-07-26T13:51:54.0000000+00:00</time></trkpt><trkpt lat="63.77349854" lon="-19.42434883"><ele>513.4</ele><time>2012-07-26T13:51:59.0000000+00:00</time></trkpt><trkpt lat="63.77348328" lon="-19.42440796"><ele>514.0</ele><time>2012-07-26T13:52:04.0000000+00:00</time></trkpt><trkpt lat="63.77349854" lon="-19.42450142"><ele>515.2</ele><time>2012-07-26T13:52:09.0000000+00:00</time></trkpt><trkpt lat="63.77349472" lon="-19.42453384"><ele>516.3</ele><time>2012-07-26T13:52:14.0000000+00:00</time></trkpt><trkpt lat="63.77349091" lon="-19.42453384"><ele>515.7</ele><time>2012-07-26T13:52:19.0000000+00:00</time></trkpt><trkpt lat="63.77349091" lon="-19.42453384"><ele>515.5</ele><time>2012-07-26T13:52:24.0000000+00:00</time></trkpt><trkpt lat="63.77348709" lon="-19.42453575"><ele>515.1</ele><time>2012-07-26T13:52:29.0000000+00:00</time></trkpt><trkpt lat="63.77348709" lon="-19.42453766"><ele>515.0</ele><time>2012-07-26T13:52:34.0000000+00:00</time></trkpt><trkpt lat="63.77348709" lon="-19.42453957"><ele>515.1</ele><time>2012-07-26T13:52:39.0000000+00:00</time></trkpt><trkpt lat="63.77348709" lon="-19.42454147"><ele>515.1</ele><time>2012-07-26T13:52:44.0000000+00:00</time></trkpt><trkpt lat="63.77349091" lon="-19.42454529"><ele>515.3</ele><time>2012-07-26T13:52:49.0000000+00:00</time></trkpt><trkpt lat="63.77349091" lon="-19.4245491"><ele>515.7</ele><time>2012-07-26T13:52:54.0000000+00:00</time></trkpt><trkpt lat="63.77349091" lon="-19.42456245"><ele>516.2</ele><time>2012-07-26T13:52:59.0000000+00:00</time></trkpt><trkpt lat="63.77348709" lon="-19.42465782"><ele>518.2</ele><time>2012-07-26T13:53:04.0000000+00:00</time></trkpt><trkpt lat="63.77347946" lon="-19.42475128"><ele>519.1</ele><time>2012-07-26T13:53:09.0000000+00:00</time></trkpt><trkpt lat="63.77347946" lon="-19.42485046"><ele>519.6</ele><time>2012-07-26T13:53:14.0000000+00:00</time></trkpt><trkpt lat="63.77347565" lon="-19.42494774"><ele>520.3</ele><time>2012-07-26T13:53:19.0000000+00:00</time></trkpt><trkpt lat="63.77349091" lon="-19.42503929"><ele>523.9</ele><time>2012-07-26T13:53:24.0000000+00:00</time></trkpt><trkpt lat="63.77347183" lon="-19.42512131"><ele>525.7</ele><time>2012-07-26T13:53:29.0000000+00:00</time></trkpt><trkpt lat="63.77344894" lon="-19.42520142"><ele>527.0</ele><time>2012-07-26T13:53:34.0000000+00:00</time></trkpt><trkpt lat="63.77342224" lon="-19.42525673"><ele>527.0</ele><time>2012-07-26T13:53:39.0000000+00:00</time></trkpt><trkpt lat="63.77340317" lon="-19.42533493"><ele>529.8</ele><time>2012-07-26T13:53:44.0000000+00:00</time></trkpt><trkpt lat="63.77336884" lon="-19.42534065"><ele>530.0</ele><time>2012-07-26T13:53:49.0000000+00:00</time></trkpt><trkpt lat="63.77335739" lon="-19.42531776"><ele>529.9</ele><time>2012-07-26T13:53:54.0000000+00:00</time></trkpt><trkpt lat="63.77335358" lon="-19.42531776"><ele>530.0</ele><time>2012-07-26T13:53:59.0000000+00:00</time></trkpt><trkpt lat="63.77331924" lon="-19.42531776"><ele>530.8</ele><time>2012-07-26T13:54:04.0000000+00:00</time></trkpt><trkpt lat="63.77328873" lon="-19.42531014"><ele>534.2</ele><time>2012-07-26T13:54:09.0000000+00:00</time></trkpt><trkpt lat="63.77324677" lon="-19.42528153"><ele>535.9</ele><time>2012-07-26T13:54:14.0000000+00:00</time></trkpt><trkpt lat="63.7732048" lon="-19.42528915"><ele>537.8</ele><time>2012-07-26T13:54:19.0000000+00:00</time></trkpt><trkpt lat="63.77315903" lon="-19.42526817"><ele>538.1</ele><time>2012-07-26T13:54:24.0000000+00:00</time></trkpt><trkpt lat="63.77310944" lon="-19.42525101"><ele>537.7</ele><time>2012-07-26T13:54:29.0000000+00:00</time></trkpt><trkpt lat="63.77309418" lon="-19.42523766"><ele>539.5</ele><time>2012-07-26T13:54:34.0000000+00:00</time></trkpt><trkpt lat="63.77305222" lon="-19.42521858"><ele>541.0</ele><time>2012-07-26T13:54:39.0000000+00:00</time></trkpt><trkpt lat="63.77299881" lon="-19.42518234"><ele>539.8</ele><time>2012-07-26T13:54:44.0000000+00:00</time></trkpt><trkpt lat="63.77294922" lon="-19.42513275"><ele>538.3</ele><time>2012-07-26T13:54:49.0000000+00:00</time></trkpt><trkpt lat="63.77291107" lon="-19.4250927"><ele>539.2</ele><time>2012-07-26T13:54:54.0000000+00:00</time></trkpt><trkpt lat="63.77287674" lon="-19.42509079"><ele>538.3</ele><time>2012-07-26T13:54:59.0000000+00:00</time></trkpt><trkpt lat="63.77288437" lon="-19.4250927"><ele>538.3</ele><time>2012-07-26T13:55:04.0000000+00:00</time></trkpt><trkpt lat="63.77287674" lon="-19.42509079"><ele>538.5</ele><time>2012-07-26T13:55:09.0000000+00:00</time></trkpt><trkpt lat="63.77283478" lon="-19.42508888"><ele>539.1</ele><time>2012-07-26T13:55:14.0000000+00:00</time></trkpt><trkpt lat="63.77278519" lon="-19.42510414"><ele>541.5</ele><time>2012-07-26T13:55:19.0000000+00:00</time></trkpt><trkpt lat="63.77274323" lon="-19.42508888"><ele>543.1</ele><time>2012-07-26T13:55:24.0000000+00:00</time></trkpt><trkpt lat="63.77269745" lon="-19.4250679"><ele>544.2</ele><time>2012-07-26T13:55:29.0000000+00:00</time></trkpt><trkpt lat="63.77264786" lon="-19.42505455"><ele>545.3</ele><time>2012-07-26T13:55:34.0000000+00:00</time></trkpt><trkpt lat="63.77260971" lon="-19.42500305"><ele>546.1</ele><time>2012-07-26T13:55:39.0000000+00:00</time></trkpt><trkpt lat="63.77255631" lon="-19.42494392"><ele>544.3</ele><time>2012-07-26T13:55:44.0000000+00:00</time></trkpt><trkpt lat="63.77252197" lon="-19.42493439"><ele>545.5</ele><time>2012-07-26T13:55:49.0000000+00:00</time></trkpt><trkpt lat="63.77248383" lon="-19.42495155"><ele>546.2</ele><time>2012-07-26T13:55:54.0000000+00:00</time></trkpt><trkpt lat="63.77243805" lon="-19.42497444"><ele>546.5</ele><time>2012-07-26T13:55:59.0000000+00:00</time></trkpt><trkpt lat="63.77242661" lon="-19.42497444"><ele>546.1</ele><time>2012-07-26T13:56:04.0000000+00:00</time></trkpt><trkpt lat="63.77242661" lon="-19.42495918"><ele>546.9</ele><time>2012-07-26T13:56:09.0000000+00:00</time></trkpt><trkpt lat="63.77242661" lon="-19.42495918"><ele>546.8</ele><time>2012-07-26T13:56:14.0000000+00:00</time></trkpt><trkpt lat="63.77238846" lon="-19.42494392"><ele>547.7</ele><time>2012-07-26T13:56:19.0000000+00:00</time></trkpt><trkpt lat="63.77234268" lon="-19.42493439"><ele>548.4</ele><time>2012-07-26T13:56:24.0000000+00:00</time></trkpt><trkpt lat="63.77228928" lon="-19.4249363"><ele>549.7</ele><time>2012-07-26T13:56:29.0000000+00:00</time></trkpt><trkpt lat="63.7722435" lon="-19.42488098"><ele>548.6</ele><time>2012-07-26T13:56:34.0000000+00:00</time></trkpt><trkpt lat="63.77220535" lon="-19.42486763"><ele>548.4</ele><time>2012-07-26T13:56:39.0000000+00:00</time></trkpt><trkpt lat="63.77217865" lon="-19.42489052"><ele>548.5</ele><time>2012-07-26T13:56:44.0000000+00:00</time></trkpt><trkpt lat="63.77214813" lon="-19.42492104"><ele>548.1</ele><time>2012-07-26T13:56:49.0000000+00:00</time></trkpt><trkpt lat="63.77209473" lon="-19.42494202"><ele>549.8</ele><time>2012-07-26T13:56:54.0000000+00:00</time></trkpt><trkpt lat="63.77207184" lon="-19.42496872"><ele>551.6</ele><time>2012-07-26T13:56:59.0000000+00:00</time></trkpt><trkpt lat="63.7720871" lon="-19.42494774"><ele>552.2</ele><time>2012-07-26T13:57:04.0000000+00:00</time></trkpt><trkpt lat="63.77209091" lon="-19.42494583"><ele>552.2</ele><time>2012-07-26T13:57:09.0000000+00:00</time></trkpt><trkpt lat="63.77209091" lon="-19.42494583"><ele>552.1</ele><time>2012-07-26T13:57:14.0000000+00:00</time></trkpt><trkpt lat="63.77205277" lon="-19.42495346"><ele>553.3</ele><time>2012-07-26T13:57:19.0000000+00:00</time></trkpt><trkpt lat="63.77200317" lon="-19.42498207"><ele>553.6</ele><time>2012-07-26T13:57:24.0000000+00:00</time></trkpt><trkpt lat="63.77193832" lon="-19.42500114"><ele>554.3</ele><time>2012-07-26T13:57:29.0000000+00:00</time></trkpt><trkpt lat="63.77189255" lon="-19.42500687"><ele>555.5</ele><time>2012-07-26T13:57:34.0000000+00:00</time></trkpt><trkpt lat="63.77183914" lon="-19.42498589"><ele>555.6</ele><time>2012-07-26T13:57:39.0000000+00:00</time></trkpt><trkpt lat="63.77179337" lon="-19.424963"><ele>558.3</ele><time>2012-07-26T13:57:44.0000000+00:00</time></trkpt><trkpt lat="63.77173996" lon="-19.42493057"><ele>559.3</ele><time>2012-07-26T13:57:49.0000000+00:00</time></trkpt><trkpt lat="63.77168274" lon="-19.42490387"><ele>558.9</ele><time>2012-07-26T13:57:54.0000000+00:00</time></trkpt><trkpt lat="63.77162552" lon="-19.42488861"><ele>559.0</ele><time>2012-07-26T13:57:59.0000000+00:00</time></trkpt><trkpt lat="63.77157211" lon="-19.42486"><ele>560.1</ele><time>2012-07-26T13:58:04.0000000+00:00</time></trkpt><trkpt lat="63.77152252" lon="-19.4248867"><ele>559.7</ele><time>2012-07-26T13:58:09.0000000+00:00</time></trkpt><trkpt lat="63.77148438" lon="-19.42487717"><ele>559.6</ele><time>2012-07-26T13:58:14.0000000+00:00</time></trkpt><trkpt lat="63.7714653" lon="-19.42491341"><ele>560.6</ele><time>2012-07-26T13:58:19.0000000+00:00</time></trkpt><trkpt lat="63.7714653" lon="-19.42491722"><ele>560.8</ele><time>2012-07-26T13:58:24.0000000+00:00</time></trkpt><trkpt lat="63.77144623" lon="-19.42492485"><ele>560.9</ele><time>2012-07-26T13:58:29.0000000+00:00</time></trkpt><trkpt lat="63.77139664" lon="-19.42491531"><ele>559.9</ele><time>2012-07-26T13:58:34.0000000+00:00</time></trkpt><trkpt lat="63.77134705" lon="-19.42495346"><ele>559.8</ele><time>2012-07-26T13:58:39.0000000+00:00</time></trkpt><trkpt lat="63.7713089" lon="-19.42495728"><ele>559.6</ele><time>2012-07-26T13:58:44.0000000+00:00</time></trkpt><trkpt lat="63.77123261" lon="-19.42492485"><ele>559.6</ele><time>2012-07-26T13:58:49.0000000+00:00</time></trkpt><trkpt lat="63.77118683" lon="-19.42492104"><ele>559.8</ele><time>2012-07-26T13:58:54.0000000+00:00</time></trkpt><trkpt lat="63.77114105" lon="-19.4249115"><ele>560.7</ele><time>2012-07-26T13:58:59.0000000+00:00</time></trkpt><trkpt lat="63.77108002" lon="-19.42485619"><ele>560.4</ele><time>2012-07-26T13:59:04.0000000+00:00</time></trkpt><trkpt lat="63.77103043" lon="-19.42487907"><ele>561.6</ele><time>2012-07-26T13:59:09.0000000+00:00</time></trkpt><trkpt lat="63.77098846" lon="-19.42486382"><ele>564.0</ele><time>2012-07-26T13:59:14.0000000+00:00</time></trkpt><trkpt lat="63.77094269" lon="-19.42483902"><ele>565.9</ele><time>2012-07-26T13:59:19.0000000+00:00</time></trkpt><trkpt lat="63.7708931" lon="-19.42481995"><ele>566.3</ele><time>2012-07-26T13:59:24.0000000+00:00</time></trkpt><trkpt lat="63.77084351" lon="-19.42484283"><ele>567.3</ele><time>2012-07-26T13:59:29.0000000+00:00</time></trkpt><trkpt lat="63.77083206" lon="-19.42482758"><ele>567.9</ele><time>2012-07-26T13:59:34.0000000+00:00</time></trkpt><trkpt lat="63.77080917" lon="-19.42485428"><ele>569.8</ele><time>2012-07-26T13:59:39.0000000+00:00</time></trkpt><trkpt lat="63.77074051" lon="-19.4248848"><ele>571.5</ele><time>2012-07-26T13:59:44.0000000+00:00</time></trkpt><trkpt lat="63.7706604" lon="-19.4249363"><ele>571.6</ele><time>2012-07-26T13:59:49.0000000+00:00</time></trkpt><trkpt lat="63.77058411" lon="-19.42505837"><ele>572.3</ele><time>2012-07-26T13:59:54.0000000+00:00</time></trkpt><trkpt lat="63.77050018" lon="-19.42518425"><ele>573.1</ele><time>2012-07-26T13:59:59.0000000+00:00</time></trkpt><trkpt lat="63.7704277" lon="-19.42531014"><ele>573.6</ele><time>2012-07-26T14:00:04.0000000+00:00</time></trkpt><trkpt lat="63.77035523" lon="-19.42542076"><ele>573.9</ele><time>2012-07-26T14:00:09.0000000+00:00</time></trkpt><trkpt lat="63.77026367" lon="-19.4255333"><ele>574.5</ele><time>2012-07-26T14:00:14.0000000+00:00</time></trkpt><trkpt lat="63.77017212" lon="-19.4256649"><ele>575.2</ele><time>2012-07-26T14:00:19.0000000+00:00</time></trkpt><trkpt lat="63.77009201" lon="-19.42578316"><ele>575.6</ele><time>2012-07-26T14:00:24.0000000+00:00</time></trkpt><trkpt lat="63.76999283" lon="-19.42589188"><ele>575.7</ele><time>2012-07-26T14:00:29.0000000+00:00</time></trkpt><trkpt lat="63.76990509" lon="-19.42598343"><ele>576.6</ele><time>2012-07-26T14:00:34.0000000+00:00</time></trkpt><trkpt lat="63.76982117" lon="-19.42611313"><ele>576.8</ele><time>2012-07-26T14:00:39.0000000+00:00</time></trkpt><trkpt lat="63.76974106" lon="-19.42621803"><ele>577.0</ele><time>2012-07-26T14:00:44.0000000+00:00</time></trkpt><trkpt lat="63.76967239" lon="-19.42629242"><ele>577.0</ele><time>2012-07-26T14:00:49.0000000+00:00</time></trkpt><trkpt lat="63.7695961" lon="-19.42638588"><ele>576.8</ele><time>2012-07-26T14:00:54.0000000+00:00</time></trkpt><trkpt lat="63.76953507" lon="-19.42645454"><ele>577.3</ele><time>2012-07-26T14:00:59.0000000+00:00</time></trkpt><trkpt lat="63.76947022" lon="-19.42653847"><ele>577.7</ele><time>2012-07-26T14:01:04.0000000+00:00</time></trkpt><trkpt lat="63.76940155" lon="-19.4266777"><ele>577.8</ele><time>2012-07-26T14:01:09.0000000+00:00</time></trkpt><trkpt lat="63.76932907" lon="-19.42681122"><ele>578.3</ele><time>2012-07-26T14:01:14.0000000+00:00</time></trkpt><trkpt lat="63.76932526" lon="-19.42680168"><ele>578.4</ele><time>2012-07-26T14:01:19.0000000+00:00</time></trkpt><trkpt lat="63.76932144" lon="-19.42680168"><ele>578.4</ele><time>2012-07-26T14:01:24.0000000+00:00</time></trkpt><trkpt lat="63.76932907" lon="-19.42680168"><ele>578.4</ele><time>2012-07-26T14:01:29.0000000+00:00</time></trkpt><trkpt lat="63.76932907" lon="-19.4268055"><ele>578.4</ele><time>2012-07-26T14:01:34.0000000+00:00</time></trkpt><trkpt lat="63.7692833" lon="-19.42684746"><ele>578.5</ele><time>2012-07-26T14:01:39.0000000+00:00</time></trkpt><trkpt lat="63.76919937" lon="-19.42695236"><ele>579.6</ele><time>2012-07-26T14:01:44.0000000+00:00</time></trkpt><trkpt lat="63.76910019" lon="-19.42709732"><ele>578.9</ele><time>2012-07-26T14:01:49.0000000+00:00</time></trkpt><trkpt lat="63.76900864" lon="-19.427248"><ele>578.5</ele><time>2012-07-26T14:01:54.0000000+00:00</time></trkpt><trkpt lat="63.76890564" lon="-19.42745018"><ele>577.3</ele><time>2012-07-26T14:01:59.0000000+00:00</time></trkpt><trkpt lat="63.7687645" lon="-19.4277153"><ele>576.1</ele><time>2012-07-26T14:02:04.0000000+00:00</time></trkpt><trkpt lat="63.76861954" lon="-19.42798996"><ele>576.2</ele><time>2012-07-26T14:02:09.0000000+00:00</time></trkpt><trkpt lat="63.76848984" lon="-19.4282589"><ele>576.5</ele><time>2012-07-26T14:02:14.0000000+00:00</time></trkpt><trkpt lat="63.76834106" lon="-19.42854118"><ele>576.6</ele><time>2012-07-26T14:02:19.0000000+00:00</time></trkpt><trkpt lat="63.76821137" lon="-19.42878151"><ele>577.7</ele><time>2012-07-26T14:02:24.0000000+00:00</time></trkpt><trkpt lat="63.76810455" lon="-19.42901421"><ele>578.1</ele><time>2012-07-26T14:02:29.0000000+00:00</time></trkpt><trkpt lat="63.76799011" lon="-19.42932129"><ele>577.9</ele><time>2012-07-26T14:02:34.0000000+00:00</time></trkpt><trkpt lat="63.7678566" lon="-19.42977142"><ele>574.5</ele><time>2012-07-26T14:02:39.0000000+00:00</time></trkpt><trkpt lat="63.76768875" lon="-19.43029594"><ele>571.6</ele><time>2012-07-26T14:02:44.0000000+00:00</time></trkpt><trkpt lat="63.76747894" lon="-19.43097115"><ele>569.4</ele><time>2012-07-26T14:02:49.0000000+00:00</time></trkpt><trkpt lat="63.7673645" lon="-19.43165016"><ele>567.6</ele><time>2012-07-26T14:02:54.0000000+00:00</time></trkpt><trkpt lat="63.76732254" lon="-19.4324131"><ele>564.7</ele><time>2012-07-26T14:02:59.0000000+00:00</time></trkpt><trkpt lat="63.76720047" lon="-19.4331665"><ele>558.5</ele><time>2012-07-26T14:03:04.0000000+00:00</time></trkpt><trkpt lat="63.76683426" lon="-19.43397331"><ele>553.5</ele><time>2012-07-26T14:03:09.0000000+00:00</time></trkpt><trkpt lat="63.76658249" lon="-19.43462372"><ele>550.3</ele><time>2012-07-26T14:03:14.0000000+00:00</time></trkpt><trkpt lat="63.76643372" lon="-19.43501663"><ele>546.9</ele><time>2012-07-26T14:03:19.0000000+00:00</time></trkpt><trkpt lat="63.7662735" lon="-19.43542862"><ele>543.6</ele><time>2012-07-26T14:03:24.0000000+00:00</time></trkpt><trkpt lat="63.76607513" lon="-19.43597984"><ele>539.0</ele><time>2012-07-26T14:03:29.0000000+00:00</time></trkpt><trkpt lat="63.76586914" lon="-19.43655777"><ele>533.3</ele><time>2012-07-26T14:03:34.0000000+00:00</time></trkpt><trkpt lat="63.76557541" lon="-19.43727303"><ele>530.3</ele><time>2012-07-26T14:03:39.0000000+00:00</time></trkpt><trkpt lat="63.76522446" lon="-19.43806267"><ele>527.0</ele><time>2012-07-26T14:03:44.0000000+00:00</time></trkpt><trkpt lat="63.7648468" lon="-19.43876076"><ele>526.2</ele><time>2012-07-26T14:03:49.0000000+00:00</time></trkpt><trkpt lat="63.76447678" lon="-19.43937302"><ele>526.4</ele><time>2012-07-26T14:03:54.0000000+00:00</time></trkpt><trkpt lat="63.76413727" lon="-19.43990898"><ele>527.1</ele><time>2012-07-26T14:03:59.0000000+00:00</time></trkpt><trkpt lat="63.76380539" lon="-19.44045448"><ele>527.5</ele><time>2012-07-26T14:04:04.0000000+00:00</time></trkpt><trkpt lat="63.76350021" lon="-19.44078827"><ele>529.1</ele><time>2012-07-26T14:04:09.0000000+00:00</time></trkpt><trkpt lat="63.76319504" lon="-19.44082642"><ele>530.9</ele><time>2012-07-26T14:04:14.0000000+00:00</time></trkpt><trkpt lat="63.76291657" lon="-19.4407692"><ele>531.5</ele><time>2012-07-26T14:04:19.0000000+00:00</time></trkpt><trkpt lat="63.76268005" lon="-19.44062233"><ele>530.2</ele><time>2012-07-26T14:04:24.0000000+00:00</time></trkpt><trkpt lat="63.7624588" lon="-19.44042587"><ele>530.0</ele><time>2012-07-26T14:04:29.0000000+00:00</time></trkpt><trkpt lat="63.76222229" lon="-19.4401722"><ele>529.9</ele><time>2012-07-26T14:04:34.0000000+00:00</time></trkpt><trkpt lat="63.76198196" lon="-19.43995857"><ele>529.1</ele><time>2012-07-26T14:04:39.0000000+00:00</time></trkpt><trkpt lat="63.76173019" lon="-19.43977356"><ele>528.5</ele><time>2012-07-26T14:04:44.0000000+00:00</time></trkpt><trkpt lat="63.76146317" lon="-19.43959808"><ele>529.0</ele><time>2012-07-26T14:04:49.0000000+00:00</time></trkpt><trkpt lat="63.76118469" lon="-19.43940544"><ele>528.8</ele><time>2012-07-26T14:04:54.0000000+00:00</time></trkpt><trkpt lat="63.76091766" lon="-19.43921471"><ele>528.5</ele><time>2012-07-26T14:04:59.0000000+00:00</time></trkpt><trkpt lat="63.76066208" lon="-19.43904114"><ele>527.3</ele><time>2012-07-26T14:05:04.0000000+00:00</time></trkpt><trkpt lat="63.76042175" lon="-19.43899536"><ele>527.2</ele><time>2012-07-26T14:05:09.0000000+00:00</time></trkpt><trkpt lat="63.76022339" lon="-19.43912697"><ele>529.1</ele><time>2012-07-26T14:05:14.0000000+00:00</time></trkpt><trkpt lat="63.76005554" lon="-19.43937492"><ele>529.6</ele><time>2012-07-26T14:05:19.0000000+00:00</time></trkpt><trkpt lat="63.75987244" lon="-19.43964195"><ele>530.4</ele><time>2012-07-26T14:05:24.0000000+00:00</time></trkpt><trkpt lat="63.75967789" lon="-19.43994713"><ele>530.6</ele><time>2012-07-26T14:05:29.0000000+00:00</time></trkpt><trkpt lat="63.75950623" lon="-19.44025421"><ele>530.5</ele><time>2012-07-26T14:05:34.0000000+00:00</time></trkpt><trkpt lat="63.75933456" lon="-19.44059944"><ele>530.7</ele><time>2012-07-26T14:05:39.0000000+00:00</time></trkpt><trkpt lat="63.75918198" lon="-19.44099426"><ele>530.8</ele><time>2012-07-26T14:05:44.0000000+00:00</time></trkpt><trkpt lat="63.75902939" lon="-19.44139481"><ele>530.9</ele><time>2012-07-26T14:05:49.0000000+00:00</time></trkpt><trkpt lat="63.75889206" lon="-19.44178963"><ele>531.1</ele><time>2012-07-26T14:05:54.0000000+00:00</time></trkpt><trkpt lat="63.75874329" lon="-19.44221497"><ele>530.9</ele><time>2012-07-26T14:05:59.0000000+00:00</time></trkpt><trkpt lat="63.75859833" lon="-19.44266701"><ele>531.3</ele><time>2012-07-26T14:06:04.0000000+00:00</time></trkpt><trkpt lat="63.75847626" lon="-19.4430809"><ele>531.3</ele><time>2012-07-26T14:06:09.0000000+00:00</time></trkpt><trkpt lat="63.758358" lon="-19.44353485"><ele>531.2</ele><time>2012-07-26T14:06:14.0000000+00:00</time></trkpt><trkpt lat="63.75823593" lon="-19.44396591"><ele>531.9</ele><time>2012-07-26T14:06:19.0000000+00:00</time></trkpt><trkpt lat="63.75809097" lon="-19.4444027"><ele>531.4</ele><time>2012-07-26T14:06:24.0000000+00:00</time></trkpt><trkpt lat="63.7579422" lon="-19.44483376"><ele>531.4</ele><time>2012-07-26T14:06:29.0000000+00:00</time></trkpt><trkpt lat="63.7578125" lon="-19.44521332"><ele>531.6</ele><time>2012-07-26T14:06:34.0000000+00:00</time></trkpt><trkpt lat="63.75766754" lon="-19.44560623"><ele>531.8</ele><time>2012-07-26T14:06:39.0000000+00:00</time></trkpt><trkpt lat="63.75750732" lon="-19.4460392"><ele>531.9</ele><time>2012-07-26T14:06:44.0000000+00:00</time></trkpt><trkpt lat="63.75735092" lon="-19.44650078"><ele>531.4</ele><time>2012-07-26T14:06:49.0000000+00:00</time></trkpt><trkpt lat="63.75720215" lon="-19.44688606"><ele>530.4</ele><time>2012-07-26T14:06:54.0000000+00:00</time></trkpt><trkpt lat="63.75707626" lon="-19.44724464"><ele>529.7</ele><time>2012-07-26T14:06:59.0000000+00:00</time></trkpt><trkpt lat="63.75695419" lon="-19.44761848"><ele>530.3</ele><time>2012-07-26T14:07:04.0000000+00:00</time></trkpt><trkpt lat="63.75682068" lon="-19.44800186"><ele>530.3</ele><time>2012-07-26T14:07:09.0000000+00:00</time></trkpt><trkpt lat="63.75670242" lon="-19.44830322"><ele>531.4</ele><time>2012-07-26T14:07:14.0000000+00:00</time></trkpt><trkpt lat="63.75654221" lon="-19.44859695"><ele>532.0</ele><time>2012-07-26T14:07:19.0000000+00:00</time></trkpt><trkpt lat="63.75645065" lon="-19.44867134"><ele>533.7</ele><time>2012-07-26T14:07:24.0000000+00:00</time></trkpt><trkpt lat="63.75645828" lon="-19.44868088"><ele>534.7</ele><time>2012-07-26T14:07:29.0000000+00:00</time></trkpt><trkpt lat="63.7564621" lon="-19.44867325"><ele>535.1</ele><time>2012-07-26T14:07:34.0000000+00:00</time></trkpt><trkpt lat="63.75646591" lon="-19.44867706"><ele>535.3</ele><time>2012-07-26T14:07:39.0000000+00:00</time></trkpt><trkpt lat="63.75646591" lon="-19.44867706"><ele>535.4</ele><time>2012-07-26T14:07:44.0000000+00:00</time></trkpt><trkpt lat="63.75645447" lon="-19.44868279"><ele>535.5</ele><time>2012-07-26T14:07:49.0000000+00:00</time></trkpt><trkpt lat="63.75641632" lon="-19.4487381"><ele>534.8</ele><time>2012-07-26T14:07:54.0000000+00:00</time></trkpt><trkpt lat="63.7563858" lon="-19.4487915"><ele>535.9</ele><time>2012-07-26T14:07:59.0000000+00:00</time></trkpt><trkpt lat="63.7563591" lon="-19.4488411"><ele>536.7</ele><time>2012-07-26T14:08:04.0000000+00:00</time></trkpt><trkpt lat="63.75631332" lon="-19.44889832"><ele>537.0</ele><time>2012-07-26T14:08:09.0000000+00:00</time></trkpt><trkpt lat="63.75627518" lon="-19.44898033"><ele>537.7</ele><time>2012-07-26T14:08:14.0000000+00:00</time></trkpt><trkpt lat="63.75623322" lon="-19.44902611"><ele>538.2</ele><time>2012-07-26T14:08:19.0000000+00:00</time></trkpt><trkpt lat="63.75617981" lon="-19.4490509"><ele>537.4</ele><time>2012-07-26T14:08:24.0000000+00:00</time></trkpt><trkpt lat="63.75614166" lon="-19.4491024"><ele>538.8</ele><time>2012-07-26T14:08:29.0000000+00:00</time></trkpt><trkpt lat="63.7560997" lon="-19.44912529"><ele>539.1</ele><time>2012-07-26T14:08:34.0000000+00:00</time></trkpt><trkpt lat="63.75606918" lon="-19.44915581"><ele>538.9</ele><time>2012-07-26T14:08:39.0000000+00:00</time></trkpt><trkpt lat="63.75604248" lon="-19.44920158"><ele>540.7</ele><time>2012-07-26T14:08:44.0000000+00:00</time></trkpt><trkpt lat="63.75603104" lon="-19.44921112"><ele>542.1</ele><time>2012-07-26T14:08:49.0000000+00:00</time></trkpt><trkpt lat="63.75601578" lon="-19.44926453"><ele>544.7</ele><time>2012-07-26T14:08:54.0000000+00:00</time></trkpt><trkpt lat="63.75599289" lon="-19.44930649"><ele>545.7</ele><time>2012-07-26T14:08:59.0000000+00:00</time></trkpt><trkpt lat="63.75595856" lon="-19.44934464"><ele>546.4</ele><time>2012-07-26T14:09:04.0000000+00:00</time></trkpt><trkpt lat="63.75593948" lon="-19.44939804"><ele>549.3</ele><time>2012-07-26T14:09:09.0000000+00:00</time></trkpt><trkpt lat="63.75590897" lon="-19.4494381"><ele>549.8</ele><time>2012-07-26T14:09:14.0000000+00:00</time></trkpt><trkpt lat="63.75591278" lon="-19.44942856"><ele>552.1</ele><time>2012-07-26T14:09:19.0000000+00:00</time></trkpt><trkpt lat="63.75591278" lon="-19.44942856"><ele>552.3</ele><time>2012-07-26T14:09:24.0000000+00:00</time></trkpt><trkpt lat="63.75588608" lon="-19.44949341"><ele>552.4</ele><time>2012-07-26T14:09:29.0000000+00:00</time></trkpt><trkpt lat="63.75585175" lon="-19.44954109"><ele>553.4</ele><time>2012-07-26T14:09:34.0000000+00:00</time></trkpt><trkpt lat="63.75582123" lon="-19.44959831"><ele>552.7</ele><time>2012-07-26T14:09:39.0000000+00:00</time></trkpt><trkpt lat="63.7557869" lon="-19.44962692"><ele>552.6</ele><time>2012-07-26T14:09:44.0000000+00:00</time></trkpt><trkpt lat="63.75574493" lon="-19.44965935"><ele>552.8</ele><time>2012-07-26T14:09:49.0000000+00:00</time></trkpt><trkpt lat="63.75571442" lon="-19.44971466"><ele>553.0</ele><time>2012-07-26T14:09:54.0000000+00:00</time></trkpt><trkpt lat="63.75568771" lon="-19.44975662"><ele>553.8</ele><time>2012-07-26T14:09:59.0000000+00:00</time></trkpt><trkpt lat="63.75566101" lon="-19.44981194"><ele>555.7</ele><time>2012-07-26T14:10:04.0000000+00:00</time></trkpt><trkpt lat="63.75562286" lon="-19.44984245"><ele>556.6</ele><time>2012-07-26T14:10:09.0000000+00:00</time></trkpt><trkpt lat="63.7555809" lon="-19.4498558"><ele>556.9</ele><time>2012-07-26T14:10:14.0000000+00:00</time></trkpt><trkpt lat="63.75553894" lon="-19.44989014"><ele>557.2</ele><time>2012-07-26T14:10:19.0000000+00:00</time></trkpt><trkpt lat="63.75550079" lon="-19.4499054"><ele>558.1</ele><time>2012-07-26T14:10:24.0000000+00:00</time></trkpt><trkpt lat="63.75545883" lon="-19.44990158"><ele>559.1</ele><time>2012-07-26T14:10:29.0000000+00:00</time></trkpt><trkpt lat="63.75541687" lon="-19.44991303"><ele>558.8</ele><time>2012-07-26T14:10:34.0000000+00:00</time></trkpt><trkpt lat="63.75538254" lon="-19.44992447"><ele>560.2</ele><time>2012-07-26T14:10:39.0000000+00:00</time></trkpt><trkpt lat="63.75534439" lon="-19.44993782"><ele>561.8</ele><time>2012-07-26T14:10:44.0000000+00:00</time></trkpt><trkpt lat="63.75527954" lon="-19.44995308"><ele>562.8</ele><time>2012-07-26T14:10:49.0000000+00:00</time></trkpt><trkpt lat="63.75524139" lon="-19.44996071"><ele>563.5</ele><time>2012-07-26T14:10:54.0000000+00:00</time></trkpt><trkpt lat="63.75519943" lon="-19.44998932"><ele>564.7</ele><time>2012-07-26T14:10:59.0000000+00:00</time></trkpt><trkpt lat="63.75516129" lon="-19.45002556"><ele>565.8</ele><time>2012-07-26T14:11:04.0000000+00:00</time></trkpt><trkpt lat="63.75511551" lon="-19.45005989"><ele>566.7</ele><time>2012-07-26T14:11:09.0000000+00:00</time></trkpt><trkpt lat="63.75508499" lon="-19.45006561"><ele>567.7</ele><time>2012-07-26T14:11:14.0000000+00:00</time></trkpt><trkpt lat="63.7550354" lon="-19.45009041"><ele>568.5</ele><time>2012-07-26T14:11:19.0000000+00:00</time></trkpt><trkpt lat="63.75492096" lon="-19.45014381"><ele>566.7</ele><time>2012-07-26T14:11:24.0000000+00:00</time></trkpt><trkpt lat="63.75479889" lon="-19.45022392"><ele>568.5</ele><time>2012-07-26T14:11:29.0000000+00:00</time></trkpt><trkpt lat="63.75470352" lon="-19.4502945"><ele>568.7</ele><time>2012-07-26T14:11:34.0000000+00:00</time></trkpt><trkpt lat="63.75460434" lon="-19.45035744"><ele>569.0</ele><time>2012-07-26T14:11:39.0000000+00:00</time></trkpt><trkpt lat="63.75453949" lon="-19.45042038"><ele>569.0</ele><time>2012-07-26T14:11:44.0000000+00:00</time></trkpt><trkpt lat="63.75445938" lon="-19.45051384"><ele>569.1</ele><time>2012-07-26T14:11:49.0000000+00:00</time></trkpt><trkpt lat="63.75437546" lon="-19.45060158"><ele>567.3</ele><time>2012-07-26T14:11:54.0000000+00:00</time></trkpt><trkpt lat="63.75429153" lon="-19.45069504"><ele>567.5</ele><time>2012-07-26T14:11:59.0000000+00:00</time></trkpt><trkpt lat="63.75419998" lon="-19.45079422"><ele>565.8</ele><time>2012-07-26T14:12:04.0000000+00:00</time></trkpt><trkpt lat="63.75411224" lon="-19.4508934"><ele>565.2</ele><time>2012-07-26T14:12:09.0000000+00:00</time></trkpt><trkpt lat="63.75402069" lon="-19.45099068"><ele>564.9</ele><time>2012-07-26T14:12:14.0000000+00:00</time></trkpt><trkpt lat="63.75392151" lon="-19.45109558"><ele>565.3</ele><time>2012-07-26T14:12:19.0000000+00:00</time></trkpt><trkpt lat="63.7538147" lon="-19.45120621"><ele>565.4</ele><time>2012-07-26T14:12:24.0000000+00:00</time></trkpt><trkpt lat="63.75369644" lon="-19.45135307"><ele>565.7</ele><time>2012-07-26T14:12:29.0000000+00:00</time></trkpt><trkpt lat="63.75356293" lon="-19.4515419"><ele>566.0</ele><time>2012-07-26T14:12:34.0000000+00:00</time></trkpt><trkpt lat="63.75339127" lon="-19.45178223"><ele>565.1</ele><time>2012-07-26T14:12:39.0000000+00:00</time></trkpt><trkpt lat="63.75323486" lon="-19.45202828"><ele>564.5</ele><time>2012-07-26T14:12:44.0000000+00:00</time></trkpt><trkpt lat="63.75313187" lon="-19.45220757"><ele>563.4</ele><time>2012-07-26T14:12:49.0000000+00:00</time></trkpt><trkpt lat="63.75311661" lon="-19.45227623"><ele>563.3</ele><time>2012-07-26T14:12:54.0000000+00:00</time></trkpt><trkpt lat="63.75312042" lon="-19.45227814"><ele>564.3</ele><time>2012-07-26T14:12:59.0000000+00:00</time></trkpt><trkpt lat="63.75312042" lon="-19.45228767"><ele>564.5</ele><time>2012-07-26T14:13:04.0000000+00:00</time></trkpt><trkpt lat="63.75310898" lon="-19.4522934"><ele>564.2</ele><time>2012-07-26T14:13:09.0000000+00:00</time></trkpt><trkpt lat="63.75310516" lon="-19.45229149"><ele>564.2</ele><time>2012-07-26T14:13:14.0000000+00:00</time></trkpt><trkpt lat="63.75310516" lon="-19.45228577"><ele>564.1</ele><time>2012-07-26T14:13:19.0000000+00:00</time></trkpt><trkpt lat="63.75309372" lon="-19.45227623"><ele>564.1</ele><time>2012-07-26T14:13:24.0000000+00:00</time></trkpt><trkpt lat="63.75307465" lon="-19.45227242"><ele>564.0</ele><time>2012-07-26T14:13:29.0000000+00:00</time></trkpt><trkpt lat="63.75305939" lon="-19.45224381"><ele>564.0</ele><time>2012-07-26T14:13:34.0000000+00:00</time></trkpt><trkpt lat="63.75304794" lon="-19.45222092"><ele>563.9</ele><time>2012-07-26T14:13:39.0000000+00:00</time></trkpt><trkpt lat="63.75303268" lon="-19.45217705"><ele>563.9</ele><time>2012-07-26T14:13:44.0000000+00:00</time></trkpt><trkpt lat="63.75301743" lon="-19.45211601"><ele>563.8</ele><time>2012-07-26T14:13:49.0000000+00:00</time></trkpt><trkpt lat="63.75300598" lon="-19.45206642"><ele>563.8</ele><time>2012-07-26T14:13:54.0000000+00:00</time></trkpt><trkpt lat="63.75299454" lon="-19.45202446"><ele>563.7</ele><time>2012-07-26T14:13:59.0000000+00:00</time></trkpt><trkpt lat="63.75327683" lon="-19.45235062"><ele>575.7</ele><time>2012-07-26T14:14:22.0000000+00:00</time></trkpt><trkpt lat="63.75325394" lon="-19.45218086"><ele>565.4</ele><time>2012-07-26T14:14:27.0000000+00:00</time></trkpt><trkpt lat="63.75317383" lon="-19.45223618"><ele>561.3</ele><time>2012-07-26T14:14:32.0000000+00:00</time></trkpt><trkpt lat="63.75308991" lon="-19.45232582"><ele>560.1</ele><time>2012-07-26T14:14:37.0000000+00:00</time></trkpt><trkpt lat="63.75302506" lon="-19.45243263"><ele>562.3</ele><time>2012-07-26T14:14:42.0000000+00:00</time></trkpt><trkpt lat="63.75294495" lon="-19.45256043"><ele>561.2</ele><time>2012-07-26T14:14:47.0000000+00:00</time></trkpt><trkpt lat="63.75286484" lon="-19.45266533"><ele>561.1</ele><time>2012-07-26T14:14:52.0000000+00:00</time></trkpt><trkpt lat="63.75278091" lon="-19.45280457"><ele>561.4</ele><time>2012-07-26T14:14:57.0000000+00:00</time></trkpt><trkpt lat="63.75269699" lon="-19.45295334"><ele>562.4</ele><time>2012-07-26T14:15:02.0000000+00:00</time></trkpt><trkpt lat="63.75260544" lon="-19.45306778"><ele>562.6</ele><time>2012-07-26T14:15:07.0000000+00:00</time></trkpt><trkpt lat="63.7525177" lon="-19.45319748"><ele>563.2</ele><time>2012-07-26T14:15:12.0000000+00:00</time></trkpt><trkpt lat="63.75240326" lon="-19.45334816"><ele>563.8</ele><time>2012-07-26T14:15:17.0000000+00:00</time></trkpt><trkpt lat="63.75228882" lon="-19.45352554"><ele>563.9</ele><time>2012-07-26T14:15:22.0000000+00:00</time></trkpt><trkpt lat="63.75218582" lon="-19.453722"><ele>563.9</ele><time>2012-07-26T14:15:27.0000000+00:00</time></trkpt><trkpt lat="63.75207138" lon="-19.45394516"><ele>564.1</ele><time>2012-07-26T14:15:32.0000000+00:00</time></trkpt><trkpt lat="63.75193024" lon="-19.45423126"><ele>563.9</ele><time>2012-07-26T14:15:37.0000000+00:00</time></trkpt><trkpt lat="63.75179291" lon="-19.45449638"><ele>564.5</ele><time>2012-07-26T14:15:42.0000000+00:00</time></trkpt><trkpt lat="63.75164032" lon="-19.45478058"><ele>565.0</ele><time>2012-07-26T14:15:47.0000000+00:00</time></trkpt><trkpt lat="63.75149155" lon="-19.45509338"><ele>564.1</ele><time>2012-07-26T14:15:52.0000000+00:00</time></trkpt><trkpt lat="63.75134277" lon="-19.45541191"><ele>562.4</ele><time>2012-07-26T14:15:57.0000000+00:00</time></trkpt><trkpt lat="63.75118256" lon="-19.4557209"><ele>561.0</ele><time>2012-07-26T14:16:02.0000000+00:00</time></trkpt><trkpt lat="63.75102997" lon="-19.4560051"><ele>559.4</ele><time>2012-07-26T14:16:07.0000000+00:00</time></trkpt><trkpt lat="63.75086594" lon="-19.45638847"><ele>557.0</ele><time>2012-07-26T14:16:12.0000000+00:00</time></trkpt><trkpt lat="63.75066376" lon="-19.45699883"><ele>554.6</ele><time>2012-07-26T14:16:17.0000000+00:00</time></trkpt><trkpt lat="63.75048065" lon="-19.4576931"><ele>552.4</ele><time>2012-07-26T14:16:22.0000000+00:00</time></trkpt><trkpt lat="63.75030899" lon="-19.45848465"><ele>550.7</ele><time>2012-07-26T14:16:27.0000000+00:00</time></trkpt><trkpt lat="63.75019455" lon="-19.45911408"><ele>551.4</ele><time>2012-07-26T14:16:32.0000000+00:00</time></trkpt><trkpt lat="63.75008011" lon="-19.45957947"><ele>549.8</ele><time>2012-07-26T14:16:37.0000000+00:00</time></trkpt><trkpt lat="63.74995804" lon="-19.4601078"><ele>542.5</ele><time>2012-07-26T14:16:42.0000000+00:00</time></trkpt><trkpt lat="63.74978638" lon="-19.46080589"><ele>540.3</ele><time>2012-07-26T14:16:47.0000000+00:00</time></trkpt><trkpt lat="63.74964523" lon="-19.46145821"><ele>541.6</ele><time>2012-07-26T14:16:52.0000000+00:00</time></trkpt><trkpt lat="63.74957275" lon="-19.46192932"><ele>546.1</ele><time>2012-07-26T14:16:57.0000000+00:00</time></trkpt><trkpt lat="63.7495079" lon="-19.46234131"><ele>546.4</ele><time>2012-07-26T14:17:02.0000000+00:00</time></trkpt><trkpt lat="63.7494545" lon="-19.46265984"><ele>547.6</ele><time>2012-07-26T14:17:07.0000000+00:00</time></trkpt><trkpt lat="63.74940109" lon="-19.46291161"><ele>547.3</ele><time>2012-07-26T14:17:12.0000000+00:00</time></trkpt><trkpt lat="63.74936295" lon="-19.46313286"><ele>547.3</ele><time>2012-07-26T14:17:17.0000000+00:00</time></trkpt><trkpt lat="63.74935913" lon="-19.46319008"><ele>548.4</ele><time>2012-07-26T14:17:22.0000000+00:00</time></trkpt><trkpt lat="63.74935913" lon="-19.46318817"><ele>548.7</ele><time>2012-07-26T14:17:27.0000000+00:00</time></trkpt><trkpt lat="63.74935913" lon="-19.46319008"><ele>548.8</ele><time>2012-07-26T14:17:32.0000000+00:00</time></trkpt><trkpt lat="63.74935913" lon="-19.46320534"><ele>548.9</ele><time>2012-07-26T14:17:37.0000000+00:00</time></trkpt><trkpt lat="63.7493515" lon="-19.4632206"><ele>549.0</ele><time>2012-07-26T14:17:42.0000000+00:00</time></trkpt><trkpt lat="63.7493515" lon="-19.46323776"><ele>549.1</ele><time>2012-07-26T14:17:47.0000000+00:00</time></trkpt><trkpt lat="63.74934769" lon="-19.46325302"><ele>549.2</ele><time>2012-07-26T14:17:52.0000000+00:00</time></trkpt><trkpt lat="63.74934387" lon="-19.46325684"><ele>549.3</ele><time>2012-07-26T14:17:57.0000000+00:00</time></trkpt><trkpt lat="63.74927902" lon="-19.46331406"><ele>548.8</ele><time>2012-07-26T14:18:02.0000000+00:00</time></trkpt><trkpt lat="63.74918747" lon="-19.46344948"><ele>548.8</ele><time>2012-07-26T14:18:07.0000000+00:00</time></trkpt><trkpt lat="63.74905014" lon="-19.46357536"><ele>547.2</ele><time>2012-07-26T14:18:12.0000000+00:00</time></trkpt><trkpt lat="63.74892426" lon="-19.46373367"><ele>546.8</ele><time>2012-07-26T14:18:17.0000000+00:00</time></trkpt><trkpt lat="63.74879074" lon="-19.4639988"><ele>543.8</ele><time>2012-07-26T14:18:22.0000000+00:00</time></trkpt><trkpt lat="63.74863434" lon="-19.46430779"><ele>540.6</ele><time>2012-07-26T14:18:27.0000000+00:00</time></trkpt><trkpt lat="63.7485199" lon="-19.46463013"><ele>537.2</ele><time>2012-07-26T14:18:32.0000000+00:00</time></trkpt><trkpt lat="63.7484436" lon="-19.46489906"><ele>534.7</ele><time>2012-07-26T14:18:37.0000000+00:00</time></trkpt><trkpt lat="63.74834824" lon="-19.46523476"><ele>531.3</ele><time>2012-07-26T14:18:42.0000000+00:00</time></trkpt><trkpt lat="63.7482338" lon="-19.46565628"><ele>527.3</ele><time>2012-07-26T14:18:47.0000000+00:00</time></trkpt><trkpt lat="63.74810791" lon="-19.46600723"><ele>524.2</ele><time>2012-07-26T14:18:52.0000000+00:00</time></trkpt><trkpt lat="63.74796677" lon="-19.46617127"><ele>522.8</ele><time>2012-07-26T14:18:57.0000000+00:00</time></trkpt><trkpt lat="63.74779892" lon="-19.46619034"><ele>520.9</ele><time>2012-07-26T14:19:02.0000000+00:00</time></trkpt><trkpt lat="63.74763489" lon="-19.46614456"><ele>519.8</ele><time>2012-07-26T14:19:07.0000000+00:00</time></trkpt><trkpt lat="63.74744415" lon="-19.46606636"><ele>518.2</ele><time>2012-07-26T14:19:12.0000000+00:00</time></trkpt><trkpt lat="63.74727631" lon="-19.46616364"><ele>520.8</ele><time>2012-07-26T14:19:17.0000000+00:00</time></trkpt><trkpt lat="63.74713898" lon="-19.46631432"><ele>523.0</ele><time>2012-07-26T14:19:22.0000000+00:00</time></trkpt><trkpt lat="63.74694061" lon="-19.46634293"><ele>521.1</ele><time>2012-07-26T14:19:27.0000000+00:00</time></trkpt><trkpt lat="63.74670792" lon="-19.46602821"><ele>516.8</ele><time>2012-07-26T14:19:32.0000000+00:00</time></trkpt><trkpt lat="63.74646759" lon="-19.46569824"><ele>515.5</ele><time>2012-07-26T14:19:37.0000000+00:00</time></trkpt><trkpt lat="63.74623489" lon="-19.46581078"><ele>514.3</ele><time>2012-07-26T14:19:42.0000000+00:00</time></trkpt><trkpt lat="63.74609375" lon="-19.46578217"><ele>515.0</ele><time>2012-07-26T14:19:47.0000000+00:00</time></trkpt><trkpt lat="63.74596024" lon="-19.46573257"><ele>516.6</ele><time>2012-07-26T14:19:52.0000000+00:00</time></trkpt><trkpt lat="63.74583817" lon="-19.46571541"><ele>518.8</ele><time>2012-07-26T14:19:57.0000000+00:00</time></trkpt><trkpt lat="63.74568939" lon="-19.46572113"><ele>517.3</ele><time>2012-07-26T14:20:02.0000000+00:00</time></trkpt><trkpt lat="63.74551392" lon="-19.46572495"><ele>516.2</ele><time>2012-07-26T14:20:07.0000000+00:00</time></trkpt><trkpt lat="63.74533844" lon="-19.46563721"><ele>514.8</ele><time>2012-07-26T14:20:12.0000000+00:00</time></trkpt><trkpt lat="63.74520874" lon="-19.4654789"><ele>509.0</ele><time>2012-07-26T14:20:17.0000000+00:00</time></trkpt><trkpt lat="63.74515915" lon="-19.46538925"><ele>506.8</ele><time>2012-07-26T14:20:22.0000000+00:00</time></trkpt><trkpt lat="63.74512863" lon="-19.46540833"><ele>506.6</ele><time>2012-07-26T14:20:27.0000000+00:00</time></trkpt><trkpt lat="63.74510956" lon="-19.46541596"><ele>506.7</ele><time>2012-07-26T14:20:32.0000000+00:00</time></trkpt><trkpt lat="63.74508286" lon="-19.4654026"><ele>506.8</ele><time>2012-07-26T14:20:37.0000000+00:00</time></trkpt><trkpt lat="63.74507141" lon="-19.46538925"><ele>507.0</ele><time>2012-07-26T14:20:42.0000000+00:00</time></trkpt><trkpt lat="63.74505997" lon="-19.46537781"><ele>507.1</ele><time>2012-07-26T14:20:47.0000000+00:00</time></trkpt><trkpt lat="63.74504852" lon="-19.46538544"><ele>507.2</ele><time>2012-07-26T14:20:52.0000000+00:00</time></trkpt><trkpt lat="63.74504471" lon="-19.46539116"><ele>507.2</ele><time>2012-07-26T14:20:57.0000000+00:00</time></trkpt><trkpt lat="63.74504852" lon="-19.46539879"><ele>507.2</ele><time>2012-07-26T14:21:02.0000000+00:00</time></trkpt><trkpt lat="63.74505234" lon="-19.46540833"><ele>507.1</ele><time>2012-07-26T14:21:07.0000000+00:00</time></trkpt><trkpt lat="63.74505997" lon="-19.46541214"><ele>507.1</ele><time>2012-07-26T14:21:12.0000000+00:00</time></trkpt><trkpt lat="63.74507523" lon="-19.46543121"><ele>507.0</ele><time>2012-07-26T14:21:17.0000000+00:00</time></trkpt><trkpt lat="63.7450943" lon="-19.46546936"><ele>506.9</ele><time>2012-07-26T14:21:22.0000000+00:00</time></trkpt><trkpt lat="63.745121" lon="-19.46549034"><ele>506.7</ele><time>2012-07-26T14:21:27.0000000+00:00</time></trkpt><trkpt lat="63.74510193" lon="-19.46538734"><ele>507.2</ele><time>2012-07-26T14:21:32.0000000+00:00</time></trkpt><trkpt lat="63.74496841" lon="-19.46500397"><ele>505.1</ele><time>2012-07-26T14:21:37.0000000+00:00</time></trkpt><trkpt lat="63.74493408" lon="-19.46463585"><ele>504.8</ele><time>2012-07-26T14:21:42.0000000+00:00</time></trkpt><trkpt lat="63.74488831" lon="-19.46429062"><ele>503.1</ele><time>2012-07-26T14:21:47.0000000+00:00</time></trkpt><trkpt lat="63.74489594" lon="-19.46394157"><ele>504.0</ele><time>2012-07-26T14:21:52.0000000+00:00</time></trkpt><trkpt lat="63.74487305" lon="-19.46367264"><ele>503.2</ele><time>2012-07-26T14:21:57.0000000+00:00</time></trkpt><trkpt lat="63.74485779" lon="-19.4634037"><ele>500.8</ele><time>2012-07-26T14:22:02.0000000+00:00</time></trkpt><trkpt lat="63.74485779" lon="-19.46309471"><ele>501.4</ele><time>2012-07-26T14:22:07.0000000+00:00</time></trkpt><trkpt lat="63.74485016" lon="-19.46281624"><ele>502.2</ele><time>2012-07-26T14:22:12.0000000+00:00</time></trkpt><trkpt lat="63.74484634" lon="-19.46257019"><ele>503.2</ele><time>2012-07-26T14:22:17.0000000+00:00</time></trkpt><trkpt lat="63.74481583" lon="-19.46232033"><ele>504.7</ele><time>2012-07-26T14:22:22.0000000+00:00</time></trkpt><trkpt lat="63.74480438" lon="-19.46211052"><ele>504.2</ele><time>2012-07-26T14:22:27.0000000+00:00</time></trkpt><trkpt lat="63.74480057" lon="-19.46190643"><ele>503.9</ele><time>2012-07-26T14:22:32.0000000+00:00</time></trkpt><trkpt lat="63.74483872" lon="-19.46160698"><ele>502.7</ele><time>2012-07-26T14:22:37.0000000+00:00</time></trkpt><trkpt lat="63.74488831" lon="-19.46118736"><ele>501.5</ele><time>2012-07-26T14:22:42.0000000+00:00</time></trkpt><trkpt lat="63.7449379" lon="-19.46069908"><ele>502.1</ele><time>2012-07-26T14:22:47.0000000+00:00</time></trkpt><trkpt lat="63.74494553" lon="-19.46015358"><ele>502.8</ele><time>2012-07-26T14:22:52.0000000+00:00</time></trkpt><trkpt lat="63.74497223" lon="-19.45954323"><ele>503.5</ele><time>2012-07-26T14:22:57.0000000+00:00</time></trkpt><trkpt lat="63.74494553" lon="-19.45883942"><ele>503.8</ele><time>2012-07-26T14:23:02.0000000+00:00</time></trkpt><trkpt lat="63.74481201" lon="-19.45854187"><ele>505.5</ele><time>2012-07-26T14:23:07.0000000+00:00</time></trkpt><trkpt lat="63.74471283" lon="-19.45829392"><ele>506.5</ele><time>2012-07-26T14:23:12.0000000+00:00</time></trkpt><trkpt lat="63.74464798" lon="-19.45797348"><ele>503.4</ele><time>2012-07-26T14:23:17.0000000+00:00</time></trkpt><trkpt lat="63.74462128" lon="-19.45760346"><ele>501.1</ele><time>2012-07-26T14:23:22.0000000+00:00</time></trkpt><trkpt lat="63.74449539" lon="-19.45722008"><ele>502.1</ele><time>2012-07-26T14:23:27.0000000+00:00</time></trkpt><trkpt lat="63.74436951" lon="-19.45677376"><ele>503.0</ele><time>2012-07-26T14:23:32.0000000+00:00</time></trkpt><trkpt lat="63.74423218" lon="-19.45614243"><ele>494.5</ele><time>2012-07-26T14:23:37.0000000+00:00</time></trkpt><trkpt lat="63.74417496" lon="-19.4557209"><ele>489.4</ele><time>2012-07-26T14:23:42.0000000+00:00</time></trkpt><trkpt lat="63.74409485" lon="-19.45543671"><ele>489.0</ele><time>2012-07-26T14:23:47.0000000+00:00</time></trkpt><trkpt lat="63.74387741" lon="-19.45494843"><ele>487.2</ele><time>2012-07-26T14:23:52.0000000+00:00</time></trkpt><trkpt lat="63.74360275" lon="-19.45442772"><ele>482.6</ele><time>2012-07-26T14:23:57.0000000+00:00</time></trkpt><trkpt lat="63.74328232" lon="-19.4539299"><ele>479.3</ele><time>2012-07-26T14:24:02.0000000+00:00</time></trkpt><trkpt lat="63.7429657" lon="-19.45351982"><ele>474.1</ele><time>2012-07-26T14:24:07.0000000+00:00</time></trkpt><trkpt lat="63.74280167" lon="-19.45336533"><ele>470.1</ele><time>2012-07-26T14:24:12.0000000+00:00</time></trkpt><trkpt lat="63.74259567" lon="-19.4532299"><ele>467.8</ele><time>2012-07-26T14:24:17.0000000+00:00</time></trkpt><trkpt lat="63.74225998" lon="-19.45297241"><ele>463.6</ele><time>2012-07-26T14:24:22.0000000+00:00</time></trkpt><trkpt lat="63.74196625" lon="-19.4527607"><ele>461.0</ele><time>2012-07-26T14:24:27.0000000+00:00</time></trkpt><trkpt lat="63.74176788" lon="-19.45292473"><ele>457.3</ele><time>2012-07-26T14:24:32.0000000+00:00</time></trkpt><trkpt lat="63.7416153" lon="-19.453125"><ele>454.0</ele><time>2012-07-26T14:24:37.0000000+00:00</time></trkpt><trkpt lat="63.74147797" lon="-19.45328331"><ele>452.0</ele><time>2012-07-26T14:24:42.0000000+00:00</time></trkpt><trkpt lat="63.74131012" lon="-19.45343018"><ele>448.5</ele><time>2012-07-26T14:24:47.0000000+00:00</time></trkpt><trkpt lat="63.74104691" lon="-19.45370293"><ele>444.6</ele><time>2012-07-26T14:24:52.0000000+00:00</time></trkpt><trkpt lat="63.7407341" lon="-19.45404053"><ele>445.0</ele><time>2012-07-26T14:24:57.0000000+00:00</time></trkpt><trkpt lat="63.74048615" lon="-19.45399284"><ele>442.9</ele><time>2012-07-26T14:25:02.0000000+00:00</time></trkpt><trkpt lat="63.740242" lon="-19.45367432"><ele>441.1</ele><time>2012-07-26T14:25:07.0000000+00:00</time></trkpt><trkpt lat="63.74011231" lon="-19.45334244"><ele>440.2</ele><time>2012-07-26T14:25:12.0000000+00:00</time></trkpt><trkpt lat="63.74000931" lon="-19.45308113"><ele>437.5</ele><time>2012-07-26T14:25:17.0000000+00:00</time></trkpt><trkpt lat="63.7398262" lon="-19.45264626"><ele>432.8</ele><time>2012-07-26T14:25:22.0000000+00:00</time></trkpt><trkpt lat="63.73960495" lon="-19.45235443"><ele>429.0</ele><time>2012-07-26T14:25:27.0000000+00:00</time></trkpt><trkpt lat="63.73932266" lon="-19.45214272"><ele>423.9</ele><time>2012-07-26T14:25:32.0000000+00:00</time></trkpt><trkpt lat="63.73899841" lon="-19.45179176"><ele>421.6</ele><time>2012-07-26T14:25:37.0000000+00:00</time></trkpt><trkpt lat="63.7387085" lon="-19.45140076"><ele>421.2</ele><time>2012-07-26T14:25:42.0000000+00:00</time></trkpt><trkpt lat="63.73855591" lon="-19.45124817"><ele>420.5</ele><time>2012-07-26T14:25:47.0000000+00:00</time></trkpt><trkpt lat="63.73838806" lon="-19.45114517"><ele>419.6</ele><time>2012-07-26T14:25:52.0000000+00:00</time></trkpt><trkpt lat="63.73823929" lon="-19.45112801"><ele>419.0</ele><time>2012-07-26T14:25:57.0000000+00:00</time></trkpt><trkpt lat="63.73809433" lon="-19.45114327"><ele>417.7</ele><time>2012-07-26T14:26:02.0000000+00:00</time></trkpt><trkpt lat="63.73800278" lon="-19.45115471"><ele>417.3</ele><time>2012-07-26T14:26:07.0000000+00:00</time></trkpt><trkpt lat="63.73799896" lon="-19.45118523"><ele>417.0</ele><time>2012-07-26T14:26:12.0000000+00:00</time></trkpt><trkpt lat="63.73799133" lon="-19.45119667"><ele>416.9</ele><time>2012-07-26T14:26:17.0000000+00:00</time></trkpt><trkpt lat="63.73798752" lon="-19.45120049"><ele>416.9</ele><time>2012-07-26T14:26:22.0000000+00:00</time></trkpt><trkpt lat="63.7379837" lon="-19.45120049"><ele>416.9</ele><time>2012-07-26T14:26:27.0000000+00:00</time></trkpt><trkpt lat="63.73797989" lon="-19.45119858"><ele>417.0</ele><time>2012-07-26T14:26:32.0000000+00:00</time></trkpt><trkpt lat="63.73797607" lon="-19.45119667"><ele>417.0</ele><time>2012-07-26T14:26:37.0000000+00:00</time></trkpt><trkpt lat="63.73797607" lon="-19.45119476"><ele>417.0</ele><time>2012-07-26T14:26:42.0000000+00:00</time></trkpt><trkpt lat="63.73797607" lon="-19.45119286"><ele>417.0</ele><time>2012-07-26T14:26:47.0000000+00:00</time></trkpt><trkpt lat="63.73797226" lon="-19.45117569"><ele>416.9</ele><time>2012-07-26T14:26:52.0000000+00:00</time></trkpt><trkpt lat="63.73797226" lon="-19.45117188"><ele>416.8</ele><time>2012-07-26T14:26:57.0000000+00:00</time></trkpt><trkpt lat="63.73797226" lon="-19.45116425"><ele>416.7</ele><time>2012-07-26T14:27:02.0000000+00:00</time></trkpt><trkpt lat="63.73797226" lon="-19.4511528"><ele>416.7</ele><time>2012-07-26T14:27:07.0000000+00:00</time></trkpt><trkpt lat="63.73797607" lon="-19.45113945"><ele>416.7</ele><time>2012-07-26T14:27:12.0000000+00:00</time></trkpt><trkpt lat="63.73792648" lon="-19.45113182"><ele>415.4</ele><time>2012-07-26T14:27:17.0000000+00:00</time></trkpt><trkpt lat="63.73779297" lon="-19.45104218"><ele>412.3</ele><time>2012-07-26T14:27:22.0000000+00:00</time></trkpt><trkpt lat="63.73763657" lon="-19.4508915"><ele>409.3</ele><time>2012-07-26T14:27:27.0000000+00:00</time></trkpt><trkpt lat="63.73745346" lon="-19.45070648"><ele>405.6</ele><time>2012-07-26T14:27:32.0000000+00:00</time></trkpt><trkpt lat="63.73728943" lon="-19.4507103"><ele>403.1</ele><time>2012-07-26T14:27:37.0000000+00:00</time></trkpt><trkpt lat="63.73710251" lon="-19.45106316"><ele>402.6</ele><time>2012-07-26T14:27:42.0000000+00:00</time></trkpt><trkpt lat="63.73698044" lon="-19.45145607"><ele>400.1</ele><time>2012-07-26T14:27:47.0000000+00:00</time></trkpt><trkpt lat="63.73694992" lon="-19.45170212"><ele>399.8</ele><time>2012-07-26T14:27:52.0000000+00:00</time></trkpt><trkpt lat="63.73693848" lon="-19.451931"><ele>399.1</ele><time>2012-07-26T14:27:57.0000000+00:00</time></trkpt><trkpt lat="63.73693466" lon="-19.45206833"><ele>399.1</ele><time>2012-07-26T14:28:02.0000000+00:00</time></trkpt><trkpt lat="63.73693466" lon="-19.45206451"><ele>399.0</ele><time>2012-07-26T14:28:07.0000000+00:00</time></trkpt><trkpt lat="63.73694229" lon="-19.45205498"><ele>399.1</ele><time>2012-07-26T14:28:12.0000000+00:00</time></trkpt><trkpt lat="63.73694229" lon="-19.45205498"><ele>399.0</ele><time>2012-07-26T14:28:17.0000000+00:00</time></trkpt><trkpt lat="63.73693085" lon="-19.45205498"><ele>399.0</ele><time>2012-07-26T14:28:22.0000000+00:00</time></trkpt><trkpt lat="63.73691559" lon="-19.45218849"><ele>399.0</ele><time>2012-07-26T14:28:27.0000000+00:00</time></trkpt><trkpt lat="63.73691559" lon="-19.45250893"><ele>399.1</ele><time>2012-07-26T14:28:32.0000000+00:00</time></trkpt><trkpt lat="63.73693085" lon="-19.45281601"><ele>397.9</ele><time>2012-07-26T14:28:37.0000000+00:00</time></trkpt><trkpt lat="63.73692322" lon="-19.45321274"><ele>395.5</ele><time>2012-07-26T14:28:42.0000000+00:00</time></trkpt><trkpt lat="63.73683167" lon="-19.45379257"><ele>390.8</ele><time>2012-07-26T14:28:47.0000000+00:00</time></trkpt><trkpt lat="63.73666382" lon="-19.45433044"><ele>387.0</ele><time>2012-07-26T14:28:52.0000000+00:00</time></trkpt><trkpt lat="63.7364502" lon="-19.45463753"><ele>382.5</ele><time>2012-07-26T14:28:57.0000000+00:00</time></trkpt><trkpt lat="63.73628998" lon="-19.45488548"><ele>379.7</ele><time>2012-07-26T14:29:02.0000000+00:00</time></trkpt><trkpt lat="63.73611832" lon="-19.45505905"><ele>376.5</ele><time>2012-07-26T14:29:07.0000000+00:00</time></trkpt><trkpt lat="63.73595429" lon="-19.45523834"><ele>373.0</ele><time>2012-07-26T14:29:12.0000000+00:00</time></trkpt><trkpt lat="63.7358284" lon="-19.45539856"><ele>370.6</ele><time>2012-07-26T14:29:17.0000000+00:00</time></trkpt><trkpt lat="63.73581314" lon="-19.45542717"><ele>370.0</ele><time>2012-07-26T14:29:22.0000000+00:00</time></trkpt><trkpt lat="63.73581314" lon="-19.45542717"><ele>369.8</ele><time>2012-07-26T14:29:27.0000000+00:00</time></trkpt><trkpt lat="63.73581696" lon="-19.45543289"><ele>369.8</ele><time>2012-07-26T14:29:32.0000000+00:00</time></trkpt><trkpt lat="63.73581696" lon="-19.45543671"><ele>369.8</ele><time>2012-07-26T14:29:37.0000000+00:00</time></trkpt><trkpt lat="63.73580933" lon="-19.45544815"><ele>369.8</ele><time>2012-07-26T14:29:42.0000000+00:00</time></trkpt><trkpt lat="63.73569489" lon="-19.45554352"><ele>369.5</ele><time>2012-07-26T14:29:47.0000000+00:00</time></trkpt><trkpt lat="63.73553848" lon="-19.45573044"><ele>368.1</ele><time>2012-07-26T14:29:52.0000000+00:00</time></trkpt><trkpt lat="63.73540497" lon="-19.4560051"><ele>368.2</ele><time>2012-07-26T14:29:57.0000000+00:00</time></trkpt><trkpt lat="63.73530197" lon="-19.45629311"><ele>366.4</ele><time>2012-07-26T14:30:02.0000000+00:00</time></trkpt><trkpt lat="63.73523712" lon="-19.45659828"><ele>361.0</ele><time>2012-07-26T14:30:07.0000000+00:00</time></trkpt><trkpt lat="63.73521805" lon="-19.45661736"><ele>359.4</ele><time>2012-07-26T14:30:12.0000000+00:00</time></trkpt><trkpt lat="63.73521805" lon="-19.45661736"><ele>359.0</ele><time>2012-07-26T14:30:17.0000000+00:00</time></trkpt><trkpt lat="63.73519516" lon="-19.45670891"><ele>357.8</ele><time>2012-07-26T14:30:22.0000000+00:00</time></trkpt><trkpt lat="63.73514175" lon="-19.45699692"><ele>355.9</ele><time>2012-07-26T14:30:27.0000000+00:00</time></trkpt><trkpt lat="63.73509598" lon="-19.45730591"><ele>356.3</ele><time>2012-07-26T14:30:32.0000000+00:00</time></trkpt><trkpt lat="63.73503494" lon="-19.45750809"><ele>354.8</ele><time>2012-07-26T14:30:37.0000000+00:00</time></trkpt><trkpt lat="63.73493195" lon="-19.45764351"><ele>352.6</ele><time>2012-07-26T14:30:42.0000000+00:00</time></trkpt><trkpt lat="63.73480225" lon="-19.4577446"><ele>351.0</ele><time>2012-07-26T14:30:47.0000000+00:00</time></trkpt><trkpt lat="63.73463059" lon="-19.45796013"><ele>347.6</ele><time>2012-07-26T14:30:52.0000000+00:00</time></trkpt><trkpt lat="63.73445129" lon="-19.45816422"><ele>344.5</ele><time>2012-07-26T14:30:57.0000000+00:00</time></trkpt><trkpt lat="63.73427582" lon="-19.45833206"><ele>342.6</ele><time>2012-07-26T14:31:02.0000000+00:00</time></trkpt><trkpt lat="63.73411942" lon="-19.45860481"><ele>338.6</ele><time>2012-07-26T14:31:07.0000000+00:00</time></trkpt><trkpt lat="63.73400879" lon="-19.4588871"><ele>338.1</ele><time>2012-07-26T14:31:12.0000000+00:00</time></trkpt><trkpt lat="63.73390579" lon="-19.45913506"><ele>337.3</ele><time>2012-07-26T14:31:17.0000000+00:00</time></trkpt><trkpt lat="63.73374939" lon="-19.45938683"><ele>334.5</ele><time>2012-07-26T14:31:22.0000000+00:00</time></trkpt><trkpt lat="63.73361588" lon="-19.4596653"><ele>330.8</ele><time>2012-07-26T14:31:27.0000000+00:00</time></trkpt><trkpt lat="63.73350143" lon="-19.46001625"><ele>326.3</ele><time>2012-07-26T14:31:32.0000000+00:00</time></trkpt><trkpt lat="63.73336792" lon="-19.46033859"><ele>324.6</ele><time>2012-07-26T14:31:37.0000000+00:00</time></trkpt><trkpt lat="63.73321152" lon="-19.46051979"><ele>324.6</ele><time>2012-07-26T14:31:42.0000000+00:00</time></trkpt><trkpt lat="63.73302841" lon="-19.46066856"><ele>321.7</ele><time>2012-07-26T14:31:47.0000000+00:00</time></trkpt><trkpt lat="63.73287964" lon="-19.46083832"><ele>320.4</ele><time>2012-07-26T14:31:52.0000000+00:00</time></trkpt><trkpt lat="63.73270798" lon="-19.46111488"><ele>320.8</ele><time>2012-07-26T14:31:57.0000000+00:00</time></trkpt><trkpt lat="63.73249054" lon="-19.46131706"><ele>320.3</ele><time>2012-07-26T14:32:02.0000000+00:00</time></trkpt><trkpt lat="63.73224258" lon="-19.4614315"><ele>318.5</ele><time>2012-07-26T14:32:07.0000000+00:00</time></trkpt><trkpt lat="63.73204041" lon="-19.46171188"><ele>317.8</ele><time>2012-07-26T14:32:12.0000000+00:00</time></trkpt><trkpt lat="63.731884" lon="-19.46203041"><ele>315.4</ele><time>2012-07-26T14:32:17.0000000+00:00</time></trkpt><trkpt lat="63.7317543" lon="-19.46233749"><ele>314.0</ele><time>2012-07-26T14:32:22.0000000+00:00</time></trkpt><trkpt lat="63.73164749" lon="-19.46256828"><ele>312.3</ele><time>2012-07-26T14:32:27.0000000+00:00</time></trkpt><trkpt lat="63.73154068" lon="-19.46283531"><ele>311.7</ele><time>2012-07-26T14:32:32.0000000+00:00</time></trkpt><trkpt lat="63.73147583" lon="-19.4631176"><ele>311.4</ele><time>2012-07-26T14:32:37.0000000+00:00</time></trkpt><trkpt lat="63.73143387" lon="-19.46338844"><ele>310.1</ele><time>2012-07-26T14:32:42.0000000+00:00</time></trkpt><trkpt lat="63.73140717" lon="-19.46369743"><ele>308.4</ele><time>2012-07-26T14:32:47.0000000+00:00</time></trkpt><trkpt lat="63.73137283" lon="-19.46419334"><ele>305.3</ele><time>2012-07-26T14:32:52.0000000+00:00</time></trkpt><trkpt lat="63.7313385" lon="-19.4648304"><ele>302.3</ele><time>2012-07-26T14:32:57.0000000+00:00</time></trkpt><trkpt lat="63.7312851" lon="-19.4656353"><ele>298.7</ele><time>2012-07-26T14:33:02.0000000+00:00</time></trkpt><trkpt lat="63.73121262" lon="-19.46647072"><ele>295.6</ele><time>2012-07-26T14:33:07.0000000+00:00</time></trkpt><trkpt lat="63.73112106" lon="-19.46707153"><ele>293.1</ele><time>2012-07-26T14:33:12.0000000+00:00</time></trkpt><trkpt lat="63.73104858" lon="-19.46736145"><ele>292.7</ele><time>2012-07-26T14:33:17.0000000+00:00</time></trkpt><trkpt lat="63.73097229" lon="-19.46763992"><ele>293.4</ele><time>2012-07-26T14:33:22.0000000+00:00</time></trkpt><trkpt lat="63.73088455" lon="-19.46788025"><ele>290.8</ele><time>2012-07-26T14:33:27.0000000+00:00</time></trkpt><trkpt lat="63.73078156" lon="-19.46813202"><ele>287.7</ele><time>2012-07-26T14:33:32.0000000+00:00</time></trkpt><trkpt lat="63.73064041" lon="-19.46840668"><ele>286.7</ele><time>2012-07-26T14:33:37.0000000+00:00</time></trkpt><trkpt lat="63.73048019" lon="-19.46855927"><ele>285.2</ele><time>2012-07-26T14:33:42.0000000+00:00</time></trkpt><trkpt lat="63.73029327" lon="-19.46866608"><ele>283.0</ele><time>2012-07-26T14:33:47.0000000+00:00</time></trkpt><trkpt lat="63.73004913" lon="-19.46887207"><ele>282.4</ele><time>2012-07-26T14:33:52.0000000+00:00</time></trkpt><trkpt lat="63.72979736" lon="-19.46928406"><ele>284.8</ele><time>2012-07-26T14:33:57.0000000+00:00</time></trkpt><trkpt lat="63.72964096" lon="-19.46984863"><ele>283.2</ele><time>2012-07-26T14:34:02.0000000+00:00</time></trkpt><trkpt lat="63.72954941" lon="-19.47038841"><ele>282.3</ele><time>2012-07-26T14:34:07.0000000+00:00</time></trkpt><trkpt lat="63.7294426" lon="-19.47081375"><ele>281.9</ele><time>2012-07-26T14:34:12.0000000+00:00</time></trkpt><trkpt lat="63.72938156" lon="-19.47114945"><ele>280.4</ele><time>2012-07-26T14:34:17.0000000+00:00</time></trkpt><trkpt lat="63.7293663" lon="-19.47126198"><ele>281.1</ele><time>2012-07-26T14:34:22.0000000+00:00</time></trkpt><trkpt lat="63.72936249" lon="-19.47125816"><ele>281.6</ele><time>2012-07-26T14:34:27.0000000+00:00</time></trkpt><trkpt lat="63.72935486" lon="-19.47126198"><ele>281.6</ele><time>2012-07-26T14:34:32.0000000+00:00</time></trkpt><trkpt lat="63.72932434" lon="-19.47126389"><ele>281.7</ele><time>2012-07-26T14:34:37.0000000+00:00</time></trkpt><trkpt lat="63.72930145" lon="-19.47138214"><ele>282.4</ele><time>2012-07-26T14:34:42.0000000+00:00</time></trkpt><trkpt lat="63.72929764" lon="-19.47149086"><ele>281.9</ele><time>2012-07-26T14:34:47.0000000+00:00</time></trkpt><trkpt lat="63.72930145" lon="-19.47159004"><ele>281.9</ele><time>2012-07-26T14:34:52.0000000+00:00</time></trkpt><trkpt lat="63.72931671" lon="-19.4716816"><ele>281.3</ele><time>2012-07-26T14:34:57.0000000+00:00</time></trkpt><trkpt lat="63.72928619" lon="-19.47160721"><ele>281.1</ele><time>2012-07-26T14:35:02.0000000+00:00</time></trkpt><trkpt lat="63.72929764" lon="-19.4716053"><ele>283.3</ele><time>2012-07-26T14:35:07.0000000+00:00</time></trkpt><trkpt lat="63.72930145" lon="-19.47159576"><ele>283.1</ele><time>2012-07-26T14:35:12.0000000+00:00</time></trkpt><trkpt lat="63.72929382" lon="-19.47158814"><ele>283.0</ele><time>2012-07-26T14:35:17.0000000+00:00</time></trkpt><trkpt lat="63.72927856" lon="-19.47162437"><ele>283.4</ele><time>2012-07-26T14:35:22.0000000+00:00</time></trkpt><trkpt lat="63.72927094" lon="-19.47163963"><ele>283.5</ele><time>2012-07-26T14:35:27.0000000+00:00</time></trkpt><trkpt lat="63.72927856" lon="-19.47164726"><ele>283.5</ele><time>2012-07-26T14:35:32.0000000+00:00</time></trkpt><trkpt lat="63.72929382" lon="-19.47165108"><ele>284.1</ele><time>2012-07-26T14:35:37.0000000+00:00</time></trkpt><trkpt lat="63.72930145" lon="-19.47164154"><ele>283.5</ele><time>2012-07-26T14:35:42.0000000+00:00</time></trkpt><trkpt lat="63.72927856" lon="-19.47173691"><ele>283.0</ele><time>2012-07-26T14:35:47.0000000+00:00</time></trkpt><trkpt lat="63.72927856" lon="-19.47171783"><ele>283.8</ele><time>2012-07-26T14:35:52.0000000+00:00</time></trkpt><trkpt lat="63.72927475" lon="-19.47171402"><ele>284.0</ele><time>2012-07-26T14:35:57.0000000+00:00</time></trkpt><trkpt lat="63.72927856" lon="-19.47171402"><ele>283.9</ele><time>2012-07-26T14:36:02.0000000+00:00</time></trkpt><trkpt lat="63.72927856" lon="-19.47171593"><ele>283.9</ele><time>2012-07-26T14:36:07.0000000+00:00</time></trkpt><trkpt lat="63.72927856" lon="-19.47171974"><ele>283.9</ele><time>2012-07-26T14:36:12.0000000+00:00</time></trkpt><trkpt lat="63.72927856" lon="-19.47171974"><ele>283.9</ele><time>2012-07-26T14:36:17.0000000+00:00</time></trkpt><trkpt lat="63.72927856" lon="-19.47171974"><ele>283.9</ele><time>2012-07-26T14:36:22.0000000+00:00</time></trkpt><trkpt lat="63.72927856" lon="-19.47172165"><ele>283.9</ele><time>2012-07-26T14:36:27.0000000+00:00</time></trkpt><trkpt lat="63.72927856" lon="-19.47172356"><ele>283.8</ele><time>2012-07-26T14:36:32.0000000+00:00</time></trkpt><trkpt lat="63.72927856" lon="-19.47172546"><ele>283.8</ele><time>2012-07-26T14:36:37.0000000+00:00</time></trkpt><trkpt lat="63.72927856" lon="-19.47172546"><ele>283.8</ele><time>2012-07-26T14:36:42.0000000+00:00</time></trkpt><trkpt lat="63.72927856" lon="-19.47172737"><ele>283.8</ele><time>2012-07-26T14:36:47.0000000+00:00</time></trkpt><trkpt lat="63.72927475" lon="-19.47173309"><ele>283.8</ele><time>2012-07-26T14:36:52.0000000+00:00</time></trkpt><trkpt lat="63.72927094" lon="-19.47173691"><ele>283.8</ele><time>2012-07-26T14:36:57.0000000+00:00</time></trkpt><trkpt lat="63.72927094" lon="-19.47174263"><ele>283.8</ele><time>2012-07-26T14:37:02.0000000+00:00</time></trkpt><trkpt lat="63.72926712" lon="-19.47174835"><ele>283.8</ele><time>2012-07-26T14:37:07.0000000+00:00</time></trkpt><trkpt lat="63.72926712" lon="-19.47175407"><ele>283.8</ele><time>2012-07-26T14:37:12.0000000+00:00</time></trkpt><trkpt lat="63.72926712" lon="-19.47176361"><ele>283.8</ele><time>2012-07-26T14:37:17.0000000+00:00</time></trkpt><trkpt lat="63.72927856" lon="-19.47176933"><ele>283.9</ele><time>2012-07-26T14:37:22.0000000+00:00</time></trkpt><trkpt lat="63.72928238" lon="-19.47175407"><ele>283.9</ele><time>2012-07-26T14:37:27.0000000+00:00</time></trkpt><trkpt lat="63.72930908" lon="-19.47170448"><ele>283.9</ele><time>2012-07-26T14:37:32.0000000+00:00</time></trkpt><trkpt lat="63.72932816" lon="-19.47170448"><ele>283.9</ele><time>2012-07-26T14:37:37.0000000+00:00</time></trkpt><trkpt lat="63.72932053" lon="-19.47166824"><ele>284.0</ele><time>2012-07-26T14:37:42.0000000+00:00</time></trkpt><trkpt lat="63.72934341" lon="-19.47165299"><ele>284.0</ele><time>2012-07-26T14:37:47.0000000+00:00</time></trkpt><trkpt lat="63.72935486" lon="-19.47162819"><ele>284.0</ele><time>2012-07-26T14:37:52.0000000+00:00</time></trkpt><trkpt lat="63.72932434" lon="-19.47164726"><ele>284.0</ele><time>2012-07-26T14:37:57.0000000+00:00</time></trkpt><trkpt lat="63.72932816" lon="-19.4716568"><ele>284.0</ele><time>2012-07-26T14:38:02.0000000+00:00</time></trkpt><trkpt lat="63.72932434" lon="-19.47166634"><ele>284.0</ele><time>2012-07-26T14:38:07.0000000+00:00</time></trkpt><trkpt lat="63.72932434" lon="-19.47166824"><ele>284.0</ele><time>2012-07-26T14:38:12.0000000+00:00</time></trkpt><trkpt lat="63.72932053" lon="-19.47167206"><ele>284.0</ele><time>2012-07-26T14:38:17.0000000+00:00</time></trkpt><trkpt lat="63.72931671" lon="-19.47167587"><ele>284.1</ele><time>2012-07-26T14:38:22.0000000+00:00</time></trkpt><trkpt lat="63.7293129" lon="-19.4716816"><ele>284.1</ele><time>2012-07-26T14:38:27.0000000+00:00</time></trkpt><trkpt lat="63.72930527" lon="-19.47168732"><ele>284.3</ele><time>2012-07-26T14:38:32.0000000+00:00</time></trkpt><trkpt lat="63.72929764" lon="-19.47169304"><ele>284.4</ele><time>2012-07-26T14:38:37.0000000+00:00</time></trkpt><trkpt lat="63.72929382" lon="-19.47169304"><ele>284.6</ele><time>2012-07-26T14:38:42.0000000+00:00</time></trkpt><trkpt lat="63.72929382" lon="-19.4716835"><ele>284.8</ele><time>2012-07-26T14:38:47.0000000+00:00</time></trkpt><trkpt lat="63.72929382" lon="-19.4716835"><ele>284.9</ele><time>2012-07-26T14:38:52.0000000+00:00</time></trkpt><trkpt lat="63.72929382" lon="-19.4716835"><ele>285.0</ele><time>2012-07-26T14:38:57.0000000+00:00</time></trkpt><trkpt lat="63.72929382" lon="-19.4716835"><ele>285.0</ele><time>2012-07-26T14:39:02.0000000+00:00</time></trkpt><trkpt lat="63.72929382" lon="-19.4716835"><ele>285.0</ele><time>2012-07-26T14:39:07.0000000+00:00</time></trkpt><trkpt lat="63.72929382" lon="-19.4716835"><ele>285.0</ele><time>2012-07-26T14:39:12.0000000+00:00</time></trkpt><trkpt lat="63.72929382" lon="-19.4716816"><ele>285.0</ele><time>2012-07-26T14:39:17.0000000+00:00</time></trkpt><trkpt lat="63.72929382" lon="-19.4716816"><ele>285.0</ele><time>2012-07-26T14:39:22.0000000+00:00</time></trkpt><trkpt lat="63.72929382" lon="-19.4716816"><ele>285.0</ele><time>2012-07-26T14:39:27.0000000+00:00</time></trkpt><trkpt lat="63.72929382" lon="-19.4716816"><ele>285.0</ele><time>2012-07-26T14:39:32.0000000+00:00</time></trkpt><trkpt lat="63.72929382" lon="-19.4716816"><ele>284.9</ele><time>2012-07-26T14:39:37.0000000+00:00</time></trkpt><trkpt lat="63.72929382" lon="-19.4716816"><ele>284.9</ele><time>2012-07-26T14:39:42.0000000+00:00</time></trkpt><trkpt lat="63.72929382" lon="-19.4716816"><ele>284.9</ele><time>2012-07-26T14:39:47.0000000+00:00</time></trkpt><trkpt lat="63.72929382" lon="-19.47167969"><ele>284.9</ele><time>2012-07-26T14:39:52.0000000+00:00</time></trkpt><trkpt lat="63.72929382" lon="-19.47167969"><ele>285.0</ele><time>2012-07-26T14:39:57.0000000+00:00</time></trkpt><trkpt lat="63.72929382" lon="-19.47167969"><ele>285.0</ele><time>2012-07-26T14:40:02.0000000+00:00</time></trkpt><trkpt lat="63.72929382" lon="-19.47167969"><ele>285.0</ele><time>2012-07-26T14:40:07.0000000+00:00</time></trkpt><trkpt lat="63.72929382" lon="-19.47167969"><ele>285.0</ele><time>2012-07-26T14:40:12.0000000+00:00</time></trkpt><trkpt lat="63.72929382" lon="-19.47167969"><ele>285.0</ele><time>2012-07-26T14:40:17.0000000+00:00</time></trkpt><trkpt lat="63.72929382" lon="-19.47167969"><ele>285.0</ele><time>2012-07-26T14:40:22.0000000+00:00</time></trkpt><trkpt lat="63.72929382" lon="-19.47167778"><ele>285.0</ele><time>2012-07-26T14:40:27.0000000+00:00</time></trkpt><trkpt lat="63.72929001" lon="-19.47167778"><ele>285.0</ele><time>2012-07-26T14:40:32.0000000+00:00</time></trkpt><trkpt lat="63.72929001" lon="-19.47167778"><ele>285.0</ele><time>2012-07-26T14:40:37.0000000+00:00</time></trkpt><trkpt lat="63.72929001" lon="-19.47167778"><ele>285.0</ele><time>2012-07-26T14:40:42.0000000+00:00</time></trkpt><trkpt lat="63.72929001" lon="-19.47167778"><ele>285.0</ele><time>2012-07-26T14:40:47.0000000+00:00</time></trkpt><trkpt lat="63.72929001" lon="-19.47167778"><ele>285.0</ele><time>2012-07-26T14:40:52.0000000+00:00</time></trkpt><trkpt lat="63.72929001" lon="-19.47167778"><ele>285.0</ele><time>2012-07-26T14:40:57.0000000+00:00</time></trkpt><trkpt lat="63.72929001" lon="-19.47167587"><ele>285.0</ele><time>2012-07-26T14:41:02.0000000+00:00</time></trkpt><trkpt lat="63.72929001" lon="-19.47167778"><ele>285.0</ele><time>2012-07-26T14:41:07.0000000+00:00</time></trkpt><trkpt lat="63.72929001" lon="-19.47167778"><ele>285.0</ele><time>2012-07-26T14:41:12.0000000+00:00</time></trkpt><trkpt lat="63.72929001" lon="-19.47167587"><ele>285.0</ele><time>2012-07-26T14:41:17.0000000+00:00</time></trkpt><trkpt lat="63.72929001" lon="-19.47167778"><ele>285.0</ele><time>2012-07-26T14:41:22.0000000+00:00</time></trkpt><trkpt lat="63.72929001" lon="-19.47167587"><ele>285.0</ele><time>2012-07-26T14:41:27.0000000+00:00</time></trkpt><trkpt lat="63.72929001" lon="-19.47167587"><ele>285.0</ele><time>2012-07-26T14:41:32.0000000+00:00</time></trkpt><trkpt lat="63.72929001" lon="-19.47167587"><ele>285.0</ele><time>2012-07-26T14:41:37.0000000+00:00</time></trkpt><trkpt lat="63.72929001" lon="-19.47167587"><ele>284.9</ele><time>2012-07-26T14:41:42.0000000+00:00</time></trkpt><trkpt lat="63.72929001" lon="-19.47167587"><ele>284.9</ele><time>2012-07-26T14:41:47.0000000+00:00</time></trkpt><trkpt lat="63.72929001" lon="-19.47167587"><ele>284.9</ele><time>2012-07-26T14:41:52.0000000+00:00</time></trkpt><trkpt lat="63.72929001" lon="-19.47167587"><ele>284.9</ele><time>2012-07-26T14:41:57.0000000+00:00</time></trkpt><trkpt lat="63.72929382" lon="-19.47167587"><ele>285.0</ele><time>2012-07-26T14:42:02.0000000+00:00</time></trkpt><trkpt lat="63.72929382" lon="-19.47167587"><ele>285.0</ele><time>2012-07-26T14:42:07.0000000+00:00</time></trkpt><trkpt lat="63.72929382" lon="-19.47167587"><ele>285.0</ele><time>2012-07-26T14:42:12.0000000+00:00</time></trkpt><trkpt lat="63.72929382" lon="-19.47167587"><ele>285.0</ele><time>2012-07-26T14:42:17.0000000+00:00</time></trkpt><trkpt lat="63.72929382" lon="-19.47167587"><ele>285.0</ele><time>2012-07-26T14:42:22.0000000+00:00</time></trkpt><trkpt lat="63.72929382" lon="-19.47167587"><ele>285.0</ele><time>2012-07-26T14:42:27.0000000+00:00</time></trkpt><trkpt lat="63.72929382" lon="-19.47167587"><ele>285.0</ele><time>2012-07-26T14:42:32.0000000+00:00</time></trkpt><trkpt lat="63.72929382" lon="-19.47167587"><ele>285.0</ele><time>2012-07-26T14:42:37.0000000+00:00</time></trkpt><trkpt lat="63.72929382" lon="-19.47167587"><ele>285.0</ele><time>2012-07-26T14:42:42.0000000+00:00</time></trkpt><trkpt lat="63.72929382" lon="-19.47167587"><ele>285.0</ele><time>2012-07-26T14:42:47.0000000+00:00</time></trkpt><trkpt lat="63.72929382" lon="-19.47167587"><ele>285.0</ele><time>2012-07-26T14:42:52.0000000+00:00</time></trkpt><trkpt lat="63.72929382" lon="-19.47167587"><ele>285.0</ele><time>2012-07-26T14:42:57.0000000+00:00</time></trkpt><trkpt lat="63.72929382" lon="-19.47167397"><ele>285.0</ele><time>2012-07-26T14:43:02.0000000+00:00</time></trkpt><trkpt lat="63.72929382" lon="-19.47167397"><ele>285.0</ele><time>2012-07-26T14:43:07.0000000+00:00</time></trkpt><trkpt lat="63.72929382" lon="-19.47167397"><ele>285.0</ele><time>2012-07-26T14:43:12.0000000+00:00</time></trkpt><trkpt lat="63.72929382" lon="-19.47167397"><ele>285.0</ele><time>2012-07-26T14:43:17.0000000+00:00</time></trkpt><trkpt lat="63.72929382" lon="-19.47167397"><ele>285.1</ele><time>2012-07-26T14:43:22.0000000+00:00</time></trkpt><trkpt lat="63.72929382" lon="-19.47167397"><ele>285.1</ele><time>2012-07-26T14:43:27.0000000+00:00</time></trkpt><trkpt lat="63.72929382" lon="-19.47167397"><ele>285.1</ele><time>2012-07-26T14:43:32.0000000+00:00</time></trkpt><trkpt lat="63.72929382" lon="-19.47167397"><ele>285.1</ele><time>2012-07-26T14:43:37.0000000+00:00</time></trkpt><trkpt lat="63.72929382" lon="-19.47167397"><ele>285.1</ele><time>2012-07-26T14:43:42.0000000+00:00</time></trkpt><trkpt lat="63.72929382" lon="-19.47167397"><ele>285.1</ele><time>2012-07-26T14:43:47.0000000+00:00</time></trkpt><trkpt lat="63.72929382" lon="-19.47167397"><ele>285.1</ele><time>2012-07-26T14:43:52.0000000+00:00</time></trkpt><trkpt lat="63.72929382" lon="-19.47167397"><ele>285.1</ele><time>2012-07-26T14:43:57.0000000+00:00</time></trkpt><trkpt lat="63.72929382" lon="-19.47167397"><ele>285.1</ele><time>2012-07-26T14:44:02.0000000+00:00</time></trkpt><trkpt lat="63.72929001" lon="-19.47167397"><ele>285.1</ele><time>2012-07-26T14:44:07.0000000+00:00</time></trkpt><trkpt lat="63.72929001" lon="-19.47167397"><ele>285.1</ele><time>2012-07-26T14:44:12.0000000+00:00</time></trkpt><trkpt lat="63.72929001" lon="-19.47167397"><ele>285.1</ele><time>2012-07-26T14:44:17.0000000+00:00</time></trkpt><trkpt lat="63.72929001" lon="-19.47167397"><ele>285.1</ele><time>2012-07-26T14:44:22.0000000+00:00</time></trkpt><trkpt lat="63.72929001" lon="-19.47167397"><ele>285.1</ele><time>2012-07-26T14:44:27.0000000+00:00</time></trkpt><trkpt lat="63.72929001" lon="-19.47167587"><ele>285.0</ele><time>2012-07-26T14:44:32.0000000+00:00</time></trkpt><trkpt lat="63.72929001" lon="-19.47167587"><ele>285.0</ele><time>2012-07-26T14:44:37.0000000+00:00</time></trkpt><trkpt lat="63.72929001" lon="-19.47167587"><ele>285.0</ele><time>2012-07-26T14:44:42.0000000+00:00</time></trkpt><trkpt lat="63.72929001" lon="-19.47167587"><ele>285.0</ele><time>2012-07-26T14:44:47.0000000+00:00</time></trkpt><trkpt lat="63.72929001" lon="-19.47167587"><ele>285.0</ele><time>2012-07-26T14:44:52.0000000+00:00</time></trkpt><trkpt lat="63.72929001" lon="-19.47167587"><ele>285.0</ele><time>2012-07-26T14:44:57.0000000+00:00</time></trkpt><trkpt lat="63.72929001" lon="-19.47167587"><ele>285.0</ele><time>2012-07-26T14:45:02.0000000+00:00</time></trkpt><trkpt lat="63.72929001" lon="-19.47167587"><ele>285.0</ele><time>2012-07-26T14:45:07.0000000+00:00</time></trkpt><trkpt lat="63.72929001" lon="-19.47167587"><ele>285.0</ele><time>2012-07-26T14:45:12.0000000+00:00</time></trkpt><trkpt lat="63.72929001" lon="-19.47167778"><ele>285.0</ele><time>2012-07-26T14:45:17.0000000+00:00</time></trkpt><trkpt lat="63.72929001" lon="-19.47167778"><ele>285.0</ele><time>2012-07-26T14:45:22.0000000+00:00</time></trkpt><trkpt lat="63.72929001" lon="-19.47167778"><ele>285.0</ele><time>2012-07-26T14:45:27.0000000+00:00</time></trkpt><trkpt lat="63.72929001" lon="-19.47167778"><ele>285.0</ele><time>2012-07-26T14:45:32.0000000+00:00</time></trkpt><trkpt lat="63.72929001" lon="-19.47167778"><ele>285.0</ele><time>2012-07-26T14:45:37.0000000+00:00</time></trkpt><trkpt lat="63.72929001" lon="-19.47167778"><ele>285.0</ele><time>2012-07-26T14:45:42.0000000+00:00</time></trkpt><trkpt lat="63.72929001" lon="-19.47167778"><ele>285.0</ele><time>2012-07-26T14:45:47.0000000+00:00</time></trkpt><trkpt lat="63.72929001" lon="-19.47167778"><ele>285.0</ele><time>2012-07-26T14:45:52.0000000+00:00</time></trkpt><trkpt lat="63.72929001" lon="-19.47167969"><ele>285.0</ele><time>2012-07-26T14:45:57.0000000+00:00</time></trkpt><trkpt lat="63.72929001" lon="-19.47167969"><ele>285.0</ele><time>2012-07-26T14:46:02.0000000+00:00</time></trkpt><trkpt lat="63.72929001" lon="-19.47167969"><ele>285.0</ele><time>2012-07-26T14:46:07.0000000+00:00</time></trkpt><trkpt lat="63.72929001" lon="-19.47167969"><ele>285.0</ele><time>2012-07-26T14:46:12.0000000+00:00</time></trkpt><trkpt lat="63.72929001" lon="-19.47167778"><ele>285.0</ele><time>2012-07-26T14:46:17.0000000+00:00</time></trkpt><trkpt lat="63.72929001" lon="-19.47167778"><ele>285.0</ele><time>2012-07-26T14:46:22.0000000+00:00</time></trkpt><trkpt lat="63.72929001" lon="-19.47167778"><ele>285.0</ele><time>2012-07-26T14:46:27.0000000+00:00</time></trkpt><trkpt lat="63.72929001" lon="-19.47167778"><ele>285.0</ele><time>2012-07-26T14:46:32.0000000+00:00</time></trkpt><trkpt lat="63.72929001" lon="-19.47167778"><ele>285.0</ele><time>2012-07-26T14:46:37.0000000+00:00</time></trkpt><trkpt lat="63.72929001" lon="-19.47167778"><ele>285.0</ele><time>2012-07-26T14:46:42.0000000+00:00</time></trkpt><trkpt lat="63.72929001" lon="-19.47167778"><ele>285.0</ele><time>2012-07-26T14:46:47.0000000+00:00</time></trkpt><trkpt lat="63.72929001" lon="-19.47167778"><ele>285.0</ele><time>2012-07-26T14:46:52.0000000+00:00</time></trkpt><trkpt lat="63.72929001" lon="-19.47167778"><ele>285.0</ele><time>2012-07-26T14:46:57.0000000+00:00</time></trkpt><trkpt lat="63.72929001" lon="-19.47167778"><ele>285.0</ele><time>2012-07-26T14:47:02.0000000+00:00</time></trkpt><trkpt lat="63.72929001" lon="-19.47167778"><ele>285.0</ele><time>2012-07-26T14:47:07.0000000+00:00</time></trkpt><trkpt lat="63.72929001" lon="-19.47167778"><ele>285.0</ele><time>2012-07-26T14:47:12.0000000+00:00</time></trkpt><trkpt lat="63.72929001" lon="-19.47167778"><ele>285.0</ele><time>2012-07-26T14:47:17.0000000+00:00</time></trkpt><trkpt lat="63.72929001" lon="-19.47167778"><ele>285.0</ele><time>2012-07-26T14:47:22.0000000+00:00</time></trkpt><trkpt lat="63.72929001" lon="-19.47167778"><ele>285.1</ele><time>2012-07-26T14:47:27.0000000+00:00</time></trkpt><trkpt lat="63.72929001" lon="-19.47167778"><ele>285.1</ele><time>2012-07-26T14:47:32.0000000+00:00</time></trkpt><trkpt lat="63.72929001" lon="-19.47167587"><ele>285.1</ele><time>2012-07-26T14:47:37.0000000+00:00</time></trkpt><trkpt lat="63.72929001" lon="-19.47167587"><ele>285.1</ele><time>2012-07-26T14:47:42.0000000+00:00</time></trkpt><trkpt lat="63.72929001" lon="-19.47167587"><ele>285.0</ele><time>2012-07-26T14:47:47.0000000+00:00</time></trkpt><trkpt lat="63.72929001" lon="-19.47167587"><ele>285.1</ele><time>2012-07-26T14:47:52.0000000+00:00</time></trkpt><trkpt lat="63.72929001" lon="-19.47167587"><ele>285.1</ele><time>2012-07-26T14:47:57.0000000+00:00</time></trkpt><trkpt lat="63.72929001" lon="-19.47167587"><ele>285.1</ele><time>2012-07-26T14:48:02.0000000+00:00</time></trkpt><trkpt lat="63.72929001" lon="-19.47167397"><ele>285.0</ele><time>2012-07-26T14:48:07.0000000+00:00</time></trkpt><trkpt lat="63.72929001" lon="-19.47167397"><ele>284.9</ele><time>2012-07-26T14:48:12.0000000+00:00</time></trkpt><trkpt lat="63.72928619" lon="-19.47167206"><ele>284.8</ele><time>2012-07-26T14:48:17.0000000+00:00</time></trkpt><trkpt lat="63.72928619" lon="-19.47167206"><ele>284.6</ele><time>2012-07-26T14:48:22.0000000+00:00</time></trkpt><trkpt lat="63.72928619" lon="-19.47167206"><ele>284.3</ele><time>2012-07-26T14:48:27.0000000+00:00</time></trkpt><trkpt lat="63.72928619" lon="-19.47167206"><ele>284.0</ele><time>2012-07-26T14:48:32.0000000+00:00</time></trkpt><trkpt lat="63.72928619" lon="-19.47167397"><ele>283.7</ele><time>2012-07-26T14:48:37.0000000+00:00</time></trkpt><trkpt lat="63.72928619" lon="-19.47167397"><ele>283.4</ele><time>2012-07-26T14:48:42.0000000+00:00</time></trkpt><trkpt lat="63.72928238" lon="-19.47167397"><ele>283.2</ele><time>2012-07-26T14:48:47.0000000+00:00</time></trkpt><trkpt lat="63.72928238" lon="-19.47166443"><ele>283.1</ele><time>2012-07-26T14:48:52.0000000+00:00</time></trkpt><trkpt lat="63.72928238" lon="-19.47166443"><ele>283.0</ele><time>2012-07-26T14:48:57.0000000+00:00</time></trkpt><trkpt lat="63.72927475" lon="-19.4716568"><ele>283.0</ele><time>2012-07-26T14:49:02.0000000+00:00</time></trkpt><trkpt lat="63.72927094" lon="-19.47164726"><ele>282.9</ele><time>2012-07-26T14:49:07.0000000+00:00</time></trkpt><trkpt lat="63.72927475" lon="-19.47161865"><ele>282.8</ele><time>2012-07-26T14:49:12.0000000+00:00</time></trkpt><trkpt lat="63.72927856" lon="-19.47160721"><ele>282.6</ele><time>2012-07-26T14:49:17.0000000+00:00</time></trkpt><trkpt lat="63.72928238" lon="-19.47160721"><ele>282.6</ele><time>2012-07-26T14:49:22.0000000+00:00</time></trkpt><trkpt lat="63.72928238" lon="-19.47161865"><ele>282.5</ele><time>2012-07-26T14:49:27.0000000+00:00</time></trkpt><trkpt lat="63.72927475" lon="-19.47161675"><ele>282.4</ele><time>2012-07-26T14:49:32.0000000+00:00</time></trkpt><trkpt lat="63.72928619" lon="-19.47165489"><ele>282.7</ele><time>2012-07-26T14:49:37.0000000+00:00</time></trkpt><trkpt lat="63.72928619" lon="-19.47165489"><ele>282.7</ele><time>2012-07-26T14:49:42.0000000+00:00</time></trkpt><trkpt lat="63.72928238" lon="-19.47165489"><ele>282.7</ele><time>2012-07-26T14:49:47.0000000+00:00</time></trkpt><trkpt lat="63.72928619" lon="-19.47167778"><ele>283.1</ele><time>2012-07-26T14:49:52.0000000+00:00</time></trkpt><trkpt lat="63.72928619" lon="-19.47167969"><ele>283.1</ele><time>2012-07-26T14:49:57.0000000+00:00</time></trkpt><trkpt lat="63.72928619" lon="-19.4716816"><ele>283.1</ele><time>2012-07-26T14:50:02.0000000+00:00</time></trkpt><trkpt lat="63.72928619" lon="-19.4716835"><ele>283.0</ele><time>2012-07-26T14:50:07.0000000+00:00</time></trkpt><trkpt lat="63.72927475" lon="-19.47170067"><ele>281.7</ele><time>2012-07-26T14:50:12.0000000+00:00</time></trkpt><trkpt lat="63.72926712" lon="-19.47172546"><ele>281.3</ele><time>2012-07-26T14:50:17.0000000+00:00</time></trkpt><trkpt lat="63.72926331" lon="-19.47173691"><ele>281.3</ele><time>2012-07-26T14:50:22.0000000+00:00</time></trkpt><trkpt lat="63.72926331" lon="-19.47173691"><ele>281.1</ele><time>2012-07-26T14:50:27.0000000+00:00</time></trkpt><trkpt lat="63.72926331" lon="-19.471735"><ele>281.1</ele><time>2012-07-26T14:50:32.0000000+00:00</time></trkpt><trkpt lat="63.72926331" lon="-19.471735"><ele>281.1</ele><time>2012-07-26T14:50:37.0000000+00:00</time></trkpt><trkpt lat="63.72928619" lon="-19.47171593"><ele>281.0</ele><time>2012-07-26T14:50:42.0000000+00:00</time></trkpt><trkpt lat="63.7293129" lon="-19.47164917"><ele>281.5</ele><time>2012-07-26T14:50:47.0000000+00:00</time></trkpt><trkpt lat="63.72929382" lon="-19.47163391"><ele>281.2</ele><time>2012-07-26T14:50:52.0000000+00:00</time></trkpt><trkpt lat="63.72930527" lon="-19.47161675"><ele>282.0</ele><time>2012-07-26T14:50:57.0000000+00:00</time></trkpt><trkpt lat="63.72929764" lon="-19.47161484"><ele>282.0</ele><time>2012-07-26T14:51:02.0000000+00:00</time></trkpt><trkpt lat="63.72930145" lon="-19.47161865"><ele>282.0</ele><time>2012-07-26T14:51:07.0000000+00:00</time></trkpt><trkpt lat="63.7293129" lon="-19.47166634"><ele>282.1</ele><time>2012-07-26T14:51:12.0000000+00:00</time></trkpt><trkpt lat="63.72930527" lon="-19.4716816"><ele>282.6</ele><time>2012-07-26T14:51:17.0000000+00:00</time></trkpt><trkpt lat="63.72930527" lon="-19.4716816"><ele>282.6</ele><time>2012-07-26T14:51:22.0000000+00:00</time></trkpt><trkpt lat="63.72930527" lon="-19.47168922"><ele>282.5</ele><time>2012-07-26T14:51:27.0000000+00:00</time></trkpt><trkpt lat="63.72929764" lon="-19.47167969"><ele>282.5</ele><time>2012-07-26T14:51:32.0000000+00:00</time></trkpt><trkpt lat="63.72929764" lon="-19.47168732"><ele>282.4</ele><time>2012-07-26T14:51:37.0000000+00:00</time></trkpt><trkpt lat="63.72929382" lon="-19.47168732"><ele>282.3</ele><time>2012-07-26T14:51:42.0000000+00:00</time></trkpt><trkpt lat="63.72929764" lon="-19.47168922"><ele>281.5</ele><time>2012-07-26T14:51:47.0000000+00:00</time></trkpt><trkpt lat="63.72929382" lon="-19.47168922"><ele>281.5</ele><time>2012-07-26T14:51:52.0000000+00:00</time></trkpt><trkpt lat="63.72929382" lon="-19.47168922"><ele>281.5</ele><time>2012-07-26T14:51:57.0000000+00:00</time></trkpt><trkpt lat="63.72929382" lon="-19.47168922"><ele>281.5</ele><time>2012-07-26T14:52:02.0000000+00:00</time></trkpt><trkpt lat="63.72929382" lon="-19.47168922"><ele>281.5</ele><time>2012-07-26T14:52:07.0000000+00:00</time></trkpt><trkpt lat="63.72925949" lon="-19.47187042"><ele>281.3</ele><time>2012-07-26T14:52:12.0000000+00:00</time></trkpt><trkpt lat="63.72920227" lon="-19.47211075"><ele>281.0</ele><time>2012-07-26T14:52:17.0000000+00:00</time></trkpt><trkpt lat="63.72911453" lon="-19.47244644"><ele>280.7</ele><time>2012-07-26T14:52:22.0000000+00:00</time></trkpt><trkpt lat="63.72904205" lon="-19.47270012"><ele>279.7</ele><time>2012-07-26T14:52:27.0000000+00:00</time></trkpt><trkpt lat="63.72896195" lon="-19.47297096"><ele>279.9</ele><time>2012-07-26T14:52:32.0000000+00:00</time></trkpt><trkpt lat="63.72889328" lon="-19.47325897"><ele>282.6</ele><time>2012-07-26T14:52:37.0000000+00:00</time></trkpt><trkpt lat="63.72882462" lon="-19.47350311"><ele>284.4</ele><time>2012-07-26T14:52:42.0000000+00:00</time></trkpt><trkpt lat="63.72874069" lon="-19.47374916"><ele>285.6</ele><time>2012-07-26T14:52:47.0000000+00:00</time></trkpt><trkpt lat="63.72864151" lon="-19.47401619"><ele>286.2</ele><time>2012-07-26T14:52:52.0000000+00:00</time></trkpt><trkpt lat="63.72855377" lon="-19.47426796"><ele>285.9</ele><time>2012-07-26T14:52:57.0000000+00:00</time></trkpt><trkpt lat="63.72847366" lon="-19.47448349"><ele>286.2</ele><time>2012-07-26T14:53:02.0000000+00:00</time></trkpt><trkpt lat="63.72840881" lon="-19.47463799"><ele>286.3</ele><time>2012-07-26T14:53:07.0000000+00:00</time></trkpt><trkpt lat="63.72834396" lon="-19.47481918"><ele>284.8</ele><time>2012-07-26T14:53:12.0000000+00:00</time></trkpt><trkpt lat="63.72826386" lon="-19.47507095"><ele>284.3</ele><time>2012-07-26T14:53:17.0000000+00:00</time></trkpt><trkpt lat="63.72819519" lon="-19.47528648"><ele>284.3</ele><time>2012-07-26T14:53:22.0000000+00:00</time></trkpt><trkpt lat="63.72809601" lon="-19.47554207"><ele>284.7</ele><time>2012-07-26T14:53:27.0000000+00:00</time></trkpt><trkpt lat="63.7280159" lon="-19.47574043"><ele>283.7</ele><time>2012-07-26T14:53:32.0000000+00:00</time></trkpt><trkpt lat="63.72792816" lon="-19.4759388"><ele>283.3</ele><time>2012-07-26T14:53:37.0000000+00:00</time></trkpt><trkpt lat="63.7278595" lon="-19.47615051"><ele>282.3</ele><time>2012-07-26T14:53:42.0000000+00:00</time></trkpt><trkpt lat="63.72780991" lon="-19.47627831"><ele>281.7</ele><time>2012-07-26T14:53:47.0000000+00:00</time></trkpt><trkpt lat="63.72774124" lon="-19.47646713"><ele>281.7</ele><time>2012-07-26T14:53:52.0000000+00:00</time></trkpt><trkpt lat="63.72764969" lon="-19.47670937"><ele>281.5</ele><time>2012-07-26T14:53:57.0000000+00:00</time></trkpt><trkpt lat="63.72757721" lon="-19.47696114"><ele>281.1</ele><time>2012-07-26T14:54:02.0000000+00:00</time></trkpt><trkpt lat="63.72749329" lon="-19.47715378"><ele>279.5</ele><time>2012-07-26T14:54:07.0000000+00:00</time></trkpt><trkpt lat="63.72741699" lon="-19.4773674"><ele>278.6</ele><time>2012-07-26T14:54:12.0000000+00:00</time></trkpt><trkpt lat="63.72732925" lon="-19.47760391"><ele>278.5</ele><time>2012-07-26T14:54:17.0000000+00:00</time></trkpt><trkpt lat="63.7272377" lon="-19.47790337"><ele>278.5</ele><time>2012-07-26T14:54:22.0000000+00:00</time></trkpt><trkpt lat="63.72716904" lon="-19.47822952"><ele>278.4</ele><time>2012-07-26T14:54:27.0000000+00:00</time></trkpt><trkpt lat="63.72710419" lon="-19.4785614"><ele>279.8</ele><time>2012-07-26T14:54:32.0000000+00:00</time></trkpt><trkpt lat="63.72704697" lon="-19.478899"><ele>279.5</ele><time>2012-07-26T14:54:37.0000000+00:00</time></trkpt><trkpt lat="63.72698975" lon="-19.47928238"><ele>278.3</ele><time>2012-07-26T14:54:42.0000000+00:00</time></trkpt><trkpt lat="63.7269249" lon="-19.47961998"><ele>277.9</ele><time>2012-07-26T14:54:47.0000000+00:00</time></trkpt><trkpt lat="63.72686768" lon="-19.47994423"><ele>278.1</ele><time>2012-07-26T14:54:52.0000000+00:00</time></trkpt><trkpt lat="63.72682953" lon="-19.48029709"><ele>278.6</ele><time>2012-07-26T14:54:57.0000000+00:00</time></trkpt><trkpt lat="63.72677612" lon="-19.48055458"><ele>279.0</ele><time>2012-07-26T14:55:02.0000000+00:00</time></trkpt><trkpt lat="63.72672653" lon="-19.48087311"><ele>277.9</ele><time>2012-07-26T14:55:07.0000000+00:00</time></trkpt><trkpt lat="63.72667313" lon="-19.48121834"><ele>277.3</ele><time>2012-07-26T14:55:12.0000000+00:00</time></trkpt><trkpt lat="63.72662354" lon="-19.48155975"><ele>276.8</ele><time>2012-07-26T14:55:17.0000000+00:00</time></trkpt><trkpt lat="63.72657013" lon="-19.48188019"><ele>276.5</ele><time>2012-07-26T14:55:22.0000000+00:00</time></trkpt><trkpt lat="63.72650909" lon="-19.48224258"><ele>277.3</ele><time>2012-07-26T14:55:27.0000000+00:00</time></trkpt><trkpt lat="63.72645187" lon="-19.48260689"><ele>276.1</ele><time>2012-07-26T14:55:32.0000000+00:00</time></trkpt><trkpt lat="63.72639847" lon="-19.48292923"><ele>275.7</ele><time>2012-07-26T14:55:37.0000000+00:00</time></trkpt><trkpt lat="63.72634888" lon="-19.48324776"><ele>275.6</ele><time>2012-07-26T14:55:42.0000000+00:00</time></trkpt><trkpt lat="63.72630692" lon="-19.48356247"><ele>275.5</ele><time>2012-07-26T14:55:47.0000000+00:00</time></trkpt><trkpt lat="63.72624207" lon="-19.4839077"><ele>274.5</ele><time>2012-07-26T14:55:52.0000000+00:00</time></trkpt><trkpt lat="63.7262001" lon="-19.48419571"><ele>275.3</ele><time>2012-07-26T14:55:57.0000000+00:00</time></trkpt><trkpt lat="63.7261467" lon="-19.48447418"><ele>275.1</ele><time>2012-07-26T14:56:02.0000000+00:00</time></trkpt><trkpt lat="63.72609329" lon="-19.48475647"><ele>275.5</ele><time>2012-07-26T14:56:07.0000000+00:00</time></trkpt><trkpt lat="63.7260437" lon="-19.48507309"><ele>275.5</ele><time>2012-07-26T14:56:12.0000000+00:00</time></trkpt><trkpt lat="63.72600174" lon="-19.48537254"><ele>276.6</ele><time>2012-07-26T14:56:17.0000000+00:00</time></trkpt><trkpt lat="63.72594833" lon="-19.48564529"><ele>277.3</ele><time>2012-07-26T14:56:22.0000000+00:00</time></trkpt><trkpt lat="63.72591019" lon="-19.48595429"><ele>277.9</ele><time>2012-07-26T14:56:27.0000000+00:00</time></trkpt><trkpt lat="63.7258606" lon="-19.48627472"><ele>277.7</ele><time>2012-07-26T14:56:32.0000000+00:00</time></trkpt><trkpt lat="63.72582245" lon="-19.48665047"><ele>275.1</ele><time>2012-07-26T14:56:37.0000000+00:00</time></trkpt><trkpt lat="63.72579575" lon="-19.48692131"><ele>275.6</ele><time>2012-07-26T14:56:42.0000000+00:00</time></trkpt><trkpt lat="63.72579193" lon="-19.48724556"><ele>276.1</ele><time>2012-07-26T14:56:47.0000000+00:00</time></trkpt><trkpt lat="63.72579956" lon="-19.48753548"><ele>277.0</ele><time>2012-07-26T14:56:52.0000000+00:00</time></trkpt><trkpt lat="63.72584152" lon="-19.48787117"><ele>277.9</ele><time>2012-07-26T14:56:57.0000000+00:00</time></trkpt><trkpt lat="63.72579956" lon="-19.48829842"><ele>277.6</ele><time>2012-07-26T14:57:02.0000000+00:00</time></trkpt><trkpt lat="63.72568893" lon="-19.48880005"><ele>276.5</ele><time>2012-07-26T14:57:07.0000000+00:00</time></trkpt><trkpt lat="63.72552872" lon="-19.48929596"><ele>276.3</ele><time>2012-07-26T14:57:12.0000000+00:00</time></trkpt><trkpt lat="63.72538757" lon="-19.48970604"><ele>276.3</ele><time>2012-07-26T14:57:17.0000000+00:00</time></trkpt><trkpt lat="63.7252655" lon="-19.48997688"><ele>276.1</ele><time>2012-07-26T14:57:22.0000000+00:00</time></trkpt><trkpt lat="63.72513962" lon="-19.49020958"><ele>276.3</ele><time>2012-07-26T14:57:27.0000000+00:00</time></trkpt><trkpt lat="63.72500992" lon="-19.49047661"><ele>276.2</ele><time>2012-07-26T14:57:32.0000000+00:00</time></trkpt><trkpt lat="63.72489166" lon="-19.49073029"><ele>277.0</ele><time>2012-07-26T14:57:37.0000000+00:00</time></trkpt><trkpt lat="63.72477341" lon="-19.49099922"><ele>277.6</ele><time>2012-07-26T14:57:42.0000000+00:00</time></trkpt><trkpt lat="63.72465897" lon="-19.49127007"><ele>279.6</ele><time>2012-07-26T14:57:47.0000000+00:00</time></trkpt><trkpt lat="63.72453308" lon="-19.49159622"><ele>278.2</ele><time>2012-07-26T14:57:52.0000000+00:00</time></trkpt><trkpt lat="63.72443008" lon="-19.49189949"><ele>278.0</ele><time>2012-07-26T14:57:57.0000000+00:00</time></trkpt><trkpt lat="63.72436523" lon="-19.49215889"><ele>276.8</ele><time>2012-07-26T14:58:02.0000000+00:00</time></trkpt><trkpt lat="63.72430039" lon="-19.4923954"><ele>275.8</ele><time>2012-07-26T14:58:07.0000000+00:00</time></trkpt><trkpt lat="63.72423554" lon="-19.49261665"><ele>275.3</ele><time>2012-07-26T14:58:12.0000000+00:00</time></trkpt><trkpt lat="63.72415543" lon="-19.49278259"><ele>274.2</ele><time>2012-07-26T14:58:17.0000000+00:00</time></trkpt><trkpt lat="63.72405243" lon="-19.49298668"><ele>272.6</ele><time>2012-07-26T14:58:22.0000000+00:00</time></trkpt><trkpt lat="63.72391129" lon="-19.49324799"><ele>273.3</ele><time>2012-07-26T14:58:27.0000000+00:00</time></trkpt><trkpt lat="63.72375107" lon="-19.49356461"><ele>273.2</ele><time>2012-07-26T14:58:32.0000000+00:00</time></trkpt><trkpt lat="63.72359467" lon="-19.49391937"><ele>272.6</ele><time>2012-07-26T14:58:37.0000000+00:00</time></trkpt><trkpt lat="63.72343445" lon="-19.49424744"><ele>273.1</ele><time>2012-07-26T14:58:42.0000000+00:00</time></trkpt><trkpt lat="63.72328949" lon="-19.49453354"><ele>272.1</ele><time>2012-07-26T14:58:47.0000000+00:00</time></trkpt><trkpt lat="63.72317123" lon="-19.49478912"><ele>270.0</ele><time>2012-07-26T14:58:52.0000000+00:00</time></trkpt><trkpt lat="63.72306824" lon="-19.49498367"><ele>268.4</ele><time>2012-07-26T14:58:57.0000000+00:00</time></trkpt><trkpt lat="63.72297287" lon="-19.49524117"><ele>269.5</ele><time>2012-07-26T14:59:02.0000000+00:00</time></trkpt><trkpt lat="63.72285461" lon="-19.49548149"><ele>270.5</ele><time>2012-07-26T14:59:07.0000000+00:00</time></trkpt><trkpt lat="63.72272492" lon="-19.49572754"><ele>273.1</ele><time>2012-07-26T14:59:12.0000000+00:00</time></trkpt><trkpt lat="63.72259903" lon="-19.49596214"><ele>274.7</ele><time>2012-07-26T14:59:17.0000000+00:00</time></trkpt><trkpt lat="63.72249222" lon="-19.49614143"><ele>275.9</ele><time>2012-07-26T14:59:22.0000000+00:00</time></trkpt><trkpt lat="63.72237015" lon="-19.49633789"><ele>273.1</ele><time>2012-07-26T14:59:27.0000000+00:00</time></trkpt><trkpt lat="63.72225952" lon="-19.49655342"><ele>271.8</ele><time>2012-07-26T14:59:32.0000000+00:00</time></trkpt><trkpt lat="63.72215653" lon="-19.49681282"><ele>271.3</ele><time>2012-07-26T14:59:37.0000000+00:00</time></trkpt><trkpt lat="63.72204208" lon="-19.49710083"><ele>270.3</ele><time>2012-07-26T14:59:42.0000000+00:00</time></trkpt><trkpt lat="63.72192383" lon="-19.4973774"><ele>270.9</ele><time>2012-07-26T14:59:47.0000000+00:00</time></trkpt><trkpt lat="63.72180557" lon="-19.49762535"><ele>270.2</ele><time>2012-07-26T14:59:52.0000000+00:00</time></trkpt><trkpt lat="63.72164536" lon="-19.49794006"><ele>269.9</ele><time>2012-07-26T14:59:57.0000000+00:00</time></trkpt><trkpt lat="63.72148514" lon="-19.49832344"><ele>270.9</ele><time>2012-07-26T15:00:02.0000000+00:00</time></trkpt><trkpt lat="63.72136688" lon="-19.49876213"><ele>268.6</ele><time>2012-07-26T15:00:07.0000000+00:00</time></trkpt><trkpt lat="63.72127914" lon="-19.49918366"><ele>265.3</ele><time>2012-07-26T15:00:12.0000000+00:00</time></trkpt><trkpt lat="63.72119141" lon="-19.49960899"><ele>262.1</ele><time>2012-07-26T15:00:17.0000000+00:00</time></trkpt><trkpt lat="63.7211113" lon="-19.49995995"><ele>259.2</ele><time>2012-07-26T15:00:22.0000000+00:00</time></trkpt><trkpt lat="63.72098923" lon="-19.50040054"><ele>255.4</ele><time>2012-07-26T15:00:27.0000000+00:00</time></trkpt><trkpt lat="63.72079849" lon="-19.50112915"><ele>249.2</ele><time>2012-07-26T15:00:32.0000000+00:00</time></trkpt><trkpt lat="63.72052383" lon="-19.50173187"><ele>245.5</ele><time>2012-07-26T15:00:37.0000000+00:00</time></trkpt><trkpt lat="63.72018051" lon="-19.50212669"><ele>244.9</ele><time>2012-07-26T15:00:42.0000000+00:00</time></trkpt><trkpt lat="63.71992111" lon="-19.50230026"><ele>247.9</ele><time>2012-07-26T15:00:47.0000000+00:00</time></trkpt><trkpt lat="63.71977234" lon="-19.50233841"><ele>248.5</ele><time>2012-07-26T15:00:52.0000000+00:00</time></trkpt><trkpt lat="63.71966553" lon="-19.50237465"><ele>250.0</ele><time>2012-07-26T15:00:57.0000000+00:00</time></trkpt><trkpt lat="63.71956635" lon="-19.50242043"><ele>250.0</ele><time>2012-07-26T15:01:02.0000000+00:00</time></trkpt><trkpt lat="63.71943283" lon="-19.50252152"><ele>249.5</ele><time>2012-07-26T15:01:07.0000000+00:00</time></trkpt><trkpt lat="63.71926117" lon="-19.50270844"><ele>249.2</ele><time>2012-07-26T15:01:12.0000000+00:00</time></trkpt><trkpt lat="63.71905136" lon="-19.50293541"><ele>247.5</ele><time>2012-07-26T15:01:17.0000000+00:00</time></trkpt><trkpt lat="63.71880722" lon="-19.50310707"><ele>245.7</ele><time>2012-07-26T15:01:22.0000000+00:00</time></trkpt><trkpt lat="63.71852112" lon="-19.50315285"><ele>246.2</ele><time>2012-07-26T15:01:27.0000000+00:00</time></trkpt><trkpt lat="63.71815109" lon="-19.50323105"><ele>240.6</ele><time>2012-07-26T15:01:32.0000000+00:00</time></trkpt><trkpt lat="63.71779633" lon="-19.50344467"><ele>238.2</ele><time>2012-07-26T15:01:37.0000000+00:00</time></trkpt><trkpt lat="63.71746063" lon="-19.50364113"><ele>235.5</ele><time>2012-07-26T15:01:42.0000000+00:00</time></trkpt><trkpt lat="63.7171936" lon="-19.50378037"><ele>237.8</ele><time>2012-07-26T15:01:47.0000000+00:00</time></trkpt><trkpt lat="63.71699905" lon="-19.5038929"><ele>239.8</ele><time>2012-07-26T15:01:52.0000000+00:00</time></trkpt><trkpt lat="63.7168045" lon="-19.50399208"><ele>239.4</ele><time>2012-07-26T15:01:57.0000000+00:00</time></trkpt><trkpt lat="63.71660996" lon="-19.50416565"><ele>238.0</ele><time>2012-07-26T15:02:02.0000000+00:00</time></trkpt><trkpt lat="63.71638107" lon="-19.50445366"><ele>236.9</ele><time>2012-07-26T15:02:07.0000000+00:00</time></trkpt><trkpt lat="63.71619034" lon="-19.50476074"><ele>237.5</ele><time>2012-07-26T15:02:12.0000000+00:00</time></trkpt><trkpt lat="63.71609116" lon="-19.50489998"><ele>239.4</ele><time>2012-07-26T15:02:17.0000000+00:00</time></trkpt><trkpt lat="63.71601868" lon="-19.50504303"><ele>237.6</ele><time>2012-07-26T15:02:22.0000000+00:00</time></trkpt><trkpt lat="63.71599197" lon="-19.50510216"><ele>236.1</ele><time>2012-07-26T15:02:27.0000000+00:00</time></trkpt><trkpt lat="63.71599579" lon="-19.50510788"><ele>234.8</ele><time>2012-07-26T15:02:32.0000000+00:00</time></trkpt><trkpt lat="63.71599579" lon="-19.50510216"><ele>234.6</ele><time>2012-07-26T15:02:37.0000000+00:00</time></trkpt><trkpt lat="63.71599579" lon="-19.50509644"><ele>234.5</ele><time>2012-07-26T15:02:42.0000000+00:00</time></trkpt><trkpt lat="63.71599579" lon="-19.50509644"><ele>234.5</ele><time>2012-07-26T15:02:47.0000000+00:00</time></trkpt><trkpt lat="63.71599579" lon="-19.50509644"><ele>234.5</ele><time>2012-07-26T15:02:52.0000000+00:00</time></trkpt><trkpt lat="63.71599579" lon="-19.50509453"><ele>234.5</ele><time>2012-07-26T15:02:57.0000000+00:00</time></trkpt><trkpt lat="63.71599579" lon="-19.50509453"><ele>234.5</ele><time>2012-07-26T15:03:02.0000000+00:00</time></trkpt><trkpt lat="63.71599579" lon="-19.50509453"><ele>234.4</ele><time>2012-07-26T15:03:07.0000000+00:00</time></trkpt><trkpt lat="63.71599579" lon="-19.50509262"><ele>234.4</ele><time>2012-07-26T15:03:12.0000000+00:00</time></trkpt><trkpt lat="63.71599579" lon="-19.50509262"><ele>234.4</ele><time>2012-07-26T15:03:17.0000000+00:00</time></trkpt><trkpt lat="63.71599579" lon="-19.50509071"><ele>234.4</ele><time>2012-07-26T15:03:22.0000000+00:00</time></trkpt><trkpt lat="63.71599579" lon="-19.50509071"><ele>234.4</ele><time>2012-07-26T15:03:27.0000000+00:00</time></trkpt><trkpt lat="63.71599579" lon="-19.50509071"><ele>234.4</ele><time>2012-07-26T15:03:32.0000000+00:00</time></trkpt><trkpt lat="63.71599579" lon="-19.50509071"><ele>234.4</ele><time>2012-07-26T15:03:37.0000000+00:00</time></trkpt><trkpt lat="63.71599579" lon="-19.50509071"><ele>234.4</ele><time>2012-07-26T15:03:42.0000000+00:00</time></trkpt><trkpt lat="63.71599579" lon="-19.50509071"><ele>234.4</ele><time>2012-07-26T15:03:47.0000000+00:00</time></trkpt><trkpt lat="63.71599579" lon="-19.50509071"><ele>234.4</ele><time>2012-07-26T15:03:52.0000000+00:00</time></trkpt><trkpt lat="63.7159996" lon="-19.50509453"><ele>234.4</ele><time>2012-07-26T15:03:57.0000000+00:00</time></trkpt><trkpt lat="63.71600342" lon="-19.50509071"><ele>234.4</ele><time>2012-07-26T15:04:02.0000000+00:00</time></trkpt><trkpt lat="63.7159996" lon="-19.50508499"><ele>234.5</ele><time>2012-07-26T15:04:07.0000000+00:00</time></trkpt><trkpt lat="63.7159996" lon="-19.50508308"><ele>234.5</ele><time>2012-07-26T15:04:12.0000000+00:00</time></trkpt><trkpt lat="63.7159996" lon="-19.50508308"><ele>234.5</ele><time>2012-07-26T15:04:17.0000000+00:00</time></trkpt><trkpt lat="63.7159996" lon="-19.50508308"><ele>234.5</ele><time>2012-07-26T15:04:22.0000000+00:00</time></trkpt><trkpt lat="63.7159996" lon="-19.50508308"><ele>234.5</ele><time>2012-07-26T15:04:27.0000000+00:00</time></trkpt><trkpt lat="63.7159996" lon="-19.50508308"><ele>234.5</ele><time>2012-07-26T15:04:32.0000000+00:00</time></trkpt><trkpt lat="63.7159996" lon="-19.50508118"><ele>234.4</ele><time>2012-07-26T15:04:37.0000000+00:00</time></trkpt><trkpt lat="63.7159996" lon="-19.50508118"><ele>234.4</ele><time>2012-07-26T15:04:42.0000000+00:00</time></trkpt><trkpt lat="63.7159996" lon="-19.50508118"><ele>234.4</ele><time>2012-07-26T15:04:47.0000000+00:00</time></trkpt><trkpt lat="63.7159996" lon="-19.50508118"><ele>234.4</ele><time>2012-07-26T15:04:52.0000000+00:00</time></trkpt><trkpt lat="63.7159996" lon="-19.50508118"><ele>234.4</ele><time>2012-07-26T15:04:57.0000000+00:00</time></trkpt><trkpt lat="63.7159996" lon="-19.50508118"><ele>234.4</ele><time>2012-07-26T15:05:02.0000000+00:00</time></trkpt><trkpt lat="63.7159996" lon="-19.50508118"><ele>234.4</ele><time>2012-07-26T15:05:07.0000000+00:00</time></trkpt><trkpt lat="63.7159996" lon="-19.50507927"><ele>234.4</ele><time>2012-07-26T15:05:12.0000000+00:00</time></trkpt><trkpt lat="63.7159996" lon="-19.50507927"><ele>234.4</ele><time>2012-07-26T15:05:17.0000000+00:00</time></trkpt><trkpt lat="63.7159996" lon="-19.50507927"><ele>234.4</ele><time>2012-07-26T15:05:22.0000000+00:00</time></trkpt><trkpt lat="63.7159996" lon="-19.50507927"><ele>234.4</ele><time>2012-07-26T15:05:27.0000000+00:00</time></trkpt><trkpt lat="63.7159996" lon="-19.50507927"><ele>234.4</ele><time>2012-07-26T15:05:32.0000000+00:00</time></trkpt><trkpt lat="63.7159996" lon="-19.50507927"><ele>234.4</ele><time>2012-07-26T15:05:37.0000000+00:00</time></trkpt><trkpt lat="63.7159996" lon="-19.50507927"><ele>234.5</ele><time>2012-07-26T15:05:42.0000000+00:00</time></trkpt><trkpt lat="63.7159996" lon="-19.50507927"><ele>234.5</ele><time>2012-07-26T15:05:47.0000000+00:00</time></trkpt><trkpt lat="63.7159996" lon="-19.50507927"><ele>234.5</ele><time>2012-07-26T15:05:52.0000000+00:00</time></trkpt><trkpt lat="63.7159996" lon="-19.50507927"><ele>234.5</ele><time>2012-07-26T15:05:57.0000000+00:00</time></trkpt><trkpt lat="63.7159996" lon="-19.50507927"><ele>234.5</ele><time>2012-07-26T15:06:02.0000000+00:00</time></trkpt><trkpt lat="63.7159996" lon="-19.50507927"><ele>234.5</ele><time>2012-07-26T15:06:07.0000000+00:00</time></trkpt><trkpt lat="63.71600342" lon="-19.50508118"><ele>234.5</ele><time>2012-07-26T15:06:12.0000000+00:00</time></trkpt><trkpt lat="63.71600342" lon="-19.50508118"><ele>234.5</ele><time>2012-07-26T15:06:17.0000000+00:00</time></trkpt><trkpt lat="63.71600342" lon="-19.50508118"><ele>234.5</ele><time>2012-07-26T15:06:22.0000000+00:00</time></trkpt><trkpt lat="63.71600342" lon="-19.50508308"><ele>234.5</ele><time>2012-07-26T15:06:27.0000000+00:00</time></trkpt><trkpt lat="63.71600342" lon="-19.50508308"><ele>234.5</ele><time>2012-07-26T15:06:32.0000000+00:00</time></trkpt><trkpt lat="63.71600342" lon="-19.50508308"><ele>234.5</ele><time>2012-07-26T15:06:37.0000000+00:00</time></trkpt><trkpt lat="63.71600342" lon="-19.50508308"><ele>234.5</ele><time>2012-07-26T15:06:42.0000000+00:00</time></trkpt><trkpt lat="63.71599579" lon="-19.50509453"><ele>234.5</ele><time>2012-07-26T15:06:47.0000000+00:00</time></trkpt><trkpt lat="63.7159996" lon="-19.50510216"><ele>235.6</ele><time>2012-07-26T15:06:52.0000000+00:00</time></trkpt><trkpt lat="63.7159996" lon="-19.50509644"><ele>235.7</ele><time>2012-07-26T15:06:57.0000000+00:00</time></trkpt><trkpt lat="63.7159996" lon="-19.50509834"><ele>235.7</ele><time>2012-07-26T15:07:02.0000000+00:00</time></trkpt><trkpt lat="63.7159996" lon="-19.50509834"><ele>235.7</ele><time>2012-07-26T15:07:07.0000000+00:00</time></trkpt><trkpt lat="63.7159996" lon="-19.50509834"><ele>235.7</ele><time>2012-07-26T15:07:12.0000000+00:00</time></trkpt><trkpt lat="63.7159996" lon="-19.50509834"><ele>235.7</ele><time>2012-07-26T15:07:17.0000000+00:00</time></trkpt><trkpt lat="63.7159996" lon="-19.50509834"><ele>235.7</ele><time>2012-07-26T15:07:22.0000000+00:00</time></trkpt><trkpt lat="63.7159996" lon="-19.50509834"><ele>235.7</ele><time>2012-07-26T15:07:27.0000000+00:00</time></trkpt><trkpt lat="63.7159996" lon="-19.50509834"><ele>235.7</ele><time>2012-07-26T15:07:32.0000000+00:00</time></trkpt><trkpt lat="63.7159996" lon="-19.50509834"><ele>235.7</ele><time>2012-07-26T15:07:37.0000000+00:00</time></trkpt><trkpt lat="63.7159996" lon="-19.50509834"><ele>235.6</ele><time>2012-07-26T15:07:42.0000000+00:00</time></trkpt><trkpt lat="63.7159996" lon="-19.50509834"><ele>235.6</ele><time>2012-07-26T15:07:47.0000000+00:00</time></trkpt><trkpt lat="63.7159996" lon="-19.50509834"><ele>235.6</ele><time>2012-07-26T15:07:52.0000000+00:00</time></trkpt><trkpt lat="63.7159996" lon="-19.50509834"><ele>235.6</ele><time>2012-07-26T15:07:57.0000000+00:00</time></trkpt><trkpt lat="63.7159996" lon="-19.50509834"><ele>235.6</ele><time>2012-07-26T15:08:02.0000000+00:00</time></trkpt><trkpt lat="63.71597672" lon="-19.50517082"><ele>235.2</ele><time>2012-07-26T15:08:07.0000000+00:00</time></trkpt><trkpt lat="63.71588898" lon="-19.50534248"><ele>234.6</ele><time>2012-07-26T15:08:12.0000000+00:00</time></trkpt><trkpt lat="63.71580124" lon="-19.50548363"><ele>235.2</ele><time>2012-07-26T15:08:17.0000000+00:00</time></trkpt><trkpt lat="63.71569443" lon="-19.50564575"><ele>235.3</ele><time>2012-07-26T15:08:22.0000000+00:00</time></trkpt><trkpt lat="63.71559143" lon="-19.50584412"><ele>235.5</ele><time>2012-07-26T15:08:27.0000000+00:00</time></trkpt><trkpt lat="63.71549606" lon="-19.50607109"><ele>235.3</ele><time>2012-07-26T15:08:32.0000000+00:00</time></trkpt><trkpt lat="63.71539688" lon="-19.50637245"><ele>235.6</ele><time>2012-07-26T15:08:37.0000000+00:00</time></trkpt><trkpt lat="63.71530533" lon="-19.50664902"><ele>235.3</ele><time>2012-07-26T15:08:42.0000000+00:00</time></trkpt><trkpt lat="63.71523285" lon="-19.50688744"><ele>235.5</ele><time>2012-07-26T15:08:47.0000000+00:00</time></trkpt><trkpt lat="63.71518707" lon="-19.5071888"><ele>235.2</ele><time>2012-07-26T15:08:52.0000000+00:00</time></trkpt><trkpt lat="63.71509552" lon="-19.50747299"><ele>233.8</ele><time>2012-07-26T15:08:57.0000000+00:00</time></trkpt><trkpt lat="63.71497345" lon="-19.507761"><ele>231.9</ele><time>2012-07-26T15:09:02.0000000+00:00</time></trkpt><trkpt lat="63.71485138" lon="-19.50806999"><ele>234.4</ele><time>2012-07-26T15:09:07.0000000+00:00</time></trkpt><trkpt lat="63.71473312" lon="-19.50824738"><ele>233.2</ele><time>2012-07-26T15:09:12.0000000+00:00</time></trkpt><trkpt lat="63.71461868" lon="-19.50843239"><ele>229.8</ele><time>2012-07-26T15:09:17.0000000+00:00</time></trkpt><trkpt lat="63.71453095" lon="-19.50871277"><ele>230.5</ele><time>2012-07-26T15:09:22.0000000+00:00</time></trkpt><trkpt lat="63.71445465" lon="-19.50904465"><ele>231.7</ele><time>2012-07-26T15:09:27.0000000+00:00</time></trkpt><trkpt lat="63.71437073" lon="-19.50935364"><ele>231.0</ele><time>2012-07-26T15:09:32.0000000+00:00</time></trkpt><trkpt lat="63.7142868" lon="-19.50965691"><ele>228.8</ele><time>2012-07-26T15:09:37.0000000+00:00</time></trkpt><trkpt lat="63.71419144" lon="-19.50993156"><ele>224.2</ele><time>2012-07-26T15:09:42.0000000+00:00</time></trkpt><trkpt lat="63.71409226" lon="-19.510252"><ele>221.6</ele><time>2012-07-26T15:09:47.0000000+00:00</time></trkpt><trkpt lat="63.71400452" lon="-19.51059723"><ele>220.2</ele><time>2012-07-26T15:09:52.0000000+00:00</time></trkpt><trkpt lat="63.71389771" lon="-19.51089859"><ele>219.5</ele><time>2012-07-26T15:09:57.0000000+00:00</time></trkpt><trkpt lat="63.71383667" lon="-19.51122093"><ele>225.1</ele><time>2012-07-26T15:10:02.0000000+00:00</time></trkpt><trkpt lat="63.71375656" lon="-19.51151848"><ele>225.7</ele><time>2012-07-26T15:10:07.0000000+00:00</time></trkpt><trkpt lat="63.71369553" lon="-19.5118103"><ele>226.2</ele><time>2012-07-26T15:10:12.0000000+00:00</time></trkpt><trkpt lat="63.71362305" lon="-19.51210213"><ele>229.6</ele><time>2012-07-26T15:10:17.0000000+00:00</time></trkpt><trkpt lat="63.71353912" lon="-19.51239395"><ele>230.9</ele><time>2012-07-26T15:10:22.0000000+00:00</time></trkpt><trkpt lat="63.71345139" lon="-19.51267815"><ele>231.0</ele><time>2012-07-26T15:10:27.0000000+00:00</time></trkpt><trkpt lat="63.71336365" lon="-19.51293373"><ele>232.4</ele><time>2012-07-26T15:10:32.0000000+00:00</time></trkpt><trkpt lat="63.71326065" lon="-19.51316452"><ele>233.6</ele><time>2012-07-26T15:10:37.0000000+00:00</time></trkpt><trkpt lat="63.71316147" lon="-19.51341629"><ele>233.4</ele><time>2012-07-26T15:10:42.0000000+00:00</time></trkpt><trkpt lat="63.71304321" lon="-19.51364517"><ele>234.1</ele><time>2012-07-26T15:10:47.0000000+00:00</time></trkpt><trkpt lat="63.71292496" lon="-19.51390648"><ele>232.4</ele><time>2012-07-26T15:10:52.0000000+00:00</time></trkpt><trkpt lat="63.71281052" lon="-19.51413345"><ele>232.5</ele><time>2012-07-26T15:10:57.0000000+00:00</time></trkpt><trkpt lat="63.71271133" lon="-19.51438522"><ele>230.5</ele><time>2012-07-26T15:11:02.0000000+00:00</time></trkpt><trkpt lat="63.71262741" lon="-19.51459122"><ele>230.0</ele><time>2012-07-26T15:11:07.0000000+00:00</time></trkpt><trkpt lat="63.71250534" lon="-19.51476669"><ele>231.4</ele><time>2012-07-26T15:11:12.0000000+00:00</time></trkpt><trkpt lat="63.71231461" lon="-19.51482773"><ele>232.1</ele><time>2012-07-26T15:11:17.0000000+00:00</time></trkpt><trkpt lat="63.71213532" lon="-19.51492119"><ele>233.6</ele><time>2012-07-26T15:11:22.0000000+00:00</time></trkpt><trkpt lat="63.71199417" lon="-19.5150528"><ele>237.4</ele><time>2012-07-26T15:11:27.0000000+00:00</time></trkpt><trkpt lat="63.71188355" lon="-19.51517296"><ele>238.8</ele><time>2012-07-26T15:11:32.0000000+00:00</time></trkpt><trkpt lat="63.7117691" lon="-19.51535225"><ele>235.7</ele><time>2012-07-26T15:11:37.0000000+00:00</time></trkpt><trkpt lat="63.71169281" lon="-19.51543617"><ele>234.8</ele><time>2012-07-26T15:11:42.0000000+00:00</time></trkpt><trkpt lat="63.71162033" lon="-19.51550865"><ele>231.8</ele><time>2012-07-26T15:11:47.0000000+00:00</time></trkpt><trkpt lat="63.71152496" lon="-19.51557541"><ele>231.1</ele><time>2012-07-26T15:11:52.0000000+00:00</time></trkpt><trkpt lat="63.71140671" lon="-19.51562119"><ele>230.2</ele><time>2012-07-26T15:11:57.0000000+00:00</time></trkpt><trkpt lat="63.71128082" lon="-19.5156498"><ele>230.8</ele><time>2012-07-26T15:12:02.0000000+00:00</time></trkpt><trkpt lat="63.71112824" lon="-19.51569557"><ele>230.4</ele><time>2012-07-26T15:12:07.0000000+00:00</time></trkpt><trkpt lat="63.71097946" lon="-19.51573753"><ele>230.4</ele><time>2012-07-26T15:12:12.0000000+00:00</time></trkpt><trkpt lat="63.7108345" lon="-19.51578713"><ele>230.3</ele><time>2012-07-26T15:12:17.0000000+00:00</time></trkpt><trkpt lat="63.71066666" lon="-19.5158329"><ele>228.5</ele><time>2012-07-26T15:12:22.0000000+00:00</time></trkpt><trkpt lat="63.71051025" lon="-19.51587677"><ele>229.6</ele><time>2012-07-26T15:12:27.0000000+00:00</time></trkpt><trkpt lat="63.71035767" lon="-19.51597786"><ele>227.3</ele><time>2012-07-26T15:12:32.0000000+00:00</time></trkpt><trkpt lat="63.71023941" lon="-19.51609802"><ele>228.1</ele><time>2012-07-26T15:12:37.0000000+00:00</time></trkpt><trkpt lat="63.71014404" lon="-19.51619148"><ele>227.4</ele><time>2012-07-26T15:12:42.0000000+00:00</time></trkpt><trkpt lat="63.71007156" lon="-19.51630211"><ele>227.0</ele><time>2012-07-26T15:12:47.0000000+00:00</time></trkpt><trkpt lat="63.70999527" lon="-19.51646614"><ele>227.0</ele><time>2012-07-26T15:12:52.0000000+00:00</time></trkpt><trkpt lat="63.70991898" lon="-19.51664734"><ele>226.8</ele><time>2012-07-26T15:12:57.0000000+00:00</time></trkpt><trkpt lat="63.70984268" lon="-19.5168705"><ele>226.4</ele><time>2012-07-26T15:13:02.0000000+00:00</time></trkpt><trkpt lat="63.70977783" lon="-19.51708794"><ele>225.5</ele><time>2012-07-26T15:13:07.0000000+00:00</time></trkpt><trkpt lat="63.70969391" lon="-19.51733208"><ele>224.6</ele><time>2012-07-26T15:13:12.0000000+00:00</time></trkpt><trkpt lat="63.70960236" lon="-19.51751518"><ele>225.2</ele><time>2012-07-26T15:13:17.0000000+00:00</time></trkpt><trkpt lat="63.70951843" lon="-19.5176754"><ele>223.6</ele><time>2012-07-26T15:13:22.0000000+00:00</time></trkpt><trkpt lat="63.70940781" lon="-19.51781654"><ele>224.1</ele><time>2012-07-26T15:13:27.0000000+00:00</time></trkpt><trkpt lat="63.70931244" lon="-19.51795578"><ele>223.7</ele><time>2012-07-26T15:13:32.0000000+00:00</time></trkpt><trkpt lat="63.70918655" lon="-19.51812363"><ele>223.4</ele><time>2012-07-26T15:13:37.0000000+00:00</time></trkpt><trkpt lat="63.70903778" lon="-19.51831055"><ele>223.7</ele><time>2012-07-26T15:13:42.0000000+00:00</time></trkpt><trkpt lat="63.70889664" lon="-19.51851082"><ele>224.0</ele><time>2012-07-26T15:13:47.0000000+00:00</time></trkpt><trkpt lat="63.70883179" lon="-19.51871872"><ele>223.6</ele><time>2012-07-26T15:13:52.0000000+00:00</time></trkpt><trkpt lat="63.70875168" lon="-19.51901817"><ele>221.6</ele><time>2012-07-26T15:13:57.0000000+00:00</time></trkpt><trkpt lat="63.70868301" lon="-19.51937103"><ele>220.5</ele><time>2012-07-26T15:14:02.0000000+00:00</time></trkpt><trkpt lat="63.70858765" lon="-19.51971817"><ele>220.9</ele><time>2012-07-26T15:14:07.0000000+00:00</time></trkpt><trkpt lat="63.70850754" lon="-19.52001953"><ele>220.7</ele><time>2012-07-26T15:14:12.0000000+00:00</time></trkpt><trkpt lat="63.7084465" lon="-19.52031517"><ele>221.9</ele><time>2012-07-26T15:14:17.0000000+00:00</time></trkpt><trkpt lat="63.70835495" lon="-19.52056313"><ele>222.3</ele><time>2012-07-26T15:14:22.0000000+00:00</time></trkpt><trkpt lat="63.70828247" lon="-19.5209198"><ele>223.0</ele><time>2012-07-26T15:14:27.0000000+00:00</time></trkpt><trkpt lat="63.70822144" lon="-19.5212307"><ele>222.7</ele><time>2012-07-26T15:14:32.0000000+00:00</time></trkpt><trkpt lat="63.70818329" lon="-19.52143478"><ele>223.4</ele><time>2012-07-26T15:14:37.0000000+00:00</time></trkpt><trkpt lat="63.70816422" lon="-19.52164841"><ele>225.1</ele><time>2012-07-26T15:14:42.0000000+00:00</time></trkpt><trkpt lat="63.708107" lon="-19.521801"><ele>224.4</ele><time>2012-07-26T15:14:47.0000000+00:00</time></trkpt><trkpt lat="63.70807648" lon="-19.52199745"><ele>221.9</ele><time>2012-07-26T15:14:52.0000000+00:00</time></trkpt><trkpt lat="63.70803452" lon="-19.52214241"><ele>220.9</ele><time>2012-07-26T15:14:57.0000000+00:00</time></trkpt><trkpt lat="63.70801163" lon="-19.52230263"><ele>220.9</ele><time>2012-07-26T15:15:02.0000000+00:00</time></trkpt><trkpt lat="63.70798874" lon="-19.52231407"><ele>221.7</ele><time>2012-07-26T15:15:07.0000000+00:00</time></trkpt><trkpt lat="63.70798111" lon="-19.52236557"><ele>221.7</ele><time>2012-07-26T15:15:12.0000000+00:00</time></trkpt><trkpt lat="63.70796967" lon="-19.52245903"><ele>220.7</ele><time>2012-07-26T15:15:17.0000000+00:00</time></trkpt><trkpt lat="63.70796204" lon="-19.52247429"><ele>221.1</ele><time>2012-07-26T15:15:22.0000000+00:00</time></trkpt><trkpt lat="63.70796204" lon="-19.52247238"><ele>221.2</ele><time>2012-07-26T15:15:27.0000000+00:00</time></trkpt><trkpt lat="63.70796204" lon="-19.52247047"><ele>221.2</ele><time>2012-07-26T15:15:32.0000000+00:00</time></trkpt><trkpt lat="63.70793152" lon="-19.5225296"><ele>221.8</ele><time>2012-07-26T15:15:37.0000000+00:00</time></trkpt><trkpt lat="63.70792007" lon="-19.52260971"><ele>221.7</ele><time>2012-07-26T15:15:42.0000000+00:00</time></trkpt><trkpt lat="63.70790863" lon="-19.52269363"><ele>222.1</ele><time>2012-07-26T15:15:47.0000000+00:00</time></trkpt><trkpt lat="63.70788956" lon="-19.52276802"><ele>221.9</ele><time>2012-07-26T15:15:52.0000000+00:00</time></trkpt><trkpt lat="63.70788193" lon="-19.5228405"><ele>221.7</ele><time>2012-07-26T15:15:57.0000000+00:00</time></trkpt><trkpt lat="63.70787048" lon="-19.52292824"><ele>221.8</ele><time>2012-07-26T15:16:02.0000000+00:00</time></trkpt><trkpt lat="63.70785141" lon="-19.52300072"><ele>222.2</ele><time>2012-07-26T15:16:07.0000000+00:00</time></trkpt><trkpt lat="63.70783615" lon="-19.52307892"><ele>222.9</ele><time>2012-07-26T15:16:12.0000000+00:00</time></trkpt><trkpt lat="63.70782089" lon="-19.52313042"><ele>223.9</ele><time>2012-07-26T15:16:17.0000000+00:00</time></trkpt><trkpt lat="63.70782852" lon="-19.5231266"><ele>225.0</ele><time>2012-07-26T15:16:22.0000000+00:00</time></trkpt><trkpt lat="63.70782852" lon="-19.52313423"><ele>225.5</ele><time>2012-07-26T15:16:27.0000000+00:00</time></trkpt><trkpt lat="63.70782471" lon="-19.52320671"><ele>226.2</ele><time>2012-07-26T15:16:32.0000000+00:00</time></trkpt><trkpt lat="63.707798" lon="-19.52328682"><ele>226.9</ele><time>2012-07-26T15:16:37.0000000+00:00</time></trkpt><trkpt lat="63.70777512" lon="-19.52337647"><ele>227.6</ele><time>2012-07-26T15:16:42.0000000+00:00</time></trkpt><trkpt lat="63.70775223" lon="-19.52345657"><ele>228.4</ele><time>2012-07-26T15:16:47.0000000+00:00</time></trkpt><trkpt lat="63.70773315" lon="-19.52353668"><ele>229.3</ele><time>2012-07-26T15:16:52.0000000+00:00</time></trkpt><trkpt lat="63.70771408" lon="-19.52360725"><ele>230.2</ele><time>2012-07-26T15:16:57.0000000+00:00</time></trkpt><trkpt lat="63.70769882" lon="-19.52368736"><ele>231.4</ele><time>2012-07-26T15:17:02.0000000+00:00</time></trkpt><trkpt lat="63.70766068" lon="-19.52376175"><ele>232.4</ele><time>2012-07-26T15:17:07.0000000+00:00</time></trkpt><trkpt lat="63.70763016" lon="-19.52387047"><ele>232.2</ele><time>2012-07-26T15:17:12.0000000+00:00</time></trkpt><trkpt lat="63.70759964" lon="-19.52397156"><ele>233.0</ele><time>2012-07-26T15:17:17.0000000+00:00</time></trkpt><trkpt lat="63.70757675" lon="-19.52403641"><ele>233.0</ele><time>2012-07-26T15:17:22.0000000+00:00</time></trkpt><trkpt lat="63.70754242" lon="-19.5241127"><ele>233.5</ele><time>2012-07-26T15:17:27.0000000+00:00</time></trkpt><trkpt lat="63.70752335" lon="-19.52414703"><ele>234.5</ele><time>2012-07-26T15:17:32.0000000+00:00</time></trkpt><trkpt lat="63.70752335" lon="-19.52414894"><ele>234.4</ele><time>2012-07-26T15:17:37.0000000+00:00</time></trkpt><trkpt lat="63.70749664" lon="-19.52425575"><ele>235.2</ele><time>2012-07-26T15:17:42.0000000+00:00</time></trkpt><trkpt lat="63.70745087" lon="-19.52438164"><ele>235.9</ele><time>2012-07-26T15:17:47.0000000+00:00</time></trkpt><trkpt lat="63.7073822" lon="-19.52449417"><ele>236.1</ele><time>2012-07-26T15:17:52.0000000+00:00</time></trkpt><trkpt lat="63.70731735" lon="-19.52462959"><ele>236.7</ele><time>2012-07-26T15:17:57.0000000+00:00</time></trkpt><trkpt lat="63.70726013" lon="-19.52482033"><ele>237.6</ele><time>2012-07-26T15:18:02.0000000+00:00</time></trkpt><trkpt lat="63.70718765" lon="-19.52503204"><ele>237.6</ele><time>2012-07-26T15:18:07.0000000+00:00</time></trkpt><trkpt lat="63.70711517" lon="-19.52528763"><ele>238.2</ele><time>2012-07-26T15:18:12.0000000+00:00</time></trkpt><trkpt lat="63.70702744" lon="-19.52554131"><ele>238.9</ele><time>2012-07-26T15:18:17.0000000+00:00</time></trkpt><trkpt lat="63.70693588" lon="-19.52574921"><ele>240.2</ele><time>2012-07-26T15:18:22.0000000+00:00</time></trkpt><trkpt lat="63.70685196" lon="-19.52596092"><ele>240.5</ele><time>2012-07-26T15:18:27.0000000+00:00</time></trkpt><trkpt lat="63.70676041" lon="-19.52620888"><ele>239.1</ele><time>2012-07-26T15:18:32.0000000+00:00</time></trkpt><trkpt lat="63.70665741" lon="-19.52649498"><ele>239.0</ele><time>2012-07-26T15:18:37.0000000+00:00</time></trkpt><trkpt lat="63.70653534" lon="-19.52682877"><ele>237.0</ele><time>2012-07-26T15:18:42.0000000+00:00</time></trkpt><trkpt lat="63.70642853" lon="-19.52717972"><ele>237.8</ele><time>2012-07-26T15:18:47.0000000+00:00</time></trkpt><trkpt lat="63.70633698" lon="-19.52749252"><ele>237.2</ele><time>2012-07-26T15:18:52.0000000+00:00</time></trkpt><trkpt lat="63.7062645" lon="-19.5277729"><ele>238.1</ele><time>2012-07-26T15:18:57.0000000+00:00</time></trkpt><trkpt lat="63.7061882" lon="-19.52809525"><ele>236.7</ele><time>2012-07-26T15:19:02.0000000+00:00</time></trkpt><trkpt lat="63.7061348" lon="-19.52839851"><ele>235.2</ele><time>2012-07-26T15:19:07.0000000+00:00</time></trkpt><trkpt lat="63.70609283" lon="-19.5287056"><ele>233.5</ele><time>2012-07-26T15:19:12.0000000+00:00</time></trkpt><trkpt lat="63.70604324" lon="-19.52904892"><ele>233.2</ele><time>2012-07-26T15:19:17.0000000+00:00</time></trkpt><trkpt lat="63.70600891" lon="-19.52933884"><ele>233.1</ele><time>2012-07-26T15:19:22.0000000+00:00</time></trkpt><trkpt lat="63.70594406" lon="-19.52971077"><ele>230.3</ele><time>2012-07-26T15:19:27.0000000+00:00</time></trkpt><trkpt lat="63.70589829" lon="-19.53007317"><ele>228.3</ele><time>2012-07-26T15:19:32.0000000+00:00</time></trkpt><trkpt lat="63.70584106" lon="-19.53043556"><ele>228.2</ele><time>2012-07-26T15:19:37.0000000+00:00</time></trkpt><trkpt lat="63.70579529" lon="-19.53079033"><ele>228.6</ele><time>2012-07-26T15:19:42.0000000+00:00</time></trkpt><trkpt lat="63.70574188" lon="-19.53118515"><ele>228.7</ele><time>2012-07-26T15:19:47.0000000+00:00</time></trkpt><trkpt lat="63.70569229" lon="-19.53160095"><ele>229.2</ele><time>2012-07-26T15:19:52.0000000+00:00</time></trkpt><trkpt lat="63.70563507" lon="-19.53197098"><ele>227.9</ele><time>2012-07-26T15:19:57.0000000+00:00</time></trkpt><trkpt lat="63.70555496" lon="-19.53229904"><ele>226.9</ele><time>2012-07-26T15:20:02.0000000+00:00</time></trkpt><trkpt lat="63.70546722" lon="-19.53260422"><ele>225.5</ele><time>2012-07-26T15:20:07.0000000+00:00</time></trkpt><trkpt lat="63.70537949" lon="-19.5329361"><ele>225.4</ele><time>2012-07-26T15:20:12.0000000+00:00</time></trkpt><trkpt lat="63.70530701" lon="-19.53323555"><ele>222.6</ele><time>2012-07-26T15:20:17.0000000+00:00</time></trkpt><trkpt lat="63.70526123" lon="-19.53342438"><ele>223.2</ele><time>2012-07-26T15:20:22.0000000+00:00</time></trkpt><trkpt lat="63.70523834" lon="-19.53361511"><ele>226.4</ele><time>2012-07-26T15:20:27.0000000+00:00</time></trkpt><trkpt lat="63.70523834" lon="-19.53361321"><ele>227.6</ele><time>2012-07-26T15:20:32.0000000+00:00</time></trkpt><trkpt lat="63.70524216" lon="-19.53360558"><ele>227.6</ele><time>2012-07-26T15:20:37.0000000+00:00</time></trkpt><trkpt lat="63.70524216" lon="-19.53360558"><ele>227.6</ele><time>2012-07-26T15:20:42.0000000+00:00</time></trkpt><trkpt lat="63.70523834" lon="-19.53359985"><ele>227.8</ele><time>2012-07-26T15:20:47.0000000+00:00</time></trkpt><trkpt lat="63.70524216" lon="-19.53359222"><ele>227.8</ele><time>2012-07-26T15:20:52.0000000+00:00</time></trkpt><trkpt lat="63.70524216" lon="-19.53359032"><ele>227.8</ele><time>2012-07-26T15:20:57.0000000+00:00</time></trkpt><trkpt lat="63.70524216" lon="-19.53359795"><ele>227.7</ele><time>2012-07-26T15:21:02.0000000+00:00</time></trkpt><trkpt lat="63.70524597" lon="-19.53360558"><ele>227.7</ele><time>2012-07-26T15:21:07.0000000+00:00</time></trkpt><trkpt lat="63.70524597" lon="-19.53361321"><ele>227.7</ele><time>2012-07-26T15:21:12.0000000+00:00</time></trkpt><trkpt lat="63.70524597" lon="-19.53361511"><ele>227.6</ele><time>2012-07-26T15:21:17.0000000+00:00</time></trkpt><trkpt lat="63.70524597" lon="-19.53361511"><ele>227.6</ele><time>2012-07-26T15:21:22.0000000+00:00</time></trkpt><trkpt lat="63.70524597" lon="-19.53361511"><ele>227.6</ele><time>2012-07-26T15:21:27.0000000+00:00</time></trkpt><trkpt lat="63.70524597" lon="-19.53361511"><ele>227.6</ele><time>2012-07-26T15:21:32.0000000+00:00</time></trkpt><trkpt lat="63.70522308" lon="-19.5336895"><ele>227.6</ele><time>2012-07-26T15:21:37.0000000+00:00</time></trkpt><trkpt lat="63.70514298" lon="-19.53403664"><ele>226.6</ele><time>2012-07-26T15:21:42.0000000+00:00</time></trkpt><trkpt lat="63.70505524" lon="-19.53439713"><ele>226.3</ele><time>2012-07-26T15:21:47.0000000+00:00</time></trkpt><trkpt lat="63.70496368" lon="-19.53470993"><ele>227.1</ele><time>2012-07-26T15:21:52.0000000+00:00</time></trkpt><trkpt lat="63.70486069" lon="-19.53501892"><ele>228.2</ele><time>2012-07-26T15:21:57.0000000+00:00</time></trkpt><trkpt lat="63.70475769" lon="-19.53531647"><ele>228.7</ele><time>2012-07-26T15:22:02.0000000+00:00</time></trkpt><trkpt lat="63.70466995" lon="-19.53550911"><ele>229.3</ele><time>2012-07-26T15:22:07.0000000+00:00</time></trkpt><trkpt lat="63.70457459" lon="-19.53577995"><ele>231.0</ele><time>2012-07-26T15:22:12.0000000+00:00</time></trkpt><trkpt lat="63.70445252" lon="-19.53608322"><ele>231.4</ele><time>2012-07-26T15:22:17.0000000+00:00</time></trkpt><trkpt lat="63.70436859" lon="-19.53630447"><ele>232.8</ele><time>2012-07-26T15:22:22.0000000+00:00</time></trkpt><trkpt lat="63.7042923" lon="-19.53646469"><ele>230.7</ele><time>2012-07-26T15:22:27.0000000+00:00</time></trkpt><trkpt lat="63.70419312" lon="-19.53665352"><ele>230.2</ele><time>2012-07-26T15:22:32.0000000+00:00</time></trkpt><trkpt lat="63.7040863" lon="-19.53685379"><ele>229.6</ele><time>2012-07-26T15:22:37.0000000+00:00</time></trkpt><trkpt lat="63.70399857" lon="-19.53704262"><ele>230.5</ele><time>2012-07-26T15:22:42.0000000+00:00</time></trkpt><trkpt lat="63.7039032" lon="-19.53722382"><ele>229.7</ele><time>2012-07-26T15:22:47.0000000+00:00</time></trkpt><trkpt lat="63.70378113" lon="-19.53748512"><ele>230.9</ele><time>2012-07-26T15:22:52.0000000+00:00</time></trkpt><trkpt lat="63.70365524" lon="-19.53779793"><ele>231.5</ele><time>2012-07-26T15:22:57.0000000+00:00</time></trkpt><trkpt lat="63.70355606" lon="-19.53805542"><ele>231.6</ele><time>2012-07-26T15:23:02.0000000+00:00</time></trkpt><trkpt lat="63.70347214" lon="-19.53824234"><ele>231.0</ele><time>2012-07-26T15:23:07.0000000+00:00</time></trkpt><trkpt lat="63.7033844" lon="-19.53843308"><ele>229.5</ele><time>2012-07-26T15:23:12.0000000+00:00</time></trkpt><trkpt lat="63.70328522" lon="-19.53866005"><ele>228.8</ele><time>2012-07-26T15:23:17.0000000+00:00</time></trkpt><trkpt lat="63.70319367" lon="-19.53886604"><ele>227.0</ele><time>2012-07-26T15:23:22.0000000+00:00</time></trkpt><trkpt lat="63.7030983" lon="-19.53910637"><ele>227.2</ele><time>2012-07-26T15:23:27.0000000+00:00</time></trkpt><trkpt lat="63.70299912" lon="-19.53935814"><ele>227.8</ele><time>2012-07-26T15:23:32.0000000+00:00</time></trkpt><trkpt lat="63.70288467" lon="-19.53966713"><ele>227.0</ele><time>2012-07-26T15:23:37.0000000+00:00</time></trkpt><trkpt lat="63.70278549" lon="-19.53996086"><ele>228.7</ele><time>2012-07-26T15:23:42.0000000+00:00</time></trkpt><trkpt lat="63.70270157" lon="-19.54020882"><ele>228.7</ele><time>2012-07-26T15:23:47.0000000+00:00</time></trkpt><trkpt lat="63.70262528" lon="-19.54038239"><ele>228.3</ele><time>2012-07-26T15:23:52.0000000+00:00</time></trkpt><trkpt lat="63.70253754" lon="-19.54059792"><ele>228.5</ele><time>2012-07-26T15:23:57.0000000+00:00</time></trkpt><trkpt lat="63.70246124" lon="-19.54083824"><ele>227.4</ele><time>2012-07-26T15:24:02.0000000+00:00</time></trkpt><trkpt lat="63.70238876" lon="-19.54107475"><ele>227.2</ele><time>2012-07-26T15:24:07.0000000+00:00</time></trkpt><trkpt lat="63.70232391" lon="-19.54131699"><ele>226.8</ele><time>2012-07-26T15:24:12.0000000+00:00</time></trkpt><trkpt lat="63.70224762" lon="-19.54156303"><ele>225.9</ele><time>2012-07-26T15:24:17.0000000+00:00</time></trkpt><trkpt lat="63.70217133" lon="-19.54174805"><ele>227.2</ele><time>2012-07-26T15:24:22.0000000+00:00</time></trkpt><trkpt lat="63.70210648" lon="-19.54192162"><ele>226.9</ele><time>2012-07-26T15:24:27.0000000+00:00</time></trkpt><trkpt lat="63.70204163" lon="-19.54214096"><ele>225.8</ele><time>2012-07-26T15:24:32.0000000+00:00</time></trkpt><trkpt lat="63.70196533" lon="-19.54238129"><ele>224.8</ele><time>2012-07-26T15:24:37.0000000+00:00</time></trkpt><trkpt lat="63.70188904" lon="-19.54265213"><ele>224.6</ele><time>2012-07-26T15:24:42.0000000+00:00</time></trkpt><trkpt lat="63.7018013" lon="-19.54293633"><ele>224.9</ele><time>2012-07-26T15:24:47.0000000+00:00</time></trkpt><trkpt lat="63.70172882" lon="-19.54320145"><ele>226.4</ele><time>2012-07-26T15:24:52.0000000+00:00</time></trkpt><trkpt lat="63.70168686" lon="-19.54333305"><ele>226.9</ele><time>2012-07-26T15:24:57.0000000+00:00</time></trkpt><trkpt lat="63.70168304" lon="-19.54333305"><ele>225.5</ele><time>2012-07-26T15:25:02.0000000+00:00</time></trkpt><trkpt lat="63.70168304" lon="-19.54332161"><ele>225.4</ele><time>2012-07-26T15:25:07.0000000+00:00</time></trkpt><trkpt lat="63.70164871" lon="-19.5434494"><ele>224.9</ele><time>2012-07-26T15:25:12.0000000+00:00</time></trkpt><trkpt lat="63.70158386" lon="-19.54366112"><ele>224.0</ele><time>2012-07-26T15:25:17.0000000+00:00</time></trkpt><trkpt lat="63.70152664" lon="-19.54387665"><ele>222.1</ele><time>2012-07-26T15:25:22.0000000+00:00</time></trkpt><trkpt lat="63.70146179" lon="-19.54409027"><ele>222.0</ele><time>2012-07-26T15:25:27.0000000+00:00</time></trkpt><trkpt lat="63.70138931" lon="-19.54432297"><ele>221.4</ele><time>2012-07-26T15:25:32.0000000+00:00</time></trkpt><trkpt lat="63.70132065" lon="-19.54458618"><ele>220.8</ele><time>2012-07-26T15:25:37.0000000+00:00</time></trkpt><trkpt lat="63.70123673" lon="-19.54487419"><ele>221.1</ele><time>2012-07-26T15:25:42.0000000+00:00</time></trkpt><trkpt lat="63.70114899" lon="-19.54516411"><ele>221.4</ele><time>2012-07-26T15:25:47.0000000+00:00</time></trkpt><trkpt lat="63.70106888" lon="-19.54545975"><ele>221.3</ele><time>2012-07-26T15:25:52.0000000+00:00</time></trkpt><trkpt lat="63.70098114" lon="-19.54576683"><ele>221.1</ele><time>2012-07-26T15:25:57.0000000+00:00</time></trkpt><trkpt lat="63.70087814" lon="-19.54609489"><ele>219.9</ele><time>2012-07-26T15:26:02.0000000+00:00</time></trkpt><trkpt lat="63.70077896" lon="-19.54642868"><ele>219.5</ele><time>2012-07-26T15:26:07.0000000+00:00</time></trkpt><trkpt lat="63.70068359" lon="-19.54673195"><ele>220.0</ele><time>2012-07-26T15:26:12.0000000+00:00</time></trkpt><trkpt lat="63.70057678" lon="-19.54699516"><ele>220.1</ele><time>2012-07-26T15:26:17.0000000+00:00</time></trkpt><trkpt lat="63.70048904" lon="-19.54723167"><ele>220.5</ele><time>2012-07-26T15:26:22.0000000+00:00</time></trkpt><trkpt lat="63.70039368" lon="-19.547472"><ele>221.4</ele><time>2012-07-26T15:26:27.0000000+00:00</time></trkpt><trkpt lat="63.70027161" lon="-19.5477314"><ele>221.0</ele><time>2012-07-26T15:26:32.0000000+00:00</time></trkpt><trkpt lat="63.70015335" lon="-19.547966"><ele>220.3</ele><time>2012-07-26T15:26:37.0000000+00:00</time></trkpt><trkpt lat="63.7000351" lon="-19.54823494"><ele>220.2</ele><time>2012-07-26T15:26:42.0000000+00:00</time></trkpt><trkpt lat="63.69992065" lon="-19.54850197"><ele>219.4</ele><time>2012-07-26T15:26:47.0000000+00:00</time></trkpt><trkpt lat="63.69984436" lon="-19.54869843"><ele>218.6</ele><time>2012-07-26T15:26:52.0000000+00:00</time></trkpt><trkpt lat="63.69982147" lon="-19.54881668"><ele>217.3</ele><time>2012-07-26T15:26:57.0000000+00:00</time></trkpt><trkpt lat="63.69975281" lon="-19.54908371"><ele>216.0</ele><time>2012-07-26T15:27:02.0000000+00:00</time></trkpt><trkpt lat="63.69965744" lon="-19.54946327"><ele>213.6</ele><time>2012-07-26T15:27:07.0000000+00:00</time></trkpt><trkpt lat="63.69957733" lon="-19.54992676"><ele>213.4</ele><time>2012-07-26T15:27:12.0000000+00:00</time></trkpt><trkpt lat="63.69950867" lon="-19.55030823"><ele>212.9</ele><time>2012-07-26T15:27:17.0000000+00:00</time></trkpt><trkpt lat="63.69942474" lon="-19.55070114"><ele>212.6</ele><time>2012-07-26T15:27:22.0000000+00:00</time></trkpt><trkpt lat="63.69937897" lon="-19.55098534"><ele>211.3</ele><time>2012-07-26T15:27:27.0000000+00:00</time></trkpt><trkpt lat="63.69932175" lon="-19.55124855"><ele>211.5</ele><time>2012-07-26T15:27:32.0000000+00:00</time></trkpt><trkpt lat="63.69924545" lon="-19.5515213"><ele>210.5</ele><time>2012-07-26T15:27:37.0000000+00:00</time></trkpt><trkpt lat="63.69916916" lon="-19.55183792"><ele>211.8</ele><time>2012-07-26T15:27:42.0000000+00:00</time></trkpt><trkpt lat="63.69910431" lon="-19.5521183"><ele>211.9</ele><time>2012-07-26T15:27:47.0000000+00:00</time></trkpt><trkpt lat="63.69902039" lon="-19.55238152"><ele>211.2</ele><time>2012-07-26T15:27:52.0000000+00:00</time></trkpt><trkpt lat="63.69892502" lon="-19.55264664"><ele>211.2</ele><time>2012-07-26T15:27:57.0000000+00:00</time></trkpt><trkpt lat="63.69880676" lon="-19.5529232"><ele>212.2</ele><time>2012-07-26T15:28:02.0000000+00:00</time></trkpt><trkpt lat="63.69873047" lon="-19.55307961"><ele>212.8</ele><time>2012-07-26T15:28:07.0000000+00:00</time></trkpt><trkpt lat="63.69872665" lon="-19.55306816"><ele>212.2</ele><time>2012-07-26T15:28:12.0000000+00:00</time></trkpt><trkpt lat="63.69872665" lon="-19.55306816"><ele>212.3</ele><time>2012-07-26T15:28:17.0000000+00:00</time></trkpt><trkpt lat="63.69873047" lon="-19.55306816"><ele>212.2</ele><time>2012-07-26T15:28:22.0000000+00:00</time></trkpt><trkpt lat="63.69873428" lon="-19.55306435"><ele>212.0</ele><time>2012-07-26T15:28:27.0000000+00:00</time></trkpt><trkpt lat="63.6987381" lon="-19.55305862"><ele>211.9</ele><time>2012-07-26T15:28:32.0000000+00:00</time></trkpt><trkpt lat="63.69874191" lon="-19.5530529"><ele>211.9</ele><time>2012-07-26T15:28:37.0000000+00:00</time></trkpt><trkpt lat="63.69875336" lon="-19.55304337"><ele>211.9</ele><time>2012-07-26T15:28:42.0000000+00:00</time></trkpt><trkpt lat="63.6987648" lon="-19.55303574"><ele>211.8</ele><time>2012-07-26T15:28:47.0000000+00:00</time></trkpt><trkpt lat="63.69877243" lon="-19.55302811"><ele>211.8</ele><time>2012-07-26T15:28:52.0000000+00:00</time></trkpt><trkpt lat="63.69878388" lon="-19.55302429"><ele>211.7</ele><time>2012-07-26T15:28:57.0000000+00:00</time></trkpt><trkpt lat="63.69879532" lon="-19.55301857"><ele>211.6</ele><time>2012-07-26T15:29:02.0000000+00:00</time></trkpt><trkpt lat="63.69880295" lon="-19.55301476"><ele>211.6</ele><time>2012-07-26T15:29:07.0000000+00:00</time></trkpt><trkpt lat="63.69881058" lon="-19.55301666"><ele>211.6</ele><time>2012-07-26T15:29:12.0000000+00:00</time></trkpt><trkpt lat="63.69881439" lon="-19.55301285"><ele>211.5</ele><time>2012-07-26T15:29:17.0000000+00:00</time></trkpt><trkpt lat="63.69881821" lon="-19.55301094"><ele>211.4</ele><time>2012-07-26T15:29:22.0000000+00:00</time></trkpt><trkpt lat="63.69882584" lon="-19.55300522"><ele>211.5</ele><time>2012-07-26T15:29:27.0000000+00:00</time></trkpt><trkpt lat="63.69883347" lon="-19.5529995"><ele>211.5</ele><time>2012-07-26T15:29:32.0000000+00:00</time></trkpt><trkpt lat="63.69882965" lon="-19.55299187"><ele>211.6</ele><time>2012-07-26T15:29:37.0000000+00:00</time></trkpt><trkpt lat="63.69882202" lon="-19.55297089"><ele>211.6</ele><time>2012-07-26T15:29:42.0000000+00:00</time></trkpt><trkpt lat="63.69881821" lon="-19.55295563"><ele>211.5</ele><time>2012-07-26T15:29:47.0000000+00:00</time></trkpt><trkpt lat="63.69880676" lon="-19.55294418"><ele>211.4</ele><time>2012-07-26T15:29:52.0000000+00:00</time></trkpt><trkpt lat="63.69880295" lon="-19.55292893"><ele>211.4</ele><time>2012-07-26T15:29:57.0000000+00:00</time></trkpt><trkpt lat="63.69879913" lon="-19.55291748"><ele>211.3</ele><time>2012-07-26T15:30:02.0000000+00:00</time></trkpt><trkpt lat="63.6987915" lon="-19.55291748"><ele>211.1</ele><time>2012-07-26T15:30:07.0000000+00:00</time></trkpt><trkpt lat="63.69878769" lon="-19.55291367"><ele>210.9</ele><time>2012-07-26T15:30:12.0000000+00:00</time></trkpt><trkpt lat="63.69878006" lon="-19.55290985"><ele>210.7</ele><time>2012-07-26T15:30:17.0000000+00:00</time></trkpt><trkpt lat="63.69877625" lon="-19.55290604"><ele>210.5</ele><time>2012-07-26T15:30:22.0000000+00:00</time></trkpt><trkpt lat="63.6987648" lon="-19.5529232"><ele>210.0</ele><time>2012-07-26T15:30:27.0000000+00:00</time></trkpt><trkpt lat="63.6987648" lon="-19.5529213"><ele>209.6</ele><time>2012-07-26T15:30:32.0000000+00:00</time></trkpt><trkpt lat="63.69876099" lon="-19.5529232"><ele>209.1</ele><time>2012-07-26T15:30:37.0000000+00:00</time></trkpt><trkpt lat="63.69876099" lon="-19.5529232"><ele>209.0</ele><time>2012-07-26T15:30:42.0000000+00:00</time></trkpt><trkpt lat="63.69875717" lon="-19.55292893"><ele>208.9</ele><time>2012-07-26T15:30:47.0000000+00:00</time></trkpt><trkpt lat="63.69875717" lon="-19.55292893"><ele>208.9</ele><time>2012-07-26T15:30:52.0000000+00:00</time></trkpt><trkpt lat="63.69875717" lon="-19.55293083"><ele>208.9</ele><time>2012-07-26T15:30:57.0000000+00:00</time></trkpt><trkpt lat="63.69876099" lon="-19.55298233"><ele>208.9</ele><time>2012-07-26T15:31:02.0000000+00:00</time></trkpt><trkpt lat="63.69878769" lon="-19.55322456"><ele>209.1</ele><time>2012-07-26T15:31:07.0000000+00:00</time></trkpt><trkpt lat="63.69881439" lon="-19.55344772"><ele>210.3</ele><time>2012-07-26T15:31:12.0000000+00:00</time></trkpt><trkpt lat="63.69883728" lon="-19.55365562"><ele>210.7</ele><time>2012-07-26T15:31:17.0000000+00:00</time></trkpt><trkpt lat="63.69887161" lon="-19.55405617"><ele>209.9</ele><time>2012-07-26T15:31:22.0000000+00:00</time></trkpt><trkpt lat="63.69882202" lon="-19.55441666"><ele>210.0</ele><time>2012-07-26T15:31:27.0000000+00:00</time></trkpt><trkpt lat="63.69878388" lon="-19.55467415"><ele>209.8</ele><time>2012-07-26T15:31:32.0000000+00:00</time></trkpt><trkpt lat="63.69875717" lon="-19.55499458"><ele>209.6</ele><time>2012-07-26T15:31:37.0000000+00:00</time></trkpt><trkpt lat="63.6987381" lon="-19.55529022"><ele>210.4</ele><time>2012-07-26T15:31:42.0000000+00:00</time></trkpt><trkpt lat="63.69871903" lon="-19.55557442"><ele>209.9</ele><time>2012-07-26T15:31:47.0000000+00:00</time></trkpt><trkpt lat="63.69866562" lon="-19.55582047"><ele>211.1</ele><time>2012-07-26T15:31:52.0000000+00:00</time></trkpt><trkpt lat="63.69855118" lon="-19.55609703"><ele>208.8</ele><time>2012-07-26T15:31:57.0000000+00:00</time></trkpt><trkpt lat="63.69846726" lon="-19.5564251"><ele>206.6</ele><time>2012-07-26T15:32:02.0000000+00:00</time></trkpt><trkpt lat="63.69835281" lon="-19.55676079"><ele>205.7</ele><time>2012-07-26T15:32:07.0000000+00:00</time></trkpt><trkpt lat="63.69823074" lon="-19.55699539"><ele>207.0</ele><time>2012-07-26T15:32:12.0000000+00:00</time></trkpt><trkpt lat="63.69812012" lon="-19.5572052"><ele>208.8</ele><time>2012-07-26T15:32:17.0000000+00:00</time></trkpt><trkpt lat="63.69802856" lon="-19.55738258"><ele>209.3</ele><time>2012-07-26T15:32:22.0000000+00:00</time></trkpt><trkpt lat="63.69797897" lon="-19.55755997"><ele>209.1</ele><time>2012-07-26T15:32:27.0000000+00:00</time></trkpt><trkpt lat="63.6979332" lon="-19.55773926"><ele>210.3</ele><time>2012-07-26T15:32:32.0000000+00:00</time></trkpt><trkpt lat="63.69791031" lon="-19.55793381"><ele>209.7</ele><time>2012-07-26T15:32:37.0000000+00:00</time></trkpt><trkpt lat="63.69790268" lon="-19.5581646"><ele>210.2</ele><time>2012-07-26T15:32:42.0000000+00:00</time></trkpt><trkpt lat="63.69792557" lon="-19.55836296"><ele>212.6</ele><time>2012-07-26T15:32:47.0000000+00:00</time></trkpt><trkpt lat="63.69795609" lon="-19.55857658"><ele>213.0</ele><time>2012-07-26T15:32:52.0000000+00:00</time></trkpt><trkpt lat="63.69799423" lon="-19.558815"><ele>213.2</ele><time>2012-07-26T15:32:57.0000000+00:00</time></trkpt><trkpt lat="63.69805145" lon="-19.55909157"><ele>213.4</ele><time>2012-07-26T15:33:02.0000000+00:00</time></trkpt><trkpt lat="63.69808579" lon="-19.55945587"><ele>211.8</ele><time>2012-07-26T15:33:07.0000000+00:00</time></trkpt><trkpt lat="63.69813156" lon="-19.55984306"><ele>209.2</ele><time>2012-07-26T15:33:12.0000000+00:00</time></trkpt><trkpt lat="63.69820786" lon="-19.56045151"><ele>208.0</ele><time>2012-07-26T15:33:17.0000000+00:00</time></trkpt><trkpt lat="63.69820786" lon="-19.56115723"><ele>206.2</ele><time>2012-07-26T15:33:22.0000000+00:00</time></trkpt><trkpt lat="63.69818497" lon="-19.56178093"><ele>204.9</ele><time>2012-07-26T15:33:27.0000000+00:00</time></trkpt><trkpt lat="63.69819641" lon="-19.5621624"><ele>206.2</ele><time>2012-07-26T15:33:32.0000000+00:00</time></trkpt><trkpt lat="63.6981926" lon="-19.56239891"><ele>205.8</ele><time>2012-07-26T15:33:37.0000000+00:00</time></trkpt><trkpt lat="63.6981926" lon="-19.56259537"><ele>205.2</ele><time>2012-07-26T15:33:42.0000000+00:00</time></trkpt><trkpt lat="63.69820023" lon="-19.56277275"><ele>206.8</ele><time>2012-07-26T15:33:47.0000000+00:00</time></trkpt><trkpt lat="63.69821167" lon="-19.56297112"><ele>206.8</ele><time>2012-07-26T15:33:52.0000000+00:00</time></trkpt><trkpt lat="63.69822693" lon="-19.56314278"><ele>208.3</ele><time>2012-07-26T15:33:57.0000000+00:00</time></trkpt><trkpt lat="63.69823837" lon="-19.56331062"><ele>209.9</ele><time>2012-07-26T15:34:02.0000000+00:00</time></trkpt><trkpt lat="63.69825363" lon="-19.56336021"><ele>210.3</ele><time>2012-07-26T15:34:07.0000000+00:00</time></trkpt><trkpt lat="63.69824982" lon="-19.56335068"><ele>210.4</ele><time>2012-07-26T15:34:12.0000000+00:00</time></trkpt><trkpt lat="63.69824982" lon="-19.56335068"><ele>210.4</ele><time>2012-07-26T15:34:17.0000000+00:00</time></trkpt><trkpt lat="63.69824982" lon="-19.56334877"><ele>210.4</ele><time>2012-07-26T15:34:22.0000000+00:00</time></trkpt><trkpt lat="63.69824982" lon="-19.56334877"><ele>210.3</ele><time>2012-07-26T15:34:27.0000000+00:00</time></trkpt><trkpt lat="63.69824982" lon="-19.56334877"><ele>210.3</ele><time>2012-07-26T15:34:32.0000000+00:00</time></trkpt><trkpt lat="63.69824982" lon="-19.56334686"><ele>210.3</ele><time>2012-07-26T15:34:37.0000000+00:00</time></trkpt><trkpt lat="63.69824982" lon="-19.56334686"><ele>210.3</ele><time>2012-07-26T15:34:42.0000000+00:00</time></trkpt><trkpt lat="63.69824982" lon="-19.56334686"><ele>210.3</ele><time>2012-07-26T15:34:47.0000000+00:00</time></trkpt><trkpt lat="63.69826508" lon="-19.56350708"><ele>209.6</ele><time>2012-07-26T15:34:52.0000000+00:00</time></trkpt><trkpt lat="63.69827652" lon="-19.56379128"><ele>208.9</ele><time>2012-07-26T15:34:57.0000000+00:00</time></trkpt><trkpt lat="63.69828415" lon="-19.56415176"><ele>208.0</ele><time>2012-07-26T15:35:02.0000000+00:00</time></trkpt><trkpt lat="63.69827652" lon="-19.56456757"><ele>206.9</ele><time>2012-07-26T15:35:07.0000000+00:00</time></trkpt><trkpt lat="63.69825363" lon="-19.56498337"><ele>206.3</ele><time>2012-07-26T15:35:12.0000000+00:00</time></trkpt><trkpt lat="63.69829559" lon="-19.56549263"><ele>205.0</ele><time>2012-07-26T15:35:17.0000000+00:00</time></trkpt><trkpt lat="63.69834137" lon="-19.56612778"><ele>205.0</ele><time>2012-07-26T15:35:22.0000000+00:00</time></trkpt><trkpt lat="63.698349" lon="-19.5666256"><ele>204.6</ele><time>2012-07-26T15:35:27.0000000+00:00</time></trkpt><trkpt lat="63.69834518" lon="-19.56689644"><ele>204.3</ele><time>2012-07-26T15:35:32.0000000+00:00</time></trkpt><trkpt lat="63.69834137" lon="-19.56715012"><ele>204.4</ele><time>2012-07-26T15:35:37.0000000+00:00</time></trkpt><trkpt lat="63.6983223" lon="-19.5674324"><ele>204.5</ele><time>2012-07-26T15:35:42.0000000+00:00</time></trkpt><trkpt lat="63.69830704" lon="-19.56764031"><ele>203.1</ele><time>2012-07-26T15:35:47.0000000+00:00</time></trkpt><trkpt lat="63.69828796" lon="-19.56787682"><ele>203.5</ele><time>2012-07-26T15:35:52.0000000+00:00</time></trkpt><trkpt lat="63.69827652" lon="-19.56814003"><ele>202.9</ele><time>2012-07-26T15:35:57.0000000+00:00</time></trkpt><trkpt lat="63.69826508" lon="-19.56844902"><ele>201.9</ele><time>2012-07-26T15:36:02.0000000+00:00</time></trkpt><trkpt lat="63.69824982" lon="-19.56876183"><ele>202.6</ele><time>2012-07-26T15:36:07.0000000+00:00</time></trkpt><trkpt lat="63.69823074" lon="-19.56908035"><ele>203.2</ele><time>2012-07-26T15:36:12.0000000+00:00</time></trkpt><trkpt lat="63.6982193" lon="-19.5693512"><ele>202.9</ele><time>2012-07-26T15:36:17.0000000+00:00</time></trkpt><trkpt lat="63.69819641" lon="-19.56964684"><ele>203.9</ele><time>2012-07-26T15:36:22.0000000+00:00</time></trkpt><trkpt lat="63.69818115" lon="-19.56998634"><ele>202.5</ele><time>2012-07-26T15:36:27.0000000+00:00</time></trkpt><trkpt lat="63.69816971" lon="-19.57033348"><ele>200.7</ele><time>2012-07-26T15:36:32.0000000+00:00</time></trkpt><trkpt lat="63.69816589" lon="-19.57066917"><ele>200.5</ele><time>2012-07-26T15:36:37.0000000+00:00</time></trkpt><trkpt lat="63.69816208" lon="-19.57099533"><ele>201.0</ele><time>2012-07-26T15:36:42.0000000+00:00</time></trkpt><trkpt lat="63.69815826" lon="-19.57131958"><ele>201.2</ele><time>2012-07-26T15:36:47.0000000+00:00</time></trkpt><trkpt lat="63.69815445" lon="-19.57165337"><ele>201.7</ele><time>2012-07-26T15:36:52.0000000+00:00</time></trkpt><trkpt lat="63.69814301" lon="-19.5720005"><ele>202.8</ele><time>2012-07-26T15:36:57.0000000+00:00</time></trkpt><trkpt lat="63.69814301" lon="-19.57228088"><ele>204.1</ele><time>2012-07-26T15:37:02.0000000+00:00</time></trkpt><trkpt lat="63.69815445" lon="-19.5725975"><ele>204.2</ele><time>2012-07-26T15:37:07.0000000+00:00</time></trkpt><trkpt lat="63.69814301" lon="-19.57291603"><ele>203.5</ele><time>2012-07-26T15:37:12.0000000+00:00</time></trkpt><trkpt lat="63.69814301" lon="-19.57321358"><ele>202.8</ele><time>2012-07-26T15:37:17.0000000+00:00</time></trkpt><trkpt lat="63.69813156" lon="-19.57353973"><ele>202.5</ele><time>2012-07-26T15:37:22.0000000+00:00</time></trkpt><trkpt lat="63.69813156" lon="-19.57382011"><ele>200.9</ele><time>2012-07-26T15:37:27.0000000+00:00</time></trkpt><trkpt lat="63.69812012" lon="-19.57407951"><ele>201.3</ele><time>2012-07-26T15:37:32.0000000+00:00</time></trkpt><trkpt lat="63.69812393" lon="-19.57434082"><ele>203.1</ele><time>2012-07-26T15:37:37.0000000+00:00</time></trkpt><trkpt lat="63.69813538" lon="-19.57466888"><ele>202.2</ele><time>2012-07-26T15:37:42.0000000+00:00</time></trkpt><trkpt lat="63.69814682" lon="-19.57491875"><ele>200.0</ele><time>2012-07-26T15:37:47.0000000+00:00</time></trkpt><trkpt lat="63.69815064" lon="-19.57517242"><ele>199.7</ele><time>2012-07-26T15:37:52.0000000+00:00</time></trkpt><trkpt lat="63.69815826" lon="-19.57544899"><ele>200.2</ele><time>2012-07-26T15:37:57.0000000+00:00</time></trkpt><trkpt lat="63.69817352" lon="-19.57576752"><ele>200.6</ele><time>2012-07-26T15:38:02.0000000+00:00</time></trkpt><trkpt lat="63.69818497" lon="-19.57609177"><ele>201.1</ele><time>2012-07-26T15:38:07.0000000+00:00</time></trkpt><trkpt lat="63.69818497" lon="-19.57634544"><ele>199.8</ele><time>2012-07-26T15:38:12.0000000+00:00</time></trkpt><trkpt lat="63.69821549" lon="-19.57663727"><ele>198.8</ele><time>2012-07-26T15:38:17.0000000+00:00</time></trkpt><trkpt lat="63.69823074" lon="-19.5769577"><ele>198.1</ele><time>2012-07-26T15:38:22.0000000+00:00</time></trkpt><trkpt lat="63.698246" lon="-19.57728005"><ele>198.5</ele><time>2012-07-26T15:38:27.0000000+00:00</time></trkpt><trkpt lat="63.69826126" lon="-19.57760429"><ele>199.1</ele><time>2012-07-26T15:38:32.0000000+00:00</time></trkpt><trkpt lat="63.69827652" lon="-19.57791519"><ele>199.8</ele><time>2012-07-26T15:38:37.0000000+00:00</time></trkpt><trkpt lat="63.69829559" lon="-19.57823944"><ele>199.3</ele><time>2012-07-26T15:38:42.0000000+00:00</time></trkpt><trkpt lat="63.69831085" lon="-19.57857895"><ele>198.7</ele><time>2012-07-26T15:38:47.0000000+00:00</time></trkpt><trkpt lat="63.6983223" lon="-19.57892036"><ele>196.0</ele><time>2012-07-26T15:38:52.0000000+00:00</time></trkpt><trkpt lat="63.69834518" lon="-19.5792408"><ele>194.9</ele><time>2012-07-26T15:38:57.0000000+00:00</time></trkpt><trkpt lat="63.69837189" lon="-19.57953453"><ele>193.8</ele><time>2012-07-26T15:39:02.0000000+00:00</time></trkpt><trkpt lat="63.69841003" lon="-19.57990074"><ele>192.6</ele><time>2012-07-26T15:39:07.0000000+00:00</time></trkpt><trkpt lat="63.69846344" lon="-19.58022499"><ele>192.3</ele><time>2012-07-26T15:39:12.0000000+00:00</time></trkpt><trkpt lat="63.6984787" lon="-19.58037758"><ele>192.0</ele><time>2012-07-26T15:39:17.0000000+00:00</time></trkpt><trkpt lat="63.69852066" lon="-19.58051491"><ele>193.1</ele><time>2012-07-26T15:39:22.0000000+00:00</time></trkpt><trkpt lat="63.6985321" lon="-19.58054161"><ele>195.3</ele><time>2012-07-26T15:39:27.0000000+00:00</time></trkpt><trkpt lat="63.6985321" lon="-19.58054161"><ele>195.2</ele><time>2012-07-26T15:39:32.0000000+00:00</time></trkpt><trkpt lat="63.6985321" lon="-19.58054352"><ele>195.2</ele><time>2012-07-26T15:39:37.0000000+00:00</time></trkpt><trkpt lat="63.6985321" lon="-19.58054352"><ele>195.1</ele><time>2012-07-26T15:39:42.0000000+00:00</time></trkpt><trkpt lat="63.6985321" lon="-19.58054352"><ele>195.1</ele><time>2012-07-26T15:39:47.0000000+00:00</time></trkpt><trkpt lat="63.6985321" lon="-19.58054352"><ele>195.1</ele><time>2012-07-26T15:39:52.0000000+00:00</time></trkpt><trkpt lat="63.6985321" lon="-19.58054161"><ele>195.1</ele><time>2012-07-26T15:39:57.0000000+00:00</time></trkpt><trkpt lat="63.6985321" lon="-19.58054161"><ele>195.1</ele><time>2012-07-26T15:40:02.0000000+00:00</time></trkpt><trkpt lat="63.6985321" lon="-19.58054352"><ele>195.1</ele><time>2012-07-26T15:40:07.0000000+00:00</time></trkpt><trkpt lat="63.6985321" lon="-19.58054352"><ele>195.1</ele><time>2012-07-26T15:40:12.0000000+00:00</time></trkpt><trkpt lat="63.6985321" lon="-19.58054352"><ele>195.2</ele><time>2012-07-26T15:40:17.0000000+00:00</time></trkpt><trkpt lat="63.6985321" lon="-19.58054352"><ele>195.2</ele><time>2012-07-26T15:40:22.0000000+00:00</time></trkpt><trkpt lat="63.6985321" lon="-19.58054352"><ele>195.2</ele><time>2012-07-26T15:40:27.0000000+00:00</time></trkpt><trkpt lat="63.6985321" lon="-19.58054352"><ele>195.2</ele><time>2012-07-26T15:40:32.0000000+00:00</time></trkpt><trkpt lat="63.6985321" lon="-19.58054352"><ele>195.2</ele><time>2012-07-26T15:40:37.0000000+00:00</time></trkpt><trkpt lat="63.6985321" lon="-19.58054352"><ele>195.2</ele><time>2012-07-26T15:40:42.0000000+00:00</time></trkpt><trkpt lat="63.6985321" lon="-19.58054543"><ele>195.2</ele><time>2012-07-26T15:40:47.0000000+00:00</time></trkpt><trkpt lat="63.6985321" lon="-19.58054543"><ele>195.2</ele><time>2012-07-26T15:40:52.0000000+00:00</time></trkpt><trkpt lat="63.6985321" lon="-19.58054543"><ele>195.2</ele><time>2012-07-26T15:40:57.0000000+00:00</time></trkpt><trkpt lat="63.6985321" lon="-19.58054543"><ele>195.2</ele><time>2012-07-26T15:41:02.0000000+00:00</time></trkpt><trkpt lat="63.6985321" lon="-19.58054543"><ele>195.2</ele><time>2012-07-26T15:41:07.0000000+00:00</time></trkpt><trkpt lat="63.6985321" lon="-19.58054543"><ele>195.2</ele><time>2012-07-26T15:41:12.0000000+00:00</time></trkpt><trkpt lat="63.6985321" lon="-19.58055306"><ele>195.1</ele><time>2012-07-26T15:41:17.0000000+00:00</time></trkpt><trkpt lat="63.69858933" lon="-19.58081055"><ele>193.9</ele><time>2012-07-26T15:41:22.0000000+00:00</time></trkpt><trkpt lat="63.6987114" lon="-19.5812645"><ele>192.9</ele><time>2012-07-26T15:41:27.0000000+00:00</time></trkpt><trkpt lat="63.69878388" lon="-19.58160019"><ele>192.7</ele><time>2012-07-26T15:41:32.0000000+00:00</time></trkpt><trkpt lat="63.69881439" lon="-19.58175278"><ele>194.0</ele><time>2012-07-26T15:41:37.0000000+00:00</time></trkpt><trkpt lat="63.69880676" lon="-19.58176613"><ele>194.2</ele><time>2012-07-26T15:41:42.0000000+00:00</time></trkpt><trkpt lat="63.69881058" lon="-19.58189774"><ele>194.3</ele><time>2012-07-26T15:41:47.0000000+00:00</time></trkpt><trkpt lat="63.69880295" lon="-19.58214951"><ele>194.1</ele><time>2012-07-26T15:41:52.0000000+00:00</time></trkpt><trkpt lat="63.69880295" lon="-19.58242416"><ele>194.5</ele><time>2012-07-26T15:41:57.0000000+00:00</time></trkpt><trkpt lat="63.69879532" lon="-19.58267593"><ele>194.0</ele><time>2012-07-26T15:42:02.0000000+00:00</time></trkpt><trkpt lat="63.69877625" lon="-19.58291245"><ele>194.1</ele><time>2012-07-26T15:42:07.0000000+00:00</time></trkpt><trkpt lat="63.69878006" lon="-19.58320046"><ele>194.0</ele><time>2012-07-26T15:42:12.0000000+00:00</time></trkpt><trkpt lat="63.69880295" lon="-19.58348274"><ele>194.1</ele><time>2012-07-26T15:42:17.0000000+00:00</time></trkpt><trkpt lat="63.69882584" lon="-19.58375549"><ele>194.0</ele><time>2012-07-26T15:42:22.0000000+00:00</time></trkpt><trkpt lat="63.69885254" lon="-19.58402443"><ele>195.0</ele><time>2012-07-26T15:42:27.0000000+00:00</time></trkpt><trkpt lat="63.69887543" lon="-19.58428955"><ele>195.2</ele><time>2012-07-26T15:42:32.0000000+00:00</time></trkpt><trkpt lat="63.69887543" lon="-19.58448982"><ele>194.4</ele><time>2012-07-26T15:42:37.0000000+00:00</time></trkpt><trkpt lat="63.69889832" lon="-19.58472633"><ele>195.0</ele><time>2012-07-26T15:42:42.0000000+00:00</time></trkpt><trkpt lat="63.69888687" lon="-19.58493042"><ele>194.5</ele><time>2012-07-26T15:42:47.0000000+00:00</time></trkpt><trkpt lat="63.69889069" lon="-19.58518219"><ele>192.8</ele><time>2012-07-26T15:42:52.0000000+00:00</time></trkpt><trkpt lat="63.69890213" lon="-19.58543015"><ele>192.9</ele><time>2012-07-26T15:42:57.0000000+00:00</time></trkpt><trkpt lat="63.69890976" lon="-19.58567047"><ele>192.7</ele><time>2012-07-26T15:43:02.0000000+00:00</time></trkpt><trkpt lat="63.69891357" lon="-19.5859642"><ele>193.2</ele><time>2012-07-26T15:43:07.0000000+00:00</time></trkpt><trkpt lat="63.6989212" lon="-19.5862484"><ele>193.3</ele><time>2012-07-26T15:43:12.0000000+00:00</time></trkpt><trkpt lat="63.69892502" lon="-19.58651733"><ele>193.0</ele><time>2012-07-26T15:43:17.0000000+00:00</time></trkpt><trkpt lat="63.69893265" lon="-19.58673286"><ele>193.1</ele><time>2012-07-26T15:43:22.0000000+00:00</time></trkpt><trkpt lat="63.69895935" lon="-19.58694649"><ele>192.9</ele><time>2012-07-26T15:43:27.0000000+00:00</time></trkpt><trkpt lat="63.69896698" lon="-19.58718109"><ele>193.2</ele><time>2012-07-26T15:43:32.0000000+00:00</time></trkpt><trkpt lat="63.69896698" lon="-19.5874424"><ele>193.3</ele><time>2012-07-26T15:43:37.0000000+00:00</time></trkpt><trkpt lat="63.69898605" lon="-19.58769226"><ele>194.7</ele><time>2012-07-26T15:43:42.0000000+00:00</time></trkpt><trkpt lat="63.69900894" lon="-19.58792114"><ele>194.1</ele><time>2012-07-26T15:43:47.0000000+00:00</time></trkpt><trkpt lat="63.6990242" lon="-19.58817482"><ele>193.9</ele><time>2012-07-26T15:43:52.0000000+00:00</time></trkpt><trkpt lat="63.69903565" lon="-19.58846855"><ele>193.7</ele><time>2012-07-26T15:43:57.0000000+00:00</time></trkpt><trkpt lat="63.69904709" lon="-19.58871841"><ele>193.5</ele><time>2012-07-26T15:44:02.0000000+00:00</time></trkpt><trkpt lat="63.69906235" lon="-19.58895874"><ele>193.5</ele><time>2012-07-26T15:44:07.0000000+00:00</time></trkpt><trkpt lat="63.69906998" lon="-19.58917236"><ele>193.7</ele><time>2012-07-26T15:44:12.0000000+00:00</time></trkpt><trkpt lat="63.69907761" lon="-19.58937454"><ele>193.6</ele><time>2012-07-26T15:44:17.0000000+00:00</time></trkpt><trkpt lat="63.69910049" lon="-19.5895977"><ele>193.1</ele><time>2012-07-26T15:44:22.0000000+00:00</time></trkpt><trkpt lat="63.69911194" lon="-19.58983803"><ele>193.2</ele><time>2012-07-26T15:44:27.0000000+00:00</time></trkpt><trkpt lat="63.6991272" lon="-19.59008789"><ele>192.8</ele><time>2012-07-26T15:44:32.0000000+00:00</time></trkpt><trkpt lat="63.69913864" lon="-19.59033394"><ele>194.7</ele><time>2012-07-26T15:44:37.0000000+00:00</time></trkpt><trkpt lat="63.69915009" lon="-19.59057045"><ele>195.3</ele><time>2012-07-26T15:44:42.0000000+00:00</time></trkpt><trkpt lat="63.69915772" lon="-19.59082413"><ele>196.8</ele><time>2012-07-26T15:44:47.0000000+00:00</time></trkpt><trkpt lat="63.6991806" lon="-19.5910759"><ele>198.4</ele><time>2012-07-26T15:44:52.0000000+00:00</time></trkpt><trkpt lat="63.6991806" lon="-19.59134483"><ele>197.5</ele><time>2012-07-26T15:44:57.0000000+00:00</time></trkpt><trkpt lat="63.69917679" lon="-19.59157944"><ele>196.5</ele><time>2012-07-26T15:45:02.0000000+00:00</time></trkpt><trkpt lat="63.6991806" lon="-19.59162521"><ele>188.9</ele><time>2012-07-26T15:45:07.0000000+00:00</time></trkpt><trkpt lat="63.6991806" lon="-19.59162521"><ele>188.9</ele><time>2012-07-26T15:45:12.0000000+00:00</time></trkpt><trkpt lat="63.6991806" lon="-19.59162521"><ele>188.9</ele><time>2012-07-26T15:45:17.0000000+00:00</time></trkpt><trkpt lat="63.6991806" lon="-19.59162521"><ele>188.9</ele><time>2012-07-26T15:45:22.0000000+00:00</time></trkpt><trkpt lat="63.6991806" lon="-19.59162521"><ele>188.9</ele><time>2012-07-26T15:45:27.0000000+00:00</time></trkpt><trkpt lat="63.6991806" lon="-19.59162521"><ele>188.9</ele><time>2012-07-26T15:45:32.0000000+00:00</time></trkpt><trkpt lat="63.6991806" lon="-19.59162521"><ele>188.9</ele><time>2012-07-26T15:45:37.0000000+00:00</time></trkpt><trkpt lat="63.6991806" lon="-19.59162521"><ele>188.9</ele><time>2012-07-26T15:45:42.0000000+00:00</time></trkpt><trkpt lat="63.6991806" lon="-19.59162521"><ele>188.9</ele><time>2012-07-26T15:45:47.0000000+00:00</time></trkpt><trkpt lat="63.6991806" lon="-19.59162521"><ele>188.9</ele><time>2012-07-26T15:45:52.0000000+00:00</time></trkpt><trkpt lat="63.6991806" lon="-19.59162712"><ele>188.9</ele><time>2012-07-26T15:45:57.0000000+00:00</time></trkpt><trkpt lat="63.69918442" lon="-19.59162712"><ele>189.0</ele><time>2012-07-26T15:46:02.0000000+00:00</time></trkpt><trkpt lat="63.69918442" lon="-19.59162712"><ele>189.0</ele><time>2012-07-26T15:46:07.0000000+00:00</time></trkpt><trkpt lat="63.6991806" lon="-19.59162712"><ele>189.0</ele><time>2012-07-26T15:46:12.0000000+00:00</time></trkpt><trkpt lat="63.6991806" lon="-19.59172058"><ele>189.2</ele><time>2012-07-26T15:46:17.0000000+00:00</time></trkpt><trkpt lat="63.69919205" lon="-19.59189034"><ele>190.0</ele><time>2012-07-26T15:46:22.0000000+00:00</time></trkpt><trkpt lat="63.69920731" lon="-19.59207535"><ele>189.5</ele><time>2012-07-26T15:46:27.0000000+00:00</time></trkpt><trkpt lat="63.69921494" lon="-19.59229851"><ele>189.1</ele><time>2012-07-26T15:46:32.0000000+00:00</time></trkpt><trkpt lat="63.69921112" lon="-19.59253311"><ele>188.9</ele><time>2012-07-26T15:46:37.0000000+00:00</time></trkpt><trkpt lat="63.69921875" lon="-19.59276962"><ele>188.0</ele><time>2012-07-26T15:46:42.0000000+00:00</time></trkpt><trkpt lat="63.69919205" lon="-19.59303474"><ele>188.2</ele><time>2012-07-26T15:46:47.0000000+00:00</time></trkpt><trkpt lat="63.69916534" lon="-19.59332657"><ele>187.8</ele><time>2012-07-26T15:46:52.0000000+00:00</time></trkpt><trkpt lat="63.69913483" lon="-19.59361076"><ele>188.0</ele><time>2012-07-26T15:46:57.0000000+00:00</time></trkpt><trkpt lat="63.69910431" lon="-19.59387589"><ele>189.1</ele><time>2012-07-26T15:47:02.0000000+00:00</time></trkpt><trkpt lat="63.69905472" lon="-19.59414291"><ele>188.7</ele><time>2012-07-26T15:47:07.0000000+00:00</time></trkpt><trkpt lat="63.6989975" lon="-19.59443474"><ele>188.8</ele><time>2012-07-26T15:47:12.0000000+00:00</time></trkpt><trkpt lat="63.69893265" lon="-19.59472656"><ele>188.5</ele><time>2012-07-26T15:47:17.0000000+00:00</time></trkpt><trkpt lat="63.6988678" lon="-19.5949173"><ele>189.1</ele><time>2012-07-26T15:47:22.0000000+00:00</time></trkpt><trkpt lat="63.69880676" lon="-19.5951252"><ele>188.3</ele><time>2012-07-26T15:47:27.0000000+00:00</time></trkpt><trkpt lat="63.6987381" lon="-19.59532738"><ele>189.4</ele><time>2012-07-26T15:47:32.0000000+00:00</time></trkpt><trkpt lat="63.69865036" lon="-19.59553909"><ele>189.5</ele><time>2012-07-26T15:47:37.0000000+00:00</time></trkpt><trkpt lat="63.69857407" lon="-19.59576988"><ele>189.1</ele><time>2012-07-26T15:47:42.0000000+00:00</time></trkpt><trkpt lat="63.69851685" lon="-19.5960331"><ele>187.8</ele><time>2012-07-26T15:47:47.0000000+00:00</time></trkpt><trkpt lat="63.6984787" lon="-19.5962944"><ele>187.9</ele><time>2012-07-26T15:47:52.0000000+00:00</time></trkpt><trkpt lat="63.69844818" lon="-19.5965519"><ele>187.5</ele><time>2012-07-26T15:47:57.0000000+00:00</time></trkpt><trkpt lat="63.69842911" lon="-19.5968132"><ele>187.5</ele><time>2012-07-26T15:48:02.0000000+00:00</time></trkpt><trkpt lat="63.69841385" lon="-19.59710693"><ele>187.6</ele><time>2012-07-26T15:48:07.0000000+00:00</time></trkpt><trkpt lat="63.69841766" lon="-19.59733772"><ele>188.2</ele><time>2012-07-26T15:48:12.0000000+00:00</time></trkpt><trkpt lat="63.69841385" lon="-19.59765625"><ele>187.7</ele><time>2012-07-26T15:48:17.0000000+00:00</time></trkpt><trkpt lat="63.69840622" lon="-19.59796715"><ele>186.4</ele><time>2012-07-26T15:48:22.0000000+00:00</time></trkpt><trkpt lat="63.69839859" lon="-19.59829521"><ele>183.7</ele><time>2012-07-26T15:48:27.0000000+00:00</time></trkpt><trkpt lat="63.69839096" lon="-19.59857369"><ele>182.8</ele><time>2012-07-26T15:48:32.0000000+00:00</time></trkpt><trkpt lat="63.69838715" lon="-19.59877968"><ele>181.9</ele><time>2012-07-26T15:48:37.0000000+00:00</time></trkpt><trkpt lat="63.69838333" lon="-19.59896278"><ele>182.7</ele><time>2012-07-26T15:48:42.0000000+00:00</time></trkpt><trkpt lat="63.69839096" lon="-19.59925842"><ele>181.1</ele><time>2012-07-26T15:48:47.0000000+00:00</time></trkpt><trkpt lat="63.69841766" lon="-19.59957123"><ele>180.9</ele><time>2012-07-26T15:48:52.0000000+00:00</time></trkpt><trkpt lat="63.69842529" lon="-19.59988403"><ele>180.5</ele><time>2012-07-26T15:48:57.0000000+00:00</time></trkpt><trkpt lat="63.69844818" lon="-19.60017204"><ele>180.0</ele><time>2012-07-26T15:49:02.0000000+00:00</time></trkpt><trkpt lat="63.69847107" lon="-19.60048676"><ele>180.6</ele><time>2012-07-26T15:49:07.0000000+00:00</time></trkpt><trkpt lat="63.69849014" lon="-19.60076141"><ele>180.5</ele><time>2012-07-26T15:49:12.0000000+00:00</time></trkpt><trkpt lat="63.69850159" lon="-19.60104179"><ele>178.5</ele><time>2012-07-26T15:49:17.0000000+00:00</time></trkpt><trkpt lat="63.69852448" lon="-19.60134888"><ele>178.3</ele><time>2012-07-26T15:49:22.0000000+00:00</time></trkpt><trkpt lat="63.69854355" lon="-19.6016407"><ele>178.8</ele><time>2012-07-26T15:49:27.0000000+00:00</time></trkpt><trkpt lat="63.69855881" lon="-19.6019249"><ele>180.1</ele><time>2012-07-26T15:49:32.0000000+00:00</time></trkpt><trkpt lat="63.69857025" lon="-19.6021843"><ele>179.6</ele><time>2012-07-26T15:49:37.0000000+00:00</time></trkpt><trkpt lat="63.69857788" lon="-19.60248756"><ele>180.4</ele><time>2012-07-26T15:49:42.0000000+00:00</time></trkpt><trkpt lat="63.69858551" lon="-19.60270309"><ele>180.2</ele><time>2012-07-26T15:49:47.0000000+00:00</time></trkpt><trkpt lat="63.69858933" lon="-19.60287666"><ele>179.9</ele><time>2012-07-26T15:49:52.0000000+00:00</time></trkpt><trkpt lat="63.69860077" lon="-19.60313988"><ele>180.7</ele><time>2012-07-26T15:49:57.0000000+00:00</time></trkpt><trkpt lat="63.69861603" lon="-19.60341454"><ele>180.6</ele><time>2012-07-26T15:50:02.0000000+00:00</time></trkpt><trkpt lat="63.69862747" lon="-19.60373116"><ele>180.3</ele><time>2012-07-26T15:50:07.0000000+00:00</time></trkpt><trkpt lat="63.6986351" lon="-19.60406303"><ele>180.2</ele><time>2012-07-26T15:50:12.0000000+00:00</time></trkpt><trkpt lat="63.69863892" lon="-19.60434914"><ele>180.1</ele><time>2012-07-26T15:50:17.0000000+00:00</time></trkpt><trkpt lat="63.69864655" lon="-19.604599"><ele>179.7</ele><time>2012-07-26T15:50:22.0000000+00:00</time></trkpt><trkpt lat="63.69864273" lon="-19.60493088"><ele>179.5</ele><time>2012-07-26T15:50:27.0000000+00:00</time></trkpt><trkpt lat="63.69865418" lon="-19.60526276"><ele>179.9</ele><time>2012-07-26T15:50:32.0000000+00:00</time></trkpt><trkpt lat="63.69867706" lon="-19.60548973"><ele>179.6</ele><time>2012-07-26T15:50:37.0000000+00:00</time></trkpt><trkpt lat="63.69868088" lon="-19.60575867"><ele>179.5</ele><time>2012-07-26T15:50:42.0000000+00:00</time></trkpt><trkpt lat="63.69867706" lon="-19.60604286"><ele>179.4</ele><time>2012-07-26T15:50:47.0000000+00:00</time></trkpt><trkpt lat="63.69869232" lon="-19.60637093"><ele>179.5</ele><time>2012-07-26T15:50:52.0000000+00:00</time></trkpt><trkpt lat="63.69870758" lon="-19.6066494"><ele>179.2</ele><time>2012-07-26T15:50:57.0000000+00:00</time></trkpt><trkpt lat="63.69871903" lon="-19.60686112"><ele>178.7</ele><time>2012-07-26T15:51:02.0000000+00:00</time></trkpt><trkpt lat="63.69873047" lon="-19.60713196"><ele>178.3</ele><time>2012-07-26T15:51:07.0000000+00:00</time></trkpt><trkpt lat="63.69873047" lon="-19.6074295"><ele>178.2</ele><time>2012-07-26T15:51:12.0000000+00:00</time></trkpt><trkpt lat="63.69874954" lon="-19.60774803"><ele>178.0</ele><time>2012-07-26T15:51:17.0000000+00:00</time></trkpt><trkpt lat="63.69876099" lon="-19.60796547"><ele>177.1</ele><time>2012-07-26T15:51:22.0000000+00:00</time></trkpt><trkpt lat="63.69875336" lon="-19.60816383"><ele>176.7</ele><time>2012-07-26T15:51:27.0000000+00:00</time></trkpt><trkpt lat="63.6987648" lon="-19.6084404"><ele>176.9</ele><time>2012-07-26T15:51:32.0000000+00:00</time></trkpt><trkpt lat="63.69878006" lon="-19.60873985"><ele>176.7</ele><time>2012-07-26T15:51:37.0000000+00:00</time></trkpt><trkpt lat="63.6987915" lon="-19.60904312"><ele>176.5</ele><time>2012-07-26T15:51:42.0000000+00:00</time></trkpt><trkpt lat="63.69880295" lon="-19.60931778"><ele>176.3</ele><time>2012-07-26T15:51:47.0000000+00:00</time></trkpt><trkpt lat="63.69881058" lon="-19.60945511"><ele>176.0</ele><time>2012-07-26T15:51:52.0000000+00:00</time></trkpt><trkpt lat="63.69880295" lon="-19.60944939"><ele>175.8</ele><time>2012-07-26T15:51:57.0000000+00:00</time></trkpt><trkpt lat="63.69880676" lon="-19.60943794"><ele>175.6</ele><time>2012-07-26T15:52:02.0000000+00:00</time></trkpt><trkpt lat="63.69880676" lon="-19.60943604"><ele>175.5</ele><time>2012-07-26T15:52:07.0000000+00:00</time></trkpt><trkpt lat="63.69880676" lon="-19.60943222"><ele>175.4</ele><time>2012-07-26T15:52:12.0000000+00:00</time></trkpt><trkpt lat="63.69880676" lon="-19.60943222"><ele>175.4</ele><time>2012-07-26T15:52:17.0000000+00:00</time></trkpt><trkpt lat="63.69880676" lon="-19.60943031"><ele>175.3</ele><time>2012-07-26T15:52:22.0000000+00:00</time></trkpt><trkpt lat="63.69880676" lon="-19.60942841"><ele>175.3</ele><time>2012-07-26T15:52:27.0000000+00:00</time></trkpt><trkpt lat="63.69880676" lon="-19.60942841"><ele>175.3</ele><time>2012-07-26T15:52:32.0000000+00:00</time></trkpt><trkpt lat="63.69880676" lon="-19.60943031"><ele>175.3</ele><time>2012-07-26T15:52:37.0000000+00:00</time></trkpt><trkpt lat="63.69880676" lon="-19.60943031"><ele>175.3</ele><time>2012-07-26T15:52:42.0000000+00:00</time></trkpt><trkpt lat="63.69880676" lon="-19.60943031"><ele>175.3</ele><time>2012-07-26T15:52:47.0000000+00:00</time></trkpt><trkpt lat="63.69880676" lon="-19.60943031"><ele>175.3</ele><time>2012-07-26T15:52:52.0000000+00:00</time></trkpt><trkpt lat="63.69880676" lon="-19.60943031"><ele>175.2</ele><time>2012-07-26T15:52:57.0000000+00:00</time></trkpt><trkpt lat="63.69880676" lon="-19.60943031"><ele>175.2</ele><time>2012-07-26T15:53:02.0000000+00:00</time></trkpt><trkpt lat="63.69880676" lon="-19.60943031"><ele>175.2</ele><time>2012-07-26T15:53:07.0000000+00:00</time></trkpt><trkpt lat="63.69880676" lon="-19.60943031"><ele>175.2</ele><time>2012-07-26T15:53:12.0000000+00:00</time></trkpt><trkpt lat="63.69880676" lon="-19.60943031"><ele>175.2</ele><time>2012-07-26T15:53:17.0000000+00:00</time></trkpt><trkpt lat="63.69880676" lon="-19.60943031"><ele>175.2</ele><time>2012-07-26T15:53:22.0000000+00:00</time></trkpt><trkpt lat="63.69880676" lon="-19.60943031"><ele>175.2</ele><time>2012-07-26T15:53:27.0000000+00:00</time></trkpt><trkpt lat="63.69880676" lon="-19.60943031"><ele>175.2</ele><time>2012-07-26T15:53:32.0000000+00:00</time></trkpt><trkpt lat="63.69881439" lon="-19.60952187"><ele>175.2</ele><time>2012-07-26T15:53:37.0000000+00:00</time></trkpt><trkpt lat="63.6988411" lon="-19.60983849"><ele>173.4</ele><time>2012-07-26T15:53:42.0000000+00:00</time></trkpt><trkpt lat="63.69885635" lon="-19.61017609"><ele>171.5</ele><time>2012-07-26T15:53:47.0000000+00:00</time></trkpt><trkpt lat="63.69885254" lon="-19.61052322"><ele>169.6</ele><time>2012-07-26T15:53:52.0000000+00:00</time></trkpt><trkpt lat="63.6988678" lon="-19.61084366"><ele>166.9</ele><time>2012-07-26T15:53:57.0000000+00:00</time></trkpt><trkpt lat="63.69887924" lon="-19.61114693"><ele>164.0</ele><time>2012-07-26T15:54:02.0000000+00:00</time></trkpt><trkpt lat="63.6988945" lon="-19.61145973"><ele>160.6</ele><time>2012-07-26T15:54:07.0000000+00:00</time></trkpt><trkpt lat="63.6988945" lon="-19.61175919"><ele>157.1</ele><time>2012-07-26T15:54:12.0000000+00:00</time></trkpt><trkpt lat="63.6989212" lon="-19.6120224"><ele>153.2</ele><time>2012-07-26T15:54:17.0000000+00:00</time></trkpt><trkpt lat="63.69893646" lon="-19.61233139"><ele>149.1</ele><time>2012-07-26T15:54:22.0000000+00:00</time></trkpt><trkpt lat="63.69896698" lon="-19.61268234"><ele>145.4</ele><time>2012-07-26T15:54:27.0000000+00:00</time></trkpt><trkpt lat="63.69897461" lon="-19.61301231"><ele>142.5</ele><time>2012-07-26T15:54:32.0000000+00:00</time></trkpt><trkpt lat="63.69900131" lon="-19.61323357"><ele>138.9</ele><time>2012-07-26T15:54:37.0000000+00:00</time></trkpt><trkpt lat="63.69900131" lon="-19.6134758"><ele>135.9</ele><time>2012-07-26T15:54:42.0000000+00:00</time></trkpt><trkpt lat="63.69901657" lon="-19.61368561"><ele>133.5</ele><time>2012-07-26T15:54:47.0000000+00:00</time></trkpt><trkpt lat="63.69903946" lon="-19.61385155"><ele>131.5</ele><time>2012-07-26T15:54:52.0000000+00:00</time></trkpt><trkpt lat="63.69905853" lon="-19.61404038"><ele>130.2</ele><time>2012-07-26T15:54:57.0000000+00:00</time></trkpt><trkpt lat="63.69905853" lon="-19.61424255"><ele>129.8</ele><time>2012-07-26T15:55:02.0000000+00:00</time></trkpt><trkpt lat="63.69906235" lon="-19.61445808"><ele>128.3</ele><time>2012-07-26T15:55:07.0000000+00:00</time></trkpt><trkpt lat="63.69908142" lon="-19.61466599"><ele>127.7</ele><time>2012-07-26T15:55:12.0000000+00:00</time></trkpt><trkpt lat="63.69908524" lon="-19.61487198"><ele>128.1</ele><time>2012-07-26T15:55:17.0000000+00:00</time></trkpt><trkpt lat="63.69908142" lon="-19.61510658"><ele>129.5</ele><time>2012-07-26T15:55:22.0000000+00:00</time></trkpt><trkpt lat="63.69909287" lon="-19.615345"><ele>132.4</ele><time>2012-07-26T15:55:27.0000000+00:00</time></trkpt><trkpt lat="63.69910049" lon="-19.61556244"><ele>138.1</ele><time>2012-07-26T15:55:32.0000000+00:00</time></trkpt><trkpt lat="63.69911957" lon="-19.61578941"><ele>138.6</ele><time>2012-07-26T15:55:37.0000000+00:00</time></trkpt><trkpt lat="63.69911957" lon="-19.61604309"><ele>140.6</ele><time>2012-07-26T15:55:42.0000000+00:00</time></trkpt><trkpt lat="63.69913101" lon="-19.61631966"><ele>143.0</ele><time>2012-07-26T15:55:47.0000000+00:00</time></trkpt><trkpt lat="63.69914246" lon="-19.6166153"><ele>146.1</ele><time>2012-07-26T15:55:52.0000000+00:00</time></trkpt><trkpt lat="63.69916534" lon="-19.6169281"><ele>146.4</ele><time>2012-07-26T15:55:57.0000000+00:00</time></trkpt><trkpt lat="63.69918442" lon="-19.61723328"><ele>146.7</ele><time>2012-07-26T15:56:02.0000000+00:00</time></trkpt><trkpt lat="63.69920731" lon="-19.61756516"><ele>148.3</ele><time>2012-07-26T15:56:07.0000000+00:00</time></trkpt><trkpt lat="63.69921494" lon="-19.61787796"><ele>149.6</ele><time>2012-07-26T15:56:12.0000000+00:00</time></trkpt><trkpt lat="63.69923782" lon="-19.61819458"><ele>151.1</ele><time>2012-07-26T15:56:17.0000000+00:00</time></trkpt><trkpt lat="63.6992569" lon="-19.61842346"><ele>150.0</ele><time>2012-07-26T15:56:22.0000000+00:00</time></trkpt><trkpt lat="63.69927216" lon="-19.61869049"><ele>150.8</ele><time>2012-07-26T15:56:27.0000000+00:00</time></trkpt><trkpt lat="63.69927597" lon="-19.61899376"><ele>151.4</ele><time>2012-07-26T15:56:32.0000000+00:00</time></trkpt><trkpt lat="63.69928742" lon="-19.61930466"><ele>152.5</ele><time>2012-07-26T15:56:37.0000000+00:00</time></trkpt><trkpt lat="63.69930649" lon="-19.61961556"><ele>152.6</ele><time>2012-07-26T15:56:42.0000000+00:00</time></trkpt><trkpt lat="63.69931793" lon="-19.61989021"><ele>153.0</ele><time>2012-07-26T15:56:47.0000000+00:00</time></trkpt><trkpt lat="63.69933701" lon="-19.62012291"><ele>153.2</ele><time>2012-07-26T15:56:52.0000000+00:00</time></trkpt><trkpt lat="63.69935226" lon="-19.62041283"><ele>153.9</ele><time>2012-07-26T15:56:57.0000000+00:00</time></trkpt><trkpt lat="63.69936752" lon="-19.62076759"><ele>154.2</ele><time>2012-07-26T15:57:02.0000000+00:00</time></trkpt><trkpt lat="63.69938278" lon="-19.62105179"><ele>155.6</ele><time>2012-07-26T15:57:07.0000000+00:00</time></trkpt><trkpt lat="63.69940567" lon="-19.62129784"><ele>154.9</ele><time>2012-07-26T15:57:12.0000000+00:00</time></trkpt><trkpt lat="63.69941711" lon="-19.62158775"><ele>153.9</ele><time>2012-07-26T15:57:17.0000000+00:00</time></trkpt><trkpt lat="63.69943237" lon="-19.62188911"><ele>151.9</ele><time>2012-07-26T15:57:22.0000000+00:00</time></trkpt><trkpt lat="63.69944763" lon="-19.62221146"><ele>150.9</ele><time>2012-07-26T15:57:27.0000000+00:00</time></trkpt><trkpt lat="63.69947052" lon="-19.62251854"><ele>148.7</ele><time>2012-07-26T15:57:32.0000000+00:00</time></trkpt><trkpt lat="63.69949722" lon="-19.6227684"><ele>147.5</ele><time>2012-07-26T15:57:37.0000000+00:00</time></trkpt><trkpt lat="63.69950104" lon="-19.6230526"><ele>150.5</ele><time>2012-07-26T15:57:42.0000000+00:00</time></trkpt><trkpt lat="63.69952011" lon="-19.62332344"><ele>154.8</ele><time>2012-07-26T15:57:47.0000000+00:00</time></trkpt><trkpt lat="63.69953537" lon="-19.62361527"><ele>157.2</ele><time>2012-07-26T15:57:52.0000000+00:00</time></trkpt><trkpt lat="63.69956207" lon="-19.62388802"><ele>158.6</ele><time>2012-07-26T15:57:57.0000000+00:00</time></trkpt><trkpt lat="63.69955826" lon="-19.62421417"><ele>160.3</ele><time>2012-07-26T15:58:02.0000000+00:00</time></trkpt><trkpt lat="63.69956589" lon="-19.62454605"><ele>161.2</ele><time>2012-07-26T15:58:07.0000000+00:00</time></trkpt><trkpt lat="63.69957733" lon="-19.6248436"><ele>160.0</ele><time>2012-07-26T15:58:12.0000000+00:00</time></trkpt><trkpt lat="63.69959259" lon="-19.625103"><ele>158.7</ele><time>2012-07-26T15:58:17.0000000+00:00</time></trkpt><trkpt lat="63.69961166" lon="-19.62542152"><ele>158.8</ele><time>2012-07-26T15:58:22.0000000+00:00</time></trkpt><trkpt lat="63.69964981" lon="-19.62570953"><ele>159.0</ele><time>2012-07-26T15:58:27.0000000+00:00</time></trkpt><trkpt lat="63.69966888" lon="-19.62606239"><ele>158.7</ele><time>2012-07-26T15:58:32.0000000+00:00</time></trkpt><trkpt lat="63.6996994" lon="-19.6264286"><ele>157.6</ele><time>2012-07-26T15:58:37.0000000+00:00</time></trkpt><trkpt lat="63.69972992" lon="-19.62674713"><ele>157.5</ele><time>2012-07-26T15:58:42.0000000+00:00</time></trkpt><trkpt lat="63.69976425" lon="-19.62708283"><ele>154.6</ele><time>2012-07-26T15:58:47.0000000+00:00</time></trkpt><trkpt lat="63.69979858" lon="-19.62742806"><ele>152.8</ele><time>2012-07-26T15:58:52.0000000+00:00</time></trkpt><trkpt lat="63.6998291" lon="-19.62771797"><ele>151.7</ele><time>2012-07-26T15:58:57.0000000+00:00</time></trkpt><trkpt lat="63.69984818" lon="-19.62802506"><ele>150.4</ele><time>2012-07-26T15:59:02.0000000+00:00</time></trkpt><trkpt lat="63.69987869" lon="-19.62835693"><ele>149.8</ele><time>2012-07-26T15:59:07.0000000+00:00</time></trkpt><trkpt lat="63.69990158" lon="-19.62868691"><ele>149.9</ele><time>2012-07-26T15:59:12.0000000+00:00</time></trkpt><trkpt lat="63.6999321" lon="-19.62897682"><ele>149.8</ele><time>2012-07-26T15:59:17.0000000+00:00</time></trkpt><trkpt lat="63.6999588" lon="-19.62931442"><ele>150.8</ele><time>2012-07-26T15:59:22.0000000+00:00</time></trkpt><trkpt lat="63.6999855" lon="-19.62957573"><ele>151.5</ele><time>2012-07-26T15:59:27.0000000+00:00</time></trkpt><trkpt lat="63.70001221" lon="-19.62989044"><ele>151.1</ele><time>2012-07-26T15:59:32.0000000+00:00</time></trkpt><trkpt lat="63.7000351" lon="-19.63024902"><ele>151.9</ele><time>2012-07-26T15:59:37.0000000+00:00</time></trkpt><trkpt lat="63.7000618" lon="-19.63056374"><ele>152.6</ele><time>2012-07-26T15:59:42.0000000+00:00</time></trkpt><trkpt lat="63.7000885" lon="-19.63090324"><ele>151.9</ele><time>2012-07-26T15:59:47.0000000+00:00</time></trkpt><trkpt lat="63.70010757" lon="-19.63125801"><ele>151.5</ele><time>2012-07-26T15:59:52.0000000+00:00</time></trkpt><trkpt lat="63.70013046" lon="-19.63162041"><ele>151.2</ele><time>2012-07-26T15:59:57.0000000+00:00</time></trkpt><trkpt lat="63.70015717" lon="-19.63198471"><ele>152.0</ele><time>2012-07-26T16:00:02.0000000+00:00</time></trkpt><trkpt lat="63.70021057" lon="-19.6323185"><ele>148.9</ele><time>2012-07-26T16:00:07.0000000+00:00</time></trkpt><trkpt lat="63.70023727" lon="-19.63261414"><ele>149.3</ele><time>2012-07-26T16:00:12.0000000+00:00</time></trkpt><trkpt lat="63.70022583" lon="-19.63293266"><ele>150.1</ele><time>2012-07-26T16:00:17.0000000+00:00</time></trkpt><trkpt lat="63.70023727" lon="-19.63326836"><ele>150.6</ele><time>2012-07-26T16:00:22.0000000+00:00</time></trkpt><trkpt lat="63.70026016" lon="-19.63363075"><ele>153.4</ele><time>2012-07-26T16:00:27.0000000+00:00</time></trkpt><trkpt lat="63.70029831" lon="-19.63397789"><ele>153.4</ele><time>2012-07-26T16:00:32.0000000+00:00</time></trkpt><trkpt lat="63.70035553" lon="-19.63434219"><ele>151.8</ele><time>2012-07-26T16:00:37.0000000+00:00</time></trkpt><trkpt lat="63.70040894" lon="-19.63464737"><ele>150.0</ele><time>2012-07-26T16:00:42.0000000+00:00</time></trkpt><trkpt lat="63.70046234" lon="-19.63487625"><ele>150.6</ele><time>2012-07-26T16:00:47.0000000+00:00</time></trkpt><trkpt lat="63.70051193" lon="-19.63520432"><ele>150.0</ele><time>2012-07-26T16:00:52.0000000+00:00</time></trkpt><trkpt lat="63.70053864" lon="-19.6354866"><ele>151.6</ele><time>2012-07-26T16:00:57.0000000+00:00</time></trkpt><trkpt lat="63.70056152" lon="-19.63581085"><ele>154.0</ele><time>2012-07-26T16:01:02.0000000+00:00</time></trkpt><trkpt lat="63.70059204" lon="-19.63612747"><ele>156.9</ele><time>2012-07-26T16:01:07.0000000+00:00</time></trkpt><trkpt lat="63.700634" lon="-19.63651085"><ele>154.4</ele><time>2012-07-26T16:01:12.0000000+00:00</time></trkpt><trkpt lat="63.70065689" lon="-19.63687134"><ele>153.8</ele><time>2012-07-26T16:01:17.0000000+00:00</time></trkpt><trkpt lat="63.70067978" lon="-19.63711929"><ele>153.2</ele><time>2012-07-26T16:01:22.0000000+00:00</time></trkpt><trkpt lat="63.70070267" lon="-19.63739586"><ele>151.8</ele><time>2012-07-26T16:01:27.0000000+00:00</time></trkpt><trkpt lat="63.70073319" lon="-19.63773155"><ele>152.6</ele><time>2012-07-26T16:01:32.0000000+00:00</time></trkpt><trkpt lat="63.70075226" lon="-19.63803291"><ele>152.6</ele><time>2012-07-26T16:01:37.0000000+00:00</time></trkpt><trkpt lat="63.70077896" lon="-19.63838005"><ele>151.8</ele><time>2012-07-26T16:01:42.0000000+00:00</time></trkpt><trkpt lat="63.70081711" lon="-19.63874626"><ele>151.3</ele><time>2012-07-26T16:01:47.0000000+00:00</time></trkpt><trkpt lat="63.70085526" lon="-19.63913155"><ele>151.3</ele><time>2012-07-26T16:01:52.0000000+00:00</time></trkpt><trkpt lat="63.7008934" lon="-19.63954353"><ele>149.0</ele><time>2012-07-26T16:01:57.0000000+00:00</time></trkpt><trkpt lat="63.70093536" lon="-19.63988686"><ele>148.3</ele><time>2012-07-26T16:02:02.0000000+00:00</time></trkpt><trkpt lat="63.70095062" lon="-19.64013481"><ele>147.4</ele><time>2012-07-26T16:02:07.0000000+00:00</time></trkpt><trkpt lat="63.70098114" lon="-19.64043045"><ele>145.6</ele><time>2012-07-26T16:02:12.0000000+00:00</time></trkpt><trkpt lat="63.7010231" lon="-19.64072228"><ele>146.3</ele><time>2012-07-26T16:02:17.0000000+00:00</time></trkpt><trkpt lat="63.70108414" lon="-19.6410389"><ele>145.5</ele><time>2012-07-26T16:02:22.0000000+00:00</time></trkpt><trkpt lat="63.70113754" lon="-19.64136314"><ele>144.5</ele><time>2012-07-26T16:02:27.0000000+00:00</time></trkpt><trkpt lat="63.70117569" lon="-19.64170265"><ele>146.2</ele><time>2012-07-26T16:02:32.0000000+00:00</time></trkpt><trkpt lat="63.70119476" lon="-19.64203262"><ele>147.3</ele><time>2012-07-26T16:02:37.0000000+00:00</time></trkpt><trkpt lat="63.70122528" lon="-19.64235497"><ele>148.2</ele><time>2012-07-26T16:02:42.0000000+00:00</time></trkpt><trkpt lat="63.70125961" lon="-19.64268684"><ele>150.0</ele><time>2012-07-26T16:02:47.0000000+00:00</time></trkpt><trkpt lat="63.70129776" lon="-19.64302826"><ele>152.9</ele><time>2012-07-26T16:02:52.0000000+00:00</time></trkpt><trkpt lat="63.70133209" lon="-19.64337158"><ele>151.7</ele><time>2012-07-26T16:02:57.0000000+00:00</time></trkpt><trkpt lat="63.7013588" lon="-19.64378357"><ele>150.7</ele><time>2012-07-26T16:03:02.0000000+00:00</time></trkpt><trkpt lat="63.7013855" lon="-19.64415932"><ele>149.6</ele><time>2012-07-26T16:03:07.0000000+00:00</time></trkpt><trkpt lat="63.70140457" lon="-19.64449692"><ele>147.0</ele><time>2012-07-26T16:03:12.0000000+00:00</time></trkpt><trkpt lat="63.70141983" lon="-19.64480972"><ele>145.7</ele><time>2012-07-26T16:03:17.0000000+00:00</time></trkpt><trkpt lat="63.70144272" lon="-19.64502335"><ele>146.9</ele><time>2012-07-26T16:03:22.0000000+00:00</time></trkpt><trkpt lat="63.70146179" lon="-19.64505386"><ele>145.8</ele><time>2012-07-26T16:03:27.0000000+00:00</time></trkpt><trkpt lat="63.70146179" lon="-19.64505196"><ele>145.9</ele><time>2012-07-26T16:03:32.0000000+00:00</time></trkpt><trkpt lat="63.70146179" lon="-19.64505005"><ele>146.0</ele><time>2012-07-26T16:03:37.0000000+00:00</time></trkpt><trkpt lat="63.70146561" lon="-19.64504433"><ele>145.6</ele><time>2012-07-26T16:03:42.0000000+00:00</time></trkpt><trkpt lat="63.70146561" lon="-19.64504242"><ele>145.6</ele><time>2012-07-26T16:03:47.0000000+00:00</time></trkpt><trkpt lat="63.70146561" lon="-19.64504433"><ele>145.7</ele><time>2012-07-26T16:03:52.0000000+00:00</time></trkpt><trkpt lat="63.70146561" lon="-19.64504433"><ele>145.8</ele><time>2012-07-26T16:03:57.0000000+00:00</time></trkpt><trkpt lat="63.70146561" lon="-19.64504433"><ele>145.8</ele><time>2012-07-26T16:04:02.0000000+00:00</time></trkpt><trkpt lat="63.70146561" lon="-19.64504433"><ele>145.9</ele><time>2012-07-26T16:04:07.0000000+00:00</time></trkpt><trkpt lat="63.70146561" lon="-19.64504623"><ele>146.0</ele><time>2012-07-26T16:04:12.0000000+00:00</time></trkpt><trkpt lat="63.70146561" lon="-19.64503861"><ele>146.8</ele><time>2012-07-26T16:04:17.0000000+00:00</time></trkpt><trkpt lat="63.70146942" lon="-19.64503861"><ele>146.1</ele><time>2012-07-26T16:04:22.0000000+00:00</time></trkpt><trkpt lat="63.70146561" lon="-19.64504051"><ele>145.3</ele><time>2012-07-26T16:04:27.0000000+00:00</time></trkpt><trkpt lat="63.70146561" lon="-19.64503861"><ele>145.2</ele><time>2012-07-26T16:04:32.0000000+00:00</time></trkpt><trkpt lat="63.70146561" lon="-19.64503861"><ele>145.2</ele><time>2012-07-26T16:04:37.0000000+00:00</time></trkpt><trkpt lat="63.70146561" lon="-19.64503861"><ele>145.2</ele><time>2012-07-26T16:04:42.0000000+00:00</time></trkpt><trkpt lat="63.70146561" lon="-19.6450367"><ele>145.2</ele><time>2012-07-26T16:04:47.0000000+00:00</time></trkpt><trkpt lat="63.70146561" lon="-19.6450367"><ele>145.2</ele><time>2012-07-26T16:04:52.0000000+00:00</time></trkpt><trkpt lat="63.70146561" lon="-19.6450367"><ele>145.2</ele><time>2012-07-26T16:04:57.0000000+00:00</time></trkpt><trkpt lat="63.70146561" lon="-19.6450367"><ele>145.2</ele><time>2012-07-26T16:05:02.0000000+00:00</time></trkpt><trkpt lat="63.70146561" lon="-19.6450367"><ele>145.2</ele><time>2012-07-26T16:05:07.0000000+00:00</time></trkpt><trkpt lat="63.70146561" lon="-19.6450367"><ele>145.2</ele><time>2012-07-26T16:05:12.0000000+00:00</time></trkpt><trkpt lat="63.70146561" lon="-19.6450367"><ele>145.2</ele><time>2012-07-26T16:05:17.0000000+00:00</time></trkpt><trkpt lat="63.70146561" lon="-19.6450367"><ele>145.2</ele><time>2012-07-26T16:05:22.0000000+00:00</time></trkpt><trkpt lat="63.70146561" lon="-19.6450367"><ele>145.2</ele><time>2012-07-26T16:05:27.0000000+00:00</time></trkpt><trkpt lat="63.70146561" lon="-19.64503479"><ele>145.2</ele><time>2012-07-26T16:05:32.0000000+00:00</time></trkpt><trkpt lat="63.70146179" lon="-19.6450367"><ele>145.2</ele><time>2012-07-26T16:05:37.0000000+00:00</time></trkpt><trkpt lat="63.70146179" lon="-19.6450367"><ele>145.2</ele><time>2012-07-26T16:05:42.0000000+00:00</time></trkpt><trkpt lat="63.70146179" lon="-19.6450367"><ele>145.1</ele><time>2012-07-26T16:05:47.0000000+00:00</time></trkpt><trkpt lat="63.70146179" lon="-19.6450367"><ele>145.1</ele><time>2012-07-26T16:05:52.0000000+00:00</time></trkpt><trkpt lat="63.70146179" lon="-19.64503479"><ele>145.1</ele><time>2012-07-26T16:05:57.0000000+00:00</time></trkpt><trkpt lat="63.70146179" lon="-19.64503479"><ele>145.1</ele><time>2012-07-26T16:06:02.0000000+00:00</time></trkpt><trkpt lat="63.70146179" lon="-19.64504051"><ele>145.2</ele><time>2012-07-26T16:06:07.0000000+00:00</time></trkpt><trkpt lat="63.70146179" lon="-19.64504051"><ele>145.2</ele><time>2012-07-26T16:06:12.0000000+00:00</time></trkpt><trkpt lat="63.70146179" lon="-19.64504051"><ele>145.2</ele><time>2012-07-26T16:06:17.0000000+00:00</time></trkpt><trkpt lat="63.70146179" lon="-19.64504051"><ele>145.2</ele><time>2012-07-26T16:06:22.0000000+00:00</time></trkpt><trkpt lat="63.70146179" lon="-19.64503861"><ele>145.1</ele><time>2012-07-26T16:06:27.0000000+00:00</time></trkpt><trkpt lat="63.70145798" lon="-19.64503861"><ele>145.2</ele><time>2012-07-26T16:06:32.0000000+00:00</time></trkpt><trkpt lat="63.70145798" lon="-19.64503861"><ele>145.2</ele><time>2012-07-26T16:06:37.0000000+00:00</time></trkpt><trkpt lat="63.70145798" lon="-19.64503861"><ele>145.2</ele><time>2012-07-26T16:06:42.0000000+00:00</time></trkpt><trkpt lat="63.70145798" lon="-19.64503861"><ele>145.2</ele><time>2012-07-26T16:06:47.0000000+00:00</time></trkpt><trkpt lat="63.70145416" lon="-19.64503479"><ele>144.6</ele><time>2012-07-26T16:06:52.0000000+00:00</time></trkpt><trkpt lat="63.70144653" lon="-19.64507484"><ele>144.2</ele><time>2012-07-26T16:06:57.0000000+00:00</time></trkpt><trkpt lat="63.70145798" lon="-19.64515877"><ele>143.3</ele><time>2012-07-26T16:07:02.0000000+00:00</time></trkpt><trkpt lat="63.70147324" lon="-19.64525032"><ele>143.3</ele><time>2012-07-26T16:07:07.0000000+00:00</time></trkpt><trkpt lat="63.70148468" lon="-19.64532661"><ele>143.3</ele><time>2012-07-26T16:07:12.0000000+00:00</time></trkpt><trkpt lat="63.70148087" lon="-19.64536667"><ele>144.9</ele><time>2012-07-26T16:07:17.0000000+00:00</time></trkpt><trkpt lat="63.70148087" lon="-19.64536667"><ele>144.9</ele><time>2012-07-26T16:07:22.0000000+00:00</time></trkpt><trkpt lat="63.70148087" lon="-19.64538384"><ele>144.6</ele><time>2012-07-26T16:07:27.0000000+00:00</time></trkpt><trkpt lat="63.70148087" lon="-19.64539146"><ele>144.5</ele><time>2012-07-26T16:07:32.0000000+00:00</time></trkpt><trkpt lat="63.70149231" lon="-19.64543724"><ele>145.0</ele><time>2012-07-26T16:07:37.0000000+00:00</time></trkpt><trkpt lat="63.70151901" lon="-19.64537621"><ele>144.8</ele><time>2012-07-26T16:07:42.0000000+00:00</time></trkpt><trkpt lat="63.7015419" lon="-19.6453228"><ele>144.8</ele><time>2012-07-26T16:07:47.0000000+00:00</time></trkpt><trkpt lat="63.70157242" lon="-19.64527512"><ele>144.5</ele><time>2012-07-26T16:07:52.0000000+00:00</time></trkpt><trkpt lat="63.70158005" lon="-19.64518547"><ele>143.8</ele><time>2012-07-26T16:07:57.0000000+00:00</time></trkpt><trkpt lat="63.70161057" lon="-19.64510155"><ele>143.6</ele><time>2012-07-26T16:08:02.0000000+00:00</time></trkpt><trkpt lat="63.70163345" lon="-19.6450119"><ele>143.5</ele><time>2012-07-26T16:08:07.0000000+00:00</time></trkpt><trkpt lat="63.70166779" lon="-19.64496422"><ele>143.7</ele><time>2012-07-26T16:08:12.0000000+00:00</time></trkpt><trkpt lat="63.70169067" lon="-19.64492226"><ele>145.4</ele><time>2012-07-26T16:08:17.0000000+00:00</time></trkpt><trkpt lat="63.70168686" lon="-19.64494133"><ele>145.2</ele><time>2012-07-26T16:08:22.0000000+00:00</time></trkpt><trkpt lat="63.70169449" lon="-19.64491463"><ele>145.2</ele><time>2012-07-26T16:08:27.0000000+00:00</time></trkpt><trkpt lat="63.70175171" lon="-19.64494324"><ele>145.6</ele><time>2012-07-26T16:08:32.0000000+00:00</time></trkpt><trkpt lat="63.70178986" lon="-19.64494705"><ele>145.8</ele><time>2012-07-26T16:08:37.0000000+00:00</time></trkpt><trkpt lat="63.70178986" lon="-19.64500046"><ele>145.5</ele><time>2012-07-26T16:08:42.0000000+00:00</time></trkpt><trkpt lat="63.70179749" lon="-19.64501572"><ele>145.6</ele><time>2012-07-26T16:08:47.0000000+00:00</time></trkpt><trkpt lat="63.70178986" lon="-19.64501381"><ele>145.6</ele><time>2012-07-26T16:08:52.0000000+00:00</time></trkpt><trkpt lat="63.70178604" lon="-19.64501"><ele>145.7</ele><time>2012-07-26T16:08:57.0000000+00:00</time></trkpt><trkpt lat="63.70178223" lon="-19.64500046"><ele>145.8</ele><time>2012-07-26T16:09:02.0000000+00:00</time></trkpt><trkpt lat="63.70178223" lon="-19.64497757"><ele>145.7</ele><time>2012-07-26T16:09:07.0000000+00:00</time></trkpt><trkpt lat="63.70179749" lon="-19.64500809"><ele>146.0</ele><time>2012-07-26T16:09:12.0000000+00:00</time></trkpt><trkpt lat="63.70178986" lon="-19.64499855"><ele>146.0</ele><time>2012-07-26T16:09:17.0000000+00:00</time></trkpt><trkpt lat="63.70177841" lon="-19.64496994"><ele>146.0</ele><time>2012-07-26T16:09:22.0000000+00:00</time></trkpt><trkpt lat="63.70178604" lon="-19.64497185"><ele>146.0</ele><time>2012-07-26T16:09:27.0000000+00:00</time></trkpt><trkpt lat="63.70178223" lon="-19.64495659"><ele>146.1</ele><time>2012-07-26T16:09:32.0000000+00:00</time></trkpt><trkpt lat="63.70177841" lon="-19.64494896"><ele>146.2</ele><time>2012-07-26T16:09:37.0000000+00:00</time></trkpt><trkpt lat="63.70178223" lon="-19.64495468"><ele>146.3</ele><time>2012-07-26T16:09:42.0000000+00:00</time></trkpt><trkpt lat="63.70178604" lon="-19.64495468"><ele>146.4</ele><time>2012-07-26T16:09:47.0000000+00:00</time></trkpt><trkpt lat="63.70178223" lon="-19.64494515"><ele>146.5</ele><time>2012-07-26T16:09:52.0000000+00:00</time></trkpt><trkpt lat="63.70177841" lon="-19.64493561"><ele>146.6</ele><time>2012-07-26T16:09:57.0000000+00:00</time></trkpt><trkpt lat="63.7017746" lon="-19.64492798"><ele>146.7</ele><time>2012-07-26T16:10:02.0000000+00:00</time></trkpt><trkpt lat="63.70177078" lon="-19.64492989"><ele>146.8</ele><time>2012-07-26T16:10:07.0000000+00:00</time></trkpt><trkpt lat="63.70176697" lon="-19.64492798"><ele>146.9</ele><time>2012-07-26T16:10:12.0000000+00:00</time></trkpt><trkpt lat="63.70176315" lon="-19.64492607"><ele>147.0</ele><time>2012-07-26T16:10:17.0000000+00:00</time></trkpt><trkpt lat="63.70176315" lon="-19.64492226"><ele>147.1</ele><time>2012-07-26T16:10:22.0000000+00:00</time></trkpt><trkpt lat="63.70176315" lon="-19.64492035"><ele>147.2</ele><time>2012-07-26T16:10:27.0000000+00:00</time></trkpt><trkpt lat="63.70176315" lon="-19.64492226"><ele>147.2</ele><time>2012-07-26T16:10:32.0000000+00:00</time></trkpt><trkpt lat="63.70175934" lon="-19.644907"><ele>147.2</ele><time>2012-07-26T16:10:37.0000000+00:00</time></trkpt><trkpt lat="63.70175552" lon="-19.64489746"><ele>147.1</ele><time>2012-07-26T16:10:42.0000000+00:00</time></trkpt><trkpt lat="63.70175171" lon="-19.64488983"><ele>147.1</ele><time>2012-07-26T16:10:47.0000000+00:00</time></trkpt><trkpt lat="63.70175552" lon="-19.64488602"><ele>147.1</ele><time>2012-07-26T16:10:52.0000000+00:00</time></trkpt><trkpt lat="63.70175552" lon="-19.64488792"><ele>147.1</ele><time>2012-07-26T16:10:57.0000000+00:00</time></trkpt><trkpt lat="63.70175552" lon="-19.64488983"><ele>147.0</ele><time>2012-07-26T16:11:02.0000000+00:00</time></trkpt><trkpt lat="63.70175552" lon="-19.64488983"><ele>147.0</ele><time>2012-07-26T16:11:07.0000000+00:00</time></trkpt><trkpt lat="63.70175552" lon="-19.64489174"><ele>147.0</ele><time>2012-07-26T16:11:12.0000000+00:00</time></trkpt><trkpt lat="63.70175552" lon="-19.64489174"><ele>147.0</ele><time>2012-07-26T16:11:17.0000000+00:00</time></trkpt><trkpt lat="63.70175552" lon="-19.64489174"><ele>147.0</ele><time>2012-07-26T16:11:22.0000000+00:00</time></trkpt><trkpt lat="63.70175552" lon="-19.64489174"><ele>147.0</ele><time>2012-07-26T16:11:27.0000000+00:00</time></trkpt><trkpt lat="63.70175934" lon="-19.64489174"><ele>147.0</ele><time>2012-07-26T16:11:32.0000000+00:00</time></trkpt><trkpt lat="63.70175934" lon="-19.64489555"><ele>147.0</ele><time>2012-07-26T16:11:37.0000000+00:00</time></trkpt><trkpt lat="63.70175934" lon="-19.64490128"><ele>147.1</ele><time>2012-07-26T16:11:42.0000000+00:00</time></trkpt><trkpt lat="63.70175171" lon="-19.64491844"><ele>147.1</ele><time>2012-07-26T16:11:47.0000000+00:00</time></trkpt><trkpt lat="63.70174027" lon="-19.64494896"><ele>147.1</ele><time>2012-07-26T16:11:52.0000000+00:00</time></trkpt><trkpt lat="63.70174027" lon="-19.64495468"><ele>147.1</ele><time>2012-07-26T16:11:57.0000000+00:00</time></trkpt><trkpt lat="63.70173645" lon="-19.64497376"><ele>147.1</ele><time>2012-07-26T16:12:02.0000000+00:00</time></trkpt><trkpt lat="63.70173645" lon="-19.64499474"><ele>147.1</ele><time>2012-07-26T16:12:07.0000000+00:00</time></trkpt><trkpt lat="63.70173645" lon="-19.64501572"><ele>147.1</ele><time>2012-07-26T16:12:12.0000000+00:00</time></trkpt><trkpt lat="63.70168686" lon="-19.64496803"><ele>146.0</ele><time>2012-07-26T16:18:54.0000000+00:00</time></trkpt><trkpt lat="63.69762421" lon="-19.62470436"><ele>122.3</ele><time>2012-07-26T16:19:41.0000000+00:00</time></trkpt><trkpt lat="63.69792938" lon="-19.62632752"><ele>124.6</ele><time>2012-07-26T16:19:46.0000000+00:00</time></trkpt><trkpt lat="63.69821167" lon="-19.62779999"><ele>126.5</ele><time>2012-07-26T16:19:51.0000000+00:00</time></trkpt><trkpt lat="63.70122147" lon="-19.64289856"><ele>137.3</ele><time>2012-07-26T16:19:56.0000000+00:00</time></trkpt><trkpt lat="63.70122528" lon="-19.64293289"><ele>136.4</ele><time>2012-07-26T16:20:01.0000000+00:00</time></trkpt><trkpt lat="63.70122528" lon="-19.64292908"><ele>136.4</ele><time>2012-07-26T16:20:06.0000000+00:00</time></trkpt><trkpt lat="63.70122528" lon="-19.64294052"><ele>136.4</ele><time>2012-07-26T16:20:11.0000000+00:00</time></trkpt><trkpt lat="63.70123673" lon="-19.6429615"><ele>136.0</ele><time>2012-07-26T16:20:16.0000000+00:00</time></trkpt><trkpt lat="63.70127487" lon="-19.64310837"><ele>131.5</ele><time>2012-07-26T16:20:21.0000000+00:00</time></trkpt><trkpt lat="63.70135117" lon="-19.64320183"><ele>129.1</ele><time>2012-07-26T16:20:26.0000000+00:00</time></trkpt><trkpt lat="63.70141602" lon="-19.64321327"><ele>128.4</ele><time>2012-07-26T16:20:31.0000000+00:00</time></trkpt><trkpt lat="63.70146561" lon="-19.6431942"><ele>127.1</ele><time>2012-07-26T16:20:36.0000000+00:00</time></trkpt><trkpt lat="63.70152283" lon="-19.64317513"><ele>125.0</ele><time>2012-07-26T16:20:41.0000000+00:00</time></trkpt><trkpt lat="63.70158005" lon="-19.6431694"><ele>122.3</ele><time>2012-07-26T16:20:46.0000000+00:00</time></trkpt><trkpt lat="63.70163727" lon="-19.64319229"><ele>118.7</ele><time>2012-07-26T16:20:51.0000000+00:00</time></trkpt><trkpt lat="63.70166397" lon="-19.6432209"><ele>116.0</ele><time>2012-07-26T16:20:56.0000000+00:00</time></trkpt><trkpt lat="63.70167542" lon="-19.64322472"><ele>114.7</ele><time>2012-07-26T16:21:01.0000000+00:00</time></trkpt><trkpt lat="63.70168304" lon="-19.64323235"><ele>113.4</ele><time>2012-07-26T16:21:06.0000000+00:00</time></trkpt><trkpt lat="63.70169067" lon="-19.6432457"><ele>112.1</ele><time>2012-07-26T16:21:11.0000000+00:00</time></trkpt><trkpt lat="63.7016983" lon="-19.64326096"><ele>110.8</ele><time>2012-07-26T16:21:16.0000000+00:00</time></trkpt><trkpt lat="63.70174408" lon="-19.64341927"><ele>105.1</ele><time>2012-07-26T16:21:21.0000000+00:00</time></trkpt><trkpt lat="63.70183182" lon="-19.64375687"><ele>99.0</ele><time>2012-07-26T16:21:26.0000000+00:00</time></trkpt><trkpt lat="63.70183945" lon="-19.64390755"><ele>96.1</ele><time>2012-07-26T16:21:31.0000000+00:00</time></trkpt><trkpt lat="63.70186234" lon="-19.64404869"><ele>96.1</ele><time>2012-07-26T16:21:36.0000000+00:00</time></trkpt><trkpt lat="63.70187759" lon="-19.64420128"><ele>96.2</ele><time>2012-07-26T16:21:41.0000000+00:00</time></trkpt><trkpt lat="63.70188141" lon="-19.64437676"><ele>95.9</ele><time>2012-07-26T16:21:46.0000000+00:00</time></trkpt><trkpt lat="63.70184708" lon="-19.64465332"><ele>99.2</ele><time>2012-07-26T16:21:51.0000000+00:00</time></trkpt><trkpt lat="63.70192719" lon="-19.6447525"><ele>102.2</ele><time>2012-07-26T16:21:56.0000000+00:00</time></trkpt><trkpt lat="63.70194626" lon="-19.64481354"><ele>102.8</ele><time>2012-07-26T16:22:01.0000000+00:00</time></trkpt><trkpt lat="63.70186997" lon="-19.64496994"><ele>104.7</ele><time>2012-07-26T16:22:06.0000000+00:00</time></trkpt><trkpt lat="63.70175171" lon="-19.64513588"><ele>106.7</ele><time>2012-07-26T16:22:11.0000000+00:00</time></trkpt><trkpt lat="63.7016983" lon="-19.64517403"><ele>106.6</ele><time>2012-07-26T16:22:16.0000000+00:00</time></trkpt><trkpt lat="63.70165253" lon="-19.64521408"><ele>106.1</ele><time>2012-07-26T16:22:21.0000000+00:00</time></trkpt><trkpt lat="63.70160294" lon="-19.64522553"><ele>105.6</ele><time>2012-07-26T16:22:26.0000000+00:00</time></trkpt><trkpt lat="63.70159912" lon="-19.6449604"><ele>102.8</ele><time>2012-07-26T16:24:55.0000000+00:00</time></trkpt><trkpt lat="63.70158386" lon="-19.64516449"><ele>102.5</ele><time>2012-07-26T16:25:00.0000000+00:00</time></trkpt><trkpt lat="63.70158005" lon="-19.64517784"><ele>102.5</ele><time>2012-07-26T16:25:05.0000000+00:00</time></trkpt><trkpt lat="63.70157623" lon="-19.64518547"><ele>102.5</ele><time>2012-07-26T16:25:10.0000000+00:00</time></trkpt><trkpt lat="63.70157623" lon="-19.64519692"><ele>102.5</ele><time>2012-07-26T16:25:15.0000000+00:00</time></trkpt><trkpt lat="63.70157623" lon="-19.64521027"><ele>102.4</ele><time>2012-07-26T16:25:20.0000000+00:00</time></trkpt><trkpt lat="63.70157242" lon="-19.64522553"><ele>102.4</ele><time>2012-07-26T16:25:25.0000000+00:00</time></trkpt><trkpt lat="63.70157242" lon="-19.64523697"><ele>102.4</ele><time>2012-07-26T16:25:30.0000000+00:00</time></trkpt><trkpt lat="63.70157242" lon="-19.64524651"><ele>102.4</ele><time>2012-07-26T16:25:35.0000000+00:00</time></trkpt><trkpt lat="63.70157242" lon="-19.64525414"><ele>102.4</ele><time>2012-07-26T16:25:40.0000000+00:00</time></trkpt><trkpt lat="63.70157242" lon="-19.6452713"><ele>102.4</ele><time>2012-07-26T16:25:45.0000000+00:00</time></trkpt><trkpt lat="63.70157623" lon="-19.64527512"><ele>102.4</ele><time>2012-07-26T16:25:50.0000000+00:00</time></trkpt><trkpt lat="63.70158005" lon="-19.64527512"><ele>102.4</ele><time>2012-07-26T16:25:55.0000000+00:00</time></trkpt><trkpt lat="63.70160294" lon="-19.64529991"><ele>103.0</ele><time>2012-07-26T16:26:00.0000000+00:00</time></trkpt><trkpt lat="63.70160294" lon="-19.64532471"><ele>103.2</ele><time>2012-07-26T16:26:05.0000000+00:00</time></trkpt><trkpt lat="63.70160675" lon="-19.64530754"><ele>103.3</ele><time>2012-07-26T16:26:10.0000000+00:00</time></trkpt><trkpt lat="63.70159531" lon="-19.64529991"><ele>103.4</ele><time>2012-07-26T16:26:15.0000000+00:00</time></trkpt><trkpt lat="63.70159912" lon="-19.64526939"><ele>103.5</ele><time>2012-07-26T16:26:20.0000000+00:00</time></trkpt><trkpt lat="63.70156479" lon="-19.64522553"><ele>103.6</ele><time>2012-07-26T16:26:25.0000000+00:00</time></trkpt><trkpt lat="63.70155716" lon="-19.6451683"><ele>103.8</ele><time>2012-07-26T16:26:30.0000000+00:00</time></trkpt><trkpt lat="63.70152283" lon="-19.64509583"><ele>103.9</ele><time>2012-07-26T16:26:35.0000000+00:00</time></trkpt><trkpt lat="63.70152664" lon="-19.64510918"><ele>104.0</ele><time>2012-07-26T16:26:40.0000000+00:00</time></trkpt><trkpt lat="63.70153046" lon="-19.64515877"><ele>104.1</ele><time>2012-07-26T16:26:45.0000000+00:00</time></trkpt><trkpt lat="63.70153046" lon="-19.64518166"><ele>104.2</ele><time>2012-07-26T16:26:50.0000000+00:00</time></trkpt><trkpt lat="63.70152664" lon="-19.64513207"><ele>104.3</ele><time>2012-07-26T16:26:55.0000000+00:00</time></trkpt><trkpt lat="63.7015152" lon="-19.64509583"><ele>104.4</ele><time>2012-07-26T16:27:00.0000000+00:00</time></trkpt><trkpt lat="63.70153427" lon="-19.64503861"><ele>104.6</ele><time>2012-07-26T16:27:05.0000000+00:00</time></trkpt><trkpt lat="63.70153427" lon="-19.64498901"><ele>104.8</ele><time>2012-07-26T16:27:10.0000000+00:00</time></trkpt><trkpt lat="63.70154572" lon="-19.64493752"><ele>105.0</ele><time>2012-07-26T16:27:15.0000000+00:00</time></trkpt><trkpt lat="63.70153809" lon="-19.64489365"><ele>105.1</ele><time>2012-07-26T16:27:20.0000000+00:00</time></trkpt><trkpt lat="63.70153046" lon="-19.64489937"><ele>105.3</ele><time>2012-07-26T16:27:25.0000000+00:00</time></trkpt><trkpt lat="63.70149994" lon="-19.6448555"><ele>105.4</ele><time>2012-07-26T16:27:30.0000000+00:00</time></trkpt><trkpt lat="63.70147705" lon="-19.64484215"><ele>105.5</ele><time>2012-07-26T16:27:35.0000000+00:00</time></trkpt><trkpt lat="63.70146942" lon="-19.64482689"><ele>105.6</ele><time>2012-07-26T16:27:40.0000000+00:00</time></trkpt><trkpt lat="63.7014389" lon="-19.64476585"><ele>105.8</ele><time>2012-07-26T16:27:45.0000000+00:00</time></trkpt><trkpt lat="63.7014389" lon="-19.64476967"><ele>106.0</ele><time>2012-07-26T16:27:50.0000000+00:00</time></trkpt><trkpt lat="63.70141983" lon="-19.64478111"><ele>106.1</ele><time>2012-07-26T16:27:55.0000000+00:00</time></trkpt><trkpt lat="63.70137024" lon="-19.6447525"><ele>106.3</ele><time>2012-07-26T16:28:00.0000000+00:00</time></trkpt><trkpt lat="63.70129776" lon="-19.64467621"><ele>106.5</ele><time>2012-07-26T16:28:05.0000000+00:00</time></trkpt><trkpt lat="63.70124435" lon="-19.64454842"><ele>106.7</ele><time>2012-07-26T16:28:10.0000000+00:00</time></trkpt><trkpt lat="63.70127869" lon="-19.64459038"><ele>107.2</ele><time>2012-07-26T16:28:15.0000000+00:00</time></trkpt><trkpt lat="63.7012558" lon="-19.64452934"><ele>107.7</ele><time>2012-07-26T16:28:20.0000000+00:00</time></trkpt><trkpt lat="63.70130539" lon="-19.64455605"><ele>108.4</ele><time>2012-07-26T16:28:25.0000000+00:00</time></trkpt><trkpt lat="63.70130158" lon="-19.64452171"><ele>109.1</ele><time>2012-07-26T16:28:30.0000000+00:00</time></trkpt><trkpt lat="63.70134354" lon="-19.64460373"><ele>109.8</ele><time>2012-07-26T16:28:35.0000000+00:00</time></trkpt><trkpt lat="63.7013588" lon="-19.64459038"><ele>110.8</ele><time>2012-07-26T16:28:40.0000000+00:00</time></trkpt><trkpt lat="63.70136261" lon="-19.64460182"><ele>111.9</ele><time>2012-07-26T16:28:45.0000000+00:00</time></trkpt><trkpt lat="63.70138931" lon="-19.64461708"><ele>112.8</ele><time>2012-07-26T16:28:50.0000000+00:00</time></trkpt><trkpt lat="63.70143127" lon="-19.64469719"><ele>113.9</ele><time>2012-07-26T16:28:55.0000000+00:00</time></trkpt><trkpt lat="63.70149994" lon="-19.64485741"><ele>115.9</ele><time>2012-07-26T16:29:00.0000000+00:00</time></trkpt><trkpt lat="63.70149612" lon="-19.64486313"><ele>116.4</ele><time>2012-07-26T16:29:05.0000000+00:00</time></trkpt><trkpt lat="63.70148087" lon="-19.64487648"><ele>116.5</ele><time>2012-07-26T16:29:10.0000000+00:00</time></trkpt><trkpt lat="63.70152283" lon="-19.64498711"><ele>117.3</ele><time>2012-07-26T16:29:15.0000000+00:00</time></trkpt><trkpt lat="63.70151901" lon="-19.64495468"><ele>117.8</ele><time>2012-07-26T16:29:20.0000000+00:00</time></trkpt><trkpt lat="63.70151901" lon="-19.644907"><ele>118.2</ele><time>2012-07-26T16:29:25.0000000+00:00</time></trkpt><trkpt lat="63.70149994" lon="-19.64491081"><ele>118.7</ele><time>2012-07-26T16:29:30.0000000+00:00</time></trkpt><trkpt lat="63.70149612" lon="-19.64491653"><ele>119.3</ele><time>2012-07-26T16:29:35.0000000+00:00</time></trkpt><trkpt lat="63.7014885" lon="-19.64488602"><ele>119.8</ele><time>2012-07-26T16:29:40.0000000+00:00</time></trkpt><trkpt lat="63.70133972" lon="-19.6446209"><ele>119.1</ele><time>2012-07-26T16:30:29.0000000+00:00</time></trkpt><trkpt lat="63.70135117" lon="-19.64461708"><ele>119.0</ele><time>2012-07-26T16:30:34.0000000+00:00</time></trkpt><trkpt lat="63.70140076" lon="-19.6447525"><ele>119.0</ele><time>2012-07-26T16:30:39.0000000+00:00</time></trkpt><trkpt lat="63.7014122" lon="-19.64482689"><ele>120.3</ele><time>2012-07-26T16:30:44.0000000+00:00</time></trkpt><trkpt lat="63.70153427" lon="-19.64491844"><ele>122.9</ele><time>2012-07-26T16:30:49.0000000+00:00</time></trkpt><trkpt lat="63.70154572" lon="-19.64493179"><ele>122.0</ele><time>2012-07-26T16:30:54.0000000+00:00</time></trkpt><trkpt lat="63.70159149" lon="-19.64497757"><ele>121.4</ele><time>2012-07-26T16:30:59.0000000+00:00</time></trkpt><trkpt lat="63.70159531" lon="-19.64498138"><ele>120.9</ele><time>2012-07-26T16:31:04.0000000+00:00</time></trkpt><trkpt lat="63.70160294" lon="-19.6449852"><ele>121.0</ele><time>2012-07-26T16:31:09.0000000+00:00</time></trkpt><trkpt lat="63.70160294" lon="-19.64498901"><ele>121.0</ele><time>2012-07-26T16:31:14.0000000+00:00</time></trkpt><trkpt lat="63.70160675" lon="-19.64500237"><ele>121.1</ele><time>2012-07-26T16:31:19.0000000+00:00</time></trkpt><trkpt lat="63.70161057" lon="-19.64495087"><ele>122.5</ele><time>2012-07-26T16:31:24.0000000+00:00</time></trkpt><trkpt lat="63.70161438" lon="-19.64494324"><ele>122.5</ele><time>2012-07-26T16:31:29.0000000+00:00</time></trkpt><trkpt lat="63.7016182" lon="-19.64493561"><ele>122.5</ele><time>2012-07-26T16:31:34.0000000+00:00</time></trkpt><trkpt lat="63.70162201" lon="-19.64492989"><ele>122.6</ele><time>2012-07-26T16:31:39.0000000+00:00</time></trkpt><trkpt lat="63.70162582" lon="-19.64493179"><ele>122.6</ele><time>2012-07-26T16:31:44.0000000+00:00</time></trkpt><trkpt lat="63.70162582" lon="-19.64493752"><ele>122.6</ele><time>2012-07-26T16:31:49.0000000+00:00</time></trkpt><trkpt lat="63.70162582" lon="-19.64494705"><ele>122.6</ele><time>2012-07-26T16:31:54.0000000+00:00</time></trkpt><trkpt lat="63.70162582" lon="-19.64495468"><ele>122.6</ele><time>2012-07-26T16:31:59.0000000+00:00</time></trkpt><trkpt lat="63.70162964" lon="-19.64496613"><ele>122.6</ele><time>2012-07-26T16:32:04.0000000+00:00</time></trkpt><trkpt lat="63.70163345" lon="-19.64497948"><ele>122.7</ele><time>2012-07-26T16:32:09.0000000+00:00</time></trkpt><trkpt lat="63.70164108" lon="-19.64498901"><ele>122.7</ele><time>2012-07-26T16:32:14.0000000+00:00</time></trkpt><trkpt lat="63.7016449" lon="-19.64499283"><ele>122.7</ele><time>2012-07-26T16:32:19.0000000+00:00</time></trkpt><trkpt lat="63.70164108" lon="-19.64500046"><ele>122.7</ele><time>2012-07-26T16:32:24.0000000+00:00</time></trkpt><trkpt lat="63.70164108" lon="-19.64500809"><ele>122.7</ele><time>2012-07-26T16:32:29.0000000+00:00</time></trkpt><trkpt lat="63.70164108" lon="-19.64501572"><ele>122.7</ele><time>2012-07-26T16:32:34.0000000+00:00</time></trkpt><trkpt lat="63.70163727" lon="-19.64501381"><ele>122.7</ele><time>2012-07-26T16:32:39.0000000+00:00</time></trkpt><trkpt lat="63.70163345" lon="-19.6450119"><ele>122.7</ele><time>2012-07-26T16:32:44.0000000+00:00</time></trkpt><trkpt lat="63.70162964" lon="-19.64500427"><ele>122.7</ele><time>2012-07-26T16:32:49.0000000+00:00</time></trkpt><trkpt lat="63.70162582" lon="-19.64499283"><ele>122.7</ele><time>2012-07-26T16:32:54.0000000+00:00</time></trkpt><trkpt lat="63.70162201" lon="-19.64498901"><ele>122.7</ele><time>2012-07-26T16:32:59.0000000+00:00</time></trkpt><trkpt lat="63.7016182" lon="-19.64500809"><ele>122.9</ele><time>2012-07-26T16:33:04.0000000+00:00</time></trkpt><trkpt lat="63.70161057" lon="-19.6450119"><ele>122.8</ele><time>2012-07-26T16:33:09.0000000+00:00</time></trkpt><trkpt lat="63.70160675" lon="-19.64501381"><ele>122.8</ele><time>2012-07-26T16:33:14.0000000+00:00</time></trkpt><trkpt lat="63.70160294" lon="-19.64501381"><ele>122.8</ele><time>2012-07-26T16:33:19.0000000+00:00</time></trkpt><trkpt lat="63.70159531" lon="-19.64501572"><ele>122.8</ele><time>2012-07-26T16:33:24.0000000+00:00</time></trkpt><trkpt lat="63.70158386" lon="-19.64501381"><ele>122.7</ele><time>2012-07-26T16:33:29.0000000+00:00</time></trkpt><trkpt lat="63.70157242" lon="-19.64500809"><ele>122.7</ele><time>2012-07-26T16:33:34.0000000+00:00</time></trkpt><trkpt lat="63.70157242" lon="-19.64502144"><ele>122.7</ele><time>2012-07-26T16:33:39.0000000+00:00</time></trkpt><trkpt lat="63.70158005" lon="-19.64503098"><ele>122.7</ele><time>2012-07-26T16:33:44.0000000+00:00</time></trkpt><trkpt lat="63.70158386" lon="-19.64504051"><ele>122.7</ele><time>2012-07-26T16:33:49.0000000+00:00</time></trkpt><trkpt lat="63.70158768" lon="-19.64504814"><ele>122.7</ele><time>2012-07-26T16:33:54.0000000+00:00</time></trkpt><trkpt lat="63.70158768" lon="-19.64505768"><ele>122.8</ele><time>2012-07-26T16:33:59.0000000+00:00</time></trkpt><trkpt lat="63.70158386" lon="-19.6450634"><ele>122.9</ele><time>2012-07-26T16:34:04.0000000+00:00</time></trkpt><trkpt lat="63.70158386" lon="-19.64506531"><ele>123.0</ele><time>2012-07-26T16:34:09.0000000+00:00</time></trkpt><trkpt lat="63.70158005" lon="-19.64507103"><ele>123.1</ele><time>2012-07-26T16:34:14.0000000+00:00</time></trkpt><trkpt lat="63.70157623" lon="-19.64506149"><ele>123.3</ele><time>2012-07-26T16:34:19.0000000+00:00</time></trkpt><trkpt lat="63.70157623" lon="-19.64504814"><ele>123.5</ele><time>2012-07-26T16:34:24.0000000+00:00</time></trkpt><trkpt lat="63.7015686" lon="-19.6450367"><ele>123.9</ele><time>2012-07-26T16:34:29.0000000+00:00</time></trkpt><trkpt lat="63.70155716" lon="-19.64503098"><ele>124.6</ele><time>2012-07-26T16:34:34.0000000+00:00</time></trkpt><trkpt lat="63.70155716" lon="-19.64503098"><ele>125.5</ele><time>2012-07-26T16:34:39.0000000+00:00</time></trkpt><trkpt lat="63.70156097" lon="-19.64503098"><ele>126.3</ele><time>2012-07-26T16:34:44.0000000+00:00</time></trkpt><trkpt lat="63.70156479" lon="-19.6450367"><ele>127.1</ele><time>2012-07-26T16:34:49.0000000+00:00</time></trkpt><trkpt lat="63.7015686" lon="-19.64504433"><ele>128.0</ele><time>2012-07-26T16:34:54.0000000+00:00</time></trkpt><trkpt lat="63.70159149" lon="-19.6450367"><ele>129.1</ele><time>2012-07-26T16:34:59.0000000+00:00</time></trkpt><trkpt lat="63.70162964" lon="-19.64505196"><ele>129.5</ele><time>2012-07-26T16:35:04.0000000+00:00</time></trkpt><trkpt lat="63.70164871" lon="-19.6450882"><ele>130.4</ele><time>2012-07-26T16:35:09.0000000+00:00</time></trkpt><trkpt lat="63.70164871" lon="-19.64504242"><ele>131.8</ele><time>2012-07-26T16:35:14.0000000+00:00</time></trkpt><trkpt lat="63.70166016" lon="-19.64505577"><ele>132.9</ele><time>2012-07-26T16:35:19.0000000+00:00</time></trkpt><trkpt lat="63.70167923" lon="-19.64503288"><ele>134.1</ele><time>2012-07-26T16:35:24.0000000+00:00</time></trkpt><trkpt lat="63.70170975" lon="-19.6450367"><ele>135.2</ele><time>2012-07-26T16:35:29.0000000+00:00</time></trkpt><trkpt lat="63.70170975" lon="-19.64503479"><ele>136.5</ele><time>2012-07-26T16:35:34.0000000+00:00</time></trkpt><trkpt lat="63.70169449" lon="-19.64502716"><ele>137.6</ele><time>2012-07-26T16:35:39.0000000+00:00</time></trkpt><trkpt lat="63.70172501" lon="-19.64504623"><ele>138.6</ele><time>2012-07-26T16:35:44.0000000+00:00</time></trkpt><trkpt lat="63.70171738" lon="-19.6450367"><ele>139.4</ele><time>2012-07-26T16:35:49.0000000+00:00</time></trkpt><trkpt lat="63.70170212" lon="-19.64505768"><ele>140.3</ele><time>2012-07-26T16:35:54.0000000+00:00</time></trkpt><trkpt lat="63.70171738" lon="-19.64505959"><ele>141.5</ele><time>2012-07-26T16:35:59.0000000+00:00</time></trkpt><trkpt lat="63.70172882" lon="-19.64507675"><ele>143.4</ele><time>2012-07-26T16:36:04.0000000+00:00</time></trkpt><trkpt lat="63.70173645" lon="-19.64507294"><ele>144.3</ele><time>2012-07-26T16:36:09.0000000+00:00</time></trkpt><trkpt lat="63.70174789" lon="-19.64506912"><ele>145.2</ele><time>2012-07-26T16:36:14.0000000+00:00</time></trkpt><trkpt lat="63.70175171" lon="-19.64506722"><ele>146.1</ele><time>2012-07-26T16:36:19.0000000+00:00</time></trkpt><trkpt lat="63.70175934" lon="-19.64505768"><ele>147.0</ele><time>2012-07-26T16:36:24.0000000+00:00</time></trkpt><trkpt lat="63.70176697" lon="-19.64505196"><ele>147.9</ele><time>2012-07-26T16:36:29.0000000+00:00</time></trkpt><trkpt lat="63.70177841" lon="-19.64504623"><ele>148.9</ele><time>2012-07-26T16:36:34.0000000+00:00</time></trkpt><trkpt lat="63.70178986" lon="-19.64504051"><ele>149.8</ele><time>2012-07-26T16:36:39.0000000+00:00</time></trkpt><trkpt lat="63.70178223" lon="-19.64504051"><ele>149.4</ele><time>2012-07-26T16:36:44.0000000+00:00</time></trkpt><trkpt lat="63.7017746" lon="-19.64503479"><ele>149.4</ele><time>2012-07-26T16:36:49.0000000+00:00</time></trkpt><trkpt lat="63.70177078" lon="-19.64502716"><ele>149.3</ele><time>2012-07-26T16:36:54.0000000+00:00</time></trkpt><trkpt lat="63.70176697" lon="-19.64502716"><ele>149.2</ele><time>2012-07-26T16:36:59.0000000+00:00</time></trkpt><trkpt lat="63.70175934" lon="-19.64502907"><ele>149.2</ele><time>2012-07-26T16:37:04.0000000+00:00</time></trkpt><trkpt lat="63.70175552" lon="-19.64502907"><ele>149.1</ele><time>2012-07-26T16:37:09.0000000+00:00</time></trkpt><trkpt lat="63.70175934" lon="-19.64502907"><ele>149.1</ele><time>2012-07-26T16:37:14.0000000+00:00</time></trkpt><trkpt lat="63.70175934" lon="-19.64502907"><ele>149.1</ele><time>2012-07-26T16:37:19.0000000+00:00</time></trkpt><trkpt lat="63.70176315" lon="-19.64503098"><ele>149.1</ele><time>2012-07-26T16:37:24.0000000+00:00</time></trkpt><trkpt lat="63.70176315" lon="-19.64503098"><ele>149.1</ele><time>2012-07-26T16:37:29.0000000+00:00</time></trkpt><trkpt lat="63.70176315" lon="-19.64502907"><ele>149.3</ele><time>2012-07-26T16:37:34.0000000+00:00</time></trkpt><trkpt lat="63.70176697" lon="-19.64502907"><ele>149.4</ele><time>2012-07-26T16:37:39.0000000+00:00</time></trkpt><trkpt lat="63.70176697" lon="-19.64502907"><ele>149.5</ele><time>2012-07-26T16:37:44.0000000+00:00</time></trkpt><trkpt lat="63.70176697" lon="-19.64502525"><ele>149.6</ele><time>2012-07-26T16:37:49.0000000+00:00</time></trkpt><trkpt lat="63.70176697" lon="-19.64502525"><ele>149.6</ele><time>2012-07-26T16:37:54.0000000+00:00</time></trkpt><trkpt lat="63.70177078" lon="-19.64502525"><ele>149.6</ele><time>2012-07-26T16:37:59.0000000+00:00</time></trkpt><trkpt lat="63.70177078" lon="-19.64502335"><ele>149.6</ele><time>2012-07-26T16:38:04.0000000+00:00</time></trkpt><trkpt lat="63.70177078" lon="-19.64502335"><ele>149.6</ele><time>2012-07-26T16:38:09.0000000+00:00</time></trkpt><trkpt lat="63.70177078" lon="-19.64502335"><ele>149.6</ele><time>2012-07-26T16:38:14.0000000+00:00</time></trkpt><trkpt lat="63.70177078" lon="-19.64502335"><ele>149.7</ele><time>2012-07-26T16:38:19.0000000+00:00</time></trkpt><trkpt lat="63.70177078" lon="-19.64502335"><ele>149.7</ele><time>2012-07-26T16:38:24.0000000+00:00</time></trkpt><trkpt lat="63.70177078" lon="-19.64502335"><ele>149.6</ele><time>2012-07-26T16:38:29.0000000+00:00</time></trkpt><trkpt lat="63.70177078" lon="-19.64502335"><ele>149.6</ele><time>2012-07-26T16:38:34.0000000+00:00</time></trkpt><trkpt lat="63.70177078" lon="-19.64502335"><ele>149.6</ele><time>2012-07-26T16:38:39.0000000+00:00</time></trkpt><trkpt lat="63.70177078" lon="-19.64502144"><ele>149.7</ele><time>2012-07-26T16:38:44.0000000+00:00</time></trkpt><trkpt lat="63.70177078" lon="-19.64502144"><ele>149.7</ele><time>2012-07-26T16:38:49.0000000+00:00</time></trkpt><trkpt lat="63.70177078" lon="-19.64502144"><ele>149.7</ele><time>2012-07-26T16:38:54.0000000+00:00</time></trkpt><trkpt lat="63.70177078" lon="-19.64502144"><ele>149.7</ele><time>2012-07-26T16:38:59.0000000+00:00</time></trkpt><trkpt lat="63.70177078" lon="-19.64501953"><ele>149.6</ele><time>2012-07-26T16:39:04.0000000+00:00</time></trkpt><trkpt lat="63.70176315" lon="-19.64499855"><ele>149.7</ele><time>2012-07-26T16:39:09.0000000+00:00</time></trkpt><trkpt lat="63.70175552" lon="-19.64498329"><ele>149.7</ele><time>2012-07-26T16:39:14.0000000+00:00</time></trkpt><trkpt lat="63.70175552" lon="-19.64498138"><ele>149.7</ele><time>2012-07-26T16:39:19.0000000+00:00</time></trkpt><trkpt lat="63.70175934" lon="-19.64499474"><ele>149.7</ele><time>2012-07-26T16:39:24.0000000+00:00</time></trkpt><trkpt lat="63.7017746" lon="-19.64501953"><ele>149.8</ele><time>2012-07-26T16:39:29.0000000+00:00</time></trkpt><trkpt lat="63.70178223" lon="-19.64503861"><ele>149.7</ele><time>2012-07-26T16:39:34.0000000+00:00</time></trkpt><trkpt lat="63.70179749" lon="-19.6450634"><ele>149.7</ele><time>2012-07-26T16:39:39.0000000+00:00</time></trkpt><trkpt lat="63.70180512" lon="-19.64508057"><ele>149.7</ele><time>2012-07-26T16:39:44.0000000+00:00</time></trkpt><trkpt lat="63.70182037" lon="-19.64510727"><ele>149.7</ele><time>2012-07-26T16:39:49.0000000+00:00</time></trkpt><trkpt lat="63.701828" lon="-19.64511871"><ele>149.7</ele><time>2012-07-26T16:39:54.0000000+00:00</time></trkpt><trkpt lat="63.70184326" lon="-19.64515495"><ele>149.6</ele><time>2012-07-26T16:39:59.0000000+00:00</time></trkpt><trkpt lat="63.70185852" lon="-19.64518547"><ele>149.5</ele><time>2012-07-26T16:40:04.0000000+00:00</time></trkpt><trkpt lat="63.70186997" lon="-19.64520836"><ele>149.4</ele><time>2012-07-26T16:40:09.0000000+00:00</time></trkpt><trkpt lat="63.70187759" lon="-19.64522934"><ele>149.2</ele><time>2012-07-26T16:40:14.0000000+00:00</time></trkpt><trkpt lat="63.70189285" lon="-19.6452446"><ele>149.0</ele><time>2012-07-26T16:40:19.0000000+00:00</time></trkpt><trkpt lat="63.70189667" lon="-19.64523888"><ele>148.7</ele><time>2012-07-26T16:40:24.0000000+00:00</time></trkpt><trkpt lat="63.70189667" lon="-19.64522934"><ele>148.6</ele><time>2012-07-26T16:40:29.0000000+00:00</time></trkpt><trkpt lat="63.7019043" lon="-19.64522934"><ele>148.3</ele><time>2012-07-26T16:40:34.0000000+00:00</time></trkpt><trkpt lat="63.70188904" lon="-19.64519119"><ele>148.3</ele><time>2012-07-26T16:40:39.0000000+00:00</time></trkpt><trkpt lat="63.70187378" lon="-19.64515114"><ele>148.1</ele><time>2012-07-26T16:40:44.0000000+00:00</time></trkpt><trkpt lat="63.70188141" lon="-19.64515877"><ele>148.0</ele><time>2012-07-26T16:40:49.0000000+00:00</time></trkpt><trkpt lat="63.70188522" lon="-19.64517021"><ele>147.8</ele><time>2012-07-26T16:40:54.0000000+00:00</time></trkpt><trkpt lat="63.70188904" lon="-19.64518166"><ele>147.6</ele><time>2012-07-26T16:40:59.0000000+00:00</time></trkpt><trkpt lat="63.70189285" lon="-19.64518929"><ele>147.3</ele><time>2012-07-26T16:41:04.0000000+00:00</time></trkpt><trkpt lat="63.70189285" lon="-19.64519882"><ele>147.1</ele><time>2012-07-26T16:41:09.0000000+00:00</time></trkpt><trkpt lat="63.70189667" lon="-19.64520454"><ele>146.8</ele><time>2012-07-26T16:41:14.0000000+00:00</time></trkpt><trkpt lat="63.70189667" lon="-19.64521217"><ele>146.4</ele><time>2012-07-26T16:41:19.0000000+00:00</time></trkpt><trkpt lat="63.70190048" lon="-19.64522553"><ele>146.1</ele><time>2012-07-26T16:41:24.0000000+00:00</time></trkpt><trkpt lat="63.70190811" lon="-19.64523697"><ele>145.7</ele><time>2012-07-26T16:41:29.0000000+00:00</time></trkpt><trkpt lat="63.70191193" lon="-19.64525032"><ele>145.3</ele><time>2012-07-26T16:41:34.0000000+00:00</time></trkpt><trkpt lat="63.70191574" lon="-19.64526177"><ele>145.0</ele><time>2012-07-26T16:41:39.0000000+00:00</time></trkpt><trkpt lat="63.70191956" lon="-19.6452713"><ele>144.6</ele><time>2012-07-26T16:41:44.0000000+00:00</time></trkpt><trkpt lat="63.70191956" lon="-19.64528084"><ele>144.2</ele><time>2012-07-26T16:41:49.0000000+00:00</time></trkpt><trkpt lat="63.70192337" lon="-19.64528847"><ele>143.9</ele><time>2012-07-26T16:41:54.0000000+00:00</time></trkpt><trkpt lat="63.70192719" lon="-19.645298"><ele>143.5</ele><time>2012-07-26T16:41:59.0000000+00:00</time></trkpt><trkpt lat="63.701931" lon="-19.64530563"><ele>143.2</ele><time>2012-07-26T16:42:04.0000000+00:00</time></trkpt><trkpt lat="63.701931" lon="-19.64531326"><ele>142.8</ele><time>2012-07-26T16:42:09.0000000+00:00</time></trkpt><trkpt lat="63.70193481" lon="-19.64531899"><ele>142.4</ele><time>2012-07-26T16:42:14.0000000+00:00</time></trkpt><trkpt lat="63.70193481" lon="-19.64532661"><ele>142.1</ele><time>2012-07-26T16:42:19.0000000+00:00</time></trkpt><trkpt lat="63.70193863" lon="-19.64533234"><ele>141.7</ele><time>2012-07-26T16:42:24.0000000+00:00</time></trkpt><trkpt lat="63.70193863" lon="-19.64533615"><ele>141.4</ele><time>2012-07-26T16:42:29.0000000+00:00</time></trkpt><trkpt lat="63.70193863" lon="-19.64533997"><ele>141.0</ele><time>2012-07-26T16:42:34.0000000+00:00</time></trkpt><trkpt lat="63.70194244" lon="-19.64534569"><ele>140.7</ele><time>2012-07-26T16:42:39.0000000+00:00</time></trkpt><trkpt lat="63.70194244" lon="-19.64535141"><ele>140.4</ele><time>2012-07-26T16:42:44.0000000+00:00</time></trkpt><trkpt lat="63.70194244" lon="-19.64535332"><ele>140.1</ele><time>2012-07-26T16:42:49.0000000+00:00</time></trkpt><trkpt lat="63.70194244" lon="-19.64535332"><ele>139.8</ele><time>2012-07-26T16:42:54.0000000+00:00</time></trkpt><trkpt lat="63.70194244" lon="-19.64535332"><ele>139.6</ele><time>2012-07-26T16:42:59.0000000+00:00</time></trkpt><trkpt lat="63.70194244" lon="-19.64535713"><ele>139.3</ele><time>2012-07-26T16:43:04.0000000+00:00</time></trkpt><trkpt lat="63.70194244" lon="-19.64536095"><ele>139.1</ele><time>2012-07-26T16:43:09.0000000+00:00</time></trkpt><trkpt lat="63.70194626" lon="-19.64536667"><ele>138.9</ele><time>2012-07-26T16:43:14.0000000+00:00</time></trkpt><trkpt lat="63.70194626" lon="-19.64537239"><ele>138.7</ele><time>2012-07-26T16:43:19.0000000+00:00</time></trkpt><trkpt lat="63.70195007" lon="-19.64537811"><ele>138.6</ele><time>2012-07-26T16:43:24.0000000+00:00</time></trkpt><trkpt lat="63.70195007" lon="-19.64538574"><ele>138.4</ele><time>2012-07-26T16:43:29.0000000+00:00</time></trkpt><trkpt lat="63.70195389" lon="-19.64539146"><ele>138.4</ele><time>2012-07-26T16:43:34.0000000+00:00</time></trkpt><trkpt lat="63.70195389" lon="-19.64539719"><ele>138.3</ele><time>2012-07-26T16:43:39.0000000+00:00</time></trkpt><trkpt lat="63.7019577" lon="-19.64540672"><ele>138.3</ele><time>2012-07-26T16:43:44.0000000+00:00</time></trkpt><trkpt lat="63.70196152" lon="-19.64541626"><ele>138.3</ele><time>2012-07-26T16:43:49.0000000+00:00</time></trkpt><trkpt lat="63.70196533" lon="-19.6454258"><ele>138.3</ele><time>2012-07-26T16:43:54.0000000+00:00</time></trkpt><trkpt lat="63.70196533" lon="-19.64543343"><ele>138.2</ele><time>2012-07-26T16:43:59.0000000+00:00</time></trkpt><trkpt lat="63.70196915" lon="-19.64544296"><ele>138.3</ele><time>2012-07-26T16:44:04.0000000+00:00</time></trkpt><trkpt lat="63.70196915" lon="-19.64544678"><ele>138.3</ele><time>2012-07-26T16:44:09.0000000+00:00</time></trkpt><trkpt lat="63.70196915" lon="-19.64544678"><ele>138.3</ele><time>2012-07-26T16:44:14.0000000+00:00</time></trkpt><trkpt lat="63.70197296" lon="-19.64544678"><ele>138.3</ele><time>2012-07-26T16:44:19.0000000+00:00</time></trkpt><trkpt lat="63.70197296" lon="-19.64544296"><ele>138.3</ele><time>2012-07-26T16:44:24.0000000+00:00</time></trkpt><trkpt lat="63.70196915" lon="-19.64543724"><ele>138.3</ele><time>2012-07-26T16:44:29.0000000+00:00</time></trkpt><trkpt lat="63.7019577" lon="-19.64540291"><ele>137.7</ele><time>2012-07-26T16:44:34.0000000+00:00</time></trkpt><trkpt lat="63.70194244" lon="-19.64538765"><ele>136.3</ele><time>2012-07-26T16:44:39.0000000+00:00</time></trkpt><trkpt lat="63.70193481" lon="-19.64538384"><ele>136.0</ele><time>2012-07-26T16:44:44.0000000+00:00</time></trkpt><trkpt lat="63.70192719" lon="-19.64537811"><ele>135.8</ele><time>2012-07-26T16:44:49.0000000+00:00</time></trkpt><trkpt lat="63.70191956" lon="-19.64536858"><ele>135.5</ele><time>2012-07-26T16:44:54.0000000+00:00</time></trkpt><trkpt lat="63.7019043" lon="-19.64534187"><ele>135.3</ele><time>2012-07-26T16:44:59.0000000+00:00</time></trkpt><trkpt lat="63.70188141" lon="-19.64529228"><ele>135.0</ele><time>2012-07-26T16:45:04.0000000+00:00</time></trkpt><trkpt lat="63.70186234" lon="-19.64525986"><ele>134.8</ele><time>2012-07-26T16:45:09.0000000+00:00</time></trkpt><trkpt lat="63.70184708" lon="-19.64522171"><ele>134.6</ele><time>2012-07-26T16:45:14.0000000+00:00</time></trkpt><trkpt lat="63.70183945" lon="-19.64520073"><ele>134.5</ele><time>2012-07-26T16:45:19.0000000+00:00</time></trkpt><trkpt lat="63.70183563" lon="-19.64518929"><ele>134.4</ele><time>2012-07-26T16:45:24.0000000+00:00</time></trkpt><trkpt lat="63.70182037" lon="-19.64516258"><ele>134.3</ele><time>2012-07-26T16:45:29.0000000+00:00</time></trkpt><trkpt lat="63.70180893" lon="-19.64515305"><ele>134.1</ele><time>2012-07-26T16:45:34.0000000+00:00</time></trkpt><trkpt lat="63.70179749" lon="-19.64514923"><ele>133.8</ele><time>2012-07-26T16:45:39.0000000+00:00</time></trkpt><trkpt lat="63.70179367" lon="-19.64515305"><ele>133.6</ele><time>2012-07-26T16:45:44.0000000+00:00</time></trkpt><trkpt lat="63.70178986" lon="-19.64516068"><ele>133.4</ele><time>2012-07-26T16:45:49.0000000+00:00</time></trkpt><trkpt lat="63.70178986" lon="-19.64517403"><ele>133.1</ele><time>2012-07-26T16:45:54.0000000+00:00</time></trkpt><trkpt lat="63.70179367" lon="-19.64519501"><ele>132.9</ele><time>2012-07-26T16:45:59.0000000+00:00</time></trkpt><trkpt lat="63.70183945" lon="-19.64525795"><ele>133.0</ele><time>2012-07-26T16:46:04.0000000+00:00</time></trkpt><trkpt lat="63.70186234" lon="-19.64530373"><ele>133.3</ele><time>2012-07-26T16:46:09.0000000+00:00</time></trkpt><trkpt lat="63.70186234" lon="-19.645298"><ele>133.5</ele><time>2012-07-26T16:46:14.0000000+00:00</time></trkpt><trkpt lat="63.70186615" lon="-19.64528465"><ele>133.5</ele><time>2012-07-26T16:46:19.0000000+00:00</time></trkpt><trkpt lat="63.70189667" lon="-19.64531326"><ele>133.8</ele><time>2012-07-26T16:46:24.0000000+00:00</time></trkpt><trkpt lat="63.70191574" lon="-19.64532661"><ele>134.2</ele><time>2012-07-26T16:46:29.0000000+00:00</time></trkpt><trkpt lat="63.701931" lon="-19.64533234"><ele>134.6</ele><time>2012-07-26T16:46:34.0000000+00:00</time></trkpt><trkpt lat="63.70194244" lon="-19.64532471"><ele>134.8</ele><time>2012-07-26T16:46:39.0000000+00:00</time></trkpt><trkpt lat="63.70195007" lon="-19.64532089"><ele>135.1</ele><time>2012-07-26T16:46:44.0000000+00:00</time></trkpt><trkpt lat="63.70195389" lon="-19.64530373"><ele>135.4</ele><time>2012-07-26T16:46:49.0000000+00:00</time></trkpt><trkpt lat="63.70196152" lon="-19.64531136"><ele>135.3</ele><time>2012-07-26T16:46:54.0000000+00:00</time></trkpt><trkpt lat="63.70196152" lon="-19.64531517"><ele>135.3</ele><time>2012-07-26T16:46:59.0000000+00:00</time></trkpt><trkpt lat="63.70195389" lon="-19.64531517"><ele>135.2</ele><time>2012-07-26T16:47:04.0000000+00:00</time></trkpt><trkpt lat="63.70194626" lon="-19.64531517"><ele>135.3</ele><time>2012-07-26T16:47:09.0000000+00:00</time></trkpt><trkpt lat="63.701931" lon="-19.64530373"><ele>135.6</ele><time>2012-07-26T16:47:14.0000000+00:00</time></trkpt><trkpt lat="63.70190811" lon="-19.64528656"><ele>136.4</ele><time>2012-07-26T16:47:19.0000000+00:00</time></trkpt><trkpt lat="63.70190811" lon="-19.64525986"><ele>136.9</ele><time>2012-07-26T16:47:24.0000000+00:00</time></trkpt><trkpt lat="63.70189285" lon="-19.64522171"><ele>137.3</ele><time>2012-07-26T16:47:29.0000000+00:00</time></trkpt><trkpt lat="63.70189285" lon="-19.6451931"><ele>137.7</ele><time>2012-07-26T16:47:34.0000000+00:00</time></trkpt><trkpt lat="63.70188522" lon="-19.64518929"><ele>137.9</ele><time>2012-07-26T16:47:39.0000000+00:00</time></trkpt><trkpt lat="63.70187759" lon="-19.64518547"><ele>138.1</ele><time>2012-07-26T16:47:44.0000000+00:00</time></trkpt><trkpt lat="63.70187378" lon="-19.64518547"><ele>138.4</ele><time>2012-07-26T16:47:49.0000000+00:00</time></trkpt><trkpt lat="63.70187378" lon="-19.64519119"><ele>138.8</ele><time>2012-07-26T16:47:54.0000000+00:00</time></trkpt><trkpt lat="63.70186997" lon="-19.64519882"><ele>139.2</ele><time>2012-07-26T16:47:59.0000000+00:00</time></trkpt><trkpt lat="63.70186997" lon="-19.64519882"><ele>139.6</ele><time>2012-07-26T16:48:04.0000000+00:00</time></trkpt><trkpt lat="63.70186997" lon="-19.64520073"><ele>140.1</ele><time>2012-07-26T16:48:09.0000000+00:00</time></trkpt><trkpt lat="63.70186997" lon="-19.64519882"><ele>140.6</ele><time>2012-07-26T16:48:14.0000000+00:00</time></trkpt><trkpt lat="63.70186997" lon="-19.64520073"><ele>141.3</ele><time>2012-07-26T16:48:19.0000000+00:00</time></trkpt><trkpt lat="63.70186997" lon="-19.64520454"><ele>142.0</ele><time>2012-07-26T16:48:24.0000000+00:00</time></trkpt><trkpt lat="63.70185852" lon="-19.64520836"><ele>142.7</ele><time>2012-07-26T16:48:29.0000000+00:00</time></trkpt><trkpt lat="63.70184326" lon="-19.6451664"><ele>145.6</ele><time>2012-07-26T16:48:34.0000000+00:00</time></trkpt><trkpt lat="63.701828" lon="-19.64512444"><ele>149.6</ele><time>2012-07-26T16:48:39.0000000+00:00</time></trkpt><trkpt lat="63.70182419" lon="-19.64509964"><ele>151.9</ele><time>2012-07-26T16:48:44.0000000+00:00</time></trkpt><trkpt lat="63.70181656" lon="-19.64509773"><ele>152.9</ele><time>2012-07-26T16:48:49.0000000+00:00</time></trkpt><trkpt lat="63.70181274" lon="-19.64509583"><ele>153.8</ele><time>2012-07-26T16:48:54.0000000+00:00</time></trkpt><trkpt lat="63.70180893" lon="-19.6450882"><ele>154.8</ele><time>2012-07-26T16:48:59.0000000+00:00</time></trkpt><trkpt lat="63.70180512" lon="-19.64506912"><ele>155.6</ele><time>2012-07-26T16:49:04.0000000+00:00</time></trkpt><trkpt lat="63.70180512" lon="-19.64504814"><ele>156.4</ele><time>2012-07-26T16:49:09.0000000+00:00</time></trkpt><trkpt lat="63.70181274" lon="-19.64501762"><ele>157.5</ele><time>2012-07-26T16:49:14.0000000+00:00</time></trkpt><trkpt lat="63.70182419" lon="-19.6449852"><ele>158.4</ele><time>2012-07-26T16:49:19.0000000+00:00</time></trkpt><trkpt lat="63.70183945" lon="-19.64494324"><ele>159.0</ele><time>2012-07-26T16:49:24.0000000+00:00</time></trkpt><trkpt lat="63.70184326" lon="-19.64492607"><ele>160.0</ele><time>2012-07-26T16:49:29.0000000+00:00</time></trkpt><trkpt lat="63.70185089" lon="-19.64490891"><ele>160.8</ele><time>2012-07-26T16:49:34.0000000+00:00</time></trkpt><trkpt lat="63.70185852" lon="-19.64488983"><ele>161.6</ele><time>2012-07-26T16:49:39.0000000+00:00</time></trkpt><trkpt lat="63.70186615" lon="-19.64486885"><ele>162.3</ele><time>2012-07-26T16:49:44.0000000+00:00</time></trkpt><trkpt lat="63.70186997" lon="-19.64485741"><ele>163.1</ele><time>2012-07-26T16:49:49.0000000+00:00</time></trkpt><trkpt lat="63.70186997" lon="-19.64485169"><ele>163.8</ele><time>2012-07-26T16:49:54.0000000+00:00</time></trkpt><trkpt lat="63.70186997" lon="-19.64484787"><ele>164.4</ele><time>2012-07-26T16:49:59.0000000+00:00</time></trkpt><trkpt lat="63.70186234" lon="-19.64484596"><ele>165.0</ele><time>2012-07-26T16:50:04.0000000+00:00</time></trkpt><trkpt lat="63.70186615" lon="-19.64484978"><ele>165.5</ele><time>2012-07-26T16:50:09.0000000+00:00</time></trkpt><trkpt lat="63.70187378" lon="-19.64485169"><ele>165.9</ele><time>2012-07-26T16:50:14.0000000+00:00</time></trkpt><trkpt lat="63.70188141" lon="-19.64485169"><ele>166.2</ele><time>2012-07-26T16:50:19.0000000+00:00</time></trkpt><trkpt lat="63.70188522" lon="-19.6448555"><ele>166.3</ele><time>2012-07-26T16:50:24.0000000+00:00</time></trkpt><trkpt lat="63.70188522" lon="-19.64486313"><ele>166.3</ele><time>2012-07-26T16:50:29.0000000+00:00</time></trkpt><trkpt lat="63.70188522" lon="-19.64487267"><ele>166.2</ele><time>2012-07-26T16:50:34.0000000+00:00</time></trkpt><trkpt lat="63.70188522" lon="-19.64487457"><ele>166.1</ele><time>2012-07-26T16:50:39.0000000+00:00</time></trkpt><trkpt lat="63.70187759" lon="-19.6448803"><ele>165.9</ele><time>2012-07-26T16:50:44.0000000+00:00</time></trkpt><trkpt lat="63.70188141" lon="-19.64488602"><ele>165.8</ele><time>2012-07-26T16:50:49.0000000+00:00</time></trkpt><trkpt lat="63.70188522" lon="-19.64489555"><ele>165.7</ele><time>2012-07-26T16:50:54.0000000+00:00</time></trkpt><trkpt lat="63.70188904" lon="-19.64489555"><ele>165.6</ele><time>2012-07-26T16:50:59.0000000+00:00</time></trkpt><trkpt lat="63.70188904" lon="-19.64489365"><ele>165.6</ele><time>2012-07-26T16:51:04.0000000+00:00</time></trkpt><trkpt lat="63.70188904" lon="-19.64489174"><ele>165.6</ele><time>2012-07-26T16:51:09.0000000+00:00</time></trkpt><trkpt lat="63.70188522" lon="-19.6448822"><ele>165.6</ele><time>2012-07-26T16:51:14.0000000+00:00</time></trkpt><trkpt lat="63.70188904" lon="-19.64485169"><ele>165.5</ele><time>2012-07-26T16:51:19.0000000+00:00</time></trkpt><trkpt lat="63.70188904" lon="-19.64481735"><ele>165.3</ele><time>2012-07-26T16:51:24.0000000+00:00</time></trkpt><trkpt lat="63.70184708" lon="-19.64479256"><ele>164.4</ele><time>2012-07-26T16:51:29.0000000+00:00</time></trkpt><trkpt lat="63.701828" lon="-19.64478111"><ele>164.1</ele><time>2012-07-26T16:51:34.0000000+00:00</time></trkpt><trkpt lat="63.701828" lon="-19.64478111"><ele>164.0</ele><time>2012-07-26T16:51:39.0000000+00:00</time></trkpt><trkpt lat="63.70183182" lon="-19.64477921"><ele>164.0</ele><time>2012-07-26T16:51:44.0000000+00:00</time></trkpt><trkpt lat="63.70183563" lon="-19.64477348"><ele>163.9</ele><time>2012-07-26T16:51:49.0000000+00:00</time></trkpt><trkpt lat="63.70183945" lon="-19.64476967"><ele>163.9</ele><time>2012-07-26T16:51:54.0000000+00:00</time></trkpt><trkpt lat="63.70183563" lon="-19.64475822"><ele>163.9</ele><time>2012-07-26T16:51:59.0000000+00:00</time></trkpt><trkpt lat="63.70183182" lon="-19.64476967"><ele>163.9</ele><time>2012-07-26T16:52:04.0000000+00:00</time></trkpt><trkpt lat="63.70182419" lon="-19.64477158"><ele>164.0</ele><time>2012-07-26T16:52:09.0000000+00:00</time></trkpt><trkpt lat="63.70182419" lon="-19.64477921"><ele>164.2</ele><time>2012-07-26T16:52:14.0000000+00:00</time></trkpt><trkpt lat="63.70182419" lon="-19.6447773"><ele>164.4</ele><time>2012-07-26T16:52:19.0000000+00:00</time></trkpt><trkpt lat="63.70182037" lon="-19.64477539"><ele>164.6</ele><time>2012-07-26T16:52:24.0000000+00:00</time></trkpt><trkpt lat="63.70181274" lon="-19.64476395"><ele>164.8</ele><time>2012-07-26T16:52:29.0000000+00:00</time></trkpt><trkpt lat="63.70180512" lon="-19.64473724"><ele>165.1</ele><time>2012-07-26T16:52:34.0000000+00:00</time></trkpt><trkpt lat="63.70178223" lon="-19.64474297"><ele>165.4</ele><time>2012-07-26T16:52:39.0000000+00:00</time></trkpt><trkpt lat="63.70176315" lon="-19.64470291"><ele>165.6</ele><time>2012-07-26T16:52:44.0000000+00:00</time></trkpt><trkpt lat="63.70173264" lon="-19.64473534"><ele>165.4</ele><time>2012-07-26T16:52:49.0000000+00:00</time></trkpt><trkpt lat="63.7017746" lon="-19.64482689"><ele>165.2</ele><time>2012-07-26T16:52:54.0000000+00:00</time></trkpt><trkpt lat="63.70181274" lon="-19.64482117"><ele>162.7</ele><time>2012-07-26T16:52:59.0000000+00:00</time></trkpt><trkpt lat="63.70181274" lon="-19.64481926"><ele>162.4</ele><time>2012-07-26T16:53:04.0000000+00:00</time></trkpt><trkpt lat="63.70181656" lon="-19.64482307"><ele>162.0</ele><time>2012-07-26T16:53:09.0000000+00:00</time></trkpt><trkpt lat="63.70182419" lon="-19.6448555"><ele>161.7</ele><time>2012-07-26T16:53:14.0000000+00:00</time></trkpt><trkpt lat="63.70183563" lon="-19.64488411"><ele>160.9</ele><time>2012-07-26T16:53:19.0000000+00:00</time></trkpt><trkpt lat="63.70183182" lon="-19.64490318"><ele>160.6</ele><time>2012-07-26T16:53:24.0000000+00:00</time></trkpt><trkpt lat="63.70182419" lon="-19.64491463"><ele>160.2</ele><time>2012-07-26T16:53:29.0000000+00:00</time></trkpt><trkpt lat="63.70182037" lon="-19.64491844"><ele>159.9</ele><time>2012-07-26T16:53:34.0000000+00:00</time></trkpt><trkpt lat="63.70181274" lon="-19.64491272"><ele>159.6</ele><time>2012-07-26T16:53:39.0000000+00:00</time></trkpt><trkpt lat="63.7018013" lon="-19.64490318"><ele>159.3</ele><time>2012-07-26T16:53:44.0000000+00:00</time></trkpt><trkpt lat="63.70181274" lon="-19.64492989"><ele>158.5</ele><time>2012-07-26T16:53:49.0000000+00:00</time></trkpt><trkpt lat="63.70181656" lon="-19.64493561"><ele>158.1</ele><time>2012-07-26T16:53:54.0000000+00:00</time></trkpt><trkpt lat="63.70180893" lon="-19.64494324"><ele>157.8</ele><time>2012-07-26T16:53:59.0000000+00:00</time></trkpt><trkpt lat="63.70180512" lon="-19.64493179"><ele>157.6</ele><time>2012-07-26T16:54:04.0000000+00:00</time></trkpt><trkpt lat="63.70179367" lon="-19.64492989"><ele>157.3</ele><time>2012-07-26T16:54:09.0000000+00:00</time></trkpt><trkpt lat="63.70179749" lon="-19.64487839"><ele>156.9</ele><time>2012-07-26T16:54:14.0000000+00:00</time></trkpt><trkpt lat="63.70178223" lon="-19.64486313"><ele>156.9</ele><time>2012-07-26T16:54:19.0000000+00:00</time></trkpt><trkpt lat="63.70178223" lon="-19.64485359"><ele>156.7</ele><time>2012-07-26T16:54:24.0000000+00:00</time></trkpt><trkpt lat="63.70178223" lon="-19.64485931"><ele>156.5</ele><time>2012-07-26T16:54:29.0000000+00:00</time></trkpt><trkpt lat="63.70182037" lon="-19.64485359"><ele>156.0</ele><time>2012-07-26T16:54:34.0000000+00:00</time></trkpt><trkpt lat="63.70183563" lon="-19.64486694"><ele>155.8</ele><time>2012-07-26T16:54:39.0000000+00:00</time></trkpt><trkpt lat="63.70183182" lon="-19.64488983"><ele>155.6</ele><time>2012-07-26T16:54:44.0000000+00:00</time></trkpt><trkpt lat="63.70183945" lon="-19.64489555"><ele>155.7</ele><time>2012-07-26T16:54:49.0000000+00:00</time></trkpt><trkpt lat="63.70183945" lon="-19.644907"><ele>155.8</ele><time>2012-07-26T16:54:54.0000000+00:00</time></trkpt><trkpt lat="63.70185852" lon="-19.64492416"><ele>155.4</ele><time>2012-07-26T16:54:59.0000000+00:00</time></trkpt><trkpt lat="63.70185852" lon="-19.64492035"><ele>155.3</ele><time>2012-07-26T16:55:04.0000000+00:00</time></trkpt><trkpt lat="63.70185471" lon="-19.64491653"><ele>155.2</ele><time>2012-07-26T16:55:09.0000000+00:00</time></trkpt><trkpt lat="63.70185089" lon="-19.64491081"><ele>155.1</ele><time>2012-07-26T16:55:14.0000000+00:00</time></trkpt><trkpt lat="63.70185089" lon="-19.64490128"><ele>155.1</ele><time>2012-07-26T16:55:19.0000000+00:00</time></trkpt><trkpt lat="63.70185471" lon="-19.64490318"><ele>155.0</ele><time>2012-07-26T16:55:24.0000000+00:00</time></trkpt><trkpt lat="63.70181274" lon="-19.64489365"><ele>155.0</ele><time>2012-07-26T16:55:29.0000000+00:00</time></trkpt><trkpt lat="63.70179749" lon="-19.64492416"><ele>154.1</ele><time>2012-07-26T16:55:34.0000000+00:00</time></trkpt><trkpt lat="63.70174789" lon="-19.64491844"><ele>153.3</ele><time>2012-07-26T16:55:39.0000000+00:00</time></trkpt><trkpt lat="63.70172501" lon="-19.64488983"><ele>153.0</ele><time>2012-07-26T16:55:44.0000000+00:00</time></trkpt><trkpt lat="63.70175552" lon="-19.64481735"><ele>153.5</ele><time>2012-07-26T16:55:49.0000000+00:00</time></trkpt><trkpt lat="63.70174789" lon="-19.644804"><ele>153.0</ele><time>2012-07-26T16:55:54.0000000+00:00</time></trkpt><trkpt lat="63.70174027" lon="-19.64479256"><ele>152.6</ele><time>2012-07-26T16:55:59.0000000+00:00</time></trkpt><trkpt lat="63.70173264" lon="-19.64478493"><ele>152.2</ele><time>2012-07-26T16:56:04.0000000+00:00</time></trkpt><trkpt lat="63.70171356" lon="-19.64475441"><ele>152.1</ele><time>2012-07-26T16:56:09.0000000+00:00</time></trkpt><trkpt lat="63.70167923" lon="-19.64474106"><ele>152.6</ele><time>2012-07-26T16:56:14.0000000+00:00</time></trkpt><trkpt lat="63.70166016" lon="-19.64478111"><ele>152.6</ele><time>2012-07-26T16:56:19.0000000+00:00</time></trkpt><trkpt lat="63.70165253" lon="-19.64487648"><ele>152.7</ele><time>2012-07-26T16:56:24.0000000+00:00</time></trkpt><trkpt lat="63.7016449" lon="-19.64489174"><ele>152.7</ele><time>2012-07-26T16:56:29.0000000+00:00</time></trkpt><trkpt lat="63.70163345" lon="-19.64487076"><ele>152.6</ele><time>2012-07-26T16:56:34.0000000+00:00</time></trkpt><trkpt lat="63.7016182" lon="-19.64481926"><ele>152.6</ele><time>2012-07-26T16:56:39.0000000+00:00</time></trkpt><trkpt lat="63.70162201" lon="-19.64480591"><ele>152.7</ele><time>2012-07-26T16:56:44.0000000+00:00</time></trkpt><trkpt lat="63.70161438" lon="-19.644804"><ele>152.7</ele><time>2012-07-26T16:56:49.0000000+00:00</time></trkpt><trkpt lat="63.70161057" lon="-19.64479828"><ele>152.7</ele><time>2012-07-26T16:56:54.0000000+00:00</time></trkpt><trkpt lat="63.70161438" lon="-19.64479637"><ele>152.8</ele><time>2012-07-26T16:56:59.0000000+00:00</time></trkpt><trkpt lat="63.70162582" lon="-19.64479256"><ele>152.8</ele><time>2012-07-26T16:57:04.0000000+00:00</time></trkpt><trkpt lat="63.7016449" lon="-19.64477158"><ele>152.9</ele><time>2012-07-26T16:57:09.0000000+00:00</time></trkpt><trkpt lat="63.70166779" lon="-19.64474487"><ele>152.9</ele><time>2012-07-26T16:57:14.0000000+00:00</time></trkpt><trkpt lat="63.70166397" lon="-19.6447506"><ele>152.9</ele><time>2012-07-26T16:57:19.0000000+00:00</time></trkpt><trkpt lat="63.70166779" lon="-19.6447506"><ele>153.0</ele><time>2012-07-26T16:57:24.0000000+00:00</time></trkpt><trkpt lat="63.70167923" lon="-19.64474487"><ele>153.0</ele><time>2012-07-26T16:57:29.0000000+00:00</time></trkpt><trkpt lat="63.70169067" lon="-19.64473724"><ele>153.0</ele><time>2012-07-26T16:57:34.0000000+00:00</time></trkpt><trkpt lat="63.7016983" lon="-19.64473534"><ele>153.1</ele><time>2012-07-26T16:57:39.0000000+00:00</time></trkpt><trkpt lat="63.70169067" lon="-19.6447525"><ele>153.1</ele><time>2012-07-26T16:57:44.0000000+00:00</time></trkpt><trkpt lat="63.70172119" lon="-19.6447773"><ele>154.0</ele><time>2012-07-26T16:57:49.0000000+00:00</time></trkpt><trkpt lat="63.70169067" lon="-19.64487457"><ele>153.8</ele><time>2012-07-26T16:57:54.0000000+00:00</time></trkpt><trkpt lat="63.70169067" lon="-19.64492035"><ele>153.5</ele><time>2012-07-26T16:57:59.0000000+00:00</time></trkpt><trkpt lat="63.70170212" lon="-19.64494515"><ele>153.4</ele><time>2012-07-26T16:58:04.0000000+00:00</time></trkpt><trkpt lat="63.70170212" lon="-19.6449604"><ele>152.9</ele><time>2012-07-26T16:58:09.0000000+00:00</time></trkpt><trkpt lat="63.70170212" lon="-19.64494896"><ele>152.5</ele><time>2012-07-26T16:58:14.0000000+00:00</time></trkpt><trkpt lat="63.7016983" lon="-19.64492226"><ele>151.8</ele><time>2012-07-26T16:58:19.0000000+00:00</time></trkpt><trkpt lat="63.70170593" lon="-19.64492989"><ele>151.4</ele><time>2012-07-26T16:58:24.0000000+00:00</time></trkpt><trkpt lat="63.70170593" lon="-19.64492416"><ele>151.0</ele><time>2012-07-26T16:58:29.0000000+00:00</time></trkpt><trkpt lat="63.70170975" lon="-19.64492607"><ele>150.6</ele><time>2012-07-26T16:58:34.0000000+00:00</time></trkpt><trkpt lat="63.70171738" lon="-19.64494133"><ele>150.2</ele><time>2012-07-26T16:58:39.0000000+00:00</time></trkpt><trkpt lat="63.70175171" lon="-19.64498138"><ele>149.8</ele><time>2012-07-26T16:58:44.0000000+00:00</time></trkpt><trkpt lat="63.70183945" lon="-19.64500046"><ele>149.2</ele><time>2012-07-26T16:58:49.0000000+00:00</time></trkpt><trkpt lat="63.70188141" lon="-19.64505577"><ele>148.8</ele><time>2012-07-26T16:58:54.0000000+00:00</time></trkpt><trkpt lat="63.70190048" lon="-19.64512634"><ele>148.4</ele><time>2012-07-26T16:58:59.0000000+00:00</time></trkpt><trkpt lat="63.70191574" lon="-19.64504623"><ele>148.0</ele><time>2012-07-26T16:59:04.0000000+00:00</time></trkpt><trkpt lat="63.70188904" lon="-19.64505959"><ele>147.4</ele><time>2012-07-26T16:59:09.0000000+00:00</time></trkpt><trkpt lat="63.7019043" lon="-19.64507866"><ele>147.0</ele><time>2012-07-26T16:59:14.0000000+00:00</time></trkpt><trkpt lat="63.70191193" lon="-19.6450901"><ele>146.6</ele><time>2012-07-26T16:59:19.0000000+00:00</time></trkpt><trkpt lat="63.70191574" lon="-19.64510918"><ele>146.2</ele><time>2012-07-26T16:59:24.0000000+00:00</time></trkpt><trkpt lat="63.70191193" lon="-19.64512634"><ele>145.7</ele><time>2012-07-26T16:59:29.0000000+00:00</time></trkpt><trkpt lat="63.70190811" lon="-19.64514923"><ele>145.3</ele><time>2012-07-26T16:59:34.0000000+00:00</time></trkpt><trkpt lat="63.70188141" lon="-19.6451149"><ele>144.9</ele><time>2012-07-26T16:59:39.0000000+00:00</time></trkpt><trkpt lat="63.70188141" lon="-19.64513397"><ele>144.5</ele><time>2012-07-26T16:59:44.0000000+00:00</time></trkpt><trkpt lat="63.70188141" lon="-19.64514542"><ele>144.0</ele><time>2012-07-26T16:59:49.0000000+00:00</time></trkpt><trkpt lat="63.70188522" lon="-19.64515686"><ele>143.6</ele><time>2012-07-26T16:59:54.0000000+00:00</time></trkpt><trkpt lat="63.70188904" lon="-19.64516258"><ele>143.2</ele><time>2012-07-26T16:59:59.0000000+00:00</time></trkpt><trkpt lat="63.70189285" lon="-19.64516258"><ele>142.8</ele><time>2012-07-26T17:00:04.0000000+00:00</time></trkpt><trkpt lat="63.70189667" lon="-19.64517403"><ele>142.3</ele><time>2012-07-26T17:00:09.0000000+00:00</time></trkpt><trkpt lat="63.70190048" lon="-19.64518166"><ele>141.9</ele><time>2012-07-26T17:00:14.0000000+00:00</time></trkpt><trkpt lat="63.70190048" lon="-19.64518738"><ele>141.6</ele><time>2012-07-26T17:00:19.0000000+00:00</time></trkpt><trkpt lat="63.7019043" lon="-19.64518547"><ele>141.2</ele><time>2012-07-26T17:00:24.0000000+00:00</time></trkpt><trkpt lat="63.70191193" lon="-19.64517212"><ele>140.9</ele><time>2012-07-26T17:00:29.0000000+00:00</time></trkpt><trkpt lat="63.70191193" lon="-19.64511681"><ele>140.5</ele><time>2012-07-26T17:00:34.0000000+00:00</time></trkpt><trkpt lat="63.70194626" lon="-19.64502525"><ele>140.4</ele><time>2012-07-26T17:00:39.0000000+00:00</time></trkpt><trkpt lat="63.70191574" lon="-19.64498901"><ele>140.7</ele><time>2012-07-26T17:00:44.0000000+00:00</time></trkpt><trkpt lat="63.70191574" lon="-19.64498901"><ele>140.6</ele><time>2012-07-26T17:00:49.0000000+00:00</time></trkpt><trkpt lat="63.70191574" lon="-19.64498901"><ele>140.6</ele><time>2012-07-26T17:00:54.0000000+00:00</time></trkpt><trkpt lat="63.70191574" lon="-19.64498901"><ele>140.5</ele><time>2012-07-26T17:00:59.0000000+00:00</time></trkpt><trkpt lat="63.70191574" lon="-19.64498711"><ele>140.5</ele><time>2012-07-26T17:01:04.0000000+00:00</time></trkpt><trkpt lat="63.70191574" lon="-19.64498901"><ele>140.4</ele><time>2012-07-26T17:01:09.0000000+00:00</time></trkpt><trkpt lat="63.70190048" lon="-19.64497376"><ele>141.6</ele><time>2012-07-26T17:01:14.0000000+00:00</time></trkpt><trkpt lat="63.70185471" lon="-19.64500809"><ele>143.2</ele><time>2012-07-26T17:01:19.0000000+00:00</time></trkpt><trkpt lat="63.70183945" lon="-19.64507294"><ele>144.0</ele><time>2012-07-26T17:01:24.0000000+00:00</time></trkpt><trkpt lat="63.701828" lon="-19.6450901"><ele>143.5</ele><time>2012-07-26T17:01:29.0000000+00:00</time></trkpt><trkpt lat="63.70182419" lon="-19.6451149"><ele>142.9</ele><time>2012-07-26T17:01:34.0000000+00:00</time></trkpt><trkpt lat="63.70181656" lon="-19.64513779"><ele>142.3</ele><time>2012-07-26T17:01:39.0000000+00:00</time></trkpt><trkpt lat="63.70179749" lon="-19.64519119"><ele>141.7</ele><time>2012-07-26T17:01:44.0000000+00:00</time></trkpt><trkpt lat="63.70178223" lon="-19.64518356"><ele>141.1</ele><time>2012-07-26T17:01:49.0000000+00:00</time></trkpt><trkpt lat="63.70180893" lon="-19.64518547"><ele>141.0</ele><time>2012-07-26T17:01:54.0000000+00:00</time></trkpt><trkpt lat="63.70180893" lon="-19.64518356"><ele>140.3</ele><time>2012-07-26T17:01:59.0000000+00:00</time></trkpt><trkpt lat="63.70180512" lon="-19.64517403"><ele>139.8</ele><time>2012-07-26T17:02:04.0000000+00:00</time></trkpt><trkpt lat="63.70180512" lon="-19.64515877"><ele>139.2</ele><time>2012-07-26T17:02:09.0000000+00:00</time></trkpt><trkpt lat="63.70180512" lon="-19.64514732"><ele>138.6</ele><time>2012-07-26T17:02:14.0000000+00:00</time></trkpt><trkpt lat="63.70180512" lon="-19.64513207"><ele>138.1</ele><time>2012-07-26T17:02:19.0000000+00:00</time></trkpt><trkpt lat="63.70179749" lon="-19.64511871"><ele>137.5</ele><time>2012-07-26T17:02:24.0000000+00:00</time></trkpt><trkpt lat="63.70178986" lon="-19.6451149"><ele>137.0</ele><time>2012-07-26T17:02:29.0000000+00:00</time></trkpt><trkpt lat="63.70178223" lon="-19.64513397"><ele>136.4</ele><time>2012-07-26T17:02:34.0000000+00:00</time></trkpt><trkpt lat="63.70178223" lon="-19.64514351"><ele>135.9</ele><time>2012-07-26T17:02:39.0000000+00:00</time></trkpt><trkpt lat="63.70178223" lon="-19.64515495"><ele>135.3</ele><time>2012-07-26T17:02:44.0000000+00:00</time></trkpt><trkpt lat="63.70178223" lon="-19.64517021"><ele>134.8</ele><time>2012-07-26T17:02:49.0000000+00:00</time></trkpt><trkpt lat="63.70179749" lon="-19.64520836"><ele>134.3</ele><time>2012-07-26T17:02:54.0000000+00:00</time></trkpt><trkpt lat="63.70181656" lon="-19.64525032"><ele>133.8</ele><time>2012-07-26T17:02:59.0000000+00:00</time></trkpt><trkpt lat="63.70183182" lon="-19.64533043"><ele>133.4</ele><time>2012-07-26T17:03:04.0000000+00:00</time></trkpt><trkpt lat="63.70179367" lon="-19.6452961"><ele>133.0</ele><time>2012-07-26T17:03:09.0000000+00:00</time></trkpt><trkpt lat="63.70178986" lon="-19.64530563"><ele>132.5</ele><time>2012-07-26T17:03:14.0000000+00:00</time></trkpt><trkpt lat="63.7018013" lon="-19.64530754"><ele>131.9</ele><time>2012-07-26T17:03:19.0000000+00:00</time></trkpt><trkpt lat="63.70179749" lon="-19.645298"><ele>131.4</ele><time>2012-07-26T17:03:24.0000000+00:00</time></trkpt><trkpt lat="63.70179749" lon="-19.64529038"><ele>130.9</ele><time>2012-07-26T17:03:29.0000000+00:00</time></trkpt><trkpt lat="63.7018013" lon="-19.64529228"><ele>130.4</ele><time>2012-07-26T17:03:34.0000000+00:00</time></trkpt><trkpt lat="63.70180893" lon="-19.6452961"><ele>129.9</ele><time>2012-07-26T17:03:39.0000000+00:00</time></trkpt><trkpt lat="63.70181656" lon="-19.645298"><ele>129.4</ele><time>2012-07-26T17:03:44.0000000+00:00</time></trkpt><trkpt lat="63.701828" lon="-19.64530182"><ele>128.9</ele><time>2012-07-26T17:03:49.0000000+00:00</time></trkpt><trkpt lat="63.70182419" lon="-19.64532089"><ele>128.6</ele><time>2012-07-26T17:03:54.0000000+00:00</time></trkpt><trkpt lat="63.70182419" lon="-19.64532471"><ele>128.2</ele><time>2012-07-26T17:03:59.0000000+00:00</time></trkpt><trkpt lat="63.70183182" lon="-19.64531517"><ele>127.9</ele><time>2012-07-26T17:04:04.0000000+00:00</time></trkpt><trkpt lat="63.70183563" lon="-19.64531136"><ele>127.6</ele><time>2012-07-26T17:04:09.0000000+00:00</time></trkpt><trkpt lat="63.70182037" lon="-19.64524078"><ele>129.2</ele><time>2012-07-26T17:04:14.0000000+00:00</time></trkpt><trkpt lat="63.70180512" lon="-19.64516068"><ele>132.3</ele><time>2012-07-26T17:04:19.0000000+00:00</time></trkpt><trkpt lat="63.7018013" lon="-19.64513207"><ele>133.1</ele><time>2012-07-26T17:04:24.0000000+00:00</time></trkpt><trkpt lat="63.70179749" lon="-19.64513207"><ele>133.2</ele><time>2012-07-26T17:04:29.0000000+00:00</time></trkpt><trkpt lat="63.7018013" lon="-19.64513207"><ele>133.6</ele><time>2012-07-26T17:04:34.0000000+00:00</time></trkpt><trkpt lat="63.7018013" lon="-19.64513397"><ele>133.8</ele><time>2012-07-26T17:04:39.0000000+00:00</time></trkpt><trkpt lat="63.70180512" lon="-19.64513207"><ele>133.9</ele><time>2012-07-26T17:04:44.0000000+00:00</time></trkpt><trkpt lat="63.70180512" lon="-19.64513207"><ele>134.0</ele><time>2012-07-26T17:04:49.0000000+00:00</time></trkpt><trkpt lat="63.70180512" lon="-19.64513207"><ele>134.0</ele><time>2012-07-26T17:04:54.0000000+00:00</time></trkpt><trkpt lat="63.70180512" lon="-19.64513207"><ele>134.1</ele><time>2012-07-26T17:04:59.0000000+00:00</time></trkpt><trkpt lat="63.7018013" lon="-19.64513207"><ele>134.1</ele><time>2012-07-26T17:05:04.0000000+00:00</time></trkpt><trkpt lat="63.7018013" lon="-19.64513207"><ele>134.2</ele><time>2012-07-26T17:05:09.0000000+00:00</time></trkpt><trkpt lat="63.7018013" lon="-19.64513016"><ele>134.2</ele><time>2012-07-26T17:05:14.0000000+00:00</time></trkpt><trkpt lat="63.70180512" lon="-19.64511299"><ele>133.9</ele><time>2012-07-26T17:05:19.0000000+00:00</time></trkpt><trkpt lat="63.70181656" lon="-19.64507866"><ele>133.9</ele><time>2012-07-26T17:05:24.0000000+00:00</time></trkpt><trkpt lat="63.70181656" lon="-19.64507866"><ele>134.0</ele><time>2012-07-26T17:05:29.0000000+00:00</time></trkpt><trkpt lat="63.70182037" lon="-19.64507866"><ele>134.0</ele><time>2012-07-26T17:05:34.0000000+00:00</time></trkpt><trkpt lat="63.70181274" lon="-19.64507866"><ele>134.1</ele><time>2012-07-26T17:05:39.0000000+00:00</time></trkpt><trkpt lat="63.70181656" lon="-19.64507675"><ele>134.4</ele><time>2012-07-26T17:05:44.0000000+00:00</time></trkpt><trkpt lat="63.70178986" lon="-19.64505768"><ele>134.9</ele><time>2012-07-26T17:05:49.0000000+00:00</time></trkpt><trkpt lat="63.70177841" lon="-19.64504051"><ele>135.2</ele><time>2012-07-26T17:05:54.0000000+00:00</time></trkpt><trkpt lat="63.70174408" lon="-19.64505768"><ele>137.1</ele><time>2012-07-26T17:05:59.0000000+00:00</time></trkpt><trkpt lat="63.70170593" lon="-19.64504623"><ele>138.9</ele><time>2012-07-26T17:06:04.0000000+00:00</time></trkpt><trkpt lat="63.70167542" lon="-19.6450367"><ele>140.1</ele><time>2012-07-26T17:06:09.0000000+00:00</time></trkpt><trkpt lat="63.70166016" lon="-19.6450367"><ele>140.9</ele><time>2012-07-26T17:06:14.0000000+00:00</time></trkpt><trkpt lat="63.70164871" lon="-19.64502144"><ele>141.7</ele><time>2012-07-26T17:06:19.0000000+00:00</time></trkpt><trkpt lat="63.70165253" lon="-19.64502907"><ele>141.6</ele><time>2012-07-26T17:06:24.0000000+00:00</time></trkpt><trkpt lat="63.70165634" lon="-19.64500809"><ele>140.6</ele><time>2012-07-26T17:06:29.0000000+00:00</time></trkpt><trkpt lat="63.70162964" lon="-19.64499092"><ele>141.9</ele><time>2012-07-26T17:06:34.0000000+00:00</time></trkpt><trkpt lat="63.70161057" lon="-19.64503098"><ele>142.6</ele><time>2012-07-26T17:06:39.0000000+00:00</time></trkpt><trkpt lat="63.70161438" lon="-19.64505196"><ele>143.1</ele><time>2012-07-26T17:06:44.0000000+00:00</time></trkpt><trkpt lat="63.70162201" lon="-19.64505768"><ele>142.9</ele><time>2012-07-26T17:06:49.0000000+00:00</time></trkpt><trkpt lat="63.70162201" lon="-19.64505959"><ele>142.8</ele><time>2012-07-26T17:06:54.0000000+00:00</time></trkpt><trkpt lat="63.70162201" lon="-19.64505959"><ele>142.8</ele><time>2012-07-26T17:06:59.0000000+00:00</time></trkpt><trkpt lat="63.70162201" lon="-19.64505959"><ele>142.8</ele><time>2012-07-26T17:07:04.0000000+00:00</time></trkpt><trkpt lat="63.70162201" lon="-19.64506149"><ele>142.8</ele><time>2012-07-26T17:07:09.0000000+00:00</time></trkpt><trkpt lat="63.70162201" lon="-19.64506149"><ele>142.8</ele><time>2012-07-26T17:07:14.0000000+00:00</time></trkpt><trkpt lat="63.70162201" lon="-19.64506149"><ele>142.8</ele><time>2012-07-26T17:07:19.0000000+00:00</time></trkpt><trkpt lat="63.70162201" lon="-19.64505959"><ele>142.8</ele><time>2012-07-26T17:07:24.0000000+00:00</time></trkpt><trkpt lat="63.70162201" lon="-19.64505959"><ele>142.8</ele><time>2012-07-26T17:07:29.0000000+00:00</time></trkpt><trkpt lat="63.70160675" lon="-19.64512253"><ele>143.3</ele><time>2012-07-26T17:07:34.0000000+00:00</time></trkpt><trkpt lat="63.70157623" lon="-19.64525795"><ele>143.4</ele><time>2012-07-26T17:07:39.0000000+00:00</time></trkpt><trkpt lat="63.70153427" lon="-19.64537621"><ele>143.7</ele><time>2012-07-26T17:07:44.0000000+00:00</time></trkpt><trkpt lat="63.70149231" lon="-19.64554596"><ele>144.4</ele><time>2012-07-26T17:07:49.0000000+00:00</time></trkpt><trkpt lat="63.70149612" lon="-19.64557648"><ele>144.9</ele><time>2012-07-26T17:07:54.0000000+00:00</time></trkpt><trkpt lat="63.7014885" lon="-19.64557457"><ele>144.9</ele><time>2012-07-26T17:07:59.0000000+00:00</time></trkpt><trkpt lat="63.7014885" lon="-19.64557648"><ele>144.9</ele><time>2012-07-26T17:08:04.0000000+00:00</time></trkpt><trkpt lat="63.70148087" lon="-19.64563179"><ele>145.2</ele><time>2012-07-26T17:08:09.0000000+00:00</time></trkpt><trkpt lat="63.70148087" lon="-19.64596558"><ele>144.4</ele><time>2012-07-26T17:08:14.0000000+00:00</time></trkpt><trkpt lat="63.70150375" lon="-19.64645577"><ele>143.1</ele><time>2012-07-26T17:08:19.0000000+00:00</time></trkpt><trkpt lat="63.70150375" lon="-19.64686966"><ele>143.3</ele><time>2012-07-26T17:08:24.0000000+00:00</time></trkpt><trkpt lat="63.70148468" lon="-19.64723778"><ele>143.6</ele><time>2012-07-26T17:08:29.0000000+00:00</time></trkpt><trkpt lat="63.70147324" lon="-19.64751434"><ele>144.6</ele><time>2012-07-26T17:08:34.0000000+00:00</time></trkpt><trkpt lat="63.70146179" lon="-19.64768219"><ele>146.2</ele><time>2012-07-26T17:08:39.0000000+00:00</time></trkpt><trkpt lat="63.70146561" lon="-19.64768219"><ele>146.1</ele><time>2012-07-26T17:08:44.0000000+00:00</time></trkpt><trkpt lat="63.70145416" lon="-19.64777756"><ele>146.2</ele><time>2012-07-26T17:08:49.0000000+00:00</time></trkpt><trkpt lat="63.70142746" lon="-19.64797211"><ele>146.7</ele><time>2012-07-26T17:08:54.0000000+00:00</time></trkpt><trkpt lat="63.70140457" lon="-19.64823341"><ele>147.5</ele><time>2012-07-26T17:08:59.0000000+00:00</time></trkpt><trkpt lat="63.70137405" lon="-19.64855766"><ele>149.2</ele><time>2012-07-26T17:09:04.0000000+00:00</time></trkpt><trkpt lat="63.70134354" lon="-19.64887428"><ele>150.1</ele><time>2012-07-26T17:09:09.0000000+00:00</time></trkpt><trkpt lat="63.70132446" lon="-19.64911461"><ele>150.5</ele><time>2012-07-26T17:09:14.0000000+00:00</time></trkpt><trkpt lat="63.70132446" lon="-19.64920616"><ele>150.9</ele><time>2012-07-26T17:09:19.0000000+00:00</time></trkpt><trkpt lat="63.70132065" lon="-19.64923477"><ele>151.0</ele><time>2012-07-26T17:09:24.0000000+00:00</time></trkpt><trkpt lat="63.70130539" lon="-19.64941216"><ele>151.6</ele><time>2012-07-26T17:09:29.0000000+00:00</time></trkpt><trkpt lat="63.7012825" lon="-19.64961052"><ele>152.1</ele><time>2012-07-26T17:09:34.0000000+00:00</time></trkpt><trkpt lat="63.70127869" lon="-19.64985275"><ele>153.7</ele><time>2012-07-26T17:09:39.0000000+00:00</time></trkpt><trkpt lat="63.70125198" lon="-19.65005684"><ele>154.3</ele><time>2012-07-26T17:09:44.0000000+00:00</time></trkpt><trkpt lat="63.70123673" lon="-19.65025902"><ele>155.4</ele><time>2012-07-26T17:09:49.0000000+00:00</time></trkpt><trkpt lat="63.70121002" lon="-19.65047455"><ele>155.9</ele><time>2012-07-26T17:09:54.0000000+00:00</time></trkpt><trkpt lat="63.70119095" lon="-19.65074921"><ele>156.3</ele><time>2012-07-26T17:09:59.0000000+00:00</time></trkpt><trkpt lat="63.70117188" lon="-19.65101051"><ele>156.4</ele><time>2012-07-26T17:10:04.0000000+00:00</time></trkpt><trkpt lat="63.7011528" lon="-19.6512661"><ele>156.8</ele><time>2012-07-26T17:10:09.0000000+00:00</time></trkpt><trkpt lat="63.70114136" lon="-19.65151024"><ele>156.6</ele><time>2012-07-26T17:10:14.0000000+00:00</time></trkpt><trkpt lat="63.70113754" lon="-19.65171814"><ele>156.6</ele><time>2012-07-26T17:10:19.0000000+00:00</time></trkpt><trkpt lat="63.70111847" lon="-19.65194893"><ele>156.7</ele><time>2012-07-26T17:10:24.0000000+00:00</time></trkpt><trkpt lat="63.70104599" lon="-19.65222359"><ele>156.5</ele><time>2012-07-26T17:10:29.0000000+00:00</time></trkpt><trkpt lat="63.70105362" lon="-19.6524086"><ele>157.2</ele><time>2012-07-26T17:10:34.0000000+00:00</time></trkpt><trkpt lat="63.70107651" lon="-19.65251923"><ele>157.1</ele><time>2012-07-26T17:10:39.0000000+00:00</time></trkpt><trkpt lat="63.70108795" lon="-19.65272903"><ele>156.3</ele><time>2012-07-26T17:10:44.0000000+00:00</time></trkpt><trkpt lat="63.70111466" lon="-19.6529789"><ele>156.0</ele><time>2012-07-26T17:10:49.0000000+00:00</time></trkpt><trkpt lat="63.70113754" lon="-19.65320206"><ele>155.5</ele><time>2012-07-26T17:10:54.0000000+00:00</time></trkpt><trkpt lat="63.70117188" lon="-19.65346718"><ele>155.7</ele><time>2012-07-26T17:10:59.0000000+00:00</time></trkpt><trkpt lat="63.70121765" lon="-19.65374374"><ele>155.4</ele><time>2012-07-26T17:11:04.0000000+00:00</time></trkpt><trkpt lat="63.70125961" lon="-19.65398026"><ele>155.3</ele><time>2012-07-26T17:11:09.0000000+00:00</time></trkpt><trkpt lat="63.70129013" lon="-19.65419769"><ele>155.4</ele><time>2012-07-26T17:11:14.0000000+00:00</time></trkpt><trkpt lat="63.70132828" lon="-19.65444946"><ele>154.6</ele><time>2012-07-26T17:11:19.0000000+00:00</time></trkpt><trkpt lat="63.70137024" lon="-19.65468407"><ele>152.8</ele><time>2012-07-26T17:11:24.0000000+00:00</time></trkpt><trkpt lat="63.70140457" lon="-19.65490723"><ele>151.9</ele><time>2012-07-26T17:11:29.0000000+00:00</time></trkpt><trkpt lat="63.70144272" lon="-19.65515518"><ele>151.8</ele><time>2012-07-26T17:11:34.0000000+00:00</time></trkpt><trkpt lat="63.70147324" lon="-19.65543366"><ele>151.7</ele><time>2012-07-26T17:11:39.0000000+00:00</time></trkpt><trkpt lat="63.70150375" lon="-19.65572739"><ele>152.7</ele><time>2012-07-26T17:11:44.0000000+00:00</time></trkpt><trkpt lat="63.70152283" lon="-19.6559906"><ele>153.0</ele><time>2012-07-26T17:11:49.0000000+00:00</time></trkpt><trkpt lat="63.7015419" lon="-19.65624619"><ele>153.1</ele><time>2012-07-26T17:11:54.0000000+00:00</time></trkpt><trkpt lat="63.7015419" lon="-19.65651321"><ele>153.9</ele><time>2012-07-26T17:11:59.0000000+00:00</time></trkpt><trkpt lat="63.70155716" lon="-19.65674019"><ele>153.0</ele><time>2012-07-26T17:12:04.0000000+00:00</time></trkpt><trkpt lat="63.70156097" lon="-19.65696144"><ele>153.0</ele><time>2012-07-26T17:12:09.0000000+00:00</time></trkpt><trkpt lat="63.70157623" lon="-19.65719414"><ele>153.0</ele><time>2012-07-26T17:12:14.0000000+00:00</time></trkpt><trkpt lat="63.70159149" lon="-19.6574173"><ele>153.1</ele><time>2012-07-26T17:12:19.0000000+00:00</time></trkpt><trkpt lat="63.7016182" lon="-19.6576786"><ele>153.4</ele><time>2012-07-26T17:12:24.0000000+00:00</time></trkpt><trkpt lat="63.7016449" lon="-19.6579113"><ele>153.2</ele><time>2012-07-26T17:12:29.0000000+00:00</time></trkpt><trkpt lat="63.7016716" lon="-19.65814209"><ele>153.0</ele><time>2012-07-26T17:12:34.0000000+00:00</time></trkpt><trkpt lat="63.70170212" lon="-19.65838242"><ele>152.8</ele><time>2012-07-26T17:12:39.0000000+00:00</time></trkpt><trkpt lat="63.70173264" lon="-19.65862465"><ele>152.2</ele><time>2012-07-26T17:12:44.0000000+00:00</time></trkpt><trkpt lat="63.70176315" lon="-19.65889549"><ele>152.0</ele><time>2012-07-26T17:12:49.0000000+00:00</time></trkpt><trkpt lat="63.70178604" lon="-19.65913582"><ele>151.1</ele><time>2012-07-26T17:12:54.0000000+00:00</time></trkpt><trkpt lat="63.7018013" lon="-19.65935326"><ele>150.9</ele><time>2012-07-26T17:12:59.0000000+00:00</time></trkpt><trkpt lat="63.70181274" lon="-19.65960693"><ele>149.4</ele><time>2012-07-26T17:13:04.0000000+00:00</time></trkpt><trkpt lat="63.70182037" lon="-19.6599102"><ele>149.6</ele><time>2012-07-26T17:13:09.0000000+00:00</time></trkpt><trkpt lat="63.70182037" lon="-19.66019821"><ele>149.3</ele><time>2012-07-26T17:13:14.0000000+00:00</time></trkpt><trkpt lat="63.70180893" lon="-19.6605053"><ele>149.0</ele><time>2012-07-26T17:13:19.0000000+00:00</time></trkpt><trkpt lat="63.70182419" lon="-19.66080666"><ele>149.0</ele><time>2012-07-26T17:13:24.0000000+00:00</time></trkpt><trkpt lat="63.70185089" lon="-19.66111183"><ele>150.5</ele><time>2012-07-26T17:13:29.0000000+00:00</time></trkpt><trkpt lat="63.70189285" lon="-19.66139793"><ele>151.2</ele><time>2012-07-26T17:13:34.0000000+00:00</time></trkpt><trkpt lat="63.70194626" lon="-19.66161919"><ele>151.1</ele><time>2012-07-26T17:13:39.0000000+00:00</time></trkpt><trkpt lat="63.70199204" lon="-19.6618557"><ele>151.1</ele><time>2012-07-26T17:13:44.0000000+00:00</time></trkpt><trkpt lat="63.70204163" lon="-19.66205406"><ele>150.7</ele><time>2012-07-26T17:13:49.0000000+00:00</time></trkpt><trkpt lat="63.7020874" lon="-19.6622982"><ele>150.1</ele><time>2012-07-26T17:13:54.0000000+00:00</time></trkpt><trkpt lat="63.70213318" lon="-19.66256905"><ele>149.6</ele><time>2012-07-26T17:13:59.0000000+00:00</time></trkpt><trkpt lat="63.70215988" lon="-19.66279602"><ele>149.8</ele><time>2012-07-26T17:14:04.0000000+00:00</time></trkpt><trkpt lat="63.70218658" lon="-19.66300583"><ele>149.2</ele><time>2012-07-26T17:14:09.0000000+00:00</time></trkpt><trkpt lat="63.70220184" lon="-19.66332245"><ele>148.6</ele><time>2012-07-26T17:14:14.0000000+00:00</time></trkpt><trkpt lat="63.70220566" lon="-19.66358948"><ele>148.1</ele><time>2012-07-26T17:14:19.0000000+00:00</time></trkpt><trkpt lat="63.7021904" lon="-19.66386414"><ele>148.1</ele><time>2012-07-26T17:14:24.0000000+00:00</time></trkpt><trkpt lat="63.70213699" lon="-19.66414833"><ele>147.2</ele><time>2012-07-26T17:14:29.0000000+00:00</time></trkpt><trkpt lat="63.70212555" lon="-19.66448021"><ele>147.0</ele><time>2012-07-26T17:14:34.0000000+00:00</time></trkpt><trkpt lat="63.70212936" lon="-19.66477013"><ele>146.9</ele><time>2012-07-26T17:14:39.0000000+00:00</time></trkpt><trkpt lat="63.70215225" lon="-19.66508102"><ele>147.7</ele><time>2012-07-26T17:14:44.0000000+00:00</time></trkpt><trkpt lat="63.70217896" lon="-19.66534996"><ele>148.5</ele><time>2012-07-26T17:14:49.0000000+00:00</time></trkpt><trkpt lat="63.7021904" lon="-19.66563606"><ele>148.8</ele><time>2012-07-26T17:14:54.0000000+00:00</time></trkpt><trkpt lat="63.70220566" lon="-19.66597366"><ele>148.6</ele><time>2012-07-26T17:14:59.0000000+00:00</time></trkpt><trkpt lat="63.70222473" lon="-19.66633606"><ele>147.5</ele><time>2012-07-26T17:15:04.0000000+00:00</time></trkpt><trkpt lat="63.70224762" lon="-19.66664505"><ele>146.0</ele><time>2012-07-26T17:15:09.0000000+00:00</time></trkpt><trkpt lat="63.70225143" lon="-19.66695976"><ele>146.4</ele><time>2012-07-26T17:15:14.0000000+00:00</time></trkpt><trkpt lat="63.70227432" lon="-19.66727448"><ele>146.8</ele><time>2012-07-26T17:15:19.0000000+00:00</time></trkpt><trkpt lat="63.70229721" lon="-19.6675911"><ele>147.2</ele><time>2012-07-26T17:15:24.0000000+00:00</time></trkpt><trkpt lat="63.70233917" lon="-19.66785812"><ele>145.5</ele><time>2012-07-26T17:15:29.0000000+00:00</time></trkpt><trkpt lat="63.70233917" lon="-19.66807556"><ele>145.1</ele><time>2012-07-26T17:15:34.0000000+00:00</time></trkpt><trkpt lat="63.70232391" lon="-19.66828537"><ele>145.7</ele><time>2012-07-26T17:15:39.0000000+00:00</time></trkpt><trkpt lat="63.70233917" lon="-19.66849136"><ele>140.2</ele><time>2012-07-26T17:15:44.0000000+00:00</time></trkpt><trkpt lat="63.70233917" lon="-19.66870689"><ele>138.9</ele><time>2012-07-26T17:15:49.0000000+00:00</time></trkpt><trkpt lat="63.70232773" lon="-19.66894341"><ele>138.7</ele><time>2012-07-26T17:15:54.0000000+00:00</time></trkpt><trkpt lat="63.7023201" lon="-19.66923523"><ele>137.6</ele><time>2012-07-26T17:15:59.0000000+00:00</time></trkpt><trkpt lat="63.70229721" lon="-19.66950226"><ele>136.2</ele><time>2012-07-26T17:16:04.0000000+00:00</time></trkpt><trkpt lat="63.70225906" lon="-19.66979981"><ele>135.5</ele><time>2012-07-26T17:16:09.0000000+00:00</time></trkpt><trkpt lat="63.70228958" lon="-19.67014313"><ele>135.0</ele><time>2012-07-26T17:16:14.0000000+00:00</time></trkpt><trkpt lat="63.70231628" lon="-19.67049789"><ele>135.5</ele><time>2012-07-26T17:16:19.0000000+00:00</time></trkpt><trkpt lat="63.70229721" lon="-19.67086601"><ele>134.9</ele><time>2012-07-26T17:16:24.0000000+00:00</time></trkpt><trkpt lat="63.7022934" lon="-19.67114639"><ele>134.5</ele><time>2012-07-26T17:16:29.0000000+00:00</time></trkpt><trkpt lat="63.70231247" lon="-19.67142105"><ele>133.2</ele><time>2012-07-26T17:16:34.0000000+00:00</time></trkpt><trkpt lat="63.70230866" lon="-19.67173958"><ele>132.2</ele><time>2012-07-26T17:16:39.0000000+00:00</time></trkpt><trkpt lat="63.70230866" lon="-19.6720314"><ele>135.0</ele><time>2012-07-26T17:16:44.0000000+00:00</time></trkpt><trkpt lat="63.70230484" lon="-19.67229271"><ele>136.8</ele><time>2012-07-26T17:16:49.0000000+00:00</time></trkpt><trkpt lat="63.7022934" lon="-19.67256546"><ele>139.0</ele><time>2012-07-26T17:16:54.0000000+00:00</time></trkpt><trkpt lat="63.70228195" lon="-19.67279625"><ele>141.6</ele><time>2012-07-26T17:16:59.0000000+00:00</time></trkpt><trkpt lat="63.70228577" lon="-19.67293549"><ele>144.9</ele><time>2012-07-26T17:17:04.0000000+00:00</time></trkpt><trkpt lat="63.7022934" lon="-19.67309761"><ele>145.4</ele><time>2012-07-26T17:17:09.0000000+00:00</time></trkpt><trkpt lat="63.70230484" lon="-19.67326546"><ele>147.2</ele><time>2012-07-26T17:17:14.0000000+00:00</time></trkpt><trkpt lat="63.70231247" lon="-19.67342949"><ele>148.4</ele><time>2012-07-26T17:17:19.0000000+00:00</time></trkpt><trkpt lat="63.70232391" lon="-19.67358589"><ele>147.8</ele><time>2012-07-26T17:17:24.0000000+00:00</time></trkpt><trkpt lat="63.70233154" lon="-19.67374992"><ele>147.8</ele><time>2012-07-26T17:17:29.0000000+00:00</time></trkpt><trkpt lat="63.70234299" lon="-19.67394638"><ele>147.5</ele><time>2012-07-26T17:17:34.0000000+00:00</time></trkpt><trkpt lat="63.70236206" lon="-19.67419434"><ele>147.7</ele><time>2012-07-26T17:17:39.0000000+00:00</time></trkpt><trkpt lat="63.70238876" lon="-19.67451477"><ele>145.3</ele><time>2012-07-26T17:17:44.0000000+00:00</time></trkpt><trkpt lat="63.70243454" lon="-19.67490387"><ele>144.4</ele><time>2012-07-26T17:17:49.0000000+00:00</time></trkpt><trkpt lat="63.70247269" lon="-19.67524529"><ele>142.8</ele><time>2012-07-26T17:17:54.0000000+00:00</time></trkpt><trkpt lat="63.70249176" lon="-19.67545319"><ele>141.5</ele><time>2012-07-26T17:17:59.0000000+00:00</time></trkpt><trkpt lat="63.70249558" lon="-19.67571068"><ele>139.6</ele><time>2012-07-26T17:18:04.0000000+00:00</time></trkpt><trkpt lat="63.70248795" lon="-19.67597961"><ele>141.3</ele><time>2012-07-26T17:18:09.0000000+00:00</time></trkpt><trkpt lat="63.70248032" lon="-19.67613792"><ele>143.5</ele><time>2012-07-26T17:18:14.0000000+00:00</time></trkpt><trkpt lat="63.70246124" lon="-19.67630386"><ele>144.8</ele><time>2012-07-26T17:18:19.0000000+00:00</time></trkpt><trkpt lat="63.70243835" lon="-19.67650986"><ele>145.3</ele><time>2012-07-26T17:18:24.0000000+00:00</time></trkpt><trkpt lat="63.70241165" lon="-19.67674446"><ele>145.3</ele><time>2012-07-26T17:18:29.0000000+00:00</time></trkpt><trkpt lat="63.70240021" lon="-19.67699814"><ele>146.5</ele><time>2012-07-26T17:18:34.0000000+00:00</time></trkpt><trkpt lat="63.70237351" lon="-19.67717934"><ele>147.0</ele><time>2012-07-26T17:18:39.0000000+00:00</time></trkpt><trkpt lat="63.70232773" lon="-19.67739868"><ele>147.0</ele><time>2012-07-26T17:18:44.0000000+00:00</time></trkpt><trkpt lat="63.70234299" lon="-19.67748261"><ele>147.2</ele><time>2012-07-26T17:18:49.0000000+00:00</time></trkpt><trkpt lat="63.70235062" lon="-19.67749214"><ele>147.0</ele><time>2012-07-26T17:18:54.0000000+00:00</time></trkpt><trkpt lat="63.7023468" lon="-19.67749405"><ele>147.2</ele><time>2012-07-26T17:18:59.0000000+00:00</time></trkpt><trkpt lat="63.7023468" lon="-19.67749596"><ele>147.1</ele><time>2012-07-26T17:19:04.0000000+00:00</time></trkpt><trkpt lat="63.7023468" lon="-19.67749786"><ele>147.0</ele><time>2012-07-26T17:19:09.0000000+00:00</time></trkpt><trkpt lat="63.7023468" lon="-19.67749786"><ele>146.9</ele><time>2012-07-26T17:19:14.0000000+00:00</time></trkpt><trkpt lat="63.7023468" lon="-19.67749977"><ele>146.8</ele><time>2012-07-26T17:19:19.0000000+00:00</time></trkpt><trkpt lat="63.70234299" lon="-19.6775074"><ele>146.8</ele><time>2012-07-26T17:19:24.0000000+00:00</time></trkpt><trkpt lat="63.70235443" lon="-19.67753792"><ele>147.2</ele><time>2012-07-26T17:19:29.0000000+00:00</time></trkpt><trkpt lat="63.70235062" lon="-19.67754173"><ele>147.7</ele><time>2012-07-26T17:19:34.0000000+00:00</time></trkpt><trkpt lat="63.70234299" lon="-19.67753983"><ele>147.7</ele><time>2012-07-26T17:19:39.0000000+00:00</time></trkpt><trkpt lat="63.70233154" lon="-19.67756271"><ele>147.0</ele><time>2012-07-26T17:19:44.0000000+00:00</time></trkpt><trkpt lat="63.70232773" lon="-19.67770386"><ele>146.8</ele><time>2012-07-26T17:19:49.0000000+00:00</time></trkpt><trkpt lat="63.70231247" lon="-19.67794037"><ele>146.4</ele><time>2012-07-26T17:19:54.0000000+00:00</time></trkpt><trkpt lat="63.70229721" lon="-19.67826843"><ele>146.0</ele><time>2012-07-26T17:19:59.0000000+00:00</time></trkpt><trkpt lat="63.70228577" lon="-19.67857742"><ele>145.4</ele><time>2012-07-26T17:20:04.0000000+00:00</time></trkpt><trkpt lat="63.70227814" lon="-19.67889023"><ele>144.4</ele><time>2012-07-26T17:20:09.0000000+00:00</time></trkpt><trkpt lat="63.70226288" lon="-19.67927361"><ele>143.1</ele><time>2012-07-26T17:20:14.0000000+00:00</time></trkpt><trkpt lat="63.70226288" lon="-19.67973709"><ele>141.9</ele><time>2012-07-26T17:20:19.0000000+00:00</time></trkpt><trkpt lat="63.70228577" lon="-19.68020439"><ele>142.0</ele><time>2012-07-26T17:20:24.0000000+00:00</time></trkpt><trkpt lat="63.70236206" lon="-19.68062592"><ele>143.5</ele><time>2012-07-26T17:20:29.0000000+00:00</time></trkpt><trkpt lat="63.70241928" lon="-19.68091965"><ele>144.6</ele><time>2012-07-26T17:20:34.0000000+00:00</time></trkpt><trkpt lat="63.70247269" lon="-19.6811657"><ele>144.9</ele><time>2012-07-26T17:20:39.0000000+00:00</time></trkpt><trkpt lat="63.70252609" lon="-19.68140221"><ele>145.6</ele><time>2012-07-26T17:20:44.0000000+00:00</time></trkpt><trkpt lat="63.70258331" lon="-19.6816082"><ele>145.2</ele><time>2012-07-26T17:20:49.0000000+00:00</time></trkpt><trkpt lat="63.70267105" lon="-19.68182182"><ele>144.8</ele><time>2012-07-26T17:20:54.0000000+00:00</time></trkpt><trkpt lat="63.70275879" lon="-19.68205452"><ele>144.8</ele><time>2012-07-26T17:20:59.0000000+00:00</time></trkpt><trkpt lat="63.70284653" lon="-19.68228149"><ele>144.6</ele><time>2012-07-26T17:21:04.0000000+00:00</time></trkpt><trkpt lat="63.7029419" lon="-19.68251038"><ele>143.8</ele><time>2012-07-26T17:21:09.0000000+00:00</time></trkpt><trkpt lat="63.703022" lon="-19.68272781"><ele>143.8</ele><time>2012-07-26T17:21:14.0000000+00:00</time></trkpt><trkpt lat="63.70310974" lon="-19.68298721"><ele>143.2</ele><time>2012-07-26T17:21:19.0000000+00:00</time></trkpt><trkpt lat="63.70317841" lon="-19.68321419"><ele>143.7</ele><time>2012-07-26T17:21:24.0000000+00:00</time></trkpt><trkpt lat="63.70324707" lon="-19.68345261"><ele>143.9</ele><time>2012-07-26T17:21:29.0000000+00:00</time></trkpt><trkpt lat="63.70332336" lon="-19.68366432"><ele>143.4</ele><time>2012-07-26T17:21:34.0000000+00:00</time></trkpt><trkpt lat="63.70339966" lon="-19.68390656"><ele>143.8</ele><time>2012-07-26T17:21:39.0000000+00:00</time></trkpt><trkpt lat="63.70346832" lon="-19.68415833"><ele>143.9</ele><time>2012-07-26T17:21:44.0000000+00:00</time></trkpt><trkpt lat="63.7035408" lon="-19.68441391"><ele>143.6</ele><time>2012-07-26T17:21:49.0000000+00:00</time></trkpt><trkpt lat="63.70360947" lon="-19.68467331"><ele>143.3</ele><time>2012-07-26T17:21:54.0000000+00:00</time></trkpt><trkpt lat="63.70367432" lon="-19.68494415"><ele>143.0</ele><time>2012-07-26T17:21:59.0000000+00:00</time></trkpt><trkpt lat="63.70371246" lon="-19.68512726"><ele>140.8</ele><time>2012-07-26T17:22:04.0000000+00:00</time></trkpt><trkpt lat="63.70378876" lon="-19.68546867"><ele>141.6</ele><time>2012-07-26T17:22:09.0000000+00:00</time></trkpt><trkpt lat="63.70385742" lon="-19.685812"><ele>141.5</ele><time>2012-07-26T17:22:14.0000000+00:00</time></trkpt><trkpt lat="63.70393753" lon="-19.68613434"><ele>141.6</ele><time>2012-07-26T17:22:19.0000000+00:00</time></trkpt><trkpt lat="63.70399475" lon="-19.686409"><ele>141.8</ele><time>2012-07-26T17:22:24.0000000+00:00</time></trkpt><trkpt lat="63.70404434" lon="-19.6866951"><ele>143.5</ele><time>2012-07-26T17:22:29.0000000+00:00</time></trkpt><trkpt lat="63.7040863" lon="-19.68694496"><ele>144.4</ele><time>2012-07-26T17:22:34.0000000+00:00</time></trkpt><trkpt lat="63.70413208" lon="-19.68721771"><ele>144.7</ele><time>2012-07-26T17:22:39.0000000+00:00</time></trkpt><trkpt lat="63.70416641" lon="-19.68748665"><ele>144.1</ele><time>2012-07-26T17:22:44.0000000+00:00</time></trkpt><trkpt lat="63.70421982" lon="-19.68776512"><ele>143.5</ele><time>2012-07-26T17:22:49.0000000+00:00</time></trkpt><trkpt lat="63.70428085" lon="-19.68801689"><ele>141.7</ele><time>2012-07-26T17:22:54.0000000+00:00</time></trkpt><trkpt lat="63.70434952" lon="-19.68823814"><ele>141.9</ele><time>2012-07-26T17:22:59.0000000+00:00</time></trkpt><trkpt lat="63.70441818" lon="-19.68850136"><ele>141.7</ele><time>2012-07-26T17:23:04.0000000+00:00</time></trkpt><trkpt lat="63.70447922" lon="-19.68872452"><ele>142.2</ele><time>2012-07-26T17:23:09.0000000+00:00</time></trkpt><trkpt lat="63.70454407" lon="-19.68894196"><ele>142.7</ele><time>2012-07-26T17:23:14.0000000+00:00</time></trkpt><trkpt lat="63.70460892" lon="-19.68917275"><ele>143.7</ele><time>2012-07-26T17:23:19.0000000+00:00</time></trkpt><trkpt lat="63.70467758" lon="-19.68933678"><ele>142.4</ele><time>2012-07-26T17:23:24.0000000+00:00</time></trkpt><trkpt lat="63.70474243" lon="-19.68954086"><ele>142.0</ele><time>2012-07-26T17:23:29.0000000+00:00</time></trkpt><trkpt lat="63.70480728" lon="-19.6897068"><ele>142.4</ele><time>2012-07-26T17:23:34.0000000+00:00</time></trkpt><trkpt lat="63.70487595" lon="-19.68990517"><ele>142.1</ele><time>2012-07-26T17:23:39.0000000+00:00</time></trkpt><trkpt lat="63.70495987" lon="-19.69009972"><ele>141.4</ele><time>2012-07-26T17:23:44.0000000+00:00</time></trkpt><trkpt lat="63.70503998" lon="-19.69029045"><ele>139.7</ele><time>2012-07-26T17:23:49.0000000+00:00</time></trkpt><trkpt lat="63.7050972" lon="-19.6905365"><ele>139.8</ele><time>2012-07-26T17:23:54.0000000+00:00</time></trkpt><trkpt lat="63.70515823" lon="-19.69080353"><ele>139.0</ele><time>2012-07-26T17:23:59.0000000+00:00</time></trkpt><trkpt lat="63.70516968" lon="-19.69108582"><ele>139.0</ele><time>2012-07-26T17:24:04.0000000+00:00</time></trkpt><trkpt lat="63.70518875" lon="-19.6913662"><ele>138.5</ele><time>2012-07-26T17:24:09.0000000+00:00</time></trkpt><trkpt lat="63.70519638" lon="-19.69164276"><ele>138.9</ele><time>2012-07-26T17:24:14.0000000+00:00</time></trkpt><trkpt lat="63.70520401" lon="-19.69195938"><ele>139.5</ele><time>2012-07-26T17:24:19.0000000+00:00</time></trkpt><trkpt lat="63.70521927" lon="-19.69226456"><ele>139.4</ele><time>2012-07-26T17:24:24.0000000+00:00</time></trkpt><trkpt lat="63.70523071" lon="-19.69256401"><ele>140.4</ele><time>2012-07-26T17:24:29.0000000+00:00</time></trkpt><trkpt lat="63.70523071" lon="-19.69283295"><ele>140.4</ele><time>2012-07-26T17:24:34.0000000+00:00</time></trkpt><trkpt lat="63.70525742" lon="-19.69303322"><ele>140.2</ele><time>2012-07-26T17:24:39.0000000+00:00</time></trkpt><trkpt lat="63.70526886" lon="-19.69325829"><ele>138.7</ele><time>2012-07-26T17:24:44.0000000+00:00</time></trkpt><trkpt lat="63.70526505" lon="-19.69347954"><ele>138.2</ele><time>2012-07-26T17:24:49.0000000+00:00</time></trkpt><trkpt lat="63.70527649" lon="-19.69373322"><ele>138.3</ele><time>2012-07-26T17:24:54.0000000+00:00</time></trkpt><trkpt lat="63.70529938" lon="-19.69397545"><ele>137.8</ele><time>2012-07-26T17:24:59.0000000+00:00</time></trkpt><trkpt lat="63.70532227" lon="-19.69422722"><ele>139.1</ele><time>2012-07-26T17:25:04.0000000+00:00</time></trkpt><trkpt lat="63.70536041" lon="-19.69448853"><ele>139.9</ele><time>2012-07-26T17:25:09.0000000+00:00</time></trkpt><trkpt lat="63.70539093" lon="-19.69472122"><ele>140.7</ele><time>2012-07-26T17:25:14.0000000+00:00</time></trkpt><trkpt lat="63.70541382" lon="-19.69497109"><ele>142.3</ele><time>2012-07-26T17:25:19.0000000+00:00</time></trkpt><trkpt lat="63.70543671" lon="-19.69526482"><ele>142.6</ele><time>2012-07-26T17:25:24.0000000+00:00</time></trkpt><trkpt lat="63.70545197" lon="-19.69556809"><ele>142.1</ele><time>2012-07-26T17:25:29.0000000+00:00</time></trkpt><trkpt lat="63.70547485" lon="-19.69586754"><ele>142.4</ele><time>2012-07-26T17:25:34.0000000+00:00</time></trkpt><trkpt lat="63.70547867" lon="-19.69615364"><ele>142.5</ele><time>2012-07-26T17:25:39.0000000+00:00</time></trkpt><trkpt lat="63.7054863" lon="-19.69645119"><ele>143.0</ele><time>2012-07-26T17:25:44.0000000+00:00</time></trkpt><trkpt lat="63.7054863" lon="-19.69676971"><ele>143.7</ele><time>2012-07-26T17:25:49.0000000+00:00</time></trkpt><trkpt lat="63.70550156" lon="-19.6970253"><ele>141.8</ele><time>2012-07-26T17:25:54.0000000+00:00</time></trkpt><trkpt lat="63.70550156" lon="-19.69730759"><ele>141.3</ele><time>2012-07-26T17:25:59.0000000+00:00</time></trkpt><trkpt lat="63.70551682" lon="-19.69759178"><ele>140.5</ele><time>2012-07-26T17:26:04.0000000+00:00</time></trkpt><trkpt lat="63.705513" lon="-19.69783592"><ele>139.8</ele><time>2012-07-26T17:26:09.0000000+00:00</time></trkpt><trkpt lat="63.705513" lon="-19.69809341"><ele>139.4</ele><time>2012-07-26T17:26:14.0000000+00:00</time></trkpt><trkpt lat="63.70552826" lon="-19.69837189"><ele>139.3</ele><time>2012-07-26T17:26:19.0000000+00:00</time></trkpt><trkpt lat="63.70555496" lon="-19.6986351"><ele>138.8</ele><time>2012-07-26T17:26:24.0000000+00:00</time></trkpt><trkpt lat="63.70557785" lon="-19.69890976"><ele>138.8</ele><time>2012-07-26T17:26:29.0000000+00:00</time></trkpt><trkpt lat="63.705616" lon="-19.69916916"><ele>139.0</ele><time>2012-07-26T17:26:34.0000000+00:00</time></trkpt><trkpt lat="63.70565796" lon="-19.69944763"><ele>138.3</ele><time>2012-07-26T17:26:39.0000000+00:00</time></trkpt><trkpt lat="63.70569229" lon="-19.69972801"><ele>138.6</ele><time>2012-07-26T17:26:44.0000000+00:00</time></trkpt><trkpt lat="63.70574188" lon="-19.69994164"><ele>139.0</ele><time>2012-07-26T17:26:49.0000000+00:00</time></trkpt><trkpt lat="63.70580292" lon="-19.70018768"><ele>138.3</ele><time>2012-07-26T17:26:54.0000000+00:00</time></trkpt><trkpt lat="63.70582199" lon="-19.70045281"><ele>139.1</ele><time>2012-07-26T17:26:59.0000000+00:00</time></trkpt><trkpt lat="63.70584488" lon="-19.7007618"><ele>139.1</ele><time>2012-07-26T17:27:04.0000000+00:00</time></trkpt><trkpt lat="63.70588303" lon="-19.70095253"><ele>139.1</ele><time>2012-07-26T17:27:09.0000000+00:00</time></trkpt><trkpt lat="63.70589829" lon="-19.70116043"><ele>138.8</ele><time>2012-07-26T17:27:14.0000000+00:00</time></trkpt><trkpt lat="63.70595932" lon="-19.70140457"><ele>137.7</ele><time>2012-07-26T17:27:19.0000000+00:00</time></trkpt><trkpt lat="63.70604706" lon="-19.70169258"><ele>136.7</ele><time>2012-07-26T17:27:24.0000000+00:00</time></trkpt><trkpt lat="63.70614624" lon="-19.70195198"><ele>136.8</ele><time>2012-07-26T17:27:29.0000000+00:00</time></trkpt><trkpt lat="63.70624161" lon="-19.70218849"><ele>136.9</ele><time>2012-07-26T17:27:34.0000000+00:00</time></trkpt><trkpt lat="63.70637512" lon="-19.70242691"><ele>136.6</ele><time>2012-07-26T17:27:39.0000000+00:00</time></trkpt><trkpt lat="63.70649719" lon="-19.7026577"><ele>136.1</ele><time>2012-07-26T17:27:44.0000000+00:00</time></trkpt><trkpt lat="63.70661926" lon="-19.70288086"><ele>135.2</ele><time>2012-07-26T17:27:49.0000000+00:00</time></trkpt><trkpt lat="63.70672989" lon="-19.7031002"><ele>134.2</ele><time>2012-07-26T17:27:54.0000000+00:00</time></trkpt><trkpt lat="63.70682907" lon="-19.70337105"><ele>133.8</ele><time>2012-07-26T17:27:59.0000000+00:00</time></trkpt><trkpt lat="63.70691299" lon="-19.70362663"><ele>133.9</ele><time>2012-07-26T17:28:04.0000000+00:00</time></trkpt><trkpt lat="63.70698929" lon="-19.70391083"><ele>133.7</ele><time>2012-07-26T17:28:09.0000000+00:00</time></trkpt><trkpt lat="63.70705032" lon="-19.70422745"><ele>133.2</ele><time>2012-07-26T17:28:14.0000000+00:00</time></trkpt><trkpt lat="63.70709992" lon="-19.70461845"><ele>133.0</ele><time>2012-07-26T17:28:19.0000000+00:00</time></trkpt><trkpt lat="63.70717239" lon="-19.70491791"><ele>133.3</ele><time>2012-07-26T17:28:24.0000000+00:00</time></trkpt><trkpt lat="63.70718384" lon="-19.7051754"><ele>134.3</ele><time>2012-07-26T17:28:29.0000000+00:00</time></trkpt><trkpt lat="63.7072525" lon="-19.70541954"><ele>134.6</ele><time>2012-07-26T17:28:34.0000000+00:00</time></trkpt><trkpt lat="63.70731735" lon="-19.70571899"><ele>134.8</ele><time>2012-07-26T17:28:39.0000000+00:00</time></trkpt><trkpt lat="63.70736694" lon="-19.70601654"><ele>134.6</ele><time>2012-07-26T17:28:44.0000000+00:00</time></trkpt><trkpt lat="63.70745087" lon="-19.70630646"><ele>134.7</ele><time>2012-07-26T17:28:49.0000000+00:00</time></trkpt><trkpt lat="63.70753479" lon="-19.70657921"><ele>134.8</ele><time>2012-07-26T17:28:54.0000000+00:00</time></trkpt><trkpt lat="63.7075882" lon="-19.70685005"><ele>134.6</ele><time>2012-07-26T17:28:59.0000000+00:00</time></trkpt><trkpt lat="63.70763779" lon="-19.70714569"><ele>134.0</ele><time>2012-07-26T17:29:04.0000000+00:00</time></trkpt><trkpt lat="63.70768356" lon="-19.70745087"><ele>133.6</ele><time>2012-07-26T17:29:09.0000000+00:00</time></trkpt><trkpt lat="63.70769501" lon="-19.70772743"><ele>133.1</ele><time>2012-07-26T17:29:14.0000000+00:00</time></trkpt><trkpt lat="63.70768738" lon="-19.70790863"><ele>132.8</ele><time>2012-07-26T17:29:19.0000000+00:00</time></trkpt><trkpt lat="63.70766449" lon="-19.70815086"><ele>133.3</ele><time>2012-07-26T17:29:24.0000000+00:00</time></trkpt><trkpt lat="63.70763016" lon="-19.70846367"><ele>134.4</ele><time>2012-07-26T17:29:29.0000000+00:00</time></trkpt><trkpt lat="63.70759201" lon="-19.70874214"><ele>133.7</ele><time>2012-07-26T17:29:34.0000000+00:00</time></trkpt><trkpt lat="63.70758057" lon="-19.7090435"><ele>133.2</ele><time>2012-07-26T17:29:39.0000000+00:00</time></trkpt><trkpt lat="63.70757675" lon="-19.70935059"><ele>132.6</ele><time>2012-07-26T17:29:44.0000000+00:00</time></trkpt><trkpt lat="63.70757675" lon="-19.70957947"><ele>133.1</ele><time>2012-07-26T17:29:49.0000000+00:00</time></trkpt><trkpt lat="63.70758057" lon="-19.7098484"><ele>133.4</ele><time>2012-07-26T17:29:54.0000000+00:00</time></trkpt><trkpt lat="63.70760346" lon="-19.71012688"><ele>134.7</ele><time>2012-07-26T17:29:59.0000000+00:00</time></trkpt><trkpt lat="63.70763016" lon="-19.71040154"><ele>133.5</ele><time>2012-07-26T17:30:04.0000000+00:00</time></trkpt><trkpt lat="63.70766068" lon="-19.71068192"><ele>132.8</ele><time>2012-07-26T17:30:09.0000000+00:00</time></trkpt><trkpt lat="63.70768738" lon="-19.71094704"><ele>132.5</ele><time>2012-07-26T17:30:14.0000000+00:00</time></trkpt><trkpt lat="63.70772171" lon="-19.71121979"><ele>132.2</ele><time>2012-07-26T17:30:19.0000000+00:00</time></trkpt><trkpt lat="63.70775604" lon="-19.71152306"><ele>132.3</ele><time>2012-07-26T17:30:24.0000000+00:00</time></trkpt><trkpt lat="63.70779419" lon="-19.7118206"><ele>131.0</ele><time>2012-07-26T17:30:29.0000000+00:00</time></trkpt><trkpt lat="63.70781326" lon="-19.71199989"><ele>129.7</ele><time>2012-07-26T17:30:34.0000000+00:00</time></trkpt><trkpt lat="63.70784378" lon="-19.71220779"><ele>128.7</ele><time>2012-07-26T17:30:39.0000000+00:00</time></trkpt><trkpt lat="63.7078743" lon="-19.71235085"><ele>127.5</ele><time>2012-07-26T17:30:44.0000000+00:00</time></trkpt><trkpt lat="63.70787811" lon="-19.71236229"><ele>127.5</ele><time>2012-07-26T17:30:49.0000000+00:00</time></trkpt><trkpt lat="63.70787811" lon="-19.71236038"><ele>127.4</ele><time>2012-07-26T17:30:54.0000000+00:00</time></trkpt><trkpt lat="63.70787811" lon="-19.7123642"><ele>127.4</ele><time>2012-07-26T17:30:59.0000000+00:00</time></trkpt><trkpt lat="63.70787811" lon="-19.7123642"><ele>127.4</ele><time>2012-07-26T17:31:04.0000000+00:00</time></trkpt><trkpt lat="63.70787811" lon="-19.7123642"><ele>127.3</ele><time>2012-07-26T17:31:09.0000000+00:00</time></trkpt><trkpt lat="63.70788193" lon="-19.71236801"><ele>127.8</ele><time>2012-07-26T17:31:14.0000000+00:00</time></trkpt><trkpt lat="63.70788193" lon="-19.71236992"><ele>128.0</ele><time>2012-07-26T17:31:19.0000000+00:00</time></trkpt><trkpt lat="63.70788193" lon="-19.71236992"><ele>128.1</ele><time>2012-07-26T17:31:24.0000000+00:00</time></trkpt><trkpt lat="63.70788193" lon="-19.71236992"><ele>128.1</ele><time>2012-07-26T17:31:29.0000000+00:00</time></trkpt><trkpt lat="63.70788193" lon="-19.71236992"><ele>128.1</ele><time>2012-07-26T17:31:34.0000000+00:00</time></trkpt><trkpt lat="63.70788193" lon="-19.71236992"><ele>128.1</ele><time>2012-07-26T17:31:39.0000000+00:00</time></trkpt><trkpt lat="63.70788193" lon="-19.71236992"><ele>128.1</ele><time>2012-07-26T17:31:44.0000000+00:00</time></trkpt><trkpt lat="63.70788193" lon="-19.71236992"><ele>128.1</ele><time>2012-07-26T17:31:49.0000000+00:00</time></trkpt><trkpt lat="63.70788193" lon="-19.71236801"><ele>128.1</ele><time>2012-07-26T17:31:54.0000000+00:00</time></trkpt><trkpt lat="63.70788193" lon="-19.71236801"><ele>128.1</ele><time>2012-07-26T17:31:59.0000000+00:00</time></trkpt><trkpt lat="63.70788193" lon="-19.71236801"><ele>128.1</ele><time>2012-07-26T17:32:04.0000000+00:00</time></trkpt><trkpt lat="63.70788956" lon="-19.71237373"><ele>128.0</ele><time>2012-07-26T17:32:09.0000000+00:00</time></trkpt><trkpt lat="63.70787811" lon="-19.71236801"><ele>127.4</ele><time>2012-07-26T17:32:14.0000000+00:00</time></trkpt><trkpt lat="63.70787811" lon="-19.7123661"><ele>126.9</ele><time>2012-07-26T17:32:19.0000000+00:00</time></trkpt><trkpt lat="63.70787811" lon="-19.7123642"><ele>126.7</ele><time>2012-07-26T17:32:24.0000000+00:00</time></trkpt><trkpt lat="63.7078743" lon="-19.7123642"><ele>126.5</ele><time>2012-07-26T17:32:29.0000000+00:00</time></trkpt><trkpt lat="63.70787048" lon="-19.7123642"><ele>126.4</ele><time>2012-07-26T17:32:34.0000000+00:00</time></trkpt><trkpt lat="63.7078743" lon="-19.71236992"><ele>126.3</ele><time>2012-07-26T17:32:39.0000000+00:00</time></trkpt><trkpt lat="63.70787048" lon="-19.71236801"><ele>126.5</ele><time>2012-07-26T17:32:44.0000000+00:00</time></trkpt><trkpt lat="63.70787048" lon="-19.71236801"><ele>126.5</ele><time>2012-07-26T17:32:49.0000000+00:00</time></trkpt><trkpt lat="63.70787048" lon="-19.71236229"><ele>126.5</ele><time>2012-07-26T17:32:54.0000000+00:00</time></trkpt><trkpt lat="63.7078743" lon="-19.71234894"><ele>126.8</ele><time>2012-07-26T17:32:59.0000000+00:00</time></trkpt><trkpt lat="63.70787811" lon="-19.71234131"><ele>127.2</ele><time>2012-07-26T17:33:04.0000000+00:00</time></trkpt><trkpt lat="63.70788193" lon="-19.71234131"><ele>127.6</ele><time>2012-07-26T17:33:09.0000000+00:00</time></trkpt><trkpt lat="63.70788193" lon="-19.71234131"><ele>128.0</ele><time>2012-07-26T17:33:14.0000000+00:00</time></trkpt><trkpt lat="63.70787811" lon="-19.71235275"><ele>128.4</ele><time>2012-07-26T17:33:19.0000000+00:00</time></trkpt><trkpt lat="63.7078743" lon="-19.71236229"><ele>128.8</ele><time>2012-07-26T17:33:24.0000000+00:00</time></trkpt><trkpt lat="63.7078743" lon="-19.71235657"><ele>129.0</ele><time>2012-07-26T17:33:29.0000000+00:00</time></trkpt><trkpt lat="63.70787811" lon="-19.71234322"><ele>130.0</ele><time>2012-07-26T17:33:34.0000000+00:00</time></trkpt><trkpt lat="63.70789337" lon="-19.71237946"><ele>129.3</ele><time>2012-07-26T17:33:39.0000000+00:00</time></trkpt><trkpt lat="63.70789719" lon="-19.71238709"><ele>129.3</ele><time>2012-07-26T17:33:44.0000000+00:00</time></trkpt><trkpt lat="63.70789719" lon="-19.71238518"><ele>129.3</ele><time>2012-07-26T17:33:49.0000000+00:00</time></trkpt><trkpt lat="63.707901" lon="-19.71239662"><ele>129.3</ele><time>2012-07-26T17:33:54.0000000+00:00</time></trkpt><trkpt lat="63.70790482" lon="-19.71245956"><ele>128.9</ele><time>2012-07-26T17:33:59.0000000+00:00</time></trkpt><trkpt lat="63.70790482" lon="-19.71245766"><ele>129.1</ele><time>2012-07-26T17:34:04.0000000+00:00</time></trkpt><trkpt lat="63.70790863" lon="-19.71248436"><ele>128.9</ele><time>2012-07-26T17:34:09.0000000+00:00</time></trkpt><trkpt lat="63.70790863" lon="-19.71247482"><ele>129.1</ele><time>2012-07-26T17:34:14.0000000+00:00</time></trkpt><trkpt lat="63.70790482" lon="-19.71247292"><ele>129.1</ele><time>2012-07-26T17:34:19.0000000+00:00</time></trkpt><trkpt lat="63.70790482" lon="-19.71259308"><ele>129.1</ele><time>2012-07-26T17:34:24.0000000+00:00</time></trkpt><trkpt lat="63.70793152" lon="-19.71282387"><ele>128.8</ele><time>2012-07-26T17:34:29.0000000+00:00</time></trkpt><trkpt lat="63.70797348" lon="-19.71308708"><ele>128.6</ele><time>2012-07-26T17:34:34.0000000+00:00</time></trkpt><trkpt lat="63.70802307" lon="-19.71341705"><ele>128.3</ele><time>2012-07-26T17:34:39.0000000+00:00</time></trkpt><trkpt lat="63.70807266" lon="-19.71371079"><ele>128.0</ele><time>2012-07-26T17:34:44.0000000+00:00</time></trkpt><trkpt lat="63.70812225" lon="-19.71396446"><ele>129.3</ele><time>2012-07-26T17:34:49.0000000+00:00</time></trkpt><trkpt lat="63.70817184" lon="-19.71427727"><ele>129.4</ele><time>2012-07-26T17:34:54.0000000+00:00</time></trkpt><trkpt lat="63.70822144" lon="-19.7145958"><ele>129.5</ele><time>2012-07-26T17:34:59.0000000+00:00</time></trkpt><trkpt lat="63.7082634" lon="-19.71498108"><ele>129.5</ele><time>2012-07-26T17:35:04.0000000+00:00</time></trkpt><trkpt lat="63.70830536" lon="-19.71528816"><ele>129.4</ele><time>2012-07-26T17:35:09.0000000+00:00</time></trkpt><trkpt lat="63.70831299" lon="-19.71551704"><ele>130.5</ele><time>2012-07-26T17:35:14.0000000+00:00</time></trkpt><trkpt lat="63.70831299" lon="-19.71562958"><ele>130.5</ele><time>2012-07-26T17:35:19.0000000+00:00</time></trkpt><trkpt lat="63.70831299" lon="-19.71590042"><ele>130.3</ele><time>2012-07-26T17:35:24.0000000+00:00</time></trkpt><trkpt lat="63.70831299" lon="-19.71624565"><ele>131.4</ele><time>2012-07-26T17:35:29.0000000+00:00</time></trkpt><trkpt lat="63.70832062" lon="-19.71659279"><ele>132.0</ele><time>2012-07-26T17:35:34.0000000+00:00</time></trkpt><trkpt lat="63.70832443" lon="-19.716959"><ele>132.5</ele><time>2012-07-26T17:35:39.0000000+00:00</time></trkpt><trkpt lat="63.70832443" lon="-19.71735954"><ele>133.4</ele><time>2012-07-26T17:35:44.0000000+00:00</time></trkpt><trkpt lat="63.70832443" lon="-19.71775055"><ele>133.9</ele><time>2012-07-26T17:35:49.0000000+00:00</time></trkpt><trkpt lat="63.70832825" lon="-19.71816063"><ele>133.9</ele><time>2012-07-26T17:35:54.0000000+00:00</time></trkpt><trkpt lat="63.70833206" lon="-19.71852493"><ele>134.5</ele><time>2012-07-26T17:35:59.0000000+00:00</time></trkpt><trkpt lat="63.70833588" lon="-19.71892929"><ele>134.7</ele><time>2012-07-26T17:36:04.0000000+00:00</time></trkpt><trkpt lat="63.70833206" lon="-19.71930504"><ele>135.2</ele><time>2012-07-26T17:36:09.0000000+00:00</time></trkpt><trkpt lat="63.70832062" lon="-19.71968269"><ele>135.8</ele><time>2012-07-26T17:36:14.0000000+00:00</time></trkpt><trkpt lat="63.70831299" lon="-19.72010231"><ele>135.4</ele><time>2012-07-26T17:36:19.0000000+00:00</time></trkpt><trkpt lat="63.70831299" lon="-19.72049713"><ele>135.6</ele><time>2012-07-26T17:36:24.0000000+00:00</time></trkpt><trkpt lat="63.70832062" lon="-19.7208786"><ele>135.9</ele><time>2012-07-26T17:36:29.0000000+00:00</time></trkpt><trkpt lat="63.70833206" lon="-19.72127342"><ele>136.6</ele><time>2012-07-26T17:36:34.0000000+00:00</time></trkpt><trkpt lat="63.70834732" lon="-19.72166824"><ele>137.0</ele><time>2012-07-26T17:36:39.0000000+00:00</time></trkpt><trkpt lat="63.70837021" lon="-19.72203064"><ele>136.5</ele><time>2012-07-26T17:36:44.0000000+00:00</time></trkpt><trkpt lat="63.70840836" lon="-19.72237015"><ele>136.4</ele><time>2012-07-26T17:36:49.0000000+00:00</time></trkpt><trkpt lat="63.70845413" lon="-19.72271919"><ele>136.4</ele><time>2012-07-26T17:36:54.0000000+00:00</time></trkpt><trkpt lat="63.70848465" lon="-19.72305298"><ele>136.2</ele><time>2012-07-26T17:36:59.0000000+00:00</time></trkpt><trkpt lat="63.7085228" lon="-19.72339058"><ele>135.6</ele><time>2012-07-26T17:37:04.0000000+00:00</time></trkpt><trkpt lat="63.70856094" lon="-19.72374535"><ele>135.5</ele><time>2012-07-26T17:37:09.0000000+00:00</time></trkpt><trkpt lat="63.70860291" lon="-19.72411919"><ele>135.2</ele><time>2012-07-26T17:37:14.0000000+00:00</time></trkpt><trkpt lat="63.70863724" lon="-19.72449303"><ele>134.6</ele><time>2012-07-26T17:37:19.0000000+00:00</time></trkpt><trkpt lat="63.7086792" lon="-19.72484398"><ele>134.6</ele><time>2012-07-26T17:37:24.0000000+00:00</time></trkpt><trkpt lat="63.70872498" lon="-19.72520828"><ele>134.2</ele><time>2012-07-26T17:37:29.0000000+00:00</time></trkpt><trkpt lat="63.70877075" lon="-19.72558785"><ele>133.7</ele><time>2012-07-26T17:37:34.0000000+00:00</time></trkpt><trkpt lat="63.70880127" lon="-19.725914"><ele>131.4</ele><time>2012-07-26T17:37:39.0000000+00:00</time></trkpt><trkpt lat="63.70885086" lon="-19.72622109"><ele>131.0</ele><time>2012-07-26T17:37:44.0000000+00:00</time></trkpt><trkpt lat="63.7089119" lon="-19.72654152"><ele>131.0</ele><time>2012-07-26T17:37:49.0000000+00:00</time></trkpt><trkpt lat="63.70897293" lon="-19.72685623"><ele>131.8</ele><time>2012-07-26T17:37:54.0000000+00:00</time></trkpt><trkpt lat="63.70902252" lon="-19.72717857"><ele>131.6</ele><time>2012-07-26T17:37:59.0000000+00:00</time></trkpt><trkpt lat="63.70908356" lon="-19.72753334"><ele>130.8</ele><time>2012-07-26T17:38:04.0000000+00:00</time></trkpt><trkpt lat="63.70913696" lon="-19.72785759"><ele>130.1</ele><time>2012-07-26T17:38:09.0000000+00:00</time></trkpt><trkpt lat="63.70915604" lon="-19.72805786"><ele>129.4</ele><time>2012-07-26T17:38:14.0000000+00:00</time></trkpt><trkpt lat="63.70919418" lon="-19.7283001"><ele>129.4</ele><time>2012-07-26T17:38:19.0000000+00:00</time></trkpt><trkpt lat="63.70925522" lon="-19.72863197"><ele>128.8</ele><time>2012-07-26T17:38:24.0000000+00:00</time></trkpt><trkpt lat="63.70932007" lon="-19.72896195"><ele>128.5</ele><time>2012-07-26T17:38:29.0000000+00:00</time></trkpt><trkpt lat="63.70938492" lon="-19.72929382"><ele>128.2</ele><time>2012-07-26T17:38:34.0000000+00:00</time></trkpt><trkpt lat="63.70944977" lon="-19.72964668"><ele>128.2</ele><time>2012-07-26T17:38:39.0000000+00:00</time></trkpt><trkpt lat="63.70951843" lon="-19.73001289"><ele>128.1</ele><time>2012-07-26T17:38:44.0000000+00:00</time></trkpt><trkpt lat="63.70956802" lon="-19.73032188"><ele>127.8</ele><time>2012-07-26T17:38:49.0000000+00:00</time></trkpt><trkpt lat="63.70957565" lon="-19.73050118"><ele>127.0</ele><time>2012-07-26T17:38:54.0000000+00:00</time></trkpt><trkpt lat="63.70959091" lon="-19.73073578"><ele>127.6</ele><time>2012-07-26T17:38:59.0000000+00:00</time></trkpt><trkpt lat="63.7096405" lon="-19.73102188"><ele>125.7</ele><time>2012-07-26T17:39:04.0000000+00:00</time></trkpt><trkpt lat="63.70965576" lon="-19.7312851"><ele>124.7</ele><time>2012-07-26T17:39:09.0000000+00:00</time></trkpt><trkpt lat="63.70965958" lon="-19.73147011"><ele>125.1</ele><time>2012-07-26T17:39:14.0000000+00:00</time></trkpt><trkpt lat="63.70967102" lon="-19.73176384"><ele>124.7</ele><time>2012-07-26T17:39:19.0000000+00:00</time></trkpt><trkpt lat="63.70968247" lon="-19.73208046"><ele>125.2</ele><time>2012-07-26T17:39:24.0000000+00:00</time></trkpt><trkpt lat="63.70970535" lon="-19.73239327"><ele>126.8</ele><time>2012-07-26T17:39:29.0000000+00:00</time></trkpt><trkpt lat="63.70976257" lon="-19.73271751"><ele>126.8</ele><time>2012-07-26T17:39:34.0000000+00:00</time></trkpt><trkpt lat="63.70989609" lon="-19.73275375"><ele>128.1</ele><time>2012-07-26T17:39:39.0000000+00:00</time></trkpt><trkpt lat="63.70998001" lon="-19.73260307"><ele>127.8</ele><time>2012-07-26T17:39:44.0000000+00:00</time></trkpt><trkpt lat="63.71005631" lon="-19.73252296"><ele>128.2</ele><time>2012-07-26T17:39:49.0000000+00:00</time></trkpt><trkpt lat="63.71015549" lon="-19.732481"><ele>129.1</ele><time>2012-07-26T17:39:54.0000000+00:00</time></trkpt><trkpt lat="63.71021652" lon="-19.73250771"><ele>129.5</ele><time>2012-07-26T17:39:59.0000000+00:00</time></trkpt><trkpt lat="63.71021271" lon="-19.73251152"><ele>129.1</ele><time>2012-07-26T17:40:04.0000000+00:00</time></trkpt><trkpt lat="63.71022797" lon="-19.7325058"><ele>129.0</ele><time>2012-07-26T17:40:09.0000000+00:00</time></trkpt><trkpt lat="63.7102356" lon="-19.73250961"><ele>129.2</ele><time>2012-07-26T17:40:14.0000000+00:00</time></trkpt><trkpt lat="63.71025848" lon="-19.73252106"><ele>129.2</ele><time>2012-07-26T17:40:19.0000000+00:00</time></trkpt><trkpt lat="63.71028519" lon="-19.7325325"><ele>129.0</ele><time>2012-07-26T17:40:24.0000000+00:00</time></trkpt><trkpt lat="63.71032333" lon="-19.73255348"><ele>128.8</ele><time>2012-07-26T17:40:29.0000000+00:00</time></trkpt><trkpt lat="63.71035385" lon="-19.73262405"><ele>128.6</ele><time>2012-07-26T17:40:34.0000000+00:00</time></trkpt><trkpt lat="63.71034622" lon="-19.73264694"><ele>129.0</ele><time>2012-07-26T17:40:39.0000000+00:00</time></trkpt><trkpt lat="63.71034622" lon="-19.73264694"><ele>128.9</ele><time>2012-07-26T17:40:44.0000000+00:00</time></trkpt><trkpt lat="63.71034622" lon="-19.73264694"><ele>128.9</ele><time>2012-07-26T17:40:49.0000000+00:00</time></trkpt><trkpt lat="63.71035004" lon="-19.73267174"><ele>129.0</ele><time>2012-07-26T17:40:54.0000000+00:00</time></trkpt><trkpt lat="63.71035385" lon="-19.73278809"><ele>129.7</ele><time>2012-07-26T17:40:59.0000000+00:00</time></trkpt><trkpt lat="63.71033096" lon="-19.73287964"><ele>129.9</ele><time>2012-07-26T17:41:04.0000000+00:00</time></trkpt><trkpt lat="63.71030808" lon="-19.73301506"><ele>129.3</ele><time>2012-07-26T17:41:09.0000000+00:00</time></trkpt><trkpt lat="63.71030426" lon="-19.73311997"><ele>129.8</ele><time>2012-07-26T17:41:14.0000000+00:00</time></trkpt><trkpt lat="63.71033096" lon="-19.73324966"><ele>130.8</ele><time>2012-07-26T17:41:19.0000000+00:00</time></trkpt><trkpt lat="63.7103653" lon="-19.73329544"><ele>130.5</ele><time>2012-07-26T17:41:24.0000000+00:00</time></trkpt><trkpt lat="63.71041489" lon="-19.73334694"><ele>130.9</ele><time>2012-07-26T17:41:29.0000000+00:00</time></trkpt><trkpt lat="63.71043396" lon="-19.73333359"><ele>131.2</ele><time>2012-07-26T17:41:34.0000000+00:00</time></trkpt><trkpt lat="63.71045685" lon="-19.7333107"><ele>130.9</ele><time>2012-07-26T17:41:39.0000000+00:00</time></trkpt><trkpt lat="63.71051025" lon="-19.73331642"><ele>130.1</ele><time>2012-07-26T17:41:44.0000000+00:00</time></trkpt><trkpt lat="63.71051407" lon="-19.73331451"><ele>129.4</ele><time>2012-07-26T17:41:49.0000000+00:00</time></trkpt><trkpt lat="63.71055985" lon="-19.73335266"><ele>129.7</ele><time>2012-07-26T17:41:54.0000000+00:00</time></trkpt><trkpt lat="63.71063614" lon="-19.73334503"><ele>129.6</ele><time>2012-07-26T17:41:59.0000000+00:00</time></trkpt><trkpt lat="63.71071625" lon="-19.73335648"><ele>129.1</ele><time>2012-07-26T17:42:04.0000000+00:00</time></trkpt><trkpt lat="63.71080399" lon="-19.73340225"><ele>129.3</ele><time>2012-07-26T17:42:09.0000000+00:00</time></trkpt><trkpt lat="63.71088791" lon="-19.73349762"><ele>129.9</ele><time>2012-07-26T17:42:14.0000000+00:00</time></trkpt><trkpt lat="63.71097565" lon="-19.7336483"><ele>130.2</ele><time>2012-07-26T17:42:19.0000000+00:00</time></trkpt><trkpt lat="63.71105194" lon="-19.73373222"><ele>130.2</ele><time>2012-07-26T17:42:24.0000000+00:00</time></trkpt><trkpt lat="63.71113205" lon="-19.73381615"><ele>130.4</ele><time>2012-07-26T17:42:29.0000000+00:00</time></trkpt><trkpt lat="63.7111969" lon="-19.73392487"><ele>130.1</ele><time>2012-07-26T17:42:34.0000000+00:00</time></trkpt><trkpt lat="63.71127701" lon="-19.73406029"><ele>129.9</ele><time>2012-07-26T17:42:39.0000000+00:00</time></trkpt><trkpt lat="63.7113533" lon="-19.73416519"><ele>129.8</ele><time>2012-07-26T17:42:44.0000000+00:00</time></trkpt><trkpt lat="63.71143723" lon="-19.73429489"><ele>129.5</ele><time>2012-07-26T17:42:49.0000000+00:00</time></trkpt><trkpt lat="63.71152115" lon="-19.73443413"><ele>129.2</ele><time>2012-07-26T17:42:54.0000000+00:00</time></trkpt><trkpt lat="63.71160889" lon="-19.73456955"><ele>128.8</ele><time>2012-07-26T17:42:59.0000000+00:00</time></trkpt><trkpt lat="63.71169281" lon="-19.73470879"><ele>128.0</ele><time>2012-07-26T17:43:04.0000000+00:00</time></trkpt><trkpt lat="63.71177292" lon="-19.73488236"><ele>126.9</ele><time>2012-07-26T17:43:09.0000000+00:00</time></trkpt><trkpt lat="63.71186066" lon="-19.73503304"><ele>126.3</ele><time>2012-07-26T17:43:14.0000000+00:00</time></trkpt><trkpt lat="63.71195221" lon="-19.73517609"><ele>126.0</ele><time>2012-07-26T17:43:19.0000000+00:00</time></trkpt><trkpt lat="63.71204758" lon="-19.73531914"><ele>126.0</ele><time>2012-07-26T17:43:24.0000000+00:00</time></trkpt><trkpt lat="63.71213913" lon="-19.73546219"><ele>125.4</ele><time>2012-07-26T17:43:29.0000000+00:00</time></trkpt><trkpt lat="63.71223068" lon="-19.73557282"><ele>125.3</ele><time>2012-07-26T17:43:34.0000000+00:00</time></trkpt><trkpt lat="63.71232987" lon="-19.73570824"><ele>125.5</ele><time>2012-07-26T17:43:39.0000000+00:00</time></trkpt><trkpt lat="63.71244049" lon="-19.7358532"><ele>125.5</ele><time>2012-07-26T17:43:44.0000000+00:00</time></trkpt><trkpt lat="63.71256638" lon="-19.73600388"><ele>125.8</ele><time>2012-07-26T17:43:49.0000000+00:00</time></trkpt><trkpt lat="63.71268845" lon="-19.73621178"><ele>125.4</ele><time>2012-07-26T17:43:54.0000000+00:00</time></trkpt><trkpt lat="63.7128067" lon="-19.7364006"><ele>125.3</ele><time>2012-07-26T17:43:59.0000000+00:00</time></trkpt><trkpt lat="63.71287918" lon="-19.73660278"><ele>124.8</ele><time>2012-07-26T17:44:04.0000000+00:00</time></trkpt><trkpt lat="63.71295166" lon="-19.73678398"><ele>124.0</ele><time>2012-07-26T17:44:09.0000000+00:00</time></trkpt><trkpt lat="63.71299362" lon="-19.73700714"><ele>123.6</ele><time>2012-07-26T17:44:14.0000000+00:00</time></trkpt><trkpt lat="63.71300888" lon="-19.73731613"><ele>123.6</ele><time>2012-07-26T17:44:19.0000000+00:00</time></trkpt><trkpt lat="63.71299362" lon="-19.73763466"><ele>124.6</ele><time>2012-07-26T17:44:24.0000000+00:00</time></trkpt><trkpt lat="63.71295929" lon="-19.73799133"><ele>125.3</ele><time>2012-07-26T17:44:29.0000000+00:00</time></trkpt><trkpt lat="63.71292877" lon="-19.73839188"><ele>125.0</ele><time>2012-07-26T17:44:34.0000000+00:00</time></trkpt><trkpt lat="63.71290588" lon="-19.73885727"><ele>124.5</ele><time>2012-07-26T17:44:39.0000000+00:00</time></trkpt><trkpt lat="63.71289825" lon="-19.73931313"><ele>125.1</ele><time>2012-07-26T17:44:44.0000000+00:00</time></trkpt><trkpt lat="63.71289825" lon="-19.73977089"><ele>126.3</ele><time>2012-07-26T17:44:49.0000000+00:00</time></trkpt><trkpt lat="63.71290207" lon="-19.74027252"><ele>126.8</ele><time>2012-07-26T17:44:54.0000000+00:00</time></trkpt><trkpt lat="63.71290207" lon="-19.74079132"><ele>126.5</ele><time>2012-07-26T17:44:59.0000000+00:00</time></trkpt><trkpt lat="63.71291351" lon="-19.74129295"><ele>126.6</ele><time>2012-07-26T17:45:04.0000000+00:00</time></trkpt><trkpt lat="63.71292114" lon="-19.74179649"><ele>126.3</ele><time>2012-07-26T17:45:09.0000000+00:00</time></trkpt><trkpt lat="63.71292114" lon="-19.74230003"><ele>126.1</ele><time>2012-07-26T17:45:14.0000000+00:00</time></trkpt><trkpt lat="63.71294022" lon="-19.74281883"><ele>125.7</ele><time>2012-07-26T17:45:19.0000000+00:00</time></trkpt><trkpt lat="63.71294022" lon="-19.74334908"><ele>125.5</ele><time>2012-07-26T17:45:24.0000000+00:00</time></trkpt><trkpt lat="63.71295548" lon="-19.74390793"><ele>125.1</ele><time>2012-07-26T17:45:29.0000000+00:00</time></trkpt><trkpt lat="63.7129631" lon="-19.74444389"><ele>124.7</ele><time>2012-07-26T17:45:34.0000000+00:00</time></trkpt><trkpt lat="63.71297073" lon="-19.74499512"><ele>124.8</ele><time>2012-07-26T17:45:39.0000000+00:00</time></trkpt><trkpt lat="63.71298218" lon="-19.74555969"><ele>125.7</ele><time>2012-07-26T17:45:44.0000000+00:00</time></trkpt><trkpt lat="63.71298599" lon="-19.7461338"><ele>125.7</ele><time>2012-07-26T17:45:49.0000000+00:00</time></trkpt><trkpt lat="63.71299362" lon="-19.74667931"><ele>125.8</ele><time>2012-07-26T17:45:54.0000000+00:00</time></trkpt><trkpt lat="63.71300125" lon="-19.74724197"><ele>125.1</ele><time>2012-07-26T17:45:59.0000000+00:00</time></trkpt><trkpt lat="63.7130127" lon="-19.74783325"><ele>124.2</ele><time>2012-07-26T17:46:04.0000000+00:00</time></trkpt><trkpt lat="63.71301651" lon="-19.74841309"><ele>123.8</ele><time>2012-07-26T17:46:09.0000000+00:00</time></trkpt><trkpt lat="63.71302414" lon="-19.74898148"><ele>123.3</ele><time>2012-07-26T17:46:14.0000000+00:00</time></trkpt><trkpt lat="63.71302795" lon="-19.74948692"><ele>122.8</ele><time>2012-07-26T17:46:19.0000000+00:00</time></trkpt><trkpt lat="63.71303558" lon="-19.74996185"><ele>123.0</ele><time>2012-07-26T17:46:24.0000000+00:00</time></trkpt><trkpt lat="63.71305084" lon="-19.75047493"><ele>123.7</ele><time>2012-07-26T17:46:29.0000000+00:00</time></trkpt><trkpt lat="63.71305847" lon="-19.75102997"><ele>124.0</ele><time>2012-07-26T17:46:34.0000000+00:00</time></trkpt><trkpt lat="63.71307373" lon="-19.75157166"><ele>124.5</ele><time>2012-07-26T17:46:39.0000000+00:00</time></trkpt><trkpt lat="63.71308136" lon="-19.75209618"><ele>124.2</ele><time>2012-07-26T17:46:44.0000000+00:00</time></trkpt><trkpt lat="63.71308899" lon="-19.75255966"><ele>123.8</ele><time>2012-07-26T17:46:49.0000000+00:00</time></trkpt><trkpt lat="63.71311188" lon="-19.75304222"><ele>124.0</ele><time>2012-07-26T17:46:54.0000000+00:00</time></trkpt><trkpt lat="63.71311569" lon="-19.7535553"><ele>124.8</ele><time>2012-07-26T17:46:59.0000000+00:00</time></trkpt><trkpt lat="63.71312714" lon="-19.75404167"><ele>124.5</ele><time>2012-07-26T17:47:04.0000000+00:00</time></trkpt><trkpt lat="63.71314621" lon="-19.75453758"><ele>124.1</ele><time>2012-07-26T17:47:09.0000000+00:00</time></trkpt><trkpt lat="63.71315765" lon="-19.75502396"><ele>123.4</ele><time>2012-07-26T17:47:14.0000000+00:00</time></trkpt><trkpt lat="63.7131691" lon="-19.75549507"><ele>122.6</ele><time>2012-07-26T17:47:19.0000000+00:00</time></trkpt><trkpt lat="63.71316528" lon="-19.75596046"><ele>121.9</ele><time>2012-07-26T17:47:24.0000000+00:00</time></trkpt><trkpt lat="63.71317673" lon="-19.75631142"><ele>120.8</ele><time>2012-07-26T17:47:29.0000000+00:00</time></trkpt><trkpt lat="63.71319199" lon="-19.75663376"><ele>119.4</ele><time>2012-07-26T17:47:34.0000000+00:00</time></trkpt><trkpt lat="63.7131958" lon="-19.75706291"><ele>117.2</ele><time>2012-07-26T17:47:39.0000000+00:00</time></trkpt><trkpt lat="63.71320343" lon="-19.7574501"><ele>115.8</ele><time>2012-07-26T17:47:44.0000000+00:00</time></trkpt><trkpt lat="63.71321106" lon="-19.75778198"><ele>114.5</ele><time>2012-07-26T17:47:49.0000000+00:00</time></trkpt><trkpt lat="63.71321869" lon="-19.7582016"><ele>114.5</ele><time>2012-07-26T17:47:54.0000000+00:00</time></trkpt><trkpt lat="63.71322632" lon="-19.75867081"><ele>114.5</ele><time>2012-07-26T17:47:59.0000000+00:00</time></trkpt><trkpt lat="63.71323776" lon="-19.75914192"><ele>114.1</ele><time>2012-07-26T17:48:04.0000000+00:00</time></trkpt><trkpt lat="63.71326447" lon="-19.75956345"><ele>115.2</ele><time>2012-07-26T17:48:09.0000000+00:00</time></trkpt><trkpt lat="63.71326828" lon="-19.75988197"><ele>115.6</ele><time>2012-07-26T17:48:14.0000000+00:00</time></trkpt><trkpt lat="63.71327591" lon="-19.76024437"><ele>114.8</ele><time>2012-07-26T17:48:19.0000000+00:00</time></trkpt><trkpt lat="63.71329117" lon="-19.7606163"><ele>114.2</ele><time>2012-07-26T17:48:24.0000000+00:00</time></trkpt><trkpt lat="63.7132988" lon="-19.76100731"><ele>113.1</ele><time>2012-07-26T17:48:29.0000000+00:00</time></trkpt><trkpt lat="63.71329117" lon="-19.76143265"><ele>113.4</ele><time>2012-07-26T17:48:34.0000000+00:00</time></trkpt><trkpt lat="63.71330261" lon="-19.76187706"><ele>112.1</ele><time>2012-07-26T17:48:39.0000000+00:00</time></trkpt><trkpt lat="63.71330643" lon="-19.76233292"><ele>114.4</ele><time>2012-07-26T17:48:44.0000000+00:00</time></trkpt><trkpt lat="63.71333313" lon="-19.76277351"><ele>117.7</ele><time>2012-07-26T17:48:49.0000000+00:00</time></trkpt><trkpt lat="63.71333695" lon="-19.76325607"><ele>116.5</ele><time>2012-07-26T17:48:54.0000000+00:00</time></trkpt><trkpt lat="63.71335602" lon="-19.7637558"><ele>117.6</ele><time>2012-07-26T17:48:59.0000000+00:00</time></trkpt><trkpt lat="63.71336746" lon="-19.76431465"><ele>118.0</ele><time>2012-07-26T17:49:04.0000000+00:00</time></trkpt><trkpt lat="63.71338272" lon="-19.76492119"><ele>116.4</ele><time>2012-07-26T17:49:09.0000000+00:00</time></trkpt><trkpt lat="63.71338654" lon="-19.76553917"><ele>116.5</ele><time>2012-07-26T17:49:14.0000000+00:00</time></trkpt><trkpt lat="63.71339417" lon="-19.76613808"><ele>115.8</ele><time>2012-07-26T17:49:19.0000000+00:00</time></trkpt><trkpt lat="63.71339798" lon="-19.76675224"><ele>115.4</ele><time>2012-07-26T17:49:24.0000000+00:00</time></trkpt><trkpt lat="63.71342087" lon="-19.76742554"><ele>113.9</ele><time>2012-07-26T17:49:29.0000000+00:00</time></trkpt><trkpt lat="63.7134285" lon="-19.7680912"><ele>112.7</ele><time>2012-07-26T17:49:34.0000000+00:00</time></trkpt><trkpt lat="63.71344376" lon="-19.76864815"><ele>113.8</ele><time>2012-07-26T17:49:39.0000000+00:00</time></trkpt><trkpt lat="63.71343994" lon="-19.76901817"><ele>112.6</ele><time>2012-07-26T17:49:44.0000000+00:00</time></trkpt><trkpt lat="63.71343994" lon="-19.76929283"><ele>112.4</ele><time>2012-07-26T17:49:49.0000000+00:00</time></trkpt><trkpt lat="63.71344757" lon="-19.76931953"><ele>111.9</ele><time>2012-07-26T17:49:54.0000000+00:00</time></trkpt><trkpt lat="63.71345139" lon="-19.76931572"><ele>112.0</ele><time>2012-07-26T17:49:59.0000000+00:00</time></trkpt><trkpt lat="63.71345139" lon="-19.76931572"><ele>112.1</ele><time>2012-07-26T17:50:04.0000000+00:00</time></trkpt><trkpt lat="63.71345139" lon="-19.76931381"><ele>112.1</ele><time>2012-07-26T17:50:09.0000000+00:00</time></trkpt><trkpt lat="63.71345139" lon="-19.76931191"><ele>112.1</ele><time>2012-07-26T17:50:14.0000000+00:00</time></trkpt><trkpt lat="63.7134552" lon="-19.76930618"><ele>112.0</ele><time>2012-07-26T17:50:19.0000000+00:00</time></trkpt><trkpt lat="63.71345902" lon="-19.76930046"><ele>112.0</ele><time>2012-07-26T17:50:24.0000000+00:00</time></trkpt><trkpt lat="63.7134552" lon="-19.76930046"><ele>112.0</ele><time>2012-07-26T17:50:29.0000000+00:00</time></trkpt><trkpt lat="63.7134552" lon="-19.76930046"><ele>112.0</ele><time>2012-07-26T17:50:34.0000000+00:00</time></trkpt><trkpt lat="63.7134552" lon="-19.76930046"><ele>111.9</ele><time>2012-07-26T17:50:39.0000000+00:00</time></trkpt><trkpt lat="63.7134552" lon="-19.76930046"><ele>111.9</ele><time>2012-07-26T17:50:44.0000000+00:00</time></trkpt><trkpt lat="63.7134552" lon="-19.76930046"><ele>111.9</ele><time>2012-07-26T17:50:49.0000000+00:00</time></trkpt><trkpt lat="63.7134552" lon="-19.76930046"><ele>111.9</ele><time>2012-07-26T17:50:54.0000000+00:00</time></trkpt><trkpt lat="63.7134552" lon="-19.76930046"><ele>111.9</ele><time>2012-07-26T17:50:59.0000000+00:00</time></trkpt><trkpt lat="63.7134552" lon="-19.76930046"><ele>111.9</ele><time>2012-07-26T17:51:04.0000000+00:00</time></trkpt><trkpt lat="63.7134552" lon="-19.76930046"><ele>111.8</ele><time>2012-07-26T17:51:09.0000000+00:00</time></trkpt><trkpt lat="63.7134552" lon="-19.76930046"><ele>111.8</ele><time>2012-07-26T17:51:14.0000000+00:00</time></trkpt><trkpt lat="63.7134552" lon="-19.76930046"><ele>111.8</ele><time>2012-07-26T17:51:19.0000000+00:00</time></trkpt><trkpt lat="63.7134552" lon="-19.76930046"><ele>111.8</ele><time>2012-07-26T17:51:24.0000000+00:00</time></trkpt><trkpt lat="63.7134552" lon="-19.76930046"><ele>111.8</ele><time>2012-07-26T17:51:29.0000000+00:00</time></trkpt><trkpt lat="63.7134552" lon="-19.76930046"><ele>111.8</ele><time>2012-07-26T17:51:34.0000000+00:00</time></trkpt><trkpt lat="63.7134552" lon="-19.76930046"><ele>111.8</ele><time>2012-07-26T17:51:39.0000000+00:00</time></trkpt><trkpt lat="63.7134552" lon="-19.76930046"><ele>111.7</ele><time>2012-07-26T17:51:44.0000000+00:00</time></trkpt><trkpt lat="63.71345902" lon="-19.76940155"><ele>111.7</ele><time>2012-07-26T17:51:49.0000000+00:00</time></trkpt><trkpt lat="63.71345902" lon="-19.7697258"><ele>112.4</ele><time>2012-07-26T17:51:54.0000000+00:00</time></trkpt><trkpt lat="63.71346664" lon="-19.7701416"><ele>112.1</ele><time>2012-07-26T17:51:59.0000000+00:00</time></trkpt><trkpt lat="63.71346664" lon="-19.77054977"><ele>112.6</ele><time>2012-07-26T17:52:04.0000000+00:00</time></trkpt><trkpt lat="63.71348572" lon="-19.77098084"><ele>111.6</ele><time>2012-07-26T17:52:09.0000000+00:00</time></trkpt><trkpt lat="63.71349335" lon="-19.77140236"><ele>111.5</ele><time>2012-07-26T17:52:14.0000000+00:00</time></trkpt><trkpt lat="63.71349335" lon="-19.77184105"><ele>110.6</ele><time>2012-07-26T17:52:19.0000000+00:00</time></trkpt><trkpt lat="63.71349716" lon="-19.77229881"><ele>110.2</ele><time>2012-07-26T17:52:24.0000000+00:00</time></trkpt><trkpt lat="63.71350098" lon="-19.77276802"><ele>109.8</ele><time>2012-07-26T17:52:29.0000000+00:00</time></trkpt><trkpt lat="63.71351242" lon="-19.77324867"><ele>110.0</ele><time>2012-07-26T17:52:34.0000000+00:00</time></trkpt><trkpt lat="63.71351624" lon="-19.77378273"><ele>110.1</ele><time>2012-07-26T17:52:39.0000000+00:00</time></trkpt><trkpt lat="63.71352005" lon="-19.77436638"><ele>107.4</ele><time>2012-07-26T17:52:44.0000000+00:00</time></trkpt><trkpt lat="63.71353531" lon="-19.77498245"><ele>106.1</ele><time>2012-07-26T17:52:49.0000000+00:00</time></trkpt><trkpt lat="63.71354675" lon="-19.77562523"><ele>105.7</ele><time>2012-07-26T17:52:54.0000000+00:00</time></trkpt><trkpt lat="63.71355057" lon="-19.77633286"><ele>105.7</ele><time>2012-07-26T17:52:59.0000000+00:00</time></trkpt><trkpt lat="63.7135582" lon="-19.77698708"><ele>104.1</ele><time>2012-07-26T17:53:04.0000000+00:00</time></trkpt><trkpt lat="63.71356964" lon="-19.77766609"><ele>105.0</ele><time>2012-07-26T17:53:09.0000000+00:00</time></trkpt><trkpt lat="63.71358109" lon="-19.77833366"><ele>106.1</ele><time>2012-07-26T17:53:14.0000000+00:00</time></trkpt><trkpt lat="63.71358872" lon="-19.77893829"><ele>106.0</ele><time>2012-07-26T17:53:19.0000000+00:00</time></trkpt><trkpt lat="63.71360397" lon="-19.77945328"><ele>108.1</ele><time>2012-07-26T17:53:24.0000000+00:00</time></trkpt><trkpt lat="63.71360779" lon="-19.779953"><ele>105.1</ele><time>2012-07-26T17:53:29.0000000+00:00</time></trkpt><trkpt lat="63.7136116" lon="-19.78049469"><ele>105.1</ele><time>2012-07-26T17:53:34.0000000+00:00</time></trkpt><trkpt lat="63.71362305" lon="-19.78103638"><ele>106.0</ele><time>2012-07-26T17:53:39.0000000+00:00</time></trkpt><trkpt lat="63.71363068" lon="-19.78160667"><ele>106.3</ele><time>2012-07-26T17:53:44.0000000+00:00</time></trkpt><trkpt lat="63.71364212" lon="-19.78220558"><ele>105.9</ele><time>2012-07-26T17:53:49.0000000+00:00</time></trkpt><trkpt lat="63.71364594" lon="-19.78281593"><ele>104.4</ele><time>2012-07-26T17:53:54.0000000+00:00</time></trkpt><trkpt lat="63.71364975" lon="-19.78342247"><ele>102.3</ele><time>2012-07-26T17:53:59.0000000+00:00</time></trkpt><trkpt lat="63.71365738" lon="-19.78404045"><ele>100.8</ele><time>2012-07-26T17:54:04.0000000+00:00</time></trkpt><trkpt lat="63.71368408" lon="-19.78461838"><ele>101.8</ele><time>2012-07-26T17:54:09.0000000+00:00</time></trkpt><trkpt lat="63.71367645" lon="-19.78520393"><ele>100.5</ele><time>2012-07-26T17:54:14.0000000+00:00</time></trkpt><trkpt lat="63.7136879" lon="-19.78577614"><ele>101.2</ele><time>2012-07-26T17:54:19.0000000+00:00</time></trkpt><trkpt lat="63.71368027" lon="-19.78640366"><ele>98.7</ele><time>2012-07-26T17:54:24.0000000+00:00</time></trkpt><trkpt lat="63.71369553" lon="-19.78702927"><ele>98.5</ele><time>2012-07-26T17:54:29.0000000+00:00</time></trkpt><trkpt lat="63.71370697" lon="-19.78753281"><ele>100.5</ele><time>2012-07-26T17:54:34.0000000+00:00</time></trkpt><trkpt lat="63.71373367" lon="-19.78793144"><ele>103.1</ele><time>2012-07-26T17:54:39.0000000+00:00</time></trkpt><trkpt lat="63.71376419" lon="-19.78835678"><ele>104.2</ele><time>2012-07-26T17:54:44.0000000+00:00</time></trkpt><trkpt lat="63.71377945" lon="-19.78882408"><ele>105.4</ele><time>2012-07-26T17:54:49.0000000+00:00</time></trkpt><trkpt lat="63.71377564" lon="-19.78930473"><ele>104.6</ele><time>2012-07-26T17:54:54.0000000+00:00</time></trkpt><trkpt lat="63.71376419" lon="-19.7897644"><ele>103.5</ele><time>2012-07-26T17:54:59.0000000+00:00</time></trkpt><trkpt lat="63.71377945" lon="-19.79025459"><ele>102.4</ele><time>2012-07-26T17:55:04.0000000+00:00</time></trkpt><trkpt lat="63.71379471" lon="-19.79079628"><ele>101.5</ele><time>2012-07-26T17:55:09.0000000+00:00</time></trkpt><trkpt lat="63.71380234" lon="-19.79138756"><ele>101.2</ele><time>2012-07-26T17:55:14.0000000+00:00</time></trkpt><trkpt lat="63.71380615" lon="-19.79198837"><ele>99.9</ele><time>2012-07-26T17:55:19.0000000+00:00</time></trkpt><trkpt lat="63.71380615" lon="-19.79260826"><ele>100.0</ele><time>2012-07-26T17:55:24.0000000+00:00</time></trkpt><trkpt lat="63.71381378" lon="-19.79317665"><ele>100.7</ele><time>2012-07-26T17:55:29.0000000+00:00</time></trkpt><trkpt lat="63.71383667" lon="-19.79372025"><ele>102.4</ele><time>2012-07-26T17:55:34.0000000+00:00</time></trkpt><trkpt lat="63.71385193" lon="-19.79426956"><ele>103.2</ele><time>2012-07-26T17:55:39.0000000+00:00</time></trkpt><trkpt lat="63.71385574" lon="-19.79491425"><ele>101.5</ele><time>2012-07-26T17:55:44.0000000+00:00</time></trkpt><trkpt lat="63.71385956" lon="-19.79546166"><ele>101.1</ele><time>2012-07-26T17:55:49.0000000+00:00</time></trkpt><trkpt lat="63.71385956" lon="-19.79596329"><ele>101.4</ele><time>2012-07-26T17:55:54.0000000+00:00</time></trkpt><trkpt lat="63.713871" lon="-19.79636192"><ele>100.7</ele><time>2012-07-26T17:55:59.0000000+00:00</time></trkpt><trkpt lat="63.71387863" lon="-19.79667854"><ele>99.9</ele><time>2012-07-26T17:56:04.0000000+00:00</time></trkpt><trkpt lat="63.71387863" lon="-19.79691887"><ele>101.7</ele><time>2012-07-26T17:56:09.0000000+00:00</time></trkpt><trkpt lat="63.71388245" lon="-19.79717445"><ele>101.2</ele><time>2012-07-26T17:56:14.0000000+00:00</time></trkpt><trkpt lat="63.71387863" lon="-19.79742241"><ele>100.9</ele><time>2012-07-26T17:56:19.0000000+00:00</time></trkpt><trkpt lat="63.71387482" lon="-19.79745102"><ele>99.7</ele><time>2012-07-26T17:56:24.0000000+00:00</time></trkpt><trkpt lat="63.71387482" lon="-19.79745293"><ele>99.7</ele><time>2012-07-26T17:56:29.0000000+00:00</time></trkpt><trkpt lat="63.71387482" lon="-19.79745102"><ele>99.7</ele><time>2012-07-26T17:56:34.0000000+00:00</time></trkpt><trkpt lat="63.71387482" lon="-19.79745102"><ele>99.8</ele><time>2012-07-26T17:56:39.0000000+00:00</time></trkpt><trkpt lat="63.71387863" lon="-19.79744911"><ele>99.8</ele><time>2012-07-26T17:56:44.0000000+00:00</time></trkpt><trkpt lat="63.71387863" lon="-19.79744911"><ele>99.8</ele><time>2012-07-26T17:56:49.0000000+00:00</time></trkpt><trkpt lat="63.71387863" lon="-19.79744721"><ele>99.8</ele><time>2012-07-26T17:56:54.0000000+00:00</time></trkpt><trkpt lat="63.71387863" lon="-19.79744721"><ele>99.8</ele><time>2012-07-26T17:56:59.0000000+00:00</time></trkpt><trkpt lat="63.71387863" lon="-19.79744721"><ele>99.8</ele><time>2012-07-26T17:57:04.0000000+00:00</time></trkpt><trkpt lat="63.71387863" lon="-19.79744721"><ele>99.8</ele><time>2012-07-26T17:57:09.0000000+00:00</time></trkpt><trkpt lat="63.71387863" lon="-19.79744721"><ele>99.8</ele><time>2012-07-26T17:57:14.0000000+00:00</time></trkpt><trkpt lat="63.71387863" lon="-19.7974453"><ele>99.8</ele><time>2012-07-26T17:57:19.0000000+00:00</time></trkpt><trkpt lat="63.71387863" lon="-19.7974453"><ele>99.8</ele><time>2012-07-26T17:57:24.0000000+00:00</time></trkpt><trkpt lat="63.71387863" lon="-19.7974453"><ele>99.8</ele><time>2012-07-26T17:57:29.0000000+00:00</time></trkpt><trkpt lat="63.71387863" lon="-19.7974453"><ele>99.8</ele><time>2012-07-26T17:57:34.0000000+00:00</time></trkpt><trkpt lat="63.71387863" lon="-19.7974453"><ele>99.8</ele><time>2012-07-26T17:57:39.0000000+00:00</time></trkpt><trkpt lat="63.71387863" lon="-19.7974453"><ele>99.8</ele><time>2012-07-26T17:57:44.0000000+00:00</time></trkpt><trkpt lat="63.71387863" lon="-19.7974453"><ele>99.8</ele><time>2012-07-26T17:57:49.0000000+00:00</time></trkpt><trkpt lat="63.71387863" lon="-19.79744339"><ele>99.8</ele><time>2012-07-26T17:57:54.0000000+00:00</time></trkpt><trkpt lat="63.71387863" lon="-19.79744339"><ele>99.8</ele><time>2012-07-26T17:57:59.0000000+00:00</time></trkpt><trkpt lat="63.71387863" lon="-19.79744339"><ele>99.8</ele><time>2012-07-26T17:58:04.0000000+00:00</time></trkpt><trkpt lat="63.71388626" lon="-19.79760742"><ele>100.4</ele><time>2012-07-26T17:58:09.0000000+00:00</time></trkpt><trkpt lat="63.71389008" lon="-19.79787064"><ele>100.9</ele><time>2012-07-26T17:58:14.0000000+00:00</time></trkpt><trkpt lat="63.71389771" lon="-19.79821396"><ele>100.8</ele><time>2012-07-26T17:58:19.0000000+00:00</time></trkpt><trkpt lat="63.71390152" lon="-19.79858017"><ele>100.7</ele><time>2012-07-26T17:58:24.0000000+00:00</time></trkpt><trkpt lat="63.71390533" lon="-19.7990036"><ele>100.9</ele><time>2012-07-26T17:58:29.0000000+00:00</time></trkpt><trkpt lat="63.71393204" lon="-19.79942894"><ele>101.6</ele><time>2012-07-26T17:58:34.0000000+00:00</time></trkpt><trkpt lat="63.71394348" lon="-19.79987335"><ele>102.2</ele><time>2012-07-26T17:58:39.0000000+00:00</time></trkpt><trkpt lat="63.71393967" lon="-19.80037308"><ele>99.4</ele><time>2012-07-26T17:58:44.0000000+00:00</time></trkpt><trkpt lat="63.71394348" lon="-19.80084992"><ele>100.3</ele><time>2012-07-26T17:58:49.0000000+00:00</time></trkpt><trkpt lat="63.71394348" lon="-19.80135536"><ele>99.7</ele><time>2012-07-26T17:58:54.0000000+00:00</time></trkpt><trkpt lat="63.71394348" lon="-19.80184174"><ele>100.5</ele><time>2012-07-26T17:58:59.0000000+00:00</time></trkpt><trkpt lat="63.71394348" lon="-19.80233192"><ele>99.4</ele><time>2012-07-26T17:59:04.0000000+00:00</time></trkpt><trkpt lat="63.71395874" lon="-19.80278587"><ele>99.5</ele><time>2012-07-26T17:59:09.0000000+00:00</time></trkpt><trkpt lat="63.713974" lon="-19.80327988"><ele>100.9</ele><time>2012-07-26T17:59:14.0000000+00:00</time></trkpt><trkpt lat="63.71397018" lon="-19.80381203"><ele>100.2</ele><time>2012-07-26T17:59:19.0000000+00:00</time></trkpt><trkpt lat="63.71398926" lon="-19.80433464"><ele>102.7</ele><time>2012-07-26T17:59:24.0000000+00:00</time></trkpt><trkpt lat="63.7140007" lon="-19.80487061"><ele>103.4</ele><time>2012-07-26T17:59:29.0000000+00:00</time></trkpt><trkpt lat="63.71401215" lon="-19.80536842"><ele>102.9</ele><time>2012-07-26T17:59:34.0000000+00:00</time></trkpt><trkpt lat="63.71401596" lon="-19.8058548"><ele>102.4</ele><time>2012-07-26T17:59:39.0000000+00:00</time></trkpt><trkpt lat="63.71403503" lon="-19.80626869"><ele>101.5</ele><time>2012-07-26T17:59:44.0000000+00:00</time></trkpt><trkpt lat="63.71404648" lon="-19.80678558"><ele>100.4</ele><time>2012-07-26T17:59:49.0000000+00:00</time></trkpt><trkpt lat="63.71405029" lon="-19.80736923"><ele>98.1</ele><time>2012-07-26T17:59:54.0000000+00:00</time></trkpt><trkpt lat="63.71406174" lon="-19.80784416"><ele>98.6</ele><time>2012-07-26T17:59:59.0000000+00:00</time></trkpt><trkpt lat="63.71405792" lon="-19.80833244"><ele>96.8</ele><time>2012-07-26T18:00:04.0000000+00:00</time></trkpt><trkpt lat="63.71406174" lon="-19.80879402"><ele>98.0</ele><time>2012-07-26T18:00:09.0000000+00:00</time></trkpt><trkpt lat="63.71407318" lon="-19.80927277"><ele>96.7</ele><time>2012-07-26T18:00:14.0000000+00:00</time></trkpt><trkpt lat="63.71408463" lon="-19.80975533"><ele>97.6</ele><time>2012-07-26T18:00:19.0000000+00:00</time></trkpt><trkpt lat="63.71408844" lon="-19.81025124"><ele>94.1</ele><time>2012-07-26T18:00:24.0000000+00:00</time></trkpt><trkpt lat="63.71408844" lon="-19.81074715"><ele>92.7</ele><time>2012-07-26T18:00:29.0000000+00:00</time></trkpt><trkpt lat="63.71409988" lon="-19.81119728"><ele>93.9</ele><time>2012-07-26T18:00:34.0000000+00:00</time></trkpt><trkpt lat="63.71411514" lon="-19.81163406"><ele>96.0</ele><time>2012-07-26T18:00:39.0000000+00:00</time></trkpt><trkpt lat="63.71411896" lon="-19.81208801"><ele>95.2</ele><time>2012-07-26T18:00:44.0000000+00:00</time></trkpt><trkpt lat="63.71412277" lon="-19.81253243"><ele>96.8</ele><time>2012-07-26T18:00:49.0000000+00:00</time></trkpt><trkpt lat="63.7141304" lon="-19.81288338"><ele>97.1</ele><time>2012-07-26T18:00:54.0000000+00:00</time></trkpt><trkpt lat="63.71414185" lon="-19.81320572"><ele>97.4</ele><time>2012-07-26T18:00:59.0000000+00:00</time></trkpt><trkpt lat="63.71414948" lon="-19.81354141"><ele>99.2</ele><time>2012-07-26T18:01:04.0000000+00:00</time></trkpt><trkpt lat="63.71413422" lon="-19.81390762"><ele>98.4</ele><time>2012-07-26T18:01:09.0000000+00:00</time></trkpt><trkpt lat="63.71414185" lon="-19.81425285"><ele>98.2</ele><time>2012-07-26T18:01:14.0000000+00:00</time></trkpt><trkpt lat="63.71416473" lon="-19.81466293"><ele>100.4</ele><time>2012-07-26T18:01:19.0000000+00:00</time></trkpt><trkpt lat="63.71416855" lon="-19.81505966"><ele>99.6</ele><time>2012-07-26T18:01:24.0000000+00:00</time></trkpt><trkpt lat="63.71415329" lon="-19.81548882"><ele>98.8</ele><time>2012-07-26T18:01:29.0000000+00:00</time></trkpt><trkpt lat="63.71414566" lon="-19.81591797"><ele>97.8</ele><time>2012-07-26T18:01:34.0000000+00:00</time></trkpt><trkpt lat="63.71412659" lon="-19.8163414"><ele>98.7</ele><time>2012-07-26T18:01:39.0000000+00:00</time></trkpt><trkpt lat="63.71411896" lon="-19.81678772"><ele>100.2</ele><time>2012-07-26T18:01:44.0000000+00:00</time></trkpt><trkpt lat="63.71411133" lon="-19.81723595"><ele>97.8</ele><time>2012-07-26T18:01:49.0000000+00:00</time></trkpt><trkpt lat="63.71409226" lon="-19.81770897"><ele>96.0</ele><time>2012-07-26T18:01:54.0000000+00:00</time></trkpt><trkpt lat="63.71406937" lon="-19.81820488"><ele>95.9</ele><time>2012-07-26T18:01:59.0000000+00:00</time></trkpt><trkpt lat="63.71405029" lon="-19.81870461"><ele>96.6</ele><time>2012-07-26T18:02:04.0000000+00:00</time></trkpt><trkpt lat="63.71402359" lon="-19.81915474"><ele>96.8</ele><time>2012-07-26T18:02:09.0000000+00:00</time></trkpt><trkpt lat="63.71400452" lon="-19.81941795"><ele>95.9</ele><time>2012-07-26T18:02:14.0000000+00:00</time></trkpt><trkpt lat="63.71399307" lon="-19.81970406"><ele>95.4</ele><time>2012-07-26T18:02:19.0000000+00:00</time></trkpt><trkpt lat="63.71398163" lon="-19.82000351"><ele>94.8</ele><time>2012-07-26T18:02:24.0000000+00:00</time></trkpt><trkpt lat="63.71396256" lon="-19.82034874"><ele>95.0</ele><time>2012-07-26T18:02:29.0000000+00:00</time></trkpt><trkpt lat="63.71392822" lon="-19.82074547"><ele>94.9</ele><time>2012-07-26T18:02:34.0000000+00:00</time></trkpt><trkpt lat="63.71390533" lon="-19.82107925"><ele>95.5</ele><time>2012-07-26T18:02:39.0000000+00:00</time></trkpt><trkpt lat="63.71387482" lon="-19.82141876"><ele>95.1</ele><time>2012-07-26T18:02:44.0000000+00:00</time></trkpt><trkpt lat="63.71385956" lon="-19.82180977"><ele>95.2</ele><time>2012-07-26T18:02:49.0000000+00:00</time></trkpt><trkpt lat="63.7138443" lon="-19.82226181"><ele>96.8</ele><time>2012-07-26T18:02:54.0000000+00:00</time></trkpt><trkpt lat="63.71380234" lon="-19.82268143"><ele>96.1</ele><time>2012-07-26T18:02:59.0000000+00:00</time></trkpt><trkpt lat="63.71377564" lon="-19.82305718"><ele>95.9</ele><time>2012-07-26T18:03:04.0000000+00:00</time></trkpt><trkpt lat="63.71376038" lon="-19.8233757"><ele>95.3</ele><time>2012-07-26T18:03:09.0000000+00:00</time></trkpt><trkpt lat="63.71369934" lon="-19.82375336"><ele>95.1</ele><time>2012-07-26T18:03:14.0000000+00:00</time></trkpt><trkpt lat="63.71356964" lon="-19.82411766"><ele>96.6</ele><time>2012-07-26T18:03:19.0000000+00:00</time></trkpt><trkpt lat="63.7134285" lon="-19.82436943"><ele>97.1</ele><time>2012-07-26T18:03:24.0000000+00:00</time></trkpt><trkpt lat="63.71328354" lon="-19.82452011"><ele>97.3</ele><time>2012-07-26T18:03:29.0000000+00:00</time></trkpt><trkpt lat="63.71318436" lon="-19.82465172"><ele>97.5</ele><time>2012-07-26T18:03:34.0000000+00:00</time></trkpt><trkpt lat="63.71305847" lon="-19.82483673"><ele>97.8</ele><time>2012-07-26T18:03:39.0000000+00:00</time></trkpt><trkpt lat="63.7129097" lon="-19.8250351"><ele>98.2</ele><time>2012-07-26T18:03:44.0000000+00:00</time></trkpt><trkpt lat="63.71274948" lon="-19.82526398"><ele>97.9</ele><time>2012-07-26T18:03:49.0000000+00:00</time></trkpt><trkpt lat="63.71259689" lon="-19.82552147"><ele>98.3</ele><time>2012-07-26T18:03:54.0000000+00:00</time></trkpt><trkpt lat="63.71246719" lon="-19.82571983"><ele>98.6</ele><time>2012-07-26T18:03:59.0000000+00:00</time></trkpt><trkpt lat="63.71237946" lon="-19.82590866"><ele>99.8</ele><time>2012-07-26T18:04:04.0000000+00:00</time></trkpt><trkpt lat="63.71232605" lon="-19.82612801"><ele>99.7</ele><time>2012-07-26T18:04:09.0000000+00:00</time></trkpt><trkpt lat="63.71226502" lon="-19.82642555"><ele>99.8</ele><time>2012-07-26T18:04:14.0000000+00:00</time></trkpt><trkpt lat="63.71220398" lon="-19.82679367"><ele>99.6</ele><time>2012-07-26T18:04:19.0000000+00:00</time></trkpt><trkpt lat="63.71215439" lon="-19.82712364"><ele>99.5</ele><time>2012-07-26T18:04:24.0000000+00:00</time></trkpt><trkpt lat="63.71212387" lon="-19.82739258"><ele>99.3</ele><time>2012-07-26T18:04:29.0000000+00:00</time></trkpt><trkpt lat="63.71212387" lon="-19.82758713"><ele>100.5</ele><time>2012-07-26T18:04:34.0000000+00:00</time></trkpt><trkpt lat="63.71210861" lon="-19.82776833"><ele>101.2</ele><time>2012-07-26T18:04:39.0000000+00:00</time></trkpt><trkpt lat="63.71209335" lon="-19.82802391"><ele>101.3</ele><time>2012-07-26T18:04:44.0000000+00:00</time></trkpt><trkpt lat="63.71209717" lon="-19.82822418"><ele>101.3</ele><time>2012-07-26T18:04:49.0000000+00:00</time></trkpt><trkpt lat="63.71208191" lon="-19.82829094"><ele>100.5</ele><time>2012-07-26T18:04:54.0000000+00:00</time></trkpt><trkpt lat="63.71208191" lon="-19.82828903"><ele>100.2</ele><time>2012-07-26T18:04:59.0000000+00:00</time></trkpt><trkpt lat="63.71208191" lon="-19.82828903"><ele>100.0</ele><time>2012-07-26T18:05:04.0000000+00:00</time></trkpt><trkpt lat="63.71208191" lon="-19.82831955"><ele>100.0</ele><time>2012-07-26T18:05:09.0000000+00:00</time></trkpt><trkpt lat="63.7121048" lon="-19.82868576"><ele>100.0</ele><time>2012-07-26T18:05:14.0000000+00:00</time></trkpt><trkpt lat="63.71212387" lon="-19.82917404"><ele>98.7</ele><time>2012-07-26T18:05:19.0000000+00:00</time></trkpt><trkpt lat="63.71215057" lon="-19.8297081"><ele>95.9</ele><time>2012-07-26T18:05:24.0000000+00:00</time></trkpt><trkpt lat="63.71218491" lon="-19.83018494"><ele>92.6</ele><time>2012-07-26T18:05:29.0000000+00:00</time></trkpt><trkpt lat="63.71220779" lon="-19.83063316"><ele>91.6</ele><time>2012-07-26T18:05:34.0000000+00:00</time></trkpt><trkpt lat="63.71223068" lon="-19.83109474"><ele>88.9</ele><time>2012-07-26T18:05:39.0000000+00:00</time></trkpt><trkpt lat="63.71226502" lon="-19.83153153"><ele>88.1</ele><time>2012-07-26T18:05:44.0000000+00:00</time></trkpt><trkpt lat="63.71229935" lon="-19.8319912"><ele>86.8</ele><time>2012-07-26T18:05:49.0000000+00:00</time></trkpt><trkpt lat="63.71234512" lon="-19.83248138"><ele>86.6</ele><time>2012-07-26T18:05:54.0000000+00:00</time></trkpt><trkpt lat="63.71238327" lon="-19.83298111"><ele>86.3</ele><time>2012-07-26T18:05:59.0000000+00:00</time></trkpt><trkpt lat="63.71240616" lon="-19.83355331"><ele>82.6</ele><time>2012-07-26T18:06:04.0000000+00:00</time></trkpt><trkpt lat="63.71244812" lon="-19.83402634"><ele>83.1</ele><time>2012-07-26T18:06:09.0000000+00:00</time></trkpt><trkpt lat="63.71247482" lon="-19.83453178"><ele>83.3</ele><time>2012-07-26T18:06:14.0000000+00:00</time></trkpt><trkpt lat="63.71250916" lon="-19.83498573"><ele>82.8</ele><time>2012-07-26T18:06:19.0000000+00:00</time></trkpt><trkpt lat="63.7125473" lon="-19.83539391"><ele>81.3</ele><time>2012-07-26T18:06:24.0000000+00:00</time></trkpt><trkpt lat="63.71259308" lon="-19.83578301"><ele>80.3</ele><time>2012-07-26T18:06:29.0000000+00:00</time></trkpt><trkpt lat="63.71263123" lon="-19.83621979"><ele>81.9</ele><time>2012-07-26T18:06:34.0000000+00:00</time></trkpt><trkpt lat="63.71268463" lon="-19.83667374"><ele>87.2</ele><time>2012-07-26T18:06:39.0000000+00:00</time></trkpt><trkpt lat="63.71271515" lon="-19.83721352"><ele>87.4</ele><time>2012-07-26T18:06:44.0000000+00:00</time></trkpt><trkpt lat="63.7127533" lon="-19.83774948"><ele>87.6</ele><time>2012-07-26T18:06:49.0000000+00:00</time></trkpt><trkpt lat="63.71280289" lon="-19.83831787"><ele>86.6</ele><time>2012-07-26T18:06:54.0000000+00:00</time></trkpt><trkpt lat="63.71283341" lon="-19.83894348"><ele>85.6</ele><time>2012-07-26T18:06:59.0000000+00:00</time></trkpt><trkpt lat="63.71285248" lon="-19.83956909"><ele>84.6</ele><time>2012-07-26T18:07:04.0000000+00:00</time></trkpt><trkpt lat="63.71287537" lon="-19.84017944"><ele>83.0</ele><time>2012-07-26T18:07:09.0000000+00:00</time></trkpt><trkpt lat="63.71291733" lon="-19.84080887"><ele>82.8</ele><time>2012-07-26T18:07:14.0000000+00:00</time></trkpt><trkpt lat="63.71293259" lon="-19.84145165"><ele>80.0</ele><time>2012-07-26T18:07:19.0000000+00:00</time></trkpt><trkpt lat="63.71295929" lon="-19.84209061"><ele>78.5</ele><time>2012-07-26T18:07:24.0000000+00:00</time></trkpt><trkpt lat="63.71299362" lon="-19.84271431"><ele>79.6</ele><time>2012-07-26T18:07:29.0000000+00:00</time></trkpt><trkpt lat="63.71300888" lon="-19.84332466"><ele>80.1</ele><time>2012-07-26T18:07:34.0000000+00:00</time></trkpt><trkpt lat="63.7130394" lon="-19.8439064"><ele>84.0</ele><time>2012-07-26T18:07:39.0000000+00:00</time></trkpt><trkpt lat="63.71305466" lon="-19.84453583"><ele>83.5</ele><time>2012-07-26T18:07:44.0000000+00:00</time></trkpt><trkpt lat="63.71307755" lon="-19.84510803"><ele>83.5</ele><time>2012-07-26T18:07:49.0000000+00:00</time></trkpt><trkpt lat="63.71310806" lon="-19.84566307"><ele>87.0</ele><time>2012-07-26T18:07:54.0000000+00:00</time></trkpt><trkpt lat="63.7131424" lon="-19.84626007"><ele>87.6</ele><time>2012-07-26T18:07:59.0000000+00:00</time></trkpt><trkpt lat="63.71317291" lon="-19.84685516"><ele>88.4</ele><time>2012-07-26T18:08:04.0000000+00:00</time></trkpt><trkpt lat="63.71320343" lon="-19.84746361"><ele>89.2</ele><time>2012-07-26T18:08:09.0000000+00:00</time></trkpt><trkpt lat="63.7132225" lon="-19.84809113"><ele>87.8</ele><time>2012-07-26T18:08:14.0000000+00:00</time></trkpt><trkpt lat="63.71326065" lon="-19.84866715"><ele>85.2</ele><time>2012-07-26T18:08:19.0000000+00:00</time></trkpt><trkpt lat="63.71331787" lon="-19.84924507"><ele>86.5</ele><time>2012-07-26T18:08:24.0000000+00:00</time></trkpt><trkpt lat="63.71336365" lon="-19.84977913"><ele>87.7</ele><time>2012-07-26T18:08:29.0000000+00:00</time></trkpt><trkpt lat="63.71338654" lon="-19.85030365"><ele>84.8</ele><time>2012-07-26T18:08:34.0000000+00:00</time></trkpt><trkpt lat="63.71341705" lon="-19.85088158"><ele>82.8</ele><time>2012-07-26T18:08:39.0000000+00:00</time></trkpt><trkpt lat="63.71345139" lon="-19.8514595"><ele>83.7</ele><time>2012-07-26T18:08:44.0000000+00:00</time></trkpt><trkpt lat="63.71348572" lon="-19.85205269"><ele>85.1</ele><time>2012-07-26T18:08:49.0000000+00:00</time></trkpt><trkpt lat="63.71353912" lon="-19.8526516"><ele>87.7</ele><time>2012-07-26T18:08:54.0000000+00:00</time></trkpt><trkpt lat="63.71360397" lon="-19.85321236"><ele>87.6</ele><time>2012-07-26T18:08:59.0000000+00:00</time></trkpt><trkpt lat="63.71364594" lon="-19.85379028"><ele>86.1</ele><time>2012-07-26T18:09:04.0000000+00:00</time></trkpt><trkpt lat="63.71369934" lon="-19.85440254"><ele>90.3</ele><time>2012-07-26T18:09:09.0000000+00:00</time></trkpt><trkpt lat="63.71375275" lon="-19.85502434"><ele>90.5</ele><time>2012-07-26T18:09:14.0000000+00:00</time></trkpt><trkpt lat="63.71380234" lon="-19.85566711"><ele>88.2</ele><time>2012-07-26T18:09:19.0000000+00:00</time></trkpt><trkpt lat="63.71385193" lon="-19.85628891"><ele>85.8</ele><time>2012-07-26T18:09:24.0000000+00:00</time></trkpt><trkpt lat="63.71390915" lon="-19.85693741"><ele>88.0</ele><time>2012-07-26T18:09:29.0000000+00:00</time></trkpt><trkpt lat="63.71396256" lon="-19.85760307"><ele>89.2</ele><time>2012-07-26T18:09:34.0000000+00:00</time></trkpt><trkpt lat="63.71402359" lon="-19.85825539"><ele>89.8</ele><time>2012-07-26T18:09:39.0000000+00:00</time></trkpt><trkpt lat="63.71408844" lon="-19.8589077"><ele>89.7</ele><time>2012-07-26T18:09:44.0000000+00:00</time></trkpt><trkpt lat="63.71414948" lon="-19.85955048"><ele>92.4</ele><time>2012-07-26T18:09:49.0000000+00:00</time></trkpt><trkpt lat="63.7142067" lon="-19.86021042"><ele>92.0</ele><time>2012-07-26T18:09:54.0000000+00:00</time></trkpt><trkpt lat="63.7142601" lon="-19.86091232"><ele>92.1</ele><time>2012-07-26T18:09:59.0000000+00:00</time></trkpt><trkpt lat="63.71429443" lon="-19.86163712"><ele>88.6</ele><time>2012-07-26T18:10:04.0000000+00:00</time></trkpt><trkpt lat="63.71433258" lon="-19.86233902"><ele>85.0</ele><time>2012-07-26T18:10:09.0000000+00:00</time></trkpt><trkpt lat="63.71438217" lon="-19.86304474"><ele>80.7</ele><time>2012-07-26T18:10:14.0000000+00:00</time></trkpt><trkpt lat="63.71444702" lon="-19.86370087"><ele>80.4</ele><time>2012-07-26T18:10:19.0000000+00:00</time></trkpt><trkpt lat="63.71449661" lon="-19.86428642"><ele>80.0</ele><time>2012-07-26T18:10:24.0000000+00:00</time></trkpt><trkpt lat="63.71455002" lon="-19.86490059"><ele>80.1</ele><time>2012-07-26T18:10:29.0000000+00:00</time></trkpt><trkpt lat="63.71460342" lon="-19.86549377"><ele>80.0</ele><time>2012-07-26T18:10:34.0000000+00:00</time></trkpt><trkpt lat="63.71465683" lon="-19.86610222"><ele>79.0</ele><time>2012-07-26T18:10:39.0000000+00:00</time></trkpt><trkpt lat="63.71471405" lon="-19.86673546"><ele>80.3</ele><time>2012-07-26T18:10:44.0000000+00:00</time></trkpt><trkpt lat="63.71476364" lon="-19.86735153"><ele>79.2</ele><time>2012-07-26T18:10:49.0000000+00:00</time></trkpt><trkpt lat="63.71482468" lon="-19.86798477"><ele>81.0</ele><time>2012-07-26T18:10:54.0000000+00:00</time></trkpt><trkpt lat="63.7148819" lon="-19.86862373"><ele>82.9</ele><time>2012-07-26T18:10:59.0000000+00:00</time></trkpt><trkpt lat="63.7149353" lon="-19.86926651"><ele>82.7</ele><time>2012-07-26T18:11:04.0000000+00:00</time></trkpt><trkpt lat="63.71499634" lon="-19.86989403"><ele>83.3</ele><time>2012-07-26T18:11:09.0000000+00:00</time></trkpt><trkpt lat="63.71505356" lon="-19.87052155"><ele>85.0</ele><time>2012-07-26T18:11:14.0000000+00:00</time></trkpt><trkpt lat="63.71512222" lon="-19.87117004"><ele>84.4</ele><time>2012-07-26T18:11:19.0000000+00:00</time></trkpt><trkpt lat="63.71519089" lon="-19.87180328"><ele>85.2</ele><time>2012-07-26T18:11:24.0000000+00:00</time></trkpt><trkpt lat="63.71525192" lon="-19.87245178"><ele>88.0</ele><time>2012-07-26T18:11:29.0000000+00:00</time></trkpt><trkpt lat="63.71530914" lon="-19.87313843"><ele>86.5</ele><time>2012-07-26T18:11:34.0000000+00:00</time></trkpt><trkpt lat="63.71535492" lon="-19.87383843"><ele>84.6</ele><time>2012-07-26T18:11:39.0000000+00:00</time></trkpt><trkpt lat="63.71541214" lon="-19.874506"><ele>82.9</ele><time>2012-07-26T18:11:44.0000000+00:00</time></trkpt><trkpt lat="63.71546555" lon="-19.87514687"><ele>80.7</ele><time>2012-07-26T18:11:49.0000000+00:00</time></trkpt><trkpt lat="63.71550751" lon="-19.87582207"><ele>79.9</ele><time>2012-07-26T18:11:54.0000000+00:00</time></trkpt><trkpt lat="63.7155571" lon="-19.87646294"><ele>79.1</ele><time>2012-07-26T18:11:59.0000000+00:00</time></trkpt><trkpt lat="63.7156105" lon="-19.87706947"><ele>79.2</ele><time>2012-07-26T18:12:04.0000000+00:00</time></trkpt><trkpt lat="63.7156601" lon="-19.87761498"><ele>78.7</ele><time>2012-07-26T18:12:09.0000000+00:00</time></trkpt><trkpt lat="63.71571732" lon="-19.87813187"><ele>80.4</ele><time>2012-07-26T18:12:14.0000000+00:00</time></trkpt><trkpt lat="63.71575928" lon="-19.87842941"><ele>79.2</ele><time>2012-07-26T18:12:19.0000000+00:00</time></trkpt><trkpt lat="63.71576309" lon="-19.878479"><ele>78.2</ele><time>2012-07-26T18:12:24.0000000+00:00</time></trkpt><trkpt lat="63.71578217" lon="-19.87880516"><ele>77.8</ele><time>2012-07-26T18:12:29.0000000+00:00</time></trkpt><trkpt lat="63.71582031" lon="-19.87927246"><ele>77.9</ele><time>2012-07-26T18:12:34.0000000+00:00</time></trkpt><trkpt lat="63.71585465" lon="-19.87982178"><ele>78.5</ele><time>2012-07-26T18:12:39.0000000+00:00</time></trkpt><trkpt lat="63.71588898" lon="-19.88038254"><ele>80.4</ele><time>2012-07-26T18:12:44.0000000+00:00</time></trkpt><trkpt lat="63.71592712" lon="-19.88092995"><ele>80.2</ele><time>2012-07-26T18:12:49.0000000+00:00</time></trkpt><trkpt lat="63.71592331" lon="-19.88141441"><ele>77.9</ele><time>2012-07-26T18:12:54.0000000+00:00</time></trkpt><trkpt lat="63.7159729" lon="-19.88173866"><ele>80.1</ele><time>2012-07-26T18:12:59.0000000+00:00</time></trkpt><trkpt lat="63.71600723" lon="-19.88207245"><ele>80.8</ele><time>2012-07-26T18:13:04.0000000+00:00</time></trkpt><trkpt lat="63.71604538" lon="-19.8825531"><ele>80.4</ele><time>2012-07-26T18:13:09.0000000+00:00</time></trkpt><trkpt lat="63.71607971" lon="-19.88299179"><ele>80.0</ele><time>2012-07-26T18:13:14.0000000+00:00</time></trkpt><trkpt lat="63.7161026" lon="-19.88342094"><ele>76.5</ele><time>2012-07-26T18:13:19.0000000+00:00</time></trkpt><trkpt lat="63.71613693" lon="-19.88385582"><ele>76.9</ele><time>2012-07-26T18:13:24.0000000+00:00</time></trkpt><trkpt lat="63.71617889" lon="-19.8843174"><ele>79.6</ele><time>2012-07-26T18:13:29.0000000+00:00</time></trkpt><trkpt lat="63.71622086" lon="-19.88483238"><ele>79.1</ele><time>2012-07-26T18:13:34.0000000+00:00</time></trkpt><trkpt lat="63.71625519" lon="-19.88536835"><ele>79.5</ele><time>2012-07-26T18:13:39.0000000+00:00</time></trkpt><trkpt lat="63.71630859" lon="-19.88588715"><ele>80.1</ele><time>2012-07-26T18:13:44.0000000+00:00</time></trkpt><trkpt lat="63.7163353" lon="-19.88640213"><ele>78.4</ele><time>2012-07-26T18:13:49.0000000+00:00</time></trkpt><trkpt lat="63.71636581" lon="-19.88689232"><ele>77.9</ele><time>2012-07-26T18:13:54.0000000+00:00</time></trkpt><trkpt lat="63.71640015" lon="-19.88733864"><ele>78.9</ele><time>2012-07-26T18:13:59.0000000+00:00</time></trkpt><trkpt lat="63.71644211" lon="-19.88772965"><ele>77.9</ele><time>2012-07-26T18:14:04.0000000+00:00</time></trkpt><trkpt lat="63.71646118" lon="-19.8881073"><ele>77.5</ele><time>2012-07-26T18:14:09.0000000+00:00</time></trkpt><trkpt lat="63.71648407" lon="-19.88849831"><ele>77.0</ele><time>2012-07-26T18:14:14.0000000+00:00</time></trkpt><trkpt lat="63.71648407" lon="-19.88882446"><ele>77.0</ele><time>2012-07-26T18:14:19.0000000+00:00</time></trkpt><trkpt lat="63.7165184" lon="-19.88916206"><ele>77.1</ele><time>2012-07-26T18:14:24.0000000+00:00</time></trkpt><trkpt lat="63.71654892" lon="-19.889534"><ele>76.2</ele><time>2012-07-26T18:14:29.0000000+00:00</time></trkpt><trkpt lat="63.7165947" lon="-19.88999176"><ele>75.2</ele><time>2012-07-26T18:14:34.0000000+00:00</time></trkpt><trkpt lat="63.71660996" lon="-19.89041519"><ele>76.8</ele><time>2012-07-26T18:14:39.0000000+00:00</time></trkpt><trkpt lat="63.71662903" lon="-19.89073181"><ele>79.7</ele><time>2012-07-26T18:14:44.0000000+00:00</time></trkpt><trkpt lat="63.71664429" lon="-19.89098358"><ele>78.7</ele><time>2012-07-26T18:14:49.0000000+00:00</time></trkpt><trkpt lat="63.71667099" lon="-19.89126968"><ele>79.6</ele><time>2012-07-26T18:14:54.0000000+00:00</time></trkpt><trkpt lat="63.71669769" lon="-19.89162064"><ele>79.5</ele><time>2012-07-26T18:14:59.0000000+00:00</time></trkpt><trkpt lat="63.71671677" lon="-19.89196968"><ele>80.1</ele><time>2012-07-26T18:15:04.0000000+00:00</time></trkpt><trkpt lat="63.71673584" lon="-19.89226723"><ele>81.5</ele><time>2012-07-26T18:15:09.0000000+00:00</time></trkpt><trkpt lat="63.71678162" lon="-19.89263153"><ele>82.0</ele><time>2012-07-26T18:15:14.0000000+00:00</time></trkpt><trkpt lat="63.71681213" lon="-19.89296341"><ele>80.0</ele><time>2012-07-26T18:15:19.0000000+00:00</time></trkpt><trkpt lat="63.71683502" lon="-19.89326859"><ele>78.1</ele><time>2012-07-26T18:15:24.0000000+00:00</time></trkpt><trkpt lat="63.71683502" lon="-19.89357185"><ele>80.1</ele><time>2012-07-26T18:15:29.0000000+00:00</time></trkpt><trkpt lat="63.71686935" lon="-19.89391899"><ele>80.8</ele><time>2012-07-26T18:15:34.0000000+00:00</time></trkpt><trkpt lat="63.71689987" lon="-19.89429665"><ele>81.7</ele><time>2012-07-26T18:15:39.0000000+00:00</time></trkpt><trkpt lat="63.71693039" lon="-19.8946743"><ele>81.5</ele><time>2012-07-26T18:15:44.0000000+00:00</time></trkpt><trkpt lat="63.71696472" lon="-19.8950119"><ele>82.1</ele><time>2012-07-26T18:15:49.0000000+00:00</time></trkpt><trkpt lat="63.71710587" lon="-19.89502716"><ele>80.6</ele><time>2012-07-26T18:15:54.0000000+00:00</time></trkpt><trkpt lat="63.71727753" lon="-19.89487457"><ele>80.0</ele><time>2012-07-26T18:15:59.0000000+00:00</time></trkpt><trkpt lat="63.71741486" lon="-19.89470482"><ele>80.2</ele><time>2012-07-26T18:16:04.0000000+00:00</time></trkpt><trkpt lat="63.71754456" lon="-19.89456749"><ele>79.4</ele><time>2012-07-26T18:16:09.0000000+00:00</time></trkpt><trkpt lat="63.71764755" lon="-19.89446068"><ele>78.7</ele><time>2012-07-26T18:16:14.0000000+00:00</time></trkpt><trkpt lat="63.71774292" lon="-19.89437676"><ele>78.4</ele><time>2012-07-26T18:16:19.0000000+00:00</time></trkpt><trkpt lat="63.71783447" lon="-19.8942852"><ele>78.6</ele><time>2012-07-26T18:16:24.0000000+00:00</time></trkpt><trkpt lat="63.71791077" lon="-19.89417267"><ele>78.9</ele><time>2012-07-26T18:16:29.0000000+00:00</time></trkpt><trkpt lat="63.71798706" lon="-19.89408302"><ele>78.6</ele><time>2012-07-26T18:16:34.0000000+00:00</time></trkpt><trkpt lat="63.71806335" lon="-19.89397621"><ele>78.8</ele><time>2012-07-26T18:16:39.0000000+00:00</time></trkpt><trkpt lat="63.71813583" lon="-19.89391136"><ele>78.5</ele><time>2012-07-26T18:16:44.0000000+00:00</time></trkpt><trkpt lat="63.71822357" lon="-19.89381981"><ele>78.7</ele><time>2012-07-26T18:16:49.0000000+00:00</time></trkpt><trkpt lat="63.71831894" lon="-19.89371109"><ele>79.2</ele><time>2012-07-26T18:16:54.0000000+00:00</time></trkpt><trkpt lat="63.71840668" lon="-19.89360809"><ele>78.9</ele><time>2012-07-26T18:16:59.0000000+00:00</time></trkpt><trkpt lat="63.71850586" lon="-19.89348984"><ele>78.6</ele><time>2012-07-26T18:17:04.0000000+00:00</time></trkpt><trkpt lat="63.71860504" lon="-19.89338303"><ele>78.3</ele><time>2012-07-26T18:17:09.0000000+00:00</time></trkpt><trkpt lat="63.71871948" lon="-19.89327622"><ele>79.5</ele><time>2012-07-26T18:17:14.0000000+00:00</time></trkpt><trkpt lat="63.71881485" lon="-19.89318276"><ele>80.4</ele><time>2012-07-26T18:17:19.0000000+00:00</time></trkpt><trkpt lat="63.71891022" lon="-19.89307213"><ele>80.0</ele><time>2012-07-26T18:17:24.0000000+00:00</time></trkpt><trkpt lat="63.71902084" lon="-19.89296913"><ele>80.9</ele><time>2012-07-26T18:17:29.0000000+00:00</time></trkpt><trkpt lat="63.71911621" lon="-19.89286995"><ele>80.9</ele><time>2012-07-26T18:17:34.0000000+00:00</time></trkpt><trkpt lat="63.71921921" lon="-19.89278603"><ele>81.2</ele><time>2012-07-26T18:17:39.0000000+00:00</time></trkpt><trkpt lat="63.71934128" lon="-19.89274025"><ele>81.4</ele><time>2012-07-26T18:17:44.0000000+00:00</time></trkpt><trkpt lat="63.71948242" lon="-19.89279747"><ele>81.6</ele><time>2012-07-26T18:17:49.0000000+00:00</time></trkpt><trkpt lat="63.71962357" lon="-19.89284325"><ele>80.7</ele><time>2012-07-26T18:17:54.0000000+00:00</time></trkpt><trkpt lat="63.71975327" lon="-19.89282417"><ele>80.8</ele><time>2012-07-26T18:17:59.0000000+00:00</time></trkpt><trkpt lat="63.71988678" lon="-19.89284134"><ele>81.1</ele><time>2012-07-26T18:18:04.0000000+00:00</time></trkpt><trkpt lat="63.72003937" lon="-19.89281654"><ele>81.3</ele><time>2012-07-26T18:18:09.0000000+00:00</time></trkpt><trkpt lat="63.72020721" lon="-19.89274788"><ele>81.9</ele><time>2012-07-26T18:18:14.0000000+00:00</time></trkpt><trkpt lat="63.72032547" lon="-19.89272499"><ele>82.2</ele><time>2012-07-26T18:18:19.0000000+00:00</time></trkpt><trkpt lat="63.7203598" lon="-19.89273071"><ele>81.5</ele><time>2012-07-26T18:18:24.0000000+00:00</time></trkpt><trkpt lat="63.72036743" lon="-19.89273834"><ele>81.5</ele><time>2012-07-26T18:18:29.0000000+00:00</time></trkpt><trkpt lat="63.72037506" lon="-19.89274216"><ele>81.5</ele><time>2012-07-26T18:18:34.0000000+00:00</time></trkpt><trkpt lat="63.72037888" lon="-19.89274406"><ele>81.5</ele><time>2012-07-26T18:18:39.0000000+00:00</time></trkpt><trkpt lat="63.72038269" lon="-19.89274025"><ele>81.4</ele><time>2012-07-26T18:18:44.0000000+00:00</time></trkpt><trkpt lat="63.72038269" lon="-19.89274025"><ele>81.4</ele><time>2012-07-26T18:18:49.0000000+00:00</time></trkpt><trkpt lat="63.72038269" lon="-19.89274025"><ele>81.4</ele><time>2012-07-26T18:18:54.0000000+00:00</time></trkpt><trkpt lat="63.72038269" lon="-19.89274025"><ele>81.4</ele><time>2012-07-26T18:18:59.0000000+00:00</time></trkpt><trkpt lat="63.72038269" lon="-19.89274025"><ele>81.5</ele><time>2012-07-26T18:19:04.0000000+00:00</time></trkpt><trkpt lat="63.72038269" lon="-19.89273834"><ele>81.5</ele><time>2012-07-26T18:19:09.0000000+00:00</time></trkpt><trkpt lat="63.72038269" lon="-19.89273834"><ele>81.5</ele><time>2012-07-26T18:19:14.0000000+00:00</time></trkpt><trkpt lat="63.72038269" lon="-19.89273834"><ele>81.5</ele><time>2012-07-26T18:19:19.0000000+00:00</time></trkpt><trkpt lat="63.72037888" lon="-19.89273834"><ele>81.5</ele><time>2012-07-26T18:19:24.0000000+00:00</time></trkpt><trkpt lat="63.72037888" lon="-19.89273834"><ele>81.5</ele><time>2012-07-26T18:19:29.0000000+00:00</time></trkpt><trkpt lat="63.72037888" lon="-19.89273834"><ele>81.5</ele><time>2012-07-26T18:19:34.0000000+00:00</time></trkpt><trkpt lat="63.72037888" lon="-19.89273834"><ele>81.5</ele><time>2012-07-26T18:19:39.0000000+00:00</time></trkpt><trkpt lat="63.72037888" lon="-19.89273834"><ele>81.5</ele><time>2012-07-26T18:19:44.0000000+00:00</time></trkpt><trkpt lat="63.72037888" lon="-19.89273834"><ele>81.5</ele><time>2012-07-26T18:19:49.0000000+00:00</time></trkpt><trkpt lat="63.72037888" lon="-19.89273834"><ele>81.5</ele><time>2012-07-26T18:19:54.0000000+00:00</time></trkpt><trkpt lat="63.72037888" lon="-19.89273644"><ele>81.5</ele><time>2012-07-26T18:19:59.0000000+00:00</time></trkpt><trkpt lat="63.72037888" lon="-19.89273644"><ele>81.6</ele><time>2012-07-26T18:20:04.0000000+00:00</time></trkpt><trkpt lat="63.72037888" lon="-19.89273644"><ele>81.6</ele><time>2012-07-26T18:20:09.0000000+00:00</time></trkpt><trkpt lat="63.72037888" lon="-19.89273644"><ele>81.6</ele><time>2012-07-26T18:20:14.0000000+00:00</time></trkpt><trkpt lat="63.72037888" lon="-19.89273644"><ele>81.6</ele><time>2012-07-26T18:20:19.0000000+00:00</time></trkpt><trkpt lat="63.72037888" lon="-19.89273644"><ele>81.6</ele><time>2012-07-26T18:20:24.0000000+00:00</time></trkpt><trkpt lat="63.72037888" lon="-19.89273644"><ele>81.6</ele><time>2012-07-26T18:20:29.0000000+00:00</time></trkpt><trkpt lat="63.72037888" lon="-19.89273644"><ele>81.6</ele><time>2012-07-26T18:20:34.0000000+00:00</time></trkpt><trkpt lat="63.72037888" lon="-19.89273644"><ele>81.6</ele><time>2012-07-26T18:20:39.0000000+00:00</time></trkpt><trkpt lat="63.72037888" lon="-19.89273644"><ele>81.6</ele><time>2012-07-26T18:20:44.0000000+00:00</time></trkpt><trkpt lat="63.72037888" lon="-19.89273453"><ele>81.6</ele><time>2012-07-26T18:20:49.0000000+00:00</time></trkpt><trkpt lat="63.72037888" lon="-19.89273453"><ele>81.6</ele><time>2012-07-26T18:20:54.0000000+00:00</time></trkpt><trkpt lat="63.72037888" lon="-19.89273453"><ele>81.6</ele><time>2012-07-26T18:20:59.0000000+00:00</time></trkpt><trkpt lat="63.72037888" lon="-19.89273453"><ele>81.6</ele><time>2012-07-26T18:21:04.0000000+00:00</time></trkpt><trkpt lat="63.72037888" lon="-19.89273453"><ele>81.6</ele><time>2012-07-26T18:21:09.0000000+00:00</time></trkpt><trkpt lat="63.72037888" lon="-19.89273453"><ele>81.6</ele><time>2012-07-26T18:21:14.0000000+00:00</time></trkpt><trkpt lat="63.72037888" lon="-19.89273453"><ele>81.6</ele><time>2012-07-26T18:21:19.0000000+00:00</time></trkpt><trkpt lat="63.72037888" lon="-19.89273453"><ele>81.6</ele><time>2012-07-26T18:21:24.0000000+00:00</time></trkpt><trkpt lat="63.72037888" lon="-19.89273453"><ele>81.6</ele><time>2012-07-26T18:21:29.0000000+00:00</time></trkpt><trkpt lat="63.72037888" lon="-19.89273453"><ele>81.6</ele><time>2012-07-26T18:21:34.0000000+00:00</time></trkpt><trkpt lat="63.72037888" lon="-19.89273453"><ele>81.7</ele><time>2012-07-26T18:21:39.0000000+00:00</time></trkpt><trkpt lat="63.72037506" lon="-19.89273453"><ele>81.7</ele><time>2012-07-26T18:21:44.0000000+00:00</time></trkpt><trkpt lat="63.72037506" lon="-19.89273453"><ele>81.7</ele><time>2012-07-26T18:21:49.0000000+00:00</time></trkpt><trkpt lat="63.72037506" lon="-19.89273262"><ele>81.7</ele><time>2012-07-26T18:21:54.0000000+00:00</time></trkpt><trkpt lat="63.72037506" lon="-19.89273262"><ele>81.7</ele><time>2012-07-26T18:21:59.0000000+00:00</time></trkpt><trkpt lat="63.72037506" lon="-19.89273262"><ele>81.7</ele><time>2012-07-26T18:22:04.0000000+00:00</time></trkpt><trkpt lat="63.72037506" lon="-19.89273262"><ele>81.7</ele><time>2012-07-26T18:22:09.0000000+00:00</time></trkpt><trkpt lat="63.72037506" lon="-19.89273262"><ele>81.7</ele><time>2012-07-26T18:22:14.0000000+00:00</time></trkpt><trkpt lat="63.72037506" lon="-19.89273262"><ele>81.7</ele><time>2012-07-26T18:22:19.0000000+00:00</time></trkpt><trkpt lat="63.72037506" lon="-19.89273262"><ele>81.7</ele><time>2012-07-26T18:22:24.0000000+00:00</time></trkpt><trkpt lat="63.72037506" lon="-19.89273262"><ele>81.7</ele><time>2012-07-26T18:22:29.0000000+00:00</time></trkpt><trkpt lat="63.72037506" lon="-19.89273262"><ele>81.7</ele><time>2012-07-26T18:22:34.0000000+00:00</time></trkpt><trkpt lat="63.72037506" lon="-19.89273262"><ele>81.7</ele><time>2012-07-26T18:22:39.0000000+00:00</time></trkpt><trkpt lat="63.72037506" lon="-19.89273262"><ele>81.8</ele><time>2012-07-26T18:22:44.0000000+00:00</time></trkpt><trkpt lat="63.72037506" lon="-19.89273071"><ele>81.8</ele><time>2012-07-26T18:22:49.0000000+00:00</time></trkpt><trkpt lat="63.72037506" lon="-19.89273071"><ele>81.8</ele><time>2012-07-26T18:22:54.0000000+00:00</time></trkpt><trkpt lat="63.72037506" lon="-19.89273071"><ele>81.8</ele><time>2012-07-26T18:22:59.0000000+00:00</time></trkpt><trkpt lat="63.72037506" lon="-19.89273071"><ele>81.8</ele><time>2012-07-26T18:23:04.0000000+00:00</time></trkpt><trkpt lat="63.72037506" lon="-19.89273071"><ele>81.8</ele><time>2012-07-26T18:23:09.0000000+00:00</time></trkpt><trkpt lat="63.72037506" lon="-19.89273071"><ele>81.8</ele><time>2012-07-26T18:23:14.0000000+00:00</time></trkpt><trkpt lat="63.72037506" lon="-19.89273071"><ele>81.8</ele><time>2012-07-26T18:23:19.0000000+00:00</time></trkpt><trkpt lat="63.72037506" lon="-19.89273071"><ele>81.8</ele><time>2012-07-26T18:23:24.0000000+00:00</time></trkpt><trkpt lat="63.72037506" lon="-19.89273071"><ele>81.8</ele><time>2012-07-26T18:23:29.0000000+00:00</time></trkpt><trkpt lat="63.72037506" lon="-19.89273071"><ele>81.8</ele><time>2012-07-26T18:23:34.0000000+00:00</time></trkpt><trkpt lat="63.72037506" lon="-19.89273071"><ele>81.9</ele><time>2012-07-26T18:23:39.0000000+00:00</time></trkpt><trkpt lat="63.72037506" lon="-19.89273071"><ele>81.9</ele><time>2012-07-26T18:23:44.0000000+00:00</time></trkpt><trkpt lat="63.72037125" lon="-19.89273071"><ele>81.9</ele><time>2012-07-26T18:23:49.0000000+00:00</time></trkpt><trkpt lat="63.72037125" lon="-19.89273071"><ele>81.9</ele><time>2012-07-26T18:23:54.0000000+00:00</time></trkpt><trkpt lat="63.72037125" lon="-19.89273071"><ele>81.9</ele><time>2012-07-26T18:23:59.0000000+00:00</time></trkpt><trkpt lat="63.72037125" lon="-19.89273071"><ele>81.9</ele><time>2012-07-26T18:24:04.0000000+00:00</time></trkpt><trkpt lat="63.72037125" lon="-19.89273071"><ele>81.9</ele><time>2012-07-26T18:24:09.0000000+00:00</time></trkpt><trkpt lat="63.72037125" lon="-19.89273071"><ele>81.9</ele><time>2012-07-26T18:24:14.0000000+00:00</time></trkpt><trkpt lat="63.72037125" lon="-19.89273071"><ele>81.9</ele><time>2012-07-26T18:24:19.0000000+00:00</time></trkpt><trkpt lat="63.72037125" lon="-19.89273071"><ele>81.9</ele><time>2012-07-26T18:24:24.0000000+00:00</time></trkpt><trkpt lat="63.72037125" lon="-19.89273071"><ele>81.9</ele><time>2012-07-26T18:24:29.0000000+00:00</time></trkpt><trkpt lat="63.72037125" lon="-19.89273071"><ele>81.9</ele><time>2012-07-26T18:24:34.0000000+00:00</time></trkpt><trkpt lat="63.72037125" lon="-19.89273071"><ele>81.9</ele><time>2012-07-26T18:24:39.0000000+00:00</time></trkpt><trkpt lat="63.72037125" lon="-19.89273071"><ele>81.9</ele><time>2012-07-26T18:24:44.0000000+00:00</time></trkpt><trkpt lat="63.72037125" lon="-19.89273071"><ele>81.9</ele><time>2012-07-26T18:24:49.0000000+00:00</time></trkpt><trkpt lat="63.72037125" lon="-19.89273071"><ele>81.9</ele><time>2012-07-26T18:24:54.0000000+00:00</time></trkpt><trkpt lat="63.72037125" lon="-19.89273071"><ele>81.9</ele><time>2012-07-26T18:24:59.0000000+00:00</time></trkpt><trkpt lat="63.72037125" lon="-19.89273071"><ele>81.9</ele><time>2012-07-26T18:25:04.0000000+00:00</time></trkpt><trkpt lat="63.72037125" lon="-19.89273071"><ele>81.9</ele><time>2012-07-26T18:25:09.0000000+00:00</time></trkpt><trkpt lat="63.72037125" lon="-19.89273071"><ele>81.9</ele><time>2012-07-26T18:25:14.0000000+00:00</time></trkpt><trkpt lat="63.72037125" lon="-19.89273071"><ele>81.9</ele><time>2012-07-26T18:25:19.0000000+00:00</time></trkpt><trkpt lat="63.72037125" lon="-19.89273071"><ele>81.9</ele><time>2012-07-26T18:25:24.0000000+00:00</time></trkpt><trkpt lat="63.72037125" lon="-19.89273071"><ele>81.9</ele><time>2012-07-26T18:25:29.0000000+00:00</time></trkpt><trkpt lat="63.72037125" lon="-19.89273071"><ele>81.9</ele><time>2012-07-26T18:25:34.0000000+00:00</time></trkpt><trkpt lat="63.72037125" lon="-19.89273071"><ele>81.9</ele><time>2012-07-26T18:25:39.0000000+00:00</time></trkpt><trkpt lat="63.72037125" lon="-19.89273071"><ele>81.9</ele><time>2012-07-26T18:25:44.0000000+00:00</time></trkpt><trkpt lat="63.72037125" lon="-19.89273071"><ele>81.9</ele><time>2012-07-26T18:25:49.0000000+00:00</time></trkpt><trkpt lat="63.72037125" lon="-19.89273071"><ele>81.9</ele><time>2012-07-26T18:25:54.0000000+00:00</time></trkpt><trkpt lat="63.72037125" lon="-19.89273071"><ele>81.9</ele><time>2012-07-26T18:25:59.0000000+00:00</time></trkpt><trkpt lat="63.72037125" lon="-19.89273071"><ele>81.9</ele><time>2012-07-26T18:26:04.0000000+00:00</time></trkpt><trkpt lat="63.72037125" lon="-19.89273071"><ele>81.9</ele><time>2012-07-26T18:26:09.0000000+00:00</time></trkpt><trkpt lat="63.72037125" lon="-19.89273071"><ele>81.9</ele><time>2012-07-26T18:26:14.0000000+00:00</time></trkpt><trkpt lat="63.72037125" lon="-19.89273071"><ele>81.9</ele><time>2012-07-26T18:26:19.0000000+00:00</time></trkpt><trkpt lat="63.72037125" lon="-19.89273071"><ele>81.9</ele><time>2012-07-26T18:26:24.0000000+00:00</time></trkpt><trkpt lat="63.72037125" lon="-19.89273071"><ele>81.9</ele><time>2012-07-26T18:26:29.0000000+00:00</time></trkpt><trkpt lat="63.72037125" lon="-19.89273071"><ele>81.9</ele><time>2012-07-26T18:26:34.0000000+00:00</time></trkpt><trkpt lat="63.72037125" lon="-19.89273071"><ele>81.9</ele><time>2012-07-26T18:26:39.0000000+00:00</time></trkpt><trkpt lat="63.72037125" lon="-19.89273071"><ele>81.9</ele><time>2012-07-26T18:26:44.0000000+00:00</time></trkpt><trkpt lat="63.72037125" lon="-19.89273071"><ele>81.9</ele><time>2012-07-26T18:26:49.0000000+00:00</time></trkpt><trkpt lat="63.72037125" lon="-19.89273071"><ele>81.9</ele><time>2012-07-26T18:26:54.0000000+00:00</time></trkpt><trkpt lat="63.72037125" lon="-19.89273071"><ele>81.9</ele><time>2012-07-26T18:26:59.0000000+00:00</time></trkpt><trkpt lat="63.72037125" lon="-19.89273071"><ele>81.9</ele><time>2012-07-26T18:27:04.0000000+00:00</time></trkpt><trkpt lat="63.72034454" lon="-19.89273453"><ele>81.8</ele><time>2012-07-26T18:27:09.0000000+00:00</time></trkpt><trkpt lat="63.7203331" lon="-19.8927536"><ele>81.7</ele><time>2012-07-26T18:27:14.0000000+00:00</time></trkpt><trkpt lat="63.72029495" lon="-19.89274597"><ele>81.8</ele><time>2012-07-26T18:27:19.0000000+00:00</time></trkpt><trkpt lat="63.72018814" lon="-19.89277268"><ele>81.9</ele><time>2012-07-26T18:27:24.0000000+00:00</time></trkpt><trkpt lat="63.72009659" lon="-19.89282227"><ele>82.1</ele><time>2012-07-26T18:27:29.0000000+00:00</time></trkpt><trkpt lat="63.71997452" lon="-19.89286614"><ele>82.9</ele><time>2012-07-26T18:27:34.0000000+00:00</time></trkpt><trkpt lat="63.71984863" lon="-19.89291382"><ele>83.1</ele><time>2012-07-26T18:27:39.0000000+00:00</time></trkpt><trkpt lat="63.71972275" lon="-19.89299583"><ele>84.3</ele><time>2012-07-26T18:27:44.0000000+00:00</time></trkpt><trkpt lat="63.71959305" lon="-19.89299202"><ele>84.4</ele><time>2012-07-26T18:27:49.0000000+00:00</time></trkpt><trkpt lat="63.7195015" lon="-19.89300728"><ele>83.6</ele><time>2012-07-26T18:27:54.0000000+00:00</time></trkpt><trkpt lat="63.71942902" lon="-19.89294624"><ele>82.8</ele><time>2012-07-26T18:27:59.0000000+00:00</time></trkpt><trkpt lat="63.71936035" lon="-19.89279175"><ele>81.9</ele><time>2012-07-26T18:28:04.0000000+00:00</time></trkpt><trkpt lat="63.71924973" lon="-19.89278412"><ele>82.7</ele><time>2012-07-26T18:28:09.0000000+00:00</time></trkpt><trkpt lat="63.71909714" lon="-19.89288712"><ele>80.8</ele><time>2012-07-26T18:28:14.0000000+00:00</time></trkpt><trkpt lat="63.71895981" lon="-19.89303398"><ele>78.5</ele><time>2012-07-26T18:28:19.0000000+00:00</time></trkpt><trkpt lat="63.71883392" lon="-19.89318276"><ele>79.1</ele><time>2012-07-26T18:28:24.0000000+00:00</time></trkpt><trkpt lat="63.71870422" lon="-19.89331055"><ele>79.1</ele><time>2012-07-26T18:28:29.0000000+00:00</time></trkpt><trkpt lat="63.71855927" lon="-19.89349175"><ele>78.4</ele><time>2012-07-26T18:28:34.0000000+00:00</time></trkpt><trkpt lat="63.7184372" lon="-19.89364052"><ele>79.6</ele><time>2012-07-26T18:28:39.0000000+00:00</time></trkpt><trkpt lat="63.71831513" lon="-19.8937645"><ele>79.7</ele><time>2012-07-26T18:28:44.0000000+00:00</time></trkpt><trkpt lat="63.71820831" lon="-19.89387894"><ele>79.2</ele><time>2012-07-26T18:28:49.0000000+00:00</time></trkpt><trkpt lat="63.71808243" lon="-19.89401436"><ele>79.1</ele><time>2012-07-26T18:28:54.0000000+00:00</time></trkpt><trkpt lat="63.71794128" lon="-19.89417267"><ele>79.0</ele><time>2012-07-26T18:28:59.0000000+00:00</time></trkpt><trkpt lat="63.71781158" lon="-19.89431381"><ele>79.8</ele><time>2012-07-26T18:29:04.0000000+00:00</time></trkpt><trkpt lat="63.71767044" lon="-19.89446068"><ele>80.1</ele><time>2012-07-26T18:29:09.0000000+00:00</time></trkpt><trkpt lat="63.71753693" lon="-19.89459801"><ele>79.0</ele><time>2012-07-26T18:29:14.0000000+00:00</time></trkpt><trkpt lat="63.7174263" lon="-19.89472389"><ele>79.4</ele><time>2012-07-26T18:29:19.0000000+00:00</time></trkpt><trkpt lat="63.71730042" lon="-19.89484596"><ele>78.2</ele><time>2012-07-26T18:29:24.0000000+00:00</time></trkpt><trkpt lat="63.71717835" lon="-19.89498901"><ele>78.2</ele><time>2012-07-26T18:29:29.0000000+00:00</time></trkpt><trkpt lat="63.71708679" lon="-19.8950882"><ele>80.0</ele><time>2012-07-26T18:29:34.0000000+00:00</time></trkpt><trkpt lat="63.71702957" lon="-19.89520264"><ele>81.1</ele><time>2012-07-26T18:29:39.0000000+00:00</time></trkpt><trkpt lat="63.7170105" lon="-19.89525032"><ele>80.9</ele><time>2012-07-26T18:29:44.0000000+00:00</time></trkpt><trkpt lat="63.71700287" lon="-19.8952713"><ele>80.4</ele><time>2012-07-26T18:29:49.0000000+00:00</time></trkpt><trkpt lat="63.71699905" lon="-19.89525986"><ele>80.1</ele><time>2012-07-26T18:29:54.0000000+00:00</time></trkpt><trkpt lat="63.71699905" lon="-19.89526177"><ele>80.1</ele><time>2012-07-26T18:29:59.0000000+00:00</time></trkpt><trkpt lat="63.71699905" lon="-19.895298"><ele>80.2</ele><time>2012-07-26T18:30:04.0000000+00:00</time></trkpt><trkpt lat="63.71699524" lon="-19.89548302"><ele>79.7</ele><time>2012-07-26T18:30:09.0000000+00:00</time></trkpt><trkpt lat="63.71702576" lon="-19.89582253"><ele>80.3</ele><time>2012-07-26T18:30:14.0000000+00:00</time></trkpt><trkpt lat="63.71705627" lon="-19.89620018"><ele>80.2</ele><time>2012-07-26T18:30:19.0000000+00:00</time></trkpt><trkpt lat="63.71709824" lon="-19.89661408"><ele>80.0</ele><time>2012-07-26T18:30:24.0000000+00:00</time></trkpt><trkpt lat="63.71714401" lon="-19.89708519"><ele>79.8</ele><time>2012-07-26T18:30:29.0000000+00:00</time></trkpt><trkpt lat="63.71718597" lon="-19.89762116"><ele>79.2</ele><time>2012-07-26T18:30:34.0000000+00:00</time></trkpt><trkpt lat="63.71723175" lon="-19.89817619"><ele>78.6</ele><time>2012-07-26T18:30:39.0000000+00:00</time></trkpt><trkpt lat="63.71728897" lon="-19.89877701"><ele>78.9</ele><time>2012-07-26T18:30:44.0000000+00:00</time></trkpt><trkpt lat="63.71734619" lon="-19.89939499"><ele>79.0</ele><time>2012-07-26T18:30:49.0000000+00:00</time></trkpt><trkpt lat="63.71740723" lon="-19.90001679"><ele>78.9</ele><time>2012-07-26T18:30:54.0000000+00:00</time></trkpt><trkpt lat="63.71746826" lon="-19.90065002"><ele>78.7</ele><time>2012-07-26T18:30:59.0000000+00:00</time></trkpt><trkpt lat="63.71753693" lon="-19.90127754"><ele>78.3</ele><time>2012-07-26T18:31:04.0000000+00:00</time></trkpt><trkpt lat="63.71760941" lon="-19.90192032"><ele>78.1</ele><time>2012-07-26T18:31:09.0000000+00:00</time></trkpt><trkpt lat="63.71767426" lon="-19.90255165"><ele>77.7</ele><time>2012-07-26T18:31:14.0000000+00:00</time></trkpt><trkpt lat="63.71774292" lon="-19.90315437"><ele>77.4</ele><time>2012-07-26T18:31:19.0000000+00:00</time></trkpt><trkpt lat="63.7178154" lon="-19.90372276"><ele>77.6</ele><time>2012-07-26T18:31:24.0000000+00:00</time></trkpt><trkpt lat="63.71788406" lon="-19.90426827"><ele>77.5</ele><time>2012-07-26T18:31:29.0000000+00:00</time></trkpt><trkpt lat="63.71795273" lon="-19.90481758"><ele>77.3</ele><time>2012-07-26T18:31:34.0000000+00:00</time></trkpt><trkpt lat="63.71800995" lon="-19.90538216"><ele>77.0</ele><time>2012-07-26T18:31:39.0000000+00:00</time></trkpt><trkpt lat="63.71808624" lon="-19.90595818"><ele>77.6</ele><time>2012-07-26T18:31:44.0000000+00:00</time></trkpt><trkpt lat="63.71815491" lon="-19.90649605"><ele>77.2</ele><time>2012-07-26T18:31:49.0000000+00:00</time></trkpt><trkpt lat="63.71823502" lon="-19.90707588"><ele>76.8</ele><time>2012-07-26T18:31:54.0000000+00:00</time></trkpt><trkpt lat="63.71831894" lon="-19.90767098"><ele>77.5</ele><time>2012-07-26T18:31:59.0000000+00:00</time></trkpt><trkpt lat="63.71839905" lon="-19.90826416"><ele>76.6</ele><time>2012-07-26T18:32:04.0000000+00:00</time></trkpt><trkpt lat="63.71848297" lon="-19.90886498"><ele>75.4</ele><time>2012-07-26T18:32:09.0000000+00:00</time></trkpt><trkpt lat="63.71854019" lon="-19.90941238"><ele>76.0</ele><time>2012-07-26T18:32:14.0000000+00:00</time></trkpt><trkpt lat="63.7185936" lon="-19.90983772"><ele>75.8</ele><time>2012-07-26T18:32:19.0000000+00:00</time></trkpt><trkpt lat="63.71863556" lon="-19.91021729"><ele>76.1</ele><time>2012-07-26T18:32:24.0000000+00:00</time></trkpt><trkpt lat="63.71870041" lon="-19.91052437"><ele>75.8</ele><time>2012-07-26T18:32:29.0000000+00:00</time></trkpt><trkpt lat="63.71876144" lon="-19.91079712"><ele>75.3</ele><time>2012-07-26T18:32:34.0000000+00:00</time></trkpt><trkpt lat="63.71879578" lon="-19.91106606"><ele>74.0</ele><time>2012-07-26T18:32:39.0000000+00:00</time></trkpt><trkpt lat="63.71883011" lon="-19.91129303"><ele>73.7</ele><time>2012-07-26T18:32:44.0000000+00:00</time></trkpt><trkpt lat="63.71884537" lon="-19.91152573"><ele>74.1</ele><time>2012-07-26T18:32:49.0000000+00:00</time></trkpt><trkpt lat="63.71889114" lon="-19.91180801"><ele>73.3</ele><time>2012-07-26T18:32:54.0000000+00:00</time></trkpt><trkpt lat="63.71893692" lon="-19.91206551"><ele>73.8</ele><time>2012-07-26T18:32:59.0000000+00:00</time></trkpt><trkpt lat="63.71899033" lon="-19.91232681"><ele>73.6</ele><time>2012-07-26T18:33:04.0000000+00:00</time></trkpt><trkpt lat="63.71902084" lon="-19.91254997"><ele>74.9</ele><time>2012-07-26T18:33:09.0000000+00:00</time></trkpt><trkpt lat="63.71902084" lon="-19.91257668"><ele>75.0</ele><time>2012-07-26T18:33:14.0000000+00:00</time></trkpt><trkpt lat="63.71902084" lon="-19.91257668"><ele>75.1</ele><time>2012-07-26T18:33:19.0000000+00:00</time></trkpt><trkpt lat="63.71903229" lon="-19.91266632"><ele>75.2</ele><time>2012-07-26T18:33:24.0000000+00:00</time></trkpt><trkpt lat="63.71906662" lon="-19.91288567"><ele>74.5</ele><time>2012-07-26T18:33:29.0000000+00:00</time></trkpt><trkpt lat="63.71911621" lon="-19.91321945"><ele>74.0</ele><time>2012-07-26T18:33:34.0000000+00:00</time></trkpt><trkpt lat="63.71916962" lon="-19.91353416"><ele>75.1</ele><time>2012-07-26T18:33:39.0000000+00:00</time></trkpt><trkpt lat="63.71920013" lon="-19.9138298"><ele>75.7</ele><time>2012-07-26T18:33:44.0000000+00:00</time></trkpt><trkpt lat="63.71923828" lon="-19.91409683"><ele>75.4</ele><time>2012-07-26T18:33:49.0000000+00:00</time></trkpt><trkpt lat="63.71929932" lon="-19.91448784"><ele>75.2</ele><time>2012-07-26T18:33:54.0000000+00:00</time></trkpt><trkpt lat="63.71936798" lon="-19.9149189"><ele>75.2</ele><time>2012-07-26T18:33:59.0000000+00:00</time></trkpt><trkpt lat="63.71943665" lon="-19.91540337"><ele>73.8</ele><time>2012-07-26T18:34:04.0000000+00:00</time></trkpt><trkpt lat="63.71950913" lon="-19.91586685"><ele>73.9</ele><time>2012-07-26T18:34:09.0000000+00:00</time></trkpt><trkpt lat="63.71956635" lon="-19.91629791"><ele>71.5</ele><time>2012-07-26T18:34:14.0000000+00:00</time></trkpt><trkpt lat="63.71961594" lon="-19.91667938"><ele>70.9</ele><time>2012-07-26T18:34:19.0000000+00:00</time></trkpt><trkpt lat="63.71965408" lon="-19.91702461"><ele>69.5</ele><time>2012-07-26T18:34:24.0000000+00:00</time></trkpt><trkpt lat="63.71969986" lon="-19.91736412"><ele>70.4</ele><time>2012-07-26T18:34:29.0000000+00:00</time></trkpt><trkpt lat="63.71974945" lon="-19.9177742"><ele>71.5</ele><time>2012-07-26T18:34:34.0000000+00:00</time></trkpt><trkpt lat="63.71980667" lon="-19.91824722"><ele>72.2</ele><time>2012-07-26T18:34:39.0000000+00:00</time></trkpt><trkpt lat="63.71985626" lon="-19.91870117"><ele>71.3</ele><time>2012-07-26T18:34:44.0000000+00:00</time></trkpt><trkpt lat="63.71989441" lon="-19.91908264"><ele>70.9</ele><time>2012-07-26T18:34:49.0000000+00:00</time></trkpt><trkpt lat="63.71993256" lon="-19.91950226"><ele>68.9</ele><time>2012-07-26T18:34:54.0000000+00:00</time></trkpt><trkpt lat="63.71998596" lon="-19.91999435"><ele>67.3</ele><time>2012-07-26T18:34:59.0000000+00:00</time></trkpt><trkpt lat="63.72002411" lon="-19.92047882"><ele>68.1</ele><time>2012-07-26T18:35:04.0000000+00:00</time></trkpt><trkpt lat="63.72008896" lon="-19.92094803"><ele>68.0</ele><time>2012-07-26T18:35:09.0000000+00:00</time></trkpt><trkpt lat="63.72016144" lon="-19.92150879"><ele>66.3</ele><time>2012-07-26T18:35:14.0000000+00:00</time></trkpt><trkpt lat="63.72023392" lon="-19.92214203"><ele>66.9</ele><time>2012-07-26T18:35:19.0000000+00:00</time></trkpt><trkpt lat="63.72030258" lon="-19.92279434"><ele>67.6</ele><time>2012-07-26T18:35:24.0000000+00:00</time></trkpt><trkpt lat="63.72037125" lon="-19.92338944"><ele>68.5</ele><time>2012-07-26T18:35:29.0000000+00:00</time></trkpt><trkpt lat="63.7204361" lon="-19.9240551"><ele>67.7</ele><time>2012-07-26T18:35:34.0000000+00:00</time></trkpt><trkpt lat="63.72051239" lon="-19.92469788"><ele>69.1</ele><time>2012-07-26T18:35:39.0000000+00:00</time></trkpt><trkpt lat="63.7205925" lon="-19.92521668"><ele>71.1</ele><time>2012-07-26T18:35:44.0000000+00:00</time></trkpt><trkpt lat="63.72065735" lon="-19.92574883"><ele>71.6</ele><time>2012-07-26T18:35:49.0000000+00:00</time></trkpt><trkpt lat="63.72071075" lon="-19.92635536"><ele>70.3</ele><time>2012-07-26T18:35:54.0000000+00:00</time></trkpt><trkpt lat="63.72078323" lon="-19.92698669"><ele>68.5</ele><time>2012-07-26T18:35:59.0000000+00:00</time></trkpt><trkpt lat="63.72085571" lon="-19.9275856"><ele>68.6</ele><time>2012-07-26T18:36:04.0000000+00:00</time></trkpt><trkpt lat="63.72091293" lon="-19.92812347"><ele>70.2</ele><time>2012-07-26T18:36:09.0000000+00:00</time></trkpt><trkpt lat="63.72097397" lon="-19.92869377"><ele>69.4</ele><time>2012-07-26T18:36:14.0000000+00:00</time></trkpt><trkpt lat="63.72103882" lon="-19.92923546"><ele>71.3</ele><time>2012-07-26T18:36:19.0000000+00:00</time></trkpt><trkpt lat="63.72110748" lon="-19.9298172"><ele>69.2</ele><time>2012-07-26T18:36:24.0000000+00:00</time></trkpt><trkpt lat="63.72117615" lon="-19.93043518"><ele>68.7</ele><time>2012-07-26T18:36:29.0000000+00:00</time></trkpt><trkpt lat="63.721241" lon="-19.93099022"><ele>69.0</ele><time>2012-07-26T18:36:34.0000000+00:00</time></trkpt><trkpt lat="63.7212944" lon="-19.93151093"><ele>69.4</ele><time>2012-07-26T18:36:39.0000000+00:00</time></trkpt><trkpt lat="63.72135925" lon="-19.93206596"><ele>70.3</ele><time>2012-07-26T18:36:44.0000000+00:00</time></trkpt><trkpt lat="63.72143555" lon="-19.93267822"><ele>70.2</ele><time>2012-07-26T18:36:49.0000000+00:00</time></trkpt><trkpt lat="63.72150803" lon="-19.93328476"><ele>69.1</ele><time>2012-07-26T18:36:54.0000000+00:00</time></trkpt><trkpt lat="63.72156143" lon="-19.93383598"><ele>68.2</ele><time>2012-07-26T18:36:59.0000000+00:00</time></trkpt><trkpt lat="63.72162628" lon="-19.93438911"><ele>68.5</ele><time>2012-07-26T18:37:04.0000000+00:00</time></trkpt><trkpt lat="63.72169495" lon="-19.93501663"><ele>67.7</ele><time>2012-07-26T18:37:09.0000000+00:00</time></trkpt><trkpt lat="63.72176743" lon="-19.93564224"><ele>67.4</ele><time>2012-07-26T18:37:14.0000000+00:00</time></trkpt><trkpt lat="63.72182465" lon="-19.93619347"><ele>67.8</ele><time>2012-07-26T18:37:19.0000000+00:00</time></trkpt><trkpt lat="63.72188187" lon="-19.93668366"><ele>67.7</ele><time>2012-07-26T18:37:24.0000000+00:00</time></trkpt><trkpt lat="63.72193146" lon="-19.93711662"><ele>68.3</ele><time>2012-07-26T18:37:29.0000000+00:00</time></trkpt><trkpt lat="63.7219696" lon="-19.93749428"><ele>67.7</ele><time>2012-07-26T18:37:34.0000000+00:00</time></trkpt><trkpt lat="63.72200775" lon="-19.9378891"><ele>65.9</ele><time>2012-07-26T18:37:39.0000000+00:00</time></trkpt><trkpt lat="63.72206116" lon="-19.93837929"><ele>64.6</ele><time>2012-07-26T18:37:44.0000000+00:00</time></trkpt><trkpt lat="63.72212219" lon="-19.93895912"><ele>64.8</ele><time>2012-07-26T18:37:49.0000000+00:00</time></trkpt><trkpt lat="63.72219467" lon="-19.93954849"><ele>65.8</ele><time>2012-07-26T18:37:54.0000000+00:00</time></trkpt><trkpt lat="63.72226715" lon="-19.9401226"><ele>66.3</ele><time>2012-07-26T18:37:59.0000000+00:00</time></trkpt><trkpt lat="63.722332" lon="-19.94071388"><ele>66.4</ele><time>2012-07-26T18:38:04.0000000+00:00</time></trkpt><trkpt lat="63.7224083" lon="-19.94132614"><ele>65.7</ele><time>2012-07-26T18:38:09.0000000+00:00</time></trkpt><trkpt lat="63.72246552" lon="-19.94191551"><ele>65.0</ele><time>2012-07-26T18:38:14.0000000+00:00</time></trkpt><trkpt lat="63.72252655" lon="-19.94242287"><ele>65.4</ele><time>2012-07-26T18:38:19.0000000+00:00</time></trkpt><trkpt lat="63.72258377" lon="-19.94299316"><ele>64.7</ele><time>2012-07-26T18:38:24.0000000+00:00</time></trkpt><trkpt lat="63.72264481" lon="-19.94348717"><ele>64.9</ele><time>2012-07-26T18:38:29.0000000+00:00</time></trkpt><trkpt lat="63.72269058" lon="-19.94393921"><ele>66.1</ele><time>2012-07-26T18:38:34.0000000+00:00</time></trkpt><trkpt lat="63.7227478" lon="-19.94441032"><ele>65.2</ele><time>2012-07-26T18:38:39.0000000+00:00</time></trkpt><trkpt lat="63.72280502" lon="-19.94490814"><ele>63.8</ele><time>2012-07-26T18:38:44.0000000+00:00</time></trkpt><trkpt lat="63.72286987" lon="-19.94543648"><ele>63.1</ele><time>2012-07-26T18:38:49.0000000+00:00</time></trkpt><trkpt lat="63.72291946" lon="-19.94599152"><ele>63.6</ele><time>2012-07-26T18:38:54.0000000+00:00</time></trkpt><trkpt lat="63.72296906" lon="-19.94657326"><ele>63.6</ele><time>2012-07-26T18:38:59.0000000+00:00</time></trkpt><trkpt lat="63.72303772" lon="-19.94710159"><ele>63.7</ele><time>2012-07-26T18:39:04.0000000+00:00</time></trkpt><trkpt lat="63.72310257" lon="-19.94766045"><ele>63.9</ele><time>2012-07-26T18:39:09.0000000+00:00</time></trkpt><trkpt lat="63.72315979" lon="-19.9482193"><ele>64.5</ele><time>2012-07-26T18:39:14.0000000+00:00</time></trkpt><trkpt lat="63.72322083" lon="-19.94878197"><ele>64.8</ele><time>2012-07-26T18:39:19.0000000+00:00</time></trkpt><trkpt lat="63.72327423" lon="-19.94936943"><ele>64.2</ele><time>2012-07-26T18:39:24.0000000+00:00</time></trkpt><trkpt lat="63.72332382" lon="-19.94992638"><ele>63.2</ele><time>2012-07-26T18:39:29.0000000+00:00</time></trkpt><trkpt lat="63.72335434" lon="-19.95044518"><ele>63.5</ele><time>2012-07-26T18:39:34.0000000+00:00</time></trkpt><trkpt lat="63.7233963" lon="-19.9509449"><ele>63.4</ele><time>2012-07-26T18:39:39.0000000+00:00</time></trkpt><trkpt lat="63.72341919" lon="-19.95144844"><ele>62.6</ele><time>2012-07-26T18:39:44.0000000+00:00</time></trkpt><trkpt lat="63.72343826" lon="-19.95199966"><ele>63.6</ele><time>2012-07-26T18:39:49.0000000+00:00</time></trkpt><trkpt lat="63.72344971" lon="-19.95254898"><ele>64.0</ele><time>2012-07-26T18:39:54.0000000+00:00</time></trkpt><trkpt lat="63.72346115" lon="-19.95309448"><ele>64.4</ele><time>2012-07-26T18:39:59.0000000+00:00</time></trkpt><trkpt lat="63.72346497" lon="-19.95363617"><ele>66.3</ele><time>2012-07-26T18:40:04.0000000+00:00</time></trkpt><trkpt lat="63.72345352" lon="-19.95408249"><ele>65.4</ele><time>2012-07-26T18:40:09.0000000+00:00</time></trkpt><trkpt lat="63.72345734" lon="-19.95446396"><ele>64.4</ele><time>2012-07-26T18:40:14.0000000+00:00</time></trkpt><trkpt lat="63.72345734" lon="-19.95475388"><ele>64.3</ele><time>2012-07-26T18:40:19.0000000+00:00</time></trkpt><trkpt lat="63.72346115" lon="-19.95502281"><ele>64.0</ele><time>2012-07-26T18:40:24.0000000+00:00</time></trkpt><trkpt lat="63.72346878" lon="-19.95544052"><ele>64.1</ele><time>2012-07-26T18:40:29.0000000+00:00</time></trkpt><trkpt lat="63.72346115" lon="-19.95593643"><ele>65.5</ele><time>2012-07-26T18:40:34.0000000+00:00</time></trkpt><trkpt lat="63.72346878" lon="-19.95636368"><ele>65.2</ele><time>2012-07-26T18:40:39.0000000+00:00</time></trkpt><trkpt lat="63.72346878" lon="-19.95682144"><ele>66.3</ele><time>2012-07-26T18:40:44.0000000+00:00</time></trkpt><trkpt lat="63.72347641" lon="-19.95725632"><ele>66.7</ele><time>2012-07-26T18:40:49.0000000+00:00</time></trkpt><trkpt lat="63.72347641" lon="-19.9577198"><ele>64.9</ele><time>2012-07-26T18:40:54.0000000+00:00</time></trkpt><trkpt lat="63.72348023" lon="-19.95819855"><ele>67.5</ele><time>2012-07-26T18:40:59.0000000+00:00</time></trkpt><trkpt lat="63.72348785" lon="-19.95868111"><ele>65.9</ele><time>2012-07-26T18:41:04.0000000+00:00</time></trkpt><trkpt lat="63.72349167" lon="-19.9591713"><ele>65.1</ele><time>2012-07-26T18:41:09.0000000+00:00</time></trkpt><trkpt lat="63.72348785" lon="-19.95962906"><ele>64.8</ele><time>2012-07-26T18:41:14.0000000+00:00</time></trkpt><trkpt lat="63.72348404" lon="-19.96012116"><ele>63.3</ele><time>2012-07-26T18:41:19.0000000+00:00</time></trkpt><trkpt lat="63.72348785" lon="-19.96064949"><ele>64.3</ele><time>2012-07-26T18:41:24.0000000+00:00</time></trkpt><trkpt lat="63.72349167" lon="-19.96116829"><ele>63.8</ele><time>2012-07-26T18:41:29.0000000+00:00</time></trkpt><trkpt lat="63.72351074" lon="-19.96175194"><ele>62.6</ele><time>2012-07-26T18:41:34.0000000+00:00</time></trkpt><trkpt lat="63.72351074" lon="-19.96231842"><ele>62.5</ele><time>2012-07-26T18:41:39.0000000+00:00</time></trkpt><trkpt lat="63.723526" lon="-19.96294403"><ele>64.0</ele><time>2012-07-26T18:41:44.0000000+00:00</time></trkpt><trkpt lat="63.723526" lon="-19.96353149"><ele>62.7</ele><time>2012-07-26T18:41:49.0000000+00:00</time></trkpt><trkpt lat="63.72353745" lon="-19.96414757"><ele>62.0</ele><time>2012-07-26T18:41:54.0000000+00:00</time></trkpt><trkpt lat="63.72354507" lon="-19.96476364"><ele>60.5</ele><time>2012-07-26T18:41:59.0000000+00:00</time></trkpt><trkpt lat="63.72356033" lon="-19.96532631"><ele>60.3</ele><time>2012-07-26T18:42:04.0000000+00:00</time></trkpt><trkpt lat="63.72358322" lon="-19.96582222"><ele>60.2</ele><time>2012-07-26T18:42:09.0000000+00:00</time></trkpt><trkpt lat="63.72359848" lon="-19.96633148"><ele>58.8</ele><time>2012-07-26T18:42:14.0000000+00:00</time></trkpt><trkpt lat="63.72362518" lon="-19.96689415"><ele>58.5</ele><time>2012-07-26T18:42:19.0000000+00:00</time></trkpt><trkpt lat="63.7236557" lon="-19.96745682"><ele>58.5</ele><time>2012-07-26T18:42:24.0000000+00:00</time></trkpt><trkpt lat="63.72370148" lon="-19.96805763"><ele>56.2</ele><time>2012-07-26T18:42:29.0000000+00:00</time></trkpt><trkpt lat="63.72374725" lon="-19.96870041"><ele>57.1</ele><time>2012-07-26T18:42:34.0000000+00:00</time></trkpt><trkpt lat="63.72378922" lon="-19.96935654"><ele>57.4</ele><time>2012-07-26T18:42:39.0000000+00:00</time></trkpt><trkpt lat="63.72384262" lon="-19.96997833"><ele>56.1</ele><time>2012-07-26T18:42:44.0000000+00:00</time></trkpt><trkpt lat="63.72390747" lon="-19.97057915"><ele>54.9</ele><time>2012-07-26T18:42:49.0000000+00:00</time></trkpt><trkpt lat="63.72397614" lon="-19.97120094"><ele>55.5</ele><time>2012-07-26T18:42:54.0000000+00:00</time></trkpt><trkpt lat="63.72404099" lon="-19.97184753"><ele>56.1</ele><time>2012-07-26T18:42:59.0000000+00:00</time></trkpt><trkpt lat="63.72412109" lon="-19.97251129"><ele>55.9</ele><time>2012-07-26T18:43:04.0000000+00:00</time></trkpt><trkpt lat="63.72421265" lon="-19.9731369"><ele>58.3</ele><time>2012-07-26T18:43:09.0000000+00:00</time></trkpt><trkpt lat="63.72430039" lon="-19.97369576"><ele>58.7</ele><time>2012-07-26T18:43:14.0000000+00:00</time></trkpt><trkpt lat="63.72437668" lon="-19.97416687"><ele>57.3</ele><time>2012-07-26T18:43:19.0000000+00:00</time></trkpt><trkpt lat="63.72445297" lon="-19.97461891"><ele>58.8</ele><time>2012-07-26T18:43:24.0000000+00:00</time></trkpt><trkpt lat="63.72454071" lon="-19.97511292"><ele>59.8</ele><time>2012-07-26T18:43:29.0000000+00:00</time></trkpt><trkpt lat="63.72463608" lon="-19.97559929"><ele>60.9</ele><time>2012-07-26T18:43:34.0000000+00:00</time></trkpt><trkpt lat="63.72472382" lon="-19.97605705"><ele>60.7</ele><time>2012-07-26T18:43:39.0000000+00:00</time></trkpt><trkpt lat="63.72480011" lon="-19.97642708"><ele>61.9</ele><time>2012-07-26T18:43:44.0000000+00:00</time></trkpt><trkpt lat="63.72488403" lon="-19.9768219"><ele>62.2</ele><time>2012-07-26T18:43:49.0000000+00:00</time></trkpt><trkpt lat="63.72496414" lon="-19.977211"><ele>63.0</ele><time>2012-07-26T18:43:54.0000000+00:00</time></trkpt><trkpt lat="63.72502518" lon="-19.97751045"><ele>63.3</ele><time>2012-07-26T18:43:59.0000000+00:00</time></trkpt><trkpt lat="63.72507477" lon="-19.97777557"><ele>63.1</ele><time>2012-07-26T18:44:04.0000000+00:00</time></trkpt><trkpt lat="63.72515869" lon="-19.97804451"><ele>64.4</ele><time>2012-07-26T18:44:09.0000000+00:00</time></trkpt><trkpt lat="63.72520828" lon="-19.97830391"><ele>63.6</ele><time>2012-07-26T18:44:14.0000000+00:00</time></trkpt><trkpt lat="63.7252655" lon="-19.97853088"><ele>64.6</ele><time>2012-07-26T18:44:19.0000000+00:00</time></trkpt><trkpt lat="63.72533798" lon="-19.9787941"><ele>65.4</ele><time>2012-07-26T18:44:24.0000000+00:00</time></trkpt><trkpt lat="63.72541046" lon="-19.97910309"><ele>67.0</ele><time>2012-07-26T18:44:29.0000000+00:00</time></trkpt><trkpt lat="63.72549439" lon="-19.97941208"><ele>67.9</ele><time>2012-07-26T18:44:34.0000000+00:00</time></trkpt><trkpt lat="63.72558212" lon="-19.97972298"><ele>70.2</ele><time>2012-07-26T18:44:39.0000000+00:00</time></trkpt><trkpt lat="63.72565842" lon="-19.98000526"><ele>71.4</ele><time>2012-07-26T18:44:44.0000000+00:00</time></trkpt><trkpt lat="63.72571945" lon="-19.98027039"><ele>69.5</ele><time>2012-07-26T18:44:49.0000000+00:00</time></trkpt><trkpt lat="63.72577667" lon="-19.98053169"><ele>68.4</ele><time>2012-07-26T18:44:54.0000000+00:00</time></trkpt><trkpt lat="63.72582626" lon="-19.980793"><ele>67.8</ele><time>2012-07-26T18:44:59.0000000+00:00</time></trkpt><trkpt lat="63.72589493" lon="-19.98109627"><ele>67.5</ele><time>2012-07-26T18:45:04.0000000+00:00</time></trkpt><trkpt lat="63.72597885" lon="-19.98140717"><ele>69.1</ele><time>2012-07-26T18:45:09.0000000+00:00</time></trkpt><trkpt lat="63.72602081" lon="-19.98163605"><ele>68.7</ele><time>2012-07-26T18:45:14.0000000+00:00</time></trkpt><trkpt lat="63.72605896" lon="-19.98181343"><ele>70.4</ele><time>2012-07-26T18:45:19.0000000+00:00</time></trkpt><trkpt lat="63.72610474" lon="-19.98197174"><ele>71.8</ele><time>2012-07-26T18:45:24.0000000+00:00</time></trkpt><trkpt lat="63.72615433" lon="-19.98213005"><ele>73.8</ele><time>2012-07-26T18:45:29.0000000+00:00</time></trkpt><trkpt lat="63.72621155" lon="-19.98232651"><ele>75.0</ele><time>2012-07-26T18:45:34.0000000+00:00</time></trkpt><trkpt lat="63.72626877" lon="-19.98254013"><ele>73.6</ele><time>2012-07-26T18:45:39.0000000+00:00</time></trkpt><trkpt lat="63.72632217" lon="-19.98276901"><ele>74.3</ele><time>2012-07-26T18:45:44.0000000+00:00</time></trkpt><trkpt lat="63.72636795" lon="-19.98295784"><ele>75.6</ele><time>2012-07-26T18:45:49.0000000+00:00</time></trkpt><trkpt lat="63.72642899" lon="-19.98320007"><ele>75.1</ele><time>2012-07-26T18:45:54.0000000+00:00</time></trkpt><trkpt lat="63.72649765" lon="-19.9834671"><ele>75.8</ele><time>2012-07-26T18:45:59.0000000+00:00</time></trkpt><trkpt lat="63.72655487" lon="-19.98375893"><ele>75.1</ele><time>2012-07-26T18:46:04.0000000+00:00</time></trkpt><trkpt lat="63.72661209" lon="-19.98402786"><ele>73.8</ele><time>2012-07-26T18:46:09.0000000+00:00</time></trkpt><trkpt lat="63.72666931" lon="-19.98428345"><ele>74.6</ele><time>2012-07-26T18:46:14.0000000+00:00</time></trkpt><trkpt lat="63.72674942" lon="-19.98457146"><ele>76.1</ele><time>2012-07-26T18:46:19.0000000+00:00</time></trkpt><trkpt lat="63.72682571" lon="-19.98491478"><ele>75.3</ele><time>2012-07-26T18:46:24.0000000+00:00</time></trkpt><trkpt lat="63.72688675" lon="-19.98526382"><ele>74.0</ele><time>2012-07-26T18:46:29.0000000+00:00</time></trkpt><trkpt lat="63.72695541" lon="-19.98562813"><ele>73.8</ele><time>2012-07-26T18:46:34.0000000+00:00</time></trkpt><trkpt lat="63.72703171" lon="-19.98601341"><ele>73.0</ele><time>2012-07-26T18:46:39.0000000+00:00</time></trkpt><trkpt lat="63.72709656" lon="-19.98643303"><ele>70.9</ele><time>2012-07-26T18:46:44.0000000+00:00</time></trkpt><trkpt lat="63.72717285" lon="-19.98684692"><ele>69.6</ele><time>2012-07-26T18:46:49.0000000+00:00</time></trkpt><trkpt lat="63.72725678" lon="-19.98730469"><ele>70.8</ele><time>2012-07-26T18:46:54.0000000+00:00</time></trkpt><trkpt lat="63.72732925" lon="-19.98780632"><ele>71.2</ele><time>2012-07-26T18:46:59.0000000+00:00</time></trkpt><trkpt lat="63.72742081" lon="-19.98832703"><ele>70.3</ele><time>2012-07-26T18:47:04.0000000+00:00</time></trkpt><trkpt lat="63.72748566" lon="-19.98886871"><ele>72.4</ele><time>2012-07-26T18:47:09.0000000+00:00</time></trkpt><trkpt lat="63.72755432" lon="-19.98939705"><ele>70.9</ele><time>2012-07-26T18:47:14.0000000+00:00</time></trkpt><trkpt lat="63.72761917" lon="-19.98990059"><ele>69.9</ele><time>2012-07-26T18:47:19.0000000+00:00</time></trkpt><trkpt lat="63.72768021" lon="-19.99034309"><ele>69.1</ele><time>2012-07-26T18:47:24.0000000+00:00</time></trkpt><trkpt lat="63.72772598" lon="-19.99076653"><ele>69.5</ele><time>2012-07-26T18:47:29.0000000+00:00</time></trkpt><trkpt lat="63.7277565" lon="-19.99119377"><ele>70.6</ele><time>2012-07-26T18:47:34.0000000+00:00</time></trkpt><trkpt lat="63.72780228" lon="-19.99157715"><ele>71.1</ele><time>2012-07-26T18:47:39.0000000+00:00</time></trkpt><trkpt lat="63.72784805" lon="-19.99194527"><ele>70.1</ele><time>2012-07-26T18:47:44.0000000+00:00</time></trkpt><trkpt lat="63.72787857" lon="-19.99236679"><ele>70.1</ele><time>2012-07-26T18:47:49.0000000+00:00</time></trkpt><trkpt lat="63.72789764" lon="-19.99271774"><ele>69.0</ele><time>2012-07-26T18:47:54.0000000+00:00</time></trkpt><trkpt lat="63.72791672" lon="-19.99303627"><ele>68.7</ele><time>2012-07-26T18:47:59.0000000+00:00</time></trkpt><trkpt lat="63.72795105" lon="-19.99344063"><ele>69.8</ele><time>2012-07-26T18:48:04.0000000+00:00</time></trkpt><trkpt lat="63.72798538" lon="-19.99388886"><ele>71.0</ele><time>2012-07-26T18:48:09.0000000+00:00</time></trkpt><trkpt lat="63.72801209" lon="-19.9943924"><ele>69.6</ele><time>2012-07-26T18:48:14.0000000+00:00</time></trkpt><trkpt lat="63.7280426" lon="-19.99481583"><ele>67.6</ele><time>2012-07-26T18:48:19.0000000+00:00</time></trkpt><trkpt lat="63.72808075" lon="-19.9951992"><ele>67.2</ele><time>2012-07-26T18:48:24.0000000+00:00</time></trkpt><trkpt lat="63.72809219" lon="-19.99559212"><ele>70.1</ele><time>2012-07-26T18:48:29.0000000+00:00</time></trkpt><trkpt lat="63.72812653" lon="-19.99601173"><ele>70.9</ele><time>2012-07-26T18:48:34.0000000+00:00</time></trkpt><trkpt lat="63.72816849" lon="-19.99648094"><ele>71.2</ele><time>2012-07-26T18:48:39.0000000+00:00</time></trkpt><trkpt lat="63.72819519" lon="-19.99695015"><ele>73.3</ele><time>2012-07-26T18:48:44.0000000+00:00</time></trkpt><trkpt lat="63.72823334" lon="-19.99741745"><ele>72.1</ele><time>2012-07-26T18:48:49.0000000+00:00</time></trkpt><trkpt lat="63.72825241" lon="-19.99789238"><ele>71.5</ele><time>2012-07-26T18:48:54.0000000+00:00</time></trkpt><trkpt lat="63.72828674" lon="-19.99837112"><ele>68.3</ele><time>2012-07-26T18:48:59.0000000+00:00</time></trkpt><trkpt lat="63.72832108" lon="-19.99884224"><ele>65.9</ele><time>2012-07-26T18:49:04.0000000+00:00</time></trkpt><trkpt lat="63.72835159" lon="-19.99929237"><ele>67.3</ele><time>2012-07-26T18:49:09.0000000+00:00</time></trkpt><trkpt lat="63.72838593" lon="-19.99972534"><ele>68.4</ele><time>2012-07-26T18:49:14.0000000+00:00</time></trkpt><trkpt lat="63.72842407" lon="-20.00012207"><ele>68.0</ele><time>2012-07-26T18:49:19.0000000+00:00</time></trkpt><trkpt lat="63.72844315" lon="-20.00053215"><ele>71.0</ele><time>2012-07-26T18:49:24.0000000+00:00</time></trkpt><trkpt lat="63.72846603" lon="-20.00096321"><ele>68.7</ele><time>2012-07-26T18:49:29.0000000+00:00</time></trkpt><trkpt lat="63.72849655" lon="-20.00138664"><ele>67.5</ele><time>2012-07-26T18:49:34.0000000+00:00</time></trkpt><trkpt lat="63.72853088" lon="-20.00181007"><ele>65.7</ele><time>2012-07-26T18:49:39.0000000+00:00</time></trkpt><trkpt lat="63.72855377" lon="-20.0022316"><ele>70.5</ele><time>2012-07-26T18:49:44.0000000+00:00</time></trkpt><trkpt lat="63.72855759" lon="-20.00254631"><ele>70.6</ele><time>2012-07-26T18:49:49.0000000+00:00</time></trkpt><trkpt lat="63.72857666" lon="-20.002882"><ele>71.4</ele><time>2012-07-26T18:49:54.0000000+00:00</time></trkpt><trkpt lat="63.72860336" lon="-20.00325966"><ele>69.9</ele><time>2012-07-26T18:49:59.0000000+00:00</time></trkpt><trkpt lat="63.72862625" lon="-20.00366211"><ele>73.6</ele><time>2012-07-26T18:50:04.0000000+00:00</time></trkpt><trkpt lat="63.72866058" lon="-20.00409317"><ele>75.4</ele><time>2012-07-26T18:50:09.0000000+00:00</time></trkpt><trkpt lat="63.72868729" lon="-20.00447464"><ele>75.2</ele><time>2012-07-26T18:50:14.0000000+00:00</time></trkpt><trkpt lat="63.72871399" lon="-20.00484276"><ele>76.6</ele><time>2012-07-26T18:50:19.0000000+00:00</time></trkpt><trkpt lat="63.72875214" lon="-20.00525093"><ele>72.9</ele><time>2012-07-26T18:50:24.0000000+00:00</time></trkpt><trkpt lat="63.72879791" lon="-20.00569916"><ele>69.4</ele><time>2012-07-26T18:50:29.0000000+00:00</time></trkpt><trkpt lat="63.72883225" lon="-20.00613403"><ele>67.5</ele><time>2012-07-26T18:50:34.0000000+00:00</time></trkpt><trkpt lat="63.7288475" lon="-20.00650024"><ele>67.4</ele><time>2012-07-26T18:50:39.0000000+00:00</time></trkpt><trkpt lat="63.72887421" lon="-20.00689316"><ele>64.0</ele><time>2012-07-26T18:50:44.0000000+00:00</time></trkpt><trkpt lat="63.72889328" lon="-20.00720787"><ele>66.4</ele><time>2012-07-26T18:50:49.0000000+00:00</time></trkpt><trkpt lat="63.72891235" lon="-20.00757217"><ele>66.3</ele><time>2012-07-26T18:50:54.0000000+00:00</time></trkpt><trkpt lat="63.72893906" lon="-20.00798798"><ele>67.8</ele><time>2012-07-26T18:50:59.0000000+00:00</time></trkpt><trkpt lat="63.72896576" lon="-20.00835419"><ele>69.3</ele><time>2012-07-26T18:51:04.0000000+00:00</time></trkpt><trkpt lat="63.72898865" lon="-20.00868416"><ele>69.3</ele><time>2012-07-26T18:51:09.0000000+00:00</time></trkpt><trkpt lat="63.72900772" lon="-20.00906754"><ele>72.3</ele><time>2012-07-26T18:51:14.0000000+00:00</time></trkpt><trkpt lat="63.72904587" lon="-20.00948143"><ele>70.9</ele><time>2012-07-26T18:51:19.0000000+00:00</time></trkpt><trkpt lat="63.7290802" lon="-20.00995445"><ele>66.9</ele><time>2012-07-26T18:51:24.0000000+00:00</time></trkpt><trkpt lat="63.72911072" lon="-20.0104084"><ele>66.6</ele><time>2012-07-26T18:51:29.0000000+00:00</time></trkpt><trkpt lat="63.72914887" lon="-20.01079559"><ele>65.4</ele><time>2012-07-26T18:51:34.0000000+00:00</time></trkpt><trkpt lat="63.72917557" lon="-20.01123238"><ele>66.4</ele><time>2012-07-26T18:51:39.0000000+00:00</time></trkpt><trkpt lat="63.7292099" lon="-20.01167488"><ele>68.5</ele><time>2012-07-26T18:51:44.0000000+00:00</time></trkpt><trkpt lat="63.72923279" lon="-20.01214409"><ele>69.2</ele><time>2012-07-26T18:51:49.0000000+00:00</time></trkpt><trkpt lat="63.72927856" lon="-20.01261902"><ele>67.7</ele><time>2012-07-26T18:51:54.0000000+00:00</time></trkpt><trkpt lat="63.72930527" lon="-20.01307488"><ele>66.5</ele><time>2012-07-26T18:51:59.0000000+00:00</time></trkpt><trkpt lat="63.72933579" lon="-20.01352692"><ele>65.5</ele><time>2012-07-26T18:52:04.0000000+00:00</time></trkpt><trkpt lat="63.72937393" lon="-20.0139904"><ele>65.2</ele><time>2012-07-26T18:52:09.0000000+00:00</time></trkpt><trkpt lat="63.72941208" lon="-20.01449204"><ele>65.3</ele><time>2012-07-26T18:52:14.0000000+00:00</time></trkpt><trkpt lat="63.7294426" lon="-20.01501274"><ele>64.2</ele><time>2012-07-26T18:52:19.0000000+00:00</time></trkpt><trkpt lat="63.72946549" lon="-20.01553345"><ele>65.7</ele><time>2012-07-26T18:52:24.0000000+00:00</time></trkpt><trkpt lat="63.72949982" lon="-20.01600838"><ele>65.7</ele><time>2012-07-26T18:52:29.0000000+00:00</time></trkpt><trkpt lat="63.72952271" lon="-20.01645088"><ele>67.4</ele><time>2012-07-26T18:52:34.0000000+00:00</time></trkpt><trkpt lat="63.72954178" lon="-20.01691055"><ele>67.2</ele><time>2012-07-26T18:52:39.0000000+00:00</time></trkpt><trkpt lat="63.72958374" lon="-20.01734543"><ele>67.4</ele><time>2012-07-26T18:52:44.0000000+00:00</time></trkpt><trkpt lat="63.72961807" lon="-20.01780891"><ele>67.8</ele><time>2012-07-26T18:52:49.0000000+00:00</time></trkpt><trkpt lat="63.72964859" lon="-20.01828575"><ele>68.7</ele><time>2012-07-26T18:52:54.0000000+00:00</time></trkpt><trkpt lat="63.72968292" lon="-20.0187397"><ele>66.9</ele><time>2012-07-26T18:52:59.0000000+00:00</time></trkpt><trkpt lat="63.72970963" lon="-20.01918793"><ele>66.5</ele><time>2012-07-26T18:53:04.0000000+00:00</time></trkpt><trkpt lat="63.72974777" lon="-20.01967239"><ele>65.9</ele><time>2012-07-26T18:53:09.0000000+00:00</time></trkpt><trkpt lat="63.7297821" lon="-20.02015877"><ele>65.9</ele><time>2012-07-26T18:53:14.0000000+00:00</time></trkpt><trkpt lat="63.72981262" lon="-20.02061081"><ele>64.4</ele><time>2012-07-26T18:53:19.0000000+00:00</time></trkpt><trkpt lat="63.72984695" lon="-20.02110481"><ele>64.7</ele><time>2012-07-26T18:53:24.0000000+00:00</time></trkpt><trkpt lat="63.72988129" lon="-20.02159882"><ele>63.1</ele><time>2012-07-26T18:53:29.0000000+00:00</time></trkpt><trkpt lat="63.72990418" lon="-20.02198601"><ele>62.9</ele><time>2012-07-26T18:53:34.0000000+00:00</time></trkpt><trkpt lat="63.72991943" lon="-20.02232361"><ele>65.3</ele><time>2012-07-26T18:53:39.0000000+00:00</time></trkpt><trkpt lat="63.72994614" lon="-20.02275276"><ele>65.5</ele><time>2012-07-26T18:53:44.0000000+00:00</time></trkpt><trkpt lat="63.7299881" lon="-20.02323341"><ele>64.4</ele><time>2012-07-26T18:53:49.0000000+00:00</time></trkpt><trkpt lat="63.73001862" lon="-20.02368736"><ele>65.3</ele><time>2012-07-26T18:53:54.0000000+00:00</time></trkpt><trkpt lat="63.73004913" lon="-20.02415466"><ele>65.5</ele><time>2012-07-26T18:53:59.0000000+00:00</time></trkpt><trkpt lat="63.73007965" lon="-20.02459908"><ele>65.6</ele><time>2012-07-26T18:54:04.0000000+00:00</time></trkpt><trkpt lat="63.73011398" lon="-20.02509117"><ele>66.4</ele><time>2012-07-26T18:54:09.0000000+00:00</time></trkpt><trkpt lat="63.73014832" lon="-20.02561951"><ele>66.6</ele><time>2012-07-26T18:54:14.0000000+00:00</time></trkpt><trkpt lat="63.73019028" lon="-20.02610207"><ele>66.4</ele><time>2012-07-26T18:54:19.0000000+00:00</time></trkpt><trkpt lat="63.73022461" lon="-20.02653694"><ele>67.1</ele><time>2012-07-26T18:54:24.0000000+00:00</time></trkpt><trkpt lat="63.73025513" lon="-20.02698708"><ele>65.7</ele><time>2012-07-26T18:54:29.0000000+00:00</time></trkpt><trkpt lat="63.73027802" lon="-20.02741432"><ele>66.4</ele><time>2012-07-26T18:54:34.0000000+00:00</time></trkpt><trkpt lat="63.73029327" lon="-20.02772903"><ele>65.8</ele><time>2012-07-26T18:54:39.0000000+00:00</time></trkpt><trkpt lat="63.73029709" lon="-20.02780533"><ele>65.9</ele><time>2012-07-26T18:54:44.0000000+00:00</time></trkpt><trkpt lat="63.73029327" lon="-20.02781296"><ele>66.5</ele><time>2012-07-26T18:54:49.0000000+00:00</time></trkpt><trkpt lat="63.73029327" lon="-20.02781296"><ele>66.5</ele><time>2012-07-26T18:54:54.0000000+00:00</time></trkpt><trkpt lat="63.73029709" lon="-20.02783203"><ele>66.5</ele><time>2012-07-26T18:54:59.0000000+00:00</time></trkpt><trkpt lat="63.73031998" lon="-20.02799416"><ele>67.5</ele><time>2012-07-26T18:55:04.0000000+00:00</time></trkpt><trkpt lat="63.73031616" lon="-20.02799606"><ele>68.6</ele><time>2012-07-26T18:55:09.0000000+00:00</time></trkpt><trkpt lat="63.73031998" lon="-20.02799606"><ele>68.8</ele><time>2012-07-26T18:55:14.0000000+00:00</time></trkpt><trkpt lat="63.73031998" lon="-20.02799606"><ele>68.8</ele><time>2012-07-26T18:55:19.0000000+00:00</time></trkpt><trkpt lat="63.73031998" lon="-20.02799606"><ele>68.8</ele><time>2012-07-26T18:55:24.0000000+00:00</time></trkpt><trkpt lat="63.73031998" lon="-20.02799606"><ele>68.8</ele><time>2012-07-26T18:55:29.0000000+00:00</time></trkpt><trkpt lat="63.73031998" lon="-20.02799797"><ele>68.8</ele><time>2012-07-26T18:55:34.0000000+00:00</time></trkpt><trkpt lat="63.73031998" lon="-20.02799606"><ele>68.8</ele><time>2012-07-26T18:55:39.0000000+00:00</time></trkpt><trkpt lat="63.73031998" lon="-20.02799797"><ele>68.8</ele><time>2012-07-26T18:55:44.0000000+00:00</time></trkpt><trkpt lat="63.73031998" lon="-20.02799797"><ele>68.8</ele><time>2012-07-26T18:55:49.0000000+00:00</time></trkpt><trkpt lat="63.73031998" lon="-20.02799797"><ele>68.8</ele><time>2012-07-26T18:55:54.0000000+00:00</time></trkpt><trkpt lat="63.73031998" lon="-20.02799797"><ele>68.8</ele><time>2012-07-26T18:55:59.0000000+00:00</time></trkpt><trkpt lat="63.73031998" lon="-20.02799797"><ele>68.8</ele><time>2012-07-26T18:56:04.0000000+00:00</time></trkpt><trkpt lat="63.73031998" lon="-20.02799797"><ele>68.8</ele><time>2012-07-26T18:56:09.0000000+00:00</time></trkpt><trkpt lat="63.73031998" lon="-20.02799797"><ele>68.8</ele><time>2012-07-26T18:56:14.0000000+00:00</time></trkpt><trkpt lat="63.73031998" lon="-20.02799797"><ele>68.8</ele><time>2012-07-26T18:56:19.0000000+00:00</time></trkpt><trkpt lat="63.73031998" lon="-20.02799797"><ele>68.8</ele><time>2012-07-26T18:56:24.0000000+00:00</time></trkpt><trkpt lat="63.73031998" lon="-20.02799797"><ele>68.8</ele><time>2012-07-26T18:56:29.0000000+00:00</time></trkpt><trkpt lat="63.73031998" lon="-20.02799797"><ele>68.8</ele><time>2012-07-26T18:56:34.0000000+00:00</time></trkpt><trkpt lat="63.73029327" lon="-20.02800751"><ele>69.1</ele><time>2012-07-26T18:56:39.0000000+00:00</time></trkpt><trkpt lat="63.73027039" lon="-20.0279808"><ele>69.0</ele><time>2012-07-26T18:56:44.0000000+00:00</time></trkpt><trkpt lat="63.73027039" lon="-20.0279808"><ele>69.2</ele><time>2012-07-26T18:56:49.0000000+00:00</time></trkpt><trkpt lat="63.73026657" lon="-20.0279789"><ele>69.3</ele><time>2012-07-26T18:56:54.0000000+00:00</time></trkpt><trkpt lat="63.73027039" lon="-20.0279789"><ele>69.3</ele><time>2012-07-26T18:56:59.0000000+00:00</time></trkpt><trkpt lat="63.73027039" lon="-20.0279789"><ele>69.3</ele><time>2012-07-26T18:57:04.0000000+00:00</time></trkpt><trkpt lat="63.73026657" lon="-20.0279789"><ele>69.3</ele><time>2012-07-26T18:57:09.0000000+00:00</time></trkpt><trkpt lat="63.73026657" lon="-20.0279789"><ele>69.3</ele><time>2012-07-26T18:57:14.0000000+00:00</time></trkpt><trkpt lat="63.73026657" lon="-20.0279789"><ele>69.3</ele><time>2012-07-26T18:57:19.0000000+00:00</time></trkpt><trkpt lat="63.73026657" lon="-20.0279789"><ele>69.3</ele><time>2012-07-26T18:57:24.0000000+00:00</time></trkpt><trkpt lat="63.73026657" lon="-20.0279808"><ele>69.3</ele><time>2012-07-26T18:57:29.0000000+00:00</time></trkpt><trkpt lat="63.73026657" lon="-20.0279808"><ele>69.3</ele><time>2012-07-26T18:57:34.0000000+00:00</time></trkpt><trkpt lat="63.73026657" lon="-20.0279808"><ele>69.3</ele><time>2012-07-26T18:57:39.0000000+00:00</time></trkpt><trkpt lat="63.73026657" lon="-20.0279808"><ele>69.3</ele><time>2012-07-26T18:57:44.0000000+00:00</time></trkpt><trkpt lat="63.73026657" lon="-20.0279808"><ele>69.3</ele><time>2012-07-26T18:57:49.0000000+00:00</time></trkpt><trkpt lat="63.73026657" lon="-20.0279808"><ele>69.3</ele><time>2012-07-26T18:57:54.0000000+00:00</time></trkpt><trkpt lat="63.73026657" lon="-20.02797699"><ele>69.3</ele><time>2012-07-26T18:57:59.0000000+00:00</time></trkpt><trkpt lat="63.73026276" lon="-20.02794838"><ele>69.5</ele><time>2012-07-26T18:58:04.0000000+00:00</time></trkpt><trkpt lat="63.73020935" lon="-20.02783394"><ele>68.7</ele><time>2012-07-26T18:58:09.0000000+00:00</time></trkpt><trkpt lat="63.73015976" lon="-20.02778053"><ele>68.5</ele><time>2012-07-26T18:58:14.0000000+00:00</time></trkpt><trkpt lat="63.73015595" lon="-20.02778053"><ele>68.5</ele><time>2012-07-26T18:58:19.0000000+00:00</time></trkpt><trkpt lat="63.73015595" lon="-20.02778053"><ele>68.6</ele><time>2012-07-26T18:58:24.0000000+00:00</time></trkpt><trkpt lat="63.73015213" lon="-20.02776718"><ele>69.0</ele><time>2012-07-26T18:58:29.0000000+00:00</time></trkpt><trkpt lat="63.7301445" lon="-20.02773857"><ele>69.6</ele><time>2012-07-26T18:58:34.0000000+00:00</time></trkpt><trkpt lat="63.73014832" lon="-20.02774048"><ele>69.6</ele><time>2012-07-26T18:58:39.0000000+00:00</time></trkpt><trkpt lat="63.73014832" lon="-20.02774048"><ele>69.5</ele><time>2012-07-26T18:58:44.0000000+00:00</time></trkpt><trkpt lat="63.73014832" lon="-20.02774048"><ele>69.5</ele><time>2012-07-26T18:58:49.0000000+00:00</time></trkpt><trkpt lat="63.73014832" lon="-20.02774048"><ele>69.5</ele><time>2012-07-26T18:58:54.0000000+00:00</time></trkpt><trkpt lat="63.73013687" lon="-20.02773094"><ele>69.4</ele><time>2012-07-26T18:58:59.0000000+00:00</time></trkpt><trkpt lat="63.73013687" lon="-20.02773094"><ele>69.1</ele><time>2012-07-26T18:59:04.0000000+00:00</time></trkpt><trkpt lat="63.73013687" lon="-20.02773094"><ele>69.1</ele><time>2012-07-26T18:59:09.0000000+00:00</time></trkpt><trkpt lat="63.73013687" lon="-20.02773094"><ele>69.1</ele><time>2012-07-26T18:59:14.0000000+00:00</time></trkpt><trkpt lat="63.73013687" lon="-20.02773094"><ele>69.1</ele><time>2012-07-26T18:59:19.0000000+00:00</time></trkpt><trkpt lat="63.73013687" lon="-20.02773094"><ele>69.1</ele><time>2012-07-26T18:59:24.0000000+00:00</time></trkpt><trkpt lat="63.73013687" lon="-20.02773094"><ele>69.1</ele><time>2012-07-26T18:59:29.0000000+00:00</time></trkpt><trkpt lat="63.73013687" lon="-20.02773094"><ele>69.1</ele><time>2012-07-26T18:59:34.0000000+00:00</time></trkpt><trkpt lat="63.73013687" lon="-20.02773094"><ele>69.1</ele><time>2012-07-26T18:59:39.0000000+00:00</time></trkpt><trkpt lat="63.73013687" lon="-20.02773094"><ele>69.2</ele><time>2012-07-26T18:59:44.0000000+00:00</time></trkpt><trkpt lat="63.73013687" lon="-20.02773094"><ele>69.2</ele><time>2012-07-26T18:59:49.0000000+00:00</time></trkpt><trkpt lat="63.73013687" lon="-20.02773285"><ele>69.2</ele><time>2012-07-26T18:59:54.0000000+00:00</time></trkpt><trkpt lat="63.73013687" lon="-20.02773285"><ele>69.2</ele><time>2012-07-26T18:59:59.0000000+00:00</time></trkpt><trkpt lat="63.73013687" lon="-20.02773285"><ele>69.2</ele><time>2012-07-26T19:00:04.0000000+00:00</time></trkpt><trkpt lat="63.73013687" lon="-20.02773094"><ele>69.2</ele><time>2012-07-26T19:00:09.0000000+00:00</time></trkpt><trkpt lat="63.73013687" lon="-20.02773094"><ele>69.2</ele><time>2012-07-26T19:00:14.0000000+00:00</time></trkpt><trkpt lat="63.73013687" lon="-20.02772903"><ele>69.2</ele><time>2012-07-26T19:00:19.0000000+00:00</time></trkpt><trkpt lat="63.73013687" lon="-20.02772903"><ele>69.2</ele><time>2012-07-26T19:00:24.0000000+00:00</time></trkpt><trkpt lat="63.73013687" lon="-20.02772903"><ele>69.2</ele><time>2012-07-26T19:00:29.0000000+00:00</time></trkpt><trkpt lat="63.73013687" lon="-20.02772903"><ele>69.2</ele><time>2012-07-26T19:00:34.0000000+00:00</time></trkpt><trkpt lat="63.73013687" lon="-20.02772903"><ele>69.2</ele><time>2012-07-26T19:00:39.0000000+00:00</time></trkpt><trkpt lat="63.73013306" lon="-20.02772903"><ele>69.2</ele><time>2012-07-26T19:00:44.0000000+00:00</time></trkpt><trkpt lat="63.73013306" lon="-20.02772903"><ele>69.2</ele><time>2012-07-26T19:00:49.0000000+00:00</time></trkpt><trkpt lat="63.73013306" lon="-20.02772903"><ele>69.2</ele><time>2012-07-26T19:00:54.0000000+00:00</time></trkpt><trkpt lat="63.73013306" lon="-20.02772903"><ele>69.2</ele><time>2012-07-26T19:00:59.0000000+00:00</time></trkpt><trkpt lat="63.73013306" lon="-20.02772903"><ele>69.2</ele><time>2012-07-26T19:01:04.0000000+00:00</time></trkpt><trkpt lat="63.73013306" lon="-20.02772903"><ele>69.2</ele><time>2012-07-26T19:01:09.0000000+00:00</time></trkpt><trkpt lat="63.73013306" lon="-20.02772903"><ele>69.2</ele><time>2012-07-26T19:01:14.0000000+00:00</time></trkpt><trkpt lat="63.73013306" lon="-20.02772903"><ele>69.2</ele><time>2012-07-26T19:01:19.0000000+00:00</time></trkpt><trkpt lat="63.73013306" lon="-20.02772903"><ele>69.2</ele><time>2012-07-26T19:01:24.0000000+00:00</time></trkpt><trkpt lat="63.73013306" lon="-20.02775192"><ele>69.6</ele><time>2012-07-26T19:01:29.0000000+00:00</time></trkpt><trkpt lat="63.73015976" lon="-20.02773857"><ele>69.5</ele><time>2012-07-26T19:01:34.0000000+00:00</time></trkpt><trkpt lat="63.73016357" lon="-20.02774429"><ele>69.9</ele><time>2012-07-26T19:01:39.0000000+00:00</time></trkpt><trkpt lat="63.7301712" lon="-20.02773666"><ele>70.5</ele><time>2012-07-26T19:01:44.0000000+00:00</time></trkpt><trkpt lat="63.7301712" lon="-20.02773666"><ele>70.6</ele><time>2012-07-26T19:01:49.0000000+00:00</time></trkpt><trkpt lat="63.73017883" lon="-20.0277462"><ele>70.6</ele><time>2012-07-26T19:01:54.0000000+00:00</time></trkpt><trkpt lat="63.73024368" lon="-20.02786446"><ele>71.0</ele><time>2012-07-26T19:01:59.0000000+00:00</time></trkpt><trkpt lat="63.73028946" lon="-20.02809906"><ele>72.2</ele><time>2012-07-26T19:02:04.0000000+00:00</time></trkpt><trkpt lat="63.73031616" lon="-20.02839851"><ele>72.1</ele><time>2012-07-26T19:02:09.0000000+00:00</time></trkpt><trkpt lat="63.73034668" lon="-20.02883148"><ele>69.4</ele><time>2012-07-26T19:02:14.0000000+00:00</time></trkpt><trkpt lat="63.73038101" lon="-20.02929115"><ele>69.4</ele><time>2012-07-26T19:02:19.0000000+00:00</time></trkpt><trkpt lat="63.73042297" lon="-20.0297966"><ele>69.7</ele><time>2012-07-26T19:02:24.0000000+00:00</time></trkpt><trkpt lat="63.73045731" lon="-20.03029823"><ele>70.1</ele><time>2012-07-26T19:02:29.0000000+00:00</time></trkpt><trkpt lat="63.73048782" lon="-20.03075028"><ele>69.2</ele><time>2012-07-26T19:02:34.0000000+00:00</time></trkpt><trkpt lat="63.73052597" lon="-20.03120804"><ele>68.2</ele><time>2012-07-26T19:02:39.0000000+00:00</time></trkpt><trkpt lat="63.73055649" lon="-20.03167725"><ele>67.9</ele><time>2012-07-26T19:02:44.0000000+00:00</time></trkpt><trkpt lat="63.73058701" lon="-20.03217888"><ele>66.5</ele><time>2012-07-26T19:02:49.0000000+00:00</time></trkpt><trkpt lat="63.73062134" lon="-20.03268623"><ele>66.0</ele><time>2012-07-26T19:02:54.0000000+00:00</time></trkpt><trkpt lat="63.73065567" lon="-20.03319359"><ele>65.6</ele><time>2012-07-26T19:02:59.0000000+00:00</time></trkpt><trkpt lat="63.73069763" lon="-20.03369141"><ele>64.1</ele><time>2012-07-26T19:03:04.0000000+00:00</time></trkpt><trkpt lat="63.73073196" lon="-20.03417778"><ele>61.5</ele><time>2012-07-26T19:03:09.0000000+00:00</time></trkpt><trkpt lat="63.7307663" lon="-20.03468895"><ele>61.7</ele><time>2012-07-26T19:03:14.0000000+00:00</time></trkpt><trkpt lat="63.73080444" lon="-20.03520203"><ele>62.6</ele><time>2012-07-26T19:03:19.0000000+00:00</time></trkpt><trkpt lat="63.73083878" lon="-20.03566742"><ele>61.2</ele><time>2012-07-26T19:03:24.0000000+00:00</time></trkpt><trkpt lat="63.73086548" lon="-20.03613281"><ele>59.2</ele><time>2012-07-26T19:03:29.0000000+00:00</time></trkpt><trkpt lat="63.73089981" lon="-20.0365696"><ele>58.2</ele><time>2012-07-26T19:03:34.0000000+00:00</time></trkpt><trkpt lat="63.73093414" lon="-20.03697395"><ele>59.1</ele><time>2012-07-26T19:03:39.0000000+00:00</time></trkpt><trkpt lat="63.73094559" lon="-20.03722954"><ele>59.3</ele><time>2012-07-26T19:03:44.0000000+00:00</time></trkpt><trkpt lat="63.73095703" lon="-20.03739739"><ele>60.6</ele><time>2012-07-26T19:03:49.0000000+00:00</time></trkpt><trkpt lat="63.73096848" lon="-20.03756905"><ele>60.3</ele><time>2012-07-26T19:03:54.0000000+00:00</time></trkpt><trkpt lat="63.73097229" lon="-20.03772926"><ele>60.4</ele><time>2012-07-26T19:03:59.0000000+00:00</time></trkpt><trkpt lat="63.73097992" lon="-20.03791046"><ele>58.9</ele><time>2012-07-26T19:04:04.0000000+00:00</time></trkpt><trkpt lat="63.73099136" lon="-20.0381012"><ele>59.4</ele><time>2012-07-26T19:04:09.0000000+00:00</time></trkpt><trkpt lat="63.73101807" lon="-20.03834343"><ele>59.5</ele><time>2012-07-26T19:04:14.0000000+00:00</time></trkpt><trkpt lat="63.73104096" lon="-20.03869057"><ele>58.7</ele><time>2012-07-26T19:04:19.0000000+00:00</time></trkpt><trkpt lat="63.73106766" lon="-20.03905678"><ele>57.7</ele><time>2012-07-26T19:04:24.0000000+00:00</time></trkpt><trkpt lat="63.73108673" lon="-20.03938866"><ele>54.2</ele><time>2012-07-26T19:04:29.0000000+00:00</time></trkpt><trkpt lat="63.7311058" lon="-20.03972054"><ele>53.8</ele><time>2012-07-26T19:04:34.0000000+00:00</time></trkpt><trkpt lat="63.73114014" lon="-20.04016876"><ele>53.7</ele><time>2012-07-26T19:04:39.0000000+00:00</time></trkpt><trkpt lat="63.73117828" lon="-20.0406704"><ele>53.7</ele><time>2012-07-26T19:04:44.0000000+00:00</time></trkpt><trkpt lat="63.73121262" lon="-20.04118538"><ele>52.6</ele><time>2012-07-26T19:04:49.0000000+00:00</time></trkpt><trkpt lat="63.73124695" lon="-20.04169273"><ele>53.1</ele><time>2012-07-26T19:04:54.0000000+00:00</time></trkpt><trkpt lat="63.7312851" lon="-20.04215813"><ele>53.8</ele><time>2012-07-26T19:04:59.0000000+00:00</time></trkpt><trkpt lat="63.73132324" lon="-20.0426445"><ele>53.8</ele><time>2012-07-26T19:05:04.0000000+00:00</time></trkpt><trkpt lat="63.73135376" lon="-20.04310989"><ele>54.1</ele><time>2012-07-26T19:05:09.0000000+00:00</time></trkpt><trkpt lat="63.73137665" lon="-20.04358101"><ele>54.1</ele><time>2012-07-26T19:05:14.0000000+00:00</time></trkpt><trkpt lat="63.7314148" lon="-20.04408455"><ele>54.7</ele><time>2012-07-26T19:05:19.0000000+00:00</time></trkpt><trkpt lat="63.7314415" lon="-20.04458427"><ele>53.7</ele><time>2012-07-26T19:05:24.0000000+00:00</time></trkpt><trkpt lat="63.73148727" lon="-20.04507828"><ele>53.2</ele><time>2012-07-26T19:05:29.0000000+00:00</time></trkpt><trkpt lat="63.73151779" lon="-20.04554939"><ele>52.9</ele><time>2012-07-26T19:05:34.0000000+00:00</time></trkpt><trkpt lat="63.7315445" lon="-20.04603005"><ele>52.7</ele><time>2012-07-26T19:05:39.0000000+00:00</time></trkpt><trkpt lat="63.73156738" lon="-20.0465107"><ele>50.9</ele><time>2012-07-26T19:05:44.0000000+00:00</time></trkpt><trkpt lat="63.73159027" lon="-20.04696846"><ele>49.5</ele><time>2012-07-26T19:05:49.0000000+00:00</time></trkpt><trkpt lat="63.73162842" lon="-20.04745674"><ele>49.4</ele><time>2012-07-26T19:05:54.0000000+00:00</time></trkpt><trkpt lat="63.73166657" lon="-20.04802704"><ele>49.4</ele><time>2012-07-26T19:05:59.0000000+00:00</time></trkpt><trkpt lat="63.73168945" lon="-20.04866409"><ele>49.7</ele><time>2012-07-26T19:06:04.0000000+00:00</time></trkpt><trkpt lat="63.73174667" lon="-20.04927635"><ele>51.0</ele><time>2012-07-26T19:06:09.0000000+00:00</time></trkpt><trkpt lat="63.73180008" lon="-20.04980469"><ele>51.4</ele><time>2012-07-26T19:06:14.0000000+00:00</time></trkpt><trkpt lat="63.73185349" lon="-20.05032158"><ele>50.7</ele><time>2012-07-26T19:06:19.0000000+00:00</time></trkpt><trkpt lat="63.73190308" lon="-20.05084992"><ele>50.7</ele><time>2012-07-26T19:06:24.0000000+00:00</time></trkpt><trkpt lat="63.73193741" lon="-20.05130005"><ele>50.8</ele><time>2012-07-26T19:06:29.0000000+00:00</time></trkpt><trkpt lat="63.73195648" lon="-20.05164909"><ele>51.9</ele><time>2012-07-26T19:06:34.0000000+00:00</time></trkpt><trkpt lat="63.73199463" lon="-20.05201149"><ele>51.6</ele><time>2012-07-26T19:06:39.0000000+00:00</time></trkpt><trkpt lat="63.73201752" lon="-20.05244064"><ele>51.1</ele><time>2012-07-26T19:06:44.0000000+00:00</time></trkpt><trkpt lat="63.73204422" lon="-20.05290031"><ele>50.3</ele><time>2012-07-26T19:06:49.0000000+00:00</time></trkpt><trkpt lat="63.73208237" lon="-20.05328178"><ele>51.0</ele><time>2012-07-26T19:06:54.0000000+00:00</time></trkpt><trkpt lat="63.73211289" lon="-20.05368233"><ele>50.3</ele><time>2012-07-26T19:06:59.0000000+00:00</time></trkpt><trkpt lat="63.73215103" lon="-20.05415154"><ele>50.2</ele><time>2012-07-26T19:07:04.0000000+00:00</time></trkpt><trkpt lat="63.73220062" lon="-20.05468178"><ele>51.0</ele><time>2012-07-26T19:07:09.0000000+00:00</time></trkpt><trkpt lat="63.73225021" lon="-20.05525017"><ele>48.9</ele><time>2012-07-26T19:07:14.0000000+00:00</time></trkpt><trkpt lat="63.73229218" lon="-20.05577087"><ele>49.3</ele><time>2012-07-26T19:07:19.0000000+00:00</time></trkpt><trkpt lat="63.73235703" lon="-20.05634689"><ele>52.8</ele><time>2012-07-26T19:07:24.0000000+00:00</time></trkpt><trkpt lat="63.73239517" lon="-20.05683327"><ele>51.1</ele><time>2012-07-26T19:07:29.0000000+00:00</time></trkpt><trkpt lat="63.73244476" lon="-20.05730057"><ele>51.4</ele><time>2012-07-26T19:07:34.0000000+00:00</time></trkpt><trkpt lat="63.73248291" lon="-20.0577507"><ele>50.2</ele><time>2012-07-26T19:07:39.0000000+00:00</time></trkpt><trkpt lat="63.73252106" lon="-20.05817413"><ele>47.6</ele><time>2012-07-26T19:07:44.0000000+00:00</time></trkpt><trkpt lat="63.73255539" lon="-20.05858231"><ele>47.8</ele><time>2012-07-26T19:07:49.0000000+00:00</time></trkpt><trkpt lat="63.73259354" lon="-20.05906105"><ele>50.5</ele><time>2012-07-26T19:07:54.0000000+00:00</time></trkpt><trkpt lat="63.73263168" lon="-20.05949593"><ele>50.6</ele><time>2012-07-26T19:07:59.0000000+00:00</time></trkpt><trkpt lat="63.73266983" lon="-20.05992889"><ele>49.3</ele><time>2012-07-26T19:08:04.0000000+00:00</time></trkpt><trkpt lat="63.73269272" lon="-20.06031418"><ele>46.4</ele><time>2012-07-26T19:08:09.0000000+00:00</time></trkpt><trkpt lat="63.73273087" lon="-20.06077576"><ele>46.0</ele><time>2012-07-26T19:08:14.0000000+00:00</time></trkpt><trkpt lat="63.73276901" lon="-20.06125259"><ele>43.1</ele><time>2012-07-26T19:08:19.0000000+00:00</time></trkpt><trkpt lat="63.73281097" lon="-20.0616684"><ele>41.9</ele><time>2012-07-26T19:08:24.0000000+00:00</time></trkpt><trkpt lat="63.73285294" lon="-20.06211853"><ele>41.0</ele><time>2012-07-26T19:08:29.0000000+00:00</time></trkpt><trkpt lat="63.73289108" lon="-20.06255531"><ele>39.3</ele><time>2012-07-26T19:08:34.0000000+00:00</time></trkpt><trkpt lat="63.73294067" lon="-20.06307411"><ele>46.0</ele><time>2012-07-26T19:08:39.0000000+00:00</time></trkpt><trkpt lat="63.73298264" lon="-20.06356049"><ele>51.7</ele><time>2012-07-26T19:08:44.0000000+00:00</time></trkpt><trkpt lat="63.73302078" lon="-20.06394386"><ele>50.2</ele><time>2012-07-26T19:08:49.0000000+00:00</time></trkpt><trkpt lat="63.73306274" lon="-20.06440926"><ele>50.3</ele><time>2012-07-26T19:08:54.0000000+00:00</time></trkpt><trkpt lat="63.73311234" lon="-20.06494331"><ele>53.9</ele><time>2012-07-26T19:08:59.0000000+00:00</time></trkpt><trkpt lat="63.73315048" lon="-20.06536102"><ele>53.1</ele><time>2012-07-26T19:09:04.0000000+00:00</time></trkpt><trkpt lat="63.73319626" lon="-20.06585693"><ele>53.4</ele><time>2012-07-26T19:09:09.0000000+00:00</time></trkpt><trkpt lat="63.73323441" lon="-20.06638527"><ele>51.9</ele><time>2012-07-26T19:09:14.0000000+00:00</time></trkpt><trkpt lat="63.73327637" lon="-20.06695175"><ele>50.9</ele><time>2012-07-26T19:09:19.0000000+00:00</time></trkpt><trkpt lat="63.73332214" lon="-20.06747246"><ele>51.7</ele><time>2012-07-26T19:09:24.0000000+00:00</time></trkpt><trkpt lat="63.73337555" lon="-20.06796455"><ele>53.4</ele><time>2012-07-26T19:09:29.0000000+00:00</time></trkpt><trkpt lat="63.73342896" lon="-20.06849861"><ele>49.3</ele><time>2012-07-26T19:09:34.0000000+00:00</time></trkpt><trkpt lat="63.7334671" lon="-20.0690937"><ele>49.8</ele><time>2012-07-26T19:09:39.0000000+00:00</time></trkpt><trkpt lat="63.73351288" lon="-20.06955719"><ele>48.1</ele><time>2012-07-26T19:09:44.0000000+00:00</time></trkpt><trkpt lat="63.73355866" lon="-20.07001495"><ele>47.9</ele><time>2012-07-26T19:09:49.0000000+00:00</time></trkpt><trkpt lat="63.73358536" lon="-20.07052422"><ele>46.3</ele><time>2012-07-26T19:09:54.0000000+00:00</time></trkpt><trkpt lat="63.73363113" lon="-20.07095337"><ele>49.6</ele><time>2012-07-26T19:09:59.0000000+00:00</time></trkpt><trkpt lat="63.73366547" lon="-20.07127953"><ele>51.7</ele><time>2012-07-26T19:10:04.0000000+00:00</time></trkpt><trkpt lat="63.73368835" lon="-20.07152939"><ele>53.0</ele><time>2012-07-26T19:10:09.0000000+00:00</time></trkpt><trkpt lat="63.73371506" lon="-20.07179642"><ele>52.3</ele><time>2012-07-26T19:10:14.0000000+00:00</time></trkpt><trkpt lat="63.73374176" lon="-20.07215881"><ele>53.7</ele><time>2012-07-26T19:10:19.0000000+00:00</time></trkpt><trkpt lat="63.73378754" lon="-20.07255173"><ele>51.2</ele><time>2012-07-26T19:10:24.0000000+00:00</time></trkpt><trkpt lat="63.73381805" lon="-20.07300568"><ele>51.8</ele><time>2012-07-26T19:10:29.0000000+00:00</time></trkpt><trkpt lat="63.73385239" lon="-20.07342339"><ele>52.0</ele><time>2012-07-26T19:10:34.0000000+00:00</time></trkpt><trkpt lat="63.7338829" lon="-20.07377243"><ele>50.3</ele><time>2012-07-26T19:10:39.0000000+00:00</time></trkpt><trkpt lat="63.73390961" lon="-20.07420349"><ele>49.3</ele><time>2012-07-26T19:10:44.0000000+00:00</time></trkpt><trkpt lat="63.73394775" lon="-20.07466316"><ele>49.2</ele><time>2012-07-26T19:10:49.0000000+00:00</time></trkpt><trkpt lat="63.73397446" lon="-20.075037"><ele>49.8</ele><time>2012-07-26T19:10:54.0000000+00:00</time></trkpt><trkpt lat="63.73399735" lon="-20.07538223"><ele>51.5</ele><time>2012-07-26T19:10:59.0000000+00:00</time></trkpt><trkpt lat="63.73403549" lon="-20.07575035"><ele>50.9</ele><time>2012-07-26T19:11:04.0000000+00:00</time></trkpt><trkpt lat="63.73405457" lon="-20.07624245"><ele>51.5</ele><time>2012-07-26T19:11:09.0000000+00:00</time></trkpt><trkpt lat="63.73407745" lon="-20.07675362"><ele>51.6</ele><time>2012-07-26T19:11:14.0000000+00:00</time></trkpt><trkpt lat="63.73409653" lon="-20.07723236"><ele>53.3</ele><time>2012-07-26T19:11:19.0000000+00:00</time></trkpt><trkpt lat="63.73410416" lon="-20.07770157"><ele>52.7</ele><time>2012-07-26T19:11:24.0000000+00:00</time></trkpt><trkpt lat="63.7341156" lon="-20.07819557"><ele>54.0</ele><time>2012-07-26T19:11:29.0000000+00:00</time></trkpt><trkpt lat="63.73410416" lon="-20.07875443"><ele>55.3</ele><time>2012-07-26T19:11:34.0000000+00:00</time></trkpt><trkpt lat="63.73409653" lon="-20.07925224"><ele>56.3</ele><time>2012-07-26T19:11:39.0000000+00:00</time></trkpt><trkpt lat="63.73408127" lon="-20.07965279"><ele>56.4</ele><time>2012-07-26T19:11:44.0000000+00:00</time></trkpt><trkpt lat="63.73405457" lon="-20.08009529"><ele>56.2</ele><time>2012-07-26T19:11:49.0000000+00:00</time></trkpt><trkpt lat="63.73402023" lon="-20.0805912"><ele>53.6</ele><time>2012-07-26T19:11:54.0000000+00:00</time></trkpt><trkpt lat="63.7339859" lon="-20.08110809"><ele>54.8</ele><time>2012-07-26T19:11:59.0000000+00:00</time></trkpt><trkpt lat="63.73394775" lon="-20.0816288"><ele>56.6</ele><time>2012-07-26T19:12:04.0000000+00:00</time></trkpt><trkpt lat="63.73389053" lon="-20.08218384"><ele>57.3</ele><time>2012-07-26T19:12:09.0000000+00:00</time></trkpt><trkpt lat="63.73383331" lon="-20.08268738"><ele>56.1</ele><time>2012-07-26T19:12:14.0000000+00:00</time></trkpt><trkpt lat="63.73377991" lon="-20.08308983"><ele>54.6</ele><time>2012-07-26T19:12:19.0000000+00:00</time></trkpt><trkpt lat="63.73371124" lon="-20.08338738"><ele>52.3</ele><time>2012-07-26T19:12:24.0000000+00:00</time></trkpt><trkpt lat="63.73368073" lon="-20.0837841"><ele>52.9</ele><time>2012-07-26T19:12:29.0000000+00:00</time></trkpt><trkpt lat="63.7335968" lon="-20.08423615"><ele>52.9</ele><time>2012-07-26T19:12:34.0000000+00:00</time></trkpt><trkpt lat="63.73353195" lon="-20.08476067"><ele>51.7</ele><time>2012-07-26T19:12:39.0000000+00:00</time></trkpt><trkpt lat="63.73344803" lon="-20.0852623"><ele>51.8</ele><time>2012-07-26T19:12:44.0000000+00:00</time></trkpt><trkpt lat="63.73337555" lon="-20.08574867"><ele>51.2</ele><time>2012-07-26T19:12:49.0000000+00:00</time></trkpt><trkpt lat="63.73332977" lon="-20.08614922"><ele>50.9</ele><time>2012-07-26T19:12:54.0000000+00:00</time></trkpt><trkpt lat="63.73328781" lon="-20.08647919"><ele>51.5</ele><time>2012-07-26T19:12:59.0000000+00:00</time></trkpt><trkpt lat="63.73324966" lon="-20.08689308"><ele>53.7</ele><time>2012-07-26T19:13:04.0000000+00:00</time></trkpt><trkpt lat="63.73321915" lon="-20.08730507"><ele>52.5</ele><time>2012-07-26T19:13:09.0000000+00:00</time></trkpt><trkpt lat="63.73319626" lon="-20.08773613"><ele>53.0</ele><time>2012-07-26T19:13:14.0000000+00:00</time></trkpt><trkpt lat="63.73316956" lon="-20.08826828"><ele>52.0</ele><time>2012-07-26T19:13:19.0000000+00:00</time></trkpt><trkpt lat="63.733181" lon="-20.08880043"><ele>52.2</ele><time>2012-07-26T19:13:24.0000000+00:00</time></trkpt><trkpt lat="63.73319244" lon="-20.08935928"><ele>53.0</ele><time>2012-07-26T19:13:29.0000000+00:00</time></trkpt><trkpt lat="63.73322296" lon="-20.08991432"><ele>53.0</ele><time>2012-07-26T19:13:34.0000000+00:00</time></trkpt><trkpt lat="63.73324966" lon="-20.09041214"><ele>52.4</ele><time>2012-07-26T19:13:39.0000000+00:00</time></trkpt><trkpt lat="63.73328018" lon="-20.09092712"><ele>52.2</ele><time>2012-07-26T19:13:44.0000000+00:00</time></trkpt><trkpt lat="63.73331451" lon="-20.09145355"><ele>52.5</ele><time>2012-07-26T19:13:49.0000000+00:00</time></trkpt><trkpt lat="63.73334503" lon="-20.09195519"><ele>52.3</ele><time>2012-07-26T19:13:54.0000000+00:00</time></trkpt><trkpt lat="63.73338318" lon="-20.09244537"><ele>52.6</ele><time>2012-07-26T19:13:59.0000000+00:00</time></trkpt><trkpt lat="63.7334137" lon="-20.0929203"><ele>51.8</ele><time>2012-07-26T19:14:04.0000000+00:00</time></trkpt><trkpt lat="63.73345184" lon="-20.09340859"><ele>51.2</ele><time>2012-07-26T19:14:09.0000000+00:00</time></trkpt><trkpt lat="63.73348236" lon="-20.09391213"><ele>52.0</ele><time>2012-07-26T19:14:14.0000000+00:00</time></trkpt><trkpt lat="63.73352432" lon="-20.09443474"><ele>51.1</ele><time>2012-07-26T19:14:19.0000000+00:00</time></trkpt><trkpt lat="63.73355484" lon="-20.09490585"><ele>50.6</ele><time>2012-07-26T19:14:24.0000000+00:00</time></trkpt><trkpt lat="63.73358536" lon="-20.09530067"><ele>49.4</ele><time>2012-07-26T19:14:29.0000000+00:00</time></trkpt><trkpt lat="63.73362732" lon="-20.09570885"><ele>51.0</ele><time>2012-07-26T19:14:34.0000000+00:00</time></trkpt><trkpt lat="63.73364639" lon="-20.09601021"><ele>51.6</ele><time>2012-07-26T19:14:39.0000000+00:00</time></trkpt><trkpt lat="63.73366547" lon="-20.09637451"><ele>49.8</ele><time>2012-07-26T19:14:44.0000000+00:00</time></trkpt><trkpt lat="63.73369217" lon="-20.09680176"><ele>50.6</ele><time>2012-07-26T19:14:49.0000000+00:00</time></trkpt><trkpt lat="63.73371887" lon="-20.09715462"><ele>51.2</ele><time>2012-07-26T19:14:54.0000000+00:00</time></trkpt><trkpt lat="63.73374176" lon="-20.09758377"><ele>50.8</ele><time>2012-07-26T19:14:59.0000000+00:00</time></trkpt><trkpt lat="63.73376465" lon="-20.09797287"><ele>51.6</ele><time>2012-07-26T19:15:04.0000000+00:00</time></trkpt><trkpt lat="63.73379135" lon="-20.09829712"><ele>52.2</ele><time>2012-07-26T19:15:09.0000000+00:00</time></trkpt><trkpt lat="63.73381043" lon="-20.09858894"><ele>53.5</ele><time>2012-07-26T19:15:14.0000000+00:00</time></trkpt><trkpt lat="63.73384094" lon="-20.09892464"><ele>54.4</ele><time>2012-07-26T19:15:19.0000000+00:00</time></trkpt><trkpt lat="63.73387146" lon="-20.09934807"><ele>56.4</ele><time>2012-07-26T19:15:24.0000000+00:00</time></trkpt><trkpt lat="63.73390198" lon="-20.09982109"><ele>56.6</ele><time>2012-07-26T19:15:29.0000000+00:00</time></trkpt><trkpt lat="63.73392868" lon="-20.1003437"><ele>57.3</ele><time>2012-07-26T19:15:34.0000000+00:00</time></trkpt><trkpt lat="63.73397064" lon="-20.1008358"><ele>56.8</ele><time>2012-07-26T19:15:39.0000000+00:00</time></trkpt><trkpt lat="63.73399735" lon="-20.10124779"><ele>59.3</ele><time>2012-07-26T19:15:44.0000000+00:00</time></trkpt><trkpt lat="63.73404312" lon="-20.10165978"><ele>53.0</ele><time>2012-07-26T19:15:49.0000000+00:00</time></trkpt><trkpt lat="63.73406601" lon="-20.1020813"><ele>51.6</ele><time>2012-07-26T19:15:54.0000000+00:00</time></trkpt><trkpt lat="63.73408508" lon="-20.10248756"><ele>52.5</ele><time>2012-07-26T19:15:59.0000000+00:00</time></trkpt><trkpt lat="63.73411179" lon="-20.10288239"><ele>55.2</ele><time>2012-07-26T19:16:04.0000000+00:00</time></trkpt><trkpt lat="63.73412705" lon="-20.10322189"><ele>55.0</ele><time>2012-07-26T19:16:09.0000000+00:00</time></trkpt><trkpt lat="63.73414612" lon="-20.10353851"><ele>53.9</ele><time>2012-07-26T19:16:14.0000000+00:00</time></trkpt><trkpt lat="63.73415375" lon="-20.10388565"><ele>53.5</ele><time>2012-07-26T19:16:19.0000000+00:00</time></trkpt><trkpt lat="63.73415756" lon="-20.10425758"><ele>55.7</ele><time>2012-07-26T19:16:24.0000000+00:00</time></trkpt><trkpt lat="63.73416519" lon="-20.10464096"><ele>60.0</ele><time>2012-07-26T19:16:29.0000000+00:00</time></trkpt><trkpt lat="63.73415756" lon="-20.1050396"><ele>57.9</ele><time>2012-07-26T19:16:34.0000000+00:00</time></trkpt><trkpt lat="63.73412705" lon="-20.10544014"><ele>59.3</ele><time>2012-07-26T19:16:39.0000000+00:00</time></trkpt><trkpt lat="63.73410416" lon="-20.10572052"><ele>61.0</ele><time>2012-07-26T19:16:44.0000000+00:00</time></trkpt><trkpt lat="63.73406982" lon="-20.10613251"><ele>61.2</ele><time>2012-07-26T19:16:49.0000000+00:00</time></trkpt><trkpt lat="63.73402405" lon="-20.10653877"><ele>60.3</ele><time>2012-07-26T19:16:54.0000000+00:00</time></trkpt><trkpt lat="63.7339592" lon="-20.10698319"><ele>59.3</ele><time>2012-07-26T19:16:59.0000000+00:00</time></trkpt><trkpt lat="63.73387146" lon="-20.1074295"><ele>58.1</ele><time>2012-07-26T19:17:04.0000000+00:00</time></trkpt><trkpt lat="63.73379898" lon="-20.10788155"><ele>55.5</ele><time>2012-07-26T19:17:09.0000000+00:00</time></trkpt><trkpt lat="63.73371124" lon="-20.10836792"><ele>54.9</ele><time>2012-07-26T19:17:14.0000000+00:00</time></trkpt><trkpt lat="63.73363113" lon="-20.10892296"><ele>55.2</ele><time>2012-07-26T19:17:19.0000000+00:00</time></trkpt><trkpt lat="63.73357391" lon="-20.10957718"><ele>56.4</ele><time>2012-07-26T19:17:24.0000000+00:00</time></trkpt><trkpt lat="63.73353195" lon="-20.11039734"><ele>55.7</ele><time>2012-07-26T19:17:29.0000000+00:00</time></trkpt><trkpt lat="63.73349381" lon="-20.11131668"><ele>55.3</ele><time>2012-07-26T19:17:34.0000000+00:00</time></trkpt><trkpt lat="63.73347473" lon="-20.11223602"><ele>55.1</ele><time>2012-07-26T19:17:39.0000000+00:00</time></trkpt><trkpt lat="63.73344803" lon="-20.11304092"><ele>55.4</ele><time>2012-07-26T19:17:44.0000000+00:00</time></trkpt><trkpt lat="63.73342514" lon="-20.1137352"><ele>55.6</ele><time>2012-07-26T19:17:49.0000000+00:00</time></trkpt><trkpt lat="63.73339844" lon="-20.11433601"><ele>56.2</ele><time>2012-07-26T19:17:54.0000000+00:00</time></trkpt><trkpt lat="63.73338318" lon="-20.11492539"><ele>53.9</ele><time>2012-07-26T19:17:59.0000000+00:00</time></trkpt><trkpt lat="63.73335648" lon="-20.11554527"><ele>52.8</ele><time>2012-07-26T19:18:04.0000000+00:00</time></trkpt><trkpt lat="63.7333374" lon="-20.11616135"><ele>51.5</ele><time>2012-07-26T19:18:09.0000000+00:00</time></trkpt><trkpt lat="63.73331833" lon="-20.11676216"><ele>51.2</ele><time>2012-07-26T19:18:14.0000000+00:00</time></trkpt><trkpt lat="63.73329163" lon="-20.117342"><ele>50.3</ele><time>2012-07-26T19:18:19.0000000+00:00</time></trkpt><trkpt lat="63.73328018" lon="-20.11789131"><ele>52.1</ele><time>2012-07-26T19:18:24.0000000+00:00</time></trkpt><trkpt lat="63.73325729" lon="-20.11841011"><ele>52.8</ele><time>2012-07-26T19:18:29.0000000+00:00</time></trkpt><trkpt lat="63.73323822" lon="-20.11896133"><ele>52.3</ele><time>2012-07-26T19:18:34.0000000+00:00</time></trkpt><trkpt lat="63.73321915" lon="-20.11953354"><ele>51.7</ele><time>2012-07-26T19:18:39.0000000+00:00</time></trkpt><trkpt lat="63.73321152" lon="-20.1201191"><ele>51.5</ele><time>2012-07-26T19:18:44.0000000+00:00</time></trkpt><trkpt lat="63.73320007" lon="-20.1207428"><ele>50.9</ele><time>2012-07-26T19:18:49.0000000+00:00</time></trkpt><trkpt lat="63.7332077" lon="-20.12131882"><ele>51.2</ele><time>2012-07-26T19:18:54.0000000+00:00</time></trkpt><trkpt lat="63.73322296" lon="-20.12184143"><ele>50.4</ele><time>2012-07-26T19:18:59.0000000+00:00</time></trkpt><trkpt lat="63.73326111" lon="-20.1224041"><ele>48.6</ele><time>2012-07-26T19:19:04.0000000+00:00</time></trkpt><trkpt lat="63.73329163" lon="-20.12298966"><ele>46.9</ele><time>2012-07-26T19:19:09.0000000+00:00</time></trkpt><trkpt lat="63.73333359" lon="-20.1235981"><ele>47.6</ele><time>2012-07-26T19:19:14.0000000+00:00</time></trkpt><trkpt lat="63.73337936" lon="-20.12418556"><ele>48.2</ele><time>2012-07-26T19:19:19.0000000+00:00</time></trkpt><trkpt lat="63.73340607" lon="-20.12467957"><ele>46.6</ele><time>2012-07-26T19:19:24.0000000+00:00</time></trkpt><trkpt lat="63.73343277" lon="-20.12514687"><ele>45.9</ele><time>2012-07-26T19:19:29.0000000+00:00</time></trkpt><trkpt lat="63.73346329" lon="-20.12565994"><ele>46.1</ele><time>2012-07-26T19:19:34.0000000+00:00</time></trkpt><trkpt lat="63.73349381" lon="-20.12619019"><ele>47.3</ele><time>2012-07-26T19:19:39.0000000+00:00</time></trkpt><trkpt lat="63.73353195" lon="-20.12672234"><ele>46.7</ele><time>2012-07-26T19:19:44.0000000+00:00</time></trkpt><trkpt lat="63.73357391" lon="-20.1272049"><ele>45.5</ele><time>2012-07-26T19:19:49.0000000+00:00</time></trkpt><trkpt lat="63.73361206" lon="-20.12768173"><ele>47.1</ele><time>2012-07-26T19:19:54.0000000+00:00</time></trkpt><trkpt lat="63.73365021" lon="-20.12820816"><ele>48.3</ele><time>2012-07-26T19:19:59.0000000+00:00</time></trkpt><trkpt lat="63.73368073" lon="-20.12875557"><ele>49.6</ele><time>2012-07-26T19:20:04.0000000+00:00</time></trkpt><trkpt lat="63.73370743" lon="-20.12921906"><ele>49.4</ele><time>2012-07-26T19:20:09.0000000+00:00</time></trkpt><trkpt lat="63.7337265" lon="-20.12965584"><ele>49.6</ele><time>2012-07-26T19:20:14.0000000+00:00</time></trkpt><trkpt lat="63.7337532" lon="-20.13010025"><ele>49.0</ele><time>2012-07-26T19:20:19.0000000+00:00</time></trkpt><trkpt lat="63.73378754" lon="-20.13059235"><ele>45.9</ele><time>2012-07-26T19:20:24.0000000+00:00</time></trkpt><trkpt lat="63.73382568" lon="-20.13101006"><ele>47.6</ele><time>2012-07-26T19:20:29.0000000+00:00</time></trkpt><trkpt lat="63.73385239" lon="-20.13138962"><ele>46.8</ele><time>2012-07-26T19:20:34.0000000+00:00</time></trkpt><trkpt lat="63.73387146" lon="-20.13184547"><ele>45.4</ele><time>2012-07-26T19:20:39.0000000+00:00</time></trkpt><trkpt lat="63.73391342" lon="-20.13232613"><ele>48.3</ele><time>2012-07-26T19:20:44.0000000+00:00</time></trkpt><trkpt lat="63.7339325" lon="-20.13281059"><ele>47.6</ele><time>2012-07-26T19:20:49.0000000+00:00</time></trkpt><trkpt lat="63.7339592" lon="-20.13320732"><ele>47.8</ele><time>2012-07-26T19:20:54.0000000+00:00</time></trkpt><trkpt lat="63.73398209" lon="-20.13362122"><ele>47.5</ele><time>2012-07-26T19:20:59.0000000+00:00</time></trkpt><trkpt lat="63.7340126" lon="-20.13404274"><ele>48.4</ele><time>2012-07-26T19:21:04.0000000+00:00</time></trkpt><trkpt lat="63.73402786" lon="-20.1344471"><ele>49.2</ele><time>2012-07-26T19:21:09.0000000+00:00</time></trkpt><trkpt lat="63.73405075" lon="-20.13476944"><ele>47.2</ele><time>2012-07-26T19:21:14.0000000+00:00</time></trkpt><trkpt lat="63.73407364" lon="-20.13505554"><ele>45.4</ele><time>2012-07-26T19:21:19.0000000+00:00</time></trkpt><trkpt lat="63.73410034" lon="-20.13545036"><ele>48.7</ele><time>2012-07-26T19:21:24.0000000+00:00</time></trkpt><trkpt lat="63.73413467" lon="-20.13590431"><ele>49.1</ele><time>2012-07-26T19:21:29.0000000+00:00</time></trkpt><trkpt lat="63.73416519" lon="-20.13636017"><ele>49.1</ele><time>2012-07-26T19:21:34.0000000+00:00</time></trkpt><trkpt lat="63.73418808" lon="-20.13672066"><ele>49.5</ele><time>2012-07-26T19:21:39.0000000+00:00</time></trkpt><trkpt lat="63.73421097" lon="-20.13709641"><ele>49.9</ele><time>2012-07-26T19:21:44.0000000+00:00</time></trkpt><trkpt lat="63.73424912" lon="-20.13758659"><ele>51.3</ele><time>2012-07-26T19:21:49.0000000+00:00</time></trkpt><trkpt lat="63.73429489" lon="-20.13811493"><ele>53.0</ele><time>2012-07-26T19:21:54.0000000+00:00</time></trkpt><trkpt lat="63.73432922" lon="-20.13867569"><ele>53.8</ele><time>2012-07-26T19:21:59.0000000+00:00</time></trkpt><trkpt lat="63.73436356" lon="-20.13927078"><ele>55.5</ele><time>2012-07-26T19:22:04.0000000+00:00</time></trkpt><trkpt lat="63.73440552" lon="-20.13986588"><ele>57.1</ele><time>2012-07-26T19:22:09.0000000+00:00</time></trkpt><trkpt lat="63.73443604" lon="-20.14044762"><ele>56.2</ele><time>2012-07-26T19:22:14.0000000+00:00</time></trkpt><trkpt lat="63.73448181" lon="-20.14098167"><ele>55.0</ele><time>2012-07-26T19:22:19.0000000+00:00</time></trkpt><trkpt lat="63.73449707" lon="-20.14143181"><ele>52.8</ele><time>2012-07-26T19:22:24.0000000+00:00</time></trkpt><trkpt lat="63.73452377" lon="-20.14187241"><ele>49.8</ele><time>2012-07-26T19:22:29.0000000+00:00</time></trkpt><trkpt lat="63.73455048" lon="-20.14238548"><ele>49.6</ele><time>2012-07-26T19:22:34.0000000+00:00</time></trkpt><trkpt lat="63.73458481" lon="-20.14292336"><ele>49.1</ele><time>2012-07-26T19:22:39.0000000+00:00</time></trkpt><trkpt lat="63.73461914" lon="-20.1434269"><ele>47.7</ele><time>2012-07-26T19:22:44.0000000+00:00</time></trkpt><trkpt lat="63.73464584" lon="-20.14386749"><ele>48.1</ele><time>2012-07-26T19:22:49.0000000+00:00</time></trkpt><trkpt lat="63.73467636" lon="-20.14427185"><ele>48.2</ele><time>2012-07-26T19:22:54.0000000+00:00</time></trkpt><trkpt lat="63.73470688" lon="-20.14471817"><ele>49.4</ele><time>2012-07-26T19:22:59.0000000+00:00</time></trkpt><trkpt lat="63.73474121" lon="-20.14524841"><ele>51.9</ele><time>2012-07-26T19:23:04.0000000+00:00</time></trkpt><trkpt lat="63.73477936" lon="-20.14582634"><ele>51.9</ele><time>2012-07-26T19:23:09.0000000+00:00</time></trkpt><trkpt lat="63.73481369" lon="-20.14640999"><ele>51.9</ele><time>2012-07-26T19:23:14.0000000+00:00</time></trkpt><trkpt lat="63.73484802" lon="-20.14702225"><ele>49.8</ele><time>2012-07-26T19:23:19.0000000+00:00</time></trkpt><trkpt lat="63.73488617" lon="-20.14758301"><ele>49.7</ele><time>2012-07-26T19:23:24.0000000+00:00</time></trkpt><trkpt lat="63.73490906" lon="-20.14806175"><ele>48.3</ele><time>2012-07-26T19:23:29.0000000+00:00</time></trkpt><trkpt lat="63.73494721" lon="-20.14858818"><ele>47.1</ele><time>2012-07-26T19:23:34.0000000+00:00</time></trkpt><trkpt lat="63.73498535" lon="-20.14914703"><ele>47.8</ele><time>2012-07-26T19:23:39.0000000+00:00</time></trkpt><trkpt lat="63.7350235" lon="-20.149683"><ele>47.1</ele><time>2012-07-26T19:23:44.0000000+00:00</time></trkpt><trkpt lat="63.73505402" lon="-20.15019417"><ele>47.0</ele><time>2012-07-26T19:23:49.0000000+00:00</time></trkpt><trkpt lat="63.7350769" lon="-20.15068626"><ele>47.3</ele><time>2012-07-26T19:23:54.0000000+00:00</time></trkpt><trkpt lat="63.73511124" lon="-20.15115929"><ele>47.6</ele><time>2012-07-26T19:23:59.0000000+00:00</time></trkpt><trkpt lat="63.73513794" lon="-20.1516037"><ele>45.9</ele><time>2012-07-26T19:24:04.0000000+00:00</time></trkpt><trkpt lat="63.73516846" lon="-20.15198135"><ele>45.6</ele><time>2012-07-26T19:24:09.0000000+00:00</time></trkpt><trkpt lat="63.73519516" lon="-20.15228081"><ele>46.8</ele><time>2012-07-26T19:24:14.0000000+00:00</time></trkpt><trkpt lat="63.73521805" lon="-20.15263367"><ele>46.9</ele><time>2012-07-26T19:24:19.0000000+00:00</time></trkpt><trkpt lat="63.73524857" lon="-20.15306473"><ele>44.6</ele><time>2012-07-26T19:24:24.0000000+00:00</time></trkpt><trkpt lat="63.73528671" lon="-20.15345573"><ele>43.9</ele><time>2012-07-26T19:24:29.0000000+00:00</time></trkpt><trkpt lat="63.73534012" lon="-20.15386963"><ele>42.4</ele><time>2012-07-26T19:24:34.0000000+00:00</time></trkpt><trkpt lat="63.7354126" lon="-20.15433502"><ele>42.4</ele><time>2012-07-26T19:24:39.0000000+00:00</time></trkpt><trkpt lat="63.73551178" lon="-20.15483856"><ele>42.0</ele><time>2012-07-26T19:24:44.0000000+00:00</time></trkpt><trkpt lat="63.73559952" lon="-20.15532303"><ele>40.5</ele><time>2012-07-26T19:24:49.0000000+00:00</time></trkpt><trkpt lat="63.73568726" lon="-20.15576553"><ele>41.0</ele><time>2012-07-26T19:24:54.0000000+00:00</time></trkpt><trkpt lat="63.73577881" lon="-20.15626526"><ele>40.3</ele><time>2012-07-26T19:24:59.0000000+00:00</time></trkpt><trkpt lat="63.73585892" lon="-20.15670013"><ele>40.7</ele><time>2012-07-26T19:25:04.0000000+00:00</time></trkpt><trkpt lat="63.73592758" lon="-20.15705109"><ele>40.9</ele><time>2012-07-26T19:25:09.0000000+00:00</time></trkpt><trkpt lat="63.73600769" lon="-20.15739059"><ele>40.1</ele><time>2012-07-26T19:25:14.0000000+00:00</time></trkpt><trkpt lat="63.73608017" lon="-20.15776634"><ele>39.1</ele><time>2012-07-26T19:25:19.0000000+00:00</time></trkpt><trkpt lat="63.73615646" lon="-20.1581955"><ele>39.6</ele><time>2012-07-26T19:25:24.0000000+00:00</time></trkpt><trkpt lat="63.73622513" lon="-20.15858841"><ele>40.0</ele><time>2012-07-26T19:25:29.0000000+00:00</time></trkpt><trkpt lat="63.73629379" lon="-20.15888596"><ele>40.1</ele><time>2012-07-26T19:25:34.0000000+00:00</time></trkpt><trkpt lat="63.73632813" lon="-20.15909195"><ele>40.6</ele><time>2012-07-26T19:25:39.0000000+00:00</time></trkpt><trkpt lat="63.73635483" lon="-20.15921211"><ele>41.8</ele><time>2012-07-26T19:25:44.0000000+00:00</time></trkpt><trkpt lat="63.73643875" lon="-20.1594677"><ele>40.4</ele><time>2012-07-26T19:25:49.0000000+00:00</time></trkpt><trkpt lat="63.73653793" lon="-20.15985107"><ele>40.6</ele><time>2012-07-26T19:25:54.0000000+00:00</time></trkpt><trkpt lat="63.73664475" lon="-20.16029167"><ele>40.8</ele><time>2012-07-26T19:25:59.0000000+00:00</time></trkpt><trkpt lat="63.73675919" lon="-20.16075516"><ele>40.6</ele><time>2012-07-26T19:26:04.0000000+00:00</time></trkpt><trkpt lat="63.73684692" lon="-20.16113091"><ele>41.2</ele><time>2012-07-26T19:26:09.0000000+00:00</time></trkpt><trkpt lat="63.73692703" lon="-20.16142654"><ele>40.3</ele><time>2012-07-26T19:26:14.0000000+00:00</time></trkpt><trkpt lat="63.7370224" lon="-20.16182709"><ele>40.5</ele><time>2012-07-26T19:26:19.0000000+00:00</time></trkpt><trkpt lat="63.73713303" lon="-20.16224861"><ele>40.2</ele><time>2012-07-26T19:26:24.0000000+00:00</time></trkpt><trkpt lat="63.7372551" lon="-20.16269875"><ele>40.8</ele><time>2012-07-26T19:26:29.0000000+00:00</time></trkpt><trkpt lat="63.73735809" lon="-20.16309547"><ele>40.6</ele><time>2012-07-26T19:26:34.0000000+00:00</time></trkpt><trkpt lat="63.73744202" lon="-20.16340828"><ele>40.0</ele><time>2012-07-26T19:26:39.0000000+00:00</time></trkpt><trkpt lat="63.73749161" lon="-20.16364861"><ele>39.1</ele><time>2012-07-26T19:26:44.0000000+00:00</time></trkpt><trkpt lat="63.73756027" lon="-20.16391182"><ele>40.8</ele><time>2012-07-26T19:26:49.0000000+00:00</time></trkpt><trkpt lat="63.73764801" lon="-20.16426468"><ele>41.5</ele><time>2012-07-26T19:26:54.0000000+00:00</time></trkpt><trkpt lat="63.73774719" lon="-20.16464424"><ele>40.8</ele><time>2012-07-26T19:26:59.0000000+00:00</time></trkpt><trkpt lat="63.737854" lon="-20.16506767"><ele>40.7</ele><time>2012-07-26T19:27:04.0000000+00:00</time></trkpt><trkpt lat="63.73797226" lon="-20.16550446"><ele>41.1</ele><time>2012-07-26T19:27:09.0000000+00:00</time></trkpt><trkpt lat="63.73809815" lon="-20.16595459"><ele>40.0</ele><time>2012-07-26T19:27:14.0000000+00:00</time></trkpt><trkpt lat="63.73822022" lon="-20.16643143"><ele>40.5</ele><time>2012-07-26T19:27:19.0000000+00:00</time></trkpt><trkpt lat="63.73830795" lon="-20.16677856"><ele>40.3</ele><time>2012-07-26T19:27:24.0000000+00:00</time></trkpt><trkpt lat="63.7383728" lon="-20.16703033"><ele>40.3</ele><time>2012-07-26T19:27:29.0000000+00:00</time></trkpt><trkpt lat="63.73843384" lon="-20.16729355"><ele>38.8</ele><time>2012-07-26T19:27:34.0000000+00:00</time></trkpt><trkpt lat="63.73853684" lon="-20.16763878"><ele>39.2</ele><time>2012-07-26T19:27:39.0000000+00:00</time></trkpt><trkpt lat="63.73864365" lon="-20.16802979"><ele>40.4</ele><time>2012-07-26T19:27:44.0000000+00:00</time></trkpt><trkpt lat="63.7387352" lon="-20.16841888"><ele>39.1</ele><time>2012-07-26T19:27:49.0000000+00:00</time></trkpt><trkpt lat="63.73881912" lon="-20.16868591"><ele>39.8</ele><time>2012-07-26T19:27:54.0000000+00:00</time></trkpt><trkpt lat="63.73890686" lon="-20.16902542"><ele>39.9</ele><time>2012-07-26T19:27:59.0000000+00:00</time></trkpt><trkpt lat="63.73900223" lon="-20.16939545"><ele>40.2</ele><time>2012-07-26T19:28:04.0000000+00:00</time></trkpt><trkpt lat="63.73906326" lon="-20.16965675"><ele>40.5</ele><time>2012-07-26T19:28:09.0000000+00:00</time></trkpt><trkpt lat="63.73912048" lon="-20.16988373"><ele>40.6</ele><time>2012-07-26T19:28:14.0000000+00:00</time></trkpt><trkpt lat="63.73920822" lon="-20.17018509"><ele>40.7</ele><time>2012-07-26T19:28:19.0000000+00:00</time></trkpt><trkpt lat="63.73929596" lon="-20.17053795"><ele>39.3</ele><time>2012-07-26T19:28:24.0000000+00:00</time></trkpt><trkpt lat="63.73937607" lon="-20.17085075"><ele>39.7</ele><time>2012-07-26T19:28:29.0000000+00:00</time></trkpt><trkpt lat="63.73944855" lon="-20.17115402"><ele>39.4</ele><time>2012-07-26T19:28:34.0000000+00:00</time></trkpt><trkpt lat="63.73955154" lon="-20.17152786"><ele>38.9</ele><time>2012-07-26T19:28:39.0000000+00:00</time></trkpt><trkpt lat="63.73965836" lon="-20.17193031"><ele>41.1</ele><time>2012-07-26T19:28:44.0000000+00:00</time></trkpt><trkpt lat="63.73975372" lon="-20.17229462"><ele>39.7</ele><time>2012-07-26T19:28:49.0000000+00:00</time></trkpt><trkpt lat="63.7398262" lon="-20.17259216"><ele>39.8</ele><time>2012-07-26T19:28:54.0000000+00:00</time></trkpt><trkpt lat="63.73991394" lon="-20.17290878"><ele>39.5</ele><time>2012-07-26T19:28:59.0000000+00:00</time></trkpt><trkpt lat="63.74000931" lon="-20.17324638"><ele>39.3</ele><time>2012-07-26T19:29:04.0000000+00:00</time></trkpt><trkpt lat="63.74011612" lon="-20.17363739"><ele>40.8</ele><time>2012-07-26T19:29:09.0000000+00:00</time></trkpt><trkpt lat="63.74020386" lon="-20.17401695"><ele>40.4</ele><time>2012-07-26T19:29:14.0000000+00:00</time></trkpt><trkpt lat="63.74028778" lon="-20.17432213"><ele>40.1</ele><time>2012-07-26T19:29:19.0000000+00:00</time></trkpt><trkpt lat="63.7403717" lon="-20.17466164"><ele>40.0</ele><time>2012-07-26T19:29:24.0000000+00:00</time></trkpt><trkpt lat="63.74046326" lon="-20.17503166"><ele>40.0</ele><time>2012-07-26T19:29:29.0000000+00:00</time></trkpt><trkpt lat="63.74055862" lon="-20.17541122"><ele>39.7</ele><time>2012-07-26T19:29:34.0000000+00:00</time></trkpt><trkpt lat="63.74067307" lon="-20.17581177"><ele>39.6</ele><time>2012-07-26T19:29:39.0000000+00:00</time></trkpt><trkpt lat="63.74078751" lon="-20.1762352"><ele>39.9</ele><time>2012-07-26T19:29:44.0000000+00:00</time></trkpt><trkpt lat="63.74088669" lon="-20.17666245"><ele>39.6</ele><time>2012-07-26T19:29:49.0000000+00:00</time></trkpt><trkpt lat="63.74097061" lon="-20.17698669"><ele>40.3</ele><time>2012-07-26T19:29:54.0000000+00:00</time></trkpt><trkpt lat="63.74103928" lon="-20.17727852"><ele>39.3</ele><time>2012-07-26T19:29:59.0000000+00:00</time></trkpt><trkpt lat="63.74110794" lon="-20.17759705"><ele>39.7</ele><time>2012-07-26T19:30:04.0000000+00:00</time></trkpt><trkpt lat="63.74118424" lon="-20.17798233"><ele>40.5</ele><time>2012-07-26T19:30:09.0000000+00:00</time></trkpt><trkpt lat="63.74127579" lon="-20.17837715"><ele>41.4</ele><time>2012-07-26T19:30:14.0000000+00:00</time></trkpt><trkpt lat="63.74135208" lon="-20.17873001"><ele>41.0</ele><time>2012-07-26T19:30:19.0000000+00:00</time></trkpt><trkpt lat="63.74141693" lon="-20.17903137"><ele>40.5</ele><time>2012-07-26T19:30:24.0000000+00:00</time></trkpt><trkpt lat="63.74147415" lon="-20.17930031"><ele>40.7</ele><time>2012-07-26T19:30:29.0000000+00:00</time></trkpt><trkpt lat="63.74153519" lon="-20.17964935"><ele>41.3</ele><time>2012-07-26T19:30:34.0000000+00:00</time></trkpt><trkpt lat="63.74160385" lon="-20.18003273"><ele>40.9</ele><time>2012-07-26T19:30:39.0000000+00:00</time></trkpt><trkpt lat="63.74167252" lon="-20.18045235"><ele>40.9</ele><time>2012-07-26T19:30:44.0000000+00:00</time></trkpt><trkpt lat="63.74173355" lon="-20.18086433"><ele>38.7</ele><time>2012-07-26T19:30:49.0000000+00:00</time></trkpt><trkpt lat="63.74180222" lon="-20.18131065"><ele>38.3</ele><time>2012-07-26T19:30:54.0000000+00:00</time></trkpt><trkpt lat="63.74186325" lon="-20.18167305"><ele>37.5</ele><time>2012-07-26T19:30:59.0000000+00:00</time></trkpt><trkpt lat="63.74192429" lon="-20.18197632"><ele>37.6</ele><time>2012-07-26T19:31:04.0000000+00:00</time></trkpt><trkpt lat="63.74198914" lon="-20.18237495"><ele>37.9</ele><time>2012-07-26T19:31:09.0000000+00:00</time></trkpt><trkpt lat="63.74205017" lon="-20.18279076"><ele>37.9</ele><time>2012-07-26T19:31:14.0000000+00:00</time></trkpt><trkpt lat="63.74213791" lon="-20.18322754"><ele>37.7</ele><time>2012-07-26T19:31:19.0000000+00:00</time></trkpt><trkpt lat="63.74222946" lon="-20.18367386"><ele>37.8</ele><time>2012-07-26T19:31:24.0000000+00:00</time></trkpt><trkpt lat="63.74231339" lon="-20.18404961"><ele>37.5</ele><time>2012-07-26T19:31:29.0000000+00:00</time></trkpt><trkpt lat="63.74238968" lon="-20.18439484"><ele>38.5</ele><time>2012-07-26T19:31:34.0000000+00:00</time></trkpt><trkpt lat="63.74246216" lon="-20.18469811"><ele>40.2</ele><time>2012-07-26T19:31:39.0000000+00:00</time></trkpt><trkpt lat="63.74252701" lon="-20.18495941"><ele>40.3</ele><time>2012-07-26T19:31:44.0000000+00:00</time></trkpt><trkpt lat="63.74258041" lon="-20.18519974"><ele>39.6</ele><time>2012-07-26T19:31:49.0000000+00:00</time></trkpt><trkpt lat="63.74265289" lon="-20.1855011"><ele>37.3</ele><time>2012-07-26T19:31:54.0000000+00:00</time></trkpt><trkpt lat="63.742733" lon="-20.18583107"><ele>38.5</ele><time>2012-07-26T19:31:59.0000000+00:00</time></trkpt><trkpt lat="63.74282074" lon="-20.18620491"><ele>40.1</ele><time>2012-07-26T19:32:04.0000000+00:00</time></trkpt><trkpt lat="63.74290848" lon="-20.18657684"><ele>41.0</ele><time>2012-07-26T19:32:09.0000000+00:00</time></trkpt><trkpt lat="63.74300385" lon="-20.18693543"><ele>39.5</ele><time>2012-07-26T19:32:14.0000000+00:00</time></trkpt><trkpt lat="63.74308014" lon="-20.18726158"><ele>38.8</ele><time>2012-07-26T19:32:19.0000000+00:00</time></trkpt><trkpt lat="63.74316406" lon="-20.18757248"><ele>38.3</ele><time>2012-07-26T19:32:24.0000000+00:00</time></trkpt><trkpt lat="63.74322891" lon="-20.18782806"><ele>37.9</ele><time>2012-07-26T19:32:29.0000000+00:00</time></trkpt><trkpt lat="63.7432785" lon="-20.1880455"><ele>39.2</ele><time>2012-07-26T19:32:34.0000000+00:00</time></trkpt><trkpt lat="63.74331665" lon="-20.18820763"><ele>39.5</ele><time>2012-07-26T19:32:39.0000000+00:00</time></trkpt><trkpt lat="63.74338532" lon="-20.18851852"><ele>40.6</ele><time>2012-07-26T19:32:44.0000000+00:00</time></trkpt><trkpt lat="63.74347687" lon="-20.18885231"><ele>41.5</ele><time>2012-07-26T19:32:49.0000000+00:00</time></trkpt><trkpt lat="63.74354935" lon="-20.18918228"><ele>41.4</ele><time>2012-07-26T19:32:54.0000000+00:00</time></trkpt><trkpt lat="63.74363327" lon="-20.18951416"><ele>42.2</ele><time>2012-07-26T19:32:59.0000000+00:00</time></trkpt><trkpt lat="63.74371338" lon="-20.18985176"><ele>42.6</ele><time>2012-07-26T19:33:04.0000000+00:00</time></trkpt><trkpt lat="63.74376679" lon="-20.19008446"><ele>40.9</ele><time>2012-07-26T19:33:09.0000000+00:00</time></trkpt><trkpt lat="63.74383164" lon="-20.19035721"><ele>41.3</ele><time>2012-07-26T19:33:14.0000000+00:00</time></trkpt><trkpt lat="63.74389648" lon="-20.19062614"><ele>39.9</ele><time>2012-07-26T19:33:19.0000000+00:00</time></trkpt><trkpt lat="63.74394989" lon="-20.19086838"><ele>39.5</ele><time>2012-07-26T19:33:24.0000000+00:00</time></trkpt><trkpt lat="63.74399185" lon="-20.19105721"><ele>39.2</ele><time>2012-07-26T19:33:29.0000000+00:00</time></trkpt><trkpt lat="63.7440567" lon="-20.1913147"><ele>40.7</ele><time>2012-07-26T19:33:34.0000000+00:00</time></trkpt><trkpt lat="63.74412537" lon="-20.19155502"><ele>42.9</ele><time>2012-07-26T19:33:39.0000000+00:00</time></trkpt><trkpt lat="63.74417114" lon="-20.19181824"><ele>44.3</ele><time>2012-07-26T19:33:44.0000000+00:00</time></trkpt><trkpt lat="63.74422836" lon="-20.19208527"><ele>45.3</ele><time>2012-07-26T19:33:49.0000000+00:00</time></trkpt><trkpt lat="63.74428558" lon="-20.19237518"><ele>44.5</ele><time>2012-07-26T19:33:54.0000000+00:00</time></trkpt><trkpt lat="63.74433899" lon="-20.19266129"><ele>41.6</ele><time>2012-07-26T19:33:59.0000000+00:00</time></trkpt><trkpt lat="63.74438858" lon="-20.19293404"><ele>42.5</ele><time>2012-07-26T19:34:04.0000000+00:00</time></trkpt><trkpt lat="63.74440765" lon="-20.19308662"><ele>44.0</ele><time>2012-07-26T19:34:09.0000000+00:00</time></trkpt><trkpt lat="63.74445343" lon="-20.19332695"><ele>43.5</ele><time>2012-07-26T19:34:14.0000000+00:00</time></trkpt><trkpt lat="63.74448776" lon="-20.19362259"><ele>44.9</ele><time>2012-07-26T19:34:19.0000000+00:00</time></trkpt><trkpt lat="63.74452591" lon="-20.19392014"><ele>47.4</ele><time>2012-07-26T19:34:24.0000000+00:00</time></trkpt><trkpt lat="63.74456024" lon="-20.19404411"><ele>48.2</ele><time>2012-07-26T19:34:29.0000000+00:00</time></trkpt><trkpt lat="63.74459076" lon="-20.19433022"><ele>48.3</ele><time>2012-07-26T19:34:34.0000000+00:00</time></trkpt><trkpt lat="63.74463654" lon="-20.19465065"><ele>49.6</ele><time>2012-07-26T19:34:39.0000000+00:00</time></trkpt><trkpt lat="63.74468994" lon="-20.19493485"><ele>48.9</ele><time>2012-07-26T19:34:44.0000000+00:00</time></trkpt><trkpt lat="63.74473953" lon="-20.19524765"><ele>48.4</ele><time>2012-07-26T19:34:49.0000000+00:00</time></trkpt><trkpt lat="63.74478149" lon="-20.19556618"><ele>50.3</ele><time>2012-07-26T19:34:54.0000000+00:00</time></trkpt><trkpt lat="63.7448082" lon="-20.1958065"><ele>51.6</ele><time>2012-07-26T19:34:59.0000000+00:00</time></trkpt><trkpt lat="63.7448616" lon="-20.19611359"><ele>53.1</ele><time>2012-07-26T19:35:04.0000000+00:00</time></trkpt><trkpt lat="63.74494171" lon="-20.1964035"><ele>55.5</ele><time>2012-07-26T19:35:09.0000000+00:00</time></trkpt><trkpt lat="63.74497986" lon="-20.19656372"><ele>55.5</ele><time>2012-07-26T19:35:14.0000000+00:00</time></trkpt><trkpt lat="63.74503326" lon="-20.19678497"><ele>55.4</ele><time>2012-07-26T19:35:19.0000000+00:00</time></trkpt><trkpt lat="63.7450943" lon="-20.19701004"><ele>54.7</ele><time>2012-07-26T19:35:24.0000000+00:00</time></trkpt><trkpt lat="63.74515533" lon="-20.19725227"><ele>55.4</ele><time>2012-07-26T19:35:29.0000000+00:00</time></trkpt><trkpt lat="63.74519348" lon="-20.19738197"><ele>56.3</ele><time>2012-07-26T19:35:34.0000000+00:00</time></trkpt><trkpt lat="63.7451973" lon="-20.19738579"><ele>56.5</ele><time>2012-07-26T19:35:39.0000000+00:00</time></trkpt><trkpt lat="63.7451973" lon="-20.1973877"><ele>56.4</ele><time>2012-07-26T19:35:44.0000000+00:00</time></trkpt><trkpt lat="63.7451973" lon="-20.1973877"><ele>56.4</ele><time>2012-07-26T19:35:49.0000000+00:00</time></trkpt><trkpt lat="63.74520111" lon="-20.1973877"><ele>56.3</ele><time>2012-07-26T19:35:54.0000000+00:00</time></trkpt><trkpt lat="63.74520111" lon="-20.1973877"><ele>56.4</ele><time>2012-07-26T19:35:59.0000000+00:00</time></trkpt><trkpt lat="63.74520111" lon="-20.19739151"><ele>56.4</ele><time>2012-07-26T19:36:04.0000000+00:00</time></trkpt><trkpt lat="63.74520111" lon="-20.19739533"><ele>56.4</ele><time>2012-07-26T19:36:09.0000000+00:00</time></trkpt><trkpt lat="63.74520111" lon="-20.19739533"><ele>56.4</ele><time>2012-07-26T19:36:14.0000000+00:00</time></trkpt><trkpt lat="63.74520111" lon="-20.19739533"><ele>56.4</ele><time>2012-07-26T19:36:19.0000000+00:00</time></trkpt><trkpt lat="63.74520111" lon="-20.19739533"><ele>56.4</ele><time>2012-07-26T19:36:24.0000000+00:00</time></trkpt><trkpt lat="63.74520111" lon="-20.19739533"><ele>56.4</ele><time>2012-07-26T19:36:29.0000000+00:00</time></trkpt><trkpt lat="63.74520111" lon="-20.19739342"><ele>56.4</ele><time>2012-07-26T19:36:34.0000000+00:00</time></trkpt><trkpt lat="63.74520111" lon="-20.19739342"><ele>56.4</ele><time>2012-07-26T19:36:39.0000000+00:00</time></trkpt><trkpt lat="63.74520111" lon="-20.19739342"><ele>56.4</ele><time>2012-07-26T19:36:44.0000000+00:00</time></trkpt><trkpt lat="63.74520111" lon="-20.19739342"><ele>56.4</ele><time>2012-07-26T19:36:49.0000000+00:00</time></trkpt><trkpt lat="63.74520111" lon="-20.19739342"><ele>56.4</ele><time>2012-07-26T19:36:54.0000000+00:00</time></trkpt><trkpt lat="63.74520111" lon="-20.19739342"><ele>56.4</ele><time>2012-07-26T19:36:59.0000000+00:00</time></trkpt><trkpt lat="63.74520111" lon="-20.19739342"><ele>56.4</ele><time>2012-07-26T19:37:04.0000000+00:00</time></trkpt><trkpt lat="63.74520111" lon="-20.19739151"><ele>56.4</ele><time>2012-07-26T19:37:09.0000000+00:00</time></trkpt><trkpt lat="63.74520111" lon="-20.19739151"><ele>56.4</ele><time>2012-07-26T19:37:14.0000000+00:00</time></trkpt><trkpt lat="63.74520111" lon="-20.19739342"><ele>56.4</ele><time>2012-07-26T19:37:19.0000000+00:00</time></trkpt><trkpt lat="63.74520111" lon="-20.19739151"><ele>56.4</ele><time>2012-07-26T19:37:24.0000000+00:00</time></trkpt><trkpt lat="63.74520111" lon="-20.19739151"><ele>56.4</ele><time>2012-07-26T19:37:29.0000000+00:00</time></trkpt><trkpt lat="63.74520111" lon="-20.19739151"><ele>56.4</ele><time>2012-07-26T19:37:34.0000000+00:00</time></trkpt><trkpt lat="63.74520111" lon="-20.19739342"><ele>56.4</ele><time>2012-07-26T19:37:39.0000000+00:00</time></trkpt><trkpt lat="63.74520111" lon="-20.19739342"><ele>56.4</ele><time>2012-07-26T19:37:44.0000000+00:00</time></trkpt><trkpt lat="63.74520111" lon="-20.19739342"><ele>56.4</ele><time>2012-07-26T19:37:49.0000000+00:00</time></trkpt><trkpt lat="63.74520111" lon="-20.19739342"><ele>56.4</ele><time>2012-07-26T19:37:54.0000000+00:00</time></trkpt><trkpt lat="63.74520111" lon="-20.19739151"><ele>56.4</ele><time>2012-07-26T19:37:59.0000000+00:00</time></trkpt><trkpt lat="63.74520111" lon="-20.19739151"><ele>56.4</ele><time>2012-07-26T19:38:04.0000000+00:00</time></trkpt><trkpt lat="63.74521256" lon="-20.19741821"><ele>56.5</ele><time>2012-07-26T19:38:09.0000000+00:00</time></trkpt><trkpt lat="63.74526596" lon="-20.19762802"><ele>57.2</ele><time>2012-07-26T19:38:14.0000000+00:00</time></trkpt><trkpt lat="63.74534988" lon="-20.19791031"><ele>56.9</ele><time>2012-07-26T19:38:19.0000000+00:00</time></trkpt><trkpt lat="63.74544525" lon="-20.1982193"><ele>57.5</ele><time>2012-07-26T19:38:24.0000000+00:00</time></trkpt><trkpt lat="63.74556351" lon="-20.19858933"><ele>56.2</ele><time>2012-07-26T19:38:29.0000000+00:00</time></trkpt><trkpt lat="63.74571228" lon="-20.19902992"><ele>53.7</ele><time>2012-07-26T19:38:34.0000000+00:00</time></trkpt><trkpt lat="63.74591446" lon="-20.19959641"><ele>52.5</ele><time>2012-07-26T19:38:39.0000000+00:00</time></trkpt><trkpt lat="63.74615479" lon="-20.20024872"><ele>46.7</ele><time>2012-07-26T19:38:44.0000000+00:00</time></trkpt><trkpt lat="63.74642181" lon="-20.2009964"><ele>43.7</ele><time>2012-07-26T19:38:49.0000000+00:00</time></trkpt><trkpt lat="63.74671936" lon="-20.20178413"><ele>43.5</ele><time>2012-07-26T19:38:54.0000000+00:00</time></trkpt><trkpt lat="63.74699402" lon="-20.20252991"><ele>43.0</ele><time>2012-07-26T19:38:59.0000000+00:00</time></trkpt><trkpt lat="63.74726105" lon="-20.20323181"><ele>43.6</ele><time>2012-07-26T19:39:04.0000000+00:00</time></trkpt><trkpt lat="63.74748993" lon="-20.20384979"><ele>44.1</ele><time>2012-07-26T19:39:09.0000000+00:00</time></trkpt><trkpt lat="63.74767304" lon="-20.20435143"><ele>44.2</ele><time>2012-07-26T19:39:14.0000000+00:00</time></trkpt><trkpt lat="63.74783707" lon="-20.20480919"><ele>44.8</ele><time>2012-07-26T19:39:19.0000000+00:00</time></trkpt><trkpt lat="63.74799347" lon="-20.20528412"><ele>43.9</ele><time>2012-07-26T19:39:24.0000000+00:00</time></trkpt><trkpt lat="63.7481308" lon="-20.20572472"><ele>43.4</ele><time>2012-07-26T19:39:29.0000000+00:00</time></trkpt><trkpt lat="63.74824143" lon="-20.20609283"><ele>41.3</ele><time>2012-07-26T19:39:34.0000000+00:00</time></trkpt><trkpt lat="63.7483635" lon="-20.20646858"><ele>41.5</ele><time>2012-07-26T19:39:39.0000000+00:00</time></trkpt><trkpt lat="63.74850082" lon="-20.20690155"><ele>41.4</ele><time>2012-07-26T19:39:44.0000000+00:00</time></trkpt><trkpt lat="63.74863434" lon="-20.20737839"><ele>43.9</ele><time>2012-07-26T19:39:49.0000000+00:00</time></trkpt><trkpt lat="63.74876404" lon="-20.20776939"><ele>48.7</ele><time>2012-07-26T19:39:54.0000000+00:00</time></trkpt><trkpt lat="63.74887466" lon="-20.20821381"><ele>46.5</ele><time>2012-07-26T19:39:59.0000000+00:00</time></trkpt><trkpt lat="63.74900055" lon="-20.20863915"><ele>41.3</ele><time>2012-07-26T19:40:04.0000000+00:00</time></trkpt><trkpt lat="63.7490921" lon="-20.20902062"><ele>39.1</ele><time>2012-07-26T19:40:09.0000000+00:00</time></trkpt><trkpt lat="63.74921417" lon="-20.2094059"><ele>41.8</ele><time>2012-07-26T19:40:14.0000000+00:00</time></trkpt><trkpt lat="63.74933243" lon="-20.20983505"><ele>43.4</ele><time>2012-07-26T19:40:19.0000000+00:00</time></trkpt><trkpt lat="63.74943543" lon="-20.21024704"><ele>40.3</ele><time>2012-07-26T19:40:24.0000000+00:00</time></trkpt><trkpt lat="63.74952698" lon="-20.21058464"><ele>41.9</ele><time>2012-07-26T19:40:29.0000000+00:00</time></trkpt><trkpt lat="63.74964523" lon="-20.21097946"><ele>42.9</ele><time>2012-07-26T19:40:34.0000000+00:00</time></trkpt><trkpt lat="63.74977875" lon="-20.21144867"><ele>41.5</ele><time>2012-07-26T19:40:39.0000000+00:00</time></trkpt><trkpt lat="63.74987793" lon="-20.21184731"><ele>36.0</ele><time>2012-07-26T19:40:44.0000000+00:00</time></trkpt><trkpt lat="63.75000382" lon="-20.21230507"><ele>33.2</ele><time>2012-07-26T19:40:49.0000000+00:00</time></trkpt><trkpt lat="63.7501297" lon="-20.21274948"><ele>32.7</ele><time>2012-07-26T19:40:54.0000000+00:00</time></trkpt><trkpt lat="63.75025177" lon="-20.21314812"><ele>35.6</ele><time>2012-07-26T19:40:59.0000000+00:00</time></trkpt><trkpt lat="63.75038528" lon="-20.21363449"><ele>38.2</ele><time>2012-07-26T19:41:04.0000000+00:00</time></trkpt><trkpt lat="63.75052643" lon="-20.21410561"><ele>42.6</ele><time>2012-07-26T19:41:09.0000000+00:00</time></trkpt><trkpt lat="63.75066376" lon="-20.21456146"><ele>45.9</ele><time>2012-07-26T19:41:14.0000000+00:00</time></trkpt><trkpt lat="63.75076675" lon="-20.2150898"><ele>44.2</ele><time>2012-07-26T19:41:19.0000000+00:00</time></trkpt><trkpt lat="63.7508316" lon="-20.21557808"><ele>43.6</ele><time>2012-07-26T19:41:24.0000000+00:00</time></trkpt><trkpt lat="63.75086212" lon="-20.21602058"><ele>44.5</ele><time>2012-07-26T19:41:29.0000000+00:00</time></trkpt><trkpt lat="63.75090408" lon="-20.21652222"><ele>42.3</ele><time>2012-07-26T19:41:34.0000000+00:00</time></trkpt><trkpt lat="63.75094223" lon="-20.21713066"><ele>42.0</ele><time>2012-07-26T19:41:39.0000000+00:00</time></trkpt><trkpt lat="63.75096893" lon="-20.21776009"><ele>41.8</ele><time>2012-07-26T19:41:44.0000000+00:00</time></trkpt><trkpt lat="63.7510109" lon="-20.218256"><ele>45.4</ele><time>2012-07-26T19:41:49.0000000+00:00</time></trkpt><trkpt lat="63.75103378" lon="-20.21872711"><ele>46.2</ele><time>2012-07-26T19:41:54.0000000+00:00</time></trkpt><trkpt lat="63.75107193" lon="-20.21923447"><ele>46.6</ele><time>2012-07-26T19:41:59.0000000+00:00</time></trkpt><trkpt lat="63.751091" lon="-20.21979904"><ele>44.7</ele><time>2012-07-26T19:42:04.0000000+00:00</time></trkpt><trkpt lat="63.75112534" lon="-20.22037125"><ele>42.5</ele><time>2012-07-26T19:42:09.0000000+00:00</time></trkpt><trkpt lat="63.75117111" lon="-20.22096443"><ele>43.8</ele><time>2012-07-26T19:42:14.0000000+00:00</time></trkpt><trkpt lat="63.75120163" lon="-20.22149277"><ele>45.2</ele><time>2012-07-26T19:42:19.0000000+00:00</time></trkpt><trkpt lat="63.75121689" lon="-20.22203827"><ele>47.6</ele><time>2012-07-26T19:42:24.0000000+00:00</time></trkpt><trkpt lat="63.75122452" lon="-20.22251511"><ele>50.7</ele><time>2012-07-26T19:42:29.0000000+00:00</time></trkpt><trkpt lat="63.75122452" lon="-20.22257996"><ele>53.5</ele><time>2012-07-26T19:42:34.0000000+00:00</time></trkpt><trkpt lat="63.75122452" lon="-20.22271156"><ele>54.7</ele><time>2012-07-26T19:42:39.0000000+00:00</time></trkpt><trkpt lat="63.75120926" lon="-20.2230854"><ele>53.0</ele><time>2012-07-26T19:42:44.0000000+00:00</time></trkpt><trkpt lat="63.75116348" lon="-20.22351456"><ele>48.7</ele><time>2012-07-26T19:42:49.0000000+00:00</time></trkpt><trkpt lat="63.75112152" lon="-20.22394943"><ele>47.8</ele><time>2012-07-26T19:42:54.0000000+00:00</time></trkpt><trkpt lat="63.75106049" lon="-20.22432137"><ele>48.4</ele><time>2012-07-26T19:42:59.0000000+00:00</time></trkpt><trkpt lat="63.75104523" lon="-20.22457886"><ele>50.9</ele><time>2012-07-26T19:43:04.0000000+00:00</time></trkpt><trkpt lat="63.75101852" lon="-20.22466469"><ele>51.4</ele><time>2012-07-26T19:43:09.0000000+00:00</time></trkpt><trkpt lat="63.7510109" lon="-20.2246685"><ele>51.9</ele><time>2012-07-26T19:43:14.0000000+00:00</time></trkpt><trkpt lat="63.75098419" lon="-20.22468758"><ele>51.9</ele><time>2012-07-26T19:43:19.0000000+00:00</time></trkpt><trkpt lat="63.75088501" lon="-20.2248745"><ele>51.1</ele><time>2012-07-26T19:43:24.0000000+00:00</time></trkpt><trkpt lat="63.75075531" lon="-20.22491646"><ele>49.5</ele><time>2012-07-26T19:43:29.0000000+00:00</time></trkpt><trkpt lat="63.75058746" lon="-20.22499275"><ele>47.5</ele><time>2012-07-26T19:43:34.0000000+00:00</time></trkpt><trkpt lat="63.75046158" lon="-20.2252388"><ele>46.3</ele><time>2012-07-26T19:43:39.0000000+00:00</time></trkpt><trkpt lat="63.75038528" lon="-20.22529411"><ele>47.2</ele><time>2012-07-26T19:43:44.0000000+00:00</time></trkpt><trkpt lat="63.75038528" lon="-20.22529602"><ele>47.3</ele><time>2012-07-26T19:43:49.0000000+00:00</time></trkpt><trkpt lat="63.7503891" lon="-20.22532272"><ele>47.2</ele><time>2012-07-26T19:43:54.0000000+00:00</time></trkpt><trkpt lat="63.75044251" lon="-20.2252655"><ele>46.8</ele><time>2012-07-26T19:43:59.0000000+00:00</time></trkpt><trkpt lat="63.75054169" lon="-20.22501755"><ele>46.5</ele><time>2012-07-26T19:44:04.0000000+00:00</time></trkpt><trkpt lat="63.75065613" lon="-20.224823"><ele>45.5</ele><time>2012-07-26T19:44:09.0000000+00:00</time></trkpt><trkpt lat="63.75072479" lon="-20.22481728"><ele>45.8</ele><time>2012-07-26T19:44:14.0000000+00:00</time></trkpt><trkpt lat="63.75072479" lon="-20.22480774"><ele>45.9</ele><time>2012-07-26T19:44:19.0000000+00:00</time></trkpt><trkpt lat="63.75072861" lon="-20.22480774"><ele>45.8</ele><time>2012-07-26T19:44:24.0000000+00:00</time></trkpt><trkpt lat="63.75072861" lon="-20.22480774"><ele>46.0</ele><time>2012-07-26T19:44:29.0000000+00:00</time></trkpt><trkpt lat="63.7507782" lon="-20.22480202"><ele>46.1</ele><time>2012-07-26T19:44:34.0000000+00:00</time></trkpt><trkpt lat="63.75087357" lon="-20.22484207"><ele>45.6</ele><time>2012-07-26T19:44:39.0000000+00:00</time></trkpt><trkpt lat="63.75092697" lon="-20.22483254"><ele>46.2</ele><time>2012-07-26T19:44:44.0000000+00:00</time></trkpt><trkpt lat="63.75091934" lon="-20.22468567"><ele>45.7</ele><time>2012-07-26T19:44:49.0000000+00:00</time></trkpt><trkpt lat="63.7509346" lon="-20.22449875"><ele>45.6</ele><time>2012-07-26T19:44:54.0000000+00:00</time></trkpt><trkpt lat="63.75096893" lon="-20.22432137"><ele>44.9</ele><time>2012-07-26T19:44:59.0000000+00:00</time></trkpt><trkpt lat="63.75099564" lon="-20.22401428"><ele>44.3</ele><time>2012-07-26T19:45:04.0000000+00:00</time></trkpt><trkpt lat="63.75101852" lon="-20.22372627"><ele>43.3</ele><time>2012-07-26T19:45:09.0000000+00:00</time></trkpt><trkpt lat="63.75104904" lon="-20.22344399"><ele>42.4</ele><time>2012-07-26T19:45:14.0000000+00:00</time></trkpt><trkpt lat="63.75108337" lon="-20.22319412"><ele>43.2</ele><time>2012-07-26T19:45:19.0000000+00:00</time></trkpt><trkpt lat="63.75107193" lon="-20.22304344"><ele>44.8</ele><time>2012-07-26T19:45:24.0000000+00:00</time></trkpt><trkpt lat="63.75102615" lon="-20.22290802"><ele>44.5</ele><time>2012-07-26T19:45:29.0000000+00:00</time></trkpt><trkpt lat="63.75109863" lon="-20.22286415"><ele>42.0</ele><time>2012-07-26T19:45:34.0000000+00:00</time></trkpt><trkpt lat="63.75117493" lon="-20.22298241"><ele>41.1</ele><time>2012-07-26T19:45:39.0000000+00:00</time></trkpt><trkpt lat="63.75118637" lon="-20.22307587"><ele>39.8</ele><time>2012-07-26T19:45:44.0000000+00:00</time></trkpt><trkpt lat="63.75118637" lon="-20.22307587"><ele>39.8</ele><time>2012-07-26T19:45:49.0000000+00:00</time></trkpt><trkpt lat="63.75118637" lon="-20.22308159"><ele>39.7</ele><time>2012-07-26T19:45:54.0000000+00:00</time></trkpt><trkpt lat="63.75118637" lon="-20.2230835"><ele>39.7</ele><time>2012-07-26T19:45:59.0000000+00:00</time></trkpt><trkpt lat="63.75118637" lon="-20.22308731"><ele>39.7</ele><time>2012-07-26T19:46:04.0000000+00:00</time></trkpt><trkpt lat="63.75118637" lon="-20.22309113"><ele>39.7</ele><time>2012-07-26T19:46:09.0000000+00:00</time></trkpt><trkpt lat="63.75118637" lon="-20.22309494"><ele>39.8</ele><time>2012-07-26T19:46:14.0000000+00:00</time></trkpt><trkpt lat="63.75118637" lon="-20.22309494"><ele>39.8</ele><time>2012-07-26T19:46:19.0000000+00:00</time></trkpt><trkpt lat="63.75118637" lon="-20.22309303"><ele>39.8</ele><time>2012-07-26T19:46:24.0000000+00:00</time></trkpt><trkpt lat="63.75118637" lon="-20.22309303"><ele>39.8</ele><time>2012-07-26T19:46:29.0000000+00:00</time></trkpt><trkpt lat="63.75118637" lon="-20.22309303"><ele>39.8</ele><time>2012-07-26T19:46:34.0000000+00:00</time></trkpt><trkpt lat="63.75118637" lon="-20.22309303"><ele>39.8</ele><time>2012-07-26T19:46:39.0000000+00:00</time></trkpt><trkpt lat="63.75118256" lon="-20.22311211"><ele>39.8</ele><time>2012-07-26T19:46:44.0000000+00:00</time></trkpt><trkpt lat="63.75118256" lon="-20.22290421"><ele>40.0</ele><time>2012-07-26T19:46:49.0000000+00:00</time></trkpt><trkpt lat="63.75128174" lon="-20.22280502"><ele>40.9</ele><time>2012-07-26T19:46:54.0000000+00:00</time></trkpt><trkpt lat="63.75143433" lon="-20.22274017"><ele>41.5</ele><time>2012-07-26T19:46:59.0000000+00:00</time></trkpt><trkpt lat="63.75156021" lon="-20.22276688"><ele>41.6</ele><time>2012-07-26T19:47:04.0000000+00:00</time></trkpt><trkpt lat="63.75146103" lon="-20.22298241"><ele>41.1</ele><time>2012-07-26T19:47:09.0000000+00:00</time></trkpt><trkpt lat="63.75128555" lon="-20.22302628"><ele>41.1</ele><time>2012-07-26T19:47:14.0000000+00:00</time></trkpt><trkpt lat="63.75125504" lon="-20.22340775"><ele>39.7</ele><time>2012-07-26T19:47:19.0000000+00:00</time></trkpt><trkpt lat="63.75128937" lon="-20.22384071"><ele>39.0</ele><time>2012-07-26T19:47:24.0000000+00:00</time></trkpt><trkpt lat="63.75132752" lon="-20.22420692"><ele>39.3</ele><time>2012-07-26T19:47:29.0000000+00:00</time></trkpt><trkpt lat="63.75134659" lon="-20.22452927"><ele>43.0</ele><time>2012-07-26T19:47:34.0000000+00:00</time></trkpt><trkpt lat="63.75138092" lon="-20.22486115"><ele>48.6</ele><time>2012-07-26T19:47:39.0000000+00:00</time></trkpt><trkpt lat="63.75139618" lon="-20.22519493"><ele>49.2</ele><time>2012-07-26T19:47:44.0000000+00:00</time></trkpt><trkpt lat="63.75142288" lon="-20.22543716"><ele>50.4</ele><time>2012-07-26T19:47:49.0000000+00:00</time></trkpt><trkpt lat="63.75141907" lon="-20.22554016"><ele>45.7</ele><time>2012-07-26T19:47:54.0000000+00:00</time></trkpt><trkpt lat="63.75142288" lon="-20.22555161"><ele>45.3</ele><time>2012-07-26T19:47:59.0000000+00:00</time></trkpt><trkpt lat="63.75141907" lon="-20.22557068"><ele>45.4</ele><time>2012-07-26T19:48:04.0000000+00:00</time></trkpt><trkpt lat="63.75141907" lon="-20.22557449"><ele>45.4</ele><time>2012-07-26T19:48:09.0000000+00:00</time></trkpt><trkpt lat="63.75141907" lon="-20.22557259"><ele>45.4</ele><time>2012-07-26T19:48:14.0000000+00:00</time></trkpt><trkpt lat="63.75142288" lon="-20.22557068"><ele>45.4</ele><time>2012-07-26T19:48:19.0000000+00:00</time></trkpt><trkpt lat="63.75142288" lon="-20.22557068"><ele>45.3</ele><time>2012-07-26T19:48:24.0000000+00:00</time></trkpt><trkpt lat="63.75142288" lon="-20.22557068"><ele>45.3</ele><time>2012-07-26T19:48:29.0000000+00:00</time></trkpt><trkpt lat="63.75142288" lon="-20.22557068"><ele>45.3</ele><time>2012-07-26T19:48:34.0000000+00:00</time></trkpt><trkpt lat="63.75142288" lon="-20.22557068"><ele>45.3</ele><time>2012-07-26T19:48:39.0000000+00:00</time></trkpt><trkpt lat="63.75142288" lon="-20.22557068"><ele>45.3</ele><time>2012-07-26T19:48:44.0000000+00:00</time></trkpt><trkpt lat="63.75142288" lon="-20.22557068"><ele>45.2</ele><time>2012-07-26T19:48:49.0000000+00:00</time></trkpt><trkpt lat="63.75142288" lon="-20.22556877"><ele>45.2</ele><time>2012-07-26T19:48:54.0000000+00:00</time></trkpt><trkpt lat="63.75142288" lon="-20.22556877"><ele>45.2</ele><time>2012-07-26T19:48:59.0000000+00:00</time></trkpt><trkpt lat="63.75142288" lon="-20.22556877"><ele>45.2</ele><time>2012-07-26T19:49:04.0000000+00:00</time></trkpt><trkpt lat="63.75142288" lon="-20.22556877"><ele>45.2</ele><time>2012-07-26T19:49:09.0000000+00:00</time></trkpt><trkpt lat="63.75142288" lon="-20.22556877"><ele>45.2</ele><time>2012-07-26T19:49:14.0000000+00:00</time></trkpt><trkpt lat="63.75142288" lon="-20.22556877"><ele>45.2</ele><time>2012-07-26T19:49:19.0000000+00:00</time></trkpt><trkpt lat="63.75142288" lon="-20.22556686"><ele>45.2</ele><time>2012-07-26T19:49:24.0000000+00:00</time></trkpt><trkpt lat="63.75142288" lon="-20.22556686"><ele>45.3</ele><time>2012-07-26T19:49:29.0000000+00:00</time></trkpt><trkpt lat="63.75142288" lon="-20.22556686"><ele>45.2</ele><time>2012-07-26T19:49:34.0000000+00:00</time></trkpt><trkpt lat="63.75142288" lon="-20.22556686"><ele>45.2</ele><time>2012-07-26T19:49:39.0000000+00:00</time></trkpt><trkpt lat="63.75142288" lon="-20.22556686"><ele>45.2</ele><time>2012-07-26T19:49:44.0000000+00:00</time></trkpt><trkpt lat="63.75142288" lon="-20.22556686"><ele>45.2</ele><time>2012-07-26T19:49:49.0000000+00:00</time></trkpt><trkpt lat="63.75142288" lon="-20.22556686"><ele>45.2</ele><time>2012-07-26T19:49:54.0000000+00:00</time></trkpt><trkpt lat="63.75142288" lon="-20.22556686"><ele>45.1</ele><time>2012-07-26T19:49:59.0000000+00:00</time></trkpt><trkpt lat="63.75141907" lon="-20.22556686"><ele>45.1</ele><time>2012-07-26T19:50:04.0000000+00:00</time></trkpt><trkpt lat="63.75141907" lon="-20.22556686"><ele>45.1</ele><time>2012-07-26T19:50:09.0000000+00:00</time></trkpt><trkpt lat="63.75141907" lon="-20.22556496"><ele>45.2</ele><time>2012-07-26T19:50:14.0000000+00:00</time></trkpt><trkpt lat="63.75141907" lon="-20.22556496"><ele>45.2</ele><time>2012-07-26T19:50:19.0000000+00:00</time></trkpt><trkpt lat="63.75141907" lon="-20.22556496"><ele>45.2</ele><time>2012-07-26T19:50:24.0000000+00:00</time></trkpt><trkpt lat="63.75141907" lon="-20.22556305"><ele>45.2</ele><time>2012-07-26T19:50:29.0000000+00:00</time></trkpt><trkpt lat="63.75141907" lon="-20.22556305"><ele>45.2</ele><time>2012-07-26T19:50:34.0000000+00:00</time></trkpt><trkpt lat="63.75141907" lon="-20.22556305"><ele>45.2</ele><time>2012-07-26T19:50:39.0000000+00:00</time></trkpt><trkpt lat="63.75141907" lon="-20.22556305"><ele>45.2</ele><time>2012-07-26T19:50:44.0000000+00:00</time></trkpt><trkpt lat="63.75141907" lon="-20.22556305"><ele>45.2</ele><time>2012-07-26T19:50:49.0000000+00:00</time></trkpt><trkpt lat="63.75141907" lon="-20.22556305"><ele>45.2</ele><time>2012-07-26T19:50:54.0000000+00:00</time></trkpt><trkpt lat="63.75141907" lon="-20.22556114"><ele>45.2</ele><time>2012-07-26T19:50:59.0000000+00:00</time></trkpt><trkpt lat="63.75141907" lon="-20.22556114"><ele>45.2</ele><time>2012-07-26T19:51:04.0000000+00:00</time></trkpt><trkpt lat="63.75141907" lon="-20.22556114"><ele>45.2</ele><time>2012-07-26T19:51:09.0000000+00:00</time></trkpt><trkpt lat="63.75141907" lon="-20.22556114"><ele>45.2</ele><time>2012-07-26T19:51:14.0000000+00:00</time></trkpt><trkpt lat="63.75141907" lon="-20.22556114"><ele>45.2</ele><time>2012-07-26T19:51:19.0000000+00:00</time></trkpt><trkpt lat="63.75141907" lon="-20.22556114"><ele>45.1</ele><time>2012-07-26T19:51:24.0000000+00:00</time></trkpt><trkpt lat="63.75141907" lon="-20.22556114"><ele>45.1</ele><time>2012-07-26T19:51:29.0000000+00:00</time></trkpt><trkpt lat="63.75141907" lon="-20.22555924"><ele>45.1</ele><time>2012-07-26T19:51:34.0000000+00:00</time></trkpt><trkpt lat="63.75142288" lon="-20.22555924"><ele>45.1</ele><time>2012-07-26T19:51:39.0000000+00:00</time></trkpt><trkpt lat="63.75142288" lon="-20.22553825"><ele>45.3</ele><time>2012-07-26T19:51:44.0000000+00:00</time></trkpt><trkpt lat="63.75142288" lon="-20.22553635"><ele>45.3</ele><time>2012-07-26T19:51:49.0000000+00:00</time></trkpt><trkpt lat="63.75142288" lon="-20.22553635"><ele>45.3</ele><time>2012-07-26T19:51:54.0000000+00:00</time></trkpt><trkpt lat="63.7514267" lon="-20.22553635"><ele>45.3</ele><time>2012-07-26T19:51:59.0000000+00:00</time></trkpt><trkpt lat="63.7514267" lon="-20.22553635"><ele>45.3</ele><time>2012-07-26T19:52:04.0000000+00:00</time></trkpt><trkpt lat="63.7514267" lon="-20.22553444"><ele>45.3</ele><time>2012-07-26T19:52:09.0000000+00:00</time></trkpt><trkpt lat="63.7514267" lon="-20.22553444"><ele>45.3</ele><time>2012-07-26T19:52:14.0000000+00:00</time></trkpt><trkpt lat="63.7514267" lon="-20.22553444"><ele>45.3</ele><time>2012-07-26T19:52:19.0000000+00:00</time></trkpt><trkpt lat="63.7514267" lon="-20.22553444"><ele>45.3</ele><time>2012-07-26T19:52:24.0000000+00:00</time></trkpt><trkpt lat="63.7514267" lon="-20.22553253"><ele>45.3</ele><time>2012-07-26T19:52:29.0000000+00:00</time></trkpt><trkpt lat="63.7514267" lon="-20.22553253"><ele>45.3</ele><time>2012-07-26T19:52:34.0000000+00:00</time></trkpt><trkpt lat="63.7514267" lon="-20.22553253"><ele>45.3</ele><time>2012-07-26T19:52:39.0000000+00:00</time></trkpt><trkpt lat="63.7514267" lon="-20.22553253"><ele>45.3</ele><time>2012-07-26T19:52:44.0000000+00:00</time></trkpt><trkpt lat="63.7514267" lon="-20.22553253"><ele>45.3</ele><time>2012-07-26T19:52:49.0000000+00:00</time></trkpt><trkpt lat="63.75143433" lon="-20.22563171"><ele>45.4</ele><time>2012-07-26T19:52:54.0000000+00:00</time></trkpt><trkpt lat="63.75147247" lon="-20.22602654"><ele>45.9</ele><time>2012-07-26T19:52:59.0000000+00:00</time></trkpt><trkpt lat="63.75151062" lon="-20.22645187"><ele>47.6</ele><time>2012-07-26T19:53:04.0000000+00:00</time></trkpt><trkpt lat="63.7515564" lon="-20.22697258"><ele>51.8</ele><time>2012-07-26T19:53:09.0000000+00:00</time></trkpt><trkpt lat="63.75159836" lon="-20.22743797"><ele>58.4</ele><time>2012-07-26T19:53:14.0000000+00:00</time></trkpt><trkpt lat="63.75162888" lon="-20.22796822"><ele>63.4</ele><time>2012-07-26T19:53:19.0000000+00:00</time></trkpt><trkpt lat="63.75168228" lon="-20.22854424"><ele>67.9</ele><time>2012-07-26T19:53:24.0000000+00:00</time></trkpt><trkpt lat="63.75172043" lon="-20.22905731"><ele>69.8</ele><time>2012-07-26T19:53:29.0000000+00:00</time></trkpt><trkpt lat="63.75175095" lon="-20.22960472"><ele>74.8</ele><time>2012-07-26T19:53:34.0000000+00:00</time></trkpt><trkpt lat="63.75178909" lon="-20.23010445"><ele>78.6</ele><time>2012-07-26T19:53:39.0000000+00:00</time></trkpt><trkpt lat="63.75183487" lon="-20.23068619"><ele>81.7</ele><time>2012-07-26T19:53:44.0000000+00:00</time></trkpt><trkpt lat="63.75186157" lon="-20.23123169"><ele>81.2</ele><time>2012-07-26T19:53:49.0000000+00:00</time></trkpt><trkpt lat="63.75188446" lon="-20.23175621"><ele>78.3</ele><time>2012-07-26T19:53:54.0000000+00:00</time></trkpt><trkpt lat="63.75191116" lon="-20.23213959"><ele>75.2</ele><time>2012-07-26T19:53:59.0000000+00:00</time></trkpt><trkpt lat="63.75193787" lon="-20.23251152"><ele>78.0</ele><time>2012-07-26T19:54:04.0000000+00:00</time></trkpt><trkpt lat="63.75195313" lon="-20.2329998"><ele>73.2</ele><time>2012-07-26T19:54:09.0000000+00:00</time></trkpt><trkpt lat="63.75192642" lon="-20.23353958"><ele>65.5</ele><time>2012-07-26T19:54:14.0000000+00:00</time></trkpt><trkpt lat="63.7518158" lon="-20.2340622"><ele>56.6</ele><time>2012-07-26T19:54:19.0000000+00:00</time></trkpt><trkpt lat="63.75167084" lon="-20.23450851"><ele>47.7</ele><time>2012-07-26T19:54:24.0000000+00:00</time></trkpt><trkpt lat="63.75152206" lon="-20.23491669"><ele>40.5</ele><time>2012-07-26T19:54:29.0000000+00:00</time></trkpt><trkpt lat="63.75143814" lon="-20.23526001"><ele>39.3</ele><time>2012-07-26T19:54:34.0000000+00:00</time></trkpt><trkpt lat="63.75134659" lon="-20.23545265"><ele>37.4</ele><time>2012-07-26T19:54:39.0000000+00:00</time></trkpt><trkpt lat="63.75125885" lon="-20.23554421"><ele>36.4</ele><time>2012-07-26T19:54:44.0000000+00:00</time></trkpt><trkpt lat="63.7512207" lon="-20.23548126"><ele>35.2</ele><time>2012-07-26T19:54:49.0000000+00:00</time></trkpt><trkpt lat="63.75108719" lon="-20.23522568"><ele>36.8</ele><time>2012-07-26T19:54:54.0000000+00:00</time></trkpt><trkpt lat="63.75093842" lon="-20.23500824"><ele>34.9</ele><time>2012-07-26T19:54:59.0000000+00:00</time></trkpt><trkpt lat="63.7508049" lon="-20.23480797"><ele>34.3</ele><time>2012-07-26T19:55:04.0000000+00:00</time></trkpt><trkpt lat="63.75071716" lon="-20.23464203"><ele>35.9</ele><time>2012-07-26T19:55:09.0000000+00:00</time></trkpt><trkpt lat="63.75057983" lon="-20.23446083"><ele>34.0</ele><time>2012-07-26T19:55:14.0000000+00:00</time></trkpt><trkpt lat="63.75047684" lon="-20.23428345"><ele>35.3</ele><time>2012-07-26T19:55:19.0000000+00:00</time></trkpt><trkpt lat="63.75037384" lon="-20.23413849"><ele>39.0</ele><time>2012-07-26T19:55:24.0000000+00:00</time></trkpt><trkpt lat="63.75027466" lon="-20.23399735"><ele>40.0</ele><time>2012-07-26T19:55:29.0000000+00:00</time></trkpt><trkpt lat="63.75017166" lon="-20.23387718"><ele>38.3</ele><time>2012-07-26T19:55:34.0000000+00:00</time></trkpt><trkpt lat="63.75007248" lon="-20.2336998"><ele>35.9</ele><time>2012-07-26T19:55:39.0000000+00:00</time></trkpt><trkpt lat="63.74994659" lon="-20.23352242"><ele>36.2</ele><time>2012-07-26T19:55:44.0000000+00:00</time></trkpt><trkpt lat="63.74982071" lon="-20.23333931"><ele>35.8</ele><time>2012-07-26T19:55:49.0000000+00:00</time></trkpt><trkpt lat="63.74972534" lon="-20.23321533"><ele>39.2</ele><time>2012-07-26T19:55:54.0000000+00:00</time></trkpt><trkpt lat="63.74966431" lon="-20.23309135"><ele>43.3</ele><time>2012-07-26T19:55:59.0000000+00:00</time></trkpt><trkpt lat="63.7495842" lon="-20.23298645"><ele>42.6</ele><time>2012-07-26T19:56:04.0000000+00:00</time></trkpt><trkpt lat="63.74949265" lon="-20.23283577"><ele>41.1</ele><time>2012-07-26T19:56:09.0000000+00:00</time></trkpt><trkpt lat="63.74939728" lon="-20.23267746"><ele>42.4</ele><time>2012-07-26T19:56:14.0000000+00:00</time></trkpt><trkpt lat="63.74933624" lon="-20.23247719"><ele>45.1</ele><time>2012-07-26T19:56:19.0000000+00:00</time></trkpt><trkpt lat="63.74947357" lon="-20.2325058"><ele>46.6</ele><time>2012-07-26T19:56:24.0000000+00:00</time></trkpt><trkpt lat="63.74961853" lon="-20.23264885"><ele>41.8</ele><time>2012-07-26T19:56:29.0000000+00:00</time></trkpt><trkpt lat="63.74978638" lon="-20.23286247"><ele>39.8</ele><time>2012-07-26T19:56:34.0000000+00:00</time></trkpt><trkpt lat="63.74993515" lon="-20.23310471"><ele>39.8</ele><time>2012-07-26T19:56:39.0000000+00:00</time></trkpt><trkpt lat="63.75003815" lon="-20.23312569"><ele>38.9</ele><time>2012-07-26T19:56:44.0000000+00:00</time></trkpt><trkpt lat="63.75016785" lon="-20.23308754"><ele>37.5</ele><time>2012-07-26T19:56:49.0000000+00:00</time></trkpt><trkpt lat="63.75028992" lon="-20.23310089"><ele>37.2</ele><time>2012-07-26T19:56:54.0000000+00:00</time></trkpt><trkpt lat="63.75041199" lon="-20.23328018"><ele>38.0</ele><time>2012-07-26T19:56:59.0000000+00:00</time></trkpt><trkpt lat="63.75050736" lon="-20.23323441"><ele>37.9</ele><time>2012-07-26T19:57:04.0000000+00:00</time></trkpt><trkpt lat="63.75058746" lon="-20.23311806"><ele>38.8</ele><time>2012-07-26T19:57:09.0000000+00:00</time></trkpt><trkpt lat="63.7506218" lon="-20.23300171"><ele>39.4</ele><time>2012-07-26T19:57:14.0000000+00:00</time></trkpt><trkpt lat="63.75057983" lon="-20.23299027"><ele>38.2</ele><time>2012-07-26T19:57:19.0000000+00:00</time></trkpt><trkpt lat="63.75053406" lon="-20.23312569"><ele>36.7</ele><time>2012-07-26T19:57:24.0000000+00:00</time></trkpt><trkpt lat="63.75055313" lon="-20.23312759"><ele>36.9</ele><time>2012-07-26T19:57:29.0000000+00:00</time></trkpt><trkpt lat="63.75055313" lon="-20.2331295"><ele>36.7</ele><time>2012-07-26T19:57:34.0000000+00:00</time></trkpt><trkpt lat="63.75055695" lon="-20.23311043"><ele>36.9</ele><time>2012-07-26T19:57:39.0000000+00:00</time></trkpt><trkpt lat="63.75055313" lon="-20.23299599"><ele>36.3</ele><time>2012-07-26T19:57:44.0000000+00:00</time></trkpt><trkpt lat="63.75050354" lon="-20.23289681"><ele>37.7</ele><time>2012-07-26T19:57:49.0000000+00:00</time></trkpt><trkpt lat="63.75045013" lon="-20.23283196"><ele>36.8</ele><time>2012-07-26T19:57:54.0000000+00:00</time></trkpt><trkpt lat="63.75045395" lon="-20.23283196"><ele>36.6</ele><time>2012-07-26T19:57:59.0000000+00:00</time></trkpt><trkpt lat="63.75045776" lon="-20.23283386"><ele>36.5</ele><time>2012-07-26T19:58:04.0000000+00:00</time></trkpt><trkpt lat="63.75045395" lon="-20.23283386"><ele>36.2</ele><time>2012-07-26T19:58:09.0000000+00:00</time></trkpt><trkpt lat="63.75045395" lon="-20.23282814"><ele>35.8</ele><time>2012-07-26T19:58:14.0000000+00:00</time></trkpt><trkpt lat="63.75045395" lon="-20.23282814"><ele>35.7</ele><time>2012-07-26T19:58:19.0000000+00:00</time></trkpt><trkpt lat="63.75045395" lon="-20.23282814"><ele>35.7</ele><time>2012-07-26T19:58:24.0000000+00:00</time></trkpt><trkpt lat="63.75046158" lon="-20.23279953"><ele>35.7</ele><time>2012-07-26T19:58:29.0000000+00:00</time></trkpt><trkpt lat="63.75054169" lon="-20.23278427"><ele>35.2</ele><time>2012-07-26T19:58:34.0000000+00:00</time></trkpt><trkpt lat="63.75066376" lon="-20.23283577"><ele>35.1</ele><time>2012-07-26T19:58:39.0000000+00:00</time></trkpt><trkpt lat="63.7508316" lon="-20.23286438"><ele>36.9</ele><time>2012-07-26T19:58:44.0000000+00:00</time></trkpt><trkpt lat="63.75095749" lon="-20.23282623"><ele>37.7</ele><time>2012-07-26T19:58:49.0000000+00:00</time></trkpt><trkpt lat="63.75108719" lon="-20.23271751"><ele>40.4</ele><time>2012-07-26T19:58:54.0000000+00:00</time></trkpt><trkpt lat="63.75122452" lon="-20.23259354"><ele>40.5</ele><time>2012-07-26T19:58:59.0000000+00:00</time></trkpt><trkpt lat="63.75134659" lon="-20.23244667"><ele>40.0</ele><time>2012-07-26T19:59:04.0000000+00:00</time></trkpt><trkpt lat="63.7514534" lon="-20.23231316"><ele>37.4</ele><time>2012-07-26T19:59:09.0000000+00:00</time></trkpt><trkpt lat="63.75150681" lon="-20.23219681"><ele>36.6</ele><time>2012-07-26T19:59:14.0000000+00:00</time></trkpt><trkpt lat="63.75151444" lon="-20.23217392"><ele>36.4</ele><time>2012-07-26T19:59:19.0000000+00:00</time></trkpt><trkpt lat="63.75151444" lon="-20.23217392"><ele>36.2</ele><time>2012-07-26T19:59:24.0000000+00:00</time></trkpt><trkpt lat="63.75151444" lon="-20.23217583"><ele>36.0</ele><time>2012-07-26T19:59:29.0000000+00:00</time></trkpt><trkpt lat="63.75151825" lon="-20.23217964"><ele>36.0</ele><time>2012-07-26T19:59:34.0000000+00:00</time></trkpt><trkpt lat="63.75151444" lon="-20.23217773"><ele>35.9</ele><time>2012-07-26T19:59:39.0000000+00:00</time></trkpt><trkpt lat="63.75151444" lon="-20.23217773"><ele>35.8</ele><time>2012-07-26T19:59:44.0000000+00:00</time></trkpt><trkpt lat="63.75152588" lon="-20.23217392"><ele>35.6</ele><time>2012-07-26T19:59:49.0000000+00:00</time></trkpt><trkpt lat="63.75152588" lon="-20.23218536"><ele>35.5</ele><time>2012-07-26T19:59:54.0000000+00:00</time></trkpt><trkpt lat="63.7514534" lon="-20.23229981"><ele>35.6</ele><time>2012-07-26T19:59:59.0000000+00:00</time></trkpt><trkpt lat="63.75129318" lon="-20.23252106"><ele>36.9</ele><time>2012-07-26T20:00:04.0000000+00:00</time></trkpt><trkpt lat="63.75113297" lon="-20.23270607"><ele>38.3</ele><time>2012-07-26T20:00:09.0000000+00:00</time></trkpt><trkpt lat="63.75097656" lon="-20.23283005"><ele>38.8</ele><time>2012-07-26T20:00:14.0000000+00:00</time></trkpt><trkpt lat="63.75082779" lon="-20.23285675"><ele>38.1</ele><time>2012-07-26T20:00:19.0000000+00:00</time></trkpt><trkpt lat="63.75068283" lon="-20.23289681"><ele>37.8</ele><time>2012-07-26T20:00:24.0000000+00:00</time></trkpt><trkpt lat="63.7505455" lon="-20.2331028"><ele>36.5</ele><time>2012-07-26T20:00:29.0000000+00:00</time></trkpt><trkpt lat="63.75051117" lon="-20.23339844"><ele>39.6</ele><time>2012-07-26T20:00:34.0000000+00:00</time></trkpt><trkpt lat="63.75060272" lon="-20.23355103"><ele>38.1</ele><time>2012-07-26T20:00:39.0000000+00:00</time></trkpt><trkpt lat="63.75072098" lon="-20.2336216"><ele>35.2</ele><time>2012-07-26T20:00:44.0000000+00:00</time></trkpt><trkpt lat="63.75084305" lon="-20.233778"><ele>35.9</ele><time>2012-07-26T20:00:49.0000000+00:00</time></trkpt><trkpt lat="63.7509079" lon="-20.2340889"><ele>38.4</ele><time>2012-07-26T20:00:54.0000000+00:00</time></trkpt><trkpt lat="63.75102234" lon="-20.23439026"><ele>37.7</ele><time>2012-07-26T20:00:59.0000000+00:00</time></trkpt><trkpt lat="63.75114441" lon="-20.23461914"><ele>39.7</ele><time>2012-07-26T20:01:04.0000000+00:00</time></trkpt><trkpt lat="63.75127792" lon="-20.23483276"><ele>42.6</ele><time>2012-07-26T20:01:09.0000000+00:00</time></trkpt><trkpt lat="63.75138092" lon="-20.23506928"><ele>41.1</ele><time>2012-07-26T20:01:14.0000000+00:00</time></trkpt><trkpt lat="63.75136948" lon="-20.23539734"><ele>41.7</ele><time>2012-07-26T20:01:19.0000000+00:00</time></trkpt><trkpt lat="63.751297" lon="-20.23561287"><ele>37.7</ele><time>2012-07-26T20:01:24.0000000+00:00</time></trkpt><trkpt lat="63.75121307" lon="-20.23587799"><ele>37.5</ele><time>2012-07-26T20:01:29.0000000+00:00</time></trkpt><trkpt lat="63.7511673" lon="-20.23609543"><ele>36.8</ele><time>2012-07-26T20:01:34.0000000+00:00</time></trkpt><trkpt lat="63.75105286" lon="-20.23639488"><ele>34.6</ele><time>2012-07-26T20:01:39.0000000+00:00</time></trkpt><trkpt lat="63.75096512" lon="-20.23663139"><ele>32.0</ele><time>2012-07-26T20:01:44.0000000+00:00</time></trkpt><trkpt lat="63.7508316" lon="-20.23684883"><ele>32.2</ele><time>2012-07-26T20:01:49.0000000+00:00</time></trkpt><trkpt lat="63.75066757" lon="-20.23715019"><ele>33.2</ele><time>2012-07-26T20:01:54.0000000+00:00</time></trkpt><trkpt lat="63.75053787" lon="-20.2375927"><ele>31.9</ele><time>2012-07-26T20:01:59.0000000+00:00</time></trkpt><trkpt lat="63.75045776" lon="-20.23804474"><ele>32.2</ele><time>2012-07-26T20:02:04.0000000+00:00</time></trkpt><trkpt lat="63.75037384" lon="-20.23858261"><ele>31.9</ele><time>2012-07-26T20:02:09.0000000+00:00</time></trkpt><trkpt lat="63.75029373" lon="-20.23902512"><ele>33.1</ele><time>2012-07-26T20:02:14.0000000+00:00</time></trkpt><trkpt lat="63.75013733" lon="-20.23892593"><ele>37.4</ele><time>2012-07-26T20:02:19.0000000+00:00</time></trkpt><trkpt lat="63.75003052" lon="-20.23861313"><ele>39.0</ele><time>2012-07-26T20:02:24.0000000+00:00</time></trkpt><trkpt lat="63.74994659" lon="-20.23843384"><ele>41.8</ele><time>2012-07-26T20:02:29.0000000+00:00</time></trkpt><trkpt lat="63.74987793" lon="-20.23869324"><ele>43.4</ele><time>2012-07-26T20:02:34.0000000+00:00</time></trkpt><trkpt lat="63.74981308" lon="-20.23907852"><ele>41.0</ele><time>2012-07-26T20:02:39.0000000+00:00</time></trkpt><trkpt lat="63.74974442" lon="-20.2395134"><ele>40.7</ele><time>2012-07-26T20:02:44.0000000+00:00</time></trkpt><trkpt lat="63.74970627" lon="-20.23984528"><ele>38.5</ele><time>2012-07-26T20:02:49.0000000+00:00</time></trkpt><trkpt lat="63.74971008" lon="-20.23996735"><ele>38.7</ele><time>2012-07-26T20:02:54.0000000+00:00</time></trkpt><trkpt lat="63.74974442" lon="-20.23985672"><ele>38.7</ele><time>2012-07-26T20:02:59.0000000+00:00</time></trkpt><trkpt lat="63.7497406" lon="-20.23958778"><ele>40.1</ele><time>2012-07-26T20:03:04.0000000+00:00</time></trkpt><trkpt lat="63.74977875" lon="-20.23927116"><ele>39.9</ele><time>2012-07-26T20:03:09.0000000+00:00</time></trkpt><trkpt lat="63.74979401" lon="-20.23906899"><ele>39.6</ele><time>2012-07-26T20:03:14.0000000+00:00</time></trkpt><trkpt lat="63.74982834" lon="-20.23894119"><ele>39.6</ele><time>2012-07-26T20:03:19.0000000+00:00</time></trkpt><trkpt lat="63.74985123" lon="-20.23874855"><ele>39.2</ele><time>2012-07-26T20:03:24.0000000+00:00</time></trkpt><trkpt lat="63.74983597" lon="-20.2386322"><ele>39.6</ele><time>2012-07-26T20:03:29.0000000+00:00</time></trkpt><trkpt lat="63.74985123" lon="-20.23851585"><ele>40.9</ele><time>2012-07-26T20:03:34.0000000+00:00</time></trkpt><trkpt lat="63.74990845" lon="-20.23855019"><ele>40.8</ele><time>2012-07-26T20:03:39.0000000+00:00</time></trkpt><trkpt lat="63.74992371" lon="-20.23859215"><ele>40.6</ele><time>2012-07-26T20:03:44.0000000+00:00</time></trkpt><trkpt lat="63.74992371" lon="-20.23859787"><ele>39.9</ele><time>2012-07-26T20:03:49.0000000+00:00</time></trkpt><trkpt lat="63.74991989" lon="-20.23859978"><ele>39.4</ele><time>2012-07-26T20:03:54.0000000+00:00</time></trkpt><trkpt lat="63.74991989" lon="-20.23859787"><ele>39.0</ele><time>2012-07-26T20:03:59.0000000+00:00</time></trkpt><trkpt lat="63.74991608" lon="-20.23859787"><ele>38.8</ele><time>2012-07-26T20:04:04.0000000+00:00</time></trkpt><trkpt lat="63.74991608" lon="-20.23859787"><ele>38.9</ele><time>2012-07-26T20:04:09.0000000+00:00</time></trkpt><trkpt lat="63.74991608" lon="-20.23859787"><ele>38.9</ele><time>2012-07-26T20:04:14.0000000+00:00</time></trkpt><trkpt lat="63.74991608" lon="-20.23859787"><ele>38.9</ele><time>2012-07-26T20:04:19.0000000+00:00</time></trkpt><trkpt lat="63.74991608" lon="-20.23859787"><ele>38.9</ele><time>2012-07-26T20:04:24.0000000+00:00</time></trkpt><trkpt lat="63.74991608" lon="-20.23859787"><ele>38.9</ele><time>2012-07-26T20:04:29.0000000+00:00</time></trkpt><trkpt lat="63.74991608" lon="-20.23859787"><ele>38.9</ele><time>2012-07-26T20:04:34.0000000+00:00</time></trkpt><trkpt lat="63.74991608" lon="-20.23859787"><ele>38.9</ele><time>2012-07-26T20:04:39.0000000+00:00</time></trkpt><trkpt lat="63.74991608" lon="-20.23859787"><ele>38.9</ele><time>2012-07-26T20:04:44.0000000+00:00</time></trkpt><trkpt lat="63.74991608" lon="-20.23859787"><ele>38.9</ele><time>2012-07-26T20:04:49.0000000+00:00</time></trkpt><trkpt lat="63.74991608" lon="-20.23859787"><ele>38.9</ele><time>2012-07-26T20:04:54.0000000+00:00</time></trkpt><trkpt lat="63.74991608" lon="-20.23859787"><ele>38.9</ele><time>2012-07-26T20:04:59.0000000+00:00</time></trkpt><trkpt lat="63.74991608" lon="-20.23859787"><ele>39.0</ele><time>2012-07-26T20:05:04.0000000+00:00</time></trkpt><trkpt lat="63.74991608" lon="-20.23859787"><ele>39.0</ele><time>2012-07-26T20:05:09.0000000+00:00</time></trkpt><trkpt lat="63.74991608" lon="-20.23859787"><ele>39.0</ele><time>2012-07-26T20:05:14.0000000+00:00</time></trkpt><trkpt lat="63.74991608" lon="-20.23859596"><ele>39.0</ele><time>2012-07-26T20:05:19.0000000+00:00</time></trkpt><trkpt lat="63.74991608" lon="-20.23859596"><ele>39.0</ele><time>2012-07-26T20:05:24.0000000+00:00</time></trkpt><trkpt lat="63.74991608" lon="-20.23859596"><ele>39.0</ele><time>2012-07-26T20:05:29.0000000+00:00</time></trkpt><trkpt lat="63.74991608" lon="-20.23859596"><ele>39.0</ele><time>2012-07-26T20:05:34.0000000+00:00</time></trkpt><trkpt lat="63.74991608" lon="-20.23859596"><ele>39.0</ele><time>2012-07-26T20:05:39.0000000+00:00</time></trkpt><trkpt lat="63.74991608" lon="-20.23859596"><ele>39.0</ele><time>2012-07-26T20:05:44.0000000+00:00</time></trkpt><trkpt lat="63.74991608" lon="-20.23859596"><ele>39.0</ele><time>2012-07-26T20:05:49.0000000+00:00</time></trkpt><trkpt lat="63.74991608" lon="-20.23859596"><ele>39.0</ele><time>2012-07-26T20:05:54.0000000+00:00</time></trkpt><trkpt lat="63.74991608" lon="-20.23859596"><ele>39.1</ele><time>2012-07-26T20:05:59.0000000+00:00</time></trkpt><trkpt lat="63.74991608" lon="-20.23859596"><ele>39.1</ele><time>2012-07-26T20:06:04.0000000+00:00</time></trkpt><trkpt lat="63.74991608" lon="-20.23859596"><ele>39.1</ele><time>2012-07-26T20:06:09.0000000+00:00</time></trkpt><trkpt lat="63.74991608" lon="-20.23859596"><ele>39.1</ele><time>2012-07-26T20:06:14.0000000+00:00</time></trkpt><trkpt lat="63.74991608" lon="-20.23859596"><ele>39.1</ele><time>2012-07-26T20:06:19.0000000+00:00</time></trkpt><trkpt lat="63.74991608" lon="-20.23859596"><ele>39.1</ele><time>2012-07-26T20:06:24.0000000+00:00</time></trkpt><trkpt lat="63.74991608" lon="-20.23859596"><ele>39.2</ele><time>2012-07-26T20:06:29.0000000+00:00</time></trkpt><trkpt lat="63.74995422" lon="-20.23865509"><ele>39.2</ele><time>2012-07-26T20:06:34.0000000+00:00</time></trkpt><trkpt lat="63.75009537" lon="-20.23887062"><ele>40.4</ele><time>2012-07-26T20:06:39.0000000+00:00</time></trkpt><trkpt lat="63.7502327" lon="-20.23901939"><ele>40.3</ele><time>2012-07-26T20:06:44.0000000+00:00</time></trkpt><trkpt lat="63.75030136" lon="-20.23897171"><ele>41.0</ele><time>2012-07-26T20:06:49.0000000+00:00</time></trkpt><trkpt lat="63.75031281" lon="-20.23894501"><ele>41.1</ele><time>2012-07-26T20:06:54.0000000+00:00</time></trkpt><trkpt lat="63.75032425" lon="-20.23889732"><ele>40.9</ele><time>2012-07-26T20:06:59.0000000+00:00</time></trkpt><trkpt lat="63.7503624" lon="-20.23868561"><ele>40.1</ele><time>2012-07-26T20:07:04.0000000+00:00</time></trkpt><trkpt lat="63.75040817" lon="-20.23847389"><ele>40.1</ele><time>2012-07-26T20:07:09.0000000+00:00</time></trkpt><trkpt lat="63.75044632" lon="-20.23818779"><ele>39.0</ele><time>2012-07-26T20:07:14.0000000+00:00</time></trkpt><trkpt lat="63.75049973" lon="-20.23788452"><ele>39.6</ele><time>2012-07-26T20:07:19.0000000+00:00</time></trkpt><trkpt lat="63.7505455" lon="-20.23756027"><ele>38.8</ele><time>2012-07-26T20:07:24.0000000+00:00</time></trkpt><trkpt lat="63.75057983" lon="-20.23735619"><ele>38.8</ele><time>2012-07-26T20:07:29.0000000+00:00</time></trkpt><trkpt lat="63.75057983" lon="-20.23735809"><ele>39.0</ele><time>2012-07-26T20:07:34.0000000+00:00</time></trkpt><trkpt lat="63.75057983" lon="-20.23735428"><ele>38.9</ele><time>2012-07-26T20:07:39.0000000+00:00</time></trkpt><trkpt lat="63.75057983" lon="-20.23734283"><ele>38.9</ele><time>2012-07-26T20:07:44.0000000+00:00</time></trkpt><trkpt lat="63.75058365" lon="-20.23733139"><ele>38.8</ele><time>2012-07-26T20:07:49.0000000+00:00</time></trkpt><trkpt lat="63.75058365" lon="-20.23733139"><ele>38.8</ele><time>2012-07-26T20:07:54.0000000+00:00</time></trkpt><trkpt lat="63.75058365" lon="-20.23733139"><ele>38.8</ele><time>2012-07-26T20:07:59.0000000+00:00</time></trkpt><trkpt lat="63.75058365" lon="-20.23733139"><ele>38.8</ele><time>2012-07-26T20:08:04.0000000+00:00</time></trkpt><trkpt lat="63.75058365" lon="-20.23733139"><ele>38.8</ele><time>2012-07-26T20:08:09.0000000+00:00</time></trkpt><trkpt lat="63.75058365" lon="-20.23733139"><ele>38.8</ele><time>2012-07-26T20:08:14.0000000+00:00</time></trkpt><trkpt lat="63.75058365" lon="-20.2373333"><ele>38.8</ele><time>2012-07-26T20:08:19.0000000+00:00</time></trkpt><trkpt lat="63.75059128" lon="-20.23732948"><ele>38.9</ele><time>2012-07-26T20:08:24.0000000+00:00</time></trkpt><trkpt lat="63.75054932" lon="-20.23756981"><ele>39.1</ele><time>2012-07-26T20:08:29.0000000+00:00</time></trkpt><trkpt lat="63.7504921" lon="-20.23789406"><ele>39.8</ele><time>2012-07-26T20:08:34.0000000+00:00</time></trkpt><trkpt lat="63.75043488" lon="-20.23820877"><ele>41.0</ele><time>2012-07-26T20:08:39.0000000+00:00</time></trkpt><trkpt lat="63.75038528" lon="-20.23853302"><ele>41.8</ele><time>2012-07-26T20:08:44.0000000+00:00</time></trkpt><trkpt lat="63.75033188" lon="-20.23882484"><ele>39.9</ele><time>2012-07-26T20:08:49.0000000+00:00</time></trkpt><trkpt lat="63.75025559" lon="-20.23903847"><ele>38.4</ele><time>2012-07-26T20:08:54.0000000+00:00</time></trkpt><trkpt lat="63.75009155" lon="-20.23891068"><ele>36.6</ele><time>2012-07-26T20:08:59.0000000+00:00</time></trkpt><trkpt lat="63.74995804" lon="-20.23879242"><ele>37.9</ele><time>2012-07-26T20:09:04.0000000+00:00</time></trkpt><trkpt lat="63.74985504" lon="-20.23882484"><ele>38.2</ele><time>2012-07-26T20:09:09.0000000+00:00</time></trkpt><trkpt lat="63.74982834" lon="-20.23897553"><ele>37.2</ele><time>2012-07-26T20:09:14.0000000+00:00</time></trkpt><trkpt lat="63.74981308" lon="-20.23910713"><ele>37.6</ele><time>2012-07-26T20:09:19.0000000+00:00</time></trkpt><trkpt lat="63.74978638" lon="-20.23931503"><ele>38.9</ele><time>2012-07-26T20:09:24.0000000+00:00</time></trkpt><trkpt lat="63.74975586" lon="-20.23949814"><ele>37.2</ele><time>2012-07-26T20:09:29.0000000+00:00</time></trkpt><trkpt lat="63.74972534" lon="-20.2397213"><ele>36.3</ele><time>2012-07-26T20:09:34.0000000+00:00</time></trkpt><trkpt lat="63.74969482" lon="-20.23991585"><ele>37.9</ele><time>2012-07-26T20:09:39.0000000+00:00</time></trkpt><trkpt lat="63.7496376" lon="-20.23998833"><ele>37.3</ele><time>2012-07-26T20:09:44.0000000+00:00</time></trkpt><trkpt lat="63.74961472" lon="-20.24001885"><ele>38.5</ele><time>2012-07-26T20:09:49.0000000+00:00</time></trkpt><trkpt lat="63.74961472" lon="-20.24002838"><ele>38.9</ele><time>2012-07-26T20:09:54.0000000+00:00</time></trkpt><trkpt lat="63.74961472" lon="-20.24002838"><ele>38.8</ele><time>2012-07-26T20:09:59.0000000+00:00</time></trkpt><trkpt lat="63.74961472" lon="-20.24002838"><ele>38.9</ele><time>2012-07-26T20:10:04.0000000+00:00</time></trkpt><trkpt lat="63.7496109" lon="-20.24002457"><ele>39.0</ele><time>2012-07-26T20:10:09.0000000+00:00</time></trkpt><trkpt lat="63.7496109" lon="-20.24002266"><ele>38.9</ele><time>2012-07-26T20:10:14.0000000+00:00</time></trkpt><trkpt lat="63.7496109" lon="-20.24002266"><ele>38.9</ele><time>2012-07-26T20:10:19.0000000+00:00</time></trkpt><trkpt lat="63.7496109" lon="-20.24002457"><ele>39.0</ele><time>2012-07-26T20:10:24.0000000+00:00</time></trkpt><trkpt lat="63.7496109" lon="-20.24002457"><ele>39.0</ele><time>2012-07-26T20:10:29.0000000+00:00</time></trkpt><trkpt lat="63.7496109" lon="-20.24002457"><ele>39.1</ele><time>2012-07-26T20:10:34.0000000+00:00</time></trkpt><trkpt lat="63.7496109" lon="-20.24002457"><ele>39.1</ele><time>2012-07-26T20:10:39.0000000+00:00</time></trkpt><trkpt lat="63.7496109" lon="-20.24002457"><ele>39.2</ele><time>2012-07-26T20:10:44.0000000+00:00</time></trkpt><trkpt lat="63.7496109" lon="-20.24002457"><ele>39.2</ele><time>2012-07-26T20:10:49.0000000+00:00</time></trkpt><trkpt lat="63.7496109" lon="-20.24002457"><ele>39.3</ele><time>2012-07-26T20:10:54.0000000+00:00</time></trkpt><trkpt lat="63.7496109" lon="-20.24002457"><ele>39.3</ele><time>2012-07-26T20:10:59.0000000+00:00</time></trkpt><trkpt lat="63.7496109" lon="-20.24002457"><ele>39.3</ele><time>2012-07-26T20:11:04.0000000+00:00</time></trkpt><trkpt lat="63.7496109" lon="-20.24002457"><ele>39.4</ele><time>2012-07-26T20:11:09.0000000+00:00</time></trkpt><trkpt lat="63.7496109" lon="-20.24002457"><ele>39.4</ele><time>2012-07-26T20:11:14.0000000+00:00</time></trkpt><trkpt lat="63.7496109" lon="-20.24002457"><ele>39.4</ele><time>2012-07-26T20:11:19.0000000+00:00</time></trkpt><trkpt lat="63.7496109" lon="-20.24002266"><ele>39.4</ele><time>2012-07-26T20:11:24.0000000+00:00</time></trkpt><trkpt lat="63.7496109" lon="-20.24002266"><ele>39.4</ele><time>2012-07-26T20:11:29.0000000+00:00</time></trkpt><trkpt lat="63.7496109" lon="-20.24002266"><ele>39.4</ele><time>2012-07-26T20:11:34.0000000+00:00</time></trkpt><trkpt lat="63.7496109" lon="-20.24002266"><ele>39.5</ele><time>2012-07-26T20:11:39.0000000+00:00</time></trkpt><trkpt lat="63.7496109" lon="-20.24002266"><ele>39.5</ele><time>2012-07-26T20:11:44.0000000+00:00</time></trkpt><trkpt lat="63.7496109" lon="-20.24002266"><ele>39.5</ele><time>2012-07-26T20:11:49.0000000+00:00</time></trkpt><trkpt lat="63.7496109" lon="-20.24002457"><ele>39.6</ele><time>2012-07-26T20:11:54.0000000+00:00</time></trkpt><trkpt lat="63.7496109" lon="-20.24002457"><ele>39.6</ele><time>2012-07-26T20:11:59.0000000+00:00</time></trkpt><trkpt lat="63.7496109" lon="-20.24002457"><ele>39.6</ele><time>2012-07-26T20:12:04.0000000+00:00</time></trkpt><trkpt lat="63.7496109" lon="-20.24002457"><ele>39.6</ele><time>2012-07-26T20:12:09.0000000+00:00</time></trkpt><trkpt lat="63.7496109" lon="-20.24002457"><ele>39.6</ele><time>2012-07-26T20:12:14.0000000+00:00</time></trkpt><trkpt lat="63.7496109" lon="-20.24002266"><ele>39.7</ele><time>2012-07-26T20:12:19.0000000+00:00</time></trkpt><trkpt lat="63.7496109" lon="-20.24002266"><ele>39.7</ele><time>2012-07-26T20:12:24.0000000+00:00</time></trkpt><trkpt lat="63.7496109" lon="-20.24002457"><ele>39.7</ele><time>2012-07-26T20:12:29.0000000+00:00</time></trkpt><trkpt lat="63.7496109" lon="-20.24002457"><ele>39.7</ele><time>2012-07-26T20:12:34.0000000+00:00</time></trkpt><trkpt lat="63.74960709" lon="-20.24001122"><ele>39.6</ele><time>2012-07-26T20:12:39.0000000+00:00</time></trkpt><trkpt lat="63.74960709" lon="-20.23999977"><ele>39.2</ele><time>2012-07-26T20:12:44.0000000+00:00</time></trkpt><trkpt lat="63.74960709" lon="-20.23999596"><ele>39.1</ele><time>2012-07-26T20:12:49.0000000+00:00</time></trkpt><trkpt lat="63.74960709" lon="-20.23999596"><ele>39.1</ele><time>2012-07-26T20:12:54.0000000+00:00</time></trkpt><trkpt lat="63.74960709" lon="-20.23999596"><ele>39.1</ele><time>2012-07-26T20:12:59.0000000+00:00</time></trkpt><trkpt lat="63.74960709" lon="-20.23999596"><ele>39.1</ele><time>2012-07-26T20:13:04.0000000+00:00</time></trkpt><trkpt lat="63.74960709" lon="-20.23999596"><ele>39.1</ele><time>2012-07-26T20:13:09.0000000+00:00</time></trkpt><trkpt lat="63.74960709" lon="-20.23999596"><ele>39.2</ele><time>2012-07-26T20:13:14.0000000+00:00</time></trkpt><trkpt lat="63.74960709" lon="-20.23999596"><ele>39.2</ele><time>2012-07-26T20:13:19.0000000+00:00</time></trkpt><trkpt lat="63.74960709" lon="-20.23999596"><ele>39.2</ele><time>2012-07-26T20:13:24.0000000+00:00</time></trkpt><trkpt lat="63.74960709" lon="-20.23999596"><ele>39.2</ele><time>2012-07-26T20:13:29.0000000+00:00</time></trkpt><trkpt lat="63.74960709" lon="-20.23999596"><ele>39.2</ele><time>2012-07-26T20:13:34.0000000+00:00</time></trkpt><trkpt lat="63.74960709" lon="-20.23999786"><ele>39.2</ele><time>2012-07-26T20:13:39.0000000+00:00</time></trkpt><trkpt lat="63.74960709" lon="-20.23999786"><ele>39.3</ele><time>2012-07-26T20:13:44.0000000+00:00</time></trkpt><trkpt lat="63.74960709" lon="-20.23999786"><ele>39.3</ele><time>2012-07-26T20:13:49.0000000+00:00</time></trkpt><trkpt lat="63.74960709" lon="-20.23999786"><ele>39.3</ele><time>2012-07-26T20:13:54.0000000+00:00</time></trkpt><trkpt lat="63.74960709" lon="-20.23999596"><ele>39.3</ele><time>2012-07-26T20:13:59.0000000+00:00</time></trkpt><trkpt lat="63.74960709" lon="-20.23999596"><ele>39.3</ele><time>2012-07-26T20:14:04.0000000+00:00</time></trkpt><trkpt lat="63.74960709" lon="-20.23999596"><ele>39.3</ele><time>2012-07-26T20:14:09.0000000+00:00</time></trkpt><trkpt lat="63.74960709" lon="-20.23999596"><ele>39.3</ele><time>2012-07-26T20:14:14.0000000+00:00</time></trkpt><trkpt lat="63.74960709" lon="-20.23999786"><ele>39.3</ele><time>2012-07-26T20:14:19.0000000+00:00</time></trkpt><trkpt lat="63.74960709" lon="-20.23999786"><ele>39.4</ele><time>2012-07-26T20:14:24.0000000+00:00</time></trkpt><trkpt lat="63.74960709" lon="-20.23999786"><ele>39.4</ele><time>2012-07-26T20:14:29.0000000+00:00</time></trkpt><trkpt lat="63.74960709" lon="-20.23999786"><ele>39.4</ele><time>2012-07-26T20:14:34.0000000+00:00</time></trkpt><trkpt lat="63.74960709" lon="-20.23999786"><ele>39.4</ele><time>2012-07-26T20:14:39.0000000+00:00</time></trkpt><trkpt lat="63.74960709" lon="-20.23999786"><ele>39.4</ele><time>2012-07-26T20:14:44.0000000+00:00</time></trkpt><trkpt lat="63.74960709" lon="-20.23999786"><ele>39.4</ele><time>2012-07-26T20:14:49.0000000+00:00</time></trkpt><trkpt lat="63.74960327" lon="-20.23999596"><ele>39.4</ele><time>2012-07-26T20:14:54.0000000+00:00</time></trkpt><trkpt lat="63.74960327" lon="-20.23999786"><ele>39.4</ele><time>2012-07-26T20:14:59.0000000+00:00</time></trkpt><trkpt lat="63.74960327" lon="-20.23999786"><ele>39.4</ele><time>2012-07-26T20:15:04.0000000+00:00</time></trkpt><trkpt lat="63.74960327" lon="-20.23999786"><ele>39.4</ele><time>2012-07-26T20:15:09.0000000+00:00</time></trkpt><trkpt lat="63.74960327" lon="-20.23999786"><ele>39.4</ele><time>2012-07-26T20:15:14.0000000+00:00</time></trkpt><trkpt lat="63.74960327" lon="-20.23999786"><ele>39.4</ele><time>2012-07-26T20:15:19.0000000+00:00</time></trkpt><trkpt lat="63.74960327" lon="-20.23999786"><ele>39.4</ele><time>2012-07-26T20:15:24.0000000+00:00</time></trkpt><trkpt lat="63.74960327" lon="-20.23999786"><ele>39.4</ele><time>2012-07-26T20:15:29.0000000+00:00</time></trkpt><trkpt lat="63.74960327" lon="-20.23999786"><ele>39.5</ele><time>2012-07-26T20:15:34.0000000+00:00</time></trkpt><trkpt lat="63.74960327" lon="-20.23999786"><ele>39.5</ele><time>2012-07-26T20:15:39.0000000+00:00</time></trkpt><trkpt lat="63.74960327" lon="-20.23999786"><ele>39.5</ele><time>2012-07-26T20:15:44.0000000+00:00</time></trkpt><trkpt lat="63.74960327" lon="-20.23999786"><ele>39.5</ele><time>2012-07-26T20:15:49.0000000+00:00</time></trkpt><trkpt lat="63.74960327" lon="-20.23999786"><ele>39.5</ele><time>2012-07-26T20:15:54.0000000+00:00</time></trkpt><trkpt lat="63.74960327" lon="-20.23999786"><ele>39.5</ele><time>2012-07-26T20:15:59.0000000+00:00</time></trkpt><trkpt lat="63.74960327" lon="-20.23999786"><ele>39.5</ele><time>2012-07-26T20:16:04.0000000+00:00</time></trkpt><trkpt lat="63.74960327" lon="-20.23999786"><ele>39.5</ele><time>2012-07-26T20:16:09.0000000+00:00</time></trkpt><trkpt lat="63.74960327" lon="-20.23999786"><ele>39.5</ele><time>2012-07-26T20:16:14.0000000+00:00</time></trkpt><trkpt lat="63.74960327" lon="-20.23999786"><ele>39.5</ele><time>2012-07-26T20:16:19.0000000+00:00</time></trkpt><trkpt lat="63.74960327" lon="-20.23999977"><ele>39.5</ele><time>2012-07-26T20:16:24.0000000+00:00</time></trkpt><trkpt lat="63.74960327" lon="-20.23999977"><ele>39.5</ele><time>2012-07-26T20:16:29.0000000+00:00</time></trkpt><trkpt lat="63.74960327" lon="-20.23999977"><ele>39.5</ele><time>2012-07-26T20:16:34.0000000+00:00</time></trkpt><trkpt lat="63.74960327" lon="-20.23999977"><ele>39.5</ele><time>2012-07-26T20:16:39.0000000+00:00</time></trkpt><trkpt lat="63.74960327" lon="-20.23999977"><ele>39.5</ele><time>2012-07-26T20:16:44.0000000+00:00</time></trkpt><trkpt lat="63.74960327" lon="-20.23999977"><ele>39.5</ele><time>2012-07-26T20:16:49.0000000+00:00</time></trkpt><trkpt lat="63.74959946" lon="-20.23999977"><ele>39.5</ele><time>2012-07-26T20:16:54.0000000+00:00</time></trkpt><trkpt lat="63.74959946" lon="-20.23999977"><ele>39.5</ele><time>2012-07-26T20:16:59.0000000+00:00</time></trkpt><trkpt lat="63.74959946" lon="-20.23999977"><ele>39.6</ele><time>2012-07-26T20:17:04.0000000+00:00</time></trkpt><trkpt lat="63.74959946" lon="-20.23999977"><ele>39.6</ele><time>2012-07-26T20:17:09.0000000+00:00</time></trkpt><trkpt lat="63.74959946" lon="-20.23999977"><ele>39.6</ele><time>2012-07-26T20:17:14.0000000+00:00</time></trkpt><trkpt lat="63.74959946" lon="-20.23999977"><ele>39.6</ele><time>2012-07-26T20:17:19.0000000+00:00</time></trkpt><trkpt lat="63.74959946" lon="-20.23999977"><ele>39.6</ele><time>2012-07-26T20:17:24.0000000+00:00</time></trkpt><trkpt lat="63.74959946" lon="-20.24000168"><ele>39.6</ele><time>2012-07-26T20:17:29.0000000+00:00</time></trkpt><trkpt lat="63.74959946" lon="-20.24000168"><ele>39.6</ele><time>2012-07-26T20:17:34.0000000+00:00</time></trkpt><trkpt lat="63.74959946" lon="-20.24000168"><ele>39.6</ele><time>2012-07-26T20:17:39.0000000+00:00</time></trkpt><trkpt lat="63.74959946" lon="-20.24000168"><ele>39.6</ele><time>2012-07-26T20:17:44.0000000+00:00</time></trkpt><trkpt lat="63.74959946" lon="-20.24000168"><ele>39.6</ele><time>2012-07-26T20:17:49.0000000+00:00</time></trkpt><trkpt lat="63.74959946" lon="-20.24000168"><ele>39.6</ele><time>2012-07-26T20:17:54.0000000+00:00</time></trkpt><trkpt lat="63.74959946" lon="-20.24000168"><ele>39.6</ele><time>2012-07-26T20:17:59.0000000+00:00</time></trkpt><trkpt lat="63.74959946" lon="-20.24000168"><ele>39.6</ele><time>2012-07-26T20:18:04.0000000+00:00</time></trkpt><trkpt lat="63.74959946" lon="-20.24000168"><ele>39.6</ele><time>2012-07-26T20:18:09.0000000+00:00</time></trkpt><trkpt lat="63.74959946" lon="-20.24000168"><ele>39.6</ele><time>2012-07-26T20:18:14.0000000+00:00</time></trkpt><trkpt lat="63.74959946" lon="-20.24000168"><ele>39.6</ele><time>2012-07-26T20:18:19.0000000+00:00</time></trkpt><trkpt lat="63.74959946" lon="-20.24000168"><ele>39.6</ele><time>2012-07-26T20:18:24.0000000+00:00</time></trkpt><trkpt lat="63.74959946" lon="-20.24000168"><ele>39.6</ele><time>2012-07-26T20:18:29.0000000+00:00</time></trkpt><trkpt lat="63.74959946" lon="-20.24000168"><ele>39.6</ele><time>2012-07-26T20:18:34.0000000+00:00</time></trkpt><trkpt lat="63.74959946" lon="-20.24000168"><ele>39.6</ele><time>2012-07-26T20:18:39.0000000+00:00</time></trkpt><trkpt lat="63.74959946" lon="-20.24000168"><ele>39.7</ele><time>2012-07-26T20:18:44.0000000+00:00</time></trkpt><trkpt lat="63.74959946" lon="-20.24000168"><ele>39.7</ele><time>2012-07-26T20:18:49.0000000+00:00</time></trkpt><trkpt lat="63.74959946" lon="-20.24000168"><ele>39.7</ele><time>2012-07-26T20:18:54.0000000+00:00</time></trkpt><trkpt lat="63.74959946" lon="-20.24000168"><ele>39.7</ele><time>2012-07-26T20:18:59.0000000+00:00</time></trkpt><trkpt lat="63.74959946" lon="-20.24000168"><ele>39.7</ele><time>2012-07-26T20:19:04.0000000+00:00</time></trkpt><trkpt lat="63.74959946" lon="-20.24000168"><ele>39.7</ele><time>2012-07-26T20:19:09.0000000+00:00</time></trkpt><trkpt lat="63.74959946" lon="-20.24000168"><ele>39.7</ele><time>2012-07-26T20:19:14.0000000+00:00</time></trkpt><trkpt lat="63.74959946" lon="-20.24000168"><ele>39.7</ele><time>2012-07-26T20:19:19.0000000+00:00</time></trkpt><trkpt lat="63.74959946" lon="-20.24000168"><ele>39.7</ele><time>2012-07-26T20:19:24.0000000+00:00</time></trkpt><trkpt lat="63.74959946" lon="-20.24000168"><ele>39.7</ele><time>2012-07-26T20:19:29.0000000+00:00</time></trkpt><trkpt lat="63.74959946" lon="-20.24000168"><ele>39.7</ele><time>2012-07-26T20:19:34.0000000+00:00</time></trkpt><trkpt lat="63.74959946" lon="-20.24000168"><ele>39.7</ele><time>2012-07-26T20:19:39.0000000+00:00</time></trkpt><trkpt lat="63.74959946" lon="-20.24000359"><ele>39.7</ele><time>2012-07-26T20:19:44.0000000+00:00</time></trkpt><trkpt lat="63.74959946" lon="-20.24000359"><ele>39.7</ele><time>2012-07-26T20:19:49.0000000+00:00</time></trkpt><trkpt lat="63.74959946" lon="-20.24000359"><ele>39.7</ele><time>2012-07-26T20:19:54.0000000+00:00</time></trkpt><trkpt lat="63.74959946" lon="-20.24000359"><ele>39.7</ele><time>2012-07-26T20:19:59.0000000+00:00</time></trkpt><trkpt lat="63.74959564" lon="-20.24000359"><ele>39.8</ele><time>2012-07-26T20:20:04.0000000+00:00</time></trkpt><trkpt lat="63.74959564" lon="-20.24000359"><ele>39.8</ele><time>2012-07-26T20:20:09.0000000+00:00</time></trkpt><trkpt lat="63.74959564" lon="-20.24000359"><ele>39.8</ele><time>2012-07-26T20:20:14.0000000+00:00</time></trkpt><trkpt lat="63.74959564" lon="-20.24000359"><ele>39.8</ele><time>2012-07-26T20:20:19.0000000+00:00</time></trkpt><trkpt lat="63.74959564" lon="-20.24000359"><ele>39.8</ele><time>2012-07-26T20:20:24.0000000+00:00</time></trkpt><trkpt lat="63.74959564" lon="-20.24000359"><ele>39.8</ele><time>2012-07-26T20:20:29.0000000+00:00</time></trkpt><trkpt lat="63.74959564" lon="-20.24000359"><ele>39.8</ele><time>2012-07-26T20:20:34.0000000+00:00</time></trkpt><trkpt lat="63.74959564" lon="-20.24000549"><ele>39.8</ele><time>2012-07-26T20:20:39.0000000+00:00</time></trkpt><trkpt lat="63.74959564" lon="-20.24000549"><ele>39.8</ele><time>2012-07-26T20:20:44.0000000+00:00</time></trkpt><trkpt lat="63.74959564" lon="-20.24000359"><ele>39.8</ele><time>2012-07-26T20:20:49.0000000+00:00</time></trkpt><trkpt lat="63.74959564" lon="-20.24000359"><ele>39.8</ele><time>2012-07-26T20:20:54.0000000+00:00</time></trkpt><trkpt lat="63.74959564" lon="-20.24000359"><ele>39.8</ele><time>2012-07-26T20:20:59.0000000+00:00</time></trkpt><trkpt lat="63.74959564" lon="-20.24000359"><ele>39.8</ele><time>2012-07-26T20:21:04.0000000+00:00</time></trkpt><trkpt lat="63.74959564" lon="-20.24000359"><ele>39.8</ele><time>2012-07-26T20:21:09.0000000+00:00</time></trkpt><trkpt lat="63.74959564" lon="-20.24000359"><ele>39.8</ele><time>2012-07-26T20:21:14.0000000+00:00</time></trkpt><trkpt lat="63.74959564" lon="-20.24000359"><ele>39.8</ele><time>2012-07-26T20:21:19.0000000+00:00</time></trkpt><trkpt lat="63.74959564" lon="-20.24000359"><ele>39.8</ele><time>2012-07-26T20:21:24.0000000+00:00</time></trkpt><trkpt lat="63.74959564" lon="-20.24000359"><ele>39.9</ele><time>2012-07-26T20:21:29.0000000+00:00</time></trkpt><trkpt lat="63.74959564" lon="-20.24000359"><ele>39.9</ele><time>2012-07-26T20:21:34.0000000+00:00</time></trkpt><trkpt lat="63.74959564" lon="-20.24000359"><ele>39.9</ele><time>2012-07-26T20:21:39.0000000+00:00</time></trkpt><trkpt lat="63.74959564" lon="-20.24000359"><ele>39.9</ele><time>2012-07-26T20:21:44.0000000+00:00</time></trkpt><trkpt lat="63.74959564" lon="-20.24000359"><ele>39.9</ele><time>2012-07-26T20:21:49.0000000+00:00</time></trkpt><trkpt lat="63.74959564" lon="-20.24000359"><ele>39.9</ele><time>2012-07-26T20:21:54.0000000+00:00</time></trkpt><trkpt lat="63.74959564" lon="-20.24000359"><ele>39.9</ele><time>2012-07-26T20:21:59.0000000+00:00</time></trkpt><trkpt lat="63.74959564" lon="-20.24000359"><ele>39.9</ele><time>2012-07-26T20:22:04.0000000+00:00</time></trkpt><trkpt lat="63.74959564" lon="-20.24000359"><ele>39.9</ele><time>2012-07-26T20:22:09.0000000+00:00</time></trkpt><trkpt lat="63.74959564" lon="-20.24000359"><ele>40.0</ele><time>2012-07-26T20:22:14.0000000+00:00</time></trkpt><trkpt lat="63.74959564" lon="-20.24000359"><ele>40.0</ele><time>2012-07-26T20:22:19.0000000+00:00</time></trkpt><trkpt lat="63.74959564" lon="-20.24000359"><ele>40.0</ele><time>2012-07-26T20:22:24.0000000+00:00</time></trkpt><trkpt lat="63.74959564" lon="-20.24000359"><ele>40.0</ele><time>2012-07-26T20:22:29.0000000+00:00</time></trkpt><trkpt lat="63.74959564" lon="-20.24000359"><ele>40.0</ele><time>2012-07-26T20:22:34.0000000+00:00</time></trkpt><trkpt lat="63.74959564" lon="-20.24000359"><ele>40.0</ele><time>2012-07-26T20:22:39.0000000+00:00</time></trkpt><trkpt lat="63.74959564" lon="-20.24000359"><ele>40.0</ele><time>2012-07-26T20:22:44.0000000+00:00</time></trkpt><trkpt lat="63.74959564" lon="-20.24000359"><ele>40.0</ele><time>2012-07-26T20:22:49.0000000+00:00</time></trkpt><trkpt lat="63.74959564" lon="-20.24000168"><ele>40.0</ele><time>2012-07-26T20:22:54.0000000+00:00</time></trkpt><trkpt lat="63.74959564" lon="-20.24000168"><ele>40.0</ele><time>2012-07-26T20:22:59.0000000+00:00</time></trkpt><trkpt lat="63.74959564" lon="-20.24000168"><ele>40.0</ele><time>2012-07-26T20:23:04.0000000+00:00</time></trkpt><trkpt lat="63.74959564" lon="-20.24000168"><ele>40.0</ele><time>2012-07-26T20:23:09.0000000+00:00</time></trkpt><trkpt lat="63.74959564" lon="-20.24000168"><ele>40.0</ele><time>2012-07-26T20:23:14.0000000+00:00</time></trkpt><trkpt lat="63.74959564" lon="-20.24000168"><ele>40.0</ele><time>2012-07-26T20:23:19.0000000+00:00</time></trkpt><trkpt lat="63.74959564" lon="-20.24000168"><ele>40.0</ele><time>2012-07-26T20:23:24.0000000+00:00</time></trkpt><trkpt lat="63.74959564" lon="-20.24000168"><ele>40.0</ele><time>2012-07-26T20:23:29.0000000+00:00</time></trkpt><trkpt lat="63.74959564" lon="-20.24000168"><ele>40.1</ele><time>2012-07-26T20:23:34.0000000+00:00</time></trkpt><trkpt lat="63.74959564" lon="-20.24000168"><ele>40.1</ele><time>2012-07-26T20:23:39.0000000+00:00</time></trkpt><trkpt lat="63.74959564" lon="-20.24000168"><ele>40.1</ele><time>2012-07-26T20:23:44.0000000+00:00</time></trkpt><trkpt lat="63.74959183" lon="-20.24000168"><ele>40.1</ele><time>2012-07-26T20:23:49.0000000+00:00</time></trkpt><trkpt lat="63.74959183" lon="-20.24000168"><ele>40.1</ele><time>2012-07-26T20:23:54.0000000+00:00</time></trkpt><trkpt lat="63.74959183" lon="-20.24000168"><ele>40.1</ele><time>2012-07-26T20:23:59.0000000+00:00</time></trkpt><trkpt lat="63.74959183" lon="-20.24000168"><ele>40.1</ele><time>2012-07-26T20:24:04.0000000+00:00</time></trkpt><trkpt lat="63.74959183" lon="-20.24000168"><ele>40.1</ele><time>2012-07-26T20:24:09.0000000+00:00</time></trkpt><trkpt lat="63.74959183" lon="-20.24000168"><ele>40.1</ele><time>2012-07-26T20:24:14.0000000+00:00</time></trkpt><trkpt lat="63.74959183" lon="-20.24000168"><ele>40.1</ele><time>2012-07-26T20:24:19.0000000+00:00</time></trkpt><trkpt lat="63.74959183" lon="-20.24000168"><ele>40.1</ele><time>2012-07-26T20:24:24.0000000+00:00</time></trkpt><trkpt lat="63.74959183" lon="-20.24000168"><ele>40.1</ele><time>2012-07-26T20:24:29.0000000+00:00</time></trkpt><trkpt lat="63.74959183" lon="-20.24000168"><ele>40.1</ele><time>2012-07-26T20:24:34.0000000+00:00</time></trkpt><trkpt lat="63.74959183" lon="-20.24000168"><ele>40.1</ele><time>2012-07-26T20:24:39.0000000+00:00</time></trkpt><trkpt lat="63.74959183" lon="-20.24000168"><ele>40.1</ele><time>2012-07-26T20:24:44.0000000+00:00</time></trkpt><trkpt lat="63.74959183" lon="-20.24000168"><ele>40.1</ele><time>2012-07-26T20:24:49.0000000+00:00</time></trkpt><trkpt lat="63.74959183" lon="-20.24000168"><ele>40.1</ele><time>2012-07-26T20:24:54.0000000+00:00</time></trkpt><trkpt lat="63.74959183" lon="-20.24000168"><ele>40.1</ele><time>2012-07-26T20:24:59.0000000+00:00</time></trkpt><trkpt lat="63.74959183" lon="-20.24000168"><ele>40.1</ele><time>2012-07-26T20:25:04.0000000+00:00</time></trkpt><trkpt lat="63.74959564" lon="-20.24000168"><ele>40.1</ele><time>2012-07-26T20:25:09.0000000+00:00</time></trkpt><trkpt lat="63.74959183" lon="-20.24000168"><ele>40.1</ele><time>2012-07-26T20:25:14.0000000+00:00</time></trkpt><trkpt lat="63.74959183" lon="-20.24000168"><ele>40.1</ele><time>2012-07-26T20:25:19.0000000+00:00</time></trkpt><trkpt lat="63.74959183" lon="-20.24000359"><ele>40.1</ele><time>2012-07-26T20:25:24.0000000+00:00</time></trkpt><trkpt lat="63.74959183" lon="-20.24000359"><ele>40.1</ele><time>2012-07-26T20:25:29.0000000+00:00</time></trkpt><trkpt lat="63.74959183" lon="-20.24000359"><ele>40.1</ele><time>2012-07-26T20:25:34.0000000+00:00</time></trkpt><trkpt lat="63.74959183" lon="-20.24000359"><ele>40.1</ele><time>2012-07-26T20:25:39.0000000+00:00</time></trkpt><trkpt lat="63.74959183" lon="-20.24000359"><ele>40.1</ele><time>2012-07-26T20:25:44.0000000+00:00</time></trkpt><trkpt lat="63.74959183" lon="-20.24000359"><ele>40.1</ele><time>2012-07-26T20:25:49.0000000+00:00</time></trkpt><trkpt lat="63.74959183" lon="-20.24000359"><ele>40.1</ele><time>2012-07-26T20:25:54.0000000+00:00</time></trkpt><trkpt lat="63.74959183" lon="-20.24000359"><ele>40.1</ele><time>2012-07-26T20:25:59.0000000+00:00</time></trkpt><trkpt lat="63.74959183" lon="-20.24000359"><ele>40.1</ele><time>2012-07-26T20:26:04.0000000+00:00</time></trkpt><trkpt lat="63.74959183" lon="-20.24000549"><ele>40.1</ele><time>2012-07-26T20:26:09.0000000+00:00</time></trkpt><trkpt lat="63.74959183" lon="-20.24000549"><ele>40.1</ele><time>2012-07-26T20:26:14.0000000+00:00</time></trkpt><trkpt lat="63.74959183" lon="-20.24000549"><ele>40.1</ele><time>2012-07-26T20:26:19.0000000+00:00</time></trkpt><trkpt lat="63.74959183" lon="-20.24000549"><ele>40.2</ele><time>2012-07-26T20:26:24.0000000+00:00</time></trkpt><trkpt lat="63.74959183" lon="-20.24000549"><ele>40.2</ele><time>2012-07-26T20:26:29.0000000+00:00</time></trkpt><trkpt lat="63.74959183" lon="-20.24000549"><ele>40.2</ele><time>2012-07-26T20:26:34.0000000+00:00</time></trkpt><trkpt lat="63.74959183" lon="-20.24000549"><ele>40.2</ele><time>2012-07-26T20:26:39.0000000+00:00</time></trkpt><trkpt lat="63.74959183" lon="-20.24000549"><ele>40.2</ele><time>2012-07-26T20:26:44.0000000+00:00</time></trkpt><trkpt lat="63.74959183" lon="-20.24000549"><ele>40.2</ele><time>2012-07-26T20:26:49.0000000+00:00</time></trkpt><trkpt lat="63.74959183" lon="-20.24000549"><ele>40.2</ele><time>2012-07-26T20:26:54.0000000+00:00</time></trkpt><trkpt lat="63.74959183" lon="-20.24000549"><ele>40.2</ele><time>2012-07-26T20:26:59.0000000+00:00</time></trkpt><trkpt lat="63.74959183" lon="-20.24000549"><ele>40.2</ele><time>2012-07-26T20:27:04.0000000+00:00</time></trkpt><trkpt lat="63.74959183" lon="-20.24000549"><ele>40.2</ele><time>2012-07-26T20:27:09.0000000+00:00</time></trkpt><trkpt lat="63.74959183" lon="-20.2400074"><ele>40.2</ele><time>2012-07-26T20:27:14.0000000+00:00</time></trkpt><trkpt lat="63.74959183" lon="-20.2400074"><ele>40.2</ele><time>2012-07-26T20:27:19.0000000+00:00</time></trkpt><trkpt lat="63.74959183" lon="-20.2400074"><ele>40.2</ele><time>2012-07-26T20:27:24.0000000+00:00</time></trkpt><trkpt lat="63.74959183" lon="-20.2400074"><ele>40.2</ele><time>2012-07-26T20:27:29.0000000+00:00</time></trkpt><trkpt lat="63.74959183" lon="-20.2400074"><ele>40.2</ele><time>2012-07-26T20:27:34.0000000+00:00</time></trkpt><trkpt lat="63.74959183" lon="-20.2400074"><ele>40.2</ele><time>2012-07-26T20:27:39.0000000+00:00</time></trkpt><trkpt lat="63.74959183" lon="-20.2400074"><ele>40.2</ele><time>2012-07-26T20:27:44.0000000+00:00</time></trkpt><trkpt lat="63.74959183" lon="-20.2400074"><ele>40.2</ele><time>2012-07-26T20:27:49.0000000+00:00</time></trkpt><trkpt lat="63.74959183" lon="-20.2400074"><ele>40.2</ele><time>2012-07-26T20:27:54.0000000+00:00</time></trkpt><trkpt lat="63.74959183" lon="-20.24000931"><ele>40.2</ele><time>2012-07-26T20:27:59.0000000+00:00</time></trkpt><trkpt lat="63.74959183" lon="-20.24000931"><ele>40.2</ele><time>2012-07-26T20:28:04.0000000+00:00</time></trkpt><trkpt lat="63.74959183" lon="-20.24000931"><ele>40.2</ele><time>2012-07-26T20:28:09.0000000+00:00</time></trkpt><trkpt lat="63.74959183" lon="-20.24000931"><ele>40.2</ele><time>2012-07-26T20:28:14.0000000+00:00</time></trkpt><trkpt lat="63.74959183" lon="-20.24000931"><ele>40.2</ele><time>2012-07-26T20:28:19.0000000+00:00</time></trkpt><trkpt lat="63.74959183" lon="-20.24000931"><ele>40.2</ele><time>2012-07-26T20:28:24.0000000+00:00</time></trkpt><trkpt lat="63.74959183" lon="-20.24000931"><ele>40.2</ele><time>2012-07-26T20:28:29.0000000+00:00</time></trkpt><trkpt lat="63.74959183" lon="-20.24000931"><ele>40.2</ele><time>2012-07-26T20:28:34.0000000+00:00</time></trkpt><trkpt lat="63.74959183" lon="-20.24000931"><ele>40.3</ele><time>2012-07-26T20:28:39.0000000+00:00</time></trkpt><trkpt lat="63.74959183" lon="-20.24000931"><ele>40.3</ele><time>2012-07-26T20:28:44.0000000+00:00</time></trkpt><trkpt lat="63.74959183" lon="-20.24000931"><ele>40.3</ele><time>2012-07-26T20:28:49.0000000+00:00</time></trkpt><trkpt lat="63.74959183" lon="-20.24000931"><ele>40.3</ele><time>2012-07-26T20:28:54.0000000+00:00</time></trkpt><trkpt lat="63.74959183" lon="-20.24000931"><ele>40.3</ele><time>2012-07-26T20:28:59.0000000+00:00</time></trkpt><trkpt lat="63.74959183" lon="-20.24000931"><ele>40.3</ele><time>2012-07-26T20:29:04.0000000+00:00</time></trkpt><trkpt lat="63.74959183" lon="-20.24000931"><ele>40.3</ele><time>2012-07-26T20:29:09.0000000+00:00</time></trkpt><trkpt lat="63.74959183" lon="-20.24000931"><ele>40.3</ele><time>2012-07-26T20:29:14.0000000+00:00</time></trkpt><trkpt lat="63.74959183" lon="-20.24000931"><ele>40.3</ele><time>2012-07-26T20:29:19.0000000+00:00</time></trkpt><trkpt lat="63.74959183" lon="-20.24001122"><ele>40.3</ele><time>2012-07-26T20:29:24.0000000+00:00</time></trkpt><trkpt lat="63.74959183" lon="-20.24000931"><ele>40.3</ele><time>2012-07-26T20:29:29.0000000+00:00</time></trkpt><trkpt lat="63.74959183" lon="-20.24000931"><ele>40.3</ele><time>2012-07-26T20:29:34.0000000+00:00</time></trkpt><trkpt lat="63.74959183" lon="-20.24000931"><ele>40.3</ele><time>2012-07-26T20:29:39.0000000+00:00</time></trkpt><trkpt lat="63.74959183" lon="-20.24001122"><ele>40.3</ele><time>2012-07-26T20:29:44.0000000+00:00</time></trkpt><trkpt lat="63.74959183" lon="-20.24001122"><ele>40.3</ele><time>2012-07-26T20:29:49.0000000+00:00</time></trkpt><trkpt lat="63.74959183" lon="-20.24001122"><ele>40.3</ele><time>2012-07-26T20:29:54.0000000+00:00</time></trkpt><trkpt lat="63.74959183" lon="-20.24001122"><ele>40.3</ele><time>2012-07-26T20:29:59.0000000+00:00</time></trkpt><trkpt lat="63.74959183" lon="-20.24001122"><ele>40.3</ele><time>2012-07-26T20:30:04.0000000+00:00</time></trkpt><trkpt lat="63.74959183" lon="-20.24001122"><ele>40.3</ele><time>2012-07-26T20:30:09.0000000+00:00</time></trkpt><trkpt lat="63.74959183" lon="-20.24001122"><ele>40.3</ele><time>2012-07-26T20:30:14.0000000+00:00</time></trkpt><trkpt lat="63.74959183" lon="-20.24001122"><ele>40.4</ele><time>2012-07-26T20:30:19.0000000+00:00</time></trkpt><trkpt lat="63.74959183" lon="-20.24001122"><ele>40.4</ele><time>2012-07-26T20:30:24.0000000+00:00</time></trkpt><trkpt lat="63.74959183" lon="-20.24001122"><ele>40.4</ele><time>2012-07-26T20:30:29.0000000+00:00</time></trkpt><trkpt lat="63.74959183" lon="-20.24001122"><ele>40.4</ele><time>2012-07-26T20:30:34.0000000+00:00</time></trkpt><trkpt lat="63.74959183" lon="-20.24001122"><ele>40.4</ele><time>2012-07-26T20:30:39.0000000+00:00</time></trkpt><trkpt lat="63.74959183" lon="-20.24001122"><ele>40.4</ele><time>2012-07-26T20:30:44.0000000+00:00</time></trkpt><trkpt lat="63.74959183" lon="-20.24001122"><ele>40.4</ele><time>2012-07-26T20:30:49.0000000+00:00</time></trkpt><trkpt lat="63.74959183" lon="-20.24001122"><ele>40.4</ele><time>2012-07-26T20:30:54.0000000+00:00</time></trkpt><trkpt lat="63.74959183" lon="-20.24001122"><ele>40.4</ele><time>2012-07-26T20:30:59.0000000+00:00</time></trkpt><trkpt lat="63.74959183" lon="-20.24001122"><ele>40.4</ele><time>2012-07-26T20:31:04.0000000+00:00</time></trkpt><trkpt lat="63.74959183" lon="-20.24001122"><ele>40.4</ele><time>2012-07-26T20:31:09.0000000+00:00</time></trkpt><trkpt lat="63.74959183" lon="-20.24001122"><ele>40.4</ele><time>2012-07-26T20:31:14.0000000+00:00</time></trkpt><trkpt lat="63.74959183" lon="-20.24001312"><ele>40.4</ele><time>2012-07-26T20:31:19.0000000+00:00</time></trkpt><trkpt lat="63.74958801" lon="-20.24001312"><ele>40.4</ele><time>2012-07-26T20:31:24.0000000+00:00</time></trkpt><trkpt lat="63.74958801" lon="-20.24001312"><ele>40.4</ele><time>2012-07-26T20:31:29.0000000+00:00</time></trkpt><trkpt lat="63.74958801" lon="-20.24001312"><ele>40.4</ele><time>2012-07-26T20:31:34.0000000+00:00</time></trkpt><trkpt lat="63.74958801" lon="-20.24001312"><ele>40.4</ele><time>2012-07-26T20:31:39.0000000+00:00</time></trkpt><trkpt lat="63.74958801" lon="-20.24001312"><ele>40.4</ele><time>2012-07-26T20:31:44.0000000+00:00</time></trkpt><trkpt lat="63.74958801" lon="-20.24001312"><ele>40.4</ele><time>2012-07-26T20:31:49.0000000+00:00</time></trkpt><trkpt lat="63.74958801" lon="-20.24001312"><ele>40.4</ele><time>2012-07-26T20:31:54.0000000+00:00</time></trkpt><trkpt lat="63.74958801" lon="-20.24001312"><ele>40.4</ele><time>2012-07-26T20:31:59.0000000+00:00</time></trkpt><trkpt lat="63.74958801" lon="-20.24001503"><ele>40.4</ele><time>2012-07-26T20:32:04.0000000+00:00</time></trkpt><trkpt lat="63.74958801" lon="-20.24001503"><ele>40.4</ele><time>2012-07-26T20:32:09.0000000+00:00</time></trkpt><trkpt lat="63.74958801" lon="-20.24001503"><ele>40.4</ele><time>2012-07-26T20:32:14.0000000+00:00</time></trkpt><trkpt lat="63.74958801" lon="-20.24001503"><ele>40.4</ele><time>2012-07-26T20:32:19.0000000+00:00</time></trkpt><trkpt lat="63.74958801" lon="-20.24001503"><ele>40.4</ele><time>2012-07-26T20:32:24.0000000+00:00</time></trkpt><trkpt lat="63.74958801" lon="-20.24001503"><ele>40.4</ele><time>2012-07-26T20:32:29.0000000+00:00</time></trkpt><trkpt lat="63.74958801" lon="-20.24001503"><ele>40.3</ele><time>2012-07-26T20:32:34.0000000+00:00</time></trkpt><trkpt lat="63.74958801" lon="-20.24001503"><ele>40.3</ele><time>2012-07-26T20:32:39.0000000+00:00</time></trkpt><trkpt lat="63.74958801" lon="-20.24001503"><ele>40.4</ele><time>2012-07-26T20:32:44.0000000+00:00</time></trkpt><trkpt lat="63.74958801" lon="-20.24001503"><ele>40.4</ele><time>2012-07-26T20:32:49.0000000+00:00</time></trkpt><trkpt lat="63.74958801" lon="-20.24001503"><ele>40.3</ele><time>2012-07-26T20:32:54.0000000+00:00</time></trkpt><trkpt lat="63.74958801" lon="-20.24001503"><ele>40.3</ele><time>2012-07-26T20:32:59.0000000+00:00</time></trkpt><trkpt lat="63.74958801" lon="-20.24001503"><ele>40.3</ele><time>2012-07-26T20:33:04.0000000+00:00</time></trkpt><trkpt lat="63.74958801" lon="-20.24001503"><ele>40.4</ele><time>2012-07-26T20:33:09.0000000+00:00</time></trkpt><trkpt lat="63.74958801" lon="-20.24001503"><ele>40.4</ele><time>2012-07-26T20:33:14.0000000+00:00</time></trkpt><trkpt lat="63.74958801" lon="-20.24001503"><ele>40.4</ele><time>2012-07-26T20:33:19.0000000+00:00</time></trkpt><trkpt lat="63.74958801" lon="-20.24001503"><ele>40.4</ele><time>2012-07-26T20:33:24.0000000+00:00</time></trkpt><trkpt lat="63.74958801" lon="-20.24001503"><ele>40.4</ele><time>2012-07-26T20:33:29.0000000+00:00</time></trkpt><trkpt lat="63.74958801" lon="-20.24001503"><ele>40.4</ele><time>2012-07-26T20:33:34.0000000+00:00</time></trkpt><trkpt lat="63.74958801" lon="-20.24001503"><ele>40.4</ele><time>2012-07-26T20:33:39.0000000+00:00</time></trkpt><trkpt lat="63.74958801" lon="-20.24001503"><ele>40.4</ele><time>2012-07-26T20:33:44.0000000+00:00</time></trkpt><trkpt lat="63.74958801" lon="-20.24001503"><ele>40.4</ele><time>2012-07-26T20:33:49.0000000+00:00</time></trkpt><trkpt lat="63.74958801" lon="-20.24001503"><ele>40.4</ele><time>2012-07-26T20:33:54.0000000+00:00</time></trkpt><trkpt lat="63.74958801" lon="-20.24001503"><ele>40.4</ele><time>2012-07-26T20:33:59.0000000+00:00</time></trkpt><trkpt lat="63.74958801" lon="-20.24001503"><ele>40.4</ele><time>2012-07-26T20:34:04.0000000+00:00</time></trkpt><trkpt lat="63.74958801" lon="-20.24001503"><ele>40.4</ele><time>2012-07-26T20:34:09.0000000+00:00</time></trkpt><trkpt lat="63.74958801" lon="-20.24001503"><ele>40.4</ele><time>2012-07-26T20:34:14.0000000+00:00</time></trkpt><trkpt lat="63.74958801" lon="-20.24001503"><ele>40.4</ele><time>2012-07-26T20:34:19.0000000+00:00</time></trkpt><trkpt lat="63.74958801" lon="-20.24001503"><ele>40.4</ele><time>2012-07-26T20:34:24.0000000+00:00</time></trkpt><trkpt lat="63.74958801" lon="-20.24001694"><ele>40.4</ele><time>2012-07-26T20:34:29.0000000+00:00</time></trkpt><trkpt lat="63.74958801" lon="-20.24001694"><ele>40.4</ele><time>2012-07-26T20:34:34.0000000+00:00</time></trkpt><trkpt lat="63.74958801" lon="-20.24001694"><ele>40.4</ele><time>2012-07-26T20:34:39.0000000+00:00</time></trkpt><trkpt lat="63.74958801" lon="-20.24001694"><ele>40.4</ele><time>2012-07-26T20:34:44.0000000+00:00</time></trkpt><trkpt lat="63.74958801" lon="-20.24001694"><ele>40.4</ele><time>2012-07-26T20:34:49.0000000+00:00</time></trkpt><trkpt lat="63.74958801" lon="-20.24001694"><ele>40.4</ele><time>2012-07-26T20:34:54.0000000+00:00</time></trkpt><trkpt lat="63.74958801" lon="-20.24001694"><ele>40.4</ele><time>2012-07-26T20:34:59.0000000+00:00</time></trkpt><trkpt lat="63.74958801" lon="-20.24001694"><ele>40.4</ele><time>2012-07-26T20:35:04.0000000+00:00</time></trkpt><trkpt lat="63.74958801" lon="-20.24001694"><ele>40.4</ele><time>2012-07-26T20:35:09.0000000+00:00</time></trkpt><trkpt lat="63.74958801" lon="-20.24001694"><ele>40.4</ele><time>2012-07-26T20:35:14.0000000+00:00</time></trkpt><trkpt lat="63.74958801" lon="-20.24001694"><ele>40.4</ele><time>2012-07-26T20:35:19.0000000+00:00</time></trkpt><trkpt lat="63.74958801" lon="-20.24001694"><ele>40.4</ele><time>2012-07-26T20:35:24.0000000+00:00</time></trkpt><trkpt lat="63.74958801" lon="-20.24001694"><ele>40.4</ele><time>2012-07-26T20:35:29.0000000+00:00</time></trkpt><trkpt lat="63.74958801" lon="-20.24001694"><ele>40.4</ele><time>2012-07-26T20:35:34.0000000+00:00</time></trkpt><trkpt lat="63.74958801" lon="-20.24001694"><ele>40.4</ele><time>2012-07-26T20:35:39.0000000+00:00</time></trkpt><trkpt lat="63.74959183" lon="-20.24001694"><ele>40.4</ele><time>2012-07-26T20:35:44.0000000+00:00</time></trkpt><trkpt lat="63.74959183" lon="-20.24001694"><ele>40.4</ele><time>2012-07-26T20:35:49.0000000+00:00</time></trkpt><trkpt lat="63.74959183" lon="-20.24001694"><ele>40.4</ele><time>2012-07-26T20:35:54.0000000+00:00</time></trkpt><trkpt lat="63.74959183" lon="-20.24001694"><ele>40.4</ele><time>2012-07-26T20:35:59.0000000+00:00</time></trkpt><trkpt lat="63.74959183" lon="-20.24001694"><ele>40.3</ele><time>2012-07-26T20:36:04.0000000+00:00</time></trkpt><trkpt lat="63.74959183" lon="-20.24001694"><ele>40.3</ele><time>2012-07-26T20:36:09.0000000+00:00</time></trkpt><trkpt lat="63.74959183" lon="-20.24001885"><ele>40.3</ele><time>2012-07-26T20:36:14.0000000+00:00</time></trkpt><trkpt lat="63.74959183" lon="-20.24001885"><ele>40.3</ele><time>2012-07-26T20:36:19.0000000+00:00</time></trkpt><trkpt lat="63.74959183" lon="-20.24001885"><ele>40.3</ele><time>2012-07-26T20:36:24.0000000+00:00</time></trkpt><trkpt lat="63.74959183" lon="-20.24001885"><ele>40.3</ele><time>2012-07-26T20:36:29.0000000+00:00</time></trkpt><trkpt lat="63.74959183" lon="-20.24001885"><ele>40.3</ele><time>2012-07-26T20:36:34.0000000+00:00</time></trkpt><trkpt lat="63.74959183" lon="-20.24001885"><ele>40.3</ele><time>2012-07-26T20:36:39.0000000+00:00</time></trkpt><trkpt lat="63.74959183" lon="-20.24001885"><ele>40.3</ele><time>2012-07-26T20:36:44.0000000+00:00</time></trkpt><trkpt lat="63.74959183" lon="-20.24001885"><ele>40.3</ele><time>2012-07-26T20:36:49.0000000+00:00</time></trkpt><trkpt lat="63.74959183" lon="-20.24001885"><ele>40.3</ele><time>2012-07-26T20:36:54.0000000+00:00</time></trkpt><trkpt lat="63.74959183" lon="-20.24001885"><ele>40.3</ele><time>2012-07-26T20:36:59.0000000+00:00</time></trkpt><trkpt lat="63.74959183" lon="-20.24001885"><ele>40.3</ele><time>2012-07-26T20:37:04.0000000+00:00</time></trkpt><trkpt lat="63.74959183" lon="-20.24001885"><ele>40.3</ele><time>2012-07-26T20:37:09.0000000+00:00</time></trkpt><trkpt lat="63.74959183" lon="-20.24001885"><ele>40.3</ele><time>2012-07-26T20:37:14.0000000+00:00</time></trkpt><trkpt lat="63.74959183" lon="-20.24002075"><ele>40.3</ele><time>2012-07-26T20:37:19.0000000+00:00</time></trkpt><trkpt lat="63.74959183" lon="-20.24002075"><ele>40.3</ele><time>2012-07-26T20:37:24.0000000+00:00</time></trkpt><trkpt lat="63.74959183" lon="-20.24002075"><ele>40.3</ele><time>2012-07-26T20:37:29.0000000+00:00</time></trkpt><trkpt lat="63.74959183" lon="-20.24002075"><ele>40.3</ele><time>2012-07-26T20:37:34.0000000+00:00</time></trkpt><trkpt lat="63.74959183" lon="-20.24002075"><ele>40.3</ele><time>2012-07-26T20:37:39.0000000+00:00</time></trkpt><trkpt lat="63.74959183" lon="-20.24002075"><ele>40.3</ele><time>2012-07-26T20:37:44.0000000+00:00</time></trkpt><trkpt lat="63.74959183" lon="-20.24002075"><ele>40.3</ele><time>2012-07-26T20:37:49.0000000+00:00</time></trkpt><trkpt lat="63.74959183" lon="-20.24002075"><ele>40.3</ele><time>2012-07-26T20:37:54.0000000+00:00</time></trkpt><trkpt lat="63.74959183" lon="-20.24002075"><ele>40.3</ele><time>2012-07-26T20:37:59.0000000+00:00</time></trkpt><trkpt lat="63.74959183" lon="-20.24002075"><ele>40.3</ele><time>2012-07-26T20:38:04.0000000+00:00</time></trkpt><trkpt lat="63.74959183" lon="-20.24002075"><ele>40.3</ele><time>2012-07-26T20:38:09.0000000+00:00</time></trkpt><trkpt lat="63.74959183" lon="-20.24002075"><ele>40.3</ele><time>2012-07-26T20:38:14.0000000+00:00</time></trkpt><trkpt lat="63.74959183" lon="-20.24002075"><ele>40.3</ele><time>2012-07-26T20:38:19.0000000+00:00</time></trkpt><trkpt lat="63.74959183" lon="-20.24002075"><ele>40.3</ele><time>2012-07-26T20:38:24.0000000+00:00</time></trkpt><trkpt lat="63.74959183" lon="-20.24002075"><ele>40.3</ele><time>2012-07-26T20:38:29.0000000+00:00</time></trkpt><trkpt lat="63.74959183" lon="-20.24002075"><ele>40.3</ele><time>2012-07-26T20:38:34.0000000+00:00</time></trkpt><trkpt lat="63.74959183" lon="-20.24002075"><ele>40.3</ele><time>2012-07-26T20:38:39.0000000+00:00</time></trkpt><trkpt lat="63.74959183" lon="-20.24002075"><ele>40.3</ele><time>2012-07-26T20:38:44.0000000+00:00</time></trkpt><trkpt lat="63.74959183" lon="-20.24002075"><ele>40.3</ele><time>2012-07-26T20:38:49.0000000+00:00</time></trkpt><trkpt lat="63.74959183" lon="-20.24002075"><ele>40.3</ele><time>2012-07-26T20:38:54.0000000+00:00</time></trkpt><trkpt lat="63.74959183" lon="-20.24002075"><ele>40.3</ele><time>2012-07-26T20:38:59.0000000+00:00</time></trkpt><trkpt lat="63.74959183" lon="-20.24002075"><ele>40.3</ele><time>2012-07-26T20:39:04.0000000+00:00</time></trkpt><trkpt lat="63.74959183" lon="-20.24002075"><ele>40.3</ele><time>2012-07-26T20:39:09.0000000+00:00</time></trkpt><trkpt lat="63.74959183" lon="-20.24002075"><ele>40.3</ele><time>2012-07-26T20:39:14.0000000+00:00</time></trkpt><trkpt lat="63.74959183" lon="-20.24002075"><ele>40.3</ele><time>2012-07-26T20:39:19.0000000+00:00</time></trkpt><trkpt lat="63.74959183" lon="-20.24002075"><ele>40.3</ele><time>2012-07-26T20:39:24.0000000+00:00</time></trkpt><trkpt lat="63.74959183" lon="-20.24002075"><ele>40.3</ele><time>2012-07-26T20:39:29.0000000+00:00</time></trkpt><trkpt lat="63.74959183" lon="-20.24002075"><ele>40.3</ele><time>2012-07-26T20:39:34.0000000+00:00</time></trkpt><trkpt lat="63.74959183" lon="-20.24002075"><ele>40.3</ele><time>2012-07-26T20:39:39.0000000+00:00</time></trkpt><trkpt lat="63.74959183" lon="-20.24002075"><ele>40.3</ele><time>2012-07-26T20:39:44.0000000+00:00</time></trkpt><trkpt lat="63.74959183" lon="-20.24002075"><ele>40.3</ele><time>2012-07-26T20:39:49.0000000+00:00</time></trkpt><trkpt lat="63.74959183" lon="-20.24002075"><ele>40.3</ele><time>2012-07-26T20:39:54.0000000+00:00</time></trkpt><trkpt lat="63.74959183" lon="-20.24002075"><ele>40.3</ele><time>2012-07-26T20:39:59.0000000+00:00</time></trkpt><trkpt lat="63.74959183" lon="-20.24002075"><ele>40.3</ele><time>2012-07-26T20:40:04.0000000+00:00</time></trkpt><trkpt lat="63.74959183" lon="-20.24002075"><ele>40.3</ele><time>2012-07-26T20:40:09.0000000+00:00</time></trkpt><trkpt lat="63.74959183" lon="-20.24002075"><ele>40.3</ele><time>2012-07-26T20:40:14.0000000+00:00</time></trkpt><trkpt lat="63.74959183" lon="-20.24002075"><ele>40.3</ele><time>2012-07-26T20:40:19.0000000+00:00</time></trkpt><trkpt lat="63.74959183" lon="-20.24002075"><ele>40.2</ele><time>2012-07-26T20:40:24.0000000+00:00</time></trkpt><trkpt lat="63.74959183" lon="-20.24002266"><ele>40.2</ele><time>2012-07-26T20:40:29.0000000+00:00</time></trkpt><trkpt lat="63.74959183" lon="-20.24002266"><ele>40.2</ele><time>2012-07-26T20:40:34.0000000+00:00</time></trkpt><trkpt lat="63.74959183" lon="-20.24002266"><ele>40.2</ele><time>2012-07-26T20:40:39.0000000+00:00</time></trkpt><trkpt lat="63.74959183" lon="-20.24002266"><ele>40.2</ele><time>2012-07-26T20:40:44.0000000+00:00</time></trkpt><trkpt lat="63.74959183" lon="-20.24002266"><ele>40.2</ele><time>2012-07-26T20:40:49.0000000+00:00</time></trkpt><trkpt lat="63.74959183" lon="-20.24002266"><ele>40.2</ele><time>2012-07-26T20:40:54.0000000+00:00</time></trkpt><trkpt lat="63.74959183" lon="-20.24002266"><ele>40.2</ele><time>2012-07-26T20:40:59.0000000+00:00</time></trkpt><trkpt lat="63.74959183" lon="-20.24002266"><ele>40.2</ele><time>2012-07-26T20:41:04.0000000+00:00</time></trkpt><trkpt lat="63.74959183" lon="-20.24002266"><ele>40.2</ele><time>2012-07-26T20:41:09.0000000+00:00</time></trkpt><trkpt lat="63.74959183" lon="-20.24002266"><ele>40.2</ele><time>2012-07-26T20:41:14.0000000+00:00</time></trkpt><trkpt lat="63.74959183" lon="-20.24002266"><ele>40.2</ele><time>2012-07-26T20:41:19.0000000+00:00</time></trkpt><trkpt lat="63.74959183" lon="-20.24002266"><ele>40.2</ele><time>2012-07-26T20:41:24.0000000+00:00</time></trkpt><trkpt lat="63.74959183" lon="-20.24002266"><ele>40.2</ele><time>2012-07-26T20:41:29.0000000+00:00</time></trkpt><trkpt lat="63.74959183" lon="-20.24002266"><ele>40.2</ele><time>2012-07-26T20:41:34.0000000+00:00</time></trkpt><trkpt lat="63.74959183" lon="-20.24002457"><ele>40.2</ele><time>2012-07-26T20:41:39.0000000+00:00</time></trkpt><trkpt lat="63.74959183" lon="-20.24002457"><ele>40.2</ele><time>2012-07-26T20:41:44.0000000+00:00</time></trkpt><trkpt lat="63.74959183" lon="-20.24002457"><ele>40.2</ele><time>2012-07-26T20:41:49.0000000+00:00</time></trkpt><trkpt lat="63.74959183" lon="-20.24002457"><ele>40.2</ele><time>2012-07-26T20:41:54.0000000+00:00</time></trkpt><trkpt lat="63.74959183" lon="-20.24002457"><ele>40.2</ele><time>2012-07-26T20:41:59.0000000+00:00</time></trkpt><trkpt lat="63.74959183" lon="-20.24002457"><ele>40.2</ele><time>2012-07-26T20:42:04.0000000+00:00</time></trkpt><trkpt lat="63.74959183" lon="-20.24002457"><ele>40.2</ele><time>2012-07-26T20:42:09.0000000+00:00</time></trkpt><trkpt lat="63.74959183" lon="-20.24002457"><ele>40.2</ele><time>2012-07-26T20:42:14.0000000+00:00</time></trkpt><trkpt lat="63.74959183" lon="-20.24002457"><ele>40.2</ele><time>2012-07-26T20:42:19.0000000+00:00</time></trkpt><trkpt lat="63.74959183" lon="-20.24002457"><ele>40.2</ele><time>2012-07-26T20:42:24.0000000+00:00</time></trkpt><trkpt lat="63.74959183" lon="-20.24002457"><ele>40.2</ele><time>2012-07-26T20:42:29.0000000+00:00</time></trkpt><trkpt lat="63.74959183" lon="-20.24002457"><ele>40.2</ele><time>2012-07-26T20:42:34.0000000+00:00</time></trkpt><trkpt lat="63.74959183" lon="-20.24002647"><ele>40.2</ele><time>2012-07-26T20:42:39.0000000+00:00</time></trkpt><trkpt lat="63.74958801" lon="-20.24002647"><ele>40.2</ele><time>2012-07-26T20:42:44.0000000+00:00</time></trkpt><trkpt lat="63.74958801" lon="-20.24002647"><ele>40.2</ele><time>2012-07-26T20:42:49.0000000+00:00</time></trkpt><trkpt lat="63.74958801" lon="-20.24002647"><ele>40.2</ele><time>2012-07-26T20:42:54.0000000+00:00</time></trkpt><trkpt lat="63.74958801" lon="-20.24002647"><ele>40.2</ele><time>2012-07-26T20:42:59.0000000+00:00</time></trkpt><trkpt lat="63.74958801" lon="-20.24002647"><ele>40.2</ele><time>2012-07-26T20:43:04.0000000+00:00</time></trkpt><trkpt lat="63.74958801" lon="-20.24002647"><ele>40.2</ele><time>2012-07-26T20:43:09.0000000+00:00</time></trkpt><trkpt lat="63.74958801" lon="-20.24002647"><ele>40.2</ele><time>2012-07-26T20:43:14.0000000+00:00</time></trkpt><trkpt lat="63.74958801" lon="-20.24002647"><ele>40.2</ele><time>2012-07-26T20:43:19.0000000+00:00</time></trkpt><trkpt lat="63.74958801" lon="-20.24002647"><ele>40.2</ele><time>2012-07-26T20:43:24.0000000+00:00</time></trkpt><trkpt lat="63.74958801" lon="-20.24002647"><ele>40.2</ele><time>2012-07-26T20:43:29.0000000+00:00</time></trkpt><trkpt lat="63.74958801" lon="-20.24002647"><ele>40.2</ele><time>2012-07-26T20:43:34.0000000+00:00</time></trkpt><trkpt lat="63.74958801" lon="-20.24002647"><ele>40.2</ele><time>2012-07-26T20:43:39.0000000+00:00</time></trkpt><trkpt lat="63.74958801" lon="-20.24002647"><ele>40.2</ele><time>2012-07-26T20:43:44.0000000+00:00</time></trkpt><trkpt lat="63.74958801" lon="-20.24002647"><ele>40.2</ele><time>2012-07-26T20:43:49.0000000+00:00</time></trkpt><trkpt lat="63.74958801" lon="-20.24002647"><ele>40.2</ele><time>2012-07-26T20:43:54.0000000+00:00</time></trkpt><trkpt lat="63.74958801" lon="-20.24002647"><ele>40.2</ele><time>2012-07-26T20:43:59.0000000+00:00</time></trkpt><trkpt lat="63.74958801" lon="-20.24002647"><ele>40.2</ele><time>2012-07-26T20:44:04.0000000+00:00</time></trkpt><trkpt lat="63.74958801" lon="-20.24002647"><ele>40.2</ele><time>2012-07-26T20:44:09.0000000+00:00</time></trkpt><trkpt lat="63.74958801" lon="-20.24002647"><ele>40.2</ele><time>2012-07-26T20:44:14.0000000+00:00</time></trkpt><trkpt lat="63.74958801" lon="-20.24002647"><ele>40.2</ele><time>2012-07-26T20:44:19.0000000+00:00</time></trkpt><trkpt lat="63.74958801" lon="-20.24002647"><ele>40.2</ele><time>2012-07-26T20:44:24.0000000+00:00</time></trkpt><trkpt lat="63.74958801" lon="-20.24002647"><ele>40.2</ele><time>2012-07-26T20:44:29.0000000+00:00</time></trkpt><trkpt lat="63.74958801" lon="-20.24002647"><ele>40.2</ele><time>2012-07-26T20:44:34.0000000+00:00</time></trkpt><trkpt lat="63.74958801" lon="-20.24002647"><ele>40.2</ele><time>2012-07-26T20:44:39.0000000+00:00</time></trkpt><trkpt lat="63.74958801" lon="-20.24002647"><ele>40.2</ele><time>2012-07-26T20:44:44.0000000+00:00</time></trkpt><trkpt lat="63.74958801" lon="-20.24002647"><ele>40.3</ele><time>2012-07-26T20:44:49.0000000+00:00</time></trkpt><trkpt lat="63.74958801" lon="-20.24002647"><ele>40.3</ele><time>2012-07-26T20:44:54.0000000+00:00</time></trkpt><trkpt lat="63.74958801" lon="-20.24002647"><ele>40.3</ele><time>2012-07-26T20:44:59.0000000+00:00</time></trkpt><trkpt lat="63.74958801" lon="-20.24002647"><ele>40.3</ele><time>2012-07-26T20:45:04.0000000+00:00</time></trkpt><trkpt lat="63.74958801" lon="-20.24002647"><ele>40.3</ele><time>2012-07-26T20:45:09.0000000+00:00</time></trkpt><trkpt lat="63.74958801" lon="-20.24002647"><ele>40.3</ele><time>2012-07-26T20:45:14.0000000+00:00</time></trkpt><trkpt lat="63.74958801" lon="-20.24002647"><ele>40.3</ele><time>2012-07-26T20:45:19.0000000+00:00</time></trkpt><trkpt lat="63.74958801" lon="-20.24002647"><ele>40.3</ele><time>2012-07-26T20:45:24.0000000+00:00</time></trkpt><trkpt lat="63.74958801" lon="-20.24002647"><ele>40.3</ele><time>2012-07-26T20:45:29.0000000+00:00</time></trkpt><trkpt lat="63.74958801" lon="-20.24002647"><ele>40.3</ele><time>2012-07-26T20:45:34.0000000+00:00</time></trkpt><trkpt lat="63.74958801" lon="-20.24002647"><ele>40.2</ele><time>2012-07-26T20:45:39.0000000+00:00</time></trkpt><trkpt lat="63.74958801" lon="-20.24002647"><ele>40.2</ele><time>2012-07-26T20:45:44.0000000+00:00</time></trkpt><trkpt lat="63.74958801" lon="-20.24002647"><ele>40.2</ele><time>2012-07-26T20:45:49.0000000+00:00</time></trkpt><trkpt lat="63.74958801" lon="-20.24002647"><ele>40.2</ele><time>2012-07-26T20:45:54.0000000+00:00</time></trkpt><trkpt lat="63.74958801" lon="-20.24002647"><ele>40.2</ele><time>2012-07-26T20:45:59.0000000+00:00</time></trkpt><trkpt lat="63.74958801" lon="-20.24002647"><ele>40.2</ele><time>2012-07-26T20:46:04.0000000+00:00</time></trkpt><trkpt lat="63.74958801" lon="-20.24002838"><ele>40.2</ele><time>2012-07-26T20:46:09.0000000+00:00</time></trkpt><trkpt lat="63.74958801" lon="-20.24002838"><ele>40.2</ele><time>2012-07-26T20:46:14.0000000+00:00</time></trkpt><trkpt lat="63.74958801" lon="-20.24002838"><ele>40.2</ele><time>2012-07-26T20:46:19.0000000+00:00</time></trkpt><trkpt lat="63.74958801" lon="-20.24002838"><ele>40.2</ele><time>2012-07-26T20:46:24.0000000+00:00</time></trkpt><trkpt lat="63.74958801" lon="-20.24002838"><ele>40.2</ele><time>2012-07-26T20:46:29.0000000+00:00</time></trkpt><trkpt lat="63.74958801" lon="-20.24002838"><ele>40.2</ele><time>2012-07-26T20:46:34.0000000+00:00</time></trkpt><trkpt lat="63.74958801" lon="-20.24002838"><ele>40.2</ele><time>2012-07-26T20:46:39.0000000+00:00</time></trkpt><trkpt lat="63.74958801" lon="-20.24002838"><ele>40.2</ele><time>2012-07-26T20:46:44.0000000+00:00</time></trkpt><trkpt lat="63.74958801" lon="-20.24002838"><ele>40.2</ele><time>2012-07-26T20:46:49.0000000+00:00</time></trkpt><trkpt lat="63.74958801" lon="-20.24002838"><ele>40.2</ele><time>2012-07-26T20:46:54.0000000+00:00</time></trkpt><trkpt lat="63.74958801" lon="-20.24002838"><ele>40.2</ele><time>2012-07-26T20:46:59.0000000+00:00</time></trkpt><trkpt lat="63.74958801" lon="-20.24002838"><ele>40.2</ele><time>2012-07-26T20:47:04.0000000+00:00</time></trkpt><trkpt lat="63.74958801" lon="-20.24002838"><ele>40.2</ele><time>2012-07-26T20:47:09.0000000+00:00</time></trkpt><trkpt lat="63.74958801" lon="-20.24002838"><ele>40.2</ele><time>2012-07-26T20:47:14.0000000+00:00</time></trkpt><trkpt lat="63.74958801" lon="-20.24002838"><ele>40.2</ele><time>2012-07-26T20:47:19.0000000+00:00</time></trkpt><trkpt lat="63.74958801" lon="-20.24002838"><ele>40.2</ele><time>2012-07-26T20:47:24.0000000+00:00</time></trkpt><trkpt lat="63.74958801" lon="-20.24002838"><ele>40.2</ele><time>2012-07-26T20:47:29.0000000+00:00</time></trkpt><trkpt lat="63.74958801" lon="-20.24002838"><ele>40.2</ele><time>2012-07-26T20:47:34.0000000+00:00</time></trkpt><trkpt lat="63.74958801" lon="-20.24002838"><ele>40.2</ele><time>2012-07-26T20:47:39.0000000+00:00</time></trkpt><trkpt lat="63.74958801" lon="-20.24002838"><ele>40.2</ele><time>2012-07-26T20:47:44.0000000+00:00</time></trkpt><trkpt lat="63.74958801" lon="-20.24002838"><ele>40.2</ele><time>2012-07-26T20:47:49.0000000+00:00</time></trkpt><trkpt lat="63.74958801" lon="-20.24002838"><ele>40.2</ele><time>2012-07-26T20:47:54.0000000+00:00</time></trkpt><trkpt lat="63.74958801" lon="-20.24002838"><ele>40.2</ele><time>2012-07-26T20:47:59.0000000+00:00</time></trkpt><trkpt lat="63.74958801" lon="-20.24002838"><ele>40.2</ele><time>2012-07-26T20:48:04.0000000+00:00</time></trkpt><trkpt lat="63.74958801" lon="-20.24002647"><ele>40.2</ele><time>2012-07-26T20:48:09.0000000+00:00</time></trkpt><trkpt lat="63.74958801" lon="-20.24002647"><ele>40.2</ele><time>2012-07-26T20:48:14.0000000+00:00</time></trkpt><trkpt lat="63.74958801" lon="-20.24002647"><ele>40.2</ele><time>2012-07-26T20:48:19.0000000+00:00</time></trkpt><trkpt lat="63.74958801" lon="-20.24002647"><ele>40.2</ele><time>2012-07-26T20:48:24.0000000+00:00</time></trkpt><trkpt lat="63.74958801" lon="-20.24002647"><ele>40.2</ele><time>2012-07-26T20:48:29.0000000+00:00</time></trkpt><trkpt lat="63.74958801" lon="-20.24002647"><ele>40.2</ele><time>2012-07-26T20:48:34.0000000+00:00</time></trkpt><trkpt lat="63.74958801" lon="-20.24002647"><ele>40.2</ele><time>2012-07-26T20:48:39.0000000+00:00</time></trkpt><trkpt lat="63.74958801" lon="-20.24002647"><ele>40.2</ele><time>2012-07-26T20:48:44.0000000+00:00</time></trkpt><trkpt lat="63.74958801" lon="-20.24002647"><ele>40.2</ele><time>2012-07-26T20:48:49.0000000+00:00</time></trkpt><trkpt lat="63.74958801" lon="-20.24002647"><ele>40.2</ele><time>2012-07-26T20:48:54.0000000+00:00</time></trkpt><trkpt lat="63.74958801" lon="-20.24002647"><ele>40.2</ele><time>2012-07-26T20:48:59.0000000+00:00</time></trkpt><trkpt lat="63.74958801" lon="-20.24002647"><ele>40.2</ele><time>2012-07-26T20:49:04.0000000+00:00</time></trkpt><trkpt lat="63.74958801" lon="-20.24002647"><ele>40.2</ele><time>2012-07-26T20:49:09.0000000+00:00</time></trkpt><trkpt lat="63.74958801" lon="-20.24002647"><ele>40.2</ele><time>2012-07-26T20:49:14.0000000+00:00</time></trkpt><trkpt lat="63.74958801" lon="-20.24002647"><ele>40.2</ele><time>2012-07-26T20:49:19.0000000+00:00</time></trkpt><trkpt lat="63.74958801" lon="-20.24002647"><ele>40.2</ele><time>2012-07-26T20:49:24.0000000+00:00</time></trkpt><trkpt lat="63.74958801" lon="-20.24002647"><ele>40.2</ele><time>2012-07-26T20:49:29.0000000+00:00</time></trkpt><trkpt lat="63.74958801" lon="-20.24002647"><ele>40.2</ele><time>2012-07-26T20:49:34.0000000+00:00</time></trkpt><trkpt lat="63.74958801" lon="-20.24002647"><ele>40.2</ele><time>2012-07-26T20:49:39.0000000+00:00</time></trkpt><trkpt lat="63.74958801" lon="-20.24002647"><ele>40.2</ele><time>2012-07-26T20:49:44.0000000+00:00</time></trkpt><trkpt lat="63.74958801" lon="-20.24002647"><ele>40.2</ele><time>2012-07-26T20:49:49.0000000+00:00</time></trkpt><trkpt lat="63.74958801" lon="-20.24002647"><ele>40.2</ele><time>2012-07-26T20:49:54.0000000+00:00</time></trkpt><trkpt lat="63.74958801" lon="-20.24002647"><ele>40.2</ele><time>2012-07-26T20:49:59.0000000+00:00</time></trkpt><trkpt lat="63.74958801" lon="-20.24002647"><ele>40.2</ele><time>2012-07-26T20:50:04.0000000+00:00</time></trkpt><trkpt lat="63.74958801" lon="-20.24002647"><ele>40.2</ele><time>2012-07-26T20:50:09.0000000+00:00</time></trkpt><trkpt lat="63.74958801" lon="-20.24002647"><ele>40.2</ele><time>2012-07-26T20:50:14.0000000+00:00</time></trkpt><trkpt lat="63.74958801" lon="-20.24002647"><ele>40.2</ele><time>2012-07-26T20:50:19.0000000+00:00</time></trkpt><trkpt lat="63.74958801" lon="-20.24002647"><ele>40.2</ele><time>2012-07-26T20:50:24.0000000+00:00</time></trkpt><trkpt lat="63.74958801" lon="-20.24002647"><ele>40.2</ele><time>2012-07-26T20:50:29.0000000+00:00</time></trkpt><trkpt lat="63.74958801" lon="-20.24002647"><ele>40.2</ele><time>2012-07-26T20:50:34.0000000+00:00</time></trkpt><trkpt lat="63.74958801" lon="-20.24002647"><ele>40.2</ele><time>2012-07-26T20:50:39.0000000+00:00</time></trkpt><trkpt lat="63.74958801" lon="-20.24002647"><ele>40.2</ele><time>2012-07-26T20:50:44.0000000+00:00</time></trkpt><trkpt lat="63.74958801" lon="-20.24002647"><ele>40.2</ele><time>2012-07-26T20:50:49.0000000+00:00</time></trkpt><trkpt lat="63.74958801" lon="-20.24002647"><ele>40.2</ele><time>2012-07-26T20:50:54.0000000+00:00</time></trkpt><trkpt lat="63.74958801" lon="-20.24002647"><ele>40.2</ele><time>2012-07-26T20:50:59.0000000+00:00</time></trkpt><trkpt lat="63.74958801" lon="-20.24002647"><ele>40.2</ele><time>2012-07-26T20:51:04.0000000+00:00</time></trkpt><trkpt lat="63.74958801" lon="-20.24002647"><ele>40.2</ele><time>2012-07-26T20:51:09.0000000+00:00</time></trkpt><trkpt lat="63.74958801" lon="-20.24002647"><ele>40.2</ele><time>2012-07-26T20:51:14.0000000+00:00</time></trkpt><trkpt lat="63.74958801" lon="-20.24002647"><ele>40.2</ele><time>2012-07-26T20:51:19.0000000+00:00</time></trkpt><trkpt lat="63.74958801" lon="-20.24002647"><ele>40.2</ele><time>2012-07-26T20:51:24.0000000+00:00</time></trkpt><trkpt lat="63.74958801" lon="-20.24002647"><ele>40.2</ele><time>2012-07-26T20:51:29.0000000+00:00</time></trkpt><trkpt lat="63.74958801" lon="-20.24002647"><ele>40.2</ele><time>2012-07-26T20:51:34.0000000+00:00</time></trkpt><trkpt lat="63.74958801" lon="-20.24002647"><ele>40.2</ele><time>2012-07-26T20:51:39.0000000+00:00</time></trkpt><trkpt lat="63.74958801" lon="-20.24002647"><ele>40.2</ele><time>2012-07-26T20:51:44.0000000+00:00</time></trkpt><trkpt lat="63.74958801" lon="-20.24002647"><ele>40.2</ele><time>2012-07-26T20:51:49.0000000+00:00</time></trkpt><trkpt lat="63.74958801" lon="-20.24002647"><ele>40.2</ele><time>2012-07-26T20:51:54.0000000+00:00</time></trkpt><trkpt lat="63.74958801" lon="-20.24002647"><ele>40.2</ele><time>2012-07-26T20:51:59.0000000+00:00</time></trkpt><trkpt lat="63.74958801" lon="-20.24002647"><ele>40.2</ele><time>2012-07-26T20:52:04.0000000+00:00</time></trkpt><trkpt lat="63.74958801" lon="-20.24002647"><ele>40.2</ele><time>2012-07-26T20:52:09.0000000+00:00</time></trkpt><trkpt lat="63.74958801" lon="-20.24002647"><ele>40.2</ele><time>2012-07-26T20:52:14.0000000+00:00</time></trkpt><trkpt lat="63.74958801" lon="-20.24002647"><ele>40.2</ele><time>2012-07-26T20:52:19.0000000+00:00</time></trkpt><trkpt lat="63.74958801" lon="-20.24002647"><ele>40.2</ele><time>2012-07-26T20:52:24.0000000+00:00</time></trkpt><trkpt lat="63.74958801" lon="-20.24002647"><ele>40.2</ele><time>2012-07-26T20:52:29.0000000+00:00</time></trkpt><trkpt lat="63.74958801" lon="-20.24002647"><ele>40.2</ele><time>2012-07-26T20:52:34.0000000+00:00</time></trkpt><trkpt lat="63.74958801" lon="-20.24002647"><ele>40.2</ele><time>2012-07-26T20:52:39.0000000+00:00</time></trkpt><trkpt lat="63.74958801" lon="-20.24002647"><ele>40.2</ele><time>2012-07-26T20:52:44.0000000+00:00</time></trkpt><trkpt lat="63.74958801" lon="-20.24002647"><ele>40.2</ele><time>2012-07-26T20:52:49.0000000+00:00</time></trkpt><trkpt lat="63.74958801" lon="-20.24002647"><ele>40.2</ele><time>2012-07-26T20:52:54.0000000+00:00</time></trkpt><trkpt lat="63.74958801" lon="-20.24002647"><ele>40.2</ele><time>2012-07-26T20:52:59.0000000+00:00</time></trkpt><trkpt lat="63.74958801" lon="-20.24002647"><ele>40.2</ele><time>2012-07-26T20:53:04.0000000+00:00</time></trkpt><trkpt lat="63.74958801" lon="-20.24002647"><ele>40.2</ele><time>2012-07-26T20:53:09.0000000+00:00</time></trkpt><trkpt lat="63.74958801" lon="-20.24002647"><ele>40.2</ele><time>2012-07-26T20:53:14.0000000+00:00</time></trkpt><trkpt lat="63.74958801" lon="-20.24002647"><ele>40.2</ele><time>2012-07-26T20:53:19.0000000+00:00</time></trkpt><trkpt lat="63.7495842" lon="-20.24002647"><ele>40.3</ele><time>2012-07-26T20:53:24.0000000+00:00</time></trkpt><trkpt lat="63.7495842" lon="-20.24002647"><ele>40.3</ele><time>2012-07-26T20:53:29.0000000+00:00</time></trkpt><trkpt lat="63.7495842" lon="-20.24002647"><ele>40.3</ele><time>2012-07-26T20:53:34.0000000+00:00</time></trkpt><trkpt lat="63.7495842" lon="-20.24002647"><ele>40.3</ele><time>2012-07-26T20:53:39.0000000+00:00</time></trkpt><trkpt lat="63.7495842" lon="-20.24002647"><ele>40.3</ele><time>2012-07-26T20:53:44.0000000+00:00</time></trkpt><trkpt lat="63.7495842" lon="-20.24002647"><ele>40.3</ele><time>2012-07-26T20:53:49.0000000+00:00</time></trkpt><trkpt lat="63.7495842" lon="-20.24002647"><ele>40.3</ele><time>2012-07-26T20:53:54.0000000+00:00</time></trkpt><trkpt lat="63.7495842" lon="-20.24002647"><ele>40.3</ele><time>2012-07-26T20:53:59.0000000+00:00</time></trkpt><trkpt lat="63.7495842" lon="-20.24002457"><ele>40.3</ele><time>2012-07-26T20:54:04.0000000+00:00</time></trkpt><trkpt lat="63.7495842" lon="-20.24002457"><ele>40.3</ele><time>2012-07-26T20:54:09.0000000+00:00</time></trkpt><trkpt lat="63.7495842" lon="-20.24002457"><ele>40.3</ele><time>2012-07-26T20:54:14.0000000+00:00</time></trkpt><trkpt lat="63.7495842" lon="-20.24002457"><ele>40.3</ele><time>2012-07-26T20:54:19.0000000+00:00</time></trkpt><trkpt lat="63.7495842" lon="-20.24002457"><ele>40.3</ele><time>2012-07-26T20:54:24.0000000+00:00</time></trkpt><trkpt lat="63.7495842" lon="-20.24002457"><ele>40.3</ele><time>2012-07-26T20:54:29.0000000+00:00</time></trkpt><trkpt lat="63.7495842" lon="-20.24002457"><ele>40.3</ele><time>2012-07-26T20:54:34.0000000+00:00</time></trkpt><trkpt lat="63.7495842" lon="-20.24002457"><ele>40.3</ele><time>2012-07-26T20:54:39.0000000+00:00</time></trkpt><trkpt lat="63.7495842" lon="-20.24002457"><ele>40.4</ele><time>2012-07-26T20:54:44.0000000+00:00</time></trkpt><trkpt lat="63.7495842" lon="-20.24002457"><ele>40.4</ele><time>2012-07-26T20:54:49.0000000+00:00</time></trkpt><trkpt lat="63.7495842" lon="-20.24002457"><ele>40.4</ele><time>2012-07-26T20:54:54.0000000+00:00</time></trkpt><trkpt lat="63.7495842" lon="-20.24002457"><ele>40.4</ele><time>2012-07-26T20:54:59.0000000+00:00</time></trkpt><trkpt lat="63.7495842" lon="-20.24002457"><ele>40.4</ele><time>2012-07-26T20:55:04.0000000+00:00</time></trkpt><trkpt lat="63.7495842" lon="-20.24002457"><ele>40.4</ele><time>2012-07-26T20:55:09.0000000+00:00</time></trkpt><trkpt lat="63.7495842" lon="-20.24002457"><ele>40.4</ele><time>2012-07-26T20:55:14.0000000+00:00</time></trkpt><trkpt lat="63.7495842" lon="-20.24002457"><ele>40.4</ele><time>2012-07-26T20:55:19.0000000+00:00</time></trkpt><trkpt lat="63.7495842" lon="-20.24002457"><ele>40.4</ele><time>2012-07-26T20:55:24.0000000+00:00</time></trkpt><trkpt lat="63.7495842" lon="-20.24002457"><ele>40.4</ele><time>2012-07-26T20:55:29.0000000+00:00</time></trkpt><trkpt lat="63.7495842" lon="-20.24002457"><ele>40.4</ele><time>2012-07-26T20:55:34.0000000+00:00</time></trkpt><trkpt lat="63.7495842" lon="-20.24002457"><ele>40.4</ele><time>2012-07-26T20:55:39.0000000+00:00</time></trkpt><trkpt lat="63.7495842" lon="-20.24002457"><ele>40.4</ele><time>2012-07-26T20:55:44.0000000+00:00</time></trkpt><trkpt lat="63.7495842" lon="-20.24002457"><ele>40.4</ele><time>2012-07-26T20:55:49.0000000+00:00</time></trkpt><trkpt lat="63.7495842" lon="-20.24002457"><ele>40.4</ele><time>2012-07-26T20:55:54.0000000+00:00</time></trkpt><trkpt lat="63.7495842" lon="-20.24002457"><ele>40.4</ele><time>2012-07-26T20:55:59.0000000+00:00</time></trkpt><trkpt lat="63.7495842" lon="-20.24002457"><ele>40.5</ele><time>2012-07-26T20:56:04.0000000+00:00</time></trkpt><trkpt lat="63.7495842" lon="-20.24002457"><ele>40.5</ele><time>2012-07-26T20:56:09.0000000+00:00</time></trkpt><trkpt lat="63.7495842" lon="-20.24002457"><ele>40.5</ele><time>2012-07-26T20:56:14.0000000+00:00</time></trkpt><trkpt lat="63.7495842" lon="-20.24002266"><ele>40.5</ele><time>2012-07-26T20:56:19.0000000+00:00</time></trkpt><trkpt lat="63.7495842" lon="-20.24002266"><ele>40.5</ele><time>2012-07-26T20:56:24.0000000+00:00</time></trkpt><trkpt lat="63.7495842" lon="-20.24002266"><ele>40.5</ele><time>2012-07-26T20:56:29.0000000+00:00</time></trkpt><trkpt lat="63.7495842" lon="-20.24002266"><ele>40.5</ele><time>2012-07-26T20:56:34.0000000+00:00</time></trkpt><trkpt lat="63.7495842" lon="-20.24002266"><ele>40.5</ele><time>2012-07-26T20:56:39.0000000+00:00</time></trkpt><trkpt lat="63.7495842" lon="-20.24002266"><ele>40.5</ele><time>2012-07-26T20:56:44.0000000+00:00</time></trkpt><trkpt lat="63.7495842" lon="-20.24002266"><ele>40.5</ele><time>2012-07-26T20:56:49.0000000+00:00</time></trkpt><trkpt lat="63.7495842" lon="-20.24002266"><ele>40.5</ele><time>2012-07-26T20:56:54.0000000+00:00</time></trkpt><trkpt lat="63.7495842" lon="-20.24002266"><ele>40.5</ele><time>2012-07-26T20:56:59.0000000+00:00</time></trkpt><trkpt lat="63.7495842" lon="-20.24002266"><ele>40.5</ele><time>2012-07-26T20:57:04.0000000+00:00</time></trkpt><trkpt lat="63.7495842" lon="-20.24002266"><ele>40.5</ele><time>2012-07-26T20:57:09.0000000+00:00</time></trkpt><trkpt lat="63.7495842" lon="-20.24002266"><ele>40.5</ele><time>2012-07-26T20:57:14.0000000+00:00</time></trkpt><trkpt lat="63.7495842" lon="-20.24002266"><ele>40.5</ele><time>2012-07-26T20:57:19.0000000+00:00</time></trkpt><trkpt lat="63.7495842" lon="-20.24002266"><ele>40.6</ele><time>2012-07-26T20:57:24.0000000+00:00</time></trkpt><trkpt lat="63.7495842" lon="-20.24002266"><ele>40.6</ele><time>2012-07-26T20:57:29.0000000+00:00</time></trkpt><trkpt lat="63.7495842" lon="-20.24002075"><ele>40.6</ele><time>2012-07-26T20:57:34.0000000+00:00</time></trkpt><trkpt lat="63.7495842" lon="-20.24002075"><ele>40.7</ele><time>2012-07-26T20:57:39.0000000+00:00</time></trkpt><trkpt lat="63.7495842" lon="-20.24002075"><ele>40.7</ele><time>2012-07-26T20:57:44.0000000+00:00</time></trkpt><trkpt lat="63.7495842" lon="-20.24002075"><ele>40.7</ele><time>2012-07-26T20:57:49.0000000+00:00</time></trkpt><trkpt lat="63.7495842" lon="-20.24002075"><ele>40.7</ele><time>2012-07-26T20:57:54.0000000+00:00</time></trkpt><trkpt lat="63.7495842" lon="-20.24002075"><ele>40.8</ele><time>2012-07-26T20:57:59.0000000+00:00</time></trkpt><trkpt lat="63.7495842" lon="-20.24002075"><ele>40.8</ele><time>2012-07-26T20:58:04.0000000+00:00</time></trkpt><trkpt lat="63.7495842" lon="-20.24001885"><ele>40.8</ele><time>2012-07-26T20:58:09.0000000+00:00</time></trkpt><trkpt lat="63.7495842" lon="-20.24001885"><ele>40.8</ele><time>2012-07-26T20:58:14.0000000+00:00</time></trkpt><trkpt lat="63.7495842" lon="-20.24001885"><ele>40.8</ele><time>2012-07-26T20:58:19.0000000+00:00</time></trkpt><trkpt lat="63.7495842" lon="-20.24001885"><ele>40.8</ele><time>2012-07-26T20:58:24.0000000+00:00</time></trkpt><trkpt lat="63.7495842" lon="-20.24001885"><ele>40.8</ele><time>2012-07-26T20:58:29.0000000+00:00</time></trkpt><trkpt lat="63.7495842" lon="-20.24001885"><ele>40.7</ele><time>2012-07-26T20:58:34.0000000+00:00</time></trkpt><trkpt lat="63.7495842" lon="-20.24001885"><ele>40.7</ele><time>2012-07-26T20:58:39.0000000+00:00</time></trkpt><trkpt lat="63.7495842" lon="-20.24001885"><ele>40.7</ele><time>2012-07-26T20:58:44.0000000+00:00</time></trkpt><trkpt lat="63.7495842" lon="-20.24001885"><ele>40.7</ele><time>2012-07-26T20:58:49.0000000+00:00</time></trkpt><trkpt lat="63.7495842" lon="-20.24001694"><ele>40.7</ele><time>2012-07-26T20:58:54.0000000+00:00</time></trkpt><trkpt lat="63.7495842" lon="-20.24001694"><ele>40.6</ele><time>2012-07-26T20:58:59.0000000+00:00</time></trkpt><trkpt lat="63.7495842" lon="-20.24001694"><ele>40.6</ele><time>2012-07-26T20:59:04.0000000+00:00</time></trkpt><trkpt lat="63.7495842" lon="-20.24001694"><ele>40.7</ele><time>2012-07-26T20:59:09.0000000+00:00</time></trkpt><trkpt lat="63.7495842" lon="-20.24001694"><ele>40.7</ele><time>2012-07-26T20:59:14.0000000+00:00</time></trkpt><trkpt lat="63.7495842" lon="-20.24001694"><ele>40.7</ele><time>2012-07-26T20:59:19.0000000+00:00</time></trkpt><trkpt lat="63.7495842" lon="-20.24001694"><ele>40.7</ele><time>2012-07-26T20:59:24.0000000+00:00</time></trkpt><trkpt lat="63.7495842" lon="-20.24001694"><ele>40.7</ele><time>2012-07-26T20:59:29.0000000+00:00</time></trkpt><trkpt lat="63.7495842" lon="-20.24001694"><ele>40.7</ele><time>2012-07-26T20:59:34.0000000+00:00</time></trkpt><trkpt lat="63.7495842" lon="-20.24001694"><ele>40.7</ele><time>2012-07-26T20:59:39.0000000+00:00</time></trkpt><trkpt lat="63.7495842" lon="-20.24001694"><ele>40.7</ele><time>2012-07-26T20:59:44.0000000+00:00</time></trkpt><trkpt lat="63.7495842" lon="-20.24001694"><ele>40.7</ele><time>2012-07-26T20:59:49.0000000+00:00</time></trkpt><trkpt lat="63.7495842" lon="-20.24001694"><ele>40.7</ele><time>2012-07-26T20:59:54.0000000+00:00</time></trkpt><trkpt lat="63.7495842" lon="-20.24001694"><ele>40.6</ele><time>2012-07-26T20:59:59.0000000+00:00</time></trkpt><trkpt lat="63.7495842" lon="-20.24001694"><ele>40.6</ele><time>2012-07-26T21:00:04.0000000+00:00</time></trkpt><trkpt lat="63.7495842" lon="-20.24001694"><ele>40.6</ele><time>2012-07-26T21:00:09.0000000+00:00</time></trkpt><trkpt lat="63.7495842" lon="-20.24001694"><ele>40.6</ele><time>2012-07-26T21:00:14.0000000+00:00</time></trkpt><trkpt lat="63.7495842" lon="-20.24001694"><ele>40.6</ele><time>2012-07-26T21:00:19.0000000+00:00</time></trkpt><trkpt lat="63.7495842" lon="-20.24001694"><ele>40.6</ele><time>2012-07-26T21:00:24.0000000+00:00</time></trkpt><trkpt lat="63.7495842" lon="-20.24001694"><ele>40.6</ele><time>2012-07-26T21:00:29.0000000+00:00</time></trkpt><trkpt lat="63.7495842" lon="-20.24001694"><ele>40.6</ele><time>2012-07-26T21:00:34.0000000+00:00</time></trkpt><trkpt lat="63.7495842" lon="-20.24001694"><ele>40.6</ele><time>2012-07-26T21:00:39.0000000+00:00</time></trkpt><trkpt lat="63.7495842" lon="-20.24001694"><ele>40.6</ele><time>2012-07-26T21:00:44.0000000+00:00</time></trkpt><trkpt lat="63.7495842" lon="-20.24001694"><ele>40.6</ele><time>2012-07-26T21:00:49.0000000+00:00</time></trkpt><trkpt lat="63.7495842" lon="-20.24001694"><ele>40.6</ele><time>2012-07-26T21:00:54.0000000+00:00</time></trkpt><trkpt lat="63.7495842" lon="-20.24001694"><ele>40.6</ele><time>2012-07-26T21:00:59.0000000+00:00</time></trkpt><trkpt lat="63.7495842" lon="-20.24001694"><ele>40.6</ele><time>2012-07-26T21:01:04.0000000+00:00</time></trkpt><trkpt lat="63.7495842" lon="-20.24001694"><ele>40.6</ele><time>2012-07-26T21:01:09.0000000+00:00</time></trkpt><trkpt lat="63.7495842" lon="-20.24001694"><ele>40.6</ele><time>2012-07-26T21:01:14.0000000+00:00</time></trkpt><trkpt lat="63.7495842" lon="-20.24001694"><ele>40.6</ele><time>2012-07-26T21:01:19.0000000+00:00</time></trkpt><trkpt lat="63.7495842" lon="-20.24001694"><ele>40.6</ele><time>2012-07-26T21:01:24.0000000+00:00</time></trkpt><trkpt lat="63.7495842" lon="-20.24001694"><ele>40.6</ele><time>2012-07-26T21:01:29.0000000+00:00</time></trkpt><trkpt lat="63.7495842" lon="-20.24001694"><ele>40.6</ele><time>2012-07-26T21:01:34.0000000+00:00</time></trkpt><trkpt lat="63.7495842" lon="-20.24001694"><ele>40.6</ele><time>2012-07-26T21:01:39.0000000+00:00</time></trkpt><trkpt lat="63.7495842" lon="-20.24001694"><ele>40.6</ele><time>2012-07-26T21:01:44.0000000+00:00</time></trkpt><trkpt lat="63.7495842" lon="-20.24001694"><ele>40.6</ele><time>2012-07-26T21:01:49.0000000+00:00</time></trkpt><trkpt lat="63.7495842" lon="-20.24001694"><ele>40.6</ele><time>2012-07-26T21:01:54.0000000+00:00</time></trkpt><trkpt lat="63.7495842" lon="-20.24001694"><ele>40.6</ele><time>2012-07-26T21:01:59.0000000+00:00</time></trkpt><trkpt lat="63.7495842" lon="-20.24001694"><ele>40.6</ele><time>2012-07-26T21:02:04.0000000+00:00</time></trkpt><trkpt lat="63.7495842" lon="-20.24001694"><ele>40.6</ele><time>2012-07-26T21:02:09.0000000+00:00</time></trkpt><trkpt lat="63.7495842" lon="-20.24001694"><ele>40.6</ele><time>2012-07-26T21:02:14.0000000+00:00</time></trkpt><trkpt lat="63.7495842" lon="-20.24001694"><ele>40.6</ele><time>2012-07-26T21:02:19.0000000+00:00</time></trkpt><trkpt lat="63.7495842" lon="-20.24001694"><ele>40.6</ele><time>2012-07-26T21:02:24.0000000+00:00</time></trkpt><trkpt lat="63.7495842" lon="-20.24001694"><ele>40.6</ele><time>2012-07-26T21:02:29.0000000+00:00</time></trkpt><trkpt lat="63.7495842" lon="-20.24001694"><ele>40.6</ele><time>2012-07-26T21:02:34.0000000+00:00</time></trkpt><trkpt lat="63.7495842" lon="-20.24001694"><ele>40.6</ele><time>2012-07-26T21:02:39.0000000+00:00</time></trkpt><trkpt lat="63.7495842" lon="-20.24001694"><ele>40.6</ele><time>2012-07-26T21:02:44.0000000+00:00</time></trkpt><trkpt lat="63.7495842" lon="-20.24001885"><ele>40.6</ele><time>2012-07-26T21:02:49.0000000+00:00</time></trkpt><trkpt lat="63.7495842" lon="-20.24001694"><ele>40.6</ele><time>2012-07-26T21:02:54.0000000+00:00</time></trkpt><trkpt lat="63.7495842" lon="-20.24001694"><ele>40.6</ele><time>2012-07-26T21:02:59.0000000+00:00</time></trkpt><trkpt lat="63.7495842" lon="-20.24001694"><ele>40.6</ele><time>2012-07-26T21:03:04.0000000+00:00</time></trkpt><trkpt lat="63.7495842" lon="-20.24001694"><ele>40.6</ele><time>2012-07-26T21:03:09.0000000+00:00</time></trkpt><trkpt lat="63.7495842" lon="-20.24001694"><ele>40.6</ele><time>2012-07-26T21:03:14.0000000+00:00</time></trkpt><trkpt lat="63.7495842" lon="-20.24001694"><ele>40.6</ele><time>2012-07-26T21:03:19.0000000+00:00</time></trkpt><trkpt lat="63.7495842" lon="-20.24001694"><ele>40.6</ele><time>2012-07-26T21:03:24.0000000+00:00</time></trkpt><trkpt lat="63.7495842" lon="-20.24001694"><ele>40.6</ele><time>2012-07-26T21:03:29.0000000+00:00</time></trkpt><trkpt lat="63.7495842" lon="-20.24001694"><ele>40.5</ele><time>2012-07-26T21:03:34.0000000+00:00</time></trkpt><trkpt lat="63.7495842" lon="-20.24001694"><ele>40.5</ele><time>2012-07-26T21:03:39.0000000+00:00</time></trkpt><trkpt lat="63.7495842" lon="-20.24001885"><ele>40.5</ele><time>2012-07-26T21:03:44.0000000+00:00</time></trkpt><trkpt lat="63.7495842" lon="-20.24001885"><ele>40.5</ele><time>2012-07-26T21:03:49.0000000+00:00</time></trkpt><trkpt lat="63.7495842" lon="-20.24001885"><ele>40.5</ele><time>2012-07-26T21:03:54.0000000+00:00</time></trkpt><trkpt lat="63.7495842" lon="-20.24001885"><ele>40.5</ele><time>2012-07-26T21:03:59.0000000+00:00</time></trkpt><trkpt lat="63.7495842" lon="-20.24001885"><ele>40.6</ele><time>2012-07-26T21:04:04.0000000+00:00</time></trkpt><trkpt lat="63.7495842" lon="-20.24001885"><ele>40.6</ele><time>2012-07-26T21:04:09.0000000+00:00</time></trkpt><trkpt lat="63.7495842" lon="-20.24001885"><ele>40.6</ele><time>2012-07-26T21:04:14.0000000+00:00</time></trkpt><trkpt lat="63.7495842" lon="-20.24001885"><ele>40.6</ele><time>2012-07-26T21:04:19.0000000+00:00</time></trkpt><trkpt lat="63.7495842" lon="-20.24001885"><ele>40.6</ele><time>2012-07-26T21:04:24.0000000+00:00</time></trkpt><trkpt lat="63.7495842" lon="-20.24001885"><ele>40.6</ele><time>2012-07-26T21:04:29.0000000+00:00</time></trkpt><trkpt lat="63.7495842" lon="-20.24001885"><ele>40.6</ele><time>2012-07-26T21:04:34.0000000+00:00</time></trkpt><trkpt lat="63.7495842" lon="-20.24001885"><ele>40.6</ele><time>2012-07-26T21:04:39.0000000+00:00</time></trkpt><trkpt lat="63.7495842" lon="-20.24001885"><ele>40.6</ele><time>2012-07-26T21:04:44.0000000+00:00</time></trkpt><trkpt lat="63.7495842" lon="-20.24001885"><ele>40.6</ele><time>2012-07-26T21:04:49.0000000+00:00</time></trkpt><trkpt lat="63.7495842" lon="-20.24001885"><ele>40.6</ele><time>2012-07-26T21:04:54.0000000+00:00</time></trkpt><trkpt lat="63.7495842" lon="-20.24001885"><ele>40.5</ele><time>2012-07-26T21:04:59.0000000+00:00</time></trkpt><trkpt lat="63.7495842" lon="-20.24001885"><ele>40.5</ele><time>2012-07-26T21:05:04.0000000+00:00</time></trkpt><trkpt lat="63.7495842" lon="-20.24001885"><ele>40.5</ele><time>2012-07-26T21:05:09.0000000+00:00</time></trkpt><trkpt lat="63.7495842" lon="-20.24001885"><ele>40.6</ele><time>2012-07-26T21:05:14.0000000+00:00</time></trkpt><trkpt lat="63.7495842" lon="-20.24001885"><ele>40.6</ele><time>2012-07-26T21:05:19.0000000+00:00</time></trkpt><trkpt lat="63.7495842" lon="-20.24001885"><ele>40.6</ele><time>2012-07-26T21:05:24.0000000+00:00</time></trkpt><trkpt lat="63.7495842" lon="-20.24001885"><ele>40.6</ele><time>2012-07-26T21:05:29.0000000+00:00</time></trkpt><trkpt lat="63.7495842" lon="-20.24001885"><ele>40.6</ele><time>2012-07-26T21:05:34.0000000+00:00</time></trkpt><trkpt lat="63.7495842" lon="-20.24001885"><ele>40.6</ele><time>2012-07-26T21:05:39.0000000+00:00</time></trkpt><trkpt lat="63.7495842" lon="-20.24001885"><ele>40.6</ele><time>2012-07-26T21:05:44.0000000+00:00</time></trkpt><trkpt lat="63.7495842" lon="-20.24001885"><ele>40.6</ele><time>2012-07-26T21:05:49.0000000+00:00</time></trkpt><trkpt lat="63.7495842" lon="-20.24001885"><ele>40.6</ele><time>2012-07-26T21:05:54.0000000+00:00</time></trkpt><trkpt lat="63.7495842" lon="-20.24001885"><ele>40.6</ele><time>2012-07-26T21:05:59.0000000+00:00</time></trkpt><trkpt lat="63.7495842" lon="-20.24001885"><ele>40.6</ele><time>2012-07-26T21:06:04.0000000+00:00</time></trkpt><trkpt lat="63.7495842" lon="-20.24001885"><ele>40.6</ele><time>2012-07-26T21:06:09.0000000+00:00</time></trkpt><trkpt lat="63.7495842" lon="-20.24001885"><ele>40.6</ele><time>2012-07-26T21:06:14.0000000+00:00</time></trkpt><trkpt lat="63.7495842" lon="-20.24001885"><ele>40.6</ele><time>2012-07-26T21:06:19.0000000+00:00</time></trkpt><trkpt lat="63.7495842" lon="-20.24001885"><ele>40.6</ele><time>2012-07-26T21:06:24.0000000+00:00</time></trkpt><trkpt lat="63.7495842" lon="-20.24001885"><ele>40.6</ele><time>2012-07-26T21:06:29.0000000+00:00</time></trkpt><trkpt lat="63.7495842" lon="-20.24001885"><ele>40.6</ele><time>2012-07-26T21:06:34.0000000+00:00</time></trkpt><trkpt lat="63.7495842" lon="-20.24001885"><ele>40.6</ele><time>2012-07-26T21:06:39.0000000+00:00</time></trkpt><trkpt lat="63.7495842" lon="-20.24001885"><ele>40.6</ele><time>2012-07-26T21:06:44.0000000+00:00</time></trkpt><trkpt lat="63.7495842" lon="-20.24001885"><ele>40.6</ele><time>2012-07-26T21:06:49.0000000+00:00</time></trkpt><trkpt lat="63.7495842" lon="-20.24001885"><ele>40.6</ele><time>2012-07-26T21:06:54.0000000+00:00</time></trkpt><trkpt lat="63.7495842" lon="-20.24001885"><ele>40.6</ele><time>2012-07-26T21:06:59.0000000+00:00</time></trkpt><trkpt lat="63.7495842" lon="-20.24001885"><ele>40.6</ele><time>2012-07-26T21:07:04.0000000+00:00</time></trkpt><trkpt lat="63.7495842" lon="-20.24001885"><ele>40.6</ele><time>2012-07-26T21:07:09.0000000+00:00</time></trkpt><trkpt lat="63.7495842" lon="-20.24001885"><ele>40.6</ele><time>2012-07-26T21:07:14.0000000+00:00</time></trkpt><trkpt lat="63.7495842" lon="-20.24001885"><ele>40.6</ele><time>2012-07-26T21:07:19.0000000+00:00</time></trkpt><trkpt lat="63.7495842" lon="-20.24001885"><ele>40.6</ele><time>2012-07-26T21:07:24.0000000+00:00</time></trkpt><trkpt lat="63.7495842" lon="-20.24001885"><ele>40.6</ele><time>2012-07-26T21:07:29.0000000+00:00</time></trkpt><trkpt lat="63.7495842" lon="-20.24001885"><ele>40.6</ele><time>2012-07-26T21:07:34.0000000+00:00</time></trkpt><trkpt lat="63.7495842" lon="-20.24001885"><ele>40.6</ele><time>2012-07-26T21:07:39.0000000+00:00</time></trkpt><trkpt lat="63.7495842" lon="-20.24001885"><ele>40.6</ele><time>2012-07-26T21:07:44.0000000+00:00</time></trkpt><trkpt lat="63.7495842" lon="-20.24001885"><ele>40.6</ele><time>2012-07-26T21:07:49.0000000+00:00</time></trkpt><trkpt lat="63.7495842" lon="-20.24001885"><ele>40.6</ele><time>2012-07-26T21:07:54.0000000+00:00</time></trkpt><trkpt lat="63.7495842" lon="-20.24001885"><ele>40.6</ele><time>2012-07-26T21:07:59.0000000+00:00</time></trkpt><trkpt lat="63.7495842" lon="-20.24001885"><ele>40.6</ele><time>2012-07-26T21:08:04.0000000+00:00</time></trkpt><trkpt lat="63.7495842" lon="-20.24001885"><ele>40.6</ele><time>2012-07-26T21:08:09.0000000+00:00</time></trkpt><trkpt lat="63.7495842" lon="-20.24001885"><ele>40.6</ele><time>2012-07-26T21:08:14.0000000+00:00</time></trkpt><trkpt lat="63.7495842" lon="-20.24001885"><ele>40.6</ele><time>2012-07-26T21:08:19.0000000+00:00</time></trkpt><trkpt lat="63.7495842" lon="-20.24001885"><ele>40.6</ele><time>2012-07-26T21:08:24.0000000+00:00</time></trkpt><trkpt lat="63.7495842" lon="-20.24001885"><ele>40.6</ele><time>2012-07-26T21:08:29.0000000+00:00</time></trkpt><trkpt lat="63.7495842" lon="-20.24001885"><ele>40.6</ele><time>2012-07-26T21:08:34.0000000+00:00</time></trkpt><trkpt lat="63.7495842" lon="-20.24001885"><ele>40.7</ele><time>2012-07-26T21:08:39.0000000+00:00</time></trkpt><trkpt lat="63.7495842" lon="-20.24001885"><ele>40.7</ele><time>2012-07-26T21:08:44.0000000+00:00</time></trkpt><trkpt lat="63.7495842" lon="-20.24001885"><ele>40.7</ele><time>2012-07-26T21:08:49.0000000+00:00</time></trkpt><trkpt lat="63.7495842" lon="-20.24001885"><ele>40.7</ele><time>2012-07-26T21:08:54.0000000+00:00</time></trkpt><trkpt lat="63.7495842" lon="-20.24001885"><ele>40.7</ele><time>2012-07-26T21:08:59.0000000+00:00</time></trkpt><trkpt lat="63.7495842" lon="-20.24001885"><ele>40.7</ele><time>2012-07-26T21:09:04.0000000+00:00</time></trkpt><trkpt lat="63.7495842" lon="-20.24001885"><ele>40.7</ele><time>2012-07-26T21:09:09.0000000+00:00</time></trkpt><trkpt lat="63.7495842" lon="-20.24001885"><ele>40.7</ele><time>2012-07-26T21:09:14.0000000+00:00</time></trkpt><trkpt lat="63.7495842" lon="-20.24001885"><ele>40.7</ele><time>2012-07-26T21:09:19.0000000+00:00</time></trkpt><trkpt lat="63.7495842" lon="-20.24001885"><ele>40.7</ele><time>2012-07-26T21:09:24.0000000+00:00</time></trkpt><trkpt lat="63.7495842" lon="-20.24001885"><ele>40.7</ele><time>2012-07-26T21:09:29.0000000+00:00</time></trkpt><trkpt lat="63.7495842" lon="-20.24001885"><ele>40.7</ele><time>2012-07-26T21:09:34.0000000+00:00</time></trkpt><trkpt lat="63.7495842" lon="-20.24001885"><ele>40.7</ele><time>2012-07-26T21:09:39.0000000+00:00</time></trkpt><trkpt lat="63.7495842" lon="-20.24001885"><ele>40.7</ele><time>2012-07-26T21:09:44.0000000+00:00</time></trkpt><trkpt lat="63.7495842" lon="-20.24001885"><ele>40.7</ele><time>2012-07-26T21:09:49.0000000+00:00</time></trkpt><trkpt lat="63.7495842" lon="-20.24001885"><ele>40.7</ele><time>2012-07-26T21:09:54.0000000+00:00</time></trkpt><trkpt lat="63.7495842" lon="-20.24001885"><ele>40.7</ele><time>2012-07-26T21:09:59.0000000+00:00</time></trkpt><trkpt lat="63.7495842" lon="-20.24001885"><ele>40.7</ele><time>2012-07-26T21:10:04.0000000+00:00</time></trkpt><trkpt lat="63.74958801" lon="-20.24001885"><ele>40.7</ele><time>2012-07-26T21:10:09.0000000+00:00</time></trkpt><trkpt lat="63.74958801" lon="-20.24001885"><ele>40.7</ele><time>2012-07-26T21:10:14.0000000+00:00</time></trkpt><trkpt lat="63.74958801" lon="-20.24001885"><ele>40.7</ele><time>2012-07-26T21:10:19.0000000+00:00</time></trkpt><trkpt lat="63.74958801" lon="-20.24001885"><ele>40.6</ele><time>2012-07-26T21:10:24.0000000+00:00</time></trkpt><trkpt lat="63.74958801" lon="-20.24001885"><ele>40.6</ele><time>2012-07-26T21:10:29.0000000+00:00</time></trkpt><trkpt lat="63.74958801" lon="-20.24001885"><ele>40.6</ele><time>2012-07-26T21:10:34.0000000+00:00</time></trkpt><trkpt lat="63.74958801" lon="-20.24001885"><ele>40.6</ele><time>2012-07-26T21:10:39.0000000+00:00</time></trkpt><trkpt lat="63.74958801" lon="-20.24001885"><ele>40.7</ele><time>2012-07-26T21:10:44.0000000+00:00</time></trkpt><trkpt lat="63.74958801" lon="-20.24001694"><ele>40.6</ele><time>2012-07-26T21:10:49.0000000+00:00</time></trkpt><trkpt lat="63.74958801" lon="-20.24001694"><ele>40.6</ele><time>2012-07-26T21:10:54.0000000+00:00</time></trkpt><trkpt lat="63.74958801" lon="-20.24001694"><ele>40.6</ele><time>2012-07-26T21:10:59.0000000+00:00</time></trkpt><trkpt lat="63.74958801" lon="-20.24001694"><ele>40.7</ele><time>2012-07-26T21:11:04.0000000+00:00</time></trkpt><trkpt lat="63.74958801" lon="-20.24001694"><ele>40.7</ele><time>2012-07-26T21:11:09.0000000+00:00</time></trkpt><trkpt lat="63.74958801" lon="-20.24001694"><ele>40.7</ele><time>2012-07-26T21:11:14.0000000+00:00</time></trkpt><trkpt lat="63.74958801" lon="-20.24001694"><ele>40.7</ele><time>2012-07-26T21:11:19.0000000+00:00</time></trkpt><trkpt lat="63.74958801" lon="-20.24001694"><ele>40.7</ele><time>2012-07-26T21:11:24.0000000+00:00</time></trkpt><trkpt lat="63.74958801" lon="-20.24001694"><ele>40.7</ele><time>2012-07-26T21:11:29.0000000+00:00</time></trkpt><trkpt lat="63.74958801" lon="-20.24001694"><ele>40.7</ele><time>2012-07-26T21:11:34.0000000+00:00</time></trkpt><trkpt lat="63.74958801" lon="-20.24001694"><ele>40.7</ele><time>2012-07-26T21:11:39.0000000+00:00</time></trkpt><trkpt lat="63.74958801" lon="-20.24001694"><ele>40.7</ele><time>2012-07-26T21:11:44.0000000+00:00</time></trkpt><trkpt lat="63.74958801" lon="-20.24001694"><ele>40.7</ele><time>2012-07-26T21:11:49.0000000+00:00</time></trkpt><trkpt lat="63.74958801" lon="-20.24001694"><ele>40.7</ele><time>2012-07-26T21:11:54.0000000+00:00</time></trkpt><trkpt lat="63.74958801" lon="-20.24001694"><ele>40.7</ele><time>2012-07-26T21:11:59.0000000+00:00</time></trkpt><trkpt lat="63.74958801" lon="-20.24001694"><ele>40.7</ele><time>2012-07-26T21:12:04.0000000+00:00</time></trkpt><trkpt lat="63.74958801" lon="-20.24001694"><ele>40.7</ele><time>2012-07-26T21:12:09.0000000+00:00</time></trkpt><trkpt lat="63.74958801" lon="-20.24001694"><ele>40.7</ele><time>2012-07-26T21:12:14.0000000+00:00</time></trkpt><trkpt lat="63.74958801" lon="-20.24001694"><ele>40.7</ele><time>2012-07-26T21:12:19.0000000+00:00</time></trkpt><trkpt lat="63.74958801" lon="-20.24001694"><ele>40.8</ele><time>2012-07-26T21:12:24.0000000+00:00</time></trkpt><trkpt lat="63.74958801" lon="-20.24001694"><ele>40.8</ele><time>2012-07-26T21:12:29.0000000+00:00</time></trkpt><trkpt lat="63.74958801" lon="-20.24001503"><ele>40.8</ele><time>2012-07-26T21:12:34.0000000+00:00</time></trkpt><trkpt lat="63.74958801" lon="-20.24001503"><ele>40.8</ele><time>2012-07-26T21:12:39.0000000+00:00</time></trkpt><trkpt lat="63.74958801" lon="-20.24001503"><ele>40.8</ele><time>2012-07-26T21:12:44.0000000+00:00</time></trkpt><trkpt lat="63.74958801" lon="-20.24001503"><ele>40.8</ele><time>2012-07-26T21:12:49.0000000+00:00</time></trkpt><trkpt lat="63.74958801" lon="-20.24001503"><ele>40.8</ele><time>2012-07-26T21:12:54.0000000+00:00</time></trkpt><trkpt lat="63.74958801" lon="-20.24001503"><ele>40.8</ele><time>2012-07-26T21:12:59.0000000+00:00</time></trkpt><trkpt lat="63.74958801" lon="-20.24001503"><ele>40.9</ele><time>2012-07-26T21:13:04.0000000+00:00</time></trkpt><trkpt lat="63.74958801" lon="-20.24001503"><ele>40.9</ele><time>2012-07-26T21:13:09.0000000+00:00</time></trkpt><trkpt lat="63.74958801" lon="-20.24001503"><ele>40.9</ele><time>2012-07-26T21:13:14.0000000+00:00</time></trkpt><trkpt lat="63.74958801" lon="-20.24001503"><ele>40.9</ele><time>2012-07-26T21:13:19.0000000+00:00</time></trkpt><trkpt lat="63.74958801" lon="-20.24001503"><ele>40.9</ele><time>2012-07-26T21:13:24.0000000+00:00</time></trkpt><trkpt lat="63.74958801" lon="-20.24001503"><ele>40.9</ele><time>2012-07-26T21:13:29.0000000+00:00</time></trkpt><trkpt lat="63.74958801" lon="-20.24001503"><ele>40.9</ele><time>2012-07-26T21:13:34.0000000+00:00</time></trkpt><trkpt lat="63.74958801" lon="-20.24001503"><ele>40.9</ele><time>2012-07-26T21:13:39.0000000+00:00</time></trkpt><trkpt lat="63.74958801" lon="-20.24001503"><ele>40.9</ele><time>2012-07-26T21:13:44.0000000+00:00</time></trkpt><trkpt lat="63.74958801" lon="-20.24001503"><ele>40.9</ele><time>2012-07-26T21:13:49.0000000+00:00</time></trkpt><trkpt lat="63.74958801" lon="-20.24001312"><ele>41.0</ele><time>2012-07-26T21:13:54.0000000+00:00</time></trkpt><trkpt lat="63.7495842" lon="-20.24001312"><ele>41.0</ele><time>2012-07-26T21:13:59.0000000+00:00</time></trkpt><trkpt lat="63.7495842" lon="-20.24001312"><ele>41.0</ele><time>2012-07-26T21:14:04.0000000+00:00</time></trkpt><trkpt lat="63.7495842" lon="-20.24001312"><ele>41.0</ele><time>2012-07-26T21:14:09.0000000+00:00</time></trkpt><trkpt lat="63.7495842" lon="-20.24001312"><ele>41.0</ele><time>2012-07-26T21:14:14.0000000+00:00</time></trkpt><trkpt lat="63.7495842" lon="-20.24001312"><ele>41.0</ele><time>2012-07-26T21:14:19.0000000+00:00</time></trkpt><trkpt lat="63.7495842" lon="-20.24001312"><ele>41.0</ele><time>2012-07-26T21:14:24.0000000+00:00</time></trkpt><trkpt lat="63.7495842" lon="-20.24001122"><ele>41.0</ele><time>2012-07-26T21:14:29.0000000+00:00</time></trkpt><trkpt lat="63.7495842" lon="-20.24001122"><ele>41.0</ele><time>2012-07-26T21:14:34.0000000+00:00</time></trkpt><trkpt lat="63.7495842" lon="-20.24001122"><ele>41.0</ele><time>2012-07-26T21:14:39.0000000+00:00</time></trkpt><trkpt lat="63.7495842" lon="-20.24001122"><ele>41.0</ele><time>2012-07-26T21:14:44.0000000+00:00</time></trkpt><trkpt lat="63.7495842" lon="-20.24001122"><ele>41.0</ele><time>2012-07-26T21:14:49.0000000+00:00</time></trkpt><trkpt lat="63.7495842" lon="-20.24001122"><ele>41.0</ele><time>2012-07-26T21:14:54.0000000+00:00</time></trkpt><trkpt lat="63.7495842" lon="-20.24001122"><ele>41.0</ele><time>2012-07-26T21:14:59.0000000+00:00</time></trkpt><trkpt lat="63.7495842" lon="-20.24001122"><ele>41.0</ele><time>2012-07-26T21:15:04.0000000+00:00</time></trkpt><trkpt lat="63.7495842" lon="-20.24001122"><ele>41.1</ele><time>2012-07-26T21:15:09.0000000+00:00</time></trkpt><trkpt lat="63.7495842" lon="-20.24001122"><ele>41.1</ele><time>2012-07-26T21:15:14.0000000+00:00</time></trkpt><trkpt lat="63.7495842" lon="-20.24001122"><ele>41.1</ele><time>2012-07-26T21:15:19.0000000+00:00</time></trkpt><trkpt lat="63.7495842" lon="-20.24001122"><ele>41.1</ele><time>2012-07-26T21:15:24.0000000+00:00</time></trkpt><trkpt lat="63.7495842" lon="-20.24001122"><ele>41.1</ele><time>2012-07-26T21:15:29.0000000+00:00</time></trkpt><trkpt lat="63.7495842" lon="-20.24001122"><ele>41.1</ele><time>2012-07-26T21:15:34.0000000+00:00</time></trkpt><trkpt lat="63.7495842" lon="-20.24001122"><ele>41.1</ele><time>2012-07-26T21:15:39.0000000+00:00</time></trkpt><trkpt lat="63.7495842" lon="-20.24001122"><ele>41.1</ele><time>2012-07-26T21:15:44.0000000+00:00</time></trkpt><trkpt lat="63.7495842" lon="-20.24001122"><ele>41.1</ele><time>2012-07-26T21:15:49.0000000+00:00</time></trkpt><trkpt lat="63.7495842" lon="-20.24001122"><ele>41.1</ele><time>2012-07-26T21:15:54.0000000+00:00</time></trkpt><trkpt lat="63.7495842" lon="-20.24001122"><ele>41.1</ele><time>2012-07-26T21:15:59.0000000+00:00</time></trkpt><trkpt lat="63.7495842" lon="-20.24001122"><ele>41.1</ele><time>2012-07-26T21:16:04.0000000+00:00</time></trkpt><trkpt lat="63.7495842" lon="-20.24001122"><ele>41.1</ele><time>2012-07-26T21:16:09.0000000+00:00</time></trkpt><trkpt lat="63.7495842" lon="-20.24001122"><ele>41.1</ele><time>2012-07-26T21:16:14.0000000+00:00</time></trkpt><trkpt lat="63.7495842" lon="-20.24001122"><ele>41.1</ele><time>2012-07-26T21:16:19.0000000+00:00</time></trkpt><trkpt lat="63.7495842" lon="-20.24001122"><ele>41.1</ele><time>2012-07-26T21:16:24.0000000+00:00</time></trkpt><trkpt lat="63.7495842" lon="-20.24001122"><ele>41.1</ele><time>2012-07-26T21:16:29.0000000+00:00</time></trkpt><trkpt lat="63.74958801" lon="-20.24000931"><ele>41.1</ele><time>2012-07-26T21:16:34.0000000+00:00</time></trkpt><trkpt lat="63.74958801" lon="-20.24000931"><ele>41.1</ele><time>2012-07-26T21:16:39.0000000+00:00</time></trkpt><trkpt lat="63.74958801" lon="-20.24000931"><ele>41.1</ele><time>2012-07-26T21:16:44.0000000+00:00</time></trkpt><trkpt lat="63.74958801" lon="-20.24000931"><ele>41.1</ele><time>2012-07-26T21:16:49.0000000+00:00</time></trkpt><trkpt lat="63.74958801" lon="-20.24000931"><ele>41.1</ele><time>2012-07-26T21:16:54.0000000+00:00</time></trkpt><trkpt lat="63.74958801" lon="-20.24000931"><ele>41.1</ele><time>2012-07-26T21:16:59.0000000+00:00</time></trkpt><trkpt lat="63.74958801" lon="-20.24000931"><ele>41.1</ele><time>2012-07-26T21:17:04.0000000+00:00</time></trkpt><trkpt lat="63.74958801" lon="-20.24000931"><ele>41.1</ele><time>2012-07-26T21:17:09.0000000+00:00</time></trkpt><trkpt lat="63.74958801" lon="-20.24000931"><ele>41.1</ele><time>2012-07-26T21:17:14.0000000+00:00</time></trkpt><trkpt lat="63.74958801" lon="-20.24000931"><ele>41.0</ele><time>2012-07-26T21:17:19.0000000+00:00</time></trkpt><trkpt lat="63.74958801" lon="-20.24000931"><ele>41.1</ele><time>2012-07-26T21:17:24.0000000+00:00</time></trkpt><trkpt lat="63.74958801" lon="-20.24000931"><ele>41.1</ele><time>2012-07-26T21:17:29.0000000+00:00</time></trkpt><trkpt lat="63.74958801" lon="-20.24000931"><ele>41.0</ele><time>2012-07-26T21:17:34.0000000+00:00</time></trkpt><trkpt lat="63.74958801" lon="-20.24000931"><ele>41.0</ele><time>2012-07-26T21:17:39.0000000+00:00</time></trkpt><trkpt lat="63.74958801" lon="-20.24000931"><ele>41.0</ele><time>2012-07-26T21:17:44.0000000+00:00</time></trkpt><trkpt lat="63.74958801" lon="-20.24000931"><ele>41.0</ele><time>2012-07-26T21:17:49.0000000+00:00</time></trkpt><trkpt lat="63.74958801" lon="-20.24000931"><ele>41.0</ele><time>2012-07-26T21:17:54.0000000+00:00</time></trkpt><trkpt lat="63.74958801" lon="-20.24000931"><ele>41.0</ele><time>2012-07-26T21:17:59.0000000+00:00</time></trkpt><trkpt lat="63.74958801" lon="-20.24000931"><ele>41.0</ele><time>2012-07-26T21:18:04.0000000+00:00</time></trkpt><trkpt lat="63.74958801" lon="-20.24000931"><ele>41.0</ele><time>2012-07-26T21:18:09.0000000+00:00</time></trkpt><trkpt lat="63.74958801" lon="-20.24000931"><ele>41.0</ele><time>2012-07-26T21:18:14.0000000+00:00</time></trkpt><trkpt lat="63.74958801" lon="-20.24000931"><ele>41.0</ele><time>2012-07-26T21:18:19.0000000+00:00</time></trkpt><trkpt lat="63.74958801" lon="-20.24000931"><ele>41.0</ele><time>2012-07-26T21:18:24.0000000+00:00</time></trkpt><trkpt lat="63.74958801" lon="-20.24000931"><ele>41.0</ele><time>2012-07-26T21:18:29.0000000+00:00</time></trkpt><trkpt lat="63.74958801" lon="-20.24000931"><ele>41.0</ele><time>2012-07-26T21:18:34.0000000+00:00</time></trkpt><trkpt lat="63.74958801" lon="-20.24000931"><ele>41.0</ele><time>2012-07-26T21:18:39.0000000+00:00</time></trkpt><trkpt lat="63.74958801" lon="-20.24000931"><ele>41.0</ele><time>2012-07-26T21:18:44.0000000+00:00</time></trkpt><trkpt lat="63.74958801" lon="-20.24000931"><ele>41.0</ele><time>2012-07-26T21:18:49.0000000+00:00</time></trkpt><trkpt lat="63.74958801" lon="-20.24000931"><ele>41.0</ele><time>2012-07-26T21:18:54.0000000+00:00</time></trkpt><trkpt lat="63.74958801" lon="-20.24000931"><ele>41.0</ele><time>2012-07-26T21:18:59.0000000+00:00</time></trkpt><trkpt lat="63.74958801" lon="-20.24000931"><ele>41.0</ele><time>2012-07-26T21:19:04.0000000+00:00</time></trkpt><trkpt lat="63.74958801" lon="-20.24000931"><ele>41.0</ele><time>2012-07-26T21:19:09.0000000+00:00</time></trkpt><trkpt lat="63.74958801" lon="-20.24000931"><ele>41.0</ele><time>2012-07-26T21:19:14.0000000+00:00</time></trkpt><trkpt lat="63.74958801" lon="-20.24000931"><ele>41.0</ele><time>2012-07-26T21:19:19.0000000+00:00</time></trkpt><trkpt lat="63.74958801" lon="-20.24000931"><ele>41.0</ele><time>2012-07-26T21:19:24.0000000+00:00</time></trkpt><trkpt lat="63.74958801" lon="-20.24001122"><ele>41.0</ele><time>2012-07-26T21:19:29.0000000+00:00</time></trkpt><trkpt lat="63.74958801" lon="-20.24001122"><ele>41.0</ele><time>2012-07-26T21:19:34.0000000+00:00</time></trkpt><trkpt lat="63.74958801" lon="-20.24001122"><ele>41.0</ele><time>2012-07-26T21:19:39.0000000+00:00</time></trkpt><trkpt lat="63.74958801" lon="-20.24001122"><ele>41.0</ele><time>2012-07-26T21:19:44.0000000+00:00</time></trkpt><trkpt lat="63.74958801" lon="-20.24001122"><ele>41.0</ele><time>2012-07-26T21:19:49.0000000+00:00</time></trkpt><trkpt lat="63.74958801" lon="-20.24001122"><ele>41.0</ele><time>2012-07-26T21:19:54.0000000+00:00</time></trkpt><trkpt lat="63.74958801" lon="-20.24001312"><ele>41.0</ele><time>2012-07-26T21:19:59.0000000+00:00</time></trkpt><trkpt lat="63.74958801" lon="-20.24001122"><ele>40.9</ele><time>2012-07-26T21:20:04.0000000+00:00</time></trkpt><trkpt lat="63.74958801" lon="-20.24001312"><ele>40.9</ele><time>2012-07-26T21:20:09.0000000+00:00</time></trkpt><trkpt lat="63.74958801" lon="-20.24001312"><ele>40.9</ele><time>2012-07-26T21:20:14.0000000+00:00</time></trkpt><trkpt lat="63.74958801" lon="-20.24001312"><ele>40.9</ele><time>2012-07-26T21:20:19.0000000+00:00</time></trkpt><trkpt lat="63.74958801" lon="-20.24001312"><ele>40.9</ele><time>2012-07-26T21:20:24.0000000+00:00</time></trkpt><trkpt lat="63.74958801" lon="-20.24001312"><ele>40.9</ele><time>2012-07-26T21:20:29.0000000+00:00</time></trkpt><trkpt lat="63.74958801" lon="-20.24001312"><ele>40.9</ele><time>2012-07-26T21:20:34.0000000+00:00</time></trkpt><trkpt lat="63.74958801" lon="-20.24001312"><ele>40.9</ele><time>2012-07-26T21:20:39.0000000+00:00</time></trkpt><trkpt lat="63.74958801" lon="-20.24001312"><ele>40.9</ele><time>2012-07-26T21:20:44.0000000+00:00</time></trkpt><trkpt lat="63.74958801" lon="-20.24001312"><ele>40.9</ele><time>2012-07-26T21:20:49.0000000+00:00</time></trkpt><trkpt lat="63.74958801" lon="-20.24001312"><ele>40.9</ele><time>2012-07-26T21:20:54.0000000+00:00</time></trkpt><trkpt lat="63.74958801" lon="-20.24001503"><ele>40.9</ele><time>2012-07-26T21:20:59.0000000+00:00</time></trkpt><trkpt lat="63.74958801" lon="-20.24001503"><ele>40.9</ele><time>2012-07-26T21:21:04.0000000+00:00</time></trkpt><trkpt lat="63.74958801" lon="-20.24001503"><ele>40.9</ele><time>2012-07-26T21:21:09.0000000+00:00</time></trkpt><trkpt lat="63.74958801" lon="-20.24001503"><ele>40.9</ele><time>2012-07-26T21:21:14.0000000+00:00</time></trkpt><trkpt lat="63.74958801" lon="-20.24001503"><ele>40.9</ele><time>2012-07-26T21:21:19.0000000+00:00</time></trkpt><trkpt lat="63.74958801" lon="-20.24001503"><ele>40.9</ele><time>2012-07-26T21:21:24.0000000+00:00</time></trkpt><trkpt lat="63.74958801" lon="-20.24001503"><ele>40.9</ele><time>2012-07-26T21:21:29.0000000+00:00</time></trkpt><trkpt lat="63.74958801" lon="-20.24001694"><ele>40.9</ele><time>2012-07-26T21:21:34.0000000+00:00</time></trkpt><trkpt lat="63.74958801" lon="-20.24001694"><ele>40.9</ele><time>2012-07-26T21:21:39.0000000+00:00</time></trkpt><trkpt lat="63.74958801" lon="-20.24001694"><ele>40.9</ele><time>2012-07-26T21:21:44.0000000+00:00</time></trkpt><trkpt lat="63.74958801" lon="-20.24001694"><ele>40.8</ele><time>2012-07-26T21:21:49.0000000+00:00</time></trkpt><trkpt lat="63.74958801" lon="-20.24001694"><ele>40.8</ele><time>2012-07-26T21:21:54.0000000+00:00</time></trkpt><trkpt lat="63.74958801" lon="-20.24001694"><ele>40.8</ele><time>2012-07-26T21:21:59.0000000+00:00</time></trkpt><trkpt lat="63.74958801" lon="-20.24001694"><ele>40.8</ele><time>2012-07-26T21:22:04.0000000+00:00</time></trkpt><trkpt lat="63.74958801" lon="-20.24001694"><ele>40.8</ele><time>2012-07-26T21:22:09.0000000+00:00</time></trkpt><trkpt lat="63.74958801" lon="-20.24001694"><ele>40.8</ele><time>2012-07-26T21:22:14.0000000+00:00</time></trkpt><trkpt lat="63.74958801" lon="-20.24001885"><ele>40.8</ele><time>2012-07-26T21:22:19.0000000+00:00</time></trkpt><trkpt lat="63.74959183" lon="-20.24001885"><ele>40.8</ele><time>2012-07-26T21:22:24.0000000+00:00</time></trkpt><trkpt lat="63.74959183" lon="-20.24001885"><ele>40.8</ele><time>2012-07-26T21:22:29.0000000+00:00</time></trkpt><trkpt lat="63.74959183" lon="-20.24001885"><ele>40.8</ele><time>2012-07-26T21:22:34.0000000+00:00</time></trkpt><trkpt lat="63.74959183" lon="-20.24001885"><ele>40.8</ele><time>2012-07-26T21:22:39.0000000+00:00</time></trkpt><trkpt lat="63.74959183" lon="-20.24001885"><ele>40.8</ele><time>2012-07-26T21:22:44.0000000+00:00</time></trkpt><trkpt lat="63.74959183" lon="-20.24001885"><ele>40.8</ele><time>2012-07-26T21:22:49.0000000+00:00</time></trkpt><trkpt lat="63.74959183" lon="-20.24001885"><ele>40.8</ele><time>2012-07-26T21:22:54.0000000+00:00</time></trkpt><trkpt lat="63.74959183" lon="-20.24001885"><ele>40.8</ele><time>2012-07-26T21:22:59.0000000+00:00</time></trkpt><trkpt lat="63.74959183" lon="-20.24001885"><ele>40.8</ele><time>2012-07-26T21:23:04.0000000+00:00</time></trkpt><trkpt lat="63.74959183" lon="-20.24001885"><ele>40.8</ele><time>2012-07-26T21:23:09.0000000+00:00</time></trkpt><trkpt lat="63.74959183" lon="-20.24001885"><ele>40.8</ele><time>2012-07-26T21:23:14.0000000+00:00</time></trkpt><trkpt lat="63.74959183" lon="-20.24001885"><ele>40.8</ele><time>2012-07-26T21:23:19.0000000+00:00</time></trkpt><trkpt lat="63.74959183" lon="-20.24001885"><ele>40.8</ele><time>2012-07-26T21:23:24.0000000+00:00</time></trkpt><trkpt lat="63.74959183" lon="-20.24001885"><ele>40.8</ele><time>2012-07-26T21:23:29.0000000+00:00</time></trkpt><trkpt lat="63.74959183" lon="-20.24001885"><ele>40.8</ele><time>2012-07-26T21:23:34.0000000+00:00</time></trkpt><trkpt lat="63.74959183" lon="-20.24001885"><ele>40.8</ele><time>2012-07-26T21:23:39.0000000+00:00</time></trkpt><trkpt lat="63.74959183" lon="-20.24001885"><ele>40.8</ele><time>2012-07-26T21:23:44.0000000+00:00</time></trkpt><trkpt lat="63.74959183" lon="-20.24001885"><ele>40.8</ele><time>2012-07-26T21:23:49.0000000+00:00</time></trkpt><trkpt lat="63.74959183" lon="-20.24001885"><ele>40.8</ele><time>2012-07-26T21:23:54.0000000+00:00</time></trkpt><trkpt lat="63.74959183" lon="-20.24001885"><ele>40.8</ele><time>2012-07-26T21:23:59.0000000+00:00</time></trkpt><trkpt lat="63.74959183" lon="-20.24001885"><ele>40.8</ele><time>2012-07-26T21:24:04.0000000+00:00</time></trkpt><trkpt lat="63.74959183" lon="-20.24001885"><ele>40.8</ele><time>2012-07-26T21:24:09.0000000+00:00</time></trkpt><trkpt lat="63.74959183" lon="-20.24001885"><ele>40.8</ele><time>2012-07-26T21:24:14.0000000+00:00</time></trkpt><trkpt lat="63.74959183" lon="-20.24001885"><ele>40.8</ele><time>2012-07-26T21:24:19.0000000+00:00</time></trkpt><trkpt lat="63.74959183" lon="-20.24001885"><ele>40.8</ele><time>2012-07-26T21:24:24.0000000+00:00</time></trkpt><trkpt lat="63.74959183" lon="-20.24001885"><ele>40.8</ele><time>2012-07-26T21:24:29.0000000+00:00</time></trkpt><trkpt lat="63.74959183" lon="-20.24001885"><ele>40.8</ele><time>2012-07-26T21:24:34.0000000+00:00</time></trkpt><trkpt lat="63.74959183" lon="-20.24001885"><ele>40.8</ele><time>2012-07-26T21:24:39.0000000+00:00</time></trkpt><trkpt lat="63.74959183" lon="-20.24001885"><ele>40.8</ele><time>2012-07-26T21:24:44.0000000+00:00</time></trkpt><trkpt lat="63.74959183" lon="-20.24001885"><ele>40.8</ele><time>2012-07-26T21:24:49.0000000+00:00</time></trkpt><trkpt lat="63.74959183" lon="-20.24001885"><ele>40.8</ele><time>2012-07-26T21:24:54.0000000+00:00</time></trkpt><trkpt lat="63.74959183" lon="-20.24001885"><ele>40.8</ele><time>2012-07-26T21:24:59.0000000+00:00</time></trkpt><trkpt lat="63.74959183" lon="-20.24002075"><ele>40.8</ele><time>2012-07-26T21:25:04.0000000+00:00</time></trkpt><trkpt lat="63.74959183" lon="-20.24002075"><ele>40.8</ele><time>2012-07-26T21:25:09.0000000+00:00</time></trkpt><trkpt lat="63.74959183" lon="-20.24002075"><ele>40.8</ele><time>2012-07-26T21:25:14.0000000+00:00</time></trkpt><trkpt lat="63.74959183" lon="-20.24002075"><ele>40.8</ele><time>2012-07-26T21:25:19.0000000+00:00</time></trkpt><trkpt lat="63.74959183" lon="-20.24002075"><ele>40.8</ele><time>2012-07-26T21:25:24.0000000+00:00</time></trkpt><trkpt lat="63.74959183" lon="-20.24002075"><ele>40.8</ele><time>2012-07-26T21:25:29.0000000+00:00</time></trkpt><trkpt lat="63.74959183" lon="-20.24002075"><ele>40.7</ele><time>2012-07-26T21:25:34.0000000+00:00</time></trkpt><trkpt lat="63.74959183" lon="-20.24002075"><ele>40.7</ele><time>2012-07-26T21:25:39.0000000+00:00</time></trkpt><trkpt lat="63.74959183" lon="-20.24002075"><ele>40.7</ele><time>2012-07-26T21:25:44.0000000+00:00</time></trkpt><trkpt lat="63.74959183" lon="-20.24002075"><ele>40.7</ele><time>2012-07-26T21:25:49.0000000+00:00</time></trkpt><trkpt lat="63.74959183" lon="-20.24002075"><ele>40.7</ele><time>2012-07-26T21:25:54.0000000+00:00</time></trkpt><trkpt lat="63.74959183" lon="-20.24002266"><ele>40.7</ele><time>2012-07-26T21:25:59.0000000+00:00</time></trkpt><trkpt lat="63.74959183" lon="-20.24002266"><ele>40.7</ele><time>2012-07-26T21:26:04.0000000+00:00</time></trkpt><trkpt lat="63.74959183" lon="-20.24002266"><ele>40.7</ele><time>2012-07-26T21:26:09.0000000+00:00</time></trkpt><trkpt lat="63.74959183" lon="-20.24002266"><ele>40.7</ele><time>2012-07-26T21:26:14.0000000+00:00</time></trkpt><trkpt lat="63.74959183" lon="-20.24002266"><ele>40.7</ele><time>2012-07-26T21:26:19.0000000+00:00</time></trkpt><trkpt lat="63.74959183" lon="-20.24002266"><ele>40.7</ele><time>2012-07-26T21:26:24.0000000+00:00</time></trkpt><trkpt lat="63.74959183" lon="-20.24002266"><ele>40.7</ele><time>2012-07-26T21:26:29.0000000+00:00</time></trkpt><trkpt lat="63.74959183" lon="-20.24002266"><ele>40.7</ele><time>2012-07-26T21:26:34.0000000+00:00</time></trkpt><trkpt lat="63.74959183" lon="-20.24002266"><ele>40.7</ele><time>2012-07-26T21:26:39.0000000+00:00</time></trkpt><trkpt lat="63.74959183" lon="-20.24002266"><ele>40.7</ele><time>2012-07-26T21:26:44.0000000+00:00</time></trkpt><trkpt lat="63.74959183" lon="-20.24002266"><ele>40.7</ele><time>2012-07-26T21:26:49.0000000+00:00</time></trkpt><trkpt lat="63.74959183" lon="-20.24002266"><ele>40.6</ele><time>2012-07-26T21:26:54.0000000+00:00</time></trkpt><trkpt lat="63.74959183" lon="-20.24002266"><ele>40.6</ele><time>2012-07-26T21:26:59.0000000+00:00</time></trkpt><trkpt lat="63.74959183" lon="-20.24002266"><ele>40.6</ele><time>2012-07-26T21:27:04.0000000+00:00</time></trkpt><trkpt lat="63.74959183" lon="-20.24002266"><ele>40.6</ele><time>2012-07-26T21:27:09.0000000+00:00</time></trkpt><trkpt lat="63.74959183" lon="-20.24002266"><ele>40.6</ele><time>2012-07-26T21:27:14.0000000+00:00</time></trkpt><trkpt lat="63.74959183" lon="-20.24002266"><ele>40.6</ele><time>2012-07-26T21:27:19.0000000+00:00</time></trkpt><trkpt lat="63.74959183" lon="-20.24002266"><ele>40.6</ele><time>2012-07-26T21:27:24.0000000+00:00</time></trkpt><trkpt lat="63.74959183" lon="-20.24002266"><ele>40.6</ele><time>2012-07-26T21:27:29.0000000+00:00</time></trkpt><trkpt lat="63.74959183" lon="-20.24002266"><ele>40.6</ele><time>2012-07-26T21:27:34.0000000+00:00</time></trkpt><trkpt lat="63.74959183" lon="-20.24002266"><ele>40.6</ele><time>2012-07-26T21:27:39.0000000+00:00</time></trkpt><trkpt lat="63.74959183" lon="-20.24002266"><ele>40.6</ele><time>2012-07-26T21:27:44.0000000+00:00</time></trkpt><trkpt lat="63.74959183" lon="-20.24002266"><ele>40.6</ele><time>2012-07-26T21:27:49.0000000+00:00</time></trkpt><trkpt lat="63.74959183" lon="-20.24002266"><ele>40.6</ele><time>2012-07-26T21:27:54.0000000+00:00</time></trkpt><trkpt lat="63.74959183" lon="-20.24002266"><ele>40.6</ele><time>2012-07-26T21:27:59.0000000+00:00</time></trkpt><trkpt lat="63.74959183" lon="-20.24002266"><ele>40.6</ele><time>2012-07-26T21:28:04.0000000+00:00</time></trkpt><trkpt lat="63.74959183" lon="-20.24002266"><ele>40.6</ele><time>2012-07-26T21:28:09.0000000+00:00</time></trkpt><trkpt lat="63.74959183" lon="-20.24002266"><ele>40.5</ele><time>2012-07-26T21:28:14.0000000+00:00</time></trkpt><trkpt lat="63.74959183" lon="-20.24002266"><ele>40.5</ele><time>2012-07-26T21:28:19.0000000+00:00</time></trkpt><trkpt lat="63.74959183" lon="-20.24002457"><ele>40.5</ele><time>2012-07-26T21:28:24.0000000+00:00</time></trkpt><trkpt lat="63.74959183" lon="-20.24002457"><ele>40.5</ele><time>2012-07-26T21:28:29.0000000+00:00</time></trkpt><trkpt lat="63.74959183" lon="-20.24002457"><ele>40.5</ele><time>2012-07-26T21:28:34.0000000+00:00</time></trkpt><trkpt lat="63.74959183" lon="-20.24002457"><ele>40.5</ele><time>2012-07-26T21:28:39.0000000+00:00</time></trkpt><trkpt lat="63.74959183" lon="-20.24002457"><ele>40.5</ele><time>2012-07-26T21:28:44.0000000+00:00</time></trkpt><trkpt lat="63.74959183" lon="-20.24002457"><ele>40.5</ele><time>2012-07-26T21:28:49.0000000+00:00</time></trkpt><trkpt lat="63.74959183" lon="-20.24002457"><ele>40.5</ele><time>2012-07-26T21:28:54.0000000+00:00</time></trkpt><trkpt lat="63.74959183" lon="-20.24002457"><ele>40.5</ele><time>2012-07-26T21:28:59.0000000+00:00</time></trkpt><trkpt lat="63.74959183" lon="-20.24002457"><ele>40.5</ele><time>2012-07-26T21:29:04.0000000+00:00</time></trkpt><trkpt lat="63.74959183" lon="-20.24002457"><ele>40.5</ele><time>2012-07-26T21:29:09.0000000+00:00</time></trkpt><trkpt lat="63.74959183" lon="-20.24002457"><ele>40.4</ele><time>2012-07-26T21:29:14.0000000+00:00</time></trkpt><trkpt lat="63.74959183" lon="-20.24002457"><ele>40.4</ele><time>2012-07-26T21:29:19.0000000+00:00</time></trkpt><trkpt lat="63.74959183" lon="-20.24002457"><ele>40.4</ele><time>2012-07-26T21:29:24.0000000+00:00</time></trkpt><trkpt lat="63.74959183" lon="-20.24002457"><ele>40.4</ele><time>2012-07-26T21:29:29.0000000+00:00</time></trkpt><trkpt lat="63.74959183" lon="-20.24002457"><ele>40.4</ele><time>2012-07-26T21:29:34.0000000+00:00</time></trkpt><trkpt lat="63.74959183" lon="-20.24002457"><ele>40.4</ele><time>2012-07-26T21:29:39.0000000+00:00</time></trkpt><trkpt lat="63.74959183" lon="-20.24002457"><ele>40.4</ele><time>2012-07-26T21:29:44.0000000+00:00</time></trkpt><trkpt lat="63.74959183" lon="-20.24002457"><ele>40.4</ele><time>2012-07-26T21:29:49.0000000+00:00</time></trkpt><trkpt lat="63.74959183" lon="-20.24002457"><ele>40.4</ele><time>2012-07-26T21:29:54.0000000+00:00</time></trkpt><trkpt lat="63.74959183" lon="-20.24002457"><ele>40.4</ele><time>2012-07-26T21:29:59.0000000+00:00</time></trkpt><trkpt lat="63.74959183" lon="-20.24002457"><ele>40.4</ele><time>2012-07-26T21:30:04.0000000+00:00</time></trkpt><trkpt lat="63.74959183" lon="-20.24002457"><ele>40.4</ele><time>2012-07-26T21:30:09.0000000+00:00</time></trkpt><trkpt lat="63.74959183" lon="-20.24002457"><ele>40.4</ele><time>2012-07-26T21:30:14.0000000+00:00</time></trkpt><trkpt lat="63.74959183" lon="-20.24002457"><ele>40.4</ele><time>2012-07-26T21:30:19.0000000+00:00</time></trkpt><trkpt lat="63.74959183" lon="-20.24002457"><ele>40.4</ele><time>2012-07-26T21:30:24.0000000+00:00</time></trkpt><trkpt lat="63.74959183" lon="-20.24002457"><ele>40.4</ele><time>2012-07-26T21:30:29.0000000+00:00</time></trkpt><trkpt lat="63.74959183" lon="-20.24002457"><ele>40.4</ele><time>2012-07-26T21:30:34.0000000+00:00</time></trkpt><trkpt lat="63.74959183" lon="-20.24002457"><ele>40.4</ele><time>2012-07-26T21:30:39.0000000+00:00</time></trkpt><trkpt lat="63.74959183" lon="-20.24002457"><ele>40.3</ele><time>2012-07-26T21:30:44.0000000+00:00</time></trkpt><trkpt lat="63.74959183" lon="-20.24002457"><ele>40.3</ele><time>2012-07-26T21:30:49.0000000+00:00</time></trkpt><trkpt lat="63.74959183" lon="-20.24002457"><ele>40.3</ele><time>2012-07-26T21:30:54.0000000+00:00</time></trkpt><trkpt lat="63.74959183" lon="-20.24002457"><ele>40.3</ele><time>2012-07-26T21:30:59.0000000+00:00</time></trkpt><trkpt lat="63.74959183" lon="-20.24002457"><ele>40.3</ele><time>2012-07-26T21:31:04.0000000+00:00</time></trkpt><trkpt lat="63.74959183" lon="-20.24002457"><ele>40.3</ele><time>2012-07-26T21:31:09.0000000+00:00</time></trkpt><trkpt lat="63.74959183" lon="-20.24002457"><ele>40.3</ele><time>2012-07-26T21:31:14.0000000+00:00</time></trkpt><trkpt lat="63.74959183" lon="-20.24002457"><ele>40.3</ele><time>2012-07-26T21:31:19.0000000+00:00</time></trkpt><trkpt lat="63.74959183" lon="-20.24002457"><ele>40.3</ele><time>2012-07-26T21:31:24.0000000+00:00</time></trkpt><trkpt lat="63.74959183" lon="-20.24002457"><ele>40.3</ele><time>2012-07-26T21:31:29.0000000+00:00</time></trkpt><trkpt lat="63.74959183" lon="-20.24002457"><ele>40.2</ele><time>2012-07-26T21:31:34.0000000+00:00</time></trkpt><trkpt lat="63.74959183" lon="-20.24002457"><ele>40.2</ele><time>2012-07-26T21:31:39.0000000+00:00</time></trkpt><trkpt lat="63.74959183" lon="-20.24002457"><ele>40.2</ele><time>2012-07-26T21:31:44.0000000+00:00</time></trkpt><trkpt lat="63.74959183" lon="-20.24002457"><ele>40.2</ele><time>2012-07-26T21:31:49.0000000+00:00</time></trkpt><trkpt lat="63.74959183" lon="-20.24002457"><ele>40.2</ele><time>2012-07-26T21:31:54.0000000+00:00</time></trkpt><trkpt lat="63.74959183" lon="-20.24002457"><ele>40.2</ele><time>2012-07-26T21:31:59.0000000+00:00</time></trkpt><trkpt lat="63.74959183" lon="-20.24002457"><ele>40.2</ele><time>2012-07-26T21:32:04.0000000+00:00</time></trkpt><trkpt lat="63.74959183" lon="-20.24002457"><ele>40.2</ele><time>2012-07-26T21:32:09.0000000+00:00</time></trkpt><trkpt lat="63.74959183" lon="-20.24002457"><ele>40.2</ele><time>2012-07-26T21:32:14.0000000+00:00</time></trkpt><trkpt lat="63.74959183" lon="-20.24002457"><ele>40.2</ele><time>2012-07-26T21:32:19.0000000+00:00</time></trkpt><trkpt lat="63.74959183" lon="-20.24002457"><ele>40.2</ele><time>2012-07-26T21:32:24.0000000+00:00</time></trkpt><trkpt lat="63.74959183" lon="-20.24002457"><ele>40.2</ele><time>2012-07-26T21:32:29.0000000+00:00</time></trkpt><trkpt lat="63.74959183" lon="-20.24002457"><ele>40.2</ele><time>2012-07-26T21:32:34.0000000+00:00</time></trkpt><trkpt lat="63.74959183" lon="-20.24002457"><ele>40.1</ele><time>2012-07-26T21:32:39.0000000+00:00</time></trkpt><trkpt lat="63.74959183" lon="-20.24002457"><ele>40.1</ele><time>2012-07-26T21:32:44.0000000+00:00</time></trkpt><trkpt lat="63.74959183" lon="-20.24002457"><ele>40.1</ele><time>2012-07-26T21:32:49.0000000+00:00</time></trkpt><trkpt lat="63.74959183" lon="-20.24002457"><ele>40.1</ele><time>2012-07-26T21:32:54.0000000+00:00</time></trkpt><trkpt lat="63.74959183" lon="-20.24002457"><ele>40.1</ele><time>2012-07-26T21:32:59.0000000+00:00</time></trkpt><trkpt lat="63.74959183" lon="-20.24002457"><ele>40.1</ele><time>2012-07-26T21:33:04.0000000+00:00</time></trkpt><trkpt lat="63.74959183" lon="-20.24002457"><ele>40.1</ele><time>2012-07-26T21:33:09.0000000+00:00</time></trkpt><trkpt lat="63.74959183" lon="-20.24002457"><ele>40.0</ele><time>2012-07-26T21:33:14.0000000+00:00</time></trkpt><trkpt lat="63.74959183" lon="-20.24002457"><ele>40.0</ele><time>2012-07-26T21:33:19.0000000+00:00</time></trkpt><trkpt lat="63.74959183" lon="-20.24002457"><ele>40.0</ele><time>2012-07-26T21:33:24.0000000+00:00</time></trkpt><trkpt lat="63.74959183" lon="-20.24002457"><ele>40.0</ele><time>2012-07-26T21:33:29.0000000+00:00</time></trkpt><trkpt lat="63.74959183" lon="-20.24002457"><ele>40.0</ele><time>2012-07-26T21:33:34.0000000+00:00</time></trkpt><trkpt lat="63.74959183" lon="-20.24002457"><ele>40.0</ele><time>2012-07-26T21:33:39.0000000+00:00</time></trkpt><trkpt lat="63.74959183" lon="-20.24002647"><ele>40.0</ele><time>2012-07-26T21:33:44.0000000+00:00</time></trkpt><trkpt lat="63.74959183" lon="-20.24002647"><ele>40.0</ele><time>2012-07-26T21:33:49.0000000+00:00</time></trkpt><trkpt lat="63.74959183" lon="-20.24002647"><ele>40.0</ele><time>2012-07-26T21:33:54.0000000+00:00</time></trkpt><trkpt lat="63.74959183" lon="-20.24002647"><ele>40.0</ele><time>2012-07-26T21:33:59.0000000+00:00</time></trkpt><trkpt lat="63.74959183" lon="-20.24002647"><ele>39.9</ele><time>2012-07-26T21:34:04.0000000+00:00</time></trkpt><trkpt lat="63.74959183" lon="-20.24002647"><ele>39.9</ele><time>2012-07-26T21:34:09.0000000+00:00</time></trkpt><trkpt lat="63.74959183" lon="-20.24002647"><ele>39.9</ele><time>2012-07-26T21:34:14.0000000+00:00</time></trkpt><trkpt lat="63.74959183" lon="-20.24002647"><ele>39.9</ele><time>2012-07-26T21:34:19.0000000+00:00</time></trkpt><trkpt lat="63.74959183" lon="-20.24002647"><ele>39.9</ele><time>2012-07-26T21:34:24.0000000+00:00</time></trkpt><trkpt lat="63.74959183" lon="-20.24002647"><ele>39.9</ele><time>2012-07-26T21:34:29.0000000+00:00</time></trkpt><trkpt lat="63.74959183" lon="-20.24002647"><ele>39.9</ele><time>2012-07-26T21:34:34.0000000+00:00</time></trkpt><trkpt lat="63.74959183" lon="-20.24002647"><ele>39.9</ele><time>2012-07-26T21:34:39.0000000+00:00</time></trkpt><trkpt lat="63.74959183" lon="-20.24002647"><ele>39.9</ele><time>2012-07-26T21:34:44.0000000+00:00</time></trkpt><trkpt lat="63.74959183" lon="-20.24002647"><ele>39.8</ele><time>2012-07-26T21:34:49.0000000+00:00</time></trkpt><trkpt lat="63.74959183" lon="-20.24002647"><ele>39.8</ele><time>2012-07-26T21:34:54.0000000+00:00</time></trkpt><trkpt lat="63.74959183" lon="-20.24002647"><ele>39.8</ele><time>2012-07-26T21:34:59.0000000+00:00</time></trkpt><trkpt lat="63.74959183" lon="-20.24002647"><ele>39.8</ele><time>2012-07-26T21:35:04.0000000+00:00</time></trkpt><trkpt lat="63.74959183" lon="-20.24002647"><ele>39.8</ele><time>2012-07-26T21:35:09.0000000+00:00</time></trkpt><trkpt lat="63.74959183" lon="-20.24002647"><ele>39.8</ele><time>2012-07-26T21:35:14.0000000+00:00</time></trkpt><trkpt lat="63.74959183" lon="-20.24002647"><ele>39.8</ele><time>2012-07-26T21:35:19.0000000+00:00</time></trkpt><trkpt lat="63.74959183" lon="-20.24002647"><ele>39.8</ele><time>2012-07-26T21:35:24.0000000+00:00</time></trkpt><trkpt lat="63.74959183" lon="-20.24002647"><ele>39.8</ele><time>2012-07-26T21:35:29.0000000+00:00</time></trkpt><trkpt lat="63.74959183" lon="-20.24002647"><ele>39.7</ele><time>2012-07-26T21:35:34.0000000+00:00</time></trkpt><trkpt lat="63.74959183" lon="-20.24002647"><ele>39.7</ele><time>2012-07-26T21:35:39.0000000+00:00</time></trkpt><trkpt lat="63.74959183" lon="-20.24002647"><ele>39.7</ele><time>2012-07-26T21:35:44.0000000+00:00</time></trkpt><trkpt lat="63.74959183" lon="-20.24002647"><ele>39.7</ele><time>2012-07-26T21:35:49.0000000+00:00</time></trkpt><trkpt lat="63.74959183" lon="-20.24002647"><ele>39.7</ele><time>2012-07-26T21:35:54.0000000+00:00</time></trkpt><trkpt lat="63.74959183" lon="-20.24002647"><ele>39.7</ele><time>2012-07-26T21:35:59.0000000+00:00</time></trkpt><trkpt lat="63.74959183" lon="-20.24002457"><ele>39.7</ele><time>2012-07-26T21:36:04.0000000+00:00</time></trkpt><trkpt lat="63.74959183" lon="-20.24002457"><ele>39.7</ele><time>2012-07-26T21:36:09.0000000+00:00</time></trkpt><trkpt lat="63.74959183" lon="-20.24002647"><ele>39.7</ele><time>2012-07-26T21:36:14.0000000+00:00</time></trkpt><trkpt lat="63.74959183" lon="-20.24002647"><ele>39.6</ele><time>2012-07-26T21:36:19.0000000+00:00</time></trkpt><trkpt lat="63.74959183" lon="-20.24002647"><ele>39.6</ele><time>2012-07-26T21:36:24.0000000+00:00</time></trkpt><trkpt lat="63.74959183" lon="-20.24002647"><ele>39.6</ele><time>2012-07-26T21:36:29.0000000+00:00</time></trkpt><trkpt lat="63.74959183" lon="-20.24002457"><ele>39.6</ele><time>2012-07-26T21:36:34.0000000+00:00</time></trkpt><trkpt lat="63.74959183" lon="-20.24002647"><ele>39.6</ele><time>2012-07-26T21:36:39.0000000+00:00</time></trkpt><trkpt lat="63.74959183" lon="-20.24002647"><ele>39.6</ele><time>2012-07-26T21:36:44.0000000+00:00</time></trkpt><trkpt lat="63.74959183" lon="-20.24002647"><ele>39.6</ele><time>2012-07-26T21:36:49.0000000+00:00</time></trkpt><trkpt lat="63.74959183" lon="-20.24002647"><ele>39.6</ele><time>2012-07-26T21:36:54.0000000+00:00</time></trkpt><trkpt lat="63.74959183" lon="-20.24002647"><ele>39.5</ele><time>2012-07-26T21:36:59.0000000+00:00</time></trkpt><trkpt lat="63.74959183" lon="-20.24002647"><ele>39.5</ele><time>2012-07-26T21:37:04.0000000+00:00</time></trkpt><trkpt lat="63.74959183" lon="-20.24002647"><ele>39.5</ele><time>2012-07-26T21:37:09.0000000+00:00</time></trkpt><trkpt lat="63.74959183" lon="-20.24002647"><ele>39.5</ele><time>2012-07-26T21:37:14.0000000+00:00</time></trkpt><trkpt lat="63.74959183" lon="-20.24002647"><ele>39.5</ele><time>2012-07-26T21:37:19.0000000+00:00</time></trkpt><trkpt lat="63.74959183" lon="-20.24002647"><ele>39.5</ele><time>2012-07-26T21:37:24.0000000+00:00</time></trkpt><trkpt lat="63.74959183" lon="-20.24002647"><ele>39.5</ele><time>2012-07-26T21:37:29.0000000+00:00</time></trkpt><trkpt lat="63.74959183" lon="-20.24002647"><ele>39.5</ele><time>2012-07-26T21:37:34.0000000+00:00</time></trkpt><trkpt lat="63.74959183" lon="-20.24002647"><ele>39.5</ele><time>2012-07-26T21:37:39.0000000+00:00</time></trkpt><trkpt lat="63.74959183" lon="-20.24002647"><ele>39.4</ele><time>2012-07-26T21:37:44.0000000+00:00</time></trkpt><trkpt lat="63.74959183" lon="-20.24002647"><ele>39.4</ele><time>2012-07-26T21:37:49.0000000+00:00</time></trkpt><trkpt lat="63.74959183" lon="-20.24002647"><ele>39.4</ele><time>2012-07-26T21:37:54.0000000+00:00</time></trkpt><trkpt lat="63.74959183" lon="-20.24002647"><ele>39.4</ele><time>2012-07-26T21:37:59.0000000+00:00</time></trkpt><trkpt lat="63.74959183" lon="-20.24002647"><ele>39.4</ele><time>2012-07-26T21:38:04.0000000+00:00</time></trkpt><trkpt lat="63.74959183" lon="-20.24002647"><ele>39.4</ele><time>2012-07-26T21:38:09.0000000+00:00</time></trkpt><trkpt lat="63.74959183" lon="-20.24002647"><ele>39.4</ele><time>2012-07-26T21:38:14.0000000+00:00</time></trkpt><trkpt lat="63.74959183" lon="-20.24002647"><ele>39.4</ele><time>2012-07-26T21:38:19.0000000+00:00</time></trkpt><trkpt lat="63.74959183" lon="-20.24002647"><ele>39.3</ele><time>2012-07-26T21:38:24.0000000+00:00</time></trkpt><trkpt lat="63.74959183" lon="-20.24002647"><ele>39.3</ele><time>2012-07-26T21:38:29.0000000+00:00</time></trkpt><trkpt lat="63.74959183" lon="-20.24002647"><ele>39.3</ele><time>2012-07-26T21:38:34.0000000+00:00</time></trkpt><trkpt lat="63.74959183" lon="-20.24002647"><ele>39.3</ele><time>2012-07-26T21:38:39.0000000+00:00</time></trkpt><trkpt lat="63.74959183" lon="-20.24002647"><ele>39.3</ele><time>2012-07-26T21:38:44.0000000+00:00</time></trkpt><trkpt lat="63.74959183" lon="-20.24002647"><ele>39.3</ele><time>2012-07-26T21:38:49.0000000+00:00</time></trkpt><trkpt lat="63.74959183" lon="-20.24002647"><ele>39.3</ele><time>2012-07-26T21:38:54.0000000+00:00</time></trkpt><trkpt lat="63.74959183" lon="-20.24002647"><ele>39.3</ele><time>2012-07-26T21:38:59.0000000+00:00</time></trkpt><trkpt lat="63.74959183" lon="-20.24002647"><ele>39.2</ele><time>2012-07-26T21:39:04.0000000+00:00</time></trkpt><trkpt lat="63.74959183" lon="-20.24002647"><ele>39.2</ele><time>2012-07-26T21:39:09.0000000+00:00</time></trkpt><trkpt lat="63.74959183" lon="-20.24002838"><ele>39.2</ele><time>2012-07-26T21:39:14.0000000+00:00</time></trkpt><trkpt lat="63.74959183" lon="-20.24002838"><ele>39.2</ele><time>2012-07-26T21:39:19.0000000+00:00</time></trkpt><trkpt lat="63.74959183" lon="-20.24002838"><ele>39.2</ele><time>2012-07-26T21:39:24.0000000+00:00</time></trkpt><trkpt lat="63.74959183" lon="-20.24002838"><ele>39.2</ele><time>2012-07-26T21:39:29.0000000+00:00</time></trkpt><trkpt lat="63.74959183" lon="-20.24002838"><ele>39.2</ele><time>2012-07-26T21:39:34.0000000+00:00</time></trkpt><trkpt lat="63.74959183" lon="-20.24002838"><ele>39.2</ele><time>2012-07-26T21:39:39.0000000+00:00</time></trkpt><trkpt lat="63.74959183" lon="-20.24002838"><ele>39.1</ele><time>2012-07-26T21:39:44.0000000+00:00</time></trkpt><trkpt lat="63.74959183" lon="-20.24002838"><ele>39.1</ele><time>2012-07-26T21:39:49.0000000+00:00</time></trkpt><trkpt lat="63.74959183" lon="-20.24002838"><ele>39.1</ele><time>2012-07-26T21:39:54.0000000+00:00</time></trkpt><trkpt lat="63.74959183" lon="-20.24002838"><ele>39.1</ele><time>2012-07-26T21:39:59.0000000+00:00</time></trkpt><trkpt lat="63.74959183" lon="-20.24002838"><ele>39.1</ele><time>2012-07-26T21:40:04.0000000+00:00</time></trkpt><trkpt lat="63.74959183" lon="-20.24002838"><ele>39.1</ele><time>2012-07-26T21:40:09.0000000+00:00</time></trkpt><trkpt lat="63.74959183" lon="-20.24002838"><ele>39.1</ele><time>2012-07-26T21:40:14.0000000+00:00</time></trkpt><trkpt lat="63.74959183" lon="-20.24002838"><ele>39.0</ele><time>2012-07-26T21:40:19.0000000+00:00</time></trkpt><trkpt lat="63.74959183" lon="-20.24002838"><ele>39.0</ele><time>2012-07-26T21:40:24.0000000+00:00</time></trkpt><trkpt lat="63.74959183" lon="-20.24002838"><ele>39.0</ele><time>2012-07-26T21:40:29.0000000+00:00</time></trkpt><trkpt lat="63.74959183" lon="-20.24002838"><ele>39.0</ele><time>2012-07-26T21:40:34.0000000+00:00</time></trkpt><trkpt lat="63.74959183" lon="-20.24002838"><ele>39.0</ele><time>2012-07-26T21:40:39.0000000+00:00</time></trkpt><trkpt lat="63.74959183" lon="-20.24002838"><ele>39.0</ele><time>2012-07-26T21:40:44.0000000+00:00</time></trkpt><trkpt lat="63.74959183" lon="-20.24002838"><ele>38.9</ele><time>2012-07-26T21:40:49.0000000+00:00</time></trkpt><trkpt lat="63.74959183" lon="-20.24002838"><ele>38.9</ele><time>2012-07-26T21:40:54.0000000+00:00</time></trkpt><trkpt lat="63.74959183" lon="-20.24002838"><ele>38.9</ele><time>2012-07-26T21:40:59.0000000+00:00</time></trkpt><trkpt lat="63.74959183" lon="-20.24002838"><ele>38.9</ele><time>2012-07-26T21:41:04.0000000+00:00</time></trkpt><trkpt lat="63.74959183" lon="-20.24002838"><ele>38.9</ele><time>2012-07-26T21:41:09.0000000+00:00</time></trkpt><trkpt lat="63.74959183" lon="-20.24002838"><ele>38.8</ele><time>2012-07-26T21:41:14.0000000+00:00</time></trkpt><trkpt lat="63.74959183" lon="-20.24002838"><ele>38.8</ele><time>2012-07-26T21:41:19.0000000+00:00</time></trkpt><trkpt lat="63.74959183" lon="-20.24002838"><ele>38.8</ele><time>2012-07-26T21:41:24.0000000+00:00</time></trkpt><trkpt lat="63.74959183" lon="-20.24002838"><ele>38.8</ele><time>2012-07-26T21:41:29.0000000+00:00</time></trkpt><trkpt lat="63.74959183" lon="-20.24002838"><ele>38.8</ele><time>2012-07-26T21:41:34.0000000+00:00</time></trkpt><trkpt lat="63.74959183" lon="-20.24002838"><ele>38.8</ele><time>2012-07-26T21:41:39.0000000+00:00</time></trkpt><trkpt lat="63.74959183" lon="-20.24002838"><ele>38.7</ele><time>2012-07-26T21:41:44.0000000+00:00</time></trkpt><trkpt lat="63.74959183" lon="-20.24002838"><ele>38.7</ele><time>2012-07-26T21:41:49.0000000+00:00</time></trkpt><trkpt lat="63.74959183" lon="-20.24002838"><ele>38.7</ele><time>2012-07-26T21:41:54.0000000+00:00</time></trkpt><trkpt lat="63.74959183" lon="-20.24002838"><ele>38.7</ele><time>2012-07-26T21:41:59.0000000+00:00</time></trkpt><trkpt lat="63.74959183" lon="-20.24002838"><ele>38.7</ele><time>2012-07-26T21:42:04.0000000+00:00</time></trkpt><trkpt lat="63.74959183" lon="-20.24003029"><ele>38.7</ele><time>2012-07-26T21:42:09.0000000+00:00</time></trkpt><trkpt lat="63.74959183" lon="-20.24003029"><ele>38.7</ele><time>2012-07-26T21:42:14.0000000+00:00</time></trkpt><trkpt lat="63.74959183" lon="-20.24003029"><ele>38.7</ele><time>2012-07-26T21:42:19.0000000+00:00</time></trkpt><trkpt lat="63.74959183" lon="-20.24003029"><ele>38.7</ele><time>2012-07-26T21:42:24.0000000+00:00</time></trkpt><trkpt lat="63.74959183" lon="-20.24003029"><ele>38.6</ele><time>2012-07-26T21:42:29.0000000+00:00</time></trkpt><trkpt lat="63.74959183" lon="-20.24003029"><ele>38.6</ele><time>2012-07-26T21:42:34.0000000+00:00</time></trkpt><trkpt lat="63.74959183" lon="-20.24003029"><ele>38.6</ele><time>2012-07-26T21:42:39.0000000+00:00</time></trkpt><trkpt lat="63.74959183" lon="-20.24003029"><ele>38.6</ele><time>2012-07-26T21:42:44.0000000+00:00</time></trkpt><trkpt lat="63.74959183" lon="-20.24003029"><ele>38.6</ele><time>2012-07-26T21:42:49.0000000+00:00</time></trkpt><trkpt lat="63.74959183" lon="-20.24003029"><ele>38.6</ele><time>2012-07-26T21:42:54.0000000+00:00</time></trkpt><trkpt lat="63.74959183" lon="-20.24003029"><ele>38.6</ele><time>2012-07-26T21:42:59.0000000+00:00</time></trkpt><trkpt lat="63.74959183" lon="-20.24003029"><ele>38.6</ele><time>2012-07-26T21:43:04.0000000+00:00</time></trkpt><trkpt lat="63.74959183" lon="-20.24003029"><ele>38.6</ele><time>2012-07-26T21:43:09.0000000+00:00</time></trkpt><trkpt lat="63.74959183" lon="-20.24003029"><ele>38.6</ele><time>2012-07-26T21:43:14.0000000+00:00</time></trkpt><trkpt lat="63.74959183" lon="-20.24003029"><ele>38.6</ele><time>2012-07-26T21:43:19.0000000+00:00</time></trkpt><trkpt lat="63.74959183" lon="-20.24003029"><ele>38.5</ele><time>2012-07-26T21:43:24.0000000+00:00</time></trkpt><trkpt lat="63.74959183" lon="-20.24003029"><ele>38.5</ele><time>2012-07-26T21:43:29.0000000+00:00</time></trkpt><trkpt lat="63.74959183" lon="-20.24003029"><ele>38.5</ele><time>2012-07-26T21:43:34.0000000+00:00</time></trkpt><trkpt lat="63.74959183" lon="-20.24003029"><ele>38.5</ele><time>2012-07-26T21:43:39.0000000+00:00</time></trkpt><trkpt lat="63.74959183" lon="-20.24003029"><ele>38.5</ele><time>2012-07-26T21:43:44.0000000+00:00</time></trkpt><trkpt lat="63.74959183" lon="-20.24003029"><ele>38.5</ele><time>2012-07-26T21:43:49.0000000+00:00</time></trkpt><trkpt lat="63.74959183" lon="-20.24003029"><ele>38.5</ele><time>2012-07-26T21:43:54.0000000+00:00</time></trkpt><trkpt lat="63.74959183" lon="-20.24003029"><ele>38.5</ele><time>2012-07-26T21:43:59.0000000+00:00</time></trkpt><trkpt lat="63.74959183" lon="-20.24003029"><ele>38.5</ele><time>2012-07-26T21:44:04.0000000+00:00</time></trkpt><trkpt lat="63.74959183" lon="-20.24003029"><ele>38.4</ele><time>2012-07-26T21:44:09.0000000+00:00</time></trkpt><trkpt lat="63.74959183" lon="-20.24003029"><ele>38.4</ele><time>2012-07-26T21:44:14.0000000+00:00</time></trkpt><trkpt lat="63.74959183" lon="-20.24003029"><ele>38.4</ele><time>2012-07-26T21:44:19.0000000+00:00</time></trkpt><trkpt lat="63.74959183" lon="-20.24003029"><ele>38.4</ele><time>2012-07-26T21:44:24.0000000+00:00</time></trkpt><trkpt lat="63.74959183" lon="-20.24003029"><ele>38.4</ele><time>2012-07-26T21:44:29.0000000+00:00</time></trkpt><trkpt lat="63.74959183" lon="-20.24003029"><ele>38.4</ele><time>2012-07-26T21:44:34.0000000+00:00</time></trkpt><trkpt lat="63.74959183" lon="-20.24003029"><ele>38.4</ele><time>2012-07-26T21:44:39.0000000+00:00</time></trkpt><trkpt lat="63.74959183" lon="-20.24003029"><ele>38.4</ele><time>2012-07-26T21:44:44.0000000+00:00</time></trkpt><trkpt lat="63.74959183" lon="-20.24003029"><ele>38.4</ele><time>2012-07-26T21:44:49.0000000+00:00</time></trkpt><trkpt lat="63.74959183" lon="-20.24003029"><ele>38.4</ele><time>2012-07-26T21:44:54.0000000+00:00</time></trkpt><trkpt lat="63.74959183" lon="-20.24003029"><ele>38.4</ele><time>2012-07-26T21:44:59.0000000+00:00</time></trkpt><trkpt lat="63.74959183" lon="-20.24003029"><ele>38.4</ele><time>2012-07-26T21:45:04.0000000+00:00</time></trkpt><trkpt lat="63.74959183" lon="-20.24003029"><ele>38.3</ele><time>2012-07-26T21:45:09.0000000+00:00</time></trkpt><trkpt lat="63.74959183" lon="-20.24003029"><ele>38.3</ele><time>2012-07-26T21:45:14.0000000+00:00</time></trkpt><trkpt lat="63.74959183" lon="-20.24003029"><ele>38.3</ele><time>2012-07-26T21:45:19.0000000+00:00</time></trkpt><trkpt lat="63.74959183" lon="-20.24003029"><ele>38.3</ele><time>2012-07-26T21:45:24.0000000+00:00</time></trkpt><trkpt lat="63.74959183" lon="-20.24003029"><ele>38.3</ele><time>2012-07-26T21:45:29.0000000+00:00</time></trkpt><trkpt lat="63.74959183" lon="-20.24003029"><ele>38.3</ele><time>2012-07-26T21:45:34.0000000+00:00</time></trkpt><trkpt lat="63.74959183" lon="-20.24003029"><ele>38.3</ele><time>2012-07-26T21:45:39.0000000+00:00</time></trkpt><trkpt lat="63.74959183" lon="-20.24003029"><ele>38.3</ele><time>2012-07-26T21:45:44.0000000+00:00</time></trkpt><trkpt lat="63.74959183" lon="-20.24003029"><ele>38.3</ele><time>2012-07-26T21:45:49.0000000+00:00</time></trkpt><trkpt lat="63.74959183" lon="-20.24003029"><ele>38.3</ele><time>2012-07-26T21:45:54.0000000+00:00</time></trkpt><trkpt lat="63.74959183" lon="-20.24003029"><ele>38.3</ele><time>2012-07-26T21:45:59.0000000+00:00</time></trkpt><trkpt lat="63.74959183" lon="-20.24003029"><ele>38.3</ele><time>2012-07-26T21:46:04.0000000+00:00</time></trkpt><trkpt lat="63.74959183" lon="-20.24003029"><ele>38.3</ele><time>2012-07-26T21:46:09.0000000+00:00</time></trkpt><trkpt lat="63.74959183" lon="-20.24003029"><ele>38.3</ele><time>2012-07-26T21:46:14.0000000+00:00</time></trkpt><trkpt lat="63.74959183" lon="-20.24003029"><ele>38.2</ele><time>2012-07-26T21:46:19.0000000+00:00</time></trkpt><trkpt lat="63.74959183" lon="-20.24003029"><ele>38.2</ele><time>2012-07-26T21:46:24.0000000+00:00</time></trkpt><trkpt lat="63.74959183" lon="-20.2400322"><ele>38.2</ele><time>2012-07-26T21:46:29.0000000+00:00</time></trkpt><trkpt lat="63.74959183" lon="-20.2400322"><ele>38.2</ele><time>2012-07-26T21:46:34.0000000+00:00</time></trkpt><trkpt lat="63.74959183" lon="-20.2400322"><ele>38.2</ele><time>2012-07-26T21:46:39.0000000+00:00</time></trkpt><trkpt lat="63.74959183" lon="-20.2400322"><ele>38.2</ele><time>2012-07-26T21:46:44.0000000+00:00</time></trkpt><trkpt lat="63.74959183" lon="-20.2400322"><ele>38.2</ele><time>2012-07-26T21:46:49.0000000+00:00</time></trkpt><trkpt lat="63.74959183" lon="-20.2400322"><ele>38.2</ele><time>2012-07-26T21:46:54.0000000+00:00</time></trkpt><trkpt lat="63.74959183" lon="-20.2400322"><ele>38.2</ele><time>2012-07-26T21:46:59.0000000+00:00</time></trkpt><trkpt lat="63.74959183" lon="-20.2400322"><ele>38.2</ele><time>2012-07-26T21:47:04.0000000+00:00</time></trkpt><trkpt lat="63.74959183" lon="-20.2400322"><ele>38.2</ele><time>2012-07-26T21:47:09.0000000+00:00</time></trkpt><trkpt lat="63.74959183" lon="-20.2400322"><ele>38.1</ele><time>2012-07-26T21:47:14.0000000+00:00</time></trkpt><trkpt lat="63.74959183" lon="-20.2400322"><ele>38.1</ele><time>2012-07-26T21:47:19.0000000+00:00</time></trkpt><trkpt lat="63.74959183" lon="-20.2400322"><ele>38.1</ele><time>2012-07-26T21:47:24.0000000+00:00</time></trkpt><trkpt lat="63.74958801" lon="-20.2400341"><ele>38.1</ele><time>2012-07-26T21:47:29.0000000+00:00</time></trkpt><trkpt lat="63.74958801" lon="-20.2400341"><ele>38.1</ele><time>2012-07-26T21:47:34.0000000+00:00</time></trkpt><trkpt lat="63.74958801" lon="-20.2400341"><ele>38.1</ele><time>2012-07-26T21:47:39.0000000+00:00</time></trkpt><trkpt lat="63.74958801" lon="-20.2400322"><ele>38.1</ele><time>2012-07-26T21:47:44.0000000+00:00</time></trkpt><trkpt lat="63.74958801" lon="-20.2400322"><ele>38.1</ele><time>2012-07-26T21:47:49.0000000+00:00</time></trkpt><trkpt lat="63.74958801" lon="-20.2400341"><ele>38.1</ele><time>2012-07-26T21:47:54.0000000+00:00</time></trkpt><trkpt lat="63.74958801" lon="-20.2400341"><ele>38.1</ele><time>2012-07-26T21:47:59.0000000+00:00</time></trkpt><trkpt lat="63.74958801" lon="-20.2400341"><ele>38.0</ele><time>2012-07-26T21:48:04.0000000+00:00</time></trkpt><trkpt lat="63.74958801" lon="-20.2400322"><ele>38.0</ele><time>2012-07-26T21:48:09.0000000+00:00</time></trkpt><trkpt lat="63.74958801" lon="-20.2400322"><ele>38.0</ele><time>2012-07-26T21:48:14.0000000+00:00</time></trkpt><trkpt lat="63.74958801" lon="-20.2400322"><ele>38.0</ele><time>2012-07-26T21:48:19.0000000+00:00</time></trkpt><trkpt lat="63.74958801" lon="-20.2400322"><ele>38.0</ele><time>2012-07-26T21:48:24.0000000+00:00</time></trkpt><trkpt lat="63.74958801" lon="-20.2400322"><ele>37.9</ele><time>2012-07-26T21:48:29.0000000+00:00</time></trkpt><trkpt lat="63.74958801" lon="-20.2400322"><ele>38.0</ele><time>2012-07-26T21:48:34.0000000+00:00</time></trkpt><trkpt lat="63.74958801" lon="-20.2400322"><ele>38.0</ele><time>2012-07-26T21:48:39.0000000+00:00</time></trkpt><trkpt lat="63.74958801" lon="-20.2400322"><ele>37.9</ele><time>2012-07-26T21:48:44.0000000+00:00</time></trkpt><trkpt lat="63.74958801" lon="-20.2400322"><ele>37.9</ele><time>2012-07-26T21:48:49.0000000+00:00</time></trkpt><trkpt lat="63.74958801" lon="-20.2400322"><ele>37.9</ele><time>2012-07-26T21:48:54.0000000+00:00</time></trkpt><trkpt lat="63.74958801" lon="-20.2400322"><ele>37.9</ele><time>2012-07-26T21:48:59.0000000+00:00</time></trkpt><trkpt lat="63.74958801" lon="-20.2400322"><ele>37.9</ele><time>2012-07-26T21:49:04.0000000+00:00</time></trkpt><trkpt lat="63.74958801" lon="-20.2400322"><ele>37.9</ele><time>2012-07-26T21:49:09.0000000+00:00</time></trkpt><trkpt lat="63.74958801" lon="-20.2400322"><ele>37.9</ele><time>2012-07-26T21:49:14.0000000+00:00</time></trkpt><trkpt lat="63.74958801" lon="-20.2400322"><ele>37.9</ele><time>2012-07-26T21:49:19.0000000+00:00</time></trkpt><trkpt lat="63.74958801" lon="-20.2400322"><ele>37.9</ele><time>2012-07-26T21:49:24.0000000+00:00</time></trkpt><trkpt lat="63.74958801" lon="-20.2400322"><ele>37.9</ele><time>2012-07-26T21:49:29.0000000+00:00</time></trkpt><trkpt lat="63.74958801" lon="-20.2400341"><ele>37.9</ele><time>2012-07-26T21:49:34.0000000+00:00</time></trkpt><trkpt lat="63.74958801" lon="-20.2400341"><ele>37.9</ele><time>2012-07-26T21:49:39.0000000+00:00</time></trkpt><trkpt lat="63.74958801" lon="-20.2400341"><ele>37.9</ele><time>2012-07-26T21:49:44.0000000+00:00</time></trkpt><trkpt lat="63.74958801" lon="-20.2400341"><ele>37.9</ele><time>2012-07-26T21:49:49.0000000+00:00</time></trkpt><trkpt lat="63.74958801" lon="-20.2400341"><ele>37.8</ele><time>2012-07-26T21:49:54.0000000+00:00</time></trkpt><trkpt lat="63.74958801" lon="-20.2400341"><ele>37.9</ele><time>2012-07-26T21:49:59.0000000+00:00</time></trkpt><trkpt lat="63.74958801" lon="-20.2400341"><ele>37.8</ele><time>2012-07-26T21:50:04.0000000+00:00</time></trkpt><trkpt lat="63.74958801" lon="-20.2400341"><ele>37.8</ele><time>2012-07-26T21:50:09.0000000+00:00</time></trkpt><trkpt lat="63.74958801" lon="-20.2400341"><ele>37.8</ele><time>2012-07-26T21:50:14.0000000+00:00</time></trkpt><trkpt lat="63.74958801" lon="-20.2400341"><ele>37.8</ele><time>2012-07-26T21:50:19.0000000+00:00</time></trkpt><trkpt lat="63.74958801" lon="-20.2400341"><ele>37.8</ele><time>2012-07-26T21:50:24.0000000+00:00</time></trkpt><trkpt lat="63.74958801" lon="-20.2400341"><ele>37.8</ele><time>2012-07-26T21:50:29.0000000+00:00</time></trkpt><trkpt lat="63.74958801" lon="-20.2400341"><ele>37.8</ele><time>2012-07-26T21:50:34.0000000+00:00</time></trkpt><trkpt lat="63.74958801" lon="-20.2400341"><ele>37.8</ele><time>2012-07-26T21:50:39.0000000+00:00</time></trkpt><trkpt lat="63.74958801" lon="-20.2400341"><ele>37.8</ele><time>2012-07-26T21:50:44.0000000+00:00</time></trkpt><trkpt lat="63.74958801" lon="-20.2400341"><ele>37.8</ele><time>2012-07-26T21:50:49.0000000+00:00</time></trkpt><trkpt lat="63.74958801" lon="-20.2400341"><ele>37.8</ele><time>2012-07-26T21:50:54.0000000+00:00</time></trkpt><trkpt lat="63.7495842" lon="-20.2400341"><ele>37.8</ele><time>2012-07-26T21:50:59.0000000+00:00</time></trkpt><trkpt lat="63.7495842" lon="-20.2400341"><ele>37.8</ele><time>2012-07-26T21:51:04.0000000+00:00</time></trkpt><trkpt lat="63.7495842" lon="-20.2400341"><ele>37.8</ele><time>2012-07-26T21:51:09.0000000+00:00</time></trkpt><trkpt lat="63.7495842" lon="-20.2400341"><ele>37.7</ele><time>2012-07-26T21:51:14.0000000+00:00</time></trkpt><trkpt lat="63.7495842" lon="-20.2400341"><ele>37.7</ele><time>2012-07-26T21:51:19.0000000+00:00</time></trkpt><trkpt lat="63.7495842" lon="-20.2400341"><ele>37.7</ele><time>2012-07-26T21:51:24.0000000+00:00</time></trkpt><trkpt lat="63.7495842" lon="-20.2400341"><ele>37.7</ele><time>2012-07-26T21:51:29.0000000+00:00</time></trkpt><trkpt lat="63.7495842" lon="-20.2400341"><ele>37.7</ele><time>2012-07-26T21:51:34.0000000+00:00</time></trkpt><trkpt lat="63.7495842" lon="-20.2400341"><ele>37.7</ele><time>2012-07-26T21:51:39.0000000+00:00</time></trkpt><trkpt lat="63.7495842" lon="-20.2400341"><ele>37.7</ele><time>2012-07-26T21:51:44.0000000+00:00</time></trkpt><trkpt lat="63.7495842" lon="-20.2400341"><ele>37.7</ele><time>2012-07-26T21:51:49.0000000+00:00</time></trkpt><trkpt lat="63.7495842" lon="-20.2400341"><ele>37.7</ele><time>2012-07-26T21:51:54.0000000+00:00</time></trkpt><trkpt lat="63.7495842" lon="-20.2400341"><ele>37.7</ele><time>2012-07-26T21:51:59.0000000+00:00</time></trkpt><trkpt lat="63.7495842" lon="-20.2400341"><ele>37.7</ele><time>2012-07-26T21:52:04.0000000+00:00</time></trkpt><trkpt lat="63.7495842" lon="-20.2400341"><ele>37.7</ele><time>2012-07-26T21:52:09.0000000+00:00</time></trkpt><trkpt lat="63.7495842" lon="-20.24003601"><ele>37.6</ele><time>2012-07-26T21:52:14.0000000+00:00</time></trkpt><trkpt lat="63.7495842" lon="-20.24003601"><ele>37.6</ele><time>2012-07-26T21:52:19.0000000+00:00</time></trkpt><trkpt lat="63.7495842" lon="-20.24003601"><ele>37.6</ele><time>2012-07-26T21:52:24.0000000+00:00</time></trkpt><trkpt lat="63.7495842" lon="-20.24003601"><ele>37.6</ele><time>2012-07-26T21:52:29.0000000+00:00</time></trkpt><trkpt lat="63.7495842" lon="-20.24003601"><ele>37.6</ele><time>2012-07-26T21:52:34.0000000+00:00</time></trkpt><trkpt lat="63.7495842" lon="-20.24003601"><ele>37.6</ele><time>2012-07-26T21:52:39.0000000+00:00</time></trkpt><trkpt lat="63.7495842" lon="-20.24003601"><ele>37.6</ele><time>2012-07-26T21:52:44.0000000+00:00</time></trkpt><trkpt lat="63.7495842" lon="-20.24003601"><ele>37.6</ele><time>2012-07-26T21:52:49.0000000+00:00</time></trkpt><trkpt lat="63.7495842" lon="-20.24003601"><ele>37.6</ele><time>2012-07-26T21:52:54.0000000+00:00</time></trkpt><trkpt lat="63.7495842" lon="-20.24003601"><ele>37.6</ele><time>2012-07-26T21:52:59.0000000+00:00</time></trkpt><trkpt lat="63.7495842" lon="-20.24003601"><ele>37.6</ele><time>2012-07-26T21:53:04.0000000+00:00</time></trkpt><trkpt lat="63.7495842" lon="-20.24003601"><ele>37.6</ele><time>2012-07-26T21:53:09.0000000+00:00</time></trkpt><trkpt lat="63.7495842" lon="-20.24003601"><ele>37.6</ele><time>2012-07-26T21:53:14.0000000+00:00</time></trkpt><trkpt lat="63.7495842" lon="-20.24003601"><ele>37.6</ele><time>2012-07-26T21:53:19.0000000+00:00</time></trkpt><trkpt lat="63.7495842" lon="-20.24003601"><ele>37.6</ele><time>2012-07-26T21:53:24.0000000+00:00</time></trkpt><trkpt lat="63.7495842" lon="-20.24003601"><ele>37.5</ele><time>2012-07-26T21:53:29.0000000+00:00</time></trkpt><trkpt lat="63.7495842" lon="-20.24003792"><ele>37.5</ele><time>2012-07-26T21:53:34.0000000+00:00</time></trkpt><trkpt lat="63.7495842" lon="-20.24003792"><ele>37.5</ele><time>2012-07-26T21:53:39.0000000+00:00</time></trkpt><trkpt lat="63.7495842" lon="-20.24003792"><ele>37.5</ele><time>2012-07-26T21:53:44.0000000+00:00</time></trkpt><trkpt lat="63.7495842" lon="-20.24003792"><ele>37.5</ele><time>2012-07-26T21:53:49.0000000+00:00</time></trkpt><trkpt lat="63.7495842" lon="-20.24003792"><ele>37.5</ele><time>2012-07-26T21:53:54.0000000+00:00</time></trkpt><trkpt lat="63.7495842" lon="-20.24003792"><ele>37.5</ele><time>2012-07-26T21:53:59.0000000+00:00</time></trkpt><trkpt lat="63.7495842" lon="-20.24003601"><ele>37.5</ele><time>2012-07-26T21:54:04.0000000+00:00</time></trkpt><trkpt lat="63.7495842" lon="-20.24003601"><ele>37.5</ele><time>2012-07-26T21:54:09.0000000+00:00</time></trkpt><trkpt lat="63.7495842" lon="-20.24003601"><ele>37.5</ele><time>2012-07-26T21:54:14.0000000+00:00</time></trkpt><trkpt lat="63.7495842" lon="-20.24003601"><ele>37.4</ele><time>2012-07-26T21:54:19.0000000+00:00</time></trkpt><trkpt lat="63.7495842" lon="-20.24003601"><ele>37.4</ele><time>2012-07-26T21:54:24.0000000+00:00</time></trkpt><trkpt lat="63.7495842" lon="-20.24003601"><ele>37.4</ele><time>2012-07-26T21:54:29.0000000+00:00</time></trkpt><trkpt lat="63.7495842" lon="-20.24003601"><ele>37.4</ele><time>2012-07-26T21:54:34.0000000+00:00</time></trkpt><trkpt lat="63.7495842" lon="-20.24003601"><ele>37.4</ele><time>2012-07-26T21:54:39.0000000+00:00</time></trkpt><trkpt lat="63.7495842" lon="-20.24003601"><ele>37.4</ele><time>2012-07-26T21:54:44.0000000+00:00</time></trkpt><trkpt lat="63.7495842" lon="-20.24003601"><ele>37.4</ele><time>2012-07-26T21:54:49.0000000+00:00</time></trkpt><trkpt lat="63.7495842" lon="-20.24003601"><ele>37.4</ele><time>2012-07-26T21:54:54.0000000+00:00</time></trkpt><trkpt lat="63.7495842" lon="-20.24003601"><ele>37.4</ele><time>2012-07-26T21:54:59.0000000+00:00</time></trkpt><trkpt lat="63.74958038" lon="-20.24003601"><ele>37.4</ele><time>2012-07-26T21:55:04.0000000+00:00</time></trkpt><trkpt lat="63.74958038" lon="-20.24003601"><ele>37.4</ele><time>2012-07-26T21:55:09.0000000+00:00</time></trkpt><trkpt lat="63.74958038" lon="-20.24003601"><ele>37.4</ele><time>2012-07-26T21:55:14.0000000+00:00</time></trkpt><trkpt lat="63.74958038" lon="-20.24003601"><ele>37.4</ele><time>2012-07-26T21:55:19.0000000+00:00</time></trkpt><trkpt lat="63.74958038" lon="-20.24003601"><ele>37.3</ele><time>2012-07-26T21:55:24.0000000+00:00</time></trkpt><trkpt lat="63.74958038" lon="-20.24003601"><ele>37.3</ele><time>2012-07-26T21:55:29.0000000+00:00</time></trkpt><trkpt lat="63.74958038" lon="-20.24003601"><ele>37.3</ele><time>2012-07-26T21:55:34.0000000+00:00</time></trkpt><trkpt lat="63.74958038" lon="-20.24003601"><ele>37.3</ele><time>2012-07-26T21:55:39.0000000+00:00</time></trkpt><trkpt lat="63.74958038" lon="-20.24003601"><ele>37.3</ele><time>2012-07-26T21:55:44.0000000+00:00</time></trkpt><trkpt lat="63.74958038" lon="-20.24003601"><ele>37.3</ele><time>2012-07-26T21:55:49.0000000+00:00</time></trkpt><trkpt lat="63.74958038" lon="-20.24003601"><ele>37.3</ele><time>2012-07-26T21:55:54.0000000+00:00</time></trkpt><trkpt lat="63.74958038" lon="-20.24003601"><ele>37.3</ele><time>2012-07-26T21:55:59.0000000+00:00</time></trkpt><trkpt lat="63.74958038" lon="-20.24003601"><ele>37.3</ele><time>2012-07-26T21:56:04.0000000+00:00</time></trkpt><trkpt lat="63.74958038" lon="-20.24003792"><ele>37.3</ele><time>2012-07-26T21:56:09.0000000+00:00</time></trkpt><trkpt lat="63.74958038" lon="-20.24003792"><ele>37.3</ele><time>2012-07-26T21:56:14.0000000+00:00</time></trkpt><trkpt lat="63.74958038" lon="-20.24003792"><ele>37.3</ele><time>2012-07-26T21:56:19.0000000+00:00</time></trkpt><trkpt lat="63.74958038" lon="-20.24003792"><ele>37.3</ele><time>2012-07-26T21:56:24.0000000+00:00</time></trkpt><trkpt lat="63.74958038" lon="-20.24003792"><ele>37.2</ele><time>2012-07-26T21:56:29.0000000+00:00</time></trkpt><trkpt lat="63.74958038" lon="-20.24003792"><ele>37.2</ele><time>2012-07-26T21:56:34.0000000+00:00</time></trkpt><trkpt lat="63.74958038" lon="-20.24003792"><ele>37.2</ele><time>2012-07-26T21:56:39.0000000+00:00</time></trkpt><trkpt lat="63.74958038" lon="-20.24003792"><ele>37.2</ele><time>2012-07-26T21:56:44.0000000+00:00</time></trkpt><trkpt lat="63.74958038" lon="-20.24003792"><ele>37.2</ele><time>2012-07-26T21:56:49.0000000+00:00</time></trkpt><trkpt lat="63.74958038" lon="-20.24003792"><ele>37.2</ele><time>2012-07-26T21:56:54.0000000+00:00</time></trkpt><trkpt lat="63.74958038" lon="-20.24003792"><ele>37.2</ele><time>2012-07-26T21:56:59.0000000+00:00</time></trkpt><trkpt lat="63.74958038" lon="-20.24003792"><ele>37.2</ele><time>2012-07-26T21:57:04.0000000+00:00</time></trkpt><trkpt lat="63.74958038" lon="-20.24003792"><ele>37.2</ele><time>2012-07-26T21:57:09.0000000+00:00</time></trkpt><trkpt lat="63.74958038" lon="-20.24003792"><ele>37.2</ele><time>2012-07-26T21:57:14.0000000+00:00</time></trkpt><trkpt lat="63.74958038" lon="-20.24003792"><ele>37.2</ele><time>2012-07-26T21:57:19.0000000+00:00</time></trkpt><trkpt lat="63.74958038" lon="-20.24003792"><ele>37.2</ele><time>2012-07-26T21:57:24.0000000+00:00</time></trkpt><trkpt lat="63.74958038" lon="-20.24003792"><ele>37.2</ele><time>2012-07-26T21:57:29.0000000+00:00</time></trkpt><trkpt lat="63.74958038" lon="-20.24003792"><ele>37.2</ele><time>2012-07-26T21:57:34.0000000+00:00</time></trkpt><trkpt lat="63.74958038" lon="-20.24003792"><ele>37.2</ele><time>2012-07-26T21:57:39.0000000+00:00</time></trkpt><trkpt lat="63.74958038" lon="-20.24003792"><ele>37.2</ele><time>2012-07-26T21:57:44.0000000+00:00</time></trkpt><trkpt lat="63.74958038" lon="-20.24003792"><ele>37.2</ele><time>2012-07-26T21:57:49.0000000+00:00</time></trkpt><trkpt lat="63.74958038" lon="-20.24003792"><ele>37.2</ele><time>2012-07-26T21:57:54.0000000+00:00</time></trkpt><trkpt lat="63.74958038" lon="-20.24003792"><ele>37.2</ele><time>2012-07-26T21:57:59.0000000+00:00</time></trkpt><trkpt lat="63.74958038" lon="-20.24003792"><ele>37.2</ele><time>2012-07-26T21:58:04.0000000+00:00</time></trkpt><trkpt lat="63.74958038" lon="-20.24003792"><ele>37.2</ele><time>2012-07-26T21:58:09.0000000+00:00</time></trkpt><trkpt lat="63.74958038" lon="-20.24003792"><ele>37.2</ele><time>2012-07-26T21:58:14.0000000+00:00</time></trkpt><trkpt lat="63.74958038" lon="-20.24003792"><ele>37.1</ele><time>2012-07-26T21:58:19.0000000+00:00</time></trkpt><trkpt lat="63.74958038" lon="-20.24003792"><ele>37.1</ele><time>2012-07-26T21:58:24.0000000+00:00</time></trkpt><trkpt lat="63.74958038" lon="-20.24003792"><ele>37.1</ele><time>2012-07-26T21:58:29.0000000+00:00</time></trkpt><trkpt lat="63.74958038" lon="-20.24003792"><ele>37.1</ele><time>2012-07-26T21:58:34.0000000+00:00</time></trkpt><trkpt lat="63.74958038" lon="-20.24003792"><ele>37.1</ele><time>2012-07-26T21:58:39.0000000+00:00</time></trkpt><trkpt lat="63.74958038" lon="-20.24003792"><ele>37.2</ele><time>2012-07-26T21:58:44.0000000+00:00</time></trkpt><trkpt lat="63.74958038" lon="-20.24003792"><ele>37.1</ele><time>2012-07-26T21:58:49.0000000+00:00</time></trkpt><trkpt lat="63.74958038" lon="-20.24003792"><ele>37.1</ele><time>2012-07-26T21:58:54.0000000+00:00</time></trkpt><trkpt lat="63.74958038" lon="-20.24003792"><ele>37.2</ele><time>2012-07-26T21:58:59.0000000+00:00</time></trkpt><trkpt lat="63.74958038" lon="-20.24003792"><ele>37.2</ele><time>2012-07-26T21:59:04.0000000+00:00</time></trkpt><trkpt lat="63.74958038" lon="-20.24003792"><ele>37.2</ele><time>2012-07-26T21:59:09.0000000+00:00</time></trkpt><trkpt lat="63.74958038" lon="-20.24003792"><ele>37.2</ele><time>2012-07-26T21:59:14.0000000+00:00</time></trkpt><trkpt lat="63.74958038" lon="-20.24003792"><ele>37.2</ele><time>2012-07-26T21:59:19.0000000+00:00</time></trkpt><trkpt lat="63.74957657" lon="-20.24003792"><ele>37.2</ele><time>2012-07-26T21:59:24.0000000+00:00</time></trkpt><trkpt lat="63.74957657" lon="-20.24003792"><ele>37.2</ele><time>2012-07-26T21:59:29.0000000+00:00</time></trkpt><trkpt lat="63.74957657" lon="-20.24003792"><ele>37.2</ele><time>2012-07-26T21:59:34.0000000+00:00</time></trkpt><trkpt lat="63.74957657" lon="-20.24003792"><ele>37.2</ele><time>2012-07-26T21:59:39.0000000+00:00</time></trkpt><trkpt lat="63.74957657" lon="-20.24003792"><ele>37.2</ele><time>2012-07-26T21:59:44.0000000+00:00</time></trkpt><trkpt lat="63.74957657" lon="-20.24003792"><ele>37.2</ele><time>2012-07-26T21:59:49.0000000+00:00</time></trkpt><trkpt lat="63.74957657" lon="-20.24003792"><ele>37.2</ele><time>2012-07-26T21:59:54.0000000+00:00</time></trkpt><trkpt lat="63.74957657" lon="-20.24003792"><ele>37.2</ele><time>2012-07-26T21:59:59.0000000+00:00</time></trkpt><trkpt lat="63.74957657" lon="-20.24003792"><ele>37.2</ele><time>2012-07-26T22:00:04.0000000+00:00</time></trkpt><trkpt lat="63.74957657" lon="-20.24003792"><ele>37.2</ele><time>2012-07-26T22:00:09.0000000+00:00</time></trkpt><trkpt lat="63.74957657" lon="-20.24003792"><ele>37.2</ele><time>2012-07-26T22:00:14.0000000+00:00</time></trkpt><trkpt lat="63.74957657" lon="-20.24003601"><ele>37.1</ele><time>2012-07-26T22:00:19.0000000+00:00</time></trkpt><trkpt lat="63.74957657" lon="-20.24003601"><ele>37.1</ele><time>2012-07-26T22:00:24.0000000+00:00</time></trkpt><trkpt lat="63.74957657" lon="-20.24003601"><ele>37.1</ele><time>2012-07-26T22:00:29.0000000+00:00</time></trkpt><trkpt lat="63.74957657" lon="-20.24003601"><ele>37.1</ele><time>2012-07-26T22:00:34.0000000+00:00</time></trkpt><trkpt lat="63.74957657" lon="-20.24003601"><ele>37.1</ele><time>2012-07-26T22:00:39.0000000+00:00</time></trkpt><trkpt lat="63.74957657" lon="-20.24003601"><ele>37.1</ele><time>2012-07-26T22:00:44.0000000+00:00</time></trkpt><trkpt lat="63.74957657" lon="-20.24003601"><ele>37.1</ele><time>2012-07-26T22:00:49.0000000+00:00</time></trkpt><trkpt lat="63.74957657" lon="-20.24003601"><ele>37.1</ele><time>2012-07-26T22:00:54.0000000+00:00</time></trkpt><trkpt lat="63.74957657" lon="-20.24003601"><ele>37.1</ele><time>2012-07-26T22:00:59.0000000+00:00</time></trkpt><trkpt lat="63.74957657" lon="-20.24003792"><ele>37.1</ele><time>2012-07-26T22:01:04.0000000+00:00</time></trkpt><trkpt lat="63.74957657" lon="-20.24003792"><ele>37.0</ele><time>2012-07-26T22:01:09.0000000+00:00</time></trkpt><trkpt lat="63.74957657" lon="-20.24003792"><ele>37.0</ele><time>2012-07-26T22:01:14.0000000+00:00</time></trkpt><trkpt lat="63.74957657" lon="-20.24003792"><ele>37.0</ele><time>2012-07-26T22:01:19.0000000+00:00</time></trkpt><trkpt lat="63.74957657" lon="-20.24003792"><ele>37.0</ele><time>2012-07-26T22:01:24.0000000+00:00</time></trkpt><trkpt lat="63.74957657" lon="-20.24003792"><ele>37.0</ele><time>2012-07-26T22:01:29.0000000+00:00</time></trkpt><trkpt lat="63.74957657" lon="-20.24003792"><ele>37.0</ele><time>2012-07-26T22:01:34.0000000+00:00</time></trkpt><trkpt lat="63.74957657" lon="-20.24003792"><ele>37.0</ele><time>2012-07-26T22:01:39.0000000+00:00</time></trkpt><trkpt lat="63.74957657" lon="-20.24003792"><ele>36.9</ele><time>2012-07-26T22:01:44.0000000+00:00</time></trkpt><trkpt lat="63.74957657" lon="-20.24003792"><ele>36.9</ele><time>2012-07-26T22:01:49.0000000+00:00</time></trkpt><trkpt lat="63.74957657" lon="-20.24003792"><ele>36.9</ele><time>2012-07-26T22:01:54.0000000+00:00</time></trkpt><trkpt lat="63.74957657" lon="-20.24003792"><ele>36.9</ele><time>2012-07-26T22:01:59.0000000+00:00</time></trkpt><trkpt lat="63.74957657" lon="-20.24003792"><ele>36.9</ele><time>2012-07-26T22:02:04.0000000+00:00</time></trkpt><trkpt lat="63.74957657" lon="-20.24003601"><ele>36.9</ele><time>2012-07-26T22:02:09.0000000+00:00</time></trkpt><trkpt lat="63.74957657" lon="-20.24003601"><ele>36.9</ele><time>2012-07-26T22:02:14.0000000+00:00</time></trkpt><trkpt lat="63.74957657" lon="-20.24003601"><ele>36.8</ele><time>2012-07-26T22:02:19.0000000+00:00</time></trkpt><trkpt lat="63.74957657" lon="-20.24003601"><ele>36.8</ele><time>2012-07-26T22:02:24.0000000+00:00</time></trkpt><trkpt lat="63.74957657" lon="-20.24003601"><ele>36.8</ele><time>2012-07-26T22:02:29.0000000+00:00</time></trkpt><trkpt lat="63.74957657" lon="-20.24003601"><ele>36.8</ele><time>2012-07-26T22:02:34.0000000+00:00</time></trkpt><trkpt lat="63.74957657" lon="-20.24003601"><ele>36.8</ele><time>2012-07-26T22:02:39.0000000+00:00</time></trkpt><trkpt lat="63.74957657" lon="-20.24003601"><ele>36.8</ele><time>2012-07-26T22:02:44.0000000+00:00</time></trkpt><trkpt lat="63.74957657" lon="-20.2400341"><ele>36.8</ele><time>2012-07-26T22:02:49.0000000+00:00</time></trkpt><trkpt lat="63.74957657" lon="-20.2400341"><ele>36.8</ele><time>2012-07-26T22:02:54.0000000+00:00</time></trkpt><trkpt lat="63.74957657" lon="-20.2400341"><ele>36.8</ele><time>2012-07-26T22:02:59.0000000+00:00</time></trkpt><trkpt lat="63.74957657" lon="-20.2400341"><ele>36.8</ele><time>2012-07-26T22:03:04.0000000+00:00</time></trkpt><trkpt lat="63.74957657" lon="-20.2400341"><ele>36.8</ele><time>2012-07-26T22:03:09.0000000+00:00</time></trkpt><trkpt lat="63.74957657" lon="-20.2400341"><ele>36.8</ele><time>2012-07-26T22:03:14.0000000+00:00</time></trkpt><trkpt lat="63.74957657" lon="-20.2400341"><ele>36.8</ele><time>2012-07-26T22:03:19.0000000+00:00</time></trkpt><trkpt lat="63.74957657" lon="-20.2400322"><ele>36.8</ele><time>2012-07-26T22:03:24.0000000+00:00</time></trkpt><trkpt lat="63.74957657" lon="-20.2400322"><ele>36.8</ele><time>2012-07-26T22:03:29.0000000+00:00</time></trkpt><trkpt lat="63.74957657" lon="-20.2400322"><ele>36.8</ele><time>2012-07-26T22:03:34.0000000+00:00</time></trkpt><trkpt lat="63.74957657" lon="-20.2400322"><ele>36.8</ele><time>2012-07-26T22:03:39.0000000+00:00</time></trkpt><trkpt lat="63.74957657" lon="-20.2400322"><ele>36.8</ele><time>2012-07-26T22:03:44.0000000+00:00</time></trkpt><trkpt lat="63.74957657" lon="-20.2400322"><ele>36.8</ele><time>2012-07-26T22:03:49.0000000+00:00</time></trkpt><trkpt lat="63.74957657" lon="-20.2400322"><ele>36.7</ele><time>2012-07-26T22:03:54.0000000+00:00</time></trkpt><trkpt lat="63.74957657" lon="-20.2400322"><ele>36.7</ele><time>2012-07-26T22:03:59.0000000+00:00</time></trkpt><trkpt lat="63.74957657" lon="-20.2400322"><ele>36.7</ele><time>2012-07-26T22:04:04.0000000+00:00</time></trkpt><trkpt lat="63.74957657" lon="-20.2400322"><ele>36.7</ele><time>2012-07-26T22:04:09.0000000+00:00</time></trkpt><trkpt lat="63.74957657" lon="-20.2400322"><ele>36.7</ele><time>2012-07-26T22:04:14.0000000+00:00</time></trkpt><trkpt lat="63.74957657" lon="-20.24003029"><ele>36.7</ele><time>2012-07-26T22:04:19.0000000+00:00</time></trkpt><trkpt lat="63.74957657" lon="-20.24003029"><ele>36.7</ele><time>2012-07-26T22:04:24.0000000+00:00</time></trkpt><trkpt lat="63.74957657" lon="-20.24003029"><ele>36.7</ele><time>2012-07-26T22:04:29.0000000+00:00</time></trkpt><trkpt lat="63.74957657" lon="-20.24003029"><ele>36.7</ele><time>2012-07-26T22:04:34.0000000+00:00</time></trkpt><trkpt lat="63.74957657" lon="-20.24003029"><ele>36.7</ele><time>2012-07-26T22:04:39.0000000+00:00</time></trkpt><trkpt lat="63.74957275" lon="-20.24003029"><ele>36.8</ele><time>2012-07-26T22:04:44.0000000+00:00</time></trkpt><trkpt lat="63.74957275" lon="-20.24003029"><ele>36.7</ele><time>2012-07-26T22:04:49.0000000+00:00</time></trkpt><trkpt lat="63.74957275" lon="-20.24003029"><ele>36.8</ele><time>2012-07-26T22:04:54.0000000+00:00</time></trkpt><trkpt lat="63.74957275" lon="-20.24003029"><ele>36.8</ele><time>2012-07-26T22:04:59.0000000+00:00</time></trkpt><trkpt lat="63.74957275" lon="-20.24003029"><ele>36.7</ele><time>2012-07-26T22:05:04.0000000+00:00</time></trkpt><trkpt lat="63.74957275" lon="-20.24003029"><ele>36.7</ele><time>2012-07-26T22:05:09.0000000+00:00</time></trkpt><trkpt lat="63.74957275" lon="-20.24003029"><ele>36.7</ele><time>2012-07-26T22:05:14.0000000+00:00</time></trkpt><trkpt lat="63.74957275" lon="-20.24003029"><ele>36.7</ele><time>2012-07-26T22:05:19.0000000+00:00</time></trkpt><trkpt lat="63.74957275" lon="-20.24002838"><ele>36.7</ele><time>2012-07-26T22:05:24.0000000+00:00</time></trkpt><trkpt lat="63.74957275" lon="-20.24002838"><ele>36.7</ele><time>2012-07-26T22:05:29.0000000+00:00</time></trkpt><trkpt lat="63.74957275" lon="-20.24002838"><ele>36.7</ele><time>2012-07-26T22:05:34.0000000+00:00</time></trkpt><trkpt lat="63.74957275" lon="-20.24002838"><ele>36.7</ele><time>2012-07-26T22:05:39.0000000+00:00</time></trkpt><trkpt lat="63.74957275" lon="-20.24002838"><ele>36.7</ele><time>2012-07-26T22:05:44.0000000+00:00</time></trkpt><trkpt lat="63.74957275" lon="-20.24002838"><ele>36.7</ele><time>2012-07-26T22:05:49.0000000+00:00</time></trkpt><trkpt lat="63.74957275" lon="-20.24002838"><ele>36.7</ele><time>2012-07-26T22:05:54.0000000+00:00</time></trkpt><trkpt lat="63.74957275" lon="-20.24002838"><ele>36.7</ele><time>2012-07-26T22:05:59.0000000+00:00</time></trkpt><trkpt lat="63.74957275" lon="-20.24002838"><ele>36.7</ele><time>2012-07-26T22:06:04.0000000+00:00</time></trkpt><trkpt lat="63.74957275" lon="-20.24002838"><ele>36.7</ele><time>2012-07-26T22:06:09.0000000+00:00</time></trkpt><trkpt lat="63.74957275" lon="-20.24002838"><ele>36.7</ele><time>2012-07-26T22:06:14.0000000+00:00</time></trkpt><trkpt lat="63.74957275" lon="-20.24002838"><ele>36.7</ele><time>2012-07-26T22:06:19.0000000+00:00</time></trkpt><trkpt lat="63.74957275" lon="-20.24002647"><ele>36.7</ele><time>2012-07-26T22:06:24.0000000+00:00</time></trkpt><trkpt lat="63.74957275" lon="-20.24002647"><ele>36.7</ele><time>2012-07-26T22:06:29.0000000+00:00</time></trkpt><trkpt lat="63.74957275" lon="-20.24002647"><ele>36.7</ele><time>2012-07-26T22:06:34.0000000+00:00</time></trkpt><trkpt lat="63.74957275" lon="-20.24002647"><ele>36.7</ele><time>2012-07-26T22:06:39.0000000+00:00</time></trkpt><trkpt lat="63.74957275" lon="-20.24002647"><ele>36.7</ele><time>2012-07-26T22:06:44.0000000+00:00</time></trkpt><trkpt lat="63.74957275" lon="-20.24002647"><ele>36.7</ele><time>2012-07-26T22:06:49.0000000+00:00</time></trkpt><trkpt lat="63.74957275" lon="-20.24002647"><ele>36.7</ele><time>2012-07-26T22:06:54.0000000+00:00</time></trkpt><trkpt lat="63.74957275" lon="-20.24002457"><ele>36.7</ele><time>2012-07-26T22:06:59.0000000+00:00</time></trkpt><trkpt lat="63.74957275" lon="-20.24002457"><ele>36.7</ele><time>2012-07-26T22:07:04.0000000+00:00</time></trkpt><trkpt lat="63.74957275" lon="-20.24002457"><ele>36.7</ele><time>2012-07-26T22:07:09.0000000+00:00</time></trkpt><trkpt lat="63.74957275" lon="-20.24002457"><ele>36.7</ele><time>2012-07-26T22:07:14.0000000+00:00</time></trkpt><trkpt lat="63.74957275" lon="-20.24002457"><ele>36.7</ele><time>2012-07-26T22:07:19.0000000+00:00</time></trkpt><trkpt lat="63.74957275" lon="-20.24002457"><ele>36.7</ele><time>2012-07-26T22:07:24.0000000+00:00</time></trkpt><trkpt lat="63.74957275" lon="-20.24002266"><ele>36.7</ele><time>2012-07-26T22:07:29.0000000+00:00</time></trkpt><trkpt lat="63.74957275" lon="-20.24002266"><ele>36.7</ele><time>2012-07-26T22:07:34.0000000+00:00</time></trkpt><trkpt lat="63.74957275" lon="-20.24002266"><ele>36.7</ele><time>2012-07-26T22:07:39.0000000+00:00</time></trkpt><trkpt lat="63.74957275" lon="-20.24002266"><ele>36.7</ele><time>2012-07-26T22:07:44.0000000+00:00</time></trkpt><trkpt lat="63.74957275" lon="-20.24002075"><ele>36.7</ele><time>2012-07-26T22:07:49.0000000+00:00</time></trkpt><trkpt lat="63.74957275" lon="-20.24002075"><ele>36.7</ele><time>2012-07-26T22:07:54.0000000+00:00</time></trkpt><trkpt lat="63.74957275" lon="-20.24002075"><ele>36.7</ele><time>2012-07-26T22:07:59.0000000+00:00</time></trkpt><trkpt lat="63.74956894" lon="-20.24002075"><ele>36.7</ele><time>2012-07-26T22:08:04.0000000+00:00</time></trkpt><trkpt lat="63.74956894" lon="-20.24002075"><ele>36.8</ele><time>2012-07-26T22:08:09.0000000+00:00</time></trkpt><trkpt lat="63.74956894" lon="-20.24002075"><ele>36.8</ele><time>2012-07-26T22:08:14.0000000+00:00</time></trkpt><trkpt lat="63.74956894" lon="-20.24001885"><ele>36.8</ele><time>2012-07-26T22:08:19.0000000+00:00</time></trkpt><trkpt lat="63.74956894" lon="-20.24001885"><ele>36.8</ele><time>2012-07-26T22:08:24.0000000+00:00</time></trkpt><trkpt lat="63.74956894" lon="-20.24001885"><ele>36.8</ele><time>2012-07-26T22:08:29.0000000+00:00</time></trkpt><trkpt lat="63.74956894" lon="-20.24001885"><ele>36.8</ele><time>2012-07-26T22:08:34.0000000+00:00</time></trkpt><trkpt lat="63.74956894" lon="-20.24001885"><ele>36.8</ele><time>2012-07-26T22:08:39.0000000+00:00</time></trkpt><trkpt lat="63.74956894" lon="-20.24001885"><ele>36.8</ele><time>2012-07-26T22:08:44.0000000+00:00</time></trkpt><trkpt lat="63.74956894" lon="-20.24001885"><ele>36.8</ele><time>2012-07-26T22:08:49.0000000+00:00</time></trkpt><trkpt lat="63.74956894" lon="-20.24001694"><ele>36.8</ele><time>2012-07-26T22:08:54.0000000+00:00</time></trkpt><trkpt lat="63.74956894" lon="-20.24001694"><ele>36.8</ele><time>2012-07-26T22:08:59.0000000+00:00</time></trkpt><trkpt lat="63.74956894" lon="-20.24001694"><ele>36.8</ele><time>2012-07-26T22:09:04.0000000+00:00</time></trkpt><trkpt lat="63.74956894" lon="-20.24001694"><ele>36.8</ele><time>2012-07-26T22:09:09.0000000+00:00</time></trkpt><trkpt lat="63.74956894" lon="-20.24001694"><ele>36.8</ele><time>2012-07-26T22:09:14.0000000+00:00</time></trkpt><trkpt lat="63.74956894" lon="-20.24001694"><ele>36.8</ele><time>2012-07-26T22:09:19.0000000+00:00</time></trkpt><trkpt lat="63.74956894" lon="-20.24001503"><ele>36.9</ele><time>2012-07-26T22:09:24.0000000+00:00</time></trkpt><trkpt lat="63.74956894" lon="-20.24001503"><ele>36.9</ele><time>2012-07-26T22:09:29.0000000+00:00</time></trkpt><trkpt lat="63.74956894" lon="-20.24001503"><ele>36.9</ele><time>2012-07-26T22:09:34.0000000+00:00</time></trkpt><trkpt lat="63.74956894" lon="-20.24001503"><ele>36.9</ele><time>2012-07-26T22:09:39.0000000+00:00</time></trkpt><trkpt lat="63.74956894" lon="-20.24001503"><ele>36.9</ele><time>2012-07-26T22:09:44.0000000+00:00</time></trkpt><trkpt lat="63.74956894" lon="-20.24001503"><ele>36.9</ele><time>2012-07-26T22:09:49.0000000+00:00</time></trkpt><trkpt lat="63.74956894" lon="-20.24001503"><ele>36.9</ele><time>2012-07-26T22:09:54.0000000+00:00</time></trkpt><trkpt lat="63.74956894" lon="-20.24001503"><ele>36.9</ele><time>2012-07-26T22:09:59.0000000+00:00</time></trkpt><trkpt lat="63.74956894" lon="-20.24001503"><ele>36.9</ele><time>2012-07-26T22:10:04.0000000+00:00</time></trkpt><trkpt lat="63.74956894" lon="-20.24001503"><ele>36.9</ele><time>2012-07-26T22:10:09.0000000+00:00</time></trkpt><trkpt lat="63.74956894" lon="-20.24001503"><ele>36.9</ele><time>2012-07-26T22:10:14.0000000+00:00</time></trkpt><trkpt lat="63.74956894" lon="-20.24001312"><ele>36.9</ele><time>2012-07-26T22:10:19.0000000+00:00</time></trkpt><trkpt lat="63.74956894" lon="-20.24001312"><ele>36.9</ele><time>2012-07-26T22:10:24.0000000+00:00</time></trkpt><trkpt lat="63.74956513" lon="-20.24001312"><ele>36.9</ele><time>2012-07-26T22:10:29.0000000+00:00</time></trkpt><trkpt lat="63.74956513" lon="-20.24001312"><ele>36.9</ele><time>2012-07-26T22:10:34.0000000+00:00</time></trkpt><trkpt lat="63.74956513" lon="-20.24001312"><ele>36.9</ele><time>2012-07-26T22:10:39.0000000+00:00</time></trkpt><trkpt lat="63.74956513" lon="-20.24001312"><ele>36.9</ele><time>2012-07-26T22:10:44.0000000+00:00</time></trkpt><trkpt lat="63.74956513" lon="-20.24001312"><ele>36.9</ele><time>2012-07-26T22:10:49.0000000+00:00</time></trkpt><trkpt lat="63.74956513" lon="-20.24001312"><ele>36.9</ele><time>2012-07-26T22:10:54.0000000+00:00</time></trkpt><trkpt lat="63.74956513" lon="-20.24001312"><ele>36.9</ele><time>2012-07-26T22:10:59.0000000+00:00</time></trkpt><trkpt lat="63.74956513" lon="-20.24001122"><ele>36.9</ele><time>2012-07-26T22:11:04.0000000+00:00</time></trkpt><trkpt lat="63.74956513" lon="-20.24001122"><ele>37.0</ele><time>2012-07-26T22:11:09.0000000+00:00</time></trkpt><trkpt lat="63.74956513" lon="-20.24001122"><ele>37.0</ele><time>2012-07-26T22:11:14.0000000+00:00</time></trkpt><trkpt lat="63.74956513" lon="-20.24001122"><ele>37.0</ele><time>2012-07-26T22:11:19.0000000+00:00</time></trkpt><trkpt lat="63.74956513" lon="-20.24001122"><ele>37.0</ele><time>2012-07-26T22:11:24.0000000+00:00</time></trkpt><trkpt lat="63.74956513" lon="-20.24001122"><ele>37.0</ele><time>2012-07-26T22:11:29.0000000+00:00</time></trkpt><trkpt lat="63.74956513" lon="-20.24001122"><ele>37.0</ele><time>2012-07-26T22:11:34.0000000+00:00</time></trkpt><trkpt lat="63.74956513" lon="-20.24001122"><ele>37.0</ele><time>2012-07-26T22:11:39.0000000+00:00</time></trkpt><trkpt lat="63.74956513" lon="-20.24001122"><ele>37.0</ele><time>2012-07-26T22:11:44.0000000+00:00</time></trkpt><trkpt lat="63.74956513" lon="-20.24001122"><ele>37.0</ele><time>2012-07-26T22:11:49.0000000+00:00</time></trkpt><trkpt lat="63.74956513" lon="-20.24001122"><ele>37.0</ele><time>2012-07-26T22:11:54.0000000+00:00</time></trkpt><trkpt lat="63.74956513" lon="-20.24000931"><ele>37.0</ele><time>2012-07-26T22:11:59.0000000+00:00</time></trkpt><trkpt lat="63.74956513" lon="-20.24000931"><ele>37.0</ele><time>2012-07-26T22:12:04.0000000+00:00</time></trkpt><trkpt lat="63.74956513" lon="-20.24000931"><ele>37.0</ele><time>2012-07-26T22:12:09.0000000+00:00</time></trkpt><trkpt lat="63.74956513" lon="-20.24000931"><ele>37.0</ele><time>2012-07-26T22:12:14.0000000+00:00</time></trkpt><trkpt lat="63.74956513" lon="-20.24000931"><ele>37.0</ele><time>2012-07-26T22:12:19.0000000+00:00</time></trkpt><trkpt lat="63.74956513" lon="-20.24000931"><ele>37.0</ele><time>2012-07-26T22:12:24.0000000+00:00</time></trkpt><trkpt lat="63.74956513" lon="-20.24000931"><ele>37.0</ele><time>2012-07-26T22:12:29.0000000+00:00</time></trkpt><trkpt lat="63.74956513" lon="-20.24000931"><ele>37.0</ele><time>2012-07-26T22:12:34.0000000+00:00</time></trkpt><trkpt lat="63.74956513" lon="-20.24000931"><ele>37.0</ele><time>2012-07-26T22:12:39.0000000+00:00</time></trkpt><trkpt lat="63.74956513" lon="-20.24000931"><ele>37.0</ele><time>2012-07-26T22:12:44.0000000+00:00</time></trkpt><trkpt lat="63.74956513" lon="-20.24000931"><ele>37.0</ele><time>2012-07-26T22:12:49.0000000+00:00</time></trkpt><trkpt lat="63.74956513" lon="-20.24000931"><ele>37.0</ele><time>2012-07-26T22:12:54.0000000+00:00</time></trkpt></trkseg><trkseg><trkpt lat="63.74957275" lon="-20.24004173"><ele>12.0</ele><time>2012-07-27T10:48:28.0000000+00:00</time></trkpt><trkpt lat="63.74961853" lon="-20.24007416"><ele>30.6</ele><time>2012-07-27T10:48:33.0000000+00:00</time></trkpt><trkpt lat="63.74961853" lon="-20.24008369"><ele>34.2</ele><time>2012-07-27T10:48:38.0000000+00:00</time></trkpt><trkpt lat="63.74964905" lon="-20.24011231"><ele>34.5</ele><time>2012-07-27T10:48:43.0000000+00:00</time></trkpt><trkpt lat="63.74964142" lon="-20.24009705"><ele>31.5</ele><time>2012-07-27T10:48:48.0000000+00:00</time></trkpt><trkpt lat="63.7496376" lon="-20.24009514"><ele>30.9</ele><time>2012-07-27T10:48:53.0000000+00:00</time></trkpt><trkpt lat="63.74964905" lon="-20.24010277"><ele>28.8</ele><time>2012-07-27T10:48:58.0000000+00:00</time></trkpt><trkpt lat="63.74965286" lon="-20.24009705"><ele>27.5</ele><time>2012-07-27T10:49:03.0000000+00:00</time></trkpt><trkpt lat="63.74965286" lon="-20.24009705"><ele>27.5</ele><time>2012-07-27T10:49:08.0000000+00:00</time></trkpt><trkpt lat="63.74965286" lon="-20.24009705"><ele>27.4</ele><time>2012-07-27T10:49:13.0000000+00:00</time></trkpt><trkpt lat="63.74965286" lon="-20.24009705"><ele>27.3</ele><time>2012-07-27T10:49:18.0000000+00:00</time></trkpt><trkpt lat="63.74965286" lon="-20.24009705"><ele>27.3</ele><time>2012-07-27T10:49:23.0000000+00:00</time></trkpt><trkpt lat="63.74965286" lon="-20.24009705"><ele>27.3</ele><time>2012-07-27T10:49:28.0000000+00:00</time></trkpt><trkpt lat="63.74965286" lon="-20.24009705"><ele>27.3</ele><time>2012-07-27T10:49:33.0000000+00:00</time></trkpt><trkpt lat="63.74965286" lon="-20.24009705"><ele>27.3</ele><time>2012-07-27T10:49:38.0000000+00:00</time></trkpt><trkpt lat="63.74965286" lon="-20.24009705"><ele>27.3</ele><time>2012-07-27T10:49:43.0000000+00:00</time></trkpt><trkpt lat="63.74965668" lon="-20.24009514"><ele>27.3</ele><time>2012-07-27T10:49:48.0000000+00:00</time></trkpt><trkpt lat="63.74965668" lon="-20.24009514"><ele>27.4</ele><time>2012-07-27T10:49:53.0000000+00:00</time></trkpt><trkpt lat="63.74965668" lon="-20.24009514"><ele>27.4</ele><time>2012-07-27T10:49:58.0000000+00:00</time></trkpt><trkpt lat="63.74965668" lon="-20.24009514"><ele>27.4</ele><time>2012-07-27T10:50:03.0000000+00:00</time></trkpt><trkpt lat="63.74965286" lon="-20.24009323"><ele>27.3</ele><time>2012-07-27T10:50:08.0000000+00:00</time></trkpt><trkpt lat="63.74965286" lon="-20.24009514"><ele>27.3</ele><time>2012-07-27T10:50:13.0000000+00:00</time></trkpt><trkpt lat="63.74965286" lon="-20.24009514"><ele>27.2</ele><time>2012-07-27T10:50:18.0000000+00:00</time></trkpt><trkpt lat="63.74965286" lon="-20.24009132"><ele>27.2</ele><time>2012-07-27T10:50:23.0000000+00:00</time></trkpt><trkpt lat="63.74965286" lon="-20.24009132"><ele>27.2</ele><time>2012-07-27T10:50:28.0000000+00:00</time></trkpt><trkpt lat="63.74964905" lon="-20.24009132"><ele>27.1</ele><time>2012-07-27T10:50:33.0000000+00:00</time></trkpt><trkpt lat="63.74964905" lon="-20.24008942"><ele>27.0</ele><time>2012-07-27T10:50:38.0000000+00:00</time></trkpt><trkpt lat="63.74964905" lon="-20.24008942"><ele>26.9</ele><time>2012-07-27T10:50:43.0000000+00:00</time></trkpt><trkpt lat="63.74964905" lon="-20.24008942"><ele>26.8</ele><time>2012-07-27T10:50:48.0000000+00:00</time></trkpt><trkpt lat="63.74964905" lon="-20.24008942"><ele>26.8</ele><time>2012-07-27T10:50:53.0000000+00:00</time></trkpt><trkpt lat="63.74964905" lon="-20.24008942"><ele>26.7</ele><time>2012-07-27T10:50:58.0000000+00:00</time></trkpt><trkpt lat="63.74964905" lon="-20.24008751"><ele>26.6</ele><time>2012-07-27T10:51:03.0000000+00:00</time></trkpt><trkpt lat="63.74964523" lon="-20.2400856"><ele>26.6</ele><time>2012-07-27T10:51:08.0000000+00:00</time></trkpt><trkpt lat="63.74964142" lon="-20.24008369"><ele>26.5</ele><time>2012-07-27T10:51:13.0000000+00:00</time></trkpt><trkpt lat="63.7496376" lon="-20.24008179"><ele>26.5</ele><time>2012-07-27T10:51:18.0000000+00:00</time></trkpt><trkpt lat="63.7496376" lon="-20.24008179"><ele>26.6</ele><time>2012-07-27T10:51:23.0000000+00:00</time></trkpt><trkpt lat="63.7496376" lon="-20.24008179"><ele>26.6</ele><time>2012-07-27T10:51:28.0000000+00:00</time></trkpt><trkpt lat="63.74964142" lon="-20.24008179"><ele>26.6</ele><time>2012-07-27T10:51:33.0000000+00:00</time></trkpt><trkpt lat="63.7496376" lon="-20.24007607"><ele>26.4</ele><time>2012-07-27T10:51:38.0000000+00:00</time></trkpt><trkpt lat="63.7496376" lon="-20.24007797"><ele>26.1</ele><time>2012-07-27T10:51:43.0000000+00:00</time></trkpt><trkpt lat="63.7496376" lon="-20.24007797"><ele>26.0</ele><time>2012-07-27T10:51:48.0000000+00:00</time></trkpt><trkpt lat="63.74963379" lon="-20.24007225"><ele>25.9</ele><time>2012-07-27T10:51:53.0000000+00:00</time></trkpt><trkpt lat="63.74962997" lon="-20.24007034"><ele>25.9</ele><time>2012-07-27T10:51:58.0000000+00:00</time></trkpt><trkpt lat="63.74962997" lon="-20.24007034"><ele>25.9</ele><time>2012-07-27T10:52:03.0000000+00:00</time></trkpt><trkpt lat="63.74962997" lon="-20.24007034"><ele>25.9</ele><time>2012-07-27T10:52:08.0000000+00:00</time></trkpt><trkpt lat="63.74962616" lon="-20.24006653"><ele>26.0</ele><time>2012-07-27T10:52:13.0000000+00:00</time></trkpt><trkpt lat="63.74962235" lon="-20.24006271"><ele>26.1</ele><time>2012-07-27T10:52:18.0000000+00:00</time></trkpt><trkpt lat="63.74961853" lon="-20.2400589"><ele>26.3</ele><time>2012-07-27T10:52:23.0000000+00:00</time></trkpt><trkpt lat="63.74961472" lon="-20.24005508"><ele>26.3</ele><time>2012-07-27T10:52:28.0000000+00:00</time></trkpt><trkpt lat="63.7496109" lon="-20.24005318"><ele>26.4</ele><time>2012-07-27T10:52:33.0000000+00:00</time></trkpt><trkpt lat="63.7496109" lon="-20.24004746"><ele>26.6</ele><time>2012-07-27T10:52:38.0000000+00:00</time></trkpt><trkpt lat="63.74960709" lon="-20.24004555"><ele>26.6</ele><time>2012-07-27T10:52:43.0000000+00:00</time></trkpt><trkpt lat="63.74960709" lon="-20.24004555"><ele>26.6</ele><time>2012-07-27T10:52:48.0000000+00:00</time></trkpt><trkpt lat="63.7496109" lon="-20.24004555"><ele>26.5</ele><time>2012-07-27T10:52:53.0000000+00:00</time></trkpt><trkpt lat="63.74960709" lon="-20.24002266"><ele>26.2</ele><time>2012-07-27T10:52:58.0000000+00:00</time></trkpt><trkpt lat="63.74957275" lon="-20.24003983"><ele>26.1</ele><time>2012-07-27T10:53:03.0000000+00:00</time></trkpt><trkpt lat="63.7495575" lon="-20.24002266"><ele>26.1</ele><time>2012-07-27T10:53:08.0000000+00:00</time></trkpt><trkpt lat="63.74954224" lon="-20.24002266"><ele>26.5</ele><time>2012-07-27T10:53:13.0000000+00:00</time></trkpt><trkpt lat="63.74953842" lon="-20.24002838"><ele>26.3</ele><time>2012-07-27T10:53:18.0000000+00:00</time></trkpt><trkpt lat="63.74956894" lon="-20.24001122"><ele>24.5</ele><time>2012-07-27T10:53:23.0000000+00:00</time></trkpt><trkpt lat="63.74962997" lon="-20.23987389"><ele>23.4</ele><time>2012-07-27T10:53:28.0000000+00:00</time></trkpt><trkpt lat="63.74967575" lon="-20.23973274"><ele>22.5</ele><time>2012-07-27T10:53:33.0000000+00:00</time></trkpt><trkpt lat="63.74970627" lon="-20.23958206"><ele>21.4</ele><time>2012-07-27T10:53:38.0000000+00:00</time></trkpt><trkpt lat="63.74973297" lon="-20.23940086"><ele>19.4</ele><time>2012-07-27T10:53:43.0000000+00:00</time></trkpt><trkpt lat="63.74975205" lon="-20.23919106"><ele>17.2</ele><time>2012-07-27T10:53:48.0000000+00:00</time></trkpt><trkpt lat="63.74978256" lon="-20.23891068"><ele>16.7</ele><time>2012-07-27T10:53:53.0000000+00:00</time></trkpt><trkpt lat="63.74983215" lon="-20.23867416"><ele>14.0</ele><time>2012-07-27T10:53:58.0000000+00:00</time></trkpt><trkpt lat="63.74993134" lon="-20.23869515"><ele>10.9</ele><time>2012-07-27T10:54:03.0000000+00:00</time></trkpt><trkpt lat="63.75004959" lon="-20.23887062"><ele>10.6</ele><time>2012-07-27T10:54:08.0000000+00:00</time></trkpt><trkpt lat="63.75017548" lon="-20.23898888"><ele>11.7</ele><time>2012-07-27T10:54:13.0000000+00:00</time></trkpt><trkpt lat="63.75021362" lon="-20.23889542"><ele>11.8</ele><time>2012-07-27T10:54:18.0000000+00:00</time></trkpt><trkpt lat="63.75024414" lon="-20.23871613"><ele>10.2</ele><time>2012-07-27T10:54:23.0000000+00:00</time></trkpt><trkpt lat="63.75026321" lon="-20.23846817"><ele>8.7</ele><time>2012-07-27T10:54:28.0000000+00:00</time></trkpt><trkpt lat="63.75028992" lon="-20.23817825"><ele>5.8</ele><time>2012-07-27T10:54:33.0000000+00:00</time></trkpt><trkpt lat="63.75032806" lon="-20.23789024"><ele>2.1</ele><time>2012-07-27T10:54:38.0000000+00:00</time></trkpt><trkpt lat="63.7503624" lon="-20.23756981"><ele>-2.1</ele><time>2012-07-27T10:54:43.0000000+00:00</time></trkpt><trkpt lat="63.75040054" lon="-20.23724747"><ele>-8.1</ele><time>2012-07-27T10:54:48.0000000+00:00</time></trkpt><trkpt lat="63.75048828" lon="-20.23697281"><ele>-7.8</ele><time>2012-07-27T10:54:53.0000000+00:00</time></trkpt><trkpt lat="63.75060654" lon="-20.23679543"><ele>-2.2</ele><time>2012-07-27T10:54:58.0000000+00:00</time></trkpt><trkpt lat="63.75072098" lon="-20.23665428"><ele>0.9</ele><time>2012-07-27T10:55:03.0000000+00:00</time></trkpt><trkpt lat="63.7508316" lon="-20.23648644"><ele>3.8</ele><time>2012-07-27T10:55:08.0000000+00:00</time></trkpt><trkpt lat="63.7509079" lon="-20.23633194"><ele>5.3</ele><time>2012-07-27T10:55:13.0000000+00:00</time></trkpt><trkpt lat="63.75097656" lon="-20.2360878"><ele>3.9</ele><time>2012-07-27T10:55:18.0000000+00:00</time></trkpt><trkpt lat="63.75104904" lon="-20.23586464"><ele>3.1</ele><time>2012-07-27T10:55:23.0000000+00:00</time></trkpt><trkpt lat="63.75112534" lon="-20.23564148"><ele>4.2</ele><time>2012-07-27T10:55:28.0000000+00:00</time></trkpt><trkpt lat="63.75114059" lon="-20.23545456"><ele>2.9</ele><time>2012-07-27T10:55:33.0000000+00:00</time></trkpt><trkpt lat="63.75110626" lon="-20.23531723"><ele>6.4</ele><time>2012-07-27T10:55:38.0000000+00:00</time></trkpt><trkpt lat="63.75100708" lon="-20.2351532"><ele>8.3</ele><time>2012-07-27T10:55:43.0000000+00:00</time></trkpt><trkpt lat="63.75088882" lon="-20.23496819"><ele>9.4</ele><time>2012-07-27T10:55:48.0000000+00:00</time></trkpt><trkpt lat="63.75077438" lon="-20.2347889"><ele>11.5</ele><time>2012-07-27T10:55:53.0000000+00:00</time></trkpt><trkpt lat="63.75064468" lon="-20.2345829"><ele>11.9</ele><time>2012-07-27T10:55:58.0000000+00:00</time></trkpt><trkpt lat="63.75050736" lon="-20.23436928"><ele>12.2</ele><time>2012-07-27T10:56:03.0000000+00:00</time></trkpt><trkpt lat="63.75037003" lon="-20.23413849"><ele>12.8</ele><time>2012-07-27T10:56:08.0000000+00:00</time></trkpt><trkpt lat="63.75022507" lon="-20.23391914"><ele>13.3</ele><time>2012-07-27T10:56:13.0000000+00:00</time></trkpt><trkpt lat="63.75008774" lon="-20.23373795"><ele>15.5</ele><time>2012-07-27T10:56:18.0000000+00:00</time></trkpt><trkpt lat="63.74997711" lon="-20.23356056"><ele>15.7</ele><time>2012-07-27T10:56:23.0000000+00:00</time></trkpt><trkpt lat="63.74996948" lon="-20.23353386"><ele>14.6</ele><time>2012-07-27T10:56:28.0000000+00:00</time></trkpt><trkpt lat="63.74996567" lon="-20.23353005"><ele>14.3</ele><time>2012-07-27T10:56:33.0000000+00:00</time></trkpt><trkpt lat="63.74996567" lon="-20.23353005"><ele>14.2</ele><time>2012-07-27T10:56:38.0000000+00:00</time></trkpt><trkpt lat="63.74996567" lon="-20.23353195"><ele>14.1</ele><time>2012-07-27T10:56:43.0000000+00:00</time></trkpt><trkpt lat="63.74995804" lon="-20.23351479"><ele>14.2</ele><time>2012-07-27T10:56:48.0000000+00:00</time></trkpt><trkpt lat="63.74998856" lon="-20.23331451"><ele>15.5</ele><time>2012-07-27T10:56:53.0000000+00:00</time></trkpt><trkpt lat="63.75002289" lon="-20.23318291"><ele>16.1</ele><time>2012-07-27T10:56:58.0000000+00:00</time></trkpt><trkpt lat="63.75007629" lon="-20.23300362"><ele>13.2</ele><time>2012-07-27T10:57:03.0000000+00:00</time></trkpt><trkpt lat="63.75009155" lon="-20.23280335"><ele>13.9</ele><time>2012-07-27T10:57:08.0000000+00:00</time></trkpt><trkpt lat="63.75004196" lon="-20.23289871"><ele>12.7</ele><time>2012-07-27T10:57:13.0000000+00:00</time></trkpt><trkpt lat="63.7499733" lon="-20.23295784"><ele>12.0</ele><time>2012-07-27T10:57:18.0000000+00:00</time></trkpt><trkpt lat="63.74995041" lon="-20.23293495"><ele>14.7</ele><time>2012-07-27T10:57:23.0000000+00:00</time></trkpt><trkpt lat="63.74995041" lon="-20.23297691"><ele>16.9</ele><time>2012-07-27T10:57:28.0000000+00:00</time></trkpt><trkpt lat="63.74995041" lon="-20.23297119"><ele>17.0</ele><time>2012-07-27T10:57:33.0000000+00:00</time></trkpt><trkpt lat="63.74995041" lon="-20.2329731"><ele>17.0</ele><time>2012-07-27T10:57:38.0000000+00:00</time></trkpt><trkpt lat="63.74995041" lon="-20.2329731"><ele>17.1</ele><time>2012-07-27T10:57:43.0000000+00:00</time></trkpt><trkpt lat="63.74995041" lon="-20.2329731"><ele>17.2</ele><time>2012-07-27T10:57:48.0000000+00:00</time></trkpt><trkpt lat="63.74995041" lon="-20.2329731"><ele>17.3</ele><time>2012-07-27T10:57:53.0000000+00:00</time></trkpt><trkpt lat="63.74995041" lon="-20.2329731"><ele>17.3</ele><time>2012-07-27T10:57:58.0000000+00:00</time></trkpt><trkpt lat="63.74995041" lon="-20.2329731"><ele>17.4</ele><time>2012-07-27T10:58:03.0000000+00:00</time></trkpt><trkpt lat="63.74995041" lon="-20.23297501"><ele>17.4</ele><time>2012-07-27T10:58:08.0000000+00:00</time></trkpt><trkpt lat="63.74995041" lon="-20.23297501"><ele>17.4</ele><time>2012-07-27T10:58:13.0000000+00:00</time></trkpt><trkpt lat="63.74995041" lon="-20.23297691"><ele>17.5</ele><time>2012-07-27T10:58:18.0000000+00:00</time></trkpt><trkpt lat="63.74995422" lon="-20.23297882"><ele>17.5</ele><time>2012-07-27T10:58:23.0000000+00:00</time></trkpt><trkpt lat="63.74995422" lon="-20.23297882"><ele>17.6</ele><time>2012-07-27T10:58:28.0000000+00:00</time></trkpt><trkpt lat="63.74995422" lon="-20.23297882"><ele>17.6</ele><time>2012-07-27T10:58:33.0000000+00:00</time></trkpt><trkpt lat="63.74995422" lon="-20.23297882"><ele>17.6</ele><time>2012-07-27T10:58:38.0000000+00:00</time></trkpt><trkpt lat="63.74995422" lon="-20.23298073"><ele>17.6</ele><time>2012-07-27T10:58:43.0000000+00:00</time></trkpt><trkpt lat="63.74995422" lon="-20.23297882"><ele>17.6</ele><time>2012-07-27T10:58:48.0000000+00:00</time></trkpt><trkpt lat="63.74995422" lon="-20.23298073"><ele>17.7</ele><time>2012-07-27T10:58:53.0000000+00:00</time></trkpt><trkpt lat="63.74995422" lon="-20.23298073"><ele>17.7</ele><time>2012-07-27T10:58:58.0000000+00:00</time></trkpt><trkpt lat="63.74995422" lon="-20.23298264"><ele>17.7</ele><time>2012-07-27T10:59:03.0000000+00:00</time></trkpt><trkpt lat="63.74995422" lon="-20.23298264"><ele>17.8</ele><time>2012-07-27T10:59:08.0000000+00:00</time></trkpt><trkpt lat="63.74995422" lon="-20.23298264"><ele>17.8</ele><time>2012-07-27T10:59:13.0000000+00:00</time></trkpt><trkpt lat="63.74995422" lon="-20.23298454"><ele>17.8</ele><time>2012-07-27T10:59:18.0000000+00:00</time></trkpt><trkpt lat="63.74995422" lon="-20.23298454"><ele>17.8</ele><time>2012-07-27T10:59:23.0000000+00:00</time></trkpt><trkpt lat="63.74995422" lon="-20.23298454"><ele>17.9</ele><time>2012-07-27T10:59:28.0000000+00:00</time></trkpt><trkpt lat="63.74995422" lon="-20.23298645"><ele>17.9</ele><time>2012-07-27T10:59:33.0000000+00:00</time></trkpt><trkpt lat="63.74995422" lon="-20.23298645"><ele>17.9</ele><time>2012-07-27T10:59:38.0000000+00:00</time></trkpt><trkpt lat="63.74995422" lon="-20.23298645"><ele>18.0</ele><time>2012-07-27T10:59:43.0000000+00:00</time></trkpt><trkpt lat="63.74995422" lon="-20.23298836"><ele>18.0</ele><time>2012-07-27T10:59:48.0000000+00:00</time></trkpt><trkpt lat="63.74995422" lon="-20.23298836"><ele>18.0</ele><time>2012-07-27T10:59:53.0000000+00:00</time></trkpt><trkpt lat="63.74995422" lon="-20.23299027"><ele>18.1</ele><time>2012-07-27T10:59:58.0000000+00:00</time></trkpt><trkpt lat="63.74995422" lon="-20.23299027"><ele>18.1</ele><time>2012-07-27T11:00:03.0000000+00:00</time></trkpt><trkpt lat="63.74995422" lon="-20.23299027"><ele>18.1</ele><time>2012-07-27T11:00:08.0000000+00:00</time></trkpt><trkpt lat="63.74995422" lon="-20.23299217"><ele>18.2</ele><time>2012-07-27T11:00:13.0000000+00:00</time></trkpt><trkpt lat="63.74995422" lon="-20.23299217"><ele>18.2</ele><time>2012-07-27T11:00:18.0000000+00:00</time></trkpt><trkpt lat="63.74995422" lon="-20.23299217"><ele>18.3</ele><time>2012-07-27T11:00:23.0000000+00:00</time></trkpt><trkpt lat="63.74995804" lon="-20.23299408"><ele>18.3</ele><time>2012-07-27T11:00:28.0000000+00:00</time></trkpt><trkpt lat="63.74995804" lon="-20.23299408"><ele>18.4</ele><time>2012-07-27T11:00:33.0000000+00:00</time></trkpt><trkpt lat="63.74995804" lon="-20.23299408"><ele>18.4</ele><time>2012-07-27T11:00:38.0000000+00:00</time></trkpt><trkpt lat="63.74995804" lon="-20.23299599"><ele>18.4</ele><time>2012-07-27T11:00:43.0000000+00:00</time></trkpt><trkpt lat="63.74995804" lon="-20.23299599"><ele>18.5</ele><time>2012-07-27T11:00:48.0000000+00:00</time></trkpt><trkpt lat="63.74995804" lon="-20.23299599"><ele>18.5</ele><time>2012-07-27T11:00:53.0000000+00:00</time></trkpt><trkpt lat="63.74995804" lon="-20.23299789"><ele>18.5</ele><time>2012-07-27T11:00:58.0000000+00:00</time></trkpt><trkpt lat="63.74995804" lon="-20.23299789"><ele>18.6</ele><time>2012-07-27T11:01:03.0000000+00:00</time></trkpt><trkpt lat="63.74995804" lon="-20.23299789"><ele>18.6</ele><time>2012-07-27T11:01:08.0000000+00:00</time></trkpt><trkpt lat="63.74995804" lon="-20.2329998"><ele>18.6</ele><time>2012-07-27T11:01:13.0000000+00:00</time></trkpt><trkpt lat="63.74995804" lon="-20.2329998"><ele>18.7</ele><time>2012-07-27T11:01:18.0000000+00:00</time></trkpt><trkpt lat="63.74995804" lon="-20.2329998"><ele>18.7</ele><time>2012-07-27T11:01:23.0000000+00:00</time></trkpt><trkpt lat="63.74995804" lon="-20.23300171"><ele>18.7</ele><time>2012-07-27T11:01:28.0000000+00:00</time></trkpt><trkpt lat="63.74995804" lon="-20.23300171"><ele>18.8</ele><time>2012-07-27T11:01:33.0000000+00:00</time></trkpt><trkpt lat="63.74995804" lon="-20.23300171"><ele>18.8</ele><time>2012-07-27T11:01:38.0000000+00:00</time></trkpt><trkpt lat="63.74995804" lon="-20.23300171"><ele>18.8</ele><time>2012-07-27T11:01:43.0000000+00:00</time></trkpt><trkpt lat="63.74995804" lon="-20.23300171"><ele>18.8</ele><time>2012-07-27T11:01:48.0000000+00:00</time></trkpt><trkpt lat="63.74995804" lon="-20.23300171"><ele>18.9</ele><time>2012-07-27T11:01:53.0000000+00:00</time></trkpt><trkpt lat="63.74995804" lon="-20.23300362"><ele>18.9</ele><time>2012-07-27T11:01:58.0000000+00:00</time></trkpt><trkpt lat="63.74995804" lon="-20.23300362"><ele>18.9</ele><time>2012-07-27T11:02:03.0000000+00:00</time></trkpt><trkpt lat="63.74995804" lon="-20.23300362"><ele>19.0</ele><time>2012-07-27T11:02:08.0000000+00:00</time></trkpt><trkpt lat="63.74995804" lon="-20.23300362"><ele>19.0</ele><time>2012-07-27T11:02:13.0000000+00:00</time></trkpt><trkpt lat="63.74995804" lon="-20.23300362"><ele>19.0</ele><time>2012-07-27T11:02:18.0000000+00:00</time></trkpt><trkpt lat="63.74995804" lon="-20.23300362"><ele>19.0</ele><time>2012-07-27T11:02:23.0000000+00:00</time></trkpt><trkpt lat="63.74995804" lon="-20.23300362"><ele>19.1</ele><time>2012-07-27T11:02:28.0000000+00:00</time></trkpt><trkpt lat="63.74995804" lon="-20.23300362"><ele>19.1</ele><time>2012-07-27T11:02:33.0000000+00:00</time></trkpt><trkpt lat="63.74995804" lon="-20.23300552"><ele>19.1</ele><time>2012-07-27T11:02:38.0000000+00:00</time></trkpt><trkpt lat="63.74995804" lon="-20.23300552"><ele>19.1</ele><time>2012-07-27T11:02:43.0000000+00:00</time></trkpt><trkpt lat="63.74995804" lon="-20.23300552"><ele>19.2</ele><time>2012-07-27T11:02:48.0000000+00:00</time></trkpt><trkpt lat="63.74995804" lon="-20.23300552"><ele>19.2</ele><time>2012-07-27T11:02:53.0000000+00:00</time></trkpt><trkpt lat="63.74995804" lon="-20.23300552"><ele>19.2</ele><time>2012-07-27T11:02:58.0000000+00:00</time></trkpt><trkpt lat="63.74995804" lon="-20.23300552"><ele>19.2</ele><time>2012-07-27T11:03:03.0000000+00:00</time></trkpt><trkpt lat="63.74995804" lon="-20.23300743"><ele>19.3</ele><time>2012-07-27T11:03:08.0000000+00:00</time></trkpt><trkpt lat="63.74995804" lon="-20.23300743"><ele>19.3</ele><time>2012-07-27T11:03:13.0000000+00:00</time></trkpt><trkpt lat="63.74995804" lon="-20.23300743"><ele>19.3</ele><time>2012-07-27T11:03:18.0000000+00:00</time></trkpt><trkpt lat="63.74995804" lon="-20.23300743"><ele>19.3</ele><time>2012-07-27T11:03:23.0000000+00:00</time></trkpt><trkpt lat="63.74995804" lon="-20.23300743"><ele>19.4</ele><time>2012-07-27T11:03:28.0000000+00:00</time></trkpt><trkpt lat="63.74995804" lon="-20.23300743"><ele>19.4</ele><time>2012-07-27T11:03:33.0000000+00:00</time></trkpt><trkpt lat="63.74995804" lon="-20.23300743"><ele>19.4</ele><time>2012-07-27T11:03:38.0000000+00:00</time></trkpt><trkpt lat="63.74995804" lon="-20.23300743"><ele>19.5</ele><time>2012-07-27T11:03:43.0000000+00:00</time></trkpt><trkpt lat="63.74995804" lon="-20.23300743"><ele>19.5</ele><time>2012-07-27T11:03:48.0000000+00:00</time></trkpt><trkpt lat="63.74995804" lon="-20.23300934"><ele>19.5</ele><time>2012-07-27T11:03:53.0000000+00:00</time></trkpt><trkpt lat="63.74995804" lon="-20.23300934"><ele>19.5</ele><time>2012-07-27T11:03:58.0000000+00:00</time></trkpt><trkpt lat="63.74995804" lon="-20.23300934"><ele>19.6</ele><time>2012-07-27T11:04:03.0000000+00:00</time></trkpt><trkpt lat="63.74995804" lon="-20.23300934"><ele>19.6</ele><time>2012-07-27T11:04:08.0000000+00:00</time></trkpt><trkpt lat="63.74995804" lon="-20.23300934"><ele>19.6</ele><time>2012-07-27T11:04:13.0000000+00:00</time></trkpt><trkpt lat="63.74995804" lon="-20.23300934"><ele>19.6</ele><time>2012-07-27T11:04:18.0000000+00:00</time></trkpt><trkpt lat="63.74995804" lon="-20.23300934"><ele>19.7</ele><time>2012-07-27T11:04:23.0000000+00:00</time></trkpt><trkpt lat="63.74995804" lon="-20.23300934"><ele>19.7</ele><time>2012-07-27T11:04:28.0000000+00:00</time></trkpt><trkpt lat="63.74995804" lon="-20.23301125"><ele>19.7</ele><time>2012-07-27T11:04:33.0000000+00:00</time></trkpt><trkpt lat="63.74995804" lon="-20.23301125"><ele>19.7</ele><time>2012-07-27T11:04:38.0000000+00:00</time></trkpt><trkpt lat="63.74995804" lon="-20.23301125"><ele>19.8</ele><time>2012-07-27T11:04:43.0000000+00:00</time></trkpt><trkpt lat="63.74995804" lon="-20.23301125"><ele>19.8</ele><time>2012-07-27T11:04:48.0000000+00:00</time></trkpt><trkpt lat="63.74995804" lon="-20.23301315"><ele>19.8</ele><time>2012-07-27T11:04:53.0000000+00:00</time></trkpt><trkpt lat="63.74995804" lon="-20.23301315"><ele>19.8</ele><time>2012-07-27T11:04:58.0000000+00:00</time></trkpt><trkpt lat="63.74995804" lon="-20.23301315"><ele>19.9</ele><time>2012-07-27T11:05:03.0000000+00:00</time></trkpt><trkpt lat="63.74995804" lon="-20.23301315"><ele>19.9</ele><time>2012-07-27T11:05:08.0000000+00:00</time></trkpt><trkpt lat="63.74995804" lon="-20.23301315"><ele>19.9</ele><time>2012-07-27T11:05:13.0000000+00:00</time></trkpt><trkpt lat="63.74995804" lon="-20.23301315"><ele>19.9</ele><time>2012-07-27T11:05:18.0000000+00:00</time></trkpt><trkpt lat="63.74995804" lon="-20.23301315"><ele>20.0</ele><time>2012-07-27T11:05:23.0000000+00:00</time></trkpt><trkpt lat="63.74995804" lon="-20.23301315"><ele>20.0</ele><time>2012-07-27T11:05:28.0000000+00:00</time></trkpt><trkpt lat="63.74996185" lon="-20.23301315"><ele>20.0</ele><time>2012-07-27T11:05:33.0000000+00:00</time></trkpt><trkpt lat="63.74996185" lon="-20.23301315"><ele>20.0</ele><time>2012-07-27T11:05:38.0000000+00:00</time></trkpt><trkpt lat="63.74996185" lon="-20.23301315"><ele>20.0</ele><time>2012-07-27T11:05:43.0000000+00:00</time></trkpt><trkpt lat="63.74996185" lon="-20.23301315"><ele>20.1</ele><time>2012-07-27T11:05:48.0000000+00:00</time></trkpt><trkpt lat="63.74996185" lon="-20.23301125"><ele>20.1</ele><time>2012-07-27T11:05:53.0000000+00:00</time></trkpt><trkpt lat="63.74996185" lon="-20.23301125"><ele>20.1</ele><time>2012-07-27T11:05:58.0000000+00:00</time></trkpt><trkpt lat="63.74996185" lon="-20.23301125"><ele>20.1</ele><time>2012-07-27T11:06:03.0000000+00:00</time></trkpt><trkpt lat="63.74996185" lon="-20.23301125"><ele>20.1</ele><time>2012-07-27T11:06:08.0000000+00:00</time></trkpt><trkpt lat="63.74996185" lon="-20.23301125"><ele>20.2</ele><time>2012-07-27T11:06:13.0000000+00:00</time></trkpt><trkpt lat="63.74996185" lon="-20.23301125"><ele>20.2</ele><time>2012-07-27T11:06:18.0000000+00:00</time></trkpt><trkpt lat="63.74996185" lon="-20.23301125"><ele>20.2</ele><time>2012-07-27T11:06:23.0000000+00:00</time></trkpt><trkpt lat="63.74996185" lon="-20.23301315"><ele>20.2</ele><time>2012-07-27T11:06:28.0000000+00:00</time></trkpt><trkpt lat="63.74996185" lon="-20.23301315"><ele>20.3</ele><time>2012-07-27T11:06:33.0000000+00:00</time></trkpt><trkpt lat="63.74996185" lon="-20.23301315"><ele>20.3</ele><time>2012-07-27T11:06:38.0000000+00:00</time></trkpt><trkpt lat="63.74996185" lon="-20.23301315"><ele>20.3</ele><time>2012-07-27T11:06:43.0000000+00:00</time></trkpt><trkpt lat="63.74996185" lon="-20.23301315"><ele>20.4</ele><time>2012-07-27T11:06:48.0000000+00:00</time></trkpt><trkpt lat="63.74996185" lon="-20.23301315"><ele>20.4</ele><time>2012-07-27T11:06:53.0000000+00:00</time></trkpt><trkpt lat="63.74996185" lon="-20.23301506"><ele>20.4</ele><time>2012-07-27T11:06:58.0000000+00:00</time></trkpt><trkpt lat="63.74996567" lon="-20.23301506"><ele>20.4</ele><time>2012-07-27T11:07:03.0000000+00:00</time></trkpt><trkpt lat="63.74996567" lon="-20.23301506"><ele>20.5</ele><time>2012-07-27T11:07:08.0000000+00:00</time></trkpt><trkpt lat="63.74996567" lon="-20.23301506"><ele>20.5</ele><time>2012-07-27T11:07:13.0000000+00:00</time></trkpt><trkpt lat="63.74996567" lon="-20.23301697"><ele>20.5</ele><time>2012-07-27T11:07:18.0000000+00:00</time></trkpt><trkpt lat="63.74996567" lon="-20.23301697"><ele>20.5</ele><time>2012-07-27T11:07:23.0000000+00:00</time></trkpt><trkpt lat="63.74996567" lon="-20.23301697"><ele>20.6</ele><time>2012-07-27T11:07:28.0000000+00:00</time></trkpt><trkpt lat="63.74996567" lon="-20.23301697"><ele>20.6</ele><time>2012-07-27T11:07:33.0000000+00:00</time></trkpt><trkpt lat="63.74996567" lon="-20.23301888"><ele>20.6</ele><time>2012-07-27T11:07:38.0000000+00:00</time></trkpt><trkpt lat="63.74996567" lon="-20.23301888"><ele>20.6</ele><time>2012-07-27T11:07:43.0000000+00:00</time></trkpt><trkpt lat="63.74996567" lon="-20.23301888"><ele>20.7</ele><time>2012-07-27T11:07:48.0000000+00:00</time></trkpt><trkpt lat="63.74996567" lon="-20.23302078"><ele>20.7</ele><time>2012-07-27T11:07:53.0000000+00:00</time></trkpt><trkpt lat="63.74996567" lon="-20.23302078"><ele>20.7</ele><time>2012-07-27T11:07:58.0000000+00:00</time></trkpt><trkpt lat="63.74996567" lon="-20.23302078"><ele>20.7</ele><time>2012-07-27T11:08:03.0000000+00:00</time></trkpt><trkpt lat="63.74996567" lon="-20.23302269"><ele>20.8</ele><time>2012-07-27T11:08:08.0000000+00:00</time></trkpt><trkpt lat="63.74996567" lon="-20.23302269"><ele>20.8</ele><time>2012-07-27T11:08:13.0000000+00:00</time></trkpt><trkpt lat="63.74996567" lon="-20.23302269"><ele>20.8</ele><time>2012-07-27T11:08:18.0000000+00:00</time></trkpt><trkpt lat="63.74996567" lon="-20.23302269"><ele>20.8</ele><time>2012-07-27T11:08:23.0000000+00:00</time></trkpt><trkpt lat="63.74996567" lon="-20.2330246"><ele>20.8</ele><time>2012-07-27T11:08:28.0000000+00:00</time></trkpt><trkpt lat="63.74996567" lon="-20.2330246"><ele>20.9</ele><time>2012-07-27T11:08:33.0000000+00:00</time></trkpt><trkpt lat="63.74996567" lon="-20.23302651"><ele>20.9</ele><time>2012-07-27T11:08:38.0000000+00:00</time></trkpt><trkpt lat="63.74996567" lon="-20.23302651"><ele>20.9</ele><time>2012-07-27T11:08:43.0000000+00:00</time></trkpt><trkpt lat="63.74996567" lon="-20.23302651"><ele>21.0</ele><time>2012-07-27T11:08:48.0000000+00:00</time></trkpt><trkpt lat="63.74996567" lon="-20.23302841"><ele>21.0</ele><time>2012-07-27T11:08:53.0000000+00:00</time></trkpt><trkpt lat="63.74996567" lon="-20.23302841"><ele>21.0</ele><time>2012-07-27T11:08:58.0000000+00:00</time></trkpt><trkpt lat="63.74996567" lon="-20.23302841"><ele>21.0</ele><time>2012-07-27T11:09:03.0000000+00:00</time></trkpt><trkpt lat="63.74996567" lon="-20.23302841"><ele>21.1</ele><time>2012-07-27T11:09:08.0000000+00:00</time></trkpt><trkpt lat="63.74996567" lon="-20.23302841"><ele>21.1</ele><time>2012-07-27T11:09:13.0000000+00:00</time></trkpt><trkpt lat="63.74996567" lon="-20.23302841"><ele>21.1</ele><time>2012-07-27T11:09:18.0000000+00:00</time></trkpt><trkpt lat="63.74996567" lon="-20.23302841"><ele>21.2</ele><time>2012-07-27T11:09:23.0000000+00:00</time></trkpt><trkpt lat="63.74996567" lon="-20.23303032"><ele>21.2</ele><time>2012-07-27T11:09:28.0000000+00:00</time></trkpt><trkpt lat="63.74996567" lon="-20.23303032"><ele>21.2</ele><time>2012-07-27T11:09:33.0000000+00:00</time></trkpt><trkpt lat="63.74996567" lon="-20.23303032"><ele>21.3</ele><time>2012-07-27T11:09:38.0000000+00:00</time></trkpt><trkpt lat="63.74996567" lon="-20.23303032"><ele>21.3</ele><time>2012-07-27T11:09:43.0000000+00:00</time></trkpt><trkpt lat="63.74996567" lon="-20.23303032"><ele>21.3</ele><time>2012-07-27T11:09:48.0000000+00:00</time></trkpt><trkpt lat="63.74996567" lon="-20.23303032"><ele>21.4</ele><time>2012-07-27T11:09:53.0000000+00:00</time></trkpt><trkpt lat="63.74996567" lon="-20.23303032"><ele>21.4</ele><time>2012-07-27T11:09:58.0000000+00:00</time></trkpt><trkpt lat="63.74996567" lon="-20.23303032"><ele>21.4</ele><time>2012-07-27T11:10:03.0000000+00:00</time></trkpt><trkpt lat="63.74996567" lon="-20.23303032"><ele>21.4</ele><time>2012-07-27T11:10:08.0000000+00:00</time></trkpt><trkpt lat="63.74996567" lon="-20.23303032"><ele>21.5</ele><time>2012-07-27T11:10:13.0000000+00:00</time></trkpt><trkpt lat="63.74996567" lon="-20.23303223"><ele>21.5</ele><time>2012-07-27T11:10:18.0000000+00:00</time></trkpt><trkpt lat="63.74996567" lon="-20.23303223"><ele>21.5</ele><time>2012-07-27T11:10:23.0000000+00:00</time></trkpt><trkpt lat="63.74996567" lon="-20.23303223"><ele>21.6</ele><time>2012-07-27T11:10:28.0000000+00:00</time></trkpt><trkpt lat="63.74996567" lon="-20.23303223"><ele>21.6</ele><time>2012-07-27T11:10:33.0000000+00:00</time></trkpt><trkpt lat="63.74996567" lon="-20.23303223"><ele>21.6</ele><time>2012-07-27T11:10:38.0000000+00:00</time></trkpt><trkpt lat="63.74996567" lon="-20.23303223"><ele>21.7</ele><time>2012-07-27T11:10:43.0000000+00:00</time></trkpt><trkpt lat="63.74996567" lon="-20.23303223"><ele>21.7</ele><time>2012-07-27T11:10:48.0000000+00:00</time></trkpt><trkpt lat="63.74996567" lon="-20.23303223"><ele>21.7</ele><time>2012-07-27T11:10:53.0000000+00:00</time></trkpt><trkpt lat="63.74996567" lon="-20.23303223"><ele>21.7</ele><time>2012-07-27T11:10:58.0000000+00:00</time></trkpt><trkpt lat="63.74996567" lon="-20.23303223"><ele>21.8</ele><time>2012-07-27T11:11:03.0000000+00:00</time></trkpt><trkpt lat="63.74996567" lon="-20.23303223"><ele>21.8</ele><time>2012-07-27T11:11:08.0000000+00:00</time></trkpt><trkpt lat="63.74996567" lon="-20.23303223"><ele>21.8</ele><time>2012-07-27T11:11:13.0000000+00:00</time></trkpt><trkpt lat="63.74996567" lon="-20.23303413"><ele>21.9</ele><time>2012-07-27T11:11:18.0000000+00:00</time></trkpt><trkpt lat="63.74996567" lon="-20.23303413"><ele>21.9</ele><time>2012-07-27T11:11:23.0000000+00:00</time></trkpt><trkpt lat="63.74996567" lon="-20.23303604"><ele>21.9</ele><time>2012-07-27T11:11:28.0000000+00:00</time></trkpt><trkpt lat="63.74996567" lon="-20.23303604"><ele>22.0</ele><time>2012-07-27T11:11:33.0000000+00:00</time></trkpt><trkpt lat="63.74996567" lon="-20.23303604"><ele>22.0</ele><time>2012-07-27T11:11:38.0000000+00:00</time></trkpt><trkpt lat="63.74996948" lon="-20.23303604"><ele>22.0</ele><time>2012-07-27T11:11:43.0000000+00:00</time></trkpt><trkpt lat="63.74996948" lon="-20.23303604"><ele>22.1</ele><time>2012-07-27T11:11:48.0000000+00:00</time></trkpt><trkpt lat="63.74996948" lon="-20.23303604"><ele>22.1</ele><time>2012-07-27T11:11:53.0000000+00:00</time></trkpt><trkpt lat="63.74996948" lon="-20.23303604"><ele>22.1</ele><time>2012-07-27T11:11:58.0000000+00:00</time></trkpt><trkpt lat="63.74996948" lon="-20.23303795"><ele>22.2</ele><time>2012-07-27T11:12:03.0000000+00:00</time></trkpt><trkpt lat="63.74996948" lon="-20.23303795"><ele>22.2</ele><time>2012-07-27T11:12:08.0000000+00:00</time></trkpt><trkpt lat="63.74996948" lon="-20.23303795"><ele>22.2</ele><time>2012-07-27T11:12:13.0000000+00:00</time></trkpt><trkpt lat="63.74996948" lon="-20.23303795"><ele>22.3</ele><time>2012-07-27T11:12:18.0000000+00:00</time></trkpt><trkpt lat="63.74996948" lon="-20.23303795"><ele>22.3</ele><time>2012-07-27T11:12:23.0000000+00:00</time></trkpt><trkpt lat="63.74996948" lon="-20.23303795"><ele>22.3</ele><time>2012-07-27T11:12:28.0000000+00:00</time></trkpt><trkpt lat="63.74996948" lon="-20.23303795"><ele>22.4</ele><time>2012-07-27T11:12:33.0000000+00:00</time></trkpt><trkpt lat="63.74996948" lon="-20.23303795"><ele>22.4</ele><time>2012-07-27T11:12:38.0000000+00:00</time></trkpt><trkpt lat="63.74996948" lon="-20.23303986"><ele>22.4</ele><time>2012-07-27T11:12:43.0000000+00:00</time></trkpt><trkpt lat="63.74996948" lon="-20.23303986"><ele>22.5</ele><time>2012-07-27T11:12:48.0000000+00:00</time></trkpt><trkpt lat="63.74996948" lon="-20.23303986"><ele>22.5</ele><time>2012-07-27T11:12:53.0000000+00:00</time></trkpt><trkpt lat="63.74996948" lon="-20.23303986"><ele>22.5</ele><time>2012-07-27T11:12:58.0000000+00:00</time></trkpt><trkpt lat="63.74996948" lon="-20.23304176"><ele>22.6</ele><time>2012-07-27T11:13:03.0000000+00:00</time></trkpt><trkpt lat="63.74996948" lon="-20.23304176"><ele>22.6</ele><time>2012-07-27T11:13:08.0000000+00:00</time></trkpt><trkpt lat="63.74996948" lon="-20.23304176"><ele>22.6</ele><time>2012-07-27T11:13:13.0000000+00:00</time></trkpt><trkpt lat="63.74996948" lon="-20.23304176"><ele>22.7</ele><time>2012-07-27T11:13:18.0000000+00:00</time></trkpt><trkpt lat="63.74996948" lon="-20.23304176"><ele>22.7</ele><time>2012-07-27T11:13:23.0000000+00:00</time></trkpt><trkpt lat="63.74996948" lon="-20.23304176"><ele>22.7</ele><time>2012-07-27T11:13:28.0000000+00:00</time></trkpt><trkpt lat="63.74996948" lon="-20.23304176"><ele>22.7</ele><time>2012-07-27T11:13:33.0000000+00:00</time></trkpt><trkpt lat="63.74996948" lon="-20.23304176"><ele>22.8</ele><time>2012-07-27T11:13:38.0000000+00:00</time></trkpt><trkpt lat="63.74996948" lon="-20.23304176"><ele>22.8</ele><time>2012-07-27T11:13:43.0000000+00:00</time></trkpt><trkpt lat="63.74996948" lon="-20.23304176"><ele>22.8</ele><time>2012-07-27T11:13:48.0000000+00:00</time></trkpt><trkpt lat="63.74996948" lon="-20.23304176"><ele>22.8</ele><time>2012-07-27T11:13:53.0000000+00:00</time></trkpt><trkpt lat="63.74996948" lon="-20.23304176"><ele>22.9</ele><time>2012-07-27T11:13:58.0000000+00:00</time></trkpt><trkpt lat="63.74996948" lon="-20.23304367"><ele>22.9</ele><time>2012-07-27T11:14:03.0000000+00:00</time></trkpt><trkpt lat="63.74996948" lon="-20.23304367"><ele>22.9</ele><time>2012-07-27T11:14:08.0000000+00:00</time></trkpt><trkpt lat="63.74996948" lon="-20.23304367"><ele>22.9</ele><time>2012-07-27T11:14:13.0000000+00:00</time></trkpt><trkpt lat="63.74996948" lon="-20.23304367"><ele>23.0</ele><time>2012-07-27T11:14:18.0000000+00:00</time></trkpt><trkpt lat="63.74996948" lon="-20.23304367"><ele>23.0</ele><time>2012-07-27T11:14:23.0000000+00:00</time></trkpt><trkpt lat="63.74996948" lon="-20.23304367"><ele>23.0</ele><time>2012-07-27T11:14:28.0000000+00:00</time></trkpt><trkpt lat="63.74996948" lon="-20.23304176"><ele>23.0</ele><time>2012-07-27T11:14:33.0000000+00:00</time></trkpt><trkpt lat="63.74996948" lon="-20.23304176"><ele>23.0</ele><time>2012-07-27T11:14:38.0000000+00:00</time></trkpt><trkpt lat="63.74996948" lon="-20.23304176"><ele>23.1</ele><time>2012-07-27T11:14:43.0000000+00:00</time></trkpt><trkpt lat="63.74996948" lon="-20.23304176"><ele>23.1</ele><time>2012-07-27T11:14:48.0000000+00:00</time></trkpt><trkpt lat="63.74996948" lon="-20.23304176"><ele>23.1</ele><time>2012-07-27T11:14:53.0000000+00:00</time></trkpt><trkpt lat="63.74996948" lon="-20.23304367"><ele>23.1</ele><time>2012-07-27T11:14:58.0000000+00:00</time></trkpt><trkpt lat="63.74996948" lon="-20.23304367"><ele>23.2</ele><time>2012-07-27T11:15:03.0000000+00:00</time></trkpt><trkpt lat="63.74996948" lon="-20.23304367"><ele>23.2</ele><time>2012-07-27T11:15:08.0000000+00:00</time></trkpt><trkpt lat="63.74996948" lon="-20.23304367"><ele>23.2</ele><time>2012-07-27T11:15:13.0000000+00:00</time></trkpt><trkpt lat="63.74996948" lon="-20.23304367"><ele>23.3</ele><time>2012-07-27T11:15:18.0000000+00:00</time></trkpt><trkpt lat="63.74996948" lon="-20.23304367"><ele>23.3</ele><time>2012-07-27T11:15:23.0000000+00:00</time></trkpt><trkpt lat="63.74996948" lon="-20.23304367"><ele>23.3</ele><time>2012-07-27T11:15:28.0000000+00:00</time></trkpt><trkpt lat="63.74996948" lon="-20.23304367"><ele>23.3</ele><time>2012-07-27T11:15:33.0000000+00:00</time></trkpt><trkpt lat="63.74996948" lon="-20.23304558"><ele>23.4</ele><time>2012-07-27T11:15:38.0000000+00:00</time></trkpt><trkpt lat="63.74996948" lon="-20.23304558"><ele>23.4</ele><time>2012-07-27T11:15:43.0000000+00:00</time></trkpt><trkpt lat="63.74996948" lon="-20.23304558"><ele>23.4</ele><time>2012-07-27T11:15:48.0000000+00:00</time></trkpt><trkpt lat="63.74996948" lon="-20.23304749"><ele>23.4</ele><time>2012-07-27T11:15:53.0000000+00:00</time></trkpt><trkpt lat="63.74996948" lon="-20.23304749"><ele>23.4</ele><time>2012-07-27T11:15:58.0000000+00:00</time></trkpt><trkpt lat="63.74996948" lon="-20.23304749"><ele>23.5</ele><time>2012-07-27T11:16:03.0000000+00:00</time></trkpt><trkpt lat="63.74996948" lon="-20.23304749"><ele>23.5</ele><time>2012-07-27T11:16:08.0000000+00:00</time></trkpt><trkpt lat="63.74996948" lon="-20.23304749"><ele>23.5</ele><time>2012-07-27T11:16:13.0000000+00:00</time></trkpt><trkpt lat="63.74996948" lon="-20.23304939"><ele>23.5</ele><time>2012-07-27T11:16:18.0000000+00:00</time></trkpt><trkpt lat="63.74996948" lon="-20.23304939"><ele>23.5</ele><time>2012-07-27T11:16:23.0000000+00:00</time></trkpt><trkpt lat="63.74996948" lon="-20.23304939"><ele>23.5</ele><time>2012-07-27T11:16:28.0000000+00:00</time></trkpt><trkpt lat="63.74996948" lon="-20.23304939"><ele>23.6</ele><time>2012-07-27T11:16:33.0000000+00:00</time></trkpt><trkpt lat="63.74996948" lon="-20.2330513"><ele>23.6</ele><time>2012-07-27T11:16:38.0000000+00:00</time></trkpt><trkpt lat="63.74996948" lon="-20.2330513"><ele>23.6</ele><time>2012-07-27T11:16:43.0000000+00:00</time></trkpt><trkpt lat="63.74996948" lon="-20.2330513"><ele>23.6</ele><time>2012-07-27T11:16:48.0000000+00:00</time></trkpt><trkpt lat="63.74996948" lon="-20.2330513"><ele>23.6</ele><time>2012-07-27T11:16:53.0000000+00:00</time></trkpt><trkpt lat="63.74996948" lon="-20.2330513"><ele>23.6</ele><time>2012-07-27T11:16:58.0000000+00:00</time></trkpt><trkpt lat="63.74996948" lon="-20.2330513"><ele>23.6</ele><time>2012-07-27T11:17:03.0000000+00:00</time></trkpt><trkpt lat="63.74996948" lon="-20.2330513"><ele>23.6</ele><time>2012-07-27T11:17:08.0000000+00:00</time></trkpt><trkpt lat="63.74996948" lon="-20.2330513"><ele>23.6</ele><time>2012-07-27T11:17:13.0000000+00:00</time></trkpt><trkpt lat="63.74996948" lon="-20.2330513"><ele>23.6</ele><time>2012-07-27T11:17:18.0000000+00:00</time></trkpt><trkpt lat="63.74996948" lon="-20.2330513"><ele>23.7</ele><time>2012-07-27T11:17:23.0000000+00:00</time></trkpt><trkpt lat="63.74996948" lon="-20.23305321"><ele>23.7</ele><time>2012-07-27T11:17:28.0000000+00:00</time></trkpt><trkpt lat="63.74996948" lon="-20.23305321"><ele>23.7</ele><time>2012-07-27T11:17:33.0000000+00:00</time></trkpt><trkpt lat="63.74996948" lon="-20.23305321"><ele>23.7</ele><time>2012-07-27T11:17:38.0000000+00:00</time></trkpt><trkpt lat="63.74996948" lon="-20.23305321"><ele>23.7</ele><time>2012-07-27T11:17:43.0000000+00:00</time></trkpt><trkpt lat="63.74996948" lon="-20.23305321"><ele>23.7</ele><time>2012-07-27T11:17:48.0000000+00:00</time></trkpt><trkpt lat="63.74996948" lon="-20.23305321"><ele>23.7</ele><time>2012-07-27T11:17:53.0000000+00:00</time></trkpt><trkpt lat="63.74996948" lon="-20.23305321"><ele>23.7</ele><time>2012-07-27T11:17:58.0000000+00:00</time></trkpt><trkpt lat="63.74996948" lon="-20.23305321"><ele>23.7</ele><time>2012-07-27T11:18:03.0000000+00:00</time></trkpt><trkpt lat="63.74996948" lon="-20.23305321"><ele>23.7</ele><time>2012-07-27T11:18:08.0000000+00:00</time></trkpt><trkpt lat="63.74996948" lon="-20.23305321"><ele>23.7</ele><time>2012-07-27T11:18:13.0000000+00:00</time></trkpt><trkpt lat="63.74996948" lon="-20.23305321"><ele>23.8</ele><time>2012-07-27T11:18:18.0000000+00:00</time></trkpt><trkpt lat="63.74996948" lon="-20.23305321"><ele>23.8</ele><time>2012-07-27T11:18:23.0000000+00:00</time></trkpt><trkpt lat="63.74996948" lon="-20.23305321"><ele>23.8</ele><time>2012-07-27T11:18:28.0000000+00:00</time></trkpt><trkpt lat="63.74996948" lon="-20.23305321"><ele>23.8</ele><time>2012-07-27T11:18:33.0000000+00:00</time></trkpt><trkpt lat="63.74996948" lon="-20.23305321"><ele>23.8</ele><time>2012-07-27T11:18:38.0000000+00:00</time></trkpt><trkpt lat="63.74996948" lon="-20.23305321"><ele>23.8</ele><time>2012-07-27T11:18:43.0000000+00:00</time></trkpt><trkpt lat="63.74996948" lon="-20.2330513"><ele>23.8</ele><time>2012-07-27T11:18:48.0000000+00:00</time></trkpt><trkpt lat="63.74996948" lon="-20.2330513"><ele>23.8</ele><time>2012-07-27T11:18:53.0000000+00:00</time></trkpt><trkpt lat="63.74996948" lon="-20.23305321"><ele>23.8</ele><time>2012-07-27T11:18:58.0000000+00:00</time></trkpt><trkpt lat="63.74996948" lon="-20.2330513"><ele>23.8</ele><time>2012-07-27T11:19:03.0000000+00:00</time></trkpt><trkpt lat="63.74996948" lon="-20.23305321"><ele>23.8</ele><time>2012-07-27T11:19:08.0000000+00:00</time></trkpt><trkpt lat="63.74996948" lon="-20.23305321"><ele>23.8</ele><time>2012-07-27T11:19:13.0000000+00:00</time></trkpt><trkpt lat="63.74996948" lon="-20.23305321"><ele>23.8</ele><time>2012-07-27T11:19:18.0000000+00:00</time></trkpt><trkpt lat="63.74996948" lon="-20.23305321"><ele>23.9</ele><time>2012-07-27T11:19:23.0000000+00:00</time></trkpt><trkpt lat="63.74996948" lon="-20.23305512"><ele>23.9</ele><time>2012-07-27T11:19:28.0000000+00:00</time></trkpt><trkpt lat="63.74996948" lon="-20.23305512"><ele>23.9</ele><time>2012-07-27T11:19:33.0000000+00:00</time></trkpt><trkpt lat="63.74996948" lon="-20.23305512"><ele>23.9</ele><time>2012-07-27T11:19:38.0000000+00:00</time></trkpt><trkpt lat="63.74996948" lon="-20.23305512"><ele>24.0</ele><time>2012-07-27T11:19:43.0000000+00:00</time></trkpt><trkpt lat="63.74996948" lon="-20.23305702"><ele>24.0</ele><time>2012-07-27T11:19:48.0000000+00:00</time></trkpt><trkpt lat="63.74996948" lon="-20.23305702"><ele>24.0</ele><time>2012-07-27T11:19:53.0000000+00:00</time></trkpt><trkpt lat="63.74996948" lon="-20.23305893"><ele>24.0</ele><time>2012-07-27T11:19:58.0000000+00:00</time></trkpt><trkpt lat="63.74996948" lon="-20.23305893"><ele>24.1</ele><time>2012-07-27T11:20:03.0000000+00:00</time></trkpt><trkpt lat="63.74996948" lon="-20.23305893"><ele>24.1</ele><time>2012-07-27T11:20:08.0000000+00:00</time></trkpt><trkpt lat="63.74996948" lon="-20.23305893"><ele>24.1</ele><time>2012-07-27T11:20:13.0000000+00:00</time></trkpt><trkpt lat="63.74996948" lon="-20.23306084"><ele>24.1</ele><time>2012-07-27T11:20:18.0000000+00:00</time></trkpt><trkpt lat="63.74996948" lon="-20.23306084"><ele>24.1</ele><time>2012-07-27T11:20:23.0000000+00:00</time></trkpt><trkpt lat="63.74996948" lon="-20.23306084"><ele>24.2</ele><time>2012-07-27T11:20:28.0000000+00:00</time></trkpt><trkpt lat="63.74996948" lon="-20.23306084"><ele>24.2</ele><time>2012-07-27T11:20:33.0000000+00:00</time></trkpt><trkpt lat="63.74996948" lon="-20.23306084"><ele>24.2</ele><time>2012-07-27T11:20:38.0000000+00:00</time></trkpt><trkpt lat="63.74996948" lon="-20.23306084"><ele>24.2</ele><time>2012-07-27T11:20:43.0000000+00:00</time></trkpt><trkpt lat="63.74996948" lon="-20.23306274"><ele>24.2</ele><time>2012-07-27T11:20:48.0000000+00:00</time></trkpt><trkpt lat="63.74996948" lon="-20.23306274"><ele>24.3</ele><time>2012-07-27T11:20:53.0000000+00:00</time></trkpt><trkpt lat="63.74996948" lon="-20.23306274"><ele>24.3</ele><time>2012-07-27T11:20:58.0000000+00:00</time></trkpt><trkpt lat="63.74996948" lon="-20.23306274"><ele>24.3</ele><time>2012-07-27T11:21:03.0000000+00:00</time></trkpt><trkpt lat="63.74996948" lon="-20.23306274"><ele>24.3</ele><time>2012-07-27T11:21:08.0000000+00:00</time></trkpt><trkpt lat="63.74996948" lon="-20.23306465"><ele>24.3</ele><time>2012-07-27T11:21:13.0000000+00:00</time></trkpt><trkpt lat="63.74996948" lon="-20.23306465"><ele>24.3</ele><time>2012-07-27T11:21:18.0000000+00:00</time></trkpt><trkpt lat="63.74996948" lon="-20.23306465"><ele>24.3</ele><time>2012-07-27T11:21:23.0000000+00:00</time></trkpt><trkpt lat="63.74996948" lon="-20.23306465"><ele>24.3</ele><time>2012-07-27T11:21:28.0000000+00:00</time></trkpt><trkpt lat="63.74996948" lon="-20.23306465"><ele>24.3</ele><time>2012-07-27T11:21:33.0000000+00:00</time></trkpt><trkpt lat="63.74996948" lon="-20.23306465"><ele>24.4</ele><time>2012-07-27T11:21:38.0000000+00:00</time></trkpt><trkpt lat="63.74996948" lon="-20.23306465"><ele>24.4</ele><time>2012-07-27T11:21:43.0000000+00:00</time></trkpt><trkpt lat="63.74996948" lon="-20.23306465"><ele>24.4</ele><time>2012-07-27T11:21:48.0000000+00:00</time></trkpt><trkpt lat="63.74996948" lon="-20.23306465"><ele>24.4</ele><time>2012-07-27T11:21:53.0000000+00:00</time></trkpt><trkpt lat="63.74996948" lon="-20.23306465"><ele>24.4</ele><time>2012-07-27T11:21:58.0000000+00:00</time></trkpt><trkpt lat="63.74996948" lon="-20.23306465"><ele>24.4</ele><time>2012-07-27T11:22:03.0000000+00:00</time></trkpt><trkpt lat="63.74996948" lon="-20.23306656"><ele>24.4</ele><time>2012-07-27T11:22:08.0000000+00:00</time></trkpt><trkpt lat="63.74996948" lon="-20.23306656"><ele>24.4</ele><time>2012-07-27T11:22:13.0000000+00:00</time></trkpt><trkpt lat="63.74996948" lon="-20.23306656"><ele>24.4</ele><time>2012-07-27T11:22:18.0000000+00:00</time></trkpt><trkpt lat="63.74996948" lon="-20.23306656"><ele>24.4</ele><time>2012-07-27T11:22:23.0000000+00:00</time></trkpt><trkpt lat="63.74996948" lon="-20.23306656"><ele>24.4</ele><time>2012-07-27T11:22:28.0000000+00:00</time></trkpt><trkpt lat="63.74996948" lon="-20.23306656"><ele>24.5</ele><time>2012-07-27T11:22:33.0000000+00:00</time></trkpt><trkpt lat="63.74996948" lon="-20.23306656"><ele>24.5</ele><time>2012-07-27T11:22:38.0000000+00:00</time></trkpt><trkpt lat="63.74996948" lon="-20.23306656"><ele>24.5</ele><time>2012-07-27T11:22:43.0000000+00:00</time></trkpt><trkpt lat="63.74996948" lon="-20.23306656"><ele>24.5</ele><time>2012-07-27T11:22:48.0000000+00:00</time></trkpt><trkpt lat="63.74996948" lon="-20.23306847"><ele>24.5</ele><time>2012-07-27T11:22:53.0000000+00:00</time></trkpt><trkpt lat="63.74996948" lon="-20.23306847"><ele>24.5</ele><time>2012-07-27T11:22:58.0000000+00:00</time></trkpt><trkpt lat="63.74996948" lon="-20.23306847"><ele>24.5</ele><time>2012-07-27T11:23:03.0000000+00:00</time></trkpt><trkpt lat="63.74996948" lon="-20.23306847"><ele>24.5</ele><time>2012-07-27T11:23:08.0000000+00:00</time></trkpt><trkpt lat="63.74996948" lon="-20.23306847"><ele>24.5</ele><time>2012-07-27T11:23:13.0000000+00:00</time></trkpt><trkpt lat="63.74996948" lon="-20.23306847"><ele>24.6</ele><time>2012-07-27T11:23:18.0000000+00:00</time></trkpt><trkpt lat="63.74996948" lon="-20.23306847"><ele>24.6</ele><time>2012-07-27T11:23:23.0000000+00:00</time></trkpt><trkpt lat="63.74996948" lon="-20.23306847"><ele>24.6</ele><time>2012-07-27T11:23:28.0000000+00:00</time></trkpt><trkpt lat="63.74996948" lon="-20.23306847"><ele>24.6</ele><time>2012-07-27T11:23:33.0000000+00:00</time></trkpt><trkpt lat="63.74996948" lon="-20.23307037"><ele>24.6</ele><time>2012-07-27T11:23:38.0000000+00:00</time></trkpt><trkpt lat="63.7499733" lon="-20.23307037"><ele>24.6</ele><time>2012-07-27T11:23:43.0000000+00:00</time></trkpt><trkpt lat="63.7499733" lon="-20.23307037"><ele>24.6</ele><time>2012-07-27T11:23:48.0000000+00:00</time></trkpt><trkpt lat="63.7499733" lon="-20.23307037"><ele>24.6</ele><time>2012-07-27T11:23:53.0000000+00:00</time></trkpt><trkpt lat="63.7499733" lon="-20.23307037"><ele>24.6</ele><time>2012-07-27T11:23:58.0000000+00:00</time></trkpt><trkpt lat="63.7499733" lon="-20.23307037"><ele>24.6</ele><time>2012-07-27T11:24:03.0000000+00:00</time></trkpt><trkpt lat="63.7499733" lon="-20.23307037"><ele>24.6</ele><time>2012-07-27T11:24:08.0000000+00:00</time></trkpt><trkpt lat="63.7499733" lon="-20.23307037"><ele>24.7</ele><time>2012-07-27T11:24:13.0000000+00:00</time></trkpt><trkpt lat="63.7499733" lon="-20.23307037"><ele>24.7</ele><time>2012-07-27T11:24:18.0000000+00:00</time></trkpt><trkpt lat="63.7499733" lon="-20.23307037"><ele>24.7</ele><time>2012-07-27T11:24:23.0000000+00:00</time></trkpt><trkpt lat="63.7499733" lon="-20.23307037"><ele>24.7</ele><time>2012-07-27T11:24:28.0000000+00:00</time></trkpt><trkpt lat="63.7499733" lon="-20.23307037"><ele>24.7</ele><time>2012-07-27T11:24:33.0000000+00:00</time></trkpt><trkpt lat="63.7499733" lon="-20.23307037"><ele>24.7</ele><time>2012-07-27T11:24:38.0000000+00:00</time></trkpt><trkpt lat="63.7499733" lon="-20.23307228"><ele>24.7</ele><time>2012-07-27T11:24:43.0000000+00:00</time></trkpt><trkpt lat="63.7499733" lon="-20.23307228"><ele>24.7</ele><time>2012-07-27T11:24:48.0000000+00:00</time></trkpt><trkpt lat="63.7499733" lon="-20.23307228"><ele>24.7</ele><time>2012-07-27T11:24:53.0000000+00:00</time></trkpt><trkpt lat="63.7499733" lon="-20.23307228"><ele>24.7</ele><time>2012-07-27T11:24:58.0000000+00:00</time></trkpt><trkpt lat="63.7499733" lon="-20.23307228"><ele>24.7</ele><time>2012-07-27T11:25:03.0000000+00:00</time></trkpt><trkpt lat="63.7499733" lon="-20.23307228"><ele>24.8</ele><time>2012-07-27T11:25:08.0000000+00:00</time></trkpt><trkpt lat="63.7499733" lon="-20.23307228"><ele>24.8</ele><time>2012-07-27T11:25:13.0000000+00:00</time></trkpt><trkpt lat="63.7499733" lon="-20.23307228"><ele>24.8</ele><time>2012-07-27T11:25:18.0000000+00:00</time></trkpt><trkpt lat="63.7499733" lon="-20.23307228"><ele>24.8</ele><time>2012-07-27T11:25:23.0000000+00:00</time></trkpt><trkpt lat="63.7499733" lon="-20.23307419"><ele>24.8</ele><time>2012-07-27T11:25:28.0000000+00:00</time></trkpt><trkpt lat="63.7499733" lon="-20.23307419"><ele>24.8</ele><time>2012-07-27T11:25:33.0000000+00:00</time></trkpt><trkpt lat="63.7499733" lon="-20.23307419"><ele>24.9</ele><time>2012-07-27T11:25:38.0000000+00:00</time></trkpt><trkpt lat="63.7499733" lon="-20.23307419"><ele>24.9</ele><time>2012-07-27T11:25:43.0000000+00:00</time></trkpt><trkpt lat="63.7499733" lon="-20.23307419"><ele>24.9</ele><time>2012-07-27T11:25:48.0000000+00:00</time></trkpt><trkpt lat="63.7499733" lon="-20.23307419"><ele>24.9</ele><time>2012-07-27T11:25:53.0000000+00:00</time></trkpt><trkpt lat="63.7499733" lon="-20.23307419"><ele>24.9</ele><time>2012-07-27T11:25:58.0000000+00:00</time></trkpt><trkpt lat="63.7499733" lon="-20.23307419"><ele>24.9</ele><time>2012-07-27T11:26:03.0000000+00:00</time></trkpt><trkpt lat="63.7499733" lon="-20.23307419"><ele>25.0</ele><time>2012-07-27T11:26:08.0000000+00:00</time></trkpt><trkpt lat="63.7499733" lon="-20.23307419"><ele>25.0</ele><time>2012-07-27T11:26:13.0000000+00:00</time></trkpt><trkpt lat="63.7499733" lon="-20.23307419"><ele>25.0</ele><time>2012-07-27T11:26:18.0000000+00:00</time></trkpt><trkpt lat="63.7499733" lon="-20.23307419"><ele>25.1</ele><time>2012-07-27T11:26:23.0000000+00:00</time></trkpt><trkpt lat="63.7499733" lon="-20.23307419"><ele>25.1</ele><time>2012-07-27T11:26:28.0000000+00:00</time></trkpt><trkpt lat="63.7499733" lon="-20.23307419"><ele>25.1</ele><time>2012-07-27T11:26:33.0000000+00:00</time></trkpt><trkpt lat="63.7499733" lon="-20.23307419"><ele>25.2</ele><time>2012-07-27T11:26:38.0000000+00:00</time></trkpt><trkpt lat="63.7499733" lon="-20.23307419"><ele>25.2</ele><time>2012-07-27T11:26:43.0000000+00:00</time></trkpt><trkpt lat="63.7499733" lon="-20.23307419"><ele>25.2</ele><time>2012-07-27T11:26:48.0000000+00:00</time></trkpt><trkpt lat="63.7499733" lon="-20.23307419"><ele>25.2</ele><time>2012-07-27T11:26:53.0000000+00:00</time></trkpt><trkpt lat="63.7499733" lon="-20.23307228"><ele>25.3</ele><time>2012-07-27T11:26:58.0000000+00:00</time></trkpt><trkpt lat="63.7499733" lon="-20.23307228"><ele>25.3</ele><time>2012-07-27T11:27:03.0000000+00:00</time></trkpt><trkpt lat="63.7499733" lon="-20.23307228"><ele>25.3</ele><time>2012-07-27T11:27:08.0000000+00:00</time></trkpt><trkpt lat="63.7499733" lon="-20.23307228"><ele>25.3</ele><time>2012-07-27T11:27:13.0000000+00:00</time></trkpt><trkpt lat="63.7499733" lon="-20.23307228"><ele>25.4</ele><time>2012-07-27T11:27:18.0000000+00:00</time></trkpt><trkpt lat="63.7499733" lon="-20.23307228"><ele>25.4</ele><time>2012-07-27T11:27:23.0000000+00:00</time></trkpt><trkpt lat="63.7499733" lon="-20.23307228"><ele>25.4</ele><time>2012-07-27T11:27:28.0000000+00:00</time></trkpt><trkpt lat="63.7499733" lon="-20.23307228"><ele>25.4</ele><time>2012-07-27T11:27:33.0000000+00:00</time></trkpt><trkpt lat="63.7499733" lon="-20.23307228"><ele>25.5</ele><time>2012-07-27T11:27:38.0000000+00:00</time></trkpt><trkpt lat="63.7499733" lon="-20.23307228"><ele>25.5</ele><time>2012-07-27T11:27:43.0000000+00:00</time></trkpt><trkpt lat="63.7499733" lon="-20.23307228"><ele>25.5</ele><time>2012-07-27T11:27:48.0000000+00:00</time></trkpt><trkpt lat="63.7499733" lon="-20.23307228"><ele>25.5</ele><time>2012-07-27T11:27:53.0000000+00:00</time></trkpt><trkpt lat="63.7499733" lon="-20.23307228"><ele>25.6</ele><time>2012-07-27T11:27:58.0000000+00:00</time></trkpt><trkpt lat="63.7499733" lon="-20.23307037"><ele>25.6</ele><time>2012-07-27T11:28:03.0000000+00:00</time></trkpt><trkpt lat="63.7499733" lon="-20.23307037"><ele>25.6</ele><time>2012-07-27T11:28:08.0000000+00:00</time></trkpt><trkpt lat="63.7499733" lon="-20.23307037"><ele>25.6</ele><time>2012-07-27T11:28:13.0000000+00:00</time></trkpt><trkpt lat="63.7499733" lon="-20.23307037"><ele>25.6</ele><time>2012-07-27T11:28:18.0000000+00:00</time></trkpt><trkpt lat="63.7499733" lon="-20.23307037"><ele>25.7</ele><time>2012-07-27T11:28:23.0000000+00:00</time></trkpt><trkpt lat="63.7499733" lon="-20.23307037"><ele>25.7</ele><time>2012-07-27T11:28:28.0000000+00:00</time></trkpt><trkpt lat="63.7499733" lon="-20.23307037"><ele>25.7</ele><time>2012-07-27T11:28:33.0000000+00:00</time></trkpt><trkpt lat="63.7499733" lon="-20.23307037"><ele>25.7</ele><time>2012-07-27T11:28:38.0000000+00:00</time></trkpt><trkpt lat="63.74997711" lon="-20.23307037"><ele>25.8</ele><time>2012-07-27T11:28:43.0000000+00:00</time></trkpt><trkpt lat="63.74997711" lon="-20.23307037"><ele>25.8</ele><time>2012-07-27T11:28:48.0000000+00:00</time></trkpt><trkpt lat="63.74997711" lon="-20.23307037"><ele>25.8</ele><time>2012-07-27T11:28:53.0000000+00:00</time></trkpt><trkpt lat="63.74997711" lon="-20.23307037"><ele>25.8</ele><time>2012-07-27T11:28:58.0000000+00:00</time></trkpt><trkpt lat="63.74997711" lon="-20.23307228"><ele>25.9</ele><time>2012-07-27T11:29:03.0000000+00:00</time></trkpt><trkpt lat="63.74997711" lon="-20.23307228"><ele>25.9</ele><time>2012-07-27T11:29:08.0000000+00:00</time></trkpt><trkpt lat="63.74997711" lon="-20.23307228"><ele>25.9</ele><time>2012-07-27T11:29:13.0000000+00:00</time></trkpt><trkpt lat="63.74997711" lon="-20.23307228"><ele>25.9</ele><time>2012-07-27T11:29:18.0000000+00:00</time></trkpt><trkpt lat="63.74997711" lon="-20.23307228"><ele>26.0</ele><time>2012-07-27T11:29:23.0000000+00:00</time></trkpt><trkpt lat="63.74997711" lon="-20.23307228"><ele>26.0</ele><time>2012-07-27T11:29:28.0000000+00:00</time></trkpt><trkpt lat="63.74997711" lon="-20.23307228"><ele>26.0</ele><time>2012-07-27T11:29:33.0000000+00:00</time></trkpt><trkpt lat="63.74997711" lon="-20.23307228"><ele>26.0</ele><time>2012-07-27T11:29:38.0000000+00:00</time></trkpt><trkpt lat="63.74997711" lon="-20.23307228"><ele>26.0</ele><time>2012-07-27T11:29:43.0000000+00:00</time></trkpt><trkpt lat="63.74997711" lon="-20.23307228"><ele>26.1</ele><time>2012-07-27T11:29:48.0000000+00:00</time></trkpt><trkpt lat="63.74997711" lon="-20.23307228"><ele>26.1</ele><time>2012-07-27T11:29:53.0000000+00:00</time></trkpt><trkpt lat="63.74997711" lon="-20.23307419"><ele>26.1</ele><time>2012-07-27T11:29:58.0000000+00:00</time></trkpt><trkpt lat="63.74997711" lon="-20.23307419"><ele>26.1</ele><time>2012-07-27T11:30:03.0000000+00:00</time></trkpt><trkpt lat="63.74997711" lon="-20.23307419"><ele>26.2</ele><time>2012-07-27T11:30:08.0000000+00:00</time></trkpt><trkpt lat="63.74997711" lon="-20.23307419"><ele>26.2</ele><time>2012-07-27T11:30:13.0000000+00:00</time></trkpt><trkpt lat="63.74997711" lon="-20.23307419"><ele>26.2</ele><time>2012-07-27T11:30:18.0000000+00:00</time></trkpt><trkpt lat="63.74997711" lon="-20.23307419"><ele>26.2</ele><time>2012-07-27T11:30:23.0000000+00:00</time></trkpt><trkpt lat="63.74997711" lon="-20.23307419"><ele>26.2</ele><time>2012-07-27T11:30:28.0000000+00:00</time></trkpt><trkpt lat="63.74997711" lon="-20.23307419"><ele>26.3</ele><time>2012-07-27T11:30:33.0000000+00:00</time></trkpt><trkpt lat="63.74997711" lon="-20.23307419"><ele>26.3</ele><time>2012-07-27T11:30:38.0000000+00:00</time></trkpt><trkpt lat="63.74998093" lon="-20.23307419"><ele>26.3</ele><time>2012-07-27T11:30:43.0000000+00:00</time></trkpt><trkpt lat="63.74998093" lon="-20.2330761"><ele>26.3</ele><time>2012-07-27T11:30:48.0000000+00:00</time></trkpt><trkpt lat="63.74998093" lon="-20.2330761"><ele>26.3</ele><time>2012-07-27T11:30:53.0000000+00:00</time></trkpt><trkpt lat="63.74998093" lon="-20.2330761"><ele>26.3</ele><time>2012-07-27T11:30:58.0000000+00:00</time></trkpt><trkpt lat="63.74998093" lon="-20.2330761"><ele>26.4</ele><time>2012-07-27T11:31:03.0000000+00:00</time></trkpt><trkpt lat="63.74998093" lon="-20.2330761"><ele>26.4</ele><time>2012-07-27T11:31:08.0000000+00:00</time></trkpt><trkpt lat="63.74998093" lon="-20.2330761"><ele>26.4</ele><time>2012-07-27T11:31:13.0000000+00:00</time></trkpt><trkpt lat="63.74998093" lon="-20.2330761"><ele>26.4</ele><time>2012-07-27T11:31:18.0000000+00:00</time></trkpt><trkpt lat="63.74998093" lon="-20.2330761"><ele>26.4</ele><time>2012-07-27T11:31:23.0000000+00:00</time></trkpt><trkpt lat="63.74998093" lon="-20.2330761"><ele>26.4</ele><time>2012-07-27T11:31:28.0000000+00:00</time></trkpt><trkpt lat="63.74998093" lon="-20.2330761"><ele>26.4</ele><time>2012-07-27T11:31:33.0000000+00:00</time></trkpt><trkpt lat="63.74998093" lon="-20.2330761"><ele>26.4</ele><time>2012-07-27T11:31:38.0000000+00:00</time></trkpt><trkpt lat="63.74998093" lon="-20.2330761"><ele>26.4</ele><time>2012-07-27T11:31:43.0000000+00:00</time></trkpt><trkpt lat="63.74998093" lon="-20.2330761"><ele>26.4</ele><time>2012-07-27T11:31:48.0000000+00:00</time></trkpt><trkpt lat="63.74998093" lon="-20.2330761"><ele>26.5</ele><time>2012-07-27T11:31:53.0000000+00:00</time></trkpt><trkpt lat="63.74998093" lon="-20.2330761"><ele>26.5</ele><time>2012-07-27T11:31:58.0000000+00:00</time></trkpt><trkpt lat="63.74998093" lon="-20.2330761"><ele>26.5</ele><time>2012-07-27T11:32:03.0000000+00:00</time></trkpt><trkpt lat="63.74998093" lon="-20.2330761"><ele>26.5</ele><time>2012-07-27T11:32:08.0000000+00:00</time></trkpt><trkpt lat="63.74998093" lon="-20.2330761"><ele>26.5</ele><time>2012-07-27T11:32:13.0000000+00:00</time></trkpt><trkpt lat="63.74998093" lon="-20.2330761"><ele>26.5</ele><time>2012-07-27T11:32:18.0000000+00:00</time></trkpt><trkpt lat="63.74998093" lon="-20.2330761"><ele>26.5</ele><time>2012-07-27T11:32:23.0000000+00:00</time></trkpt><trkpt lat="63.74998093" lon="-20.2330761"><ele>26.5</ele><time>2012-07-27T11:32:28.0000000+00:00</time></trkpt><trkpt lat="63.74998093" lon="-20.2330761"><ele>26.5</ele><time>2012-07-27T11:32:33.0000000+00:00</time></trkpt><trkpt lat="63.74998093" lon="-20.2330761"><ele>26.5</ele><time>2012-07-27T11:32:38.0000000+00:00</time></trkpt><trkpt lat="63.74998093" lon="-20.2330761"><ele>26.5</ele><time>2012-07-27T11:32:43.0000000+00:00</time></trkpt><trkpt lat="63.74998093" lon="-20.2330761"><ele>26.5</ele><time>2012-07-27T11:32:48.0000000+00:00</time></trkpt><trkpt lat="63.74998093" lon="-20.233078"><ele>26.6</ele><time>2012-07-27T11:32:53.0000000+00:00</time></trkpt><trkpt lat="63.74998093" lon="-20.233078"><ele>26.6</ele><time>2012-07-27T11:32:58.0000000+00:00</time></trkpt><trkpt lat="63.74998093" lon="-20.233078"><ele>26.6</ele><time>2012-07-27T11:33:03.0000000+00:00</time></trkpt><trkpt lat="63.74998093" lon="-20.233078"><ele>26.6</ele><time>2012-07-27T11:33:08.0000000+00:00</time></trkpt><trkpt lat="63.74998093" lon="-20.233078"><ele>26.6</ele><time>2012-07-27T11:33:13.0000000+00:00</time></trkpt><trkpt lat="63.74998093" lon="-20.233078"><ele>26.6</ele><time>2012-07-27T11:33:18.0000000+00:00</time></trkpt><trkpt lat="63.74998093" lon="-20.233078"><ele>26.6</ele><time>2012-07-27T11:33:23.0000000+00:00</time></trkpt><trkpt lat="63.74998093" lon="-20.233078"><ele>26.6</ele><time>2012-07-27T11:33:28.0000000+00:00</time></trkpt><trkpt lat="63.74998093" lon="-20.2330761"><ele>26.6</ele><time>2012-07-27T11:33:33.0000000+00:00</time></trkpt><trkpt lat="63.74998093" lon="-20.2330761"><ele>26.6</ele><time>2012-07-27T11:33:38.0000000+00:00</time></trkpt><trkpt lat="63.74998093" lon="-20.2330761"><ele>26.6</ele><time>2012-07-27T11:33:43.0000000+00:00</time></trkpt><trkpt lat="63.74998093" lon="-20.2330761"><ele>26.6</ele><time>2012-07-27T11:33:48.0000000+00:00</time></trkpt><trkpt lat="63.74998093" lon="-20.2330761"><ele>26.6</ele><time>2012-07-27T11:33:53.0000000+00:00</time></trkpt><trkpt lat="63.74998093" lon="-20.2330761"><ele>26.6</ele><time>2012-07-27T11:33:58.0000000+00:00</time></trkpt><trkpt lat="63.74998093" lon="-20.233078"><ele>26.6</ele><time>2012-07-27T11:34:03.0000000+00:00</time></trkpt><trkpt lat="63.74998093" lon="-20.233078"><ele>26.6</ele><time>2012-07-27T11:34:08.0000000+00:00</time></trkpt><trkpt lat="63.74998093" lon="-20.233078"><ele>26.6</ele><time>2012-07-27T11:34:13.0000000+00:00</time></trkpt><trkpt lat="63.74998093" lon="-20.233078"><ele>26.6</ele><time>2012-07-27T11:34:18.0000000+00:00</time></trkpt><trkpt lat="63.74998093" lon="-20.233078"><ele>26.6</ele><time>2012-07-27T11:34:23.0000000+00:00</time></trkpt><trkpt lat="63.74998093" lon="-20.233078"><ele>26.6</ele><time>2012-07-27T11:34:28.0000000+00:00</time></trkpt><trkpt lat="63.74998093" lon="-20.233078"><ele>26.7</ele><time>2012-07-27T11:34:33.0000000+00:00</time></trkpt><trkpt lat="63.74998093" lon="-20.233078"><ele>26.7</ele><time>2012-07-27T11:34:38.0000000+00:00</time></trkpt><trkpt lat="63.74998093" lon="-20.233078"><ele>26.7</ele><time>2012-07-27T11:34:43.0000000+00:00</time></trkpt><trkpt lat="63.74998093" lon="-20.233078"><ele>26.7</ele><time>2012-07-27T11:34:48.0000000+00:00</time></trkpt><trkpt lat="63.74998093" lon="-20.233078"><ele>26.7</ele><time>2012-07-27T11:34:53.0000000+00:00</time></trkpt><trkpt lat="63.7499733" lon="-20.23307037"><ele>27.1</ele><time>2012-07-27T11:34:58.0000000+00:00</time></trkpt><trkpt lat="63.7499733" lon="-20.23307037"><ele>27.2</ele><time>2012-07-27T11:35:03.0000000+00:00</time></trkpt><trkpt lat="63.7499733" lon="-20.23307037"><ele>27.2</ele><time>2012-07-27T11:35:08.0000000+00:00</time></trkpt><trkpt lat="63.7499733" lon="-20.23307037"><ele>27.2</ele><time>2012-07-27T11:35:13.0000000+00:00</time></trkpt><trkpt lat="63.7499733" lon="-20.23307228"><ele>27.2</ele><time>2012-07-27T11:35:18.0000000+00:00</time></trkpt><trkpt lat="63.7499733" lon="-20.23307228"><ele>27.3</ele><time>2012-07-27T11:35:23.0000000+00:00</time></trkpt><trkpt lat="63.7499733" lon="-20.23307037"><ele>27.3</ele><time>2012-07-27T11:35:28.0000000+00:00</time></trkpt><trkpt lat="63.74994659" lon="-20.23303604"><ele>27.2</ele><time>2012-07-27T11:35:33.0000000+00:00</time></trkpt><trkpt lat="63.74992371" lon="-20.23302651"><ele>26.6</ele><time>2012-07-27T11:35:38.0000000+00:00</time></trkpt><trkpt lat="63.74992371" lon="-20.2330246"><ele>25.1</ele><time>2012-07-27T11:35:43.0000000+00:00</time></trkpt><trkpt lat="63.74992752" lon="-20.23302078"><ele>24.1</ele><time>2012-07-27T11:35:48.0000000+00:00</time></trkpt><trkpt lat="63.74992752" lon="-20.23302269"><ele>23.6</ele><time>2012-07-27T11:35:53.0000000+00:00</time></trkpt><trkpt lat="63.74992371" lon="-20.23302841"><ele>23.6</ele><time>2012-07-27T11:35:58.0000000+00:00</time></trkpt><trkpt lat="63.74992371" lon="-20.23303032"><ele>23.7</ele><time>2012-07-27T11:36:03.0000000+00:00</time></trkpt><trkpt lat="63.74992371" lon="-20.23303223"><ele>23.7</ele><time>2012-07-27T11:36:08.0000000+00:00</time></trkpt><trkpt lat="63.74992371" lon="-20.23303223"><ele>23.7</ele><time>2012-07-27T11:36:13.0000000+00:00</time></trkpt><trkpt lat="63.74992371" lon="-20.23303413"><ele>23.7</ele><time>2012-07-27T11:36:18.0000000+00:00</time></trkpt><trkpt lat="63.74992371" lon="-20.23303413"><ele>23.7</ele><time>2012-07-27T11:36:23.0000000+00:00</time></trkpt><trkpt lat="63.74996185" lon="-20.23318291"><ele>24.7</ele><time>2012-07-27T11:36:28.0000000+00:00</time></trkpt><trkpt lat="63.75003433" lon="-20.23336792"><ele>25.1</ele><time>2012-07-27T11:36:33.0000000+00:00</time></trkpt><trkpt lat="63.75013733" lon="-20.23356628"><ele>25.2</ele><time>2012-07-27T11:36:38.0000000+00:00</time></trkpt><trkpt lat="63.75024796" lon="-20.23374558"><ele>26.1</ele><time>2012-07-27T11:36:43.0000000+00:00</time></trkpt><trkpt lat="63.75033951" lon="-20.23397446"><ele>26.7</ele><time>2012-07-27T11:36:48.0000000+00:00</time></trkpt><trkpt lat="63.75047302" lon="-20.23418617"><ele>27.6</ele><time>2012-07-27T11:36:53.0000000+00:00</time></trkpt><trkpt lat="63.75061417" lon="-20.23439789"><ele>28.6</ele><time>2012-07-27T11:36:58.0000000+00:00</time></trkpt><trkpt lat="63.75076675" lon="-20.23461533"><ele>29.6</ele><time>2012-07-27T11:37:03.0000000+00:00</time></trkpt><trkpt lat="63.75091553" lon="-20.2348423"><ele>30.4</ele><time>2012-07-27T11:37:08.0000000+00:00</time></trkpt><trkpt lat="63.75106049" lon="-20.23507118"><ele>29.8</ele><time>2012-07-27T11:37:13.0000000+00:00</time></trkpt><trkpt lat="63.75121307" lon="-20.23527908"><ele>30.4</ele><time>2012-07-27T11:37:18.0000000+00:00</time></trkpt><trkpt lat="63.75136566" lon="-20.23550797"><ele>31.2</ele><time>2012-07-27T11:37:23.0000000+00:00</time></trkpt><trkpt lat="63.75151444" lon="-20.23575783"><ele>31.4</ele><time>2012-07-27T11:37:28.0000000+00:00</time></trkpt><trkpt lat="63.75167465" lon="-20.23600578"><ele>31.8</ele><time>2012-07-27T11:37:33.0000000+00:00</time></trkpt><trkpt lat="63.75182343" lon="-20.23621178"><ele>32.7</ele><time>2012-07-27T11:37:38.0000000+00:00</time></trkpt><trkpt lat="63.75196838" lon="-20.23644638"><ele>33.0</ele><time>2012-07-27T11:37:43.0000000+00:00</time></trkpt><trkpt lat="63.75211716" lon="-20.2366848"><ele>34.0</ele><time>2012-07-27T11:37:48.0000000+00:00</time></trkpt><trkpt lat="63.75225449" lon="-20.23694992"><ele>34.4</ele><time>2012-07-27T11:37:53.0000000+00:00</time></trkpt><trkpt lat="63.75239563" lon="-20.23717499"><ele>34.9</ele><time>2012-07-27T11:37:58.0000000+00:00</time></trkpt><trkpt lat="63.75252914" lon="-20.23736954"><ele>35.5</ele><time>2012-07-27T11:38:03.0000000+00:00</time></trkpt><trkpt lat="63.7526474" lon="-20.23755264"><ele>36.2</ele><time>2012-07-27T11:38:08.0000000+00:00</time></trkpt><trkpt lat="63.75278473" lon="-20.23775482"><ele>36.3</ele><time>2012-07-27T11:38:13.0000000+00:00</time></trkpt><trkpt lat="63.75294113" lon="-20.23797798"><ele>36.5</ele><time>2012-07-27T11:38:18.0000000+00:00</time></trkpt><trkpt lat="63.75310898" lon="-20.23820686"><ele>37.0</ele><time>2012-07-27T11:38:23.0000000+00:00</time></trkpt><trkpt lat="63.75326538" lon="-20.238451"><ele>37.3</ele><time>2012-07-27T11:38:28.0000000+00:00</time></trkpt><trkpt lat="63.75343704" lon="-20.23871613"><ele>37.7</ele><time>2012-07-27T11:38:33.0000000+00:00</time></trkpt><trkpt lat="63.75359726" lon="-20.23897171"><ele>38.2</ele><time>2012-07-27T11:38:38.0000000+00:00</time></trkpt><trkpt lat="63.75376511" lon="-20.2392292"><ele>38.5</ele><time>2012-07-27T11:38:43.0000000+00:00</time></trkpt><trkpt lat="63.75393295" lon="-20.23950195"><ele>39.1</ele><time>2012-07-27T11:38:48.0000000+00:00</time></trkpt><trkpt lat="63.75409699" lon="-20.23975754"><ele>39.3</ele><time>2012-07-27T11:38:53.0000000+00:00</time></trkpt><trkpt lat="63.75426483" lon="-20.24001885"><ele>39.4</ele><time>2012-07-27T11:38:58.0000000+00:00</time></trkpt><trkpt lat="63.75444794" lon="-20.24028587"><ele>39.5</ele><time>2012-07-27T11:39:03.0000000+00:00</time></trkpt><trkpt lat="63.75462723" lon="-20.24056435"><ele>39.7</ele><time>2012-07-27T11:39:08.0000000+00:00</time></trkpt><trkpt lat="63.75479507" lon="-20.24083519"><ele>40.3</ele><time>2012-07-27T11:39:13.0000000+00:00</time></trkpt><trkpt lat="63.75495148" lon="-20.24110031"><ele>40.1</ele><time>2012-07-27T11:39:18.0000000+00:00</time></trkpt><trkpt lat="63.75511551" lon="-20.24135399"><ele>40.0</ele><time>2012-07-27T11:39:23.0000000+00:00</time></trkpt><trkpt lat="63.75525665" lon="-20.24157906"><ele>39.8</ele><time>2012-07-27T11:39:28.0000000+00:00</time></trkpt><trkpt lat="63.75540161" lon="-20.24181366"><ele>39.0</ele><time>2012-07-27T11:39:33.0000000+00:00</time></trkpt><trkpt lat="63.75555801" lon="-20.24206924"><ele>38.5</ele><time>2012-07-27T11:39:38.0000000+00:00</time></trkpt><trkpt lat="63.75571823" lon="-20.2423439"><ele>37.8</ele><time>2012-07-27T11:39:43.0000000+00:00</time></trkpt><trkpt lat="63.75588608" lon="-20.24261284"><ele>37.3</ele><time>2012-07-27T11:39:48.0000000+00:00</time></trkpt><trkpt lat="63.75605393" lon="-20.24287605"><ele>37.3</ele><time>2012-07-27T11:39:53.0000000+00:00</time></trkpt><trkpt lat="63.7562294" lon="-20.24315834"><ele>36.6</ele><time>2012-07-27T11:39:58.0000000+00:00</time></trkpt><trkpt lat="63.75640106" lon="-20.24343109"><ele>35.7</ele><time>2012-07-27T11:40:03.0000000+00:00</time></trkpt><trkpt lat="63.75658035" lon="-20.24371338"><ele>35.3</ele><time>2012-07-27T11:40:08.0000000+00:00</time></trkpt><trkpt lat="63.75676346" lon="-20.24400139"><ele>34.8</ele><time>2012-07-27T11:40:13.0000000+00:00</time></trkpt><trkpt lat="63.75693893" lon="-20.24428749"><ele>34.4</ele><time>2012-07-27T11:40:18.0000000+00:00</time></trkpt><trkpt lat="63.75712204" lon="-20.2445755"><ele>33.8</ele><time>2012-07-27T11:40:23.0000000+00:00</time></trkpt><trkpt lat="63.75730515" lon="-20.24485397"><ele>33.4</ele><time>2012-07-27T11:40:28.0000000+00:00</time></trkpt><trkpt lat="63.75748062" lon="-20.24513626"><ele>32.7</ele><time>2012-07-27T11:40:33.0000000+00:00</time></trkpt><trkpt lat="63.7576561" lon="-20.24542046"><ele>32.2</ele><time>2012-07-27T11:40:38.0000000+00:00</time></trkpt><trkpt lat="63.75783539" lon="-20.24571419"><ele>31.1</ele><time>2012-07-27T11:40:43.0000000+00:00</time></trkpt><trkpt lat="63.75801086" lon="-20.24601555"><ele>30.0</ele><time>2012-07-27T11:40:48.0000000+00:00</time></trkpt><trkpt lat="63.75819016" lon="-20.24630928"><ele>29.7</ele><time>2012-07-27T11:40:53.0000000+00:00</time></trkpt><trkpt lat="63.75836182" lon="-20.24661827"><ele>29.1</ele><time>2012-07-27T11:40:58.0000000+00:00</time></trkpt><trkpt lat="63.75852966" lon="-20.24691963"><ele>28.9</ele><time>2012-07-27T11:41:03.0000000+00:00</time></trkpt><trkpt lat="63.7586937" lon="-20.24723816"><ele>28.5</ele><time>2012-07-27T11:41:08.0000000+00:00</time></trkpt><trkpt lat="63.75886917" lon="-20.24755096"><ele>28.2</ele><time>2012-07-27T11:41:13.0000000+00:00</time></trkpt><trkpt lat="63.75904083" lon="-20.24786949"><ele>28.0</ele><time>2012-07-27T11:41:18.0000000+00:00</time></trkpt><trkpt lat="63.75919342" lon="-20.24817658"><ele>27.8</ele><time>2012-07-27T11:41:23.0000000+00:00</time></trkpt><trkpt lat="63.75934601" lon="-20.24848557"><ele>27.6</ele><time>2012-07-27T11:41:28.0000000+00:00</time></trkpt><trkpt lat="63.7594986" lon="-20.248806"><ele>27.5</ele><time>2012-07-27T11:41:33.0000000+00:00</time></trkpt><trkpt lat="63.75964737" lon="-20.2491169"><ele>27.4</ele><time>2012-07-27T11:41:38.0000000+00:00</time></trkpt><trkpt lat="63.75977707" lon="-20.24939728"><ele>27.2</ele><time>2012-07-27T11:41:43.0000000+00:00</time></trkpt><trkpt lat="63.75989914" lon="-20.24964905"><ele>27.4</ele><time>2012-07-27T11:41:48.0000000+00:00</time></trkpt><trkpt lat="63.76003265" lon="-20.24991798"><ele>27.3</ele><time>2012-07-27T11:41:53.0000000+00:00</time></trkpt><trkpt lat="63.76016235" lon="-20.2502079"><ele>27.1</ele><time>2012-07-27T11:41:58.0000000+00:00</time></trkpt><trkpt lat="63.76030731" lon="-20.2505188"><ele>27.1</ele><time>2012-07-27T11:42:03.0000000+00:00</time></trkpt><trkpt lat="63.76046753" lon="-20.25084686"><ele>27.0</ele><time>2012-07-27T11:42:08.0000000+00:00</time></trkpt><trkpt lat="63.76062012" lon="-20.25116158"><ele>27.2</ele><time>2012-07-27T11:42:13.0000000+00:00</time></trkpt><trkpt lat="63.76076126" lon="-20.25145531"><ele>27.1</ele><time>2012-07-27T11:42:18.0000000+00:00</time></trkpt><trkpt lat="63.76090622" lon="-20.25175476"><ele>28.2</ele><time>2012-07-27T11:42:23.0000000+00:00</time></trkpt><trkpt lat="63.76105499" lon="-20.25202751"><ele>29.6</ele><time>2012-07-27T11:42:28.0000000+00:00</time></trkpt><trkpt lat="63.76119995" lon="-20.25232124"><ele>30.6</ele><time>2012-07-27T11:42:33.0000000+00:00</time></trkpt><trkpt lat="63.76132202" lon="-20.25260162"><ele>30.2</ele><time>2012-07-27T11:42:38.0000000+00:00</time></trkpt><trkpt lat="63.76145172" lon="-20.25288391"><ele>30.3</ele><time>2012-07-27T11:42:43.0000000+00:00</time></trkpt><trkpt lat="63.76159287" lon="-20.25317001"><ele>31.2</ele><time>2012-07-27T11:42:48.0000000+00:00</time></trkpt><trkpt lat="63.76171112" lon="-20.25343704"><ele>31.6</ele><time>2012-07-27T11:42:53.0000000+00:00</time></trkpt><trkpt lat="63.76182175" lon="-20.25371552"><ele>31.5</ele><time>2012-07-27T11:42:58.0000000+00:00</time></trkpt><trkpt lat="63.76195526" lon="-20.25400543"><ele>31.6</ele><time>2012-07-27T11:43:03.0000000+00:00</time></trkpt><trkpt lat="63.76210022" lon="-20.25428581"><ele>31.9</ele><time>2012-07-27T11:43:08.0000000+00:00</time></trkpt><trkpt lat="63.76224136" lon="-20.25457001"><ele>32.0</ele><time>2012-07-27T11:43:13.0000000+00:00</time></trkpt><trkpt lat="63.76237106" lon="-20.25483513"><ele>31.7</ele><time>2012-07-27T11:43:18.0000000+00:00</time></trkpt><trkpt lat="63.76248932" lon="-20.25509071"><ele>31.7</ele><time>2012-07-27T11:43:23.0000000+00:00</time></trkpt><trkpt lat="63.7626152" lon="-20.25536537"><ele>33.3</ele><time>2012-07-27T11:43:28.0000000+00:00</time></trkpt><trkpt lat="63.76273727" lon="-20.25564957"><ele>33.4</ele><time>2012-07-27T11:43:33.0000000+00:00</time></trkpt><trkpt lat="63.7628746" lon="-20.25596428"><ele>33.3</ele><time>2012-07-27T11:43:38.0000000+00:00</time></trkpt><trkpt lat="63.76300049" lon="-20.25623894"><ele>32.6</ele><time>2012-07-27T11:43:43.0000000+00:00</time></trkpt><trkpt lat="63.76312256" lon="-20.2565155"><ele>32.2</ele><time>2012-07-27T11:43:48.0000000+00:00</time></trkpt><trkpt lat="63.76327133" lon="-20.25682259"><ele>32.0</ele><time>2012-07-27T11:43:53.0000000+00:00</time></trkpt><trkpt lat="63.76342773" lon="-20.257164"><ele>31.8</ele><time>2012-07-27T11:43:58.0000000+00:00</time></trkpt><trkpt lat="63.76358414" lon="-20.25751877"><ele>31.4</ele><time>2012-07-27T11:44:03.0000000+00:00</time></trkpt><trkpt lat="63.76375198" lon="-20.25787926"><ele>31.5</ele><time>2012-07-27T11:44:08.0000000+00:00</time></trkpt><trkpt lat="63.76392365" lon="-20.25823402"><ele>31.4</ele><time>2012-07-27T11:44:13.0000000+00:00</time></trkpt><trkpt lat="63.76408768" lon="-20.2585907"><ele>31.1</ele><time>2012-07-27T11:44:18.0000000+00:00</time></trkpt><trkpt lat="63.76425171" lon="-20.25894165"><ele>31.4</ele><time>2012-07-27T11:44:23.0000000+00:00</time></trkpt><trkpt lat="63.76441574" lon="-20.2592926"><ele>31.6</ele><time>2012-07-27T11:44:28.0000000+00:00</time></trkpt><trkpt lat="63.76457977" lon="-20.25964356"><ele>31.7</ele><time>2012-07-27T11:44:33.0000000+00:00</time></trkpt><trkpt lat="63.76475143" lon="-20.25998688"><ele>31.6</ele><time>2012-07-27T11:44:38.0000000+00:00</time></trkpt><trkpt lat="63.76489639" lon="-20.26031113"><ele>31.2</ele><time>2012-07-27T11:44:43.0000000+00:00</time></trkpt><trkpt lat="63.76503754" lon="-20.2606144"><ele>28.6</ele><time>2012-07-27T11:44:48.0000000+00:00</time></trkpt><trkpt lat="63.76519013" lon="-20.26092529"><ele>29.0</ele><time>2012-07-27T11:44:53.0000000+00:00</time></trkpt><trkpt lat="63.76531601" lon="-20.26119804"><ele>28.9</ele><time>2012-07-27T11:44:58.0000000+00:00</time></trkpt><trkpt lat="63.76543045" lon="-20.26143646"><ele>28.9</ele><time>2012-07-27T11:45:03.0000000+00:00</time></trkpt><trkpt lat="63.76550674" lon="-20.26160431"><ele>29.5</ele><time>2012-07-27T11:45:08.0000000+00:00</time></trkpt><trkpt lat="63.76560211" lon="-20.26180458"><ele>29.6</ele><time>2012-07-27T11:45:13.0000000+00:00</time></trkpt><trkpt lat="63.76573563" lon="-20.26209641"><ele>29.6</ele><time>2012-07-27T11:45:18.0000000+00:00</time></trkpt><trkpt lat="63.76588059" lon="-20.26240158"><ele>30.2</ele><time>2012-07-27T11:45:23.0000000+00:00</time></trkpt><trkpt lat="63.76603317" lon="-20.26274109"><ele>30.4</ele><time>2012-07-27T11:45:28.0000000+00:00</time></trkpt><trkpt lat="63.76618195" lon="-20.26306152"><ele>30.7</ele><time>2012-07-27T11:45:33.0000000+00:00</time></trkpt><trkpt lat="63.76633072" lon="-20.26336479"><ele>30.9</ele><time>2012-07-27T11:45:38.0000000+00:00</time></trkpt><trkpt lat="63.76647949" lon="-20.2636776"><ele>30.8</ele><time>2012-07-27T11:45:43.0000000+00:00</time></trkpt><trkpt lat="63.76663208" lon="-20.2639904"><ele>30.5</ele><time>2012-07-27T11:45:48.0000000+00:00</time></trkpt><trkpt lat="63.76677704" lon="-20.26431274"><ele>30.4</ele><time>2012-07-27T11:45:53.0000000+00:00</time></trkpt><trkpt lat="63.766922" lon="-20.26461983"><ele>30.6</ele><time>2012-07-27T11:45:58.0000000+00:00</time></trkpt><trkpt lat="63.7670784" lon="-20.26493835"><ele>30.8</ele><time>2012-07-27T11:46:03.0000000+00:00</time></trkpt><trkpt lat="63.76724243" lon="-20.26527786"><ele>30.6</ele><time>2012-07-27T11:46:08.0000000+00:00</time></trkpt><trkpt lat="63.76739883" lon="-20.26561546"><ele>29.2</ele><time>2012-07-27T11:46:13.0000000+00:00</time></trkpt><trkpt lat="63.76756287" lon="-20.2659626"><ele>28.7</ele><time>2012-07-27T11:46:18.0000000+00:00</time></trkpt><trkpt lat="63.7677269" lon="-20.26631165"><ele>28.2</ele><time>2012-07-27T11:46:23.0000000+00:00</time></trkpt><trkpt lat="63.76789093" lon="-20.26667404"><ele>28.2</ele><time>2012-07-27T11:46:28.0000000+00:00</time></trkpt><trkpt lat="63.76805878" lon="-20.26703262"><ele>27.9</ele><time>2012-07-27T11:46:33.0000000+00:00</time></trkpt><trkpt lat="63.76823044" lon="-20.26740074"><ele>28.1</ele><time>2012-07-27T11:46:38.0000000+00:00</time></trkpt><trkpt lat="63.76839066" lon="-20.26775169"><ele>27.7</ele><time>2012-07-27T11:46:43.0000000+00:00</time></trkpt><trkpt lat="63.76854706" lon="-20.26805687"><ele>27.3</ele><time>2012-07-27T11:46:48.0000000+00:00</time></trkpt><trkpt lat="63.76866531" lon="-20.26831818"><ele>27.2</ele><time>2012-07-27T11:46:53.0000000+00:00</time></trkpt><trkpt lat="63.76876068" lon="-20.26851654"><ele>27.0</ele><time>2012-07-27T11:46:58.0000000+00:00</time></trkpt><trkpt lat="63.76886368" lon="-20.26873016"><ele>27.3</ele><time>2012-07-27T11:47:03.0000000+00:00</time></trkpt><trkpt lat="63.7689743" lon="-20.26898766"><ele>26.3</ele><time>2012-07-27T11:47:08.0000000+00:00</time></trkpt><trkpt lat="63.76910019" lon="-20.26925659"><ele>26.4</ele><time>2012-07-27T11:47:13.0000000+00:00</time></trkpt><trkpt lat="63.76919937" lon="-20.26948357"><ele>26.4</ele><time>2012-07-27T11:47:18.0000000+00:00</time></trkpt><trkpt lat="63.76927948" lon="-20.2696476"><ele>26.5</ele><time>2012-07-27T11:47:23.0000000+00:00</time></trkpt><trkpt lat="63.76934052" lon="-20.26977539"><ele>26.5</ele><time>2012-07-27T11:47:28.0000000+00:00</time></trkpt><trkpt lat="63.76939774" lon="-20.26992226"><ele>26.7</ele><time>2012-07-27T11:47:33.0000000+00:00</time></trkpt><trkpt lat="63.7694931" lon="-20.27013397"><ele>26.4</ele><time>2012-07-27T11:47:38.0000000+00:00</time></trkpt><trkpt lat="63.76961136" lon="-20.27037621"><ele>26.1</ele><time>2012-07-27T11:47:43.0000000+00:00</time></trkpt><trkpt lat="63.76970291" lon="-20.27059364"><ele>26.0</ele><time>2012-07-27T11:47:48.0000000+00:00</time></trkpt><trkpt lat="63.7696991" lon="-20.27064133"><ele>24.7</ele><time>2012-07-27T11:47:53.0000000+00:00</time></trkpt><trkpt lat="63.7696991" lon="-20.27064133"><ele>24.7</ele><time>2012-07-27T11:47:58.0000000+00:00</time></trkpt><trkpt lat="63.7696991" lon="-20.27063561"><ele>24.8</ele><time>2012-07-27T11:48:03.0000000+00:00</time></trkpt><trkpt lat="63.76970673" lon="-20.27061844"><ele>24.9</ele><time>2012-07-27T11:48:08.0000000+00:00</time></trkpt><trkpt lat="63.76972199" lon="-20.27061462"><ele>25.2</ele><time>2012-07-27T11:48:13.0000000+00:00</time></trkpt><trkpt lat="63.7697258" lon="-20.27061081"><ele>25.3</ele><time>2012-07-27T11:48:18.0000000+00:00</time></trkpt><trkpt lat="63.76972199" lon="-20.2706089"><ele>25.5</ele><time>2012-07-27T11:48:23.0000000+00:00</time></trkpt><trkpt lat="63.76972199" lon="-20.2706089"><ele>25.6</ele><time>2012-07-27T11:48:28.0000000+00:00</time></trkpt><trkpt lat="63.76972199" lon="-20.270607"><ele>25.7</ele><time>2012-07-27T11:48:33.0000000+00:00</time></trkpt><trkpt lat="63.76972199" lon="-20.2706089"><ele>25.7</ele><time>2012-07-27T11:48:38.0000000+00:00</time></trkpt><trkpt lat="63.76971817" lon="-20.27060509"><ele>25.7</ele><time>2012-07-27T11:48:43.0000000+00:00</time></trkpt><trkpt lat="63.76971817" lon="-20.27060509"><ele>25.8</ele><time>2012-07-27T11:48:48.0000000+00:00</time></trkpt><trkpt lat="63.76971817" lon="-20.27060509"><ele>25.8</ele><time>2012-07-27T11:48:53.0000000+00:00</time></trkpt><trkpt lat="63.76971817" lon="-20.27060509"><ele>25.8</ele><time>2012-07-27T11:48:58.0000000+00:00</time></trkpt><trkpt lat="63.76971817" lon="-20.27060509"><ele>25.8</ele><time>2012-07-27T11:49:03.0000000+00:00</time></trkpt><trkpt lat="63.76972199" lon="-20.27060509"><ele>25.7</ele><time>2012-07-27T11:49:08.0000000+00:00</time></trkpt><trkpt lat="63.76972199" lon="-20.27060509"><ele>25.8</ele><time>2012-07-27T11:49:13.0000000+00:00</time></trkpt><trkpt lat="63.76971817" lon="-20.27060509"><ele>25.8</ele><time>2012-07-27T11:49:18.0000000+00:00</time></trkpt><trkpt lat="63.76971817" lon="-20.270607"><ele>25.8</ele><time>2012-07-27T11:49:23.0000000+00:00</time></trkpt><trkpt lat="63.76971817" lon="-20.27060509"><ele>25.8</ele><time>2012-07-27T11:49:28.0000000+00:00</time></trkpt><trkpt lat="63.76971817" lon="-20.27060509"><ele>25.8</ele><time>2012-07-27T11:49:33.0000000+00:00</time></trkpt><trkpt lat="63.76971817" lon="-20.27060509"><ele>25.8</ele><time>2012-07-27T11:49:38.0000000+00:00</time></trkpt><trkpt lat="63.76971817" lon="-20.27060509"><ele>25.8</ele><time>2012-07-27T11:49:43.0000000+00:00</time></trkpt><trkpt lat="63.76971817" lon="-20.27060509"><ele>25.8</ele><time>2012-07-27T11:49:48.0000000+00:00</time></trkpt><trkpt lat="63.76971817" lon="-20.27060509"><ele>25.8</ele><time>2012-07-27T11:49:53.0000000+00:00</time></trkpt><trkpt lat="63.76971817" lon="-20.27060318"><ele>25.8</ele><time>2012-07-27T11:49:58.0000000+00:00</time></trkpt><trkpt lat="63.76971817" lon="-20.27060318"><ele>25.8</ele><time>2012-07-27T11:50:03.0000000+00:00</time></trkpt><trkpt lat="63.76971817" lon="-20.27060318"><ele>25.8</ele><time>2012-07-27T11:50:08.0000000+00:00</time></trkpt><trkpt lat="63.76971817" lon="-20.27060318"><ele>25.8</ele><time>2012-07-27T11:50:13.0000000+00:00</time></trkpt><trkpt lat="63.76971817" lon="-20.27060318"><ele>25.8</ele><time>2012-07-27T11:50:18.0000000+00:00</time></trkpt><trkpt lat="63.76971817" lon="-20.27060318"><ele>25.8</ele><time>2012-07-27T11:50:23.0000000+00:00</time></trkpt><trkpt lat="63.76971817" lon="-20.27060318"><ele>25.8</ele><time>2012-07-27T11:50:28.0000000+00:00</time></trkpt><trkpt lat="63.76971817" lon="-20.27060318"><ele>25.8</ele><time>2012-07-27T11:50:33.0000000+00:00</time></trkpt><trkpt lat="63.76971817" lon="-20.27060318"><ele>25.8</ele><time>2012-07-27T11:50:38.0000000+00:00</time></trkpt><trkpt lat="63.76971817" lon="-20.27060318"><ele>25.8</ele><time>2012-07-27T11:50:43.0000000+00:00</time></trkpt><trkpt lat="63.76971817" lon="-20.27060318"><ele>25.8</ele><time>2012-07-27T11:50:48.0000000+00:00</time></trkpt><trkpt lat="63.76971817" lon="-20.27060318"><ele>25.8</ele><time>2012-07-27T11:50:53.0000000+00:00</time></trkpt><trkpt lat="63.76971817" lon="-20.27060318"><ele>25.8</ele><time>2012-07-27T11:50:58.0000000+00:00</time></trkpt><trkpt lat="63.76971817" lon="-20.27060318"><ele>25.8</ele><time>2012-07-27T11:51:03.0000000+00:00</time></trkpt><trkpt lat="63.76971817" lon="-20.27060318"><ele>25.8</ele><time>2012-07-27T11:51:08.0000000+00:00</time></trkpt><trkpt lat="63.76971817" lon="-20.27060318"><ele>25.7</ele><time>2012-07-27T11:51:13.0000000+00:00</time></trkpt><trkpt lat="63.76971817" lon="-20.27060318"><ele>25.7</ele><time>2012-07-27T11:51:18.0000000+00:00</time></trkpt><trkpt lat="63.76971817" lon="-20.27060318"><ele>25.7</ele><time>2012-07-27T11:51:23.0000000+00:00</time></trkpt><trkpt lat="63.76971817" lon="-20.27060318"><ele>25.7</ele><time>2012-07-27T11:51:28.0000000+00:00</time></trkpt><trkpt lat="63.76971817" lon="-20.27060318"><ele>25.7</ele><time>2012-07-27T11:51:33.0000000+00:00</time></trkpt><trkpt lat="63.76971817" lon="-20.27060318"><ele>25.7</ele><time>2012-07-27T11:51:38.0000000+00:00</time></trkpt><trkpt lat="63.76971817" lon="-20.27060318"><ele>25.7</ele><time>2012-07-27T11:51:43.0000000+00:00</time></trkpt><trkpt lat="63.76971817" lon="-20.27060318"><ele>25.7</ele><time>2012-07-27T11:51:48.0000000+00:00</time></trkpt><trkpt lat="63.76971817" lon="-20.27060318"><ele>25.7</ele><time>2012-07-27T11:51:53.0000000+00:00</time></trkpt><trkpt lat="63.76971817" lon="-20.27060318"><ele>25.7</ele><time>2012-07-27T11:51:58.0000000+00:00</time></trkpt><trkpt lat="63.76971817" lon="-20.27060127"><ele>25.7</ele><time>2012-07-27T11:52:03.0000000+00:00</time></trkpt><trkpt lat="63.76971817" lon="-20.27060127"><ele>25.7</ele><time>2012-07-27T11:52:08.0000000+00:00</time></trkpt><trkpt lat="63.76971817" lon="-20.27060127"><ele>25.7</ele><time>2012-07-27T11:52:13.0000000+00:00</time></trkpt><trkpt lat="63.76971817" lon="-20.27060127"><ele>25.7</ele><time>2012-07-27T11:52:18.0000000+00:00</time></trkpt><trkpt lat="63.76971817" lon="-20.27060127"><ele>25.7</ele><time>2012-07-27T11:52:23.0000000+00:00</time></trkpt><trkpt lat="63.76971817" lon="-20.27059937"><ele>25.7</ele><time>2012-07-27T11:52:28.0000000+00:00</time></trkpt><trkpt lat="63.76971817" lon="-20.27059937"><ele>25.7</ele><time>2012-07-27T11:52:33.0000000+00:00</time></trkpt><trkpt lat="63.76971817" lon="-20.27059937"><ele>25.7</ele><time>2012-07-27T11:52:38.0000000+00:00</time></trkpt><trkpt lat="63.76971817" lon="-20.27059937"><ele>25.7</ele><time>2012-07-27T11:52:43.0000000+00:00</time></trkpt><trkpt lat="63.76971817" lon="-20.27059937"><ele>25.7</ele><time>2012-07-27T11:52:48.0000000+00:00</time></trkpt><trkpt lat="63.76971817" lon="-20.27059937"><ele>25.8</ele><time>2012-07-27T11:52:53.0000000+00:00</time></trkpt><trkpt lat="63.76971817" lon="-20.27059937"><ele>25.8</ele><time>2012-07-27T11:52:58.0000000+00:00</time></trkpt><trkpt lat="63.76971817" lon="-20.27059937"><ele>25.8</ele><time>2012-07-27T11:53:03.0000000+00:00</time></trkpt><trkpt lat="63.76971817" lon="-20.27059937"><ele>25.8</ele><time>2012-07-27T11:53:08.0000000+00:00</time></trkpt><trkpt lat="63.76971817" lon="-20.27059937"><ele>25.8</ele><time>2012-07-27T11:53:13.0000000+00:00</time></trkpt><trkpt lat="63.76971817" lon="-20.27059937"><ele>25.8</ele><time>2012-07-27T11:53:18.0000000+00:00</time></trkpt><trkpt lat="63.76971817" lon="-20.27059937"><ele>25.8</ele><time>2012-07-27T11:53:23.0000000+00:00</time></trkpt><trkpt lat="63.76971817" lon="-20.27059937"><ele>25.8</ele><time>2012-07-27T11:53:28.0000000+00:00</time></trkpt><trkpt lat="63.76971817" lon="-20.27059937"><ele>25.8</ele><time>2012-07-27T11:53:33.0000000+00:00</time></trkpt><trkpt lat="63.76971817" lon="-20.27059746"><ele>25.8</ele><time>2012-07-27T11:53:38.0000000+00:00</time></trkpt><trkpt lat="63.76971817" lon="-20.27059746"><ele>25.8</ele><time>2012-07-27T11:53:43.0000000+00:00</time></trkpt><trkpt lat="63.76971817" lon="-20.27059746"><ele>25.8</ele><time>2012-07-27T11:53:48.0000000+00:00</time></trkpt><trkpt lat="63.76971817" lon="-20.27059746"><ele>25.8</ele><time>2012-07-27T11:53:53.0000000+00:00</time></trkpt><trkpt lat="63.76971817" lon="-20.27059746"><ele>25.8</ele><time>2012-07-27T11:53:58.0000000+00:00</time></trkpt><trkpt lat="63.76972961" lon="-20.27059364"><ele>26.4</ele><time>2012-07-27T11:54:03.0000000+00:00</time></trkpt><trkpt lat="63.76973343" lon="-20.27059364"><ele>26.7</ele><time>2012-07-27T11:54:08.0000000+00:00</time></trkpt><trkpt lat="63.76973724" lon="-20.27059364"><ele>27.1</ele><time>2012-07-27T11:54:13.0000000+00:00</time></trkpt><trkpt lat="63.76973724" lon="-20.27059364"><ele>27.5</ele><time>2012-07-27T11:54:18.0000000+00:00</time></trkpt><trkpt lat="63.76973724" lon="-20.27059364"><ele>27.9</ele><time>2012-07-27T11:54:23.0000000+00:00</time></trkpt><trkpt lat="63.76974106" lon="-20.27059174"><ele>28.5</ele><time>2012-07-27T11:54:28.0000000+00:00</time></trkpt><trkpt lat="63.76974106" lon="-20.27058983"><ele>29.1</ele><time>2012-07-27T11:54:33.0000000+00:00</time></trkpt><trkpt lat="63.76974106" lon="-20.27058983"><ele>29.8</ele><time>2012-07-27T11:54:38.0000000+00:00</time></trkpt><trkpt lat="63.76974106" lon="-20.27058601"><ele>30.6</ele><time>2012-07-27T11:54:43.0000000+00:00</time></trkpt><trkpt lat="63.76973724" lon="-20.2705822"><ele>31.5</ele><time>2012-07-27T11:54:48.0000000+00:00</time></trkpt><trkpt lat="63.76973343" lon="-20.27057648"><ele>32.4</ele><time>2012-07-27T11:54:53.0000000+00:00</time></trkpt><trkpt lat="63.76973343" lon="-20.27057266"><ele>33.4</ele><time>2012-07-27T11:54:58.0000000+00:00</time></trkpt><trkpt lat="63.76972961" lon="-20.27056885"><ele>34.4</ele><time>2012-07-27T11:55:03.0000000+00:00</time></trkpt><trkpt lat="63.76972961" lon="-20.27056694"><ele>35.3</ele><time>2012-07-27T11:55:08.0000000+00:00</time></trkpt><trkpt lat="63.76972961" lon="-20.27056313"><ele>36.4</ele><time>2012-07-27T11:55:13.0000000+00:00</time></trkpt><trkpt lat="63.76973343" lon="-20.27055931"><ele>37.3</ele><time>2012-07-27T11:55:18.0000000+00:00</time></trkpt><trkpt lat="63.76973343" lon="-20.2705555"><ele>38.3</ele><time>2012-07-27T11:55:23.0000000+00:00</time></trkpt><trkpt lat="63.76973343" lon="-20.27055359"><ele>39.2</ele><time>2012-07-27T11:55:28.0000000+00:00</time></trkpt><trkpt lat="63.76973343" lon="-20.27054977"><ele>40.1</ele><time>2012-07-27T11:55:33.0000000+00:00</time></trkpt><trkpt lat="63.76973343" lon="-20.27054787"><ele>40.8</ele><time>2012-07-27T11:55:38.0000000+00:00</time></trkpt><trkpt lat="63.76973343" lon="-20.27054787"><ele>41.6</ele><time>2012-07-27T11:55:43.0000000+00:00</time></trkpt><trkpt lat="63.76973343" lon="-20.27054405"><ele>42.3</ele><time>2012-07-27T11:55:48.0000000+00:00</time></trkpt><trkpt lat="63.76973343" lon="-20.27054215"><ele>42.7</ele><time>2012-07-27T11:55:53.0000000+00:00</time></trkpt><trkpt lat="63.76973343" lon="-20.27054024"><ele>42.8</ele><time>2012-07-27T11:55:58.0000000+00:00</time></trkpt><trkpt lat="63.76973343" lon="-20.27054024"><ele>42.7</ele><time>2012-07-27T11:56:03.0000000+00:00</time></trkpt><trkpt lat="63.76973343" lon="-20.27054024"><ele>42.7</ele><time>2012-07-27T11:56:08.0000000+00:00</time></trkpt><trkpt lat="63.76973343" lon="-20.27054215"><ele>42.7</ele><time>2012-07-27T11:56:13.0000000+00:00</time></trkpt><trkpt lat="63.76973343" lon="-20.27054024"><ele>42.6</ele><time>2012-07-27T11:56:18.0000000+00:00</time></trkpt><trkpt lat="63.76973343" lon="-20.27054024"><ele>42.5</ele><time>2012-07-27T11:56:23.0000000+00:00</time></trkpt><trkpt lat="63.76973343" lon="-20.27054024"><ele>42.5</ele><time>2012-07-27T11:56:28.0000000+00:00</time></trkpt><trkpt lat="63.76973343" lon="-20.27054215"><ele>42.5</ele><time>2012-07-27T11:56:33.0000000+00:00</time></trkpt><trkpt lat="63.76973343" lon="-20.27054215"><ele>42.5</ele><time>2012-07-27T11:56:38.0000000+00:00</time></trkpt><trkpt lat="63.76972961" lon="-20.27053452"><ele>42.6</ele><time>2012-07-27T11:56:43.0000000+00:00</time></trkpt><trkpt lat="63.76972199" lon="-20.27052879"><ele>42.5</ele><time>2012-07-27T11:56:48.0000000+00:00</time></trkpt><trkpt lat="63.76972199" lon="-20.27052879"><ele>42.5</ele><time>2012-07-27T11:56:53.0000000+00:00</time></trkpt><trkpt lat="63.76972199" lon="-20.27052879"><ele>42.5</ele><time>2012-07-27T11:56:58.0000000+00:00</time></trkpt><trkpt lat="63.76972199" lon="-20.27052879"><ele>42.5</ele><time>2012-07-27T11:57:03.0000000+00:00</time></trkpt><trkpt lat="63.76972199" lon="-20.27052879"><ele>42.5</ele><time>2012-07-27T11:57:08.0000000+00:00</time></trkpt><trkpt lat="63.76972199" lon="-20.27052879"><ele>42.5</ele><time>2012-07-27T11:57:13.0000000+00:00</time></trkpt><trkpt lat="63.76972199" lon="-20.27052879"><ele>42.5</ele><time>2012-07-27T11:57:18.0000000+00:00</time></trkpt><trkpt lat="63.76972199" lon="-20.27052879"><ele>42.5</ele><time>2012-07-27T11:57:23.0000000+00:00</time></trkpt><trkpt lat="63.76972199" lon="-20.27052879"><ele>42.5</ele><time>2012-07-27T11:57:28.0000000+00:00</time></trkpt><trkpt lat="63.76972199" lon="-20.2705307"><ele>42.5</ele><time>2012-07-27T11:57:33.0000000+00:00</time></trkpt><trkpt lat="63.76972199" lon="-20.2705307"><ele>42.5</ele><time>2012-07-27T11:57:38.0000000+00:00</time></trkpt><trkpt lat="63.7697258" lon="-20.27052689"><ele>42.4</ele><time>2012-07-27T11:57:43.0000000+00:00</time></trkpt><trkpt lat="63.7697258" lon="-20.27052689"><ele>42.4</ele><time>2012-07-27T11:57:48.0000000+00:00</time></trkpt><trkpt lat="63.7697258" lon="-20.27052689"><ele>42.4</ele><time>2012-07-27T11:57:53.0000000+00:00</time></trkpt><trkpt lat="63.7697258" lon="-20.27052689"><ele>42.4</ele><time>2012-07-27T11:57:58.0000000+00:00</time></trkpt><trkpt lat="63.7697258" lon="-20.27052689"><ele>42.4</ele><time>2012-07-27T11:58:03.0000000+00:00</time></trkpt><trkpt lat="63.7697258" lon="-20.27052689"><ele>42.4</ele><time>2012-07-27T11:58:08.0000000+00:00</time></trkpt><trkpt lat="63.7697258" lon="-20.27057266"><ele>41.5</ele><time>2012-07-27T11:58:13.0000000+00:00</time></trkpt><trkpt lat="63.76972199" lon="-20.27063179"><ele>40.6</ele><time>2012-07-27T11:58:18.0000000+00:00</time></trkpt><trkpt lat="63.76976776" lon="-20.27071953"><ele>39.9</ele><time>2012-07-27T11:58:23.0000000+00:00</time></trkpt><trkpt lat="63.76978302" lon="-20.27074051"><ele>39.1</ele><time>2012-07-27T11:58:28.0000000+00:00</time></trkpt><trkpt lat="63.76980209" lon="-20.2707634"><ele>38.7</ele><time>2012-07-27T11:58:33.0000000+00:00</time></trkpt><trkpt lat="63.76988602" lon="-20.27090454"><ele>37.7</ele><time>2012-07-27T11:58:38.0000000+00:00</time></trkpt><trkpt lat="63.76996994" lon="-20.27108002"><ele>37.1</ele><time>2012-07-27T11:58:43.0000000+00:00</time></trkpt><trkpt lat="63.77006149" lon="-20.27124977"><ele>37.0</ele><time>2012-07-27T11:58:48.0000000+00:00</time></trkpt><trkpt lat="63.77015305" lon="-20.27142525"><ele>36.5</ele><time>2012-07-27T11:58:53.0000000+00:00</time></trkpt><trkpt lat="63.7702446" lon="-20.27160835"><ele>36.1</ele><time>2012-07-27T11:58:58.0000000+00:00</time></trkpt><trkpt lat="63.77033997" lon="-20.271801"><ele>35.8</ele><time>2012-07-27T11:59:03.0000000+00:00</time></trkpt><trkpt lat="63.77045822" lon="-20.27204514"><ele>35.9</ele><time>2012-07-27T11:59:08.0000000+00:00</time></trkpt><trkpt lat="63.77058792" lon="-20.27230072"><ele>36.0</ele><time>2012-07-27T11:59:13.0000000+00:00</time></trkpt><trkpt lat="63.77069473" lon="-20.27251625"><ele>35.8</ele><time>2012-07-27T11:59:18.0000000+00:00</time></trkpt><trkpt lat="63.77077103" lon="-20.2726841"><ele>36.0</ele><time>2012-07-27T11:59:23.0000000+00:00</time></trkpt><trkpt lat="63.77086639" lon="-20.27286148"><ele>36.4</ele><time>2012-07-27T11:59:28.0000000+00:00</time></trkpt><trkpt lat="63.77097321" lon="-20.27305222"><ele>36.6</ele><time>2012-07-27T11:59:33.0000000+00:00</time></trkpt><trkpt lat="63.77109146" lon="-20.27327347"><ele>36.8</ele><time>2012-07-27T11:59:38.0000000+00:00</time></trkpt><trkpt lat="63.77118301" lon="-20.27345276"><ele>36.9</ele><time>2012-07-27T11:59:43.0000000+00:00</time></trkpt><trkpt lat="63.77118683" lon="-20.273489"><ele>37.1</ele><time>2012-07-27T11:59:48.0000000+00:00</time></trkpt><trkpt lat="63.77118683" lon="-20.273489"><ele>37.1</ele><time>2012-07-27T11:59:53.0000000+00:00</time></trkpt><trkpt lat="63.77118683" lon="-20.27349091"><ele>37.0</ele><time>2012-07-27T11:59:58.0000000+00:00</time></trkpt><trkpt lat="63.77119064" lon="-20.27349091"><ele>37.0</ele><time>2012-07-27T12:00:03.0000000+00:00</time></trkpt><trkpt lat="63.77119064" lon="-20.27349091"><ele>36.8</ele><time>2012-07-27T12:00:08.0000000+00:00</time></trkpt><trkpt lat="63.77119064" lon="-20.27349472"><ele>36.8</ele><time>2012-07-27T12:00:13.0000000+00:00</time></trkpt><trkpt lat="63.77119064" lon="-20.27349281"><ele>36.8</ele><time>2012-07-27T12:00:18.0000000+00:00</time></trkpt><trkpt lat="63.77118683" lon="-20.273489"><ele>36.9</ele><time>2012-07-27T12:00:23.0000000+00:00</time></trkpt><trkpt lat="63.77118683" lon="-20.273489"><ele>36.9</ele><time>2012-07-27T12:00:28.0000000+00:00</time></trkpt><trkpt lat="63.77118683" lon="-20.273489"><ele>36.9</ele><time>2012-07-27T12:00:33.0000000+00:00</time></trkpt><trkpt lat="63.77118683" lon="-20.27348328"><ele>37.9</ele><time>2012-07-27T12:00:38.0000000+00:00</time></trkpt><trkpt lat="63.77118683" lon="-20.27348328"><ele>38.0</ele><time>2012-07-27T12:00:43.0000000+00:00</time></trkpt><trkpt lat="63.77118683" lon="-20.27348328"><ele>38.0</ele><time>2012-07-27T12:00:48.0000000+00:00</time></trkpt><trkpt lat="63.77119446" lon="-20.27349472"><ele>38.2</ele><time>2012-07-27T12:00:53.0000000+00:00</time></trkpt><trkpt lat="63.77123642" lon="-20.27359963"><ele>38.0</ele><time>2012-07-27T12:00:58.0000000+00:00</time></trkpt><trkpt lat="63.77135086" lon="-20.27377701"><ele>38.2</ele><time>2012-07-27T12:01:03.0000000+00:00</time></trkpt><trkpt lat="63.77149582" lon="-20.27403069"><ele>38.5</ele><time>2012-07-27T12:01:08.0000000+00:00</time></trkpt><trkpt lat="63.77165604" lon="-20.2742939"><ele>38.6</ele><time>2012-07-27T12:01:13.0000000+00:00</time></trkpt><trkpt lat="63.77181625" lon="-20.27455521"><ele>38.4</ele><time>2012-07-27T12:01:18.0000000+00:00</time></trkpt><trkpt lat="63.77196884" lon="-20.27479935"><ele>38.4</ele><time>2012-07-27T12:01:23.0000000+00:00</time></trkpt><trkpt lat="63.77211762" lon="-20.2750454"><ele>38.3</ele><time>2012-07-27T12:01:28.0000000+00:00</time></trkpt><trkpt lat="63.7722702" lon="-20.27528572"><ele>38.1</ele><time>2012-07-27T12:01:33.0000000+00:00</time></trkpt><trkpt lat="63.77244186" lon="-20.27553558"><ele>38.7</ele><time>2012-07-27T12:01:38.0000000+00:00</time></trkpt><trkpt lat="63.77262116" lon="-20.27578735"><ele>39.2</ele><time>2012-07-27T12:01:43.0000000+00:00</time></trkpt><trkpt lat="63.77279282" lon="-20.27602959"><ele>39.1</ele><time>2012-07-27T12:01:48.0000000+00:00</time></trkpt><trkpt lat="63.77297974" lon="-20.27628708"><ele>39.4</ele><time>2012-07-27T12:01:53.0000000+00:00</time></trkpt><trkpt lat="63.77316666" lon="-20.27650452"><ele>39.5</ele><time>2012-07-27T12:01:58.0000000+00:00</time></trkpt><trkpt lat="63.77334976" lon="-20.27675057"><ele>39.6</ele><time>2012-07-27T12:02:03.0000000+00:00</time></trkpt><trkpt lat="63.7735405" lon="-20.27698326"><ele>39.2</ele><time>2012-07-27T12:02:08.0000000+00:00</time></trkpt><trkpt lat="63.77374268" lon="-20.27721214"><ele>38.8</ele><time>2012-07-27T12:02:13.0000000+00:00</time></trkpt><trkpt lat="63.77396393" lon="-20.27747726"><ele>38.1</ele><time>2012-07-27T12:02:18.0000000+00:00</time></trkpt><trkpt lat="63.77419663" lon="-20.27776909"><ele>37.2</ele><time>2012-07-27T12:02:23.0000000+00:00</time></trkpt><trkpt lat="63.77443695" lon="-20.27806473"><ele>36.2</ele><time>2012-07-27T12:02:28.0000000+00:00</time></trkpt><trkpt lat="63.77470017" lon="-20.27838898"><ele>35.0</ele><time>2012-07-27T12:02:33.0000000+00:00</time></trkpt><trkpt lat="63.77498245" lon="-20.27871704"><ele>33.9</ele><time>2012-07-27T12:02:38.0000000+00:00</time></trkpt><trkpt lat="63.77527618" lon="-20.27907944"><ele>32.8</ele><time>2012-07-27T12:02:43.0000000+00:00</time></trkpt><trkpt lat="63.77557755" lon="-20.27943039"><ele>31.5</ele><time>2012-07-27T12:02:48.0000000+00:00</time></trkpt><trkpt lat="63.77587891" lon="-20.27980232"><ele>30.3</ele><time>2012-07-27T12:02:53.0000000+00:00</time></trkpt><trkpt lat="63.77617264" lon="-20.28017044"><ele>29.6</ele><time>2012-07-27T12:02:58.0000000+00:00</time></trkpt><trkpt lat="63.776474" lon="-20.28050613"><ele>28.8</ele><time>2012-07-27T12:03:03.0000000+00:00</time></trkpt><trkpt lat="63.77676392" lon="-20.28084946"><ele>28.4</ele><time>2012-07-27T12:03:08.0000000+00:00</time></trkpt><trkpt lat="63.77702713" lon="-20.28116226"><ele>27.8</ele><time>2012-07-27T12:03:13.0000000+00:00</time></trkpt><trkpt lat="63.77729034" lon="-20.28147125"><ele>27.4</ele><time>2012-07-27T12:03:18.0000000+00:00</time></trkpt><trkpt lat="63.77754211" lon="-20.2817955"><ele>27.2</ele><time>2012-07-27T12:03:23.0000000+00:00</time></trkpt><trkpt lat="63.77778626" lon="-20.28208542"><ele>27.6</ele><time>2012-07-27T12:03:28.0000000+00:00</time></trkpt><trkpt lat="63.77801514" lon="-20.28235817"><ele>28.0</ele><time>2012-07-27T12:03:33.0000000+00:00</time></trkpt><trkpt lat="63.77823257" lon="-20.28261757"><ele>28.2</ele><time>2012-07-27T12:03:38.0000000+00:00</time></trkpt><trkpt lat="63.77843475" lon="-20.28283882"><ele>28.9</ele><time>2012-07-27T12:03:43.0000000+00:00</time></trkpt><trkpt lat="63.77864075" lon="-20.28306961"><ele>29.7</ele><time>2012-07-27T12:03:48.0000000+00:00</time></trkpt><trkpt lat="63.77884293" lon="-20.28332329"><ele>29.9</ele><time>2012-07-27T12:03:53.0000000+00:00</time></trkpt><trkpt lat="63.77903366" lon="-20.28358269"><ele>30.5</ele><time>2012-07-27T12:03:58.0000000+00:00</time></trkpt><trkpt lat="63.77922058" lon="-20.28382683"><ele>30.9</ele><time>2012-07-27T12:04:03.0000000+00:00</time></trkpt><trkpt lat="63.77939606" lon="-20.28404999"><ele>31.1</ele><time>2012-07-27T12:04:08.0000000+00:00</time></trkpt><trkpt lat="63.77957535" lon="-20.28429031"><ele>31.2</ele><time>2012-07-27T12:04:13.0000000+00:00</time></trkpt><trkpt lat="63.77974701" lon="-20.28452492"><ele>31.7</ele><time>2012-07-27T12:04:18.0000000+00:00</time></trkpt><trkpt lat="63.77990723" lon="-20.28475761"><ele>31.9</ele><time>2012-07-27T12:04:23.0000000+00:00</time></trkpt><trkpt lat="63.780056" lon="-20.2849865"><ele>32.0</ele><time>2012-07-27T12:04:28.0000000+00:00</time></trkpt><trkpt lat="63.78020477" lon="-20.28520203"><ele>32.5</ele><time>2012-07-27T12:04:33.0000000+00:00</time></trkpt><trkpt lat="63.78032684" lon="-20.28535843"><ele>32.8</ele><time>2012-07-27T12:04:38.0000000+00:00</time></trkpt><trkpt lat="63.78043747" lon="-20.28550339"><ele>32.6</ele><time>2012-07-27T12:04:43.0000000+00:00</time></trkpt><trkpt lat="63.78055954" lon="-20.28569984"><ele>32.7</ele><time>2012-07-27T12:04:48.0000000+00:00</time></trkpt><trkpt lat="63.78068543" lon="-20.2858963"><ele>32.6</ele><time>2012-07-27T12:04:53.0000000+00:00</time></trkpt><trkpt lat="63.78079224" lon="-20.28606033"><ele>32.5</ele><time>2012-07-27T12:04:58.0000000+00:00</time></trkpt><trkpt lat="63.78090668" lon="-20.28626442"><ele>33.1</ele><time>2012-07-27T12:05:03.0000000+00:00</time></trkpt><trkpt lat="63.78104019" lon="-20.28646851"><ele>33.5</ele><time>2012-07-27T12:05:08.0000000+00:00</time></trkpt><trkpt lat="63.78116989" lon="-20.28666115"><ele>34.0</ele><time>2012-07-27T12:05:13.0000000+00:00</time></trkpt><trkpt lat="63.78129959" lon="-20.28688622"><ele>34.3</ele><time>2012-07-27T12:05:18.0000000+00:00</time></trkpt><trkpt lat="63.78143692" lon="-20.28708458"><ele>34.8</ele><time>2012-07-27T12:05:23.0000000+00:00</time></trkpt><trkpt lat="63.78158188" lon="-20.28728485"><ele>34.9</ele><time>2012-07-27T12:05:28.0000000+00:00</time></trkpt><trkpt lat="63.78171921" lon="-20.28751183"><ele>35.1</ele><time>2012-07-27T12:05:33.0000000+00:00</time></trkpt><trkpt lat="63.78185654" lon="-20.28772163"><ele>35.3</ele><time>2012-07-27T12:05:38.0000000+00:00</time></trkpt><trkpt lat="63.78199768" lon="-20.28794289"><ele>35.3</ele><time>2012-07-27T12:05:43.0000000+00:00</time></trkpt><trkpt lat="63.78214645" lon="-20.28818512"><ele>35.6</ele><time>2012-07-27T12:05:48.0000000+00:00</time></trkpt><trkpt lat="63.78229904" lon="-20.28841591"><ele>35.7</ele><time>2012-07-27T12:05:53.0000000+00:00</time></trkpt><trkpt lat="63.78246307" lon="-20.28864288"><ele>35.7</ele><time>2012-07-27T12:05:58.0000000+00:00</time></trkpt><trkpt lat="63.78261185" lon="-20.2888794"><ele>35.8</ele><time>2012-07-27T12:06:03.0000000+00:00</time></trkpt><trkpt lat="63.78277588" lon="-20.28912163"><ele>36.2</ele><time>2012-07-27T12:06:08.0000000+00:00</time></trkpt><trkpt lat="63.78293228" lon="-20.28935051"><ele>36.1</ele><time>2012-07-27T12:06:13.0000000+00:00</time></trkpt><trkpt lat="63.78310394" lon="-20.28959847"><ele>36.1</ele><time>2012-07-27T12:06:18.0000000+00:00</time></trkpt><trkpt lat="63.78325653" lon="-20.28982544"><ele>36.2</ele><time>2012-07-27T12:06:23.0000000+00:00</time></trkpt><trkpt lat="63.78340912" lon="-20.29006004"><ele>36.4</ele><time>2012-07-27T12:06:28.0000000+00:00</time></trkpt><trkpt lat="63.78356171" lon="-20.29029656"><ele>36.5</ele><time>2012-07-27T12:06:33.0000000+00:00</time></trkpt><trkpt lat="63.78372574" lon="-20.29054642"><ele>36.5</ele><time>2012-07-27T12:06:38.0000000+00:00</time></trkpt><trkpt lat="63.78388596" lon="-20.29078293"><ele>36.7</ele><time>2012-07-27T12:06:43.0000000+00:00</time></trkpt><trkpt lat="63.78403854" lon="-20.29101372"><ele>36.4</ele><time>2012-07-27T12:06:48.0000000+00:00</time></trkpt><trkpt lat="63.78420639" lon="-20.29125786"><ele>36.7</ele><time>2012-07-27T12:06:53.0000000+00:00</time></trkpt><trkpt lat="63.78438187" lon="-20.29151344"><ele>36.2</ele><time>2012-07-27T12:06:58.0000000+00:00</time></trkpt><trkpt lat="63.78456116" lon="-20.29177666"><ele>36.3</ele><time>2012-07-27T12:07:03.0000000+00:00</time></trkpt><trkpt lat="63.78473663" lon="-20.2920475"><ele>36.4</ele><time>2012-07-27T12:07:08.0000000+00:00</time></trkpt><trkpt lat="63.78490448" lon="-20.29229736"><ele>36.6</ele><time>2012-07-27T12:07:13.0000000+00:00</time></trkpt><trkpt lat="63.78505707" lon="-20.29253769"><ele>36.6</ele><time>2012-07-27T12:07:18.0000000+00:00</time></trkpt><trkpt lat="63.78521347" lon="-20.29276085"><ele>36.8</ele><time>2012-07-27T12:07:23.0000000+00:00</time></trkpt><trkpt lat="63.78536224" lon="-20.29298401"><ele>36.7</ele><time>2012-07-27T12:07:28.0000000+00:00</time></trkpt><trkpt lat="63.78549957" lon="-20.29319763"><ele>37.0</ele><time>2012-07-27T12:07:33.0000000+00:00</time></trkpt><trkpt lat="63.78562164" lon="-20.29338646"><ele>37.2</ele><time>2012-07-27T12:07:38.0000000+00:00</time></trkpt><trkpt lat="63.78576279" lon="-20.29358673"><ele>37.5</ele><time>2012-07-27T12:07:43.0000000+00:00</time></trkpt><trkpt lat="63.7858696" lon="-20.29375649"><ele>38.0</ele><time>2012-07-27T12:07:48.0000000+00:00</time></trkpt><trkpt lat="63.78598785" lon="-20.29390335"><ele>38.6</ele><time>2012-07-27T12:07:53.0000000+00:00</time></trkpt><trkpt lat="63.78610611" lon="-20.29408455"><ele>39.1</ele><time>2012-07-27T12:07:58.0000000+00:00</time></trkpt><trkpt lat="63.78622055" lon="-20.29426384"><ele>39.1</ele><time>2012-07-27T12:08:03.0000000+00:00</time></trkpt><trkpt lat="63.78634644" lon="-20.2944622"><ele>39.4</ele><time>2012-07-27T12:08:08.0000000+00:00</time></trkpt><trkpt lat="63.78647232" lon="-20.29464912"><ele>39.4</ele><time>2012-07-27T12:08:13.0000000+00:00</time></trkpt><trkpt lat="63.78661346" lon="-20.29486275"><ele>39.4</ele><time>2012-07-27T12:08:18.0000000+00:00</time></trkpt><trkpt lat="63.78675079" lon="-20.29506302"><ele>39.5</ele><time>2012-07-27T12:08:23.0000000+00:00</time></trkpt><trkpt lat="63.78689194" lon="-20.29527855"><ele>39.2</ele><time>2012-07-27T12:08:28.0000000+00:00</time></trkpt><trkpt lat="63.7870369" lon="-20.29548836"><ele>39.3</ele><time>2012-07-27T12:08:33.0000000+00:00</time></trkpt><trkpt lat="63.7871933" lon="-20.29571915"><ele>39.5</ele><time>2012-07-27T12:08:38.0000000+00:00</time></trkpt><trkpt lat="63.78735733" lon="-20.29597473"><ele>39.7</ele><time>2012-07-27T12:08:43.0000000+00:00</time></trkpt><trkpt lat="63.78755188" lon="-20.29626846"><ele>39.7</ele><time>2012-07-27T12:08:48.0000000+00:00</time></trkpt><trkpt lat="63.78773499" lon="-20.29654503"><ele>39.7</ele><time>2012-07-27T12:08:53.0000000+00:00</time></trkpt><trkpt lat="63.78789902" lon="-20.29678726"><ele>39.6</ele><time>2012-07-27T12:08:58.0000000+00:00</time></trkpt><trkpt lat="63.78807068" lon="-20.29705238"><ele>38.8</ele><time>2012-07-27T12:09:03.0000000+00:00</time></trkpt><trkpt lat="63.78823471" lon="-20.29729462"><ele>38.7</ele><time>2012-07-27T12:09:08.0000000+00:00</time></trkpt><trkpt lat="63.78840256" lon="-20.29753876"><ele>38.9</ele><time>2012-07-27T12:09:13.0000000+00:00</time></trkpt><trkpt lat="63.78857422" lon="-20.29781151"><ele>38.7</ele><time>2012-07-27T12:09:18.0000000+00:00</time></trkpt><trkpt lat="63.78874588" lon="-20.29808807"><ele>38.5</ele><time>2012-07-27T12:09:23.0000000+00:00</time></trkpt><trkpt lat="63.78892899" lon="-20.29835129"><ele>38.4</ele><time>2012-07-27T12:09:28.0000000+00:00</time></trkpt><trkpt lat="63.78910065" lon="-20.29860687"><ele>38.5</ele><time>2012-07-27T12:09:33.0000000+00:00</time></trkpt><trkpt lat="63.78927612" lon="-20.29886627"><ele>38.6</ele><time>2012-07-27T12:09:38.0000000+00:00</time></trkpt><trkpt lat="63.7894516" lon="-20.29913139"><ele>38.4</ele><time>2012-07-27T12:09:43.0000000+00:00</time></trkpt><trkpt lat="63.78961563" lon="-20.29937172"><ele>38.5</ele><time>2012-07-27T12:09:48.0000000+00:00</time></trkpt><trkpt lat="63.78977585" lon="-20.29963112"><ele>37.9</ele><time>2012-07-27T12:09:53.0000000+00:00</time></trkpt><trkpt lat="63.7899437" lon="-20.29990387"><ele>37.2</ele><time>2012-07-27T12:09:58.0000000+00:00</time></trkpt><trkpt lat="63.79009628" lon="-20.30017281"><ele>37.2</ele><time>2012-07-27T12:10:03.0000000+00:00</time></trkpt><trkpt lat="63.79024887" lon="-20.30047035"><ele>36.8</ele><time>2012-07-27T12:10:08.0000000+00:00</time></trkpt><trkpt lat="63.79040909" lon="-20.30078697"><ele>36.1</ele><time>2012-07-27T12:10:13.0000000+00:00</time></trkpt><trkpt lat="63.79056168" lon="-20.30109978"><ele>35.6</ele><time>2012-07-27T12:10:18.0000000+00:00</time></trkpt><trkpt lat="63.79072952" lon="-20.30144882"><ele>35.4</ele><time>2012-07-27T12:10:23.0000000+00:00</time></trkpt><trkpt lat="63.79090881" lon="-20.30183601"><ele>35.0</ele><time>2012-07-27T12:10:28.0000000+00:00</time></trkpt><trkpt lat="63.79109192" lon="-20.30222893"><ele>34.9</ele><time>2012-07-27T12:10:33.0000000+00:00</time></trkpt><trkpt lat="63.7912674" lon="-20.30264854"><ele>34.2</ele><time>2012-07-27T12:10:38.0000000+00:00</time></trkpt><trkpt lat="63.79146195" lon="-20.30309105"><ele>33.4</ele><time>2012-07-27T12:10:43.0000000+00:00</time></trkpt><trkpt lat="63.79167557" lon="-20.30356216"><ele>32.6</ele><time>2012-07-27T12:10:48.0000000+00:00</time></trkpt><trkpt lat="63.79189301" lon="-20.3040638"><ele>32.2</ele><time>2012-07-27T12:10:53.0000000+00:00</time></trkpt><trkpt lat="63.79210281" lon="-20.3045578"><ele>31.4</ele><time>2012-07-27T12:10:58.0000000+00:00</time></trkpt><trkpt lat="63.79230118" lon="-20.30502892"><ele>31.1</ele><time>2012-07-27T12:11:03.0000000+00:00</time></trkpt><trkpt lat="63.79250717" lon="-20.30549812"><ele>30.9</ele><time>2012-07-27T12:11:08.0000000+00:00</time></trkpt><trkpt lat="63.79270554" lon="-20.30595207"><ele>30.9</ele><time>2012-07-27T12:11:13.0000000+00:00</time></trkpt><trkpt lat="63.79288483" lon="-20.30636787"><ele>31.0</ele><time>2012-07-27T12:11:18.0000000+00:00</time></trkpt><trkpt lat="63.79305267" lon="-20.30677795"><ele>31.0</ele><time>2012-07-27T12:11:23.0000000+00:00</time></trkpt><trkpt lat="63.79322434" lon="-20.30717659"><ele>31.3</ele><time>2012-07-27T12:11:28.0000000+00:00</time></trkpt><trkpt lat="63.79338837" lon="-20.30756378"><ele>31.5</ele><time>2012-07-27T12:11:33.0000000+00:00</time></trkpt><trkpt lat="63.79353333" lon="-20.30792618"><ele>31.7</ele><time>2012-07-27T12:11:38.0000000+00:00</time></trkpt><trkpt lat="63.79365921" lon="-20.30825234"><ele>31.8</ele><time>2012-07-27T12:11:43.0000000+00:00</time></trkpt><trkpt lat="63.79379273" lon="-20.30856895"><ele>31.8</ele><time>2012-07-27T12:11:48.0000000+00:00</time></trkpt><trkpt lat="63.79394531" lon="-20.3088913"><ele>32.2</ele><time>2012-07-27T12:11:53.0000000+00:00</time></trkpt><trkpt lat="63.79408646" lon="-20.30921173"><ele>32.5</ele><time>2012-07-27T12:11:58.0000000+00:00</time></trkpt><trkpt lat="63.7942276" lon="-20.30953598"><ele>32.3</ele><time>2012-07-27T12:12:03.0000000+00:00</time></trkpt><trkpt lat="63.79436874" lon="-20.30985642"><ele>32.7</ele><time>2012-07-27T12:12:08.0000000+00:00</time></trkpt><trkpt lat="63.79449463" lon="-20.31015015"><ele>32.8</ele><time>2012-07-27T12:12:13.0000000+00:00</time></trkpt><trkpt lat="63.79462051" lon="-20.31043243"><ele>33.0</ele><time>2012-07-27T12:12:18.0000000+00:00</time></trkpt><trkpt lat="63.7947464" lon="-20.31070137"><ele>33.2</ele><time>2012-07-27T12:12:23.0000000+00:00</time></trkpt><trkpt lat="63.79487228" lon="-20.31097603"><ele>33.5</ele><time>2012-07-27T12:12:28.0000000+00:00</time></trkpt><trkpt lat="63.79500198" lon="-20.31126022"><ele>34.2</ele><time>2012-07-27T12:12:33.0000000+00:00</time></trkpt><trkpt lat="63.79513931" lon="-20.31156731"><ele>34.3</ele><time>2012-07-27T12:12:38.0000000+00:00</time></trkpt><trkpt lat="63.79529572" lon="-20.31189537"><ele>34.8</ele><time>2012-07-27T12:12:43.0000000+00:00</time></trkpt><trkpt lat="63.79543304" lon="-20.31217766"><ele>35.4</ele><time>2012-07-27T12:12:48.0000000+00:00</time></trkpt><trkpt lat="63.79556656" lon="-20.31242943"><ele>36.0</ele><time>2012-07-27T12:12:53.0000000+00:00</time></trkpt><trkpt lat="63.79569626" lon="-20.31271362"><ele>36.3</ele><time>2012-07-27T12:12:58.0000000+00:00</time></trkpt><trkpt lat="63.7958374" lon="-20.31297493"><ele>36.8</ele><time>2012-07-27T12:13:03.0000000+00:00</time></trkpt><trkpt lat="63.79598236" lon="-20.31324577"><ele>37.3</ele><time>2012-07-27T12:13:08.0000000+00:00</time></trkpt><trkpt lat="63.79613495" lon="-20.31352615"><ele>37.6</ele><time>2012-07-27T12:13:13.0000000+00:00</time></trkpt><trkpt lat="63.79628372" lon="-20.31381035"><ele>38.0</ele><time>2012-07-27T12:13:18.0000000+00:00</time></trkpt><trkpt lat="63.79642868" lon="-20.31408501"><ele>38.0</ele><time>2012-07-27T12:13:23.0000000+00:00</time></trkpt><trkpt lat="63.79657364" lon="-20.31436157"><ele>37.9</ele><time>2012-07-27T12:13:28.0000000+00:00</time></trkpt><trkpt lat="63.7967186" lon="-20.31461906"><ele>38.3</ele><time>2012-07-27T12:13:33.0000000+00:00</time></trkpt><trkpt lat="63.79687882" lon="-20.31490898"><ele>38.8</ele><time>2012-07-27T12:13:38.0000000+00:00</time></trkpt><trkpt lat="63.79703522" lon="-20.31520081"><ele>39.0</ele><time>2012-07-27T12:13:43.0000000+00:00</time></trkpt><trkpt lat="63.79719925" lon="-20.31552315"><ele>39.0</ele><time>2012-07-27T12:13:48.0000000+00:00</time></trkpt><trkpt lat="63.7973671" lon="-20.3158226"><ele>39.1</ele><time>2012-07-27T12:13:53.0000000+00:00</time></trkpt><trkpt lat="63.7974968" lon="-20.31607246"><ele>39.0</ele><time>2012-07-27T12:13:58.0000000+00:00</time></trkpt><trkpt lat="63.79764175" lon="-20.31632423"><ele>39.6</ele><time>2012-07-27T12:14:03.0000000+00:00</time></trkpt><trkpt lat="63.79780579" lon="-20.31664276"><ele>39.6</ele><time>2012-07-27T12:14:08.0000000+00:00</time></trkpt><trkpt lat="63.79798508" lon="-20.31696701"><ele>39.9</ele><time>2012-07-27T12:14:13.0000000+00:00</time></trkpt><trkpt lat="63.798172" lon="-20.31730652"><ele>40.2</ele><time>2012-07-27T12:14:18.0000000+00:00</time></trkpt><trkpt lat="63.79836655" lon="-20.3176384"><ele>40.5</ele><time>2012-07-27T12:14:23.0000000+00:00</time></trkpt><trkpt lat="63.79853058" lon="-20.31794357"><ele>40.8</ele><time>2012-07-27T12:14:28.0000000+00:00</time></trkpt><trkpt lat="63.79869843" lon="-20.31825638"><ele>40.8</ele><time>2012-07-27T12:14:33.0000000+00:00</time></trkpt><trkpt lat="63.79886627" lon="-20.31855774"><ele>40.9</ele><time>2012-07-27T12:14:38.0000000+00:00</time></trkpt><trkpt lat="63.7990303" lon="-20.31884193"><ele>40.8</ele><time>2012-07-27T12:14:43.0000000+00:00</time></trkpt><trkpt lat="63.79919052" lon="-20.31913948"><ele>40.7</ele><time>2012-07-27T12:14:48.0000000+00:00</time></trkpt><trkpt lat="63.79933929" lon="-20.31941986"><ele>40.9</ele><time>2012-07-27T12:14:53.0000000+00:00</time></trkpt><trkpt lat="63.79950714" lon="-20.31972122"><ele>41.0</ele><time>2012-07-27T12:14:58.0000000+00:00</time></trkpt><trkpt lat="63.79967117" lon="-20.32002258"><ele>41.0</ele><time>2012-07-27T12:15:03.0000000+00:00</time></trkpt><trkpt lat="63.79983902" lon="-20.32032204"><ele>40.9</ele><time>2012-07-27T12:15:08.0000000+00:00</time></trkpt><trkpt lat="63.79998779" lon="-20.32060242"><ele>40.8</ele><time>2012-07-27T12:15:13.0000000+00:00</time></trkpt><trkpt lat="63.80015564" lon="-20.32090569"><ele>41.1</ele><time>2012-07-27T12:15:18.0000000+00:00</time></trkpt><trkpt lat="63.80030441" lon="-20.32117844"><ele>41.4</ele><time>2012-07-27T12:15:23.0000000+00:00</time></trkpt><trkpt lat="63.80046463" lon="-20.32146454"><ele>41.6</ele><time>2012-07-27T12:15:28.0000000+00:00</time></trkpt><trkpt lat="63.80061722" lon="-20.32173729"><ele>41.8</ele><time>2012-07-27T12:15:33.0000000+00:00</time></trkpt><trkpt lat="63.80076218" lon="-20.32200241"><ele>41.9</ele><time>2012-07-27T12:15:38.0000000+00:00</time></trkpt><trkpt lat="63.80089569" lon="-20.32225418"><ele>42.1</ele><time>2012-07-27T12:15:43.0000000+00:00</time></trkpt><trkpt lat="63.80102158" lon="-20.32247162"><ele>41.8</ele><time>2012-07-27T12:15:48.0000000+00:00</time></trkpt><trkpt lat="63.80114365" lon="-20.32268906"><ele>41.9</ele><time>2012-07-27T12:15:53.0000000+00:00</time></trkpt><trkpt lat="63.80126953" lon="-20.32292175"><ele>41.9</ele><time>2012-07-27T12:15:58.0000000+00:00</time></trkpt><trkpt lat="63.8013916" lon="-20.32314682"><ele>41.9</ele><time>2012-07-27T12:16:03.0000000+00:00</time></trkpt><trkpt lat="63.80152512" lon="-20.32336617"><ele>41.9</ele><time>2012-07-27T12:16:08.0000000+00:00</time></trkpt><trkpt lat="63.80164337" lon="-20.32357979"><ele>42.3</ele><time>2012-07-27T12:16:13.0000000+00:00</time></trkpt><trkpt lat="63.80176163" lon="-20.32379913"><ele>42.6</ele><time>2012-07-27T12:16:18.0000000+00:00</time></trkpt><trkpt lat="63.80187607" lon="-20.32401085"><ele>42.5</ele><time>2012-07-27T12:16:23.0000000+00:00</time></trkpt><trkpt lat="63.80198669" lon="-20.32420731"><ele>43.0</ele><time>2012-07-27T12:16:28.0000000+00:00</time></trkpt><trkpt lat="63.80209732" lon="-20.32441902"><ele>42.8</ele><time>2012-07-27T12:16:33.0000000+00:00</time></trkpt><trkpt lat="63.80221939" lon="-20.32463646"><ele>42.8</ele><time>2012-07-27T12:16:38.0000000+00:00</time></trkpt><trkpt lat="63.80233765" lon="-20.32483101"><ele>42.7</ele><time>2012-07-27T12:16:43.0000000+00:00</time></trkpt><trkpt lat="63.80245209" lon="-20.32504845"><ele>43.0</ele><time>2012-07-27T12:16:48.0000000+00:00</time></trkpt><trkpt lat="63.80257416" lon="-20.32528305"><ele>42.3</ele><time>2012-07-27T12:16:53.0000000+00:00</time></trkpt><trkpt lat="63.80270004" lon="-20.32552147"><ele>41.9</ele><time>2012-07-27T12:16:58.0000000+00:00</time></trkpt><trkpt lat="63.80282211" lon="-20.32575226"><ele>42.3</ele><time>2012-07-27T12:17:03.0000000+00:00</time></trkpt><trkpt lat="63.80294037" lon="-20.32596588"><ele>42.5</ele><time>2012-07-27T12:17:08.0000000+00:00</time></trkpt><trkpt lat="63.80308914" lon="-20.32622719"><ele>42.3</ele><time>2012-07-27T12:17:13.0000000+00:00</time></trkpt><trkpt lat="63.80323792" lon="-20.32651711"><ele>42.5</ele><time>2012-07-27T12:17:18.0000000+00:00</time></trkpt><trkpt lat="63.80339813" lon="-20.32681084"><ele>42.5</ele><time>2012-07-27T12:17:23.0000000+00:00</time></trkpt><trkpt lat="63.80354691" lon="-20.32709122"><ele>42.4</ele><time>2012-07-27T12:17:28.0000000+00:00</time></trkpt><trkpt lat="63.80370331" lon="-20.32737351"><ele>42.5</ele><time>2012-07-27T12:17:33.0000000+00:00</time></trkpt><trkpt lat="63.80385971" lon="-20.32766724"><ele>42.1</ele><time>2012-07-27T12:17:38.0000000+00:00</time></trkpt><trkpt lat="63.80400848" lon="-20.3279419"><ele>42.5</ele><time>2012-07-27T12:17:43.0000000+00:00</time></trkpt><trkpt lat="63.80415726" lon="-20.32821274"><ele>42.6</ele><time>2012-07-27T12:17:48.0000000+00:00</time></trkpt><trkpt lat="63.80431747" lon="-20.3284893"><ele>42.7</ele><time>2012-07-27T12:17:53.0000000+00:00</time></trkpt><trkpt lat="63.80447769" lon="-20.32878494"><ele>42.8</ele><time>2012-07-27T12:17:58.0000000+00:00</time></trkpt><trkpt lat="63.80463028" lon="-20.32907105"><ele>42.9</ele><time>2012-07-27T12:18:03.0000000+00:00</time></trkpt><trkpt lat="63.80477905" lon="-20.3293457"><ele>43.1</ele><time>2012-07-27T12:18:08.0000000+00:00</time></trkpt><trkpt lat="63.80493164" lon="-20.3296299"><ele>43.3</ele><time>2012-07-27T12:18:13.0000000+00:00</time></trkpt><trkpt lat="63.80507278" lon="-20.32989121"><ele>43.5</ele><time>2012-07-27T12:18:18.0000000+00:00</time></trkpt><trkpt lat="63.805233" lon="-20.33018303"><ele>43.4</ele><time>2012-07-27T12:18:23.0000000+00:00</time></trkpt><trkpt lat="63.80539703" lon="-20.33048821"><ele>43.3</ele><time>2012-07-27T12:18:28.0000000+00:00</time></trkpt><trkpt lat="63.80555725" lon="-20.33079147"><ele>43.2</ele><time>2012-07-27T12:18:33.0000000+00:00</time></trkpt><trkpt lat="63.80567169" lon="-20.33100128"><ele>43.4</ele><time>2012-07-27T12:18:38.0000000+00:00</time></trkpt><trkpt lat="63.80576325" lon="-20.33116531"><ele>43.3</ele><time>2012-07-27T12:18:43.0000000+00:00</time></trkpt><trkpt lat="63.80587769" lon="-20.33137894"><ele>43.0</ele><time>2012-07-27T12:18:48.0000000+00:00</time></trkpt><trkpt lat="63.80602264" lon="-20.33163643"><ele>43.1</ele><time>2012-07-27T12:18:53.0000000+00:00</time></trkpt><trkpt lat="63.80617523" lon="-20.33192444"><ele>43.1</ele><time>2012-07-27T12:18:58.0000000+00:00</time></trkpt><trkpt lat="63.80633926" lon="-20.33221817"><ele>43.5</ele><time>2012-07-27T12:19:03.0000000+00:00</time></trkpt><trkpt lat="63.8065033" lon="-20.33252144"><ele>43.0</ele><time>2012-07-27T12:19:08.0000000+00:00</time></trkpt><trkpt lat="63.80663681" lon="-20.33275604"><ele>42.9</ele><time>2012-07-27T12:19:13.0000000+00:00</time></trkpt><trkpt lat="63.8067894" lon="-20.33302689"><ele>42.6</ele><time>2012-07-27T12:19:18.0000000+00:00</time></trkpt><trkpt lat="63.8069458" lon="-20.3333168"><ele>42.5</ele><time>2012-07-27T12:19:23.0000000+00:00</time></trkpt><trkpt lat="63.8071022" lon="-20.33359337"><ele>42.5</ele><time>2012-07-27T12:19:28.0000000+00:00</time></trkpt><trkpt lat="63.80722427" lon="-20.33382034"><ele>42.3</ele><time>2012-07-27T12:19:33.0000000+00:00</time></trkpt><trkpt lat="63.80735779" lon="-20.33405304"><ele>42.7</ele><time>2012-07-27T12:19:38.0000000+00:00</time></trkpt><trkpt lat="63.80749893" lon="-20.33431244"><ele>43.0</ele><time>2012-07-27T12:19:43.0000000+00:00</time></trkpt><trkpt lat="63.80765533" lon="-20.33458901"><ele>42.5</ele><time>2012-07-27T12:19:48.0000000+00:00</time></trkpt><trkpt lat="63.80781174" lon="-20.33486748"><ele>42.4</ele><time>2012-07-27T12:19:53.0000000+00:00</time></trkpt><trkpt lat="63.80793762" lon="-20.33507347"><ele>42.6</ele><time>2012-07-27T12:19:58.0000000+00:00</time></trkpt><trkpt lat="63.80808258" lon="-20.33530235"><ele>42.6</ele><time>2012-07-27T12:20:03.0000000+00:00</time></trkpt><trkpt lat="63.80823898" lon="-20.3355732"><ele>42.1</ele><time>2012-07-27T12:20:08.0000000+00:00</time></trkpt><trkpt lat="63.80840683" lon="-20.33586502"><ele>42.2</ele><time>2012-07-27T12:20:13.0000000+00:00</time></trkpt><trkpt lat="63.80857849" lon="-20.33612633"><ele>42.8</ele><time>2012-07-27T12:20:18.0000000+00:00</time></trkpt><trkpt lat="63.80872345" lon="-20.33634567"><ele>43.0</ele><time>2012-07-27T12:20:23.0000000+00:00</time></trkpt><trkpt lat="63.80886841" lon="-20.33658981"><ele>42.6</ele><time>2012-07-27T12:20:28.0000000+00:00</time></trkpt><trkpt lat="63.80904007" lon="-20.33686829"><ele>42.9</ele><time>2012-07-27T12:20:33.0000000+00:00</time></trkpt><trkpt lat="63.80923462" lon="-20.33716393"><ele>42.7</ele><time>2012-07-27T12:20:38.0000000+00:00</time></trkpt><trkpt lat="63.80941391" lon="-20.33743477"><ele>42.5</ele><time>2012-07-27T12:20:43.0000000+00:00</time></trkpt><trkpt lat="63.8095665" lon="-20.33766747"><ele>42.7</ele><time>2012-07-27T12:20:48.0000000+00:00</time></trkpt><trkpt lat="63.80973816" lon="-20.33792687"><ele>42.2</ele><time>2012-07-27T12:20:53.0000000+00:00</time></trkpt><trkpt lat="63.80991745" lon="-20.33818436"><ele>41.6</ele><time>2012-07-27T12:20:58.0000000+00:00</time></trkpt><trkpt lat="63.81010819" lon="-20.33846664"><ele>40.5</ele><time>2012-07-27T12:21:03.0000000+00:00</time></trkpt><trkpt lat="63.81030655" lon="-20.33874321"><ele>40.4</ele><time>2012-07-27T12:21:08.0000000+00:00</time></trkpt><trkpt lat="63.81047821" lon="-20.33896256"><ele>40.8</ele><time>2012-07-27T12:21:13.0000000+00:00</time></trkpt><trkpt lat="63.81063843" lon="-20.33917999"><ele>40.3</ele><time>2012-07-27T12:21:18.0000000+00:00</time></trkpt><trkpt lat="63.81083298" lon="-20.33941078"><ele>40.6</ele><time>2012-07-27T12:21:23.0000000+00:00</time></trkpt><trkpt lat="63.81101227" lon="-20.33968353"><ele>39.7</ele><time>2012-07-27T12:21:28.0000000+00:00</time></trkpt><trkpt lat="63.81118393" lon="-20.33989334"><ele>41.2</ele><time>2012-07-27T12:21:33.0000000+00:00</time></trkpt><trkpt lat="63.81136322" lon="-20.34011269"><ele>41.4</ele><time>2012-07-27T12:21:38.0000000+00:00</time></trkpt><trkpt lat="63.81154633" lon="-20.34039116"><ele>39.9</ele><time>2012-07-27T12:21:43.0000000+00:00</time></trkpt><trkpt lat="63.81174088" lon="-20.34066582"><ele>42.2</ele><time>2012-07-27T12:21:48.0000000+00:00</time></trkpt><trkpt lat="63.81193924" lon="-20.34094811"><ele>41.5</ele><time>2012-07-27T12:21:53.0000000+00:00</time></trkpt><trkpt lat="63.81212997" lon="-20.34126091"><ele>38.8</ele><time>2012-07-27T12:21:58.0000000+00:00</time></trkpt><trkpt lat="63.8123169" lon="-20.34156609"><ele>38.6</ele><time>2012-07-27T12:22:03.0000000+00:00</time></trkpt><trkpt lat="63.8125" lon="-20.34188461"><ele>37.4</ele><time>2012-07-27T12:22:08.0000000+00:00</time></trkpt><trkpt lat="63.81266022" lon="-20.34218407"><ele>37.0</ele><time>2012-07-27T12:22:13.0000000+00:00</time></trkpt><trkpt lat="63.81282044" lon="-20.34248161"><ele>36.6</ele><time>2012-07-27T12:22:18.0000000+00:00</time></trkpt><trkpt lat="63.81298065" lon="-20.34278107"><ele>36.3</ele><time>2012-07-27T12:22:23.0000000+00:00</time></trkpt><trkpt lat="63.81312561" lon="-20.34308434"><ele>36.2</ele><time>2012-07-27T12:22:28.0000000+00:00</time></trkpt><trkpt lat="63.81325531" lon="-20.34336281"><ele>37.0</ele><time>2012-07-27T12:22:33.0000000+00:00</time></trkpt><trkpt lat="63.81337357" lon="-20.34361839"><ele>37.5</ele><time>2012-07-27T12:22:38.0000000+00:00</time></trkpt><trkpt lat="63.81347656" lon="-20.34385872"><ele>37.6</ele><time>2012-07-27T12:22:43.0000000+00:00</time></trkpt><trkpt lat="63.813591" lon="-20.34411621"><ele>37.8</ele><time>2012-07-27T12:22:48.0000000+00:00</time></trkpt><trkpt lat="63.81371307" lon="-20.34438133"><ele>37.8</ele><time>2012-07-27T12:22:53.0000000+00:00</time></trkpt><trkpt lat="63.81383133" lon="-20.34465027"><ele>37.1</ele><time>2012-07-27T12:22:58.0000000+00:00</time></trkpt><trkpt lat="63.8139534" lon="-20.34492874"><ele>36.7</ele><time>2012-07-27T12:23:03.0000000+00:00</time></trkpt><trkpt lat="63.81407166" lon="-20.34518814"><ele>37.2</ele><time>2012-07-27T12:23:08.0000000+00:00</time></trkpt><trkpt lat="63.8141861" lon="-20.34545517"><ele>37.6</ele><time>2012-07-27T12:23:13.0000000+00:00</time></trkpt><trkpt lat="63.81428528" lon="-20.3456707"><ele>38.0</ele><time>2012-07-27T12:23:18.0000000+00:00</time></trkpt><trkpt lat="63.81438446" lon="-20.34590721"><ele>38.2</ele><time>2012-07-27T12:23:23.0000000+00:00</time></trkpt><trkpt lat="63.81448364" lon="-20.34613609"><ele>38.7</ele><time>2012-07-27T12:23:28.0000000+00:00</time></trkpt><trkpt lat="63.81458664" lon="-20.34636116"><ele>38.4</ele><time>2012-07-27T12:23:33.0000000+00:00</time></trkpt><trkpt lat="63.81468201" lon="-20.34658051"><ele>39.1</ele><time>2012-07-27T12:23:38.0000000+00:00</time></trkpt><trkpt lat="63.81478882" lon="-20.34684181"><ele>39.1</ele><time>2012-07-27T12:23:43.0000000+00:00</time></trkpt><trkpt lat="63.81490707" lon="-20.3470974"><ele>39.7</ele><time>2012-07-27T12:23:48.0000000+00:00</time></trkpt><trkpt lat="63.81502914" lon="-20.34736633"><ele>40.0</ele><time>2012-07-27T12:23:53.0000000+00:00</time></trkpt><trkpt lat="63.81511688" lon="-20.3475647"><ele>40.3</ele><time>2012-07-27T12:23:58.0000000+00:00</time></trkpt><trkpt lat="63.81521225" lon="-20.34776306"><ele>40.7</ele><time>2012-07-27T12:24:03.0000000+00:00</time></trkpt><trkpt lat="63.81532669" lon="-20.34801674"><ele>41.3</ele><time>2012-07-27T12:24:08.0000000+00:00</time></trkpt><trkpt lat="63.81544495" lon="-20.34826088"><ele>41.9</ele><time>2012-07-27T12:24:13.0000000+00:00</time></trkpt><trkpt lat="63.81557083" lon="-20.34852028"><ele>42.0</ele><time>2012-07-27T12:24:18.0000000+00:00</time></trkpt><trkpt lat="63.8157196" lon="-20.34880257"><ele>42.4</ele><time>2012-07-27T12:24:23.0000000+00:00</time></trkpt><trkpt lat="63.81586838" lon="-20.34909821"><ele>42.5</ele><time>2012-07-27T12:24:28.0000000+00:00</time></trkpt><trkpt lat="63.81598282" lon="-20.3493309"><ele>42.6</ele><time>2012-07-27T12:24:33.0000000+00:00</time></trkpt><trkpt lat="63.81608582" lon="-20.34951973"><ele>42.6</ele><time>2012-07-27T12:24:38.0000000+00:00</time></trkpt><trkpt lat="63.81620407" lon="-20.34975433"><ele>43.1</ele><time>2012-07-27T12:24:43.0000000+00:00</time></trkpt><trkpt lat="63.81635666" lon="-20.35002899"><ele>43.2</ele><time>2012-07-27T12:24:48.0000000+00:00</time></trkpt><trkpt lat="63.8164978" lon="-20.35028839"><ele>43.5</ele><time>2012-07-27T12:24:53.0000000+00:00</time></trkpt><trkpt lat="63.81663132" lon="-20.350523"><ele>43.5</ele><time>2012-07-27T12:24:58.0000000+00:00</time></trkpt><trkpt lat="63.81674576" lon="-20.35072136"><ele>43.5</ele><time>2012-07-27T12:25:03.0000000+00:00</time></trkpt><trkpt lat="63.81687546" lon="-20.35095978"><ele>43.0</ele><time>2012-07-27T12:25:08.0000000+00:00</time></trkpt><trkpt lat="63.81702805" lon="-20.35121918"><ele>42.5</ele><time>2012-07-27T12:25:13.0000000+00:00</time></trkpt><trkpt lat="63.81719589" lon="-20.351511"><ele>42.1</ele><time>2012-07-27T12:25:18.0000000+00:00</time></trkpt><trkpt lat="63.81734467" lon="-20.35176849"><ele>41.6</ele><time>2012-07-27T12:25:23.0000000+00:00</time></trkpt><trkpt lat="63.81749725" lon="-20.35200691"><ele>41.0</ele><time>2012-07-27T12:25:28.0000000+00:00</time></trkpt><trkpt lat="63.81766129" lon="-20.3522377"><ele>40.4</ele><time>2012-07-27T12:25:33.0000000+00:00</time></trkpt><trkpt lat="63.8178215" lon="-20.35247231"><ele>39.7</ele><time>2012-07-27T12:25:38.0000000+00:00</time></trkpt><trkpt lat="63.81797028" lon="-20.35270309"><ele>39.5</ele><time>2012-07-27T12:25:43.0000000+00:00</time></trkpt><trkpt lat="63.81813431" lon="-20.35294533"><ele>38.2</ele><time>2012-07-27T12:25:48.0000000+00:00</time></trkpt><trkpt lat="63.81833267" lon="-20.35322571"><ele>36.9</ele><time>2012-07-27T12:25:53.0000000+00:00</time></trkpt><trkpt lat="63.8185463" lon="-20.35353661"><ele>35.1</ele><time>2012-07-27T12:25:58.0000000+00:00</time></trkpt><trkpt lat="63.81879044" lon="-20.35387993"><ele>33.1</ele><time>2012-07-27T12:26:03.0000000+00:00</time></trkpt><trkpt lat="63.81903839" lon="-20.35422134"><ele>31.3</ele><time>2012-07-27T12:26:08.0000000+00:00</time></trkpt><trkpt lat="63.81926346" lon="-20.3545208"><ele>29.8</ele><time>2012-07-27T12:26:13.0000000+00:00</time></trkpt><trkpt lat="63.81946182" lon="-20.35479736"><ele>27.8</ele><time>2012-07-27T12:26:18.0000000+00:00</time></trkpt><trkpt lat="63.81964493" lon="-20.35503006"><ele>26.1</ele><time>2012-07-27T12:26:23.0000000+00:00</time></trkpt><trkpt lat="63.81982803" lon="-20.35530663"><ele>27.6</ele><time>2012-07-27T12:26:28.0000000+00:00</time></trkpt><trkpt lat="63.82001114" lon="-20.35557365"><ele>26.7</ele><time>2012-07-27T12:26:33.0000000+00:00</time></trkpt><trkpt lat="63.8201828" lon="-20.35579681"><ele>25.8</ele><time>2012-07-27T12:26:38.0000000+00:00</time></trkpt><trkpt lat="63.82036209" lon="-20.35606003"><ele>24.4</ele><time>2012-07-27T12:26:43.0000000+00:00</time></trkpt><trkpt lat="63.82054901" lon="-20.35632134"><ele>22.8</ele><time>2012-07-27T12:26:48.0000000+00:00</time></trkpt><trkpt lat="63.82074356" lon="-20.35658264"><ele>21.2</ele><time>2012-07-27T12:26:53.0000000+00:00</time></trkpt><trkpt lat="63.82092285" lon="-20.3567791"><ele>23.8</ele><time>2012-07-27T12:26:58.0000000+00:00</time></trkpt><trkpt lat="63.82110214" lon="-20.35701752"><ele>25.1</ele><time>2012-07-27T12:27:03.0000000+00:00</time></trkpt><trkpt lat="63.82126999" lon="-20.35728455"><ele>20.2</ele><time>2012-07-27T12:27:08.0000000+00:00</time></trkpt><trkpt lat="63.82143784" lon="-20.35751343"><ele>17.9</ele><time>2012-07-27T12:27:13.0000000+00:00</time></trkpt><trkpt lat="63.82159042" lon="-20.35773659"><ele>17.3</ele><time>2012-07-27T12:27:18.0000000+00:00</time></trkpt><trkpt lat="63.82173538" lon="-20.35794067"><ele>17.6</ele><time>2012-07-27T12:27:23.0000000+00:00</time></trkpt><trkpt lat="63.8218689" lon="-20.35815048"><ele>18.8</ele><time>2012-07-27T12:27:28.0000000+00:00</time></trkpt><trkpt lat="63.82199478" lon="-20.35834885"><ele>19.9</ele><time>2012-07-27T12:27:33.0000000+00:00</time></trkpt><trkpt lat="63.82212448" lon="-20.35855293"><ele>20.4</ele><time>2012-07-27T12:27:38.0000000+00:00</time></trkpt><trkpt lat="63.82225037" lon="-20.35874176"><ele>20.7</ele><time>2012-07-27T12:27:43.0000000+00:00</time></trkpt><trkpt lat="63.82238007" lon="-20.35894203"><ele>20.8</ele><time>2012-07-27T12:27:48.0000000+00:00</time></trkpt><trkpt lat="63.82248688" lon="-20.35912132"><ele>20.4</ele><time>2012-07-27T12:27:53.0000000+00:00</time></trkpt><trkpt lat="63.82258987" lon="-20.35928917"><ele>20.4</ele><time>2012-07-27T12:27:58.0000000+00:00</time></trkpt><trkpt lat="63.82269669" lon="-20.35947228"><ele>21.4</ele><time>2012-07-27T12:28:03.0000000+00:00</time></trkpt><trkpt lat="63.82280731" lon="-20.35965157"><ele>22.5</ele><time>2012-07-27T12:28:08.0000000+00:00</time></trkpt><trkpt lat="63.82291412" lon="-20.35984039"><ele>22.8</ele><time>2012-07-27T12:28:13.0000000+00:00</time></trkpt><trkpt lat="63.82301712" lon="-20.36003113"><ele>23.3</ele><time>2012-07-27T12:28:18.0000000+00:00</time></trkpt><trkpt lat="63.82312775" lon="-20.36020088"><ele>24.3</ele><time>2012-07-27T12:28:23.0000000+00:00</time></trkpt><trkpt lat="63.82322311" lon="-20.36036491"><ele>24.6</ele><time>2012-07-27T12:28:28.0000000+00:00</time></trkpt><trkpt lat="63.82328033" lon="-20.36047554"><ele>25.7</ele><time>2012-07-27T12:28:33.0000000+00:00</time></trkpt><trkpt lat="63.82336426" lon="-20.36061859"><ele>26.2</ele><time>2012-07-27T12:28:38.0000000+00:00</time></trkpt><trkpt lat="63.82344818" lon="-20.36078262"><ele>27.5</ele><time>2012-07-27T12:28:43.0000000+00:00</time></trkpt><trkpt lat="63.82353592" lon="-20.3609333"><ele>28.2</ele><time>2012-07-27T12:28:48.0000000+00:00</time></trkpt><trkpt lat="63.82362366" lon="-20.36110115"><ele>29.4</ele><time>2012-07-27T12:28:53.0000000+00:00</time></trkpt><trkpt lat="63.82371521" lon="-20.36127091"><ele>30.5</ele><time>2012-07-27T12:28:58.0000000+00:00</time></trkpt><trkpt lat="63.82380676" lon="-20.36144066"><ele>30.9</ele><time>2012-07-27T12:29:03.0000000+00:00</time></trkpt><trkpt lat="63.82389069" lon="-20.36161232"><ele>32.0</ele><time>2012-07-27T12:29:08.0000000+00:00</time></trkpt><trkpt lat="63.82397842" lon="-20.36179352"><ele>32.7</ele><time>2012-07-27T12:29:13.0000000+00:00</time></trkpt><trkpt lat="63.82406616" lon="-20.36197853"><ele>33.5</ele><time>2012-07-27T12:29:18.0000000+00:00</time></trkpt><trkpt lat="63.82415772" lon="-20.3621769"><ele>33.9</ele><time>2012-07-27T12:29:23.0000000+00:00</time></trkpt><trkpt lat="63.82424545" lon="-20.36237717"><ele>34.0</ele><time>2012-07-27T12:29:28.0000000+00:00</time></trkpt><trkpt lat="63.82434464" lon="-20.36260033"><ele>34.3</ele><time>2012-07-27T12:29:33.0000000+00:00</time></trkpt><trkpt lat="63.82445145" lon="-20.36284256"><ele>34.8</ele><time>2012-07-27T12:29:38.0000000+00:00</time></trkpt><trkpt lat="63.82453919" lon="-20.36303902"><ele>35.1</ele><time>2012-07-27T12:29:43.0000000+00:00</time></trkpt><trkpt lat="63.82459259" lon="-20.36318016"><ele>34.8</ele><time>2012-07-27T12:29:48.0000000+00:00</time></trkpt><trkpt lat="63.82468033" lon="-20.36339188"><ele>35.1</ele><time>2012-07-27T12:29:53.0000000+00:00</time></trkpt><trkpt lat="63.82478333" lon="-20.36364365"><ele>35.6</ele><time>2012-07-27T12:29:58.0000000+00:00</time></trkpt><trkpt lat="63.82489395" lon="-20.36392403"><ele>35.7</ele><time>2012-07-27T12:30:03.0000000+00:00</time></trkpt><trkpt lat="63.82498932" lon="-20.3641777"><ele>35.6</ele><time>2012-07-27T12:30:08.0000000+00:00</time></trkpt><trkpt lat="63.82504654" lon="-20.36434364"><ele>35.8</ele><time>2012-07-27T12:30:13.0000000+00:00</time></trkpt><trkpt lat="63.82506561" lon="-20.36436653"><ele>37.0</ele><time>2012-07-27T12:30:18.0000000+00:00</time></trkpt><trkpt lat="63.82506943" lon="-20.36436844"><ele>37.1</ele><time>2012-07-27T12:30:23.0000000+00:00</time></trkpt><trkpt lat="63.82507324" lon="-20.36437035"><ele>37.1</ele><time>2012-07-27T12:30:28.0000000+00:00</time></trkpt><trkpt lat="63.82507324" lon="-20.36437035"><ele>37.1</ele><time>2012-07-27T12:30:33.0000000+00:00</time></trkpt><trkpt lat="63.82507324" lon="-20.36437035"><ele>37.1</ele><time>2012-07-27T12:30:38.0000000+00:00</time></trkpt><trkpt lat="63.82507324" lon="-20.36437035"><ele>37.1</ele><time>2012-07-27T12:30:43.0000000+00:00</time></trkpt><trkpt lat="63.82507324" lon="-20.36437035"><ele>37.1</ele><time>2012-07-27T12:30:48.0000000+00:00</time></trkpt><trkpt lat="63.82507324" lon="-20.36436844"><ele>37.2</ele><time>2012-07-27T12:30:53.0000000+00:00</time></trkpt><trkpt lat="63.82507324" lon="-20.36436844"><ele>37.2</ele><time>2012-07-27T12:30:58.0000000+00:00</time></trkpt><trkpt lat="63.82507324" lon="-20.36436844"><ele>37.2</ele><time>2012-07-27T12:31:03.0000000+00:00</time></trkpt><trkpt lat="63.82507324" lon="-20.36436844"><ele>37.3</ele><time>2012-07-27T12:31:08.0000000+00:00</time></trkpt><trkpt lat="63.82506943" lon="-20.36436844"><ele>37.3</ele><time>2012-07-27T12:31:13.0000000+00:00</time></trkpt><trkpt lat="63.82506943" lon="-20.36437798"><ele>37.3</ele><time>2012-07-27T12:31:18.0000000+00:00</time></trkpt><trkpt lat="63.82509613" lon="-20.36446571"><ele>37.4</ele><time>2012-07-27T12:31:23.0000000+00:00</time></trkpt><trkpt lat="63.82512283" lon="-20.36451912"><ele>37.5</ele><time>2012-07-27T12:31:28.0000000+00:00</time></trkpt><trkpt lat="63.82512283" lon="-20.36452293"><ele>37.6</ele><time>2012-07-27T12:31:33.0000000+00:00</time></trkpt><trkpt lat="63.82512283" lon="-20.36452293"><ele>37.6</ele><time>2012-07-27T12:31:38.0000000+00:00</time></trkpt><trkpt lat="63.82512283" lon="-20.36452293"><ele>37.6</ele><time>2012-07-27T12:31:43.0000000+00:00</time></trkpt><trkpt lat="63.82512283" lon="-20.36453056"><ele>37.6</ele><time>2012-07-27T12:31:48.0000000+00:00</time></trkpt><trkpt lat="63.82512283" lon="-20.36452866"><ele>37.6</ele><time>2012-07-27T12:31:53.0000000+00:00</time></trkpt><trkpt lat="63.82512665" lon="-20.36453056"><ele>37.6</ele><time>2012-07-27T12:31:58.0000000+00:00</time></trkpt><trkpt lat="63.82512665" lon="-20.36453056"><ele>37.6</ele><time>2012-07-27T12:32:03.0000000+00:00</time></trkpt><trkpt lat="63.82512665" lon="-20.36453056"><ele>37.6</ele><time>2012-07-27T12:32:08.0000000+00:00</time></trkpt><trkpt lat="63.82512665" lon="-20.36453056"><ele>37.6</ele><time>2012-07-27T12:32:13.0000000+00:00</time></trkpt><trkpt lat="63.82512665" lon="-20.36453056"><ele>37.6</ele><time>2012-07-27T12:32:18.0000000+00:00</time></trkpt><trkpt lat="63.82512665" lon="-20.36453056"><ele>37.6</ele><time>2012-07-27T12:32:23.0000000+00:00</time></trkpt><trkpt lat="63.82512665" lon="-20.36453056"><ele>37.6</ele><time>2012-07-27T12:32:28.0000000+00:00</time></trkpt><trkpt lat="63.82512665" lon="-20.36453056"><ele>37.6</ele><time>2012-07-27T12:32:33.0000000+00:00</time></trkpt><trkpt lat="63.82512665" lon="-20.36453247"><ele>37.7</ele><time>2012-07-27T12:32:38.0000000+00:00</time></trkpt><trkpt lat="63.82513046" lon="-20.3645401"><ele>37.5</ele><time>2012-07-27T12:32:43.0000000+00:00</time></trkpt><trkpt lat="63.82513046" lon="-20.36457825"><ele>36.7</ele><time>2012-07-27T12:32:48.0000000+00:00</time></trkpt><trkpt lat="63.82517624" lon="-20.36473274"><ele>36.6</ele><time>2012-07-27T12:32:53.0000000+00:00</time></trkpt><trkpt lat="63.82525635" lon="-20.36497307"><ele>36.7</ele><time>2012-07-27T12:32:58.0000000+00:00</time></trkpt><trkpt lat="63.8253479" lon="-20.36523438"><ele>36.9</ele><time>2012-07-27T12:33:03.0000000+00:00</time></trkpt><trkpt lat="63.82542801" lon="-20.36550903"><ele>37.1</ele><time>2012-07-27T12:33:08.0000000+00:00</time></trkpt><trkpt lat="63.8255043" lon="-20.36575127"><ele>36.9</ele><time>2012-07-27T12:33:13.0000000+00:00</time></trkpt><trkpt lat="63.82559586" lon="-20.3660202"><ele>37.2</ele><time>2012-07-27T12:33:18.0000000+00:00</time></trkpt><trkpt lat="63.82567596" lon="-20.36632347"><ele>36.9</ele><time>2012-07-27T12:33:23.0000000+00:00</time></trkpt><trkpt lat="63.82577515" lon="-20.36666489"><ele>36.8</ele><time>2012-07-27T12:33:28.0000000+00:00</time></trkpt><trkpt lat="63.8258667" lon="-20.36698532"><ele>36.6</ele><time>2012-07-27T12:33:33.0000000+00:00</time></trkpt><trkpt lat="63.82596207" lon="-20.3673172"><ele>36.1</ele><time>2012-07-27T12:33:38.0000000+00:00</time></trkpt><trkpt lat="63.82605362" lon="-20.36764526"><ele>35.6</ele><time>2012-07-27T12:33:43.0000000+00:00</time></trkpt><trkpt lat="63.82615662" lon="-20.36802864"><ele>35.6</ele><time>2012-07-27T12:33:48.0000000+00:00</time></trkpt><trkpt lat="63.82626724" lon="-20.36844063"><ele>35.1</ele><time>2012-07-27T12:33:53.0000000+00:00</time></trkpt><trkpt lat="63.82638168" lon="-20.36888313"><ele>34.3</ele><time>2012-07-27T12:33:58.0000000+00:00</time></trkpt><trkpt lat="63.82650375" lon="-20.36938286"><ele>33.7</ele><time>2012-07-27T12:34:03.0000000+00:00</time></trkpt><trkpt lat="63.82663345" lon="-20.3699379"><ele>33.0</ele><time>2012-07-27T12:34:08.0000000+00:00</time></trkpt><trkpt lat="63.82676315" lon="-20.37051773"><ele>32.9</ele><time>2012-07-27T12:34:13.0000000+00:00</time></trkpt><trkpt lat="63.82688522" lon="-20.37105942"><ele>32.9</ele><time>2012-07-27T12:34:18.0000000+00:00</time></trkpt><trkpt lat="63.82700729" lon="-20.37161446"><ele>32.0</ele><time>2012-07-27T12:34:23.0000000+00:00</time></trkpt><trkpt lat="63.82714462" lon="-20.37218475"><ele>31.9</ele><time>2012-07-27T12:34:28.0000000+00:00</time></trkpt><trkpt lat="63.82728195" lon="-20.37279701"><ele>31.5</ele><time>2012-07-27T12:34:33.0000000+00:00</time></trkpt><trkpt lat="63.82741928" lon="-20.37340355"><ele>30.6</ele><time>2012-07-27T12:34:38.0000000+00:00</time></trkpt><trkpt lat="63.82754898" lon="-20.37397385"><ele>30.1</ele><time>2012-07-27T12:34:43.0000000+00:00</time></trkpt><trkpt lat="63.82767487" lon="-20.37454987"><ele>29.9</ele><time>2012-07-27T12:34:48.0000000+00:00</time></trkpt><trkpt lat="63.8278122" lon="-20.3751564"><ele>28.8</ele><time>2012-07-27T12:34:53.0000000+00:00</time></trkpt><trkpt lat="63.82793427" lon="-20.37574387"><ele>27.8</ele><time>2012-07-27T12:34:58.0000000+00:00</time></trkpt><trkpt lat="63.82806015" lon="-20.37627983"><ele>27.5</ele><time>2012-07-27T12:35:03.0000000+00:00</time></trkpt><trkpt lat="63.82817459" lon="-20.37680244"><ele>27.8</ele><time>2012-07-27T12:35:08.0000000+00:00</time></trkpt><trkpt lat="63.82828522" lon="-20.37730598"><ele>28.1</ele><time>2012-07-27T12:35:13.0000000+00:00</time></trkpt><trkpt lat="63.82837677" lon="-20.37770081"><ele>28.8</ele><time>2012-07-27T12:35:18.0000000+00:00</time></trkpt><trkpt lat="63.82844544" lon="-20.37800407"><ele>29.9</ele><time>2012-07-27T12:35:23.0000000+00:00</time></trkpt><trkpt lat="63.82849503" lon="-20.37825584"><ele>30.0</ele><time>2012-07-27T12:35:28.0000000+00:00</time></trkpt><trkpt lat="63.82853699" lon="-20.37843323"><ele>29.9</ele><time>2012-07-27T12:35:33.0000000+00:00</time></trkpt><trkpt lat="63.82857132" lon="-20.37859535"><ele>30.4</ele><time>2012-07-27T12:35:38.0000000+00:00</time></trkpt><trkpt lat="63.82862091" lon="-20.3787899"><ele>30.6</ele><time>2012-07-27T12:35:43.0000000+00:00</time></trkpt><trkpt lat="63.82865906" lon="-20.37897301"><ele>30.9</ele><time>2012-07-27T12:35:48.0000000+00:00</time></trkpt><trkpt lat="63.82870865" lon="-20.37916756"><ele>31.6</ele><time>2012-07-27T12:35:53.0000000+00:00</time></trkpt><trkpt lat="63.82875824" lon="-20.37938881"><ele>32.3</ele><time>2012-07-27T12:35:58.0000000+00:00</time></trkpt><trkpt lat="63.82880783" lon="-20.37961769"><ele>32.4</ele><time>2012-07-27T12:36:03.0000000+00:00</time></trkpt><trkpt lat="63.82886505" lon="-20.37986183"><ele>32.1</ele><time>2012-07-27T12:36:08.0000000+00:00</time></trkpt><trkpt lat="63.82891464" lon="-20.38010216"><ele>32.6</ele><time>2012-07-27T12:36:13.0000000+00:00</time></trkpt><trkpt lat="63.82896805" lon="-20.38033676"><ele>33.4</ele><time>2012-07-27T12:36:18.0000000+00:00</time></trkpt><trkpt lat="63.82902908" lon="-20.380579"><ele>33.7</ele><time>2012-07-27T12:36:23.0000000+00:00</time></trkpt><trkpt lat="63.82909393" lon="-20.38086891"><ele>33.8</ele><time>2012-07-27T12:36:28.0000000+00:00</time></trkpt><trkpt lat="63.82915115" lon="-20.38113403"><ele>34.3</ele><time>2012-07-27T12:36:33.0000000+00:00</time></trkpt><trkpt lat="63.82921982" lon="-20.38141823"><ele>34.3</ele><time>2012-07-27T12:36:38.0000000+00:00</time></trkpt><trkpt lat="63.82926559" lon="-20.38167191"><ele>35.5</ele><time>2012-07-27T12:36:43.0000000+00:00</time></trkpt><trkpt lat="63.82933426" lon="-20.38197327"><ele>36.0</ele><time>2012-07-27T12:36:48.0000000+00:00</time></trkpt><trkpt lat="63.82940292" lon="-20.38223648"><ele>36.1</ele><time>2012-07-27T12:36:53.0000000+00:00</time></trkpt><trkpt lat="63.82946396" lon="-20.38251495"><ele>35.6</ele><time>2012-07-27T12:36:58.0000000+00:00</time></trkpt><trkpt lat="63.82952881" lon="-20.38278961"><ele>36.0</ele><time>2012-07-27T12:37:03.0000000+00:00</time></trkpt><trkpt lat="63.82960129" lon="-20.38307762"><ele>36.5</ele><time>2012-07-27T12:37:08.0000000+00:00</time></trkpt><trkpt lat="63.82966614" lon="-20.38339806"><ele>35.5</ele><time>2012-07-27T12:37:13.0000000+00:00</time></trkpt><trkpt lat="63.82974243" lon="-20.38374519"><ele>34.7</ele><time>2012-07-27T12:37:18.0000000+00:00</time></trkpt><trkpt lat="63.82982254" lon="-20.38409424"><ele>34.4</ele><time>2012-07-27T12:37:23.0000000+00:00</time></trkpt><trkpt lat="63.82989121" lon="-20.38442802"><ele>34.5</ele><time>2012-07-27T12:37:28.0000000+00:00</time></trkpt><trkpt lat="63.8299675" lon="-20.38477707"><ele>34.7</ele><time>2012-07-27T12:37:33.0000000+00:00</time></trkpt><trkpt lat="63.83005142" lon="-20.38511848"><ele>35.4</ele><time>2012-07-27T12:37:38.0000000+00:00</time></trkpt><trkpt lat="63.83012009" lon="-20.3854332"><ele>35.4</ele><time>2012-07-27T12:37:43.0000000+00:00</time></trkpt><trkpt lat="63.83019638" lon="-20.38576698"><ele>35.3</ele><time>2012-07-27T12:37:48.0000000+00:00</time></trkpt><trkpt lat="63.83027649" lon="-20.38613701"><ele>34.7</ele><time>2012-07-27T12:37:53.0000000+00:00</time></trkpt><trkpt lat="63.83036041" lon="-20.38650513"><ele>34.2</ele><time>2012-07-27T12:37:58.0000000+00:00</time></trkpt><trkpt lat="63.83044815" lon="-20.38691521"><ele>34.3</ele><time>2012-07-27T12:38:03.0000000+00:00</time></trkpt><trkpt lat="63.83053207" lon="-20.38729668"><ele>34.2</ele><time>2012-07-27T12:38:08.0000000+00:00</time></trkpt><trkpt lat="63.83060837" lon="-20.38763046"><ele>34.2</ele><time>2012-07-27T12:38:13.0000000+00:00</time></trkpt><trkpt lat="63.83069611" lon="-20.3880043"><ele>34.4</ele><time>2012-07-27T12:38:18.0000000+00:00</time></trkpt><trkpt lat="63.83078003" lon="-20.38837242"><ele>34.7</ele><time>2012-07-27T12:38:23.0000000+00:00</time></trkpt><trkpt lat="63.83086014" lon="-20.388731"><ele>34.7</ele><time>2012-07-27T12:38:28.0000000+00:00</time></trkpt><trkpt lat="63.83093643" lon="-20.38906288"><ele>33.9</ele><time>2012-07-27T12:38:33.0000000+00:00</time></trkpt><trkpt lat="63.83102036" lon="-20.38944626"><ele>35.1</ele><time>2012-07-27T12:38:38.0000000+00:00</time></trkpt><trkpt lat="63.83110046" lon="-20.38981247"><ele>34.8</ele><time>2012-07-27T12:38:43.0000000+00:00</time></trkpt><trkpt lat="63.83118439" lon="-20.39019203"><ele>34.2</ele><time>2012-07-27T12:38:48.0000000+00:00</time></trkpt><trkpt lat="63.83126831" lon="-20.39056969"><ele>33.8</ele><time>2012-07-27T12:38:53.0000000+00:00</time></trkpt><trkpt lat="63.83135605" lon="-20.39096069"><ele>34.5</ele><time>2012-07-27T12:38:58.0000000+00:00</time></trkpt><trkpt lat="63.83143997" lon="-20.3913269"><ele>34.2</ele><time>2012-07-27T12:39:03.0000000+00:00</time></trkpt><trkpt lat="63.83152008" lon="-20.39168739"><ele>34.4</ele><time>2012-07-27T12:39:08.0000000+00:00</time></trkpt><trkpt lat="63.83160782" lon="-20.39206505"><ele>34.7</ele><time>2012-07-27T12:39:13.0000000+00:00</time></trkpt><trkpt lat="63.83169937" lon="-20.39245987"><ele>35.0</ele><time>2012-07-27T12:39:18.0000000+00:00</time></trkpt><trkpt lat="63.83178711" lon="-20.39281845"><ele>34.5</ele><time>2012-07-27T12:39:23.0000000+00:00</time></trkpt><trkpt lat="63.83188248" lon="-20.39322662"><ele>35.0</ele><time>2012-07-27T12:39:28.0000000+00:00</time></trkpt><trkpt lat="63.8319664" lon="-20.3936367"><ele>35.2</ele><time>2012-07-27T12:39:33.0000000+00:00</time></trkpt><trkpt lat="63.83205414" lon="-20.39403343"><ele>34.8</ele><time>2012-07-27T12:39:38.0000000+00:00</time></trkpt><trkpt lat="63.83214569" lon="-20.39444923"><ele>35.2</ele><time>2012-07-27T12:39:43.0000000+00:00</time></trkpt><trkpt lat="63.83224487" lon="-20.39486122"><ele>35.1</ele><time>2012-07-27T12:39:48.0000000+00:00</time></trkpt><trkpt lat="63.8323288" lon="-20.39522362"><ele>35.6</ele><time>2012-07-27T12:39:53.0000000+00:00</time></trkpt><trkpt lat="63.83239365" lon="-20.39555359"><ele>34.0</ele><time>2012-07-27T12:39:58.0000000+00:00</time></trkpt><trkpt lat="63.83246231" lon="-20.39588547"><ele>33.8</ele><time>2012-07-27T12:40:03.0000000+00:00</time></trkpt><trkpt lat="63.83255386" lon="-20.39628029"><ele>33.9</ele><time>2012-07-27T12:40:08.0000000+00:00</time></trkpt><trkpt lat="63.83265305" lon="-20.396698"><ele>33.5</ele><time>2012-07-27T12:40:13.0000000+00:00</time></trkpt><trkpt lat="63.83273697" lon="-20.39708901"><ele>32.7</ele><time>2012-07-27T12:40:18.0000000+00:00</time></trkpt><trkpt lat="63.83281326" lon="-20.39743042"><ele>32.7</ele><time>2012-07-27T12:40:23.0000000+00:00</time></trkpt><trkpt lat="63.83288574" lon="-20.39772415"><ele>32.5</ele><time>2012-07-27T12:40:28.0000000+00:00</time></trkpt><trkpt lat="63.83294296" lon="-20.39800644"><ele>32.8</ele><time>2012-07-27T12:40:33.0000000+00:00</time></trkpt><trkpt lat="63.833004" lon="-20.3982811"><ele>33.0</ele><time>2012-07-27T12:40:38.0000000+00:00</time></trkpt><trkpt lat="63.83307648" lon="-20.39856911"><ele>33.0</ele><time>2012-07-27T12:40:43.0000000+00:00</time></trkpt><trkpt lat="63.83315277" lon="-20.39888954"><ele>32.8</ele><time>2012-07-27T12:40:48.0000000+00:00</time></trkpt><trkpt lat="63.8332634" lon="-20.39921379"><ele>34.1</ele><time>2012-07-27T12:40:53.0000000+00:00</time></trkpt><trkpt lat="63.8333168" lon="-20.39943695"><ele>33.3</ele><time>2012-07-27T12:40:58.0000000+00:00</time></trkpt><trkpt lat="63.83337021" lon="-20.39962387"><ele>33.0</ele><time>2012-07-27T12:41:03.0000000+00:00</time></trkpt><trkpt lat="63.83346939" lon="-20.39992523"><ele>32.8</ele><time>2012-07-27T12:41:08.0000000+00:00</time></trkpt><trkpt lat="63.83356476" lon="-20.40020943"><ele>31.3</ele><time>2012-07-27T12:41:13.0000000+00:00</time></trkpt><trkpt lat="63.83366394" lon="-20.40047455"><ele>30.8</ele><time>2012-07-27T12:41:18.0000000+00:00</time></trkpt><trkpt lat="63.83376694" lon="-20.40073967"><ele>31.1</ele><time>2012-07-27T12:41:23.0000000+00:00</time></trkpt><trkpt lat="63.83387375" lon="-20.40099716"><ele>30.3</ele><time>2012-07-27T12:41:28.0000000+00:00</time></trkpt><trkpt lat="63.83397675" lon="-20.40120697"><ele>30.3</ele><time>2012-07-27T12:41:33.0000000+00:00</time></trkpt><trkpt lat="63.83407974" lon="-20.40141296"><ele>29.9</ele><time>2012-07-27T12:41:38.0000000+00:00</time></trkpt><trkpt lat="63.834198" lon="-20.40165901"><ele>30.8</ele><time>2012-07-27T12:41:43.0000000+00:00</time></trkpt><trkpt lat="63.83432007" lon="-20.40189552"><ele>32.3</ele><time>2012-07-27T12:41:48.0000000+00:00</time></trkpt><trkpt lat="63.83447647" lon="-20.40187073"><ele>38.6</ele><time>2012-07-27T12:41:53.0000000+00:00</time></trkpt><trkpt lat="63.83459091" lon="-20.40160561"><ele>40.4</ele><time>2012-07-27T12:41:58.0000000+00:00</time></trkpt><trkpt lat="63.83467102" lon="-20.40135002"><ele>40.5</ele><time>2012-07-27T12:42:03.0000000+00:00</time></trkpt><trkpt lat="63.83470154" lon="-20.40116882"><ele>40.7</ele><time>2012-07-27T12:42:08.0000000+00:00</time></trkpt><trkpt lat="63.83472443" lon="-20.40114784"><ele>41.8</ele><time>2012-07-27T12:42:13.0000000+00:00</time></trkpt><trkpt lat="63.83471298" lon="-20.40110016"><ele>42.2</ele><time>2012-07-27T12:42:18.0000000+00:00</time></trkpt><trkpt lat="63.83467484" lon="-20.40111542"><ele>42.5</ele><time>2012-07-27T12:42:23.0000000+00:00</time></trkpt><trkpt lat="63.83467484" lon="-20.40111733"><ele>42.7</ele><time>2012-07-27T12:42:28.0000000+00:00</time></trkpt><trkpt lat="63.83467484" lon="-20.40111733"><ele>42.7</ele><time>2012-07-27T12:42:33.0000000+00:00</time></trkpt><trkpt lat="63.83466339" lon="-20.40110779"><ele>42.9</ele><time>2012-07-27T12:42:38.0000000+00:00</time></trkpt><trkpt lat="63.83465958" lon="-20.4011097"><ele>42.7</ele><time>2012-07-27T12:42:43.0000000+00:00</time></trkpt><trkpt lat="63.83460236" lon="-20.40104294"><ele>42.1</ele><time>2012-07-27T12:42:48.0000000+00:00</time></trkpt><trkpt lat="63.83453751" lon="-20.40094185"><ele>42.7</ele><time>2012-07-27T12:42:53.0000000+00:00</time></trkpt><trkpt lat="63.83453369" lon="-20.40089226"><ele>42.3</ele><time>2012-07-27T12:42:58.0000000+00:00</time></trkpt><trkpt lat="63.83453369" lon="-20.40089226"><ele>42.3</ele><time>2012-07-27T12:43:03.0000000+00:00</time></trkpt><trkpt lat="63.83453751" lon="-20.40089989"><ele>42.3</ele><time>2012-07-27T12:43:08.0000000+00:00</time></trkpt><trkpt lat="63.83453751" lon="-20.40089417"><ele>42.3</ele><time>2012-07-27T12:43:13.0000000+00:00</time></trkpt><trkpt lat="63.83453751" lon="-20.40089417"><ele>42.3</ele><time>2012-07-27T12:43:18.0000000+00:00</time></trkpt><trkpt lat="63.83453369" lon="-20.40089417"><ele>42.3</ele><time>2012-07-27T12:43:23.0000000+00:00</time></trkpt><trkpt lat="63.83453369" lon="-20.40089417"><ele>42.3</ele><time>2012-07-27T12:43:28.0000000+00:00</time></trkpt><trkpt lat="63.83453369" lon="-20.40089417"><ele>42.3</ele><time>2012-07-27T12:43:33.0000000+00:00</time></trkpt><trkpt lat="63.83453369" lon="-20.40089417"><ele>42.3</ele><time>2012-07-27T12:43:38.0000000+00:00</time></trkpt><trkpt lat="63.83453369" lon="-20.40089417"><ele>42.3</ele><time>2012-07-27T12:43:43.0000000+00:00</time></trkpt><trkpt lat="63.83453369" lon="-20.40089417"><ele>42.2</ele><time>2012-07-27T12:43:48.0000000+00:00</time></trkpt><trkpt lat="63.83453369" lon="-20.40089417"><ele>42.2</ele><time>2012-07-27T12:43:53.0000000+00:00</time></trkpt><trkpt lat="63.83453369" lon="-20.40089417"><ele>42.2</ele><time>2012-07-27T12:43:58.0000000+00:00</time></trkpt><trkpt lat="63.83453369" lon="-20.40089417"><ele>42.2</ele><time>2012-07-27T12:44:03.0000000+00:00</time></trkpt><trkpt lat="63.83453369" lon="-20.40089226"><ele>42.2</ele><time>2012-07-27T12:44:08.0000000+00:00</time></trkpt><trkpt lat="63.83453369" lon="-20.40089226"><ele>42.2</ele><time>2012-07-27T12:44:13.0000000+00:00</time></trkpt><trkpt lat="63.83453369" lon="-20.40089226"><ele>42.2</ele><time>2012-07-27T12:44:18.0000000+00:00</time></trkpt><trkpt lat="63.83453369" lon="-20.40089226"><ele>42.2</ele><time>2012-07-27T12:44:23.0000000+00:00</time></trkpt><trkpt lat="63.83453369" lon="-20.40089226"><ele>42.2</ele><time>2012-07-27T12:44:28.0000000+00:00</time></trkpt><trkpt lat="63.83453369" lon="-20.40089226"><ele>42.2</ele><time>2012-07-27T12:44:33.0000000+00:00</time></trkpt><trkpt lat="63.83453369" lon="-20.40089035"><ele>42.2</ele><time>2012-07-27T12:44:38.0000000+00:00</time></trkpt><trkpt lat="63.83453369" lon="-20.40089035"><ele>42.2</ele><time>2012-07-27T12:44:43.0000000+00:00</time></trkpt><trkpt lat="63.83453369" lon="-20.40089035"><ele>42.2</ele><time>2012-07-27T12:44:48.0000000+00:00</time></trkpt><trkpt lat="63.83453369" lon="-20.40089035"><ele>42.2</ele><time>2012-07-27T12:44:53.0000000+00:00</time></trkpt><trkpt lat="63.83453369" lon="-20.40089035"><ele>42.2</ele><time>2012-07-27T12:44:58.0000000+00:00</time></trkpt><trkpt lat="63.83453369" lon="-20.40089035"><ele>42.2</ele><time>2012-07-27T12:45:03.0000000+00:00</time></trkpt><trkpt lat="63.83453369" lon="-20.40089035"><ele>42.2</ele><time>2012-07-27T12:45:08.0000000+00:00</time></trkpt><trkpt lat="63.83453369" lon="-20.40089226"><ele>42.2</ele><time>2012-07-27T12:45:13.0000000+00:00</time></trkpt><trkpt lat="63.83453369" lon="-20.40089226"><ele>42.2</ele><time>2012-07-27T12:45:18.0000000+00:00</time></trkpt><trkpt lat="63.83453369" lon="-20.40089226"><ele>42.2</ele><time>2012-07-27T12:45:23.0000000+00:00</time></trkpt><trkpt lat="63.83453369" lon="-20.40089226"><ele>42.2</ele><time>2012-07-27T12:45:28.0000000+00:00</time></trkpt><trkpt lat="63.83453369" lon="-20.40089226"><ele>42.2</ele><time>2012-07-27T12:45:33.0000000+00:00</time></trkpt><trkpt lat="63.83453369" lon="-20.40089226"><ele>42.2</ele><time>2012-07-27T12:45:38.0000000+00:00</time></trkpt><trkpt lat="63.83453369" lon="-20.40089226"><ele>42.2</ele><time>2012-07-27T12:45:43.0000000+00:00</time></trkpt><trkpt lat="63.83453369" lon="-20.40089417"><ele>42.2</ele><time>2012-07-27T12:45:48.0000000+00:00</time></trkpt><trkpt lat="63.83453369" lon="-20.40089417"><ele>42.2</ele><time>2012-07-27T12:45:53.0000000+00:00</time></trkpt><trkpt lat="63.83453369" lon="-20.40089417"><ele>42.3</ele><time>2012-07-27T12:45:58.0000000+00:00</time></trkpt><trkpt lat="63.83453369" lon="-20.40089417"><ele>42.3</ele><time>2012-07-27T12:46:03.0000000+00:00</time></trkpt><trkpt lat="63.83453369" lon="-20.40089607"><ele>42.3</ele><time>2012-07-27T12:46:08.0000000+00:00</time></trkpt><trkpt lat="63.83453369" lon="-20.40089607"><ele>42.3</ele><time>2012-07-27T12:46:13.0000000+00:00</time></trkpt><trkpt lat="63.83453369" lon="-20.40089607"><ele>42.3</ele><time>2012-07-27T12:46:18.0000000+00:00</time></trkpt><trkpt lat="63.83453369" lon="-20.40089607"><ele>42.3</ele><time>2012-07-27T12:46:23.0000000+00:00</time></trkpt><trkpt lat="63.83453369" lon="-20.40089607"><ele>42.3</ele><time>2012-07-27T12:46:28.0000000+00:00</time></trkpt><trkpt lat="63.83453369" lon="-20.40089607"><ele>42.3</ele><time>2012-07-27T12:46:33.0000000+00:00</time></trkpt><trkpt lat="63.83453369" lon="-20.40089607"><ele>42.3</ele><time>2012-07-27T12:46:38.0000000+00:00</time></trkpt><trkpt lat="63.83453369" lon="-20.40089607"><ele>42.3</ele><time>2012-07-27T12:46:43.0000000+00:00</time></trkpt><trkpt lat="63.83453369" lon="-20.40089607"><ele>42.3</ele><time>2012-07-27T12:46:48.0000000+00:00</time></trkpt><trkpt lat="63.83453369" lon="-20.40089607"><ele>42.3</ele><time>2012-07-27T12:46:53.0000000+00:00</time></trkpt><trkpt lat="63.83452988" lon="-20.40089607"><ele>42.3</ele><time>2012-07-27T12:46:58.0000000+00:00</time></trkpt><trkpt lat="63.83452988" lon="-20.40089607"><ele>42.3</ele><time>2012-07-27T12:47:03.0000000+00:00</time></trkpt><trkpt lat="63.83452988" lon="-20.40089607"><ele>42.3</ele><time>2012-07-27T12:47:08.0000000+00:00</time></trkpt><trkpt lat="63.83452988" lon="-20.40089607"><ele>42.3</ele><time>2012-07-27T12:47:13.0000000+00:00</time></trkpt><trkpt lat="63.83452988" lon="-20.40089417"><ele>42.3</ele><time>2012-07-27T12:47:18.0000000+00:00</time></trkpt><trkpt lat="63.83452988" lon="-20.40089417"><ele>42.3</ele><time>2012-07-27T12:47:23.0000000+00:00</time></trkpt><trkpt lat="63.83452988" lon="-20.40089607"><ele>42.3</ele><time>2012-07-27T12:47:28.0000000+00:00</time></trkpt><trkpt lat="63.83452988" lon="-20.40089607"><ele>42.3</ele><time>2012-07-27T12:47:33.0000000+00:00</time></trkpt><trkpt lat="63.83452988" lon="-20.40089607"><ele>42.3</ele><time>2012-07-27T12:47:38.0000000+00:00</time></trkpt><trkpt lat="63.83452988" lon="-20.40089417"><ele>42.2</ele><time>2012-07-27T12:47:43.0000000+00:00</time></trkpt><trkpt lat="63.83452988" lon="-20.40089607"><ele>42.2</ele><time>2012-07-27T12:47:48.0000000+00:00</time></trkpt><trkpt lat="63.83452988" lon="-20.40089607"><ele>42.2</ele><time>2012-07-27T12:47:53.0000000+00:00</time></trkpt><trkpt lat="63.83452988" lon="-20.40089607"><ele>42.2</ele><time>2012-07-27T12:47:58.0000000+00:00</time></trkpt><trkpt lat="63.83452988" lon="-20.40089798"><ele>42.3</ele><time>2012-07-27T12:48:03.0000000+00:00</time></trkpt><trkpt lat="63.83452988" lon="-20.40089798"><ele>42.2</ele><time>2012-07-27T12:48:08.0000000+00:00</time></trkpt><trkpt lat="63.83452988" lon="-20.40089798"><ele>42.2</ele><time>2012-07-27T12:48:13.0000000+00:00</time></trkpt><trkpt lat="63.83452988" lon="-20.40089989"><ele>42.3</ele><time>2012-07-27T12:48:18.0000000+00:00</time></trkpt><trkpt lat="63.83452988" lon="-20.40089989"><ele>42.3</ele><time>2012-07-27T12:48:23.0000000+00:00</time></trkpt><trkpt lat="63.83452606" lon="-20.40089989"><ele>42.2</ele><time>2012-07-27T12:48:28.0000000+00:00</time></trkpt><trkpt lat="63.83452606" lon="-20.40089989"><ele>42.3</ele><time>2012-07-27T12:48:33.0000000+00:00</time></trkpt><trkpt lat="63.83452606" lon="-20.40089989"><ele>42.3</ele><time>2012-07-27T12:48:38.0000000+00:00</time></trkpt><trkpt lat="63.83452606" lon="-20.40090179"><ele>42.3</ele><time>2012-07-27T12:48:43.0000000+00:00</time></trkpt><trkpt lat="63.83452606" lon="-20.40090179"><ele>42.3</ele><time>2012-07-27T12:48:48.0000000+00:00</time></trkpt><trkpt lat="63.83452606" lon="-20.40090179"><ele>42.2</ele><time>2012-07-27T12:48:53.0000000+00:00</time></trkpt><trkpt lat="63.83452606" lon="-20.40090179"><ele>42.2</ele><time>2012-07-27T12:48:58.0000000+00:00</time></trkpt><trkpt lat="63.83452606" lon="-20.40090179"><ele>42.2</ele><time>2012-07-27T12:49:03.0000000+00:00</time></trkpt><trkpt lat="63.83452606" lon="-20.40090179"><ele>42.2</ele><time>2012-07-27T12:49:08.0000000+00:00</time></trkpt><trkpt lat="63.83452606" lon="-20.40090179"><ele>42.2</ele><time>2012-07-27T12:49:13.0000000+00:00</time></trkpt><trkpt lat="63.83452606" lon="-20.40090179"><ele>42.2</ele><time>2012-07-27T12:49:18.0000000+00:00</time></trkpt><trkpt lat="63.83452606" lon="-20.40090179"><ele>42.2</ele><time>2012-07-27T12:49:23.0000000+00:00</time></trkpt><trkpt lat="63.83452606" lon="-20.4009037"><ele>42.2</ele><time>2012-07-27T12:49:28.0000000+00:00</time></trkpt><trkpt lat="63.83452606" lon="-20.4009037"><ele>42.2</ele><time>2012-07-27T12:49:33.0000000+00:00</time></trkpt><trkpt lat="63.83452606" lon="-20.4009037"><ele>42.2</ele><time>2012-07-27T12:49:38.0000000+00:00</time></trkpt><trkpt lat="63.83452606" lon="-20.4009037"><ele>42.2</ele><time>2012-07-27T12:49:43.0000000+00:00</time></trkpt><trkpt lat="63.83452606" lon="-20.4009037"><ele>42.2</ele><time>2012-07-27T12:49:48.0000000+00:00</time></trkpt><trkpt lat="63.83452606" lon="-20.4009037"><ele>42.2</ele><time>2012-07-27T12:49:53.0000000+00:00</time></trkpt><trkpt lat="63.83452606" lon="-20.4009037"><ele>42.2</ele><time>2012-07-27T12:49:58.0000000+00:00</time></trkpt><trkpt lat="63.83452606" lon="-20.4009037"><ele>42.1</ele><time>2012-07-27T12:50:03.0000000+00:00</time></trkpt><trkpt lat="63.83452606" lon="-20.4009037"><ele>42.1</ele><time>2012-07-27T12:50:08.0000000+00:00</time></trkpt><trkpt lat="63.83452606" lon="-20.4009037"><ele>42.1</ele><time>2012-07-27T12:50:13.0000000+00:00</time></trkpt><trkpt lat="63.83452606" lon="-20.4009037"><ele>42.1</ele><time>2012-07-27T12:50:18.0000000+00:00</time></trkpt><trkpt lat="63.83452606" lon="-20.4009037"><ele>42.1</ele><time>2012-07-27T12:50:23.0000000+00:00</time></trkpt><trkpt lat="63.83452606" lon="-20.4009037"><ele>42.1</ele><time>2012-07-27T12:50:28.0000000+00:00</time></trkpt><trkpt lat="63.83452606" lon="-20.4009037"><ele>42.0</ele><time>2012-07-27T12:50:33.0000000+00:00</time></trkpt><trkpt lat="63.83452606" lon="-20.4009037"><ele>42.0</ele><time>2012-07-27T12:50:38.0000000+00:00</time></trkpt><trkpt lat="63.83452606" lon="-20.4009037"><ele>42.0</ele><time>2012-07-27T12:50:43.0000000+00:00</time></trkpt><trkpt lat="63.83452606" lon="-20.4009037"><ele>42.0</ele><time>2012-07-27T12:50:48.0000000+00:00</time></trkpt><trkpt lat="63.83452606" lon="-20.4009037"><ele>41.9</ele><time>2012-07-27T12:50:53.0000000+00:00</time></trkpt><trkpt lat="63.83452606" lon="-20.4009037"><ele>41.9</ele><time>2012-07-27T12:50:58.0000000+00:00</time></trkpt><trkpt lat="63.83452606" lon="-20.4009037"><ele>41.9</ele><time>2012-07-27T12:51:03.0000000+00:00</time></trkpt><trkpt lat="63.83452606" lon="-20.4009037"><ele>41.9</ele><time>2012-07-27T12:51:08.0000000+00:00</time></trkpt><trkpt lat="63.83452606" lon="-20.40090561"><ele>41.9</ele><time>2012-07-27T12:51:13.0000000+00:00</time></trkpt><trkpt lat="63.83452606" lon="-20.40090561"><ele>41.9</ele><time>2012-07-27T12:51:18.0000000+00:00</time></trkpt><trkpt lat="63.83452606" lon="-20.40090561"><ele>41.9</ele><time>2012-07-27T12:51:23.0000000+00:00</time></trkpt><trkpt lat="63.83452606" lon="-20.40090561"><ele>41.9</ele><time>2012-07-27T12:51:28.0000000+00:00</time></trkpt><trkpt lat="63.83452606" lon="-20.40090561"><ele>41.9</ele><time>2012-07-27T12:51:33.0000000+00:00</time></trkpt><trkpt lat="63.83452606" lon="-20.40090561"><ele>41.9</ele><time>2012-07-27T12:51:38.0000000+00:00</time></trkpt><trkpt lat="63.83452606" lon="-20.40090752"><ele>41.9</ele><time>2012-07-27T12:51:43.0000000+00:00</time></trkpt><trkpt lat="63.83452606" lon="-20.40090752"><ele>41.9</ele><time>2012-07-27T12:51:48.0000000+00:00</time></trkpt><trkpt lat="63.83452606" lon="-20.40090752"><ele>41.9</ele><time>2012-07-27T12:51:53.0000000+00:00</time></trkpt><trkpt lat="63.83452606" lon="-20.40090752"><ele>41.9</ele><time>2012-07-27T12:51:58.0000000+00:00</time></trkpt><trkpt lat="63.83452606" lon="-20.40090752"><ele>41.9</ele><time>2012-07-27T12:52:03.0000000+00:00</time></trkpt><trkpt lat="63.83452606" lon="-20.40090752"><ele>41.8</ele><time>2012-07-27T12:52:08.0000000+00:00</time></trkpt><trkpt lat="63.83452606" lon="-20.40090561"><ele>41.8</ele><time>2012-07-27T12:52:13.0000000+00:00</time></trkpt><trkpt lat="63.83452606" lon="-20.40090561"><ele>41.8</ele><time>2012-07-27T12:52:18.0000000+00:00</time></trkpt><trkpt lat="63.83452606" lon="-20.40090561"><ele>41.8</ele><time>2012-07-27T12:52:23.0000000+00:00</time></trkpt><trkpt lat="63.83452606" lon="-20.40090561"><ele>41.8</ele><time>2012-07-27T12:52:28.0000000+00:00</time></trkpt><trkpt lat="63.83452606" lon="-20.40090561"><ele>41.8</ele><time>2012-07-27T12:52:33.0000000+00:00</time></trkpt><trkpt lat="63.83452606" lon="-20.40090561"><ele>41.8</ele><time>2012-07-27T12:52:38.0000000+00:00</time></trkpt><trkpt lat="63.83452606" lon="-20.40090561"><ele>41.8</ele><time>2012-07-27T12:52:43.0000000+00:00</time></trkpt><trkpt lat="63.83452606" lon="-20.4009037"><ele>41.9</ele><time>2012-07-27T12:52:48.0000000+00:00</time></trkpt><trkpt lat="63.83452606" lon="-20.40090561"><ele>41.9</ele><time>2012-07-27T12:52:53.0000000+00:00</time></trkpt><trkpt lat="63.83452606" lon="-20.4009037"><ele>41.9</ele><time>2012-07-27T12:52:58.0000000+00:00</time></trkpt><trkpt lat="63.83452606" lon="-20.4009037"><ele>41.9</ele><time>2012-07-27T12:53:03.0000000+00:00</time></trkpt><trkpt lat="63.83452606" lon="-20.4009037"><ele>41.9</ele><time>2012-07-27T12:53:08.0000000+00:00</time></trkpt><trkpt lat="63.83452606" lon="-20.40090561"><ele>41.9</ele><time>2012-07-27T12:53:13.0000000+00:00</time></trkpt><trkpt lat="63.83452606" lon="-20.40090561"><ele>41.9</ele><time>2012-07-27T12:53:18.0000000+00:00</time></trkpt><trkpt lat="63.83452606" lon="-20.40090561"><ele>41.9</ele><time>2012-07-27T12:53:23.0000000+00:00</time></trkpt><trkpt lat="63.83452606" lon="-20.40090561"><ele>41.9</ele><time>2012-07-27T12:53:28.0000000+00:00</time></trkpt><trkpt lat="63.83452606" lon="-20.40090561"><ele>42.0</ele><time>2012-07-27T12:53:33.0000000+00:00</time></trkpt><trkpt lat="63.83452606" lon="-20.40090561"><ele>42.0</ele><time>2012-07-27T12:53:38.0000000+00:00</time></trkpt><trkpt lat="63.83452606" lon="-20.40090561"><ele>42.0</ele><time>2012-07-27T12:53:43.0000000+00:00</time></trkpt><trkpt lat="63.83452606" lon="-20.40090561"><ele>42.0</ele><time>2012-07-27T12:53:48.0000000+00:00</time></trkpt><trkpt lat="63.83452606" lon="-20.40090752"><ele>42.0</ele><time>2012-07-27T12:53:53.0000000+00:00</time></trkpt><trkpt lat="63.83452606" lon="-20.40090752"><ele>42.0</ele><time>2012-07-27T12:53:58.0000000+00:00</time></trkpt><trkpt lat="63.83452606" lon="-20.40090752"><ele>42.0</ele><time>2012-07-27T12:54:03.0000000+00:00</time></trkpt><trkpt lat="63.83452606" lon="-20.40090752"><ele>42.0</ele><time>2012-07-27T12:54:08.0000000+00:00</time></trkpt><trkpt lat="63.83452606" lon="-20.40090752"><ele>42.0</ele><time>2012-07-27T12:54:13.0000000+00:00</time></trkpt><trkpt lat="63.83452606" lon="-20.40090752"><ele>42.0</ele><time>2012-07-27T12:54:18.0000000+00:00</time></trkpt><trkpt lat="63.83452606" lon="-20.40090752"><ele>42.0</ele><time>2012-07-27T12:54:23.0000000+00:00</time></trkpt><trkpt lat="63.83452606" lon="-20.40090752"><ele>42.0</ele><time>2012-07-27T12:54:28.0000000+00:00</time></trkpt><trkpt lat="63.83452606" lon="-20.40090752"><ele>41.9</ele><time>2012-07-27T12:54:33.0000000+00:00</time></trkpt><trkpt lat="63.83452606" lon="-20.40090752"><ele>41.9</ele><time>2012-07-27T12:54:38.0000000+00:00</time></trkpt><trkpt lat="63.83452606" lon="-20.40090942"><ele>42.0</ele><time>2012-07-27T12:54:43.0000000+00:00</time></trkpt><trkpt lat="63.83452606" lon="-20.40090942"><ele>42.0</ele><time>2012-07-27T12:54:48.0000000+00:00</time></trkpt><trkpt lat="63.83452606" lon="-20.40091133"><ele>42.0</ele><time>2012-07-27T12:54:53.0000000+00:00</time></trkpt><trkpt lat="63.83452606" lon="-20.40091133"><ele>42.0</ele><time>2012-07-27T12:54:58.0000000+00:00</time></trkpt><trkpt lat="63.83452606" lon="-20.40091133"><ele>42.0</ele><time>2012-07-27T12:55:03.0000000+00:00</time></trkpt><trkpt lat="63.83452606" lon="-20.40091133"><ele>42.0</ele><time>2012-07-27T12:55:08.0000000+00:00</time></trkpt><trkpt lat="63.83452606" lon="-20.40091133"><ele>42.0</ele><time>2012-07-27T12:55:13.0000000+00:00</time></trkpt><trkpt lat="63.83452606" lon="-20.40091133"><ele>42.0</ele><time>2012-07-27T12:55:18.0000000+00:00</time></trkpt><trkpt lat="63.83452606" lon="-20.40091133"><ele>42.0</ele><time>2012-07-27T12:55:23.0000000+00:00</time></trkpt><trkpt lat="63.83452606" lon="-20.40091133"><ele>42.0</ele><time>2012-07-27T12:55:28.0000000+00:00</time></trkpt><trkpt lat="63.83452606" lon="-20.40091133"><ele>42.0</ele><time>2012-07-27T12:55:33.0000000+00:00</time></trkpt><trkpt lat="63.83452606" lon="-20.40091133"><ele>42.0</ele><time>2012-07-27T12:55:38.0000000+00:00</time></trkpt><trkpt lat="63.83452606" lon="-20.40091133"><ele>42.0</ele><time>2012-07-27T12:55:43.0000000+00:00</time></trkpt><trkpt lat="63.83452606" lon="-20.40090942"><ele>42.0</ele><time>2012-07-27T12:55:48.0000000+00:00</time></trkpt><trkpt lat="63.83452606" lon="-20.40091133"><ele>42.0</ele><time>2012-07-27T12:55:53.0000000+00:00</time></trkpt><trkpt lat="63.83452606" lon="-20.40090942"><ele>42.0</ele><time>2012-07-27T12:55:58.0000000+00:00</time></trkpt><trkpt lat="63.83452606" lon="-20.40090942"><ele>42.0</ele><time>2012-07-27T12:56:03.0000000+00:00</time></trkpt><trkpt lat="63.83452606" lon="-20.40090942"><ele>42.0</ele><time>2012-07-27T12:56:08.0000000+00:00</time></trkpt><trkpt lat="63.83452606" lon="-20.40090942"><ele>42.0</ele><time>2012-07-27T12:56:13.0000000+00:00</time></trkpt><trkpt lat="63.83452606" lon="-20.40090942"><ele>42.0</ele><time>2012-07-27T12:56:18.0000000+00:00</time></trkpt><trkpt lat="63.83452606" lon="-20.40090752"><ele>42.0</ele><time>2012-07-27T12:56:23.0000000+00:00</time></trkpt><trkpt lat="63.83452606" lon="-20.40090752"><ele>42.0</ele><time>2012-07-27T12:56:28.0000000+00:00</time></trkpt><trkpt lat="63.83452606" lon="-20.40090752"><ele>42.0</ele><time>2012-07-27T12:56:33.0000000+00:00</time></trkpt><trkpt lat="63.83452606" lon="-20.40090752"><ele>42.0</ele><time>2012-07-27T12:56:38.0000000+00:00</time></trkpt><trkpt lat="63.83452606" lon="-20.40090561"><ele>42.0</ele><time>2012-07-27T12:56:43.0000000+00:00</time></trkpt><trkpt lat="63.83452606" lon="-20.40090561"><ele>42.0</ele><time>2012-07-27T12:56:48.0000000+00:00</time></trkpt><trkpt lat="63.83452606" lon="-20.4009037"><ele>42.0</ele><time>2012-07-27T12:56:53.0000000+00:00</time></trkpt><trkpt lat="63.83452606" lon="-20.4009037"><ele>41.9</ele><time>2012-07-27T12:56:58.0000000+00:00</time></trkpt><trkpt lat="63.83452606" lon="-20.4009037"><ele>41.9</ele><time>2012-07-27T12:57:03.0000000+00:00</time></trkpt><trkpt lat="63.83452606" lon="-20.4009037"><ele>41.9</ele><time>2012-07-27T12:57:08.0000000+00:00</time></trkpt><trkpt lat="63.83452606" lon="-20.4009037"><ele>41.9</ele><time>2012-07-27T12:57:13.0000000+00:00</time></trkpt><trkpt lat="63.83452606" lon="-20.40090561"><ele>41.9</ele><time>2012-07-27T12:57:18.0000000+00:00</time></trkpt><trkpt lat="63.83452606" lon="-20.40090561"><ele>41.9</ele><time>2012-07-27T12:57:23.0000000+00:00</time></trkpt><trkpt lat="63.83452606" lon="-20.40090561"><ele>41.9</ele><time>2012-07-27T12:57:28.0000000+00:00</time></trkpt><trkpt lat="63.83452606" lon="-20.40090561"><ele>41.9</ele><time>2012-07-27T12:57:33.0000000+00:00</time></trkpt><trkpt lat="63.83452606" lon="-20.40090752"><ele>41.9</ele><time>2012-07-27T12:57:38.0000000+00:00</time></trkpt><trkpt lat="63.83452606" lon="-20.40090752"><ele>41.9</ele><time>2012-07-27T12:57:43.0000000+00:00</time></trkpt><trkpt lat="63.83452606" lon="-20.40090752"><ele>41.9</ele><time>2012-07-27T12:57:48.0000000+00:00</time></trkpt><trkpt lat="63.83452606" lon="-20.40090752"><ele>41.9</ele><time>2012-07-27T12:57:53.0000000+00:00</time></trkpt><trkpt lat="63.83452606" lon="-20.40090942"><ele>41.9</ele><time>2012-07-27T12:57:58.0000000+00:00</time></trkpt><trkpt lat="63.83452606" lon="-20.40090942"><ele>41.9</ele><time>2012-07-27T12:58:03.0000000+00:00</time></trkpt><trkpt lat="63.83452606" lon="-20.40090942"><ele>41.9</ele><time>2012-07-27T12:58:08.0000000+00:00</time></trkpt><trkpt lat="63.83452606" lon="-20.40090942"><ele>41.9</ele><time>2012-07-27T12:58:13.0000000+00:00</time></trkpt><trkpt lat="63.83452606" lon="-20.40090942"><ele>41.8</ele><time>2012-07-27T12:58:18.0000000+00:00</time></trkpt><trkpt lat="63.83452606" lon="-20.40090942"><ele>41.8</ele><time>2012-07-27T12:58:23.0000000+00:00</time></trkpt><trkpt lat="63.83452606" lon="-20.40091133"><ele>41.8</ele><time>2012-07-27T12:58:28.0000000+00:00</time></trkpt><trkpt lat="63.83452606" lon="-20.40091133"><ele>41.8</ele><time>2012-07-27T12:58:33.0000000+00:00</time></trkpt><trkpt lat="63.83452606" lon="-20.40091133"><ele>41.8</ele><time>2012-07-27T12:58:38.0000000+00:00</time></trkpt><trkpt lat="63.83452606" lon="-20.40091133"><ele>41.8</ele><time>2012-07-27T12:58:43.0000000+00:00</time></trkpt><trkpt lat="63.83452606" lon="-20.40091133"><ele>41.8</ele><time>2012-07-27T12:58:48.0000000+00:00</time></trkpt><trkpt lat="63.83452606" lon="-20.40091133"><ele>41.8</ele><time>2012-07-27T12:58:53.0000000+00:00</time></trkpt><trkpt lat="63.83452606" lon="-20.40091133"><ele>41.8</ele><time>2012-07-27T12:58:58.0000000+00:00</time></trkpt><trkpt lat="63.83452606" lon="-20.40090942"><ele>41.8</ele><time>2012-07-27T12:59:03.0000000+00:00</time></trkpt><trkpt lat="63.83452606" lon="-20.40090942"><ele>41.8</ele><time>2012-07-27T12:59:08.0000000+00:00</time></trkpt><trkpt lat="63.83452606" lon="-20.40090942"><ele>41.7</ele><time>2012-07-27T12:59:13.0000000+00:00</time></trkpt><trkpt lat="63.83452606" lon="-20.40090942"><ele>41.7</ele><time>2012-07-27T12:59:18.0000000+00:00</time></trkpt><trkpt lat="63.83452606" lon="-20.40090942"><ele>41.7</ele><time>2012-07-27T12:59:23.0000000+00:00</time></trkpt><trkpt lat="63.83452225" lon="-20.40090942"><ele>41.7</ele><time>2012-07-27T12:59:28.0000000+00:00</time></trkpt><trkpt lat="63.83452225" lon="-20.40090942"><ele>41.7</ele><time>2012-07-27T12:59:33.0000000+00:00</time></trkpt><trkpt lat="63.83452225" lon="-20.40090942"><ele>41.7</ele><time>2012-07-27T12:59:38.0000000+00:00</time></trkpt><trkpt lat="63.83452225" lon="-20.40090942"><ele>41.6</ele><time>2012-07-27T12:59:43.0000000+00:00</time></trkpt><trkpt lat="63.83452225" lon="-20.40090942"><ele>41.6</ele><time>2012-07-27T12:59:48.0000000+00:00</time></trkpt><trkpt lat="63.83452225" lon="-20.40090942"><ele>41.6</ele><time>2012-07-27T12:59:53.0000000+00:00</time></trkpt><trkpt lat="63.83452225" lon="-20.40090942"><ele>41.6</ele><time>2012-07-27T12:59:58.0000000+00:00</time></trkpt><trkpt lat="63.83452225" lon="-20.40091133"><ele>41.6</ele><time>2012-07-27T13:00:03.0000000+00:00</time></trkpt><trkpt lat="63.83452225" lon="-20.40091133"><ele>41.6</ele><time>2012-07-27T13:00:08.0000000+00:00</time></trkpt><trkpt lat="63.83452225" lon="-20.40091133"><ele>41.6</ele><time>2012-07-27T13:00:13.0000000+00:00</time></trkpt><trkpt lat="63.83452225" lon="-20.40091133"><ele>41.6</ele><time>2012-07-27T13:00:18.0000000+00:00</time></trkpt><trkpt lat="63.83452225" lon="-20.40091133"><ele>41.6</ele><time>2012-07-27T13:00:23.0000000+00:00</time></trkpt><trkpt lat="63.83452225" lon="-20.40091133"><ele>41.5</ele><time>2012-07-27T13:00:28.0000000+00:00</time></trkpt><trkpt lat="63.83452225" lon="-20.40091133"><ele>41.5</ele><time>2012-07-27T13:00:33.0000000+00:00</time></trkpt><trkpt lat="63.83452225" lon="-20.40091133"><ele>41.5</ele><time>2012-07-27T13:00:38.0000000+00:00</time></trkpt><trkpt lat="63.83452225" lon="-20.40091133"><ele>41.5</ele><time>2012-07-27T13:00:43.0000000+00:00</time></trkpt><trkpt lat="63.83452225" lon="-20.40091133"><ele>41.5</ele><time>2012-07-27T13:00:48.0000000+00:00</time></trkpt><trkpt lat="63.83452225" lon="-20.40091133"><ele>41.5</ele><time>2012-07-27T13:00:53.0000000+00:00</time></trkpt><trkpt lat="63.83452225" lon="-20.40091133"><ele>41.5</ele><time>2012-07-27T13:00:58.0000000+00:00</time></trkpt><trkpt lat="63.83452225" lon="-20.40091324"><ele>41.5</ele><time>2012-07-27T13:01:03.0000000+00:00</time></trkpt><trkpt lat="63.83452225" lon="-20.40091324"><ele>41.5</ele><time>2012-07-27T13:01:08.0000000+00:00</time></trkpt><trkpt lat="63.83452225" lon="-20.40091324"><ele>41.5</ele><time>2012-07-27T13:01:13.0000000+00:00</time></trkpt><trkpt lat="63.83452225" lon="-20.40091324"><ele>41.5</ele><time>2012-07-27T13:01:18.0000000+00:00</time></trkpt><trkpt lat="63.83452225" lon="-20.40091324"><ele>41.5</ele><time>2012-07-27T13:01:23.0000000+00:00</time></trkpt><trkpt lat="63.83452225" lon="-20.40091515"><ele>41.5</ele><time>2012-07-27T13:01:28.0000000+00:00</time></trkpt><trkpt lat="63.83452225" lon="-20.40091515"><ele>41.4</ele><time>2012-07-27T13:01:33.0000000+00:00</time></trkpt><trkpt lat="63.83452225" lon="-20.40091515"><ele>41.4</ele><time>2012-07-27T13:01:38.0000000+00:00</time></trkpt><trkpt lat="63.83452225" lon="-20.40091515"><ele>41.4</ele><time>2012-07-27T13:01:43.0000000+00:00</time></trkpt><trkpt lat="63.83452225" lon="-20.40091515"><ele>41.4</ele><time>2012-07-27T13:01:48.0000000+00:00</time></trkpt><trkpt lat="63.83452225" lon="-20.40091515"><ele>41.4</ele><time>2012-07-27T13:01:53.0000000+00:00</time></trkpt><trkpt lat="63.83452225" lon="-20.40091515"><ele>41.4</ele><time>2012-07-27T13:01:58.0000000+00:00</time></trkpt><trkpt lat="63.83452225" lon="-20.40091515"><ele>41.4</ele><time>2012-07-27T13:02:03.0000000+00:00</time></trkpt><trkpt lat="63.83452225" lon="-20.40091515"><ele>41.4</ele><time>2012-07-27T13:02:08.0000000+00:00</time></trkpt><trkpt lat="63.83452225" lon="-20.40091515"><ele>41.4</ele><time>2012-07-27T13:02:13.0000000+00:00</time></trkpt><trkpt lat="63.83452225" lon="-20.40091705"><ele>41.4</ele><time>2012-07-27T13:02:18.0000000+00:00</time></trkpt><trkpt lat="63.83452225" lon="-20.40091705"><ele>41.4</ele><time>2012-07-27T13:02:23.0000000+00:00</time></trkpt><trkpt lat="63.83452225" lon="-20.40091705"><ele>41.4</ele><time>2012-07-27T13:02:28.0000000+00:00</time></trkpt><trkpt lat="63.83452225" lon="-20.40091705"><ele>41.4</ele><time>2012-07-27T13:02:33.0000000+00:00</time></trkpt><trkpt lat="63.83452606" lon="-20.40091705"><ele>41.4</ele><time>2012-07-27T13:02:38.0000000+00:00</time></trkpt><trkpt lat="63.83452606" lon="-20.40091705"><ele>41.4</ele><time>2012-07-27T13:02:43.0000000+00:00</time></trkpt><trkpt lat="63.83452606" lon="-20.40091705"><ele>41.4</ele><time>2012-07-27T13:02:48.0000000+00:00</time></trkpt><trkpt lat="63.83452606" lon="-20.40091896"><ele>41.4</ele><time>2012-07-27T13:02:53.0000000+00:00</time></trkpt><trkpt lat="63.83452606" lon="-20.40091896"><ele>41.4</ele><time>2012-07-27T13:02:58.0000000+00:00</time></trkpt><trkpt lat="63.83452606" lon="-20.40091896"><ele>41.4</ele><time>2012-07-27T13:03:03.0000000+00:00</time></trkpt><trkpt lat="63.83452606" lon="-20.40091896"><ele>41.4</ele><time>2012-07-27T13:03:08.0000000+00:00</time></trkpt><trkpt lat="63.83452606" lon="-20.40091896"><ele>41.4</ele><time>2012-07-27T13:03:13.0000000+00:00</time></trkpt><trkpt lat="63.83452606" lon="-20.40091896"><ele>41.4</ele><time>2012-07-27T13:03:18.0000000+00:00</time></trkpt><trkpt lat="63.83452606" lon="-20.40092087"><ele>41.4</ele><time>2012-07-27T13:03:23.0000000+00:00</time></trkpt><trkpt lat="63.83452606" lon="-20.40092087"><ele>41.4</ele><time>2012-07-27T13:03:28.0000000+00:00</time></trkpt><trkpt lat="63.83452606" lon="-20.40092087"><ele>41.4</ele><time>2012-07-27T13:03:33.0000000+00:00</time></trkpt><trkpt lat="63.83452606" lon="-20.40092087"><ele>41.4</ele><time>2012-07-27T13:03:38.0000000+00:00</time></trkpt><trkpt lat="63.83452606" lon="-20.40092087"><ele>41.4</ele><time>2012-07-27T13:03:43.0000000+00:00</time></trkpt><trkpt lat="63.83452606" lon="-20.40092087"><ele>41.4</ele><time>2012-07-27T13:03:48.0000000+00:00</time></trkpt><trkpt lat="63.83452606" lon="-20.40092087"><ele>41.4</ele><time>2012-07-27T13:03:53.0000000+00:00</time></trkpt><trkpt lat="63.83452606" lon="-20.40092087"><ele>41.4</ele><time>2012-07-27T13:03:58.0000000+00:00</time></trkpt><trkpt lat="63.83452606" lon="-20.40092087"><ele>41.3</ele><time>2012-07-27T13:04:03.0000000+00:00</time></trkpt><trkpt lat="63.83452606" lon="-20.40092087"><ele>41.3</ele><time>2012-07-27T13:04:08.0000000+00:00</time></trkpt><trkpt lat="63.83452606" lon="-20.40092087"><ele>41.3</ele><time>2012-07-27T13:04:13.0000000+00:00</time></trkpt><trkpt lat="63.83452606" lon="-20.40092087"><ele>41.3</ele><time>2012-07-27T13:04:18.0000000+00:00</time></trkpt><trkpt lat="63.83452606" lon="-20.40092087"><ele>41.3</ele><time>2012-07-27T13:04:23.0000000+00:00</time></trkpt><trkpt lat="63.83452606" lon="-20.40092087"><ele>41.3</ele><time>2012-07-27T13:04:28.0000000+00:00</time></trkpt><trkpt lat="63.83452606" lon="-20.40092087"><ele>41.3</ele><time>2012-07-27T13:04:33.0000000+00:00</time></trkpt><trkpt lat="63.83452606" lon="-20.40092278"><ele>41.3</ele><time>2012-07-27T13:04:38.0000000+00:00</time></trkpt><trkpt lat="63.83452606" lon="-20.40092278"><ele>41.3</ele><time>2012-07-27T13:04:43.0000000+00:00</time></trkpt><trkpt lat="63.83452606" lon="-20.40092278"><ele>41.3</ele><time>2012-07-27T13:04:48.0000000+00:00</time></trkpt><trkpt lat="63.83452606" lon="-20.40092468"><ele>41.3</ele><time>2012-07-27T13:04:53.0000000+00:00</time></trkpt><trkpt lat="63.83452606" lon="-20.40092468"><ele>41.3</ele><time>2012-07-27T13:04:58.0000000+00:00</time></trkpt><trkpt lat="63.83452606" lon="-20.40092659"><ele>41.3</ele><time>2012-07-27T13:05:03.0000000+00:00</time></trkpt><trkpt lat="63.83452606" lon="-20.40092659"><ele>41.3</ele><time>2012-07-27T13:05:08.0000000+00:00</time></trkpt><trkpt lat="63.83452606" lon="-20.4009285"><ele>41.3</ele><time>2012-07-27T13:05:13.0000000+00:00</time></trkpt><trkpt lat="63.83452606" lon="-20.4009285"><ele>41.3</ele><time>2012-07-27T13:05:18.0000000+00:00</time></trkpt><trkpt lat="63.83452606" lon="-20.4009285"><ele>41.3</ele><time>2012-07-27T13:05:23.0000000+00:00</time></trkpt><trkpt lat="63.83452606" lon="-20.4009285"><ele>41.3</ele><time>2012-07-27T13:05:28.0000000+00:00</time></trkpt><trkpt lat="63.83452988" lon="-20.4009285"><ele>41.3</ele><time>2012-07-27T13:05:33.0000000+00:00</time></trkpt><trkpt lat="63.83452988" lon="-20.40093041"><ele>41.3</ele><time>2012-07-27T13:05:38.0000000+00:00</time></trkpt><trkpt lat="63.83452988" lon="-20.40093041"><ele>41.3</ele><time>2012-07-27T13:05:43.0000000+00:00</time></trkpt><trkpt lat="63.83452988" lon="-20.40093041"><ele>41.3</ele><time>2012-07-27T13:05:48.0000000+00:00</time></trkpt><trkpt lat="63.83452988" lon="-20.40093041"><ele>41.3</ele><time>2012-07-27T13:05:53.0000000+00:00</time></trkpt><trkpt lat="63.83452988" lon="-20.40093041"><ele>41.3</ele><time>2012-07-27T13:05:58.0000000+00:00</time></trkpt><trkpt lat="63.83452988" lon="-20.40093231"><ele>41.3</ele><time>2012-07-27T13:06:03.0000000+00:00</time></trkpt><trkpt lat="63.83452988" lon="-20.40093231"><ele>41.3</ele><time>2012-07-27T13:06:08.0000000+00:00</time></trkpt><trkpt lat="63.83452988" lon="-20.40093231"><ele>41.3</ele><time>2012-07-27T13:06:13.0000000+00:00</time></trkpt><trkpt lat="63.83452988" lon="-20.40093231"><ele>41.3</ele><time>2012-07-27T13:06:18.0000000+00:00</time></trkpt><trkpt lat="63.83452988" lon="-20.40093422"><ele>41.3</ele><time>2012-07-27T13:06:23.0000000+00:00</time></trkpt><trkpt lat="63.83452988" lon="-20.40093422"><ele>41.3</ele><time>2012-07-27T13:06:28.0000000+00:00</time></trkpt><trkpt lat="63.83452988" lon="-20.40093422"><ele>41.3</ele><time>2012-07-27T13:06:33.0000000+00:00</time></trkpt><trkpt lat="63.83452988" lon="-20.40093422"><ele>41.3</ele><time>2012-07-27T13:06:38.0000000+00:00</time></trkpt><trkpt lat="63.83452988" lon="-20.40093422"><ele>41.3</ele><time>2012-07-27T13:06:43.0000000+00:00</time></trkpt><trkpt lat="63.83452988" lon="-20.40093613"><ele>41.3</ele><time>2012-07-27T13:06:48.0000000+00:00</time></trkpt><trkpt lat="63.83452988" lon="-20.40093613"><ele>41.3</ele><time>2012-07-27T13:06:53.0000000+00:00</time></trkpt><trkpt lat="63.83452988" lon="-20.40093613"><ele>41.3</ele><time>2012-07-27T13:06:58.0000000+00:00</time></trkpt><trkpt lat="63.83452988" lon="-20.40093803"><ele>41.3</ele><time>2012-07-27T13:07:03.0000000+00:00</time></trkpt><trkpt lat="63.83452988" lon="-20.40093803"><ele>41.3</ele><time>2012-07-27T13:07:08.0000000+00:00</time></trkpt><trkpt lat="63.83452988" lon="-20.40093994"><ele>41.4</ele><time>2012-07-27T13:07:13.0000000+00:00</time></trkpt><trkpt lat="63.83452988" lon="-20.40094185"><ele>41.4</ele><time>2012-07-27T13:07:18.0000000+00:00</time></trkpt><trkpt lat="63.83453369" lon="-20.40094185"><ele>41.5</ele><time>2012-07-27T13:07:23.0000000+00:00</time></trkpt><trkpt lat="63.83453369" lon="-20.40094376"><ele>41.5</ele><time>2012-07-27T13:07:28.0000000+00:00</time></trkpt><trkpt lat="63.83453369" lon="-20.40094566"><ele>41.6</ele><time>2012-07-27T13:07:33.0000000+00:00</time></trkpt><trkpt lat="63.83453369" lon="-20.40094566"><ele>41.6</ele><time>2012-07-27T13:07:38.0000000+00:00</time></trkpt><trkpt lat="63.83453369" lon="-20.40094757"><ele>41.6</ele><time>2012-07-27T13:07:43.0000000+00:00</time></trkpt><trkpt lat="63.83453369" lon="-20.40094948"><ele>41.7</ele><time>2012-07-27T13:07:48.0000000+00:00</time></trkpt><trkpt lat="63.83453369" lon="-20.40095139"><ele>41.7</ele><time>2012-07-27T13:07:53.0000000+00:00</time></trkpt><trkpt lat="63.83453369" lon="-20.40095139"><ele>41.7</ele><time>2012-07-27T13:07:58.0000000+00:00</time></trkpt><trkpt lat="63.83453369" lon="-20.40095329"><ele>41.8</ele><time>2012-07-27T13:08:03.0000000+00:00</time></trkpt><trkpt lat="63.83453369" lon="-20.40095329"><ele>41.8</ele><time>2012-07-27T13:08:08.0000000+00:00</time></trkpt><trkpt lat="63.83453369" lon="-20.40095329"><ele>41.8</ele><time>2012-07-27T13:08:13.0000000+00:00</time></trkpt><trkpt lat="63.83453369" lon="-20.40095329"><ele>41.8</ele><time>2012-07-27T13:08:18.0000000+00:00</time></trkpt><trkpt lat="63.83453369" lon="-20.40095329"><ele>41.8</ele><time>2012-07-27T13:08:23.0000000+00:00</time></trkpt><trkpt lat="63.83453369" lon="-20.40095329"><ele>41.8</ele><time>2012-07-27T13:08:28.0000000+00:00</time></trkpt><trkpt lat="63.83453369" lon="-20.4009552"><ele>41.8</ele><time>2012-07-27T13:08:33.0000000+00:00</time></trkpt><trkpt lat="63.83453751" lon="-20.4009552"><ele>41.8</ele><time>2012-07-27T13:08:38.0000000+00:00</time></trkpt><trkpt lat="63.83453751" lon="-20.40095329"><ele>41.8</ele><time>2012-07-27T13:08:43.0000000+00:00</time></trkpt><trkpt lat="63.83453751" lon="-20.40095329"><ele>41.8</ele><time>2012-07-27T13:08:48.0000000+00:00</time></trkpt><trkpt lat="63.83453751" lon="-20.40095329"><ele>41.8</ele><time>2012-07-27T13:08:53.0000000+00:00</time></trkpt><trkpt lat="63.83453751" lon="-20.40095329"><ele>41.7</ele><time>2012-07-27T13:08:58.0000000+00:00</time></trkpt><trkpt lat="63.83453751" lon="-20.40095329"><ele>41.7</ele><time>2012-07-27T13:09:03.0000000+00:00</time></trkpt><trkpt lat="63.83453751" lon="-20.40095329"><ele>41.7</ele><time>2012-07-27T13:09:08.0000000+00:00</time></trkpt><trkpt lat="63.83453751" lon="-20.40095329"><ele>41.7</ele><time>2012-07-27T13:09:13.0000000+00:00</time></trkpt><trkpt lat="63.83453751" lon="-20.40095329"><ele>41.7</ele><time>2012-07-27T13:09:18.0000000+00:00</time></trkpt><trkpt lat="63.83453751" lon="-20.40095329"><ele>41.8</ele><time>2012-07-27T13:09:23.0000000+00:00</time></trkpt><trkpt lat="63.83453751" lon="-20.4009552"><ele>41.8</ele><time>2012-07-27T13:09:28.0000000+00:00</time></trkpt><trkpt lat="63.83453751" lon="-20.4009552"><ele>41.8</ele><time>2012-07-27T13:09:33.0000000+00:00</time></trkpt><trkpt lat="63.83453751" lon="-20.4009552"><ele>41.8</ele><time>2012-07-27T13:09:38.0000000+00:00</time></trkpt><trkpt lat="63.83453751" lon="-20.40095711"><ele>41.8</ele><time>2012-07-27T13:09:43.0000000+00:00</time></trkpt><trkpt lat="63.83453751" lon="-20.40095711"><ele>41.8</ele><time>2012-07-27T13:09:48.0000000+00:00</time></trkpt><trkpt lat="63.83453751" lon="-20.40095711"><ele>41.8</ele><time>2012-07-27T13:09:53.0000000+00:00</time></trkpt><trkpt lat="63.83453751" lon="-20.40095902"><ele>41.8</ele><time>2012-07-27T13:09:58.0000000+00:00</time></trkpt><trkpt lat="63.83453751" lon="-20.40095902"><ele>41.9</ele><time>2012-07-27T13:10:03.0000000+00:00</time></trkpt><trkpt lat="63.83453751" lon="-20.40095902"><ele>41.9</ele><time>2012-07-27T13:10:08.0000000+00:00</time></trkpt><trkpt lat="63.83453751" lon="-20.40095902"><ele>41.9</ele><time>2012-07-27T13:10:13.0000000+00:00</time></trkpt><trkpt lat="63.83453751" lon="-20.40096092"><ele>41.9</ele><time>2012-07-27T13:10:18.0000000+00:00</time></trkpt><trkpt lat="63.83453751" lon="-20.40096092"><ele>41.9</ele><time>2012-07-27T13:10:23.0000000+00:00</time></trkpt><trkpt lat="63.83453751" lon="-20.40096092"><ele>41.9</ele><time>2012-07-27T13:10:28.0000000+00:00</time></trkpt><trkpt lat="63.83454132" lon="-20.40096092"><ele>41.9</ele><time>2012-07-27T13:10:33.0000000+00:00</time></trkpt><trkpt lat="63.83454132" lon="-20.40096283"><ele>42.0</ele><time>2012-07-27T13:10:38.0000000+00:00</time></trkpt><trkpt lat="63.83454132" lon="-20.40096474"><ele>42.1</ele><time>2012-07-27T13:10:43.0000000+00:00</time></trkpt><trkpt lat="63.83454132" lon="-20.40096474"><ele>42.1</ele><time>2012-07-27T13:10:48.0000000+00:00</time></trkpt><trkpt lat="63.83454132" lon="-20.40096474"><ele>42.1</ele><time>2012-07-27T13:10:53.0000000+00:00</time></trkpt><trkpt lat="63.83454132" lon="-20.40096474"><ele>42.1</ele><time>2012-07-27T13:10:58.0000000+00:00</time></trkpt><trkpt lat="63.83454132" lon="-20.40096474"><ele>42.2</ele><time>2012-07-27T13:11:03.0000000+00:00</time></trkpt><trkpt lat="63.83454132" lon="-20.40096474"><ele>42.2</ele><time>2012-07-27T13:11:08.0000000+00:00</time></trkpt><trkpt lat="63.83454132" lon="-20.40096474"><ele>42.2</ele><time>2012-07-27T13:11:13.0000000+00:00</time></trkpt><trkpt lat="63.83454132" lon="-20.40096474"><ele>42.1</ele><time>2012-07-27T13:11:18.0000000+00:00</time></trkpt><trkpt lat="63.83454132" lon="-20.40096474"><ele>42.1</ele><time>2012-07-27T13:11:23.0000000+00:00</time></trkpt><trkpt lat="63.83454132" lon="-20.40096474"><ele>42.1</ele><time>2012-07-27T13:11:28.0000000+00:00</time></trkpt><trkpt lat="63.83454132" lon="-20.40096474"><ele>42.1</ele><time>2012-07-27T13:11:33.0000000+00:00</time></trkpt><trkpt lat="63.83454132" lon="-20.40096474"><ele>42.1</ele><time>2012-07-27T13:11:38.0000000+00:00</time></trkpt><trkpt lat="63.83454132" lon="-20.40096474"><ele>42.0</ele><time>2012-07-27T13:11:43.0000000+00:00</time></trkpt><trkpt lat="63.83454132" lon="-20.40096664"><ele>42.0</ele><time>2012-07-27T13:11:48.0000000+00:00</time></trkpt><trkpt lat="63.83454132" lon="-20.40096664"><ele>42.0</ele><time>2012-07-27T13:11:53.0000000+00:00</time></trkpt><trkpt lat="63.83454132" lon="-20.40096664"><ele>42.0</ele><time>2012-07-27T13:11:58.0000000+00:00</time></trkpt><trkpt lat="63.83454132" lon="-20.40096664"><ele>41.9</ele><time>2012-07-27T13:12:03.0000000+00:00</time></trkpt><trkpt lat="63.83454132" lon="-20.40096664"><ele>41.9</ele><time>2012-07-27T13:12:08.0000000+00:00</time></trkpt><trkpt lat="63.83454132" lon="-20.40096664"><ele>41.9</ele><time>2012-07-27T13:12:13.0000000+00:00</time></trkpt><trkpt lat="63.83454132" lon="-20.40096664"><ele>41.9</ele><time>2012-07-27T13:12:18.0000000+00:00</time></trkpt><trkpt lat="63.83454132" lon="-20.40096664"><ele>41.9</ele><time>2012-07-27T13:12:23.0000000+00:00</time></trkpt><trkpt lat="63.83454132" lon="-20.40096664"><ele>41.9</ele><time>2012-07-27T13:12:28.0000000+00:00</time></trkpt><trkpt lat="63.83454132" lon="-20.40096664"><ele>41.9</ele><time>2012-07-27T13:12:33.0000000+00:00</time></trkpt><trkpt lat="63.83454132" lon="-20.40096664"><ele>41.9</ele><time>2012-07-27T13:12:38.0000000+00:00</time></trkpt><trkpt lat="63.83454132" lon="-20.40096664"><ele>41.9</ele><time>2012-07-27T13:12:43.0000000+00:00</time></trkpt><trkpt lat="63.83454132" lon="-20.40096664"><ele>41.9</ele><time>2012-07-27T13:12:48.0000000+00:00</time></trkpt><trkpt lat="63.83454132" lon="-20.40096664"><ele>41.9</ele><time>2012-07-27T13:12:53.0000000+00:00</time></trkpt><trkpt lat="63.83454132" lon="-20.40096664"><ele>41.8</ele><time>2012-07-27T13:12:58.0000000+00:00</time></trkpt><trkpt lat="63.83453751" lon="-20.40096474"><ele>41.8</ele><time>2012-07-27T13:13:03.0000000+00:00</time></trkpt><trkpt lat="63.83453751" lon="-20.40096283"><ele>41.8</ele><time>2012-07-27T13:13:08.0000000+00:00</time></trkpt><trkpt lat="63.83453751" lon="-20.40096474"><ele>41.9</ele><time>2012-07-27T13:13:13.0000000+00:00</time></trkpt><trkpt lat="63.83453751" lon="-20.40096474"><ele>41.9</ele><time>2012-07-27T13:13:18.0000000+00:00</time></trkpt><trkpt lat="63.83453751" lon="-20.40096474"><ele>41.9</ele><time>2012-07-27T13:13:23.0000000+00:00</time></trkpt><trkpt lat="63.83453751" lon="-20.40096474"><ele>41.9</ele><time>2012-07-27T13:13:28.0000000+00:00</time></trkpt><trkpt lat="63.83453751" lon="-20.40096474"><ele>41.9</ele><time>2012-07-27T13:13:33.0000000+00:00</time></trkpt><trkpt lat="63.83453751" lon="-20.40096283"><ele>41.9</ele><time>2012-07-27T13:13:38.0000000+00:00</time></trkpt><trkpt lat="63.83453751" lon="-20.40096283"><ele>41.9</ele><time>2012-07-27T13:13:43.0000000+00:00</time></trkpt><trkpt lat="63.83453751" lon="-20.40096283"><ele>41.9</ele><time>2012-07-27T13:13:48.0000000+00:00</time></trkpt><trkpt lat="63.83453751" lon="-20.40096474"><ele>41.9</ele><time>2012-07-27T13:13:53.0000000+00:00</time></trkpt><trkpt lat="63.83453751" lon="-20.40096474"><ele>41.9</ele><time>2012-07-27T13:13:58.0000000+00:00</time></trkpt><trkpt lat="63.83453751" lon="-20.40096283"><ele>41.9</ele><time>2012-07-27T13:14:03.0000000+00:00</time></trkpt><trkpt lat="63.83453751" lon="-20.40096283"><ele>41.9</ele><time>2012-07-27T13:14:08.0000000+00:00</time></trkpt><trkpt lat="63.83453751" lon="-20.40096283"><ele>41.9</ele><time>2012-07-27T13:14:13.0000000+00:00</time></trkpt><trkpt lat="63.83453751" lon="-20.40096474"><ele>41.9</ele><time>2012-07-27T13:14:18.0000000+00:00</time></trkpt><trkpt lat="63.83453751" lon="-20.40096474"><ele>41.9</ele><time>2012-07-27T13:14:23.0000000+00:00</time></trkpt><trkpt lat="63.83453751" lon="-20.40096474"><ele>41.9</ele><time>2012-07-27T13:14:28.0000000+00:00</time></trkpt><trkpt lat="63.83453751" lon="-20.40096474"><ele>41.9</ele><time>2012-07-27T13:14:33.0000000+00:00</time></trkpt><trkpt lat="63.83452606" lon="-20.40094185"><ele>40.8</ele><time>2012-07-27T13:14:38.0000000+00:00</time></trkpt><trkpt lat="63.83451843" lon="-20.40093803"><ele>40.6</ele><time>2012-07-27T13:14:43.0000000+00:00</time></trkpt><trkpt lat="63.83452225" lon="-20.40093803"><ele>40.6</ele><time>2012-07-27T13:14:48.0000000+00:00</time></trkpt><trkpt lat="63.83452225" lon="-20.40093803"><ele>40.6</ele><time>2012-07-27T13:14:53.0000000+00:00</time></trkpt><trkpt lat="63.83452225" lon="-20.40093803"><ele>40.6</ele><time>2012-07-27T13:14:58.0000000+00:00</time></trkpt><trkpt lat="63.83452225" lon="-20.40093803"><ele>40.6</ele><time>2012-07-27T13:15:03.0000000+00:00</time></trkpt><trkpt lat="63.83455658" lon="-20.40102959"><ele>40.1</ele><time>2012-07-27T13:15:08.0000000+00:00</time></trkpt><trkpt lat="63.83461762" lon="-20.40115738"><ele>40.6</ele><time>2012-07-27T13:15:13.0000000+00:00</time></trkpt><trkpt lat="63.83473206" lon="-20.40136147"><ele>41.9</ele><time>2012-07-27T13:15:18.0000000+00:00</time></trkpt><trkpt lat="63.83486176" lon="-20.40156746"><ele>42.0</ele><time>2012-07-27T13:15:23.0000000+00:00</time></trkpt><trkpt lat="63.83497238" lon="-20.40176964"><ele>41.7</ele><time>2012-07-27T13:15:28.0000000+00:00</time></trkpt><trkpt lat="63.83505631" lon="-20.40195847"><ele>40.9</ele><time>2012-07-27T13:15:33.0000000+00:00</time></trkpt><trkpt lat="63.8351059" lon="-20.40208435"><ele>40.4</ele><time>2012-07-27T13:15:38.0000000+00:00</time></trkpt><trkpt lat="63.83500671" lon="-20.40213394"><ele>39.2</ele><time>2012-07-27T13:15:43.0000000+00:00</time></trkpt><trkpt lat="63.83492279" lon="-20.40211105"><ele>38.3</ele><time>2012-07-27T13:15:48.0000000+00:00</time></trkpt><trkpt lat="63.83480072" lon="-20.40194702"><ele>38.4</ele><time>2012-07-27T13:15:53.0000000+00:00</time></trkpt><trkpt lat="63.83466339" lon="-20.40190506"><ele>37.5</ele><time>2012-07-27T13:15:58.0000000+00:00</time></trkpt><trkpt lat="63.83465958" lon="-20.40222168"><ele>35.9</ele><time>2012-07-27T13:16:03.0000000+00:00</time></trkpt><trkpt lat="63.83480835" lon="-20.4024086"><ele>35.1</ele><time>2012-07-27T13:16:08.0000000+00:00</time></trkpt><trkpt lat="63.83497238" lon="-20.40253067"><ele>33.7</ele><time>2012-07-27T13:16:13.0000000+00:00</time></trkpt><trkpt lat="63.83513641" lon="-20.40264511"><ele>31.0</ele><time>2012-07-27T13:16:18.0000000+00:00</time></trkpt><trkpt lat="63.83530808" lon="-20.40283203"><ele>29.5</ele><time>2012-07-27T13:16:23.0000000+00:00</time></trkpt><trkpt lat="63.83547211" lon="-20.40308762"><ele>29.4</ele><time>2012-07-27T13:16:28.0000000+00:00</time></trkpt><trkpt lat="63.83560181" lon="-20.40331078"><ele>29.4</ele><time>2012-07-27T13:16:33.0000000+00:00</time></trkpt><trkpt lat="63.83568955" lon="-20.40350914"><ele>29.9</ele><time>2012-07-27T13:16:38.0000000+00:00</time></trkpt><trkpt lat="63.83578491" lon="-20.40369606"><ele>30.6</ele><time>2012-07-27T13:16:43.0000000+00:00</time></trkpt><trkpt lat="63.83588791" lon="-20.40386963"><ele>31.2</ele><time>2012-07-27T13:16:48.0000000+00:00</time></trkpt><trkpt lat="63.83599091" lon="-20.40406036"><ele>31.2</ele><time>2012-07-27T13:16:53.0000000+00:00</time></trkpt><trkpt lat="63.83609772" lon="-20.40427399"><ele>31.1</ele><time>2012-07-27T13:16:58.0000000+00:00</time></trkpt><trkpt lat="63.8361969" lon="-20.40446854"><ele>30.9</ele><time>2012-07-27T13:17:03.0000000+00:00</time></trkpt><trkpt lat="63.8362999" lon="-20.40465927"><ele>31.1</ele><time>2012-07-27T13:17:08.0000000+00:00</time></trkpt><trkpt lat="63.83640671" lon="-20.40485573"><ele>31.0</ele><time>2012-07-27T13:17:13.0000000+00:00</time></trkpt><trkpt lat="63.83651352" lon="-20.40504265"><ele>31.1</ele><time>2012-07-27T13:17:18.0000000+00:00</time></trkpt><trkpt lat="63.83662796" lon="-20.40524292"><ele>31.1</ele><time>2012-07-27T13:17:23.0000000+00:00</time></trkpt><trkpt lat="63.83675766" lon="-20.40542221"><ele>31.4</ele><time>2012-07-27T13:17:28.0000000+00:00</time></trkpt><trkpt lat="63.83686447" lon="-20.40556145"><ele>31.8</ele><time>2012-07-27T13:17:33.0000000+00:00</time></trkpt><trkpt lat="63.8369751" lon="-20.4057312"><ele>31.8</ele><time>2012-07-27T13:17:38.0000000+00:00</time></trkpt><trkpt lat="63.83708954" lon="-20.40585899"><ele>32.0</ele><time>2012-07-27T13:17:43.0000000+00:00</time></trkpt><trkpt lat="63.83723068" lon="-20.40599823"><ele>32.3</ele><time>2012-07-27T13:17:48.0000000+00:00</time></trkpt><trkpt lat="63.83736038" lon="-20.40612793"><ele>32.2</ele><time>2012-07-27T13:17:53.0000000+00:00</time></trkpt><trkpt lat="63.8374939" lon="-20.40625"><ele>32.4</ele><time>2012-07-27T13:17:58.0000000+00:00</time></trkpt><trkpt lat="63.83763504" lon="-20.40633583"><ele>32.7</ele><time>2012-07-27T13:18:03.0000000+00:00</time></trkpt><trkpt lat="63.83774948" lon="-20.40639877"><ele>32.8</ele><time>2012-07-27T13:18:08.0000000+00:00</time></trkpt><trkpt lat="63.83781433" lon="-20.40641213"><ele>32.7</ele><time>2012-07-27T13:18:13.0000000+00:00</time></trkpt><trkpt lat="63.83789825" lon="-20.4064579"><ele>33.2</ele><time>2012-07-27T13:18:18.0000000+00:00</time></trkpt><trkpt lat="63.83798599" lon="-20.40649796"><ele>33.4</ele><time>2012-07-27T13:18:23.0000000+00:00</time></trkpt><trkpt lat="63.83808136" lon="-20.40652847"><ele>33.5</ele><time>2012-07-27T13:18:28.0000000+00:00</time></trkpt><trkpt lat="63.83819199" lon="-20.40655518"><ele>33.3</ele><time>2012-07-27T13:18:33.0000000+00:00</time></trkpt><trkpt lat="63.83829498" lon="-20.40660667"><ele>34.1</ele><time>2012-07-27T13:18:38.0000000+00:00</time></trkpt><trkpt lat="63.83838654" lon="-20.40657044"><ele>26.1</ele><time>2012-07-27T13:18:43.0000000+00:00</time></trkpt><trkpt lat="63.83848953" lon="-20.40660477"><ele>24.4</ele><time>2012-07-27T13:18:48.0000000+00:00</time></trkpt><trkpt lat="63.83860397" lon="-20.40666008"><ele>25.5</ele><time>2012-07-27T13:18:53.0000000+00:00</time></trkpt><trkpt lat="63.8387146" lon="-20.40670776"><ele>26.4</ele><time>2012-07-27T13:18:58.0000000+00:00</time></trkpt><trkpt lat="63.83883286" lon="-20.40675545"><ele>27.0</ele><time>2012-07-27T13:19:03.0000000+00:00</time></trkpt><trkpt lat="63.83895493" lon="-20.40680313"><ele>28.3</ele><time>2012-07-27T13:19:08.0000000+00:00</time></trkpt><trkpt lat="63.839077" lon="-20.40686035"><ele>29.0</ele><time>2012-07-27T13:19:13.0000000+00:00</time></trkpt><trkpt lat="63.83918762" lon="-20.40691185"><ele>30.4</ele><time>2012-07-27T13:19:18.0000000+00:00</time></trkpt><trkpt lat="63.83929443" lon="-20.40695763"><ele>31.3</ele><time>2012-07-27T13:19:23.0000000+00:00</time></trkpt><trkpt lat="63.8394165" lon="-20.40699768"><ele>33.1</ele><time>2012-07-27T13:19:28.0000000+00:00</time></trkpt><trkpt lat="63.83955002" lon="-20.40703583"><ele>33.4</ele><time>2012-07-27T13:19:33.0000000+00:00</time></trkpt><trkpt lat="63.8396759" lon="-20.40707588"><ele>32.2</ele><time>2012-07-27T13:19:38.0000000+00:00</time></trkpt><trkpt lat="63.83980942" lon="-20.40713882"><ele>33.1</ele><time>2012-07-27T13:19:43.0000000+00:00</time></trkpt><trkpt lat="63.83995438" lon="-20.40719032"><ele>34.0</ele><time>2012-07-27T13:19:48.0000000+00:00</time></trkpt><trkpt lat="63.84009171" lon="-20.40723991"><ele>34.1</ele><time>2012-07-27T13:19:53.0000000+00:00</time></trkpt><trkpt lat="63.84022903" lon="-20.40729713"><ele>34.5</ele><time>2012-07-27T13:19:58.0000000+00:00</time></trkpt><trkpt lat="63.84037781" lon="-20.40735626"><ele>34.7</ele><time>2012-07-27T13:20:03.0000000+00:00</time></trkpt><trkpt lat="63.84053421" lon="-20.40741348"><ele>35.0</ele><time>2012-07-27T13:20:08.0000000+00:00</time></trkpt><trkpt lat="63.84070206" lon="-20.40745926"><ele>34.3</ele><time>2012-07-27T13:20:13.0000000+00:00</time></trkpt><trkpt lat="63.84085846" lon="-20.40752411"><ele>34.2</ele><time>2012-07-27T13:20:18.0000000+00:00</time></trkpt><trkpt lat="63.84101868" lon="-20.40758896"><ele>33.7</ele><time>2012-07-27T13:20:23.0000000+00:00</time></trkpt><trkpt lat="63.84117127" lon="-20.40766907"><ele>34.0</ele><time>2012-07-27T13:20:28.0000000+00:00</time></trkpt><trkpt lat="63.84129334" lon="-20.40774727"><ele>34.0</ele><time>2012-07-27T13:20:33.0000000+00:00</time></trkpt><trkpt lat="63.84141541" lon="-20.40778732"><ele>33.5</ele><time>2012-07-27T13:20:38.0000000+00:00</time></trkpt><trkpt lat="63.84152985" lon="-20.40786362"><ele>33.5</ele><time>2012-07-27T13:20:43.0000000+00:00</time></trkpt><trkpt lat="63.84165192" lon="-20.40794754"><ele>34.6</ele><time>2012-07-27T13:20:48.0000000+00:00</time></trkpt><trkpt lat="63.8417511" lon="-20.40800858"><ele>34.6</ele><time>2012-07-27T13:20:53.0000000+00:00</time></trkpt><trkpt lat="63.84188843" lon="-20.40809822"><ele>33.8</ele><time>2012-07-27T13:20:58.0000000+00:00</time></trkpt><trkpt lat="63.84204483" lon="-20.40820503"><ele>33.0</ele><time>2012-07-27T13:21:03.0000000+00:00</time></trkpt><trkpt lat="63.84217453" lon="-20.40831566"><ele>33.3</ele><time>2012-07-27T13:21:08.0000000+00:00</time></trkpt><trkpt lat="63.84231567" lon="-20.40843964"><ele>32.5</ele><time>2012-07-27T13:21:13.0000000+00:00</time></trkpt><trkpt lat="63.84246445" lon="-20.40857697"><ele>33.7</ele><time>2012-07-27T13:21:18.0000000+00:00</time></trkpt><trkpt lat="63.84261322" lon="-20.40873337"><ele>33.9</ele><time>2012-07-27T13:21:23.0000000+00:00</time></trkpt><trkpt lat="63.84275436" lon="-20.40890694"><ele>35.0</ele><time>2012-07-27T13:21:28.0000000+00:00</time></trkpt><trkpt lat="63.84291458" lon="-20.40907669"><ele>35.5</ele><time>2012-07-27T13:21:33.0000000+00:00</time></trkpt><trkpt lat="63.84307098" lon="-20.40927124"><ele>36.4</ele><time>2012-07-27T13:21:38.0000000+00:00</time></trkpt><trkpt lat="63.8432045" lon="-20.40945435"><ele>37.3</ele><time>2012-07-27T13:21:43.0000000+00:00</time></trkpt><trkpt lat="63.84332275" lon="-20.40960884"><ele>37.4</ele><time>2012-07-27T13:21:48.0000000+00:00</time></trkpt><trkpt lat="63.84344101" lon="-20.40977287"><ele>37.9</ele><time>2012-07-27T13:21:53.0000000+00:00</time></trkpt><trkpt lat="63.84355545" lon="-20.40992165"><ele>38.0</ele><time>2012-07-27T13:21:58.0000000+00:00</time></trkpt><trkpt lat="63.84368134" lon="-20.41008759"><ele>38.3</ele><time>2012-07-27T13:22:03.0000000+00:00</time></trkpt><trkpt lat="63.84379578" lon="-20.41025925"><ele>39.0</ele><time>2012-07-27T13:22:08.0000000+00:00</time></trkpt><trkpt lat="63.84386826" lon="-20.41036797"><ele>38.7</ele><time>2012-07-27T13:22:13.0000000+00:00</time></trkpt><trkpt lat="63.84399033" lon="-20.41054916"><ele>38.8</ele><time>2012-07-27T13:22:18.0000000+00:00</time></trkpt><trkpt lat="63.84412003" lon="-20.41073799"><ele>38.4</ele><time>2012-07-27T13:22:23.0000000+00:00</time></trkpt><trkpt lat="63.84426498" lon="-20.41094208"><ele>38.1</ele><time>2012-07-27T13:22:28.0000000+00:00</time></trkpt><trkpt lat="63.84441757" lon="-20.41116524"><ele>38.7</ele><time>2012-07-27T13:22:33.0000000+00:00</time></trkpt><trkpt lat="63.84456253" lon="-20.41137886"><ele>38.6</ele><time>2012-07-27T13:22:38.0000000+00:00</time></trkpt><trkpt lat="63.84471512" lon="-20.411623"><ele>38.5</ele><time>2012-07-27T13:22:43.0000000+00:00</time></trkpt><trkpt lat="63.84486008" lon="-20.41184235"><ele>38.3</ele><time>2012-07-27T13:22:48.0000000+00:00</time></trkpt><trkpt lat="63.84501267" lon="-20.41207695"><ele>37.7</ele><time>2012-07-27T13:22:53.0000000+00:00</time></trkpt><trkpt lat="63.84514999" lon="-20.41228485"><ele>37.3</ele><time>2012-07-27T13:22:58.0000000+00:00</time></trkpt><trkpt lat="63.84528732" lon="-20.41250801"><ele>36.6</ele><time>2012-07-27T13:23:03.0000000+00:00</time></trkpt><trkpt lat="63.8454361" lon="-20.41274262"><ele>36.4</ele><time>2012-07-27T13:23:08.0000000+00:00</time></trkpt><trkpt lat="63.84558106" lon="-20.41298866"><ele>36.1</ele><time>2012-07-27T13:23:13.0000000+00:00</time></trkpt><trkpt lat="63.84571838" lon="-20.41320038"><ele>36.5</ele><time>2012-07-27T13:23:18.0000000+00:00</time></trkpt><trkpt lat="63.84586334" lon="-20.4134388"><ele>36.5</ele><time>2012-07-27T13:23:23.0000000+00:00</time></trkpt><trkpt lat="63.8460083" lon="-20.41367912"><ele>36.8</ele><time>2012-07-27T13:23:28.0000000+00:00</time></trkpt><trkpt lat="63.84612274" lon="-20.41386223"><ele>37.1</ele><time>2012-07-27T13:23:33.0000000+00:00</time></trkpt><trkpt lat="63.84620667" lon="-20.41400719"><ele>37.4</ele><time>2012-07-27T13:23:38.0000000+00:00</time></trkpt><trkpt lat="63.84630203" lon="-20.41418266"><ele>38.1</ele><time>2012-07-27T13:23:43.0000000+00:00</time></trkpt><trkpt lat="63.84643173" lon="-20.41439819"><ele>38.2</ele><time>2012-07-27T13:23:48.0000000+00:00</time></trkpt><trkpt lat="63.84656143" lon="-20.41464424"><ele>38.4</ele><time>2012-07-27T13:23:53.0000000+00:00</time></trkpt><trkpt lat="63.84669113" lon="-20.41490746"><ele>38.7</ele><time>2012-07-27T13:23:58.0000000+00:00</time></trkpt><trkpt lat="63.84680939" lon="-20.41512108"><ele>39.2</ele><time>2012-07-27T13:24:03.0000000+00:00</time></trkpt><trkpt lat="63.84693909" lon="-20.4153614"><ele>39.6</ele><time>2012-07-27T13:24:08.0000000+00:00</time></trkpt><trkpt lat="63.8470459" lon="-20.41558266"><ele>39.5</ele><time>2012-07-27T13:24:13.0000000+00:00</time></trkpt><trkpt lat="63.8471489" lon="-20.41579437"><ele>39.6</ele><time>2012-07-27T13:24:18.0000000+00:00</time></trkpt><trkpt lat="63.84726715" lon="-20.41604042"><ele>39.7</ele><time>2012-07-27T13:24:23.0000000+00:00</time></trkpt><trkpt lat="63.84736633" lon="-20.41626358"><ele>39.9</ele><time>2012-07-27T13:24:28.0000000+00:00</time></trkpt><trkpt lat="63.84744263" lon="-20.41646004"><ele>40.2</ele><time>2012-07-27T13:24:33.0000000+00:00</time></trkpt><trkpt lat="63.84755325" lon="-20.41669846"><ele>40.3</ele><time>2012-07-27T13:24:38.0000000+00:00</time></trkpt><trkpt lat="63.84767532" lon="-20.4169693"><ele>40.8</ele><time>2012-07-27T13:24:43.0000000+00:00</time></trkpt><trkpt lat="63.84777069" lon="-20.41718292"><ele>41.0</ele><time>2012-07-27T13:24:48.0000000+00:00</time></trkpt><trkpt lat="63.84788132" lon="-20.41741753"><ele>41.7</ele><time>2012-07-27T13:24:53.0000000+00:00</time></trkpt><trkpt lat="63.84799957" lon="-20.41766167"><ele>42.0</ele><time>2012-07-27T13:24:58.0000000+00:00</time></trkpt><trkpt lat="63.84812164" lon="-20.41791153"><ele>42.7</ele><time>2012-07-27T13:25:03.0000000+00:00</time></trkpt><trkpt lat="63.8482399" lon="-20.41816902"><ele>43.6</ele><time>2012-07-27T13:25:08.0000000+00:00</time></trkpt><trkpt lat="63.84836578" lon="-20.41841507"><ele>44.9</ele><time>2012-07-27T13:25:13.0000000+00:00</time></trkpt><trkpt lat="63.84848785" lon="-20.41862297"><ele>45.8</ele><time>2012-07-27T13:25:18.0000000+00:00</time></trkpt><trkpt lat="63.84861755" lon="-20.41887093"><ele>46.4</ele><time>2012-07-27T13:25:23.0000000+00:00</time></trkpt><trkpt lat="63.8487587" lon="-20.41911316"><ele>46.9</ele><time>2012-07-27T13:25:28.0000000+00:00</time></trkpt><trkpt lat="63.84890366" lon="-20.41935539"><ele>47.1</ele><time>2012-07-27T13:25:33.0000000+00:00</time></trkpt><trkpt lat="63.84906006" lon="-20.41962051"><ele>47.4</ele><time>2012-07-27T13:25:38.0000000+00:00</time></trkpt><trkpt lat="63.84921265" lon="-20.41985321"><ele>47.7</ele><time>2012-07-27T13:25:43.0000000+00:00</time></trkpt><trkpt lat="63.84937668" lon="-20.42011643"><ele>48.0</ele><time>2012-07-27T13:25:48.0000000+00:00</time></trkpt><trkpt lat="63.84952927" lon="-20.42034531"><ele>47.8</ele><time>2012-07-27T13:25:53.0000000+00:00</time></trkpt><trkpt lat="63.84968185" lon="-20.42058373"><ele>47.7</ele><time>2012-07-27T13:25:58.0000000+00:00</time></trkpt><trkpt lat="63.84983444" lon="-20.4208107"><ele>47.9</ele><time>2012-07-27T13:26:03.0000000+00:00</time></trkpt><trkpt lat="63.84999085" lon="-20.42105866"><ele>47.3</ele><time>2012-07-27T13:26:08.0000000+00:00</time></trkpt><trkpt lat="63.85016251" lon="-20.42131996"><ele>47.2</ele><time>2012-07-27T13:26:13.0000000+00:00</time></trkpt><trkpt lat="63.85033035" lon="-20.42158127"><ele>46.8</ele><time>2012-07-27T13:26:18.0000000+00:00</time></trkpt><trkpt lat="63.85048676" lon="-20.4218235"><ele>46.7</ele><time>2012-07-27T13:26:23.0000000+00:00</time></trkpt><trkpt lat="63.85064697" lon="-20.42208481"><ele>46.7</ele><time>2012-07-27T13:26:28.0000000+00:00</time></trkpt><trkpt lat="63.85082626" lon="-20.42233467"><ele>46.6</ele><time>2012-07-27T13:26:33.0000000+00:00</time></trkpt><trkpt lat="63.85101318" lon="-20.42259026"><ele>46.8</ele><time>2012-07-27T13:26:38.0000000+00:00</time></trkpt><trkpt lat="63.85119247" lon="-20.42285919"><ele>47.0</ele><time>2012-07-27T13:26:43.0000000+00:00</time></trkpt><trkpt lat="63.85136414" lon="-20.42312622"><ele>47.2</ele><time>2012-07-27T13:26:48.0000000+00:00</time></trkpt><trkpt lat="63.85151291" lon="-20.42334366"><ele>47.0</ele><time>2012-07-27T13:26:53.0000000+00:00</time></trkpt><trkpt lat="63.85165024" lon="-20.4235878"><ele>46.9</ele><time>2012-07-27T13:26:58.0000000+00:00</time></trkpt><trkpt lat="63.85181809" lon="-20.42383003"><ele>46.2</ele><time>2012-07-27T13:27:03.0000000+00:00</time></trkpt><trkpt lat="63.85199356" lon="-20.4240818"><ele>46.0</ele><time>2012-07-27T13:27:08.0000000+00:00</time></trkpt><trkpt lat="63.85216522" lon="-20.42433739"><ele>45.6</ele><time>2012-07-27T13:27:13.0000000+00:00</time></trkpt><trkpt lat="63.8523407" lon="-20.42459679"><ele>45.5</ele><time>2012-07-27T13:27:18.0000000+00:00</time></trkpt><trkpt lat="63.85250473" lon="-20.42485428"><ele>45.2</ele><time>2012-07-27T13:27:23.0000000+00:00</time></trkpt><trkpt lat="63.8526268" lon="-20.4250412"><ele>44.9</ele><time>2012-07-27T13:27:28.0000000+00:00</time></trkpt><trkpt lat="63.85272598" lon="-20.42519379"><ele>45.0</ele><time>2012-07-27T13:27:33.0000000+00:00</time></trkpt><trkpt lat="63.85285568" lon="-20.42538643"><ele>44.9</ele><time>2012-07-27T13:27:38.0000000+00:00</time></trkpt><trkpt lat="63.85299683" lon="-20.42560005"><ele>44.9</ele><time>2012-07-27T13:27:43.0000000+00:00</time></trkpt><trkpt lat="63.85313416" lon="-20.42583084"><ele>44.9</ele><time>2012-07-27T13:27:48.0000000+00:00</time></trkpt><trkpt lat="63.85328293" lon="-20.42606354"><ele>45.0</ele><time>2012-07-27T13:27:53.0000000+00:00</time></trkpt><trkpt lat="63.85340881" lon="-20.42624283"><ele>45.0</ele><time>2012-07-27T13:27:58.0000000+00:00</time></trkpt><trkpt lat="63.85351944" lon="-20.42640495"><ele>44.9</ele><time>2012-07-27T13:28:03.0000000+00:00</time></trkpt><trkpt lat="63.85365677" lon="-20.42659378"><ele>45.4</ele><time>2012-07-27T13:28:08.0000000+00:00</time></trkpt><trkpt lat="63.85380173" lon="-20.42680359"><ele>45.8</ele><time>2012-07-27T13:28:13.0000000+00:00</time></trkpt><trkpt lat="63.8539505" lon="-20.42703056"><ele>45.9</ele><time>2012-07-27T13:28:18.0000000+00:00</time></trkpt><trkpt lat="63.85410309" lon="-20.4272728"><ele>46.0</ele><time>2012-07-27T13:28:23.0000000+00:00</time></trkpt><trkpt lat="63.85424423" lon="-20.42748451"><ele>46.9</ele><time>2012-07-27T13:28:28.0000000+00:00</time></trkpt><trkpt lat="63.85436249" lon="-20.42766762"><ele>47.0</ele><time>2012-07-27T13:28:33.0000000+00:00</time></trkpt><trkpt lat="63.85450745" lon="-20.42786408"><ele>47.1</ele><time>2012-07-27T13:28:38.0000000+00:00</time></trkpt><trkpt lat="63.85465241" lon="-20.42808533"><ele>47.1</ele><time>2012-07-27T13:28:43.0000000+00:00</time></trkpt><trkpt lat="63.85480118" lon="-20.42831612"><ele>47.1</ele><time>2012-07-27T13:28:48.0000000+00:00</time></trkpt><trkpt lat="63.85491562" lon="-20.42849541"><ele>46.9</ele><time>2012-07-27T13:28:53.0000000+00:00</time></trkpt><trkpt lat="63.85500336" lon="-20.42863655"><ele>46.8</ele><time>2012-07-27T13:28:58.0000000+00:00</time></trkpt><trkpt lat="63.85508347" lon="-20.42876434"><ele>46.6</ele><time>2012-07-27T13:29:03.0000000+00:00</time></trkpt><trkpt lat="63.85514069" lon="-20.42886543"><ele>46.5</ele><time>2012-07-27T13:29:08.0000000+00:00</time></trkpt><trkpt lat="63.85520935" lon="-20.42899704"><ele>46.9</ele><time>2012-07-27T13:29:13.0000000+00:00</time></trkpt><trkpt lat="63.85531998" lon="-20.42914391"><ele>46.9</ele><time>2012-07-27T13:29:18.0000000+00:00</time></trkpt><trkpt lat="63.85543823" lon="-20.42931557"><ele>46.6</ele><time>2012-07-27T13:29:23.0000000+00:00</time></trkpt><trkpt lat="63.85557175" lon="-20.42951202"><ele>46.2</ele><time>2012-07-27T13:29:28.0000000+00:00</time></trkpt><trkpt lat="63.85572052" lon="-20.42974663"><ele>45.7</ele><time>2012-07-27T13:29:33.0000000+00:00</time></trkpt><trkpt lat="63.85586548" lon="-20.42996788"><ele>45.5</ele><time>2012-07-27T13:29:38.0000000+00:00</time></trkpt><trkpt lat="63.85599518" lon="-20.43015862"><ele>45.3</ele><time>2012-07-27T13:29:43.0000000+00:00</time></trkpt><trkpt lat="63.8561554" lon="-20.43037987"><ele>45.4</ele><time>2012-07-27T13:29:48.0000000+00:00</time></trkpt><trkpt lat="63.85629273" lon="-20.43058014"><ele>45.7</ele><time>2012-07-27T13:29:53.0000000+00:00</time></trkpt><trkpt lat="63.85643768" lon="-20.43079186"><ele>45.3</ele><time>2012-07-27T13:29:58.0000000+00:00</time></trkpt><trkpt lat="63.85654068" lon="-20.43095779"><ele>45.1</ele><time>2012-07-27T13:30:03.0000000+00:00</time></trkpt><trkpt lat="63.85663986" lon="-20.43113327"><ele>44.4</ele><time>2012-07-27T13:30:08.0000000+00:00</time></trkpt><trkpt lat="63.85678482" lon="-20.43133736"><ele>44.1</ele><time>2012-07-27T13:30:13.0000000+00:00</time></trkpt><trkpt lat="63.85693359" lon="-20.4315567"><ele>44.0</ele><time>2012-07-27T13:30:18.0000000+00:00</time></trkpt><trkpt lat="63.85705185" lon="-20.4317131"><ele>43.8</ele><time>2012-07-27T13:30:23.0000000+00:00</time></trkpt><trkpt lat="63.85715485" lon="-20.43189049"><ele>44.1</ele><time>2012-07-27T13:30:28.0000000+00:00</time></trkpt><trkpt lat="63.85730362" lon="-20.43211556"><ele>43.6</ele><time>2012-07-27T13:30:33.0000000+00:00</time></trkpt><trkpt lat="63.85745239" lon="-20.43234825"><ele>43.3</ele><time>2012-07-27T13:30:38.0000000+00:00</time></trkpt><trkpt lat="63.85758972" lon="-20.4325695"><ele>43.1</ele><time>2012-07-27T13:30:43.0000000+00:00</time></trkpt><trkpt lat="63.85774231" lon="-20.43280792"><ele>42.6</ele><time>2012-07-27T13:30:48.0000000+00:00</time></trkpt><trkpt lat="63.85789871" lon="-20.43305206"><ele>43.1</ele><time>2012-07-27T13:30:53.0000000+00:00</time></trkpt><trkpt lat="63.85804749" lon="-20.43327332"><ele>42.5</ele><time>2012-07-27T13:30:58.0000000+00:00</time></trkpt><trkpt lat="63.85820007" lon="-20.43348885"><ele>42.5</ele><time>2012-07-27T13:31:03.0000000+00:00</time></trkpt><trkpt lat="63.85836411" lon="-20.43372917"><ele>42.0</ele><time>2012-07-27T13:31:08.0000000+00:00</time></trkpt><trkpt lat="63.85848999" lon="-20.43392944"><ele>42.4</ele><time>2012-07-27T13:31:13.0000000+00:00</time></trkpt><trkpt lat="63.85860825" lon="-20.43412209"><ele>41.7</ele><time>2012-07-27T13:31:18.0000000+00:00</time></trkpt><trkpt lat="63.85870361" lon="-20.43428612"><ele>41.2</ele><time>2012-07-27T13:31:23.0000000+00:00</time></trkpt><trkpt lat="63.85884857" lon="-20.4344883"><ele>41.7</ele><time>2012-07-27T13:31:28.0000000+00:00</time></trkpt><trkpt lat="63.85898209" lon="-20.4346962"><ele>41.9</ele><time>2012-07-27T13:31:33.0000000+00:00</time></trkpt><trkpt lat="63.85911942" lon="-20.43488312"><ele>41.8</ele><time>2012-07-27T13:31:38.0000000+00:00</time></trkpt><trkpt lat="63.859272" lon="-20.43511581"><ele>41.7</ele><time>2012-07-27T13:31:43.0000000+00:00</time></trkpt><trkpt lat="63.85939789" lon="-20.43532181"><ele>41.7</ele><time>2012-07-27T13:31:48.0000000+00:00</time></trkpt><trkpt lat="63.85954666" lon="-20.43554115"><ele>41.9</ele><time>2012-07-27T13:31:53.0000000+00:00</time></trkpt><trkpt lat="63.85969544" lon="-20.43577385"><ele>42.2</ele><time>2012-07-27T13:31:58.0000000+00:00</time></trkpt><trkpt lat="63.85984802" lon="-20.43602371"><ele>42.9</ele><time>2012-07-27T13:32:03.0000000+00:00</time></trkpt><trkpt lat="63.85999298" lon="-20.43623924"><ele>43.6</ele><time>2012-07-27T13:32:08.0000000+00:00</time></trkpt><trkpt lat="63.86016083" lon="-20.43647957"><ele>44.3</ele><time>2012-07-27T13:32:13.0000000+00:00</time></trkpt><trkpt lat="63.8603363" lon="-20.43673325"><ele>44.3</ele><time>2012-07-27T13:32:18.0000000+00:00</time></trkpt><trkpt lat="63.86049271" lon="-20.43696022"><ele>44.2</ele><time>2012-07-27T13:32:23.0000000+00:00</time></trkpt><trkpt lat="63.86064911" lon="-20.43720055"><ele>43.5</ele><time>2012-07-27T13:32:28.0000000+00:00</time></trkpt><trkpt lat="63.86080551" lon="-20.43742943"><ele>43.5</ele><time>2012-07-27T13:32:33.0000000+00:00</time></trkpt><trkpt lat="63.86096573" lon="-20.43767548"><ele>44.0</ele><time>2012-07-27T13:32:38.0000000+00:00</time></trkpt><trkpt lat="63.86108017" lon="-20.43784142"><ele>44.2</ele><time>2012-07-27T13:32:43.0000000+00:00</time></trkpt><trkpt lat="63.86118698" lon="-20.43800163"><ele>44.1</ele><time>2012-07-27T13:32:48.0000000+00:00</time></trkpt><trkpt lat="63.8613205" lon="-20.43821907"><ele>44.1</ele><time>2012-07-27T13:32:53.0000000+00:00</time></trkpt><trkpt lat="63.8614769" lon="-20.43845177"><ele>43.5</ele><time>2012-07-27T13:32:58.0000000+00:00</time></trkpt><trkpt lat="63.86164475" lon="-20.43871689"><ele>43.2</ele><time>2012-07-27T13:33:03.0000000+00:00</time></trkpt><trkpt lat="63.86180115" lon="-20.4389534"><ele>42.8</ele><time>2012-07-27T13:33:08.0000000+00:00</time></trkpt><trkpt lat="63.86194611" lon="-20.43916702"><ele>42.4</ele><time>2012-07-27T13:33:13.0000000+00:00</time></trkpt><trkpt lat="63.86211395" lon="-20.43940926"><ele>41.5</ele><time>2012-07-27T13:33:18.0000000+00:00</time></trkpt><trkpt lat="63.86225891" lon="-20.43963242"><ele>41.3</ele><time>2012-07-27T13:33:23.0000000+00:00</time></trkpt><trkpt lat="63.86237717" lon="-20.43980598"><ele>41.3</ele><time>2012-07-27T13:33:28.0000000+00:00</time></trkpt><trkpt lat="63.86249161" lon="-20.43998146"><ele>41.2</ele><time>2012-07-27T13:33:33.0000000+00:00</time></trkpt><trkpt lat="63.86263657" lon="-20.44020653"><ele>41.0</ele><time>2012-07-27T13:33:38.0000000+00:00</time></trkpt><trkpt lat="63.86279678" lon="-20.44044113"><ele>40.9</ele><time>2012-07-27T13:33:43.0000000+00:00</time></trkpt><trkpt lat="63.86292267" lon="-20.44063759"><ele>40.8</ele><time>2012-07-27T13:33:48.0000000+00:00</time></trkpt><trkpt lat="63.86306763" lon="-20.44086456"><ele>40.4</ele><time>2012-07-27T13:33:53.0000000+00:00</time></trkpt><trkpt lat="63.86322022" lon="-20.44110298"><ele>40.2</ele><time>2012-07-27T13:33:58.0000000+00:00</time></trkpt><trkpt lat="63.86335754" lon="-20.44130707"><ele>40.0</ele><time>2012-07-27T13:34:03.0000000+00:00</time></trkpt><trkpt lat="63.86350632" lon="-20.44152641"><ele>39.7</ele><time>2012-07-27T13:34:08.0000000+00:00</time></trkpt><trkpt lat="63.86365509" lon="-20.44174194"><ele>40.0</ele><time>2012-07-27T13:34:13.0000000+00:00</time></trkpt><trkpt lat="63.86379623" lon="-20.44194984"><ele>39.6</ele><time>2012-07-27T13:34:18.0000000+00:00</time></trkpt><trkpt lat="63.86392212" lon="-20.44216538"><ele>39.5</ele><time>2012-07-27T13:34:23.0000000+00:00</time></trkpt><trkpt lat="63.86405563" lon="-20.44237137"><ele>39.3</ele><time>2012-07-27T13:34:28.0000000+00:00</time></trkpt><trkpt lat="63.86421204" lon="-20.44260025"><ele>39.0</ele><time>2012-07-27T13:34:33.0000000+00:00</time></trkpt><trkpt lat="63.86436081" lon="-20.44282913"><ele>39.6</ele><time>2012-07-27T13:34:38.0000000+00:00</time></trkpt><trkpt lat="63.86450958" lon="-20.44305039"><ele>39.9</ele><time>2012-07-27T13:34:43.0000000+00:00</time></trkpt><trkpt lat="63.86463547" lon="-20.4432354"><ele>39.7</ele><time>2012-07-27T13:34:48.0000000+00:00</time></trkpt><trkpt lat="63.86470795" lon="-20.44334793"><ele>40.1</ele><time>2012-07-27T13:34:53.0000000+00:00</time></trkpt><trkpt lat="63.86478424" lon="-20.44342804"><ele>40.3</ele><time>2012-07-27T13:34:58.0000000+00:00</time></trkpt><trkpt lat="63.86486435" lon="-20.44355011"><ele>41.2</ele><time>2012-07-27T13:35:03.0000000+00:00</time></trkpt><trkpt lat="63.86493683" lon="-20.44369316"><ele>41.8</ele><time>2012-07-27T13:35:08.0000000+00:00</time></trkpt><trkpt lat="63.86502457" lon="-20.44382477"><ele>42.4</ele><time>2012-07-27T13:35:13.0000000+00:00</time></trkpt><trkpt lat="63.86510468" lon="-20.44395447"><ele>42.5</ele><time>2012-07-27T13:35:18.0000000+00:00</time></trkpt><trkpt lat="63.86518097" lon="-20.44412041"><ele>42.7</ele><time>2012-07-27T13:35:23.0000000+00:00</time></trkpt><trkpt lat="63.86524963" lon="-20.4442482"><ele>43.2</ele><time>2012-07-27T13:35:28.0000000+00:00</time></trkpt><trkpt lat="63.86530685" lon="-20.44432259"><ele>43.3</ele><time>2012-07-27T13:35:33.0000000+00:00</time></trkpt><trkpt lat="63.86530304" lon="-20.44433212"><ele>42.6</ele><time>2012-07-27T13:35:38.0000000+00:00</time></trkpt><trkpt lat="63.86530304" lon="-20.44433403"><ele>42.7</ele><time>2012-07-27T13:35:43.0000000+00:00</time></trkpt><trkpt lat="63.86530304" lon="-20.44433403"><ele>42.7</ele><time>2012-07-27T13:35:48.0000000+00:00</time></trkpt><trkpt lat="63.86530304" lon="-20.44433403"><ele>42.7</ele><time>2012-07-27T13:35:53.0000000+00:00</time></trkpt><trkpt lat="63.86530304" lon="-20.44433403"><ele>42.8</ele><time>2012-07-27T13:35:58.0000000+00:00</time></trkpt><trkpt lat="63.86530304" lon="-20.44433403"><ele>42.7</ele><time>2012-07-27T13:36:03.0000000+00:00</time></trkpt><trkpt lat="63.86533356" lon="-20.44441795"><ele>42.7</ele><time>2012-07-27T13:36:08.0000000+00:00</time></trkpt><trkpt lat="63.86543655" lon="-20.44462967"><ele>42.8</ele><time>2012-07-27T13:36:13.0000000+00:00</time></trkpt><trkpt lat="63.86555481" lon="-20.44488525"><ele>43.2</ele><time>2012-07-27T13:36:18.0000000+00:00</time></trkpt><trkpt lat="63.8656807" lon="-20.4451828"><ele>43.3</ele><time>2012-07-27T13:36:23.0000000+00:00</time></trkpt><trkpt lat="63.86578369" lon="-20.44547081"><ele>43.1</ele><time>2012-07-27T13:36:28.0000000+00:00</time></trkpt><trkpt lat="63.86587524" lon="-20.44569969"><ele>42.8</ele><time>2012-07-27T13:36:33.0000000+00:00</time></trkpt><trkpt lat="63.86598587" lon="-20.44599342"><ele>42.4</ele><time>2012-07-27T13:36:38.0000000+00:00</time></trkpt><trkpt lat="63.86610031" lon="-20.44634247"><ele>41.8</ele><time>2012-07-27T13:36:43.0000000+00:00</time></trkpt><trkpt lat="63.86619568" lon="-20.446661"><ele>41.9</ele><time>2012-07-27T13:36:48.0000000+00:00</time></trkpt><trkpt lat="63.86628723" lon="-20.44697571"><ele>41.5</ele><time>2012-07-27T13:36:53.0000000+00:00</time></trkpt><trkpt lat="63.86639404" lon="-20.44735336"><ele>41.5</ele><time>2012-07-27T13:36:58.0000000+00:00</time></trkpt><trkpt lat="63.86649704" lon="-20.44777298"><ele>41.4</ele><time>2012-07-27T13:37:03.0000000+00:00</time></trkpt><trkpt lat="63.86660385" lon="-20.44821739"><ele>41.3</ele><time>2012-07-27T13:37:08.0000000+00:00</time></trkpt><trkpt lat="63.86671066" lon="-20.44873047"><ele>41.9</ele><time>2012-07-27T13:37:13.0000000+00:00</time></trkpt><trkpt lat="63.8667984" lon="-20.44919777"><ele>42.1</ele><time>2012-07-27T13:37:18.0000000+00:00</time></trkpt><trkpt lat="63.86688614" lon="-20.44968033"><ele>42.2</ele><time>2012-07-27T13:37:23.0000000+00:00</time></trkpt><trkpt lat="63.86696625" lon="-20.45018578"><ele>42.4</ele><time>2012-07-27T13:37:28.0000000+00:00</time></trkpt><trkpt lat="63.86702728" lon="-20.45070076"><ele>42.3</ele><time>2012-07-27T13:37:33.0000000+00:00</time></trkpt><trkpt lat="63.86707306" lon="-20.45116425"><ele>42.5</ele><time>2012-07-27T13:37:38.0000000+00:00</time></trkpt><trkpt lat="63.86711121" lon="-20.45160103"><ele>43.1</ele><time>2012-07-27T13:37:43.0000000+00:00</time></trkpt><trkpt lat="63.86713028" lon="-20.45201683"><ele>42.9</ele><time>2012-07-27T13:37:48.0000000+00:00</time></trkpt><trkpt lat="63.86714554" lon="-20.45238876"><ele>42.9</ele><time>2012-07-27T13:37:53.0000000+00:00</time></trkpt><trkpt lat="63.86716843" lon="-20.45275688"><ele>43.7</ele><time>2012-07-27T13:37:58.0000000+00:00</time></trkpt><trkpt lat="63.86717987" lon="-20.45314598"><ele>44.6</ele><time>2012-07-27T13:38:03.0000000+00:00</time></trkpt><trkpt lat="63.86718369" lon="-20.45354271"><ele>44.9</ele><time>2012-07-27T13:38:08.0000000+00:00</time></trkpt><trkpt lat="63.86719513" lon="-20.45395088"><ele>45.9</ele><time>2012-07-27T13:38:13.0000000+00:00</time></trkpt><trkpt lat="63.86721039" lon="-20.45435333"><ele>46.7</ele><time>2012-07-27T13:38:18.0000000+00:00</time></trkpt><trkpt lat="63.86721039" lon="-20.45476151"><ele>47.7</ele><time>2012-07-27T13:38:23.0000000+00:00</time></trkpt><trkpt lat="63.86721802" lon="-20.4551506"><ele>48.4</ele><time>2012-07-27T13:38:28.0000000+00:00</time></trkpt><trkpt lat="63.86722183" lon="-20.45555496"><ele>48.6</ele><time>2012-07-27T13:38:33.0000000+00:00</time></trkpt><trkpt lat="63.86722946" lon="-20.45593643"><ele>49.3</ele><time>2012-07-27T13:38:38.0000000+00:00</time></trkpt><trkpt lat="63.86723709" lon="-20.4562397"><ele>50.2</ele><time>2012-07-27T13:38:43.0000000+00:00</time></trkpt><trkpt lat="63.86723328" lon="-20.4565239"><ele>50.7</ele><time>2012-07-27T13:38:48.0000000+00:00</time></trkpt><trkpt lat="63.86724472" lon="-20.45681191"><ele>50.9</ele><time>2012-07-27T13:38:53.0000000+00:00</time></trkpt><trkpt lat="63.86725235" lon="-20.45709038"><ele>50.9</ele><time>2012-07-27T13:38:58.0000000+00:00</time></trkpt><trkpt lat="63.86725235" lon="-20.45736504"><ele>51.5</ele><time>2012-07-27T13:39:03.0000000+00:00</time></trkpt><trkpt lat="63.86725235" lon="-20.45765114"><ele>52.0</ele><time>2012-07-27T13:39:08.0000000+00:00</time></trkpt><trkpt lat="63.86725617" lon="-20.45794106"><ele>52.0</ele><time>2012-07-27T13:39:13.0000000+00:00</time></trkpt><trkpt lat="63.86725998" lon="-20.45822334"><ele>52.9</ele><time>2012-07-27T13:39:18.0000000+00:00</time></trkpt><trkpt lat="63.86726761" lon="-20.45851135"><ele>53.1</ele><time>2012-07-27T13:39:23.0000000+00:00</time></trkpt><trkpt lat="63.86727524" lon="-20.45882416"><ele>53.8</ele><time>2012-07-27T13:39:28.0000000+00:00</time></trkpt><trkpt lat="63.86727905" lon="-20.45915031"><ele>53.7</ele><time>2012-07-27T13:39:33.0000000+00:00</time></trkpt><trkpt lat="63.86728668" lon="-20.4595356"><ele>53.9</ele><time>2012-07-27T13:39:38.0000000+00:00</time></trkpt><trkpt lat="63.86729813" lon="-20.45991898"><ele>54.2</ele><time>2012-07-27T13:39:43.0000000+00:00</time></trkpt><trkpt lat="63.86730576" lon="-20.46030617"><ele>54.1</ele><time>2012-07-27T13:39:48.0000000+00:00</time></trkpt><trkpt lat="63.86731339" lon="-20.46072197"><ele>53.6</ele><time>2012-07-27T13:39:53.0000000+00:00</time></trkpt><trkpt lat="63.86732101" lon="-20.46117783"><ele>53.6</ele><time>2012-07-27T13:39:58.0000000+00:00</time></trkpt><trkpt lat="63.86733246" lon="-20.4616375"><ele>53.9</ele><time>2012-07-27T13:40:03.0000000+00:00</time></trkpt><trkpt lat="63.86734009" lon="-20.46211243"><ele>53.6</ele><time>2012-07-27T13:40:08.0000000+00:00</time></trkpt><trkpt lat="63.86736679" lon="-20.46261597"><ele>53.6</ele><time>2012-07-27T13:40:13.0000000+00:00</time></trkpt><trkpt lat="63.86739349" lon="-20.46312523"><ele>53.5</ele><time>2012-07-27T13:40:18.0000000+00:00</time></trkpt><trkpt lat="63.86743546" lon="-20.46361542"><ele>53.4</ele><time>2012-07-27T13:40:23.0000000+00:00</time></trkpt><trkpt lat="63.86748886" lon="-20.46408653"><ele>53.5</ele><time>2012-07-27T13:40:28.0000000+00:00</time></trkpt><trkpt lat="63.8675499" lon="-20.4645443"><ele>53.8</ele><time>2012-07-27T13:40:33.0000000+00:00</time></trkpt><trkpt lat="63.86762238" lon="-20.46498108"><ele>54.1</ele><time>2012-07-27T13:40:38.0000000+00:00</time></trkpt><trkpt lat="63.86769867" lon="-20.46539688"><ele>54.2</ele><time>2012-07-27T13:40:43.0000000+00:00</time></trkpt><trkpt lat="63.86778259" lon="-20.46580887"><ele>54.2</ele><time>2012-07-27T13:40:48.0000000+00:00</time></trkpt><trkpt lat="63.86788559" lon="-20.46622086"><ele>54.4</ele><time>2012-07-27T13:40:53.0000000+00:00</time></trkpt><trkpt lat="63.8679924" lon="-20.46660805"><ele>54.4</ele><time>2012-07-27T13:40:58.0000000+00:00</time></trkpt><trkpt lat="63.86810684" lon="-20.46700478"><ele>54.6</ele><time>2012-07-27T13:41:03.0000000+00:00</time></trkpt><trkpt lat="63.86820984" lon="-20.46735954"><ele>54.9</ele><time>2012-07-27T13:41:08.0000000+00:00</time></trkpt><trkpt lat="63.86832428" lon="-20.46770477"><ele>54.6</ele><time>2012-07-27T13:41:13.0000000+00:00</time></trkpt><trkpt lat="63.86843491" lon="-20.46808815"><ele>54.6</ele><time>2012-07-27T13:41:18.0000000+00:00</time></trkpt><trkpt lat="63.86856461" lon="-20.46846199"><ele>55.5</ele><time>2012-07-27T13:41:23.0000000+00:00</time></trkpt><trkpt lat="63.86868668" lon="-20.4688549"><ele>55.5</ele><time>2012-07-27T13:41:28.0000000+00:00</time></trkpt><trkpt lat="63.86880493" lon="-20.46920776"><ele>55.4</ele><time>2012-07-27T13:41:33.0000000+00:00</time></trkpt><trkpt lat="63.8689003" lon="-20.4695034"><ele>54.9</ele><time>2012-07-27T13:41:38.0000000+00:00</time></trkpt><trkpt lat="63.86901474" lon="-20.46985626"><ele>54.3</ele><time>2012-07-27T13:41:43.0000000+00:00</time></trkpt><trkpt lat="63.86912537" lon="-20.47023964"><ele>54.5</ele><time>2012-07-27T13:41:48.0000000+00:00</time></trkpt><trkpt lat="63.86923981" lon="-20.47060204"><ele>55.0</ele><time>2012-07-27T13:41:53.0000000+00:00</time></trkpt><trkpt lat="63.86933899" lon="-20.47093582"><ele>55.3</ele><time>2012-07-27T13:41:58.0000000+00:00</time></trkpt><trkpt lat="63.86944199" lon="-20.47124672"><ele>55.2</ele><time>2012-07-27T13:42:03.0000000+00:00</time></trkpt><trkpt lat="63.8695488" lon="-20.47157669"><ele>55.2</ele><time>2012-07-27T13:42:08.0000000+00:00</time></trkpt><trkpt lat="63.86964035" lon="-20.47187424"><ele>55.4</ele><time>2012-07-27T13:42:13.0000000+00:00</time></trkpt><trkpt lat="63.86974335" lon="-20.47218704"><ele>55.3</ele><time>2012-07-27T13:42:18.0000000+00:00</time></trkpt><trkpt lat="63.86984253" lon="-20.47247124"><ele>55.6</ele><time>2012-07-27T13:42:23.0000000+00:00</time></trkpt><trkpt lat="63.86994171" lon="-20.4727993"><ele>55.9</ele><time>2012-07-27T13:42:28.0000000+00:00</time></trkpt><trkpt lat="63.87006378" lon="-20.47318268"><ele>56.0</ele><time>2012-07-27T13:42:33.0000000+00:00</time></trkpt><trkpt lat="63.87017822" lon="-20.4735527"><ele>56.5</ele><time>2012-07-27T13:42:38.0000000+00:00</time></trkpt><trkpt lat="63.87030411" lon="-20.47397232"><ele>55.9</ele><time>2012-07-27T13:42:43.0000000+00:00</time></trkpt><trkpt lat="63.87043762" lon="-20.47440147"><ele>55.3</ele><time>2012-07-27T13:42:48.0000000+00:00</time></trkpt><trkpt lat="63.87056732" lon="-20.47480774"><ele>55.3</ele><time>2012-07-27T13:42:53.0000000+00:00</time></trkpt><trkpt lat="63.87069321" lon="-20.47521401"><ele>55.0</ele><time>2012-07-27T13:42:58.0000000+00:00</time></trkpt><trkpt lat="63.87082291" lon="-20.47561836"><ele>54.5</ele><time>2012-07-27T13:43:03.0000000+00:00</time></trkpt><trkpt lat="63.87097168" lon="-20.47605896"><ele>53.7</ele><time>2012-07-27T13:43:08.0000000+00:00</time></trkpt><trkpt lat="63.87110901" lon="-20.4764843"><ele>53.7</ele><time>2012-07-27T13:43:13.0000000+00:00</time></trkpt><trkpt lat="63.87124252" lon="-20.47691155"><ele>53.8</ele><time>2012-07-27T13:43:18.0000000+00:00</time></trkpt><trkpt lat="63.87137222" lon="-20.47733688"><ele>53.7</ele><time>2012-07-27T13:43:23.0000000+00:00</time></trkpt><trkpt lat="63.87150955" lon="-20.4777565"><ele>53.4</ele><time>2012-07-27T13:43:28.0000000+00:00</time></trkpt><trkpt lat="63.8716507" lon="-20.47820854"><ele>52.9</ele><time>2012-07-27T13:43:33.0000000+00:00</time></trkpt><trkpt lat="63.87178421" lon="-20.47864533"><ele>52.8</ele><time>2012-07-27T13:43:38.0000000+00:00</time></trkpt><trkpt lat="63.87192154" lon="-20.4790802"><ele>53.3</ele><time>2012-07-27T13:43:43.0000000+00:00</time></trkpt><trkpt lat="63.87204742" lon="-20.47948456"><ele>52.8</ele><time>2012-07-27T13:43:48.0000000+00:00</time></trkpt><trkpt lat="63.87218475" lon="-20.47989464"><ele>53.2</ele><time>2012-07-27T13:43:53.0000000+00:00</time></trkpt><trkpt lat="63.87232971" lon="-20.48034859"><ele>52.1</ele><time>2012-07-27T13:43:58.0000000+00:00</time></trkpt><trkpt lat="63.87246323" lon="-20.4807682"><ele>51.8</ele><time>2012-07-27T13:44:03.0000000+00:00</time></trkpt><trkpt lat="63.87258911" lon="-20.48117256"><ele>52.4</ele><time>2012-07-27T13:44:08.0000000+00:00</time></trkpt><trkpt lat="63.87271118" lon="-20.48155785"><ele>53.2</ele><time>2012-07-27T13:44:13.0000000+00:00</time></trkpt><trkpt lat="63.87283707" lon="-20.48194695"><ele>53.3</ele><time>2012-07-27T13:44:18.0000000+00:00</time></trkpt><trkpt lat="63.87296295" lon="-20.4823494"><ele>52.9</ele><time>2012-07-27T13:44:23.0000000+00:00</time></trkpt><trkpt lat="63.87308884" lon="-20.4827385"><ele>52.8</ele><time>2012-07-27T13:44:28.0000000+00:00</time></trkpt><trkpt lat="63.87319565" lon="-20.48308563"><ele>52.8</ele><time>2012-07-27T13:44:33.0000000+00:00</time></trkpt><trkpt lat="63.87331009" lon="-20.48342896"><ele>53.0</ele><time>2012-07-27T13:44:38.0000000+00:00</time></trkpt><trkpt lat="63.87343216" lon="-20.48381424"><ele>52.6</ele><time>2012-07-27T13:44:43.0000000+00:00</time></trkpt><trkpt lat="63.87355804" lon="-20.48423195"><ele>52.7</ele><time>2012-07-27T13:44:48.0000000+00:00</time></trkpt><trkpt lat="63.87368012" lon="-20.48461342"><ele>52.3</ele><time>2012-07-27T13:44:53.0000000+00:00</time></trkpt><trkpt lat="63.87380981" lon="-20.48502731"><ele>52.5</ele><time>2012-07-27T13:44:58.0000000+00:00</time></trkpt><trkpt lat="63.87394714" lon="-20.48546982"><ele>52.7</ele><time>2012-07-27T13:45:03.0000000+00:00</time></trkpt><trkpt lat="63.87407684" lon="-20.48586845"><ele>53.1</ele><time>2012-07-27T13:45:08.0000000+00:00</time></trkpt><trkpt lat="63.87421036" lon="-20.48628426"><ele>53.0</ele><time>2012-07-27T13:45:13.0000000+00:00</time></trkpt><trkpt lat="63.8743515" lon="-20.48672867"><ele>53.1</ele><time>2012-07-27T13:45:18.0000000+00:00</time></trkpt><trkpt lat="63.8744812" lon="-20.48713875"><ele>53.3</ele><time>2012-07-27T13:45:23.0000000+00:00</time></trkpt><trkpt lat="63.87460709" lon="-20.48754692"><ele>52.5</ele><time>2012-07-27T13:45:28.0000000+00:00</time></trkpt><trkpt lat="63.87475205" lon="-20.48799324"><ele>52.6</ele><time>2012-07-27T13:45:33.0000000+00:00</time></trkpt><trkpt lat="63.87490082" lon="-20.48846817"><ele>52.5</ele><time>2012-07-27T13:45:38.0000000+00:00</time></trkpt><trkpt lat="63.87503815" lon="-20.4889183"><ele>52.2</ele><time>2012-07-27T13:45:43.0000000+00:00</time></trkpt><trkpt lat="63.87516785" lon="-20.4893074"><ele>52.6</ele><time>2012-07-27T13:45:48.0000000+00:00</time></trkpt><trkpt lat="63.87530136" lon="-20.48975182"><ele>52.3</ele><time>2012-07-27T13:45:53.0000000+00:00</time></trkpt><trkpt lat="63.87543488" lon="-20.49018478"><ele>52.4</ele><time>2012-07-27T13:45:58.0000000+00:00</time></trkpt><trkpt lat="63.87555695" lon="-20.49057579"><ele>53.0</ele><time>2012-07-27T13:46:03.0000000+00:00</time></trkpt><trkpt lat="63.87569428" lon="-20.49099731"><ele>53.2</ele><time>2012-07-27T13:46:08.0000000+00:00</time></trkpt><trkpt lat="63.87583542" lon="-20.49142456"><ele>53.6</ele><time>2012-07-27T13:46:13.0000000+00:00</time></trkpt><trkpt lat="63.87596512" lon="-20.49182129"><ele>53.4</ele><time>2012-07-27T13:46:18.0000000+00:00</time></trkpt><trkpt lat="63.87609863" lon="-20.49224854"><ele>53.7</ele><time>2012-07-27T13:46:23.0000000+00:00</time></trkpt><trkpt lat="63.87624359" lon="-20.49271774"><ele>53.7</ele><time>2012-07-27T13:46:28.0000000+00:00</time></trkpt><trkpt lat="63.87636566" lon="-20.49310112"><ele>53.4</ele><time>2012-07-27T13:46:33.0000000+00:00</time></trkpt><trkpt lat="63.87648773" lon="-20.49348259"><ele>53.9</ele><time>2012-07-27T13:46:38.0000000+00:00</time></trkpt><trkpt lat="63.87662506" lon="-20.49390793"><ele>54.1</ele><time>2012-07-27T13:46:43.0000000+00:00</time></trkpt><trkpt lat="63.87676239" lon="-20.4943409"><ele>54.5</ele><time>2012-07-27T13:46:48.0000000+00:00</time></trkpt><trkpt lat="63.87688065" lon="-20.49470902"><ele>54.4</ele><time>2012-07-27T13:46:53.0000000+00:00</time></trkpt><trkpt lat="63.87701035" lon="-20.49510765"><ele>54.3</ele><time>2012-07-27T13:46:58.0000000+00:00</time></trkpt><trkpt lat="63.87713242" lon="-20.49546433"><ele>54.9</ele><time>2012-07-27T13:47:03.0000000+00:00</time></trkpt><trkpt lat="63.87722015" lon="-20.49577332"><ele>55.1</ele><time>2012-07-27T13:47:08.0000000+00:00</time></trkpt><trkpt lat="63.87733841" lon="-20.49612427"><ele>55.5</ele><time>2012-07-27T13:47:13.0000000+00:00</time></trkpt><trkpt lat="63.87744904" lon="-20.49649048"><ele>55.7</ele><time>2012-07-27T13:47:18.0000000+00:00</time></trkpt><trkpt lat="63.87755585" lon="-20.49684525"><ele>56.1</ele><time>2012-07-27T13:47:23.0000000+00:00</time></trkpt><trkpt lat="63.8776741" lon="-20.4971962"><ele>55.9</ele><time>2012-07-27T13:47:28.0000000+00:00</time></trkpt><trkpt lat="63.87779617" lon="-20.49757767"><ele>55.8</ele><time>2012-07-27T13:47:33.0000000+00:00</time></trkpt><trkpt lat="63.87789154" lon="-20.49788666"><ele>56.0</ele><time>2012-07-27T13:47:38.0000000+00:00</time></trkpt><trkpt lat="63.87800217" lon="-20.49822998"><ele>56.1</ele><time>2012-07-27T13:47:43.0000000+00:00</time></trkpt><trkpt lat="63.87813187" lon="-20.49863052"><ele>56.4</ele><time>2012-07-27T13:47:48.0000000+00:00</time></trkpt><trkpt lat="63.87826538" lon="-20.49901962"><ele>56.7</ele><time>2012-07-27T13:47:53.0000000+00:00</time></trkpt><trkpt lat="63.87838364" lon="-20.49941063"><ele>57.3</ele><time>2012-07-27T13:47:58.0000000+00:00</time></trkpt><trkpt lat="63.87850952" lon="-20.49983215"><ele>57.4</ele><time>2012-07-27T13:48:03.0000000+00:00</time></trkpt><trkpt lat="63.87861633" lon="-20.5001812"><ele>57.7</ele><time>2012-07-27T13:48:08.0000000+00:00</time></trkpt><trkpt lat="63.87871933" lon="-20.50052261"><ele>58.3</ele><time>2012-07-27T13:48:13.0000000+00:00</time></trkpt><trkpt lat="63.87882996" lon="-20.50085449"><ele>57.9</ele><time>2012-07-27T13:48:18.0000000+00:00</time></trkpt><trkpt lat="63.87891769" lon="-20.5011425"><ele>58.0</ele><time>2012-07-27T13:48:23.0000000+00:00</time></trkpt><trkpt lat="63.8789978" lon="-20.50139046"><ele>57.7</ele><time>2012-07-27T13:48:28.0000000+00:00</time></trkpt><trkpt lat="63.87906647" lon="-20.50160599"><ele>57.8</ele><time>2012-07-27T13:48:33.0000000+00:00</time></trkpt><trkpt lat="63.87911987" lon="-20.50176811"><ele>58.3</ele><time>2012-07-27T13:48:38.0000000+00:00</time></trkpt><trkpt lat="63.87918854" lon="-20.50195885"><ele>58.5</ele><time>2012-07-27T13:48:43.0000000+00:00</time></trkpt><trkpt lat="63.87926102" lon="-20.50220871"><ele>58.3</ele><time>2012-07-27T13:48:48.0000000+00:00</time></trkpt><trkpt lat="63.8793335" lon="-20.50245476"><ele>58.5</ele><time>2012-07-27T13:48:53.0000000+00:00</time></trkpt><trkpt lat="63.87941361" lon="-20.50270844"><ele>58.5</ele><time>2012-07-27T13:48:58.0000000+00:00</time></trkpt><trkpt lat="63.87949371" lon="-20.50295258"><ele>58.4</ele><time>2012-07-27T13:49:03.0000000+00:00</time></trkpt><trkpt lat="63.8795929" lon="-20.50325966"><ele>58.2</ele><time>2012-07-27T13:49:08.0000000+00:00</time></trkpt><trkpt lat="63.87971497" lon="-20.50363541"><ele>58.1</ele><time>2012-07-27T13:49:13.0000000+00:00</time></trkpt><trkpt lat="63.87983704" lon="-20.50402641"><ele>58.0</ele><time>2012-07-27T13:49:18.0000000+00:00</time></trkpt><trkpt lat="63.87995148" lon="-20.50440025"><ele>57.8</ele><time>2012-07-27T13:49:23.0000000+00:00</time></trkpt><trkpt lat="63.88008118" lon="-20.50478554"><ele>58.0</ele><time>2012-07-27T13:49:28.0000000+00:00</time></trkpt><trkpt lat="63.88021851" lon="-20.50520515"><ele>57.6</ele><time>2012-07-27T13:49:33.0000000+00:00</time></trkpt><trkpt lat="63.88034439" lon="-20.50560188"><ele>56.8</ele><time>2012-07-27T13:49:38.0000000+00:00</time></trkpt><trkpt lat="63.88048554" lon="-20.50604248"><ele>56.9</ele><time>2012-07-27T13:49:43.0000000+00:00</time></trkpt><trkpt lat="63.88061523" lon="-20.50646401"><ele>56.3</ele><time>2012-07-27T13:49:48.0000000+00:00</time></trkpt><trkpt lat="63.88074112" lon="-20.50687218"><ele>55.9</ele><time>2012-07-27T13:49:53.0000000+00:00</time></trkpt><trkpt lat="63.88088608" lon="-20.50734139"><ele>54.9</ele><time>2012-07-27T13:49:58.0000000+00:00</time></trkpt><trkpt lat="63.88105011" lon="-20.50784493"><ele>53.8</ele><time>2012-07-27T13:50:03.0000000+00:00</time></trkpt><trkpt lat="63.8812027" lon="-20.50834084"><ele>52.9</ele><time>2012-07-27T13:50:08.0000000+00:00</time></trkpt><trkpt lat="63.88134766" lon="-20.50881577"><ele>52.5</ele><time>2012-07-27T13:50:13.0000000+00:00</time></trkpt><trkpt lat="63.88149643" lon="-20.50927925"><ele>51.9</ele><time>2012-07-27T13:50:18.0000000+00:00</time></trkpt><trkpt lat="63.88164902" lon="-20.50976753"><ele>51.6</ele><time>2012-07-27T13:50:23.0000000+00:00</time></trkpt><trkpt lat="63.88180161" lon="-20.5102272"><ele>51.1</ele><time>2012-07-27T13:50:28.0000000+00:00</time></trkpt><trkpt lat="63.88193512" lon="-20.51064873"><ele>50.5</ele><time>2012-07-27T13:50:33.0000000+00:00</time></trkpt><trkpt lat="63.88204956" lon="-20.51100922"><ele>50.1</ele><time>2012-07-27T13:50:38.0000000+00:00</time></trkpt><trkpt lat="63.88215256" lon="-20.51130295"><ele>50.0</ele><time>2012-07-27T13:50:43.0000000+00:00</time></trkpt><trkpt lat="63.88222885" lon="-20.51155663"><ele>49.8</ele><time>2012-07-27T13:50:48.0000000+00:00</time></trkpt><trkpt lat="63.88232422" lon="-20.5118866"><ele>49.3</ele><time>2012-07-27T13:50:53.0000000+00:00</time></trkpt><trkpt lat="63.88246536" lon="-20.51235008"><ele>49.5</ele><time>2012-07-27T13:50:58.0000000+00:00</time></trkpt><trkpt lat="63.88262558" lon="-20.51284027"><ele>49.3</ele><time>2012-07-27T13:51:03.0000000+00:00</time></trkpt><trkpt lat="63.88278198" lon="-20.51330185"><ele>50.1</ele><time>2012-07-27T13:51:08.0000000+00:00</time></trkpt><trkpt lat="63.88292313" lon="-20.513731"><ele>50.1</ele><time>2012-07-27T13:51:13.0000000+00:00</time></trkpt><trkpt lat="63.88303757" lon="-20.51411247"><ele>49.9</ele><time>2012-07-27T13:51:18.0000000+00:00</time></trkpt><trkpt lat="63.88314056" lon="-20.51443863"><ele>50.3</ele><time>2012-07-27T13:51:23.0000000+00:00</time></trkpt><trkpt lat="63.88324356" lon="-20.51476479"><ele>50.4</ele><time>2012-07-27T13:51:28.0000000+00:00</time></trkpt><trkpt lat="63.88334656" lon="-20.51507378"><ele>50.5</ele><time>2012-07-27T13:51:33.0000000+00:00</time></trkpt><trkpt lat="63.88344955" lon="-20.51539993"><ele>50.4</ele><time>2012-07-27T13:51:38.0000000+00:00</time></trkpt><trkpt lat="63.88354874" lon="-20.51572228"><ele>50.4</ele><time>2012-07-27T13:51:43.0000000+00:00</time></trkpt><trkpt lat="63.88364792" lon="-20.51602745"><ele>50.8</ele><time>2012-07-27T13:51:48.0000000+00:00</time></trkpt><trkpt lat="63.88372803" lon="-20.51629448"><ele>51.4</ele><time>2012-07-27T13:51:53.0000000+00:00</time></trkpt><trkpt lat="63.88380814" lon="-20.51653862"><ele>51.8</ele><time>2012-07-27T13:51:58.0000000+00:00</time></trkpt><trkpt lat="63.8839035" lon="-20.51683235"><ele>52.5</ele><time>2012-07-27T13:52:03.0000000+00:00</time></trkpt><trkpt lat="63.88400269" lon="-20.51713944"><ele>52.6</ele><time>2012-07-27T13:52:08.0000000+00:00</time></trkpt><trkpt lat="63.88409805" lon="-20.51744461"><ele>52.9</ele><time>2012-07-27T13:52:13.0000000+00:00</time></trkpt><trkpt lat="63.88418961" lon="-20.51773644"><ele>53.4</ele><time>2012-07-27T13:52:18.0000000+00:00</time></trkpt><trkpt lat="63.88428116" lon="-20.51803017"><ele>53.1</ele><time>2012-07-27T13:52:23.0000000+00:00</time></trkpt><trkpt lat="63.88437271" lon="-20.51831818"><ele>53.6</ele><time>2012-07-27T13:52:28.0000000+00:00</time></trkpt><trkpt lat="63.88446426" lon="-20.51861"><ele>54.1</ele><time>2012-07-27T13:52:33.0000000+00:00</time></trkpt><trkpt lat="63.884552" lon="-20.51889038"><ele>54.5</ele><time>2012-07-27T13:52:38.0000000+00:00</time></trkpt><trkpt lat="63.88463593" lon="-20.51915741"><ele>55.1</ele><time>2012-07-27T13:52:43.0000000+00:00</time></trkpt><trkpt lat="63.88473511" lon="-20.51946449"><ele>55.7</ele><time>2012-07-27T13:52:48.0000000+00:00</time></trkpt><trkpt lat="63.8848381" lon="-20.51979637"><ele>56.4</ele><time>2012-07-27T13:52:53.0000000+00:00</time></trkpt><trkpt lat="63.88495255" lon="-20.52016449"><ele>56.9</ele><time>2012-07-27T13:52:58.0000000+00:00</time></trkpt><trkpt lat="63.8850708" lon="-20.52053261"><ele>57.2</ele><time>2012-07-27T13:53:03.0000000+00:00</time></trkpt><trkpt lat="63.88518143" lon="-20.52086639"><ele>58.0</ele><time>2012-07-27T13:53:08.0000000+00:00</time></trkpt><trkpt lat="63.88529968" lon="-20.52124596"><ele>58.4</ele><time>2012-07-27T13:53:13.0000000+00:00</time></trkpt><trkpt lat="63.88541794" lon="-20.52161598"><ele>58.8</ele><time>2012-07-27T13:53:18.0000000+00:00</time></trkpt><trkpt lat="63.88552856" lon="-20.52195358"><ele>59.1</ele><time>2012-07-27T13:53:23.0000000+00:00</time></trkpt><trkpt lat="63.88564682" lon="-20.5223465"><ele>59.4</ele><time>2012-07-27T13:53:28.0000000+00:00</time></trkpt><trkpt lat="63.88577271" lon="-20.52273369"><ele>59.2</ele><time>2012-07-27T13:53:33.0000000+00:00</time></trkpt><trkpt lat="63.88589859" lon="-20.52313232"><ele>59.2</ele><time>2012-07-27T13:53:38.0000000+00:00</time></trkpt><trkpt lat="63.8860321" lon="-20.5235405"><ele>59.7</ele><time>2012-07-27T13:53:43.0000000+00:00</time></trkpt><trkpt lat="63.8861618" lon="-20.52395058"><ele>59.2</ele><time>2012-07-27T13:53:48.0000000+00:00</time></trkpt><trkpt lat="63.88629532" lon="-20.52436447"><ele>58.9</ele><time>2012-07-27T13:53:53.0000000+00:00</time></trkpt><trkpt lat="63.88642883" lon="-20.52477074"><ele>60.3</ele><time>2012-07-27T13:53:58.0000000+00:00</time></trkpt><trkpt lat="63.88656616" lon="-20.52519798"><ele>60.2</ele><time>2012-07-27T13:54:03.0000000+00:00</time></trkpt><trkpt lat="63.88669586" lon="-20.52561569"><ele>60.7</ele><time>2012-07-27T13:54:08.0000000+00:00</time></trkpt><trkpt lat="63.8868103" lon="-20.52596664"><ele>60.0</ele><time>2012-07-27T13:54:13.0000000+00:00</time></trkpt><trkpt lat="63.8869133" lon="-20.52632141"><ele>60.7</ele><time>2012-07-27T13:54:18.0000000+00:00</time></trkpt><trkpt lat="63.88703919" lon="-20.52672005"><ele>59.9</ele><time>2012-07-27T13:54:23.0000000+00:00</time></trkpt><trkpt lat="63.8871727" lon="-20.52713013"><ele>60.3</ele><time>2012-07-27T13:54:28.0000000+00:00</time></trkpt><trkpt lat="63.88729096" lon="-20.52751541"><ele>60.5</ele><time>2012-07-27T13:54:33.0000000+00:00</time></trkpt><trkpt lat="63.88742447" lon="-20.5279274"><ele>60.6</ele><time>2012-07-27T13:54:38.0000000+00:00</time></trkpt><trkpt lat="63.88754273" lon="-20.52831459"><ele>61.0</ele><time>2012-07-27T13:54:43.0000000+00:00</time></trkpt><trkpt lat="63.88764954" lon="-20.52865028"><ele>62.0</ele><time>2012-07-27T13:54:48.0000000+00:00</time></trkpt><trkpt lat="63.88776779" lon="-20.52903366"><ele>62.4</ele><time>2012-07-27T13:54:53.0000000+00:00</time></trkpt><trkpt lat="63.88788605" lon="-20.5294342"><ele>61.3</ele><time>2012-07-27T13:54:58.0000000+00:00</time></trkpt><trkpt lat="63.88801193" lon="-20.52983666"><ele>60.0</ele><time>2012-07-27T13:55:03.0000000+00:00</time></trkpt><trkpt lat="63.88815308" lon="-20.53025627"><ele>59.1</ele><time>2012-07-27T13:55:08.0000000+00:00</time></trkpt><trkpt lat="63.88829041" lon="-20.53069687"><ele>58.6</ele><time>2012-07-27T13:55:13.0000000+00:00</time></trkpt><trkpt lat="63.88842011" lon="-20.53113365"><ele>58.5</ele><time>2012-07-27T13:55:18.0000000+00:00</time></trkpt><trkpt lat="63.88851929" lon="-20.53146935"><ele>59.0</ele><time>2012-07-27T13:55:23.0000000+00:00</time></trkpt><trkpt lat="63.88859177" lon="-20.53176117"><ele>59.4</ele><time>2012-07-27T13:55:28.0000000+00:00</time></trkpt><trkpt lat="63.8886795" lon="-20.53195572"><ele>60.1</ele><time>2012-07-27T13:55:33.0000000+00:00</time></trkpt><trkpt lat="63.88870621" lon="-20.53202057"><ele>60.3</ele><time>2012-07-27T13:55:38.0000000+00:00</time></trkpt><trkpt lat="63.88870239" lon="-20.53201675"><ele>60.6</ele><time>2012-07-27T13:55:43.0000000+00:00</time></trkpt><trkpt lat="63.88869476" lon="-20.53201866"><ele>60.0</ele><time>2012-07-27T13:55:48.0000000+00:00</time></trkpt><trkpt lat="63.88869095" lon="-20.53201866"><ele>59.8</ele><time>2012-07-27T13:55:53.0000000+00:00</time></trkpt><trkpt lat="63.88869095" lon="-20.53201675"><ele>59.8</ele><time>2012-07-27T13:55:58.0000000+00:00</time></trkpt><trkpt lat="63.88870239" lon="-20.53201675"><ele>60.4</ele><time>2012-07-27T13:56:03.0000000+00:00</time></trkpt><trkpt lat="63.88870239" lon="-20.53201675"><ele>60.4</ele><time>2012-07-27T13:56:08.0000000+00:00</time></trkpt><trkpt lat="63.88871002" lon="-20.53201485"><ele>60.8</ele><time>2012-07-27T13:56:13.0000000+00:00</time></trkpt><trkpt lat="63.88871384" lon="-20.53201675"><ele>61.0</ele><time>2012-07-27T13:56:18.0000000+00:00</time></trkpt><trkpt lat="63.88871384" lon="-20.53201675"><ele>61.0</ele><time>2012-07-27T13:56:23.0000000+00:00</time></trkpt><trkpt lat="63.88871765" lon="-20.53201485"><ele>61.0</ele><time>2012-07-27T13:56:28.0000000+00:00</time></trkpt><trkpt lat="63.88871384" lon="-20.53201485"><ele>61.0</ele><time>2012-07-27T13:56:33.0000000+00:00</time></trkpt><trkpt lat="63.88871384" lon="-20.53201485"><ele>61.0</ele><time>2012-07-27T13:56:38.0000000+00:00</time></trkpt><trkpt lat="63.88871384" lon="-20.53201485"><ele>61.0</ele><time>2012-07-27T13:56:43.0000000+00:00</time></trkpt><trkpt lat="63.88871384" lon="-20.53201485"><ele>61.0</ele><time>2012-07-27T13:56:48.0000000+00:00</time></trkpt><trkpt lat="63.88871384" lon="-20.53201485"><ele>61.0</ele><time>2012-07-27T13:56:53.0000000+00:00</time></trkpt><trkpt lat="63.88871384" lon="-20.53201485"><ele>61.0</ele><time>2012-07-27T13:56:58.0000000+00:00</time></trkpt><trkpt lat="63.88871384" lon="-20.53201485"><ele>61.0</ele><time>2012-07-27T13:57:03.0000000+00:00</time></trkpt><trkpt lat="63.88871384" lon="-20.53201485"><ele>61.0</ele><time>2012-07-27T13:57:08.0000000+00:00</time></trkpt><trkpt lat="63.88871384" lon="-20.53201485"><ele>61.0</ele><time>2012-07-27T13:57:13.0000000+00:00</time></trkpt><trkpt lat="63.88871384" lon="-20.53201485"><ele>61.0</ele><time>2012-07-27T13:57:18.0000000+00:00</time></trkpt><trkpt lat="63.88871384" lon="-20.53201485"><ele>61.0</ele><time>2012-07-27T13:57:23.0000000+00:00</time></trkpt><trkpt lat="63.88871384" lon="-20.53201485"><ele>61.0</ele><time>2012-07-27T13:57:28.0000000+00:00</time></trkpt><trkpt lat="63.88871384" lon="-20.53201485"><ele>61.0</ele><time>2012-07-27T13:57:33.0000000+00:00</time></trkpt><trkpt lat="63.88871384" lon="-20.53201485"><ele>61.0</ele><time>2012-07-27T13:57:38.0000000+00:00</time></trkpt><trkpt lat="63.88871384" lon="-20.53201485"><ele>61.0</ele><time>2012-07-27T13:57:43.0000000+00:00</time></trkpt><trkpt lat="63.88871384" lon="-20.53201485"><ele>61.0</ele><time>2012-07-27T13:57:48.0000000+00:00</time></trkpt><trkpt lat="63.88871384" lon="-20.53201485"><ele>61.0</ele><time>2012-07-27T13:57:53.0000000+00:00</time></trkpt><trkpt lat="63.88872147" lon="-20.53201866"><ele>60.9</ele><time>2012-07-27T13:57:58.0000000+00:00</time></trkpt><trkpt lat="63.88873673" lon="-20.53190804"><ele>61.5</ele><time>2012-07-27T13:58:03.0000000+00:00</time></trkpt><trkpt lat="63.88876343" lon="-20.53184509"><ele>62.7</ele><time>2012-07-27T13:58:08.0000000+00:00</time></trkpt><trkpt lat="63.88877106" lon="-20.53186035"><ele>63.2</ele><time>2012-07-27T13:58:13.0000000+00:00</time></trkpt><trkpt lat="63.88877106" lon="-20.53186607"><ele>63.8</ele><time>2012-07-27T13:58:18.0000000+00:00</time></trkpt><trkpt lat="63.88877106" lon="-20.53186607"><ele>63.8</ele><time>2012-07-27T13:58:23.0000000+00:00</time></trkpt><trkpt lat="63.88877106" lon="-20.53186607"><ele>63.8</ele><time>2012-07-27T13:58:28.0000000+00:00</time></trkpt><trkpt lat="63.88877106" lon="-20.53186607"><ele>63.8</ele><time>2012-07-27T13:58:33.0000000+00:00</time></trkpt><trkpt lat="63.88877106" lon="-20.53186607"><ele>63.8</ele><time>2012-07-27T13:58:38.0000000+00:00</time></trkpt><trkpt lat="63.88877106" lon="-20.53186607"><ele>63.8</ele><time>2012-07-27T13:58:43.0000000+00:00</time></trkpt><trkpt lat="63.88877106" lon="-20.53186607"><ele>63.8</ele><time>2012-07-27T13:58:48.0000000+00:00</time></trkpt><trkpt lat="63.88877106" lon="-20.53186607"><ele>63.8</ele><time>2012-07-27T13:58:53.0000000+00:00</time></trkpt><trkpt lat="63.88877487" lon="-20.53187561"><ele>64.0</ele><time>2012-07-27T13:58:58.0000000+00:00</time></trkpt><trkpt lat="63.88877487" lon="-20.53187943"><ele>65.1</ele><time>2012-07-27T13:59:03.0000000+00:00</time></trkpt><trkpt lat="63.88877869" lon="-20.53188324"><ele>65.9</ele><time>2012-07-27T13:59:08.0000000+00:00</time></trkpt><trkpt lat="63.8887825" lon="-20.53188515"><ele>66.3</ele><time>2012-07-27T13:59:13.0000000+00:00</time></trkpt><trkpt lat="63.8887825" lon="-20.53188515"><ele>66.6</ele><time>2012-07-27T13:59:18.0000000+00:00</time></trkpt><trkpt lat="63.8887825" lon="-20.53188133"><ele>66.7</ele><time>2012-07-27T13:59:23.0000000+00:00</time></trkpt><trkpt lat="63.8887825" lon="-20.53188324"><ele>66.7</ele><time>2012-07-27T13:59:28.0000000+00:00</time></trkpt><trkpt lat="63.8887825" lon="-20.53188324"><ele>66.7</ele><time>2012-07-27T13:59:33.0000000+00:00</time></trkpt><trkpt lat="63.8887825" lon="-20.53188324"><ele>66.7</ele><time>2012-07-27T13:59:38.0000000+00:00</time></trkpt><trkpt lat="63.8887825" lon="-20.53188324"><ele>66.7</ele><time>2012-07-27T13:59:43.0000000+00:00</time></trkpt><trkpt lat="63.8887825" lon="-20.53188324"><ele>66.7</ele><time>2012-07-27T13:59:48.0000000+00:00</time></trkpt><trkpt lat="63.8887825" lon="-20.53188324"><ele>66.7</ele><time>2012-07-27T13:59:53.0000000+00:00</time></trkpt><trkpt lat="63.8887825" lon="-20.53188515"><ele>66.7</ele><time>2012-07-27T13:59:58.0000000+00:00</time></trkpt><trkpt lat="63.8887825" lon="-20.53188515"><ele>66.7</ele><time>2012-07-27T14:00:03.0000000+00:00</time></trkpt><trkpt lat="63.8887825" lon="-20.53188515"><ele>66.7</ele><time>2012-07-27T14:00:08.0000000+00:00</time></trkpt><trkpt lat="63.8887825" lon="-20.53188515"><ele>66.7</ele><time>2012-07-27T14:00:13.0000000+00:00</time></trkpt><trkpt lat="63.8887825" lon="-20.53188515"><ele>66.7</ele><time>2012-07-27T14:00:18.0000000+00:00</time></trkpt><trkpt lat="63.8887825" lon="-20.53188705"><ele>66.7</ele><time>2012-07-27T14:00:23.0000000+00:00</time></trkpt><trkpt lat="63.8887825" lon="-20.53188705"><ele>66.7</ele><time>2012-07-27T14:00:28.0000000+00:00</time></trkpt><trkpt lat="63.8887825" lon="-20.53188705"><ele>66.7</ele><time>2012-07-27T14:00:33.0000000+00:00</time></trkpt><trkpt lat="63.8887825" lon="-20.53188705"><ele>66.7</ele><time>2012-07-27T14:00:38.0000000+00:00</time></trkpt><trkpt lat="63.8887825" lon="-20.53188896"><ele>66.7</ele><time>2012-07-27T14:00:43.0000000+00:00</time></trkpt><trkpt lat="63.8887825" lon="-20.53188896"><ele>66.7</ele><time>2012-07-27T14:00:48.0000000+00:00</time></trkpt><trkpt lat="63.8887825" lon="-20.53188896"><ele>66.6</ele><time>2012-07-27T14:00:53.0000000+00:00</time></trkpt><trkpt lat="63.8887825" lon="-20.53188896"><ele>66.6</ele><time>2012-07-27T14:00:58.0000000+00:00</time></trkpt><trkpt lat="63.8887825" lon="-20.53189087"><ele>66.7</ele><time>2012-07-27T14:01:03.0000000+00:00</time></trkpt><trkpt lat="63.8887825" lon="-20.53189087"><ele>66.7</ele><time>2012-07-27T14:01:08.0000000+00:00</time></trkpt><trkpt lat="63.8887825" lon="-20.53189087"><ele>66.7</ele><time>2012-07-27T14:01:13.0000000+00:00</time></trkpt><trkpt lat="63.8887825" lon="-20.53189087"><ele>66.6</ele><time>2012-07-27T14:01:18.0000000+00:00</time></trkpt><trkpt lat="63.8887825" lon="-20.53189087"><ele>66.6</ele><time>2012-07-27T14:01:23.0000000+00:00</time></trkpt><trkpt lat="63.8887825" lon="-20.53189087"><ele>66.6</ele><time>2012-07-27T14:01:28.0000000+00:00</time></trkpt><trkpt lat="63.8887825" lon="-20.53189087"><ele>66.7</ele><time>2012-07-27T14:01:33.0000000+00:00</time></trkpt><trkpt lat="63.8887825" lon="-20.53189087"><ele>66.7</ele><time>2012-07-27T14:01:38.0000000+00:00</time></trkpt><trkpt lat="63.8887825" lon="-20.53189087"><ele>66.7</ele><time>2012-07-27T14:01:43.0000000+00:00</time></trkpt><trkpt lat="63.8887825" lon="-20.53189278"><ele>66.7</ele><time>2012-07-27T14:01:48.0000000+00:00</time></trkpt><trkpt lat="63.8887825" lon="-20.53189278"><ele>66.7</ele><time>2012-07-27T14:01:53.0000000+00:00</time></trkpt><trkpt lat="63.8887825" lon="-20.53189278"><ele>66.6</ele><time>2012-07-27T14:01:58.0000000+00:00</time></trkpt><trkpt lat="63.8887825" lon="-20.53189278"><ele>66.6</ele><time>2012-07-27T14:02:03.0000000+00:00</time></trkpt><trkpt lat="63.8887825" lon="-20.53189278"><ele>66.5</ele><time>2012-07-27T14:02:08.0000000+00:00</time></trkpt><trkpt lat="63.8887825" lon="-20.53189278"><ele>66.5</ele><time>2012-07-27T14:02:13.0000000+00:00</time></trkpt><trkpt lat="63.8887825" lon="-20.53189278"><ele>66.5</ele><time>2012-07-27T14:02:18.0000000+00:00</time></trkpt><trkpt lat="63.8887825" lon="-20.53189278"><ele>66.5</ele><time>2012-07-27T14:02:23.0000000+00:00</time></trkpt><trkpt lat="63.8887825" lon="-20.53189278"><ele>66.4</ele><time>2012-07-27T14:02:28.0000000+00:00</time></trkpt><trkpt lat="63.8887825" lon="-20.53189468"><ele>66.4</ele><time>2012-07-27T14:02:33.0000000+00:00</time></trkpt><trkpt lat="63.8887825" lon="-20.53189468"><ele>66.4</ele><time>2012-07-27T14:02:38.0000000+00:00</time></trkpt><trkpt lat="63.8887825" lon="-20.53189468"><ele>66.4</ele><time>2012-07-27T14:02:43.0000000+00:00</time></trkpt><trkpt lat="63.8887825" lon="-20.53189468"><ele>66.3</ele><time>2012-07-27T14:02:48.0000000+00:00</time></trkpt><trkpt lat="63.8887825" lon="-20.53189468"><ele>66.3</ele><time>2012-07-27T14:02:53.0000000+00:00</time></trkpt><trkpt lat="63.8887825" lon="-20.53189468"><ele>66.3</ele><time>2012-07-27T14:02:58.0000000+00:00</time></trkpt><trkpt lat="63.88877869" lon="-20.53189468"><ele>66.3</ele><time>2012-07-27T14:03:03.0000000+00:00</time></trkpt><trkpt lat="63.88877869" lon="-20.53189468"><ele>66.3</ele><time>2012-07-27T14:03:08.0000000+00:00</time></trkpt><trkpt lat="63.88877869" lon="-20.53189659"><ele>66.3</ele><time>2012-07-27T14:03:13.0000000+00:00</time></trkpt><trkpt lat="63.88877869" lon="-20.53189659"><ele>66.2</ele><time>2012-07-27T14:03:18.0000000+00:00</time></trkpt><trkpt lat="63.88877869" lon="-20.53189659"><ele>66.2</ele><time>2012-07-27T14:03:23.0000000+00:00</time></trkpt><trkpt lat="63.88877869" lon="-20.53189659"><ele>66.2</ele><time>2012-07-27T14:03:28.0000000+00:00</time></trkpt><trkpt lat="63.88877869" lon="-20.53189659"><ele>66.2</ele><time>2012-07-27T14:03:33.0000000+00:00</time></trkpt><trkpt lat="63.88877869" lon="-20.53189659"><ele>66.1</ele><time>2012-07-27T14:03:38.0000000+00:00</time></trkpt><trkpt lat="63.88877869" lon="-20.5318985"><ele>66.1</ele><time>2012-07-27T14:03:43.0000000+00:00</time></trkpt><trkpt lat="63.88877869" lon="-20.5318985"><ele>66.1</ele><time>2012-07-27T14:03:48.0000000+00:00</time></trkpt><trkpt lat="63.88877869" lon="-20.5318985"><ele>66.0</ele><time>2012-07-27T14:03:53.0000000+00:00</time></trkpt><trkpt lat="63.88877869" lon="-20.5318985"><ele>66.0</ele><time>2012-07-27T14:03:58.0000000+00:00</time></trkpt><trkpt lat="63.88877869" lon="-20.5318985"><ele>66.0</ele><time>2012-07-27T14:04:03.0000000+00:00</time></trkpt><trkpt lat="63.88877869" lon="-20.53190041"><ele>66.0</ele><time>2012-07-27T14:04:08.0000000+00:00</time></trkpt><trkpt lat="63.88877869" lon="-20.53190041"><ele>66.0</ele><time>2012-07-27T14:04:13.0000000+00:00</time></trkpt><trkpt lat="63.88877869" lon="-20.53190041"><ele>66.0</ele><time>2012-07-27T14:04:18.0000000+00:00</time></trkpt><trkpt lat="63.88877869" lon="-20.53190231"><ele>65.9</ele><time>2012-07-27T14:04:23.0000000+00:00</time></trkpt><trkpt lat="63.88877869" lon="-20.53190231"><ele>65.9</ele><time>2012-07-27T14:04:28.0000000+00:00</time></trkpt><trkpt lat="63.88877869" lon="-20.53190231"><ele>65.9</ele><time>2012-07-27T14:04:33.0000000+00:00</time></trkpt><trkpt lat="63.88877869" lon="-20.53190231"><ele>65.9</ele><time>2012-07-27T14:04:38.0000000+00:00</time></trkpt><trkpt lat="63.88877869" lon="-20.53190231"><ele>65.9</ele><time>2012-07-27T14:04:43.0000000+00:00</time></trkpt><trkpt lat="63.88877869" lon="-20.53190231"><ele>65.9</ele><time>2012-07-27T14:04:48.0000000+00:00</time></trkpt><trkpt lat="63.88877869" lon="-20.53190231"><ele>65.9</ele><time>2012-07-27T14:04:53.0000000+00:00</time></trkpt><trkpt lat="63.88877487" lon="-20.53190231"><ele>65.8</ele><time>2012-07-27T14:04:58.0000000+00:00</time></trkpt><trkpt lat="63.88877487" lon="-20.53190231"><ele>65.8</ele><time>2012-07-27T14:05:03.0000000+00:00</time></trkpt><trkpt lat="63.88877487" lon="-20.53190231"><ele>65.8</ele><time>2012-07-27T14:05:08.0000000+00:00</time></trkpt><trkpt lat="63.88877487" lon="-20.53190422"><ele>65.8</ele><time>2012-07-27T14:05:13.0000000+00:00</time></trkpt><trkpt lat="63.88877487" lon="-20.53190422"><ele>65.7</ele><time>2012-07-27T14:05:18.0000000+00:00</time></trkpt><trkpt lat="63.88877487" lon="-20.53190422"><ele>65.7</ele><time>2012-07-27T14:05:23.0000000+00:00</time></trkpt><trkpt lat="63.88877487" lon="-20.53190422"><ele>65.7</ele><time>2012-07-27T14:05:28.0000000+00:00</time></trkpt><trkpt lat="63.88877487" lon="-20.53190422"><ele>65.7</ele><time>2012-07-27T14:05:33.0000000+00:00</time></trkpt><trkpt lat="63.88877487" lon="-20.53190422"><ele>65.6</ele><time>2012-07-27T14:05:38.0000000+00:00</time></trkpt><trkpt lat="63.88877487" lon="-20.53190422"><ele>65.6</ele><time>2012-07-27T14:05:43.0000000+00:00</time></trkpt><trkpt lat="63.88877487" lon="-20.53190422"><ele>65.6</ele><time>2012-07-27T14:05:48.0000000+00:00</time></trkpt><trkpt lat="63.88877487" lon="-20.53190422"><ele>65.5</ele><time>2012-07-27T14:05:53.0000000+00:00</time></trkpt><trkpt lat="63.88877487" lon="-20.53190422"><ele>65.5</ele><time>2012-07-27T14:05:58.0000000+00:00</time></trkpt><trkpt lat="63.88877487" lon="-20.53190422"><ele>65.5</ele><time>2012-07-27T14:06:03.0000000+00:00</time></trkpt><trkpt lat="63.88877487" lon="-20.53190422"><ele>65.5</ele><time>2012-07-27T14:06:08.0000000+00:00</time></trkpt><trkpt lat="63.88877487" lon="-20.53190422"><ele>65.4</ele><time>2012-07-27T14:06:13.0000000+00:00</time></trkpt><trkpt lat="63.88877487" lon="-20.53190422"><ele>65.4</ele><time>2012-07-27T14:06:18.0000000+00:00</time></trkpt><trkpt lat="63.88877487" lon="-20.53190613"><ele>65.3</ele><time>2012-07-27T14:06:23.0000000+00:00</time></trkpt><trkpt lat="63.88877487" lon="-20.53190613"><ele>65.3</ele><time>2012-07-27T14:06:28.0000000+00:00</time></trkpt><trkpt lat="63.88877487" lon="-20.53190613"><ele>65.2</ele><time>2012-07-27T14:06:33.0000000+00:00</time></trkpt><trkpt lat="63.88877487" lon="-20.53190613"><ele>65.2</ele><time>2012-07-27T14:06:38.0000000+00:00</time></trkpt><trkpt lat="63.88877487" lon="-20.53190613"><ele>65.1</ele><time>2012-07-27T14:06:43.0000000+00:00</time></trkpt><trkpt lat="63.88877487" lon="-20.53190613"><ele>65.1</ele><time>2012-07-27T14:06:48.0000000+00:00</time></trkpt><trkpt lat="63.88877487" lon="-20.53190613"><ele>65.1</ele><time>2012-07-27T14:06:53.0000000+00:00</time></trkpt><trkpt lat="63.88877487" lon="-20.53190613"><ele>65.1</ele><time>2012-07-27T14:06:58.0000000+00:00</time></trkpt><trkpt lat="63.88877487" lon="-20.53190613"><ele>65.1</ele><time>2012-07-27T14:07:03.0000000+00:00</time></trkpt><trkpt lat="63.88877487" lon="-20.53190613"><ele>65.0</ele><time>2012-07-27T14:07:08.0000000+00:00</time></trkpt><trkpt lat="63.88877487" lon="-20.53190613"><ele>65.0</ele><time>2012-07-27T14:07:13.0000000+00:00</time></trkpt><trkpt lat="63.88877487" lon="-20.53190613"><ele>65.0</ele><time>2012-07-27T14:07:18.0000000+00:00</time></trkpt><trkpt lat="63.88877487" lon="-20.53190613"><ele>64.9</ele><time>2012-07-27T14:07:23.0000000+00:00</time></trkpt><trkpt lat="63.88877487" lon="-20.53190613"><ele>64.9</ele><time>2012-07-27T14:07:28.0000000+00:00</time></trkpt><trkpt lat="63.88877487" lon="-20.53190613"><ele>64.9</ele><time>2012-07-27T14:07:33.0000000+00:00</time></trkpt><trkpt lat="63.88877106" lon="-20.53190613"><ele>64.9</ele><time>2012-07-27T14:07:38.0000000+00:00</time></trkpt><trkpt lat="63.88877106" lon="-20.53190613"><ele>64.9</ele><time>2012-07-27T14:07:43.0000000+00:00</time></trkpt><trkpt lat="63.88877106" lon="-20.53190613"><ele>64.8</ele><time>2012-07-27T14:07:48.0000000+00:00</time></trkpt><trkpt lat="63.88877106" lon="-20.53190804"><ele>64.8</ele><time>2012-07-27T14:07:53.0000000+00:00</time></trkpt><trkpt lat="63.88877106" lon="-20.53190804"><ele>64.8</ele><time>2012-07-27T14:07:58.0000000+00:00</time></trkpt><trkpt lat="63.88877106" lon="-20.53190613"><ele>64.8</ele><time>2012-07-27T14:08:03.0000000+00:00</time></trkpt><trkpt lat="63.88877106" lon="-20.53190613"><ele>64.8</ele><time>2012-07-27T14:08:08.0000000+00:00</time></trkpt><trkpt lat="63.88877487" lon="-20.53190613"><ele>64.8</ele><time>2012-07-27T14:08:13.0000000+00:00</time></trkpt><trkpt lat="63.88877487" lon="-20.53190613"><ele>64.8</ele><time>2012-07-27T14:08:18.0000000+00:00</time></trkpt><trkpt lat="63.88877487" lon="-20.53190613"><ele>64.8</ele><time>2012-07-27T14:08:23.0000000+00:00</time></trkpt><trkpt lat="63.88877487" lon="-20.53190613"><ele>64.8</ele><time>2012-07-27T14:08:28.0000000+00:00</time></trkpt><trkpt lat="63.88877487" lon="-20.53190613"><ele>64.8</ele><time>2012-07-27T14:08:33.0000000+00:00</time></trkpt><trkpt lat="63.88877487" lon="-20.53190613"><ele>64.7</ele><time>2012-07-27T14:08:38.0000000+00:00</time></trkpt><trkpt lat="63.88877487" lon="-20.53190613"><ele>64.7</ele><time>2012-07-27T14:08:43.0000000+00:00</time></trkpt><trkpt lat="63.88877487" lon="-20.53190613"><ele>64.7</ele><time>2012-07-27T14:08:48.0000000+00:00</time></trkpt><trkpt lat="63.88877487" lon="-20.53190613"><ele>64.7</ele><time>2012-07-27T14:08:53.0000000+00:00</time></trkpt><trkpt lat="63.88877487" lon="-20.53190613"><ele>64.7</ele><time>2012-07-27T14:08:58.0000000+00:00</time></trkpt><trkpt lat="63.88877487" lon="-20.53190613"><ele>64.7</ele><time>2012-07-27T14:09:03.0000000+00:00</time></trkpt><trkpt lat="63.88877487" lon="-20.53190613"><ele>64.6</ele><time>2012-07-27T14:09:08.0000000+00:00</time></trkpt><trkpt lat="63.88877487" lon="-20.53190613"><ele>64.6</ele><time>2012-07-27T14:09:13.0000000+00:00</time></trkpt><trkpt lat="63.88877487" lon="-20.53190613"><ele>64.6</ele><time>2012-07-27T14:09:18.0000000+00:00</time></trkpt><trkpt lat="63.88877487" lon="-20.53190613"><ele>64.6</ele><time>2012-07-27T14:09:23.0000000+00:00</time></trkpt><trkpt lat="63.88877487" lon="-20.53190613"><ele>64.6</ele><time>2012-07-27T14:09:28.0000000+00:00</time></trkpt><trkpt lat="63.88877487" lon="-20.53190613"><ele>64.6</ele><time>2012-07-27T14:09:33.0000000+00:00</time></trkpt><trkpt lat="63.88877487" lon="-20.53190804"><ele>64.6</ele><time>2012-07-27T14:09:38.0000000+00:00</time></trkpt><trkpt lat="63.88877487" lon="-20.53190804"><ele>64.6</ele><time>2012-07-27T14:09:43.0000000+00:00</time></trkpt><trkpt lat="63.88877487" lon="-20.53190804"><ele>64.6</ele><time>2012-07-27T14:09:48.0000000+00:00</time></trkpt><trkpt lat="63.88877487" lon="-20.53190804"><ele>64.6</ele><time>2012-07-27T14:09:53.0000000+00:00</time></trkpt><trkpt lat="63.88877487" lon="-20.53190804"><ele>64.6</ele><time>2012-07-27T14:09:58.0000000+00:00</time></trkpt><trkpt lat="63.88877487" lon="-20.53190804"><ele>64.6</ele><time>2012-07-27T14:10:03.0000000+00:00</time></trkpt><trkpt lat="63.88877487" lon="-20.53190804"><ele>64.6</ele><time>2012-07-27T14:10:08.0000000+00:00</time></trkpt><trkpt lat="63.88877487" lon="-20.53190804"><ele>64.6</ele><time>2012-07-27T14:10:13.0000000+00:00</time></trkpt><trkpt lat="63.88877487" lon="-20.53190804"><ele>64.7</ele><time>2012-07-27T14:10:18.0000000+00:00</time></trkpt><trkpt lat="63.88877487" lon="-20.53190804"><ele>64.7</ele><time>2012-07-27T14:10:23.0000000+00:00</time></trkpt><trkpt lat="63.88877487" lon="-20.53190804"><ele>64.7</ele><time>2012-07-27T14:10:28.0000000+00:00</time></trkpt><trkpt lat="63.88877487" lon="-20.53190994"><ele>64.7</ele><time>2012-07-27T14:10:33.0000000+00:00</time></trkpt><trkpt lat="63.88877487" lon="-20.53190994"><ele>64.7</ele><time>2012-07-27T14:10:38.0000000+00:00</time></trkpt><trkpt lat="63.88877487" lon="-20.53190994"><ele>64.7</ele><time>2012-07-27T14:10:43.0000000+00:00</time></trkpt><trkpt lat="63.88877487" lon="-20.53190994"><ele>64.7</ele><time>2012-07-27T14:10:48.0000000+00:00</time></trkpt><trkpt lat="63.88877487" lon="-20.53190994"><ele>64.7</ele><time>2012-07-27T14:10:53.0000000+00:00</time></trkpt><trkpt lat="63.88877487" lon="-20.53190994"><ele>64.7</ele><time>2012-07-27T14:10:58.0000000+00:00</time></trkpt><trkpt lat="63.88877487" lon="-20.53190994"><ele>64.7</ele><time>2012-07-27T14:11:03.0000000+00:00</time></trkpt><trkpt lat="63.88877487" lon="-20.53190994"><ele>64.7</ele><time>2012-07-27T14:11:08.0000000+00:00</time></trkpt><trkpt lat="63.88877487" lon="-20.53190994"><ele>64.7</ele><time>2012-07-27T14:11:13.0000000+00:00</time></trkpt><trkpt lat="63.88877487" lon="-20.53190994"><ele>64.8</ele><time>2012-07-27T14:11:18.0000000+00:00</time></trkpt><trkpt lat="63.88877487" lon="-20.53190994"><ele>64.8</ele><time>2012-07-27T14:11:23.0000000+00:00</time></trkpt><trkpt lat="63.88877487" lon="-20.53191185"><ele>64.8</ele><time>2012-07-27T14:11:28.0000000+00:00</time></trkpt><trkpt lat="63.88877487" lon="-20.53191185"><ele>64.8</ele><time>2012-07-27T14:11:33.0000000+00:00</time></trkpt><trkpt lat="63.88877487" lon="-20.53191185"><ele>64.8</ele><time>2012-07-27T14:11:38.0000000+00:00</time></trkpt><trkpt lat="63.88877487" lon="-20.53191185"><ele>64.8</ele><time>2012-07-27T14:11:43.0000000+00:00</time></trkpt><trkpt lat="63.88877487" lon="-20.53191185"><ele>64.8</ele><time>2012-07-27T14:11:48.0000000+00:00</time></trkpt><trkpt lat="63.88877487" lon="-20.53191185"><ele>64.8</ele><time>2012-07-27T14:11:53.0000000+00:00</time></trkpt><trkpt lat="63.88877487" lon="-20.53191185"><ele>64.8</ele><time>2012-07-27T14:11:58.0000000+00:00</time></trkpt><trkpt lat="63.88877487" lon="-20.53191185"><ele>64.8</ele><time>2012-07-27T14:12:03.0000000+00:00</time></trkpt><trkpt lat="63.88877487" lon="-20.53191185"><ele>64.8</ele><time>2012-07-27T14:12:08.0000000+00:00</time></trkpt><trkpt lat="63.88877487" lon="-20.53191185"><ele>64.8</ele><time>2012-07-27T14:12:13.0000000+00:00</time></trkpt><trkpt lat="63.88877487" lon="-20.53191185"><ele>64.8</ele><time>2012-07-27T14:12:18.0000000+00:00</time></trkpt><trkpt lat="63.88877487" lon="-20.53191376"><ele>64.8</ele><time>2012-07-27T14:12:23.0000000+00:00</time></trkpt><trkpt lat="63.88877487" lon="-20.53191376"><ele>64.9</ele><time>2012-07-27T14:12:28.0000000+00:00</time></trkpt><trkpt lat="63.88877487" lon="-20.53191376"><ele>64.9</ele><time>2012-07-27T14:12:33.0000000+00:00</time></trkpt><trkpt lat="63.88877487" lon="-20.53191376"><ele>64.9</ele><time>2012-07-27T14:12:38.0000000+00:00</time></trkpt><trkpt lat="63.88877487" lon="-20.53191376"><ele>64.9</ele><time>2012-07-27T14:12:43.0000000+00:00</time></trkpt><trkpt lat="63.88877487" lon="-20.53191376"><ele>64.9</ele><time>2012-07-27T14:12:48.0000000+00:00</time></trkpt><trkpt lat="63.88877487" lon="-20.53191376"><ele>64.9</ele><time>2012-07-27T14:12:53.0000000+00:00</time></trkpt><trkpt lat="63.88877487" lon="-20.53191376"><ele>64.9</ele><time>2012-07-27T14:12:58.0000000+00:00</time></trkpt><trkpt lat="63.88877487" lon="-20.53191376"><ele>64.9</ele><time>2012-07-27T14:13:03.0000000+00:00</time></trkpt><trkpt lat="63.88877487" lon="-20.53191376"><ele>64.9</ele><time>2012-07-27T14:13:08.0000000+00:00</time></trkpt><trkpt lat="63.88877487" lon="-20.53191376"><ele>64.9</ele><time>2012-07-27T14:13:13.0000000+00:00</time></trkpt><trkpt lat="63.88877487" lon="-20.53191376"><ele>64.9</ele><time>2012-07-27T14:13:18.0000000+00:00</time></trkpt><trkpt lat="63.88877487" lon="-20.53191376"><ele>64.9</ele><time>2012-07-27T14:13:23.0000000+00:00</time></trkpt><trkpt lat="63.88877487" lon="-20.53191376"><ele>64.9</ele><time>2012-07-27T14:13:28.0000000+00:00</time></trkpt><trkpt lat="63.88877487" lon="-20.53191376"><ele>64.9</ele><time>2012-07-27T14:13:33.0000000+00:00</time></trkpt><trkpt lat="63.88877487" lon="-20.53191376"><ele>64.9</ele><time>2012-07-27T14:13:38.0000000+00:00</time></trkpt><trkpt lat="63.88877487" lon="-20.53191567"><ele>64.9</ele><time>2012-07-27T14:13:43.0000000+00:00</time></trkpt><trkpt lat="63.88877487" lon="-20.53191567"><ele>64.9</ele><time>2012-07-27T14:13:48.0000000+00:00</time></trkpt><trkpt lat="63.88877487" lon="-20.53191567"><ele>64.9</ele><time>2012-07-27T14:13:53.0000000+00:00</time></trkpt><trkpt lat="63.88877487" lon="-20.53191567"><ele>64.9</ele><time>2012-07-27T14:13:58.0000000+00:00</time></trkpt><trkpt lat="63.88877487" lon="-20.53191567"><ele>64.9</ele><time>2012-07-27T14:14:03.0000000+00:00</time></trkpt><trkpt lat="63.88877487" lon="-20.53191567"><ele>64.9</ele><time>2012-07-27T14:14:08.0000000+00:00</time></trkpt><trkpt lat="63.88877487" lon="-20.53191567"><ele>64.9</ele><time>2012-07-27T14:14:13.0000000+00:00</time></trkpt><trkpt lat="63.88877487" lon="-20.53191567"><ele>64.9</ele><time>2012-07-27T14:14:18.0000000+00:00</time></trkpt><trkpt lat="63.88877487" lon="-20.53191567"><ele>64.9</ele><time>2012-07-27T14:14:23.0000000+00:00</time></trkpt><trkpt lat="63.88877869" lon="-20.53191567"><ele>64.9</ele><time>2012-07-27T14:14:28.0000000+00:00</time></trkpt><trkpt lat="63.88877869" lon="-20.53191567"><ele>64.9</ele><time>2012-07-27T14:14:33.0000000+00:00</time></trkpt><trkpt lat="63.88877869" lon="-20.53191567"><ele>65.0</ele><time>2012-07-27T14:14:38.0000000+00:00</time></trkpt><trkpt lat="63.88877869" lon="-20.53191567"><ele>65.0</ele><time>2012-07-27T14:14:43.0000000+00:00</time></trkpt><trkpt lat="63.88877869" lon="-20.53191567"><ele>65.0</ele><time>2012-07-27T14:14:48.0000000+00:00</time></trkpt><trkpt lat="63.88877869" lon="-20.53191567"><ele>65.0</ele><time>2012-07-27T14:14:53.0000000+00:00</time></trkpt><trkpt lat="63.88877869" lon="-20.53191567"><ele>65.0</ele><time>2012-07-27T14:14:58.0000000+00:00</time></trkpt><trkpt lat="63.88877869" lon="-20.53191567"><ele>65.0</ele><time>2012-07-27T14:15:03.0000000+00:00</time></trkpt><trkpt lat="63.88877869" lon="-20.53191757"><ele>65.0</ele><time>2012-07-27T14:15:08.0000000+00:00</time></trkpt><trkpt lat="63.88877869" lon="-20.53191757"><ele>65.0</ele><time>2012-07-27T14:15:13.0000000+00:00</time></trkpt><trkpt lat="63.88877869" lon="-20.53191757"><ele>65.0</ele><time>2012-07-27T14:15:18.0000000+00:00</time></trkpt><trkpt lat="63.88877869" lon="-20.53191757"><ele>65.0</ele><time>2012-07-27T14:15:23.0000000+00:00</time></trkpt><trkpt lat="63.88877869" lon="-20.53191757"><ele>65.0</ele><time>2012-07-27T14:15:28.0000000+00:00</time></trkpt><trkpt lat="63.88877869" lon="-20.53191757"><ele>65.0</ele><time>2012-07-27T14:15:33.0000000+00:00</time></trkpt><trkpt lat="63.88877869" lon="-20.53191757"><ele>65.0</ele><time>2012-07-27T14:15:38.0000000+00:00</time></trkpt><trkpt lat="63.88877869" lon="-20.53191757"><ele>65.0</ele><time>2012-07-27T14:15:43.0000000+00:00</time></trkpt><trkpt lat="63.88877869" lon="-20.53191757"><ele>65.0</ele><time>2012-07-27T14:15:48.0000000+00:00</time></trkpt><trkpt lat="63.88877869" lon="-20.53191757"><ele>65.1</ele><time>2012-07-27T14:15:53.0000000+00:00</time></trkpt><trkpt lat="63.88877869" lon="-20.53191757"><ele>65.1</ele><time>2012-07-27T14:15:58.0000000+00:00</time></trkpt><trkpt lat="63.88877869" lon="-20.53191757"><ele>65.1</ele><time>2012-07-27T14:16:03.0000000+00:00</time></trkpt><trkpt lat="63.88877869" lon="-20.53191757"><ele>65.1</ele><time>2012-07-27T14:16:08.0000000+00:00</time></trkpt><trkpt lat="63.88877869" lon="-20.53191757"><ele>65.1</ele><time>2012-07-27T14:16:13.0000000+00:00</time></trkpt><trkpt lat="63.88877869" lon="-20.53191757"><ele>65.1</ele><time>2012-07-27T14:16:18.0000000+00:00</time></trkpt><trkpt lat="63.88877869" lon="-20.53191757"><ele>65.1</ele><time>2012-07-27T14:16:23.0000000+00:00</time></trkpt><trkpt lat="63.88877869" lon="-20.53191757"><ele>65.1</ele><time>2012-07-27T14:16:28.0000000+00:00</time></trkpt><trkpt lat="63.88877869" lon="-20.53191757"><ele>65.1</ele><time>2012-07-27T14:16:33.0000000+00:00</time></trkpt><trkpt lat="63.88877869" lon="-20.53191757"><ele>65.1</ele><time>2012-07-27T14:16:38.0000000+00:00</time></trkpt><trkpt lat="63.88877869" lon="-20.53191757"><ele>65.1</ele><time>2012-07-27T14:16:43.0000000+00:00</time></trkpt><trkpt lat="63.88877869" lon="-20.53191948"><ele>65.1</ele><time>2012-07-27T14:16:48.0000000+00:00</time></trkpt><trkpt lat="63.88877869" lon="-20.53191948"><ele>65.1</ele><time>2012-07-27T14:16:53.0000000+00:00</time></trkpt><trkpt lat="63.88877869" lon="-20.53191948"><ele>65.1</ele><time>2012-07-27T14:16:58.0000000+00:00</time></trkpt><trkpt lat="63.88877869" lon="-20.53191948"><ele>65.2</ele><time>2012-07-27T14:17:03.0000000+00:00</time></trkpt><trkpt lat="63.88877869" lon="-20.53191948"><ele>65.2</ele><time>2012-07-27T14:17:08.0000000+00:00</time></trkpt><trkpt lat="63.88877869" lon="-20.53191948"><ele>65.2</ele><time>2012-07-27T14:17:13.0000000+00:00</time></trkpt><trkpt lat="63.88877869" lon="-20.53191948"><ele>65.2</ele><time>2012-07-27T14:17:18.0000000+00:00</time></trkpt><trkpt lat="63.88877869" lon="-20.53191948"><ele>65.2</ele><time>2012-07-27T14:17:23.0000000+00:00</time></trkpt><trkpt lat="63.88877869" lon="-20.53191948"><ele>65.2</ele><time>2012-07-27T14:17:28.0000000+00:00</time></trkpt><trkpt lat="63.88877869" lon="-20.53191948"><ele>65.2</ele><time>2012-07-27T14:17:33.0000000+00:00</time></trkpt><trkpt lat="63.88877869" lon="-20.53191948"><ele>65.2</ele><time>2012-07-27T14:17:38.0000000+00:00</time></trkpt><trkpt lat="63.88877869" lon="-20.53191948"><ele>65.3</ele><time>2012-07-27T14:17:43.0000000+00:00</time></trkpt><trkpt lat="63.88877869" lon="-20.53191948"><ele>65.3</ele><time>2012-07-27T14:17:48.0000000+00:00</time></trkpt><trkpt lat="63.88877869" lon="-20.53191948"><ele>65.3</ele><time>2012-07-27T14:17:53.0000000+00:00</time></trkpt><trkpt lat="63.88877869" lon="-20.53191948"><ele>65.3</ele><time>2012-07-27T14:17:58.0000000+00:00</time></trkpt><trkpt lat="63.88877869" lon="-20.53191948"><ele>65.3</ele><time>2012-07-27T14:18:03.0000000+00:00</time></trkpt><trkpt lat="63.88877869" lon="-20.53191948"><ele>65.3</ele><time>2012-07-27T14:18:08.0000000+00:00</time></trkpt><trkpt lat="63.88877869" lon="-20.53191948"><ele>65.3</ele><time>2012-07-27T14:18:13.0000000+00:00</time></trkpt><trkpt lat="63.88877869" lon="-20.53191948"><ele>65.3</ele><time>2012-07-27T14:18:18.0000000+00:00</time></trkpt><trkpt lat="63.88877869" lon="-20.53191948"><ele>65.3</ele><time>2012-07-27T14:18:23.0000000+00:00</time></trkpt><trkpt lat="63.88877869" lon="-20.53191948"><ele>65.3</ele><time>2012-07-27T14:18:28.0000000+00:00</time></trkpt><trkpt lat="63.88877869" lon="-20.53191948"><ele>65.3</ele><time>2012-07-27T14:18:33.0000000+00:00</time></trkpt><trkpt lat="63.88877869" lon="-20.53191948"><ele>65.3</ele><time>2012-07-27T14:18:38.0000000+00:00</time></trkpt><trkpt lat="63.88877869" lon="-20.53192139"><ele>65.4</ele><time>2012-07-27T14:18:43.0000000+00:00</time></trkpt><trkpt lat="63.88877869" lon="-20.53192139"><ele>65.4</ele><time>2012-07-27T14:18:48.0000000+00:00</time></trkpt><trkpt lat="63.88877869" lon="-20.53192139"><ele>65.4</ele><time>2012-07-27T14:18:53.0000000+00:00</time></trkpt><trkpt lat="63.88877869" lon="-20.53192139"><ele>65.4</ele><time>2012-07-27T14:18:58.0000000+00:00</time></trkpt><trkpt lat="63.88877869" lon="-20.53192139"><ele>65.4</ele><time>2012-07-27T14:19:03.0000000+00:00</time></trkpt><trkpt lat="63.88877869" lon="-20.53192139"><ele>65.4</ele><time>2012-07-27T14:19:08.0000000+00:00</time></trkpt><trkpt lat="63.88877869" lon="-20.53192139"><ele>65.4</ele><time>2012-07-27T14:19:13.0000000+00:00</time></trkpt><trkpt lat="63.88877869" lon="-20.53192139"><ele>65.4</ele><time>2012-07-27T14:19:18.0000000+00:00</time></trkpt><trkpt lat="63.8887825" lon="-20.53192139"><ele>65.4</ele><time>2012-07-27T14:19:23.0000000+00:00</time></trkpt><trkpt lat="63.8887825" lon="-20.53192139"><ele>65.4</ele><time>2012-07-27T14:19:28.0000000+00:00</time></trkpt><trkpt lat="63.8887825" lon="-20.53192139"><ele>65.4</ele><time>2012-07-27T14:19:33.0000000+00:00</time></trkpt><trkpt lat="63.8887825" lon="-20.53192139"><ele>65.4</ele><time>2012-07-27T14:19:38.0000000+00:00</time></trkpt><trkpt lat="63.8887825" lon="-20.53192329"><ele>65.4</ele><time>2012-07-27T14:19:43.0000000+00:00</time></trkpt><trkpt lat="63.8887825" lon="-20.53192329"><ele>65.4</ele><time>2012-07-27T14:19:48.0000000+00:00</time></trkpt><trkpt lat="63.8887825" lon="-20.53192329"><ele>65.4</ele><time>2012-07-27T14:19:53.0000000+00:00</time></trkpt><trkpt lat="63.8887825" lon="-20.53192329"><ele>65.5</ele><time>2012-07-27T14:19:58.0000000+00:00</time></trkpt><trkpt lat="63.8887825" lon="-20.53192329"><ele>65.5</ele><time>2012-07-27T14:20:03.0000000+00:00</time></trkpt><trkpt lat="63.8887825" lon="-20.53192329"><ele>65.5</ele><time>2012-07-27T14:20:08.0000000+00:00</time></trkpt><trkpt lat="63.8887825" lon="-20.53192329"><ele>65.5</ele><time>2012-07-27T14:20:13.0000000+00:00</time></trkpt><trkpt lat="63.8887825" lon="-20.53192329"><ele>65.5</ele><time>2012-07-27T14:20:18.0000000+00:00</time></trkpt><trkpt lat="63.8887825" lon="-20.5319252"><ele>65.5</ele><time>2012-07-27T14:20:23.0000000+00:00</time></trkpt><trkpt lat="63.8887825" lon="-20.5319252"><ele>65.5</ele><time>2012-07-27T14:20:28.0000000+00:00</time></trkpt><trkpt lat="63.8887825" lon="-20.5319252"><ele>65.5</ele><time>2012-07-27T14:20:33.0000000+00:00</time></trkpt><trkpt lat="63.8887825" lon="-20.5319252"><ele>65.5</ele><time>2012-07-27T14:20:38.0000000+00:00</time></trkpt><trkpt lat="63.8887825" lon="-20.5319252"><ele>65.5</ele><time>2012-07-27T14:20:43.0000000+00:00</time></trkpt><trkpt lat="63.8887825" lon="-20.5319252"><ele>65.5</ele><time>2012-07-27T14:20:48.0000000+00:00</time></trkpt><trkpt lat="63.8887825" lon="-20.5319252"><ele>65.5</ele><time>2012-07-27T14:20:53.0000000+00:00</time></trkpt><trkpt lat="63.8887825" lon="-20.5319252"><ele>65.5</ele><time>2012-07-27T14:20:58.0000000+00:00</time></trkpt><trkpt lat="63.8887825" lon="-20.5319252"><ele>65.5</ele><time>2012-07-27T14:21:03.0000000+00:00</time></trkpt><trkpt lat="63.8887825" lon="-20.5319252"><ele>65.5</ele><time>2012-07-27T14:21:08.0000000+00:00</time></trkpt><trkpt lat="63.8887825" lon="-20.5319252"><ele>65.5</ele><time>2012-07-27T14:21:13.0000000+00:00</time></trkpt><trkpt lat="63.8887825" lon="-20.5319252"><ele>65.5</ele><time>2012-07-27T14:21:18.0000000+00:00</time></trkpt><trkpt lat="63.8887825" lon="-20.5319252"><ele>65.5</ele><time>2012-07-27T14:21:23.0000000+00:00</time></trkpt><trkpt lat="63.8887825" lon="-20.5319252"><ele>65.5</ele><time>2012-07-27T14:21:28.0000000+00:00</time></trkpt><trkpt lat="63.8887825" lon="-20.5319252"><ele>65.5</ele><time>2012-07-27T14:21:33.0000000+00:00</time></trkpt><trkpt lat="63.8887825" lon="-20.5319252"><ele>65.5</ele><time>2012-07-27T14:21:38.0000000+00:00</time></trkpt><trkpt lat="63.8887825" lon="-20.5319252"><ele>65.5</ele><time>2012-07-27T14:21:43.0000000+00:00</time></trkpt><trkpt lat="63.8887825" lon="-20.53192902"><ele>65.5</ele><time>2012-07-27T14:21:48.0000000+00:00</time></trkpt><trkpt lat="63.88876724" lon="-20.53195381"><ele>65.3</ele><time>2012-07-27T14:21:53.0000000+00:00</time></trkpt><trkpt lat="63.8887558" lon="-20.53191948"><ele>65.5</ele><time>2012-07-27T14:21:58.0000000+00:00</time></trkpt><trkpt lat="63.88875198" lon="-20.53191757"><ele>65.0</ele><time>2012-07-27T14:22:03.0000000+00:00</time></trkpt><trkpt lat="63.88875198" lon="-20.53191757"><ele>64.9</ele><time>2012-07-27T14:22:08.0000000+00:00</time></trkpt><trkpt lat="63.88875198" lon="-20.53191757"><ele>64.8</ele><time>2012-07-27T14:22:13.0000000+00:00</time></trkpt><trkpt lat="63.88875198" lon="-20.53191757"><ele>64.8</ele><time>2012-07-27T14:22:18.0000000+00:00</time></trkpt><trkpt lat="63.88875198" lon="-20.53191757"><ele>64.8</ele><time>2012-07-27T14:22:23.0000000+00:00</time></trkpt><trkpt lat="63.88875198" lon="-20.53191757"><ele>64.8</ele><time>2012-07-27T14:22:28.0000000+00:00</time></trkpt><trkpt lat="63.88875198" lon="-20.53191757"><ele>64.8</ele><time>2012-07-27T14:22:33.0000000+00:00</time></trkpt><trkpt lat="63.88875198" lon="-20.53191757"><ele>64.8</ele><time>2012-07-27T14:22:38.0000000+00:00</time></trkpt><trkpt lat="63.88875198" lon="-20.53191757"><ele>64.8</ele><time>2012-07-27T14:22:43.0000000+00:00</time></trkpt><trkpt lat="63.88875198" lon="-20.53191757"><ele>64.8</ele><time>2012-07-27T14:22:48.0000000+00:00</time></trkpt><trkpt lat="63.88874817" lon="-20.53191757"><ele>64.8</ele><time>2012-07-27T14:22:53.0000000+00:00</time></trkpt><trkpt lat="63.88874817" lon="-20.53191757"><ele>64.7</ele><time>2012-07-27T14:22:58.0000000+00:00</time></trkpt><trkpt lat="63.88874817" lon="-20.53191948"><ele>64.7</ele><time>2012-07-27T14:23:03.0000000+00:00</time></trkpt><trkpt lat="63.88874817" lon="-20.53191948"><ele>64.7</ele><time>2012-07-27T14:23:08.0000000+00:00</time></trkpt><trkpt lat="63.88874817" lon="-20.53191948"><ele>64.7</ele><time>2012-07-27T14:23:13.0000000+00:00</time></trkpt><trkpt lat="63.88874817" lon="-20.53191948"><ele>64.7</ele><time>2012-07-27T14:23:18.0000000+00:00</time></trkpt><trkpt lat="63.88874817" lon="-20.53191948"><ele>64.7</ele><time>2012-07-27T14:23:23.0000000+00:00</time></trkpt><trkpt lat="63.88874817" lon="-20.53191948"><ele>64.7</ele><time>2012-07-27T14:23:28.0000000+00:00</time></trkpt><trkpt lat="63.88874817" lon="-20.53192329"><ele>64.8</ele><time>2012-07-27T14:23:33.0000000+00:00</time></trkpt><trkpt lat="63.88874817" lon="-20.53192329"><ele>64.8</ele><time>2012-07-27T14:23:38.0000000+00:00</time></trkpt><trkpt lat="63.88874817" lon="-20.53192329"><ele>64.8</ele><time>2012-07-27T14:23:43.0000000+00:00</time></trkpt><trkpt lat="63.88874817" lon="-20.53192329"><ele>64.8</ele><time>2012-07-27T14:23:48.0000000+00:00</time></trkpt><trkpt lat="63.88874817" lon="-20.53192329"><ele>64.8</ele><time>2012-07-27T14:23:53.0000000+00:00</time></trkpt><trkpt lat="63.88874817" lon="-20.5319252"><ele>64.8</ele><time>2012-07-27T14:23:58.0000000+00:00</time></trkpt><trkpt lat="63.88874817" lon="-20.53192329"><ele>64.8</ele><time>2012-07-27T14:24:03.0000000+00:00</time></trkpt><trkpt lat="63.88874817" lon="-20.53192711"><ele>64.9</ele><time>2012-07-27T14:24:08.0000000+00:00</time></trkpt><trkpt lat="63.88874817" lon="-20.53192329"><ele>65.0</ele><time>2012-07-27T14:24:13.0000000+00:00</time></trkpt><trkpt lat="63.88874817" lon="-20.53192329"><ele>65.0</ele><time>2012-07-27T14:24:18.0000000+00:00</time></trkpt><trkpt lat="63.88874817" lon="-20.5319252"><ele>65.0</ele><time>2012-07-27T14:24:23.0000000+00:00</time></trkpt><trkpt lat="63.88874817" lon="-20.5319252"><ele>65.0</ele><time>2012-07-27T14:24:28.0000000+00:00</time></trkpt><trkpt lat="63.88874817" lon="-20.5319252"><ele>65.0</ele><time>2012-07-27T14:24:33.0000000+00:00</time></trkpt><trkpt lat="63.88874435" lon="-20.53192711"><ele>65.0</ele><time>2012-07-27T14:24:38.0000000+00:00</time></trkpt><trkpt lat="63.88875198" lon="-20.53209114"><ele>65.0</ele><time>2012-07-27T14:24:43.0000000+00:00</time></trkpt><trkpt lat="63.88877106" lon="-20.53228951"><ele>64.0</ele><time>2012-07-27T14:24:48.0000000+00:00</time></trkpt><trkpt lat="63.88881683" lon="-20.53249359"><ele>63.9</ele><time>2012-07-27T14:24:53.0000000+00:00</time></trkpt><trkpt lat="63.88887024" lon="-20.53273773"><ele>63.5</ele><time>2012-07-27T14:24:58.0000000+00:00</time></trkpt><trkpt lat="63.88895035" lon="-20.53303337"><ele>63.8</ele><time>2012-07-27T14:25:03.0000000+00:00</time></trkpt><trkpt lat="63.88901901" lon="-20.53331375"><ele>64.4</ele><time>2012-07-27T14:25:08.0000000+00:00</time></trkpt><trkpt lat="63.88909912" lon="-20.53364182"><ele>64.5</ele><time>2012-07-27T14:25:13.0000000+00:00</time></trkpt><trkpt lat="63.88918686" lon="-20.53397369"><ele>64.6</ele><time>2012-07-27T14:25:18.0000000+00:00</time></trkpt><trkpt lat="63.88928223" lon="-20.53433228"><ele>64.6</ele><time>2012-07-27T14:25:23.0000000+00:00</time></trkpt><trkpt lat="63.88936615" lon="-20.53470421"><ele>64.5</ele><time>2012-07-27T14:25:28.0000000+00:00</time></trkpt><trkpt lat="63.8894577" lon="-20.53507233"><ele>64.8</ele><time>2012-07-27T14:25:33.0000000+00:00</time></trkpt><trkpt lat="63.88953781" lon="-20.53540993"><ele>64.8</ele><time>2012-07-27T14:25:38.0000000+00:00</time></trkpt><trkpt lat="63.88962555" lon="-20.53579712"><ele>64.7</ele><time>2012-07-27T14:25:43.0000000+00:00</time></trkpt><trkpt lat="63.88970566" lon="-20.53613854"><ele>64.8</ele><time>2012-07-27T14:25:48.0000000+00:00</time></trkpt><trkpt lat="63.88976669" lon="-20.53642654"><ele>64.4</ele><time>2012-07-27T14:25:53.0000000+00:00</time></trkpt><trkpt lat="63.88983917" lon="-20.53673554"><ele>64.1</ele><time>2012-07-27T14:25:58.0000000+00:00</time></trkpt><trkpt lat="63.88991547" lon="-20.53710938"><ele>64.3</ele><time>2012-07-27T14:26:03.0000000+00:00</time></trkpt><trkpt lat="63.8900032" lon="-20.53753853"><ele>64.1</ele><time>2012-07-27T14:26:08.0000000+00:00</time></trkpt><trkpt lat="63.89009094" lon="-20.53794479"><ele>63.7</ele><time>2012-07-27T14:26:13.0000000+00:00</time></trkpt><trkpt lat="63.89016724" lon="-20.53831673"><ele>63.7</ele><time>2012-07-27T14:26:18.0000000+00:00</time></trkpt><trkpt lat="63.89022827" lon="-20.53865051"><ele>63.2</ele><time>2012-07-27T14:26:23.0000000+00:00</time></trkpt><trkpt lat="63.89030457" lon="-20.53904724"><ele>62.6</ele><time>2012-07-27T14:26:28.0000000+00:00</time></trkpt><trkpt lat="63.89038086" lon="-20.53945351"><ele>61.9</ele><time>2012-07-27T14:26:33.0000000+00:00</time></trkpt><trkpt lat="63.89045715" lon="-20.53991509"><ele>60.0</ele><time>2012-07-27T14:26:38.0000000+00:00</time></trkpt><trkpt lat="63.89053345" lon="-20.54039574"><ele>58.7</ele><time>2012-07-27T14:26:43.0000000+00:00</time></trkpt><trkpt lat="63.89060593" lon="-20.54091454"><ele>57.9</ele><time>2012-07-27T14:26:48.0000000+00:00</time></trkpt><trkpt lat="63.89070129" lon="-20.54148865"><ele>58.8</ele><time>2012-07-27T14:26:53.0000000+00:00</time></trkpt><trkpt lat="63.89078522" lon="-20.54209137"><ele>55.6</ele><time>2012-07-27T14:26:58.0000000+00:00</time></trkpt><trkpt lat="63.89087296" lon="-20.54275322"><ele>54.0</ele><time>2012-07-27T14:27:03.0000000+00:00</time></trkpt><trkpt lat="63.89099121" lon="-20.5435009"><ele>53.1</ele><time>2012-07-27T14:27:08.0000000+00:00</time></trkpt><trkpt lat="63.89110565" lon="-20.54433441"><ele>51.0</ele><time>2012-07-27T14:27:13.0000000+00:00</time></trkpt><trkpt lat="63.89122772" lon="-20.54521942"><ele>49.3</ele><time>2012-07-27T14:27:18.0000000+00:00</time></trkpt><trkpt lat="63.89135361" lon="-20.54611397"><ele>48.0</ele><time>2012-07-27T14:27:23.0000000+00:00</time></trkpt><trkpt lat="63.89148331" lon="-20.54700279"><ele>46.6</ele><time>2012-07-27T14:27:28.0000000+00:00</time></trkpt><trkpt lat="63.89161682" lon="-20.54787636"><ele>45.4</ele><time>2012-07-27T14:27:33.0000000+00:00</time></trkpt><trkpt lat="63.89173508" lon="-20.54868317"><ele>43.6</ele><time>2012-07-27T14:27:38.0000000+00:00</time></trkpt><trkpt lat="63.89184952" lon="-20.54943466"><ele>41.8</ele><time>2012-07-27T14:27:43.0000000+00:00</time></trkpt><trkpt lat="63.89196777" lon="-20.55013847"><ele>40.2</ele><time>2012-07-27T14:27:48.0000000+00:00</time></trkpt><trkpt lat="63.89209366" lon="-20.55080605"><ele>39.4</ele><time>2012-07-27T14:27:53.0000000+00:00</time></trkpt><trkpt lat="63.89222336" lon="-20.55150032"><ele>38.4</ele><time>2012-07-27T14:27:58.0000000+00:00</time></trkpt><trkpt lat="63.89236832" lon="-20.55223656"><ele>36.4</ele><time>2012-07-27T14:28:03.0000000+00:00</time></trkpt><trkpt lat="63.89252472" lon="-20.55297852"><ele>34.7</ele><time>2012-07-27T14:28:08.0000000+00:00</time></trkpt><trkpt lat="63.89267349" lon="-20.55372238"><ele>33.1</ele><time>2012-07-27T14:28:13.0000000+00:00</time></trkpt><trkpt lat="63.89282608" lon="-20.55445671"><ele>31.5</ele><time>2012-07-27T14:28:18.0000000+00:00</time></trkpt><trkpt lat="63.89297867" lon="-20.55517387"><ele>29.8</ele><time>2012-07-27T14:28:23.0000000+00:00</time></trkpt><trkpt lat="63.89313889" lon="-20.55586052"><ele>29.7</ele><time>2012-07-27T14:28:28.0000000+00:00</time></trkpt><trkpt lat="63.8932991" lon="-20.55654526"><ele>29.3</ele><time>2012-07-27T14:28:33.0000000+00:00</time></trkpt><trkpt lat="63.89344788" lon="-20.55719948"><ele>29.1</ele><time>2012-07-27T14:28:38.0000000+00:00</time></trkpt><trkpt lat="63.89359283" lon="-20.55780602"><ele>29.2</ele><time>2012-07-27T14:28:43.0000000+00:00</time></trkpt><trkpt lat="63.89372253" lon="-20.55838203"><ele>29.0</ele><time>2012-07-27T14:28:48.0000000+00:00</time></trkpt><trkpt lat="63.89383698" lon="-20.55886078"><ele>29.5</ele><time>2012-07-27T14:28:53.0000000+00:00</time></trkpt><trkpt lat="63.89392853" lon="-20.55927467"><ele>29.7</ele><time>2012-07-27T14:28:58.0000000+00:00</time></trkpt><trkpt lat="63.89401627" lon="-20.5596199"><ele>29.4</ele><time>2012-07-27T14:29:03.0000000+00:00</time></trkpt><trkpt lat="63.89408875" lon="-20.5599556"><ele>29.9</ele><time>2012-07-27T14:29:08.0000000+00:00</time></trkpt><trkpt lat="63.8941536" lon="-20.5602417"><ele>29.6</ele><time>2012-07-27T14:29:13.0000000+00:00</time></trkpt><trkpt lat="63.89421082" lon="-20.56053162"><ele>29.3</ele><time>2012-07-27T14:29:18.0000000+00:00</time></trkpt><trkpt lat="63.89428711" lon="-20.56084633"><ele>28.8</ele><time>2012-07-27T14:29:23.0000000+00:00</time></trkpt><trkpt lat="63.89435196" lon="-20.56111908"><ele>28.2</ele><time>2012-07-27T14:29:28.0000000+00:00</time></trkpt><trkpt lat="63.89441299" lon="-20.5613842"><ele>28.2</ele><time>2012-07-27T14:29:33.0000000+00:00</time></trkpt><trkpt lat="63.8944664" lon="-20.56165314"><ele>27.9</ele><time>2012-07-27T14:29:38.0000000+00:00</time></trkpt><trkpt lat="63.89452362" lon="-20.56188965"><ele>28.1</ele><time>2012-07-27T14:29:43.0000000+00:00</time></trkpt><trkpt lat="63.89458847" lon="-20.56217575"><ele>28.1</ele><time>2012-07-27T14:29:48.0000000+00:00</time></trkpt><trkpt lat="63.89467239" lon="-20.56254005"><ele>28.4</ele><time>2012-07-27T14:29:53.0000000+00:00</time></trkpt><trkpt lat="63.89476013" lon="-20.56293488"><ele>28.6</ele><time>2012-07-27T14:29:58.0000000+00:00</time></trkpt><trkpt lat="63.89484024" lon="-20.56328011"><ele>29.1</ele><time>2012-07-27T14:30:03.0000000+00:00</time></trkpt><trkpt lat="63.89491653" lon="-20.56363678"><ele>29.1</ele><time>2012-07-27T14:30:08.0000000+00:00</time></trkpt><trkpt lat="63.89499664" lon="-20.5639801"><ele>28.7</ele><time>2012-07-27T14:30:13.0000000+00:00</time></trkpt><trkpt lat="63.89508438" lon="-20.56433678"><ele>28.3</ele><time>2012-07-27T14:30:18.0000000+00:00</time></trkpt><trkpt lat="63.89514923" lon="-20.56468582"><ele>27.3</ele><time>2012-07-27T14:30:23.0000000+00:00</time></trkpt><trkpt lat="63.89522171" lon="-20.5650444"><ele>28.2</ele><time>2012-07-27T14:30:28.0000000+00:00</time></trkpt><trkpt lat="63.89532471" lon="-20.5654335"><ele>27.9</ele><time>2012-07-27T14:30:33.0000000+00:00</time></trkpt><trkpt lat="63.89542389" lon="-20.56585693"><ele>28.2</ele><time>2012-07-27T14:30:38.0000000+00:00</time></trkpt><trkpt lat="63.89551163" lon="-20.5662365"><ele>28.1</ele><time>2012-07-27T14:30:43.0000000+00:00</time></trkpt><trkpt lat="63.89559174" lon="-20.56659889"><ele>27.6</ele><time>2012-07-27T14:30:48.0000000+00:00</time></trkpt><trkpt lat="63.8956871" lon="-20.56698608"><ele>27.5</ele><time>2012-07-27T14:30:53.0000000+00:00</time></trkpt><trkpt lat="63.89577866" lon="-20.56740761"><ele>27.2</ele><time>2012-07-27T14:30:58.0000000+00:00</time></trkpt><trkpt lat="63.89587021" lon="-20.56782532"><ele>27.1</ele><time>2012-07-27T14:31:03.0000000+00:00</time></trkpt><trkpt lat="63.89595795" lon="-20.56819534"><ele>27.3</ele><time>2012-07-27T14:31:08.0000000+00:00</time></trkpt><trkpt lat="63.89603424" lon="-20.56853676"><ele>26.7</ele><time>2012-07-27T14:31:13.0000000+00:00</time></trkpt><trkpt lat="63.89611054" lon="-20.56886673"><ele>25.5</ele><time>2012-07-27T14:31:18.0000000+00:00</time></trkpt><trkpt lat="63.89618683" lon="-20.56919861"><ele>25.0</ele><time>2012-07-27T14:31:23.0000000+00:00</time></trkpt><trkpt lat="63.89625549" lon="-20.56952667"><ele>24.3</ele><time>2012-07-27T14:31:28.0000000+00:00</time></trkpt><trkpt lat="63.89632797" lon="-20.56983948"><ele>24.3</ele><time>2012-07-27T14:31:33.0000000+00:00</time></trkpt><trkpt lat="63.8964119" lon="-20.57022476"><ele>24.2</ele><time>2012-07-27T14:31:38.0000000+00:00</time></trkpt><trkpt lat="63.89651871" lon="-20.57068062"><ele>23.6</ele><time>2012-07-27T14:31:43.0000000+00:00</time></trkpt><trkpt lat="63.89662552" lon="-20.57115746"><ele>22.8</ele><time>2012-07-27T14:31:48.0000000+00:00</time></trkpt><trkpt lat="63.89674759" lon="-20.57168007"><ele>22.1</ele><time>2012-07-27T14:31:53.0000000+00:00</time></trkpt><trkpt lat="63.89686966" lon="-20.57223129"><ele>21.6</ele><time>2012-07-27T14:31:58.0000000+00:00</time></trkpt><trkpt lat="63.89699936" lon="-20.57278633"><ele>20.6</ele><time>2012-07-27T14:32:03.0000000+00:00</time></trkpt><trkpt lat="63.89712524" lon="-20.57332993"><ele>20.4</ele><time>2012-07-27T14:32:08.0000000+00:00</time></trkpt><trkpt lat="63.89725494" lon="-20.57387543"><ele>19.7</ele><time>2012-07-27T14:32:13.0000000+00:00</time></trkpt><trkpt lat="63.89737701" lon="-20.57441521"><ele>19.8</ele><time>2012-07-27T14:32:18.0000000+00:00</time></trkpt><trkpt lat="63.8975029" lon="-20.57494354"><ele>19.4</ele><time>2012-07-27T14:32:23.0000000+00:00</time></trkpt><trkpt lat="63.89762116" lon="-20.57547188"><ele>19.5</ele><time>2012-07-27T14:32:28.0000000+00:00</time></trkpt><trkpt lat="63.8977356" lon="-20.57599068"><ele>19.0</ele><time>2012-07-27T14:32:33.0000000+00:00</time></trkpt><trkpt lat="63.8978653" lon="-20.57654762"><ele>18.6</ele><time>2012-07-27T14:32:38.0000000+00:00</time></trkpt><trkpt lat="63.897995" lon="-20.57710838"><ele>18.3</ele><time>2012-07-27T14:32:43.0000000+00:00</time></trkpt><trkpt lat="63.89810562" lon="-20.57762528"><ele>17.8</ele><time>2012-07-27T14:32:48.0000000+00:00</time></trkpt><trkpt lat="63.89819717" lon="-20.57809067"><ele>17.9</ele><time>2012-07-27T14:32:53.0000000+00:00</time></trkpt><trkpt lat="63.8982811" lon="-20.57852173"><ele>18.2</ele><time>2012-07-27T14:32:58.0000000+00:00</time></trkpt><trkpt lat="63.89837647" lon="-20.5789566"><ele>17.9</ele><time>2012-07-27T14:33:03.0000000+00:00</time></trkpt><trkpt lat="63.89848328" lon="-20.57940292"><ele>18.3</ele><time>2012-07-27T14:33:08.0000000+00:00</time></trkpt><trkpt lat="63.89857864" lon="-20.57984543"><ele>18.7</ele><time>2012-07-27T14:33:13.0000000+00:00</time></trkpt><trkpt lat="63.89867401" lon="-20.58029366"><ele>19.3</ele><time>2012-07-27T14:33:18.0000000+00:00</time></trkpt><trkpt lat="63.89878464" lon="-20.58070183"><ele>19.2</ele><time>2012-07-27T14:33:23.0000000+00:00</time></trkpt><trkpt lat="63.89887619" lon="-20.58107376"><ele>19.2</ele><time>2012-07-27T14:33:28.0000000+00:00</time></trkpt><trkpt lat="63.89896011" lon="-20.58140755"><ele>19.1</ele><time>2012-07-27T14:33:33.0000000+00:00</time></trkpt><trkpt lat="63.89902496" lon="-20.58172607"><ele>19.3</ele><time>2012-07-27T14:33:38.0000000+00:00</time></trkpt><trkpt lat="63.89911652" lon="-20.58207321"><ele>19.5</ele><time>2012-07-27T14:33:43.0000000+00:00</time></trkpt><trkpt lat="63.89918137" lon="-20.58237648"><ele>19.9</ele><time>2012-07-27T14:33:48.0000000+00:00</time></trkpt><trkpt lat="63.89925385" lon="-20.58269501"><ele>19.9</ele><time>2012-07-27T14:33:53.0000000+00:00</time></trkpt><trkpt lat="63.89932251" lon="-20.58301735"><ele>20.4</ele><time>2012-07-27T14:33:58.0000000+00:00</time></trkpt><trkpt lat="63.89939499" lon="-20.58333015"><ele>20.8</ele><time>2012-07-27T14:34:03.0000000+00:00</time></trkpt><trkpt lat="63.89946365" lon="-20.58362579"><ele>20.4</ele><time>2012-07-27T14:34:08.0000000+00:00</time></trkpt><trkpt lat="63.89953995" lon="-20.5839119"><ele>20.5</ele><time>2012-07-27T14:34:13.0000000+00:00</time></trkpt><trkpt lat="63.89959717" lon="-20.58421326"><ele>20.9</ele><time>2012-07-27T14:34:18.0000000+00:00</time></trkpt><trkpt lat="63.8996582" lon="-20.58451462"><ele>21.7</ele><time>2012-07-27T14:34:23.0000000+00:00</time></trkpt><trkpt lat="63.8997345" lon="-20.58481598"><ele>21.8</ele><time>2012-07-27T14:34:28.0000000+00:00</time></trkpt><trkpt lat="63.89980698" lon="-20.58510971"><ele>22.5</ele><time>2012-07-27T14:34:33.0000000+00:00</time></trkpt><trkpt lat="63.89987946" lon="-20.58540344"><ele>22.6</ele><time>2012-07-27T14:34:38.0000000+00:00</time></trkpt><trkpt lat="63.89995194" lon="-20.58571243"><ele>22.7</ele><time>2012-07-27T14:34:43.0000000+00:00</time></trkpt><trkpt lat="63.90002441" lon="-20.58600426"><ele>22.8</ele><time>2012-07-27T14:34:48.0000000+00:00</time></trkpt><trkpt lat="63.90010834" lon="-20.58632851"><ele>23.2</ele><time>2012-07-27T14:34:53.0000000+00:00</time></trkpt><trkpt lat="63.90019608" lon="-20.58661652"><ele>23.7</ele><time>2012-07-27T14:34:58.0000000+00:00</time></trkpt><trkpt lat="63.90029144" lon="-20.58691406"><ele>24.0</ele><time>2012-07-27T14:35:03.0000000+00:00</time></trkpt><trkpt lat="63.90039444" lon="-20.58717537"><ele>23.9</ele><time>2012-07-27T14:35:08.0000000+00:00</time></trkpt><trkpt lat="63.90049362" lon="-20.58743477"><ele>24.1</ele><time>2012-07-27T14:35:13.0000000+00:00</time></trkpt><trkpt lat="63.90061188" lon="-20.587677"><ele>24.7</ele><time>2012-07-27T14:35:18.0000000+00:00</time></trkpt><trkpt lat="63.9007225" lon="-20.58790779"><ele>24.3</ele><time>2012-07-27T14:35:23.0000000+00:00</time></trkpt><trkpt lat="63.90083695" lon="-20.58813095"><ele>24.1</ele><time>2012-07-27T14:35:28.0000000+00:00</time></trkpt><trkpt lat="63.9009552" lon="-20.58832932"><ele>23.3</ele><time>2012-07-27T14:35:33.0000000+00:00</time></trkpt><trkpt lat="63.90108872" lon="-20.58851433"><ele>22.7</ele><time>2012-07-27T14:35:38.0000000+00:00</time></trkpt><trkpt lat="63.90120316" lon="-20.58869362"><ele>22.2</ele><time>2012-07-27T14:35:43.0000000+00:00</time></trkpt><trkpt lat="63.90131378" lon="-20.58885002"><ele>22.2</ele><time>2012-07-27T14:35:48.0000000+00:00</time></trkpt><trkpt lat="63.90142441" lon="-20.58899307"><ele>22.8</ele><time>2012-07-27T14:35:53.0000000+00:00</time></trkpt><trkpt lat="63.90152359" lon="-20.58910561"><ele>22.6</ele><time>2012-07-27T14:35:58.0000000+00:00</time></trkpt><trkpt lat="63.90162277" lon="-20.58920097"><ele>22.8</ele><time>2012-07-27T14:36:03.0000000+00:00</time></trkpt><trkpt lat="63.90171814" lon="-20.58928108"><ele>23.5</ele><time>2012-07-27T14:36:08.0000000+00:00</time></trkpt><trkpt lat="63.90180588" lon="-20.58935547"><ele>24.4</ele><time>2012-07-27T14:36:13.0000000+00:00</time></trkpt><trkpt lat="63.9018898" lon="-20.58942604"><ele>25.1</ele><time>2012-07-27T14:36:18.0000000+00:00</time></trkpt><trkpt lat="63.90198135" lon="-20.58947754"><ele>25.9</ele><time>2012-07-27T14:36:23.0000000+00:00</time></trkpt><trkpt lat="63.90206146" lon="-20.58951759"><ele>26.3</ele><time>2012-07-27T14:36:28.0000000+00:00</time></trkpt><trkpt lat="63.90208435" lon="-20.58953857"><ele>25.6</ele><time>2012-07-27T14:36:33.0000000+00:00</time></trkpt><trkpt lat="63.90208435" lon="-20.58954048"><ele>25.5</ele><time>2012-07-27T14:36:38.0000000+00:00</time></trkpt><trkpt lat="63.90208435" lon="-20.58954239"><ele>25.4</ele><time>2012-07-27T14:36:43.0000000+00:00</time></trkpt><trkpt lat="63.90208817" lon="-20.58954811"><ele>25.5</ele><time>2012-07-27T14:36:48.0000000+00:00</time></trkpt><trkpt lat="63.90208817" lon="-20.5895462"><ele>25.7</ele><time>2012-07-27T14:36:53.0000000+00:00</time></trkpt><trkpt lat="63.90208817" lon="-20.5895462"><ele>25.7</ele><time>2012-07-27T14:36:58.0000000+00:00</time></trkpt><trkpt lat="63.90208817" lon="-20.5895462"><ele>25.7</ele><time>2012-07-27T14:37:03.0000000+00:00</time></trkpt><trkpt lat="63.90208817" lon="-20.5895462"><ele>25.8</ele><time>2012-07-27T14:37:08.0000000+00:00</time></trkpt><trkpt lat="63.90208817" lon="-20.5895462"><ele>25.8</ele><time>2012-07-27T14:37:13.0000000+00:00</time></trkpt><trkpt lat="63.90208435" lon="-20.58954048"><ele>25.9</ele><time>2012-07-27T14:37:18.0000000+00:00</time></trkpt><trkpt lat="63.90210342" lon="-20.58954048"><ele>26.2</ele><time>2012-07-27T14:37:23.0000000+00:00</time></trkpt><trkpt lat="63.90211487" lon="-20.58954239"><ele>26.0</ele><time>2012-07-27T14:37:28.0000000+00:00</time></trkpt><trkpt lat="63.9021225" lon="-20.58955002"><ele>25.7</ele><time>2012-07-27T14:37:33.0000000+00:00</time></trkpt><trkpt lat="63.90213013" lon="-20.58958244"><ele>25.6</ele><time>2012-07-27T14:37:38.0000000+00:00</time></trkpt><trkpt lat="63.90213013" lon="-20.58958244"><ele>25.6</ele><time>2012-07-27T14:37:43.0000000+00:00</time></trkpt><trkpt lat="63.90213013" lon="-20.58958435"><ele>25.3</ele><time>2012-07-27T14:37:48.0000000+00:00</time></trkpt><trkpt lat="63.9021759" lon="-20.58959198"><ele>25.1</ele><time>2012-07-27T14:37:53.0000000+00:00</time></trkpt><trkpt lat="63.9022789" lon="-20.58963585"><ele>28.1</ele><time>2012-07-27T14:37:58.0000000+00:00</time></trkpt><trkpt lat="63.90238571" lon="-20.58968926"><ele>29.1</ele><time>2012-07-27T14:38:03.0000000+00:00</time></trkpt><trkpt lat="63.90250015" lon="-20.58973122"><ele>29.1</ele><time>2012-07-27T14:38:08.0000000+00:00</time></trkpt><trkpt lat="63.90259552" lon="-20.58975792"><ele>29.6</ele><time>2012-07-27T14:38:13.0000000+00:00</time></trkpt><trkpt lat="63.90267563" lon="-20.58977699"><ele>30.2</ele><time>2012-07-27T14:38:18.0000000+00:00</time></trkpt><trkpt lat="63.90273666" lon="-20.58977699"><ele>37.3</ele><time>2012-07-27T14:38:23.0000000+00:00</time></trkpt><trkpt lat="63.90280914" lon="-20.58982468"><ele>35.7</ele><time>2012-07-27T14:38:28.0000000+00:00</time></trkpt><trkpt lat="63.90287781" lon="-20.58985901"><ele>36.6</ele><time>2012-07-27T14:38:33.0000000+00:00</time></trkpt><trkpt lat="63.90293884" lon="-20.58986664"><ele>37.2</ele><time>2012-07-27T14:38:38.0000000+00:00</time></trkpt><trkpt lat="63.90301132" lon="-20.5898838"><ele>37.0</ele><time>2012-07-27T14:38:43.0000000+00:00</time></trkpt><trkpt lat="63.90307617" lon="-20.58991814"><ele>36.7</ele><time>2012-07-27T14:38:48.0000000+00:00</time></trkpt><trkpt lat="63.90315247" lon="-20.58993721"><ele>36.9</ele><time>2012-07-27T14:38:53.0000000+00:00</time></trkpt><trkpt lat="63.90322113" lon="-20.58995056"><ele>37.0</ele><time>2012-07-27T14:38:58.0000000+00:00</time></trkpt><trkpt lat="63.90328217" lon="-20.58997154"><ele>38.1</ele><time>2012-07-27T14:39:03.0000000+00:00</time></trkpt><trkpt lat="63.90334702" lon="-20.58999443"><ele>37.9</ele><time>2012-07-27T14:39:08.0000000+00:00</time></trkpt><trkpt lat="63.9034195" lon="-20.59000969"><ele>38.4</ele><time>2012-07-27T14:39:13.0000000+00:00</time></trkpt><trkpt lat="63.90348434" lon="-20.59003067"><ele>38.4</ele><time>2012-07-27T14:39:18.0000000+00:00</time></trkpt><trkpt lat="63.90355682" lon="-20.59005547"><ele>39.3</ele><time>2012-07-27T14:39:23.0000000+00:00</time></trkpt><trkpt lat="63.90361023" lon="-20.59006882"><ele>39.4</ele><time>2012-07-27T14:39:28.0000000+00:00</time></trkpt><trkpt lat="63.90367127" lon="-20.59009934"><ele>39.4</ele><time>2012-07-27T14:39:33.0000000+00:00</time></trkpt><trkpt lat="63.9037323" lon="-20.59011841"><ele>39.9</ele><time>2012-07-27T14:39:38.0000000+00:00</time></trkpt><trkpt lat="63.90380096" lon="-20.59014893"><ele>39.8</ele><time>2012-07-27T14:39:43.0000000+00:00</time></trkpt><trkpt lat="63.90386581" lon="-20.59017563"><ele>40.5</ele><time>2012-07-27T14:39:48.0000000+00:00</time></trkpt><trkpt lat="63.90391922" lon="-20.59019852"><ele>40.0</ele><time>2012-07-27T14:39:53.0000000+00:00</time></trkpt><trkpt lat="63.90398026" lon="-20.59021759"><ele>40.0</ele><time>2012-07-27T14:39:58.0000000+00:00</time></trkpt><trkpt lat="63.90404129" lon="-20.59024239"><ele>40.0</ele><time>2012-07-27T14:40:03.0000000+00:00</time></trkpt><trkpt lat="63.90410996" lon="-20.59025383"><ele>39.9</ele><time>2012-07-27T14:40:08.0000000+00:00</time></trkpt><trkpt lat="63.90417862" lon="-20.59026527"><ele>40.5</ele><time>2012-07-27T14:40:13.0000000+00:00</time></trkpt><trkpt lat="63.90424347" lon="-20.59029961"><ele>40.0</ele><time>2012-07-27T14:40:18.0000000+00:00</time></trkpt><trkpt lat="63.90433121" lon="-20.59034157"><ele>39.9</ele><time>2012-07-27T14:40:23.0000000+00:00</time></trkpt><trkpt lat="63.90441132" lon="-20.59037018"><ele>40.1</ele><time>2012-07-27T14:40:28.0000000+00:00</time></trkpt><trkpt lat="63.90449524" lon="-20.59040642"><ele>40.5</ele><time>2012-07-27T14:40:33.0000000+00:00</time></trkpt><trkpt lat="63.90459824" lon="-20.59042931"><ele>42.5</ele><time>2012-07-27T14:40:38.0000000+00:00</time></trkpt><trkpt lat="63.9046936" lon="-20.59046555"><ele>43.2</ele><time>2012-07-27T14:40:43.0000000+00:00</time></trkpt><trkpt lat="63.90478516" lon="-20.59049797"><ele>44.2</ele><time>2012-07-27T14:40:48.0000000+00:00</time></trkpt><trkpt lat="63.90487671" lon="-20.59055138"><ele>45.4</ele><time>2012-07-27T14:40:53.0000000+00:00</time></trkpt><trkpt lat="63.90497971" lon="-20.59061623"><ele>46.0</ele><time>2012-07-27T14:40:58.0000000+00:00</time></trkpt><trkpt lat="63.90509415" lon="-20.59069824"><ele>45.8</ele><time>2012-07-27T14:41:03.0000000+00:00</time></trkpt><trkpt lat="63.90519714" lon="-20.59078217"><ele>45.6</ele><time>2012-07-27T14:41:08.0000000+00:00</time></trkpt><trkpt lat="63.90531921" lon="-20.59089279"><ele>45.9</ele><time>2012-07-27T14:41:13.0000000+00:00</time></trkpt><trkpt lat="63.90542603" lon="-20.59099197"><ele>45.9</ele><time>2012-07-27T14:41:18.0000000+00:00</time></trkpt><trkpt lat="63.90553284" lon="-20.59112549"><ele>45.0</ele><time>2012-07-27T14:41:23.0000000+00:00</time></trkpt><trkpt lat="63.90563965" lon="-20.59124565"><ele>44.9</ele><time>2012-07-27T14:41:28.0000000+00:00</time></trkpt><trkpt lat="63.90574646" lon="-20.59139252"><ele>43.9</ele><time>2012-07-27T14:41:33.0000000+00:00</time></trkpt><trkpt lat="63.90586853" lon="-20.59155273"><ele>42.9</ele><time>2012-07-27T14:41:38.0000000+00:00</time></trkpt><trkpt lat="63.90598297" lon="-20.59170723"><ele>43.5</ele><time>2012-07-27T14:41:43.0000000+00:00</time></trkpt><trkpt lat="63.90610504" lon="-20.59183121"><ele>44.4</ele><time>2012-07-27T14:41:48.0000000+00:00</time></trkpt><trkpt lat="63.90621948" lon="-20.5919838"><ele>43.6</ele><time>2012-07-27T14:41:53.0000000+00:00</time></trkpt><trkpt lat="63.90633392" lon="-20.59209251"><ele>45.3</ele><time>2012-07-27T14:41:58.0000000+00:00</time></trkpt><trkpt lat="63.90642548" lon="-20.59222984"><ele>44.9</ele><time>2012-07-27T14:42:03.0000000+00:00</time></trkpt><trkpt lat="63.90651703" lon="-20.59233475"><ele>46.0</ele><time>2012-07-27T14:42:08.0000000+00:00</time></trkpt><trkpt lat="63.90659332" lon="-20.59245491"><ele>45.4</ele><time>2012-07-27T14:42:13.0000000+00:00</time></trkpt><trkpt lat="63.90666962" lon="-20.59255219"><ele>45.5</ele><time>2012-07-27T14:42:18.0000000+00:00</time></trkpt><trkpt lat="63.90674973" lon="-20.59267235"><ele>44.9</ele><time>2012-07-27T14:42:23.0000000+00:00</time></trkpt><trkpt lat="63.90684128" lon="-20.59277344"><ele>45.5</ele><time>2012-07-27T14:42:28.0000000+00:00</time></trkpt><trkpt lat="63.90691757" lon="-20.59284973"><ele>46.0</ele><time>2012-07-27T14:42:33.0000000+00:00</time></trkpt><trkpt lat="63.90697861" lon="-20.59292984"><ele>45.9</ele><time>2012-07-27T14:42:38.0000000+00:00</time></trkpt><trkpt lat="63.90703583" lon="-20.59302902"><ele>45.2</ele><time>2012-07-27T14:42:43.0000000+00:00</time></trkpt><trkpt lat="63.90710831" lon="-20.59309769"><ele>47.2</ele><time>2012-07-27T14:42:48.0000000+00:00</time></trkpt><trkpt lat="63.9071846" lon="-20.59316254"><ele>48.2</ele><time>2012-07-27T14:42:53.0000000+00:00</time></trkpt><trkpt lat="63.90724564" lon="-20.59324837"><ele>50.0</ele><time>2012-07-27T14:42:58.0000000+00:00</time></trkpt><trkpt lat="63.9073143" lon="-20.59334183"><ele>50.2</ele><time>2012-07-27T14:43:03.0000000+00:00</time></trkpt><trkpt lat="63.90739059" lon="-20.59342003"><ele>51.3</ele><time>2012-07-27T14:43:08.0000000+00:00</time></trkpt><trkpt lat="63.90744782" lon="-20.59350014"><ele>51.4</ele><time>2012-07-27T14:43:13.0000000+00:00</time></trkpt><trkpt lat="63.90750504" lon="-20.59359169"><ele>51.6</ele><time>2012-07-27T14:43:18.0000000+00:00</time></trkpt><trkpt lat="63.90756607" lon="-20.59370422"><ele>52.7</ele><time>2012-07-27T14:43:23.0000000+00:00</time></trkpt><trkpt lat="63.90764237" lon="-20.59377289"><ele>53.7</ele><time>2012-07-27T14:43:28.0000000+00:00</time></trkpt><trkpt lat="63.90769577" lon="-20.59386635"><ele>54.3</ele><time>2012-07-27T14:43:33.0000000+00:00</time></trkpt><trkpt lat="63.90774155" lon="-20.59393311"><ele>54.8</ele><time>2012-07-27T14:43:38.0000000+00:00</time></trkpt><trkpt lat="63.90781021" lon="-20.59399033"><ele>56.3</ele><time>2012-07-27T14:43:43.0000000+00:00</time></trkpt><trkpt lat="63.90787125" lon="-20.59408188"><ele>56.8</ele><time>2012-07-27T14:43:48.0000000+00:00</time></trkpt><trkpt lat="63.90793228" lon="-20.59414864"><ele>57.4</ele><time>2012-07-27T14:43:53.0000000+00:00</time></trkpt><trkpt lat="63.90799713" lon="-20.59426117"><ele>57.1</ele><time>2012-07-27T14:43:58.0000000+00:00</time></trkpt><trkpt lat="63.90805817" lon="-20.59437561"><ele>56.4</ele><time>2012-07-27T14:44:03.0000000+00:00</time></trkpt><trkpt lat="63.90812302" lon="-20.59445381"><ele>56.5</ele><time>2012-07-27T14:44:08.0000000+00:00</time></trkpt><trkpt lat="63.90818024" lon="-20.59454727"><ele>57.0</ele><time>2012-07-27T14:44:13.0000000+00:00</time></trkpt><trkpt lat="63.90825272" lon="-20.59464645"><ele>57.3</ele><time>2012-07-27T14:44:18.0000000+00:00</time></trkpt><trkpt lat="63.90833283" lon="-20.59477043"><ele>58.4</ele><time>2012-07-27T14:44:23.0000000+00:00</time></trkpt><trkpt lat="63.90840912" lon="-20.59487152"><ele>59.3</ele><time>2012-07-27T14:44:28.0000000+00:00</time></trkpt><trkpt lat="63.90850067" lon="-20.59500313"><ele>59.1</ele><time>2012-07-27T14:44:33.0000000+00:00</time></trkpt><trkpt lat="63.90856934" lon="-20.59511948"><ele>59.0</ele><time>2012-07-27T14:44:38.0000000+00:00</time></trkpt><trkpt lat="63.90864945" lon="-20.59525299"><ele>59.2</ele><time>2012-07-27T14:44:43.0000000+00:00</time></trkpt><trkpt lat="63.90872955" lon="-20.59539032"><ele>59.8</ele><time>2012-07-27T14:44:48.0000000+00:00</time></trkpt><trkpt lat="63.90882874" lon="-20.59555244"><ele>62.2</ele><time>2012-07-27T14:44:53.0000000+00:00</time></trkpt><trkpt lat="63.90893173" lon="-20.59574127"><ele>63.8</ele><time>2012-07-27T14:44:58.0000000+00:00</time></trkpt><trkpt lat="63.9090271" lon="-20.59591293"><ele>66.6</ele><time>2012-07-27T14:45:03.0000000+00:00</time></trkpt><trkpt lat="63.90911865" lon="-20.59609604"><ele>67.0</ele><time>2012-07-27T14:45:08.0000000+00:00</time></trkpt><trkpt lat="63.90921021" lon="-20.59628868"><ele>67.8</ele><time>2012-07-27T14:45:13.0000000+00:00</time></trkpt><trkpt lat="63.90930939" lon="-20.59648323"><ele>67.9</ele><time>2012-07-27T14:45:18.0000000+00:00</time></trkpt><trkpt lat="63.90940094" lon="-20.59669685"><ele>67.9</ele><time>2012-07-27T14:45:23.0000000+00:00</time></trkpt><trkpt lat="63.90950775" lon="-20.59692955"><ele>69.0</ele><time>2012-07-27T14:45:28.0000000+00:00</time></trkpt><trkpt lat="63.90961456" lon="-20.59720421"><ele>68.7</ele><time>2012-07-27T14:45:33.0000000+00:00</time></trkpt><trkpt lat="63.90972138" lon="-20.59745979"><ele>69.2</ele><time>2012-07-27T14:45:38.0000000+00:00</time></trkpt><trkpt lat="63.90982056" lon="-20.59770966"><ele>69.9</ele><time>2012-07-27T14:45:43.0000000+00:00</time></trkpt><trkpt lat="63.90992355" lon="-20.59795761"><ele>70.1</ele><time>2012-07-27T14:45:48.0000000+00:00</time></trkpt><trkpt lat="63.91000366" lon="-20.59818649"><ele>69.9</ele><time>2012-07-27T14:45:53.0000000+00:00</time></trkpt><trkpt lat="63.91007233" lon="-20.59840012"><ele>68.9</ele><time>2012-07-27T14:45:58.0000000+00:00</time></trkpt><trkpt lat="63.91012573" lon="-20.59857559"><ele>68.9</ele><time>2012-07-27T14:46:03.0000000+00:00</time></trkpt><trkpt lat="63.91017532" lon="-20.59875107"><ele>70.2</ele><time>2012-07-27T14:46:08.0000000+00:00</time></trkpt><trkpt lat="63.91022492" lon="-20.59892464"><ele>69.5</ele><time>2012-07-27T14:46:13.0000000+00:00</time></trkpt><trkpt lat="63.91029358" lon="-20.59919167"><ele>68.5</ele><time>2012-07-27T14:46:18.0000000+00:00</time></trkpt><trkpt lat="63.91036224" lon="-20.59943008"><ele>67.9</ele><time>2012-07-27T14:46:23.0000000+00:00</time></trkpt><trkpt lat="63.91043854" lon="-20.59967995"><ele>67.4</ele><time>2012-07-27T14:46:28.0000000+00:00</time></trkpt><trkpt lat="63.91049576" lon="-20.59991837"><ele>67.1</ele><time>2012-07-27T14:46:33.0000000+00:00</time></trkpt><trkpt lat="63.91055679" lon="-20.60016632"><ele>66.7</ele><time>2012-07-27T14:46:38.0000000+00:00</time></trkpt><trkpt lat="63.91060257" lon="-20.60036469"><ele>66.4</ele><time>2012-07-27T14:46:43.0000000+00:00</time></trkpt><trkpt lat="63.91065216" lon="-20.60058212"><ele>66.6</ele><time>2012-07-27T14:46:48.0000000+00:00</time></trkpt><trkpt lat="63.91070557" lon="-20.60081482"><ele>66.4</ele><time>2012-07-27T14:46:53.0000000+00:00</time></trkpt><trkpt lat="63.91075516" lon="-20.60103607"><ele>66.8</ele><time>2012-07-27T14:46:58.0000000+00:00</time></trkpt><trkpt lat="63.91080856" lon="-20.60129547"><ele>66.4</ele><time>2012-07-27T14:47:03.0000000+00:00</time></trkpt><trkpt lat="63.91087341" lon="-20.60162544"><ele>65.5</ele><time>2012-07-27T14:47:08.0000000+00:00</time></trkpt><trkpt lat="63.91093445" lon="-20.60195351"><ele>65.7</ele><time>2012-07-27T14:47:13.0000000+00:00</time></trkpt><trkpt lat="63.91099548" lon="-20.60232544"><ele>67.1</ele><time>2012-07-27T14:47:18.0000000+00:00</time></trkpt><trkpt lat="63.91107178" lon="-20.602705"><ele>67.4</ele><time>2012-07-27T14:47:23.0000000+00:00</time></trkpt><trkpt lat="63.91115189" lon="-20.60315132"><ele>67.3</ele><time>2012-07-27T14:47:28.0000000+00:00</time></trkpt><trkpt lat="63.911232" lon="-20.60359955"><ele>66.9</ele><time>2012-07-27T14:47:33.0000000+00:00</time></trkpt><trkpt lat="63.91130829" lon="-20.6040535"><ele>66.3</ele><time>2012-07-27T14:47:38.0000000+00:00</time></trkpt><trkpt lat="63.91139221" lon="-20.60451698"><ele>66.5</ele><time>2012-07-27T14:47:43.0000000+00:00</time></trkpt><trkpt lat="63.91147614" lon="-20.60494614"><ele>66.8</ele><time>2012-07-27T14:47:48.0000000+00:00</time></trkpt><trkpt lat="63.91153717" lon="-20.60540581"><ele>66.7</ele><time>2012-07-27T14:47:53.0000000+00:00</time></trkpt><trkpt lat="63.91161728" lon="-20.60585594"><ele>66.4</ele><time>2012-07-27T14:47:58.0000000+00:00</time></trkpt><trkpt lat="63.91170502" lon="-20.60634041"><ele>66.2</ele><time>2012-07-27T14:48:03.0000000+00:00</time></trkpt><trkpt lat="63.91178894" lon="-20.60678291"><ele>65.9</ele><time>2012-07-27T14:48:08.0000000+00:00</time></trkpt><trkpt lat="63.91187668" lon="-20.60724831"><ele>66.0</ele><time>2012-07-27T14:48:13.0000000+00:00</time></trkpt><trkpt lat="63.91195679" lon="-20.6076889"><ele>65.9</ele><time>2012-07-27T14:48:18.0000000+00:00</time></trkpt><trkpt lat="63.91204071" lon="-20.60813141"><ele>65.3</ele><time>2012-07-27T14:48:23.0000000+00:00</time></trkpt><trkpt lat="63.912117" lon="-20.60860062"><ele>66.2</ele><time>2012-07-27T14:48:28.0000000+00:00</time></trkpt><trkpt lat="63.9121933" lon="-20.60906792"><ele>66.7</ele><time>2012-07-27T14:48:33.0000000+00:00</time></trkpt><trkpt lat="63.91226578" lon="-20.60949707"><ele>66.3</ele><time>2012-07-27T14:48:38.0000000+00:00</time></trkpt><trkpt lat="63.91233444" lon="-20.6099205"><ele>68.3</ele><time>2012-07-27T14:48:43.0000000+00:00</time></trkpt><trkpt lat="63.91241074" lon="-20.61035919"><ele>69.3</ele><time>2012-07-27T14:48:48.0000000+00:00</time></trkpt><trkpt lat="63.91248703" lon="-20.61072159"><ele>70.2</ele><time>2012-07-27T14:48:53.0000000+00:00</time></trkpt><trkpt lat="63.91254807" lon="-20.61110878"><ele>69.7</ele><time>2012-07-27T14:48:58.0000000+00:00</time></trkpt><trkpt lat="63.91261673" lon="-20.61149788"><ele>70.0</ele><time>2012-07-27T14:49:03.0000000+00:00</time></trkpt><trkpt lat="63.91268158" lon="-20.61189079"><ele>69.6</ele><time>2012-07-27T14:49:08.0000000+00:00</time></trkpt><trkpt lat="63.9127388" lon="-20.61223412"><ele>69.6</ele><time>2012-07-27T14:49:13.0000000+00:00</time></trkpt><trkpt lat="63.91279984" lon="-20.61261368"><ele>69.2</ele><time>2012-07-27T14:49:18.0000000+00:00</time></trkpt><trkpt lat="63.91287231" lon="-20.61300087"><ele>69.3</ele><time>2012-07-27T14:49:23.0000000+00:00</time></trkpt><trkpt lat="63.91294479" lon="-20.61340141"><ele>69.0</ele><time>2012-07-27T14:49:28.0000000+00:00</time></trkpt><trkpt lat="63.91301346" lon="-20.6137867"><ele>69.4</ele><time>2012-07-27T14:49:33.0000000+00:00</time></trkpt><trkpt lat="63.91308594" lon="-20.61421013"><ele>69.6</ele><time>2012-07-27T14:49:38.0000000+00:00</time></trkpt><trkpt lat="63.91314697" lon="-20.61456108"><ele>69.9</ele><time>2012-07-27T14:49:43.0000000+00:00</time></trkpt><trkpt lat="63.91320038" lon="-20.61491585"><ele>69.5</ele><time>2012-07-27T14:49:48.0000000+00:00</time></trkpt><trkpt lat="63.91326523" lon="-20.61528206"><ele>69.3</ele><time>2012-07-27T14:49:53.0000000+00:00</time></trkpt><trkpt lat="63.91333008" lon="-20.61562729"><ele>67.8</ele><time>2012-07-27T14:49:58.0000000+00:00</time></trkpt><trkpt lat="63.91339111" lon="-20.61599922"><ele>67.5</ele><time>2012-07-27T14:50:03.0000000+00:00</time></trkpt><trkpt lat="63.91345596" lon="-20.61640739"><ele>65.9</ele><time>2012-07-27T14:50:08.0000000+00:00</time></trkpt><trkpt lat="63.9135437" lon="-20.61688805"><ele>65.7</ele><time>2012-07-27T14:50:13.0000000+00:00</time></trkpt><trkpt lat="63.9136467" lon="-20.6174202"><ele>65.2</ele><time>2012-07-27T14:50:18.0000000+00:00</time></trkpt><trkpt lat="63.9137497" lon="-20.61799812"><ele>63.6</ele><time>2012-07-27T14:50:23.0000000+00:00</time></trkpt><trkpt lat="63.91386032" lon="-20.61864853"><ele>63.0</ele><time>2012-07-27T14:50:28.0000000+00:00</time></trkpt><trkpt lat="63.91398621" lon="-20.61938858"><ele>61.7</ele><time>2012-07-27T14:50:33.0000000+00:00</time></trkpt><trkpt lat="63.91411591" lon="-20.62014008"><ele>60.9</ele><time>2012-07-27T14:50:38.0000000+00:00</time></trkpt><trkpt lat="63.91423035" lon="-20.62081528"><ele>60.1</ele><time>2012-07-27T14:50:43.0000000+00:00</time></trkpt><trkpt lat="63.9143486" lon="-20.62145042"><ele>60.1</ele><time>2012-07-27T14:50:48.0000000+00:00</time></trkpt><trkpt lat="63.91445541" lon="-20.62205696"><ele>60.0</ele><time>2012-07-27T14:50:53.0000000+00:00</time></trkpt><trkpt lat="63.91456604" lon="-20.62264252"><ele>59.8</ele><time>2012-07-27T14:50:58.0000000+00:00</time></trkpt><trkpt lat="63.91466522" lon="-20.62322426"><ele>59.7</ele><time>2012-07-27T14:51:03.0000000+00:00</time></trkpt><trkpt lat="63.9147644" lon="-20.62377358"><ele>61.0</ele><time>2012-07-27T14:51:08.0000000+00:00</time></trkpt><trkpt lat="63.91485596" lon="-20.62437248"><ele>61.5</ele><time>2012-07-27T14:51:13.0000000+00:00</time></trkpt><trkpt lat="63.91495895" lon="-20.62495804"><ele>60.8</ele><time>2012-07-27T14:51:18.0000000+00:00</time></trkpt><trkpt lat="63.91506577" lon="-20.62558174"><ele>60.5</ele><time>2012-07-27T14:51:23.0000000+00:00</time></trkpt><trkpt lat="63.91517258" lon="-20.62619209"><ele>58.3</ele><time>2012-07-27T14:51:28.0000000+00:00</time></trkpt><trkpt lat="63.91527557" lon="-20.62680054"><ele>57.6</ele><time>2012-07-27T14:51:33.0000000+00:00</time></trkpt><trkpt lat="63.91538239" lon="-20.62743187"><ele>57.4</ele><time>2012-07-27T14:51:38.0000000+00:00</time></trkpt><trkpt lat="63.91549301" lon="-20.62802124"><ele>56.9</ele><time>2012-07-27T14:51:43.0000000+00:00</time></trkpt><trkpt lat="63.91559219" lon="-20.62859154"><ele>56.4</ele><time>2012-07-27T14:51:48.0000000+00:00</time></trkpt><trkpt lat="63.91568756" lon="-20.62912941"><ele>56.3</ele><time>2012-07-27T14:51:53.0000000+00:00</time></trkpt><trkpt lat="63.91577148" lon="-20.62963295"><ele>56.3</ele><time>2012-07-27T14:51:58.0000000+00:00</time></trkpt><trkpt lat="63.91586685" lon="-20.63019562"><ele>56.1</ele><time>2012-07-27T14:52:03.0000000+00:00</time></trkpt><trkpt lat="63.91596985" lon="-20.63077736"><ele>56.0</ele><time>2012-07-27T14:52:08.0000000+00:00</time></trkpt><trkpt lat="63.91606522" lon="-20.6313324"><ele>55.5</ele><time>2012-07-27T14:52:13.0000000+00:00</time></trkpt><trkpt lat="63.91616821" lon="-20.63189507"><ele>54.9</ele><time>2012-07-27T14:52:18.0000000+00:00</time></trkpt><trkpt lat="63.91625595" lon="-20.63239861"><ele>54.4</ele><time>2012-07-27T14:52:23.0000000+00:00</time></trkpt><trkpt lat="63.91633987" lon="-20.63287354"><ele>54.7</ele><time>2012-07-27T14:52:28.0000000+00:00</time></trkpt><trkpt lat="63.9164238" lon="-20.63338471"><ele>54.6</ele><time>2012-07-27T14:52:33.0000000+00:00</time></trkpt><trkpt lat="63.91650772" lon="-20.63388443"><ele>54.4</ele><time>2012-07-27T14:52:38.0000000+00:00</time></trkpt><trkpt lat="63.91659164" lon="-20.63434982"><ele>54.6</ele><time>2012-07-27T14:52:43.0000000+00:00</time></trkpt><trkpt lat="63.91666412" lon="-20.63479614"><ele>53.8</ele><time>2012-07-27T14:52:48.0000000+00:00</time></trkpt><trkpt lat="63.91674423" lon="-20.63519859"><ele>53.8</ele><time>2012-07-27T14:52:53.0000000+00:00</time></trkpt><trkpt lat="63.91680908" lon="-20.63559914"><ele>54.0</ele><time>2012-07-27T14:52:58.0000000+00:00</time></trkpt><trkpt lat="63.91687012" lon="-20.63597679"><ele>55.1</ele><time>2012-07-27T14:53:03.0000000+00:00</time></trkpt><trkpt lat="63.9169426" lon="-20.63636017"><ele>55.5</ele><time>2012-07-27T14:53:08.0000000+00:00</time></trkpt><trkpt lat="63.91701126" lon="-20.63673782"><ele>56.9</ele><time>2012-07-27T14:53:13.0000000+00:00</time></trkpt><trkpt lat="63.91707611" lon="-20.63713455"><ele>57.4</ele><time>2012-07-27T14:53:18.0000000+00:00</time></trkpt><trkpt lat="63.91713715" lon="-20.63748932"><ele>57.6</ele><time>2012-07-27T14:53:23.0000000+00:00</time></trkpt><trkpt lat="63.91719437" lon="-20.63785362"><ele>59.1</ele><time>2012-07-27T14:53:28.0000000+00:00</time></trkpt><trkpt lat="63.9172554" lon="-20.6381855"><ele>58.6</ele><time>2012-07-27T14:53:33.0000000+00:00</time></trkpt><trkpt lat="63.91730499" lon="-20.63850021"><ele>57.6</ele><time>2012-07-27T14:53:38.0000000+00:00</time></trkpt><trkpt lat="63.91735458" lon="-20.63878059"><ele>58.3</ele><time>2012-07-27T14:53:43.0000000+00:00</time></trkpt><trkpt lat="63.91740418" lon="-20.63906479"><ele>58.6</ele><time>2012-07-27T14:53:48.0000000+00:00</time></trkpt><trkpt lat="63.9174614" lon="-20.63935852"><ele>58.6</ele><time>2012-07-27T14:53:53.0000000+00:00</time></trkpt><trkpt lat="63.91751099" lon="-20.63962555"><ele>57.9</ele><time>2012-07-27T14:53:58.0000000+00:00</time></trkpt><trkpt lat="63.91755676" lon="-20.63991928"><ele>58.3</ele><time>2012-07-27T14:54:03.0000000+00:00</time></trkpt><trkpt lat="63.91760635" lon="-20.6402092"><ele>58.0</ele><time>2012-07-27T14:54:08.0000000+00:00</time></trkpt><trkpt lat="63.91765595" lon="-20.64049912"><ele>57.8</ele><time>2012-07-27T14:54:13.0000000+00:00</time></trkpt><trkpt lat="63.91770554" lon="-20.64076805"><ele>57.3</ele><time>2012-07-27T14:54:18.0000000+00:00</time></trkpt><trkpt lat="63.91777039" lon="-20.64102554"><ele>59.9</ele><time>2012-07-27T14:54:23.0000000+00:00</time></trkpt><trkpt lat="63.91782379" lon="-20.6413269"><ele>59.7</ele><time>2012-07-27T14:54:28.0000000+00:00</time></trkpt><trkpt lat="63.91787338" lon="-20.6416378"><ele>59.0</ele><time>2012-07-27T14:54:33.0000000+00:00</time></trkpt><trkpt lat="63.91791916" lon="-20.64191818"><ele>60.3</ele><time>2012-07-27T14:54:38.0000000+00:00</time></trkpt><trkpt lat="63.91797257" lon="-20.64221382"><ele>60.0</ele><time>2012-07-27T14:54:43.0000000+00:00</time></trkpt><trkpt lat="63.91804123" lon="-20.64246178"><ele>61.1</ele><time>2012-07-27T14:54:48.0000000+00:00</time></trkpt><trkpt lat="63.91810226" lon="-20.6427002"><ele>62.1</ele><time>2012-07-27T14:54:53.0000000+00:00</time></trkpt><trkpt lat="63.9181633" lon="-20.64296722"><ele>63.1</ele><time>2012-07-27T14:54:58.0000000+00:00</time></trkpt><trkpt lat="63.91822434" lon="-20.64323807"><ele>63.8</ele><time>2012-07-27T14:55:03.0000000+00:00</time></trkpt><trkpt lat="63.91828156" lon="-20.64353371"><ele>64.2</ele><time>2012-07-27T14:55:08.0000000+00:00</time></trkpt><trkpt lat="63.91834259" lon="-20.64381599"><ele>64.7</ele><time>2012-07-27T14:55:13.0000000+00:00</time></trkpt><trkpt lat="63.91840744" lon="-20.64410973"><ele>65.1</ele><time>2012-07-27T14:55:18.0000000+00:00</time></trkpt><trkpt lat="63.91847992" lon="-20.64440155"><ele>66.8</ele><time>2012-07-27T14:55:23.0000000+00:00</time></trkpt><trkpt lat="63.9185524" lon="-20.64470291"><ele>66.4</ele><time>2012-07-27T14:55:28.0000000+00:00</time></trkpt><trkpt lat="63.91861725" lon="-20.64499855"><ele>65.7</ele><time>2012-07-27T14:55:33.0000000+00:00</time></trkpt><trkpt lat="63.91868973" lon="-20.64528465"><ele>66.4</ele><time>2012-07-27T14:55:38.0000000+00:00</time></trkpt><trkpt lat="63.91876602" lon="-20.64556122"><ele>68.1</ele><time>2012-07-27T14:55:43.0000000+00:00</time></trkpt><trkpt lat="63.9188385" lon="-20.64584541"><ele>68.8</ele><time>2012-07-27T14:55:48.0000000+00:00</time></trkpt><trkpt lat="63.9189148" lon="-20.64615059"><ele>69.5</ele><time>2012-07-27T14:55:53.0000000+00:00</time></trkpt><trkpt lat="63.91899872" lon="-20.64646339"><ele>69.6</ele><time>2012-07-27T14:55:58.0000000+00:00</time></trkpt><trkpt lat="63.9190712" lon="-20.64673805"><ele>70.9</ele><time>2012-07-27T14:56:03.0000000+00:00</time></trkpt><trkpt lat="63.91915131" lon="-20.64703178"><ele>72.0</ele><time>2012-07-27T14:56:08.0000000+00:00</time></trkpt><trkpt lat="63.91923523" lon="-20.64734078"><ele>72.4</ele><time>2012-07-27T14:56:13.0000000+00:00</time></trkpt><trkpt lat="63.91932297" lon="-20.64765739"><ele>72.6</ele><time>2012-07-27T14:56:18.0000000+00:00</time></trkpt><trkpt lat="63.91940689" lon="-20.64795685"><ele>72.1</ele><time>2012-07-27T14:56:23.0000000+00:00</time></trkpt><trkpt lat="63.91946793" lon="-20.64813423"><ele>71.9</ele><time>2012-07-27T14:56:28.0000000+00:00</time></trkpt><trkpt lat="63.91953659" lon="-20.64833641"><ele>72.8</ele><time>2012-07-27T14:56:33.0000000+00:00</time></trkpt><trkpt lat="63.91962051" lon="-20.6485672"><ele>73.3</ele><time>2012-07-27T14:56:38.0000000+00:00</time></trkpt><trkpt lat="63.91970444" lon="-20.64883614"><ele>72.8</ele><time>2012-07-27T14:56:43.0000000+00:00</time></trkpt><trkpt lat="63.91978836" lon="-20.64910317"><ele>72.7</ele><time>2012-07-27T14:56:48.0000000+00:00</time></trkpt><trkpt lat="63.9198761" lon="-20.64938164"><ele>71.8</ele><time>2012-07-27T14:56:53.0000000+00:00</time></trkpt><trkpt lat="63.91996002" lon="-20.64964104"><ele>71.6</ele><time>2012-07-27T14:56:58.0000000+00:00</time></trkpt><trkpt lat="63.92004776" lon="-20.64989853"><ele>71.6</ele><time>2012-07-27T14:57:03.0000000+00:00</time></trkpt><trkpt lat="63.9201355" lon="-20.65016747"><ele>71.5</ele><time>2012-07-27T14:57:08.0000000+00:00</time></trkpt><trkpt lat="63.92023087" lon="-20.65044594"><ele>71.2</ele><time>2012-07-27T14:57:13.0000000+00:00</time></trkpt><trkpt lat="63.92030716" lon="-20.65067864"><ele>71.1</ele><time>2012-07-27T14:57:18.0000000+00:00</time></trkpt><trkpt lat="63.92038727" lon="-20.65090752"><ele>71.3</ele><time>2012-07-27T14:57:23.0000000+00:00</time></trkpt><trkpt lat="63.92047882" lon="-20.65115547"><ele>70.1</ele><time>2012-07-27T14:57:28.0000000+00:00</time></trkpt><trkpt lat="63.920578" lon="-20.65142632"><ele>68.9</ele><time>2012-07-27T14:57:33.0000000+00:00</time></trkpt><trkpt lat="63.92067337" lon="-20.65167809"><ele>68.8</ele><time>2012-07-27T14:57:38.0000000+00:00</time></trkpt><trkpt lat="63.92076874" lon="-20.65192795"><ele>69.0</ele><time>2012-07-27T14:57:43.0000000+00:00</time></trkpt><trkpt lat="63.92085648" lon="-20.652174"><ele>67.1</ele><time>2012-07-27T14:57:48.0000000+00:00</time></trkpt><trkpt lat="63.92093658" lon="-20.65240288"><ele>67.0</ele><time>2012-07-27T14:57:53.0000000+00:00</time></trkpt><trkpt lat="63.92103195" lon="-20.65261841"><ele>67.0</ele><time>2012-07-27T14:57:58.0000000+00:00</time></trkpt><trkpt lat="63.92110825" lon="-20.65279007"><ele>68.1</ele><time>2012-07-27T14:58:03.0000000+00:00</time></trkpt><trkpt lat="63.92119598" lon="-20.65299988"><ele>69.0</ele><time>2012-07-27T14:58:08.0000000+00:00</time></trkpt><trkpt lat="63.92128754" lon="-20.65321541"><ele>68.9</ele><time>2012-07-27T14:58:13.0000000+00:00</time></trkpt><trkpt lat="63.92139053" lon="-20.65345001"><ele>68.4</ele><time>2012-07-27T14:58:18.0000000+00:00</time></trkpt><trkpt lat="63.92150497" lon="-20.65366554"><ele>70.8</ele><time>2012-07-27T14:58:23.0000000+00:00</time></trkpt><trkpt lat="63.92160416" lon="-20.65392113"><ele>70.3</ele><time>2012-07-27T14:58:28.0000000+00:00</time></trkpt><trkpt lat="63.92169952" lon="-20.65416336"><ele>69.5</ele><time>2012-07-27T14:58:33.0000000+00:00</time></trkpt><trkpt lat="63.92181015" lon="-20.65439796"><ele>69.7</ele><time>2012-07-27T14:58:38.0000000+00:00</time></trkpt><trkpt lat="63.92191696" lon="-20.65462875"><ele>69.9</ele><time>2012-07-27T14:58:43.0000000+00:00</time></trkpt><trkpt lat="63.9220314" lon="-20.65485764"><ele>69.3</ele><time>2012-07-27T14:58:48.0000000+00:00</time></trkpt><trkpt lat="63.92214203" lon="-20.65509987"><ele>68.7</ele><time>2012-07-27T14:58:53.0000000+00:00</time></trkpt><trkpt lat="63.92226028" lon="-20.6553402"><ele>68.3</ele><time>2012-07-27T14:58:58.0000000+00:00</time></trkpt><trkpt lat="63.92236328" lon="-20.65555573"><ele>67.5</ele><time>2012-07-27T14:59:03.0000000+00:00</time></trkpt><trkpt lat="63.92247009" lon="-20.65577126"><ele>67.2</ele><time>2012-07-27T14:59:08.0000000+00:00</time></trkpt><trkpt lat="63.92256928" lon="-20.65595627"><ele>68.0</ele><time>2012-07-27T14:59:13.0000000+00:00</time></trkpt><trkpt lat="63.92266464" lon="-20.65613937"><ele>68.2</ele><time>2012-07-27T14:59:18.0000000+00:00</time></trkpt><trkpt lat="63.9227562" lon="-20.65633202"><ele>67.5</ele><time>2012-07-27T14:59:23.0000000+00:00</time></trkpt><trkpt lat="63.92285919" lon="-20.65649986"><ele>68.6</ele><time>2012-07-27T14:59:28.0000000+00:00</time></trkpt><trkpt lat="63.92294312" lon="-20.6566639"><ele>68.3</ele><time>2012-07-27T14:59:33.0000000+00:00</time></trkpt><trkpt lat="63.92302322" lon="-20.65680695"><ele>68.2</ele><time>2012-07-27T14:59:38.0000000+00:00</time></trkpt><trkpt lat="63.9230957" lon="-20.65696335"><ele>67.6</ele><time>2012-07-27T14:59:43.0000000+00:00</time></trkpt><trkpt lat="63.92317581" lon="-20.65712166"><ele>67.7</ele><time>2012-07-27T14:59:48.0000000+00:00</time></trkpt><trkpt lat="63.92325974" lon="-20.65728188"><ele>66.8</ele><time>2012-07-27T14:59:53.0000000+00:00</time></trkpt><trkpt lat="63.92335892" lon="-20.657444"><ele>66.4</ele><time>2012-07-27T14:59:58.0000000+00:00</time></trkpt><trkpt lat="63.9234581" lon="-20.6575985"><ele>66.2</ele><time>2012-07-27T15:00:03.0000000+00:00</time></trkpt><trkpt lat="63.92354584" lon="-20.65775108"><ele>65.6</ele><time>2012-07-27T15:00:08.0000000+00:00</time></trkpt><trkpt lat="63.92364121" lon="-20.65790558"><ele>65.7</ele><time>2012-07-27T15:00:13.0000000+00:00</time></trkpt><trkpt lat="63.92373276" lon="-20.65806389"><ele>65.9</ele><time>2012-07-27T15:00:18.0000000+00:00</time></trkpt><trkpt lat="63.92383194" lon="-20.65821075"><ele>66.3</ele><time>2012-07-27T15:00:23.0000000+00:00</time></trkpt><trkpt lat="63.92393494" lon="-20.65835762"><ele>66.5</ele><time>2012-07-27T15:00:28.0000000+00:00</time></trkpt><trkpt lat="63.9240303" lon="-20.65851593"><ele>66.7</ele><time>2012-07-27T15:00:33.0000000+00:00</time></trkpt><trkpt lat="63.92412186" lon="-20.65866089"><ele>66.8</ele><time>2012-07-27T15:00:38.0000000+00:00</time></trkpt><trkpt lat="63.92421341" lon="-20.65882492"><ele>66.1</ele><time>2012-07-27T15:00:43.0000000+00:00</time></trkpt><trkpt lat="63.92430878" lon="-20.6589756"><ele>65.1</ele><time>2012-07-27T15:00:48.0000000+00:00</time></trkpt><trkpt lat="63.92440414" lon="-20.659132"><ele>65.2</ele><time>2012-07-27T15:00:53.0000000+00:00</time></trkpt><trkpt lat="63.92451096" lon="-20.65928841"><ele>64.9</ele><time>2012-07-27T15:00:58.0000000+00:00</time></trkpt><trkpt lat="63.92461777" lon="-20.65943909"><ele>65.3</ele><time>2012-07-27T15:01:03.0000000+00:00</time></trkpt><trkpt lat="63.92472076" lon="-20.65958023"><ele>64.4</ele><time>2012-07-27T15:01:08.0000000+00:00</time></trkpt><trkpt lat="63.92482376" lon="-20.659729"><ele>64.4</ele><time>2012-07-27T15:01:13.0000000+00:00</time></trkpt><trkpt lat="63.92493057" lon="-20.65987015"><ele>64.4</ele><time>2012-07-27T15:01:18.0000000+00:00</time></trkpt><trkpt lat="63.92503357" lon="-20.66000748"><ele>64.4</ele><time>2012-07-27T15:01:23.0000000+00:00</time></trkpt><trkpt lat="63.92513275" lon="-20.66014481"><ele>64.4</ele><time>2012-07-27T15:01:28.0000000+00:00</time></trkpt><trkpt lat="63.92523193" lon="-20.66028786"><ele>64.6</ele><time>2012-07-27T15:01:33.0000000+00:00</time></trkpt><trkpt lat="63.92533112" lon="-20.66042519"><ele>65.3</ele><time>2012-07-27T15:01:38.0000000+00:00</time></trkpt><trkpt lat="63.92544174" lon="-20.66051292"><ele>65.0</ele><time>2012-07-27T15:01:43.0000000+00:00</time></trkpt><trkpt lat="63.92551804" lon="-20.6606617"><ele>65.4</ele><time>2012-07-27T15:01:48.0000000+00:00</time></trkpt><trkpt lat="63.92565537" lon="-20.66082573"><ele>64.9</ele><time>2012-07-27T15:01:53.0000000+00:00</time></trkpt><trkpt lat="63.92578888" lon="-20.66098595"><ele>64.6</ele><time>2012-07-27T15:01:58.0000000+00:00</time></trkpt><trkpt lat="63.92588425" lon="-20.66110802"><ele>61.6</ele><time>2012-07-27T15:02:03.0000000+00:00</time></trkpt><trkpt lat="63.92598343" lon="-20.66121674"><ele>61.8</ele><time>2012-07-27T15:02:08.0000000+00:00</time></trkpt><trkpt lat="63.92609024" lon="-20.66134834"><ele>61.2</ele><time>2012-07-27T15:02:13.0000000+00:00</time></trkpt><trkpt lat="63.92620468" lon="-20.66148377"><ele>61.2</ele><time>2012-07-27T15:02:18.0000000+00:00</time></trkpt><trkpt lat="63.92631912" lon="-20.66161537"><ele>61.4</ele><time>2012-07-27T15:02:23.0000000+00:00</time></trkpt><trkpt lat="63.92643356" lon="-20.66176605"><ele>61.1</ele><time>2012-07-27T15:02:28.0000000+00:00</time></trkpt><trkpt lat="63.92656708" lon="-20.66189575"><ele>60.6</ele><time>2012-07-27T15:02:33.0000000+00:00</time></trkpt><trkpt lat="63.92673111" lon="-20.66206169"><ele>59.8</ele><time>2012-07-27T15:02:38.0000000+00:00</time></trkpt><trkpt lat="63.92690277" lon="-20.66222382"><ele>58.5</ele><time>2012-07-27T15:02:43.0000000+00:00</time></trkpt><trkpt lat="63.92707825" lon="-20.66238403"><ele>58.3</ele><time>2012-07-27T15:02:48.0000000+00:00</time></trkpt><trkpt lat="63.92726135" lon="-20.66256142"><ele>57.4</ele><time>2012-07-27T15:02:53.0000000+00:00</time></trkpt><trkpt lat="63.9274559" lon="-20.66275406"><ele>57.0</ele><time>2012-07-27T15:02:58.0000000+00:00</time></trkpt><trkpt lat="63.92763901" lon="-20.66293526"><ele>55.8</ele><time>2012-07-27T15:03:03.0000000+00:00</time></trkpt><trkpt lat="63.92782211" lon="-20.66311455"><ele>55.4</ele><time>2012-07-27T15:03:08.0000000+00:00</time></trkpt><trkpt lat="63.92799759" lon="-20.66329384"><ele>54.5</ele><time>2012-07-27T15:03:13.0000000+00:00</time></trkpt><trkpt lat="63.92817307" lon="-20.66347122"><ele>54.2</ele><time>2012-07-27T15:03:18.0000000+00:00</time></trkpt><trkpt lat="63.92837143" lon="-20.66366005"><ele>53.7</ele><time>2012-07-27T15:03:23.0000000+00:00</time></trkpt><trkpt lat="63.92856216" lon="-20.66383553"><ele>51.9</ele><time>2012-07-27T15:03:28.0000000+00:00</time></trkpt><trkpt lat="63.92874527" lon="-20.66401863"><ele>51.3</ele><time>2012-07-27T15:03:33.0000000+00:00</time></trkpt><trkpt lat="63.92891693" lon="-20.66418839"><ele>52.0</ele><time>2012-07-27T15:03:38.0000000+00:00</time></trkpt><trkpt lat="63.92907333" lon="-20.66433334"><ele>52.6</ele><time>2012-07-27T15:03:43.0000000+00:00</time></trkpt><trkpt lat="63.929245" lon="-20.66450691"><ele>53.0</ele><time>2012-07-27T15:03:48.0000000+00:00</time></trkpt><trkpt lat="63.92942429" lon="-20.6646843"><ele>54.8</ele><time>2012-07-27T15:03:53.0000000+00:00</time></trkpt><trkpt lat="63.92961884" lon="-20.66486931"><ele>54.1</ele><time>2012-07-27T15:03:58.0000000+00:00</time></trkpt><trkpt lat="63.92980957" lon="-20.66506004"><ele>53.0</ele><time>2012-07-27T15:04:03.0000000+00:00</time></trkpt><trkpt lat="63.93000031" lon="-20.66524696"><ele>54.0</ele><time>2012-07-27T15:04:08.0000000+00:00</time></trkpt><trkpt lat="63.93018341" lon="-20.66541481"><ele>53.6</ele><time>2012-07-27T15:04:13.0000000+00:00</time></trkpt><trkpt lat="63.93036652" lon="-20.66558266"><ele>54.1</ele><time>2012-07-27T15:04:18.0000000+00:00</time></trkpt><trkpt lat="63.93055344" lon="-20.66576767"><ele>54.3</ele><time>2012-07-27T15:04:23.0000000+00:00</time></trkpt><trkpt lat="63.93074036" lon="-20.66594505"><ele>53.7</ele><time>2012-07-27T15:04:28.0000000+00:00</time></trkpt><trkpt lat="63.93091583" lon="-20.66609955"><ele>54.7</ele><time>2012-07-27T15:04:33.0000000+00:00</time></trkpt><trkpt lat="63.93108368" lon="-20.6662674"><ele>53.5</ele><time>2012-07-27T15:04:38.0000000+00:00</time></trkpt><trkpt lat="63.93120956" lon="-20.66637802"><ele>52.9</ele><time>2012-07-27T15:04:43.0000000+00:00</time></trkpt><trkpt lat="63.93134689" lon="-20.66652107"><ele>52.3</ele><time>2012-07-27T15:04:48.0000000+00:00</time></trkpt><trkpt lat="63.93152237" lon="-20.66667938"><ele>51.5</ele><time>2012-07-27T15:04:53.0000000+00:00</time></trkpt><trkpt lat="63.9317131" lon="-20.66685104"><ele>51.5</ele><time>2012-07-27T15:04:58.0000000+00:00</time></trkpt><trkpt lat="63.93185425" lon="-20.666996"><ele>51.0</ele><time>2012-07-27T15:05:03.0000000+00:00</time></trkpt><trkpt lat="63.93201065" lon="-20.66712761"><ele>50.8</ele><time>2012-07-27T15:05:08.0000000+00:00</time></trkpt><trkpt lat="63.93212891" lon="-20.66724777"><ele>50.6</ele><time>2012-07-27T15:05:13.0000000+00:00</time></trkpt><trkpt lat="63.93226242" lon="-20.66737366"><ele>50.7</ele><time>2012-07-27T15:05:18.0000000+00:00</time></trkpt><trkpt lat="63.93239212" lon="-20.66747856"><ele>50.6</ele><time>2012-07-27T15:05:23.0000000+00:00</time></trkpt><trkpt lat="63.93251419" lon="-20.66756249"><ele>50.2</ele><time>2012-07-27T15:05:28.0000000+00:00</time></trkpt><trkpt lat="63.93264008" lon="-20.66765785"><ele>49.9</ele><time>2012-07-27T15:05:33.0000000+00:00</time></trkpt><trkpt lat="63.93272018" lon="-20.66770554"><ele>50.6</ele><time>2012-07-27T15:05:38.0000000+00:00</time></trkpt><trkpt lat="63.932724" lon="-20.667696"><ele>50.8</ele><time>2012-07-27T15:05:43.0000000+00:00</time></trkpt><trkpt lat="63.932724" lon="-20.667696"><ele>50.9</ele><time>2012-07-27T15:05:48.0000000+00:00</time></trkpt><trkpt lat="63.932724" lon="-20.667696"><ele>51.0</ele><time>2012-07-27T15:05:53.0000000+00:00</time></trkpt><trkpt lat="63.932724" lon="-20.667696"><ele>51.0</ele><time>2012-07-27T15:05:58.0000000+00:00</time></trkpt><trkpt lat="63.932724" lon="-20.667696"><ele>50.9</ele><time>2012-07-27T15:06:03.0000000+00:00</time></trkpt><trkpt lat="63.932724" lon="-20.667696"><ele>50.9</ele><time>2012-07-27T15:06:08.0000000+00:00</time></trkpt><trkpt lat="63.932724" lon="-20.667696"><ele>51.0</ele><time>2012-07-27T15:06:13.0000000+00:00</time></trkpt><trkpt lat="63.932724" lon="-20.667696"><ele>51.0</ele><time>2012-07-27T15:06:18.0000000+00:00</time></trkpt><trkpt lat="63.932724" lon="-20.667696"><ele>51.0</ele><time>2012-07-27T15:06:23.0000000+00:00</time></trkpt><trkpt lat="63.932724" lon="-20.667696"><ele>51.0</ele><time>2012-07-27T15:06:28.0000000+00:00</time></trkpt><trkpt lat="63.932724" lon="-20.667696"><ele>51.0</ele><time>2012-07-27T15:06:33.0000000+00:00</time></trkpt><trkpt lat="63.932724" lon="-20.667696"><ele>51.0</ele><time>2012-07-27T15:06:38.0000000+00:00</time></trkpt><trkpt lat="63.93272781" lon="-20.66769791"><ele>51.0</ele><time>2012-07-27T15:06:43.0000000+00:00</time></trkpt><trkpt lat="63.9327507" lon="-20.66773224"><ele>51.3</ele><time>2012-07-27T15:06:48.0000000+00:00</time></trkpt><trkpt lat="63.93281174" lon="-20.66777039"><ele>51.0</ele><time>2012-07-27T15:06:53.0000000+00:00</time></trkpt><trkpt lat="63.93292236" lon="-20.66786957"><ele>50.6</ele><time>2012-07-27T15:06:58.0000000+00:00</time></trkpt><trkpt lat="63.93306732" lon="-20.66800118"><ele>50.9</ele><time>2012-07-27T15:07:03.0000000+00:00</time></trkpt><trkpt lat="63.93322754" lon="-20.66812706"><ele>50.4</ele><time>2012-07-27T15:07:08.0000000+00:00</time></trkpt><trkpt lat="63.9333992" lon="-20.66826248"><ele>50.8</ele><time>2012-07-27T15:07:13.0000000+00:00</time></trkpt><trkpt lat="63.93357468" lon="-20.66838265"><ele>50.2</ele><time>2012-07-27T15:07:18.0000000+00:00</time></trkpt><trkpt lat="63.93374634" lon="-20.66849327"><ele>50.0</ele><time>2012-07-27T15:07:23.0000000+00:00</time></trkpt><trkpt lat="63.93393326" lon="-20.66861153"><ele>48.8</ele><time>2012-07-27T15:07:28.0000000+00:00</time></trkpt><trkpt lat="63.93410492" lon="-20.66871834"><ele>48.5</ele><time>2012-07-27T15:07:33.0000000+00:00</time></trkpt><trkpt lat="63.93425369" lon="-20.66881371"><ele>48.1</ele><time>2012-07-27T15:07:38.0000000+00:00</time></trkpt><trkpt lat="63.93442535" lon="-20.66890907"><ele>48.2</ele><time>2012-07-27T15:07:43.0000000+00:00</time></trkpt><trkpt lat="63.93458176" lon="-20.668993"><ele>48.4</ele><time>2012-07-27T15:07:48.0000000+00:00</time></trkpt><trkpt lat="63.93473816" lon="-20.66907501"><ele>46.2</ele><time>2012-07-27T15:07:53.0000000+00:00</time></trkpt><trkpt lat="63.93489456" lon="-20.6691494"><ele>45.9</ele><time>2012-07-27T15:07:58.0000000+00:00</time></trkpt><trkpt lat="63.93506241" lon="-20.66921043"><ele>48.3</ele><time>2012-07-27T15:08:03.0000000+00:00</time></trkpt><trkpt lat="63.93523026" lon="-20.66929436"><ele>46.2</ele><time>2012-07-27T15:08:08.0000000+00:00</time></trkpt><trkpt lat="63.93540192" lon="-20.66937637"><ele>44.8</ele><time>2012-07-27T15:08:13.0000000+00:00</time></trkpt><trkpt lat="63.93557739" lon="-20.66944313"><ele>44.1</ele><time>2012-07-27T15:08:18.0000000+00:00</time></trkpt><trkpt lat="63.93575287" lon="-20.66950989"><ele>43.0</ele><time>2012-07-27T15:08:23.0000000+00:00</time></trkpt><trkpt lat="63.93593216" lon="-20.6695652"><ele>44.7</ele><time>2012-07-27T15:08:28.0000000+00:00</time></trkpt><trkpt lat="63.93611908" lon="-20.6696167"><ele>44.7</ele><time>2012-07-27T15:08:33.0000000+00:00</time></trkpt><trkpt lat="63.93630219" lon="-20.66966629"><ele>44.8</ele><time>2012-07-27T15:08:38.0000000+00:00</time></trkpt><trkpt lat="63.93650055" lon="-20.66973114"><ele>44.0</ele><time>2012-07-27T15:08:43.0000000+00:00</time></trkpt><trkpt lat="63.93669128" lon="-20.66978455"><ele>43.2</ele><time>2012-07-27T15:08:48.0000000+00:00</time></trkpt><trkpt lat="63.93688202" lon="-20.66982651"><ele>43.6</ele><time>2012-07-27T15:08:53.0000000+00:00</time></trkpt><trkpt lat="63.93707657" lon="-20.66987228"><ele>42.4</ele><time>2012-07-27T15:08:58.0000000+00:00</time></trkpt><trkpt lat="63.93723297" lon="-20.66990662"><ele>41.6</ele><time>2012-07-27T15:09:03.0000000+00:00</time></trkpt><trkpt lat="63.93737793" lon="-20.66995621"><ele>40.4</ele><time>2012-07-27T15:09:08.0000000+00:00</time></trkpt><trkpt lat="63.93753815" lon="-20.67001915"><ele>37.8</ele><time>2012-07-27T15:09:13.0000000+00:00</time></trkpt><trkpt lat="63.93772125" lon="-20.67007065"><ele>37.6</ele><time>2012-07-27T15:09:18.0000000+00:00</time></trkpt><trkpt lat="63.93790817" lon="-20.67012978"><ele>37.8</ele><time>2012-07-27T15:09:23.0000000+00:00</time></trkpt><trkpt lat="63.93809509" lon="-20.67019463"><ele>36.6</ele><time>2012-07-27T15:09:28.0000000+00:00</time></trkpt><trkpt lat="63.93827438" lon="-20.67025566"><ele>36.7</ele><time>2012-07-27T15:09:33.0000000+00:00</time></trkpt><trkpt lat="63.93845367" lon="-20.67029762"><ele>41.3</ele><time>2012-07-27T15:09:38.0000000+00:00</time></trkpt><trkpt lat="63.93862915" lon="-20.67034531"><ele>45.5</ele><time>2012-07-27T15:09:43.0000000+00:00</time></trkpt><trkpt lat="63.93883133" lon="-20.67039871"><ele>52.1</ele><time>2012-07-27T15:09:48.0000000+00:00</time></trkpt><trkpt lat="63.93902206" lon="-20.67046738"><ele>56.6</ele><time>2012-07-27T15:09:53.0000000+00:00</time></trkpt><trkpt lat="63.93921661" lon="-20.67055512"><ele>58.0</ele><time>2012-07-27T15:09:58.0000000+00:00</time></trkpt><trkpt lat="63.93938065" lon="-20.67061234"><ele>60.8</ele><time>2012-07-27T15:10:03.0000000+00:00</time></trkpt><trkpt lat="63.93956375" lon="-20.67069244"><ele>63.1</ele><time>2012-07-27T15:10:08.0000000+00:00</time></trkpt><trkpt lat="63.93973541" lon="-20.67080498"><ele>61.5</ele><time>2012-07-27T15:10:13.0000000+00:00</time></trkpt><trkpt lat="63.93991852" lon="-20.67094612"><ele>60.7</ele><time>2012-07-27T15:10:18.0000000+00:00</time></trkpt><trkpt lat="63.94008637" lon="-20.67107201"><ele>59.4</ele><time>2012-07-27T15:10:23.0000000+00:00</time></trkpt><trkpt lat="63.94026184" lon="-20.67120743"><ele>58.0</ele><time>2012-07-27T15:10:28.0000000+00:00</time></trkpt><trkpt lat="63.94042969" lon="-20.67136192"><ele>55.7</ele><time>2012-07-27T15:10:33.0000000+00:00</time></trkpt><trkpt lat="63.94058991" lon="-20.67148018"><ele>56.1</ele><time>2012-07-27T15:10:38.0000000+00:00</time></trkpt><trkpt lat="63.94075775" lon="-20.67165947"><ele>55.6</ele><time>2012-07-27T15:10:43.0000000+00:00</time></trkpt><trkpt lat="63.94093323" lon="-20.67182732"><ele>56.2</ele><time>2012-07-27T15:10:48.0000000+00:00</time></trkpt><trkpt lat="63.94110107" lon="-20.67199898"><ele>55.8</ele><time>2012-07-27T15:10:53.0000000+00:00</time></trkpt><trkpt lat="63.94124985" lon="-20.67215538"><ele>55.8</ele><time>2012-07-27T15:10:58.0000000+00:00</time></trkpt><trkpt lat="63.94141769" lon="-20.67231369"><ele>59.8</ele><time>2012-07-27T15:11:03.0000000+00:00</time></trkpt><trkpt lat="63.94158173" lon="-20.67251778"><ele>58.0</ele><time>2012-07-27T15:11:08.0000000+00:00</time></trkpt><trkpt lat="63.94174194" lon="-20.6727314"><ele>57.8</ele><time>2012-07-27T15:11:13.0000000+00:00</time></trkpt><trkpt lat="63.94187927" lon="-20.67289162"><ele>57.8</ele><time>2012-07-27T15:11:18.0000000+00:00</time></trkpt><trkpt lat="63.94203568" lon="-20.67311478"><ele>56.0</ele><time>2012-07-27T15:11:23.0000000+00:00</time></trkpt><trkpt lat="63.94218445" lon="-20.67334366"><ele>55.3</ele><time>2012-07-27T15:11:28.0000000+00:00</time></trkpt><trkpt lat="63.94233322" lon="-20.67354965"><ele>54.5</ele><time>2012-07-27T15:11:33.0000000+00:00</time></trkpt><trkpt lat="63.94249344" lon="-20.67378235"><ele>53.7</ele><time>2012-07-27T15:11:38.0000000+00:00</time></trkpt><trkpt lat="63.94265747" lon="-20.67402077"><ele>53.7</ele><time>2012-07-27T15:11:43.0000000+00:00</time></trkpt><trkpt lat="63.94282532" lon="-20.67428017"><ele>53.9</ele><time>2012-07-27T15:11:48.0000000+00:00</time></trkpt><trkpt lat="63.94298554" lon="-20.6745472"><ele>54.3</ele><time>2012-07-27T15:11:53.0000000+00:00</time></trkpt><trkpt lat="63.94312668" lon="-20.6748066"><ele>53.7</ele><time>2012-07-27T15:11:58.0000000+00:00</time></trkpt><trkpt lat="63.94327927" lon="-20.67506599"><ele>52.0</ele><time>2012-07-27T15:12:03.0000000+00:00</time></trkpt><trkpt lat="63.9434166" lon="-20.67534256"><ele>52.1</ele><time>2012-07-27T15:12:08.0000000+00:00</time></trkpt><trkpt lat="63.9435463" lon="-20.67562103"><ele>51.8</ele><time>2012-07-27T15:12:13.0000000+00:00</time></trkpt><trkpt lat="63.94368744" lon="-20.67591858"><ele>51.8</ele><time>2012-07-27T15:12:18.0000000+00:00</time></trkpt><trkpt lat="63.94380951" lon="-20.67616844"><ele>52.0</ele><time>2012-07-27T15:12:23.0000000+00:00</time></trkpt><trkpt lat="63.94395447" lon="-20.6764698"><ele>51.3</ele><time>2012-07-27T15:12:28.0000000+00:00</time></trkpt><trkpt lat="63.94407272" lon="-20.6767292"><ele>50.9</ele><time>2012-07-27T15:12:33.0000000+00:00</time></trkpt><trkpt lat="63.94421005" lon="-20.67698669"><ele>51.2</ele><time>2012-07-27T15:12:38.0000000+00:00</time></trkpt><trkpt lat="63.94434357" lon="-20.67729378"><ele>51.5</ele><time>2012-07-27T15:12:43.0000000+00:00</time></trkpt><trkpt lat="63.94448471" lon="-20.67756462"><ele>52.9</ele><time>2012-07-27T15:12:48.0000000+00:00</time></trkpt><trkpt lat="63.94460678" lon="-20.67784119"><ele>54.6</ele><time>2012-07-27T15:12:53.0000000+00:00</time></trkpt><trkpt lat="63.94473648" lon="-20.67809868"><ele>55.2</ele><time>2012-07-27T15:12:58.0000000+00:00</time></trkpt><trkpt lat="63.94487381" lon="-20.67837715"><ele>56.6</ele><time>2012-07-27T15:13:03.0000000+00:00</time></trkpt><trkpt lat="63.94501114" lon="-20.67865181"><ele>57.2</ele><time>2012-07-27T15:13:08.0000000+00:00</time></trkpt><trkpt lat="63.94512177" lon="-20.67887116"><ele>56.6</ele><time>2012-07-27T15:13:13.0000000+00:00</time></trkpt><trkpt lat="63.94525147" lon="-20.6791172"><ele>55.5</ele><time>2012-07-27T15:13:18.0000000+00:00</time></trkpt><trkpt lat="63.94539642" lon="-20.67937851"><ele>55.7</ele><time>2012-07-27T15:13:23.0000000+00:00</time></trkpt><trkpt lat="63.94552231" lon="-20.67962074"><ele>55.5</ele><time>2012-07-27T15:13:28.0000000+00:00</time></trkpt><trkpt lat="63.94563675" lon="-20.67986488"><ele>55.1</ele><time>2012-07-27T15:13:33.0000000+00:00</time></trkpt><trkpt lat="63.94577408" lon="-20.68015099"><ele>54.8</ele><time>2012-07-27T15:13:38.0000000+00:00</time></trkpt><trkpt lat="63.94591522" lon="-20.68043137"><ele>54.6</ele><time>2012-07-27T15:13:43.0000000+00:00</time></trkpt><trkpt lat="63.94604111" lon="-20.68065643"><ele>55.0</ele><time>2012-07-27T15:13:48.0000000+00:00</time></trkpt><trkpt lat="63.94616318" lon="-20.68088913"><ele>54.5</ele><time>2012-07-27T15:13:53.0000000+00:00</time></trkpt><trkpt lat="63.94630814" lon="-20.6811657"><ele>54.8</ele><time>2012-07-27T15:13:58.0000000+00:00</time></trkpt><trkpt lat="63.94645309" lon="-20.6814003"><ele>55.7</ele><time>2012-07-27T15:14:03.0000000+00:00</time></trkpt><trkpt lat="63.94654465" lon="-20.68157578"><ele>55.3</ele><time>2012-07-27T15:14:08.0000000+00:00</time></trkpt><trkpt lat="63.9466629" lon="-20.68181992"><ele>54.6</ele><time>2012-07-27T15:14:13.0000000+00:00</time></trkpt><trkpt lat="63.94678497" lon="-20.68205833"><ele>55.2</ele><time>2012-07-27T15:14:18.0000000+00:00</time></trkpt><trkpt lat="63.94685745" lon="-20.68218613"><ele>55.1</ele><time>2012-07-27T15:14:23.0000000+00:00</time></trkpt><trkpt lat="63.94688034" lon="-20.68222237"><ele>55.0</ele><time>2012-07-27T15:14:28.0000000+00:00</time></trkpt><trkpt lat="63.94688034" lon="-20.68221855"><ele>54.9</ele><time>2012-07-27T15:14:33.0000000+00:00</time></trkpt><trkpt lat="63.94688034" lon="-20.68222046"><ele>54.9</ele><time>2012-07-27T15:14:38.0000000+00:00</time></trkpt><trkpt lat="63.94688034" lon="-20.68222046"><ele>54.8</ele><time>2012-07-27T15:14:43.0000000+00:00</time></trkpt><trkpt lat="63.94688034" lon="-20.68221855"><ele>54.9</ele><time>2012-07-27T15:14:48.0000000+00:00</time></trkpt><trkpt lat="63.94688034" lon="-20.68221855"><ele>54.9</ele><time>2012-07-27T15:14:53.0000000+00:00</time></trkpt><trkpt lat="63.94688034" lon="-20.68222046"><ele>54.9</ele><time>2012-07-27T15:14:58.0000000+00:00</time></trkpt><trkpt lat="63.94688034" lon="-20.68221855"><ele>55.0</ele><time>2012-07-27T15:15:03.0000000+00:00</time></trkpt><trkpt lat="63.94688034" lon="-20.68221855"><ele>55.0</ele><time>2012-07-27T15:15:08.0000000+00:00</time></trkpt><trkpt lat="63.94688034" lon="-20.68221855"><ele>55.0</ele><time>2012-07-27T15:15:13.0000000+00:00</time></trkpt><trkpt lat="63.94688034" lon="-20.68221855"><ele>55.0</ele><time>2012-07-27T15:15:18.0000000+00:00</time></trkpt><trkpt lat="63.94688034" lon="-20.68222046"><ele>55.0</ele><time>2012-07-27T15:15:23.0000000+00:00</time></trkpt><trkpt lat="63.94688034" lon="-20.68222046"><ele>55.0</ele><time>2012-07-27T15:15:28.0000000+00:00</time></trkpt><trkpt lat="63.94688034" lon="-20.68222046"><ele>55.0</ele><time>2012-07-27T15:15:33.0000000+00:00</time></trkpt><trkpt lat="63.94688034" lon="-20.68222046"><ele>55.0</ele><time>2012-07-27T15:15:38.0000000+00:00</time></trkpt><trkpt lat="63.94688034" lon="-20.68222046"><ele>55.0</ele><time>2012-07-27T15:15:43.0000000+00:00</time></trkpt><trkpt lat="63.94688034" lon="-20.68222046"><ele>55.0</ele><time>2012-07-27T15:15:48.0000000+00:00</time></trkpt><trkpt lat="63.94688034" lon="-20.68222046"><ele>55.0</ele><time>2012-07-27T15:15:53.0000000+00:00</time></trkpt><trkpt lat="63.94688034" lon="-20.68222046"><ele>55.0</ele><time>2012-07-27T15:15:58.0000000+00:00</time></trkpt><trkpt lat="63.94688034" lon="-20.68222046"><ele>55.0</ele><time>2012-07-27T15:16:03.0000000+00:00</time></trkpt><trkpt lat="63.94688034" lon="-20.68221855"><ele>55.0</ele><time>2012-07-27T15:16:08.0000000+00:00</time></trkpt><trkpt lat="63.94688034" lon="-20.68221855"><ele>55.0</ele><time>2012-07-27T15:16:13.0000000+00:00</time></trkpt><trkpt lat="63.94688034" lon="-20.68221855"><ele>55.0</ele><time>2012-07-27T15:16:18.0000000+00:00</time></trkpt><trkpt lat="63.94688034" lon="-20.68221855"><ele>55.0</ele><time>2012-07-27T15:16:23.0000000+00:00</time></trkpt><trkpt lat="63.94691467" lon="-20.68230629"><ele>55.1</ele><time>2012-07-27T15:16:28.0000000+00:00</time></trkpt><trkpt lat="63.94700241" lon="-20.68245506"><ele>55.1</ele><time>2012-07-27T15:16:33.0000000+00:00</time></trkpt><trkpt lat="63.94707489" lon="-20.68258476"><ele>55.1</ele><time>2012-07-27T15:16:38.0000000+00:00</time></trkpt><trkpt lat="63.94716263" lon="-20.68272209"><ele>55.1</ele><time>2012-07-27T15:16:43.0000000+00:00</time></trkpt><trkpt lat="63.94726181" lon="-20.68292999"><ele>54.8</ele><time>2012-07-27T15:16:48.0000000+00:00</time></trkpt><trkpt lat="63.94736099" lon="-20.68309021"><ele>54.9</ele><time>2012-07-27T15:16:53.0000000+00:00</time></trkpt><trkpt lat="63.94743729" lon="-20.68322182"><ele>54.6</ele><time>2012-07-27T15:16:58.0000000+00:00</time></trkpt><trkpt lat="63.94754791" lon="-20.68345833"><ele>55.7</ele><time>2012-07-27T15:17:03.0000000+00:00</time></trkpt><trkpt lat="63.94766998" lon="-20.68364143"><ele>56.1</ele><time>2012-07-27T15:17:08.0000000+00:00</time></trkpt><trkpt lat="63.94775772" lon="-20.68378639"><ele>56.2</ele><time>2012-07-27T15:17:13.0000000+00:00</time></trkpt><trkpt lat="63.94787216" lon="-20.68401527"><ele>55.7</ele><time>2012-07-27T15:17:18.0000000+00:00</time></trkpt><trkpt lat="63.94803619" lon="-20.68425751"><ele>56.1</ele><time>2012-07-27T15:17:23.0000000+00:00</time></trkpt><trkpt lat="63.94818497" lon="-20.68451119"><ele>56.6</ele><time>2012-07-27T15:17:28.0000000+00:00</time></trkpt><trkpt lat="63.94831848" lon="-20.6847229"><ele>56.3</ele><time>2012-07-27T15:17:33.0000000+00:00</time></trkpt><trkpt lat="63.94844437" lon="-20.68492699"><ele>56.4</ele><time>2012-07-27T15:17:38.0000000+00:00</time></trkpt><trkpt lat="63.94857407" lon="-20.68514633"><ele>56.0</ele><time>2012-07-27T15:17:43.0000000+00:00</time></trkpt><trkpt lat="63.94869232" lon="-20.68535233"><ele>56.4</ele><time>2012-07-27T15:17:48.0000000+00:00</time></trkpt><trkpt lat="63.94882202" lon="-20.68554878"><ele>56.3</ele><time>2012-07-27T15:17:53.0000000+00:00</time></trkpt><trkpt lat="63.94895554" lon="-20.68574905"><ele>56.4</ele><time>2012-07-27T15:17:58.0000000+00:00</time></trkpt><trkpt lat="63.94907761" lon="-20.68597412"><ele>55.6</ele><time>2012-07-27T15:18:03.0000000+00:00</time></trkpt><trkpt lat="63.94921875" lon="-20.68618774"><ele>55.5</ele><time>2012-07-27T15:18:08.0000000+00:00</time></trkpt><trkpt lat="63.94934845" lon="-20.68640137"><ele>55.3</ele><time>2012-07-27T15:18:13.0000000+00:00</time></trkpt><trkpt lat="63.94947815" lon="-20.68659782"><ele>55.3</ele><time>2012-07-27T15:18:18.0000000+00:00</time></trkpt><trkpt lat="63.94960403" lon="-20.68677902"><ele>54.8</ele><time>2012-07-27T15:18:23.0000000+00:00</time></trkpt><trkpt lat="63.9496994" lon="-20.6869545"><ele>54.7</ele><time>2012-07-27T15:18:28.0000000+00:00</time></trkpt><trkpt lat="63.94982147" lon="-20.68714142"><ele>54.4</ele><time>2012-07-27T15:18:33.0000000+00:00</time></trkpt><trkpt lat="63.94994736" lon="-20.68732452"><ele>54.2</ele><time>2012-07-27T15:18:38.0000000+00:00</time></trkpt><trkpt lat="63.95007324" lon="-20.68750954"><ele>54.3</ele><time>2012-07-27T15:18:43.0000000+00:00</time></trkpt><trkpt lat="63.95020676" lon="-20.68770218"><ele>54.0</ele><time>2012-07-27T15:18:48.0000000+00:00</time></trkpt><trkpt lat="63.9503212" lon="-20.6878891"><ele>54.3</ele><time>2012-07-27T15:18:53.0000000+00:00</time></trkpt><trkpt lat="63.95044708" lon="-20.68806839"><ele>54.2</ele><time>2012-07-27T15:18:58.0000000+00:00</time></trkpt><trkpt lat="63.95057297" lon="-20.68826485"><ele>53.9</ele><time>2012-07-27T15:19:03.0000000+00:00</time></trkpt><trkpt lat="63.95069504" lon="-20.68844795"><ele>54.3</ele><time>2012-07-27T15:19:08.0000000+00:00</time></trkpt><trkpt lat="63.95081329" lon="-20.68864822"><ele>53.8</ele><time>2012-07-27T15:19:13.0000000+00:00</time></trkpt><trkpt lat="63.95093155" lon="-20.68883324"><ele>53.9</ele><time>2012-07-27T15:19:18.0000000+00:00</time></trkpt><trkpt lat="63.95104218" lon="-20.68901825"><ele>54.1</ele><time>2012-07-27T15:19:23.0000000+00:00</time></trkpt><trkpt lat="63.95114136" lon="-20.68918037"><ele>53.6</ele><time>2012-07-27T15:19:28.0000000+00:00</time></trkpt><trkpt lat="63.95124817" lon="-20.68936348"><ele>52.6</ele><time>2012-07-27T15:19:33.0000000+00:00</time></trkpt><trkpt lat="63.95135498" lon="-20.68955231"><ele>52.8</ele><time>2012-07-27T15:19:38.0000000+00:00</time></trkpt><trkpt lat="63.95145416" lon="-20.68975449"><ele>53.6</ele><time>2012-07-27T15:19:43.0000000+00:00</time></trkpt><trkpt lat="63.95154953" lon="-20.68994141"><ele>56.9</ele><time>2012-07-27T15:19:48.0000000+00:00</time></trkpt><trkpt lat="63.95164108" lon="-20.69013786"><ele>57.0</ele><time>2012-07-27T15:19:53.0000000+00:00</time></trkpt><trkpt lat="63.95174027" lon="-20.69037247"><ele>57.1</ele><time>2012-07-27T15:19:58.0000000+00:00</time></trkpt><trkpt lat="63.95183563" lon="-20.69059944"><ele>56.7</ele><time>2012-07-27T15:20:03.0000000+00:00</time></trkpt><trkpt lat="63.951931" lon="-20.69083595"><ele>57.7</ele><time>2012-07-27T15:20:08.0000000+00:00</time></trkpt><trkpt lat="63.95201492" lon="-20.69106674"><ele>58.0</ele><time>2012-07-27T15:20:13.0000000+00:00</time></trkpt><trkpt lat="63.95210648" lon="-20.69133186"><ele>57.5</ele><time>2012-07-27T15:20:18.0000000+00:00</time></trkpt><trkpt lat="63.95219421" lon="-20.69160843"><ele>57.6</ele><time>2012-07-27T15:20:23.0000000+00:00</time></trkpt><trkpt lat="63.95228577" lon="-20.69189072"><ele>57.7</ele><time>2012-07-27T15:20:28.0000000+00:00</time></trkpt><trkpt lat="63.95237732" lon="-20.6921978"><ele>57.7</ele><time>2012-07-27T15:20:33.0000000+00:00</time></trkpt><trkpt lat="63.95245743" lon="-20.69252968"><ele>58.7</ele><time>2012-07-27T15:20:38.0000000+00:00</time></trkpt><trkpt lat="63.95253372" lon="-20.69285584"><ele>57.9</ele><time>2012-07-27T15:20:43.0000000+00:00</time></trkpt><trkpt lat="63.95261383" lon="-20.6932106"><ele>57.6</ele><time>2012-07-27T15:20:48.0000000+00:00</time></trkpt><trkpt lat="63.95269013" lon="-20.6935997"><ele>57.4</ele><time>2012-07-27T15:20:53.0000000+00:00</time></trkpt><trkpt lat="63.95275116" lon="-20.69394302"><ele>56.6</ele><time>2012-07-27T15:20:58.0000000+00:00</time></trkpt><trkpt lat="63.95280457" lon="-20.69429398"><ele>56.0</ele><time>2012-07-27T15:21:03.0000000+00:00</time></trkpt><trkpt lat="63.95285416" lon="-20.69467545"><ele>55.9</ele><time>2012-07-27T15:21:08.0000000+00:00</time></trkpt><trkpt lat="63.95291138" lon="-20.69506645"><ele>55.5</ele><time>2012-07-27T15:21:13.0000000+00:00</time></trkpt><trkpt lat="63.95294952" lon="-20.69543839"><ele>55.3</ele><time>2012-07-27T15:21:18.0000000+00:00</time></trkpt><trkpt lat="63.95298004" lon="-20.69585609"><ele>55.6</ele><time>2012-07-27T15:21:23.0000000+00:00</time></trkpt><trkpt lat="63.95301056" lon="-20.69628716"><ele>54.7</ele><time>2012-07-27T15:21:28.0000000+00:00</time></trkpt><trkpt lat="63.95302582" lon="-20.69669151"><ele>54.7</ele><time>2012-07-27T15:21:33.0000000+00:00</time></trkpt><trkpt lat="63.95303345" lon="-20.69711876"><ele>52.7</ele><time>2012-07-27T15:21:38.0000000+00:00</time></trkpt><trkpt lat="63.95302963" lon="-20.69755936"><ele>50.9</ele><time>2012-07-27T15:21:43.0000000+00:00</time></trkpt><trkpt lat="63.95302582" lon="-20.69804192"><ele>50.3</ele><time>2012-07-27T15:21:48.0000000+00:00</time></trkpt><trkpt lat="63.95302963" lon="-20.69855118"><ele>53.3</ele><time>2012-07-27T15:21:53.0000000+00:00</time></trkpt><trkpt lat="63.95301056" lon="-20.69911194"><ele>53.3</ele><time>2012-07-27T15:21:58.0000000+00:00</time></trkpt><trkpt lat="63.95300293" lon="-20.69968796"><ele>53.9</ele><time>2012-07-27T15:22:03.0000000+00:00</time></trkpt><trkpt lat="63.95299149" lon="-20.70019913"><ele>52.6</ele><time>2012-07-27T15:22:08.0000000+00:00</time></trkpt><trkpt lat="63.95308304" lon="-20.70058632"><ele>52.3</ele><time>2012-07-27T15:22:13.0000000+00:00</time></trkpt><trkpt lat="63.95315933" lon="-20.70080566"><ele>51.5</ele><time>2012-07-27T15:22:18.0000000+00:00</time></trkpt><trkpt lat="63.95316315" lon="-20.70081711"><ele>52.1</ele><time>2012-07-27T15:22:23.0000000+00:00</time></trkpt><trkpt lat="63.95316315" lon="-20.70081711"><ele>52.1</ele><time>2012-07-27T15:22:28.0000000+00:00</time></trkpt><trkpt lat="63.95316315" lon="-20.70081711"><ele>52.1</ele><time>2012-07-27T15:22:33.0000000+00:00</time></trkpt><trkpt lat="63.95316315" lon="-20.70081711"><ele>52.1</ele><time>2012-07-27T15:22:38.0000000+00:00</time></trkpt><trkpt lat="63.95316315" lon="-20.7008152"><ele>52.1</ele><time>2012-07-27T15:22:43.0000000+00:00</time></trkpt><trkpt lat="63.95316696" lon="-20.7008152"><ele>52.1</ele><time>2012-07-27T15:22:48.0000000+00:00</time></trkpt><trkpt lat="63.95316315" lon="-20.7008152"><ele>52.0</ele><time>2012-07-27T15:22:53.0000000+00:00</time></trkpt><trkpt lat="63.95316315" lon="-20.7008152"><ele>52.0</ele><time>2012-07-27T15:22:58.0000000+00:00</time></trkpt><trkpt lat="63.95316315" lon="-20.7008152"><ele>52.0</ele><time>2012-07-27T15:23:03.0000000+00:00</time></trkpt><trkpt lat="63.95316315" lon="-20.7008152"><ele>52.0</ele><time>2012-07-27T15:23:08.0000000+00:00</time></trkpt><trkpt lat="63.95316315" lon="-20.7008152"><ele>52.0</ele><time>2012-07-27T15:23:13.0000000+00:00</time></trkpt><trkpt lat="63.95316315" lon="-20.7008152"><ele>52.0</ele><time>2012-07-27T15:23:18.0000000+00:00</time></trkpt><trkpt lat="63.95316315" lon="-20.7008152"><ele>52.0</ele><time>2012-07-27T15:23:23.0000000+00:00</time></trkpt><trkpt lat="63.95316315" lon="-20.70082283"><ele>52.1</ele><time>2012-07-27T15:23:28.0000000+00:00</time></trkpt><trkpt lat="63.95316315" lon="-20.70092201"><ele>51.4</ele><time>2012-07-27T15:23:33.0000000+00:00</time></trkpt><trkpt lat="63.95315933" lon="-20.7010231"><ele>51.4</ele><time>2012-07-27T15:23:38.0000000+00:00</time></trkpt><trkpt lat="63.95315933" lon="-20.70105553"><ele>51.5</ele><time>2012-07-27T15:23:43.0000000+00:00</time></trkpt><trkpt lat="63.95317078" lon="-20.7010746"><ele>51.3</ele><time>2012-07-27T15:23:48.0000000+00:00</time></trkpt><trkpt lat="63.95317078" lon="-20.70107651"><ele>51.3</ele><time>2012-07-27T15:23:53.0000000+00:00</time></trkpt><trkpt lat="63.95317078" lon="-20.70107651"><ele>51.3</ele><time>2012-07-27T15:23:58.0000000+00:00</time></trkpt><trkpt lat="63.95317078" lon="-20.7010746"><ele>51.3</ele><time>2012-07-27T15:24:03.0000000+00:00</time></trkpt><trkpt lat="63.95317078" lon="-20.7010746"><ele>51.3</ele><time>2012-07-27T15:24:08.0000000+00:00</time></trkpt><trkpt lat="63.95317078" lon="-20.7010746"><ele>51.3</ele><time>2012-07-27T15:24:13.0000000+00:00</time></trkpt><trkpt lat="63.95317078" lon="-20.7010746"><ele>51.3</ele><time>2012-07-27T15:24:18.0000000+00:00</time></trkpt><trkpt lat="63.95317078" lon="-20.7010746"><ele>51.3</ele><time>2012-07-27T15:24:23.0000000+00:00</time></trkpt><trkpt lat="63.95317078" lon="-20.7010746"><ele>51.3</ele><time>2012-07-27T15:24:28.0000000+00:00</time></trkpt><trkpt lat="63.95317078" lon="-20.7010746"><ele>51.3</ele><time>2012-07-27T15:24:33.0000000+00:00</time></trkpt><trkpt lat="63.95317078" lon="-20.7010746"><ele>51.3</ele><time>2012-07-27T15:24:38.0000000+00:00</time></trkpt><trkpt lat="63.95317078" lon="-20.7010746"><ele>51.3</ele><time>2012-07-27T15:24:43.0000000+00:00</time></trkpt><trkpt lat="63.95317078" lon="-20.7010746"><ele>51.3</ele><time>2012-07-27T15:24:48.0000000+00:00</time></trkpt><trkpt lat="63.95317078" lon="-20.70107269"><ele>51.3</ele><time>2012-07-27T15:24:53.0000000+00:00</time></trkpt><trkpt lat="63.95317078" lon="-20.70107269"><ele>51.2</ele><time>2012-07-27T15:24:58.0000000+00:00</time></trkpt><trkpt lat="63.95317078" lon="-20.7010746"><ele>51.2</ele><time>2012-07-27T15:25:03.0000000+00:00</time></trkpt><trkpt lat="63.95317078" lon="-20.7010746"><ele>51.2</ele><time>2012-07-27T15:25:08.0000000+00:00</time></trkpt><trkpt lat="63.95317078" lon="-20.70107269"><ele>51.2</ele><time>2012-07-27T15:25:13.0000000+00:00</time></trkpt><trkpt lat="63.95317078" lon="-20.70107269"><ele>51.2</ele><time>2012-07-27T15:25:18.0000000+00:00</time></trkpt><trkpt lat="63.95317078" lon="-20.70107269"><ele>51.2</ele><time>2012-07-27T15:25:23.0000000+00:00</time></trkpt><trkpt lat="63.95317078" lon="-20.70107269"><ele>51.2</ele><time>2012-07-27T15:25:28.0000000+00:00</time></trkpt><trkpt lat="63.95317078" lon="-20.70107269"><ele>51.2</ele><time>2012-07-27T15:25:33.0000000+00:00</time></trkpt><trkpt lat="63.95317078" lon="-20.70107269"><ele>51.2</ele><time>2012-07-27T15:25:38.0000000+00:00</time></trkpt><trkpt lat="63.95317078" lon="-20.70107269"><ele>51.1</ele><time>2012-07-27T15:25:43.0000000+00:00</time></trkpt><trkpt lat="63.95317078" lon="-20.70107269"><ele>51.1</ele><time>2012-07-27T15:25:48.0000000+00:00</time></trkpt><trkpt lat="63.95317078" lon="-20.70107269"><ele>51.1</ele><time>2012-07-27T15:25:53.0000000+00:00</time></trkpt><trkpt lat="63.95317078" lon="-20.70107269"><ele>51.1</ele><time>2012-07-27T15:25:58.0000000+00:00</time></trkpt><trkpt lat="63.95317078" lon="-20.70107079"><ele>51.1</ele><time>2012-07-27T15:26:03.0000000+00:00</time></trkpt><trkpt lat="63.95317078" lon="-20.70107079"><ele>51.0</ele><time>2012-07-27T15:26:08.0000000+00:00</time></trkpt><trkpt lat="63.95317078" lon="-20.70107079"><ele>51.0</ele><time>2012-07-27T15:26:13.0000000+00:00</time></trkpt><trkpt lat="63.95317078" lon="-20.70107079"><ele>51.0</ele><time>2012-07-27T15:26:18.0000000+00:00</time></trkpt><trkpt lat="63.95317078" lon="-20.70107079"><ele>51.0</ele><time>2012-07-27T15:26:23.0000000+00:00</time></trkpt><trkpt lat="63.95317078" lon="-20.70107079"><ele>51.0</ele><time>2012-07-27T15:26:28.0000000+00:00</time></trkpt><trkpt lat="63.95317078" lon="-20.70107079"><ele>51.0</ele><time>2012-07-27T15:26:33.0000000+00:00</time></trkpt><trkpt lat="63.95317078" lon="-20.70107079"><ele>51.0</ele><time>2012-07-27T15:26:38.0000000+00:00</time></trkpt><trkpt lat="63.95317078" lon="-20.70107079"><ele>51.0</ele><time>2012-07-27T15:26:43.0000000+00:00</time></trkpt><trkpt lat="63.95317078" lon="-20.70107079"><ele>51.0</ele><time>2012-07-27T15:26:48.0000000+00:00</time></trkpt><trkpt lat="63.95317078" lon="-20.70107079"><ele>51.0</ele><time>2012-07-27T15:26:53.0000000+00:00</time></trkpt><trkpt lat="63.95317078" lon="-20.70107079"><ele>51.0</ele><time>2012-07-27T15:26:58.0000000+00:00</time></trkpt><trkpt lat="63.95316696" lon="-20.70107079"><ele>51.1</ele><time>2012-07-27T15:27:03.0000000+00:00</time></trkpt><trkpt lat="63.95316696" lon="-20.70107079"><ele>51.1</ele><time>2012-07-27T15:27:08.0000000+00:00</time></trkpt><trkpt lat="63.95316696" lon="-20.70107079"><ele>51.1</ele><time>2012-07-27T15:27:13.0000000+00:00</time></trkpt><trkpt lat="63.95316696" lon="-20.70107079"><ele>51.1</ele><time>2012-07-27T15:27:18.0000000+00:00</time></trkpt><trkpt lat="63.95316696" lon="-20.70107079"><ele>51.1</ele><time>2012-07-27T15:27:23.0000000+00:00</time></trkpt><trkpt lat="63.95316696" lon="-20.70107079"><ele>51.1</ele><time>2012-07-27T15:27:28.0000000+00:00</time></trkpt><trkpt lat="63.95316696" lon="-20.70107079"><ele>51.1</ele><time>2012-07-27T15:27:33.0000000+00:00</time></trkpt><trkpt lat="63.95316696" lon="-20.70107079"><ele>51.1</ele><time>2012-07-27T15:27:38.0000000+00:00</time></trkpt><trkpt lat="63.95316696" lon="-20.70107079"><ele>51.1</ele><time>2012-07-27T15:27:43.0000000+00:00</time></trkpt><trkpt lat="63.95316696" lon="-20.70107079"><ele>51.1</ele><time>2012-07-27T15:27:48.0000000+00:00</time></trkpt><trkpt lat="63.95316696" lon="-20.70107079"><ele>51.1</ele><time>2012-07-27T15:27:53.0000000+00:00</time></trkpt><trkpt lat="63.95316696" lon="-20.70107079"><ele>51.1</ele><time>2012-07-27T15:27:58.0000000+00:00</time></trkpt><trkpt lat="63.95316696" lon="-20.70107079"><ele>51.1</ele><time>2012-07-27T15:28:03.0000000+00:00</time></trkpt><trkpt lat="63.95316696" lon="-20.70107079"><ele>51.1</ele><time>2012-07-27T15:28:08.0000000+00:00</time></trkpt><trkpt lat="63.95316696" lon="-20.70107079"><ele>51.1</ele><time>2012-07-27T15:28:13.0000000+00:00</time></trkpt><trkpt lat="63.95316696" lon="-20.70107079"><ele>51.1</ele><time>2012-07-27T15:28:18.0000000+00:00</time></trkpt><trkpt lat="63.95316696" lon="-20.70107079"><ele>51.1</ele><time>2012-07-27T15:28:23.0000000+00:00</time></trkpt><trkpt lat="63.95316696" lon="-20.70107079"><ele>51.2</ele><time>2012-07-27T15:28:28.0000000+00:00</time></trkpt><trkpt lat="63.95316696" lon="-20.70107079"><ele>51.2</ele><time>2012-07-27T15:28:33.0000000+00:00</time></trkpt><trkpt lat="63.95316696" lon="-20.70107079"><ele>51.2</ele><time>2012-07-27T15:28:38.0000000+00:00</time></trkpt><trkpt lat="63.95316696" lon="-20.70107079"><ele>51.2</ele><time>2012-07-27T15:28:43.0000000+00:00</time></trkpt><trkpt lat="63.95316696" lon="-20.70107079"><ele>51.2</ele><time>2012-07-27T15:28:48.0000000+00:00</time></trkpt><trkpt lat="63.95316696" lon="-20.70107079"><ele>51.2</ele><time>2012-07-27T15:28:53.0000000+00:00</time></trkpt><trkpt lat="63.95316696" lon="-20.70107079"><ele>51.2</ele><time>2012-07-27T15:28:58.0000000+00:00</time></trkpt><trkpt lat="63.95316696" lon="-20.70107079"><ele>51.2</ele><time>2012-07-27T15:29:03.0000000+00:00</time></trkpt><trkpt lat="63.95316696" lon="-20.70106316"><ele>51.2</ele><time>2012-07-27T15:29:08.0000000+00:00</time></trkpt><trkpt lat="63.95315552" lon="-20.70103073"><ele>52.1</ele><time>2012-07-27T15:29:13.0000000+00:00</time></trkpt><trkpt lat="63.95313263" lon="-20.70113564"><ele>52.4</ele><time>2012-07-27T15:29:18.0000000+00:00</time></trkpt><trkpt lat="63.95310211" lon="-20.70132828"><ele>52.8</ele><time>2012-07-27T15:29:23.0000000+00:00</time></trkpt><trkpt lat="63.95309448" lon="-20.70158958"><ele>53.4</ele><time>2012-07-27T15:29:28.0000000+00:00</time></trkpt><trkpt lat="63.95307922" lon="-20.70181274"><ele>53.2</ele><time>2012-07-27T15:29:33.0000000+00:00</time></trkpt><trkpt lat="63.95302582" lon="-20.7020359"><ele>53.9</ele><time>2012-07-27T15:29:38.0000000+00:00</time></trkpt><trkpt lat="63.95296097" lon="-20.70240021"><ele>54.9</ele><time>2012-07-27T15:29:43.0000000+00:00</time></trkpt><trkpt lat="63.95294952" lon="-20.70288467"><ele>54.3</ele><time>2012-07-27T15:29:48.0000000+00:00</time></trkpt><trkpt lat="63.95293427" lon="-20.70340538"><ele>52.5</ele><time>2012-07-27T15:29:53.0000000+00:00</time></trkpt><trkpt lat="63.95293045" lon="-20.70396996"><ele>51.4</ele><time>2012-07-27T15:29:58.0000000+00:00</time></trkpt><trkpt lat="63.95291519" lon="-20.70455933"><ele>51.7</ele><time>2012-07-27T15:30:03.0000000+00:00</time></trkpt><trkpt lat="63.95290756" lon="-20.70517159"><ele>52.3</ele><time>2012-07-27T15:30:08.0000000+00:00</time></trkpt><trkpt lat="63.9528923" lon="-20.70576859"><ele>51.7</ele><time>2012-07-27T15:30:13.0000000+00:00</time></trkpt><trkpt lat="63.95286942" lon="-20.7063446"><ele>49.3</ele><time>2012-07-27T15:30:18.0000000+00:00</time></trkpt><trkpt lat="63.95285797" lon="-20.70686722"><ele>48.3</ele><time>2012-07-27T15:30:23.0000000+00:00</time></trkpt><trkpt lat="63.95284653" lon="-20.70739746"><ele>49.1</ele><time>2012-07-27T15:30:28.0000000+00:00</time></trkpt><trkpt lat="63.95284271" lon="-20.70793533"><ele>49.2</ele><time>2012-07-27T15:30:33.0000000+00:00</time></trkpt><trkpt lat="63.9528389" lon="-20.708498"><ele>49.7</ele><time>2012-07-27T15:30:38.0000000+00:00</time></trkpt><trkpt lat="63.95283127" lon="-20.70906258"><ele>49.8</ele><time>2012-07-27T15:30:43.0000000+00:00</time></trkpt><trkpt lat="63.95282745" lon="-20.70966148"><ele>50.3</ele><time>2012-07-27T15:30:48.0000000+00:00</time></trkpt><trkpt lat="63.95280838" lon="-20.71025467"><ele>49.9</ele><time>2012-07-27T15:30:53.0000000+00:00</time></trkpt><trkpt lat="63.95280075" lon="-20.71084976"><ele>50.5</ele><time>2012-07-27T15:30:58.0000000+00:00</time></trkpt><trkpt lat="63.95278549" lon="-20.71143341"><ele>51.1</ele><time>2012-07-27T15:31:03.0000000+00:00</time></trkpt><trkpt lat="63.95277405" lon="-20.71205902"><ele>51.8</ele><time>2012-07-27T15:31:08.0000000+00:00</time></trkpt><trkpt lat="63.95275879" lon="-20.71266747"><ele>51.6</ele><time>2012-07-27T15:31:13.0000000+00:00</time></trkpt><trkpt lat="63.95274735" lon="-20.71329117"><ele>51.4</ele><time>2012-07-27T15:31:18.0000000+00:00</time></trkpt><trkpt lat="63.95273972" lon="-20.71390724"><ele>51.8</ele><time>2012-07-27T15:31:23.0000000+00:00</time></trkpt><trkpt lat="63.95271301" lon="-20.71448898"><ele>51.2</ele><time>2012-07-27T15:31:28.0000000+00:00</time></trkpt><trkpt lat="63.95269394" lon="-20.71510124"><ele>51.2</ele><time>2012-07-27T15:31:33.0000000+00:00</time></trkpt><trkpt lat="63.95267868" lon="-20.7156868"><ele>52.5</ele><time>2012-07-27T15:31:38.0000000+00:00</time></trkpt><trkpt lat="63.95265579" lon="-20.71628571"><ele>53.8</ele><time>2012-07-27T15:31:43.0000000+00:00</time></trkpt><trkpt lat="63.95262146" lon="-20.71689987"><ele>54.0</ele><time>2012-07-27T15:31:48.0000000+00:00</time></trkpt><trkpt lat="63.95258331" lon="-20.71751595"><ele>54.4</ele><time>2012-07-27T15:31:53.0000000+00:00</time></trkpt><trkpt lat="63.95253754" lon="-20.7181282"><ele>55.0</ele><time>2012-07-27T15:31:58.0000000+00:00</time></trkpt><trkpt lat="63.95248032" lon="-20.71875763"><ele>55.6</ele><time>2012-07-27T15:32:03.0000000+00:00</time></trkpt><trkpt lat="63.95241547" lon="-20.71938515"><ele>56.4</ele><time>2012-07-27T15:32:08.0000000+00:00</time></trkpt><trkpt lat="63.95233536" lon="-20.7199955"><ele>57.0</ele><time>2012-07-27T15:32:13.0000000+00:00</time></trkpt><trkpt lat="63.95225906" lon="-20.72058868"><ele>57.7</ele><time>2012-07-27T15:32:18.0000000+00:00</time></trkpt><trkpt lat="63.95217133" lon="-20.72118378"><ele>58.1</ele><time>2012-07-27T15:32:23.0000000+00:00</time></trkpt><trkpt lat="63.95207214" lon="-20.72179794"><ele>62.0</ele><time>2012-07-27T15:32:28.0000000+00:00</time></trkpt><trkpt lat="63.9519577" lon="-20.72241211"><ele>59.8</ele><time>2012-07-27T15:32:33.0000000+00:00</time></trkpt><trkpt lat="63.95183945" lon="-20.72307205"><ele>60.0</ele><time>2012-07-27T15:32:38.0000000+00:00</time></trkpt><trkpt lat="63.95172119" lon="-20.72377205"><ele>59.0</ele><time>2012-07-27T15:32:43.0000000+00:00</time></trkpt><trkpt lat="63.95158005" lon="-20.72445297"><ele>59.0</ele><time>2012-07-27T15:32:48.0000000+00:00</time></trkpt><trkpt lat="63.95143509" lon="-20.72515869"><ele>56.7</ele><time>2012-07-27T15:32:53.0000000+00:00</time></trkpt><trkpt lat="63.95130539" lon="-20.72585106"><ele>58.0</ele><time>2012-07-27T15:32:58.0000000+00:00</time></trkpt><trkpt lat="63.9511795" lon="-20.72651863"><ele>57.3</ele><time>2012-07-27T15:33:03.0000000+00:00</time></trkpt><trkpt lat="63.95104981" lon="-20.727211"><ele>56.6</ele><time>2012-07-27T15:33:08.0000000+00:00</time></trkpt><trkpt lat="63.95092011" lon="-20.72785187"><ele>55.7</ele><time>2012-07-27T15:33:13.0000000+00:00</time></trkpt><trkpt lat="63.95078659" lon="-20.72851563"><ele>55.6</ele><time>2012-07-27T15:33:18.0000000+00:00</time></trkpt><trkpt lat="63.95065308" lon="-20.72922897"><ele>56.0</ele><time>2012-07-27T15:33:23.0000000+00:00</time></trkpt><trkpt lat="63.95052338" lon="-20.7299118"><ele>55.7</ele><time>2012-07-27T15:33:28.0000000+00:00</time></trkpt><trkpt lat="63.95039749" lon="-20.73062897"><ele>56.7</ele><time>2012-07-27T15:33:33.0000000+00:00</time></trkpt><trkpt lat="63.95025635" lon="-20.73137665"><ele>54.7</ele><time>2012-07-27T15:33:38.0000000+00:00</time></trkpt><trkpt lat="63.9501152" lon="-20.73207474"><ele>52.2</ele><time>2012-07-27T15:33:43.0000000+00:00</time></trkpt><trkpt lat="63.94997788" lon="-20.73278427"><ele>50.4</ele><time>2012-07-27T15:33:48.0000000+00:00</time></trkpt><trkpt lat="63.94984055" lon="-20.7335186"><ele>49.3</ele><time>2012-07-27T15:33:53.0000000+00:00</time></trkpt><trkpt lat="63.9496994" lon="-20.73426247"><ele>50.4</ele><time>2012-07-27T15:33:58.0000000+00:00</time></trkpt><trkpt lat="63.94956589" lon="-20.73502159"><ele>49.3</ele><time>2012-07-27T15:34:03.0000000+00:00</time></trkpt><trkpt lat="63.94942093" lon="-20.73576355"><ele>46.5</ele><time>2012-07-27T15:34:08.0000000+00:00</time></trkpt><trkpt lat="63.94929123" lon="-20.73649216"><ele>44.6</ele><time>2012-07-27T15:34:13.0000000+00:00</time></trkpt><trkpt lat="63.94917679" lon="-20.73713875"><ele>43.6</ele><time>2012-07-27T15:34:18.0000000+00:00</time></trkpt><trkpt lat="63.94906998" lon="-20.73778343"><ele>43.7</ele><time>2012-07-27T15:34:23.0000000+00:00</time></trkpt><trkpt lat="63.94895554" lon="-20.73844719"><ele>42.7</ele><time>2012-07-27T15:34:28.0000000+00:00</time></trkpt><trkpt lat="63.94883728" lon="-20.73911667"><ele>42.1</ele><time>2012-07-27T15:34:33.0000000+00:00</time></trkpt><trkpt lat="63.94873047" lon="-20.73981094"><ele>41.0</ele><time>2012-07-27T15:34:38.0000000+00:00</time></trkpt><trkpt lat="63.94863129" lon="-20.74049568"><ele>41.2</ele><time>2012-07-27T15:34:43.0000000+00:00</time></trkpt><trkpt lat="63.94853592" lon="-20.74117279"><ele>41.8</ele><time>2012-07-27T15:34:48.0000000+00:00</time></trkpt><trkpt lat="63.94843674" lon="-20.74188232"><ele>42.1</ele><time>2012-07-27T15:34:53.0000000+00:00</time></trkpt><trkpt lat="63.948349" lon="-20.74254417"><ele>40.8</ele><time>2012-07-27T15:34:58.0000000+00:00</time></trkpt><trkpt lat="63.94827271" lon="-20.74324226"><ele>40.8</ele><time>2012-07-27T15:35:03.0000000+00:00</time></trkpt><trkpt lat="63.94820786" lon="-20.7438755"><ele>42.6</ele><time>2012-07-27T15:35:08.0000000+00:00</time></trkpt><trkpt lat="63.94815064" lon="-20.7444706"><ele>44.5</ele><time>2012-07-27T15:35:13.0000000+00:00</time></trkpt><trkpt lat="63.94810486" lon="-20.74504852"><ele>45.1</ele><time>2012-07-27T15:35:18.0000000+00:00</time></trkpt><trkpt lat="63.94804382" lon="-20.74570084"><ele>44.5</ele><time>2012-07-27T15:35:23.0000000+00:00</time></trkpt><trkpt lat="63.9479866" lon="-20.74638939"><ele>44.2</ele><time>2012-07-27T15:35:28.0000000+00:00</time></trkpt><trkpt lat="63.94792938" lon="-20.74705124"><ele>43.2</ele><time>2012-07-27T15:35:33.0000000+00:00</time></trkpt><trkpt lat="63.94787598" lon="-20.74773216"><ele>43.1</ele><time>2012-07-27T15:35:38.0000000+00:00</time></trkpt><trkpt lat="63.94781876" lon="-20.7484417"><ele>42.6</ele><time>2012-07-27T15:35:43.0000000+00:00</time></trkpt><trkpt lat="63.94775391" lon="-20.74914932"><ele>42.2</ele><time>2012-07-27T15:35:48.0000000+00:00</time></trkpt><trkpt lat="63.94770432" lon="-20.74980545"><ele>43.6</ele><time>2012-07-27T15:35:53.0000000+00:00</time></trkpt><trkpt lat="63.94763947" lon="-20.7504139"><ele>43.9</ele><time>2012-07-27T15:35:58.0000000+00:00</time></trkpt><trkpt lat="63.94757843" lon="-20.75106812"><ele>45.4</ele><time>2012-07-27T15:36:03.0000000+00:00</time></trkpt><trkpt lat="63.94749832" lon="-20.75176239"><ele>45.1</ele><time>2012-07-27T15:36:08.0000000+00:00</time></trkpt><trkpt lat="63.94739914" lon="-20.75247002"><ele>44.5</ele><time>2012-07-27T15:36:13.0000000+00:00</time></trkpt><trkpt lat="63.9472847" lon="-20.75311089"><ele>42.5</ele><time>2012-07-27T15:36:18.0000000+00:00</time></trkpt><trkpt lat="63.94716263" lon="-20.75369263"><ele>41.7</ele><time>2012-07-27T15:36:23.0000000+00:00</time></trkpt><trkpt lat="63.9470253" lon="-20.75432587"><ele>41.6</ele><time>2012-07-27T15:36:28.0000000+00:00</time></trkpt><trkpt lat="63.94687271" lon="-20.75490379"><ele>39.6</ele><time>2012-07-27T15:36:33.0000000+00:00</time></trkpt><trkpt lat="63.94670487" lon="-20.75553703"><ele>35.2</ele><time>2012-07-27T15:36:38.0000000+00:00</time></trkpt><trkpt lat="63.94654846" lon="-20.75621986"><ele>33.1</ele><time>2012-07-27T15:36:43.0000000+00:00</time></trkpt><trkpt lat="63.94637299" lon="-20.75689507"><ele>32.5</ele><time>2012-07-27T15:36:48.0000000+00:00</time></trkpt><trkpt lat="63.94618607" lon="-20.75755119"><ele>29.0</ele><time>2012-07-27T15:36:53.0000000+00:00</time></trkpt><trkpt lat="63.94600678" lon="-20.75827217"><ele>29.6</ele><time>2012-07-27T15:36:58.0000000+00:00</time></trkpt><trkpt lat="63.94583511" lon="-20.75909424"><ele>32.6</ele><time>2012-07-27T15:37:03.0000000+00:00</time></trkpt><trkpt lat="63.94570541" lon="-20.75989533"><ele>36.6</ele><time>2012-07-27T15:37:08.0000000+00:00</time></trkpt><trkpt lat="63.94561768" lon="-20.76061058"><ele>37.6</ele><time>2012-07-27T15:37:13.0000000+00:00</time></trkpt><trkpt lat="63.94556046" lon="-20.76123619"><ele>41.2</ele><time>2012-07-27T15:37:18.0000000+00:00</time></trkpt><trkpt lat="63.94551849" lon="-20.76184082"><ele>42.8</ele><time>2012-07-27T15:37:23.0000000+00:00</time></trkpt><trkpt lat="63.94548416" lon="-20.76242828"><ele>44.6</ele><time>2012-07-27T15:37:28.0000000+00:00</time></trkpt><trkpt lat="63.9454422" lon="-20.76300621"><ele>44.9</ele><time>2012-07-27T15:37:33.0000000+00:00</time></trkpt><trkpt lat="63.94540787" lon="-20.76347351"><ele>45.1</ele><time>2012-07-27T15:37:38.0000000+00:00</time></trkpt><trkpt lat="63.94538498" lon="-20.76384163"><ele>45.5</ele><time>2012-07-27T15:37:43.0000000+00:00</time></trkpt><trkpt lat="63.94538498" lon="-20.76391602"><ele>45.4</ele><time>2012-07-27T15:37:48.0000000+00:00</time></trkpt><trkpt lat="63.94538498" lon="-20.76391602"><ele>45.4</ele><time>2012-07-27T15:37:53.0000000+00:00</time></trkpt><trkpt lat="63.94538498" lon="-20.76391602"><ele>45.4</ele><time>2012-07-27T15:37:58.0000000+00:00</time></trkpt><trkpt lat="63.94538117" lon="-20.76390839"><ele>45.1</ele><time>2012-07-27T15:38:03.0000000+00:00</time></trkpt><trkpt lat="63.94538117" lon="-20.76390648"><ele>44.6</ele><time>2012-07-27T15:38:08.0000000+00:00</time></trkpt><trkpt lat="63.94535446" lon="-20.76407051"><ele>44.8</ele><time>2012-07-27T15:38:13.0000000+00:00</time></trkpt><trkpt lat="63.94532776" lon="-20.76446533"><ele>45.5</ele><time>2012-07-27T15:38:18.0000000+00:00</time></trkpt><trkpt lat="63.94528198" lon="-20.76499939"><ele>45.7</ele><time>2012-07-27T15:38:23.0000000+00:00</time></trkpt><trkpt lat="63.94522858" lon="-20.76552582"><ele>46.3</ele><time>2012-07-27T15:38:28.0000000+00:00</time></trkpt><trkpt lat="63.94517517" lon="-20.76601601"><ele>45.5</ele><time>2012-07-27T15:38:33.0000000+00:00</time></trkpt><trkpt lat="63.94510651" lon="-20.76656532"><ele>45.4</ele><time>2012-07-27T15:38:38.0000000+00:00</time></trkpt><trkpt lat="63.9450264" lon="-20.7671566"><ele>45.2</ele><time>2012-07-27T15:38:43.0000000+00:00</time></trkpt><trkpt lat="63.94494629" lon="-20.7677803"><ele>45.6</ele><time>2012-07-27T15:38:48.0000000+00:00</time></trkpt><trkpt lat="63.94486237" lon="-20.76838303"><ele>44.0</ele><time>2012-07-27T15:38:53.0000000+00:00</time></trkpt><trkpt lat="63.94477463" lon="-20.76898193"><ele>44.3</ele><time>2012-07-27T15:38:58.0000000+00:00</time></trkpt><trkpt lat="63.94467926" lon="-20.7696228"><ele>44.0</ele><time>2012-07-27T15:39:03.0000000+00:00</time></trkpt><trkpt lat="63.94459152" lon="-20.77023315"><ele>42.6</ele><time>2012-07-27T15:39:08.0000000+00:00</time></trkpt><trkpt lat="63.94450378" lon="-20.77084732"><ele>41.9</ele><time>2012-07-27T15:39:13.0000000+00:00</time></trkpt><trkpt lat="63.94440079" lon="-20.7714653"><ele>42.2</ele><time>2012-07-27T15:39:18.0000000+00:00</time></trkpt><trkpt lat="63.94430161" lon="-20.77213669"><ele>42.4</ele><time>2012-07-27T15:39:23.0000000+00:00</time></trkpt><trkpt lat="63.94420624" lon="-20.77280235"><ele>42.3</ele><time>2012-07-27T15:39:28.0000000+00:00</time></trkpt><trkpt lat="63.9441185" lon="-20.77336502"><ele>43.0</ele><time>2012-07-27T15:39:33.0000000+00:00</time></trkpt><trkpt lat="63.94403076" lon="-20.77394104"><ele>42.2</ele><time>2012-07-27T15:39:38.0000000+00:00</time></trkpt><trkpt lat="63.94393158" lon="-20.77457047"><ele>42.4</ele><time>2012-07-27T15:39:43.0000000+00:00</time></trkpt><trkpt lat="63.94384384" lon="-20.77516556"><ele>43.9</ele><time>2012-07-27T15:39:48.0000000+00:00</time></trkpt><trkpt lat="63.9437561" lon="-20.77574158"><ele>43.1</ele><time>2012-07-27T15:39:53.0000000+00:00</time></trkpt><trkpt lat="63.94366074" lon="-20.77637672"><ele>41.3</ele><time>2012-07-27T15:39:58.0000000+00:00</time></trkpt><trkpt lat="63.94357681" lon="-20.77704811"><ele>41.7</ele><time>2012-07-27T15:40:03.0000000+00:00</time></trkpt><trkpt lat="63.94348908" lon="-20.77775383"><ele>44.6</ele><time>2012-07-27T15:40:08.0000000+00:00</time></trkpt><trkpt lat="63.94340897" lon="-20.77848625"><ele>42.8</ele><time>2012-07-27T15:40:13.0000000+00:00</time></trkpt><trkpt lat="63.94335175" lon="-20.77917862"><ele>43.7</ele><time>2012-07-27T15:40:18.0000000+00:00</time></trkpt><trkpt lat="63.94329071" lon="-20.77987671"><ele>43.3</ele><time>2012-07-27T15:40:23.0000000+00:00</time></trkpt><trkpt lat="63.94324875" lon="-20.78049278"><ele>43.9</ele><time>2012-07-27T15:40:28.0000000+00:00</time></trkpt><trkpt lat="63.9432106" lon="-20.78111076"><ele>45.2</ele><time>2012-07-27T15:40:33.0000000+00:00</time></trkpt><trkpt lat="63.94317627" lon="-20.78180695"><ele>44.2</ele><time>2012-07-27T15:40:38.0000000+00:00</time></trkpt><trkpt lat="63.94314957" lon="-20.78249168"><ele>46.3</ele><time>2012-07-27T15:40:43.0000000+00:00</time></trkpt><trkpt lat="63.94313049" lon="-20.78316689"><ele>46.1</ele><time>2012-07-27T15:40:48.0000000+00:00</time></trkpt><trkpt lat="63.94310761" lon="-20.78386307"><ele>46.9</ele><time>2012-07-27T15:40:53.0000000+00:00</time></trkpt><trkpt lat="63.94309998" lon="-20.78450012"><ele>49.3</ele><time>2012-07-27T15:40:58.0000000+00:00</time></trkpt><trkpt lat="63.94310379" lon="-20.78513908"><ele>48.5</ele><time>2012-07-27T15:41:03.0000000+00:00</time></trkpt><trkpt lat="63.94309235" lon="-20.78581619"><ele>48.6</ele><time>2012-07-27T15:41:08.0000000+00:00</time></trkpt><trkpt lat="63.94308853" lon="-20.78646278"><ele>51.0</ele><time>2012-07-27T15:41:13.0000000+00:00</time></trkpt><trkpt lat="63.94308472" lon="-20.78709412"><ele>51.6</ele><time>2012-07-27T15:41:18.0000000+00:00</time></trkpt><trkpt lat="63.94307709" lon="-20.78773689"><ele>50.9</ele><time>2012-07-27T15:41:23.0000000+00:00</time></trkpt><trkpt lat="63.94306564" lon="-20.78838921"><ele>50.1</ele><time>2012-07-27T15:41:28.0000000+00:00</time></trkpt><trkpt lat="63.94305801" lon="-20.78900909"><ele>49.7</ele><time>2012-07-27T15:41:33.0000000+00:00</time></trkpt><trkpt lat="63.94305801" lon="-20.78952408"><ele>48.4</ele><time>2012-07-27T15:41:38.0000000+00:00</time></trkpt><trkpt lat="63.94305039" lon="-20.78991509"><ele>48.3</ele><time>2012-07-27T15:41:43.0000000+00:00</time></trkpt><trkpt lat="63.94305039" lon="-20.79018593"><ele>48.7</ele><time>2012-07-27T15:41:48.0000000+00:00</time></trkpt><trkpt lat="63.94305039" lon="-20.7904644"><ele>51.7</ele><time>2012-07-27T15:41:53.0000000+00:00</time></trkpt><trkpt lat="63.94304657" lon="-20.79076386"><ele>50.5</ele><time>2012-07-27T15:41:58.0000000+00:00</time></trkpt><trkpt lat="63.94304657" lon="-20.79082108"><ele>49.5</ele><time>2012-07-27T15:42:03.0000000+00:00</time></trkpt><trkpt lat="63.94304657" lon="-20.79081917"><ele>49.4</ele><time>2012-07-27T15:42:08.0000000+00:00</time></trkpt><trkpt lat="63.94304657" lon="-20.79081917"><ele>49.3</ele><time>2012-07-27T15:42:13.0000000+00:00</time></trkpt><trkpt lat="63.94304657" lon="-20.79081917"><ele>49.4</ele><time>2012-07-27T15:42:18.0000000+00:00</time></trkpt><trkpt lat="63.94304657" lon="-20.79081726"><ele>49.4</ele><time>2012-07-27T15:42:23.0000000+00:00</time></trkpt><trkpt lat="63.94304657" lon="-20.79081917"><ele>49.4</ele><time>2012-07-27T15:42:28.0000000+00:00</time></trkpt><trkpt lat="63.94305039" lon="-20.79081726"><ele>49.4</ele><time>2012-07-27T15:42:33.0000000+00:00</time></trkpt><trkpt lat="63.94304657" lon="-20.79081917"><ele>49.4</ele><time>2012-07-27T15:42:38.0000000+00:00</time></trkpt><trkpt lat="63.94304657" lon="-20.79081917"><ele>49.4</ele><time>2012-07-27T15:42:43.0000000+00:00</time></trkpt><trkpt lat="63.94305039" lon="-20.79081917"><ele>49.4</ele><time>2012-07-27T15:42:48.0000000+00:00</time></trkpt><trkpt lat="63.94305039" lon="-20.79081917"><ele>49.4</ele><time>2012-07-27T15:42:53.0000000+00:00</time></trkpt><trkpt lat="63.94305039" lon="-20.79081917"><ele>49.4</ele><time>2012-07-27T15:42:58.0000000+00:00</time></trkpt><trkpt lat="63.94303513" lon="-20.7908783"><ele>49.1</ele><time>2012-07-27T15:43:03.0000000+00:00</time></trkpt><trkpt lat="63.9430275" lon="-20.79121208"><ele>49.2</ele><time>2012-07-27T15:43:08.0000000+00:00</time></trkpt><trkpt lat="63.9430275" lon="-20.79173088"><ele>48.9</ele><time>2012-07-27T15:43:13.0000000+00:00</time></trkpt><trkpt lat="63.94302368" lon="-20.79232025"><ele>49.1</ele><time>2012-07-27T15:43:18.0000000+00:00</time></trkpt><trkpt lat="63.94301224" lon="-20.79290009"><ele>48.6</ele><time>2012-07-27T15:43:23.0000000+00:00</time></trkpt><trkpt lat="63.94300842" lon="-20.79349327"><ele>46.2</ele><time>2012-07-27T15:43:28.0000000+00:00</time></trkpt><trkpt lat="63.94299698" lon="-20.79405212"><ele>45.2</ele><time>2012-07-27T15:43:33.0000000+00:00</time></trkpt><trkpt lat="63.94300461" lon="-20.79461479"><ele>44.1</ele><time>2012-07-27T15:43:38.0000000+00:00</time></trkpt><trkpt lat="63.94299316" lon="-20.79508972"><ele>44.2</ele><time>2012-07-27T15:43:43.0000000+00:00</time></trkpt><trkpt lat="63.94299316" lon="-20.79556847"><ele>43.3</ele><time>2012-07-27T15:43:48.0000000+00:00</time></trkpt><trkpt lat="63.94298172" lon="-20.7961216"><ele>42.9</ele><time>2012-07-27T15:43:53.0000000+00:00</time></trkpt><trkpt lat="63.94298172" lon="-20.79675102"><ele>46.9</ele><time>2012-07-27T15:43:58.0000000+00:00</time></trkpt><trkpt lat="63.94297028" lon="-20.79739952"><ele>46.6</ele><time>2012-07-27T15:44:03.0000000+00:00</time></trkpt><trkpt lat="63.94296265" lon="-20.79806328"><ele>46.6</ele><time>2012-07-27T15:44:08.0000000+00:00</time></trkpt><trkpt lat="63.94295502" lon="-20.79872704"><ele>46.5</ele><time>2012-07-27T15:44:13.0000000+00:00</time></trkpt><trkpt lat="63.94294739" lon="-20.79940224"><ele>45.9</ele><time>2012-07-27T15:44:18.0000000+00:00</time></trkpt><trkpt lat="63.94293976" lon="-20.80010605"><ele>45.3</ele><time>2012-07-27T15:44:23.0000000+00:00</time></trkpt><trkpt lat="63.94293213" lon="-20.80082512"><ele>45.0</ele><time>2012-07-27T15:44:28.0000000+00:00</time></trkpt><trkpt lat="63.94292069" lon="-20.80156326"><ele>45.3</ele><time>2012-07-27T15:44:33.0000000+00:00</time></trkpt><trkpt lat="63.94291687" lon="-20.80231285"><ele>45.3</ele><time>2012-07-27T15:44:38.0000000+00:00</time></trkpt><trkpt lat="63.94290924" lon="-20.80307579"><ele>44.7</ele><time>2012-07-27T15:44:43.0000000+00:00</time></trkpt><trkpt lat="63.94290543" lon="-20.80377007"><ele>43.8</ele><time>2012-07-27T15:44:48.0000000+00:00</time></trkpt><trkpt lat="63.94289398" lon="-20.80448151"><ele>43.0</ele><time>2012-07-27T15:44:53.0000000+00:00</time></trkpt><trkpt lat="63.94287872" lon="-20.80522347"><ele>42.6</ele><time>2012-07-27T15:44:58.0000000+00:00</time></trkpt><trkpt lat="63.94287109" lon="-20.80594063"><ele>42.6</ele><time>2012-07-27T15:45:03.0000000+00:00</time></trkpt><trkpt lat="63.94286346" lon="-20.80658341"><ele>42.0</ele><time>2012-07-27T15:45:08.0000000+00:00</time></trkpt><trkpt lat="63.94285965" lon="-20.80725098"><ele>42.0</ele><time>2012-07-27T15:45:13.0000000+00:00</time></trkpt><trkpt lat="63.94285202" lon="-20.80794144"><ele>41.4</ele><time>2012-07-27T15:45:18.0000000+00:00</time></trkpt><trkpt lat="63.94284821" lon="-20.80863953"><ele>41.6</ele><time>2012-07-27T15:45:23.0000000+00:00</time></trkpt><trkpt lat="63.94284058" lon="-20.80927658"><ele>41.6</ele><time>2012-07-27T15:45:28.0000000+00:00</time></trkpt><trkpt lat="63.94283676" lon="-20.80985451"><ele>41.3</ele><time>2012-07-27T15:45:33.0000000+00:00</time></trkpt><trkpt lat="63.9428215" lon="-20.81046295"><ele>38.4</ele><time>2012-07-27T15:45:38.0000000+00:00</time></trkpt><trkpt lat="63.94281387" lon="-20.81111145"><ele>38.1</ele><time>2012-07-27T15:45:43.0000000+00:00</time></trkpt><trkpt lat="63.94280243" lon="-20.81177521"><ele>36.8</ele><time>2012-07-27T15:45:48.0000000+00:00</time></trkpt><trkpt lat="63.94280243" lon="-20.8124752"><ele>36.0</ele><time>2012-07-27T15:45:53.0000000+00:00</time></trkpt><trkpt lat="63.94279862" lon="-20.81319046"><ele>35.5</ele><time>2012-07-27T15:45:58.0000000+00:00</time></trkpt><trkpt lat="63.9427948" lon="-20.81390381"><ele>35.5</ele><time>2012-07-27T15:46:03.0000000+00:00</time></trkpt><trkpt lat="63.94278717" lon="-20.81454849"><ele>36.1</ele><time>2012-07-27T15:46:08.0000000+00:00</time></trkpt><trkpt lat="63.9427681" lon="-20.81513977"><ele>37.1</ele><time>2012-07-27T15:46:13.0000000+00:00</time></trkpt><trkpt lat="63.94276047" lon="-20.81575584"><ele>39.3</ele><time>2012-07-27T15:46:18.0000000+00:00</time></trkpt><trkpt lat="63.94275665" lon="-20.81637764"><ele>38.1</ele><time>2012-07-27T15:46:23.0000000+00:00</time></trkpt><trkpt lat="63.94275665" lon="-20.81703377"><ele>37.0</ele><time>2012-07-27T15:46:28.0000000+00:00</time></trkpt><trkpt lat="63.94274902" lon="-20.81769562"><ele>36.6</ele><time>2012-07-27T15:46:33.0000000+00:00</time></trkpt><trkpt lat="63.94274139" lon="-20.81838417"><ele>36.7</ele><time>2012-07-27T15:46:38.0000000+00:00</time></trkpt><trkpt lat="63.94273758" lon="-20.8190155"><ele>36.1</ele><time>2012-07-27T15:46:43.0000000+00:00</time></trkpt><trkpt lat="63.94273758" lon="-20.81952858"><ele>36.6</ele><time>2012-07-27T15:46:48.0000000+00:00</time></trkpt><trkpt lat="63.94274139" lon="-20.82004929"><ele>36.5</ele><time>2012-07-27T15:46:53.0000000+00:00</time></trkpt><trkpt lat="63.94273758" lon="-20.82060814"><ele>36.1</ele><time>2012-07-27T15:46:58.0000000+00:00</time></trkpt><trkpt lat="63.94272614" lon="-20.82120895"><ele>38.0</ele><time>2012-07-27T15:47:03.0000000+00:00</time></trkpt><trkpt lat="63.94271088" lon="-20.82188034"><ele>38.2</ele><time>2012-07-27T15:47:08.0000000+00:00</time></trkpt><trkpt lat="63.94272232" lon="-20.82255364"><ele>38.1</ele><time>2012-07-27T15:47:13.0000000+00:00</time></trkpt><trkpt lat="63.94274139" lon="-20.82327652"><ele>37.2</ele><time>2012-07-27T15:47:18.0000000+00:00</time></trkpt><trkpt lat="63.94277191" lon="-20.82396317"><ele>37.0</ele><time>2012-07-27T15:47:23.0000000+00:00</time></trkpt><trkpt lat="63.94280624" lon="-20.82463455"><ele>36.7</ele><time>2012-07-27T15:47:28.0000000+00:00</time></trkpt><trkpt lat="63.94286728" lon="-20.82531929"><ele>36.6</ele><time>2012-07-27T15:47:33.0000000+00:00</time></trkpt><trkpt lat="63.94291306" lon="-20.82590294"><ele>36.6</ele><time>2012-07-27T15:47:38.0000000+00:00</time></trkpt><trkpt lat="63.94295502" lon="-20.82645416"><ele>36.6</ele><time>2012-07-27T15:47:43.0000000+00:00</time></trkpt><trkpt lat="63.94300079" lon="-20.82708359"><ele>36.8</ele><time>2012-07-27T15:47:48.0000000+00:00</time></trkpt><trkpt lat="63.94304657" lon="-20.82773209"><ele>36.9</ele><time>2012-07-27T15:47:53.0000000+00:00</time></trkpt><trkpt lat="63.94310761" lon="-20.8284092"><ele>36.9</ele><time>2012-07-27T15:47:58.0000000+00:00</time></trkpt><trkpt lat="63.94317627" lon="-20.82911491"><ele>36.5</ele><time>2012-07-27T15:48:03.0000000+00:00</time></trkpt><trkpt lat="63.94323731" lon="-20.82977867"><ele>37.4</ele><time>2012-07-27T15:48:08.0000000+00:00</time></trkpt><trkpt lat="63.94327927" lon="-20.83043098"><ele>37.7</ele><time>2012-07-27T15:48:13.0000000+00:00</time></trkpt><trkpt lat="63.94331741" lon="-20.83106232"><ele>37.8</ele><time>2012-07-27T15:48:18.0000000+00:00</time></trkpt><trkpt lat="63.94335938" lon="-20.8316555"><ele>37.7</ele><time>2012-07-27T15:48:23.0000000+00:00</time></trkpt><trkpt lat="63.94340515" lon="-20.83226967"><ele>37.8</ele><time>2012-07-27T15:48:28.0000000+00:00</time></trkpt><trkpt lat="63.9434433" lon="-20.83283043"><ele>38.0</ele><time>2012-07-27T15:48:33.0000000+00:00</time></trkpt><trkpt lat="63.94347382" lon="-20.83340836"><ele>37.7</ele><time>2012-07-27T15:48:38.0000000+00:00</time></trkpt><trkpt lat="63.94350433" lon="-20.83396149"><ele>37.9</ele><time>2012-07-27T15:48:43.0000000+00:00</time></trkpt><trkpt lat="63.94354248" lon="-20.83440971"><ele>37.7</ele><time>2012-07-27T15:48:48.0000000+00:00</time></trkpt><trkpt lat="63.94358063" lon="-20.83484078"><ele>36.6</ele><time>2012-07-27T15:48:53.0000000+00:00</time></trkpt><trkpt lat="63.94360733" lon="-20.83540916"><ele>36.2</ele><time>2012-07-27T15:48:58.0000000+00:00</time></trkpt><trkpt lat="63.94362259" lon="-20.83605957"><ele>35.7</ele><time>2012-07-27T15:49:03.0000000+00:00</time></trkpt><trkpt lat="63.94365311" lon="-20.83669281"><ele>35.1</ele><time>2012-07-27T15:49:08.0000000+00:00</time></trkpt><trkpt lat="63.94367218" lon="-20.83724976"><ele>35.0</ele><time>2012-07-27T15:49:13.0000000+00:00</time></trkpt><trkpt lat="63.94368362" lon="-20.83779335"><ele>35.0</ele><time>2012-07-27T15:49:18.0000000+00:00</time></trkpt><trkpt lat="63.94369125" lon="-20.83839035"><ele>35.1</ele><time>2012-07-27T15:49:23.0000000+00:00</time></trkpt><trkpt lat="63.94371033" lon="-20.8390522"><ele>35.0</ele><time>2012-07-27T15:49:28.0000000+00:00</time></trkpt><trkpt lat="63.94372177" lon="-20.83976936"><ele>35.0</ele><time>2012-07-27T15:49:33.0000000+00:00</time></trkpt><trkpt lat="63.94373703" lon="-20.84051323"><ele>34.9</ele><time>2012-07-27T15:49:38.0000000+00:00</time></trkpt><trkpt lat="63.94374847" lon="-20.84117889"><ele>34.6</ele><time>2012-07-27T15:49:43.0000000+00:00</time></trkpt><trkpt lat="63.94374085" lon="-20.84183693"><ele>34.9</ele><time>2012-07-27T15:49:48.0000000+00:00</time></trkpt><trkpt lat="63.94374847" lon="-20.842556"><ele>34.9</ele><time>2012-07-27T15:49:53.0000000+00:00</time></trkpt><trkpt lat="63.94374847" lon="-20.84326172"><ele>34.6</ele><time>2012-07-27T15:49:58.0000000+00:00</time></trkpt><trkpt lat="63.94374085" lon="-20.84386826"><ele>33.6</ele><time>2012-07-27T15:50:03.0000000+00:00</time></trkpt><trkpt lat="63.94373703" lon="-20.8445015"><ele>34.0</ele><time>2012-07-27T15:50:08.0000000+00:00</time></trkpt><trkpt lat="63.94373703" lon="-20.84514237"><ele>34.1</ele><time>2012-07-27T15:50:13.0000000+00:00</time></trkpt><trkpt lat="63.94372177" lon="-20.84583473"><ele>34.2</ele><time>2012-07-27T15:50:18.0000000+00:00</time></trkpt><trkpt lat="63.94371033" lon="-20.84654808"><ele>33.9</ele><time>2012-07-27T15:50:23.0000000+00:00</time></trkpt><trkpt lat="63.94369507" lon="-20.84723282"><ele>31.8</ele><time>2012-07-27T15:50:28.0000000+00:00</time></trkpt><trkpt lat="63.94368744" lon="-20.84785271"><ele>31.0</ele><time>2012-07-27T15:50:33.0000000+00:00</time></trkpt><trkpt lat="63.943676" lon="-20.84850502"><ele>30.8</ele><time>2012-07-27T15:50:38.0000000+00:00</time></trkpt><trkpt lat="63.94366455" lon="-20.84918404"><ele>29.8</ele><time>2012-07-27T15:50:43.0000000+00:00</time></trkpt><trkpt lat="63.94365311" lon="-20.84988022"><ele>31.1</ele><time>2012-07-27T15:50:48.0000000+00:00</time></trkpt><trkpt lat="63.94363785" lon="-20.850523"><ele>31.2</ele><time>2012-07-27T15:50:53.0000000+00:00</time></trkpt><trkpt lat="63.94363403" lon="-20.85119057"><ele>30.3</ele><time>2012-07-27T15:50:58.0000000+00:00</time></trkpt><trkpt lat="63.9436264" lon="-20.85186768"><ele>30.5</ele><time>2012-07-27T15:51:03.0000000+00:00</time></trkpt><trkpt lat="63.94361115" lon="-20.85245514"><ele>30.7</ele><time>2012-07-27T15:51:08.0000000+00:00</time></trkpt><trkpt lat="63.94360733" lon="-20.85298348"><ele>30.8</ele><time>2012-07-27T15:51:13.0000000+00:00</time></trkpt><trkpt lat="63.9435997" lon="-20.85357285"><ele>30.4</ele><time>2012-07-27T15:51:18.0000000+00:00</time></trkpt><trkpt lat="63.94359207" lon="-20.85423279"><ele>31.0</ele><time>2012-07-27T15:51:23.0000000+00:00</time></trkpt><trkpt lat="63.94357681" lon="-20.8549366"><ele>30.6</ele><time>2012-07-27T15:51:28.0000000+00:00</time></trkpt><trkpt lat="63.94355393" lon="-20.85564041"><ele>30.5</ele><time>2012-07-27T15:51:33.0000000+00:00</time></trkpt><trkpt lat="63.94354248" lon="-20.85626221"><ele>29.7</ele><time>2012-07-27T15:51:38.0000000+00:00</time></trkpt><trkpt lat="63.94352722" lon="-20.85687256"><ele>30.4</ele><time>2012-07-27T15:51:43.0000000+00:00</time></trkpt><trkpt lat="63.94351959" lon="-20.85752106"><ele>30.5</ele><time>2012-07-27T15:51:48.0000000+00:00</time></trkpt><trkpt lat="63.94350433" lon="-20.85820961"><ele>30.6</ele><time>2012-07-27T15:51:53.0000000+00:00</time></trkpt><trkpt lat="63.94349289" lon="-20.8589592"><ele>30.9</ele><time>2012-07-27T15:51:58.0000000+00:00</time></trkpt><trkpt lat="63.94348526" lon="-20.85966682"><ele>32.3</ele><time>2012-07-27T15:52:03.0000000+00:00</time></trkpt><trkpt lat="63.94347763" lon="-20.86030769"><ele>32.4</ele><time>2012-07-27T15:52:08.0000000+00:00</time></trkpt><trkpt lat="63.94346237" lon="-20.8609829"><ele>32.4</ele><time>2012-07-27T15:52:13.0000000+00:00</time></trkpt><trkpt lat="63.94344711" lon="-20.86169052"><ele>32.5</ele><time>2012-07-27T15:52:18.0000000+00:00</time></trkpt><trkpt lat="63.94343567" lon="-20.86232185"><ele>32.1</ele><time>2012-07-27T15:52:23.0000000+00:00</time></trkpt><trkpt lat="63.94342041" lon="-20.86287499"><ele>32.2</ele><time>2012-07-27T15:52:28.0000000+00:00</time></trkpt><trkpt lat="63.94340897" lon="-20.86342049"><ele>32.6</ele><time>2012-07-27T15:52:33.0000000+00:00</time></trkpt><trkpt lat="63.94340515" lon="-20.86406136"><ele>32.4</ele><time>2012-07-27T15:52:38.0000000+00:00</time></trkpt><trkpt lat="63.94339752" lon="-20.86473084"><ele>32.3</ele><time>2012-07-27T15:52:43.0000000+00:00</time></trkpt><trkpt lat="63.94338226" lon="-20.86533928"><ele>32.1</ele><time>2012-07-27T15:52:48.0000000+00:00</time></trkpt><trkpt lat="63.94335938" lon="-20.86594772"><ele>31.9</ele><time>2012-07-27T15:52:53.0000000+00:00</time></trkpt><trkpt lat="63.94334412" lon="-20.86662674"><ele>31.6</ele><time>2012-07-27T15:52:58.0000000+00:00</time></trkpt><trkpt lat="63.94333267" lon="-20.86730957"><ele>31.1</ele><time>2012-07-27T15:53:03.0000000+00:00</time></trkpt><trkpt lat="63.9433136" lon="-20.86793709"><ele>31.2</ele><time>2012-07-27T15:53:08.0000000+00:00</time></trkpt><trkpt lat="63.94329453" lon="-20.86858368"><ele>31.4</ele><time>2012-07-27T15:53:13.0000000+00:00</time></trkpt><trkpt lat="63.94327927" lon="-20.86918831"><ele>31.6</ele><time>2012-07-27T15:53:18.0000000+00:00</time></trkpt><trkpt lat="63.94326401" lon="-20.86987114"><ele>31.2</ele><time>2012-07-27T15:53:23.0000000+00:00</time></trkpt><trkpt lat="63.94324875" lon="-20.87057495"><ele>31.4</ele><time>2012-07-27T15:53:28.0000000+00:00</time></trkpt><trkpt lat="63.94323349" lon="-20.87126732"><ele>31.4</ele><time>2012-07-27T15:53:33.0000000+00:00</time></trkpt><trkpt lat="63.94321823" lon="-20.87188911"><ele>31.6</ele><time>2012-07-27T15:53:38.0000000+00:00</time></trkpt><trkpt lat="63.94321442" lon="-20.87246895"><ele>32.5</ele><time>2012-07-27T15:53:43.0000000+00:00</time></trkpt><trkpt lat="63.94319534" lon="-20.87309265"><ele>33.4</ele><time>2012-07-27T15:53:48.0000000+00:00</time></trkpt><trkpt lat="63.94317627" lon="-20.87375259"><ele>32.8</ele><time>2012-07-27T15:53:53.0000000+00:00</time></trkpt><trkpt lat="63.94316483" lon="-20.87433624"><ele>32.7</ele><time>2012-07-27T15:53:58.0000000+00:00</time></trkpt><trkpt lat="63.94314575" lon="-20.87496185"><ele>32.2</ele><time>2012-07-27T15:54:03.0000000+00:00</time></trkpt><trkpt lat="63.94312668" lon="-20.8756218"><ele>32.0</ele><time>2012-07-27T15:54:08.0000000+00:00</time></trkpt><trkpt lat="63.94311142" lon="-20.87620163"><ele>32.4</ele><time>2012-07-27T15:54:13.0000000+00:00</time></trkpt><trkpt lat="63.94309998" lon="-20.8767376"><ele>32.2</ele><time>2012-07-27T15:54:18.0000000+00:00</time></trkpt><trkpt lat="63.94308472" lon="-20.87732124"><ele>32.2</ele><time>2012-07-27T15:54:23.0000000+00:00</time></trkpt><trkpt lat="63.9430809" lon="-20.8779335"><ele>33.0</ele><time>2012-07-27T15:54:28.0000000+00:00</time></trkpt><trkpt lat="63.94306946" lon="-20.87854195"><ele>32.8</ele><time>2012-07-27T15:54:33.0000000+00:00</time></trkpt><trkpt lat="63.9430542" lon="-20.87917519"><ele>33.7</ele><time>2012-07-27T15:54:38.0000000+00:00</time></trkpt><trkpt lat="63.94303894" lon="-20.87976074"><ele>33.5</ele><time>2012-07-27T15:54:43.0000000+00:00</time></trkpt><trkpt lat="63.94301605" lon="-20.88031006"><ele>32.9</ele><time>2012-07-27T15:54:48.0000000+00:00</time></trkpt><trkpt lat="63.94300842" lon="-20.88092041"><ele>32.7</ele><time>2012-07-27T15:54:53.0000000+00:00</time></trkpt><trkpt lat="63.94298935" lon="-20.88150024"><ele>32.8</ele><time>2012-07-27T15:54:58.0000000+00:00</time></trkpt><trkpt lat="63.94297028" lon="-20.88210106"><ele>31.4</ele><time>2012-07-27T15:55:03.0000000+00:00</time></trkpt><trkpt lat="63.94295502" lon="-20.88275909"><ele>31.0</ele><time>2012-07-27T15:55:08.0000000+00:00</time></trkpt><trkpt lat="63.94293594" lon="-20.88335419"><ele>30.9</ele><time>2012-07-27T15:55:13.0000000+00:00</time></trkpt><trkpt lat="63.94292831" lon="-20.88391495"><ele>31.2</ele><time>2012-07-27T15:55:18.0000000+00:00</time></trkpt><trkpt lat="63.94291306" lon="-20.88453865"><ele>30.9</ele><time>2012-07-27T15:55:23.0000000+00:00</time></trkpt><trkpt lat="63.94290543" lon="-20.885149"><ele>31.2</ele><time>2012-07-27T15:55:28.0000000+00:00</time></trkpt><trkpt lat="63.94289017" lon="-20.88580132"><ele>31.1</ele><time>2012-07-27T15:55:33.0000000+00:00</time></trkpt><trkpt lat="63.94287109" lon="-20.88641548"><ele>32.2</ele><time>2012-07-27T15:55:38.0000000+00:00</time></trkpt><trkpt lat="63.94285965" lon="-20.8869648"><ele>32.4</ele><time>2012-07-27T15:55:43.0000000+00:00</time></trkpt><trkpt lat="63.94284821" lon="-20.88755798"><ele>32.5</ele><time>2012-07-27T15:55:48.0000000+00:00</time></trkpt><trkpt lat="63.94283295" lon="-20.88814926"><ele>32.2</ele><time>2012-07-27T15:55:53.0000000+00:00</time></trkpt><trkpt lat="63.9428215" lon="-20.88868713"><ele>31.7</ele><time>2012-07-27T15:55:58.0000000+00:00</time></trkpt><trkpt lat="63.94280243" lon="-20.88924789"><ele>31.2</ele><time>2012-07-27T15:56:03.0000000+00:00</time></trkpt><trkpt lat="63.94279099" lon="-20.88983154"><ele>31.2</ele><time>2012-07-27T15:56:08.0000000+00:00</time></trkpt><trkpt lat="63.94277954" lon="-20.89041901"><ele>30.8</ele><time>2012-07-27T15:56:13.0000000+00:00</time></trkpt><trkpt lat="63.9427681" lon="-20.8909359"><ele>30.4</ele><time>2012-07-27T15:56:18.0000000+00:00</time></trkpt><trkpt lat="63.94276047" lon="-20.89138222"><ele>29.9</ele><time>2012-07-27T15:56:23.0000000+00:00</time></trkpt><trkpt lat="63.94275284" lon="-20.89178848"><ele>30.2</ele><time>2012-07-27T15:56:28.0000000+00:00</time></trkpt><trkpt lat="63.94274902" lon="-20.89214516"><ele>30.3</ele><time>2012-07-27T15:56:33.0000000+00:00</time></trkpt><trkpt lat="63.94274139" lon="-20.89241409"><ele>30.2</ele><time>2012-07-27T15:56:38.0000000+00:00</time></trkpt><trkpt lat="63.94273377" lon="-20.8927002"><ele>29.3</ele><time>2012-07-27T15:56:43.0000000+00:00</time></trkpt><trkpt lat="63.94272614" lon="-20.89308357"><ele>28.9</ele><time>2012-07-27T15:56:48.0000000+00:00</time></trkpt><trkpt lat="63.94271469" lon="-20.89356041"><ele>29.4</ele><time>2012-07-27T15:56:53.0000000+00:00</time></trkpt><trkpt lat="63.94270706" lon="-20.89405251"><ele>30.4</ele><time>2012-07-27T15:56:58.0000000+00:00</time></trkpt><trkpt lat="63.94269562" lon="-20.89458466"><ele>30.7</ele><time>2012-07-27T15:57:03.0000000+00:00</time></trkpt><trkpt lat="63.94268036" lon="-20.89508247"><ele>30.1</ele><time>2012-07-27T15:57:08.0000000+00:00</time></trkpt><trkpt lat="63.94265747" lon="-20.89564705"><ele>30.2</ele><time>2012-07-27T15:57:13.0000000+00:00</time></trkpt><trkpt lat="63.94264603" lon="-20.89617539"><ele>29.9</ele><time>2012-07-27T15:57:18.0000000+00:00</time></trkpt><trkpt lat="63.94262695" lon="-20.89672661"><ele>29.9</ele><time>2012-07-27T15:57:23.0000000+00:00</time></trkpt><trkpt lat="63.94261551" lon="-20.89723778"><ele>30.1</ele><time>2012-07-27T15:57:28.0000000+00:00</time></trkpt><trkpt lat="63.94260407" lon="-20.89776421"><ele>30.5</ele><time>2012-07-27T15:57:33.0000000+00:00</time></trkpt><trkpt lat="63.94258881" lon="-20.89832878"><ele>30.3</ele><time>2012-07-27T15:57:38.0000000+00:00</time></trkpt><trkpt lat="63.94257736" lon="-20.8988514"><ele>30.3</ele><time>2012-07-27T15:57:43.0000000+00:00</time></trkpt><trkpt lat="63.94256592" lon="-20.89937019"><ele>30.2</ele><time>2012-07-27T15:57:48.0000000+00:00</time></trkpt><trkpt lat="63.94255829" lon="-20.89992142"><ele>30.1</ele><time>2012-07-27T15:57:53.0000000+00:00</time></trkpt><trkpt lat="63.94254684" lon="-20.90041542"><ele>30.4</ele><time>2012-07-27T15:57:58.0000000+00:00</time></trkpt><trkpt lat="63.94252396" lon="-20.90096474"><ele>30.3</ele><time>2012-07-27T15:58:03.0000000+00:00</time></trkpt><trkpt lat="63.94251633" lon="-20.90152168"><ele>30.4</ele><time>2012-07-27T15:58:08.0000000+00:00</time></trkpt><trkpt lat="63.94250488" lon="-20.90205193"><ele>30.5</ele><time>2012-07-27T15:58:13.0000000+00:00</time></trkpt><trkpt lat="63.94248962" lon="-20.90263939"><ele>30.2</ele><time>2012-07-27T15:58:18.0000000+00:00</time></trkpt><trkpt lat="63.94248581" lon="-20.90318108"><ele>30.4</ele><time>2012-07-27T15:58:23.0000000+00:00</time></trkpt><trkpt lat="63.94247055" lon="-20.90365601"><ele>30.7</ele><time>2012-07-27T15:58:28.0000000+00:00</time></trkpt><trkpt lat="63.94244766" lon="-20.90420342"><ele>30.6</ele><time>2012-07-27T15:58:33.0000000+00:00</time></trkpt><trkpt lat="63.9424324" lon="-20.90477943"><ele>29.2</ele><time>2012-07-27T15:58:38.0000000+00:00</time></trkpt><trkpt lat="63.94242477" lon="-20.90533829"><ele>29.7</ele><time>2012-07-27T15:58:43.0000000+00:00</time></trkpt><trkpt lat="63.94241715" lon="-20.90585518"><ele>30.3</ele><time>2012-07-27T15:58:48.0000000+00:00</time></trkpt><trkpt lat="63.94239807" lon="-20.90642357"><ele>30.4</ele><time>2012-07-27T15:58:53.0000000+00:00</time></trkpt><trkpt lat="63.94239044" lon="-20.90700531"><ele>30.9</ele><time>2012-07-27T15:58:58.0000000+00:00</time></trkpt><trkpt lat="63.942379" lon="-20.90753365"><ele>30.6</ele><time>2012-07-27T15:59:03.0000000+00:00</time></trkpt><trkpt lat="63.94236374" lon="-20.90812683"><ele>30.1</ele><time>2012-07-27T15:59:08.0000000+00:00</time></trkpt><trkpt lat="63.94234467" lon="-20.90877342"><ele>29.9</ele><time>2012-07-27T15:59:13.0000000+00:00</time></trkpt><trkpt lat="63.94233322" lon="-20.90934944"><ele>29.4</ele><time>2012-07-27T15:59:18.0000000+00:00</time></trkpt><trkpt lat="63.94231796" lon="-20.90984535"><ele>29.1</ele><time>2012-07-27T15:59:23.0000000+00:00</time></trkpt><trkpt lat="63.94229889" lon="-20.91038322"><ele>29.4</ele><time>2012-07-27T15:59:28.0000000+00:00</time></trkpt><trkpt lat="63.94229126" lon="-20.91096115"><ele>29.4</ele><time>2012-07-27T15:59:33.0000000+00:00</time></trkpt><trkpt lat="63.94227982" lon="-20.91148377"><ele>28.8</ele><time>2012-07-27T15:59:38.0000000+00:00</time></trkpt><trkpt lat="63.94226456" lon="-20.91202927"><ele>28.7</ele><time>2012-07-27T15:59:43.0000000+00:00</time></trkpt><trkpt lat="63.9422493" lon="-20.9125824"><ele>29.0</ele><time>2012-07-27T15:59:48.0000000+00:00</time></trkpt><trkpt lat="63.94224167" lon="-20.91319275"><ele>29.5</ele><time>2012-07-27T15:59:53.0000000+00:00</time></trkpt><trkpt lat="63.94223023" lon="-20.91383743"><ele>30.0</ele><time>2012-07-27T15:59:58.0000000+00:00</time></trkpt><trkpt lat="63.94221497" lon="-20.91448402"><ele>29.9</ele><time>2012-07-27T16:00:03.0000000+00:00</time></trkpt><trkpt lat="63.94219971" lon="-20.91506958"><ele>30.1</ele><time>2012-07-27T16:00:08.0000000+00:00</time></trkpt><trkpt lat="63.94218445" lon="-20.91565514"><ele>29.6</ele><time>2012-07-27T16:00:13.0000000+00:00</time></trkpt><trkpt lat="63.94216538" lon="-20.91626358"><ele>29.1</ele><time>2012-07-27T16:00:18.0000000+00:00</time></trkpt><trkpt lat="63.94215012" lon="-20.91681671"><ele>28.0</ele><time>2012-07-27T16:00:23.0000000+00:00</time></trkpt><trkpt lat="63.94213867" lon="-20.91735458"><ele>27.8</ele><time>2012-07-27T16:00:28.0000000+00:00</time></trkpt><trkpt lat="63.94211578" lon="-20.91794395"><ele>28.1</ele><time>2012-07-27T16:00:33.0000000+00:00</time></trkpt><trkpt lat="63.94210434" lon="-20.91851997"><ele>28.3</ele><time>2012-07-27T16:00:38.0000000+00:00</time></trkpt><trkpt lat="63.94210053" lon="-20.9190464"><ele>28.8</ele><time>2012-07-27T16:00:43.0000000+00:00</time></trkpt><trkpt lat="63.94208908" lon="-20.91954422"><ele>28.6</ele><time>2012-07-27T16:00:48.0000000+00:00</time></trkpt><trkpt lat="63.94207382" lon="-20.92011643"><ele>28.5</ele><time>2012-07-27T16:00:53.0000000+00:00</time></trkpt><trkpt lat="63.94206238" lon="-20.92069817"><ele>28.6</ele><time>2012-07-27T16:00:58.0000000+00:00</time></trkpt><trkpt lat="63.94204712" lon="-20.92121315"><ele>28.5</ele><time>2012-07-27T16:01:03.0000000+00:00</time></trkpt><trkpt lat="63.94203186" lon="-20.92173386"><ele>28.1</ele><time>2012-07-27T16:01:08.0000000+00:00</time></trkpt><trkpt lat="63.9420166" lon="-20.92232513"><ele>28.4</ele><time>2012-07-27T16:01:13.0000000+00:00</time></trkpt><trkpt lat="63.94200134" lon="-20.92291069"><ele>28.2</ele><time>2012-07-27T16:01:18.0000000+00:00</time></trkpt><trkpt lat="63.9419899" lon="-20.9234333"><ele>28.7</ele><time>2012-07-27T16:01:23.0000000+00:00</time></trkpt><trkpt lat="63.9419899" lon="-20.92394066"><ele>29.2</ele><time>2012-07-27T16:01:28.0000000+00:00</time></trkpt><trkpt lat="63.94197846" lon="-20.92443466"><ele>29.6</ele><time>2012-07-27T16:01:33.0000000+00:00</time></trkpt><trkpt lat="63.94197083" lon="-20.92486954"><ele>29.6</ele><time>2012-07-27T16:01:38.0000000+00:00</time></trkpt><trkpt lat="63.94194794" lon="-20.9253273"><ele>29.5</ele><time>2012-07-27T16:01:43.0000000+00:00</time></trkpt><trkpt lat="63.94194031" lon="-20.92584801"><ele>29.4</ele><time>2012-07-27T16:01:48.0000000+00:00</time></trkpt><trkpt lat="63.94192123" lon="-20.92640686"><ele>29.3</ele><time>2012-07-27T16:01:53.0000000+00:00</time></trkpt><trkpt lat="63.94190598" lon="-20.92690659"><ele>29.4</ele><time>2012-07-27T16:01:58.0000000+00:00</time></trkpt><trkpt lat="63.9418869" lon="-20.92744255"><ele>28.7</ele><time>2012-07-27T16:02:03.0000000+00:00</time></trkpt><trkpt lat="63.94187927" lon="-20.92803383"><ele>29.1</ele><time>2012-07-27T16:02:08.0000000+00:00</time></trkpt><trkpt lat="63.94186783" lon="-20.92856789"><ele>29.0</ele><time>2012-07-27T16:02:13.0000000+00:00</time></trkpt><trkpt lat="63.94185257" lon="-20.92912865"><ele>29.1</ele><time>2012-07-27T16:02:18.0000000+00:00</time></trkpt><trkpt lat="63.9418335" lon="-20.92971611"><ele>28.4</ele><time>2012-07-27T16:02:23.0000000+00:00</time></trkpt><trkpt lat="63.94182968" lon="-20.93027496"><ele>28.2</ele><time>2012-07-27T16:02:28.0000000+00:00</time></trkpt><trkpt lat="63.94181442" lon="-20.93081665"><ele>28.3</ele><time>2012-07-27T16:02:33.0000000+00:00</time></trkpt><trkpt lat="63.94180679" lon="-20.93130493"><ele>28.0</ele><time>2012-07-27T16:02:38.0000000+00:00</time></trkpt><trkpt lat="63.94179535" lon="-20.93180466"><ele>28.2</ele><time>2012-07-27T16:02:43.0000000+00:00</time></trkpt><trkpt lat="63.94177628" lon="-20.9323616"><ele>28.6</ele><time>2012-07-27T16:02:48.0000000+00:00</time></trkpt><trkpt lat="63.94176483" lon="-20.93290329"><ele>28.5</ele><time>2012-07-27T16:02:53.0000000+00:00</time></trkpt><trkpt lat="63.94175339" lon="-20.93343353"><ele>28.3</ele><time>2012-07-27T16:02:58.0000000+00:00</time></trkpt><trkpt lat="63.94173813" lon="-20.9339962"><ele>27.6</ele><time>2012-07-27T16:03:03.0000000+00:00</time></trkpt><trkpt lat="63.9417305" lon="-20.93454361"><ele>28.0</ele><time>2012-07-27T16:03:08.0000000+00:00</time></trkpt><trkpt lat="63.94171906" lon="-20.93504906"><ele>28.0</ele><time>2012-07-27T16:03:13.0000000+00:00</time></trkpt><trkpt lat="63.94169998" lon="-20.93560219"><ele>28.1</ele><time>2012-07-27T16:03:18.0000000+00:00</time></trkpt><trkpt lat="63.94168472" lon="-20.93616867"><ele>27.6</ele><time>2012-07-27T16:03:23.0000000+00:00</time></trkpt><trkpt lat="63.94166946" lon="-20.93666267"><ele>27.7</ele><time>2012-07-27T16:03:28.0000000+00:00</time></trkpt><trkpt lat="63.94165039" lon="-20.9371891"><ele>27.6</ele><time>2012-07-27T16:03:33.0000000+00:00</time></trkpt><trkpt lat="63.94163513" lon="-20.9377842"><ele>26.9</ele><time>2012-07-27T16:03:38.0000000+00:00</time></trkpt><trkpt lat="63.94160843" lon="-20.93833733"><ele>25.9</ele><time>2012-07-27T16:03:43.0000000+00:00</time></trkpt><trkpt lat="63.94158936" lon="-20.93891716"><ele>25.4</ele><time>2012-07-27T16:03:48.0000000+00:00</time></trkpt><trkpt lat="63.94156647" lon="-20.93953896"><ele>25.1</ele><time>2012-07-27T16:03:53.0000000+00:00</time></trkpt><trkpt lat="63.94153976" lon="-20.94009018"><ele>25.4</ele><time>2012-07-27T16:03:58.0000000+00:00</time></trkpt><trkpt lat="63.94150543" lon="-20.94060135"><ele>24.9</ele><time>2012-07-27T16:04:03.0000000+00:00</time></trkpt><trkpt lat="63.94147492" lon="-20.94115067"><ele>24.9</ele><time>2012-07-27T16:04:08.0000000+00:00</time></trkpt><trkpt lat="63.94144058" lon="-20.94169807"><ele>25.2</ele><time>2012-07-27T16:04:13.0000000+00:00</time></trkpt><trkpt lat="63.94139862" lon="-20.94218636"><ele>25.3</ele><time>2012-07-27T16:04:18.0000000+00:00</time></trkpt><trkpt lat="63.94135666" lon="-20.94274902"><ele>25.2</ele><time>2012-07-27T16:04:23.0000000+00:00</time></trkpt><trkpt lat="63.9413147" lon="-20.94334984"><ele>25.1</ele><time>2012-07-27T16:04:28.0000000+00:00</time></trkpt><trkpt lat="63.94127274" lon="-20.94389534"><ele>24.9</ele><time>2012-07-27T16:04:33.0000000+00:00</time></trkpt><trkpt lat="63.94122696" lon="-20.94450378"><ele>24.5</ele><time>2012-07-27T16:04:38.0000000+00:00</time></trkpt><trkpt lat="63.94117737" lon="-20.94517899"><ele>24.7</ele><time>2012-07-27T16:04:43.0000000+00:00</time></trkpt><trkpt lat="63.94112015" lon="-20.94584847"><ele>24.6</ele><time>2012-07-27T16:04:48.0000000+00:00</time></trkpt><trkpt lat="63.94106293" lon="-20.94654083"><ele>24.5</ele><time>2012-07-27T16:04:53.0000000+00:00</time></trkpt><trkpt lat="63.94100952" lon="-20.94722176"><ele>24.3</ele><time>2012-07-27T16:04:58.0000000+00:00</time></trkpt><trkpt lat="63.94096756" lon="-20.94782066"><ele>24.7</ele><time>2012-07-27T16:05:03.0000000+00:00</time></trkpt><trkpt lat="63.9409256" lon="-20.94833756"><ele>24.8</ele><time>2012-07-27T16:05:08.0000000+00:00</time></trkpt><trkpt lat="63.94088745" lon="-20.94879913"><ele>25.0</ele><time>2012-07-27T16:05:13.0000000+00:00</time></trkpt><trkpt lat="63.94086075" lon="-20.94920731"><ele>25.4</ele><time>2012-07-27T16:05:18.0000000+00:00</time></trkpt><trkpt lat="63.94083405" lon="-20.94957733"><ele>25.4</ele><time>2012-07-27T16:05:23.0000000+00:00</time></trkpt><trkpt lat="63.94079208" lon="-20.95007134"><ele>25.4</ele><time>2012-07-27T16:05:28.0000000+00:00</time></trkpt><trkpt lat="63.94073868" lon="-20.95065689"><ele>25.3</ele><time>2012-07-27T16:05:33.0000000+00:00</time></trkpt><trkpt lat="63.94068527" lon="-20.95129776"><ele>25.4</ele><time>2012-07-27T16:05:38.0000000+00:00</time></trkpt><trkpt lat="63.94064331" lon="-20.951931"><ele>25.3</ele><time>2012-07-27T16:05:43.0000000+00:00</time></trkpt><trkpt lat="63.94059753" lon="-20.95249176"><ele>25.4</ele><time>2012-07-27T16:05:48.0000000+00:00</time></trkpt><trkpt lat="63.9405632" lon="-20.95300674"><ele>25.3</ele><time>2012-07-27T16:05:53.0000000+00:00</time></trkpt><trkpt lat="63.94052124" lon="-20.9535389"><ele>25.2</ele><time>2012-07-27T16:05:58.0000000+00:00</time></trkpt><trkpt lat="63.94047165" lon="-20.95415497"><ele>25.3</ele><time>2012-07-27T16:06:03.0000000+00:00</time></trkpt><trkpt lat="63.94042969" lon="-20.95475388"><ele>25.4</ele><time>2012-07-27T16:06:08.0000000+00:00</time></trkpt><trkpt lat="63.9403801" lon="-20.95528984"><ele>25.1</ele><time>2012-07-27T16:06:13.0000000+00:00</time></trkpt><trkpt lat="63.94033432" lon="-20.95580673"><ele>25.0</ele><time>2012-07-27T16:06:18.0000000+00:00</time></trkpt><trkpt lat="63.94029236" lon="-20.95638847"><ele>25.0</ele><time>2012-07-27T16:06:23.0000000+00:00</time></trkpt><trkpt lat="63.9402504" lon="-20.95692253"><ele>24.9</ele><time>2012-07-27T16:06:28.0000000+00:00</time></trkpt><trkpt lat="63.94020844" lon="-20.95746613"><ele>24.8</ele><time>2012-07-27T16:06:33.0000000+00:00</time></trkpt><trkpt lat="63.94015503" lon="-20.95810127"><ele>24.7</ele><time>2012-07-27T16:06:38.0000000+00:00</time></trkpt><trkpt lat="63.94010925" lon="-20.9587059"><ele>24.3</ele><time>2012-07-27T16:06:43.0000000+00:00</time></trkpt><trkpt lat="63.94006348" lon="-20.95924759"><ele>24.3</ele><time>2012-07-27T16:06:48.0000000+00:00</time></trkpt><trkpt lat="63.94002533" lon="-20.95977402"><ele>24.3</ele><time>2012-07-27T16:06:53.0000000+00:00</time></trkpt><trkpt lat="63.93997955" lon="-20.96036911"><ele>24.3</ele><time>2012-07-27T16:06:58.0000000+00:00</time></trkpt><trkpt lat="63.93992996" lon="-20.96092606"><ele>23.9</ele><time>2012-07-27T16:07:03.0000000+00:00</time></trkpt><trkpt lat="63.93988419" lon="-20.96149063"><ele>23.8</ele><time>2012-07-27T16:07:08.0000000+00:00</time></trkpt><trkpt lat="63.93983841" lon="-20.96211243"><ele>23.9</ele><time>2012-07-27T16:07:13.0000000+00:00</time></trkpt><trkpt lat="63.93980026" lon="-20.96267891"><ele>23.5</ele><time>2012-07-27T16:07:18.0000000+00:00</time></trkpt><trkpt lat="63.93975067" lon="-20.96327782"><ele>23.3</ele><time>2012-07-27T16:07:23.0000000+00:00</time></trkpt><trkpt lat="63.9397049" lon="-20.96386337"><ele>23.6</ele><time>2012-07-27T16:07:28.0000000+00:00</time></trkpt><trkpt lat="63.93966675" lon="-20.96438408"><ele>23.8</ele><time>2012-07-27T16:07:33.0000000+00:00</time></trkpt><trkpt lat="63.9396286" lon="-20.9648819"><ele>24.0</ele><time>2012-07-27T16:07:38.0000000+00:00</time></trkpt><trkpt lat="63.93957901" lon="-20.96546173"><ele>23.5</ele><time>2012-07-27T16:07:43.0000000+00:00</time></trkpt><trkpt lat="63.93953705" lon="-20.96604157"><ele>23.5</ele><time>2012-07-27T16:07:48.0000000+00:00</time></trkpt><trkpt lat="63.9394989" lon="-20.96656036"><ele>23.1</ele><time>2012-07-27T16:07:53.0000000+00:00</time></trkpt><trkpt lat="63.93945313" lon="-20.96709824"><ele>22.9</ele><time>2012-07-27T16:07:58.0000000+00:00</time></trkpt><trkpt lat="63.93940353" lon="-20.96769142"><ele>22.5</ele><time>2012-07-27T16:08:03.0000000+00:00</time></trkpt><trkpt lat="63.93935394" lon="-20.96831894"><ele>22.6</ele><time>2012-07-27T16:08:08.0000000+00:00</time></trkpt><trkpt lat="63.93930817" lon="-20.96891403"><ele>22.6</ele><time>2012-07-27T16:08:13.0000000+00:00</time></trkpt><trkpt lat="63.93926239" lon="-20.96949768"><ele>22.5</ele><time>2012-07-27T16:08:18.0000000+00:00</time></trkpt><trkpt lat="63.93922043" lon="-20.97008514"><ele>22.1</ele><time>2012-07-27T16:08:23.0000000+00:00</time></trkpt><trkpt lat="63.93917847" lon="-20.97058106"><ele>22.5</ele><time>2012-07-27T16:08:28.0000000+00:00</time></trkpt><trkpt lat="63.93914032" lon="-20.97101212"><ele>22.3</ele><time>2012-07-27T16:08:33.0000000+00:00</time></trkpt><trkpt lat="63.9391098" lon="-20.97141266"><ele>22.4</ele><time>2012-07-27T16:08:38.0000000+00:00</time></trkpt><trkpt lat="63.93907929" lon="-20.97180748"><ele>22.5</ele><time>2012-07-27T16:08:43.0000000+00:00</time></trkpt><trkpt lat="63.93905258" lon="-20.97216034"><ele>22.3</ele><time>2012-07-27T16:08:48.0000000+00:00</time></trkpt><trkpt lat="63.93901825" lon="-20.9725132"><ele>22.4</ele><time>2012-07-27T16:08:53.0000000+00:00</time></trkpt><trkpt lat="63.93898392" lon="-20.97293282"><ele>22.3</ele><time>2012-07-27T16:08:58.0000000+00:00</time></trkpt><trkpt lat="63.93896103" lon="-20.97332954"><ele>22.2</ele><time>2012-07-27T16:09:03.0000000+00:00</time></trkpt><trkpt lat="63.93893433" lon="-20.97367287"><ele>21.8</ele><time>2012-07-27T16:09:08.0000000+00:00</time></trkpt><trkpt lat="63.93889999" lon="-20.97402954"><ele>21.8</ele><time>2012-07-27T16:09:13.0000000+00:00</time></trkpt><trkpt lat="63.93886566" lon="-20.97438431"><ele>21.7</ele><time>2012-07-27T16:09:18.0000000+00:00</time></trkpt><trkpt lat="63.93884659" lon="-20.97467232"><ele>21.9</ele><time>2012-07-27T16:09:23.0000000+00:00</time></trkpt><trkpt lat="63.93883514" lon="-20.97491455"><ele>21.7</ele><time>2012-07-27T16:09:28.0000000+00:00</time></trkpt><trkpt lat="63.9388504" lon="-20.97518349"><ele>21.6</ele><time>2012-07-27T16:09:33.0000000+00:00</time></trkpt><trkpt lat="63.9388504" lon="-20.97525597"><ele>21.6</ele><time>2012-07-27T16:09:38.0000000+00:00</time></trkpt><trkpt lat="63.9388504" lon="-20.97525406"><ele>21.6</ele><time>2012-07-27T16:09:43.0000000+00:00</time></trkpt><trkpt lat="63.9388504" lon="-20.97525215"><ele>21.6</ele><time>2012-07-27T16:09:48.0000000+00:00</time></trkpt><trkpt lat="63.9388504" lon="-20.97525215"><ele>21.6</ele><time>2012-07-27T16:09:53.0000000+00:00</time></trkpt><trkpt lat="63.9388504" lon="-20.97525024"><ele>21.6</ele><time>2012-07-27T16:09:58.0000000+00:00</time></trkpt><trkpt lat="63.9388504" lon="-20.97525024"><ele>21.6</ele><time>2012-07-27T16:10:03.0000000+00:00</time></trkpt><trkpt lat="63.93885422" lon="-20.97525787"><ele>21.6</ele><time>2012-07-27T16:10:08.0000000+00:00</time></trkpt><trkpt lat="63.9388504" lon="-20.97525787"><ele>21.5</ele><time>2012-07-27T16:10:13.0000000+00:00</time></trkpt><trkpt lat="63.9388504" lon="-20.97525787"><ele>21.5</ele><time>2012-07-27T16:10:18.0000000+00:00</time></trkpt><trkpt lat="63.9388504" lon="-20.97525787"><ele>21.5</ele><time>2012-07-27T16:10:23.0000000+00:00</time></trkpt><trkpt lat="63.9388504" lon="-20.97525597"><ele>21.5</ele><time>2012-07-27T16:10:28.0000000+00:00</time></trkpt><trkpt lat="63.9388504" lon="-20.97525978"><ele>21.5</ele><time>2012-07-27T16:10:33.0000000+00:00</time></trkpt><trkpt lat="63.9388504" lon="-20.97525978"><ele>21.5</ele><time>2012-07-27T16:10:38.0000000+00:00</time></trkpt><trkpt lat="63.9388504" lon="-20.97525978"><ele>21.5</ele><time>2012-07-27T16:10:43.0000000+00:00</time></trkpt><trkpt lat="63.9388504" lon="-20.97525978"><ele>21.5</ele><time>2012-07-27T16:10:48.0000000+00:00</time></trkpt><trkpt lat="63.9388504" lon="-20.97525978"><ele>21.5</ele><time>2012-07-27T16:10:53.0000000+00:00</time></trkpt><trkpt lat="63.93884659" lon="-20.97525978"><ele>21.5</ele><time>2012-07-27T16:10:58.0000000+00:00</time></trkpt><trkpt lat="63.93884659" lon="-20.97525787"><ele>21.5</ele><time>2012-07-27T16:11:03.0000000+00:00</time></trkpt><trkpt lat="63.93884659" lon="-20.97525978"><ele>21.5</ele><time>2012-07-27T16:11:08.0000000+00:00</time></trkpt><trkpt lat="63.93884659" lon="-20.97525978"><ele>21.5</ele><time>2012-07-27T16:11:13.0000000+00:00</time></trkpt><trkpt lat="63.93884659" lon="-20.97525978"><ele>21.4</ele><time>2012-07-27T16:11:18.0000000+00:00</time></trkpt><trkpt lat="63.93884659" lon="-20.97525978"><ele>21.4</ele><time>2012-07-27T16:11:23.0000000+00:00</time></trkpt><trkpt lat="63.93884659" lon="-20.97525978"><ele>21.4</ele><time>2012-07-27T16:11:28.0000000+00:00</time></trkpt><trkpt lat="63.93884277" lon="-20.97525978"><ele>21.4</ele><time>2012-07-27T16:11:33.0000000+00:00</time></trkpt><trkpt lat="63.93884277" lon="-20.97525978"><ele>21.4</ele><time>2012-07-27T16:11:38.0000000+00:00</time></trkpt><trkpt lat="63.93884277" lon="-20.97525978"><ele>21.4</ele><time>2012-07-27T16:11:43.0000000+00:00</time></trkpt><trkpt lat="63.93884277" lon="-20.97525978"><ele>21.3</ele><time>2012-07-27T16:11:48.0000000+00:00</time></trkpt><trkpt lat="63.93884277" lon="-20.97525978"><ele>21.3</ele><time>2012-07-27T16:11:53.0000000+00:00</time></trkpt><trkpt lat="63.93884277" lon="-20.97525978"><ele>21.3</ele><time>2012-07-27T16:11:58.0000000+00:00</time></trkpt><trkpt lat="63.93884277" lon="-20.97525978"><ele>21.3</ele><time>2012-07-27T16:12:03.0000000+00:00</time></trkpt><trkpt lat="63.93884277" lon="-20.9752636"><ele>21.2</ele><time>2012-07-27T16:12:08.0000000+00:00</time></trkpt><trkpt lat="63.93877792" lon="-20.97523499"><ele>20.3</ele><time>2012-07-27T16:12:13.0000000+00:00</time></trkpt><trkpt lat="63.93865204" lon="-20.97512436"><ele>17.9</ele><time>2012-07-27T16:12:18.0000000+00:00</time></trkpt><trkpt lat="63.93856049" lon="-20.97506332"><ele>18.8</ele><time>2012-07-27T16:12:23.0000000+00:00</time></trkpt><trkpt lat="63.93847656" lon="-20.97479439"><ele>19.3</ele><time>2012-07-27T16:12:28.0000000+00:00</time></trkpt><trkpt lat="63.93845749" lon="-20.97444916"><ele>20.6</ele><time>2012-07-27T16:12:33.0000000+00:00</time></trkpt><trkpt lat="63.93841553" lon="-20.97423935"><ele>18.8</ele><time>2012-07-27T16:12:38.0000000+00:00</time></trkpt><trkpt lat="63.93841553" lon="-20.97415161"><ele>18.3</ele><time>2012-07-27T16:12:43.0000000+00:00</time></trkpt><trkpt lat="63.93842697" lon="-20.97414589"><ele>19.2</ele><time>2012-07-27T16:12:48.0000000+00:00</time></trkpt><trkpt lat="63.93843079" lon="-20.97414017"><ele>18.9</ele><time>2012-07-27T16:12:53.0000000+00:00</time></trkpt><trkpt lat="63.93842697" lon="-20.97414208"><ele>18.8</ele><time>2012-07-27T16:12:58.0000000+00:00</time></trkpt><trkpt lat="63.93842697" lon="-20.97414398"><ele>18.8</ele><time>2012-07-27T16:13:03.0000000+00:00</time></trkpt><trkpt lat="63.93842697" lon="-20.9741497"><ele>18.9</ele><time>2012-07-27T16:13:08.0000000+00:00</time></trkpt><trkpt lat="63.93842697" lon="-20.97415161"><ele>19.0</ele><time>2012-07-27T16:13:13.0000000+00:00</time></trkpt><trkpt lat="63.93842697" lon="-20.97415924"><ele>19.1</ele><time>2012-07-27T16:13:18.0000000+00:00</time></trkpt><trkpt lat="63.93842697" lon="-20.97417259"><ele>19.2</ele><time>2012-07-27T16:13:23.0000000+00:00</time></trkpt><trkpt lat="63.93842697" lon="-20.97417641"><ele>19.3</ele><time>2012-07-27T16:13:28.0000000+00:00</time></trkpt><trkpt lat="63.93842697" lon="-20.97418022"><ele>19.4</ele><time>2012-07-27T16:13:33.0000000+00:00</time></trkpt><trkpt lat="63.93842697" lon="-20.97418022"><ele>19.4</ele><time>2012-07-27T16:13:38.0000000+00:00</time></trkpt><trkpt lat="63.93842697" lon="-20.97418022"><ele>19.4</ele><time>2012-07-27T16:13:43.0000000+00:00</time></trkpt><trkpt lat="63.93842697" lon="-20.97418022"><ele>19.4</ele><time>2012-07-27T16:13:48.0000000+00:00</time></trkpt><trkpt lat="63.93842697" lon="-20.97418022"><ele>19.4</ele><time>2012-07-27T16:13:53.0000000+00:00</time></trkpt><trkpt lat="63.93842697" lon="-20.97418022"><ele>19.4</ele><time>2012-07-27T16:13:58.0000000+00:00</time></trkpt><trkpt lat="63.93842697" lon="-20.97418213"><ele>19.4</ele><time>2012-07-27T16:14:03.0000000+00:00</time></trkpt><trkpt lat="63.93842697" lon="-20.97418213"><ele>19.5</ele><time>2012-07-27T16:14:08.0000000+00:00</time></trkpt><trkpt lat="63.93842697" lon="-20.97418213"><ele>19.5</ele><time>2012-07-27T16:14:13.0000000+00:00</time></trkpt><trkpt lat="63.93842697" lon="-20.97418213"><ele>19.5</ele><time>2012-07-27T16:14:18.0000000+00:00</time></trkpt><trkpt lat="63.93842697" lon="-20.97418213"><ele>19.5</ele><time>2012-07-27T16:14:23.0000000+00:00</time></trkpt><trkpt lat="63.93842697" lon="-20.97418213"><ele>19.5</ele><time>2012-07-27T16:14:28.0000000+00:00</time></trkpt><trkpt lat="63.93842697" lon="-20.97418213"><ele>19.5</ele><time>2012-07-27T16:14:33.0000000+00:00</time></trkpt><trkpt lat="63.93842697" lon="-20.97418213"><ele>19.5</ele><time>2012-07-27T16:14:38.0000000+00:00</time></trkpt><trkpt lat="63.93842697" lon="-20.97418213"><ele>19.5</ele><time>2012-07-27T16:14:43.0000000+00:00</time></trkpt><trkpt lat="63.93842697" lon="-20.97418404"><ele>19.6</ele><time>2012-07-27T16:14:48.0000000+00:00</time></trkpt><trkpt lat="63.93842697" lon="-20.97418404"><ele>19.6</ele><time>2012-07-27T16:14:53.0000000+00:00</time></trkpt><trkpt lat="63.93842697" lon="-20.97418404"><ele>19.6</ele><time>2012-07-27T16:14:58.0000000+00:00</time></trkpt><trkpt lat="63.93842697" lon="-20.97418213"><ele>19.6</ele><time>2012-07-27T16:15:03.0000000+00:00</time></trkpt><trkpt lat="63.93842697" lon="-20.97418404"><ele>19.6</ele><time>2012-07-27T16:15:08.0000000+00:00</time></trkpt><trkpt lat="63.93842697" lon="-20.97418404"><ele>19.6</ele><time>2012-07-27T16:15:13.0000000+00:00</time></trkpt><trkpt lat="63.93842697" lon="-20.97418404"><ele>19.6</ele><time>2012-07-27T16:15:18.0000000+00:00</time></trkpt><trkpt lat="63.93842697" lon="-20.97418404"><ele>19.6</ele><time>2012-07-27T16:15:23.0000000+00:00</time></trkpt><trkpt lat="63.93842697" lon="-20.97418404"><ele>19.6</ele><time>2012-07-27T16:15:28.0000000+00:00</time></trkpt><trkpt lat="63.93842697" lon="-20.97418404"><ele>19.6</ele><time>2012-07-27T16:15:33.0000000+00:00</time></trkpt><trkpt lat="63.93842697" lon="-20.97418213"><ele>19.6</ele><time>2012-07-27T16:15:38.0000000+00:00</time></trkpt><trkpt lat="63.93842697" lon="-20.97418213"><ele>19.6</ele><time>2012-07-27T16:15:43.0000000+00:00</time></trkpt><trkpt lat="63.93842697" lon="-20.97418213"><ele>19.6</ele><time>2012-07-27T16:15:48.0000000+00:00</time></trkpt><trkpt lat="63.93842697" lon="-20.97418213"><ele>19.6</ele><time>2012-07-27T16:15:53.0000000+00:00</time></trkpt><trkpt lat="63.93842697" lon="-20.97418213"><ele>19.6</ele><time>2012-07-27T16:15:58.0000000+00:00</time></trkpt><trkpt lat="63.93842697" lon="-20.97418213"><ele>19.6</ele><time>2012-07-27T16:16:03.0000000+00:00</time></trkpt><trkpt lat="63.93842697" lon="-20.97418213"><ele>19.6</ele><time>2012-07-27T16:16:08.0000000+00:00</time></trkpt><trkpt lat="63.93842697" lon="-20.97418213"><ele>19.6</ele><time>2012-07-27T16:16:13.0000000+00:00</time></trkpt><trkpt lat="63.93842697" lon="-20.97418213"><ele>19.6</ele><time>2012-07-27T16:16:18.0000000+00:00</time></trkpt><trkpt lat="63.93842316" lon="-20.97418213"><ele>19.7</ele><time>2012-07-27T16:16:23.0000000+00:00</time></trkpt><trkpt lat="63.93842316" lon="-20.97418404"><ele>19.7</ele><time>2012-07-27T16:16:28.0000000+00:00</time></trkpt><trkpt lat="63.93842316" lon="-20.97418404"><ele>19.7</ele><time>2012-07-27T16:16:33.0000000+00:00</time></trkpt><trkpt lat="63.93842316" lon="-20.97418404"><ele>19.7</ele><time>2012-07-27T16:16:38.0000000+00:00</time></trkpt><trkpt lat="63.93842316" lon="-20.97418404"><ele>19.7</ele><time>2012-07-27T16:16:43.0000000+00:00</time></trkpt><trkpt lat="63.93842316" lon="-20.97418404"><ele>19.8</ele><time>2012-07-27T16:16:48.0000000+00:00</time></trkpt><trkpt lat="63.93842316" lon="-20.97418404"><ele>19.8</ele><time>2012-07-27T16:16:53.0000000+00:00</time></trkpt><trkpt lat="63.93842316" lon="-20.97418594"><ele>19.8</ele><time>2012-07-27T16:16:58.0000000+00:00</time></trkpt><trkpt lat="63.93842316" lon="-20.97418594"><ele>19.8</ele><time>2012-07-27T16:17:03.0000000+00:00</time></trkpt><trkpt lat="63.93842316" lon="-20.97418594"><ele>19.9</ele><time>2012-07-27T16:17:08.0000000+00:00</time></trkpt><trkpt lat="63.93842316" lon="-20.97418594"><ele>19.9</ele><time>2012-07-27T16:17:13.0000000+00:00</time></trkpt><trkpt lat="63.93842316" lon="-20.97418594"><ele>19.9</ele><time>2012-07-27T16:17:18.0000000+00:00</time></trkpt><trkpt lat="63.93842316" lon="-20.97418594"><ele>19.9</ele><time>2012-07-27T16:17:23.0000000+00:00</time></trkpt><trkpt lat="63.93842316" lon="-20.97418785"><ele>20.0</ele><time>2012-07-27T16:17:28.0000000+00:00</time></trkpt><trkpt lat="63.93842316" lon="-20.97418785"><ele>20.0</ele><time>2012-07-27T16:17:33.0000000+00:00</time></trkpt><trkpt lat="63.93842316" lon="-20.97418785"><ele>20.0</ele><time>2012-07-27T16:17:38.0000000+00:00</time></trkpt><trkpt lat="63.93842316" lon="-20.97418785"><ele>20.0</ele><time>2012-07-27T16:17:43.0000000+00:00</time></trkpt><trkpt lat="63.93842316" lon="-20.97418594"><ele>20.0</ele><time>2012-07-27T16:17:48.0000000+00:00</time></trkpt><trkpt lat="63.93842316" lon="-20.97418594"><ele>20.1</ele><time>2012-07-27T16:17:53.0000000+00:00</time></trkpt><trkpt lat="63.93842316" lon="-20.97418594"><ele>20.1</ele><time>2012-07-27T16:17:58.0000000+00:00</time></trkpt><trkpt lat="63.93842316" lon="-20.97418594"><ele>20.2</ele><time>2012-07-27T16:18:03.0000000+00:00</time></trkpt><trkpt lat="63.93842316" lon="-20.97418594"><ele>20.2</ele><time>2012-07-27T16:18:08.0000000+00:00</time></trkpt><trkpt lat="63.93842316" lon="-20.97418594"><ele>20.2</ele><time>2012-07-27T16:18:13.0000000+00:00</time></trkpt><trkpt lat="63.93842316" lon="-20.97418594"><ele>20.2</ele><time>2012-07-27T16:18:18.0000000+00:00</time></trkpt><trkpt lat="63.93842316" lon="-20.97418594"><ele>20.2</ele><time>2012-07-27T16:18:23.0000000+00:00</time></trkpt><trkpt lat="63.93842316" lon="-20.97418594"><ele>20.2</ele><time>2012-07-27T16:18:28.0000000+00:00</time></trkpt><trkpt lat="63.93842316" lon="-20.97418404"><ele>20.2</ele><time>2012-07-27T16:18:33.0000000+00:00</time></trkpt><trkpt lat="63.93842316" lon="-20.97418404"><ele>20.2</ele><time>2012-07-27T16:18:38.0000000+00:00</time></trkpt><trkpt lat="63.93842316" lon="-20.97418404"><ele>20.2</ele><time>2012-07-27T16:18:43.0000000+00:00</time></trkpt><trkpt lat="63.93842316" lon="-20.97418404"><ele>20.2</ele><time>2012-07-27T16:18:48.0000000+00:00</time></trkpt><trkpt lat="63.93841934" lon="-20.97418404"><ele>20.3</ele><time>2012-07-27T16:18:53.0000000+00:00</time></trkpt><trkpt lat="63.93841934" lon="-20.97418404"><ele>20.3</ele><time>2012-07-27T16:18:58.0000000+00:00</time></trkpt><trkpt lat="63.93841934" lon="-20.97418404"><ele>20.3</ele><time>2012-07-27T16:19:03.0000000+00:00</time></trkpt><trkpt lat="63.93841934" lon="-20.97418404"><ele>20.3</ele><time>2012-07-27T16:19:08.0000000+00:00</time></trkpt><trkpt lat="63.93841934" lon="-20.97418404"><ele>20.3</ele><time>2012-07-27T16:19:13.0000000+00:00</time></trkpt><trkpt lat="63.93841934" lon="-20.97418404"><ele>20.4</ele><time>2012-07-27T16:19:18.0000000+00:00</time></trkpt><trkpt lat="63.93841934" lon="-20.97418404"><ele>20.4</ele><time>2012-07-27T16:19:23.0000000+00:00</time></trkpt><trkpt lat="63.93841934" lon="-20.97418404"><ele>20.4</ele><time>2012-07-27T16:19:28.0000000+00:00</time></trkpt><trkpt lat="63.93841934" lon="-20.97418404"><ele>20.4</ele><time>2012-07-27T16:19:33.0000000+00:00</time></trkpt><trkpt lat="63.93841934" lon="-20.97418404"><ele>20.4</ele><time>2012-07-27T16:19:38.0000000+00:00</time></trkpt><trkpt lat="63.93841934" lon="-20.97418404"><ele>20.5</ele><time>2012-07-27T16:19:43.0000000+00:00</time></trkpt><trkpt lat="63.93841934" lon="-20.97418404"><ele>20.5</ele><time>2012-07-27T16:19:48.0000000+00:00</time></trkpt><trkpt lat="63.93841934" lon="-20.97418404"><ele>20.5</ele><time>2012-07-27T16:19:53.0000000+00:00</time></trkpt><trkpt lat="63.93841934" lon="-20.97418213"><ele>20.5</ele><time>2012-07-27T16:19:58.0000000+00:00</time></trkpt><trkpt lat="63.93841934" lon="-20.97418213"><ele>20.5</ele><time>2012-07-27T16:20:03.0000000+00:00</time></trkpt><trkpt lat="63.93841934" lon="-20.97418213"><ele>20.5</ele><time>2012-07-27T16:20:08.0000000+00:00</time></trkpt><trkpt lat="63.93841934" lon="-20.97418022"><ele>20.5</ele><time>2012-07-27T16:20:13.0000000+00:00</time></trkpt><trkpt lat="63.93841934" lon="-20.97418022"><ele>20.5</ele><time>2012-07-27T16:20:18.0000000+00:00</time></trkpt><trkpt lat="63.93841934" lon="-20.97418022"><ele>20.6</ele><time>2012-07-27T16:20:23.0000000+00:00</time></trkpt><trkpt lat="63.93841934" lon="-20.97418022"><ele>20.6</ele><time>2012-07-27T16:20:28.0000000+00:00</time></trkpt><trkpt lat="63.93841934" lon="-20.97418022"><ele>20.6</ele><time>2012-07-27T16:20:33.0000000+00:00</time></trkpt><trkpt lat="63.93841934" lon="-20.97417831"><ele>20.6</ele><time>2012-07-27T16:20:38.0000000+00:00</time></trkpt><trkpt lat="63.93841934" lon="-20.97417831"><ele>20.6</ele><time>2012-07-27T16:20:43.0000000+00:00</time></trkpt><trkpt lat="63.93841934" lon="-20.97417831"><ele>20.6</ele><time>2012-07-27T16:20:48.0000000+00:00</time></trkpt><trkpt lat="63.93841934" lon="-20.97417831"><ele>20.6</ele><time>2012-07-27T16:20:53.0000000+00:00</time></trkpt><trkpt lat="63.93841934" lon="-20.97417641"><ele>20.6</ele><time>2012-07-27T16:20:58.0000000+00:00</time></trkpt><trkpt lat="63.93841934" lon="-20.97417641"><ele>20.7</ele><time>2012-07-27T16:21:03.0000000+00:00</time></trkpt><trkpt lat="63.93841934" lon="-20.97417641"><ele>20.7</ele><time>2012-07-27T16:21:08.0000000+00:00</time></trkpt><trkpt lat="63.93841934" lon="-20.97417641"><ele>20.7</ele><time>2012-07-27T16:21:13.0000000+00:00</time></trkpt><trkpt lat="63.93841934" lon="-20.97417641"><ele>20.7</ele><time>2012-07-27T16:21:18.0000000+00:00</time></trkpt><trkpt lat="63.93841934" lon="-20.97417641"><ele>20.7</ele><time>2012-07-27T16:21:23.0000000+00:00</time></trkpt><trkpt lat="63.93841934" lon="-20.9741745"><ele>20.7</ele><time>2012-07-27T16:21:28.0000000+00:00</time></trkpt><trkpt lat="63.93841934" lon="-20.9741745"><ele>20.7</ele><time>2012-07-27T16:21:33.0000000+00:00</time></trkpt><trkpt lat="63.93841934" lon="-20.9741745"><ele>20.8</ele><time>2012-07-27T16:21:38.0000000+00:00</time></trkpt><trkpt lat="63.93841934" lon="-20.9741745"><ele>20.8</ele><time>2012-07-27T16:21:43.0000000+00:00</time></trkpt><trkpt lat="63.93841934" lon="-20.9741745"><ele>20.8</ele><time>2012-07-27T16:21:48.0000000+00:00</time></trkpt><trkpt lat="63.93841934" lon="-20.9741745"><ele>20.8</ele><time>2012-07-27T16:21:53.0000000+00:00</time></trkpt><trkpt lat="63.93841934" lon="-20.9741745"><ele>20.8</ele><time>2012-07-27T16:21:58.0000000+00:00</time></trkpt><trkpt lat="63.93841934" lon="-20.9741745"><ele>20.8</ele><time>2012-07-27T16:22:03.0000000+00:00</time></trkpt><trkpt lat="63.93841934" lon="-20.9741745"><ele>20.8</ele><time>2012-07-27T16:22:08.0000000+00:00</time></trkpt><trkpt lat="63.93841934" lon="-20.9741745"><ele>20.8</ele><time>2012-07-27T16:22:13.0000000+00:00</time></trkpt><trkpt lat="63.93841934" lon="-20.9741745"><ele>20.8</ele><time>2012-07-27T16:22:18.0000000+00:00</time></trkpt><trkpt lat="63.93841934" lon="-20.9741745"><ele>20.8</ele><time>2012-07-27T16:22:23.0000000+00:00</time></trkpt><trkpt lat="63.93841934" lon="-20.9741745"><ele>20.8</ele><time>2012-07-27T16:22:28.0000000+00:00</time></trkpt><trkpt lat="63.93841934" lon="-20.9741745"><ele>20.8</ele><time>2012-07-27T16:22:33.0000000+00:00</time></trkpt><trkpt lat="63.93841934" lon="-20.9741745"><ele>20.8</ele><time>2012-07-27T16:22:38.0000000+00:00</time></trkpt><trkpt lat="63.93841934" lon="-20.9741745"><ele>20.8</ele><time>2012-07-27T16:22:43.0000000+00:00</time></trkpt><trkpt lat="63.93841934" lon="-20.97417641"><ele>20.8</ele><time>2012-07-27T16:22:48.0000000+00:00</time></trkpt><trkpt lat="63.93841934" lon="-20.97417641"><ele>20.8</ele><time>2012-07-27T16:22:53.0000000+00:00</time></trkpt><trkpt lat="63.93841934" lon="-20.97417641"><ele>20.8</ele><time>2012-07-27T16:22:58.0000000+00:00</time></trkpt><trkpt lat="63.93841934" lon="-20.97417641"><ele>20.8</ele><time>2012-07-27T16:23:03.0000000+00:00</time></trkpt><trkpt lat="63.93841934" lon="-20.97417641"><ele>20.8</ele><time>2012-07-27T16:23:08.0000000+00:00</time></trkpt><trkpt lat="63.93841934" lon="-20.97417641"><ele>20.8</ele><time>2012-07-27T16:23:13.0000000+00:00</time></trkpt><trkpt lat="63.93841934" lon="-20.97417641"><ele>20.8</ele><time>2012-07-27T16:23:18.0000000+00:00</time></trkpt><trkpt lat="63.93841934" lon="-20.97417641"><ele>20.8</ele><time>2012-07-27T16:23:23.0000000+00:00</time></trkpt><trkpt lat="63.93841934" lon="-20.97417831"><ele>20.8</ele><time>2012-07-27T16:23:28.0000000+00:00</time></trkpt><trkpt lat="63.93841934" lon="-20.97417831"><ele>20.8</ele><time>2012-07-27T16:23:33.0000000+00:00</time></trkpt><trkpt lat="63.93841934" lon="-20.97417831"><ele>20.8</ele><time>2012-07-27T16:23:38.0000000+00:00</time></trkpt><trkpt lat="63.93841934" lon="-20.97417831"><ele>20.8</ele><time>2012-07-27T16:23:43.0000000+00:00</time></trkpt><trkpt lat="63.93841934" lon="-20.97417831"><ele>20.7</ele><time>2012-07-27T16:23:48.0000000+00:00</time></trkpt><trkpt lat="63.93841934" lon="-20.97417831"><ele>20.7</ele><time>2012-07-27T16:23:53.0000000+00:00</time></trkpt><trkpt lat="63.93841934" lon="-20.97417831"><ele>20.7</ele><time>2012-07-27T16:23:58.0000000+00:00</time></trkpt><trkpt lat="63.93841934" lon="-20.97417831"><ele>20.7</ele><time>2012-07-27T16:24:03.0000000+00:00</time></trkpt><trkpt lat="63.93841934" lon="-20.97417831"><ele>20.7</ele><time>2012-07-27T16:24:08.0000000+00:00</time></trkpt><trkpt lat="63.93841934" lon="-20.97417831"><ele>20.7</ele><time>2012-07-27T16:24:13.0000000+00:00</time></trkpt><trkpt lat="63.93841934" lon="-20.97417831"><ele>20.7</ele><time>2012-07-27T16:24:18.0000000+00:00</time></trkpt><trkpt lat="63.93841934" lon="-20.97417831"><ele>20.7</ele><time>2012-07-27T16:24:23.0000000+00:00</time></trkpt><trkpt lat="63.93841934" lon="-20.97417831"><ele>20.7</ele><time>2012-07-27T16:24:28.0000000+00:00</time></trkpt><trkpt lat="63.93841934" lon="-20.97417831"><ele>20.7</ele><time>2012-07-27T16:24:33.0000000+00:00</time></trkpt><trkpt lat="63.93841934" lon="-20.97417641"><ele>20.7</ele><time>2012-07-27T16:24:38.0000000+00:00</time></trkpt><trkpt lat="63.93841553" lon="-20.97417641"><ele>20.7</ele><time>2012-07-27T16:24:43.0000000+00:00</time></trkpt><trkpt lat="63.93841553" lon="-20.97417641"><ele>20.6</ele><time>2012-07-27T16:24:48.0000000+00:00</time></trkpt><trkpt lat="63.93841553" lon="-20.97417641"><ele>20.6</ele><time>2012-07-27T16:24:53.0000000+00:00</time></trkpt><trkpt lat="63.93841553" lon="-20.97417641"><ele>20.6</ele><time>2012-07-27T16:24:58.0000000+00:00</time></trkpt><trkpt lat="63.93841553" lon="-20.97417641"><ele>20.6</ele><time>2012-07-27T16:25:03.0000000+00:00</time></trkpt><trkpt lat="63.93841553" lon="-20.97417641"><ele>20.6</ele><time>2012-07-27T16:25:08.0000000+00:00</time></trkpt><trkpt lat="63.93841553" lon="-20.97417641"><ele>20.6</ele><time>2012-07-27T16:25:13.0000000+00:00</time></trkpt><trkpt lat="63.93841553" lon="-20.97417641"><ele>20.6</ele><time>2012-07-27T16:25:18.0000000+00:00</time></trkpt><trkpt lat="63.93841553" lon="-20.9741745"><ele>20.5</ele><time>2012-07-27T16:25:23.0000000+00:00</time></trkpt><trkpt lat="63.93841553" lon="-20.9741745"><ele>20.5</ele><time>2012-07-27T16:25:28.0000000+00:00</time></trkpt><trkpt lat="63.93841553" lon="-20.9741745"><ele>20.5</ele><time>2012-07-27T16:25:33.0000000+00:00</time></trkpt><trkpt lat="63.93841553" lon="-20.9741745"><ele>20.5</ele><time>2012-07-27T16:25:38.0000000+00:00</time></trkpt><trkpt lat="63.93841553" lon="-20.9741745"><ele>20.5</ele><time>2012-07-27T16:25:43.0000000+00:00</time></trkpt><trkpt lat="63.93841553" lon="-20.97417641"><ele>20.5</ele><time>2012-07-27T16:25:48.0000000+00:00</time></trkpt><trkpt lat="63.93841553" lon="-20.97417641"><ele>20.5</ele><time>2012-07-27T16:25:53.0000000+00:00</time></trkpt><trkpt lat="63.93841553" lon="-20.97417641"><ele>20.5</ele><time>2012-07-27T16:25:58.0000000+00:00</time></trkpt><trkpt lat="63.93841553" lon="-20.97417641"><ele>20.5</ele><time>2012-07-27T16:26:03.0000000+00:00</time></trkpt><trkpt lat="63.93841553" lon="-20.97417641"><ele>20.5</ele><time>2012-07-27T16:26:08.0000000+00:00</time></trkpt><trkpt lat="63.93841553" lon="-20.97417641"><ele>20.5</ele><time>2012-07-27T16:26:13.0000000+00:00</time></trkpt><trkpt lat="63.93841553" lon="-20.97417831"><ele>20.5</ele><time>2012-07-27T16:26:18.0000000+00:00</time></trkpt><trkpt lat="63.93841553" lon="-20.97417831"><ele>20.5</ele><time>2012-07-27T16:26:23.0000000+00:00</time></trkpt><trkpt lat="63.93841553" lon="-20.97417831"><ele>20.4</ele><time>2012-07-27T16:26:28.0000000+00:00</time></trkpt><trkpt lat="63.93841553" lon="-20.97417831"><ele>20.4</ele><time>2012-07-27T16:26:33.0000000+00:00</time></trkpt><trkpt lat="63.93841553" lon="-20.97417831"><ele>20.4</ele><time>2012-07-27T16:26:38.0000000+00:00</time></trkpt><trkpt lat="63.93841553" lon="-20.97418022"><ele>20.4</ele><time>2012-07-27T16:26:43.0000000+00:00</time></trkpt><trkpt lat="63.93841934" lon="-20.97419548"><ele>20.2</ele><time>2012-07-27T16:26:48.0000000+00:00</time></trkpt><trkpt lat="63.93841934" lon="-20.97422791"><ele>20.5</ele><time>2012-07-27T16:26:53.0000000+00:00</time></trkpt><trkpt lat="63.93842316" lon="-20.9742527"><ele>20.9</ele><time>2012-07-27T16:26:58.0000000+00:00</time></trkpt><trkpt lat="63.93842316" lon="-20.97426224"><ele>20.9</ele><time>2012-07-27T16:27:03.0000000+00:00</time></trkpt><trkpt lat="63.93842697" lon="-20.97426224"><ele>20.8</ele><time>2012-07-27T16:27:08.0000000+00:00</time></trkpt><trkpt lat="63.93842697" lon="-20.97426605"><ele>21.1</ele><time>2012-07-27T16:27:13.0000000+00:00</time></trkpt><trkpt lat="63.93842697" lon="-20.97428322"><ele>20.9</ele><time>2012-07-27T16:27:18.0000000+00:00</time></trkpt><trkpt lat="63.93842697" lon="-20.97429085"><ele>21.2</ele><time>2012-07-27T16:27:23.0000000+00:00</time></trkpt><trkpt lat="63.93842316" lon="-20.97429657"><ele>21.5</ele><time>2012-07-27T16:27:28.0000000+00:00</time></trkpt><trkpt lat="63.93842316" lon="-20.97430801"><ele>21.3</ele><time>2012-07-27T16:27:33.0000000+00:00</time></trkpt><trkpt lat="63.93842316" lon="-20.97431374"><ele>20.8</ele><time>2012-07-27T16:27:38.0000000+00:00</time></trkpt><trkpt lat="63.93842316" lon="-20.97431755"><ele>20.7</ele><time>2012-07-27T16:27:43.0000000+00:00</time></trkpt><trkpt lat="63.93842316" lon="-20.97432518"><ele>20.8</ele><time>2012-07-27T16:27:48.0000000+00:00</time></trkpt><trkpt lat="63.93842316" lon="-20.97432518"><ele>20.8</ele><time>2012-07-27T16:27:53.0000000+00:00</time></trkpt><trkpt lat="63.93842316" lon="-20.97432518"><ele>20.9</ele><time>2012-07-27T16:27:58.0000000+00:00</time></trkpt><trkpt lat="63.93842316" lon="-20.97432518"><ele>20.9</ele><time>2012-07-27T16:28:03.0000000+00:00</time></trkpt><trkpt lat="63.93842316" lon="-20.97432709"><ele>20.9</ele><time>2012-07-27T16:28:08.0000000+00:00</time></trkpt><trkpt lat="63.93842316" lon="-20.97432709"><ele>20.9</ele><time>2012-07-27T16:28:13.0000000+00:00</time></trkpt><trkpt lat="63.93842316" lon="-20.97432709"><ele>20.9</ele><time>2012-07-27T16:28:18.0000000+00:00</time></trkpt><trkpt lat="63.93842316" lon="-20.97432709"><ele>20.9</ele><time>2012-07-27T16:28:23.0000000+00:00</time></trkpt><trkpt lat="63.93842316" lon="-20.97432709"><ele>20.9</ele><time>2012-07-27T16:28:28.0000000+00:00</time></trkpt><trkpt lat="63.93842316" lon="-20.97432709"><ele>20.9</ele><time>2012-07-27T16:28:33.0000000+00:00</time></trkpt><trkpt lat="63.93842316" lon="-20.97432709"><ele>20.9</ele><time>2012-07-27T16:28:38.0000000+00:00</time></trkpt><trkpt lat="63.93842316" lon="-20.974329"><ele>20.9</ele><time>2012-07-27T16:28:43.0000000+00:00</time></trkpt><trkpt lat="63.93842316" lon="-20.974329"><ele>20.9</ele><time>2012-07-27T16:28:48.0000000+00:00</time></trkpt><trkpt lat="63.93842316" lon="-20.974329"><ele>20.9</ele><time>2012-07-27T16:28:53.0000000+00:00</time></trkpt><trkpt lat="63.93842316" lon="-20.974329"><ele>20.9</ele><time>2012-07-27T16:28:58.0000000+00:00</time></trkpt><trkpt lat="63.93842316" lon="-20.974329"><ele>20.9</ele><time>2012-07-27T16:29:03.0000000+00:00</time></trkpt><trkpt lat="63.93842316" lon="-20.974329"><ele>21.0</ele><time>2012-07-27T16:29:08.0000000+00:00</time></trkpt><trkpt lat="63.93842316" lon="-20.9743309"><ele>21.0</ele><time>2012-07-27T16:29:13.0000000+00:00</time></trkpt><trkpt lat="63.93842316" lon="-20.9743309"><ele>21.0</ele><time>2012-07-27T16:29:18.0000000+00:00</time></trkpt><trkpt lat="63.93842316" lon="-20.9743309"><ele>21.0</ele><time>2012-07-27T16:29:23.0000000+00:00</time></trkpt><trkpt lat="63.93842316" lon="-20.9743309"><ele>21.0</ele><time>2012-07-27T16:29:28.0000000+00:00</time></trkpt><trkpt lat="63.93842316" lon="-20.9743309"><ele>21.0</ele><time>2012-07-27T16:29:33.0000000+00:00</time></trkpt><trkpt lat="63.93842316" lon="-20.9743309"><ele>21.0</ele><time>2012-07-27T16:29:38.0000000+00:00</time></trkpt><trkpt lat="63.93842316" lon="-20.9743309"><ele>21.0</ele><time>2012-07-27T16:29:43.0000000+00:00</time></trkpt><trkpt lat="63.93842316" lon="-20.9743309"><ele>21.0</ele><time>2012-07-27T16:29:48.0000000+00:00</time></trkpt><trkpt lat="63.93842316" lon="-20.974329"><ele>21.0</ele><time>2012-07-27T16:29:53.0000000+00:00</time></trkpt><trkpt lat="63.93842316" lon="-20.974329"><ele>20.9</ele><time>2012-07-27T16:29:58.0000000+00:00</time></trkpt><trkpt lat="63.93842316" lon="-20.974329"><ele>20.9</ele><time>2012-07-27T16:30:03.0000000+00:00</time></trkpt><trkpt lat="63.93842316" lon="-20.974329"><ele>20.9</ele><time>2012-07-27T16:30:08.0000000+00:00</time></trkpt><trkpt lat="63.93842316" lon="-20.974329"><ele>20.9</ele><time>2012-07-27T16:30:13.0000000+00:00</time></trkpt><trkpt lat="63.93842316" lon="-20.974329"><ele>20.9</ele><time>2012-07-27T16:30:18.0000000+00:00</time></trkpt><trkpt lat="63.93842316" lon="-20.974329"><ele>20.9</ele><time>2012-07-27T16:30:23.0000000+00:00</time></trkpt><trkpt lat="63.93841934" lon="-20.974329"><ele>20.9</ele><time>2012-07-27T16:30:28.0000000+00:00</time></trkpt><trkpt lat="63.93841934" lon="-20.97432709"><ele>20.9</ele><time>2012-07-27T16:30:33.0000000+00:00</time></trkpt><trkpt lat="63.93841934" lon="-20.97432709"><ele>20.9</ele><time>2012-07-27T16:30:38.0000000+00:00</time></trkpt><trkpt lat="63.93841934" lon="-20.97432709"><ele>20.9</ele><time>2012-07-27T16:30:43.0000000+00:00</time></trkpt><trkpt lat="63.93841934" lon="-20.97432709"><ele>20.9</ele><time>2012-07-27T16:30:48.0000000+00:00</time></trkpt><trkpt lat="63.93841934" lon="-20.97432518"><ele>20.8</ele><time>2012-07-27T16:30:53.0000000+00:00</time></trkpt><trkpt lat="63.93841934" lon="-20.97432518"><ele>20.8</ele><time>2012-07-27T16:30:58.0000000+00:00</time></trkpt><trkpt lat="63.93841934" lon="-20.97432518"><ele>20.8</ele><time>2012-07-27T16:31:03.0000000+00:00</time></trkpt><trkpt lat="63.93841934" lon="-20.97432518"><ele>20.8</ele><time>2012-07-27T16:31:08.0000000+00:00</time></trkpt><trkpt lat="63.93841934" lon="-20.97432518"><ele>20.8</ele><time>2012-07-27T16:31:13.0000000+00:00</time></trkpt><trkpt lat="63.93841934" lon="-20.97432327"><ele>20.8</ele><time>2012-07-27T16:31:18.0000000+00:00</time></trkpt><trkpt lat="63.93841934" lon="-20.97432327"><ele>20.8</ele><time>2012-07-27T16:31:23.0000000+00:00</time></trkpt><trkpt lat="63.93841934" lon="-20.97432327"><ele>20.8</ele><time>2012-07-27T16:31:28.0000000+00:00</time></trkpt><trkpt lat="63.93841934" lon="-20.97432327"><ele>20.8</ele><time>2012-07-27T16:31:33.0000000+00:00</time></trkpt><trkpt lat="63.93841934" lon="-20.97432327"><ele>20.8</ele><time>2012-07-27T16:31:38.0000000+00:00</time></trkpt><trkpt lat="63.93841934" lon="-20.97432327"><ele>20.8</ele><time>2012-07-27T16:31:43.0000000+00:00</time></trkpt><trkpt lat="63.93841934" lon="-20.97432137"><ele>20.7</ele><time>2012-07-27T16:31:48.0000000+00:00</time></trkpt><trkpt lat="63.93841934" lon="-20.97432137"><ele>20.7</ele><time>2012-07-27T16:31:53.0000000+00:00</time></trkpt><trkpt lat="63.93841934" lon="-20.97432137"><ele>20.7</ele><time>2012-07-27T16:31:58.0000000+00:00</time></trkpt><trkpt lat="63.93841934" lon="-20.97431946"><ele>20.7</ele><time>2012-07-27T16:32:03.0000000+00:00</time></trkpt><trkpt lat="63.93841934" lon="-20.97431946"><ele>20.7</ele><time>2012-07-27T16:32:08.0000000+00:00</time></trkpt><trkpt lat="63.93841934" lon="-20.97431946"><ele>20.7</ele><time>2012-07-27T16:32:13.0000000+00:00</time></trkpt><trkpt lat="63.93841934" lon="-20.97431755"><ele>20.7</ele><time>2012-07-27T16:32:18.0000000+00:00</time></trkpt><trkpt lat="63.93841934" lon="-20.97431755"><ele>20.7</ele><time>2012-07-27T16:32:23.0000000+00:00</time></trkpt><trkpt lat="63.93841934" lon="-20.97431755"><ele>20.7</ele><time>2012-07-27T16:32:28.0000000+00:00</time></trkpt><trkpt lat="63.93841934" lon="-20.97431755"><ele>20.6</ele><time>2012-07-27T16:32:33.0000000+00:00</time></trkpt><trkpt lat="63.93841934" lon="-20.97431755"><ele>20.6</ele><time>2012-07-27T16:32:38.0000000+00:00</time></trkpt><trkpt lat="63.93841934" lon="-20.97431755"><ele>20.6</ele><time>2012-07-27T16:32:43.0000000+00:00</time></trkpt><trkpt lat="63.93841934" lon="-20.97431755"><ele>20.6</ele><time>2012-07-27T16:32:48.0000000+00:00</time></trkpt><trkpt lat="63.93841934" lon="-20.97431564"><ele>20.6</ele><time>2012-07-27T16:32:53.0000000+00:00</time></trkpt><trkpt lat="63.93841553" lon="-20.97431564"><ele>20.6</ele><time>2012-07-27T16:32:58.0000000+00:00</time></trkpt><trkpt lat="63.93841553" lon="-20.97431564"><ele>20.6</ele><time>2012-07-27T16:33:03.0000000+00:00</time></trkpt><trkpt lat="63.93841553" lon="-20.97431564"><ele>20.6</ele><time>2012-07-27T16:33:08.0000000+00:00</time></trkpt><trkpt lat="63.93841553" lon="-20.97431564"><ele>20.6</ele><time>2012-07-27T16:33:13.0000000+00:00</time></trkpt><trkpt lat="63.93841553" lon="-20.97431564"><ele>20.6</ele><time>2012-07-27T16:33:18.0000000+00:00</time></trkpt><trkpt lat="63.93841553" lon="-20.97431374"><ele>20.6</ele><time>2012-07-27T16:33:23.0000000+00:00</time></trkpt><trkpt lat="63.93841553" lon="-20.97431374"><ele>20.5</ele><time>2012-07-27T16:33:28.0000000+00:00</time></trkpt><trkpt lat="63.93841553" lon="-20.97431374"><ele>20.5</ele><time>2012-07-27T16:33:33.0000000+00:00</time></trkpt><trkpt lat="63.93841553" lon="-20.97431374"><ele>20.5</ele><time>2012-07-27T16:33:38.0000000+00:00</time></trkpt><trkpt lat="63.93841553" lon="-20.97431374"><ele>20.5</ele><time>2012-07-27T16:33:43.0000000+00:00</time></trkpt><trkpt lat="63.93841553" lon="-20.97431374"><ele>20.5</ele><time>2012-07-27T16:33:48.0000000+00:00</time></trkpt><trkpt lat="63.93841553" lon="-20.97431183"><ele>20.5</ele><time>2012-07-27T16:33:53.0000000+00:00</time></trkpt><trkpt lat="63.93841553" lon="-20.97431183"><ele>20.5</ele><time>2012-07-27T16:33:58.0000000+00:00</time></trkpt><trkpt lat="63.93842316" lon="-20.97429848"><ele>21.5</ele><time>2012-07-27T16:34:03.0000000+00:00</time></trkpt><trkpt lat="63.93842316" lon="-20.97427559"><ele>22.7</ele><time>2012-07-27T16:34:08.0000000+00:00</time></trkpt><trkpt lat="63.93842316" lon="-20.97428703"><ele>23.8</ele><time>2012-07-27T16:34:13.0000000+00:00</time></trkpt><trkpt lat="63.93842697" lon="-20.97429848"><ele>24.4</ele><time>2012-07-27T16:34:18.0000000+00:00</time></trkpt><trkpt lat="63.93842697" lon="-20.97430229"><ele>24.6</ele><time>2012-07-27T16:34:23.0000000+00:00</time></trkpt><trkpt lat="63.93842316" lon="-20.97426415"><ele>24.5</ele><time>2012-07-27T16:34:28.0000000+00:00</time></trkpt><trkpt lat="63.93842697" lon="-20.97426224"><ele>24.5</ele><time>2012-07-27T16:34:33.0000000+00:00</time></trkpt><trkpt lat="63.93842316" lon="-20.97426415"><ele>24.5</ele><time>2012-07-27T16:34:38.0000000+00:00</time></trkpt><trkpt lat="63.93842316" lon="-20.97426415"><ele>24.5</ele><time>2012-07-27T16:34:43.0000000+00:00</time></trkpt><trkpt lat="63.93842697" lon="-20.97426415"><ele>24.5</ele><time>2012-07-27T16:34:48.0000000+00:00</time></trkpt><trkpt lat="63.93842697" lon="-20.97426224"><ele>24.5</ele><time>2012-07-27T16:34:53.0000000+00:00</time></trkpt><trkpt lat="63.93842697" lon="-20.97426224"><ele>24.5</ele><time>2012-07-27T16:34:58.0000000+00:00</time></trkpt><trkpt lat="63.93842697" lon="-20.97426224"><ele>24.5</ele><time>2012-07-27T16:35:03.0000000+00:00</time></trkpt><trkpt lat="63.9384346" lon="-20.97430039"><ele>24.9</ele><time>2012-07-27T16:35:08.0000000+00:00</time></trkpt><trkpt lat="63.93850708" lon="-20.97437096"><ele>26.3</ele><time>2012-07-27T16:35:13.0000000+00:00</time></trkpt><trkpt lat="63.93852234" lon="-20.97419739"><ele>25.3</ele><time>2012-07-27T16:35:18.0000000+00:00</time></trkpt><trkpt lat="63.93854141" lon="-20.97410011"><ele>24.2</ele><time>2012-07-27T16:35:23.0000000+00:00</time></trkpt><trkpt lat="63.93863297" lon="-20.97400284"><ele>23.5</ele><time>2012-07-27T16:35:28.0000000+00:00</time></trkpt><trkpt lat="63.93866348" lon="-20.9737339"><ele>23.0</ele><time>2012-07-27T16:35:33.0000000+00:00</time></trkpt><trkpt lat="63.93862534" lon="-20.97346115"><ele>22.0</ele><time>2012-07-27T16:35:38.0000000+00:00</time></trkpt><trkpt lat="63.93848801" lon="-20.97315598"><ele>21.3</ele><time>2012-07-27T16:35:43.0000000+00:00</time></trkpt><trkpt lat="63.93828964" lon="-20.9729557"><ele>24.7</ele><time>2012-07-27T16:35:48.0000000+00:00</time></trkpt><trkpt lat="63.93812561" lon="-20.97282982"><ele>26.7</ele><time>2012-07-27T16:35:53.0000000+00:00</time></trkpt><trkpt lat="63.93800736" lon="-20.97282219"><ele>26.8</ele><time>2012-07-27T16:35:58.0000000+00:00</time></trkpt><trkpt lat="63.9379158" lon="-20.97278214"><ele>26.6</ele><time>2012-07-27T16:36:03.0000000+00:00</time></trkpt><trkpt lat="63.9379158" lon="-20.97250557"><ele>25.4</ele><time>2012-07-27T16:36:08.0000000+00:00</time></trkpt><trkpt lat="63.93793869" lon="-20.9723053"><ele>23.6</ele><time>2012-07-27T16:36:13.0000000+00:00</time></trkpt><trkpt lat="63.93796158" lon="-20.97205162"><ele>21.0</ele><time>2012-07-27T16:36:18.0000000+00:00</time></trkpt><trkpt lat="63.93802261" lon="-20.97184563"><ele>20.7</ele><time>2012-07-27T16:36:23.0000000+00:00</time></trkpt><trkpt lat="63.9381752" lon="-20.97196579"><ele>21.7</ele><time>2012-07-27T16:36:28.0000000+00:00</time></trkpt><trkpt lat="63.93832779" lon="-20.97217751"><ele>22.7</ele><time>2012-07-27T16:36:33.0000000+00:00</time></trkpt><trkpt lat="63.93848038" lon="-20.97241974"><ele>22.6</ele><time>2012-07-27T16:36:38.0000000+00:00</time></trkpt><trkpt lat="63.93862152" lon="-20.97261047"><ele>22.0</ele><time>2012-07-27T16:36:43.0000000+00:00</time></trkpt><trkpt lat="63.93873978" lon="-20.97280121"><ele>22.5</ele><time>2012-07-27T16:36:48.0000000+00:00</time></trkpt><trkpt lat="63.93883896" lon="-20.97292328"><ele>22.9</ele><time>2012-07-27T16:36:53.0000000+00:00</time></trkpt><trkpt lat="63.93893814" lon="-20.97308159"><ele>22.8</ele><time>2012-07-27T16:36:58.0000000+00:00</time></trkpt><trkpt lat="63.9389534" lon="-20.97343445"><ele>19.5</ele><time>2012-07-27T16:37:03.0000000+00:00</time></trkpt><trkpt lat="63.93893051" lon="-20.97379494"><ele>18.7</ele><time>2012-07-27T16:37:08.0000000+00:00</time></trkpt><trkpt lat="63.93891525" lon="-20.97413254"><ele>17.9</ele><time>2012-07-27T16:37:13.0000000+00:00</time></trkpt><trkpt lat="63.93888474" lon="-20.97450256"><ele>17.9</ele><time>2012-07-27T16:37:18.0000000+00:00</time></trkpt><trkpt lat="63.93884277" lon="-20.97488022"><ele>17.1</ele><time>2012-07-27T16:37:23.0000000+00:00</time></trkpt><trkpt lat="63.938797" lon="-20.97532272"><ele>16.6</ele><time>2012-07-27T16:37:28.0000000+00:00</time></trkpt><trkpt lat="63.93875504" lon="-20.97576714"><ele>15.8</ele><time>2012-07-27T16:37:33.0000000+00:00</time></trkpt><trkpt lat="63.9387207" lon="-20.97619629"><ele>16.0</ele><time>2012-07-27T16:37:38.0000000+00:00</time></trkpt><trkpt lat="63.93868256" lon="-20.9766674"><ele>15.9</ele><time>2012-07-27T16:37:43.0000000+00:00</time></trkpt><trkpt lat="63.93864441" lon="-20.9771328"><ele>15.7</ele><time>2012-07-27T16:37:48.0000000+00:00</time></trkpt><trkpt lat="63.93859482" lon="-20.97754097"><ele>15.6</ele><time>2012-07-27T16:37:53.0000000+00:00</time></trkpt><trkpt lat="63.93854904" lon="-20.97796249"><ele>15.5</ele><time>2012-07-27T16:37:58.0000000+00:00</time></trkpt><trkpt lat="63.93848038" lon="-20.97838211"><ele>15.3</ele><time>2012-07-27T16:38:03.0000000+00:00</time></trkpt><trkpt lat="63.9384079" lon="-20.97880554"><ele>14.7</ele><time>2012-07-27T16:38:08.0000000+00:00</time></trkpt><trkpt lat="63.9383316" lon="-20.97927094"><ele>14.7</ele><time>2012-07-27T16:38:13.0000000+00:00</time></trkpt><trkpt lat="63.93824768" lon="-20.97971344"><ele>14.1</ele><time>2012-07-27T16:38:18.0000000+00:00</time></trkpt><trkpt lat="63.93817139" lon="-20.98016357"><ele>14.0</ele><time>2012-07-27T16:38:23.0000000+00:00</time></trkpt><trkpt lat="63.93808746" lon="-20.98065949"><ele>13.7</ele><time>2012-07-27T16:38:28.0000000+00:00</time></trkpt><trkpt lat="63.93801498" lon="-20.98110008"><ele>13.8</ele><time>2012-07-27T16:38:33.0000000+00:00</time></trkpt><trkpt lat="63.93792725" lon="-20.98147965"><ele>13.9</ele><time>2012-07-27T16:38:38.0000000+00:00</time></trkpt><trkpt lat="63.93785858" lon="-20.98191643"><ele>14.0</ele><time>2012-07-27T16:38:43.0000000+00:00</time></trkpt><trkpt lat="63.93777847" lon="-20.98245239"><ele>13.4</ele><time>2012-07-27T16:38:48.0000000+00:00</time></trkpt><trkpt lat="63.93766022" lon="-20.98297691"><ele>12.5</ele><time>2012-07-27T16:38:53.0000000+00:00</time></trkpt><trkpt lat="63.93755341" lon="-20.98346901"><ele>12.2</ele><time>2012-07-27T16:38:58.0000000+00:00</time></trkpt><trkpt lat="63.93748474" lon="-20.98389626"><ele>12.4</ele><time>2012-07-27T16:39:03.0000000+00:00</time></trkpt><trkpt lat="63.937397" lon="-20.98427963"><ele>13.0</ele><time>2012-07-27T16:39:08.0000000+00:00</time></trkpt><trkpt lat="63.9373169" lon="-20.98468018"><ele>12.4</ele><time>2012-07-27T16:39:13.0000000+00:00</time></trkpt><trkpt lat="63.93724823" lon="-20.98509598"><ele>11.9</ele><time>2012-07-27T16:39:18.0000000+00:00</time></trkpt><trkpt lat="63.93719482" lon="-20.98547745"><ele>11.6</ele><time>2012-07-27T16:39:23.0000000+00:00</time></trkpt><trkpt lat="63.93718338" lon="-20.98587227"><ele>12.1</ele><time>2012-07-27T16:39:28.0000000+00:00</time></trkpt><trkpt lat="63.93717575" lon="-20.98619461"><ele>12.3</ele><time>2012-07-27T16:39:33.0000000+00:00</time></trkpt><trkpt lat="63.93716431" lon="-20.98637009"><ele>12.2</ele><time>2012-07-27T16:39:38.0000000+00:00</time></trkpt><trkpt lat="63.93717194" lon="-20.98636246"><ele>12.3</ele><time>2012-07-27T16:39:43.0000000+00:00</time></trkpt><trkpt lat="63.93716431" lon="-20.98640633"><ele>12.2</ele><time>2012-07-27T16:39:48.0000000+00:00</time></trkpt><trkpt lat="63.93714523" lon="-20.98667717"><ele>11.5</ele><time>2012-07-27T16:39:53.0000000+00:00</time></trkpt><trkpt lat="63.93715668" lon="-20.98706818"><ele>12.0</ele><time>2012-07-27T16:39:58.0000000+00:00</time></trkpt><trkpt lat="63.93717194" lon="-20.98743248"><ele>12.0</ele><time>2012-07-27T16:40:03.0000000+00:00</time></trkpt><trkpt lat="63.93716431" lon="-20.98781014"><ele>12.2</ele><time>2012-07-27T16:40:08.0000000+00:00</time></trkpt><trkpt lat="63.93716812" lon="-20.9881115"><ele>12.4</ele><time>2012-07-27T16:40:13.0000000+00:00</time></trkpt><trkpt lat="63.93717194" lon="-20.9884243"><ele>12.4</ele><time>2012-07-27T16:40:18.0000000+00:00</time></trkpt><trkpt lat="63.93717957" lon="-20.98875618"><ele>12.5</ele><time>2012-07-27T16:40:23.0000000+00:00</time></trkpt><trkpt lat="63.93717957" lon="-20.98908806"><ele>12.3</ele><time>2012-07-27T16:40:28.0000000+00:00</time></trkpt><trkpt lat="63.93717194" lon="-20.98938751"><ele>11.6</ele><time>2012-07-27T16:40:33.0000000+00:00</time></trkpt><trkpt lat="63.93717957" lon="-20.98958778"><ele>12.0</ele><time>2012-07-27T16:40:38.0000000+00:00</time></trkpt><trkpt lat="63.93717575" lon="-20.98959923"><ele>11.9</ele><time>2012-07-27T16:40:43.0000000+00:00</time></trkpt><trkpt lat="63.93717575" lon="-20.98959732"><ele>11.9</ele><time>2012-07-27T16:40:48.0000000+00:00</time></trkpt><trkpt lat="63.93717575" lon="-20.98959732"><ele>11.9</ele><time>2012-07-27T16:40:53.0000000+00:00</time></trkpt><trkpt lat="63.93717575" lon="-20.98959541"><ele>12.0</ele><time>2012-07-27T16:40:58.0000000+00:00</time></trkpt><trkpt lat="63.93717575" lon="-20.98959541"><ele>11.9</ele><time>2012-07-27T16:41:03.0000000+00:00</time></trkpt><trkpt lat="63.93717575" lon="-20.98959351"><ele>12.0</ele><time>2012-07-27T16:41:08.0000000+00:00</time></trkpt><trkpt lat="63.93719864" lon="-20.98973084"><ele>12.2</ele><time>2012-07-27T16:41:13.0000000+00:00</time></trkpt><trkpt lat="63.93721008" lon="-20.9900341"><ele>12.5</ele><time>2012-07-27T16:41:18.0000000+00:00</time></trkpt><trkpt lat="63.93721771" lon="-20.99032593"><ele>12.8</ele><time>2012-07-27T16:41:23.0000000+00:00</time></trkpt><trkpt lat="63.93720245" lon="-20.99065018"><ele>12.4</ele><time>2012-07-27T16:41:28.0000000+00:00</time></trkpt><trkpt lat="63.93719482" lon="-20.9909687"><ele>12.1</ele><time>2012-07-27T16:41:33.0000000+00:00</time></trkpt><trkpt lat="63.93718338" lon="-20.9912796"><ele>12.4</ele><time>2012-07-27T16:41:38.0000000+00:00</time></trkpt><trkpt lat="63.93719482" lon="-20.99163246"><ele>14.4</ele><time>2012-07-27T16:41:43.0000000+00:00</time></trkpt><trkpt lat="63.93721008" lon="-20.99201012"><ele>15.4</ele><time>2012-07-27T16:41:48.0000000+00:00</time></trkpt><trkpt lat="63.93719101" lon="-20.99237442"><ele>16.0</ele><time>2012-07-27T16:41:53.0000000+00:00</time></trkpt><trkpt lat="63.93719101" lon="-20.99272537"><ele>16.5</ele><time>2012-07-27T16:41:58.0000000+00:00</time></trkpt><trkpt lat="63.93725205" lon="-20.99296951"><ele>16.6</ele><time>2012-07-27T16:42:03.0000000+00:00</time></trkpt><trkpt lat="63.93732834" lon="-20.9930687"><ele>17.3</ele><time>2012-07-27T16:42:08.0000000+00:00</time></trkpt><trkpt lat="63.93732452" lon="-20.99308014"><ele>17.5</ele><time>2012-07-27T16:42:13.0000000+00:00</time></trkpt><trkpt lat="63.93731308" lon="-20.99312782"><ele>18.1</ele><time>2012-07-27T16:42:18.0000000+00:00</time></trkpt><trkpt lat="63.9372406" lon="-20.99320984"><ele>18.5</ele><time>2012-07-27T16:42:23.0000000+00:00</time></trkpt><trkpt lat="63.93720245" lon="-20.99355888"><ele>18.6</ele><time>2012-07-27T16:42:28.0000000+00:00</time></trkpt><trkpt lat="63.93721771" lon="-20.99394798"><ele>19.4</ele><time>2012-07-27T16:42:33.0000000+00:00</time></trkpt><trkpt lat="63.9372139" lon="-20.9943409"><ele>18.9</ele><time>2012-07-27T16:42:38.0000000+00:00</time></trkpt><trkpt lat="63.9372139" lon="-20.99471092"><ele>18.0</ele><time>2012-07-27T16:42:43.0000000+00:00</time></trkpt><trkpt lat="63.9372139" lon="-20.99502182"><ele>17.6</ele><time>2012-07-27T16:42:48.0000000+00:00</time></trkpt><trkpt lat="63.93722153" lon="-20.99530792"><ele>17.3</ele><time>2012-07-27T16:42:53.0000000+00:00</time></trkpt><trkpt lat="63.93723297" lon="-20.99553871"><ele>17.6</ele><time>2012-07-27T16:42:58.0000000+00:00</time></trkpt><trkpt lat="63.9372406" lon="-20.9957695"><ele>17.7</ele><time>2012-07-27T16:43:03.0000000+00:00</time></trkpt><trkpt lat="63.93723679" lon="-20.99608803"><ele>17.1</ele><time>2012-07-27T16:43:08.0000000+00:00</time></trkpt><trkpt lat="63.93725205" lon="-20.99638939"><ele>17.6</ele><time>2012-07-27T16:43:13.0000000+00:00</time></trkpt><trkpt lat="63.9372406" lon="-20.99664879"><ele>17.6</ele><time>2012-07-27T16:43:18.0000000+00:00</time></trkpt><trkpt lat="63.93722916" lon="-20.99697876"><ele>17.5</ele><time>2012-07-27T16:43:23.0000000+00:00</time></trkpt><trkpt lat="63.9372406" lon="-20.99736023"><ele>17.6</ele><time>2012-07-27T16:43:28.0000000+00:00</time></trkpt><trkpt lat="63.93725967" lon="-20.9977169"><ele>18.1</ele><time>2012-07-27T16:43:33.0000000+00:00</time></trkpt><trkpt lat="63.93726349" lon="-20.9980545"><ele>17.4</ele><time>2012-07-27T16:43:38.0000000+00:00</time></trkpt><trkpt lat="63.93727112" lon="-20.9983654"><ele>17.3</ele><time>2012-07-27T16:43:43.0000000+00:00</time></trkpt><trkpt lat="63.93728256" lon="-20.99868012"><ele>17.0</ele><time>2012-07-27T16:43:48.0000000+00:00</time></trkpt><trkpt lat="63.93729019" lon="-20.99894524"><ele>15.5</ele><time>2012-07-27T16:43:53.0000000+00:00</time></trkpt><trkpt lat="63.93729782" lon="-20.9991684"><ele>15.5</ele><time>2012-07-27T16:43:58.0000000+00:00</time></trkpt><trkpt lat="63.93728638" lon="-20.99941635"><ele>15.4</ele><time>2012-07-27T16:44:03.0000000+00:00</time></trkpt><trkpt lat="63.93727493" lon="-20.99973869"><ele>17.0</ele><time>2012-07-27T16:44:08.0000000+00:00</time></trkpt><trkpt lat="63.93725967" lon="-21.00006867"><ele>17.0</ele><time>2012-07-27T16:44:13.0000000+00:00</time></trkpt><trkpt lat="63.93726349" lon="-21.00037766"><ele>17.3</ele><time>2012-07-27T16:44:18.0000000+00:00</time></trkpt><trkpt lat="63.93730164" lon="-21.00065231"><ele>18.3</ele><time>2012-07-27T16:44:23.0000000+00:00</time></trkpt><trkpt lat="63.93732834" lon="-21.00083351"><ele>18.3</ele><time>2012-07-27T16:44:28.0000000+00:00</time></trkpt><trkpt lat="63.9373436" lon="-21.00099373"><ele>19.8</ele><time>2012-07-27T16:44:33.0000000+00:00</time></trkpt><trkpt lat="63.93736267" lon="-21.00124168"><ele>19.8</ele><time>2012-07-27T16:44:38.0000000+00:00</time></trkpt><trkpt lat="63.93738937" lon="-21.00143814"><ele>20.1</ele><time>2012-07-27T16:44:43.0000000+00:00</time></trkpt><trkpt lat="63.93741608" lon="-21.00154686"><ele>19.9</ele><time>2012-07-27T16:44:48.0000000+00:00</time></trkpt><trkpt lat="63.93742371" lon="-21.00172806"><ele>19.6</ele><time>2012-07-27T16:44:53.0000000+00:00</time></trkpt><trkpt lat="63.93743515" lon="-21.00186348"><ele>18.6</ele><time>2012-07-27T16:44:58.0000000+00:00</time></trkpt><trkpt lat="63.93744659" lon="-21.00206375"><ele>19.4</ele><time>2012-07-27T16:45:03.0000000+00:00</time></trkpt><trkpt lat="63.93746185" lon="-21.00233841"><ele>19.6</ele><time>2012-07-27T16:45:08.0000000+00:00</time></trkpt><trkpt lat="63.93746567" lon="-21.00258827"><ele>19.9</ele><time>2012-07-27T16:45:13.0000000+00:00</time></trkpt><trkpt lat="63.93746567" lon="-21.00280953"><ele>19.8</ele><time>2012-07-27T16:45:18.0000000+00:00</time></trkpt><trkpt lat="63.93747711" lon="-21.00303078"><ele>20.0</ele><time>2012-07-27T16:45:23.0000000+00:00</time></trkpt><trkpt lat="63.93747711" lon="-21.00319099"><ele>19.9</ele><time>2012-07-27T16:45:28.0000000+00:00</time></trkpt><trkpt lat="63.93754959" lon="-21.0033226"><ele>21.0</ele><time>2012-07-27T16:45:33.0000000+00:00</time></trkpt><trkpt lat="63.93763733" lon="-21.00348663"><ele>20.4</ele><time>2012-07-27T16:45:38.0000000+00:00</time></trkpt><trkpt lat="63.93767929" lon="-21.00369263"><ele>20.3</ele><time>2012-07-27T16:45:43.0000000+00:00</time></trkpt><trkpt lat="63.93769455" lon="-21.00381661"><ele>21.6</ele><time>2012-07-27T16:45:48.0000000+00:00</time></trkpt><trkpt lat="63.93769074" lon="-21.00381661"><ele>22.0</ele><time>2012-07-27T16:45:53.0000000+00:00</time></trkpt><trkpt lat="63.93768692" lon="-21.00382042"><ele>22.1</ele><time>2012-07-27T16:45:58.0000000+00:00</time></trkpt><trkpt lat="63.93768692" lon="-21.00381661"><ele>22.3</ele><time>2012-07-27T16:46:03.0000000+00:00</time></trkpt><trkpt lat="63.93769074" lon="-21.0038147"><ele>22.3</ele><time>2012-07-27T16:46:08.0000000+00:00</time></trkpt><trkpt lat="63.93769074" lon="-21.0038147"><ele>22.5</ele><time>2012-07-27T16:46:13.0000000+00:00</time></trkpt><trkpt lat="63.93769455" lon="-21.00381088"><ele>22.7</ele><time>2012-07-27T16:46:18.0000000+00:00</time></trkpt><trkpt lat="63.93769455" lon="-21.0038147"><ele>22.7</ele><time>2012-07-27T16:46:23.0000000+00:00</time></trkpt><trkpt lat="63.93769455" lon="-21.0038147"><ele>22.7</ele><time>2012-07-27T16:46:28.0000000+00:00</time></trkpt><trkpt lat="63.93769455" lon="-21.0038147"><ele>22.7</ele><time>2012-07-27T16:46:33.0000000+00:00</time></trkpt><trkpt lat="63.93769455" lon="-21.0038147"><ele>22.7</ele><time>2012-07-27T16:46:38.0000000+00:00</time></trkpt><trkpt lat="63.93769455" lon="-21.0038147"><ele>22.7</ele><time>2012-07-27T16:46:43.0000000+00:00</time></trkpt><trkpt lat="63.93769455" lon="-21.0038147"><ele>22.7</ele><time>2012-07-27T16:46:48.0000000+00:00</time></trkpt><trkpt lat="63.93766785" lon="-21.00369072"><ele>23.5</ele><time>2012-07-27T16:46:53.0000000+00:00</time></trkpt><trkpt lat="63.93757248" lon="-21.00342178"><ele>25.3</ele><time>2012-07-27T16:46:58.0000000+00:00</time></trkpt><trkpt lat="63.93752289" lon="-21.00319099"><ele>26.5</ele><time>2012-07-27T16:47:03.0000000+00:00</time></trkpt><trkpt lat="63.93749237" lon="-21.00288391"><ele>25.4</ele><time>2012-07-27T16:47:08.0000000+00:00</time></trkpt><trkpt lat="63.93746185" lon="-21.00247574"><ele>24.0</ele><time>2012-07-27T16:47:13.0000000+00:00</time></trkpt><trkpt lat="63.93743897" lon="-21.00208092"><ele>25.2</ele><time>2012-07-27T16:47:18.0000000+00:00</time></trkpt><trkpt lat="63.93741989" lon="-21.00172806"><ele>26.2</ele><time>2012-07-27T16:47:23.0000000+00:00</time></trkpt><trkpt lat="63.937397" lon="-21.00140762"><ele>25.9</ele><time>2012-07-27T16:47:28.0000000+00:00</time></trkpt><trkpt lat="63.93737412" lon="-21.00114822"><ele>28.8</ele><time>2012-07-27T16:47:33.0000000+00:00</time></trkpt><trkpt lat="63.93737412" lon="-21.00085449"><ele>26.5</ele><time>2012-07-27T16:47:38.0000000+00:00</time></trkpt><trkpt lat="63.93742371" lon="-21.00073052"><ele>24.0</ele><time>2012-07-27T16:47:43.0000000+00:00</time></trkpt><trkpt lat="63.93743515" lon="-21.00072098"><ele>24.1</ele><time>2012-07-27T16:47:48.0000000+00:00</time></trkpt><trkpt lat="63.93745041" lon="-21.00073433"><ele>25.0</ele><time>2012-07-27T16:47:53.0000000+00:00</time></trkpt><trkpt lat="63.9374733" lon="-21.00074196"><ele>26.0</ele><time>2012-07-27T16:47:58.0000000+00:00</time></trkpt><trkpt lat="63.9374733" lon="-21.00071907"><ele>24.5</ele><time>2012-07-27T16:48:03.0000000+00:00</time></trkpt><trkpt lat="63.9374733" lon="-21.00072289"><ele>24.6</ele><time>2012-07-27T16:48:08.0000000+00:00</time></trkpt><trkpt lat="63.9374733" lon="-21.00072289"><ele>24.6</ele><time>2012-07-27T16:48:13.0000000+00:00</time></trkpt><trkpt lat="63.9374733" lon="-21.00072289"><ele>24.6</ele><time>2012-07-27T16:48:18.0000000+00:00</time></trkpt><trkpt lat="63.9374733" lon="-21.00072289"><ele>24.6</ele><time>2012-07-27T16:48:23.0000000+00:00</time></trkpt><trkpt lat="63.9374733" lon="-21.00072289"><ele>24.6</ele><time>2012-07-27T16:48:28.0000000+00:00</time></trkpt><trkpt lat="63.9374733" lon="-21.00072289"><ele>24.6</ele><time>2012-07-27T16:48:33.0000000+00:00</time></trkpt><trkpt lat="63.9374733" lon="-21.00072289"><ele>24.6</ele><time>2012-07-27T16:48:38.0000000+00:00</time></trkpt><trkpt lat="63.9374733" lon="-21.00072289"><ele>24.5</ele><time>2012-07-27T16:48:43.0000000+00:00</time></trkpt><trkpt lat="63.9374733" lon="-21.00072289"><ele>24.5</ele><time>2012-07-27T16:48:48.0000000+00:00</time></trkpt><trkpt lat="63.9374733" lon="-21.00072098"><ele>24.5</ele><time>2012-07-27T16:48:53.0000000+00:00</time></trkpt><trkpt lat="63.9374733" lon="-21.00072098"><ele>24.5</ele><time>2012-07-27T16:48:58.0000000+00:00</time></trkpt><trkpt lat="63.9374733" lon="-21.00072098"><ele>24.5</ele><time>2012-07-27T16:49:03.0000000+00:00</time></trkpt><trkpt lat="63.9374733" lon="-21.00072098"><ele>24.5</ele><time>2012-07-27T16:49:08.0000000+00:00</time></trkpt><trkpt lat="63.9374733" lon="-21.00072098"><ele>24.5</ele><time>2012-07-27T16:49:13.0000000+00:00</time></trkpt><trkpt lat="63.9374733" lon="-21.00072098"><ele>24.5</ele><time>2012-07-27T16:49:18.0000000+00:00</time></trkpt><trkpt lat="63.9374733" lon="-21.00072098"><ele>24.5</ele><time>2012-07-27T16:49:23.0000000+00:00</time></trkpt><trkpt lat="63.9374733" lon="-21.00072098"><ele>24.5</ele><time>2012-07-27T16:49:28.0000000+00:00</time></trkpt><trkpt lat="63.9374733" lon="-21.00072098"><ele>24.5</ele><time>2012-07-27T16:49:33.0000000+00:00</time></trkpt><trkpt lat="63.9374733" lon="-21.00072098"><ele>24.5</ele><time>2012-07-27T16:49:38.0000000+00:00</time></trkpt><trkpt lat="63.9374733" lon="-21.00072098"><ele>24.5</ele><time>2012-07-27T16:49:43.0000000+00:00</time></trkpt><trkpt lat="63.9374733" lon="-21.00071907"><ele>24.5</ele><time>2012-07-27T16:49:48.0000000+00:00</time></trkpt><trkpt lat="63.9374733" lon="-21.00072098"><ele>24.5</ele><time>2012-07-27T16:49:53.0000000+00:00</time></trkpt><trkpt lat="63.9374733" lon="-21.00072098"><ele>24.5</ele><time>2012-07-27T16:49:58.0000000+00:00</time></trkpt><trkpt lat="63.9374733" lon="-21.00071907"><ele>24.5</ele><time>2012-07-27T16:50:03.0000000+00:00</time></trkpt><trkpt lat="63.9374733" lon="-21.00071907"><ele>24.5</ele><time>2012-07-27T16:50:08.0000000+00:00</time></trkpt><trkpt lat="63.9374733" lon="-21.00071907"><ele>24.5</ele><time>2012-07-27T16:50:13.0000000+00:00</time></trkpt><trkpt lat="63.9374733" lon="-21.00071907"><ele>24.5</ele><time>2012-07-27T16:50:18.0000000+00:00</time></trkpt><trkpt lat="63.9374733" lon="-21.00071907"><ele>24.5</ele><time>2012-07-27T16:50:23.0000000+00:00</time></trkpt><trkpt lat="63.9374733" lon="-21.00071907"><ele>24.5</ele><time>2012-07-27T16:50:28.0000000+00:00</time></trkpt><trkpt lat="63.9374733" lon="-21.00071907"><ele>24.5</ele><time>2012-07-27T16:50:33.0000000+00:00</time></trkpt><trkpt lat="63.9374733" lon="-21.00071907"><ele>24.5</ele><time>2012-07-27T16:50:38.0000000+00:00</time></trkpt><trkpt lat="63.9374733" lon="-21.00071907"><ele>24.5</ele><time>2012-07-27T16:50:43.0000000+00:00</time></trkpt><trkpt lat="63.9374733" lon="-21.00071907"><ele>24.4</ele><time>2012-07-27T16:50:48.0000000+00:00</time></trkpt><trkpt lat="63.9374733" lon="-21.00071907"><ele>24.5</ele><time>2012-07-27T16:50:53.0000000+00:00</time></trkpt><trkpt lat="63.93746948" lon="-21.00071907"><ele>24.4</ele><time>2012-07-27T16:50:58.0000000+00:00</time></trkpt><trkpt lat="63.93746948" lon="-21.00071907"><ele>24.4</ele><time>2012-07-27T16:51:03.0000000+00:00</time></trkpt><trkpt lat="63.93746948" lon="-21.00071907"><ele>24.4</ele><time>2012-07-27T16:51:08.0000000+00:00</time></trkpt><trkpt lat="63.93746948" lon="-21.00071907"><ele>24.4</ele><time>2012-07-27T16:51:13.0000000+00:00</time></trkpt><trkpt lat="63.93746948" lon="-21.00072098"><ele>24.4</ele><time>2012-07-27T16:51:18.0000000+00:00</time></trkpt><trkpt lat="63.93746948" lon="-21.00072098"><ele>24.4</ele><time>2012-07-27T16:51:23.0000000+00:00</time></trkpt><trkpt lat="63.93746948" lon="-21.00072098"><ele>24.4</ele><time>2012-07-27T16:51:28.0000000+00:00</time></trkpt><trkpt lat="63.93746948" lon="-21.00072098"><ele>24.4</ele><time>2012-07-27T16:51:33.0000000+00:00</time></trkpt><trkpt lat="63.93746948" lon="-21.00072098"><ele>24.4</ele><time>2012-07-27T16:51:38.0000000+00:00</time></trkpt><trkpt lat="63.93746948" lon="-21.00072098"><ele>24.5</ele><time>2012-07-27T16:51:43.0000000+00:00</time></trkpt><trkpt lat="63.93746948" lon="-21.00072289"><ele>24.5</ele><time>2012-07-27T16:51:48.0000000+00:00</time></trkpt><trkpt lat="63.93746948" lon="-21.00072479"><ele>24.6</ele><time>2012-07-27T16:51:53.0000000+00:00</time></trkpt><trkpt lat="63.93746948" lon="-21.0007267"><ele>24.7</ele><time>2012-07-27T16:51:58.0000000+00:00</time></trkpt><trkpt lat="63.93746948" lon="-21.00073052"><ele>24.8</ele><time>2012-07-27T16:52:03.0000000+00:00</time></trkpt><trkpt lat="63.93746948" lon="-21.00073052"><ele>24.8</ele><time>2012-07-27T16:52:08.0000000+00:00</time></trkpt><trkpt lat="63.93746948" lon="-21.00073052"><ele>24.9</ele><time>2012-07-27T16:52:13.0000000+00:00</time></trkpt><trkpt lat="63.93746948" lon="-21.00073052"><ele>24.9</ele><time>2012-07-27T16:52:18.0000000+00:00</time></trkpt><trkpt lat="63.93746567" lon="-21.00073242"><ele>25.0</ele><time>2012-07-27T16:52:23.0000000+00:00</time></trkpt><trkpt lat="63.93746567" lon="-21.00073433"><ele>25.1</ele><time>2012-07-27T16:52:28.0000000+00:00</time></trkpt><trkpt lat="63.93746567" lon="-21.00073814"><ele>25.2</ele><time>2012-07-27T16:52:33.0000000+00:00</time></trkpt><trkpt lat="63.93746567" lon="-21.00074005"><ele>25.3</ele><time>2012-07-27T16:52:38.0000000+00:00</time></trkpt><trkpt lat="63.93746567" lon="-21.00074577"><ele>25.4</ele><time>2012-07-27T16:52:43.0000000+00:00</time></trkpt><trkpt lat="63.93746567" lon="-21.00074768"><ele>25.6</ele><time>2012-07-27T16:52:48.0000000+00:00</time></trkpt><trkpt lat="63.93746567" lon="-21.0007515"><ele>25.7</ele><time>2012-07-27T16:52:53.0000000+00:00</time></trkpt><trkpt lat="63.93746567" lon="-21.00075531"><ele>25.9</ele><time>2012-07-27T16:52:58.0000000+00:00</time></trkpt><trkpt lat="63.93746567" lon="-21.00075913"><ele>26.1</ele><time>2012-07-27T16:53:03.0000000+00:00</time></trkpt><trkpt lat="63.93746185" lon="-21.00076485"><ele>26.2</ele><time>2012-07-27T16:53:08.0000000+00:00</time></trkpt><trkpt lat="63.93746567" lon="-21.00076485"><ele>26.4</ele><time>2012-07-27T16:53:13.0000000+00:00</time></trkpt><trkpt lat="63.93746567" lon="-21.00076485"><ele>26.4</ele><time>2012-07-27T16:53:18.0000000+00:00</time></trkpt><trkpt lat="63.93746185" lon="-21.00076866"><ele>26.4</ele><time>2012-07-27T16:53:23.0000000+00:00</time></trkpt><trkpt lat="63.93746185" lon="-21.00077248"><ele>26.4</ele><time>2012-07-27T16:53:28.0000000+00:00</time></trkpt><trkpt lat="63.93745422" lon="-21.00078392"><ele>26.2</ele><time>2012-07-27T16:53:33.0000000+00:00</time></trkpt><trkpt lat="63.93742752" lon="-21.00080109"><ele>24.8</ele><time>2012-07-27T16:53:38.0000000+00:00</time></trkpt><trkpt lat="63.93741989" lon="-21.00078583"><ele>23.1</ele><time>2012-07-27T16:53:43.0000000+00:00</time></trkpt><trkpt lat="63.93741989" lon="-21.00078774"><ele>23.1</ele><time>2012-07-27T16:53:48.0000000+00:00</time></trkpt><trkpt lat="63.93741989" lon="-21.00078964"><ele>23.0</ele><time>2012-07-27T16:53:53.0000000+00:00</time></trkpt><trkpt lat="63.93741989" lon="-21.00078964"><ele>23.0</ele><time>2012-07-27T16:53:58.0000000+00:00</time></trkpt><trkpt lat="63.93741989" lon="-21.00078774"><ele>23.0</ele><time>2012-07-27T16:54:03.0000000+00:00</time></trkpt><trkpt lat="63.93741989" lon="-21.00078774"><ele>23.0</ele><time>2012-07-27T16:54:08.0000000+00:00</time></trkpt><trkpt lat="63.93741989" lon="-21.00078774"><ele>23.0</ele><time>2012-07-27T16:54:13.0000000+00:00</time></trkpt><trkpt lat="63.93741989" lon="-21.00078583"><ele>22.9</ele><time>2012-07-27T16:54:18.0000000+00:00</time></trkpt><trkpt lat="63.93741989" lon="-21.00078392"><ele>22.9</ele><time>2012-07-27T16:54:23.0000000+00:00</time></trkpt><trkpt lat="63.93741989" lon="-21.00078392"><ele>22.9</ele><time>2012-07-27T16:54:28.0000000+00:00</time></trkpt><trkpt lat="63.93741989" lon="-21.00078201"><ele>22.8</ele><time>2012-07-27T16:54:33.0000000+00:00</time></trkpt><trkpt lat="63.93741989" lon="-21.00078011"><ele>22.7</ele><time>2012-07-27T16:54:38.0000000+00:00</time></trkpt><trkpt lat="63.93741989" lon="-21.00078011"><ele>22.7</ele><time>2012-07-27T16:54:43.0000000+00:00</time></trkpt><trkpt lat="63.93741989" lon="-21.0007782"><ele>22.7</ele><time>2012-07-27T16:54:48.0000000+00:00</time></trkpt><trkpt lat="63.93741989" lon="-21.0007782"><ele>22.7</ele><time>2012-07-27T16:54:53.0000000+00:00</time></trkpt><trkpt lat="63.93741989" lon="-21.0007782"><ele>22.6</ele><time>2012-07-27T16:54:58.0000000+00:00</time></trkpt><trkpt lat="63.93741989" lon="-21.00077629"><ele>22.6</ele><time>2012-07-27T16:55:03.0000000+00:00</time></trkpt><trkpt lat="63.93741989" lon="-21.00077629"><ele>22.5</ele><time>2012-07-27T16:55:08.0000000+00:00</time></trkpt><trkpt lat="63.93741989" lon="-21.00077438"><ele>22.5</ele><time>2012-07-27T16:55:13.0000000+00:00</time></trkpt><trkpt lat="63.93741989" lon="-21.00077438"><ele>22.5</ele><time>2012-07-27T16:55:18.0000000+00:00</time></trkpt><trkpt lat="63.93741989" lon="-21.00077438"><ele>22.5</ele><time>2012-07-27T16:55:23.0000000+00:00</time></trkpt><trkpt lat="63.93741989" lon="-21.00077248"><ele>22.4</ele><time>2012-07-27T16:55:28.0000000+00:00</time></trkpt><trkpt lat="63.93741989" lon="-21.00077248"><ele>22.4</ele><time>2012-07-27T16:55:33.0000000+00:00</time></trkpt><trkpt lat="63.93741989" lon="-21.00077057"><ele>22.3</ele><time>2012-07-27T16:55:38.0000000+00:00</time></trkpt><trkpt lat="63.93741989" lon="-21.00076866"><ele>22.2</ele><time>2012-07-27T16:55:43.0000000+00:00</time></trkpt><trkpt lat="63.93741989" lon="-21.00076866"><ele>22.1</ele><time>2012-07-27T16:55:48.0000000+00:00</time></trkpt><trkpt lat="63.93741989" lon="-21.00076866"><ele>22.0</ele><time>2012-07-27T16:55:53.0000000+00:00</time></trkpt><trkpt lat="63.93741989" lon="-21.00076866"><ele>22.0</ele><time>2012-07-27T16:55:58.0000000+00:00</time></trkpt><trkpt lat="63.93741989" lon="-21.00076866"><ele>22.1</ele><time>2012-07-27T16:56:03.0000000+00:00</time></trkpt><trkpt lat="63.93741989" lon="-21.00077057"><ele>22.3</ele><time>2012-07-27T16:56:08.0000000+00:00</time></trkpt><trkpt lat="63.93741989" lon="-21.00077057"><ele>22.5</ele><time>2012-07-27T16:56:13.0000000+00:00</time></trkpt><trkpt lat="63.93741989" lon="-21.00077248"><ele>22.5</ele><time>2012-07-27T16:56:18.0000000+00:00</time></trkpt><trkpt lat="63.93742371" lon="-21.00077248"><ele>22.5</ele><time>2012-07-27T16:56:23.0000000+00:00</time></trkpt><trkpt lat="63.93742371" lon="-21.00077248"><ele>22.6</ele><time>2012-07-27T16:56:28.0000000+00:00</time></trkpt><trkpt lat="63.93742371" lon="-21.00077248"><ele>22.6</ele><time>2012-07-27T16:56:33.0000000+00:00</time></trkpt><trkpt lat="63.93742371" lon="-21.00077248"><ele>22.6</ele><time>2012-07-27T16:56:38.0000000+00:00</time></trkpt><trkpt lat="63.93742371" lon="-21.00077438"><ele>22.7</ele><time>2012-07-27T16:56:43.0000000+00:00</time></trkpt><trkpt lat="63.93742371" lon="-21.00077438"><ele>22.7</ele><time>2012-07-27T16:56:48.0000000+00:00</time></trkpt><trkpt lat="63.93741989" lon="-21.0007782"><ele>22.8</ele><time>2012-07-27T16:56:53.0000000+00:00</time></trkpt><trkpt lat="63.93741989" lon="-21.0007782"><ele>22.8</ele><time>2012-07-27T16:56:58.0000000+00:00</time></trkpt><trkpt lat="63.93741989" lon="-21.0007782"><ele>22.8</ele><time>2012-07-27T16:57:03.0000000+00:00</time></trkpt><trkpt lat="63.93741989" lon="-21.0007782"><ele>22.8</ele><time>2012-07-27T16:57:08.0000000+00:00</time></trkpt><trkpt lat="63.93741989" lon="-21.0007782"><ele>22.8</ele><time>2012-07-27T16:57:13.0000000+00:00</time></trkpt><trkpt lat="63.93741989" lon="-21.0007782"><ele>22.8</ele><time>2012-07-27T16:57:18.0000000+00:00</time></trkpt><trkpt lat="63.93742371" lon="-21.00077438"><ele>22.8</ele><time>2012-07-27T16:57:23.0000000+00:00</time></trkpt><trkpt lat="63.93742371" lon="-21.00077248"><ele>22.7</ele><time>2012-07-27T16:57:28.0000000+00:00</time></trkpt><trkpt lat="63.93742371" lon="-21.00077248"><ele>22.6</ele><time>2012-07-27T16:57:33.0000000+00:00</time></trkpt><trkpt lat="63.93742371" lon="-21.00077248"><ele>22.6</ele><time>2012-07-27T16:57:38.0000000+00:00</time></trkpt><trkpt lat="63.93742371" lon="-21.00077057"><ele>22.6</ele><time>2012-07-27T16:57:43.0000000+00:00</time></trkpt><trkpt lat="63.93742371" lon="-21.00077057"><ele>22.6</ele><time>2012-07-27T16:57:48.0000000+00:00</time></trkpt><trkpt lat="63.93742371" lon="-21.00077057"><ele>22.6</ele><time>2012-07-27T16:57:53.0000000+00:00</time></trkpt><trkpt lat="63.93742371" lon="-21.00076866"><ele>22.6</ele><time>2012-07-27T16:57:58.0000000+00:00</time></trkpt><trkpt lat="63.93742371" lon="-21.00076866"><ele>22.6</ele><time>2012-07-27T16:58:03.0000000+00:00</time></trkpt><trkpt lat="63.93742371" lon="-21.00076866"><ele>22.7</ele><time>2012-07-27T16:58:08.0000000+00:00</time></trkpt><trkpt lat="63.93742371" lon="-21.00076675"><ele>22.7</ele><time>2012-07-27T16:58:13.0000000+00:00</time></trkpt><trkpt lat="63.93742371" lon="-21.00076485"><ele>22.7</ele><time>2012-07-27T16:58:18.0000000+00:00</time></trkpt><trkpt lat="63.93742371" lon="-21.00076485"><ele>22.7</ele><time>2012-07-27T16:58:23.0000000+00:00</time></trkpt><trkpt lat="63.93742371" lon="-21.00076485"><ele>22.8</ele><time>2012-07-27T16:58:28.0000000+00:00</time></trkpt><trkpt lat="63.93742752" lon="-21.00076485"><ele>22.9</ele><time>2012-07-27T16:58:33.0000000+00:00</time></trkpt><trkpt lat="63.93742371" lon="-21.00076866"><ele>23.0</ele><time>2012-07-27T16:58:38.0000000+00:00</time></trkpt><trkpt lat="63.93742752" lon="-21.00077057"><ele>23.1</ele><time>2012-07-27T16:58:43.0000000+00:00</time></trkpt><trkpt lat="63.93742752" lon="-21.00077248"><ele>23.2</ele><time>2012-07-27T16:58:48.0000000+00:00</time></trkpt><trkpt lat="63.93742752" lon="-21.00077248"><ele>23.2</ele><time>2012-07-27T16:58:53.0000000+00:00</time></trkpt><trkpt lat="63.93742752" lon="-21.00077248"><ele>23.3</ele><time>2012-07-27T16:58:58.0000000+00:00</time></trkpt><trkpt lat="63.93742752" lon="-21.00077248"><ele>23.3</ele><time>2012-07-27T16:59:03.0000000+00:00</time></trkpt><trkpt lat="63.93742752" lon="-21.00076675"><ele>23.3</ele><time>2012-07-27T16:59:08.0000000+00:00</time></trkpt><trkpt lat="63.93742752" lon="-21.00076294"><ele>23.3</ele><time>2012-07-27T16:59:13.0000000+00:00</time></trkpt><trkpt lat="63.93742752" lon="-21.00076103"><ele>23.2</ele><time>2012-07-27T16:59:18.0000000+00:00</time></trkpt><trkpt lat="63.93742752" lon="-21.00075913"><ele>23.2</ele><time>2012-07-27T16:59:23.0000000+00:00</time></trkpt><trkpt lat="63.93742752" lon="-21.00075913"><ele>23.2</ele><time>2012-07-27T16:59:28.0000000+00:00</time></trkpt><trkpt lat="63.93742752" lon="-21.00075913"><ele>23.2</ele><time>2012-07-27T16:59:33.0000000+00:00</time></trkpt><trkpt lat="63.93742752" lon="-21.00075722"><ele>23.2</ele><time>2012-07-27T16:59:38.0000000+00:00</time></trkpt><trkpt lat="63.93742752" lon="-21.00075722"><ele>23.2</ele><time>2012-07-27T16:59:43.0000000+00:00</time></trkpt><trkpt lat="63.93742752" lon="-21.00075722"><ele>23.2</ele><time>2012-07-27T16:59:48.0000000+00:00</time></trkpt><trkpt lat="63.93742752" lon="-21.00075722"><ele>23.2</ele><time>2012-07-27T16:59:53.0000000+00:00</time></trkpt><trkpt lat="63.93742752" lon="-21.00075531"><ele>23.2</ele><time>2012-07-27T16:59:58.0000000+00:00</time></trkpt><trkpt lat="63.93742752" lon="-21.0007534"><ele>23.1</ele><time>2012-07-27T17:00:03.0000000+00:00</time></trkpt><trkpt lat="63.93742752" lon="-21.0007534"><ele>23.1</ele><time>2012-07-27T17:00:08.0000000+00:00</time></trkpt><trkpt lat="63.93742752" lon="-21.0007515"><ele>23.1</ele><time>2012-07-27T17:00:13.0000000+00:00</time></trkpt><trkpt lat="63.93744278" lon="-21.00069428"><ele>21.7</ele><time>2012-07-27T17:00:18.0000000+00:00</time></trkpt><trkpt lat="63.93746185" lon="-21.00063133"><ele>19.9</ele><time>2012-07-27T17:00:23.0000000+00:00</time></trkpt><trkpt lat="63.9374733" lon="-21.0006237"><ele>20.7</ele><time>2012-07-27T17:00:28.0000000+00:00</time></trkpt><trkpt lat="63.93747711" lon="-21.00062561"><ele>21.3</ele><time>2012-07-27T17:00:33.0000000+00:00</time></trkpt><trkpt lat="63.93748093" lon="-21.00060654"><ele>21.8</ele><time>2012-07-27T17:00:38.0000000+00:00</time></trkpt><trkpt lat="63.93748856" lon="-21.00059891"><ele>22.3</ele><time>2012-07-27T17:00:43.0000000+00:00</time></trkpt><trkpt lat="63.93749237" lon="-21.00059509"><ele>23.1</ele><time>2012-07-27T17:00:48.0000000+00:00</time></trkpt><trkpt lat="63.93749619" lon="-21.00060272"><ele>24.5</ele><time>2012-07-27T17:00:53.0000000+00:00</time></trkpt><trkpt lat="63.93749619" lon="-21.00059509"><ele>24.0</ele><time>2012-07-27T17:00:58.0000000+00:00</time></trkpt><trkpt lat="63.93749619" lon="-21.00059509"><ele>24.0</ele><time>2012-07-27T17:01:03.0000000+00:00</time></trkpt><trkpt lat="63.93749619" lon="-21.00059509"><ele>24.0</ele><time>2012-07-27T17:01:08.0000000+00:00</time></trkpt><trkpt lat="63.93749619" lon="-21.00059509"><ele>24.0</ele><time>2012-07-27T17:01:13.0000000+00:00</time></trkpt><trkpt lat="63.93749619" lon="-21.00059509"><ele>24.1</ele><time>2012-07-27T17:01:18.0000000+00:00</time></trkpt><trkpt lat="63.93749619" lon="-21.00059509"><ele>24.1</ele><time>2012-07-27T17:01:23.0000000+00:00</time></trkpt><trkpt lat="63.93749619" lon="-21.00059509"><ele>24.1</ele><time>2012-07-27T17:01:28.0000000+00:00</time></trkpt><trkpt lat="63.93749619" lon="-21.00059509"><ele>24.1</ele><time>2012-07-27T17:01:33.0000000+00:00</time></trkpt><trkpt lat="63.93749619" lon="-21.00059509"><ele>24.1</ele><time>2012-07-27T17:01:38.0000000+00:00</time></trkpt><trkpt lat="63.93749619" lon="-21.00059509"><ele>24.1</ele><time>2012-07-27T17:01:43.0000000+00:00</time></trkpt><trkpt lat="63.93749619" lon="-21.00059509"><ele>24.1</ele><time>2012-07-27T17:01:48.0000000+00:00</time></trkpt><trkpt lat="63.93749619" lon="-21.00059509"><ele>24.1</ele><time>2012-07-27T17:01:53.0000000+00:00</time></trkpt><trkpt lat="63.93749619" lon="-21.00059509"><ele>24.1</ele><time>2012-07-27T17:01:58.0000000+00:00</time></trkpt><trkpt lat="63.93749619" lon="-21.00059509"><ele>24.1</ele><time>2012-07-27T17:02:03.0000000+00:00</time></trkpt><trkpt lat="63.93749619" lon="-21.00059509"><ele>24.1</ele><time>2012-07-27T17:02:08.0000000+00:00</time></trkpt><trkpt lat="63.93749619" lon="-21.00059509"><ele>24.1</ele><time>2012-07-27T17:02:13.0000000+00:00</time></trkpt><trkpt lat="63.93749619" lon="-21.00059509"><ele>24.1</ele><time>2012-07-27T17:02:18.0000000+00:00</time></trkpt><trkpt lat="63.93749619" lon="-21.00059509"><ele>24.1</ele><time>2012-07-27T17:02:23.0000000+00:00</time></trkpt><trkpt lat="63.93749619" lon="-21.00059509"><ele>24.1</ele><time>2012-07-27T17:02:28.0000000+00:00</time></trkpt><trkpt lat="63.93749619" lon="-21.00059509"><ele>24.1</ele><time>2012-07-27T17:02:33.0000000+00:00</time></trkpt><trkpt lat="63.9375" lon="-21.00059128"><ele>24.2</ele><time>2012-07-27T17:02:38.0000000+00:00</time></trkpt><trkpt lat="63.9375" lon="-21.00058746"><ele>24.2</ele><time>2012-07-27T17:02:43.0000000+00:00</time></trkpt><trkpt lat="63.9375" lon="-21.00058746"><ele>24.2</ele><time>2012-07-27T17:02:48.0000000+00:00</time></trkpt><trkpt lat="63.9375" lon="-21.00058746"><ele>24.2</ele><time>2012-07-27T17:02:53.0000000+00:00</time></trkpt><trkpt lat="63.9375" lon="-21.00058746"><ele>24.2</ele><time>2012-07-27T17:02:58.0000000+00:00</time></trkpt><trkpt lat="63.9375" lon="-21.00058937"><ele>24.3</ele><time>2012-07-27T17:03:03.0000000+00:00</time></trkpt><trkpt lat="63.9375" lon="-21.00059128"><ele>24.4</ele><time>2012-07-27T17:03:08.0000000+00:00</time></trkpt><trkpt lat="63.9375" lon="-21.00059319"><ele>24.4</ele><time>2012-07-27T17:03:13.0000000+00:00</time></trkpt><trkpt lat="63.9375" lon="-21.00059319"><ele>24.5</ele><time>2012-07-27T17:03:18.0000000+00:00</time></trkpt><trkpt lat="63.9375" lon="-21.00059509"><ele>24.5</ele><time>2012-07-27T17:03:23.0000000+00:00</time></trkpt><trkpt lat="63.9375" lon="-21.00059509"><ele>24.5</ele><time>2012-07-27T17:03:28.0000000+00:00</time></trkpt><trkpt lat="63.9375" lon="-21.00059509"><ele>24.5</ele><time>2012-07-27T17:03:33.0000000+00:00</time></trkpt><trkpt lat="63.9375" lon="-21.00059509"><ele>24.5</ele><time>2012-07-27T17:03:38.0000000+00:00</time></trkpt><trkpt lat="63.9375" lon="-21.000597"><ele>24.6</ele><time>2012-07-27T17:03:43.0000000+00:00</time></trkpt><trkpt lat="63.9375" lon="-21.00059891"><ele>24.6</ele><time>2012-07-27T17:03:48.0000000+00:00</time></trkpt><trkpt lat="63.9375" lon="-21.00059891"><ele>24.6</ele><time>2012-07-27T17:03:53.0000000+00:00</time></trkpt><trkpt lat="63.9375" lon="-21.00059891"><ele>24.7</ele><time>2012-07-27T17:03:58.0000000+00:00</time></trkpt><trkpt lat="63.9375" lon="-21.00060082"><ele>24.7</ele><time>2012-07-27T17:04:03.0000000+00:00</time></trkpt><trkpt lat="63.9375" lon="-21.00060082"><ele>24.7</ele><time>2012-07-27T17:04:08.0000000+00:00</time></trkpt><trkpt lat="63.9375" lon="-21.00060272"><ele>24.8</ele><time>2012-07-27T17:04:13.0000000+00:00</time></trkpt><trkpt lat="63.9375" lon="-21.00060272"><ele>24.8</ele><time>2012-07-27T17:04:18.0000000+00:00</time></trkpt><trkpt lat="63.9375" lon="-21.00060463"><ele>24.8</ele><time>2012-07-27T17:04:23.0000000+00:00</time></trkpt><trkpt lat="63.9375" lon="-21.00060654"><ele>24.9</ele><time>2012-07-27T17:04:28.0000000+00:00</time></trkpt><trkpt lat="63.9375" lon="-21.00060654"><ele>25.0</ele><time>2012-07-27T17:04:33.0000000+00:00</time></trkpt><trkpt lat="63.9375" lon="-21.00060844"><ele>25.0</ele><time>2012-07-27T17:04:38.0000000+00:00</time></trkpt><trkpt lat="63.9375" lon="-21.00061035"><ele>25.1</ele><time>2012-07-27T17:04:43.0000000+00:00</time></trkpt><trkpt lat="63.9375" lon="-21.00061226"><ele>25.2</ele><time>2012-07-27T17:04:48.0000000+00:00</time></trkpt><trkpt lat="63.9375" lon="-21.00061417"><ele>25.2</ele><time>2012-07-27T17:04:53.0000000+00:00</time></trkpt><trkpt lat="63.9375" lon="-21.00061607"><ele>25.3</ele><time>2012-07-27T17:04:58.0000000+00:00</time></trkpt><trkpt lat="63.9375" lon="-21.00061607"><ele>25.3</ele><time>2012-07-27T17:05:03.0000000+00:00</time></trkpt><trkpt lat="63.9375" lon="-21.00061798"><ele>25.3</ele><time>2012-07-27T17:05:08.0000000+00:00</time></trkpt><trkpt lat="63.9375" lon="-21.00061989"><ele>25.4</ele><time>2012-07-27T17:05:13.0000000+00:00</time></trkpt><trkpt lat="63.9375" lon="-21.00061989"><ele>25.4</ele><time>2012-07-27T17:05:18.0000000+00:00</time></trkpt><trkpt lat="63.9375" lon="-21.0006237"><ele>25.4</ele><time>2012-07-27T17:05:23.0000000+00:00</time></trkpt><trkpt lat="63.9375" lon="-21.00062561"><ele>25.5</ele><time>2012-07-27T17:05:28.0000000+00:00</time></trkpt><trkpt lat="63.9375" lon="-21.00062943"><ele>25.6</ele><time>2012-07-27T17:05:33.0000000+00:00</time></trkpt><trkpt lat="63.9375" lon="-21.00063133"><ele>25.6</ele><time>2012-07-27T17:05:38.0000000+00:00</time></trkpt><trkpt lat="63.9375" lon="-21.00063324"><ele>25.6</ele><time>2012-07-27T17:05:43.0000000+00:00</time></trkpt><trkpt lat="63.9375" lon="-21.00063324"><ele>25.6</ele><time>2012-07-27T17:05:48.0000000+00:00</time></trkpt><trkpt lat="63.9375" lon="-21.00063515"><ele>25.6</ele><time>2012-07-27T17:05:53.0000000+00:00</time></trkpt><trkpt lat="63.9375" lon="-21.00063515"><ele>25.6</ele><time>2012-07-27T17:05:58.0000000+00:00</time></trkpt><trkpt lat="63.9375" lon="-21.00063515"><ele>25.6</ele><time>2012-07-27T17:06:03.0000000+00:00</time></trkpt><trkpt lat="63.9375" lon="-21.00063515"><ele>25.6</ele><time>2012-07-27T17:06:08.0000000+00:00</time></trkpt><trkpt lat="63.9375" lon="-21.00063705"><ele>25.6</ele><time>2012-07-27T17:06:13.0000000+00:00</time></trkpt><trkpt lat="63.93750382" lon="-21.00063705"><ele>25.6</ele><time>2012-07-27T17:06:18.0000000+00:00</time></trkpt><trkpt lat="63.93750382" lon="-21.00063705"><ele>25.6</ele><time>2012-07-27T17:06:23.0000000+00:00</time></trkpt><trkpt lat="63.9375" lon="-21.00063705"><ele>25.6</ele><time>2012-07-27T17:06:28.0000000+00:00</time></trkpt><trkpt lat="63.9375" lon="-21.00063705"><ele>25.6</ele><time>2012-07-27T17:06:33.0000000+00:00</time></trkpt><trkpt lat="63.9375" lon="-21.00063896"><ele>25.6</ele><time>2012-07-27T17:06:38.0000000+00:00</time></trkpt><trkpt lat="63.9375" lon="-21.00063896"><ele>25.6</ele><time>2012-07-27T17:06:43.0000000+00:00</time></trkpt><trkpt lat="63.9375" lon="-21.00063896"><ele>25.5</ele><time>2012-07-27T17:06:48.0000000+00:00</time></trkpt><trkpt lat="63.9375" lon="-21.00063896"><ele>25.5</ele><time>2012-07-27T17:06:53.0000000+00:00</time></trkpt><trkpt lat="63.9375" lon="-21.00063896"><ele>25.4</ele><time>2012-07-27T17:06:58.0000000+00:00</time></trkpt><trkpt lat="63.9375" lon="-21.00063896"><ele>25.4</ele><time>2012-07-27T17:07:03.0000000+00:00</time></trkpt><trkpt lat="63.9375" lon="-21.00063896"><ele>25.4</ele><time>2012-07-27T17:07:08.0000000+00:00</time></trkpt><trkpt lat="63.9375" lon="-21.00063896"><ele>25.4</ele><time>2012-07-27T17:07:13.0000000+00:00</time></trkpt><trkpt lat="63.9375" lon="-21.00063896"><ele>25.4</ele><time>2012-07-27T17:07:18.0000000+00:00</time></trkpt><trkpt lat="63.9375" lon="-21.00063896"><ele>25.4</ele><time>2012-07-27T17:07:23.0000000+00:00</time></trkpt><trkpt lat="63.9375" lon="-21.00063896"><ele>25.4</ele><time>2012-07-27T17:07:28.0000000+00:00</time></trkpt><trkpt lat="63.93750382" lon="-21.00063896"><ele>25.3</ele><time>2012-07-27T17:07:33.0000000+00:00</time></trkpt><trkpt lat="63.93750382" lon="-21.00063896"><ele>25.3</ele><time>2012-07-27T17:07:38.0000000+00:00</time></trkpt><trkpt lat="63.93750382" lon="-21.00063896"><ele>25.3</ele><time>2012-07-27T17:07:43.0000000+00:00</time></trkpt><trkpt lat="63.93750382" lon="-21.00063896"><ele>25.3</ele><time>2012-07-27T17:07:48.0000000+00:00</time></trkpt><trkpt lat="63.93750382" lon="-21.00063896"><ele>25.3</ele><time>2012-07-27T17:07:53.0000000+00:00</time></trkpt><trkpt lat="63.93750382" lon="-21.00063896"><ele>25.2</ele><time>2012-07-27T17:07:58.0000000+00:00</time></trkpt><trkpt lat="63.93750382" lon="-21.00063896"><ele>25.2</ele><time>2012-07-27T17:08:03.0000000+00:00</time></trkpt><trkpt lat="63.93750382" lon="-21.00063896"><ele>25.2</ele><time>2012-07-27T17:08:08.0000000+00:00</time></trkpt><trkpt lat="63.93750382" lon="-21.00063896"><ele>25.2</ele><time>2012-07-27T17:08:13.0000000+00:00</time></trkpt><trkpt lat="63.93750382" lon="-21.00063896"><ele>25.2</ele><time>2012-07-27T17:08:18.0000000+00:00</time></trkpt><trkpt lat="63.93750382" lon="-21.00063896"><ele>25.2</ele><time>2012-07-27T17:08:23.0000000+00:00</time></trkpt><trkpt lat="63.93750382" lon="-21.00063896"><ele>25.1</ele><time>2012-07-27T17:08:28.0000000+00:00</time></trkpt><trkpt lat="63.93750382" lon="-21.00063896"><ele>25.1</ele><time>2012-07-27T17:08:33.0000000+00:00</time></trkpt><trkpt lat="63.93750382" lon="-21.00063896"><ele>25.1</ele><time>2012-07-27T17:08:38.0000000+00:00</time></trkpt><trkpt lat="63.93750382" lon="-21.00063896"><ele>25.1</ele><time>2012-07-27T17:08:43.0000000+00:00</time></trkpt><trkpt lat="63.93750382" lon="-21.00063896"><ele>25.0</ele><time>2012-07-27T17:08:48.0000000+00:00</time></trkpt><trkpt lat="63.93750382" lon="-21.00063896"><ele>25.0</ele><time>2012-07-27T17:08:53.0000000+00:00</time></trkpt><trkpt lat="63.93750382" lon="-21.00063896"><ele>25.0</ele><time>2012-07-27T17:08:58.0000000+00:00</time></trkpt><trkpt lat="63.93750382" lon="-21.00063896"><ele>25.0</ele><time>2012-07-27T17:09:03.0000000+00:00</time></trkpt><trkpt lat="63.93750382" lon="-21.00063896"><ele>24.9</ele><time>2012-07-27T17:09:08.0000000+00:00</time></trkpt><trkpt lat="63.93750382" lon="-21.00063896"><ele>24.9</ele><time>2012-07-27T17:09:13.0000000+00:00</time></trkpt><trkpt lat="63.93750382" lon="-21.00063896"><ele>24.9</ele><time>2012-07-27T17:09:18.0000000+00:00</time></trkpt><trkpt lat="63.93750382" lon="-21.00063896"><ele>24.8</ele><time>2012-07-27T17:09:23.0000000+00:00</time></trkpt><trkpt lat="63.93750382" lon="-21.00063896"><ele>24.8</ele><time>2012-07-27T17:09:28.0000000+00:00</time></trkpt><trkpt lat="63.93750382" lon="-21.00063705"><ele>24.8</ele><time>2012-07-27T17:09:33.0000000+00:00</time></trkpt><trkpt lat="63.93750382" lon="-21.00063705"><ele>24.7</ele><time>2012-07-27T17:09:38.0000000+00:00</time></trkpt><trkpt lat="63.93750382" lon="-21.00063515"><ele>24.7</ele><time>2012-07-27T17:09:43.0000000+00:00</time></trkpt><trkpt lat="63.93750382" lon="-21.00063515"><ele>24.6</ele><time>2012-07-27T17:09:48.0000000+00:00</time></trkpt><trkpt lat="63.93750382" lon="-21.00063324"><ele>24.5</ele><time>2012-07-27T17:09:53.0000000+00:00</time></trkpt><trkpt lat="63.93750382" lon="-21.00063324"><ele>24.5</ele><time>2012-07-27T17:09:58.0000000+00:00</time></trkpt><trkpt lat="63.93750763" lon="-21.00063133"><ele>24.4</ele><time>2012-07-27T17:10:03.0000000+00:00</time></trkpt><trkpt lat="63.93750763" lon="-21.00063133"><ele>24.4</ele><time>2012-07-27T17:10:08.0000000+00:00</time></trkpt><trkpt lat="63.93750763" lon="-21.00062943"><ele>24.3</ele><time>2012-07-27T17:10:13.0000000+00:00</time></trkpt><trkpt lat="63.93750763" lon="-21.00062943"><ele>24.3</ele><time>2012-07-27T17:10:18.0000000+00:00</time></trkpt><trkpt lat="63.93750763" lon="-21.00062752"><ele>24.3</ele><time>2012-07-27T17:10:23.0000000+00:00</time></trkpt><trkpt lat="63.93750763" lon="-21.00062561"><ele>24.2</ele><time>2012-07-27T17:10:28.0000000+00:00</time></trkpt><trkpt lat="63.93750763" lon="-21.00062561"><ele>24.1</ele><time>2012-07-27T17:10:33.0000000+00:00</time></trkpt><trkpt lat="63.93750763" lon="-21.0006237"><ele>24.1</ele><time>2012-07-27T17:10:38.0000000+00:00</time></trkpt><trkpt lat="63.93750763" lon="-21.0006218"><ele>24.1</ele><time>2012-07-27T17:10:43.0000000+00:00</time></trkpt><trkpt lat="63.93750763" lon="-21.00061989"><ele>24.1</ele><time>2012-07-27T17:10:48.0000000+00:00</time></trkpt><trkpt lat="63.93750763" lon="-21.00061989"><ele>24.0</ele><time>2012-07-27T17:10:53.0000000+00:00</time></trkpt><trkpt lat="63.93750763" lon="-21.00061798"><ele>24.0</ele><time>2012-07-27T17:10:58.0000000+00:00</time></trkpt><trkpt lat="63.93750763" lon="-21.00061798"><ele>24.0</ele><time>2012-07-27T17:11:03.0000000+00:00</time></trkpt><trkpt lat="63.93750763" lon="-21.00061798"><ele>24.0</ele><time>2012-07-27T17:11:08.0000000+00:00</time></trkpt><trkpt lat="63.9375" lon="-21.00061035"><ele>24.4</ele><time>2012-07-27T17:11:13.0000000+00:00</time></trkpt><trkpt lat="63.93749619" lon="-21.00061607"><ele>24.2</ele><time>2012-07-27T17:11:18.0000000+00:00</time></trkpt><trkpt lat="63.93746948" lon="-21.00062752"><ele>24.0</ele><time>2012-07-27T17:11:23.0000000+00:00</time></trkpt><trkpt lat="63.93743897" lon="-21.00061035"><ele>23.5</ele><time>2012-07-27T17:11:28.0000000+00:00</time></trkpt><trkpt lat="63.93743515" lon="-21.00060272"><ele>23.4</ele><time>2012-07-27T17:11:33.0000000+00:00</time></trkpt><trkpt lat="63.93743515" lon="-21.00060082"><ele>23.4</ele><time>2012-07-27T17:11:38.0000000+00:00</time></trkpt><trkpt lat="63.93743515" lon="-21.00060272"><ele>23.4</ele><time>2012-07-27T17:11:43.0000000+00:00</time></trkpt><trkpt lat="63.93743515" lon="-21.00060463"><ele>23.5</ele><time>2012-07-27T17:11:48.0000000+00:00</time></trkpt><trkpt lat="63.93743515" lon="-21.00060463"><ele>23.6</ele><time>2012-07-27T17:11:53.0000000+00:00</time></trkpt><trkpt lat="63.93743515" lon="-21.00060654"><ele>23.6</ele><time>2012-07-27T17:11:58.0000000+00:00</time></trkpt><trkpt lat="63.93743515" lon="-21.00060844"><ele>23.6</ele><time>2012-07-27T17:12:03.0000000+00:00</time></trkpt><trkpt lat="63.93743515" lon="-21.00061035"><ele>23.7</ele><time>2012-07-27T17:12:08.0000000+00:00</time></trkpt><trkpt lat="63.93743515" lon="-21.00061035"><ele>23.7</ele><time>2012-07-27T17:12:13.0000000+00:00</time></trkpt><trkpt lat="63.93743515" lon="-21.00061226"><ele>23.7</ele><time>2012-07-27T17:12:18.0000000+00:00</time></trkpt><trkpt lat="63.93743515" lon="-21.00061226"><ele>23.8</ele><time>2012-07-27T17:12:23.0000000+00:00</time></trkpt><trkpt lat="63.93743515" lon="-21.00061417"><ele>23.8</ele><time>2012-07-27T17:12:28.0000000+00:00</time></trkpt><trkpt lat="63.93743134" lon="-21.00061417"><ele>23.8</ele><time>2012-07-27T17:12:33.0000000+00:00</time></trkpt><trkpt lat="63.93743134" lon="-21.00061417"><ele>23.8</ele><time>2012-07-27T17:12:38.0000000+00:00</time></trkpt><trkpt lat="63.93743134" lon="-21.00061607"><ele>23.8</ele><time>2012-07-27T17:12:43.0000000+00:00</time></trkpt><trkpt lat="63.93743134" lon="-21.00061607"><ele>23.8</ele><time>2012-07-27T17:12:48.0000000+00:00</time></trkpt><trkpt lat="63.93743134" lon="-21.00061798"><ele>23.9</ele><time>2012-07-27T17:12:53.0000000+00:00</time></trkpt><trkpt lat="63.93743134" lon="-21.00061798"><ele>23.9</ele><time>2012-07-27T17:12:58.0000000+00:00</time></trkpt><trkpt lat="63.93743134" lon="-21.00061989"><ele>23.9</ele><time>2012-07-27T17:13:03.0000000+00:00</time></trkpt><trkpt lat="63.93743134" lon="-21.00061989"><ele>23.9</ele><time>2012-07-27T17:13:08.0000000+00:00</time></trkpt><trkpt lat="63.93743134" lon="-21.00061989"><ele>23.9</ele><time>2012-07-27T17:13:13.0000000+00:00</time></trkpt><trkpt lat="63.93743134" lon="-21.0006218"><ele>23.9</ele><time>2012-07-27T17:13:18.0000000+00:00</time></trkpt><trkpt lat="63.93743134" lon="-21.0006218"><ele>23.9</ele><time>2012-07-27T17:13:23.0000000+00:00</time></trkpt><trkpt lat="63.93743134" lon="-21.0006237"><ele>23.9</ele><time>2012-07-27T17:13:28.0000000+00:00</time></trkpt><trkpt lat="63.93743134" lon="-21.0006237"><ele>24.0</ele><time>2012-07-27T17:13:33.0000000+00:00</time></trkpt><trkpt lat="63.93743134" lon="-21.0006237"><ele>24.0</ele><time>2012-07-27T17:13:38.0000000+00:00</time></trkpt><trkpt lat="63.93743134" lon="-21.0006237"><ele>23.9</ele><time>2012-07-27T17:13:43.0000000+00:00</time></trkpt><trkpt lat="63.93743134" lon="-21.0006237"><ele>23.9</ele><time>2012-07-27T17:13:48.0000000+00:00</time></trkpt><trkpt lat="63.93743134" lon="-21.00062561"><ele>23.9</ele><time>2012-07-27T17:13:53.0000000+00:00</time></trkpt><trkpt lat="63.93743134" lon="-21.00062561"><ele>23.9</ele><time>2012-07-27T17:13:58.0000000+00:00</time></trkpt><trkpt lat="63.93743134" lon="-21.00062561"><ele>23.9</ele><time>2012-07-27T17:14:03.0000000+00:00</time></trkpt><trkpt lat="63.93743134" lon="-21.0006237"><ele>23.8</ele><time>2012-07-27T17:14:08.0000000+00:00</time></trkpt><trkpt lat="63.93743134" lon="-21.0006218"><ele>23.8</ele><time>2012-07-27T17:14:13.0000000+00:00</time></trkpt><trkpt lat="63.93743134" lon="-21.0006218"><ele>23.8</ele><time>2012-07-27T17:14:18.0000000+00:00</time></trkpt><trkpt lat="63.93743134" lon="-21.0006218"><ele>23.7</ele><time>2012-07-27T17:14:23.0000000+00:00</time></trkpt><trkpt lat="63.93743134" lon="-21.0006218"><ele>23.7</ele><time>2012-07-27T17:14:28.0000000+00:00</time></trkpt><trkpt lat="63.93743134" lon="-21.00061989"><ele>23.7</ele><time>2012-07-27T17:14:33.0000000+00:00</time></trkpt><trkpt lat="63.93743134" lon="-21.00061989"><ele>23.7</ele><time>2012-07-27T17:14:38.0000000+00:00</time></trkpt><trkpt lat="63.93743134" lon="-21.00061989"><ele>23.7</ele><time>2012-07-27T17:14:43.0000000+00:00</time></trkpt><trkpt lat="63.93743134" lon="-21.00061989"><ele>23.7</ele><time>2012-07-27T17:14:48.0000000+00:00</time></trkpt><trkpt lat="63.93743134" lon="-21.00061989"><ele>23.7</ele><time>2012-07-27T17:14:53.0000000+00:00</time></trkpt><trkpt lat="63.93743134" lon="-21.00061989"><ele>23.7</ele><time>2012-07-27T17:14:58.0000000+00:00</time></trkpt><trkpt lat="63.93743134" lon="-21.00061989"><ele>23.6</ele><time>2012-07-27T17:15:03.0000000+00:00</time></trkpt><trkpt lat="63.93743134" lon="-21.00061798"><ele>23.6</ele><time>2012-07-27T17:15:08.0000000+00:00</time></trkpt><trkpt lat="63.93743134" lon="-21.00061798"><ele>23.6</ele><time>2012-07-27T17:15:13.0000000+00:00</time></trkpt><trkpt lat="63.93743134" lon="-21.00061798"><ele>23.5</ele><time>2012-07-27T17:15:18.0000000+00:00</time></trkpt><trkpt lat="63.93743134" lon="-21.00061798"><ele>23.5</ele><time>2012-07-27T17:15:23.0000000+00:00</time></trkpt><trkpt lat="63.93743134" lon="-21.00061798"><ele>23.5</ele><time>2012-07-27T17:15:28.0000000+00:00</time></trkpt><trkpt lat="63.93743134" lon="-21.00061798"><ele>23.5</ele><time>2012-07-27T17:15:33.0000000+00:00</time></trkpt><trkpt lat="63.93743134" lon="-21.00061798"><ele>23.5</ele><time>2012-07-27T17:15:38.0000000+00:00</time></trkpt><trkpt lat="63.93743134" lon="-21.00061798"><ele>23.4</ele><time>2012-07-27T17:15:43.0000000+00:00</time></trkpt><trkpt lat="63.93743134" lon="-21.00061798"><ele>23.4</ele><time>2012-07-27T17:15:48.0000000+00:00</time></trkpt><trkpt lat="63.93742752" lon="-21.00061798"><ele>23.4</ele><time>2012-07-27T17:15:53.0000000+00:00</time></trkpt><trkpt lat="63.93742752" lon="-21.00061798"><ele>23.4</ele><time>2012-07-27T17:15:58.0000000+00:00</time></trkpt><trkpt lat="63.93742752" lon="-21.00061798"><ele>23.3</ele><time>2012-07-27T17:16:03.0000000+00:00</time></trkpt><trkpt lat="63.93742752" lon="-21.00061798"><ele>23.3</ele><time>2012-07-27T17:16:08.0000000+00:00</time></trkpt><trkpt lat="63.93742752" lon="-21.00061798"><ele>23.3</ele><time>2012-07-27T17:16:13.0000000+00:00</time></trkpt><trkpt lat="63.93742752" lon="-21.00061798"><ele>23.3</ele><time>2012-07-27T17:16:18.0000000+00:00</time></trkpt><trkpt lat="63.93742752" lon="-21.00061798"><ele>23.3</ele><time>2012-07-27T17:16:23.0000000+00:00</time></trkpt><trkpt lat="63.93742752" lon="-21.00061798"><ele>23.3</ele><time>2012-07-27T17:16:28.0000000+00:00</time></trkpt><trkpt lat="63.93742752" lon="-21.00061798"><ele>23.3</ele><time>2012-07-27T17:16:33.0000000+00:00</time></trkpt><trkpt lat="63.93742752" lon="-21.00061798"><ele>23.3</ele><time>2012-07-27T17:16:38.0000000+00:00</time></trkpt><trkpt lat="63.93742752" lon="-21.00061798"><ele>23.2</ele><time>2012-07-27T17:16:43.0000000+00:00</time></trkpt><trkpt lat="63.93742752" lon="-21.00061798"><ele>23.3</ele><time>2012-07-27T17:16:48.0000000+00:00</time></trkpt><trkpt lat="63.93742752" lon="-21.00061798"><ele>23.3</ele><time>2012-07-27T17:16:53.0000000+00:00</time></trkpt><trkpt lat="63.93742752" lon="-21.00061798"><ele>23.3</ele><time>2012-07-27T17:16:58.0000000+00:00</time></trkpt><trkpt lat="63.93742752" lon="-21.00061798"><ele>23.3</ele><time>2012-07-27T17:17:03.0000000+00:00</time></trkpt><trkpt lat="63.93742752" lon="-21.00061798"><ele>23.3</ele><time>2012-07-27T17:17:08.0000000+00:00</time></trkpt><trkpt lat="63.93742752" lon="-21.00061798"><ele>23.3</ele><time>2012-07-27T17:17:13.0000000+00:00</time></trkpt><trkpt lat="63.93742752" lon="-21.00061798"><ele>23.3</ele><time>2012-07-27T17:17:18.0000000+00:00</time></trkpt><trkpt lat="63.93742752" lon="-21.00061989"><ele>23.3</ele><time>2012-07-27T17:17:23.0000000+00:00</time></trkpt><trkpt lat="63.93742752" lon="-21.00061989"><ele>23.3</ele><time>2012-07-27T17:17:28.0000000+00:00</time></trkpt><trkpt lat="63.93742752" lon="-21.00061989"><ele>23.3</ele><time>2012-07-27T17:17:33.0000000+00:00</time></trkpt><trkpt lat="63.93742752" lon="-21.0006218"><ele>23.4</ele><time>2012-07-27T17:17:38.0000000+00:00</time></trkpt><trkpt lat="63.93742752" lon="-21.0006237"><ele>23.4</ele><time>2012-07-27T17:17:43.0000000+00:00</time></trkpt><trkpt lat="63.93742752" lon="-21.00062561"><ele>23.5</ele><time>2012-07-27T17:17:48.0000000+00:00</time></trkpt><trkpt lat="63.93742752" lon="-21.00062561"><ele>23.5</ele><time>2012-07-27T17:17:53.0000000+00:00</time></trkpt><trkpt lat="63.93742752" lon="-21.00062752"><ele>23.5</ele><time>2012-07-27T17:17:58.0000000+00:00</time></trkpt><trkpt lat="63.93742752" lon="-21.00062752"><ele>23.5</ele><time>2012-07-27T17:18:03.0000000+00:00</time></trkpt><trkpt lat="63.93742752" lon="-21.00062943"><ele>23.5</ele><time>2012-07-27T17:18:08.0000000+00:00</time></trkpt><trkpt lat="63.93742752" lon="-21.00062943"><ele>23.5</ele><time>2012-07-27T17:18:13.0000000+00:00</time></trkpt><trkpt lat="63.93742752" lon="-21.00062943"><ele>23.5</ele><time>2012-07-27T17:18:18.0000000+00:00</time></trkpt><trkpt lat="63.93742752" lon="-21.00062943"><ele>23.5</ele><time>2012-07-27T17:18:23.0000000+00:00</time></trkpt><trkpt lat="63.93742752" lon="-21.00063133"><ele>23.5</ele><time>2012-07-27T17:18:28.0000000+00:00</time></trkpt><trkpt lat="63.93742752" lon="-21.00063133"><ele>23.5</ele><time>2012-07-27T17:18:33.0000000+00:00</time></trkpt><trkpt lat="63.93742371" lon="-21.00063133"><ele>23.5</ele><time>2012-07-27T17:18:38.0000000+00:00</time></trkpt><trkpt lat="63.93742371" lon="-21.00063133"><ele>23.5</ele><time>2012-07-27T17:18:43.0000000+00:00</time></trkpt><trkpt lat="63.93742371" lon="-21.00063324"><ele>23.5</ele><time>2012-07-27T17:18:48.0000000+00:00</time></trkpt><trkpt lat="63.93742371" lon="-21.00063324"><ele>23.5</ele><time>2012-07-27T17:18:53.0000000+00:00</time></trkpt><trkpt lat="63.93742371" lon="-21.00063324"><ele>23.5</ele><time>2012-07-27T17:18:58.0000000+00:00</time></trkpt><trkpt lat="63.93742371" lon="-21.00063515"><ele>23.6</ele><time>2012-07-27T17:19:03.0000000+00:00</time></trkpt><trkpt lat="63.93742371" lon="-21.00064087"><ele>23.7</ele><time>2012-07-27T17:19:08.0000000+00:00</time></trkpt><trkpt lat="63.93742371" lon="-21.00065231"><ele>23.8</ele><time>2012-07-27T17:19:13.0000000+00:00</time></trkpt><trkpt lat="63.93742371" lon="-21.00066376"><ele>23.8</ele><time>2012-07-27T17:19:18.0000000+00:00</time></trkpt><trkpt lat="63.93741989" lon="-21.00066757"><ele>23.8</ele><time>2012-07-27T17:19:23.0000000+00:00</time></trkpt><trkpt lat="63.93741989" lon="-21.00066948"><ele>23.8</ele><time>2012-07-27T17:19:28.0000000+00:00</time></trkpt><trkpt lat="63.93741989" lon="-21.00067139"><ele>23.8</ele><time>2012-07-27T17:19:33.0000000+00:00</time></trkpt><trkpt lat="63.93741989" lon="-21.00067139"><ele>23.9</ele><time>2012-07-27T17:19:38.0000000+00:00</time></trkpt><trkpt lat="63.93741989" lon="-21.00067329"><ele>23.9</ele><time>2012-07-27T17:19:43.0000000+00:00</time></trkpt><trkpt lat="63.93741989" lon="-21.0006752"><ele>23.9</ele><time>2012-07-27T17:19:48.0000000+00:00</time></trkpt><trkpt lat="63.93741989" lon="-21.00067711"><ele>24.0</ele><time>2012-07-27T17:19:53.0000000+00:00</time></trkpt><trkpt lat="63.93741989" lon="-21.00067711"><ele>24.0</ele><time>2012-07-27T17:19:58.0000000+00:00</time></trkpt><trkpt lat="63.93741989" lon="-21.00067711"><ele>24.0</ele><time>2012-07-27T17:20:03.0000000+00:00</time></trkpt><trkpt lat="63.93741989" lon="-21.00067902"><ele>24.0</ele><time>2012-07-27T17:20:08.0000000+00:00</time></trkpt><trkpt lat="63.93741989" lon="-21.00067902"><ele>24.0</ele><time>2012-07-27T17:20:13.0000000+00:00</time></trkpt><trkpt lat="63.93741989" lon="-21.00067902"><ele>24.0</ele><time>2012-07-27T17:20:18.0000000+00:00</time></trkpt><trkpt lat="63.93741989" lon="-21.00067902"><ele>24.0</ele><time>2012-07-27T17:20:23.0000000+00:00</time></trkpt><trkpt lat="63.93741608" lon="-21.00068092"><ele>24.0</ele><time>2012-07-27T17:20:28.0000000+00:00</time></trkpt><trkpt lat="63.93741608" lon="-21.00068092"><ele>24.0</ele><time>2012-07-27T17:20:33.0000000+00:00</time></trkpt><trkpt lat="63.93741608" lon="-21.00068092"><ele>24.0</ele><time>2012-07-27T17:20:38.0000000+00:00</time></trkpt><trkpt lat="63.93741608" lon="-21.00068283"><ele>24.0</ele><time>2012-07-27T17:20:43.0000000+00:00</time></trkpt><trkpt lat="63.93741608" lon="-21.00068283"><ele>24.0</ele><time>2012-07-27T17:20:48.0000000+00:00</time></trkpt><trkpt lat="63.93741608" lon="-21.00068283"><ele>24.0</ele><time>2012-07-27T17:20:53.0000000+00:00</time></trkpt><trkpt lat="63.93741608" lon="-21.00068283"><ele>24.0</ele><time>2012-07-27T17:20:58.0000000+00:00</time></trkpt><trkpt lat="63.93741608" lon="-21.00068283"><ele>24.0</ele><time>2012-07-27T17:21:03.0000000+00:00</time></trkpt><trkpt lat="63.93741608" lon="-21.00068474"><ele>24.0</ele><time>2012-07-27T17:21:08.0000000+00:00</time></trkpt><trkpt lat="63.93741608" lon="-21.00068474"><ele>24.0</ele><time>2012-07-27T17:21:13.0000000+00:00</time></trkpt><trkpt lat="63.93741608" lon="-21.00068474"><ele>24.0</ele><time>2012-07-27T17:21:18.0000000+00:00</time></trkpt><trkpt lat="63.93741608" lon="-21.00068283"><ele>24.0</ele><time>2012-07-27T17:21:23.0000000+00:00</time></trkpt><trkpt lat="63.93741608" lon="-21.00068283"><ele>23.9</ele><time>2012-07-27T17:21:28.0000000+00:00</time></trkpt><trkpt lat="63.93741608" lon="-21.00068283"><ele>23.9</ele><time>2012-07-27T17:21:33.0000000+00:00</time></trkpt><trkpt lat="63.93741608" lon="-21.00068283"><ele>23.9</ele><time>2012-07-27T17:21:38.0000000+00:00</time></trkpt><trkpt lat="63.93741608" lon="-21.00068283"><ele>23.9</ele><time>2012-07-27T17:21:43.0000000+00:00</time></trkpt><trkpt lat="63.93741608" lon="-21.00068474"><ele>23.9</ele><time>2012-07-27T17:21:48.0000000+00:00</time></trkpt><trkpt lat="63.93741608" lon="-21.00068474"><ele>23.9</ele><time>2012-07-27T17:21:53.0000000+00:00</time></trkpt><trkpt lat="63.93741608" lon="-21.00068474"><ele>23.9</ele><time>2012-07-27T17:21:58.0000000+00:00</time></trkpt><trkpt lat="63.93741608" lon="-21.00068474"><ele>23.9</ele><time>2012-07-27T17:22:03.0000000+00:00</time></trkpt><trkpt lat="63.93741608" lon="-21.00068474"><ele>24.0</ele><time>2012-07-27T17:22:08.0000000+00:00</time></trkpt><trkpt lat="63.93741608" lon="-21.00068665"><ele>24.0</ele><time>2012-07-27T17:22:13.0000000+00:00</time></trkpt><trkpt lat="63.93741226" lon="-21.00068665"><ele>24.0</ele><time>2012-07-27T17:22:18.0000000+00:00</time></trkpt><trkpt lat="63.93741226" lon="-21.00068855"><ele>24.0</ele><time>2012-07-27T17:22:23.0000000+00:00</time></trkpt><trkpt lat="63.93741226" lon="-21.00068855"><ele>24.0</ele><time>2012-07-27T17:22:28.0000000+00:00</time></trkpt><trkpt lat="63.93741226" lon="-21.00069046"><ele>24.0</ele><time>2012-07-27T17:22:33.0000000+00:00</time></trkpt><trkpt lat="63.93741226" lon="-21.00069046"><ele>24.0</ele><time>2012-07-27T17:22:38.0000000+00:00</time></trkpt><trkpt lat="63.93741226" lon="-21.00069237"><ele>24.0</ele><time>2012-07-27T17:22:43.0000000+00:00</time></trkpt><trkpt lat="63.93741226" lon="-21.00069237"><ele>24.0</ele><time>2012-07-27T17:22:48.0000000+00:00</time></trkpt><trkpt lat="63.93741226" lon="-21.00069428"><ele>24.0</ele><time>2012-07-27T17:22:53.0000000+00:00</time></trkpt><trkpt lat="63.93741226" lon="-21.00069428"><ele>24.1</ele><time>2012-07-27T17:22:58.0000000+00:00</time></trkpt><trkpt lat="63.93741226" lon="-21.00069428"><ele>24.1</ele><time>2012-07-27T17:23:03.0000000+00:00</time></trkpt><trkpt lat="63.93741226" lon="-21.00069428"><ele>24.1</ele><time>2012-07-27T17:23:08.0000000+00:00</time></trkpt><trkpt lat="63.93741226" lon="-21.00069428"><ele>24.1</ele><time>2012-07-27T17:23:13.0000000+00:00</time></trkpt><trkpt lat="63.93741226" lon="-21.00069428"><ele>24.1</ele><time>2012-07-27T17:23:18.0000000+00:00</time></trkpt><trkpt lat="63.93741226" lon="-21.00069618"><ele>24.1</ele><time>2012-07-27T17:23:23.0000000+00:00</time></trkpt><trkpt lat="63.93741226" lon="-21.00069618"><ele>24.1</ele><time>2012-07-27T17:23:28.0000000+00:00</time></trkpt><trkpt lat="63.93741226" lon="-21.00069618"><ele>24.1</ele><time>2012-07-27T17:23:33.0000000+00:00</time></trkpt><trkpt lat="63.93741226" lon="-21.00069809"><ele>24.1</ele><time>2012-07-27T17:23:38.0000000+00:00</time></trkpt><trkpt lat="63.93740845" lon="-21.00069809"><ele>24.1</ele><time>2012-07-27T17:23:43.0000000+00:00</time></trkpt><trkpt lat="63.93740845" lon="-21.00069809"><ele>24.1</ele><time>2012-07-27T17:23:48.0000000+00:00</time></trkpt><trkpt lat="63.93740845" lon="-21.00069809"><ele>24.1</ele><time>2012-07-27T17:23:53.0000000+00:00</time></trkpt><trkpt lat="63.93740845" lon="-21.0007"><ele>24.1</ele><time>2012-07-27T17:23:58.0000000+00:00</time></trkpt><trkpt lat="63.93740845" lon="-21.0007"><ele>24.1</ele><time>2012-07-27T17:24:03.0000000+00:00</time></trkpt><trkpt lat="63.93740845" lon="-21.0007"><ele>24.1</ele><time>2012-07-27T17:24:08.0000000+00:00</time></trkpt><trkpt lat="63.93740845" lon="-21.0007"><ele>24.1</ele><time>2012-07-27T17:24:13.0000000+00:00</time></trkpt><trkpt lat="63.93740845" lon="-21.0007019"><ele>24.1</ele><time>2012-07-27T17:24:18.0000000+00:00</time></trkpt><trkpt lat="63.93740845" lon="-21.0007019"><ele>24.1</ele><time>2012-07-27T17:24:23.0000000+00:00</time></trkpt><trkpt lat="63.93740845" lon="-21.0007019"><ele>24.1</ele><time>2012-07-27T17:24:28.0000000+00:00</time></trkpt><trkpt lat="63.93740845" lon="-21.0007"><ele>24.1</ele><time>2012-07-27T17:24:33.0000000+00:00</time></trkpt><trkpt lat="63.93740845" lon="-21.0007"><ele>24.1</ele><time>2012-07-27T17:24:38.0000000+00:00</time></trkpt><trkpt lat="63.93740845" lon="-21.0007019"><ele>24.2</ele><time>2012-07-27T17:24:43.0000000+00:00</time></trkpt><trkpt lat="63.93740845" lon="-21.0007019"><ele>24.2</ele><time>2012-07-27T17:24:48.0000000+00:00</time></trkpt><trkpt lat="63.93740845" lon="-21.0007019"><ele>24.2</ele><time>2012-07-27T17:24:53.0000000+00:00</time></trkpt><trkpt lat="63.93740463" lon="-21.00070381"><ele>24.2</ele><time>2012-07-27T17:24:58.0000000+00:00</time></trkpt><trkpt lat="63.93740463" lon="-21.00070381"><ele>24.2</ele><time>2012-07-27T17:25:03.0000000+00:00</time></trkpt><trkpt lat="63.93740463" lon="-21.00070572"><ele>24.2</ele><time>2012-07-27T17:25:08.0000000+00:00</time></trkpt><trkpt lat="63.93740463" lon="-21.00070572"><ele>24.2</ele><time>2012-07-27T17:25:13.0000000+00:00</time></trkpt><trkpt lat="63.93740463" lon="-21.00070572"><ele>24.2</ele><time>2012-07-27T17:25:18.0000000+00:00</time></trkpt><trkpt lat="63.93740463" lon="-21.00070763"><ele>24.2</ele><time>2012-07-27T17:25:23.0000000+00:00</time></trkpt><trkpt lat="63.93740463" lon="-21.00070763"><ele>24.2</ele><time>2012-07-27T17:25:28.0000000+00:00</time></trkpt><trkpt lat="63.93740463" lon="-21.00070763"><ele>24.2</ele><time>2012-07-27T17:25:33.0000000+00:00</time></trkpt><trkpt lat="63.93740463" lon="-21.00070763"><ele>24.2</ele><time>2012-07-27T17:25:38.0000000+00:00</time></trkpt><trkpt lat="63.93740463" lon="-21.00070953"><ele>24.2</ele><time>2012-07-27T17:25:43.0000000+00:00</time></trkpt><trkpt lat="63.93740463" lon="-21.00070953"><ele>24.2</ele><time>2012-07-27T17:25:48.0000000+00:00</time></trkpt><trkpt lat="63.93740463" lon="-21.00071144"><ele>24.3</ele><time>2012-07-27T17:25:53.0000000+00:00</time></trkpt><trkpt lat="63.93740463" lon="-21.00071144"><ele>24.3</ele><time>2012-07-27T17:25:58.0000000+00:00</time></trkpt><trkpt lat="63.93740463" lon="-21.00071144"><ele>24.3</ele><time>2012-07-27T17:26:03.0000000+00:00</time></trkpt><trkpt lat="63.93740463" lon="-21.00071144"><ele>24.3</ele><time>2012-07-27T17:26:08.0000000+00:00</time></trkpt><trkpt lat="63.93740463" lon="-21.00071144"><ele>24.3</ele><time>2012-07-27T17:26:13.0000000+00:00</time></trkpt><trkpt lat="63.93740463" lon="-21.00071144"><ele>24.3</ele><time>2012-07-27T17:26:18.0000000+00:00</time></trkpt><trkpt lat="63.93740463" lon="-21.00071144"><ele>24.3</ele><time>2012-07-27T17:26:23.0000000+00:00</time></trkpt><trkpt lat="63.93740463" lon="-21.00071144"><ele>24.3</ele><time>2012-07-27T17:26:28.0000000+00:00</time></trkpt><trkpt lat="63.93740463" lon="-21.00071144"><ele>24.3</ele><time>2012-07-27T17:26:33.0000000+00:00</time></trkpt><trkpt lat="63.93740463" lon="-21.00071144"><ele>24.3</ele><time>2012-07-27T17:26:38.0000000+00:00</time></trkpt><trkpt lat="63.93740463" lon="-21.00071144"><ele>24.3</ele><time>2012-07-27T17:26:43.0000000+00:00</time></trkpt><trkpt lat="63.93740082" lon="-21.00071144"><ele>24.3</ele><time>2012-07-27T17:26:48.0000000+00:00</time></trkpt><trkpt lat="63.93740082" lon="-21.00071335"><ele>24.3</ele><time>2012-07-27T17:26:53.0000000+00:00</time></trkpt><trkpt lat="63.93740082" lon="-21.00071335"><ele>24.3</ele><time>2012-07-27T17:26:58.0000000+00:00</time></trkpt><trkpt lat="63.93740082" lon="-21.00071335"><ele>24.3</ele><time>2012-07-27T17:27:03.0000000+00:00</time></trkpt><trkpt lat="63.93740082" lon="-21.00071335"><ele>24.3</ele><time>2012-07-27T17:27:08.0000000+00:00</time></trkpt><trkpt lat="63.93740082" lon="-21.00071335"><ele>24.3</ele><time>2012-07-27T17:27:13.0000000+00:00</time></trkpt><trkpt lat="63.93740082" lon="-21.00071335"><ele>24.3</ele><time>2012-07-27T17:27:18.0000000+00:00</time></trkpt><trkpt lat="63.93740082" lon="-21.00071335"><ele>24.3</ele><time>2012-07-27T17:27:23.0000000+00:00</time></trkpt><trkpt lat="63.93740082" lon="-21.00071335"><ele>24.3</ele><time>2012-07-27T17:27:28.0000000+00:00</time></trkpt><trkpt lat="63.93740082" lon="-21.00071335"><ele>24.3</ele><time>2012-07-27T17:27:33.0000000+00:00</time></trkpt><trkpt lat="63.93740082" lon="-21.00071526"><ele>24.3</ele><time>2012-07-27T17:27:38.0000000+00:00</time></trkpt><trkpt lat="63.93740082" lon="-21.00071526"><ele>24.3</ele><time>2012-07-27T17:27:43.0000000+00:00</time></trkpt><trkpt lat="63.93740082" lon="-21.00071526"><ele>24.3</ele><time>2012-07-27T17:27:48.0000000+00:00</time></trkpt><trkpt lat="63.93740082" lon="-21.00071526"><ele>24.3</ele><time>2012-07-27T17:27:53.0000000+00:00</time></trkpt><trkpt lat="63.93740082" lon="-21.00071526"><ele>24.3</ele><time>2012-07-27T17:27:58.0000000+00:00</time></trkpt><trkpt lat="63.93740082" lon="-21.00071526"><ele>24.4</ele><time>2012-07-27T17:28:03.0000000+00:00</time></trkpt><trkpt lat="63.93740082" lon="-21.00071526"><ele>24.4</ele><time>2012-07-27T17:28:08.0000000+00:00</time></trkpt><trkpt lat="63.93740082" lon="-21.00071526"><ele>24.4</ele><time>2012-07-27T17:28:13.0000000+00:00</time></trkpt><trkpt lat="63.93740082" lon="-21.00071526"><ele>24.4</ele><time>2012-07-27T17:28:18.0000000+00:00</time></trkpt><trkpt lat="63.93740082" lon="-21.00071526"><ele>24.4</ele><time>2012-07-27T17:28:23.0000000+00:00</time></trkpt><trkpt lat="63.93740082" lon="-21.00071526"><ele>24.4</ele><time>2012-07-27T17:28:28.0000000+00:00</time></trkpt><trkpt lat="63.93740082" lon="-21.00071526"><ele>24.4</ele><time>2012-07-27T17:28:33.0000000+00:00</time></trkpt><trkpt lat="63.93740082" lon="-21.00071526"><ele>24.4</ele><time>2012-07-27T17:28:38.0000000+00:00</time></trkpt><trkpt lat="63.93740082" lon="-21.00071526"><ele>24.4</ele><time>2012-07-27T17:28:43.0000000+00:00</time></trkpt><trkpt lat="63.93740082" lon="-21.00071526"><ele>24.4</ele><time>2012-07-27T17:28:48.0000000+00:00</time></trkpt><trkpt lat="63.93740082" lon="-21.00071526"><ele>24.4</ele><time>2012-07-27T17:28:53.0000000+00:00</time></trkpt><trkpt lat="63.93740082" lon="-21.00071526"><ele>24.4</ele><time>2012-07-27T17:28:58.0000000+00:00</time></trkpt><trkpt lat="63.93740082" lon="-21.00071526"><ele>24.4</ele><time>2012-07-27T17:29:03.0000000+00:00</time></trkpt><trkpt lat="63.93740082" lon="-21.00071526"><ele>24.4</ele><time>2012-07-27T17:29:08.0000000+00:00</time></trkpt><trkpt lat="63.937397" lon="-21.00071526"><ele>24.4</ele><time>2012-07-27T17:29:13.0000000+00:00</time></trkpt><trkpt lat="63.937397" lon="-21.00071526"><ele>24.4</ele><time>2012-07-27T17:29:18.0000000+00:00</time></trkpt><trkpt lat="63.937397" lon="-21.00071526"><ele>24.4</ele><time>2012-07-27T17:29:23.0000000+00:00</time></trkpt><trkpt lat="63.937397" lon="-21.00071526"><ele>24.4</ele><time>2012-07-27T17:29:28.0000000+00:00</time></trkpt><trkpt lat="63.937397" lon="-21.00071526"><ele>24.3</ele><time>2012-07-27T17:29:33.0000000+00:00</time></trkpt><trkpt lat="63.937397" lon="-21.00071526"><ele>24.3</ele><time>2012-07-27T17:29:38.0000000+00:00</time></trkpt><trkpt lat="63.937397" lon="-21.00071526"><ele>24.3</ele><time>2012-07-27T17:29:43.0000000+00:00</time></trkpt><trkpt lat="63.937397" lon="-21.00071335"><ele>24.3</ele><time>2012-07-27T17:29:48.0000000+00:00</time></trkpt><trkpt lat="63.937397" lon="-21.00071335"><ele>24.2</ele><time>2012-07-27T17:29:53.0000000+00:00</time></trkpt><trkpt lat="63.937397" lon="-21.00071335"><ele>24.2</ele><time>2012-07-27T17:29:58.0000000+00:00</time></trkpt><trkpt lat="63.937397" lon="-21.00071335"><ele>24.2</ele><time>2012-07-27T17:30:03.0000000+00:00</time></trkpt><trkpt lat="63.937397" lon="-21.00071335"><ele>24.2</ele><time>2012-07-27T17:30:08.0000000+00:00</time></trkpt><trkpt lat="63.937397" lon="-21.00071335"><ele>24.2</ele><time>2012-07-27T17:30:13.0000000+00:00</time></trkpt><trkpt lat="63.937397" lon="-21.00071526"><ele>24.2</ele><time>2012-07-27T17:30:18.0000000+00:00</time></trkpt><trkpt lat="63.937397" lon="-21.00071526"><ele>24.2</ele><time>2012-07-27T17:30:23.0000000+00:00</time></trkpt><trkpt lat="63.937397" lon="-21.00071526"><ele>24.2</ele><time>2012-07-27T17:30:28.0000000+00:00</time></trkpt><trkpt lat="63.937397" lon="-21.00071526"><ele>24.2</ele><time>2012-07-27T17:30:33.0000000+00:00</time></trkpt><trkpt lat="63.937397" lon="-21.00071526"><ele>24.2</ele><time>2012-07-27T17:30:38.0000000+00:00</time></trkpt><trkpt lat="63.937397" lon="-21.00071526"><ele>24.2</ele><time>2012-07-27T17:30:43.0000000+00:00</time></trkpt><trkpt lat="63.937397" lon="-21.00071716"><ele>24.2</ele><time>2012-07-27T17:30:48.0000000+00:00</time></trkpt><trkpt lat="63.937397" lon="-21.00071716"><ele>24.2</ele><time>2012-07-27T17:30:53.0000000+00:00</time></trkpt><trkpt lat="63.937397" lon="-21.00071716"><ele>24.2</ele><time>2012-07-27T17:30:58.0000000+00:00</time></trkpt><trkpt lat="63.937397" lon="-21.00071716"><ele>24.2</ele><time>2012-07-27T17:31:03.0000000+00:00</time></trkpt><trkpt lat="63.937397" lon="-21.00071716"><ele>24.2</ele><time>2012-07-27T17:31:08.0000000+00:00</time></trkpt><trkpt lat="63.937397" lon="-21.00071716"><ele>24.2</ele><time>2012-07-27T17:31:13.0000000+00:00</time></trkpt><trkpt lat="63.937397" lon="-21.00071716"><ele>24.1</ele><time>2012-07-27T17:31:18.0000000+00:00</time></trkpt><trkpt lat="63.937397" lon="-21.00071716"><ele>24.1</ele><time>2012-07-27T17:31:23.0000000+00:00</time></trkpt><trkpt lat="63.937397" lon="-21.00071716"><ele>24.1</ele><time>2012-07-27T17:31:28.0000000+00:00</time></trkpt><trkpt lat="63.937397" lon="-21.00071716"><ele>24.1</ele><time>2012-07-27T17:31:33.0000000+00:00</time></trkpt><trkpt lat="63.937397" lon="-21.00071716"><ele>24.1</ele><time>2012-07-27T17:31:38.0000000+00:00</time></trkpt><trkpt lat="63.937397" lon="-21.00071716"><ele>24.1</ele><time>2012-07-27T17:31:43.0000000+00:00</time></trkpt><trkpt lat="63.937397" lon="-21.00071526"><ele>24.0</ele><time>2012-07-27T17:31:48.0000000+00:00</time></trkpt><trkpt lat="63.937397" lon="-21.00071526"><ele>24.0</ele><time>2012-07-27T17:31:53.0000000+00:00</time></trkpt><trkpt lat="63.937397" lon="-21.00071526"><ele>24.0</ele><time>2012-07-27T17:31:58.0000000+00:00</time></trkpt><trkpt lat="63.937397" lon="-21.00071526"><ele>24.0</ele><time>2012-07-27T17:32:03.0000000+00:00</time></trkpt><trkpt lat="63.937397" lon="-21.00071526"><ele>24.0</ele><time>2012-07-27T17:32:08.0000000+00:00</time></trkpt><trkpt lat="63.93739319" lon="-21.00071526"><ele>24.0</ele><time>2012-07-27T17:32:13.0000000+00:00</time></trkpt><trkpt lat="63.93739319" lon="-21.00071526"><ele>24.0</ele><time>2012-07-27T17:32:18.0000000+00:00</time></trkpt><trkpt lat="63.93739319" lon="-21.00071716"><ele>24.0</ele><time>2012-07-27T17:32:23.0000000+00:00</time></trkpt><trkpt lat="63.93739319" lon="-21.00071716"><ele>24.1</ele><time>2012-07-27T17:32:28.0000000+00:00</time></trkpt><trkpt lat="63.93739319" lon="-21.00071907"><ele>24.1</ele><time>2012-07-27T17:32:33.0000000+00:00</time></trkpt><trkpt lat="63.93739319" lon="-21.00071907"><ele>24.1</ele><time>2012-07-27T17:32:38.0000000+00:00</time></trkpt><trkpt lat="63.93739319" lon="-21.00071907"><ele>24.1</ele><time>2012-07-27T17:32:43.0000000+00:00</time></trkpt><trkpt lat="63.93739319" lon="-21.00071907"><ele>24.1</ele><time>2012-07-27T17:32:48.0000000+00:00</time></trkpt><trkpt lat="63.93739319" lon="-21.00072098"><ele>24.2</ele><time>2012-07-27T17:32:53.0000000+00:00</time></trkpt><trkpt lat="63.93739319" lon="-21.00072098"><ele>24.2</ele><time>2012-07-27T17:32:58.0000000+00:00</time></trkpt><trkpt lat="63.93739319" lon="-21.00072098"><ele>24.2</ele><time>2012-07-27T17:33:03.0000000+00:00</time></trkpt><trkpt lat="63.93739319" lon="-21.00072289"><ele>24.2</ele><time>2012-07-27T17:33:08.0000000+00:00</time></trkpt><trkpt lat="63.93739319" lon="-21.00072289"><ele>24.3</ele><time>2012-07-27T17:33:13.0000000+00:00</time></trkpt><trkpt lat="63.93739319" lon="-21.00072289"><ele>24.3</ele><time>2012-07-27T17:33:18.0000000+00:00</time></trkpt><trkpt lat="63.93739319" lon="-21.00072479"><ele>24.3</ele><time>2012-07-27T17:33:23.0000000+00:00</time></trkpt><trkpt lat="63.93739319" lon="-21.00072479"><ele>24.3</ele><time>2012-07-27T17:33:28.0000000+00:00</time></trkpt><trkpt lat="63.93739319" lon="-21.00072479"><ele>24.3</ele><time>2012-07-27T17:33:33.0000000+00:00</time></trkpt><trkpt lat="63.93739319" lon="-21.0007267"><ele>24.4</ele><time>2012-07-27T17:33:38.0000000+00:00</time></trkpt><trkpt lat="63.93739319" lon="-21.0007267"><ele>24.4</ele><time>2012-07-27T17:33:43.0000000+00:00</time></trkpt><trkpt lat="63.93739319" lon="-21.0007267"><ele>24.4</ele><time>2012-07-27T17:33:48.0000000+00:00</time></trkpt><trkpt lat="63.93739319" lon="-21.0007267"><ele>24.4</ele><time>2012-07-27T17:33:53.0000000+00:00</time></trkpt><trkpt lat="63.93739319" lon="-21.0007267"><ele>24.4</ele><time>2012-07-27T17:33:58.0000000+00:00</time></trkpt><trkpt lat="63.93739319" lon="-21.00072861"><ele>24.4</ele><time>2012-07-27T17:34:03.0000000+00:00</time></trkpt><trkpt lat="63.93739319" lon="-21.00073052"><ele>24.5</ele><time>2012-07-27T17:34:08.0000000+00:00</time></trkpt><trkpt lat="63.93739319" lon="-21.00073242"><ele>24.6</ele><time>2012-07-27T17:34:13.0000000+00:00</time></trkpt><trkpt lat="63.93738937" lon="-21.00073242"><ele>24.7</ele><time>2012-07-27T17:34:18.0000000+00:00</time></trkpt><trkpt lat="63.93738937" lon="-21.00073242"><ele>24.7</ele><time>2012-07-27T17:34:23.0000000+00:00</time></trkpt><trkpt lat="63.93738937" lon="-21.00073242"><ele>24.7</ele><time>2012-07-27T17:34:28.0000000+00:00</time></trkpt><trkpt lat="63.93738937" lon="-21.00073433"><ele>24.7</ele><time>2012-07-27T17:34:33.0000000+00:00</time></trkpt><trkpt lat="63.93738937" lon="-21.00073242"><ele>24.6</ele><time>2012-07-27T17:34:38.0000000+00:00</time></trkpt><trkpt lat="63.93738937" lon="-21.00073242"><ele>24.6</ele><time>2012-07-27T17:34:43.0000000+00:00</time></trkpt><trkpt lat="63.93738937" lon="-21.00073242"><ele>24.6</ele><time>2012-07-27T17:34:48.0000000+00:00</time></trkpt><trkpt lat="63.93738937" lon="-21.00073242"><ele>24.5</ele><time>2012-07-27T17:34:53.0000000+00:00</time></trkpt><trkpt lat="63.93738937" lon="-21.00073052"><ele>24.5</ele><time>2012-07-27T17:34:58.0000000+00:00</time></trkpt><trkpt lat="63.93738937" lon="-21.00073052"><ele>24.4</ele><time>2012-07-27T17:35:03.0000000+00:00</time></trkpt><trkpt lat="63.93738937" lon="-21.00072861"><ele>24.4</ele><time>2012-07-27T17:35:08.0000000+00:00</time></trkpt><trkpt lat="63.93738937" lon="-21.00072861"><ele>24.4</ele><time>2012-07-27T17:35:13.0000000+00:00</time></trkpt><trkpt lat="63.93738937" lon="-21.00072861"><ele>24.4</ele><time>2012-07-27T17:35:18.0000000+00:00</time></trkpt><trkpt lat="63.93738937" lon="-21.00072861"><ele>24.4</ele><time>2012-07-27T17:35:23.0000000+00:00</time></trkpt><trkpt lat="63.93738937" lon="-21.00073052"><ele>24.5</ele><time>2012-07-27T17:35:28.0000000+00:00</time></trkpt><trkpt lat="63.93738937" lon="-21.00073052"><ele>24.5</ele><time>2012-07-27T17:35:33.0000000+00:00</time></trkpt><trkpt lat="63.93738937" lon="-21.00073052"><ele>24.6</ele><time>2012-07-27T17:35:38.0000000+00:00</time></trkpt><trkpt lat="63.93738937" lon="-21.00073242"><ele>24.6</ele><time>2012-07-27T17:35:43.0000000+00:00</time></trkpt><trkpt lat="63.93738937" lon="-21.00073242"><ele>24.7</ele><time>2012-07-27T17:35:48.0000000+00:00</time></trkpt><trkpt lat="63.93738937" lon="-21.00073624"><ele>24.8</ele><time>2012-07-27T17:35:53.0000000+00:00</time></trkpt><trkpt lat="63.93738937" lon="-21.00074005"><ele>24.8</ele><time>2012-07-27T17:35:58.0000000+00:00</time></trkpt><trkpt lat="63.93738937" lon="-21.00074196"><ele>24.8</ele><time>2012-07-27T17:36:03.0000000+00:00</time></trkpt><trkpt lat="63.93738556" lon="-21.00074387"><ele>24.9</ele><time>2012-07-27T17:36:08.0000000+00:00</time></trkpt><trkpt lat="63.93738556" lon="-21.00074577"><ele>25.0</ele><time>2012-07-27T17:36:13.0000000+00:00</time></trkpt><trkpt lat="63.93738556" lon="-21.0007515"><ele>25.3</ele><time>2012-07-27T17:36:18.0000000+00:00</time></trkpt><trkpt lat="63.93738556" lon="-21.00076103"><ele>25.7</ele><time>2012-07-27T17:36:23.0000000+00:00</time></trkpt><trkpt lat="63.93738556" lon="-21.00076294"><ele>26.1</ele><time>2012-07-27T17:36:28.0000000+00:00</time></trkpt><trkpt lat="63.93738556" lon="-21.00076294"><ele>26.5</ele><time>2012-07-27T17:36:33.0000000+00:00</time></trkpt><trkpt lat="63.93738556" lon="-21.00076294"><ele>27.0</ele><time>2012-07-27T17:36:38.0000000+00:00</time></trkpt><trkpt lat="63.93738556" lon="-21.00076675"><ele>27.4</ele><time>2012-07-27T17:36:43.0000000+00:00</time></trkpt><trkpt lat="63.93738556" lon="-21.00077248"><ele>27.9</ele><time>2012-07-27T17:36:48.0000000+00:00</time></trkpt><trkpt lat="63.93738556" lon="-21.00078201"><ele>28.5</ele><time>2012-07-27T17:36:53.0000000+00:00</time></trkpt><trkpt lat="63.93738556" lon="-21.00079346"><ele>29.0</ele><time>2012-07-27T17:36:58.0000000+00:00</time></trkpt><trkpt lat="63.93738556" lon="-21.00080109"><ele>29.6</ele><time>2012-07-27T17:37:03.0000000+00:00</time></trkpt><trkpt lat="63.93738556" lon="-21.00081062"><ele>30.2</ele><time>2012-07-27T17:37:08.0000000+00:00</time></trkpt><trkpt lat="63.93738174" lon="-21.00081825"><ele>30.9</ele><time>2012-07-27T17:37:13.0000000+00:00</time></trkpt><trkpt lat="63.93738174" lon="-21.00082779"><ele>31.6</ele><time>2012-07-27T17:37:18.0000000+00:00</time></trkpt><trkpt lat="63.93738174" lon="-21.00083923"><ele>32.4</ele><time>2012-07-27T17:37:23.0000000+00:00</time></trkpt><trkpt lat="63.93738174" lon="-21.00084877"><ele>33.0</ele><time>2012-07-27T17:37:28.0000000+00:00</time></trkpt><trkpt lat="63.93738174" lon="-21.0008564"><ele>33.6</ele><time>2012-07-27T17:37:33.0000000+00:00</time></trkpt><trkpt lat="63.93738174" lon="-21.00086212"><ele>34.1</ele><time>2012-07-27T17:37:38.0000000+00:00</time></trkpt><trkpt lat="63.93738174" lon="-21.00086403"><ele>34.6</ele><time>2012-07-27T17:37:43.0000000+00:00</time></trkpt><trkpt lat="63.93738556" lon="-21.00086212"><ele>35.0</ele><time>2012-07-27T17:37:48.0000000+00:00</time></trkpt><trkpt lat="63.93738556" lon="-21.00085449"><ele>35.3</ele><time>2012-07-27T17:37:53.0000000+00:00</time></trkpt><trkpt lat="63.93738174" lon="-21.00084686"><ele>35.6</ele><time>2012-07-27T17:37:58.0000000+00:00</time></trkpt><trkpt lat="63.93738174" lon="-21.00084877"><ele>35.8</ele><time>2012-07-27T17:38:03.0000000+00:00</time></trkpt><trkpt lat="63.93738174" lon="-21.00085068"><ele>36.1</ele><time>2012-07-27T17:38:08.0000000+00:00</time></trkpt><trkpt lat="63.93738174" lon="-21.00085259"><ele>36.3</ele><time>2012-07-27T17:38:13.0000000+00:00</time></trkpt><trkpt lat="63.93738174" lon="-21.00085449"><ele>36.6</ele><time>2012-07-27T17:38:18.0000000+00:00</time></trkpt><trkpt lat="63.93738174" lon="-21.0008564"><ele>36.8</ele><time>2012-07-27T17:38:23.0000000+00:00</time></trkpt><trkpt lat="63.93738174" lon="-21.00085449"><ele>37.2</ele><time>2012-07-27T17:38:28.0000000+00:00</time></trkpt><trkpt lat="63.93738174" lon="-21.00085068"><ele>37.5</ele><time>2012-07-27T17:38:33.0000000+00:00</time></trkpt><trkpt lat="63.93737793" lon="-21.00084877"><ele>37.8</ele><time>2012-07-27T17:38:38.0000000+00:00</time></trkpt><trkpt lat="63.93737793" lon="-21.00084496"><ele>38.1</ele><time>2012-07-27T17:38:43.0000000+00:00</time></trkpt><trkpt lat="63.93737412" lon="-21.00084305"><ele>38.4</ele><time>2012-07-27T17:38:48.0000000+00:00</time></trkpt><trkpt lat="63.93737412" lon="-21.00084114"><ele>38.8</ele><time>2012-07-27T17:38:53.0000000+00:00</time></trkpt><trkpt lat="63.93737412" lon="-21.00083733"><ele>39.3</ele><time>2012-07-27T17:38:58.0000000+00:00</time></trkpt><trkpt lat="63.93737412" lon="-21.00084114"><ele>39.8</ele><time>2012-07-27T17:39:03.0000000+00:00</time></trkpt><trkpt lat="63.93737412" lon="-21.00084305"><ele>40.2</ele><time>2012-07-27T17:39:08.0000000+00:00</time></trkpt><trkpt lat="63.93737412" lon="-21.00084114"><ele>40.3</ele><time>2012-07-27T17:39:13.0000000+00:00</time></trkpt><trkpt lat="63.93737412" lon="-21.00084114"><ele>40.3</ele><time>2012-07-27T17:39:18.0000000+00:00</time></trkpt><trkpt lat="63.93737412" lon="-21.00084114"><ele>40.3</ele><time>2012-07-27T17:39:23.0000000+00:00</time></trkpt><trkpt lat="63.93737412" lon="-21.00084114"><ele>40.5</ele><time>2012-07-27T17:39:28.0000000+00:00</time></trkpt><trkpt lat="63.93737412" lon="-21.00084114"><ele>40.5</ele><time>2012-07-27T17:39:33.0000000+00:00</time></trkpt><trkpt lat="63.93737412" lon="-21.00084305"><ele>40.7</ele><time>2012-07-27T17:39:38.0000000+00:00</time></trkpt><trkpt lat="63.93737412" lon="-21.00084305"><ele>40.8</ele><time>2012-07-27T17:39:43.0000000+00:00</time></trkpt><trkpt lat="63.93737412" lon="-21.00084114"><ele>40.9</ele><time>2012-07-27T17:39:48.0000000+00:00</time></trkpt><trkpt lat="63.93737412" lon="-21.00084305"><ele>41.0</ele><time>2012-07-27T17:39:53.0000000+00:00</time></trkpt><trkpt lat="63.93737412" lon="-21.00084114"><ele>40.9</ele><time>2012-07-27T17:39:58.0000000+00:00</time></trkpt><trkpt lat="63.93737412" lon="-21.00083923"><ele>40.9</ele><time>2012-07-27T17:40:03.0000000+00:00</time></trkpt><trkpt lat="63.93737412" lon="-21.00083923"><ele>41.0</ele><time>2012-07-27T17:40:08.0000000+00:00</time></trkpt><trkpt lat="63.93737412" lon="-21.00084114"><ele>41.2</ele><time>2012-07-27T17:40:13.0000000+00:00</time></trkpt><trkpt lat="63.93737412" lon="-21.00084305"><ele>41.5</ele><time>2012-07-27T17:40:18.0000000+00:00</time></trkpt><trkpt lat="63.93737412" lon="-21.00084305"><ele>41.5</ele><time>2012-07-27T17:40:23.0000000+00:00</time></trkpt><trkpt lat="63.93737412" lon="-21.00084305"><ele>41.5</ele><time>2012-07-27T17:40:28.0000000+00:00</time></trkpt><trkpt lat="63.93737412" lon="-21.00084305"><ele>41.6</ele><time>2012-07-27T17:40:33.0000000+00:00</time></trkpt><trkpt lat="63.93737412" lon="-21.00084305"><ele>41.6</ele><time>2012-07-27T17:40:38.0000000+00:00</time></trkpt><trkpt lat="63.93737412" lon="-21.00084305"><ele>41.6</ele><time>2012-07-27T17:40:43.0000000+00:00</time></trkpt><trkpt lat="63.93737412" lon="-21.00084305"><ele>41.7</ele><time>2012-07-27T17:40:48.0000000+00:00</time></trkpt><trkpt lat="63.93737412" lon="-21.00084114"><ele>41.7</ele><time>2012-07-27T17:40:53.0000000+00:00</time></trkpt><trkpt lat="63.93737412" lon="-21.00084114"><ele>41.7</ele><time>2012-07-27T17:40:58.0000000+00:00</time></trkpt><trkpt lat="63.93737412" lon="-21.00084114"><ele>41.6</ele><time>2012-07-27T17:41:03.0000000+00:00</time></trkpt><trkpt lat="63.93737412" lon="-21.00083923"><ele>41.6</ele><time>2012-07-27T17:41:08.0000000+00:00</time></trkpt><trkpt lat="63.9373703" lon="-21.00083923"><ele>41.6</ele><time>2012-07-27T17:41:13.0000000+00:00</time></trkpt><trkpt lat="63.9373703" lon="-21.00083923"><ele>41.5</ele><time>2012-07-27T17:41:18.0000000+00:00</time></trkpt><trkpt lat="63.93737412" lon="-21.00083733"><ele>41.4</ele><time>2012-07-27T17:41:23.0000000+00:00</time></trkpt><trkpt lat="63.93737412" lon="-21.00083542"><ele>41.3</ele><time>2012-07-27T17:41:28.0000000+00:00</time></trkpt><trkpt lat="63.93737412" lon="-21.0008316"><ele>41.1</ele><time>2012-07-27T17:41:33.0000000+00:00</time></trkpt><trkpt lat="63.93737412" lon="-21.00082779"><ele>40.9</ele><time>2012-07-27T17:41:38.0000000+00:00</time></trkpt><trkpt lat="63.93737412" lon="-21.00082588"><ele>40.8</ele><time>2012-07-27T17:41:43.0000000+00:00</time></trkpt><trkpt lat="63.93737412" lon="-21.00082588"><ele>40.8</ele><time>2012-07-27T17:41:48.0000000+00:00</time></trkpt><trkpt lat="63.93737412" lon="-21.00082398"><ele>40.8</ele><time>2012-07-27T17:41:53.0000000+00:00</time></trkpt><trkpt lat="63.9373703" lon="-21.00082398"><ele>40.8</ele><time>2012-07-27T17:41:58.0000000+00:00</time></trkpt><trkpt lat="63.9373703" lon="-21.00082207"><ele>40.8</ele><time>2012-07-27T17:42:03.0000000+00:00</time></trkpt><trkpt lat="63.9373703" lon="-21.00082398"><ele>40.8</ele><time>2012-07-27T17:42:08.0000000+00:00</time></trkpt><trkpt lat="63.9373703" lon="-21.00082016"><ele>40.7</ele><time>2012-07-27T17:42:13.0000000+00:00</time></trkpt><trkpt lat="63.9373703" lon="-21.00081825"><ele>40.5</ele><time>2012-07-27T17:42:18.0000000+00:00</time></trkpt><trkpt lat="63.9373703" lon="-21.00081825"><ele>40.4</ele><time>2012-07-27T17:42:23.0000000+00:00</time></trkpt><trkpt lat="63.9373703" lon="-21.00081635"><ele>40.3</ele><time>2012-07-27T17:42:28.0000000+00:00</time></trkpt><trkpt lat="63.9373703" lon="-21.00081635"><ele>40.3</ele><time>2012-07-27T17:42:33.0000000+00:00</time></trkpt><trkpt lat="63.9373703" lon="-21.00081635"><ele>40.3</ele><time>2012-07-27T17:42:38.0000000+00:00</time></trkpt><trkpt lat="63.9373703" lon="-21.00081444"><ele>40.3</ele><time>2012-07-27T17:42:43.0000000+00:00</time></trkpt><trkpt lat="63.93737412" lon="-21.00081444"><ele>40.2</ele><time>2012-07-27T17:42:48.0000000+00:00</time></trkpt><trkpt lat="63.93737412" lon="-21.00081253"><ele>40.2</ele><time>2012-07-27T17:42:53.0000000+00:00</time></trkpt><trkpt lat="63.93737412" lon="-21.00081253"><ele>40.1</ele><time>2012-07-27T17:42:58.0000000+00:00</time></trkpt><trkpt lat="63.93737412" lon="-21.00081253"><ele>40.1</ele><time>2012-07-27T17:43:03.0000000+00:00</time></trkpt><trkpt lat="63.93737412" lon="-21.00081253"><ele>40.0</ele><time>2012-07-27T17:43:08.0000000+00:00</time></trkpt><trkpt lat="63.93737412" lon="-21.00081062"><ele>40.0</ele><time>2012-07-27T17:43:13.0000000+00:00</time></trkpt><trkpt lat="63.93737412" lon="-21.00081062"><ele>40.0</ele><time>2012-07-27T17:43:18.0000000+00:00</time></trkpt><trkpt lat="63.93737412" lon="-21.00080872"><ele>40.0</ele><time>2012-07-27T17:43:23.0000000+00:00</time></trkpt><trkpt lat="63.93737412" lon="-21.00080872"><ele>39.9</ele><time>2012-07-27T17:43:28.0000000+00:00</time></trkpt><trkpt lat="63.93737412" lon="-21.00080681"><ele>39.9</ele><time>2012-07-27T17:43:33.0000000+00:00</time></trkpt><trkpt lat="63.93737412" lon="-21.00080681"><ele>39.9</ele><time>2012-07-27T17:43:38.0000000+00:00</time></trkpt><trkpt lat="63.93737412" lon="-21.0008049"><ele>39.8</ele><time>2012-07-27T17:43:43.0000000+00:00</time></trkpt><trkpt lat="63.93737412" lon="-21.00080299"><ele>39.8</ele><time>2012-07-27T17:43:48.0000000+00:00</time></trkpt><trkpt lat="63.93737412" lon="-21.00080109"><ele>39.7</ele><time>2012-07-27T17:43:53.0000000+00:00</time></trkpt><trkpt lat="63.93737412" lon="-21.00079918"><ele>39.6</ele><time>2012-07-27T17:43:58.0000000+00:00</time></trkpt><trkpt lat="63.93737412" lon="-21.00079727"><ele>39.5</ele><time>2012-07-27T17:44:03.0000000+00:00</time></trkpt><trkpt lat="63.93737412" lon="-21.00079727"><ele>39.5</ele><time>2012-07-27T17:44:08.0000000+00:00</time></trkpt><trkpt lat="63.9373703" lon="-21.00079727"><ele>39.5</ele><time>2012-07-27T17:44:13.0000000+00:00</time></trkpt><trkpt lat="63.93737412" lon="-21.00079727"><ele>39.4</ele><time>2012-07-27T17:44:18.0000000+00:00</time></trkpt><trkpt lat="63.9373703" lon="-21.00079727"><ele>39.4</ele><time>2012-07-27T17:44:23.0000000+00:00</time></trkpt><trkpt lat="63.93737412" lon="-21.00079536"><ele>39.3</ele><time>2012-07-27T17:44:28.0000000+00:00</time></trkpt><trkpt lat="63.9373703" lon="-21.00079536"><ele>39.3</ele><time>2012-07-27T17:44:33.0000000+00:00</time></trkpt><trkpt lat="63.9373703" lon="-21.00079536"><ele>39.1</ele><time>2012-07-27T17:44:38.0000000+00:00</time></trkpt><trkpt lat="63.9373703" lon="-21.00079536"><ele>39.0</ele><time>2012-07-27T17:44:43.0000000+00:00</time></trkpt><trkpt lat="63.9373703" lon="-21.00079346"><ele>39.0</ele><time>2012-07-27T17:44:48.0000000+00:00</time></trkpt><trkpt lat="63.9373703" lon="-21.00079346"><ele>38.9</ele><time>2012-07-27T17:44:53.0000000+00:00</time></trkpt><trkpt lat="63.9373703" lon="-21.00079155"><ele>38.9</ele><time>2012-07-27T17:44:58.0000000+00:00</time></trkpt><trkpt lat="63.9373703" lon="-21.00078774"><ele>38.9</ele><time>2012-07-27T17:45:03.0000000+00:00</time></trkpt><trkpt lat="63.9373703" lon="-21.00078392"><ele>38.9</ele><time>2012-07-27T17:45:08.0000000+00:00</time></trkpt><trkpt lat="63.9373703" lon="-21.00078392"><ele>38.9</ele><time>2012-07-27T17:45:13.0000000+00:00</time></trkpt><trkpt lat="63.9373703" lon="-21.00078201"><ele>38.9</ele><time>2012-07-27T17:45:18.0000000+00:00</time></trkpt><trkpt lat="63.9373703" lon="-21.00078201"><ele>38.8</ele><time>2012-07-27T17:45:23.0000000+00:00</time></trkpt><trkpt lat="63.9373703" lon="-21.00078011"><ele>38.8</ele><time>2012-07-27T17:45:28.0000000+00:00</time></trkpt><trkpt lat="63.9373703" lon="-21.00078011"><ele>38.8</ele><time>2012-07-27T17:45:33.0000000+00:00</time></trkpt><trkpt lat="63.9373703" lon="-21.0007782"><ele>38.8</ele><time>2012-07-27T17:45:38.0000000+00:00</time></trkpt><trkpt lat="63.9373703" lon="-21.0007782"><ele>38.8</ele><time>2012-07-27T17:45:43.0000000+00:00</time></trkpt><trkpt lat="63.9373703" lon="-21.0007782"><ele>38.8</ele><time>2012-07-27T17:45:48.0000000+00:00</time></trkpt><trkpt lat="63.9373703" lon="-21.00077629"><ele>38.8</ele><time>2012-07-27T17:45:53.0000000+00:00</time></trkpt><trkpt lat="63.9373703" lon="-21.00077438"><ele>38.7</ele><time>2012-07-27T17:45:58.0000000+00:00</time></trkpt><trkpt lat="63.93737412" lon="-21.00077057"><ele>38.7</ele><time>2012-07-27T17:46:03.0000000+00:00</time></trkpt><trkpt lat="63.93737412" lon="-21.00076866"><ele>38.5</ele><time>2012-07-27T17:46:08.0000000+00:00</time></trkpt><trkpt lat="63.93737412" lon="-21.00076675"><ele>38.4</ele><time>2012-07-27T17:46:13.0000000+00:00</time></trkpt><trkpt lat="63.93737412" lon="-21.00076485"><ele>38.3</ele><time>2012-07-27T17:46:18.0000000+00:00</time></trkpt><trkpt lat="63.93737412" lon="-21.00076103"><ele>38.1</ele><time>2012-07-27T17:46:23.0000000+00:00</time></trkpt><trkpt lat="63.93737412" lon="-21.00075531"><ele>37.9</ele><time>2012-07-27T17:46:28.0000000+00:00</time></trkpt><trkpt lat="63.93737412" lon="-21.0007534"><ele>37.7</ele><time>2012-07-27T17:46:33.0000000+00:00</time></trkpt><trkpt lat="63.93737412" lon="-21.0007515"><ele>37.5</ele><time>2012-07-27T17:46:38.0000000+00:00</time></trkpt><trkpt lat="63.93737412" lon="-21.00074768"><ele>37.3</ele><time>2012-07-27T17:46:43.0000000+00:00</time></trkpt><trkpt lat="63.93737412" lon="-21.00074387"><ele>37.0</ele><time>2012-07-27T17:46:48.0000000+00:00</time></trkpt><trkpt lat="63.93737412" lon="-21.00074005"><ele>36.7</ele><time>2012-07-27T17:46:53.0000000+00:00</time></trkpt><trkpt lat="63.93737412" lon="-21.00073814"><ele>36.3</ele><time>2012-07-27T17:46:58.0000000+00:00</time></trkpt><trkpt lat="63.93737412" lon="-21.00073242"><ele>36.0</ele><time>2012-07-27T17:47:03.0000000+00:00</time></trkpt><trkpt lat="63.93737412" lon="-21.00072861"><ele>35.6</ele><time>2012-07-27T17:47:08.0000000+00:00</time></trkpt><trkpt lat="63.93737412" lon="-21.00072479"><ele>35.1</ele><time>2012-07-27T17:47:13.0000000+00:00</time></trkpt><trkpt lat="63.93737412" lon="-21.00071907"><ele>34.7</ele><time>2012-07-27T17:47:18.0000000+00:00</time></trkpt><trkpt lat="63.93737412" lon="-21.00071526"><ele>34.3</ele><time>2012-07-27T17:47:23.0000000+00:00</time></trkpt><trkpt lat="63.93737412" lon="-21.00071526"><ele>34.3</ele><time>2012-07-27T17:47:28.0000000+00:00</time></trkpt><trkpt lat="63.93737412" lon="-21.00071526"><ele>34.2</ele><time>2012-07-27T17:47:33.0000000+00:00</time></trkpt><trkpt lat="63.93737412" lon="-21.00071526"><ele>34.2</ele><time>2012-07-27T17:47:38.0000000+00:00</time></trkpt><trkpt lat="63.93737412" lon="-21.00071526"><ele>34.2</ele><time>2012-07-27T17:47:43.0000000+00:00</time></trkpt><trkpt lat="63.93737412" lon="-21.00071335"><ele>34.2</ele><time>2012-07-27T17:47:48.0000000+00:00</time></trkpt><trkpt lat="63.93737412" lon="-21.00071335"><ele>34.2</ele><time>2012-07-27T17:47:53.0000000+00:00</time></trkpt><trkpt lat="63.93737412" lon="-21.00071335"><ele>34.2</ele><time>2012-07-27T17:47:58.0000000+00:00</time></trkpt><trkpt lat="63.93737412" lon="-21.00071144"><ele>34.2</ele><time>2012-07-27T17:48:03.0000000+00:00</time></trkpt><trkpt lat="63.93737412" lon="-21.00071144"><ele>34.1</ele><time>2012-07-27T17:48:08.0000000+00:00</time></trkpt><trkpt lat="63.93737412" lon="-21.00071144"><ele>34.1</ele><time>2012-07-27T17:48:13.0000000+00:00</time></trkpt><trkpt lat="63.93737412" lon="-21.00070953"><ele>34.0</ele><time>2012-07-27T17:48:18.0000000+00:00</time></trkpt><trkpt lat="63.93737412" lon="-21.00070953"><ele>34.0</ele><time>2012-07-27T17:48:23.0000000+00:00</time></trkpt><trkpt lat="63.93737412" lon="-21.00070953"><ele>34.0</ele><time>2012-07-27T17:48:28.0000000+00:00</time></trkpt><trkpt lat="63.93737412" lon="-21.00070763"><ele>34.0</ele><time>2012-07-27T17:48:33.0000000+00:00</time></trkpt><trkpt lat="63.93737412" lon="-21.00070763"><ele>33.9</ele><time>2012-07-27T17:48:38.0000000+00:00</time></trkpt><trkpt lat="63.93737412" lon="-21.00070572"><ele>33.9</ele><time>2012-07-27T17:48:43.0000000+00:00</time></trkpt><trkpt lat="63.93737412" lon="-21.00070572"><ele>33.8</ele><time>2012-07-27T17:48:48.0000000+00:00</time></trkpt><trkpt lat="63.93737412" lon="-21.00070381"><ele>33.8</ele><time>2012-07-27T17:48:53.0000000+00:00</time></trkpt><trkpt lat="63.93737412" lon="-21.00070381"><ele>33.8</ele><time>2012-07-27T17:48:58.0000000+00:00</time></trkpt><trkpt lat="63.93737412" lon="-21.00070381"><ele>33.7</ele><time>2012-07-27T17:49:03.0000000+00:00</time></trkpt><trkpt lat="63.93737412" lon="-21.0007019"><ele>33.7</ele><time>2012-07-27T17:49:08.0000000+00:00</time></trkpt><trkpt lat="63.93737412" lon="-21.0007019"><ele>33.6</ele><time>2012-07-27T17:49:13.0000000+00:00</time></trkpt><trkpt lat="63.93737412" lon="-21.0007019"><ele>33.6</ele><time>2012-07-27T17:49:18.0000000+00:00</time></trkpt><trkpt lat="63.93737412" lon="-21.0007"><ele>33.5</ele><time>2012-07-27T17:49:23.0000000+00:00</time></trkpt><trkpt lat="63.93737412" lon="-21.0007"><ele>33.5</ele><time>2012-07-27T17:49:28.0000000+00:00</time></trkpt><trkpt lat="63.93737412" lon="-21.0007"><ele>33.5</ele><time>2012-07-27T17:49:33.0000000+00:00</time></trkpt><trkpt lat="63.93737412" lon="-21.00069809"><ele>33.5</ele><time>2012-07-27T17:49:38.0000000+00:00</time></trkpt><trkpt lat="63.93737412" lon="-21.00069809"><ele>33.4</ele><time>2012-07-27T17:49:43.0000000+00:00</time></trkpt><trkpt lat="63.93737412" lon="-21.00069809"><ele>33.4</ele><time>2012-07-27T17:49:48.0000000+00:00</time></trkpt><trkpt lat="63.93737412" lon="-21.00069809"><ele>33.4</ele><time>2012-07-27T17:49:53.0000000+00:00</time></trkpt><trkpt lat="63.93737412" lon="-21.00069618"><ele>33.4</ele><time>2012-07-27T17:49:58.0000000+00:00</time></trkpt><trkpt lat="63.93737412" lon="-21.00069618"><ele>33.4</ele><time>2012-07-27T17:50:03.0000000+00:00</time></trkpt><trkpt lat="63.93737412" lon="-21.00069618"><ele>33.4</ele><time>2012-07-27T17:50:08.0000000+00:00</time></trkpt><trkpt lat="63.93737412" lon="-21.00069618"><ele>33.4</ele><time>2012-07-27T17:50:13.0000000+00:00</time></trkpt><trkpt lat="63.93737412" lon="-21.00069618"><ele>33.3</ele><time>2012-07-27T17:50:18.0000000+00:00</time></trkpt><trkpt lat="63.93737412" lon="-21.00069618"><ele>33.3</ele><time>2012-07-27T17:50:23.0000000+00:00</time></trkpt><trkpt lat="63.93737412" lon="-21.00069618"><ele>33.3</ele><time>2012-07-27T17:50:28.0000000+00:00</time></trkpt><trkpt lat="63.93737412" lon="-21.00069618"><ele>33.3</ele><time>2012-07-27T17:50:33.0000000+00:00</time></trkpt><trkpt lat="63.93737412" lon="-21.00069618"><ele>33.3</ele><time>2012-07-27T17:50:38.0000000+00:00</time></trkpt><trkpt lat="63.93737412" lon="-21.00069428"><ele>33.3</ele><time>2012-07-27T17:50:43.0000000+00:00</time></trkpt><trkpt lat="63.93737412" lon="-21.00069428"><ele>33.3</ele><time>2012-07-27T17:50:48.0000000+00:00</time></trkpt><trkpt lat="63.93737793" lon="-21.00069428"><ele>33.3</ele><time>2012-07-27T17:50:53.0000000+00:00</time></trkpt><trkpt lat="63.93737793" lon="-21.00069428"><ele>33.3</ele><time>2012-07-27T17:50:58.0000000+00:00</time></trkpt><trkpt lat="63.93737793" lon="-21.00069428"><ele>33.2</ele><time>2012-07-27T17:51:03.0000000+00:00</time></trkpt><trkpt lat="63.93737793" lon="-21.00069428"><ele>33.2</ele><time>2012-07-27T17:51:08.0000000+00:00</time></trkpt><trkpt lat="63.93737793" lon="-21.00069428"><ele>33.2</ele><time>2012-07-27T17:51:13.0000000+00:00</time></trkpt><trkpt lat="63.93737793" lon="-21.00069237"><ele>33.1</ele><time>2012-07-27T17:51:18.0000000+00:00</time></trkpt><trkpt lat="63.93737793" lon="-21.00069237"><ele>33.1</ele><time>2012-07-27T17:51:23.0000000+00:00</time></trkpt><trkpt lat="63.93737793" lon="-21.00069237"><ele>33.1</ele><time>2012-07-27T17:51:28.0000000+00:00</time></trkpt><trkpt lat="63.93737793" lon="-21.00069237"><ele>33.1</ele><time>2012-07-27T17:51:33.0000000+00:00</time></trkpt><trkpt lat="63.93737793" lon="-21.00069237"><ele>33.1</ele><time>2012-07-27T17:51:38.0000000+00:00</time></trkpt><trkpt lat="63.93737793" lon="-21.00069237"><ele>33.1</ele><time>2012-07-27T17:51:43.0000000+00:00</time></trkpt><trkpt lat="63.93737793" lon="-21.00069237"><ele>33.1</ele><time>2012-07-27T17:51:48.0000000+00:00</time></trkpt><trkpt lat="63.93737793" lon="-21.00069237"><ele>33.1</ele><time>2012-07-27T17:51:53.0000000+00:00</time></trkpt><trkpt lat="63.93737793" lon="-21.00069046"><ele>33.1</ele><time>2012-07-27T17:51:58.0000000+00:00</time></trkpt><trkpt lat="63.93737793" lon="-21.00069046"><ele>33.1</ele><time>2012-07-27T17:52:03.0000000+00:00</time></trkpt><trkpt lat="63.93737793" lon="-21.00069046"><ele>33.1</ele><time>2012-07-27T17:52:08.0000000+00:00</time></trkpt><trkpt lat="63.93737793" lon="-21.00068855"><ele>33.1</ele><time>2012-07-27T17:52:13.0000000+00:00</time></trkpt><trkpt lat="63.93737793" lon="-21.00068855"><ele>33.1</ele><time>2012-07-27T17:52:18.0000000+00:00</time></trkpt><trkpt lat="63.93737793" lon="-21.00068855"><ele>33.1</ele><time>2012-07-27T17:52:23.0000000+00:00</time></trkpt><trkpt lat="63.93737793" lon="-21.00068855"><ele>33.1</ele><time>2012-07-27T17:52:28.0000000+00:00</time></trkpt><trkpt lat="63.93737793" lon="-21.00068855"><ele>33.1</ele><time>2012-07-27T17:52:33.0000000+00:00</time></trkpt><trkpt lat="63.93737793" lon="-21.00068665"><ele>33.1</ele><time>2012-07-27T17:52:38.0000000+00:00</time></trkpt><trkpt lat="63.93737793" lon="-21.00068665"><ele>33.1</ele><time>2012-07-27T17:52:43.0000000+00:00</time></trkpt><trkpt lat="63.93737793" lon="-21.00068665"><ele>33.1</ele><time>2012-07-27T17:52:48.0000000+00:00</time></trkpt><trkpt lat="63.93737793" lon="-21.00068665"><ele>33.1</ele><time>2012-07-27T17:52:53.0000000+00:00</time></trkpt><trkpt lat="63.93737793" lon="-21.00068665"><ele>33.0</ele><time>2012-07-27T17:52:58.0000000+00:00</time></trkpt><trkpt lat="63.93737793" lon="-21.00068665"><ele>33.0</ele><time>2012-07-27T17:53:03.0000000+00:00</time></trkpt><trkpt lat="63.93737793" lon="-21.00068474"><ele>33.0</ele><time>2012-07-27T17:53:08.0000000+00:00</time></trkpt><trkpt lat="63.93737793" lon="-21.00068474"><ele>33.0</ele><time>2012-07-27T17:53:13.0000000+00:00</time></trkpt><trkpt lat="63.93737793" lon="-21.00068474"><ele>33.0</ele><time>2012-07-27T17:53:18.0000000+00:00</time></trkpt><trkpt lat="63.93737793" lon="-21.00068474"><ele>33.0</ele><time>2012-07-27T17:53:23.0000000+00:00</time></trkpt><trkpt lat="63.93737793" lon="-21.00068283"><ele>33.0</ele><time>2012-07-27T17:53:28.0000000+00:00</time></trkpt><trkpt lat="63.93737793" lon="-21.00068283"><ele>33.0</ele><time>2012-07-27T17:53:33.0000000+00:00</time></trkpt><trkpt lat="63.93737793" lon="-21.00068283"><ele>33.0</ele><time>2012-07-27T17:53:38.0000000+00:00</time></trkpt><trkpt lat="63.93737793" lon="-21.00068283"><ele>33.0</ele><time>2012-07-27T17:53:43.0000000+00:00</time></trkpt><trkpt lat="63.93737793" lon="-21.00068283"><ele>33.0</ele><time>2012-07-27T17:53:48.0000000+00:00</time></trkpt><trkpt lat="63.93737412" lon="-21.00068283"><ele>32.9</ele><time>2012-07-27T17:53:53.0000000+00:00</time></trkpt><trkpt lat="63.93737412" lon="-21.00068283"><ele>32.9</ele><time>2012-07-27T17:53:58.0000000+00:00</time></trkpt><trkpt lat="63.93737412" lon="-21.00068283"><ele>32.9</ele><time>2012-07-27T17:54:03.0000000+00:00</time></trkpt><trkpt lat="63.93737793" lon="-21.00068283"><ele>32.9</ele><time>2012-07-27T17:54:08.0000000+00:00</time></trkpt><trkpt lat="63.93737793" lon="-21.00068283"><ele>32.9</ele><time>2012-07-27T17:54:13.0000000+00:00</time></trkpt><trkpt lat="63.93737793" lon="-21.00068283"><ele>32.9</ele><time>2012-07-27T17:54:18.0000000+00:00</time></trkpt><trkpt lat="63.93737793" lon="-21.00068283"><ele>32.9</ele><time>2012-07-27T17:54:23.0000000+00:00</time></trkpt><trkpt lat="63.93737793" lon="-21.00068283"><ele>32.9</ele><time>2012-07-27T17:54:28.0000000+00:00</time></trkpt><trkpt lat="63.93737793" lon="-21.00068092"><ele>32.9</ele><time>2012-07-27T17:54:33.0000000+00:00</time></trkpt><trkpt lat="63.93737793" lon="-21.00068092"><ele>32.9</ele><time>2012-07-27T17:54:38.0000000+00:00</time></trkpt><trkpt lat="63.93737793" lon="-21.00068092"><ele>32.9</ele><time>2012-07-27T17:54:43.0000000+00:00</time></trkpt><trkpt lat="63.93737793" lon="-21.00068092"><ele>32.9</ele><time>2012-07-27T17:54:48.0000000+00:00</time></trkpt><trkpt lat="63.93737793" lon="-21.00068092"><ele>32.9</ele><time>2012-07-27T17:54:53.0000000+00:00</time></trkpt><trkpt lat="63.93737793" lon="-21.00068092"><ele>32.9</ele><time>2012-07-27T17:54:58.0000000+00:00</time></trkpt><trkpt lat="63.93737793" lon="-21.00068092"><ele>32.9</ele><time>2012-07-27T17:55:03.0000000+00:00</time></trkpt><trkpt lat="63.93737793" lon="-21.00068092"><ele>32.9</ele><time>2012-07-27T17:55:08.0000000+00:00</time></trkpt><trkpt lat="63.93737793" lon="-21.00068092"><ele>32.9</ele><time>2012-07-27T17:55:13.0000000+00:00</time></trkpt><trkpt lat="63.93737793" lon="-21.00067902"><ele>32.9</ele><time>2012-07-27T17:55:18.0000000+00:00</time></trkpt><trkpt lat="63.93737793" lon="-21.00067902"><ele>32.9</ele><time>2012-07-27T17:55:23.0000000+00:00</time></trkpt><trkpt lat="63.93737793" lon="-21.00067902"><ele>32.8</ele><time>2012-07-27T17:55:28.0000000+00:00</time></trkpt><trkpt lat="63.93737793" lon="-21.00067902"><ele>32.9</ele><time>2012-07-27T17:55:33.0000000+00:00</time></trkpt><trkpt lat="63.93737412" lon="-21.00067902"><ele>32.9</ele><time>2012-07-27T17:55:38.0000000+00:00</time></trkpt><trkpt lat="63.93737793" lon="-21.00067902"><ele>32.9</ele><time>2012-07-27T17:55:43.0000000+00:00</time></trkpt><trkpt lat="63.93737793" lon="-21.00067902"><ele>32.9</ele><time>2012-07-27T17:55:48.0000000+00:00</time></trkpt><trkpt lat="63.93737793" lon="-21.00067902"><ele>32.9</ele><time>2012-07-27T17:55:53.0000000+00:00</time></trkpt><trkpt lat="63.93737793" lon="-21.00067902"><ele>32.9</ele><time>2012-07-27T17:55:58.0000000+00:00</time></trkpt><trkpt lat="63.93737793" lon="-21.00067902"><ele>32.9</ele><time>2012-07-27T17:56:03.0000000+00:00</time></trkpt><trkpt lat="63.93737793" lon="-21.00067902"><ele>32.9</ele><time>2012-07-27T17:56:08.0000000+00:00</time></trkpt><trkpt lat="63.93737793" lon="-21.00067902"><ele>32.9</ele><time>2012-07-27T17:56:13.0000000+00:00</time></trkpt><trkpt lat="63.93737793" lon="-21.00067902"><ele>33.0</ele><time>2012-07-27T17:56:18.0000000+00:00</time></trkpt><trkpt lat="63.93737793" lon="-21.00067902"><ele>33.0</ele><time>2012-07-27T17:56:23.0000000+00:00</time></trkpt><trkpt lat="63.93737793" lon="-21.00067902"><ele>33.0</ele><time>2012-07-27T17:56:28.0000000+00:00</time></trkpt><trkpt lat="63.93737793" lon="-21.00067902"><ele>33.0</ele><time>2012-07-27T17:56:33.0000000+00:00</time></trkpt><trkpt lat="63.93737793" lon="-21.00067902"><ele>33.0</ele><time>2012-07-27T17:56:38.0000000+00:00</time></trkpt><trkpt lat="63.93737793" lon="-21.00067902"><ele>33.0</ele><time>2012-07-27T17:56:43.0000000+00:00</time></trkpt><trkpt lat="63.93737793" lon="-21.00067902"><ele>33.0</ele><time>2012-07-27T17:56:48.0000000+00:00</time></trkpt><trkpt lat="63.93737793" lon="-21.00067902"><ele>33.1</ele><time>2012-07-27T17:56:53.0000000+00:00</time></trkpt><trkpt lat="63.93737793" lon="-21.00067902"><ele>33.1</ele><time>2012-07-27T17:56:58.0000000+00:00</time></trkpt><trkpt lat="63.93737793" lon="-21.00067902"><ele>33.2</ele><time>2012-07-27T17:57:03.0000000+00:00</time></trkpt><trkpt lat="63.93737793" lon="-21.00067902"><ele>33.3</ele><time>2012-07-27T17:57:08.0000000+00:00</time></trkpt><trkpt lat="63.93737793" lon="-21.00067902"><ele>33.4</ele><time>2012-07-27T17:57:13.0000000+00:00</time></trkpt><trkpt lat="63.93737793" lon="-21.00067902"><ele>33.4</ele><time>2012-07-27T17:57:18.0000000+00:00</time></trkpt><trkpt lat="63.93737793" lon="-21.00067902"><ele>33.4</ele><time>2012-07-27T17:57:23.0000000+00:00</time></trkpt><trkpt lat="63.93737793" lon="-21.00067711"><ele>33.4</ele><time>2012-07-27T17:57:28.0000000+00:00</time></trkpt><trkpt lat="63.93737793" lon="-21.00067711"><ele>33.5</ele><time>2012-07-27T17:57:33.0000000+00:00</time></trkpt><trkpt lat="63.93737793" lon="-21.00067902"><ele>33.5</ele><time>2012-07-27T17:57:38.0000000+00:00</time></trkpt><trkpt lat="63.93737793" lon="-21.00067902"><ele>33.5</ele><time>2012-07-27T17:57:43.0000000+00:00</time></trkpt><trkpt lat="63.93737793" lon="-21.00067902"><ele>33.5</ele><time>2012-07-27T17:57:48.0000000+00:00</time></trkpt><trkpt lat="63.93737793" lon="-21.00067902"><ele>33.5</ele><time>2012-07-27T17:57:53.0000000+00:00</time></trkpt><trkpt lat="63.93737793" lon="-21.00067902"><ele>33.5</ele><time>2012-07-27T17:57:58.0000000+00:00</time></trkpt><trkpt lat="63.93737793" lon="-21.00067902"><ele>33.5</ele><time>2012-07-27T17:58:03.0000000+00:00</time></trkpt><trkpt lat="63.93737793" lon="-21.00067902"><ele>33.5</ele><time>2012-07-27T17:58:08.0000000+00:00</time></trkpt><trkpt lat="63.93737793" lon="-21.00067902"><ele>33.5</ele><time>2012-07-27T17:58:13.0000000+00:00</time></trkpt><trkpt lat="63.93737793" lon="-21.00067711"><ele>33.5</ele><time>2012-07-27T17:58:18.0000000+00:00</time></trkpt><trkpt lat="63.93737793" lon="-21.00067711"><ele>33.4</ele><time>2012-07-27T17:58:23.0000000+00:00</time></trkpt><trkpt lat="63.93737793" lon="-21.0006752"><ele>33.3</ele><time>2012-07-27T17:58:28.0000000+00:00</time></trkpt><trkpt lat="63.93737793" lon="-21.0006752"><ele>33.3</ele><time>2012-07-27T17:58:33.0000000+00:00</time></trkpt><trkpt lat="63.93737793" lon="-21.0006752"><ele>33.2</ele><time>2012-07-27T17:58:38.0000000+00:00</time></trkpt><trkpt lat="63.93737793" lon="-21.0006752"><ele>33.2</ele><time>2012-07-27T17:58:43.0000000+00:00</time></trkpt><trkpt lat="63.93737793" lon="-21.0006752"><ele>33.2</ele><time>2012-07-27T17:58:48.0000000+00:00</time></trkpt><trkpt lat="63.93737793" lon="-21.0006752"><ele>33.2</ele><time>2012-07-27T17:58:53.0000000+00:00</time></trkpt><trkpt lat="63.93737793" lon="-21.0006752"><ele>33.2</ele><time>2012-07-27T17:58:58.0000000+00:00</time></trkpt><trkpt lat="63.93737793" lon="-21.00067329"><ele>33.2</ele><time>2012-07-27T17:59:03.0000000+00:00</time></trkpt><trkpt lat="63.93737793" lon="-21.00067329"><ele>33.2</ele><time>2012-07-27T17:59:08.0000000+00:00</time></trkpt><trkpt lat="63.93737793" lon="-21.00067329"><ele>33.2</ele><time>2012-07-27T17:59:13.0000000+00:00</time></trkpt><trkpt lat="63.93737793" lon="-21.00067329"><ele>33.2</ele><time>2012-07-27T17:59:18.0000000+00:00</time></trkpt><trkpt lat="63.93738174" lon="-21.00067329"><ele>33.1</ele><time>2012-07-27T17:59:23.0000000+00:00</time></trkpt><trkpt lat="63.93738174" lon="-21.00067139"><ele>33.1</ele><time>2012-07-27T17:59:28.0000000+00:00</time></trkpt><trkpt lat="63.93737793" lon="-21.00067139"><ele>33.1</ele><time>2012-07-27T17:59:33.0000000+00:00</time></trkpt><trkpt lat="63.93737793" lon="-21.00067139"><ele>33.1</ele><time>2012-07-27T17:59:38.0000000+00:00</time></trkpt><trkpt lat="63.93737793" lon="-21.00067139"><ele>33.1</ele><time>2012-07-27T17:59:43.0000000+00:00</time></trkpt><trkpt lat="63.93737793" lon="-21.00067139"><ele>33.1</ele><time>2012-07-27T17:59:48.0000000+00:00</time></trkpt><trkpt lat="63.93738174" lon="-21.00067139"><ele>33.0</ele><time>2012-07-27T17:59:53.0000000+00:00</time></trkpt><trkpt lat="63.93738174" lon="-21.00067139"><ele>33.0</ele><time>2012-07-27T17:59:58.0000000+00:00</time></trkpt><trkpt lat="63.93738174" lon="-21.00066948"><ele>33.0</ele><time>2012-07-27T18:00:03.0000000+00:00</time></trkpt><trkpt lat="63.93738174" lon="-21.00066948"><ele>32.9</ele><time>2012-07-27T18:00:08.0000000+00:00</time></trkpt><trkpt lat="63.93738174" lon="-21.00066948"><ele>32.9</ele><time>2012-07-27T18:00:13.0000000+00:00</time></trkpt><trkpt lat="63.93738174" lon="-21.00066757"><ele>32.9</ele><time>2012-07-27T18:00:18.0000000+00:00</time></trkpt><trkpt lat="63.93738174" lon="-21.00066757"><ele>32.9</ele><time>2012-07-27T18:00:23.0000000+00:00</time></trkpt><trkpt lat="63.93738174" lon="-21.00066757"><ele>32.9</ele><time>2012-07-27T18:00:28.0000000+00:00</time></trkpt><trkpt lat="63.93738174" lon="-21.00066757"><ele>32.8</ele><time>2012-07-27T18:00:33.0000000+00:00</time></trkpt><trkpt lat="63.93738174" lon="-21.00066567"><ele>32.8</ele><time>2012-07-27T18:00:38.0000000+00:00</time></trkpt><trkpt lat="63.93738174" lon="-21.00066567"><ele>32.8</ele><time>2012-07-27T18:00:43.0000000+00:00</time></trkpt><trkpt lat="63.93738174" lon="-21.00066567"><ele>32.7</ele><time>2012-07-27T18:00:48.0000000+00:00</time></trkpt><trkpt lat="63.93738174" lon="-21.00066567"><ele>32.7</ele><time>2012-07-27T18:00:53.0000000+00:00</time></trkpt><trkpt lat="63.93738174" lon="-21.00066376"><ele>32.6</ele><time>2012-07-27T18:00:58.0000000+00:00</time></trkpt><trkpt lat="63.93738174" lon="-21.00066376"><ele>32.6</ele><time>2012-07-27T18:01:03.0000000+00:00</time></trkpt><trkpt lat="63.93738174" lon="-21.00066185"><ele>32.5</ele><time>2012-07-27T18:01:08.0000000+00:00</time></trkpt><trkpt lat="63.93738174" lon="-21.00066185"><ele>32.4</ele><time>2012-07-27T18:01:13.0000000+00:00</time></trkpt><trkpt lat="63.93738174" lon="-21.00066185"><ele>32.4</ele><time>2012-07-27T18:01:18.0000000+00:00</time></trkpt><trkpt lat="63.93737793" lon="-21.00066185"><ele>32.4</ele><time>2012-07-27T18:01:23.0000000+00:00</time></trkpt><trkpt lat="63.93737793" lon="-21.00066185"><ele>32.4</ele><time>2012-07-27T18:01:28.0000000+00:00</time></trkpt><trkpt lat="63.93737793" lon="-21.00065994"><ele>32.3</ele><time>2012-07-27T18:01:33.0000000+00:00</time></trkpt><trkpt lat="63.93738174" lon="-21.00065994"><ele>32.3</ele><time>2012-07-27T18:01:38.0000000+00:00</time></trkpt><trkpt lat="63.93738174" lon="-21.00065994"><ele>32.3</ele><time>2012-07-27T18:01:43.0000000+00:00</time></trkpt><trkpt lat="63.93738174" lon="-21.00065994"><ele>32.2</ele><time>2012-07-27T18:01:48.0000000+00:00</time></trkpt><trkpt lat="63.93738174" lon="-21.00065804"><ele>32.2</ele><time>2012-07-27T18:01:53.0000000+00:00</time></trkpt><trkpt lat="63.93738174" lon="-21.00065804"><ele>32.2</ele><time>2012-07-27T18:01:58.0000000+00:00</time></trkpt><trkpt lat="63.93738174" lon="-21.00065804"><ele>32.2</ele><time>2012-07-27T18:02:03.0000000+00:00</time></trkpt><trkpt lat="63.93738174" lon="-21.00065804"><ele>32.2</ele><time>2012-07-27T18:02:08.0000000+00:00</time></trkpt><trkpt lat="63.93738174" lon="-21.00065804"><ele>32.2</ele><time>2012-07-27T18:02:13.0000000+00:00</time></trkpt><trkpt lat="63.93738174" lon="-21.00065804"><ele>32.2</ele><time>2012-07-27T18:02:18.0000000+00:00</time></trkpt><trkpt lat="63.93738174" lon="-21.00065804"><ele>32.2</ele><time>2012-07-27T18:02:23.0000000+00:00</time></trkpt><trkpt lat="63.93738174" lon="-21.00065804"><ele>32.2</ele><time>2012-07-27T18:02:28.0000000+00:00</time></trkpt><trkpt lat="63.93738174" lon="-21.00065613"><ele>32.2</ele><time>2012-07-27T18:02:33.0000000+00:00</time></trkpt><trkpt lat="63.93738174" lon="-21.00065613"><ele>32.2</ele><time>2012-07-27T18:02:38.0000000+00:00</time></trkpt><trkpt lat="63.93738174" lon="-21.00065613"><ele>32.2</ele><time>2012-07-27T18:02:43.0000000+00:00</time></trkpt><trkpt lat="63.93738174" lon="-21.00065613"><ele>32.3</ele><time>2012-07-27T18:02:48.0000000+00:00</time></trkpt><trkpt lat="63.93738174" lon="-21.00065613"><ele>32.3</ele><time>2012-07-27T18:02:53.0000000+00:00</time></trkpt><trkpt lat="63.93738556" lon="-21.00065613"><ele>32.3</ele><time>2012-07-27T18:02:58.0000000+00:00</time></trkpt><trkpt lat="63.93738556" lon="-21.00065613"><ele>32.3</ele><time>2012-07-27T18:03:03.0000000+00:00</time></trkpt><trkpt lat="63.93738556" lon="-21.00065422"><ele>32.3</ele><time>2012-07-27T18:03:08.0000000+00:00</time></trkpt><trkpt lat="63.93738556" lon="-21.00065422"><ele>32.3</ele><time>2012-07-27T18:03:13.0000000+00:00</time></trkpt><trkpt lat="63.93738556" lon="-21.00065422"><ele>32.3</ele><time>2012-07-27T18:03:18.0000000+00:00</time></trkpt><trkpt lat="63.93738556" lon="-21.00065422"><ele>32.3</ele><time>2012-07-27T18:03:23.0000000+00:00</time></trkpt><trkpt lat="63.93738556" lon="-21.00065422"><ele>32.4</ele><time>2012-07-27T18:03:28.0000000+00:00</time></trkpt><trkpt lat="63.93738556" lon="-21.00065422"><ele>32.4</ele><time>2012-07-27T18:03:33.0000000+00:00</time></trkpt><trkpt lat="63.93738937" lon="-21.00065422"><ele>32.4</ele><time>2012-07-27T18:03:38.0000000+00:00</time></trkpt><trkpt lat="63.93738937" lon="-21.00065422"><ele>32.4</ele><time>2012-07-27T18:03:43.0000000+00:00</time></trkpt><trkpt lat="63.93738937" lon="-21.00065422"><ele>32.5</ele><time>2012-07-27T18:03:48.0000000+00:00</time></trkpt><trkpt lat="63.93738937" lon="-21.00065422"><ele>32.5</ele><time>2012-07-27T18:03:53.0000000+00:00</time></trkpt><trkpt lat="63.93738937" lon="-21.00065422"><ele>32.5</ele><time>2012-07-27T18:03:58.0000000+00:00</time></trkpt><trkpt lat="63.93738937" lon="-21.00065422"><ele>32.5</ele><time>2012-07-27T18:04:03.0000000+00:00</time></trkpt><trkpt lat="63.93738937" lon="-21.00065422"><ele>32.5</ele><time>2012-07-27T18:04:08.0000000+00:00</time></trkpt><trkpt lat="63.93738937" lon="-21.00065422"><ele>32.5</ele><time>2012-07-27T18:04:13.0000000+00:00</time></trkpt><trkpt lat="63.93738937" lon="-21.00065422"><ele>32.6</ele><time>2012-07-27T18:04:18.0000000+00:00</time></trkpt><trkpt lat="63.93739319" lon="-21.00065422"><ele>32.6</ele><time>2012-07-27T18:04:23.0000000+00:00</time></trkpt><trkpt lat="63.93739319" lon="-21.00065422"><ele>32.6</ele><time>2012-07-27T18:04:28.0000000+00:00</time></trkpt><trkpt lat="63.93739319" lon="-21.00065422"><ele>32.6</ele><time>2012-07-27T18:04:33.0000000+00:00</time></trkpt><trkpt lat="63.93739319" lon="-21.00065231"><ele>32.6</ele><time>2012-07-27T18:04:38.0000000+00:00</time></trkpt><trkpt lat="63.93739319" lon="-21.00065231"><ele>32.6</ele><time>2012-07-27T18:04:43.0000000+00:00</time></trkpt><trkpt lat="63.93739319" lon="-21.00065231"><ele>32.7</ele><time>2012-07-27T18:04:48.0000000+00:00</time></trkpt><trkpt lat="63.93739319" lon="-21.00065231"><ele>32.7</ele><time>2012-07-27T18:04:53.0000000+00:00</time></trkpt><trkpt lat="63.93739319" lon="-21.00065231"><ele>32.7</ele><time>2012-07-27T18:04:58.0000000+00:00</time></trkpt><trkpt lat="63.93739319" lon="-21.00065231"><ele>32.7</ele><time>2012-07-27T18:05:03.0000000+00:00</time></trkpt><trkpt lat="63.93739319" lon="-21.00065231"><ele>32.7</ele><time>2012-07-27T18:05:08.0000000+00:00</time></trkpt><trkpt lat="63.93739319" lon="-21.00065422"><ele>32.7</ele><time>2012-07-27T18:05:13.0000000+00:00</time></trkpt><trkpt lat="63.93739319" lon="-21.00065422"><ele>32.7</ele><time>2012-07-27T18:05:18.0000000+00:00</time></trkpt><trkpt lat="63.937397" lon="-21.00065231"><ele>32.7</ele><time>2012-07-27T18:05:23.0000000+00:00</time></trkpt><trkpt lat="63.937397" lon="-21.00065231"><ele>32.7</ele><time>2012-07-27T18:05:28.0000000+00:00</time></trkpt><trkpt lat="63.937397" lon="-21.00065231"><ele>32.7</ele><time>2012-07-27T18:05:33.0000000+00:00</time></trkpt><trkpt lat="63.937397" lon="-21.00065231"><ele>32.7</ele><time>2012-07-27T18:05:38.0000000+00:00</time></trkpt><trkpt lat="63.937397" lon="-21.00065231"><ele>32.7</ele><time>2012-07-27T18:05:43.0000000+00:00</time></trkpt><trkpt lat="63.937397" lon="-21.00065231"><ele>32.7</ele><time>2012-07-27T18:05:48.0000000+00:00</time></trkpt><trkpt lat="63.937397" lon="-21.00065231"><ele>32.7</ele><time>2012-07-27T18:05:53.0000000+00:00</time></trkpt><trkpt lat="63.937397" lon="-21.00065231"><ele>32.7</ele><time>2012-07-27T18:05:58.0000000+00:00</time></trkpt><trkpt lat="63.937397" lon="-21.00065231"><ele>32.7</ele><time>2012-07-27T18:06:03.0000000+00:00</time></trkpt><trkpt lat="63.937397" lon="-21.00065041"><ele>32.8</ele><time>2012-07-27T18:06:08.0000000+00:00</time></trkpt><trkpt lat="63.937397" lon="-21.0006485"><ele>32.8</ele><time>2012-07-27T18:06:13.0000000+00:00</time></trkpt><trkpt lat="63.93740082" lon="-21.00065041"><ele>32.8</ele><time>2012-07-27T18:06:18.0000000+00:00</time></trkpt><trkpt lat="63.93740082" lon="-21.00065422"><ele>32.9</ele><time>2012-07-27T18:06:23.0000000+00:00</time></trkpt><trkpt lat="63.93740082" lon="-21.00065804"><ele>32.9</ele><time>2012-07-27T18:06:28.0000000+00:00</time></trkpt><trkpt lat="63.93740082" lon="-21.00066376"><ele>33.0</ele><time>2012-07-27T18:06:33.0000000+00:00</time></trkpt><trkpt lat="63.93740463" lon="-21.00066376"><ele>33.0</ele><time>2012-07-27T18:06:38.0000000+00:00</time></trkpt><trkpt lat="63.93740845" lon="-21.00066376"><ele>33.0</ele><time>2012-07-27T18:06:43.0000000+00:00</time></trkpt><trkpt lat="63.93740845" lon="-21.00066376"><ele>33.0</ele><time>2012-07-27T18:06:48.0000000+00:00</time></trkpt><trkpt lat="63.93740845" lon="-21.00066376"><ele>33.0</ele><time>2012-07-27T18:06:53.0000000+00:00</time></trkpt><trkpt lat="63.93740845" lon="-21.00066567"><ele>33.0</ele><time>2012-07-27T18:06:58.0000000+00:00</time></trkpt><trkpt lat="63.93740845" lon="-21.00066376"><ele>33.0</ele><time>2012-07-27T18:07:03.0000000+00:00</time></trkpt><trkpt lat="63.93740845" lon="-21.00066185"><ele>33.0</ele><time>2012-07-27T18:07:08.0000000+00:00</time></trkpt><trkpt lat="63.93740845" lon="-21.00065994"><ele>33.1</ele><time>2012-07-27T18:07:13.0000000+00:00</time></trkpt><trkpt lat="63.93740845" lon="-21.00065994"><ele>33.2</ele><time>2012-07-27T18:07:18.0000000+00:00</time></trkpt><trkpt lat="63.93740845" lon="-21.00065613"><ele>33.3</ele><time>2012-07-27T18:07:23.0000000+00:00</time></trkpt><trkpt lat="63.93740845" lon="-21.0006485"><ele>33.3</ele><time>2012-07-27T18:07:28.0000000+00:00</time></trkpt><trkpt lat="63.93740463" lon="-21.00063705"><ele>33.4</ele><time>2012-07-27T18:07:33.0000000+00:00</time></trkpt><trkpt lat="63.93740463" lon="-21.0006218"><ele>33.4</ele><time>2012-07-27T18:07:38.0000000+00:00</time></trkpt><trkpt lat="63.93740082" lon="-21.00061607"><ele>33.3</ele><time>2012-07-27T18:07:43.0000000+00:00</time></trkpt><trkpt lat="63.937397" lon="-21.00061607"><ele>33.2</ele><time>2012-07-27T18:07:48.0000000+00:00</time></trkpt><trkpt lat="63.937397" lon="-21.00061607"><ele>33.3</ele><time>2012-07-27T18:07:53.0000000+00:00</time></trkpt><trkpt lat="63.93740082" lon="-21.00061798"><ele>33.4</ele><time>2012-07-27T18:07:58.0000000+00:00</time></trkpt><trkpt lat="63.93740082" lon="-21.00061798"><ele>33.5</ele><time>2012-07-27T18:08:03.0000000+00:00</time></trkpt><trkpt lat="63.93740082" lon="-21.00061798"><ele>33.5</ele><time>2012-07-27T18:08:08.0000000+00:00</time></trkpt><trkpt lat="63.93740082" lon="-21.00061798"><ele>33.5</ele><time>2012-07-27T18:08:13.0000000+00:00</time></trkpt><trkpt lat="63.93740082" lon="-21.00061989"><ele>33.5</ele><time>2012-07-27T18:08:18.0000000+00:00</time></trkpt><trkpt lat="63.93740463" lon="-21.0006218"><ele>33.5</ele><time>2012-07-27T18:08:23.0000000+00:00</time></trkpt><trkpt lat="63.93740463" lon="-21.0006218"><ele>33.5</ele><time>2012-07-27T18:08:28.0000000+00:00</time></trkpt><trkpt lat="63.93740082" lon="-21.00061989"><ele>33.6</ele><time>2012-07-27T18:08:33.0000000+00:00</time></trkpt><trkpt lat="63.93740082" lon="-21.00061607"><ele>33.6</ele><time>2012-07-27T18:08:38.0000000+00:00</time></trkpt><trkpt lat="63.93740082" lon="-21.00061607"><ele>33.5</ele><time>2012-07-27T18:08:43.0000000+00:00</time></trkpt><trkpt lat="63.93740082" lon="-21.00061607"><ele>33.5</ele><time>2012-07-27T18:08:48.0000000+00:00</time></trkpt><trkpt lat="63.93740082" lon="-21.00061607"><ele>33.5</ele><time>2012-07-27T18:08:53.0000000+00:00</time></trkpt><trkpt lat="63.937397" lon="-21.00062752"><ele>33.5</ele><time>2012-07-27T18:08:58.0000000+00:00</time></trkpt><trkpt lat="63.937397" lon="-21.00062561"><ele>33.5</ele><time>2012-07-27T18:09:03.0000000+00:00</time></trkpt><trkpt lat="63.93739319" lon="-21.00063324"><ele>32.0</ele><time>2012-07-27T18:09:08.0000000+00:00</time></trkpt><trkpt lat="63.93737793" lon="-21.00064278"><ele>28.6</ele><time>2012-07-27T18:09:13.0000000+00:00</time></trkpt><trkpt lat="63.9373436" lon="-21.00073624"><ele>27.4</ele><time>2012-07-27T18:09:18.0000000+00:00</time></trkpt><trkpt lat="63.9373436" lon="-21.00089264"><ele>25.5</ele><time>2012-07-27T18:09:23.0000000+00:00</time></trkpt><trkpt lat="63.93734741" lon="-21.00112724"><ele>25.1</ele><time>2012-07-27T18:09:28.0000000+00:00</time></trkpt><trkpt lat="63.93736649" lon="-21.00138855"><ele>25.6</ele><time>2012-07-27T18:09:33.0000000+00:00</time></trkpt><trkpt lat="63.93738556" lon="-21.0015831"><ele>24.9</ele><time>2012-07-27T18:09:38.0000000+00:00</time></trkpt><trkpt lat="63.93740082" lon="-21.00181007"><ele>22.8</ele><time>2012-07-27T18:09:43.0000000+00:00</time></trkpt><trkpt lat="63.93741226" lon="-21.00208855"><ele>22.9</ele><time>2012-07-27T18:09:48.0000000+00:00</time></trkpt><trkpt lat="63.93742752" lon="-21.00234985"><ele>22.9</ele><time>2012-07-27T18:09:53.0000000+00:00</time></trkpt><trkpt lat="63.93743897" lon="-21.00260925"><ele>23.4</ele><time>2012-07-27T18:09:58.0000000+00:00</time></trkpt><trkpt lat="63.93745422" lon="-21.00274468"><ele>23.1</ele><time>2012-07-27T18:10:03.0000000+00:00</time></trkpt><trkpt lat="63.93741608" lon="-21.00277138"><ele>22.8</ele><time>2012-07-27T18:10:08.0000000+00:00</time></trkpt><trkpt lat="63.93735886" lon="-21.0028019"><ele>22.1</ele><time>2012-07-27T18:10:13.0000000+00:00</time></trkpt><trkpt lat="63.93728256" lon="-21.00270653"><ele>22.3</ele><time>2012-07-27T18:10:18.0000000+00:00</time></trkpt><trkpt lat="63.9372673" lon="-21.00242615"><ele>22.4</ele><time>2012-07-27T18:10:23.0000000+00:00</time></trkpt><trkpt lat="63.9372406" lon="-21.00219345"><ele>21.7</ele><time>2012-07-27T18:10:28.0000000+00:00</time></trkpt><trkpt lat="63.93722153" lon="-21.00201225"><ele>21.9</ele><time>2012-07-27T18:10:33.0000000+00:00</time></trkpt><trkpt lat="63.9372139" lon="-21.00197411"><ele>22.7</ele><time>2012-07-27T18:10:38.0000000+00:00</time></trkpt><trkpt lat="63.93720627" lon="-21.00196266"><ele>22.8</ele><time>2012-07-27T18:10:43.0000000+00:00</time></trkpt><trkpt lat="63.93720627" lon="-21.00196266"><ele>22.7</ele><time>2012-07-27T18:10:48.0000000+00:00</time></trkpt><trkpt lat="63.93720627" lon="-21.00196266"><ele>22.7</ele><time>2012-07-27T18:10:53.0000000+00:00</time></trkpt><trkpt lat="63.93720627" lon="-21.00196266"><ele>22.7</ele><time>2012-07-27T18:10:58.0000000+00:00</time></trkpt><trkpt lat="63.93720627" lon="-21.00196266"><ele>22.7</ele><time>2012-07-27T18:11:03.0000000+00:00</time></trkpt><trkpt lat="63.93720627" lon="-21.00196266"><ele>22.7</ele><time>2012-07-27T18:11:08.0000000+00:00</time></trkpt><trkpt lat="63.93720627" lon="-21.00196075"><ele>22.7</ele><time>2012-07-27T18:11:13.0000000+00:00</time></trkpt><trkpt lat="63.93719482" lon="-21.00188446"><ele>22.0</ele><time>2012-07-27T18:11:18.0000000+00:00</time></trkpt><trkpt lat="63.93716049" lon="-21.00167465"><ele>19.8</ele><time>2012-07-27T18:11:23.0000000+00:00</time></trkpt><trkpt lat="63.93716431" lon="-21.00156212"><ele>17.6</ele><time>2012-07-27T18:11:28.0000000+00:00</time></trkpt><trkpt lat="63.93718338" lon="-21.00154877"><ele>18.2</ele><time>2012-07-27T18:11:33.0000000+00:00</time></trkpt><trkpt lat="63.93718338" lon="-21.00155067"><ele>18.0</ele><time>2012-07-27T18:11:38.0000000+00:00</time></trkpt><trkpt lat="63.93718338" lon="-21.00155067"><ele>17.8</ele><time>2012-07-27T18:11:43.0000000+00:00</time></trkpt><trkpt lat="63.93719864" lon="-21.0015564"><ele>17.6</ele><time>2012-07-27T18:11:48.0000000+00:00</time></trkpt><trkpt lat="63.93727112" lon="-21.00156212"><ele>17.2</ele><time>2012-07-27T18:11:53.0000000+00:00</time></trkpt><trkpt lat="63.93733215" lon="-21.00181007"><ele>17.4</ele><time>2012-07-27T18:11:58.0000000+00:00</time></trkpt><trkpt lat="63.93735886" lon="-21.00219727"><ele>17.8</ele><time>2012-07-27T18:12:03.0000000+00:00</time></trkpt><trkpt lat="63.93738556" lon="-21.00254631"><ele>17.8</ele><time>2012-07-27T18:12:08.0000000+00:00</time></trkpt><trkpt lat="63.93742371" lon="-21.00291252"><ele>19.2</ele><time>2012-07-27T18:12:13.0000000+00:00</time></trkpt><trkpt lat="63.9375" lon="-21.00327873"><ele>19.4</ele><time>2012-07-27T18:12:18.0000000+00:00</time></trkpt><trkpt lat="63.93759537" lon="-21.00349045"><ele>18.9</ele><time>2012-07-27T18:12:23.0000000+00:00</time></trkpt><trkpt lat="63.93759155" lon="-21.00383377"><ele>18.8</ele><time>2012-07-27T18:12:28.0000000+00:00</time></trkpt><trkpt lat="63.93744278" lon="-21.00409699"><ele>19.1</ele><time>2012-07-27T18:12:33.0000000+00:00</time></trkpt><trkpt lat="63.93729401" lon="-21.00440025"><ele>18.9</ele><time>2012-07-27T18:12:38.0000000+00:00</time></trkpt><trkpt lat="63.93715286" lon="-21.00476646"><ele>19.2</ele><time>2012-07-27T18:12:43.0000000+00:00</time></trkpt><trkpt lat="63.93703079" lon="-21.00514603"><ele>18.7</ele><time>2012-07-27T18:12:48.0000000+00:00</time></trkpt><trkpt lat="63.9369278" lon="-21.00544739"><ele>18.7</ele><time>2012-07-27T18:12:53.0000000+00:00</time></trkpt><trkpt lat="63.93684769" lon="-21.00564957"><ele>18.3</ele><time>2012-07-27T18:12:58.0000000+00:00</time></trkpt><trkpt lat="63.93679047" lon="-21.00580788"><ele>17.7</ele><time>2012-07-27T18:13:03.0000000+00:00</time></trkpt><trkpt lat="63.93671417" lon="-21.00602913"><ele>18.3</ele><time>2012-07-27T18:13:08.0000000+00:00</time></trkpt><trkpt lat="63.93660736" lon="-21.00627518"><ele>18.9</ele><time>2012-07-27T18:13:13.0000000+00:00</time></trkpt><trkpt lat="63.93648911" lon="-21.00647354"><ele>20.2</ele><time>2012-07-27T18:13:18.0000000+00:00</time></trkpt><trkpt lat="63.93636704" lon="-21.00666618"><ele>20.8</ele><time>2012-07-27T18:13:23.0000000+00:00</time></trkpt><trkpt lat="63.93626785" lon="-21.00692177"><ele>21.1</ele><time>2012-07-27T18:13:28.0000000+00:00</time></trkpt><trkpt lat="63.93621063" lon="-21.00706673"><ele>21.5</ele><time>2012-07-27T18:13:33.0000000+00:00</time></trkpt><trkpt lat="63.93621826" lon="-21.00706482"><ele>21.5</ele><time>2012-07-27T18:13:38.0000000+00:00</time></trkpt><trkpt lat="63.93622208" lon="-21.00706673"><ele>21.4</ele><time>2012-07-27T18:13:43.0000000+00:00</time></trkpt><trkpt lat="63.93622208" lon="-21.00706863"><ele>21.4</ele><time>2012-07-27T18:13:48.0000000+00:00</time></trkpt><trkpt lat="63.93622208" lon="-21.00706863"><ele>21.4</ele><time>2012-07-27T18:13:53.0000000+00:00</time></trkpt><trkpt lat="63.93622208" lon="-21.00706863"><ele>21.4</ele><time>2012-07-27T18:13:58.0000000+00:00</time></trkpt><trkpt lat="63.93622208" lon="-21.00706673"><ele>21.4</ele><time>2012-07-27T18:14:03.0000000+00:00</time></trkpt><trkpt lat="63.93622208" lon="-21.00706673"><ele>21.4</ele><time>2012-07-27T18:14:08.0000000+00:00</time></trkpt><trkpt lat="63.93622208" lon="-21.00706673"><ele>21.4</ele><time>2012-07-27T18:14:13.0000000+00:00</time></trkpt><trkpt lat="63.93622208" lon="-21.00706673"><ele>21.3</ele><time>2012-07-27T18:14:18.0000000+00:00</time></trkpt><trkpt lat="63.93622208" lon="-21.00706863"><ele>21.3</ele><time>2012-07-27T18:14:23.0000000+00:00</time></trkpt><trkpt lat="63.9361763" lon="-21.00716591"><ele>21.4</ele><time>2012-07-27T18:14:28.0000000+00:00</time></trkpt><trkpt lat="63.93606186" lon="-21.00742531"><ele>21.5</ele><time>2012-07-27T18:14:33.0000000+00:00</time></trkpt><trkpt lat="63.9359169" lon="-21.00772095"><ele>21.2</ele><time>2012-07-27T18:14:38.0000000+00:00</time></trkpt><trkpt lat="63.93576813" lon="-21.00805283"><ele>21.1</ele><time>2012-07-27T18:14:43.0000000+00:00</time></trkpt><trkpt lat="63.93561554" lon="-21.00837135"><ele>21.3</ele><time>2012-07-27T18:14:48.0000000+00:00</time></trkpt><trkpt lat="63.93545914" lon="-21.00871086"><ele>21.2</ele><time>2012-07-27T18:14:53.0000000+00:00</time></trkpt><trkpt lat="63.93531036" lon="-21.00901032"><ele>21.3</ele><time>2012-07-27T18:14:58.0000000+00:00</time></trkpt><trkpt lat="63.93516159" lon="-21.00934029"><ele>21.3</ele><time>2012-07-27T18:15:03.0000000+00:00</time></trkpt><trkpt lat="63.93503571" lon="-21.00964546"><ele>21.1</ele><time>2012-07-27T18:15:08.0000000+00:00</time></trkpt><trkpt lat="63.93492889" lon="-21.00999069"><ele>20.5</ele><time>2012-07-27T18:15:13.0000000+00:00</time></trkpt><trkpt lat="63.93484497" lon="-21.01023102"><ele>20.8</ele><time>2012-07-27T18:15:18.0000000+00:00</time></trkpt><trkpt lat="63.93476105" lon="-21.01046181"><ele>21.5</ele><time>2012-07-27T18:15:23.0000000+00:00</time></trkpt><trkpt lat="63.93468475" lon="-21.01070404"><ele>22.2</ele><time>2012-07-27T18:15:28.0000000+00:00</time></trkpt><trkpt lat="63.9345932" lon="-21.01089287"><ele>22.3</ele><time>2012-07-27T18:15:33.0000000+00:00</time></trkpt><trkpt lat="63.93446732" lon="-21.01116943"><ele>21.1</ele><time>2012-07-27T18:15:38.0000000+00:00</time></trkpt><trkpt lat="63.93436813" lon="-21.01156044"><ele>20.7</ele><time>2012-07-27T18:15:43.0000000+00:00</time></trkpt><trkpt lat="63.9342308" lon="-21.01182938"><ele>20.9</ele><time>2012-07-27T18:15:48.0000000+00:00</time></trkpt><trkpt lat="63.93408203" lon="-21.01202965"><ele>20.4</ele><time>2012-07-27T18:15:53.0000000+00:00</time></trkpt><trkpt lat="63.93396378" lon="-21.01224899"><ele>19.8</ele><time>2012-07-27T18:15:58.0000000+00:00</time></trkpt><trkpt lat="63.93383408" lon="-21.01247025"><ele>19.3</ele><time>2012-07-27T18:16:03.0000000+00:00</time></trkpt><trkpt lat="63.93368912" lon="-21.01274872"><ele>18.9</ele><time>2012-07-27T18:16:08.0000000+00:00</time></trkpt><trkpt lat="63.93353272" lon="-21.01305389"><ele>18.5</ele><time>2012-07-27T18:16:13.0000000+00:00</time></trkpt><trkpt lat="63.93338013" lon="-21.01336861"><ele>18.3</ele><time>2012-07-27T18:16:18.0000000+00:00</time></trkpt><trkpt lat="63.93322754" lon="-21.01371956"><ele>19.0</ele><time>2012-07-27T18:16:23.0000000+00:00</time></trkpt><trkpt lat="63.93306351" lon="-21.01407242"><ele>18.9</ele><time>2012-07-27T18:16:28.0000000+00:00</time></trkpt><trkpt lat="63.93289566" lon="-21.01446533"><ele>19.0</ele><time>2012-07-27T18:16:33.0000000+00:00</time></trkpt><trkpt lat="63.93273544" lon="-21.01480484"><ele>19.3</ele><time>2012-07-27T18:16:38.0000000+00:00</time></trkpt><trkpt lat="63.9325676" lon="-21.01516914"><ele>19.0</ele><time>2012-07-27T18:16:43.0000000+00:00</time></trkpt><trkpt lat="63.93238831" lon="-21.01557732"><ele>19.0</ele><time>2012-07-27T18:16:48.0000000+00:00</time></trkpt><trkpt lat="63.93219376" lon="-21.01599693"><ele>19.1</ele><time>2012-07-27T18:16:53.0000000+00:00</time></trkpt><trkpt lat="63.93201447" lon="-21.01638794"><ele>19.5</ele><time>2012-07-27T18:16:58.0000000+00:00</time></trkpt><trkpt lat="63.93191147" lon="-21.01676178"><ele>17.2</ele><time>2012-07-27T18:17:03.0000000+00:00</time></trkpt><trkpt lat="63.93183136" lon="-21.01701927"><ele>17.0</ele><time>2012-07-27T18:17:08.0000000+00:00</time></trkpt><trkpt lat="63.93183899" lon="-21.01701164"><ele>17.1</ele><time>2012-07-27T18:17:13.0000000+00:00</time></trkpt><trkpt lat="63.93183899" lon="-21.01701164"><ele>16.9</ele><time>2012-07-27T18:17:18.0000000+00:00</time></trkpt><trkpt lat="63.93183899" lon="-21.01701164"><ele>16.9</ele><time>2012-07-27T18:17:23.0000000+00:00</time></trkpt><trkpt lat="63.93183899" lon="-21.01701164"><ele>16.8</ele><time>2012-07-27T18:17:28.0000000+00:00</time></trkpt><trkpt lat="63.93183518" lon="-21.01701737"><ele>16.9</ele><time>2012-07-27T18:17:33.0000000+00:00</time></trkpt><trkpt lat="63.93174744" lon="-21.01720047"><ele>16.8</ele><time>2012-07-27T18:17:38.0000000+00:00</time></trkpt><trkpt lat="63.93160629" lon="-21.0174942"><ele>16.6</ele><time>2012-07-27T18:17:43.0000000+00:00</time></trkpt><trkpt lat="63.93145752" lon="-21.01782799"><ele>16.7</ele><time>2012-07-27T18:17:48.0000000+00:00</time></trkpt><trkpt lat="63.93128967" lon="-21.01817513"><ele>16.5</ele><time>2012-07-27T18:17:53.0000000+00:00</time></trkpt><trkpt lat="63.9311409" lon="-21.01850319"><ele>16.7</ele><time>2012-07-27T18:17:58.0000000+00:00</time></trkpt><trkpt lat="63.93096924" lon="-21.01874542"><ele>16.0</ele><time>2012-07-27T18:18:03.0000000+00:00</time></trkpt><trkpt lat="63.93086624" lon="-21.01895523"><ele>16.0</ele><time>2012-07-27T18:18:08.0000000+00:00</time></trkpt><trkpt lat="63.93075562" lon="-21.01916504"><ele>15.5</ele><time>2012-07-27T18:18:13.0000000+00:00</time></trkpt><trkpt lat="63.93063355" lon="-21.01940346"><ele>15.3</ele><time>2012-07-27T18:18:18.0000000+00:00</time></trkpt><trkpt lat="63.93051148" lon="-21.01963615"><ele>15.3</ele><time>2012-07-27T18:18:23.0000000+00:00</time></trkpt><trkpt lat="63.93038559" lon="-21.01986885"><ele>14.9</ele><time>2012-07-27T18:18:28.0000000+00:00</time></trkpt><trkpt lat="63.930233" lon="-21.02011108"><ele>15.2</ele><time>2012-07-27T18:18:33.0000000+00:00</time></trkpt><trkpt lat="63.93008804" lon="-21.02038765"><ele>14.8</ele><time>2012-07-27T18:18:38.0000000+00:00</time></trkpt><trkpt lat="63.92994309" lon="-21.02066612"><ele>13.6</ele><time>2012-07-27T18:18:43.0000000+00:00</time></trkpt><trkpt lat="63.92978287" lon="-21.02093887"><ele>13.0</ele><time>2012-07-27T18:18:48.0000000+00:00</time></trkpt><trkpt lat="63.92963028" lon="-21.02122688"><ele>12.8</ele><time>2012-07-27T18:18:53.0000000+00:00</time></trkpt><trkpt lat="63.92946625" lon="-21.02148056"><ele>12.7</ele><time>2012-07-27T18:18:58.0000000+00:00</time></trkpt><trkpt lat="63.92930603" lon="-21.02175903"><ele>12.7</ele><time>2012-07-27T18:19:03.0000000+00:00</time></trkpt><trkpt lat="63.92913437" lon="-21.02196312"><ele>12.3</ele><time>2012-07-27T18:19:08.0000000+00:00</time></trkpt><trkpt lat="63.92896271" lon="-21.02226257"><ele>12.6</ele><time>2012-07-27T18:19:13.0000000+00:00</time></trkpt><trkpt lat="63.92874527" lon="-21.02260017"><ele>12.6</ele><time>2012-07-27T18:19:18.0000000+00:00</time></trkpt><trkpt lat="63.92850876" lon="-21.02296829"><ele>12.9</ele><time>2012-07-27T18:19:23.0000000+00:00</time></trkpt><trkpt lat="63.92825699" lon="-21.02337456"><ele>13.1</ele><time>2012-07-27T18:19:28.0000000+00:00</time></trkpt><trkpt lat="63.92801666" lon="-21.02378082"><ele>13.1</ele><time>2012-07-27T18:19:33.0000000+00:00</time></trkpt><trkpt lat="63.92779541" lon="-21.02414322"><ele>13.2</ele><time>2012-07-27T18:19:38.0000000+00:00</time></trkpt><trkpt lat="63.92757416" lon="-21.02451325"><ele>13.0</ele><time>2012-07-27T18:19:43.0000000+00:00</time></trkpt><trkpt lat="63.92736816" lon="-21.02485275"><ele>13.0</ele><time>2012-07-27T18:19:48.0000000+00:00</time></trkpt><trkpt lat="63.92716217" lon="-21.02520371"><ele>13.1</ele><time>2012-07-27T18:19:53.0000000+00:00</time></trkpt><trkpt lat="63.92691803" lon="-21.02560043"><ele>12.9</ele><time>2012-07-27T18:19:58.0000000+00:00</time></trkpt><trkpt lat="63.92664719" lon="-21.02605057"><ele>13.0</ele><time>2012-07-27T18:20:03.0000000+00:00</time></trkpt><trkpt lat="63.92636871" lon="-21.02655029"><ele>12.9</ele><time>2012-07-27T18:20:08.0000000+00:00</time></trkpt><trkpt lat="63.92611313" lon="-21.02701759"><ele>12.7</ele><time>2012-07-27T18:20:13.0000000+00:00</time></trkpt><trkpt lat="63.9258728" lon="-21.02746582"><ele>13.0</ele><time>2012-07-27T18:20:18.0000000+00:00</time></trkpt><trkpt lat="63.92562866" lon="-21.02792168"><ele>13.3</ele><time>2012-07-27T18:20:23.0000000+00:00</time></trkpt><trkpt lat="63.92537308" lon="-21.02840424"><ele>13.3</ele><time>2012-07-27T18:20:28.0000000+00:00</time></trkpt><trkpt lat="63.92514038" lon="-21.02885437"><ele>13.4</ele><time>2012-07-27T18:20:33.0000000+00:00</time></trkpt><trkpt lat="63.92490006" lon="-21.02929497"><ele>13.9</ele><time>2012-07-27T18:20:38.0000000+00:00</time></trkpt><trkpt lat="63.92464066" lon="-21.0297432"><ele>14.5</ele><time>2012-07-27T18:20:43.0000000+00:00</time></trkpt><trkpt lat="63.92436981" lon="-21.03019714"><ele>14.6</ele><time>2012-07-27T18:20:48.0000000+00:00</time></trkpt><trkpt lat="63.92411041" lon="-21.03062439"><ele>15.1</ele><time>2012-07-27T18:20:53.0000000+00:00</time></trkpt><trkpt lat="63.9238205" lon="-21.03111076"><ele>15.5</ele><time>2012-07-27T18:20:58.0000000+00:00</time></trkpt><trkpt lat="63.92353439" lon="-21.03160477"><ele>15.5</ele><time>2012-07-27T18:21:03.0000000+00:00</time></trkpt><trkpt lat="63.92324448" lon="-21.03210259"><ele>15.8</ele><time>2012-07-27T18:21:08.0000000+00:00</time></trkpt><trkpt lat="63.92295075" lon="-21.03260803"><ele>16.4</ele><time>2012-07-27T18:21:13.0000000+00:00</time></trkpt><trkpt lat="63.9226532" lon="-21.03311157"><ele>16.3</ele><time>2012-07-27T18:21:18.0000000+00:00</time></trkpt><trkpt lat="63.92235565" lon="-21.03360939"><ele>16.4</ele><time>2012-07-27T18:21:23.0000000+00:00</time></trkpt><trkpt lat="63.92205048" lon="-21.03411293"><ele>16.5</ele><time>2012-07-27T18:21:28.0000000+00:00</time></trkpt><trkpt lat="63.92175293" lon="-21.03462029"><ele>16.5</ele><time>2012-07-27T18:21:33.0000000+00:00</time></trkpt><trkpt lat="63.92145157" lon="-21.03512383"><ele>15.9</ele><time>2012-07-27T18:21:38.0000000+00:00</time></trkpt><trkpt lat="63.9211731" lon="-21.03559876"><ele>15.9</ele><time>2012-07-27T18:21:43.0000000+00:00</time></trkpt><trkpt lat="63.92092896" lon="-21.03601646"><ele>15.9</ele><time>2012-07-27T18:21:48.0000000+00:00</time></trkpt><trkpt lat="63.92067719" lon="-21.03642654"><ele>15.9</ele><time>2012-07-27T18:21:53.0000000+00:00</time></trkpt><trkpt lat="63.92042542" lon="-21.03685188"><ele>15.9</ele><time>2012-07-27T18:21:58.0000000+00:00</time></trkpt><trkpt lat="63.92021561" lon="-21.03722572"><ele>15.5</ele><time>2012-07-27T18:22:03.0000000+00:00</time></trkpt><trkpt lat="63.92003632" lon="-21.03754997"><ele>15.5</ele><time>2012-07-27T18:22:08.0000000+00:00</time></trkpt><trkpt lat="63.9198494" lon="-21.03784752"><ele>15.2</ele><time>2012-07-27T18:22:13.0000000+00:00</time></trkpt><trkpt lat="63.91962814" lon="-21.03823471"><ele>15.4</ele><time>2012-07-27T18:22:18.0000000+00:00</time></trkpt><trkpt lat="63.91937256" lon="-21.03865051"><ele>15.4</ele><time>2012-07-27T18:22:23.0000000+00:00</time></trkpt><trkpt lat="63.91910553" lon="-21.03909493"><ele>15.0</ele><time>2012-07-27T18:22:28.0000000+00:00</time></trkpt><trkpt lat="63.91883087" lon="-21.03957176"><ele>14.7</ele><time>2012-07-27T18:22:33.0000000+00:00</time></trkpt><trkpt lat="63.9185524" lon="-21.04004288"><ele>14.7</ele><time>2012-07-27T18:22:38.0000000+00:00</time></trkpt><trkpt lat="63.91828919" lon="-21.04050636"><ele>14.4</ele><time>2012-07-27T18:22:43.0000000+00:00</time></trkpt><trkpt lat="63.91804123" lon="-21.04094505"><ele>14.4</ele><time>2012-07-27T18:22:48.0000000+00:00</time></trkpt><trkpt lat="63.91778565" lon="-21.04144478"><ele>14.4</ele><time>2012-07-27T18:22:53.0000000+00:00</time></trkpt><trkpt lat="63.91752625" lon="-21.04194641"><ele>14.2</ele><time>2012-07-27T18:22:58.0000000+00:00</time></trkpt><trkpt lat="63.91727448" lon="-21.04246712"><ele>13.7</ele><time>2012-07-27T18:23:03.0000000+00:00</time></trkpt><trkpt lat="63.91700745" lon="-21.04301071"><ele>13.6</ele><time>2012-07-27T18:23:08.0000000+00:00</time></trkpt><trkpt lat="63.91673279" lon="-21.0435524"><ele>13.1</ele><time>2012-07-27T18:23:13.0000000+00:00</time></trkpt><trkpt lat="63.91646195" lon="-21.04410934"><ele>12.8</ele><time>2012-07-27T18:23:18.0000000+00:00</time></trkpt><trkpt lat="63.91617966" lon="-21.04466057"><ele>12.6</ele><time>2012-07-27T18:23:23.0000000+00:00</time></trkpt><trkpt lat="63.91591644" lon="-21.04517365"><ele>12.1</ele><time>2012-07-27T18:23:28.0000000+00:00</time></trkpt><trkpt lat="63.91565323" lon="-21.04568291"><ele>11.6</ele><time>2012-07-27T18:23:33.0000000+00:00</time></trkpt><trkpt lat="63.91538239" lon="-21.0461998"><ele>11.3</ele><time>2012-07-27T18:23:38.0000000+00:00</time></trkpt><trkpt lat="63.9151268" lon="-21.04670525"><ele>11.1</ele><time>2012-07-27T18:23:43.0000000+00:00</time></trkpt><trkpt lat="63.9148674" lon="-21.04718971"><ele>10.7</ele><time>2012-07-27T18:23:48.0000000+00:00</time></trkpt><trkpt lat="63.91461563" lon="-21.04767609"><ele>10.6</ele><time>2012-07-27T18:23:53.0000000+00:00</time></trkpt><trkpt lat="63.91436005" lon="-21.04815865"><ele>10.7</ele><time>2012-07-27T18:23:58.0000000+00:00</time></trkpt><trkpt lat="63.91410828" lon="-21.04864121"><ele>11.2</ele><time>2012-07-27T18:24:03.0000000+00:00</time></trkpt><trkpt lat="63.91385269" lon="-21.04912949"><ele>11.3</ele><time>2012-07-27T18:24:08.0000000+00:00</time></trkpt><trkpt lat="63.91361618" lon="-21.04957771"><ele>11.4</ele><time>2012-07-27T18:24:13.0000000+00:00</time></trkpt><trkpt lat="63.91336441" lon="-21.05006027"><ele>11.4</ele><time>2012-07-27T18:24:18.0000000+00:00</time></trkpt><trkpt lat="63.91312408" lon="-21.0505085"><ele>10.9</ele><time>2012-07-27T18:24:23.0000000+00:00</time></trkpt><trkpt lat="63.91287613" lon="-21.05098343"><ele>11.0</ele><time>2012-07-27T18:24:28.0000000+00:00</time></trkpt><trkpt lat="63.91261292" lon="-21.05148506"><ele>10.8</ele><time>2012-07-27T18:24:33.0000000+00:00</time></trkpt><trkpt lat="63.9123497" lon="-21.05199051"><ele>11.0</ele><time>2012-07-27T18:24:38.0000000+00:00</time></trkpt><trkpt lat="63.91209412" lon="-21.05247879"><ele>11.2</ele><time>2012-07-27T18:24:43.0000000+00:00</time></trkpt><trkpt lat="63.91187286" lon="-21.05291557"><ele>11.5</ele><time>2012-07-27T18:24:48.0000000+00:00</time></trkpt><trkpt lat="63.91163254" lon="-21.05336762"><ele>11.6</ele><time>2012-07-27T18:24:53.0000000+00:00</time></trkpt><trkpt lat="63.9113884" lon="-21.05383873"><ele>12.0</ele><time>2012-07-27T18:24:58.0000000+00:00</time></trkpt><trkpt lat="63.91113663" lon="-21.05432129"><ele>11.8</ele><time>2012-07-27T18:25:03.0000000+00:00</time></trkpt><trkpt lat="63.91087723" lon="-21.05480003"><ele>11.3</ele><time>2012-07-27T18:25:08.0000000+00:00</time></trkpt><trkpt lat="63.91061401" lon="-21.05531883"><ele>10.9</ele><time>2012-07-27T18:25:13.0000000+00:00</time></trkpt><trkpt lat="63.91034317" lon="-21.05584145"><ele>10.8</ele><time>2012-07-27T18:25:18.0000000+00:00</time></trkpt><trkpt lat="63.91006851" lon="-21.05636406"><ele>10.8</ele><time>2012-07-27T18:25:23.0000000+00:00</time></trkpt><trkpt lat="63.90978241" lon="-21.05690193"><ele>11.1</ele><time>2012-07-27T18:25:28.0000000+00:00</time></trkpt><trkpt lat="63.90950775" lon="-21.05744553"><ele>11.5</ele><time>2012-07-27T18:25:33.0000000+00:00</time></trkpt><trkpt lat="63.90922546" lon="-21.05797768"><ele>11.2</ele><time>2012-07-27T18:25:38.0000000+00:00</time></trkpt><trkpt lat="63.90896606" lon="-21.05849648"><ele>10.9</ele><time>2012-07-27T18:25:43.0000000+00:00</time></trkpt><trkpt lat="63.90871048" lon="-21.05897141"><ele>10.6</ele><time>2012-07-27T18:25:48.0000000+00:00</time></trkpt><trkpt lat="63.9084549" lon="-21.05945015"><ele>10.8</ele><time>2012-07-27T18:25:53.0000000+00:00</time></trkpt><trkpt lat="63.90819931" lon="-21.05993462"><ele>10.8</ele><time>2012-07-27T18:25:58.0000000+00:00</time></trkpt><trkpt lat="63.9079361" lon="-21.06041145"><ele>10.9</ele><time>2012-07-27T18:26:03.0000000+00:00</time></trkpt><trkpt lat="63.90769196" lon="-21.06089973"><ele>11.0</ele><time>2012-07-27T18:26:08.0000000+00:00</time></trkpt><trkpt lat="63.90745926" lon="-21.06134415"><ele>10.7</ele><time>2012-07-27T18:26:13.0000000+00:00</time></trkpt><trkpt lat="63.9072113" lon="-21.06180191"><ele>10.8</ele><time>2012-07-27T18:26:18.0000000+00:00</time></trkpt><trkpt lat="63.90697861" lon="-21.06226349"><ele>11.1</ele><time>2012-07-27T18:26:23.0000000+00:00</time></trkpt><trkpt lat="63.9067688" lon="-21.06267357"><ele>11.1</ele><time>2012-07-27T18:26:28.0000000+00:00</time></trkpt><trkpt lat="63.9065361" lon="-21.06309128"><ele>11.6</ele><time>2012-07-27T18:26:33.0000000+00:00</time></trkpt><trkpt lat="63.90628433" lon="-21.06350899"><ele>12.1</ele><time>2012-07-27T18:26:38.0000000+00:00</time></trkpt><trkpt lat="63.90605164" lon="-21.0638752"><ele>12.6</ele><time>2012-07-27T18:26:43.0000000+00:00</time></trkpt><trkpt lat="63.90581894" lon="-21.06419563"><ele>13.1</ele><time>2012-07-27T18:26:48.0000000+00:00</time></trkpt><trkpt lat="63.9055481" lon="-21.06451035"><ele>13.1</ele><time>2012-07-27T18:26:53.0000000+00:00</time></trkpt><trkpt lat="63.90525818" lon="-21.06480217"><ele>13.0</ele><time>2012-07-27T18:26:58.0000000+00:00</time></trkpt><trkpt lat="63.90494919" lon="-21.06511498"><ele>12.8</ele><time>2012-07-27T18:27:03.0000000+00:00</time></trkpt><trkpt lat="63.90462875" lon="-21.06545258"><ele>12.7</ele><time>2012-07-27T18:27:08.0000000+00:00</time></trkpt><trkpt lat="63.90428925" lon="-21.06579208"><ele>12.6</ele><time>2012-07-27T18:27:13.0000000+00:00</time></trkpt><trkpt lat="63.90394592" lon="-21.06614494"><ele>12.7</ele><time>2012-07-27T18:27:18.0000000+00:00</time></trkpt><trkpt lat="63.9036026" lon="-21.06650353"><ele>12.7</ele><time>2012-07-27T18:27:23.0000000+00:00</time></trkpt><trkpt lat="63.90325546" lon="-21.06685829"><ele>12.8</ele><time>2012-07-27T18:27:28.0000000+00:00</time></trkpt><trkpt lat="63.90290451" lon="-21.06722832"><ele>13.0</ele><time>2012-07-27T18:27:33.0000000+00:00</time></trkpt><trkpt lat="63.90255356" lon="-21.0675869"><ele>13.2</ele><time>2012-07-27T18:27:38.0000000+00:00</time></trkpt><trkpt lat="63.90220261" lon="-21.0679493"><ele>13.1</ele><time>2012-07-27T18:27:43.0000000+00:00</time></trkpt><trkpt lat="63.9018631" lon="-21.0682888"><ele>13.3</ele><time>2012-07-27T18:27:48.0000000+00:00</time></trkpt><trkpt lat="63.90156174" lon="-21.06859779"><ele>14.3</ele><time>2012-07-27T18:27:53.0000000+00:00</time></trkpt><trkpt lat="63.90125275" lon="-21.06888962"><ele>13.6</ele><time>2012-07-27T18:27:58.0000000+00:00</time></trkpt><trkpt lat="63.90093231" lon="-21.0692215"><ele>13.5</ele><time>2012-07-27T18:28:03.0000000+00:00</time></trkpt><trkpt lat="63.90060425" lon="-21.0695591"><ele>13.9</ele><time>2012-07-27T18:28:08.0000000+00:00</time></trkpt><trkpt lat="63.90026093" lon="-21.06989861"><ele>14.0</ele><time>2012-07-27T18:28:13.0000000+00:00</time></trkpt><trkpt lat="63.89992523" lon="-21.0702343"><ele>14.6</ele><time>2012-07-27T18:28:18.0000000+00:00</time></trkpt><trkpt lat="63.89958572" lon="-21.07058716"><ele>14.5</ele><time>2012-07-27T18:28:23.0000000+00:00</time></trkpt><trkpt lat="63.89929199" lon="-21.0709095"><ele>14.4</ele><time>2012-07-27T18:28:28.0000000+00:00</time></trkpt><trkpt lat="63.89904404" lon="-21.07116127"><ele>14.3</ele><time>2012-07-27T18:28:33.0000000+00:00</time></trkpt><trkpt lat="63.8988266" lon="-21.07138443"><ele>14.4</ele><time>2012-07-27T18:28:38.0000000+00:00</time></trkpt><trkpt lat="63.89862061" lon="-21.07159805"><ele>12.3</ele><time>2012-07-27T18:28:43.0000000+00:00</time></trkpt><trkpt lat="63.89837647" lon="-21.07183838"><ele>12.0</ele><time>2012-07-27T18:28:48.0000000+00:00</time></trkpt><trkpt lat="63.89809036" lon="-21.07210541"><ele>11.7</ele><time>2012-07-27T18:28:53.0000000+00:00</time></trkpt><trkpt lat="63.89780808" lon="-21.07235909"><ele>11.9</ele><time>2012-07-27T18:28:58.0000000+00:00</time></trkpt><trkpt lat="63.89755249" lon="-21.07258415"><ele>11.2</ele><time>2012-07-27T18:29:03.0000000+00:00</time></trkpt><trkpt lat="63.89728928" lon="-21.0728035"><ele>10.8</ele><time>2012-07-27T18:29:08.0000000+00:00</time></trkpt><trkpt lat="63.8970108" lon="-21.07302856"><ele>10.6</ele><time>2012-07-27T18:29:13.0000000+00:00</time></trkpt><trkpt lat="63.89670181" lon="-21.07326698"><ele>9.9</ele><time>2012-07-27T18:29:18.0000000+00:00</time></trkpt><trkpt lat="63.89638519" lon="-21.07352448"><ele>9.7</ele><time>2012-07-27T18:29:23.0000000+00:00</time></trkpt><trkpt lat="63.89608765" lon="-21.07375908"><ele>9.7</ele><time>2012-07-27T18:29:28.0000000+00:00</time></trkpt><trkpt lat="63.89582825" lon="-21.07395554"><ele>10.5</ele><time>2012-07-27T18:29:33.0000000+00:00</time></trkpt><trkpt lat="63.89559174" lon="-21.07413101"><ele>11.2</ele><time>2012-07-27T18:29:38.0000000+00:00</time></trkpt><trkpt lat="63.89533615" lon="-21.07432747"><ele>11.5</ele><time>2012-07-27T18:29:43.0000000+00:00</time></trkpt><trkpt lat="63.89503861" lon="-21.07458115"><ele>11.3</ele><time>2012-07-27T18:29:48.0000000+00:00</time></trkpt><trkpt lat="63.8947258" lon="-21.07484055"><ele>10.9</ele><time>2012-07-27T18:29:53.0000000+00:00</time></trkpt><trkpt lat="63.89439392" lon="-21.07512093"><ele>10.5</ele><time>2012-07-27T18:29:58.0000000+00:00</time></trkpt><trkpt lat="63.89406204" lon="-21.0753746"><ele>10.5</ele><time>2012-07-27T18:30:03.0000000+00:00</time></trkpt><trkpt lat="63.89374542" lon="-21.07562447"><ele>10.8</ele><time>2012-07-27T18:30:08.0000000+00:00</time></trkpt><trkpt lat="63.89346695" lon="-21.07585716"><ele>10.7</ele><time>2012-07-27T18:30:13.0000000+00:00</time></trkpt><trkpt lat="63.89319992" lon="-21.07606316"><ele>10.4</ele><time>2012-07-27T18:30:18.0000000+00:00</time></trkpt><trkpt lat="63.89292145" lon="-21.0762558"><ele>11.0</ele><time>2012-07-27T18:30:23.0000000+00:00</time></trkpt><trkpt lat="63.89263535" lon="-21.0764904"><ele>10.9</ele><time>2012-07-27T18:30:28.0000000+00:00</time></trkpt><trkpt lat="63.8923378" lon="-21.07672501"><ele>10.9</ele><time>2012-07-27T18:30:33.0000000+00:00</time></trkpt><trkpt lat="63.89200974" lon="-21.07698631"><ele>10.0</ele><time>2012-07-27T18:30:38.0000000+00:00</time></trkpt><trkpt lat="63.8916893" lon="-21.07723808"><ele>10.1</ele><time>2012-07-27T18:30:43.0000000+00:00</time></trkpt><trkpt lat="63.89140701" lon="-21.07746506"><ele>9.7</ele><time>2012-07-27T18:30:48.0000000+00:00</time></trkpt><trkpt lat="63.89113998" lon="-21.07769203"><ele>9.7</ele><time>2012-07-27T18:30:53.0000000+00:00</time></trkpt><trkpt lat="63.8908577" lon="-21.07792854"><ele>9.3</ele><time>2012-07-27T18:30:58.0000000+00:00</time></trkpt><trkpt lat="63.89056015" lon="-21.0781765"><ele>9.2</ele><time>2012-07-27T18:31:03.0000000+00:00</time></trkpt><trkpt lat="63.89026642" lon="-21.0784359"><ele>9.1</ele><time>2012-07-27T18:31:08.0000000+00:00</time></trkpt><trkpt lat="63.88995743" lon="-21.07869148"><ele>9.3</ele><time>2012-07-27T18:31:13.0000000+00:00</time></trkpt><trkpt lat="63.88965607" lon="-21.07896614"><ele>8.9</ele><time>2012-07-27T18:31:18.0000000+00:00</time></trkpt><trkpt lat="63.88939285" lon="-21.07920075"><ele>9.4</ele><time>2012-07-27T18:31:23.0000000+00:00</time></trkpt><trkpt lat="63.88916016" lon="-21.07943726"><ele>9.5</ele><time>2012-07-27T18:31:28.0000000+00:00</time></trkpt><trkpt lat="63.88893127" lon="-21.07965851"><ele>9.4</ele><time>2012-07-27T18:31:33.0000000+00:00</time></trkpt><trkpt lat="63.88867569" lon="-21.07991409"><ele>9.5</ele><time>2012-07-27T18:31:38.0000000+00:00</time></trkpt><trkpt lat="63.88840866" lon="-21.08018494"><ele>10.0</ele><time>2012-07-27T18:31:43.0000000+00:00</time></trkpt><trkpt lat="63.888134" lon="-21.08047295"><ele>10.0</ele><time>2012-07-27T18:31:48.0000000+00:00</time></trkpt><trkpt lat="63.88784027" lon="-21.08077049"><ele>9.8</ele><time>2012-07-27T18:31:53.0000000+00:00</time></trkpt><trkpt lat="63.8875351" lon="-21.08108711"><ele>9.8</ele><time>2012-07-27T18:31:58.0000000+00:00</time></trkpt><trkpt lat="63.88722229" lon="-21.08141327"><ele>9.9</ele><time>2012-07-27T18:32:03.0000000+00:00</time></trkpt><trkpt lat="63.8869133" lon="-21.08172035"><ele>10.3</ele><time>2012-07-27T18:32:08.0000000+00:00</time></trkpt><trkpt lat="63.88665009" lon="-21.08198929"><ele>11.5</ele><time>2012-07-27T18:32:13.0000000+00:00</time></trkpt><trkpt lat="63.88641357" lon="-21.0822258"><ele>12.4</ele><time>2012-07-27T18:32:18.0000000+00:00</time></trkpt><trkpt lat="63.88616562" lon="-21.08247757"><ele>12.5</ele><time>2012-07-27T18:32:23.0000000+00:00</time></trkpt><trkpt lat="63.88588715" lon="-21.08278656"><ele>11.1</ele><time>2012-07-27T18:32:28.0000000+00:00</time></trkpt><trkpt lat="63.88560486" lon="-21.08307266"><ele>11.3</ele><time>2012-07-27T18:32:33.0000000+00:00</time></trkpt><trkpt lat="63.88531494" lon="-21.08337593"><ele>11.0</ele><time>2012-07-27T18:32:38.0000000+00:00</time></trkpt><trkpt lat="63.88502884" lon="-21.08366394"><ele>11.0</ele><time>2012-07-27T18:32:43.0000000+00:00</time></trkpt><trkpt lat="63.88476944" lon="-21.08393097"><ele>11.1</ele><time>2012-07-27T18:32:48.0000000+00:00</time></trkpt><trkpt lat="63.88448715" lon="-21.08422661"><ele>11.8</ele><time>2012-07-27T18:32:53.0000000+00:00</time></trkpt><trkpt lat="63.88418961" lon="-21.08453369"><ele>11.9</ele><time>2012-07-27T18:32:58.0000000+00:00</time></trkpt><trkpt lat="63.88391495" lon="-21.08483505"><ele>12.1</ele><time>2012-07-27T18:33:03.0000000+00:00</time></trkpt><trkpt lat="63.88365936" lon="-21.08509445"><ele>10.3</ele><time>2012-07-27T18:33:08.0000000+00:00</time></trkpt><trkpt lat="63.88339996" lon="-21.08537102"><ele>10.2</ele><time>2012-07-27T18:33:13.0000000+00:00</time></trkpt><trkpt lat="63.88314438" lon="-21.08562088"><ele>10.2</ele><time>2012-07-27T18:33:18.0000000+00:00</time></trkpt><trkpt lat="63.88291931" lon="-21.08586693"><ele>10.2</ele><time>2012-07-27T18:33:23.0000000+00:00</time></trkpt><trkpt lat="63.88267899" lon="-21.08611298"><ele>10.2</ele><time>2012-07-27T18:33:28.0000000+00:00</time></trkpt><trkpt lat="63.88241959" lon="-21.08636475"><ele>10.3</ele><time>2012-07-27T18:33:33.0000000+00:00</time></trkpt><trkpt lat="63.88213348" lon="-21.08664894"><ele>9.9</ele><time>2012-07-27T18:33:38.0000000+00:00</time></trkpt><trkpt lat="63.88185883" lon="-21.08691216"><ele>9.0</ele><time>2012-07-27T18:33:43.0000000+00:00</time></trkpt><trkpt lat="63.88160324" lon="-21.08716774"><ele>9.5</ele><time>2012-07-27T18:33:48.0000000+00:00</time></trkpt><trkpt lat="63.8813324" lon="-21.0874424"><ele>9.7</ele><time>2012-07-27T18:33:53.0000000+00:00</time></trkpt><trkpt lat="63.881073" lon="-21.08770752"><ele>10.0</ele><time>2012-07-27T18:33:58.0000000+00:00</time></trkpt><trkpt lat="63.88081741" lon="-21.08797073"><ele>9.8</ele><time>2012-07-27T18:34:03.0000000+00:00</time></trkpt><trkpt lat="63.88054276" lon="-21.08824921"><ele>9.8</ele><time>2012-07-27T18:34:08.0000000+00:00</time></trkpt><trkpt lat="63.88027573" lon="-21.08852196"><ele>10.0</ele><time>2012-07-27T18:34:13.0000000+00:00</time></trkpt><trkpt lat="63.88002777" lon="-21.08875847"><ele>10.1</ele><time>2012-07-27T18:34:18.0000000+00:00</time></trkpt><trkpt lat="63.879776" lon="-21.08902741"><ele>10.3</ele><time>2012-07-27T18:34:23.0000000+00:00</time></trkpt><trkpt lat="63.87950897" lon="-21.08931541"><ele>9.9</ele><time>2012-07-27T18:34:28.0000000+00:00</time></trkpt><trkpt lat="63.8792305" lon="-21.0895958"><ele>9.9</ele><time>2012-07-27T18:34:33.0000000+00:00</time></trkpt><trkpt lat="63.87895584" lon="-21.08987618"><ele>9.9</ele><time>2012-07-27T18:34:38.0000000+00:00</time></trkpt><trkpt lat="63.87869263" lon="-21.09013176"><ele>10.2</ele><time>2012-07-27T18:34:43.0000000+00:00</time></trkpt><trkpt lat="63.87843323" lon="-21.09039116"><ele>10.0</ele><time>2012-07-27T18:34:48.0000000+00:00</time></trkpt><trkpt lat="63.87815476" lon="-21.09068489"><ele>10.3</ele><time>2012-07-27T18:34:53.0000000+00:00</time></trkpt><trkpt lat="63.87786484" lon="-21.09099388"><ele>10.3</ele><time>2012-07-27T18:34:58.0000000+00:00</time></trkpt><trkpt lat="63.87755585" lon="-21.09129906"><ele>10.1</ele><time>2012-07-27T18:35:03.0000000+00:00</time></trkpt><trkpt lat="63.87723541" lon="-21.09163094"><ele>10.1</ele><time>2012-07-27T18:35:08.0000000+00:00</time></trkpt><trkpt lat="63.87691498" lon="-21.09195137"><ele>10.1</ele><time>2012-07-27T18:35:13.0000000+00:00</time></trkpt><trkpt lat="63.87662888" lon="-21.09224701"><ele>10.5</ele><time>2012-07-27T18:35:18.0000000+00:00</time></trkpt><trkpt lat="63.87636566" lon="-21.09251595"><ele>10.7</ele><time>2012-07-27T18:35:23.0000000+00:00</time></trkpt><trkpt lat="63.87608719" lon="-21.09280396"><ele>11.1</ele><time>2012-07-27T18:35:28.0000000+00:00</time></trkpt><trkpt lat="63.87580109" lon="-21.09310341"><ele>11.1</ele><time>2012-07-27T18:35:33.0000000+00:00</time></trkpt><trkpt lat="63.87552261" lon="-21.09340859"><ele>10.9</ele><time>2012-07-27T18:35:38.0000000+00:00</time></trkpt><trkpt lat="63.8752594" lon="-21.09368515"><ele>10.8</ele><time>2012-07-27T18:35:43.0000000+00:00</time></trkpt><trkpt lat="63.8749733" lon="-21.09399414"><ele>10.3</ele><time>2012-07-27T18:35:48.0000000+00:00</time></trkpt><trkpt lat="63.87466812" lon="-21.09431458"><ele>9.7</ele><time>2012-07-27T18:35:53.0000000+00:00</time></trkpt><trkpt lat="63.87435532" lon="-21.09464073"><ele>9.7</ele><time>2012-07-27T18:35:58.0000000+00:00</time></trkpt><trkpt lat="63.8740387" lon="-21.09498215"><ele>9.6</ele><time>2012-07-27T18:36:03.0000000+00:00</time></trkpt><trkpt lat="63.87372208" lon="-21.0953331"><ele>9.4</ele><time>2012-07-27T18:36:08.0000000+00:00</time></trkpt><trkpt lat="63.87343597" lon="-21.09563637"><ele>9.6</ele><time>2012-07-27T18:36:13.0000000+00:00</time></trkpt><trkpt lat="63.87313461" lon="-21.09596634"><ele>9.2</ele><time>2012-07-27T18:36:18.0000000+00:00</time></trkpt><trkpt lat="63.87281799" lon="-21.09630585"><ele>8.9</ele><time>2012-07-27T18:36:23.0000000+00:00</time></trkpt><trkpt lat="63.87251663" lon="-21.0966301"><ele>8.5</ele><time>2012-07-27T18:36:28.0000000+00:00</time></trkpt><trkpt lat="63.87220383" lon="-21.09695625"><ele>8.2</ele><time>2012-07-27T18:36:33.0000000+00:00</time></trkpt><trkpt lat="63.87189865" lon="-21.09727669"><ele>7.9</ele><time>2012-07-27T18:36:38.0000000+00:00</time></trkpt><trkpt lat="63.87162399" lon="-21.09757805"><ele>7.9</ele><time>2012-07-27T18:36:43.0000000+00:00</time></trkpt><trkpt lat="63.87137222" lon="-21.09783363"><ele>8.6</ele><time>2012-07-27T18:36:48.0000000+00:00</time></trkpt><trkpt lat="63.87110519" lon="-21.09808922"><ele>9.5</ele><time>2012-07-27T18:36:53.0000000+00:00</time></trkpt><trkpt lat="63.87082291" lon="-21.09839821"><ele>9.8</ele><time>2012-07-27T18:36:58.0000000+00:00</time></trkpt><trkpt lat="63.87052918" lon="-21.09871292"><ele>10.1</ele><time>2012-07-27T18:37:03.0000000+00:00</time></trkpt><trkpt lat="63.87021256" lon="-21.09905243"><ele>10.2</ele><time>2012-07-27T18:37:08.0000000+00:00</time></trkpt><trkpt lat="63.86993408" lon="-21.09937286"><ele>10.2</ele><time>2012-07-27T18:37:13.0000000+00:00</time></trkpt><trkpt lat="63.86965561" lon="-21.09964562"><ele>10.3</ele><time>2012-07-27T18:37:18.0000000+00:00</time></trkpt><trkpt lat="63.86936569" lon="-21.09995651"><ele>10.7</ele><time>2012-07-27T18:37:23.0000000+00:00</time></trkpt><trkpt lat="63.86909866" lon="-21.10025406"><ele>10.6</ele><time>2012-07-27T18:37:28.0000000+00:00</time></trkpt><trkpt lat="63.86886597" lon="-21.10050201"><ele>10.7</ele><time>2012-07-27T18:37:33.0000000+00:00</time></trkpt><trkpt lat="63.86862946" lon="-21.10076714"><ele>10.4</ele><time>2012-07-27T18:37:38.0000000+00:00</time></trkpt><trkpt lat="63.8683815" lon="-21.10103989"><ele>10.2</ele><time>2012-07-27T18:37:43.0000000+00:00</time></trkpt><trkpt lat="63.86811829" lon="-21.10129929"><ele>10.9</ele><time>2012-07-27T18:37:48.0000000+00:00</time></trkpt><trkpt lat="63.86784744" lon="-21.10159111"><ele>11.2</ele><time>2012-07-27T18:37:53.0000000+00:00</time></trkpt><trkpt lat="63.86756134" lon="-21.10191727"><ele>10.2</ele><time>2012-07-27T18:37:58.0000000+00:00</time></trkpt><trkpt lat="63.86729813" lon="-21.10218811"><ele>10.4</ele><time>2012-07-27T18:38:03.0000000+00:00</time></trkpt><trkpt lat="63.86706543" lon="-21.10243797"><ele>10.0</ele><time>2012-07-27T18:38:08.0000000+00:00</time></trkpt><trkpt lat="63.86682129" lon="-21.10269356"><ele>9.9</ele><time>2012-07-27T18:38:13.0000000+00:00</time></trkpt><trkpt lat="63.86658859" lon="-21.10296249"><ele>10.0</ele><time>2012-07-27T18:38:18.0000000+00:00</time></trkpt><trkpt lat="63.86637497" lon="-21.10319519"><ele>9.8</ele><time>2012-07-27T18:38:23.0000000+00:00</time></trkpt><trkpt lat="63.86618042" lon="-21.10340881"><ele>9.9</ele><time>2012-07-27T18:38:28.0000000+00:00</time></trkpt><trkpt lat="63.86594772" lon="-21.10365677"><ele>9.9</ele><time>2012-07-27T18:38:33.0000000+00:00</time></trkpt><trkpt lat="63.8657074" lon="-21.10391426"><ele>9.6</ele><time>2012-07-27T18:38:38.0000000+00:00</time></trkpt><trkpt lat="63.86546707" lon="-21.1041832"><ele>9.5</ele><time>2012-07-27T18:38:43.0000000+00:00</time></trkpt><trkpt lat="63.86519623" lon="-21.10447311"><ele>9.3</ele><time>2012-07-27T18:38:48.0000000+00:00</time></trkpt><trkpt lat="63.86493301" lon="-21.10475349"><ele>8.9</ele><time>2012-07-27T18:38:53.0000000+00:00</time></trkpt><trkpt lat="63.86468506" lon="-21.10502243"><ele>8.5</ele><time>2012-07-27T18:38:58.0000000+00:00</time></trkpt><trkpt lat="63.86441422" lon="-21.10530281"><ele>8.0</ele><time>2012-07-27T18:39:03.0000000+00:00</time></trkpt><trkpt lat="63.86413193" lon="-21.10559273"><ele>7.7</ele><time>2012-07-27T18:39:08.0000000+00:00</time></trkpt><trkpt lat="63.86388397" lon="-21.10586357"><ele>7.6</ele><time>2012-07-27T18:39:13.0000000+00:00</time></trkpt><trkpt lat="63.86364365" lon="-21.10612106"><ele>7.7</ele><time>2012-07-27T18:39:18.0000000+00:00</time></trkpt><trkpt lat="63.86338043" lon="-21.10635757"><ele>7.5</ele><time>2012-07-27T18:39:23.0000000+00:00</time></trkpt><trkpt lat="63.86312485" lon="-21.10664177"><ele>7.8</ele><time>2012-07-27T18:39:28.0000000+00:00</time></trkpt><trkpt lat="63.86289215" lon="-21.10691643"><ele>8.1</ele><time>2012-07-27T18:39:33.0000000+00:00</time></trkpt><trkpt lat="63.86265183" lon="-21.10717201"><ele>8.2</ele><time>2012-07-27T18:39:38.0000000+00:00</time></trkpt><trkpt lat="63.8624115" lon="-21.10743713"><ele>8.2</ele><time>2012-07-27T18:39:43.0000000+00:00</time></trkpt><trkpt lat="63.86219025" lon="-21.10767555"><ele>8.5</ele><time>2012-07-27T18:39:48.0000000+00:00</time></trkpt><trkpt lat="63.86195374" lon="-21.10792542"><ele>8.9</ele><time>2012-07-27T18:39:53.0000000+00:00</time></trkpt><trkpt lat="63.86171341" lon="-21.10821343"><ele>8.9</ele><time>2012-07-27T18:39:58.0000000+00:00</time></trkpt><trkpt lat="63.86149216" lon="-21.10850334"><ele>9.0</ele><time>2012-07-27T18:40:03.0000000+00:00</time></trkpt><trkpt lat="63.8613205" lon="-21.108778"><ele>8.8</ele><time>2012-07-27T18:40:08.0000000+00:00</time></trkpt><trkpt lat="63.86118698" lon="-21.10900688"><ele>8.9</ele><time>2012-07-27T18:40:13.0000000+00:00</time></trkpt><trkpt lat="63.8611145" lon="-21.10914993"><ele>9.0</ele><time>2012-07-27T18:40:18.0000000+00:00</time></trkpt><trkpt lat="63.86111069" lon="-21.10915375"><ele>9.2</ele><time>2012-07-27T18:40:23.0000000+00:00</time></trkpt><trkpt lat="63.86111069" lon="-21.10915566"><ele>9.2</ele><time>2012-07-27T18:40:28.0000000+00:00</time></trkpt><trkpt lat="63.86111069" lon="-21.10915566"><ele>9.3</ele><time>2012-07-27T18:40:33.0000000+00:00</time></trkpt><trkpt lat="63.86111069" lon="-21.10915184"><ele>9.2</ele><time>2012-07-27T18:40:38.0000000+00:00</time></trkpt><trkpt lat="63.86111069" lon="-21.10915184"><ele>9.2</ele><time>2012-07-27T18:40:43.0000000+00:00</time></trkpt><trkpt lat="63.86111069" lon="-21.10915184"><ele>9.1</ele><time>2012-07-27T18:40:48.0000000+00:00</time></trkpt><trkpt lat="63.86111069" lon="-21.10915184"><ele>9.1</ele><time>2012-07-27T18:40:53.0000000+00:00</time></trkpt><trkpt lat="63.86111069" lon="-21.10915184"><ele>9.1</ele><time>2012-07-27T18:40:58.0000000+00:00</time></trkpt><trkpt lat="63.86111069" lon="-21.10915184"><ele>9.1</ele><time>2012-07-27T18:41:03.0000000+00:00</time></trkpt><trkpt lat="63.86111069" lon="-21.10915184"><ele>9.1</ele><time>2012-07-27T18:41:08.0000000+00:00</time></trkpt><trkpt lat="63.86111069" lon="-21.10915184"><ele>9.1</ele><time>2012-07-27T18:41:13.0000000+00:00</time></trkpt><trkpt lat="63.86111069" lon="-21.10915184"><ele>9.1</ele><time>2012-07-27T18:41:18.0000000+00:00</time></trkpt><trkpt lat="63.86111069" lon="-21.10915184"><ele>9.1</ele><time>2012-07-27T18:41:23.0000000+00:00</time></trkpt><trkpt lat="63.86111069" lon="-21.10915184"><ele>9.1</ele><time>2012-07-27T18:41:28.0000000+00:00</time></trkpt><trkpt lat="63.86111069" lon="-21.10915184"><ele>9.1</ele><time>2012-07-27T18:41:33.0000000+00:00</time></trkpt><trkpt lat="63.86111069" lon="-21.10915184"><ele>9.1</ele><time>2012-07-27T18:41:38.0000000+00:00</time></trkpt><trkpt lat="63.86111069" lon="-21.10915184"><ele>9.1</ele><time>2012-07-27T18:41:43.0000000+00:00</time></trkpt><trkpt lat="63.86111069" lon="-21.10915184"><ele>9.1</ele><time>2012-07-27T18:41:48.0000000+00:00</time></trkpt><trkpt lat="63.86111069" lon="-21.10915184"><ele>9.1</ele><time>2012-07-27T18:41:53.0000000+00:00</time></trkpt><trkpt lat="63.86111069" lon="-21.10915184"><ele>9.1</ele><time>2012-07-27T18:41:58.0000000+00:00</time></trkpt><trkpt lat="63.8611145" lon="-21.10915184"><ele>9.1</ele><time>2012-07-27T18:42:03.0000000+00:00</time></trkpt><trkpt lat="63.8611145" lon="-21.10914993"><ele>9.1</ele><time>2012-07-27T18:42:08.0000000+00:00</time></trkpt><trkpt lat="63.8611145" lon="-21.10914993"><ele>9.1</ele><time>2012-07-27T18:42:13.0000000+00:00</time></trkpt><trkpt lat="63.8611145" lon="-21.10914993"><ele>9.1</ele><time>2012-07-27T18:42:18.0000000+00:00</time></trkpt><trkpt lat="63.8611145" lon="-21.10914993"><ele>9.1</ele><time>2012-07-27T18:42:23.0000000+00:00</time></trkpt><trkpt lat="63.8611145" lon="-21.10915184"><ele>9.1</ele><time>2012-07-27T18:42:28.0000000+00:00</time></trkpt><trkpt lat="63.86110687" lon="-21.10916138"><ele>9.1</ele><time>2012-07-27T18:42:33.0000000+00:00</time></trkpt><trkpt lat="63.86099625" lon="-21.10933304"><ele>9.3</ele><time>2012-07-27T18:42:38.0000000+00:00</time></trkpt><trkpt lat="63.86083221" lon="-21.1096859"><ele>8.4</ele><time>2012-07-27T18:42:43.0000000+00:00</time></trkpt><trkpt lat="63.86065292" lon="-21.11011314"><ele>7.6</ele><time>2012-07-27T18:42:48.0000000+00:00</time></trkpt><trkpt lat="63.86048126" lon="-21.11057472"><ele>7.2</ele><time>2012-07-27T18:42:53.0000000+00:00</time></trkpt><trkpt lat="63.86030579" lon="-21.11105919"><ele>7.1</ele><time>2012-07-27T18:42:58.0000000+00:00</time></trkpt><trkpt lat="63.8601532" lon="-21.11157227"><ele>8.7</ele><time>2012-07-27T18:43:03.0000000+00:00</time></trkpt><trkpt lat="63.86000061" lon="-21.11215973"><ele>10.1</ele><time>2012-07-27T18:43:08.0000000+00:00</time></trkpt><trkpt lat="63.85987091" lon="-21.11276245"><ele>9.4</ele><time>2012-07-27T18:43:13.0000000+00:00</time></trkpt><trkpt lat="63.85975266" lon="-21.11341667"><ele>8.9</ele><time>2012-07-27T18:43:18.0000000+00:00</time></trkpt><trkpt lat="63.85965729" lon="-21.1140995"><ele>8.8</ele><time>2012-07-27T18:43:23.0000000+00:00</time></trkpt><trkpt lat="63.85957718" lon="-21.11478424"><ele>8.8</ele><time>2012-07-27T18:43:28.0000000+00:00</time></trkpt><trkpt lat="63.8595314" lon="-21.11547661"><ele>8.7</ele><time>2012-07-27T18:43:33.0000000+00:00</time></trkpt><trkpt lat="63.85951233" lon="-21.11621475"><ele>8.6</ele><time>2012-07-27T18:43:38.0000000+00:00</time></trkpt><trkpt lat="63.85951996" lon="-21.11690712"><ele>8.1</ele><time>2012-07-27T18:43:43.0000000+00:00</time></trkpt><trkpt lat="63.85953903" lon="-21.1176033"><ele>7.8</ele><time>2012-07-27T18:43:48.0000000+00:00</time></trkpt><trkpt lat="63.85959244" lon="-21.11833954"><ele>7.6</ele><time>2012-07-27T18:43:53.0000000+00:00</time></trkpt><trkpt lat="63.85965347" lon="-21.11898232"><ele>7.6</ele><time>2012-07-27T18:43:58.0000000+00:00</time></trkpt><trkpt lat="63.8597374" lon="-21.11954498"><ele>7.4</ele><time>2012-07-27T18:44:03.0000000+00:00</time></trkpt><trkpt lat="63.85982132" lon="-21.12007332"><ele>7.6</ele><time>2012-07-27T18:44:08.0000000+00:00</time></trkpt><trkpt lat="63.85990143" lon="-21.12050057"><ele>7.2</ele><time>2012-07-27T18:44:13.0000000+00:00</time></trkpt><trkpt lat="63.85998535" lon="-21.12088966"><ele>7.3</ele><time>2012-07-27T18:44:18.0000000+00:00</time></trkpt><trkpt lat="63.86008072" lon="-21.12127686"><ele>7.1</ele><time>2012-07-27T18:44:23.0000000+00:00</time></trkpt><trkpt lat="63.86019135" lon="-21.12171364"><ele>6.6</ele><time>2012-07-27T18:44:28.0000000+00:00</time></trkpt><trkpt lat="63.86029816" lon="-21.12215233"><ele>6.3</ele><time>2012-07-27T18:44:33.0000000+00:00</time></trkpt><trkpt lat="63.86039734" lon="-21.122509"><ele>5.8</ele><time>2012-07-27T18:44:38.0000000+00:00</time></trkpt><trkpt lat="63.86048126" lon="-21.12283707"><ele>5.2</ele><time>2012-07-27T18:44:43.0000000+00:00</time></trkpt><trkpt lat="63.86056137" lon="-21.12315941"><ele>4.9</ele><time>2012-07-27T18:44:48.0000000+00:00</time></trkpt><trkpt lat="63.86063767" lon="-21.12344742"><ele>4.6</ele><time>2012-07-27T18:44:53.0000000+00:00</time></trkpt><trkpt lat="63.86069107" lon="-21.12367821"><ele>4.2</ele><time>2012-07-27T18:44:58.0000000+00:00</time></trkpt><trkpt lat="63.86073685" lon="-21.12384987"><ele>4.2</ele><time>2012-07-27T18:45:03.0000000+00:00</time></trkpt><trkpt lat="63.86079025" lon="-21.1240406"><ele>4.0</ele><time>2012-07-27T18:45:08.0000000+00:00</time></trkpt><trkpt lat="63.86083603" lon="-21.12426758"><ele>3.8</ele><time>2012-07-27T18:45:13.0000000+00:00</time></trkpt><trkpt lat="63.86090088" lon="-21.12453461"><ele>4.0</ele><time>2012-07-27T18:45:18.0000000+00:00</time></trkpt><trkpt lat="63.86095429" lon="-21.12477303"><ele>4.5</ele><time>2012-07-27T18:45:23.0000000+00:00</time></trkpt><trkpt lat="63.86103058" lon="-21.12505531"><ele>4.1</ele><time>2012-07-27T18:45:28.0000000+00:00</time></trkpt><trkpt lat="63.8611145" lon="-21.1253891"><ele>3.8</ele><time>2012-07-27T18:45:33.0000000+00:00</time></trkpt><trkpt lat="63.8612175" lon="-21.12577248"><ele>3.1</ele><time>2012-07-27T18:45:38.0000000+00:00</time></trkpt><trkpt lat="63.86131287" lon="-21.12615776"><ele>3.0</ele><time>2012-07-27T18:45:43.0000000+00:00</time></trkpt><trkpt lat="63.86138153" lon="-21.1264801"><ele>4.0</ele><time>2012-07-27T18:45:48.0000000+00:00</time></trkpt><trkpt lat="63.86145783" lon="-21.12676239"><ele>4.2</ele><time>2012-07-27T18:45:53.0000000+00:00</time></trkpt><trkpt lat="63.86154175" lon="-21.1270752"><ele>4.3</ele><time>2012-07-27T18:45:58.0000000+00:00</time></trkpt><trkpt lat="63.86162186" lon="-21.12740898"><ele>3.7</ele><time>2012-07-27T18:46:03.0000000+00:00</time></trkpt><trkpt lat="63.8617096" lon="-21.12775803"><ele>3.7</ele><time>2012-07-27T18:46:08.0000000+00:00</time></trkpt><trkpt lat="63.86180878" lon="-21.12812614"><ele>4.1</ele><time>2012-07-27T18:46:13.0000000+00:00</time></trkpt><trkpt lat="63.86190033" lon="-21.1284771"><ele>4.0</ele><time>2012-07-27T18:46:18.0000000+00:00</time></trkpt><trkpt lat="63.86198807" lon="-21.12882042"><ele>3.8</ele><time>2012-07-27T18:46:23.0000000+00:00</time></trkpt><trkpt lat="63.86209106" lon="-21.1292305"><ele>3.7</ele><time>2012-07-27T18:46:28.0000000+00:00</time></trkpt><trkpt lat="63.86220932" lon="-21.12968826"><ele>3.9</ele><time>2012-07-27T18:46:33.0000000+00:00</time></trkpt><trkpt lat="63.86232758" lon="-21.13016129"><ele>3.8</ele><time>2012-07-27T18:46:38.0000000+00:00</time></trkpt><trkpt lat="63.86244583" lon="-21.13062859"><ele>3.6</ele><time>2012-07-27T18:46:43.0000000+00:00</time></trkpt><trkpt lat="63.86254501" lon="-21.13102531"><ele>4.1</ele><time>2012-07-27T18:46:48.0000000+00:00</time></trkpt><trkpt lat="63.8626442" lon="-21.13141632"><ele>4.0</ele><time>2012-07-27T18:46:53.0000000+00:00</time></trkpt><trkpt lat="63.86274338" lon="-21.13181496"><ele>4.0</ele><time>2012-07-27T18:46:58.0000000+00:00</time></trkpt><trkpt lat="63.862854" lon="-21.13221169"><ele>3.3</ele><time>2012-07-27T18:47:03.0000000+00:00</time></trkpt><trkpt lat="63.86294937" lon="-21.13262367"><ele>3.3</ele><time>2012-07-27T18:47:08.0000000+00:00</time></trkpt><trkpt lat="63.86304474" lon="-21.13301086"><ele>3.4</ele><time>2012-07-27T18:47:13.0000000+00:00</time></trkpt><trkpt lat="63.86314392" lon="-21.13343048"><ele>3.2</ele><time>2012-07-27T18:47:18.0000000+00:00</time></trkpt><trkpt lat="63.86323547" lon="-21.13378143"><ele>3.2</ele><time>2012-07-27T18:47:23.0000000+00:00</time></trkpt><trkpt lat="63.86332321" lon="-21.13412285"><ele>2.7</ele><time>2012-07-27T18:47:28.0000000+00:00</time></trkpt><trkpt lat="63.86343384" lon="-21.13456154"><ele>2.4</ele><time>2012-07-27T18:47:33.0000000+00:00</time></trkpt><trkpt lat="63.86354065" lon="-21.13500214"><ele>2.7</ele><time>2012-07-27T18:47:38.0000000+00:00</time></trkpt><trkpt lat="63.86364746" lon="-21.1354351"><ele>2.9</ele><time>2012-07-27T18:47:43.0000000+00:00</time></trkpt><trkpt lat="63.86375809" lon="-21.13586426"><ele>2.7</ele><time>2012-07-27T18:47:48.0000000+00:00</time></trkpt><trkpt lat="63.8638649" lon="-21.13633156"><ele>3.2</ele><time>2012-07-27T18:47:53.0000000+00:00</time></trkpt><trkpt lat="63.86398315" lon="-21.13677025"><ele>3.0</ele><time>2012-07-27T18:47:58.0000000+00:00</time></trkpt><trkpt lat="63.86407471" lon="-21.13711929"><ele>3.0</ele><time>2012-07-27T18:48:03.0000000+00:00</time></trkpt><trkpt lat="63.864151" lon="-21.13740921"><ele>2.9</ele><time>2012-07-27T18:48:08.0000000+00:00</time></trkpt><trkpt lat="63.86420059" lon="-21.13760376"><ele>3.2</ele><time>2012-07-27T18:48:13.0000000+00:00</time></trkpt><trkpt lat="63.86423874" lon="-21.13773727"><ele>3.8</ele><time>2012-07-27T18:48:18.0000000+00:00</time></trkpt><trkpt lat="63.86426544" lon="-21.13789558"><ele>3.9</ele><time>2012-07-27T18:48:23.0000000+00:00</time></trkpt><trkpt lat="63.86428833" lon="-21.13799858"><ele>3.7</ele><time>2012-07-27T18:48:28.0000000+00:00</time></trkpt><trkpt lat="63.86433029" lon="-21.13819885"><ele>3.3</ele><time>2012-07-27T18:48:33.0000000+00:00</time></trkpt><trkpt lat="63.86439896" lon="-21.13846779"><ele>3.3</ele><time>2012-07-27T18:48:38.0000000+00:00</time></trkpt><trkpt lat="63.86446762" lon="-21.13874435"><ele>3.6</ele><time>2012-07-27T18:48:43.0000000+00:00</time></trkpt><trkpt lat="63.86453629" lon="-21.13903427"><ele>3.7</ele><time>2012-07-27T18:48:48.0000000+00:00</time></trkpt><trkpt lat="63.86463165" lon="-21.13937378"><ele>3.5</ele><time>2012-07-27T18:48:53.0000000+00:00</time></trkpt><trkpt lat="63.86472321" lon="-21.13973045"><ele>3.3</ele><time>2012-07-27T18:48:58.0000000+00:00</time></trkpt><trkpt lat="63.86481857" lon="-21.14009285"><ele>3.1</ele><time>2012-07-27T18:49:03.0000000+00:00</time></trkpt><trkpt lat="63.86491776" lon="-21.14045525"><ele>3.0</ele><time>2012-07-27T18:49:08.0000000+00:00</time></trkpt><trkpt lat="63.86501312" lon="-21.14082909"><ele>2.9</ele><time>2012-07-27T18:49:13.0000000+00:00</time></trkpt><trkpt lat="63.86511612" lon="-21.141222"><ele>2.7</ele><time>2012-07-27T18:49:18.0000000+00:00</time></trkpt><trkpt lat="63.8652153" lon="-21.14161873"><ele>2.9</ele><time>2012-07-27T18:49:23.0000000+00:00</time></trkpt><trkpt lat="63.8653183" lon="-21.1420269"><ele>2.9</ele><time>2012-07-27T18:49:28.0000000+00:00</time></trkpt><trkpt lat="63.86543274" lon="-21.1424427"><ele>2.8</ele><time>2012-07-27T18:49:33.0000000+00:00</time></trkpt><trkpt lat="63.865551" lon="-21.14288902"><ele>2.9</ele><time>2012-07-27T18:49:38.0000000+00:00</time></trkpt><trkpt lat="63.86567307" lon="-21.14336968"><ele>2.9</ele><time>2012-07-27T18:49:43.0000000+00:00</time></trkpt><trkpt lat="63.86581039" lon="-21.14387322"><ele>3.1</ele><time>2012-07-27T18:49:48.0000000+00:00</time></trkpt><trkpt lat="63.86593628" lon="-21.14432526"><ele>3.0</ele><time>2012-07-27T18:49:53.0000000+00:00</time></trkpt><trkpt lat="63.86605835" lon="-21.14478874"><ele>3.0</ele><time>2012-07-27T18:49:58.0000000+00:00</time></trkpt><trkpt lat="63.86618424" lon="-21.14526939"><ele>2.8</ele><time>2012-07-27T18:50:03.0000000+00:00</time></trkpt><trkpt lat="63.86630249" lon="-21.14570808"><ele>2.7</ele><time>2012-07-27T18:50:08.0000000+00:00</time></trkpt><trkpt lat="63.86640549" lon="-21.14611244"><ele>2.9</ele><time>2012-07-27T18:50:13.0000000+00:00</time></trkpt><trkpt lat="63.86651611" lon="-21.14651489"><ele>2.9</ele><time>2012-07-27T18:50:18.0000000+00:00</time></trkpt><trkpt lat="63.86663437" lon="-21.14692307"><ele>2.7</ele><time>2012-07-27T18:50:23.0000000+00:00</time></trkpt><trkpt lat="63.866745" lon="-21.14735794"><ele>3.3</ele><time>2012-07-27T18:50:28.0000000+00:00</time></trkpt><trkpt lat="63.86687088" lon="-21.14780045"><ele>3.2</ele><time>2012-07-27T18:50:33.0000000+00:00</time></trkpt><trkpt lat="63.86700058" lon="-21.14824486"><ele>2.5</ele><time>2012-07-27T18:50:38.0000000+00:00</time></trkpt><trkpt lat="63.86713409" lon="-21.14871788"><ele>1.7</ele><time>2012-07-27T18:50:43.0000000+00:00</time></trkpt><trkpt lat="63.86724854" lon="-21.1491394"><ele>1.8</ele><time>2012-07-27T18:50:48.0000000+00:00</time></trkpt><trkpt lat="63.86737824" lon="-21.14959145"><ele>1.8</ele><time>2012-07-27T18:50:53.0000000+00:00</time></trkpt><trkpt lat="63.86749649" lon="-21.15005112"><ele>1.7</ele><time>2012-07-27T18:50:58.0000000+00:00</time></trkpt><trkpt lat="63.86762238" lon="-21.15051651"><ele>1.4</ele><time>2012-07-27T18:51:03.0000000+00:00</time></trkpt><trkpt lat="63.86774826" lon="-21.15098572"><ele>1.4</ele><time>2012-07-27T18:51:08.0000000+00:00</time></trkpt><trkpt lat="63.86787796" lon="-21.1514225"><ele>2.4</ele><time>2012-07-27T18:51:13.0000000+00:00</time></trkpt><trkpt lat="63.86799622" lon="-21.15184021"><ele>2.7</ele><time>2012-07-27T18:51:18.0000000+00:00</time></trkpt><trkpt lat="63.86810684" lon="-21.15228653"><ele>2.6</ele><time>2012-07-27T18:51:23.0000000+00:00</time></trkpt><trkpt lat="63.86822128" lon="-21.15270615"><ele>3.0</ele><time>2012-07-27T18:51:28.0000000+00:00</time></trkpt><trkpt lat="63.86832047" lon="-21.15302086"><ele>3.5</ele><time>2012-07-27T18:51:33.0000000+00:00</time></trkpt><trkpt lat="63.86840057" lon="-21.15333557"><ele>3.7</ele><time>2012-07-27T18:51:38.0000000+00:00</time></trkpt><trkpt lat="63.8685112" lon="-21.15373612"><ele>4.1</ele><time>2012-07-27T18:51:43.0000000+00:00</time></trkpt><trkpt lat="63.8686142" lon="-21.15412521"><ele>3.9</ele><time>2012-07-27T18:51:48.0000000+00:00</time></trkpt><trkpt lat="63.86872101" lon="-21.15452766"><ele>3.7</ele><time>2012-07-27T18:51:53.0000000+00:00</time></trkpt><trkpt lat="63.86884308" lon="-21.15495682"><ele>3.5</ele><time>2012-07-27T18:51:58.0000000+00:00</time></trkpt><trkpt lat="63.86894608" lon="-21.15536308"><ele>3.4</ele><time>2012-07-27T18:52:03.0000000+00:00</time></trkpt><trkpt lat="63.8690567" lon="-21.15579605"><ele>4.0</ele><time>2012-07-27T18:52:08.0000000+00:00</time></trkpt><trkpt lat="63.86915588" lon="-21.15613747"><ele>4.2</ele><time>2012-07-27T18:52:13.0000000+00:00</time></trkpt><trkpt lat="63.86925507" lon="-21.15649414"><ele>4.2</ele><time>2012-07-27T18:52:18.0000000+00:00</time></trkpt><trkpt lat="63.86936951" lon="-21.15693855"><ele>4.0</ele><time>2012-07-27T18:52:23.0000000+00:00</time></trkpt><trkpt lat="63.86949158" lon="-21.15740585"><ele>3.9</ele><time>2012-07-27T18:52:28.0000000+00:00</time></trkpt><trkpt lat="63.86960983" lon="-21.15786171"><ele>4.0</ele><time>2012-07-27T18:52:33.0000000+00:00</time></trkpt><trkpt lat="63.86972427" lon="-21.15831184"><ele>4.5</ele><time>2012-07-27T18:52:38.0000000+00:00</time></trkpt><trkpt lat="63.86982346" lon="-21.15874291"><ele>4.1</ele><time>2012-07-27T18:52:43.0000000+00:00</time></trkpt><trkpt lat="63.86991501" lon="-21.15907669"><ele>4.0</ele><time>2012-07-27T18:52:48.0000000+00:00</time></trkpt><trkpt lat="63.87002945" lon="-21.15949631"><ele>4.3</ele><time>2012-07-27T18:52:53.0000000+00:00</time></trkpt><trkpt lat="63.87014008" lon="-21.159935"><ele>3.9</ele><time>2012-07-27T18:52:58.0000000+00:00</time></trkpt><trkpt lat="63.87023544" lon="-21.16029549"><ele>2.9</ele><time>2012-07-27T18:53:03.0000000+00:00</time></trkpt><trkpt lat="63.87033844" lon="-21.1607151"><ele>2.5</ele><time>2012-07-27T18:53:08.0000000+00:00</time></trkpt><trkpt lat="63.87045288" lon="-21.16118622"><ele>2.5</ele><time>2012-07-27T18:53:13.0000000+00:00</time></trkpt><trkpt lat="63.87057114" lon="-21.16165543"><ele>2.1</ele><time>2012-07-27T18:53:18.0000000+00:00</time></trkpt><trkpt lat="63.87068176" lon="-21.16210938"><ele>2.1</ele><time>2012-07-27T18:53:23.0000000+00:00</time></trkpt><trkpt lat="63.87079239" lon="-21.16254807"><ele>2.5</ele><time>2012-07-27T18:53:28.0000000+00:00</time></trkpt><trkpt lat="63.87090302" lon="-21.16300011"><ele>2.2</ele><time>2012-07-27T18:53:33.0000000+00:00</time></trkpt><trkpt lat="63.87101364" lon="-21.16344261"><ele>2.1</ele><time>2012-07-27T18:53:38.0000000+00:00</time></trkpt><trkpt lat="63.87111664" lon="-21.16385269"><ele>1.8</ele><time>2012-07-27T18:53:43.0000000+00:00</time></trkpt><trkpt lat="63.87122345" lon="-21.16428947"><ele>1.8</ele><time>2012-07-27T18:53:48.0000000+00:00</time></trkpt><trkpt lat="63.87132645" lon="-21.16472054"><ele>2.1</ele><time>2012-07-27T18:53:53.0000000+00:00</time></trkpt><trkpt lat="63.87139511" lon="-21.16503334"><ele>2.3</ele><time>2012-07-27T18:53:58.0000000+00:00</time></trkpt><trkpt lat="63.87146759" lon="-21.16534424"><ele>2.4</ele><time>2012-07-27T18:54:03.0000000+00:00</time></trkpt><trkpt lat="63.87156296" lon="-21.16571808"><ele>2.4</ele><time>2012-07-27T18:54:08.0000000+00:00</time></trkpt><trkpt lat="63.87166977" lon="-21.16611862"><ele>3.0</ele><time>2012-07-27T18:54:13.0000000+00:00</time></trkpt><trkpt lat="63.87177277" lon="-21.16656494"><ele>3.3</ele><time>2012-07-27T18:54:18.0000000+00:00</time></trkpt><trkpt lat="63.8718605" lon="-21.16693115"><ele>3.5</ele><time>2012-07-27T18:54:23.0000000+00:00</time></trkpt><trkpt lat="63.87194443" lon="-21.16729736"><ele>4.0</ele><time>2012-07-27T18:54:28.0000000+00:00</time></trkpt><trkpt lat="63.87204742" lon="-21.16769028"><ele>4.1</ele><time>2012-07-27T18:54:33.0000000+00:00</time></trkpt><trkpt lat="63.87213898" lon="-21.16808701"><ele>4.1</ele><time>2012-07-27T18:54:38.0000000+00:00</time></trkpt><trkpt lat="63.87223816" lon="-21.16849327"><ele>3.1</ele><time>2012-07-27T18:54:43.0000000+00:00</time></trkpt><trkpt lat="63.8723259" lon="-21.16886902"><ele>2.8</ele><time>2012-07-27T18:54:48.0000000+00:00</time></trkpt><trkpt lat="63.87240601" lon="-21.16919708"><ele>3.2</ele><time>2012-07-27T18:54:53.0000000+00:00</time></trkpt><trkpt lat="63.87249756" lon="-21.16959572"><ele>2.9</ele><time>2012-07-27T18:54:58.0000000+00:00</time></trkpt><trkpt lat="63.87258911" lon="-21.17001343"><ele>2.8</ele><time>2012-07-27T18:55:03.0000000+00:00</time></trkpt><trkpt lat="63.87265396" lon="-21.17030907"><ele>2.7</ele><time>2012-07-27T18:55:08.0000000+00:00</time></trkpt><trkpt lat="63.87271118" lon="-21.17056274"><ele>3.1</ele><time>2012-07-27T18:55:13.0000000+00:00</time></trkpt><trkpt lat="63.87279892" lon="-21.17092514"><ele>3.1</ele><time>2012-07-27T18:55:18.0000000+00:00</time></trkpt><trkpt lat="63.87290573" lon="-21.17136192"><ele>2.9</ele><time>2012-07-27T18:55:23.0000000+00:00</time></trkpt><trkpt lat="63.87300873" lon="-21.17180443"><ele>2.6</ele><time>2012-07-27T18:55:28.0000000+00:00</time></trkpt><trkpt lat="63.87311173" lon="-21.17226601"><ele>2.7</ele><time>2012-07-27T18:55:33.0000000+00:00</time></trkpt><trkpt lat="63.87321472" lon="-21.17271614"><ele>2.6</ele><time>2012-07-27T18:55:38.0000000+00:00</time></trkpt><trkpt lat="63.87332535" lon="-21.17321205"><ele>2.3</ele><time>2012-07-27T18:55:43.0000000+00:00</time></trkpt><trkpt lat="63.8734169" lon="-21.17362404"><ele>2.2</ele><time>2012-07-27T18:55:48.0000000+00:00</time></trkpt><trkpt lat="63.8735199" lon="-21.17406845"><ele>2.1</ele><time>2012-07-27T18:55:53.0000000+00:00</time></trkpt><trkpt lat="63.87362671" lon="-21.17451668"><ele>1.3</ele><time>2012-07-27T18:55:58.0000000+00:00</time></trkpt><trkpt lat="63.87371445" lon="-21.17490006"><ele>1.6</ele><time>2012-07-27T18:56:03.0000000+00:00</time></trkpt><trkpt lat="63.873806" lon="-21.17531204"><ele>2.1</ele><time>2012-07-27T18:56:08.0000000+00:00</time></trkpt><trkpt lat="63.87390518" lon="-21.17572403"><ele>2.2</ele><time>2012-07-27T18:56:13.0000000+00:00</time></trkpt><trkpt lat="63.87398911" lon="-21.17615509"><ele>2.1</ele><time>2012-07-27T18:56:18.0000000+00:00</time></trkpt><trkpt lat="63.8740921" lon="-21.17658043"><ele>2.4</ele><time>2012-07-27T18:56:23.0000000+00:00</time></trkpt><trkpt lat="63.87418747" lon="-21.17700577"><ele>2.3</ele><time>2012-07-27T18:56:28.0000000+00:00</time></trkpt><trkpt lat="63.87429047" lon="-21.17744637"><ele>3.2</ele><time>2012-07-27T18:56:33.0000000+00:00</time></trkpt><trkpt lat="63.87438965" lon="-21.17788506"><ele>2.8</ele><time>2012-07-27T18:56:38.0000000+00:00</time></trkpt><trkpt lat="63.87448502" lon="-21.17831612"><ele>2.6</ele><time>2012-07-27T18:56:43.0000000+00:00</time></trkpt><trkpt lat="63.87457275" lon="-21.17873192"><ele>2.0</ele><time>2012-07-27T18:56:48.0000000+00:00</time></trkpt><trkpt lat="63.87467575" lon="-21.17916298"><ele>2.0</ele><time>2012-07-27T18:56:53.0000000+00:00</time></trkpt><trkpt lat="63.87475967" lon="-21.17951202"><ele>2.2</ele><time>2012-07-27T18:56:58.0000000+00:00</time></trkpt><trkpt lat="63.87483597" lon="-21.17986107"><ele>2.2</ele><time>2012-07-27T18:57:03.0000000+00:00</time></trkpt><trkpt lat="63.87492752" lon="-21.18026352"><ele>2.3</ele><time>2012-07-27T18:57:08.0000000+00:00</time></trkpt><trkpt lat="63.87502289" lon="-21.18070412"><ele>3.4</ele><time>2012-07-27T18:57:13.0000000+00:00</time></trkpt><trkpt lat="63.87512207" lon="-21.18112564"><ele>3.3</ele><time>2012-07-27T18:57:18.0000000+00:00</time></trkpt><trkpt lat="63.87520981" lon="-21.18149757"><ele>3.1</ele><time>2012-07-27T18:57:23.0000000+00:00</time></trkpt><trkpt lat="63.87531281" lon="-21.18195725"><ele>3.0</ele><time>2012-07-27T18:57:28.0000000+00:00</time></trkpt><trkpt lat="63.8754158" lon="-21.1824131"><ele>3.0</ele><time>2012-07-27T18:57:33.0000000+00:00</time></trkpt><trkpt lat="63.87550736" lon="-21.18284035"><ele>2.8</ele><time>2012-07-27T18:57:38.0000000+00:00</time></trkpt><trkpt lat="63.87561035" lon="-21.18329239"><ele>2.9</ele><time>2012-07-27T18:57:43.0000000+00:00</time></trkpt><trkpt lat="63.87571716" lon="-21.1837616"><ele>2.8</ele><time>2012-07-27T18:57:48.0000000+00:00</time></trkpt><trkpt lat="63.87581253" lon="-21.18417168"><ele>3.0</ele><time>2012-07-27T18:57:53.0000000+00:00</time></trkpt><trkpt lat="63.87589645" lon="-21.18455696"><ele>2.8</ele><time>2012-07-27T18:57:58.0000000+00:00</time></trkpt><trkpt lat="63.87599182" lon="-21.18497276"><ele>3.0</ele><time>2012-07-27T18:58:03.0000000+00:00</time></trkpt><trkpt lat="63.87609863" lon="-21.18540382"><ele>2.8</ele><time>2012-07-27T18:58:08.0000000+00:00</time></trkpt><trkpt lat="63.87618637" lon="-21.18574715"><ele>3.1</ele><time>2012-07-27T18:58:13.0000000+00:00</time></trkpt><trkpt lat="63.87628555" lon="-21.1860981"><ele>3.4</ele><time>2012-07-27T18:58:18.0000000+00:00</time></trkpt><trkpt lat="63.87637711" lon="-21.1864357"><ele>3.0</ele><time>2012-07-27T18:58:23.0000000+00:00</time></trkpt><trkpt lat="63.87648773" lon="-21.18680763"><ele>3.1</ele><time>2012-07-27T18:58:28.0000000+00:00</time></trkpt><trkpt lat="63.87661362" lon="-21.18719673"><ele>3.5</ele><time>2012-07-27T18:58:33.0000000+00:00</time></trkpt><trkpt lat="63.87675476" lon="-21.18761253"><ele>3.5</ele><time>2012-07-27T18:58:38.0000000+00:00</time></trkpt><trkpt lat="63.87688446" lon="-21.18798256"><ele>4.6</ele><time>2012-07-27T18:58:43.0000000+00:00</time></trkpt><trkpt lat="63.8769722" lon="-21.18821907"><ele>5.5</ele><time>2012-07-27T18:58:48.0000000+00:00</time></trkpt><trkpt lat="63.87698746" lon="-21.18821716"><ele>5.2</ele><time>2012-07-27T18:58:53.0000000+00:00</time></trkpt><trkpt lat="63.87699127" lon="-21.18821335"><ele>5.0</ele><time>2012-07-27T18:58:58.0000000+00:00</time></trkpt><trkpt lat="63.87699127" lon="-21.18821144"><ele>5.0</ele><time>2012-07-27T18:59:03.0000000+00:00</time></trkpt><trkpt lat="63.87699127" lon="-21.18820953"><ele>5.1</ele><time>2012-07-27T18:59:08.0000000+00:00</time></trkpt><trkpt lat="63.87699127" lon="-21.18820953"><ele>5.1</ele><time>2012-07-27T18:59:13.0000000+00:00</time></trkpt><trkpt lat="63.8769989" lon="-21.18821144"><ele>5.0</ele><time>2012-07-27T18:59:18.0000000+00:00</time></trkpt><trkpt lat="63.87702942" lon="-21.18835831"><ele>5.7</ele><time>2012-07-27T18:59:23.0000000+00:00</time></trkpt><trkpt lat="63.87714005" lon="-21.18862724"><ele>5.7</ele><time>2012-07-27T18:59:28.0000000+00:00</time></trkpt><trkpt lat="63.87727356" lon="-21.18893433"><ele>5.2</ele><time>2012-07-27T18:59:33.0000000+00:00</time></trkpt><trkpt lat="63.87739945" lon="-21.18922234"><ele>5.1</ele><time>2012-07-27T18:59:38.0000000+00:00</time></trkpt><trkpt lat="63.87753296" lon="-21.18950272"><ele>5.1</ele><time>2012-07-27T18:59:43.0000000+00:00</time></trkpt><trkpt lat="63.87767029" lon="-21.18977165"><ele>5.2</ele><time>2012-07-27T18:59:48.0000000+00:00</time></trkpt><trkpt lat="63.87781143" lon="-21.19002724"><ele>5.5</ele><time>2012-07-27T18:59:53.0000000+00:00</time></trkpt><trkpt lat="63.87790299" lon="-21.19021225"><ele>5.3</ele><time>2012-07-27T18:59:58.0000000+00:00</time></trkpt><trkpt lat="63.87800598" lon="-21.19039154"><ele>5.7</ele><time>2012-07-27T19:00:03.0000000+00:00</time></trkpt><trkpt lat="63.87804031" lon="-21.19043541"><ele>5.2</ele><time>2012-07-27T19:00:08.0000000+00:00</time></trkpt><trkpt lat="63.8780365" lon="-21.1904335"><ele>5.5</ele><time>2012-07-27T19:00:13.0000000+00:00</time></trkpt><trkpt lat="63.8780365" lon="-21.1904335"><ele>5.5</ele><time>2012-07-27T19:00:18.0000000+00:00</time></trkpt><trkpt lat="63.8780365" lon="-21.19042587"><ele>5.4</ele><time>2012-07-27T19:00:23.0000000+00:00</time></trkpt><trkpt lat="63.8780365" lon="-21.19042587"><ele>5.4</ele><time>2012-07-27T19:00:28.0000000+00:00</time></trkpt><trkpt lat="63.8780365" lon="-21.19042587"><ele>5.4</ele><time>2012-07-27T19:00:33.0000000+00:00</time></trkpt><trkpt lat="63.8780365" lon="-21.19042969"><ele>5.4</ele><time>2012-07-27T19:00:38.0000000+00:00</time></trkpt><trkpt lat="63.8780365" lon="-21.19042778"><ele>5.4</ele><time>2012-07-27T19:00:43.0000000+00:00</time></trkpt><trkpt lat="63.8780365" lon="-21.19042778"><ele>5.4</ele><time>2012-07-27T19:00:48.0000000+00:00</time></trkpt><trkpt lat="63.8780365" lon="-21.19042778"><ele>5.4</ele><time>2012-07-27T19:00:53.0000000+00:00</time></trkpt><trkpt lat="63.8780365" lon="-21.19042778"><ele>5.4</ele><time>2012-07-27T19:00:58.0000000+00:00</time></trkpt><trkpt lat="63.8780365" lon="-21.19042778"><ele>5.4</ele><time>2012-07-27T19:01:03.0000000+00:00</time></trkpt><trkpt lat="63.8780365" lon="-21.19042778"><ele>5.4</ele><time>2012-07-27T19:01:08.0000000+00:00</time></trkpt><trkpt lat="63.8780365" lon="-21.19042778"><ele>5.4</ele><time>2012-07-27T19:01:13.0000000+00:00</time></trkpt><trkpt lat="63.8780365" lon="-21.19042587"><ele>5.4</ele><time>2012-07-27T19:01:18.0000000+00:00</time></trkpt><trkpt lat="63.87804413" lon="-21.19041634"><ele>5.5</ele><time>2012-07-27T19:01:23.0000000+00:00</time></trkpt><trkpt lat="63.87805557" lon="-21.19046211"><ele>5.6</ele><time>2012-07-27T19:01:28.0000000+00:00</time></trkpt><trkpt lat="63.87806702" lon="-21.19051552"><ele>5.8</ele><time>2012-07-27T19:01:33.0000000+00:00</time></trkpt><trkpt lat="63.87807083" lon="-21.19052696"><ele>5.9</ele><time>2012-07-27T19:01:38.0000000+00:00</time></trkpt><trkpt lat="63.87811661" lon="-21.19060135"><ele>5.6</ele><time>2012-07-27T19:01:43.0000000+00:00</time></trkpt><trkpt lat="63.87821198" lon="-21.19077492"><ele>5.7</ele><time>2012-07-27T19:01:48.0000000+00:00</time></trkpt><trkpt lat="63.87833023" lon="-21.19097328"><ele>6.1</ele><time>2012-07-27T19:01:53.0000000+00:00</time></trkpt><trkpt lat="63.87843704" lon="-21.19117737"><ele>5.8</ele><time>2012-07-27T19:01:58.0000000+00:00</time></trkpt><trkpt lat="63.87854385" lon="-21.19137383"><ele>5.3</ele><time>2012-07-27T19:02:03.0000000+00:00</time></trkpt><trkpt lat="63.87866211" lon="-21.19158363"><ele>5.7</ele><time>2012-07-27T19:02:08.0000000+00:00</time></trkpt><trkpt lat="63.87877655" lon="-21.19182968"><ele>6.3</ele><time>2012-07-27T19:02:13.0000000+00:00</time></trkpt><trkpt lat="63.87888336" lon="-21.19206047"><ele>7.1</ele><time>2012-07-27T19:02:18.0000000+00:00</time></trkpt><trkpt lat="63.87900162" lon="-21.1923027"><ele>7.2</ele><time>2012-07-27T19:02:23.0000000+00:00</time></trkpt><trkpt lat="63.87909699" lon="-21.19256401"><ele>7.7</ele><time>2012-07-27T19:02:28.0000000+00:00</time></trkpt><trkpt lat="63.87920761" lon="-21.19282913"><ele>8.2</ele><time>2012-07-27T19:02:33.0000000+00:00</time></trkpt><trkpt lat="63.87931061" lon="-21.19309235"><ele>8.3</ele><time>2012-07-27T19:02:38.0000000+00:00</time></trkpt><trkpt lat="63.87940216" lon="-21.19335365"><ele>7.7</ele><time>2012-07-27T19:02:43.0000000+00:00</time></trkpt><trkpt lat="63.87948608" lon="-21.19363403"><ele>7.1</ele><time>2012-07-27T19:02:48.0000000+00:00</time></trkpt><trkpt lat="63.87957382" lon="-21.19394875"><ele>8.0</ele><time>2012-07-27T19:02:53.0000000+00:00</time></trkpt><trkpt lat="63.879673" lon="-21.19428062"><ele>8.1</ele><time>2012-07-27T19:02:58.0000000+00:00</time></trkpt><trkpt lat="63.87976837" lon="-21.19464111"><ele>8.0</ele><time>2012-07-27T19:03:03.0000000+00:00</time></trkpt><trkpt lat="63.87985992" lon="-21.19502068"><ele>7.8</ele><time>2012-07-27T19:03:08.0000000+00:00</time></trkpt><trkpt lat="63.87995148" lon="-21.19540215"><ele>7.9</ele><time>2012-07-27T19:03:13.0000000+00:00</time></trkpt><trkpt lat="63.88002777" lon="-21.19580078"><ele>7.3</ele><time>2012-07-27T19:03:18.0000000+00:00</time></trkpt><trkpt lat="63.88010407" lon="-21.1961937"><ele>7.8</ele><time>2012-07-27T19:03:23.0000000+00:00</time></trkpt><trkpt lat="63.88017654" lon="-21.19663429"><ele>8.0</ele><time>2012-07-27T19:03:28.0000000+00:00</time></trkpt><trkpt lat="63.88024902" lon="-21.19709969"><ele>8.1</ele><time>2012-07-27T19:03:33.0000000+00:00</time></trkpt><trkpt lat="63.88030243" lon="-21.1975708"><ele>7.9</ele><time>2012-07-27T19:03:38.0000000+00:00</time></trkpt><trkpt lat="63.88033676" lon="-21.19797325"><ele>8.1</ele><time>2012-07-27T19:03:43.0000000+00:00</time></trkpt><trkpt lat="63.88036346" lon="-21.19836617"><ele>8.4</ele><time>2012-07-27T19:03:48.0000000+00:00</time></trkpt><trkpt lat="63.88038635" lon="-21.19883919"><ele>9.0</ele><time>2012-07-27T19:03:53.0000000+00:00</time></trkpt><trkpt lat="63.88040924" lon="-21.19928742"><ele>9.3</ele><time>2012-07-27T19:03:58.0000000+00:00</time></trkpt><trkpt lat="63.88042069" lon="-21.19976425"><ele>9.8</ele><time>2012-07-27T19:04:03.0000000+00:00</time></trkpt><trkpt lat="63.88043213" lon="-21.2001152"><ele>10.7</ele><time>2012-07-27T19:04:08.0000000+00:00</time></trkpt><trkpt lat="63.88044357" lon="-21.20034027"><ele>10.9</ele><time>2012-07-27T19:04:13.0000000+00:00</time></trkpt><trkpt lat="63.88043976" lon="-21.20066261"><ele>10.9</ele><time>2012-07-27T19:04:18.0000000+00:00</time></trkpt><trkpt lat="63.88041687" lon="-21.20108032"><ele>11.1</ele><time>2012-07-27T19:04:23.0000000+00:00</time></trkpt><trkpt lat="63.88040543" lon="-21.20139885"><ele>11.4</ele><time>2012-07-27T19:04:28.0000000+00:00</time></trkpt><trkpt lat="63.88040543" lon="-21.20159912"><ele>12.0</ele><time>2012-07-27T19:04:33.0000000+00:00</time></trkpt><trkpt lat="63.88038635" lon="-21.2017746"><ele>12.3</ele><time>2012-07-27T19:04:38.0000000+00:00</time></trkpt><trkpt lat="63.88036346" lon="-21.20202065"><ele>11.9</ele><time>2012-07-27T19:04:43.0000000+00:00</time></trkpt><trkpt lat="63.88035202" lon="-21.20219612"><ele>11.7</ele><time>2012-07-27T19:04:48.0000000+00:00</time></trkpt><trkpt lat="63.88035965" lon="-21.20226097"><ele>10.8</ele><time>2012-07-27T19:04:53.0000000+00:00</time></trkpt><trkpt lat="63.88035584" lon="-21.20225906"><ele>10.0</ele><time>2012-07-27T19:04:58.0000000+00:00</time></trkpt><trkpt lat="63.88035584" lon="-21.20226097"><ele>9.8</ele><time>2012-07-27T19:05:03.0000000+00:00</time></trkpt><trkpt lat="63.88035584" lon="-21.20226288"><ele>9.8</ele><time>2012-07-27T19:05:08.0000000+00:00</time></trkpt><trkpt lat="63.88035584" lon="-21.20226288"><ele>9.7</ele><time>2012-07-27T19:05:13.0000000+00:00</time></trkpt><trkpt lat="63.88035584" lon="-21.20226288"><ele>9.8</ele><time>2012-07-27T19:05:18.0000000+00:00</time></trkpt><trkpt lat="63.88035584" lon="-21.20226097"><ele>9.9</ele><time>2012-07-27T19:05:23.0000000+00:00</time></trkpt><trkpt lat="63.88035584" lon="-21.20225906"><ele>9.9</ele><time>2012-07-27T19:05:28.0000000+00:00</time></trkpt><trkpt lat="63.88035584" lon="-21.20225906"><ele>9.9</ele><time>2012-07-27T19:05:33.0000000+00:00</time></trkpt><trkpt lat="63.88035584" lon="-21.20225906"><ele>10.0</ele><time>2012-07-27T19:05:38.0000000+00:00</time></trkpt><trkpt lat="63.88035584" lon="-21.20225906"><ele>10.0</ele><time>2012-07-27T19:05:43.0000000+00:00</time></trkpt><trkpt lat="63.88035584" lon="-21.20225906"><ele>10.0</ele><time>2012-07-27T19:05:48.0000000+00:00</time></trkpt><trkpt lat="63.88035584" lon="-21.20225906"><ele>10.0</ele><time>2012-07-27T19:05:53.0000000+00:00</time></trkpt><trkpt lat="63.88035584" lon="-21.20225906"><ele>10.0</ele><time>2012-07-27T19:05:58.0000000+00:00</time></trkpt><trkpt lat="63.88035584" lon="-21.20225716"><ele>10.0</ele><time>2012-07-27T19:06:03.0000000+00:00</time></trkpt><trkpt lat="63.88035584" lon="-21.20225716"><ele>10.0</ele><time>2012-07-27T19:06:08.0000000+00:00</time></trkpt><trkpt lat="63.88035584" lon="-21.20225716"><ele>10.0</ele><time>2012-07-27T19:06:13.0000000+00:00</time></trkpt><trkpt lat="63.88035584" lon="-21.20225716"><ele>10.0</ele><time>2012-07-27T19:06:18.0000000+00:00</time></trkpt><trkpt lat="63.88035584" lon="-21.20225716"><ele>10.0</ele><time>2012-07-27T19:06:23.0000000+00:00</time></trkpt><trkpt lat="63.88035584" lon="-21.20225716"><ele>10.0</ele><time>2012-07-27T19:06:28.0000000+00:00</time></trkpt><trkpt lat="63.88035584" lon="-21.20225716"><ele>10.0</ele><time>2012-07-27T19:06:33.0000000+00:00</time></trkpt><trkpt lat="63.88035584" lon="-21.20225525"><ele>10.0</ele><time>2012-07-27T19:06:38.0000000+00:00</time></trkpt><trkpt lat="63.88035584" lon="-21.20225525"><ele>10.0</ele><time>2012-07-27T19:06:43.0000000+00:00</time></trkpt><trkpt lat="63.88034439" lon="-21.20230293"><ele>10.3</ele><time>2012-07-27T19:06:48.0000000+00:00</time></trkpt><trkpt lat="63.88031769" lon="-21.20254135"><ele>11.2</ele><time>2012-07-27T19:06:53.0000000+00:00</time></trkpt><trkpt lat="63.88027954" lon="-21.20287323"><ele>11.4</ele><time>2012-07-27T19:06:58.0000000+00:00</time></trkpt><trkpt lat="63.88023377" lon="-21.20327568"><ele>12.1</ele><time>2012-07-27T19:07:03.0000000+00:00</time></trkpt><trkpt lat="63.88018417" lon="-21.20369148"><ele>12.6</ele><time>2012-07-27T19:07:08.0000000+00:00</time></trkpt><trkpt lat="63.88013077" lon="-21.20408058"><ele>13.3</ele><time>2012-07-27T19:07:13.0000000+00:00</time></trkpt><trkpt lat="63.88005066" lon="-21.20450783"><ele>13.9</ele><time>2012-07-27T19:07:18.0000000+00:00</time></trkpt><trkpt lat="63.87996674" lon="-21.20497704"><ele>14.8</ele><time>2012-07-27T19:07:23.0000000+00:00</time></trkpt><trkpt lat="63.87987518" lon="-21.20547485"><ele>15.4</ele><time>2012-07-27T19:07:28.0000000+00:00</time></trkpt><trkpt lat="63.87977982" lon="-21.20597267"><ele>15.2</ele><time>2012-07-27T19:07:33.0000000+00:00</time></trkpt><trkpt lat="63.879673" lon="-21.20646668"><ele>15.3</ele><time>2012-07-27T19:07:38.0000000+00:00</time></trkpt><trkpt lat="63.87957001" lon="-21.2069912"><ele>15.7</ele><time>2012-07-27T19:07:43.0000000+00:00</time></trkpt><trkpt lat="63.87946701" lon="-21.2074852"><ele>16.0</ele><time>2012-07-27T19:07:48.0000000+00:00</time></trkpt><trkpt lat="63.87938309" lon="-21.20788384"><ele>16.6</ele><time>2012-07-27T19:07:53.0000000+00:00</time></trkpt><trkpt lat="63.87930298" lon="-21.20832634"><ele>16.8</ele><time>2012-07-27T19:07:58.0000000+00:00</time></trkpt><trkpt lat="63.87921143" lon="-21.20881844"><ele>17.9</ele><time>2012-07-27T19:08:03.0000000+00:00</time></trkpt><trkpt lat="63.87911606" lon="-21.20931435"><ele>17.3</ele><time>2012-07-27T19:08:08.0000000+00:00</time></trkpt><trkpt lat="63.87901306" lon="-21.20983887"><ele>17.8</ele><time>2012-07-27T19:08:13.0000000+00:00</time></trkpt><trkpt lat="63.87891007" lon="-21.21036911"><ele>18.7</ele><time>2012-07-27T19:08:18.0000000+00:00</time></trkpt><trkpt lat="63.87881851" lon="-21.2109375"><ele>22.1</ele><time>2012-07-27T19:08:23.0000000+00:00</time></trkpt><trkpt lat="63.8787117" lon="-21.21148109"><ele>22.2</ele><time>2012-07-27T19:08:28.0000000+00:00</time></trkpt><trkpt lat="63.87860107" lon="-21.21201134"><ele>22.8</ele><time>2012-07-27T19:08:33.0000000+00:00</time></trkpt><trkpt lat="63.87849808" lon="-21.21253586"><ele>23.4</ele><time>2012-07-27T19:08:38.0000000+00:00</time></trkpt><trkpt lat="63.87838364" lon="-21.21307373"><ele>23.3</ele><time>2012-07-27T19:08:43.0000000+00:00</time></trkpt><trkpt lat="63.87830353" lon="-21.21361733"><ele>21.9</ele><time>2012-07-27T19:08:48.0000000+00:00</time></trkpt><trkpt lat="63.87822723" lon="-21.21421433"><ele>20.9</ele><time>2012-07-27T19:08:53.0000000+00:00</time></trkpt><trkpt lat="63.87815476" lon="-21.21482658"><ele>19.9</ele><time>2012-07-27T19:08:58.0000000+00:00</time></trkpt><trkpt lat="63.87809753" lon="-21.21547699"><ele>19.1</ele><time>2012-07-27T19:09:03.0000000+00:00</time></trkpt><trkpt lat="63.87806702" lon="-21.21606827"><ele>18.1</ele><time>2012-07-27T19:09:08.0000000+00:00</time></trkpt><trkpt lat="63.87804031" lon="-21.21666718"><ele>17.7</ele><time>2012-07-27T19:09:13.0000000+00:00</time></trkpt><trkpt lat="63.8780365" lon="-21.21715736"><ele>17.3</ele><time>2012-07-27T19:09:18.0000000+00:00</time></trkpt><trkpt lat="63.87803268" lon="-21.21731377"><ele>17.1</ele><time>2012-07-27T19:09:23.0000000+00:00</time></trkpt><trkpt lat="63.87796783" lon="-21.21728516"><ele>16.5</ele><time>2012-07-27T19:09:28.0000000+00:00</time></trkpt><trkpt lat="63.87782288" lon="-21.21721649"><ele>15.3</ele><time>2012-07-27T19:09:33.0000000+00:00</time></trkpt><trkpt lat="63.87773132" lon="-21.21727181"><ele>14.9</ele><time>2012-07-27T19:09:38.0000000+00:00</time></trkpt><trkpt lat="63.87773132" lon="-21.21727943"><ele>15.1</ele><time>2012-07-27T19:09:43.0000000+00:00</time></trkpt><trkpt lat="63.87773132" lon="-21.21727943"><ele>15.1</ele><time>2012-07-27T19:09:48.0000000+00:00</time></trkpt><trkpt lat="63.87773132" lon="-21.21727943"><ele>15.1</ele><time>2012-07-27T19:09:53.0000000+00:00</time></trkpt><trkpt lat="63.87773132" lon="-21.21727943"><ele>15.0</ele><time>2012-07-27T19:09:58.0000000+00:00</time></trkpt><trkpt lat="63.87773132" lon="-21.21727943"><ele>15.1</ele><time>2012-07-27T19:10:03.0000000+00:00</time></trkpt><trkpt lat="63.87773132" lon="-21.21727943"><ele>15.0</ele><time>2012-07-27T19:10:08.0000000+00:00</time></trkpt><trkpt lat="63.87773132" lon="-21.21727943"><ele>15.0</ele><time>2012-07-27T19:10:13.0000000+00:00</time></trkpt><trkpt lat="63.87773132" lon="-21.21727943"><ele>15.0</ele><time>2012-07-27T19:10:18.0000000+00:00</time></trkpt><trkpt lat="63.87773132" lon="-21.21727943"><ele>15.0</ele><time>2012-07-27T19:10:23.0000000+00:00</time></trkpt><trkpt lat="63.87773132" lon="-21.21727943"><ele>15.0</ele><time>2012-07-27T19:10:28.0000000+00:00</time></trkpt><trkpt lat="63.87773132" lon="-21.21727943"><ele>15.0</ele><time>2012-07-27T19:10:33.0000000+00:00</time></trkpt><trkpt lat="63.87773132" lon="-21.21727943"><ele>15.0</ele><time>2012-07-27T19:10:38.0000000+00:00</time></trkpt><trkpt lat="63.87773132" lon="-21.21727943"><ele>15.0</ele><time>2012-07-27T19:10:43.0000000+00:00</time></trkpt><trkpt lat="63.87773132" lon="-21.21727943"><ele>15.0</ele><time>2012-07-27T19:10:48.0000000+00:00</time></trkpt><trkpt lat="63.87773132" lon="-21.21727943"><ele>15.0</ele><time>2012-07-27T19:10:53.0000000+00:00</time></trkpt><trkpt lat="63.87773132" lon="-21.21727943"><ele>15.0</ele><time>2012-07-27T19:10:58.0000000+00:00</time></trkpt><trkpt lat="63.87773132" lon="-21.21727943"><ele>15.0</ele><time>2012-07-27T19:11:03.0000000+00:00</time></trkpt><trkpt lat="63.87773132" lon="-21.21727943"><ele>15.0</ele><time>2012-07-27T19:11:08.0000000+00:00</time></trkpt><trkpt lat="63.87773132" lon="-21.21728134"><ele>15.0</ele><time>2012-07-27T19:11:13.0000000+00:00</time></trkpt><trkpt lat="63.87773132" lon="-21.21728134"><ele>15.0</ele><time>2012-07-27T19:11:18.0000000+00:00</time></trkpt><trkpt lat="63.87773132" lon="-21.21728134"><ele>15.0</ele><time>2012-07-27T19:11:23.0000000+00:00</time></trkpt><trkpt lat="63.87773132" lon="-21.21728134"><ele>15.0</ele><time>2012-07-27T19:11:28.0000000+00:00</time></trkpt><trkpt lat="63.87773132" lon="-21.21728134"><ele>15.0</ele><time>2012-07-27T19:11:33.0000000+00:00</time></trkpt><trkpt lat="63.87773132" lon="-21.21728134"><ele>15.0</ele><time>2012-07-27T19:11:38.0000000+00:00</time></trkpt><trkpt lat="63.87773132" lon="-21.21728134"><ele>15.0</ele><time>2012-07-27T19:11:43.0000000+00:00</time></trkpt><trkpt lat="63.87773132" lon="-21.21728134"><ele>15.0</ele><time>2012-07-27T19:11:48.0000000+00:00</time></trkpt><trkpt lat="63.87773132" lon="-21.21728134"><ele>15.0</ele><time>2012-07-27T19:11:53.0000000+00:00</time></trkpt><trkpt lat="63.87773132" lon="-21.21728134"><ele>15.0</ele><time>2012-07-27T19:11:58.0000000+00:00</time></trkpt><trkpt lat="63.87773132" lon="-21.21728134"><ele>15.0</ele><time>2012-07-27T19:12:03.0000000+00:00</time></trkpt><trkpt lat="63.87773132" lon="-21.21728134"><ele>15.0</ele><time>2012-07-27T19:12:08.0000000+00:00</time></trkpt><trkpt lat="63.87773132" lon="-21.21728134"><ele>15.0</ele><time>2012-07-27T19:12:13.0000000+00:00</time></trkpt><trkpt lat="63.87773132" lon="-21.21728325"><ele>15.0</ele><time>2012-07-27T19:12:18.0000000+00:00</time></trkpt><trkpt lat="63.87773132" lon="-21.21728325"><ele>15.0</ele><time>2012-07-27T19:12:23.0000000+00:00</time></trkpt><trkpt lat="63.87773132" lon="-21.21728325"><ele>15.0</ele><time>2012-07-27T19:12:28.0000000+00:00</time></trkpt><trkpt lat="63.87773132" lon="-21.21728325"><ele>15.0</ele><time>2012-07-27T19:12:33.0000000+00:00</time></trkpt><trkpt lat="63.87773132" lon="-21.21728325"><ele>15.0</ele><time>2012-07-27T19:12:38.0000000+00:00</time></trkpt><trkpt lat="63.87773132" lon="-21.21728325"><ele>15.0</ele><time>2012-07-27T19:12:43.0000000+00:00</time></trkpt><trkpt lat="63.87773132" lon="-21.21728325"><ele>15.0</ele><time>2012-07-27T19:12:48.0000000+00:00</time></trkpt><trkpt lat="63.87773132" lon="-21.21728325"><ele>15.0</ele><time>2012-07-27T19:12:53.0000000+00:00</time></trkpt><trkpt lat="63.87773132" lon="-21.21728325"><ele>15.0</ele><time>2012-07-27T19:12:58.0000000+00:00</time></trkpt><trkpt lat="63.87773132" lon="-21.21728325"><ele>15.0</ele><time>2012-07-27T19:13:03.0000000+00:00</time></trkpt><trkpt lat="63.87773132" lon="-21.21728325"><ele>15.0</ele><time>2012-07-27T19:13:08.0000000+00:00</time></trkpt><trkpt lat="63.87773132" lon="-21.21728516"><ele>15.0</ele><time>2012-07-27T19:13:13.0000000+00:00</time></trkpt><trkpt lat="63.87773132" lon="-21.21728516"><ele>15.0</ele><time>2012-07-27T19:13:18.0000000+00:00</time></trkpt><trkpt lat="63.87773132" lon="-21.21728516"><ele>15.0</ele><time>2012-07-27T19:13:23.0000000+00:00</time></trkpt><trkpt lat="63.87773132" lon="-21.21728516"><ele>15.0</ele><time>2012-07-27T19:13:28.0000000+00:00</time></trkpt><trkpt lat="63.87773132" lon="-21.21728516"><ele>15.0</ele><time>2012-07-27T19:13:33.0000000+00:00</time></trkpt><trkpt lat="63.87773132" lon="-21.21728516"><ele>15.0</ele><time>2012-07-27T19:13:38.0000000+00:00</time></trkpt><trkpt lat="63.87773132" lon="-21.21728516"><ele>15.0</ele><time>2012-07-27T19:13:43.0000000+00:00</time></trkpt><trkpt lat="63.87773132" lon="-21.21728516"><ele>15.0</ele><time>2012-07-27T19:13:48.0000000+00:00</time></trkpt><trkpt lat="63.87773132" lon="-21.21728516"><ele>15.0</ele><time>2012-07-27T19:13:53.0000000+00:00</time></trkpt><trkpt lat="63.87773132" lon="-21.21728516"><ele>15.0</ele><time>2012-07-27T19:13:58.0000000+00:00</time></trkpt><trkpt lat="63.87773132" lon="-21.21728516"><ele>15.1</ele><time>2012-07-27T19:14:03.0000000+00:00</time></trkpt><trkpt lat="63.87773132" lon="-21.21728516"><ele>15.0</ele><time>2012-07-27T19:14:08.0000000+00:00</time></trkpt><trkpt lat="63.87773132" lon="-21.21728706"><ele>15.0</ele><time>2012-07-27T19:14:13.0000000+00:00</time></trkpt><trkpt lat="63.87773132" lon="-21.21728706"><ele>15.1</ele><time>2012-07-27T19:14:18.0000000+00:00</time></trkpt><trkpt lat="63.87773132" lon="-21.21728706"><ele>15.1</ele><time>2012-07-27T19:14:23.0000000+00:00</time></trkpt><trkpt lat="63.87773132" lon="-21.21728706"><ele>15.1</ele><time>2012-07-27T19:14:28.0000000+00:00</time></trkpt><trkpt lat="63.87773132" lon="-21.21728706"><ele>15.1</ele><time>2012-07-27T19:14:33.0000000+00:00</time></trkpt><trkpt lat="63.87773132" lon="-21.21728706"><ele>15.1</ele><time>2012-07-27T19:14:38.0000000+00:00</time></trkpt><trkpt lat="63.87773132" lon="-21.21728706"><ele>15.1</ele><time>2012-07-27T19:14:43.0000000+00:00</time></trkpt><trkpt lat="63.87773132" lon="-21.21728706"><ele>15.1</ele><time>2012-07-27T19:14:48.0000000+00:00</time></trkpt><trkpt lat="63.87773132" lon="-21.21728706"><ele>15.1</ele><time>2012-07-27T19:14:53.0000000+00:00</time></trkpt><trkpt lat="63.87773132" lon="-21.21728706"><ele>15.1</ele><time>2012-07-27T19:14:58.0000000+00:00</time></trkpt><trkpt lat="63.87773132" lon="-21.21728706"><ele>15.1</ele><time>2012-07-27T19:15:03.0000000+00:00</time></trkpt><trkpt lat="63.87773132" lon="-21.21728706"><ele>15.1</ele><time>2012-07-27T19:15:08.0000000+00:00</time></trkpt><trkpt lat="63.87773132" lon="-21.21728706"><ele>15.1</ele><time>2012-07-27T19:15:13.0000000+00:00</time></trkpt><trkpt lat="63.87773132" lon="-21.21728706"><ele>15.1</ele><time>2012-07-27T19:15:18.0000000+00:00</time></trkpt><trkpt lat="63.87773132" lon="-21.21728706"><ele>15.1</ele><time>2012-07-27T19:15:23.0000000+00:00</time></trkpt><trkpt lat="63.87773132" lon="-21.21728706"><ele>15.1</ele><time>2012-07-27T19:15:28.0000000+00:00</time></trkpt><trkpt lat="63.87773132" lon="-21.21728706"><ele>15.1</ele><time>2012-07-27T19:15:33.0000000+00:00</time></trkpt><trkpt lat="63.87773132" lon="-21.21728706"><ele>15.1</ele><time>2012-07-27T19:15:38.0000000+00:00</time></trkpt><trkpt lat="63.87773132" lon="-21.21728706"><ele>15.1</ele><time>2012-07-27T19:15:43.0000000+00:00</time></trkpt><trkpt lat="63.87773132" lon="-21.21728706"><ele>15.1</ele><time>2012-07-27T19:15:48.0000000+00:00</time></trkpt><trkpt lat="63.87773132" lon="-21.21728706"><ele>15.1</ele><time>2012-07-27T19:15:53.0000000+00:00</time></trkpt><trkpt lat="63.87773132" lon="-21.21728706"><ele>15.1</ele><time>2012-07-27T19:15:58.0000000+00:00</time></trkpt><trkpt lat="63.87773132" lon="-21.21728897"><ele>15.1</ele><time>2012-07-27T19:16:03.0000000+00:00</time></trkpt><trkpt lat="63.87773132" lon="-21.21728897"><ele>15.0</ele><time>2012-07-27T19:16:08.0000000+00:00</time></trkpt><trkpt lat="63.87773132" lon="-21.21728897"><ele>15.0</ele><time>2012-07-27T19:16:13.0000000+00:00</time></trkpt><trkpt lat="63.87773132" lon="-21.21728897"><ele>15.0</ele><time>2012-07-27T19:16:18.0000000+00:00</time></trkpt><trkpt lat="63.87773514" lon="-21.21728706"><ele>15.0</ele><time>2012-07-27T19:16:23.0000000+00:00</time></trkpt><trkpt lat="63.87773514" lon="-21.21728706"><ele>15.0</ele><time>2012-07-27T19:16:28.0000000+00:00</time></trkpt><trkpt lat="63.87773514" lon="-21.21728897"><ele>15.0</ele><time>2012-07-27T19:16:33.0000000+00:00</time></trkpt><trkpt lat="63.87773514" lon="-21.21728706"><ele>15.0</ele><time>2012-07-27T19:16:38.0000000+00:00</time></trkpt><trkpt lat="63.87773514" lon="-21.21728706"><ele>15.0</ele><time>2012-07-27T19:16:43.0000000+00:00</time></trkpt><trkpt lat="63.87773132" lon="-21.21728897"><ele>15.0</ele><time>2012-07-27T19:16:48.0000000+00:00</time></trkpt><trkpt lat="63.87773132" lon="-21.21728897"><ele>15.0</ele><time>2012-07-27T19:16:53.0000000+00:00</time></trkpt><trkpt lat="63.87773132" lon="-21.21728897"><ele>15.0</ele><time>2012-07-27T19:16:58.0000000+00:00</time></trkpt><trkpt lat="63.87773132" lon="-21.21728897"><ele>15.0</ele><time>2012-07-27T19:17:03.0000000+00:00</time></trkpt><trkpt lat="63.87773132" lon="-21.21728897"><ele>15.0</ele><time>2012-07-27T19:17:08.0000000+00:00</time></trkpt><trkpt lat="63.87773132" lon="-21.21728897"><ele>15.0</ele><time>2012-07-27T19:17:13.0000000+00:00</time></trkpt><trkpt lat="63.87773132" lon="-21.21728897"><ele>15.0</ele><time>2012-07-27T19:17:18.0000000+00:00</time></trkpt><trkpt lat="63.87773132" lon="-21.21728897"><ele>15.0</ele><time>2012-07-27T19:17:23.0000000+00:00</time></trkpt><trkpt lat="63.87773132" lon="-21.21728897"><ele>15.1</ele><time>2012-07-27T19:17:28.0000000+00:00</time></trkpt><trkpt lat="63.87773132" lon="-21.21728897"><ele>15.1</ele><time>2012-07-27T19:17:33.0000000+00:00</time></trkpt><trkpt lat="63.87773132" lon="-21.21728897"><ele>15.0</ele><time>2012-07-27T19:17:38.0000000+00:00</time></trkpt><trkpt lat="63.87773132" lon="-21.21728897"><ele>15.0</ele><time>2012-07-27T19:17:43.0000000+00:00</time></trkpt><trkpt lat="63.87773132" lon="-21.21728897"><ele>15.0</ele><time>2012-07-27T19:17:48.0000000+00:00</time></trkpt><trkpt lat="63.87773132" lon="-21.21728897"><ele>15.0</ele><time>2012-07-27T19:17:53.0000000+00:00</time></trkpt><trkpt lat="63.87773132" lon="-21.21728897"><ele>15.1</ele><time>2012-07-27T19:17:58.0000000+00:00</time></trkpt><trkpt lat="63.87773514" lon="-21.2172699"><ele>14.7</ele><time>2012-07-27T19:18:03.0000000+00:00</time></trkpt><trkpt lat="63.87774277" lon="-21.21726608"><ele>14.7</ele><time>2012-07-27T19:18:08.0000000+00:00</time></trkpt><trkpt lat="63.8777771" lon="-21.21724892"><ele>14.5</ele><time>2012-07-27T19:18:13.0000000+00:00</time></trkpt><trkpt lat="63.87783051" lon="-21.21722221"><ele>14.3</ele><time>2012-07-27T19:18:18.0000000+00:00</time></trkpt><trkpt lat="63.8778801" lon="-21.21722412"><ele>14.0</ele><time>2012-07-27T19:18:23.0000000+00:00</time></trkpt><trkpt lat="63.87792969" lon="-21.21720886"><ele>14.0</ele><time>2012-07-27T19:18:28.0000000+00:00</time></trkpt><trkpt lat="63.87798309" lon="-21.21722794"><ele>14.3</ele><time>2012-07-27T19:18:33.0000000+00:00</time></trkpt><trkpt lat="63.87802124" lon="-21.21730804"><ele>14.1</ele><time>2012-07-27T19:18:38.0000000+00:00</time></trkpt><trkpt lat="63.87802124" lon="-21.21732903"><ele>14.1</ele><time>2012-07-27T19:18:43.0000000+00:00</time></trkpt><trkpt lat="63.87802124" lon="-21.21733475"><ele>14.1</ele><time>2012-07-27T19:18:48.0000000+00:00</time></trkpt><trkpt lat="63.87802124" lon="-21.21741486"><ele>13.7</ele><time>2012-07-27T19:18:53.0000000+00:00</time></trkpt><trkpt lat="63.87803268" lon="-21.21762657"><ele>13.5</ele><time>2012-07-27T19:18:58.0000000+00:00</time></trkpt><trkpt lat="63.87804794" lon="-21.21798706"><ele>13.1</ele><time>2012-07-27T19:19:03.0000000+00:00</time></trkpt><trkpt lat="63.87806702" lon="-21.21837807"><ele>12.9</ele><time>2012-07-27T19:19:08.0000000+00:00</time></trkpt><trkpt lat="63.87808609" lon="-21.21880341"><ele>12.8</ele><time>2012-07-27T19:19:13.0000000+00:00</time></trkpt><trkpt lat="63.87812424" lon="-21.21923256"><ele>12.3</ele><time>2012-07-27T19:19:18.0000000+00:00</time></trkpt><trkpt lat="63.8781662" lon="-21.21965027"><ele>12.2</ele><time>2012-07-27T19:19:23.0000000+00:00</time></trkpt><trkpt lat="63.87822342" lon="-21.22007942"><ele>12.3</ele><time>2012-07-27T19:19:28.0000000+00:00</time></trkpt><trkpt lat="63.87828064" lon="-21.22050476"><ele>12.0</ele><time>2012-07-27T19:19:33.0000000+00:00</time></trkpt><trkpt lat="63.87833786" lon="-21.22086334"><ele>12.0</ele><time>2012-07-27T19:19:38.0000000+00:00</time></trkpt><trkpt lat="63.87841034" lon="-21.22123146"><ele>12.0</ele><time>2012-07-27T19:19:43.0000000+00:00</time></trkpt><trkpt lat="63.87849808" lon="-21.22164726"><ele>12.0</ele><time>2012-07-27T19:19:48.0000000+00:00</time></trkpt><trkpt lat="63.87860489" lon="-21.22208405"><ele>11.7</ele><time>2012-07-27T19:19:53.0000000+00:00</time></trkpt><trkpt lat="63.87869263" lon="-21.22244644"><ele>11.5</ele><time>2012-07-27T19:19:58.0000000+00:00</time></trkpt><trkpt lat="63.87878037" lon="-21.22280693"><ele>12.3</ele><time>2012-07-27T19:20:03.0000000+00:00</time></trkpt><trkpt lat="63.87887192" lon="-21.22312927"><ele>12.8</ele><time>2012-07-27T19:20:08.0000000+00:00</time></trkpt><trkpt lat="63.87892151" lon="-21.22335434"><ele>13.4</ele><time>2012-07-27T19:20:13.0000000+00:00</time></trkpt><trkpt lat="63.87895584" lon="-21.22348213"><ele>13.3</ele><time>2012-07-27T19:20:18.0000000+00:00</time></trkpt><trkpt lat="63.87899017" lon="-21.22359848"><ele>12.8</ele><time>2012-07-27T19:20:23.0000000+00:00</time></trkpt><trkpt lat="63.87901688" lon="-21.22360039"><ele>13.4</ele><time>2012-07-27T19:20:28.0000000+00:00</time></trkpt><trkpt lat="63.87901688" lon="-21.2236023"><ele>13.3</ele><time>2012-07-27T19:20:33.0000000+00:00</time></trkpt><trkpt lat="63.87901688" lon="-21.2236023"><ele>13.3</ele><time>2012-07-27T19:20:38.0000000+00:00</time></trkpt><trkpt lat="63.87901688" lon="-21.22360039"><ele>13.3</ele><time>2012-07-27T19:20:43.0000000+00:00</time></trkpt><trkpt lat="63.87904358" lon="-21.22373009"><ele>12.6</ele><time>2012-07-27T19:20:48.0000000+00:00</time></trkpt><trkpt lat="63.87909699" lon="-21.22391892"><ele>12.5</ele><time>2012-07-27T19:20:53.0000000+00:00</time></trkpt><trkpt lat="63.87916565" lon="-21.22414589"><ele>12.6</ele><time>2012-07-27T19:20:58.0000000+00:00</time></trkpt><trkpt lat="63.87921524" lon="-21.22433662"><ele>12.4</ele><time>2012-07-27T19:21:03.0000000+00:00</time></trkpt><trkpt lat="63.87924576" lon="-21.22444344"><ele>13.4</ele><time>2012-07-27T19:21:08.0000000+00:00</time></trkpt><trkpt lat="63.87929535" lon="-21.22462463"><ele>13.3</ele><time>2012-07-27T19:21:13.0000000+00:00</time></trkpt><trkpt lat="63.87935257" lon="-21.22484016"><ele>13.2</ele><time>2012-07-27T19:21:18.0000000+00:00</time></trkpt><trkpt lat="63.87940598" lon="-21.22507858"><ele>12.5</ele><time>2012-07-27T19:21:23.0000000+00:00</time></trkpt><trkpt lat="63.87948227" lon="-21.22540665"><ele>12.6</ele><time>2012-07-27T19:21:28.0000000+00:00</time></trkpt><trkpt lat="63.87957764" lon="-21.22579384"><ele>12.0</ele><time>2012-07-27T19:21:33.0000000+00:00</time></trkpt><trkpt lat="63.87966538" lon="-21.2262001"><ele>12.0</ele><time>2012-07-27T19:21:38.0000000+00:00</time></trkpt><trkpt lat="63.87975311" lon="-21.22661591"><ele>12.0</ele><time>2012-07-27T19:21:43.0000000+00:00</time></trkpt><trkpt lat="63.87983704" lon="-21.22706413"><ele>11.8</ele><time>2012-07-27T19:21:48.0000000+00:00</time></trkpt><trkpt lat="63.8799057" lon="-21.22742653"><ele>11.2</ele><time>2012-07-27T19:21:53.0000000+00:00</time></trkpt><trkpt lat="63.87995529" lon="-21.22768402"><ele>10.9</ele><time>2012-07-27T19:21:58.0000000+00:00</time></trkpt><trkpt lat="63.87998581" lon="-21.22792816"><ele>10.6</ele><time>2012-07-27T19:22:03.0000000+00:00</time></trkpt><trkpt lat="63.88002777" lon="-21.22827721"><ele>9.6</ele><time>2012-07-27T19:22:08.0000000+00:00</time></trkpt><trkpt lat="63.88008118" lon="-21.2285881"><ele>9.7</ele><time>2012-07-27T19:22:13.0000000+00:00</time></trkpt><trkpt lat="63.88011551" lon="-21.22881508"><ele>10.1</ele><time>2012-07-27T19:22:18.0000000+00:00</time></trkpt><trkpt lat="63.88014603" lon="-21.22896004"><ele>10.8</ele><time>2012-07-27T19:22:23.0000000+00:00</time></trkpt><trkpt lat="63.88016892" lon="-21.22908402"><ele>11.5</ele><time>2012-07-27T19:22:28.0000000+00:00</time></trkpt><trkpt lat="63.88019943" lon="-21.22924995"><ele>12.1</ele><time>2012-07-27T19:22:33.0000000+00:00</time></trkpt><trkpt lat="63.88025284" lon="-21.22951698"><ele>11.9</ele><time>2012-07-27T19:22:38.0000000+00:00</time></trkpt><trkpt lat="63.88029862" lon="-21.22973251"><ele>12.0</ele><time>2012-07-27T19:22:43.0000000+00:00</time></trkpt><trkpt lat="63.88032913" lon="-21.22991562"><ele>11.8</ele><time>2012-07-27T19:22:48.0000000+00:00</time></trkpt><trkpt lat="63.88037872" lon="-21.23018456"><ele>12.4</ele><time>2012-07-27T19:22:53.0000000+00:00</time></trkpt><trkpt lat="63.88041687" lon="-21.2304306"><ele>12.4</ele><time>2012-07-27T19:22:58.0000000+00:00</time></trkpt><trkpt lat="63.88045883" lon="-21.23069"><ele>12.6</ele><time>2012-07-27T19:23:03.0000000+00:00</time></trkpt><trkpt lat="63.88050461" lon="-21.23095703"><ele>12.5</ele><time>2012-07-27T19:23:08.0000000+00:00</time></trkpt><trkpt lat="63.88054657" lon="-21.23122215"><ele>12.6</ele><time>2012-07-27T19:23:13.0000000+00:00</time></trkpt><trkpt lat="63.88058853" lon="-21.23151016"><ele>13.0</ele><time>2012-07-27T19:23:18.0000000+00:00</time></trkpt><trkpt lat="63.88062286" lon="-21.23174477"><ele>12.8</ele><time>2012-07-27T19:23:23.0000000+00:00</time></trkpt><trkpt lat="63.88065338" lon="-21.23191261"><ele>13.1</ele><time>2012-07-27T19:23:28.0000000+00:00</time></trkpt><trkpt lat="63.88069534" lon="-21.23215675"><ele>12.7</ele><time>2012-07-27T19:23:33.0000000+00:00</time></trkpt><trkpt lat="63.88074875" lon="-21.23247528"><ele>12.1</ele><time>2012-07-27T19:23:38.0000000+00:00</time></trkpt><trkpt lat="63.8808136" lon="-21.23282623"><ele>12.1</ele><time>2012-07-27T19:23:43.0000000+00:00</time></trkpt><trkpt lat="63.88088608" lon="-21.23323631"><ele>12.1</ele><time>2012-07-27T19:23:48.0000000+00:00</time></trkpt><trkpt lat="63.88096619" lon="-21.23366737"><ele>11.6</ele><time>2012-07-27T19:23:53.0000000+00:00</time></trkpt><trkpt lat="63.88103867" lon="-21.23410416"><ele>11.7</ele><time>2012-07-27T19:23:58.0000000+00:00</time></trkpt><trkpt lat="63.88111877" lon="-21.23454475"><ele>11.4</ele><time>2012-07-27T19:24:03.0000000+00:00</time></trkpt><trkpt lat="63.88118744" lon="-21.23498726"><ele>11.7</ele><time>2012-07-27T19:24:08.0000000+00:00</time></trkpt><trkpt lat="63.88126755" lon="-21.23542023"><ele>11.4</ele><time>2012-07-27T19:24:13.0000000+00:00</time></trkpt><trkpt lat="63.88134384" lon="-21.23581314"><ele>11.1</ele><time>2012-07-27T19:24:18.0000000+00:00</time></trkpt><trkpt lat="63.88141251" lon="-21.23623467"><ele>10.9</ele><time>2012-07-27T19:24:23.0000000+00:00</time></trkpt><trkpt lat="63.88150024" lon="-21.23670006"><ele>10.6</ele><time>2012-07-27T19:24:28.0000000+00:00</time></trkpt><trkpt lat="63.88158417" lon="-21.23716164"><ele>10.2</ele><time>2012-07-27T19:24:33.0000000+00:00</time></trkpt><trkpt lat="63.88166428" lon="-21.23760986"><ele>10.6</ele><time>2012-07-27T19:24:38.0000000+00:00</time></trkpt><trkpt lat="63.88175201" lon="-21.23806953"><ele>10.3</ele><time>2012-07-27T19:24:43.0000000+00:00</time></trkpt><trkpt lat="63.88183594" lon="-21.23853111"><ele>10.5</ele><time>2012-07-27T19:24:48.0000000+00:00</time></trkpt><trkpt lat="63.88192368" lon="-21.23898315"><ele>10.7</ele><time>2012-07-27T19:24:53.0000000+00:00</time></trkpt><trkpt lat="63.88200378" lon="-21.2394352"><ele>10.7</ele><time>2012-07-27T19:24:58.0000000+00:00</time></trkpt><trkpt lat="63.88208771" lon="-21.2398777"><ele>11.6</ele><time>2012-07-27T19:25:03.0000000+00:00</time></trkpt><trkpt lat="63.88217163" lon="-21.24032211"><ele>12.0</ele><time>2012-07-27T19:25:08.0000000+00:00</time></trkpt><trkpt lat="63.88225937" lon="-21.24076843"><ele>12.2</ele><time>2012-07-27T19:25:13.0000000+00:00</time></trkpt><trkpt lat="63.88233566" lon="-21.24115181"><ele>12.3</ele><time>2012-07-27T19:25:18.0000000+00:00</time></trkpt><trkpt lat="63.8824234" lon="-21.2415905"><ele>12.5</ele><time>2012-07-27T19:25:23.0000000+00:00</time></trkpt><trkpt lat="63.88251495" lon="-21.24205971"><ele>12.3</ele><time>2012-07-27T19:25:28.0000000+00:00</time></trkpt><trkpt lat="63.88260269" lon="-21.24247932"><ele>12.1</ele><time>2012-07-27T19:25:33.0000000+00:00</time></trkpt><trkpt lat="63.88269806" lon="-21.24294853"><ele>11.7</ele><time>2012-07-27T19:25:38.0000000+00:00</time></trkpt><trkpt lat="63.8827858" lon="-21.24337006"><ele>12.7</ele><time>2012-07-27T19:25:43.0000000+00:00</time></trkpt><trkpt lat="63.88287354" lon="-21.24382019"><ele>12.7</ele><time>2012-07-27T19:25:48.0000000+00:00</time></trkpt><trkpt lat="63.8829689" lon="-21.24431038"><ele>12.9</ele><time>2012-07-27T19:25:53.0000000+00:00</time></trkpt><trkpt lat="63.88305283" lon="-21.24472046"><ele>12.9</ele><time>2012-07-27T19:25:58.0000000+00:00</time></trkpt><trkpt lat="63.88313675" lon="-21.24515343"><ele>12.7</ele><time>2012-07-27T19:26:03.0000000+00:00</time></trkpt><trkpt lat="63.8832283" lon="-21.2455864"><ele>12.9</ele><time>2012-07-27T19:26:08.0000000+00:00</time></trkpt><trkpt lat="63.88328171" lon="-21.24583435"><ele>12.3</ele><time>2012-07-27T19:26:13.0000000+00:00</time></trkpt><trkpt lat="63.88330841" lon="-21.24596596"><ele>11.9</ele><time>2012-07-27T19:26:18.0000000+00:00</time></trkpt><trkpt lat="63.88337708" lon="-21.24625397"><ele>12.0</ele><time>2012-07-27T19:26:23.0000000+00:00</time></trkpt><trkpt lat="63.88345337" lon="-21.24663925"><ele>12.3</ele><time>2012-07-27T19:26:28.0000000+00:00</time></trkpt><trkpt lat="63.88354111" lon="-21.24704933"><ele>12.2</ele><time>2012-07-27T19:26:33.0000000+00:00</time></trkpt><trkpt lat="63.88363266" lon="-21.2474823"><ele>12.5</ele><time>2012-07-27T19:26:38.0000000+00:00</time></trkpt><trkpt lat="63.8837204" lon="-21.24788857"><ele>11.9</ele><time>2012-07-27T19:26:43.0000000+00:00</time></trkpt><trkpt lat="63.88381577" lon="-21.24832726"><ele>12.0</ele><time>2012-07-27T19:26:48.0000000+00:00</time></trkpt><trkpt lat="63.88389587" lon="-21.24869156"><ele>11.6</ele><time>2012-07-27T19:26:53.0000000+00:00</time></trkpt><trkpt lat="63.88397217" lon="-21.24905205"><ele>11.4</ele><time>2012-07-27T19:26:58.0000000+00:00</time></trkpt><trkpt lat="63.88404846" lon="-21.2494278"><ele>11.8</ele><time>2012-07-27T19:27:03.0000000+00:00</time></trkpt><trkpt lat="63.88412857" lon="-21.24980164"><ele>12.3</ele><time>2012-07-27T19:27:08.0000000+00:00</time></trkpt><trkpt lat="63.88421631" lon="-21.25019074"><ele>12.4</ele><time>2012-07-27T19:27:13.0000000+00:00</time></trkpt><trkpt lat="63.88430405" lon="-21.2506218"><ele>12.6</ele><time>2012-07-27T19:27:18.0000000+00:00</time></trkpt><trkpt lat="63.8843956" lon="-21.25104332"><ele>12.4</ele><time>2012-07-27T19:27:23.0000000+00:00</time></trkpt><trkpt lat="63.88448334" lon="-21.25147629"><ele>12.0</ele><time>2012-07-27T19:27:28.0000000+00:00</time></trkpt><trkpt lat="63.88454819" lon="-21.25176048"><ele>11.7</ele><time>2012-07-27T19:27:33.0000000+00:00</time></trkpt><trkpt lat="63.88459015" lon="-21.25195313"><ele>11.7</ele><time>2012-07-27T19:27:38.0000000+00:00</time></trkpt><trkpt lat="63.88464356" lon="-21.25221825"><ele>11.4</ele><time>2012-07-27T19:27:43.0000000+00:00</time></trkpt><trkpt lat="63.88471222" lon="-21.25254059"><ele>11.3</ele><time>2012-07-27T19:27:48.0000000+00:00</time></trkpt><trkpt lat="63.8847847" lon="-21.25288582"><ele>11.4</ele><time>2012-07-27T19:27:53.0000000+00:00</time></trkpt><trkpt lat="63.88485336" lon="-21.25327301"><ele>11.2</ele><time>2012-07-27T19:27:58.0000000+00:00</time></trkpt><trkpt lat="63.88493347" lon="-21.25372315"><ele>11.4</ele><time>2012-07-27T19:28:03.0000000+00:00</time></trkpt><trkpt lat="63.88501358" lon="-21.25420761"><ele>11.5</ele><time>2012-07-27T19:28:08.0000000+00:00</time></trkpt><trkpt lat="63.88510132" lon="-21.25462914"><ele>11.6</ele><time>2012-07-27T19:28:13.0000000+00:00</time></trkpt><trkpt lat="63.88517761" lon="-21.25510788"><ele>11.7</ele><time>2012-07-27T19:28:18.0000000+00:00</time></trkpt><trkpt lat="63.88525391" lon="-21.25555611"><ele>11.7</ele><time>2012-07-27T19:28:23.0000000+00:00</time></trkpt><trkpt lat="63.8853302" lon="-21.25602722"><ele>11.9</ele><time>2012-07-27T19:28:28.0000000+00:00</time></trkpt><trkpt lat="63.88541794" lon="-21.25650787"><ele>12.0</ele><time>2012-07-27T19:28:33.0000000+00:00</time></trkpt><trkpt lat="63.88549042" lon="-21.25692177"><ele>11.7</ele><time>2012-07-27T19:28:38.0000000+00:00</time></trkpt><trkpt lat="63.88555527" lon="-21.25737"><ele>11.8</ele><time>2012-07-27T19:28:43.0000000+00:00</time></trkpt><trkpt lat="63.8856163" lon="-21.25782394"><ele>11.6</ele><time>2012-07-27T19:28:48.0000000+00:00</time></trkpt><trkpt lat="63.88568115" lon="-21.25820541"><ele>11.5</ele><time>2012-07-27T19:28:53.0000000+00:00</time></trkpt><trkpt lat="63.885746" lon="-21.25867653"><ele>11.5</ele><time>2012-07-27T19:28:58.0000000+00:00</time></trkpt><trkpt lat="63.88581467" lon="-21.25917053"><ele>11.3</ele><time>2012-07-27T19:29:03.0000000+00:00</time></trkpt><trkpt lat="63.8858757" lon="-21.25964165"><ele>11.1</ele><time>2012-07-27T19:29:08.0000000+00:00</time></trkpt><trkpt lat="63.88593674" lon="-21.26006508"><ele>11.3</ele><time>2012-07-27T19:29:13.0000000+00:00</time></trkpt><trkpt lat="63.88599777" lon="-21.26054573"><ele>11.3</ele><time>2012-07-27T19:29:18.0000000+00:00</time></trkpt><trkpt lat="63.88606262" lon="-21.26105881"><ele>10.9</ele><time>2012-07-27T19:29:23.0000000+00:00</time></trkpt><trkpt lat="63.88611603" lon="-21.26149368"><ele>10.7</ele><time>2012-07-27T19:29:28.0000000+00:00</time></trkpt><trkpt lat="63.88615418" lon="-21.26183128"><ele>10.4</ele><time>2012-07-27T19:29:33.0000000+00:00</time></trkpt><trkpt lat="63.88620377" lon="-21.26218796"><ele>10.0</ele><time>2012-07-27T19:29:38.0000000+00:00</time></trkpt><trkpt lat="63.88624573" lon="-21.26263428"><ele>10.1</ele><time>2012-07-27T19:29:43.0000000+00:00</time></trkpt><trkpt lat="63.88629532" lon="-21.2631073"><ele>9.8</ele><time>2012-07-27T19:29:48.0000000+00:00</time></trkpt><trkpt lat="63.88633728" lon="-21.26358032"><ele>10.0</ele><time>2012-07-27T19:29:53.0000000+00:00</time></trkpt><trkpt lat="63.88638687" lon="-21.2640686"><ele>10.1</ele><time>2012-07-27T19:29:58.0000000+00:00</time></trkpt><trkpt lat="63.88643265" lon="-21.26456642"><ele>10.4</ele><time>2012-07-27T19:30:03.0000000+00:00</time></trkpt><trkpt lat="63.88648605" lon="-21.26507378"><ele>10.4</ele><time>2012-07-27T19:30:08.0000000+00:00</time></trkpt><trkpt lat="63.88653183" lon="-21.26558113"><ele>10.8</ele><time>2012-07-27T19:30:13.0000000+00:00</time></trkpt><trkpt lat="63.88656998" lon="-21.26602745"><ele>10.9</ele><time>2012-07-27T19:30:18.0000000+00:00</time></trkpt><trkpt lat="63.88659668" lon="-21.26635552"><ele>10.9</ele><time>2012-07-27T19:30:23.0000000+00:00</time></trkpt><trkpt lat="63.88662338" lon="-21.26672936"><ele>10.9</ele><time>2012-07-27T19:30:28.0000000+00:00</time></trkpt><trkpt lat="63.88665772" lon="-21.26715279"><ele>11.1</ele><time>2012-07-27T19:30:33.0000000+00:00</time></trkpt><trkpt lat="63.88668823" lon="-21.26758957"><ele>11.0</ele><time>2012-07-27T19:30:38.0000000+00:00</time></trkpt><trkpt lat="63.88671494" lon="-21.26795578"><ele>11.0</ele><time>2012-07-27T19:30:43.0000000+00:00</time></trkpt><trkpt lat="63.88674927" lon="-21.2684021"><ele>11.3</ele><time>2012-07-27T19:30:48.0000000+00:00</time></trkpt><trkpt lat="63.88677216" lon="-21.26883125"><ele>11.4</ele><time>2012-07-27T19:30:53.0000000+00:00</time></trkpt><trkpt lat="63.88679886" lon="-21.26926041"><ele>11.4</ele><time>2012-07-27T19:30:58.0000000+00:00</time></trkpt><trkpt lat="63.88682556" lon="-21.26972389"><ele>11.7</ele><time>2012-07-27T19:31:03.0000000+00:00</time></trkpt><trkpt lat="63.88684845" lon="-21.27020645"><ele>11.7</ele><time>2012-07-27T19:31:08.0000000+00:00</time></trkpt><trkpt lat="63.88686752" lon="-21.27072334"><ele>11.8</ele><time>2012-07-27T19:31:13.0000000+00:00</time></trkpt><trkpt lat="63.8868866" lon="-21.27122116"><ele>11.7</ele><time>2012-07-27T19:31:18.0000000+00:00</time></trkpt><trkpt lat="63.8869133" lon="-21.27174377"><ele>11.8</ele><time>2012-07-27T19:31:23.0000000+00:00</time></trkpt><trkpt lat="63.88693619" lon="-21.27227783"><ele>11.6</ele><time>2012-07-27T19:31:28.0000000+00:00</time></trkpt><trkpt lat="63.88695908" lon="-21.27272415"><ele>11.9</ele><time>2012-07-27T19:31:33.0000000+00:00</time></trkpt><trkpt lat="63.88697815" lon="-21.27322197"><ele>11.7</ele><time>2012-07-27T19:31:38.0000000+00:00</time></trkpt><trkpt lat="63.88699722" lon="-21.27374649"><ele>11.8</ele><time>2012-07-27T19:31:43.0000000+00:00</time></trkpt><trkpt lat="63.88702774" lon="-21.27429009"><ele>11.3</ele><time>2012-07-27T19:31:48.0000000+00:00</time></trkpt><trkpt lat="63.88705063" lon="-21.27475929"><ele>11.3</ele><time>2012-07-27T19:31:53.0000000+00:00</time></trkpt><trkpt lat="63.88706207" lon="-21.27514839"><ele>11.0</ele><time>2012-07-27T19:31:58.0000000+00:00</time></trkpt><trkpt lat="63.88708878" lon="-21.27560425"><ele>10.9</ele><time>2012-07-27T19:32:03.0000000+00:00</time></trkpt><trkpt lat="63.88711548" lon="-21.27610207"><ele>10.8</ele><time>2012-07-27T19:32:08.0000000+00:00</time></trkpt><trkpt lat="63.887146" lon="-21.27663803"><ele>10.9</ele><time>2012-07-27T19:32:13.0000000+00:00</time></trkpt><trkpt lat="63.88717651" lon="-21.27718926"><ele>10.5</ele><time>2012-07-27T19:32:18.0000000+00:00</time></trkpt><trkpt lat="63.88720322" lon="-21.27768135"><ele>10.1</ele><time>2012-07-27T19:32:23.0000000+00:00</time></trkpt><trkpt lat="63.88722992" lon="-21.27816773"><ele>9.8</ele><time>2012-07-27T19:32:28.0000000+00:00</time></trkpt><trkpt lat="63.88726425" lon="-21.27872086"><ele>9.9</ele><time>2012-07-27T19:32:33.0000000+00:00</time></trkpt><trkpt lat="63.88729477" lon="-21.27924156"><ele>9.8</ele><time>2012-07-27T19:32:38.0000000+00:00</time></trkpt><trkpt lat="63.88732147" lon="-21.27969933"><ele>9.8</ele><time>2012-07-27T19:32:43.0000000+00:00</time></trkpt><trkpt lat="63.88735199" lon="-21.28017807"><ele>9.5</ele><time>2012-07-27T19:32:48.0000000+00:00</time></trkpt><trkpt lat="63.88739014" lon="-21.28069115"><ele>9.5</ele><time>2012-07-27T19:32:53.0000000+00:00</time></trkpt><trkpt lat="63.88742065" lon="-21.28125"><ele>9.7</ele><time>2012-07-27T19:32:58.0000000+00:00</time></trkpt><trkpt lat="63.88745499" lon="-21.2817421"><ele>9.4</ele><time>2012-07-27T19:33:03.0000000+00:00</time></trkpt><trkpt lat="63.88748169" lon="-21.28217888"><ele>9.7</ele><time>2012-07-27T19:33:08.0000000+00:00</time></trkpt><trkpt lat="63.88751984" lon="-21.28266144"><ele>9.5</ele><time>2012-07-27T19:33:13.0000000+00:00</time></trkpt><trkpt lat="63.8875618" lon="-21.2831955"><ele>9.3</ele><time>2012-07-27T19:33:18.0000000+00:00</time></trkpt><trkpt lat="63.88759613" lon="-21.28368378"><ele>9.2</ele><time>2012-07-27T19:33:23.0000000+00:00</time></trkpt><trkpt lat="63.88762665" lon="-21.28409195"><ele>9.0</ele><time>2012-07-27T19:33:28.0000000+00:00</time></trkpt><trkpt lat="63.88766098" lon="-21.28458977"><ele>8.9</ele><time>2012-07-27T19:33:33.0000000+00:00</time></trkpt><trkpt lat="63.88770294" lon="-21.2851181"><ele>8.9</ele><time>2012-07-27T19:33:38.0000000+00:00</time></trkpt><trkpt lat="63.8877449" lon="-21.28561211"><ele>8.7</ele><time>2012-07-27T19:33:43.0000000+00:00</time></trkpt><trkpt lat="63.88777924" lon="-21.28611183"><ele>8.9</ele><time>2012-07-27T19:33:48.0000000+00:00</time></trkpt><trkpt lat="63.88781357" lon="-21.28660202"><ele>8.9</ele><time>2012-07-27T19:33:53.0000000+00:00</time></trkpt><trkpt lat="63.88785553" lon="-21.2870903"><ele>8.9</ele><time>2012-07-27T19:33:58.0000000+00:00</time></trkpt><trkpt lat="63.88788605" lon="-21.28751373"><ele>8.4</ele><time>2012-07-27T19:34:03.0000000+00:00</time></trkpt><trkpt lat="63.88792801" lon="-21.28796387"><ele>8.3</ele><time>2012-07-27T19:34:08.0000000+00:00</time></trkpt><trkpt lat="63.88796616" lon="-21.28845787"><ele>8.1</ele><time>2012-07-27T19:34:13.0000000+00:00</time></trkpt><trkpt lat="63.88801956" lon="-21.28901672"><ele>7.6</ele><time>2012-07-27T19:34:18.0000000+00:00</time></trkpt><trkpt lat="63.88806915" lon="-21.28954697"><ele>7.8</ele><time>2012-07-27T19:34:23.0000000+00:00</time></trkpt><trkpt lat="63.88811112" lon="-21.29004288"><ele>8.0</ele><time>2012-07-27T19:34:28.0000000+00:00</time></trkpt><trkpt lat="63.88815308" lon="-21.29049492"><ele>8.1</ele><time>2012-07-27T19:34:33.0000000+00:00</time></trkpt><trkpt lat="63.8882103" lon="-21.2910347"><ele>8.0</ele><time>2012-07-27T19:34:38.0000000+00:00</time></trkpt><trkpt lat="63.88825989" lon="-21.29152298"><ele>7.9</ele><time>2012-07-27T19:34:43.0000000+00:00</time></trkpt><trkpt lat="63.88829422" lon="-21.2919693"><ele>7.9</ele><time>2012-07-27T19:34:48.0000000+00:00</time></trkpt><trkpt lat="63.88834381" lon="-21.29247665"><ele>7.7</ele><time>2012-07-27T19:34:53.0000000+00:00</time></trkpt><trkpt lat="63.8883934" lon="-21.29298782"><ele>7.4</ele><time>2012-07-27T19:34:58.0000000+00:00</time></trkpt><trkpt lat="63.88844681" lon="-21.29350281"><ele>7.4</ele><time>2012-07-27T19:35:03.0000000+00:00</time></trkpt><trkpt lat="63.8884964" lon="-21.29403496"><ele>8.2</ele><time>2012-07-27T19:35:08.0000000+00:00</time></trkpt><trkpt lat="63.88855362" lon="-21.29449081"><ele>8.4</ele><time>2012-07-27T19:35:13.0000000+00:00</time></trkpt><trkpt lat="63.88860321" lon="-21.29497337"><ele>8.7</ele><time>2012-07-27T19:35:18.0000000+00:00</time></trkpt><trkpt lat="63.88866043" lon="-21.29550552"><ele>8.1</ele><time>2012-07-27T19:35:23.0000000+00:00</time></trkpt><trkpt lat="63.88871765" lon="-21.29605103"><ele>8.4</ele><time>2012-07-27T19:35:28.0000000+00:00</time></trkpt><trkpt lat="63.88877106" lon="-21.29655075"><ele>9.3</ele><time>2012-07-27T19:35:33.0000000+00:00</time></trkpt><trkpt lat="63.88882446" lon="-21.29705238"><ele>9.4</ele><time>2012-07-27T19:35:38.0000000+00:00</time></trkpt><trkpt lat="63.8888855" lon="-21.29759789"><ele>9.2</ele><time>2012-07-27T19:35:43.0000000+00:00</time></trkpt><trkpt lat="63.88895035" lon="-21.29813004"><ele>10.5</ele><time>2012-07-27T19:35:48.0000000+00:00</time></trkpt><trkpt lat="63.88899994" lon="-21.29861832"><ele>10.3</ele><time>2012-07-27T19:35:53.0000000+00:00</time></trkpt><trkpt lat="63.8890419" lon="-21.29899025"><ele>10.0</ele><time>2012-07-27T19:35:58.0000000+00:00</time></trkpt><trkpt lat="63.88908005" lon="-21.29931641"><ele>9.8</ele><time>2012-07-27T19:36:03.0000000+00:00</time></trkpt><trkpt lat="63.88912201" lon="-21.29973221"><ele>9.8</ele><time>2012-07-27T19:36:08.0000000+00:00</time></trkpt><trkpt lat="63.88916397" lon="-21.30023384"><ele>8.8</ele><time>2012-07-27T19:36:13.0000000+00:00</time></trkpt><trkpt lat="63.88921356" lon="-21.30075455"><ele>9.1</ele><time>2012-07-27T19:36:18.0000000+00:00</time></trkpt><trkpt lat="63.88925934" lon="-21.30130768"><ele>9.7</ele><time>2012-07-27T19:36:23.0000000+00:00</time></trkpt><trkpt lat="63.88930893" lon="-21.30181694"><ele>9.4</ele><time>2012-07-27T19:36:28.0000000+00:00</time></trkpt><trkpt lat="63.88935089" lon="-21.30229187"><ele>9.6</ele><time>2012-07-27T19:36:33.0000000+00:00</time></trkpt><trkpt lat="63.88939285" lon="-21.30278397"><ele>9.8</ele><time>2012-07-27T19:36:38.0000000+00:00</time></trkpt><trkpt lat="63.889431" lon="-21.30331802"><ele>9.9</ele><time>2012-07-27T19:36:43.0000000+00:00</time></trkpt><trkpt lat="63.88947296" lon="-21.30382538"><ele>9.6</ele><time>2012-07-27T19:36:48.0000000+00:00</time></trkpt><trkpt lat="63.88949585" lon="-21.30420685"><ele>9.2</ele><time>2012-07-27T19:36:53.0000000+00:00</time></trkpt><trkpt lat="63.88951874" lon="-21.3045311"><ele>9.2</ele><time>2012-07-27T19:36:58.0000000+00:00</time></trkpt><trkpt lat="63.88954926" lon="-21.30492973"><ele>8.6</ele><time>2012-07-27T19:37:03.0000000+00:00</time></trkpt><trkpt lat="63.88958359" lon="-21.30537415"><ele>8.2</ele><time>2012-07-27T19:37:08.0000000+00:00</time></trkpt><trkpt lat="63.88961792" lon="-21.30582237"><ele>8.0</ele><time>2012-07-27T19:37:13.0000000+00:00</time></trkpt><trkpt lat="63.88964462" lon="-21.30624962"><ele>7.8</ele><time>2012-07-27T19:37:18.0000000+00:00</time></trkpt><trkpt lat="63.88967514" lon="-21.3067379"><ele>7.6</ele><time>2012-07-27T19:37:23.0000000+00:00</time></trkpt><trkpt lat="63.88970566" lon="-21.30722618"><ele>7.5</ele><time>2012-07-27T19:37:28.0000000+00:00</time></trkpt><trkpt lat="63.88972855" lon="-21.30768013"><ele>7.3</ele><time>2012-07-27T19:37:33.0000000+00:00</time></trkpt><trkpt lat="63.88974762" lon="-21.30808258"><ele>6.8</ele><time>2012-07-27T19:37:38.0000000+00:00</time></trkpt><trkpt lat="63.88977432" lon="-21.30856133"><ele>6.8</ele><time>2012-07-27T19:37:43.0000000+00:00</time></trkpt><trkpt lat="63.8897934" lon="-21.30907059"><ele>6.5</ele><time>2012-07-27T19:37:48.0000000+00:00</time></trkpt><trkpt lat="63.88981247" lon="-21.30956268"><ele>6.2</ele><time>2012-07-27T19:37:53.0000000+00:00</time></trkpt><trkpt lat="63.88983917" lon="-21.30996323"><ele>6.0</ele><time>2012-07-27T19:37:58.0000000+00:00</time></trkpt><trkpt lat="63.88985062" lon="-21.31036377"><ele>5.4</ele><time>2012-07-27T19:38:03.0000000+00:00</time></trkpt><trkpt lat="63.88986588" lon="-21.3108387"><ele>5.3</ele><time>2012-07-27T19:38:08.0000000+00:00</time></trkpt><trkpt lat="63.88988113" lon="-21.3112812"><ele>5.5</ele><time>2012-07-27T19:38:13.0000000+00:00</time></trkpt><trkpt lat="63.88988113" lon="-21.31160545"><ele>5.3</ele><time>2012-07-27T19:38:18.0000000+00:00</time></trkpt><trkpt lat="63.88989639" lon="-21.31170845"><ele>5.7</ele><time>2012-07-27T19:38:23.0000000+00:00</time></trkpt><trkpt lat="63.88990021" lon="-21.31171227"><ele>5.8</ele><time>2012-07-27T19:38:28.0000000+00:00</time></trkpt><trkpt lat="63.88990021" lon="-21.31171227"><ele>5.8</ele><time>2012-07-27T19:38:33.0000000+00:00</time></trkpt><trkpt lat="63.88990021" lon="-21.31171227"><ele>5.7</ele><time>2012-07-27T19:38:38.0000000+00:00</time></trkpt><trkpt lat="63.88990021" lon="-21.31171227"><ele>5.7</ele><time>2012-07-27T19:38:43.0000000+00:00</time></trkpt><trkpt lat="63.88990021" lon="-21.31171417"><ele>5.2</ele><time>2012-07-27T19:38:48.0000000+00:00</time></trkpt><trkpt lat="63.88989639" lon="-21.31171417"><ele>5.2</ele><time>2012-07-27T19:38:53.0000000+00:00</time></trkpt><trkpt lat="63.88989639" lon="-21.31171036"><ele>5.9</ele><time>2012-07-27T19:38:58.0000000+00:00</time></trkpt><trkpt lat="63.88989639" lon="-21.31171036"><ele>6.4</ele><time>2012-07-27T19:39:03.0000000+00:00</time></trkpt><trkpt lat="63.88989639" lon="-21.31171036"><ele>6.4</ele><time>2012-07-27T19:39:08.0000000+00:00</time></trkpt><trkpt lat="63.88989639" lon="-21.31171036"><ele>6.5</ele><time>2012-07-27T19:39:13.0000000+00:00</time></trkpt><trkpt lat="63.88989639" lon="-21.31171036"><ele>6.5</ele><time>2012-07-27T19:39:18.0000000+00:00</time></trkpt><trkpt lat="63.88989639" lon="-21.31171036"><ele>6.5</ele><time>2012-07-27T19:39:23.0000000+00:00</time></trkpt><trkpt lat="63.88989639" lon="-21.31171036"><ele>6.5</ele><time>2012-07-27T19:39:28.0000000+00:00</time></trkpt><trkpt lat="63.88989639" lon="-21.31170845"><ele>6.5</ele><time>2012-07-27T19:39:33.0000000+00:00</time></trkpt><trkpt lat="63.88989639" lon="-21.31170845"><ele>6.5</ele><time>2012-07-27T19:39:38.0000000+00:00</time></trkpt><trkpt lat="63.88989639" lon="-21.31171036"><ele>6.5</ele><time>2012-07-27T19:39:43.0000000+00:00</time></trkpt><trkpt lat="63.88989639" lon="-21.31171036"><ele>6.5</ele><time>2012-07-27T19:39:48.0000000+00:00</time></trkpt><trkpt lat="63.88989639" lon="-21.31171036"><ele>6.5</ele><time>2012-07-27T19:39:53.0000000+00:00</time></trkpt><trkpt lat="63.88989639" lon="-21.31170845"><ele>6.5</ele><time>2012-07-27T19:39:58.0000000+00:00</time></trkpt><trkpt lat="63.88989639" lon="-21.31170845"><ele>6.5</ele><time>2012-07-27T19:40:03.0000000+00:00</time></trkpt><trkpt lat="63.88989639" lon="-21.31170845"><ele>6.5</ele><time>2012-07-27T19:40:08.0000000+00:00</time></trkpt><trkpt lat="63.88989639" lon="-21.31170845"><ele>6.5</ele><time>2012-07-27T19:40:13.0000000+00:00</time></trkpt><trkpt lat="63.88989639" lon="-21.31170845"><ele>6.5</ele><time>2012-07-27T19:40:18.0000000+00:00</time></trkpt><trkpt lat="63.88989639" lon="-21.31170845"><ele>6.5</ele><time>2012-07-27T19:40:23.0000000+00:00</time></trkpt><trkpt lat="63.88989639" lon="-21.31170845"><ele>6.5</ele><time>2012-07-27T19:40:28.0000000+00:00</time></trkpt><trkpt lat="63.88989639" lon="-21.31170845"><ele>6.5</ele><time>2012-07-27T19:40:33.0000000+00:00</time></trkpt><trkpt lat="63.88989639" lon="-21.31170845"><ele>6.5</ele><time>2012-07-27T19:40:38.0000000+00:00</time></trkpt><trkpt lat="63.88989639" lon="-21.31170845"><ele>6.5</ele><time>2012-07-27T19:40:43.0000000+00:00</time></trkpt><trkpt lat="63.88989639" lon="-21.31170845"><ele>6.5</ele><time>2012-07-27T19:40:48.0000000+00:00</time></trkpt><trkpt lat="63.88989639" lon="-21.31170845"><ele>6.6</ele><time>2012-07-27T19:40:53.0000000+00:00</time></trkpt><trkpt lat="63.88989639" lon="-21.31170845"><ele>6.5</ele><time>2012-07-27T19:40:58.0000000+00:00</time></trkpt><trkpt lat="63.88989639" lon="-21.31170845"><ele>6.5</ele><time>2012-07-27T19:41:03.0000000+00:00</time></trkpt><trkpt lat="63.88989639" lon="-21.31170845"><ele>6.5</ele><time>2012-07-27T19:41:08.0000000+00:00</time></trkpt><trkpt lat="63.88989639" lon="-21.31170845"><ele>6.5</ele><time>2012-07-27T19:41:13.0000000+00:00</time></trkpt><trkpt lat="63.88989639" lon="-21.31170845"><ele>6.5</ele><time>2012-07-27T19:41:18.0000000+00:00</time></trkpt><trkpt lat="63.88989639" lon="-21.31170845"><ele>6.5</ele><time>2012-07-27T19:41:23.0000000+00:00</time></trkpt><trkpt lat="63.88989639" lon="-21.31170845"><ele>6.5</ele><time>2012-07-27T19:41:28.0000000+00:00</time></trkpt><trkpt lat="63.88989639" lon="-21.31170845"><ele>6.5</ele><time>2012-07-27T19:41:33.0000000+00:00</time></trkpt><trkpt lat="63.88989639" lon="-21.31170845"><ele>6.5</ele><time>2012-07-27T19:41:38.0000000+00:00</time></trkpt><trkpt lat="63.88989639" lon="-21.31170845"><ele>6.5</ele><time>2012-07-27T19:41:43.0000000+00:00</time></trkpt><trkpt lat="63.88989639" lon="-21.31170845"><ele>6.5</ele><time>2012-07-27T19:41:48.0000000+00:00</time></trkpt><trkpt lat="63.88989639" lon="-21.31170845"><ele>6.5</ele><time>2012-07-27T19:41:53.0000000+00:00</time></trkpt><trkpt lat="63.88989639" lon="-21.31170845"><ele>6.6</ele><time>2012-07-27T19:41:58.0000000+00:00</time></trkpt><trkpt lat="63.88989639" lon="-21.31170845"><ele>6.6</ele><time>2012-07-27T19:42:03.0000000+00:00</time></trkpt><trkpt lat="63.88989639" lon="-21.31170845"><ele>6.6</ele><time>2012-07-27T19:42:08.0000000+00:00</time></trkpt><trkpt lat="63.88989639" lon="-21.31170845"><ele>6.6</ele><time>2012-07-27T19:42:13.0000000+00:00</time></trkpt><trkpt lat="63.88989639" lon="-21.31170845"><ele>6.6</ele><time>2012-07-27T19:42:18.0000000+00:00</time></trkpt><trkpt lat="63.88989639" lon="-21.31170845"><ele>6.6</ele><time>2012-07-27T19:42:23.0000000+00:00</time></trkpt><trkpt lat="63.88989258" lon="-21.31175613"><ele>6.5</ele><time>2012-07-27T19:42:28.0000000+00:00</time></trkpt><trkpt lat="63.88989639" lon="-21.31178856"><ele>6.4</ele><time>2012-07-27T19:42:33.0000000+00:00</time></trkpt><trkpt lat="63.88989639" lon="-21.31179047"><ele>6.5</ele><time>2012-07-27T19:42:38.0000000+00:00</time></trkpt><trkpt lat="63.88989639" lon="-21.31179047"><ele>6.6</ele><time>2012-07-27T19:42:43.0000000+00:00</time></trkpt><trkpt lat="63.88989639" lon="-21.31179047"><ele>6.6</ele><time>2012-07-27T19:42:48.0000000+00:00</time></trkpt><trkpt lat="63.88989639" lon="-21.31179047"><ele>6.6</ele><time>2012-07-27T19:42:53.0000000+00:00</time></trkpt><trkpt lat="63.88989639" lon="-21.31179047"><ele>6.6</ele><time>2012-07-27T19:42:58.0000000+00:00</time></trkpt><trkpt lat="63.88989639" lon="-21.31179047"><ele>6.6</ele><time>2012-07-27T19:43:03.0000000+00:00</time></trkpt><trkpt lat="63.88989639" lon="-21.31179047"><ele>6.6</ele><time>2012-07-27T19:43:08.0000000+00:00</time></trkpt><trkpt lat="63.88989258" lon="-21.31200218"><ele>6.3</ele><time>2012-07-27T19:43:13.0000000+00:00</time></trkpt><trkpt lat="63.88990402" lon="-21.31236076"><ele>5.6</ele><time>2012-07-27T19:43:18.0000000+00:00</time></trkpt><trkpt lat="63.88991547" lon="-21.3127346"><ele>4.8</ele><time>2012-07-27T19:43:23.0000000+00:00</time></trkpt><trkpt lat="63.88992691" lon="-21.31310082"><ele>4.6</ele><time>2012-07-27T19:43:28.0000000+00:00</time></trkpt><trkpt lat="63.88993454" lon="-21.31348801"><ele>4.1</ele><time>2012-07-27T19:43:33.0000000+00:00</time></trkpt><trkpt lat="63.8899498" lon="-21.31389618"><ele>3.8</ele><time>2012-07-27T19:43:38.0000000+00:00</time></trkpt><trkpt lat="63.88995743" lon="-21.31429482"><ele>3.4</ele><time>2012-07-27T19:43:43.0000000+00:00</time></trkpt><trkpt lat="63.88996124" lon="-21.31469154"><ele>3.4</ele><time>2012-07-27T19:43:48.0000000+00:00</time></trkpt><trkpt lat="63.88996124" lon="-21.31508637"><ele>2.7</ele><time>2012-07-27T19:43:53.0000000+00:00</time></trkpt><trkpt lat="63.88996887" lon="-21.3154583"><ele>1.8</ele><time>2012-07-27T19:43:58.0000000+00:00</time></trkpt><trkpt lat="63.8899765" lon="-21.31583977"><ele>2.4</ele><time>2012-07-27T19:44:03.0000000+00:00</time></trkpt><trkpt lat="63.8899765" lon="-21.31620979"><ele>1.6</ele><time>2012-07-27T19:44:08.0000000+00:00</time></trkpt><trkpt lat="63.8899765" lon="-21.31657791"><ele>1.4</ele><time>2012-07-27T19:44:13.0000000+00:00</time></trkpt><trkpt lat="63.8899765" lon="-21.31695557"><ele>0.8</ele><time>2012-07-27T19:44:18.0000000+00:00</time></trkpt><trkpt lat="63.8899765" lon="-21.31731606"><ele>0.8</ele><time>2012-07-27T19:44:23.0000000+00:00</time></trkpt><trkpt lat="63.8899765" lon="-21.31769943"><ele>0.5</ele><time>2012-07-27T19:44:28.0000000+00:00</time></trkpt><trkpt lat="63.88997269" lon="-21.31803703"><ele>0.9</ele><time>2012-07-27T19:44:33.0000000+00:00</time></trkpt><trkpt lat="63.88996887" lon="-21.31841278"><ele>-0.6</ele><time>2012-07-27T19:44:38.0000000+00:00</time></trkpt><trkpt lat="63.88996887" lon="-21.31878662"><ele>-0.6</ele><time>2012-07-27T19:44:43.0000000+00:00</time></trkpt><trkpt lat="63.88996506" lon="-21.31916428"><ele>-0.3</ele><time>2012-07-27T19:44:48.0000000+00:00</time></trkpt><trkpt lat="63.88996124" lon="-21.31957436"><ele>-2.1</ele><time>2012-07-27T19:44:53.0000000+00:00</time></trkpt><trkpt lat="63.88995361" lon="-21.31997109"><ele>-2.3</ele><time>2012-07-27T19:44:58.0000000+00:00</time></trkpt><trkpt lat="63.8899498" lon="-21.3203373"><ele>-2.1</ele><time>2012-07-27T19:45:03.0000000+00:00</time></trkpt><trkpt lat="63.8899498" lon="-21.32070923"><ele>-1.0</ele><time>2012-07-27T19:45:08.0000000+00:00</time></trkpt><trkpt lat="63.8899498" lon="-21.32106018"><ele>-0.3</ele><time>2012-07-27T19:45:13.0000000+00:00</time></trkpt><trkpt lat="63.88993835" lon="-21.32141495"><ele>0.3</ele><time>2012-07-27T19:45:18.0000000+00:00</time></trkpt><trkpt lat="63.88993835" lon="-21.32177162"><ele>0.6</ele><time>2012-07-27T19:45:23.0000000+00:00</time></trkpt><trkpt lat="63.88992691" lon="-21.32210732"><ele>0.5</ele><time>2012-07-27T19:45:28.0000000+00:00</time></trkpt><trkpt lat="63.88991928" lon="-21.32238388"><ele>0.2</ele><time>2012-07-27T19:45:33.0000000+00:00</time></trkpt><trkpt lat="63.88991165" lon="-21.32264328"><ele>0.5</ele><time>2012-07-27T19:45:38.0000000+00:00</time></trkpt><trkpt lat="63.88990402" lon="-21.32294464"><ele>1.1</ele><time>2012-07-27T19:45:43.0000000+00:00</time></trkpt><trkpt lat="63.88989639" lon="-21.32321739"><ele>1.9</ele><time>2012-07-27T19:45:48.0000000+00:00</time></trkpt><trkpt lat="63.88988495" lon="-21.32349968"><ele>2.3</ele><time>2012-07-27T19:45:53.0000000+00:00</time></trkpt><trkpt lat="63.88987732" lon="-21.32380867"><ele>1.7</ele><time>2012-07-27T19:45:58.0000000+00:00</time></trkpt><trkpt lat="63.88986969" lon="-21.3241024"><ele>0.1</ele><time>2012-07-27T19:46:03.0000000+00:00</time></trkpt><trkpt lat="63.88985825" lon="-21.32435799"><ele>0.6</ele><time>2012-07-27T19:46:08.0000000+00:00</time></trkpt><trkpt lat="63.88984299" lon="-21.32462311"><ele>0.9</ele><time>2012-07-27T19:46:13.0000000+00:00</time></trkpt><trkpt lat="63.88983154" lon="-21.32490349"><ele>-0.7</ele><time>2012-07-27T19:46:18.0000000+00:00</time></trkpt><trkpt lat="63.88981628" lon="-21.32517624"><ele>0.0</ele><time>2012-07-27T19:46:23.0000000+00:00</time></trkpt><trkpt lat="63.88980484" lon="-21.32545662"><ele>-0.0</ele><time>2012-07-27T19:46:28.0000000+00:00</time></trkpt><trkpt lat="63.88979721" lon="-21.32570648"><ele>0.1</ele><time>2012-07-27T19:46:33.0000000+00:00</time></trkpt><trkpt lat="63.88978195" lon="-21.32597351"><ele>0.8</ele><time>2012-07-27T19:46:38.0000000+00:00</time></trkpt><trkpt lat="63.88977432" lon="-21.32623482"><ele>0.5</ele><time>2012-07-27T19:46:43.0000000+00:00</time></trkpt><trkpt lat="63.88975906" lon="-21.32650948"><ele>0.6</ele><time>2012-07-27T19:46:48.0000000+00:00</time></trkpt><trkpt lat="63.88974762" lon="-21.32681465"><ele>0.9</ele><time>2012-07-27T19:46:53.0000000+00:00</time></trkpt><trkpt lat="63.88973236" lon="-21.32707214"><ele>0.2</ele><time>2012-07-27T19:46:58.0000000+00:00</time></trkpt><trkpt lat="63.8897171" lon="-21.32731819"><ele>0.5</ele><time>2012-07-27T19:47:03.0000000+00:00</time></trkpt><trkpt lat="63.88970184" lon="-21.32764626"><ele>0.7</ele><time>2012-07-27T19:47:08.0000000+00:00</time></trkpt><trkpt lat="63.88968658" lon="-21.32798195"><ele>0.5</ele><time>2012-07-27T19:47:13.0000000+00:00</time></trkpt><trkpt lat="63.8896637" lon="-21.32833672"><ele>0.1</ele><time>2012-07-27T19:47:18.0000000+00:00</time></trkpt><trkpt lat="63.88964462" lon="-21.32870674"><ele>-0.2</ele><time>2012-07-27T19:47:23.0000000+00:00</time></trkpt><trkpt lat="63.88961411" lon="-21.32910347"><ele>0.2</ele><time>2012-07-27T19:47:28.0000000+00:00</time></trkpt><trkpt lat="63.8895874" lon="-21.32951546"><ele>0.4</ele><time>2012-07-27T19:47:33.0000000+00:00</time></trkpt><trkpt lat="63.8895607" lon="-21.32991219"><ele>0.4</ele><time>2012-07-27T19:47:38.0000000+00:00</time></trkpt><trkpt lat="63.88953781" lon="-21.33033752"><ele>0.6</ele><time>2012-07-27T19:47:43.0000000+00:00</time></trkpt><trkpt lat="63.88950348" lon="-21.33075333"><ele>1.3</ele><time>2012-07-27T19:47:48.0000000+00:00</time></trkpt><trkpt lat="63.88948059" lon="-21.33111"><ele>1.9</ele><time>2012-07-27T19:47:53.0000000+00:00</time></trkpt><trkpt lat="63.88945389" lon="-21.33154488"><ele>2.0</ele><time>2012-07-27T19:47:58.0000000+00:00</time></trkpt><trkpt lat="63.88941956" lon="-21.33202171"><ele>1.9</ele><time>2012-07-27T19:48:03.0000000+00:00</time></trkpt><trkpt lat="63.88938904" lon="-21.3324337"><ele>2.3</ele><time>2012-07-27T19:48:08.0000000+00:00</time></trkpt><trkpt lat="63.88935852" lon="-21.33289719"><ele>2.4</ele><time>2012-07-27T19:48:13.0000000+00:00</time></trkpt><trkpt lat="63.88933182" lon="-21.33335114"><ele>2.1</ele><time>2012-07-27T19:48:18.0000000+00:00</time></trkpt><trkpt lat="63.88930512" lon="-21.33377457"><ele>2.5</ele><time>2012-07-27T19:48:23.0000000+00:00</time></trkpt><trkpt lat="63.88928604" lon="-21.33425331"><ele>3.1</ele><time>2012-07-27T19:48:28.0000000+00:00</time></trkpt><trkpt lat="63.88926315" lon="-21.33472443"><ele>3.5</ele><time>2012-07-27T19:48:33.0000000+00:00</time></trkpt><trkpt lat="63.88924789" lon="-21.33515358"><ele>4.2</ele><time>2012-07-27T19:48:38.0000000+00:00</time></trkpt><trkpt lat="63.88923645" lon="-21.33555985"><ele>4.4</ele><time>2012-07-27T19:48:43.0000000+00:00</time></trkpt><trkpt lat="63.88924027" lon="-21.33600044"><ele>4.6</ele><time>2012-07-27T19:48:48.0000000+00:00</time></trkpt><trkpt lat="63.88924027" lon="-21.3364315"><ele>4.8</ele><time>2012-07-27T19:48:53.0000000+00:00</time></trkpt><trkpt lat="63.88924789" lon="-21.3369236"><ele>5.1</ele><time>2012-07-27T19:48:58.0000000+00:00</time></trkpt><trkpt lat="63.88927078" lon="-21.33731842"><ele>5.4</ele><time>2012-07-27T19:49:03.0000000+00:00</time></trkpt><trkpt lat="63.88928986" lon="-21.33778"><ele>5.7</ele><time>2012-07-27T19:49:08.0000000+00:00</time></trkpt><trkpt lat="63.88931656" lon="-21.33819771"><ele>5.8</ele><time>2012-07-27T19:49:13.0000000+00:00</time></trkpt><trkpt lat="63.88934326" lon="-21.33852577"><ele>6.9</ele><time>2012-07-27T19:49:18.0000000+00:00</time></trkpt><trkpt lat="63.88938141" lon="-21.33893967"><ele>7.1</ele><time>2012-07-27T19:49:23.0000000+00:00</time></trkpt><trkpt lat="63.88942337" lon="-21.33939934"><ele>7.4</ele><time>2012-07-27T19:49:28.0000000+00:00</time></trkpt><trkpt lat="63.88947296" lon="-21.33986473"><ele>7.7</ele><time>2012-07-27T19:49:33.0000000+00:00</time></trkpt><trkpt lat="63.88953018" lon="-21.34033394"><ele>8.0</ele><time>2012-07-27T19:49:38.0000000+00:00</time></trkpt><trkpt lat="63.8895874" lon="-21.34072685"><ele>8.4</ele><time>2012-07-27T19:49:43.0000000+00:00</time></trkpt><trkpt lat="63.88965607" lon="-21.34116936"><ele>8.5</ele><time>2012-07-27T19:49:48.0000000+00:00</time></trkpt><trkpt lat="63.88972092" lon="-21.3415947"><ele>9.1</ele><time>2012-07-27T19:49:53.0000000+00:00</time></trkpt><trkpt lat="63.88978958" lon="-21.34196472"><ele>9.6</ele><time>2012-07-27T19:49:58.0000000+00:00</time></trkpt><trkpt lat="63.88985062" lon="-21.34231758"><ele>9.5</ele><time>2012-07-27T19:50:03.0000000+00:00</time></trkpt><trkpt lat="63.88991165" lon="-21.34269524"><ele>9.7</ele><time>2012-07-27T19:50:08.0000000+00:00</time></trkpt><trkpt lat="63.88998795" lon="-21.34303856"><ele>10.1</ele><time>2012-07-27T19:50:13.0000000+00:00</time></trkpt><trkpt lat="63.89006043" lon="-21.34344673"><ele>10.1</ele><time>2012-07-27T19:50:18.0000000+00:00</time></trkpt><trkpt lat="63.89013672" lon="-21.34383583"><ele>10.5</ele><time>2012-07-27T19:50:23.0000000+00:00</time></trkpt><trkpt lat="63.89021683" lon="-21.34425545"><ele>10.9</ele><time>2012-07-27T19:50:28.0000000+00:00</time></trkpt><trkpt lat="63.89028168" lon="-21.34461594"><ele>11.0</ele><time>2012-07-27T19:50:33.0000000+00:00</time></trkpt><trkpt lat="63.89035416" lon="-21.34504509"><ele>11.1</ele><time>2012-07-27T19:50:38.0000000+00:00</time></trkpt><trkpt lat="63.89041519" lon="-21.34539604"><ele>11.2</ele><time>2012-07-27T19:50:43.0000000+00:00</time></trkpt><trkpt lat="63.89048386" lon="-21.34576798"><ele>11.2</ele><time>2012-07-27T19:50:48.0000000+00:00</time></trkpt><trkpt lat="63.89054108" lon="-21.34609795"><ele>11.1</ele><time>2012-07-27T19:50:53.0000000+00:00</time></trkpt><trkpt lat="63.89059448" lon="-21.34643745"><ele>11.3</ele><time>2012-07-27T19:50:58.0000000+00:00</time></trkpt><trkpt lat="63.89066315" lon="-21.34686089"><ele>11.5</ele><time>2012-07-27T19:51:03.0000000+00:00</time></trkpt><trkpt lat="63.89071655" lon="-21.34719658"><ele>11.2</ele><time>2012-07-27T19:51:08.0000000+00:00</time></trkpt><trkpt lat="63.89076614" lon="-21.34752464"><ele>11.2</ele><time>2012-07-27T19:51:13.0000000+00:00</time></trkpt><trkpt lat="63.89081955" lon="-21.34793282"><ele>11.1</ele><time>2012-07-27T19:51:18.0000000+00:00</time></trkpt><trkpt lat="63.89086914" lon="-21.34840012"><ele>11.1</ele><time>2012-07-27T19:51:23.0000000+00:00</time></trkpt><trkpt lat="63.89091492" lon="-21.34889221"><ele>11.2</ele><time>2012-07-27T19:51:28.0000000+00:00</time></trkpt><trkpt lat="63.89094544" lon="-21.34929657"><ele>11.0</ele><time>2012-07-27T19:51:33.0000000+00:00</time></trkpt><trkpt lat="63.89097595" lon="-21.3497467"><ele>11.1</ele><time>2012-07-27T19:51:38.0000000+00:00</time></trkpt><trkpt lat="63.89100266" lon="-21.3501873"><ele>11.4</ele><time>2012-07-27T19:51:43.0000000+00:00</time></trkpt><trkpt lat="63.89102173" lon="-21.35065079"><ele>11.2</ele><time>2012-07-27T19:51:48.0000000+00:00</time></trkpt><trkpt lat="63.89103317" lon="-21.35104752"><ele>11.2</ele><time>2012-07-27T19:51:53.0000000+00:00</time></trkpt><trkpt lat="63.8910408" lon="-21.35136032"><ele>11.0</ele><time>2012-07-27T19:51:58.0000000+00:00</time></trkpt><trkpt lat="63.8910408" lon="-21.35175133"><ele>10.9</ele><time>2012-07-27T19:52:03.0000000+00:00</time></trkpt><trkpt lat="63.89104843" lon="-21.35215569"><ele>10.8</ele><time>2012-07-27T19:52:08.0000000+00:00</time></trkpt><trkpt lat="63.89104843" lon="-21.35256195"><ele>10.8</ele><time>2012-07-27T19:52:13.0000000+00:00</time></trkpt><trkpt lat="63.89104843" lon="-21.35299301"><ele>10.9</ele><time>2012-07-27T19:52:18.0000000+00:00</time></trkpt><trkpt lat="63.89104462" lon="-21.35337639"><ele>10.8</ele><time>2012-07-27T19:52:23.0000000+00:00</time></trkpt><trkpt lat="63.89104843" lon="-21.35360718"><ele>11.0</ele><time>2012-07-27T19:52:28.0000000+00:00</time></trkpt><trkpt lat="63.89104462" lon="-21.35392189"><ele>11.0</ele><time>2012-07-27T19:52:33.0000000+00:00</time></trkpt><trkpt lat="63.89103699" lon="-21.35432053"><ele>10.6</ele><time>2012-07-27T19:52:38.0000000+00:00</time></trkpt><trkpt lat="63.8910408" lon="-21.35475159"><ele>9.4</ele><time>2012-07-27T19:52:43.0000000+00:00</time></trkpt><trkpt lat="63.89103317" lon="-21.35519218"><ele>9.2</ele><time>2012-07-27T19:52:48.0000000+00:00</time></trkpt><trkpt lat="63.8910408" lon="-21.35560226"><ele>9.2</ele><time>2012-07-27T19:52:53.0000000+00:00</time></trkpt><trkpt lat="63.8910408" lon="-21.35601425"><ele>9.0</ele><time>2012-07-27T19:52:58.0000000+00:00</time></trkpt><trkpt lat="63.89104462" lon="-21.35645104"><ele>9.1</ele><time>2012-07-27T19:53:03.0000000+00:00</time></trkpt><trkpt lat="63.89104843" lon="-21.35691643"><ele>9.3</ele><time>2012-07-27T19:53:08.0000000+00:00</time></trkpt><trkpt lat="63.89105225" lon="-21.3572197"><ele>9.4</ele><time>2012-07-27T19:53:13.0000000+00:00</time></trkpt><trkpt lat="63.89104843" lon="-21.35742569"><ele>9.6</ele><time>2012-07-27T19:53:18.0000000+00:00</time></trkpt><trkpt lat="63.89106369" lon="-21.35774231"><ele>9.6</ele><time>2012-07-27T19:53:23.0000000+00:00</time></trkpt><trkpt lat="63.89108658" lon="-21.35811997"><ele>9.7</ele><time>2012-07-27T19:53:28.0000000+00:00</time></trkpt><trkpt lat="63.89110565" lon="-21.35851288"><ele>10.0</ele><time>2012-07-27T19:53:33.0000000+00:00</time></trkpt><trkpt lat="63.89113236" lon="-21.35891914"><ele>10.3</ele><time>2012-07-27T19:53:38.0000000+00:00</time></trkpt><trkpt lat="63.89115524" lon="-21.35932732"><ele>10.8</ele><time>2012-07-27T19:53:43.0000000+00:00</time></trkpt><trkpt lat="63.89117813" lon="-21.35958481"><ele>11.2</ele><time>2012-07-27T19:53:48.0000000+00:00</time></trkpt><trkpt lat="63.89119721" lon="-21.35990715"><ele>11.6</ele><time>2012-07-27T19:53:53.0000000+00:00</time></trkpt><trkpt lat="63.89122772" lon="-21.36032105"><ele>12.1</ele><time>2012-07-27T19:53:58.0000000+00:00</time></trkpt><trkpt lat="63.89126587" lon="-21.36066437"><ele>11.9</ele><time>2012-07-27T19:54:03.0000000+00:00</time></trkpt><trkpt lat="63.89130402" lon="-21.36108589"><ele>12.3</ele><time>2012-07-27T19:54:08.0000000+00:00</time></trkpt><trkpt lat="63.89134216" lon="-21.36149216"><ele>12.5</ele><time>2012-07-27T19:54:13.0000000+00:00</time></trkpt><trkpt lat="63.89138794" lon="-21.36182404"><ele>12.5</ele><time>2012-07-27T19:54:18.0000000+00:00</time></trkpt><trkpt lat="63.89142609" lon="-21.36214066"><ele>12.8</ele><time>2012-07-27T19:54:23.0000000+00:00</time></trkpt><trkpt lat="63.89147186" lon="-21.36249733"><ele>13.0</ele><time>2012-07-27T19:54:28.0000000+00:00</time></trkpt><trkpt lat="63.89152527" lon="-21.36287689"><ele>13.2</ele><time>2012-07-27T19:54:33.0000000+00:00</time></trkpt><trkpt lat="63.89157105" lon="-21.36328316"><ele>13.7</ele><time>2012-07-27T19:54:38.0000000+00:00</time></trkpt><trkpt lat="63.89162064" lon="-21.36366653"><ele>13.8</ele><time>2012-07-27T19:54:43.0000000+00:00</time></trkpt><trkpt lat="63.89167404" lon="-21.36397553"><ele>14.0</ele><time>2012-07-27T19:54:48.0000000+00:00</time></trkpt><trkpt lat="63.89179611" lon="-21.36413956"><ele>13.9</ele><time>2012-07-27T19:54:53.0000000+00:00</time></trkpt><trkpt lat="63.89192581" lon="-21.36423492"><ele>13.5</ele><time>2012-07-27T19:54:58.0000000+00:00</time></trkpt><trkpt lat="63.89200974" lon="-21.36439896"><ele>13.7</ele><time>2012-07-27T19:55:03.0000000+00:00</time></trkpt><trkpt lat="63.89201355" lon="-21.36442375"><ele>13.8</ele><time>2012-07-27T19:55:08.0000000+00:00</time></trkpt><trkpt lat="63.89201355" lon="-21.36442184"><ele>13.8</ele><time>2012-07-27T19:55:13.0000000+00:00</time></trkpt><trkpt lat="63.89201355" lon="-21.36442184"><ele>13.8</ele><time>2012-07-27T19:55:18.0000000+00:00</time></trkpt><trkpt lat="63.89201355" lon="-21.36442184"><ele>13.8</ele><time>2012-07-27T19:55:23.0000000+00:00</time></trkpt><trkpt lat="63.89201355" lon="-21.36442184"><ele>13.7</ele><time>2012-07-27T19:55:28.0000000+00:00</time></trkpt><trkpt lat="63.89201355" lon="-21.36442184"><ele>13.7</ele><time>2012-07-27T19:55:33.0000000+00:00</time></trkpt><trkpt lat="63.89201355" lon="-21.36442184"><ele>13.7</ele><time>2012-07-27T19:55:38.0000000+00:00</time></trkpt><trkpt lat="63.89201355" lon="-21.36442184"><ele>13.7</ele><time>2012-07-27T19:55:43.0000000+00:00</time></trkpt><trkpt lat="63.89201355" lon="-21.36442184"><ele>13.7</ele><time>2012-07-27T19:55:48.0000000+00:00</time></trkpt><trkpt lat="63.89201355" lon="-21.36442184"><ele>13.7</ele><time>2012-07-27T19:55:53.0000000+00:00</time></trkpt><trkpt lat="63.89201355" lon="-21.36442184"><ele>13.7</ele><time>2012-07-27T19:55:58.0000000+00:00</time></trkpt><trkpt lat="63.89201355" lon="-21.36441994"><ele>13.7</ele><time>2012-07-27T19:56:03.0000000+00:00</time></trkpt><trkpt lat="63.89201355" lon="-21.36441994"><ele>13.7</ele><time>2012-07-27T19:56:08.0000000+00:00</time></trkpt><trkpt lat="63.89201355" lon="-21.36441994"><ele>13.7</ele><time>2012-07-27T19:56:13.0000000+00:00</time></trkpt><trkpt lat="63.89200974" lon="-21.36441994"><ele>13.7</ele><time>2012-07-27T19:56:18.0000000+00:00</time></trkpt><trkpt lat="63.89200974" lon="-21.36441994"><ele>13.7</ele><time>2012-07-27T19:56:23.0000000+00:00</time></trkpt><trkpt lat="63.89200974" lon="-21.36441994"><ele>13.7</ele><time>2012-07-27T19:56:28.0000000+00:00</time></trkpt><trkpt lat="63.89200974" lon="-21.36441994"><ele>13.7</ele><time>2012-07-27T19:56:33.0000000+00:00</time></trkpt><trkpt lat="63.89200974" lon="-21.36441994"><ele>13.7</ele><time>2012-07-27T19:56:38.0000000+00:00</time></trkpt><trkpt lat="63.89200974" lon="-21.36441994"><ele>13.6</ele><time>2012-07-27T19:56:43.0000000+00:00</time></trkpt><trkpt lat="63.89200974" lon="-21.36441994"><ele>13.6</ele><time>2012-07-27T19:56:48.0000000+00:00</time></trkpt><trkpt lat="63.89200974" lon="-21.36441803"><ele>13.6</ele><time>2012-07-27T19:56:53.0000000+00:00</time></trkpt><trkpt lat="63.89200974" lon="-21.36441803"><ele>13.6</ele><time>2012-07-27T19:56:58.0000000+00:00</time></trkpt><trkpt lat="63.89200974" lon="-21.36441803"><ele>13.6</ele><time>2012-07-27T19:57:03.0000000+00:00</time></trkpt><trkpt lat="63.89200974" lon="-21.36441803"><ele>13.6</ele><time>2012-07-27T19:57:08.0000000+00:00</time></trkpt><trkpt lat="63.89200974" lon="-21.36441803"><ele>13.6</ele><time>2012-07-27T19:57:13.0000000+00:00</time></trkpt><trkpt lat="63.89200974" lon="-21.36441803"><ele>13.6</ele><time>2012-07-27T19:57:18.0000000+00:00</time></trkpt><trkpt lat="63.89200974" lon="-21.36441803"><ele>13.6</ele><time>2012-07-27T19:57:23.0000000+00:00</time></trkpt><trkpt lat="63.89201355" lon="-21.36443329"><ele>13.7</ele><time>2012-07-27T19:57:28.0000000+00:00</time></trkpt><trkpt lat="63.89201355" lon="-21.36443901"><ele>13.7</ele><time>2012-07-27T19:57:33.0000000+00:00</time></trkpt><trkpt lat="63.89201355" lon="-21.36443901"><ele>13.7</ele><time>2012-07-27T19:57:38.0000000+00:00</time></trkpt><trkpt lat="63.89201355" lon="-21.36443901"><ele>13.7</ele><time>2012-07-27T19:57:43.0000000+00:00</time></trkpt><trkpt lat="63.89201355" lon="-21.36444855"><ele>13.7</ele><time>2012-07-27T19:57:48.0000000+00:00</time></trkpt><trkpt lat="63.89201355" lon="-21.36445046"><ele>13.7</ele><time>2012-07-27T19:57:53.0000000+00:00</time></trkpt><trkpt lat="63.89201355" lon="-21.36444473"><ele>13.7</ele><time>2012-07-27T19:57:58.0000000+00:00</time></trkpt><trkpt lat="63.89201355" lon="-21.36443901"><ele>13.8</ele><time>2012-07-27T19:58:03.0000000+00:00</time></trkpt><trkpt lat="63.89201355" lon="-21.36443901"><ele>13.8</ele><time>2012-07-27T19:58:08.0000000+00:00</time></trkpt><trkpt lat="63.89201355" lon="-21.36444283"><ele>13.8</ele><time>2012-07-27T19:58:13.0000000+00:00</time></trkpt><trkpt lat="63.89201355" lon="-21.36444473"><ele>13.8</ele><time>2012-07-27T19:58:18.0000000+00:00</time></trkpt><trkpt lat="63.89201355" lon="-21.36444664"><ele>13.8</ele><time>2012-07-27T19:58:23.0000000+00:00</time></trkpt><trkpt lat="63.89201355" lon="-21.36444664"><ele>13.8</ele><time>2012-07-27T19:58:28.0000000+00:00</time></trkpt><trkpt lat="63.89201355" lon="-21.36444664"><ele>13.8</ele><time>2012-07-27T19:58:33.0000000+00:00</time></trkpt><trkpt lat="63.89201355" lon="-21.36444664"><ele>13.8</ele><time>2012-07-27T19:58:38.0000000+00:00</time></trkpt><trkpt lat="63.89201355" lon="-21.36444664"><ele>13.8</ele><time>2012-07-27T19:58:43.0000000+00:00</time></trkpt><trkpt lat="63.89201355" lon="-21.36444664"><ele>13.8</ele><time>2012-07-27T19:58:48.0000000+00:00</time></trkpt><trkpt lat="63.89201355" lon="-21.36444664"><ele>13.8</ele><time>2012-07-27T19:58:53.0000000+00:00</time></trkpt><trkpt lat="63.89201355" lon="-21.36444664"><ele>13.8</ele><time>2012-07-27T19:58:58.0000000+00:00</time></trkpt><trkpt lat="63.89201355" lon="-21.36444664"><ele>13.8</ele><time>2012-07-27T19:59:03.0000000+00:00</time></trkpt><trkpt lat="63.89201355" lon="-21.36444664"><ele>13.8</ele><time>2012-07-27T19:59:08.0000000+00:00</time></trkpt><trkpt lat="63.89201355" lon="-21.36444664"><ele>13.9</ele><time>2012-07-27T19:59:13.0000000+00:00</time></trkpt><trkpt lat="63.89199829" lon="-21.36444855"><ele>13.7</ele><time>2012-07-27T19:59:18.0000000+00:00</time></trkpt><trkpt lat="63.89197159" lon="-21.36442757"><ele>13.8</ele><time>2012-07-27T19:59:23.0000000+00:00</time></trkpt><trkpt lat="63.89194107" lon="-21.36431122"><ele>13.9</ele><time>2012-07-27T19:59:28.0000000+00:00</time></trkpt><trkpt lat="63.89188004" lon="-21.36423302"><ele>14.3</ele><time>2012-07-27T19:59:33.0000000+00:00</time></trkpt><trkpt lat="63.89181137" lon="-21.36423683"><ele>14.7</ele><time>2012-07-27T19:59:38.0000000+00:00</time></trkpt><trkpt lat="63.89173508" lon="-21.3642807"><ele>14.3</ele><time>2012-07-27T19:59:43.0000000+00:00</time></trkpt><trkpt lat="63.89164734" lon="-21.36432648"><ele>13.8</ele><time>2012-07-27T19:59:48.0000000+00:00</time></trkpt><trkpt lat="63.89155197" lon="-21.36438751"><ele>13.2</ele><time>2012-07-27T19:59:53.0000000+00:00</time></trkpt><trkpt lat="63.89140701" lon="-21.36447334"><ele>12.4</ele><time>2012-07-27T19:59:58.0000000+00:00</time></trkpt><trkpt lat="63.89125061" lon="-21.36459351"><ele>13.7</ele><time>2012-07-27T20:00:03.0000000+00:00</time></trkpt><trkpt lat="63.89107132" lon="-21.3647213"><ele>12.9</ele><time>2012-07-27T20:00:08.0000000+00:00</time></trkpt><trkpt lat="63.89086151" lon="-21.36488724"><ele>12.2</ele><time>2012-07-27T20:00:13.0000000+00:00</time></trkpt><trkpt lat="63.89062882" lon="-21.36510277"><ele>11.9</ele><time>2012-07-27T20:00:18.0000000+00:00</time></trkpt><trkpt lat="63.89034271" lon="-21.36539269"><ele>12.3</ele><time>2012-07-27T20:00:23.0000000+00:00</time></trkpt><trkpt lat="63.89004517" lon="-21.36576462"><ele>12.9</ele><time>2012-07-27T20:00:28.0000000+00:00</time></trkpt><trkpt lat="63.88974381" lon="-21.36618042"><ele>13.2</ele><time>2012-07-27T20:00:33.0000000+00:00</time></trkpt><trkpt lat="63.88946533" lon="-21.36660957"><ele>14.1</ele><time>2012-07-27T20:00:38.0000000+00:00</time></trkpt><trkpt lat="63.88920212" lon="-21.36706162"><ele>14.3</ele><time>2012-07-27T20:00:43.0000000+00:00</time></trkpt><trkpt lat="63.88897324" lon="-21.36750031"><ele>14.7</ele><time>2012-07-27T20:00:48.0000000+00:00</time></trkpt><trkpt lat="63.88875961" lon="-21.36795235"><ele>14.2</ele><time>2012-07-27T20:00:53.0000000+00:00</time></trkpt><trkpt lat="63.88853073" lon="-21.36845207"><ele>13.9</ele><time>2012-07-27T20:00:58.0000000+00:00</time></trkpt><trkpt lat="63.88830566" lon="-21.36896896"><ele>13.7</ele><time>2012-07-27T20:01:03.0000000+00:00</time></trkpt><trkpt lat="63.88807297" lon="-21.36949158"><ele>13.1</ele><time>2012-07-27T20:01:08.0000000+00:00</time></trkpt><trkpt lat="63.88784027" lon="-21.37000847"><ele>12.4</ele><time>2012-07-27T20:01:13.0000000+00:00</time></trkpt><trkpt lat="63.88759613" lon="-21.37054062"><ele>11.8</ele><time>2012-07-27T20:01:18.0000000+00:00</time></trkpt><trkpt lat="63.88734818" lon="-21.3710537"><ele>11.9</ele><time>2012-07-27T20:01:23.0000000+00:00</time></trkpt><trkpt lat="63.88711929" lon="-21.37150765"><ele>11.9</ele><time>2012-07-27T20:01:28.0000000+00:00</time></trkpt><trkpt lat="63.88689423" lon="-21.37192345"><ele>11.6</ele><time>2012-07-27T20:01:33.0000000+00:00</time></trkpt><trkpt lat="63.88663483" lon="-21.37235069"><ele>12.1</ele><time>2012-07-27T20:01:38.0000000+00:00</time></trkpt><trkpt lat="63.88637543" lon="-21.37274742"><ele>12.5</ele><time>2012-07-27T20:01:43.0000000+00:00</time></trkpt><trkpt lat="63.88613129" lon="-21.37311363"><ele>12.9</ele><time>2012-07-27T20:01:48.0000000+00:00</time></trkpt><trkpt lat="63.88588333" lon="-21.37344742"><ele>13.9</ele><time>2012-07-27T20:01:53.0000000+00:00</time></trkpt><trkpt lat="63.8856163" lon="-21.37377167"><ele>14.2</ele><time>2012-07-27T20:01:58.0000000+00:00</time></trkpt><trkpt lat="63.8853569" lon="-21.37407684"><ele>14.6</ele><time>2012-07-27T20:02:03.0000000+00:00</time></trkpt><trkpt lat="63.88511658" lon="-21.37433815"><ele>14.6</ele><time>2012-07-27T20:02:08.0000000+00:00</time></trkpt><trkpt lat="63.88485336" lon="-21.37462616"><ele>14.6</ele><time>2012-07-27T20:02:13.0000000+00:00</time></trkpt><trkpt lat="63.88458252" lon="-21.37490082"><ele>14.9</ele><time>2012-07-27T20:02:18.0000000+00:00</time></trkpt><trkpt lat="63.88431168" lon="-21.37516975"><ele>15.2</ele><time>2012-07-27T20:02:23.0000000+00:00</time></trkpt><trkpt lat="63.88405991" lon="-21.37542152"><ele>15.3</ele><time>2012-07-27T20:02:28.0000000+00:00</time></trkpt><trkpt lat="63.88381195" lon="-21.37564087"><ele>15.3</ele><time>2012-07-27T20:02:33.0000000+00:00</time></trkpt><trkpt lat="63.88352203" lon="-21.37589645"><ele>16.3</ele><time>2012-07-27T20:02:38.0000000+00:00</time></trkpt><trkpt lat="63.88322067" lon="-21.37615585"><ele>16.1</ele><time>2012-07-27T20:02:43.0000000+00:00</time></trkpt><trkpt lat="63.88291168" lon="-21.37641716"><ele>16.1</ele><time>2012-07-27T20:02:48.0000000+00:00</time></trkpt><trkpt lat="63.88258362" lon="-21.37667656"><ele>15.1</ele><time>2012-07-27T20:02:53.0000000+00:00</time></trkpt><trkpt lat="63.88226318" lon="-21.37692833"><ele>14.9</ele><time>2012-07-27T20:02:58.0000000+00:00</time></trkpt><trkpt lat="63.88198471" lon="-21.37714195"><ele>14.6</ele><time>2012-07-27T20:03:03.0000000+00:00</time></trkpt><trkpt lat="63.88171005" lon="-21.37734604"><ele>14.4</ele><time>2012-07-27T20:03:08.0000000+00:00</time></trkpt><trkpt lat="63.88144684" lon="-21.3775444"><ele>13.7</ele><time>2012-07-27T20:03:13.0000000+00:00</time></trkpt><trkpt lat="63.88120651" lon="-21.37772751"><ele>13.6</ele><time>2012-07-27T20:03:18.0000000+00:00</time></trkpt><trkpt lat="63.8809433" lon="-21.37792206"><ele>13.3</ele><time>2012-07-27T20:03:23.0000000+00:00</time></trkpt><trkpt lat="63.88064575" lon="-21.37812042"><ele>13.0</ele><time>2012-07-27T20:03:28.0000000+00:00</time></trkpt><trkpt lat="63.88034439" lon="-21.37833023"><ele>12.3</ele><time>2012-07-27T20:03:33.0000000+00:00</time></trkpt><trkpt lat="63.88006973" lon="-21.37850189"><ele>12.1</ele><time>2012-07-27T20:03:38.0000000+00:00</time></trkpt><trkpt lat="63.87977982" lon="-21.37867737"><ele>11.9</ele><time>2012-07-27T20:03:43.0000000+00:00</time></trkpt><trkpt lat="63.87949753" lon="-21.37886047"><ele>11.6</ele><time>2012-07-27T20:03:48.0000000+00:00</time></trkpt><trkpt lat="63.87924194" lon="-21.37900925"><ele>11.4</ele><time>2012-07-27T20:03:53.0000000+00:00</time></trkpt><trkpt lat="63.87898254" lon="-21.37917328"><ele>11.3</ele><time>2012-07-27T20:03:58.0000000+00:00</time></trkpt><trkpt lat="63.87872315" lon="-21.37932015"><ele>10.8</ele><time>2012-07-27T20:04:03.0000000+00:00</time></trkpt><trkpt lat="63.87850571" lon="-21.37944984"><ele>11.1</ele><time>2012-07-27T20:04:08.0000000+00:00</time></trkpt><trkpt lat="63.87827301" lon="-21.37958336"><ele>11.1</ele><time>2012-07-27T20:04:13.0000000+00:00</time></trkpt><trkpt lat="63.87801743" lon="-21.3797226"><ele>10.7</ele><time>2012-07-27T20:04:18.0000000+00:00</time></trkpt><trkpt lat="63.87773514" lon="-21.37986183"><ele>10.9</ele><time>2012-07-27T20:04:23.0000000+00:00</time></trkpt><trkpt lat="63.87744904" lon="-21.38002205"><ele>10.6</ele><time>2012-07-27T20:04:28.0000000+00:00</time></trkpt><trkpt lat="63.87717056" lon="-21.38015366"><ele>10.2</ele><time>2012-07-27T20:04:33.0000000+00:00</time></trkpt><trkpt lat="63.87692642" lon="-21.38028145"><ele>10.2</ele><time>2012-07-27T20:04:38.0000000+00:00</time></trkpt><trkpt lat="63.87667847" lon="-21.3803978"><ele>9.9</ele><time>2012-07-27T20:04:43.0000000+00:00</time></trkpt><trkpt lat="63.87639999" lon="-21.38051605"><ele>9.7</ele><time>2012-07-27T20:04:48.0000000+00:00</time></trkpt><trkpt lat="63.87611389" lon="-21.3806591"><ele>9.5</ele><time>2012-07-27T20:04:53.0000000+00:00</time></trkpt><trkpt lat="63.87581253" lon="-21.38078499"><ele>9.8</ele><time>2012-07-27T20:04:58.0000000+00:00</time></trkpt><trkpt lat="63.87550736" lon="-21.38090897"><ele>9.8</ele><time>2012-07-27T20:05:03.0000000+00:00</time></trkpt><trkpt lat="63.87519836" lon="-21.38102913"><ele>9.3</ele><time>2012-07-27T20:05:08.0000000+00:00</time></trkpt><trkpt lat="63.87485886" lon="-21.38116074"><ele>8.6</ele><time>2012-07-27T20:05:13.0000000+00:00</time></trkpt><trkpt lat="63.8745079" lon="-21.38130379"><ele>8.2</ele><time>2012-07-27T20:05:18.0000000+00:00</time></trkpt><trkpt lat="63.87415314" lon="-21.38145828"><ele>7.7</ele><time>2012-07-27T20:05:23.0000000+00:00</time></trkpt><trkpt lat="63.8738327" lon="-21.38159752"><ele>6.8</ele><time>2012-07-27T20:05:28.0000000+00:00</time></trkpt><trkpt lat="63.87351227" lon="-21.38176918"><ele>7.4</ele><time>2012-07-27T20:05:33.0000000+00:00</time></trkpt><trkpt lat="63.87319565" lon="-21.38196373"><ele>7.2</ele><time>2012-07-27T20:05:38.0000000+00:00</time></trkpt><trkpt lat="63.87287521" lon="-21.38218689"><ele>7.5</ele><time>2012-07-27T20:05:43.0000000+00:00</time></trkpt><trkpt lat="63.87259674" lon="-21.38238335"><ele>7.9</ele><time>2012-07-27T20:05:48.0000000+00:00</time></trkpt><trkpt lat="63.87231064" lon="-21.38259506"><ele>8.5</ele><time>2012-07-27T20:05:53.0000000+00:00</time></trkpt><trkpt lat="63.87202072" lon="-21.38282585"><ele>9.8</ele><time>2012-07-27T20:05:58.0000000+00:00</time></trkpt><trkpt lat="63.87171555" lon="-21.3830967"><ele>10.7</ele><time>2012-07-27T20:06:03.0000000+00:00</time></trkpt><trkpt lat="63.87140656" lon="-21.38339043"><ele>12.2</ele><time>2012-07-27T20:06:08.0000000+00:00</time></trkpt><trkpt lat="63.87109757" lon="-21.3837204"><ele>12.7</ele><time>2012-07-27T20:06:13.0000000+00:00</time></trkpt><trkpt lat="63.87081146" lon="-21.38403702"><ele>13.2</ele><time>2012-07-27T20:06:18.0000000+00:00</time></trkpt><trkpt lat="63.87055969" lon="-21.38433266"><ele>13.4</ele><time>2012-07-27T20:06:23.0000000+00:00</time></trkpt><trkpt lat="63.87029266" lon="-21.38466072"><ele>14.0</ele><time>2012-07-27T20:06:28.0000000+00:00</time></trkpt><trkpt lat="63.87002182" lon="-21.38502693"><ele>14.1</ele><time>2012-07-27T20:06:33.0000000+00:00</time></trkpt><trkpt lat="63.86975479" lon="-21.38539314"><ele>14.7</ele><time>2012-07-27T20:06:38.0000000+00:00</time></trkpt><trkpt lat="63.86952591" lon="-21.38573265"><ele>15.5</ele><time>2012-07-27T20:06:43.0000000+00:00</time></trkpt><trkpt lat="63.86931229" lon="-21.38602829"><ele>16.1</ele><time>2012-07-27T20:06:48.0000000+00:00</time></trkpt><trkpt lat="63.86909866" lon="-21.38637352"><ele>16.4</ele><time>2012-07-27T20:06:53.0000000+00:00</time></trkpt><trkpt lat="63.86891937" lon="-21.38665772"><ele>17.0</ele><time>2012-07-27T20:06:58.0000000+00:00</time></trkpt><trkpt lat="63.86877441" lon="-21.38690949"><ele>17.6</ele><time>2012-07-27T20:07:03.0000000+00:00</time></trkpt><trkpt lat="63.8686142" lon="-21.38718987"><ele>17.9</ele><time>2012-07-27T20:07:08.0000000+00:00</time></trkpt><trkpt lat="63.86844635" lon="-21.38749313"><ele>19.2</ele><time>2012-07-27T20:07:13.0000000+00:00</time></trkpt><trkpt lat="63.86827087" lon="-21.38781357"><ele>19.2</ele><time>2012-07-27T20:07:18.0000000+00:00</time></trkpt><trkpt lat="63.8680687" lon="-21.38813973"><ele>19.0</ele><time>2012-07-27T20:07:23.0000000+00:00</time></trkpt><trkpt lat="63.86783981" lon="-21.38853264"><ele>18.5</ele><time>2012-07-27T20:07:28.0000000+00:00</time></trkpt><trkpt lat="63.86761856" lon="-21.38886643"><ele>18.4</ele><time>2012-07-27T20:07:33.0000000+00:00</time></trkpt><trkpt lat="63.86738205" lon="-21.38920021"><ele>18.9</ele><time>2012-07-27T20:07:38.0000000+00:00</time></trkpt><trkpt lat="63.86714554" lon="-21.38947487"><ele>18.8</ele><time>2012-07-27T20:07:43.0000000+00:00</time></trkpt><trkpt lat="63.86690521" lon="-21.38973045"><ele>18.6</ele><time>2012-07-27T20:07:48.0000000+00:00</time></trkpt><trkpt lat="63.86668015" lon="-21.3899498"><ele>18.9</ele><time>2012-07-27T20:07:53.0000000+00:00</time></trkpt><trkpt lat="63.86647415" lon="-21.39015007"><ele>18.8</ele><time>2012-07-27T20:07:58.0000000+00:00</time></trkpt><trkpt lat="63.86628723" lon="-21.39030647"><ele>18.8</ele><time>2012-07-27T20:08:03.0000000+00:00</time></trkpt><trkpt lat="63.86608124" lon="-21.39044571"><ele>18.1</ele><time>2012-07-27T20:08:08.0000000+00:00</time></trkpt><trkpt lat="63.86584473" lon="-21.39059258"><ele>17.0</ele><time>2012-07-27T20:08:13.0000000+00:00</time></trkpt><trkpt lat="63.8656311" lon="-21.39071083"><ele>15.5</ele><time>2012-07-27T20:08:18.0000000+00:00</time></trkpt><trkpt lat="63.86548615" lon="-21.39097786"><ele>14.9</ele><time>2012-07-27T20:08:23.0000000+00:00</time></trkpt><trkpt lat="63.86537552" lon="-21.39114761"><ele>14.4</ele><time>2012-07-27T20:08:28.0000000+00:00</time></trkpt><trkpt lat="63.86536026" lon="-21.39116478"><ele>14.6</ele><time>2012-07-27T20:08:33.0000000+00:00</time></trkpt><trkpt lat="63.86536789" lon="-21.39116287"><ele>14.9</ele><time>2012-07-27T20:08:38.0000000+00:00</time></trkpt><trkpt lat="63.86536789" lon="-21.39116478"><ele>15.0</ele><time>2012-07-27T20:08:43.0000000+00:00</time></trkpt><trkpt lat="63.86536789" lon="-21.39116478"><ele>15.0</ele><time>2012-07-27T20:08:48.0000000+00:00</time></trkpt><trkpt lat="63.86536789" lon="-21.39116478"><ele>15.0</ele><time>2012-07-27T20:08:53.0000000+00:00</time></trkpt><trkpt lat="63.86536789" lon="-21.39116478"><ele>14.9</ele><time>2012-07-27T20:08:58.0000000+00:00</time></trkpt><trkpt lat="63.86536789" lon="-21.39116669"><ele>14.9</ele><time>2012-07-27T20:09:03.0000000+00:00</time></trkpt><trkpt lat="63.86536408" lon="-21.39116859"><ele>15.3</ele><time>2012-07-27T20:09:08.0000000+00:00</time></trkpt><trkpt lat="63.86536408" lon="-21.39116669"><ele>15.3</ele><time>2012-07-27T20:09:13.0000000+00:00</time></trkpt><trkpt lat="63.86536408" lon="-21.39116669"><ele>15.3</ele><time>2012-07-27T20:09:18.0000000+00:00</time></trkpt><trkpt lat="63.86536408" lon="-21.39116669"><ele>15.3</ele><time>2012-07-27T20:09:23.0000000+00:00</time></trkpt><trkpt lat="63.86536408" lon="-21.39116669"><ele>15.3</ele><time>2012-07-27T20:09:28.0000000+00:00</time></trkpt><trkpt lat="63.86536408" lon="-21.39116669"><ele>15.3</ele><time>2012-07-27T20:09:33.0000000+00:00</time></trkpt><trkpt lat="63.86536408" lon="-21.39116669"><ele>15.3</ele><time>2012-07-27T20:09:38.0000000+00:00</time></trkpt><trkpt lat="63.86523819" lon="-21.39099693"><ele>15.5</ele><time>2012-07-27T20:09:43.0000000+00:00</time></trkpt><trkpt lat="63.8650589" lon="-21.39096642"><ele>15.3</ele><time>2012-07-27T20:09:48.0000000+00:00</time></trkpt><trkpt lat="63.86484146" lon="-21.3910408"><ele>14.9</ele><time>2012-07-27T20:09:53.0000000+00:00</time></trkpt><trkpt lat="63.86460877" lon="-21.39110947"><ele>14.8</ele><time>2012-07-27T20:09:58.0000000+00:00</time></trkpt><trkpt lat="63.86440277" lon="-21.39114571"><ele>14.5</ele><time>2012-07-27T20:10:03.0000000+00:00</time></trkpt><trkpt lat="63.86421967" lon="-21.39115334"><ele>14.1</ele><time>2012-07-27T20:10:08.0000000+00:00</time></trkpt><trkpt lat="63.86404038" lon="-21.39115715"><ele>13.5</ele><time>2012-07-27T20:10:13.0000000+00:00</time></trkpt><trkpt lat="63.8638382" lon="-21.39114571"><ele>13.7</ele><time>2012-07-27T20:10:18.0000000+00:00</time></trkpt><trkpt lat="63.86365509" lon="-21.391119"><ele>13.5</ele><time>2012-07-27T20:10:23.0000000+00:00</time></trkpt><trkpt lat="63.86350632" lon="-21.39109612"><ele>13.6</ele><time>2012-07-27T20:10:28.0000000+00:00</time></trkpt><trkpt lat="63.86333847" lon="-21.39104462"><ele>14.2</ele><time>2012-07-27T20:10:33.0000000+00:00</time></trkpt><trkpt lat="63.86319733" lon="-21.39106941"><ele>15.4</ele><time>2012-07-27T20:10:38.0000000+00:00</time></trkpt><trkpt lat="63.86314392" lon="-21.39123344"><ele>14.9</ele><time>2012-07-27T20:10:43.0000000+00:00</time></trkpt><trkpt lat="63.86312485" lon="-21.39139557"><ele>14.5</ele><time>2012-07-27T20:10:48.0000000+00:00</time></trkpt><trkpt lat="63.86312103" lon="-21.39147759"><ele>14.9</ele><time>2012-07-27T20:10:53.0000000+00:00</time></trkpt><trkpt lat="63.86312103" lon="-21.39147759"><ele>15.1</ele><time>2012-07-27T20:10:58.0000000+00:00</time></trkpt><trkpt lat="63.86311722" lon="-21.39151382"><ele>15.1</ele><time>2012-07-27T20:11:03.0000000+00:00</time></trkpt><trkpt lat="63.86310959" lon="-21.39154625"><ele>15.1</ele><time>2012-07-27T20:11:08.0000000+00:00</time></trkpt><trkpt lat="63.86310959" lon="-21.39154625"><ele>15.2</ele><time>2012-07-27T20:11:13.0000000+00:00</time></trkpt><trkpt lat="63.86310577" lon="-21.39154625"><ele>15.1</ele><time>2012-07-27T20:11:18.0000000+00:00</time></trkpt><trkpt lat="63.86310959" lon="-21.39154625"><ele>15.1</ele><time>2012-07-27T20:11:23.0000000+00:00</time></trkpt><trkpt lat="63.86310959" lon="-21.39154625"><ele>15.1</ele><time>2012-07-27T20:11:28.0000000+00:00</time></trkpt><trkpt lat="63.86310577" lon="-21.39154625"><ele>15.1</ele><time>2012-07-27T20:11:33.0000000+00:00</time></trkpt><trkpt lat="63.86310577" lon="-21.39154625"><ele>15.1</ele><time>2012-07-27T20:11:38.0000000+00:00</time></trkpt><trkpt lat="63.86310577" lon="-21.39154625"><ele>15.1</ele><time>2012-07-27T20:11:43.0000000+00:00</time></trkpt><trkpt lat="63.86310577" lon="-21.39154625"><ele>15.1</ele><time>2012-07-27T20:11:48.0000000+00:00</time></trkpt><trkpt lat="63.86310577" lon="-21.39154625"><ele>15.1</ele><time>2012-07-27T20:11:53.0000000+00:00</time></trkpt><trkpt lat="63.86310577" lon="-21.39154625"><ele>15.1</ele><time>2012-07-27T20:11:58.0000000+00:00</time></trkpt><trkpt lat="63.86310577" lon="-21.39154625"><ele>15.1</ele><time>2012-07-27T20:12:03.0000000+00:00</time></trkpt><trkpt lat="63.86310577" lon="-21.39154625"><ele>15.1</ele><time>2012-07-27T20:12:08.0000000+00:00</time></trkpt><trkpt lat="63.86310577" lon="-21.39154625"><ele>15.1</ele><time>2012-07-27T20:12:13.0000000+00:00</time></trkpt><trkpt lat="63.86310577" lon="-21.39154625"><ele>15.1</ele><time>2012-07-27T20:12:18.0000000+00:00</time></trkpt><trkpt lat="63.86309433" lon="-21.39162827"><ele>14.9</ele><time>2012-07-27T20:12:23.0000000+00:00</time></trkpt><trkpt lat="63.86306763" lon="-21.39180756"><ele>14.7</ele><time>2012-07-27T20:12:28.0000000+00:00</time></trkpt><trkpt lat="63.86306763" lon="-21.39180946"><ele>14.1</ele><time>2012-07-27T20:12:33.0000000+00:00</time></trkpt><trkpt lat="63.86306763" lon="-21.39180946"><ele>14.1</ele><time>2012-07-27T20:12:38.0000000+00:00</time></trkpt><trkpt lat="63.86306763" lon="-21.39181137"><ele>14.1</ele><time>2012-07-27T20:12:43.0000000+00:00</time></trkpt><trkpt lat="63.86306763" lon="-21.39181137"><ele>14.1</ele><time>2012-07-27T20:12:48.0000000+00:00</time></trkpt><trkpt lat="63.86306763" lon="-21.39181328"><ele>14.1</ele><time>2012-07-27T20:12:53.0000000+00:00</time></trkpt><trkpt lat="63.86306763" lon="-21.39181328"><ele>14.1</ele><time>2012-07-27T20:12:58.0000000+00:00</time></trkpt><trkpt lat="63.86306763" lon="-21.39181328"><ele>14.1</ele><time>2012-07-27T20:13:03.0000000+00:00</time></trkpt><trkpt lat="63.86305237" lon="-21.39190292"><ele>14.1</ele><time>2012-07-27T20:13:08.0000000+00:00</time></trkpt><trkpt lat="63.86301804" lon="-21.39214706"><ele>14.0</ele><time>2012-07-27T20:13:13.0000000+00:00</time></trkpt><trkpt lat="63.86297989" lon="-21.3923626"><ele>14.3</ele><time>2012-07-27T20:13:18.0000000+00:00</time></trkpt><trkpt lat="63.86293793" lon="-21.39260674"><ele>14.7</ele><time>2012-07-27T20:13:23.0000000+00:00</time></trkpt><trkpt lat="63.86289978" lon="-21.3927784"><ele>14.6</ele><time>2012-07-27T20:13:28.0000000+00:00</time></trkpt><trkpt lat="63.86286163" lon="-21.39297867"><ele>14.5</ele><time>2012-07-27T20:13:33.0000000+00:00</time></trkpt><trkpt lat="63.86280823" lon="-21.39326477"><ele>14.4</ele><time>2012-07-27T20:13:38.0000000+00:00</time></trkpt><trkpt lat="63.86274338" lon="-21.39359856"><ele>15.5</ele><time>2012-07-27T20:13:43.0000000+00:00</time></trkpt><trkpt lat="63.86267853" lon="-21.39386749"><ele>15.5</ele><time>2012-07-27T20:13:48.0000000+00:00</time></trkpt><trkpt lat="63.86258316" lon="-21.39425087"><ele>15.7</ele><time>2012-07-27T20:13:53.0000000+00:00</time></trkpt><trkpt lat="63.86247253" lon="-21.39461136"><ele>16.0</ele><time>2012-07-27T20:13:58.0000000+00:00</time></trkpt><trkpt lat="63.86235428" lon="-21.39495277"><ele>15.6</ele><time>2012-07-27T20:14:03.0000000+00:00</time></trkpt><trkpt lat="63.86219788" lon="-21.39530182"><ele>15.2</ele><time>2012-07-27T20:14:08.0000000+00:00</time></trkpt><trkpt lat="63.86206055" lon="-21.39558792"><ele>15.4</ele><time>2012-07-27T20:14:13.0000000+00:00</time></trkpt><trkpt lat="63.86195755" lon="-21.39578438"><ele>15.2</ele><time>2012-07-27T20:14:18.0000000+00:00</time></trkpt><trkpt lat="63.86188126" lon="-21.39590836"><ele>15.6</ele><time>2012-07-27T20:14:23.0000000+00:00</time></trkpt><trkpt lat="63.86179733" lon="-21.39603043"><ele>15.9</ele><time>2012-07-27T20:14:28.0000000+00:00</time></trkpt><trkpt lat="63.86164093" lon="-21.39626122"><ele>16.0</ele><time>2012-07-27T20:14:33.0000000+00:00</time></trkpt><trkpt lat="63.86148834" lon="-21.39648628"><ele>16.6</ele><time>2012-07-27T20:14:38.0000000+00:00</time></trkpt><trkpt lat="63.86133957" lon="-21.39668846"><ele>17.0</ele><time>2012-07-27T20:14:43.0000000+00:00</time></trkpt><trkpt lat="63.86117172" lon="-21.39694023"><ele>17.4</ele><time>2012-07-27T20:14:48.0000000+00:00</time></trkpt><trkpt lat="63.8609848" lon="-21.3972187"><ele>18.1</ele><time>2012-07-27T20:14:53.0000000+00:00</time></trkpt><trkpt lat="63.86079025" lon="-21.39749336"><ele>18.8</ele><time>2012-07-27T20:14:58.0000000+00:00</time></trkpt><trkpt lat="63.86061096" lon="-21.39775848"><ele>19.1</ele><time>2012-07-27T20:15:03.0000000+00:00</time></trkpt><trkpt lat="63.8604393" lon="-21.39801025"><ele>18.8</ele><time>2012-07-27T20:15:08.0000000+00:00</time></trkpt><trkpt lat="63.86025238" lon="-21.3983078"><ele>19.1</ele><time>2012-07-27T20:15:13.0000000+00:00</time></trkpt><trkpt lat="63.86006165" lon="-21.39861298"><ele>20.0</ele><time>2012-07-27T20:15:18.0000000+00:00</time></trkpt><trkpt lat="63.8598671" lon="-21.3989315"><ele>20.8</ele><time>2012-07-27T20:15:23.0000000+00:00</time></trkpt><trkpt lat="63.85967636" lon="-21.39927673"><ele>20.8</ele><time>2012-07-27T20:15:28.0000000+00:00</time></trkpt><trkpt lat="63.85948181" lon="-21.39961815"><ele>20.8</ele><time>2012-07-27T20:15:33.0000000+00:00</time></trkpt><trkpt lat="63.85928345" lon="-21.39998245"><ele>21.2</ele><time>2012-07-27T20:15:38.0000000+00:00</time></trkpt><trkpt lat="63.85908127" lon="-21.40034103"><ele>20.7</ele><time>2012-07-27T20:15:43.0000000+00:00</time></trkpt><trkpt lat="63.85889435" lon="-21.40070915"><ele>20.9</ele><time>2012-07-27T20:15:48.0000000+00:00</time></trkpt><trkpt lat="63.8586998" lon="-21.40109062"><ele>20.9</ele><time>2012-07-27T20:15:53.0000000+00:00</time></trkpt><trkpt lat="63.85850906" lon="-21.40148926"><ele>21.4</ele><time>2012-07-27T20:15:58.0000000+00:00</time></trkpt><trkpt lat="63.85837555" lon="-21.40175438"><ele>21.5</ele><time>2012-07-27T20:16:03.0000000+00:00</time></trkpt><trkpt lat="63.85828018" lon="-21.40196037"><ele>21.8</ele><time>2012-07-27T20:16:08.0000000+00:00</time></trkpt><trkpt lat="63.85822296" lon="-21.40208626"><ele>21.6</ele><time>2012-07-27T20:16:13.0000000+00:00</time></trkpt><trkpt lat="63.85815811" lon="-21.40221787"><ele>21.9</ele><time>2012-07-27T20:16:18.0000000+00:00</time></trkpt><trkpt lat="63.8580513" lon="-21.40246201"><ele>21.5</ele><time>2012-07-27T20:16:23.0000000+00:00</time></trkpt><trkpt lat="63.85791397" lon="-21.40279961"><ele>21.4</ele><time>2012-07-27T20:16:28.0000000+00:00</time></trkpt><trkpt lat="63.8577652" lon="-21.40316391"><ele>21.2</ele><time>2012-07-27T20:16:33.0000000+00:00</time></trkpt><trkpt lat="63.85760117" lon="-21.40353012"><ele>20.9</ele><time>2012-07-27T20:16:38.0000000+00:00</time></trkpt><trkpt lat="63.85744095" lon="-21.40393639"><ele>21.2</ele><time>2012-07-27T20:16:43.0000000+00:00</time></trkpt><trkpt lat="63.8572731" lon="-21.40433502"><ele>21.6</ele><time>2012-07-27T20:16:48.0000000+00:00</time></trkpt><trkpt lat="63.85712433" lon="-21.40472031"><ele>21.2</ele><time>2012-07-27T20:16:53.0000000+00:00</time></trkpt><trkpt lat="63.85697174" lon="-21.40512466"><ele>21.3</ele><time>2012-07-27T20:16:58.0000000+00:00</time></trkpt><trkpt lat="63.85680389" lon="-21.40556145"><ele>21.4</ele><time>2012-07-27T20:17:03.0000000+00:00</time></trkpt><trkpt lat="63.85667419" lon="-21.40590859"><ele>21.4</ele><time>2012-07-27T20:17:08.0000000+00:00</time></trkpt><trkpt lat="63.85657501" lon="-21.40618134"><ele>21.5</ele><time>2012-07-27T20:17:13.0000000+00:00</time></trkpt><trkpt lat="63.8564682" lon="-21.40649986"><ele>21.7</ele><time>2012-07-27T20:17:18.0000000+00:00</time></trkpt><trkpt lat="63.85634232" lon="-21.40686226"><ele>21.5</ele><time>2012-07-27T20:17:23.0000000+00:00</time></trkpt><trkpt lat="63.85620117" lon="-21.40727997"><ele>21.1</ele><time>2012-07-27T20:17:28.0000000+00:00</time></trkpt><trkpt lat="63.85606003" lon="-21.40772438"><ele>21.3</ele><time>2012-07-27T20:17:33.0000000+00:00</time></trkpt><trkpt lat="63.85590363" lon="-21.40820503"><ele>21.0</ele><time>2012-07-27T20:17:38.0000000+00:00</time></trkpt><trkpt lat="63.85577393" lon="-21.40863991"><ele>21.1</ele><time>2012-07-27T20:17:43.0000000+00:00</time></trkpt><trkpt lat="63.85564423" lon="-21.4090786"><ele>21.2</ele><time>2012-07-27T20:17:48.0000000+00:00</time></trkpt><trkpt lat="63.85551834" lon="-21.40951157"><ele>21.2</ele><time>2012-07-27T20:17:53.0000000+00:00</time></trkpt><trkpt lat="63.85542297" lon="-21.40985107"><ele>21.6</ele><time>2012-07-27T20:17:58.0000000+00:00</time></trkpt><trkpt lat="63.85531998" lon="-21.4102459"><ele>21.6</ele><time>2012-07-27T20:18:03.0000000+00:00</time></trkpt><trkpt lat="63.85520172" lon="-21.41066551"><ele>21.7</ele><time>2012-07-27T20:18:08.0000000+00:00</time></trkpt><trkpt lat="63.85509872" lon="-21.41103554"><ele>21.7</ele><time>2012-07-27T20:18:13.0000000+00:00</time></trkpt><trkpt lat="63.85502625" lon="-21.41134644"><ele>21.7</ele><time>2012-07-27T20:18:18.0000000+00:00</time></trkpt><trkpt lat="63.85493088" lon="-21.411726"><ele>22.0</ele><time>2012-07-27T20:18:23.0000000+00:00</time></trkpt><trkpt lat="63.85483551" lon="-21.41212273"><ele>22.0</ele><time>2012-07-27T20:18:28.0000000+00:00</time></trkpt><trkpt lat="63.85474396" lon="-21.41252899"><ele>22.4</ele><time>2012-07-27T20:18:33.0000000+00:00</time></trkpt><trkpt lat="63.85464478" lon="-21.41295242"><ele>22.3</ele><time>2012-07-27T20:18:38.0000000+00:00</time></trkpt><trkpt lat="63.85454941" lon="-21.41338158"><ele>22.4</ele><time>2012-07-27T20:18:43.0000000+00:00</time></trkpt><trkpt lat="63.85448074" lon="-21.41371918"><ele>22.7</ele><time>2012-07-27T20:18:48.0000000+00:00</time></trkpt><trkpt lat="63.85440064" lon="-21.41408539"><ele>22.5</ele><time>2012-07-27T20:18:53.0000000+00:00</time></trkpt><trkpt lat="63.85432053" lon="-21.41449165"><ele>22.8</ele><time>2012-07-27T20:18:58.0000000+00:00</time></trkpt><trkpt lat="63.8542366" lon="-21.41489792"><ele>22.9</ele><time>2012-07-27T20:19:03.0000000+00:00</time></trkpt><trkpt lat="63.85415268" lon="-21.41530991"><ele>22.9</ele><time>2012-07-27T20:19:08.0000000+00:00</time></trkpt><trkpt lat="63.85407639" lon="-21.41572189"><ele>23.8</ele><time>2012-07-27T20:19:13.0000000+00:00</time></trkpt><trkpt lat="63.85399628" lon="-21.41615868"><ele>24.4</ele><time>2012-07-27T20:19:18.0000000+00:00</time></trkpt><trkpt lat="63.85390854" lon="-21.41662216"><ele>24.4</ele><time>2012-07-27T20:19:23.0000000+00:00</time></trkpt><trkpt lat="63.85384369" lon="-21.4170475"><ele>24.5</ele><time>2012-07-27T20:19:28.0000000+00:00</time></trkpt><trkpt lat="63.85379028" lon="-21.41735268"><ele>24.7</ele><time>2012-07-27T20:19:33.0000000+00:00</time></trkpt><trkpt lat="63.85372925" lon="-21.41773033"><ele>25.2</ele><time>2012-07-27T20:19:38.0000000+00:00</time></trkpt><trkpt lat="63.8536644" lon="-21.41816711"><ele>25.4</ele><time>2012-07-27T20:19:43.0000000+00:00</time></trkpt><trkpt lat="63.85359573" lon="-21.41862297"><ele>25.5</ele><time>2012-07-27T20:19:48.0000000+00:00</time></trkpt><trkpt lat="63.8535347" lon="-21.41909409"><ele>25.9</ele><time>2012-07-27T20:19:53.0000000+00:00</time></trkpt><trkpt lat="63.85347366" lon="-21.4195137"><ele>26.4</ele><time>2012-07-27T20:19:58.0000000+00:00</time></trkpt><trkpt lat="63.85342789" lon="-21.41980934"><ele>26.4</ele><time>2012-07-27T20:20:03.0000000+00:00</time></trkpt><trkpt lat="63.85338211" lon="-21.42016602"><ele>26.5</ele><time>2012-07-27T20:20:08.0000000+00:00</time></trkpt><trkpt lat="63.85334015" lon="-21.42055702"><ele>26.5</ele><time>2012-07-27T20:20:13.0000000+00:00</time></trkpt><trkpt lat="63.85327911" lon="-21.42099953"><ele>26.7</ele><time>2012-07-27T20:20:18.0000000+00:00</time></trkpt><trkpt lat="63.85322571" lon="-21.42147827"><ele>27.2</ele><time>2012-07-27T20:20:23.0000000+00:00</time></trkpt><trkpt lat="63.8531723" lon="-21.42195511"><ele>27.5</ele><time>2012-07-27T20:20:28.0000000+00:00</time></trkpt><trkpt lat="63.85313034" lon="-21.42242622"><ele>27.5</ele><time>2012-07-27T20:20:33.0000000+00:00</time></trkpt><trkpt lat="63.85308075" lon="-21.42289543"><ele>27.5</ele><time>2012-07-27T20:20:38.0000000+00:00</time></trkpt><trkpt lat="63.85303879" lon="-21.4233551"><ele>27.5</ele><time>2012-07-27T20:20:43.0000000+00:00</time></trkpt><trkpt lat="63.85300064" lon="-21.42378616"><ele>27.6</ele><time>2012-07-27T20:20:48.0000000+00:00</time></trkpt><trkpt lat="63.85297394" lon="-21.42409515"><ele>27.8</ele><time>2012-07-27T20:20:53.0000000+00:00</time></trkpt><trkpt lat="63.85294342" lon="-21.42446709"><ele>27.9</ele><time>2012-07-27T20:20:58.0000000+00:00</time></trkpt><trkpt lat="63.8529129" lon="-21.42488289"><ele>28.0</ele><time>2012-07-27T20:21:03.0000000+00:00</time></trkpt><trkpt lat="63.85288239" lon="-21.42530823"><ele>28.3</ele><time>2012-07-27T20:21:08.0000000+00:00</time></trkpt><trkpt lat="63.85285187" lon="-21.42572022"><ele>28.3</ele><time>2012-07-27T20:21:13.0000000+00:00</time></trkpt><trkpt lat="63.85282517" lon="-21.42614746"><ele>28.9</ele><time>2012-07-27T20:21:18.0000000+00:00</time></trkpt><trkpt lat="63.85279846" lon="-21.42656517"><ele>28.8</ele><time>2012-07-27T20:21:23.0000000+00:00</time></trkpt><trkpt lat="63.85276413" lon="-21.42700577"><ele>28.7</ele><time>2012-07-27T20:21:28.0000000+00:00</time></trkpt><trkpt lat="63.8527565" lon="-21.4274292"><ele>28.3</ele><time>2012-07-27T20:21:33.0000000+00:00</time></trkpt><trkpt lat="63.85274124" lon="-21.42769241"><ele>28.7</ele><time>2012-07-27T20:21:38.0000000+00:00</time></trkpt><trkpt lat="63.8527298" lon="-21.42801857"><ele>28.5</ele><time>2012-07-27T20:21:43.0000000+00:00</time></trkpt><trkpt lat="63.85271835" lon="-21.42843437"><ele>28.2</ele><time>2012-07-27T20:21:48.0000000+00:00</time></trkpt><trkpt lat="63.85269928" lon="-21.42889977"><ele>28.3</ele><time>2012-07-27T20:21:53.0000000+00:00</time></trkpt><trkpt lat="63.85268402" lon="-21.42933846"><ele>28.5</ele><time>2012-07-27T20:21:58.0000000+00:00</time></trkpt><trkpt lat="63.85268021" lon="-21.42967987"><ele>28.9</ele><time>2012-07-27T20:22:03.0000000+00:00</time></trkpt><trkpt lat="63.85266113" lon="-21.43011856"><ele>29.0</ele><time>2012-07-27T20:22:08.0000000+00:00</time></trkpt><trkpt lat="63.85264969" lon="-21.43057442"><ele>29.1</ele><time>2012-07-27T20:22:13.0000000+00:00</time></trkpt><trkpt lat="63.85263825" lon="-21.43095398"><ele>29.4</ele><time>2012-07-27T20:22:18.0000000+00:00</time></trkpt><trkpt lat="63.8526268" lon="-21.43139458"><ele>29.5</ele><time>2012-07-27T20:22:23.0000000+00:00</time></trkpt><trkpt lat="63.85261154" lon="-21.43183708"><ele>29.6</ele><time>2012-07-27T20:22:28.0000000+00:00</time></trkpt><trkpt lat="63.8526001" lon="-21.43214798"><ele>29.9</ele><time>2012-07-27T20:22:33.0000000+00:00</time></trkpt><trkpt lat="63.8526001" lon="-21.43246079"><ele>29.9</ele><time>2012-07-27T20:22:38.0000000+00:00</time></trkpt><trkpt lat="63.85258865" lon="-21.43283081"><ele>29.7</ele><time>2012-07-27T20:22:43.0000000+00:00</time></trkpt><trkpt lat="63.8525734" lon="-21.43324661"><ele>29.8</ele><time>2012-07-27T20:22:48.0000000+00:00</time></trkpt><trkpt lat="63.85256577" lon="-21.4336586"><ele>29.5</ele><time>2012-07-27T20:22:53.0000000+00:00</time></trkpt><trkpt lat="63.85255432" lon="-21.43392181"><ele>29.1</ele><time>2012-07-27T20:22:58.0000000+00:00</time></trkpt><trkpt lat="63.85254669" lon="-21.43409729"><ele>29.2</ele><time>2012-07-27T20:23:03.0000000+00:00</time></trkpt><trkpt lat="63.85253906" lon="-21.43441773"><ele>29.0</ele><time>2012-07-27T20:23:08.0000000+00:00</time></trkpt><trkpt lat="63.8525238" lon="-21.43480682"><ele>29.4</ele><time>2012-07-27T20:23:13.0000000+00:00</time></trkpt><trkpt lat="63.85250473" lon="-21.43523789"><ele>29.4</ele><time>2012-07-27T20:23:18.0000000+00:00</time></trkpt><trkpt lat="63.85248566" lon="-21.43567276"><ele>29.1</ele><time>2012-07-27T20:23:23.0000000+00:00</time></trkpt><trkpt lat="63.85246658" lon="-21.43613052"><ele>28.8</ele><time>2012-07-27T20:23:28.0000000+00:00</time></trkpt><trkpt lat="63.85245132" lon="-21.43657875"><ele>28.9</ele><time>2012-07-27T20:23:33.0000000+00:00</time></trkpt><trkpt lat="63.85243225" lon="-21.43701172"><ele>28.6</ele><time>2012-07-27T20:23:38.0000000+00:00</time></trkpt><trkpt lat="63.85241699" lon="-21.43748474"><ele>28.5</ele><time>2012-07-27T20:23:43.0000000+00:00</time></trkpt><trkpt lat="63.85239029" lon="-21.43796349"><ele>28.1</ele><time>2012-07-27T20:23:48.0000000+00:00</time></trkpt><trkpt lat="63.85237503" lon="-21.43831062"><ele>28.3</ele><time>2012-07-27T20:23:53.0000000+00:00</time></trkpt><trkpt lat="63.85236359" lon="-21.43858528"><ele>28.5</ele><time>2012-07-27T20:23:58.0000000+00:00</time></trkpt><trkpt lat="63.85234451" lon="-21.43900871"><ele>28.8</ele><time>2012-07-27T20:24:03.0000000+00:00</time></trkpt><trkpt lat="63.852314" lon="-21.43948555"><ele>28.5</ele><time>2012-07-27T20:24:08.0000000+00:00</time></trkpt><trkpt lat="63.85228348" lon="-21.43997192"><ele>28.4</ele><time>2012-07-27T20:24:13.0000000+00:00</time></trkpt><trkpt lat="63.85226822" lon="-21.44034767"><ele>28.4</ele><time>2012-07-27T20:24:18.0000000+00:00</time></trkpt><trkpt lat="63.85224915" lon="-21.44071388"><ele>28.6</ele><time>2012-07-27T20:24:23.0000000+00:00</time></trkpt><trkpt lat="63.85222626" lon="-21.44118881"><ele>28.5</ele><time>2012-07-27T20:24:28.0000000+00:00</time></trkpt><trkpt lat="63.85219574" lon="-21.44168282"><ele>28.7</ele><time>2012-07-27T20:24:33.0000000+00:00</time></trkpt><trkpt lat="63.85216904" lon="-21.44216156"><ele>28.9</ele><time>2012-07-27T20:24:38.0000000+00:00</time></trkpt><trkpt lat="63.85214233" lon="-21.44254875"><ele>28.9</ele><time>2012-07-27T20:24:43.0000000+00:00</time></trkpt><trkpt lat="63.85211563" lon="-21.44301796"><ele>29.0</ele><time>2012-07-27T20:24:48.0000000+00:00</time></trkpt><trkpt lat="63.8520813" lon="-21.44350815"><ele>29.1</ele><time>2012-07-27T20:24:53.0000000+00:00</time></trkpt><trkpt lat="63.8520546" lon="-21.44401169"><ele>29.0</ele><time>2012-07-27T20:24:58.0000000+00:00</time></trkpt><trkpt lat="63.85203552" lon="-21.44437981"><ele>28.8</ele><time>2012-07-27T20:25:03.0000000+00:00</time></trkpt><trkpt lat="63.85201263" lon="-21.44469261"><ele>28.7</ele><time>2012-07-27T20:25:08.0000000+00:00</time></trkpt><trkpt lat="63.85198212" lon="-21.44512177"><ele>28.3</ele><time>2012-07-27T20:25:13.0000000+00:00</time></trkpt><trkpt lat="63.85194778" lon="-21.44556999"><ele>28.5</ele><time>2012-07-27T20:25:18.0000000+00:00</time></trkpt><trkpt lat="63.85191727" lon="-21.44603539"><ele>28.6</ele><time>2012-07-27T20:25:23.0000000+00:00</time></trkpt><trkpt lat="63.85189056" lon="-21.44643593"><ele>29.0</ele><time>2012-07-27T20:25:28.0000000+00:00</time></trkpt><trkpt lat="63.8518486" lon="-21.44690704"><ele>29.1</ele><time>2012-07-27T20:25:33.0000000+00:00</time></trkpt><trkpt lat="63.85181046" lon="-21.44740486"><ele>29.4</ele><time>2012-07-27T20:25:38.0000000+00:00</time></trkpt><trkpt lat="63.85177231" lon="-21.44797325"><ele>29.2</ele><time>2012-07-27T20:25:43.0000000+00:00</time></trkpt><trkpt lat="63.85173035" lon="-21.44855118"><ele>29.1</ele><time>2012-07-27T20:25:48.0000000+00:00</time></trkpt><trkpt lat="63.8516922" lon="-21.44905663"><ele>28.8</ele><time>2012-07-27T20:25:53.0000000+00:00</time></trkpt><trkpt lat="63.8516655" lon="-21.44939995"><ele>28.7</ele><time>2012-07-27T20:25:58.0000000+00:00</time></trkpt><trkpt lat="63.85163879" lon="-21.44970703"><ele>28.8</ele><time>2012-07-27T20:26:03.0000000+00:00</time></trkpt><trkpt lat="63.85160828" lon="-21.45005798"><ele>28.4</ele><time>2012-07-27T20:26:08.0000000+00:00</time></trkpt><trkpt lat="63.85156632" lon="-21.45047951"><ele>28.5</ele><time>2012-07-27T20:26:13.0000000+00:00</time></trkpt><trkpt lat="63.85152817" lon="-21.45091248"><ele>28.1</ele><time>2012-07-27T20:26:18.0000000+00:00</time></trkpt><trkpt lat="63.85149384" lon="-21.45130348"><ele>28.1</ele><time>2012-07-27T20:26:23.0000000+00:00</time></trkpt><trkpt lat="63.85145569" lon="-21.45176315"><ele>27.9</ele><time>2012-07-27T20:26:28.0000000+00:00</time></trkpt><trkpt lat="63.85140991" lon="-21.45222092"><ele>28.2</ele><time>2012-07-27T20:26:33.0000000+00:00</time></trkpt><trkpt lat="63.85136795" lon="-21.45267296"><ele>28.3</ele><time>2012-07-27T20:26:38.0000000+00:00</time></trkpt><trkpt lat="63.8513298" lon="-21.453022"><ele>28.0</ele><time>2012-07-27T20:26:43.0000000+00:00</time></trkpt><trkpt lat="63.85129547" lon="-21.45342827"><ele>28.1</ele><time>2012-07-27T20:26:48.0000000+00:00</time></trkpt><trkpt lat="63.8512497" lon="-21.45388031"><ele>28.0</ele><time>2012-07-27T20:26:53.0000000+00:00</time></trkpt><trkpt lat="63.85120392" lon="-21.45435715"><ele>28.0</ele><time>2012-07-27T20:26:58.0000000+00:00</time></trkpt><trkpt lat="63.85116196" lon="-21.45482826"><ele>27.9</ele><time>2012-07-27T20:27:03.0000000+00:00</time></trkpt><trkpt lat="63.85112381" lon="-21.45523834"><ele>27.8</ele><time>2012-07-27T20:27:08.0000000+00:00</time></trkpt><trkpt lat="63.85109329" lon="-21.45548439"><ele>28.3</ele><time>2012-07-27T20:27:13.0000000+00:00</time></trkpt><trkpt lat="63.85107422" lon="-21.45563126"><ele>28.4</ele><time>2012-07-27T20:27:18.0000000+00:00</time></trkpt><trkpt lat="63.85103989" lon="-21.45594978"><ele>28.4</ele><time>2012-07-27T20:27:23.0000000+00:00</time></trkpt><trkpt lat="63.85099793" lon="-21.4563694"><ele>28.4</ele><time>2012-07-27T20:27:28.0000000+00:00</time></trkpt><trkpt lat="63.85095978" lon="-21.45681"><ele>28.2</ele><time>2012-07-27T20:27:33.0000000+00:00</time></trkpt><trkpt lat="63.850914" lon="-21.45719719"><ele>28.0</ele><time>2012-07-27T20:27:38.0000000+00:00</time></trkpt><trkpt lat="63.8508606" lon="-21.45764542"><ele>28.0</ele><time>2012-07-27T20:27:43.0000000+00:00</time></trkpt><trkpt lat="63.85080719" lon="-21.45811653"><ele>27.9</ele><time>2012-07-27T20:27:48.0000000+00:00</time></trkpt><trkpt lat="63.85074997" lon="-21.45848274"><ele>27.5</ele><time>2012-07-27T20:27:53.0000000+00:00</time></trkpt><trkpt lat="63.85071564" lon="-21.45884514"><ele>27.2</ele><time>2012-07-27T20:27:58.0000000+00:00</time></trkpt><trkpt lat="63.85066223" lon="-21.45931816"><ele>27.2</ele><time>2012-07-27T20:28:03.0000000+00:00</time></trkpt><trkpt lat="63.85061646" lon="-21.45979309"><ele>27.7</ele><time>2012-07-27T20:28:08.0000000+00:00</time></trkpt><trkpt lat="63.85057068" lon="-21.46012688"><ele>27.9</ele><time>2012-07-27T20:28:13.0000000+00:00</time></trkpt><trkpt lat="63.85053635" lon="-21.46045303"><ele>28.2</ele><time>2012-07-27T20:28:18.0000000+00:00</time></trkpt><trkpt lat="63.85048294" lon="-21.4608326"><ele>28.1</ele><time>2012-07-27T20:28:23.0000000+00:00</time></trkpt><trkpt lat="63.85042954" lon="-21.46128655"><ele>28.0</ele><time>2012-07-27T20:28:28.0000000+00:00</time></trkpt><trkpt lat="63.85037994" lon="-21.46171951"><ele>28.0</ele><time>2012-07-27T20:28:33.0000000+00:00</time></trkpt><trkpt lat="63.85032654" lon="-21.46209335"><ele>27.8</ele><time>2012-07-27T20:28:38.0000000+00:00</time></trkpt><trkpt lat="63.8502655" lon="-21.46252823"><ele>27.8</ele><time>2012-07-27T20:28:43.0000000+00:00</time></trkpt><trkpt lat="63.8502121" lon="-21.46302223"><ele>27.9</ele><time>2012-07-27T20:28:48.0000000+00:00</time></trkpt><trkpt lat="63.85014725" lon="-21.46352387"><ele>27.7</ele><time>2012-07-27T20:28:53.0000000+00:00</time></trkpt><trkpt lat="63.85007477" lon="-21.46405029"><ele>27.7</ele><time>2012-07-27T20:28:58.0000000+00:00</time></trkpt><trkpt lat="63.85002136" lon="-21.46449661"><ele>27.3</ele><time>2012-07-27T20:29:03.0000000+00:00</time></trkpt><trkpt lat="63.84995651" lon="-21.46494865"><ele>27.2</ele><time>2012-07-27T20:29:08.0000000+00:00</time></trkpt><trkpt lat="63.84988403" lon="-21.46549034"><ele>27.4</ele><time>2012-07-27T20:29:13.0000000+00:00</time></trkpt><trkpt lat="63.84981537" lon="-21.46600723"><ele>27.2</ele><time>2012-07-27T20:29:18.0000000+00:00</time></trkpt><trkpt lat="63.84976196" lon="-21.46640968"><ele>27.3</ele><time>2012-07-27T20:29:23.0000000+00:00</time></trkpt><trkpt lat="63.84970093" lon="-21.46676636"><ele>27.3</ele><time>2012-07-27T20:29:28.0000000+00:00</time></trkpt><trkpt lat="63.84963608" lon="-21.46720505"><ele>27.3</ele><time>2012-07-27T20:29:33.0000000+00:00</time></trkpt><trkpt lat="63.84958649" lon="-21.46756744"><ele>27.3</ele><time>2012-07-27T20:29:38.0000000+00:00</time></trkpt><trkpt lat="63.84954834" lon="-21.46782684"><ele>27.0</ele><time>2012-07-27T20:29:43.0000000+00:00</time></trkpt><trkpt lat="63.84949875" lon="-21.46814156"><ele>26.6</ele><time>2012-07-27T20:29:48.0000000+00:00</time></trkpt><trkpt lat="63.84944153" lon="-21.46851349"><ele>26.5</ele><time>2012-07-27T20:29:53.0000000+00:00</time></trkpt><trkpt lat="63.84937668" lon="-21.46893692"><ele>26.1</ele><time>2012-07-27T20:29:58.0000000+00:00</time></trkpt><trkpt lat="63.84931183" lon="-21.46939468"><ele>26.1</ele><time>2012-07-27T20:30:03.0000000+00:00</time></trkpt><trkpt lat="63.84923554" lon="-21.46984673"><ele>26.0</ele><time>2012-07-27T20:30:08.0000000+00:00</time></trkpt><trkpt lat="63.84917069" lon="-21.47032738"><ele>26.0</ele><time>2012-07-27T20:30:13.0000000+00:00</time></trkpt><trkpt lat="63.84909439" lon="-21.47079849"><ele>25.8</ele><time>2012-07-27T20:30:18.0000000+00:00</time></trkpt><trkpt lat="63.84901047" lon="-21.47130966"><ele>25.5</ele><time>2012-07-27T20:30:23.0000000+00:00</time></trkpt><trkpt lat="63.84892654" lon="-21.47183228"><ele>25.3</ele><time>2012-07-27T20:30:28.0000000+00:00</time></trkpt><trkpt lat="63.84884262" lon="-21.47235107"><ele>25.4</ele><time>2012-07-27T20:30:33.0000000+00:00</time></trkpt><trkpt lat="63.84877014" lon="-21.4727726"><ele>25.2</ele><time>2012-07-27T20:30:38.0000000+00:00</time></trkpt><trkpt lat="63.84869385" lon="-21.47324371"><ele>25.1</ele><time>2012-07-27T20:30:43.0000000+00:00</time></trkpt><trkpt lat="63.84860611" lon="-21.47374153"><ele>25.0</ele><time>2012-07-27T20:30:48.0000000+00:00</time></trkpt><trkpt lat="63.84851837" lon="-21.47424698"><ele>24.6</ele><time>2012-07-27T20:30:53.0000000+00:00</time></trkpt><trkpt lat="63.84843445" lon="-21.47472191"><ele>24.2</ele><time>2012-07-27T20:30:58.0000000+00:00</time></trkpt><trkpt lat="63.84835434" lon="-21.47519493"><ele>23.9</ele><time>2012-07-27T20:31:03.0000000+00:00</time></trkpt><trkpt lat="63.84826279" lon="-21.47570038"><ele>23.2</ele><time>2012-07-27T20:31:08.0000000+00:00</time></trkpt><trkpt lat="63.84817123" lon="-21.47622681"><ele>23.4</ele><time>2012-07-27T20:31:13.0000000+00:00</time></trkpt><trkpt lat="63.84807587" lon="-21.47674751"><ele>23.6</ele><time>2012-07-27T20:31:18.0000000+00:00</time></trkpt><trkpt lat="63.84799576" lon="-21.47720337"><ele>23.9</ele><time>2012-07-27T20:31:23.0000000+00:00</time></trkpt><trkpt lat="63.84792328" lon="-21.47758293"><ele>23.6</ele><time>2012-07-27T20:31:28.0000000+00:00</time></trkpt><trkpt lat="63.84783936" lon="-21.47805023"><ele>23.9</ele><time>2012-07-27T20:31:33.0000000+00:00</time></trkpt><trkpt lat="63.8477478" lon="-21.47853279"><ele>24.0</ele><time>2012-07-27T20:31:38.0000000+00:00</time></trkpt><trkpt lat="63.84765625" lon="-21.47901535"><ele>24.2</ele><time>2012-07-27T20:31:43.0000000+00:00</time></trkpt><trkpt lat="63.84756851" lon="-21.47949028"><ele>24.2</ele><time>2012-07-27T20:31:48.0000000+00:00</time></trkpt><trkpt lat="63.8474884" lon="-21.47986412"><ele>24.1</ele><time>2012-07-27T20:31:53.0000000+00:00</time></trkpt><trkpt lat="63.8474083" lon="-21.48029137"><ele>24.2</ele><time>2012-07-27T20:31:58.0000000+00:00</time></trkpt><trkpt lat="63.84732819" lon="-21.48068428"><ele>24.4</ele><time>2012-07-27T20:32:03.0000000+00:00</time></trkpt><trkpt lat="63.84726334" lon="-21.48098373"><ele>24.2</ele><time>2012-07-27T20:32:08.0000000+00:00</time></trkpt><trkpt lat="63.84719086" lon="-21.48135948"><ele>24.4</ele><time>2012-07-27T20:32:13.0000000+00:00</time></trkpt><trkpt lat="63.84710693" lon="-21.48176575"><ele>24.5</ele><time>2012-07-27T20:32:18.0000000+00:00</time></trkpt><trkpt lat="63.8470192" lon="-21.48220444"><ele>24.2</ele><time>2012-07-27T20:32:23.0000000+00:00</time></trkpt><trkpt lat="63.84695816" lon="-21.48254585"><ele>24.5</ele><time>2012-07-27T20:32:28.0000000+00:00</time></trkpt><trkpt lat="63.84690094" lon="-21.48279953"><ele>24.3</ele><time>2012-07-27T20:32:33.0000000+00:00</time></trkpt><trkpt lat="63.84682465" lon="-21.48316383"><ele>24.0</ele><time>2012-07-27T20:32:38.0000000+00:00</time></trkpt><trkpt lat="63.84673691" lon="-21.48360825"><ele>24.0</ele><time>2012-07-27T20:32:43.0000000+00:00</time></trkpt><trkpt lat="63.84664154" lon="-21.48408318"><ele>23.9</ele><time>2012-07-27T20:32:48.0000000+00:00</time></trkpt><trkpt lat="63.84656525" lon="-21.48445702"><ele>23.8</ele><time>2012-07-27T20:32:53.0000000+00:00</time></trkpt><trkpt lat="63.84648895" lon="-21.4848423"><ele>23.9</ele><time>2012-07-27T20:32:58.0000000+00:00</time></trkpt><trkpt lat="63.8463974" lon="-21.48527336"><ele>23.8</ele><time>2012-07-27T20:33:03.0000000+00:00</time></trkpt><trkpt lat="63.84630585" lon="-21.4857235"><ele>24.2</ele><time>2012-07-27T20:33:08.0000000+00:00</time></trkpt><trkpt lat="63.84621048" lon="-21.486166"><ele>24.5</ele><time>2012-07-27T20:33:13.0000000+00:00</time></trkpt><trkpt lat="63.846138" lon="-21.48650169"><ele>24.7</ele><time>2012-07-27T20:33:18.0000000+00:00</time></trkpt><trkpt lat="63.84606552" lon="-21.48687744"><ele>24.6</ele><time>2012-07-27T20:33:23.0000000+00:00</time></trkpt><trkpt lat="63.8459816" lon="-21.48730087"><ele>25.0</ele><time>2012-07-27T20:33:28.0000000+00:00</time></trkpt><trkpt lat="63.84589386" lon="-21.48774147"><ele>25.2</ele><time>2012-07-27T20:33:33.0000000+00:00</time></trkpt><trkpt lat="63.84580231" lon="-21.48820686"><ele>25.3</ele><time>2012-07-27T20:33:38.0000000+00:00</time></trkpt><trkpt lat="63.84571457" lon="-21.48864365"><ele>25.4</ele><time>2012-07-27T20:33:43.0000000+00:00</time></trkpt><trkpt lat="63.84564209" lon="-21.48900032"><ele>25.7</ele><time>2012-07-27T20:33:48.0000000+00:00</time></trkpt><trkpt lat="63.84556198" lon="-21.48942566"><ele>26.1</ele><time>2012-07-27T20:33:53.0000000+00:00</time></trkpt><trkpt lat="63.84547043" lon="-21.48988152"><ele>26.3</ele><time>2012-07-27T20:33:58.0000000+00:00</time></trkpt><trkpt lat="63.84538651" lon="-21.49032021"><ele>26.3</ele><time>2012-07-27T20:34:03.0000000+00:00</time></trkpt><trkpt lat="63.84532166" lon="-21.49070549"><ele>26.4</ele><time>2012-07-27T20:34:08.0000000+00:00</time></trkpt><trkpt lat="63.84524918" lon="-21.49114227"><ele>26.9</ele><time>2012-07-27T20:34:13.0000000+00:00</time></trkpt><trkpt lat="63.84516525" lon="-21.49157524"><ele>26.8</ele><time>2012-07-27T20:34:18.0000000+00:00</time></trkpt><trkpt lat="63.84509277" lon="-21.49201965"><ele>27.1</ele><time>2012-07-27T20:34:23.0000000+00:00</time></trkpt><trkpt lat="63.84501267" lon="-21.49246407"><ele>27.3</ele><time>2012-07-27T20:34:28.0000000+00:00</time></trkpt><trkpt lat="63.84494019" lon="-21.4928894"><ele>27.5</ele><time>2012-07-27T20:34:33.0000000+00:00</time></trkpt><trkpt lat="63.84487915" lon="-21.49321365"><ele>27.9</ele><time>2012-07-27T20:34:38.0000000+00:00</time></trkpt><trkpt lat="63.84481049" lon="-21.49359322"><ele>27.9</ele><time>2012-07-27T20:34:43.0000000+00:00</time></trkpt><trkpt lat="63.84473801" lon="-21.49402809"><ele>28.0</ele><time>2012-07-27T20:34:48.0000000+00:00</time></trkpt><trkpt lat="63.84467316" lon="-21.49441338"><ele>28.5</ele><time>2012-07-27T20:34:53.0000000+00:00</time></trkpt><trkpt lat="63.84460831" lon="-21.49479675"><ele>28.3</ele><time>2012-07-27T20:34:58.0000000+00:00</time></trkpt><trkpt lat="63.84453583" lon="-21.49522972"><ele>28.6</ele><time>2012-07-27T20:35:03.0000000+00:00</time></trkpt><trkpt lat="63.84445572" lon="-21.49568939"><ele>28.7</ele><time>2012-07-27T20:35:08.0000000+00:00</time></trkpt><trkpt lat="63.84437943" lon="-21.49611473"><ele>28.6</ele><time>2012-07-27T20:35:13.0000000+00:00</time></trkpt><trkpt lat="63.84432983" lon="-21.49645996"><ele>28.6</ele><time>2012-07-27T20:35:18.0000000+00:00</time></trkpt><trkpt lat="63.84428787" lon="-21.49671364"><ele>28.5</ele><time>2012-07-27T20:35:23.0000000+00:00</time></trkpt><trkpt lat="63.8442421" lon="-21.49691391"><ele>28.2</ele><time>2012-07-27T20:35:28.0000000+00:00</time></trkpt><trkpt lat="63.84420395" lon="-21.4972496"><ele>28.0</ele><time>2012-07-27T20:35:33.0000000+00:00</time></trkpt><trkpt lat="63.84414673" lon="-21.49766731"><ele>28.1</ele><time>2012-07-27T20:35:38.0000000+00:00</time></trkpt><trkpt lat="63.84407425" lon="-21.49812508"><ele>28.9</ele><time>2012-07-27T20:35:43.0000000+00:00</time></trkpt><trkpt lat="63.84400559" lon="-21.49859428"><ele>28.6</ele><time>2012-07-27T20:35:48.0000000+00:00</time></trkpt><trkpt lat="63.84393311" lon="-21.49905396"><ele>28.0</ele><time>2012-07-27T20:35:53.0000000+00:00</time></trkpt><trkpt lat="63.84387207" lon="-21.4995327"><ele>28.1</ele><time>2012-07-27T20:35:58.0000000+00:00</time></trkpt><trkpt lat="63.84379959" lon="-21.50002861"><ele>28.1</ele><time>2012-07-27T20:36:03.0000000+00:00</time></trkpt><trkpt lat="63.84372711" lon="-21.50048065"><ele>28.1</ele><time>2012-07-27T20:36:08.0000000+00:00</time></trkpt><trkpt lat="63.84368134" lon="-21.50086403"><ele>27.9</ele><time>2012-07-27T20:36:13.0000000+00:00</time></trkpt><trkpt lat="63.84363937" lon="-21.50114822"><ele>28.1</ele><time>2012-07-27T20:36:18.0000000+00:00</time></trkpt><trkpt lat="63.84359741" lon="-21.50144577"><ele>28.1</ele><time>2012-07-27T20:36:23.0000000+00:00</time></trkpt><trkpt lat="63.84354019" lon="-21.50183678"><ele>28.0</ele><time>2012-07-27T20:36:28.0000000+00:00</time></trkpt><trkpt lat="63.84348297" lon="-21.50229645"><ele>28.1</ele><time>2012-07-27T20:36:33.0000000+00:00</time></trkpt><trkpt lat="63.84341812" lon="-21.50278091"><ele>28.2</ele><time>2012-07-27T20:36:38.0000000+00:00</time></trkpt><trkpt lat="63.84335709" lon="-21.50320053"><ele>28.0</ele><time>2012-07-27T20:36:43.0000000+00:00</time></trkpt><trkpt lat="63.84331513" lon="-21.50351524"><ele>28.1</ele><time>2012-07-27T20:36:48.0000000+00:00</time></trkpt><trkpt lat="63.84326172" lon="-21.5038662"><ele>27.8</ele><time>2012-07-27T20:36:53.0000000+00:00</time></trkpt><trkpt lat="63.84321213" lon="-21.50430679"><ele>27.5</ele><time>2012-07-27T20:36:58.0000000+00:00</time></trkpt><trkpt lat="63.84315491" lon="-21.50478363"><ele>27.7</ele><time>2012-07-27T20:37:03.0000000+00:00</time></trkpt><trkpt lat="63.84309387" lon="-21.50528145"><ele>27.9</ele><time>2012-07-27T20:37:08.0000000+00:00</time></trkpt><trkpt lat="63.84303284" lon="-21.50580216"><ele>28.0</ele><time>2012-07-27T20:37:13.0000000+00:00</time></trkpt><trkpt lat="63.84297943" lon="-21.50629997"><ele>27.9</ele><time>2012-07-27T20:37:18.0000000+00:00</time></trkpt><trkpt lat="63.84293747" lon="-21.50668335"><ele>27.6</ele><time>2012-07-27T20:37:23.0000000+00:00</time></trkpt><trkpt lat="63.84290314" lon="-21.50694275"><ele>27.8</ele><time>2012-07-27T20:37:28.0000000+00:00</time></trkpt><trkpt lat="63.84286118" lon="-21.5073185"><ele>27.7</ele><time>2012-07-27T20:37:33.0000000+00:00</time></trkpt><trkpt lat="63.84280396" lon="-21.507761"><ele>27.6</ele><time>2012-07-27T20:37:38.0000000+00:00</time></trkpt><trkpt lat="63.84276581" lon="-21.50815964"><ele>27.3</ele><time>2012-07-27T20:37:43.0000000+00:00</time></trkpt><trkpt lat="63.8427124" lon="-21.50857735"><ele>26.7</ele><time>2012-07-27T20:37:48.0000000+00:00</time></trkpt><trkpt lat="63.84266281" lon="-21.50904083"><ele>27.4</ele><time>2012-07-27T20:37:53.0000000+00:00</time></trkpt><trkpt lat="63.84261322" lon="-21.50953102"><ele>27.7</ele><time>2012-07-27T20:37:58.0000000+00:00</time></trkpt><trkpt lat="63.84255219" lon="-21.51005554"><ele>27.9</ele><time>2012-07-27T20:38:03.0000000+00:00</time></trkpt><trkpt lat="63.84251022" lon="-21.51044655"><ele>28.0</ele><time>2012-07-27T20:38:08.0000000+00:00</time></trkpt><trkpt lat="63.84248352" lon="-21.51070023"><ele>28.1</ele><time>2012-07-27T20:38:13.0000000+00:00</time></trkpt><trkpt lat="63.84246445" lon="-21.5108738"><ele>28.2</ele><time>2012-07-27T20:38:18.0000000+00:00</time></trkpt><trkpt lat="63.842453" lon="-21.51098824"><ele>28.2</ele><time>2012-07-27T20:38:23.0000000+00:00</time></trkpt><trkpt lat="63.8424263" lon="-21.51125336"><ele>28.5</ele><time>2012-07-27T20:38:28.0000000+00:00</time></trkpt><trkpt lat="63.84238815" lon="-21.51165772"><ele>28.3</ele><time>2012-07-27T20:38:33.0000000+00:00</time></trkpt><trkpt lat="63.84235001" lon="-21.51212883"><ele>28.9</ele><time>2012-07-27T20:38:38.0000000+00:00</time></trkpt><trkpt lat="63.84231186" lon="-21.51251411"><ele>28.8</ele><time>2012-07-27T20:38:43.0000000+00:00</time></trkpt><trkpt lat="63.84227371" lon="-21.51286507"><ele>28.5</ele><time>2012-07-27T20:38:48.0000000+00:00</time></trkpt><trkpt lat="63.84223557" lon="-21.51329804"><ele>28.3</ele><time>2012-07-27T20:38:53.0000000+00:00</time></trkpt><trkpt lat="63.84220505" lon="-21.51363945"><ele>28.1</ele><time>2012-07-27T20:38:58.0000000+00:00</time></trkpt><trkpt lat="63.84218979" lon="-21.51391602"><ele>27.9</ele><time>2012-07-27T20:39:03.0000000+00:00</time></trkpt><trkpt lat="63.84215164" lon="-21.51431274"><ele>27.8</ele><time>2012-07-27T20:39:08.0000000+00:00</time></trkpt><trkpt lat="63.84210968" lon="-21.51480293"><ele>27.8</ele><time>2012-07-27T20:39:13.0000000+00:00</time></trkpt><trkpt lat="63.8420639" lon="-21.51529503"><ele>27.7</ele><time>2012-07-27T20:39:18.0000000+00:00</time></trkpt><trkpt lat="63.84202194" lon="-21.51570511"><ele>27.3</ele><time>2012-07-27T20:39:23.0000000+00:00</time></trkpt><trkpt lat="63.84199524" lon="-21.51606941"><ele>27.3</ele><time>2012-07-27T20:39:28.0000000+00:00</time></trkpt><trkpt lat="63.84195709" lon="-21.51652718"><ele>28.1</ele><time>2012-07-27T20:39:33.0000000+00:00</time></trkpt><trkpt lat="63.84192658" lon="-21.51700783"><ele>28.0</ele><time>2012-07-27T20:39:38.0000000+00:00</time></trkpt><trkpt lat="63.84188843" lon="-21.51750374"><ele>28.0</ele><time>2012-07-27T20:39:43.0000000+00:00</time></trkpt><trkpt lat="63.84185791" lon="-21.51790047"><ele>27.5</ele><time>2012-07-27T20:39:48.0000000+00:00</time></trkpt><trkpt lat="63.84182358" lon="-21.51833534"><ele>27.4</ele><time>2012-07-27T20:39:53.0000000+00:00</time></trkpt><trkpt lat="63.84178925" lon="-21.51882744"><ele>27.2</ele><time>2012-07-27T20:39:58.0000000+00:00</time></trkpt><trkpt lat="63.84175873" lon="-21.51929474"><ele>26.8</ele><time>2012-07-27T20:40:03.0000000+00:00</time></trkpt><trkpt lat="63.84173203" lon="-21.51963997"><ele>26.5</ele><time>2012-07-27T20:40:08.0000000+00:00</time></trkpt><trkpt lat="63.84171677" lon="-21.51987648"><ele>26.6</ele><time>2012-07-27T20:40:13.0000000+00:00</time></trkpt><trkpt lat="63.84169769" lon="-21.52018929"><ele>26.6</ele><time>2012-07-27T20:40:18.0000000+00:00</time></trkpt><trkpt lat="63.84167099" lon="-21.52060318"><ele>26.7</ele><time>2012-07-27T20:40:23.0000000+00:00</time></trkpt><trkpt lat="63.84164047" lon="-21.52106476"><ele>26.5</ele><time>2012-07-27T20:40:28.0000000+00:00</time></trkpt><trkpt lat="63.84161377" lon="-21.52152062"><ele>26.4</ele><time>2012-07-27T20:40:33.0000000+00:00</time></trkpt><trkpt lat="63.84159088" lon="-21.52197838"><ele>26.3</ele><time>2012-07-27T20:40:38.0000000+00:00</time></trkpt><trkpt lat="63.84156799" lon="-21.52232742"><ele>25.9</ele><time>2012-07-27T20:40:43.0000000+00:00</time></trkpt><trkpt lat="63.84154892" lon="-21.52254295"><ele>25.9</ele><time>2012-07-27T20:40:48.0000000+00:00</time></trkpt><trkpt lat="63.84153748" lon="-21.52278137"><ele>25.4</ele><time>2012-07-27T20:40:53.0000000+00:00</time></trkpt><trkpt lat="63.8415184" lon="-21.5231781"><ele>25.2</ele><time>2012-07-27T20:40:58.0000000+00:00</time></trkpt><trkpt lat="63.8414917" lon="-21.52352142"><ele>25.0</ele><time>2012-07-27T20:41:03.0000000+00:00</time></trkpt><trkpt lat="63.84153748" lon="-21.52368736"><ele>22.6</ele><time>2012-07-27T20:41:08.0000000+00:00</time></trkpt><trkpt lat="63.84153748" lon="-21.52368736"><ele>22.3</ele><time>2012-07-27T20:41:13.0000000+00:00</time></trkpt><trkpt lat="63.84153748" lon="-21.52368736"><ele>22.3</ele><time>2012-07-27T20:41:18.0000000+00:00</time></trkpt><trkpt lat="63.84153748" lon="-21.52368736"><ele>22.3</ele><time>2012-07-27T20:41:23.0000000+00:00</time></trkpt><trkpt lat="63.84153748" lon="-21.52368736"><ele>22.3</ele><time>2012-07-27T20:41:28.0000000+00:00</time></trkpt><trkpt lat="63.84153748" lon="-21.52368736"><ele>22.3</ele><time>2012-07-27T20:41:33.0000000+00:00</time></trkpt><trkpt lat="63.84153748" lon="-21.52368736"><ele>22.2</ele><time>2012-07-27T20:41:38.0000000+00:00</time></trkpt><trkpt lat="63.84153748" lon="-21.52368736"><ele>22.2</ele><time>2012-07-27T20:41:43.0000000+00:00</time></trkpt><trkpt lat="63.84153748" lon="-21.52368736"><ele>22.2</ele><time>2012-07-27T20:41:48.0000000+00:00</time></trkpt><trkpt lat="63.84153748" lon="-21.52368736"><ele>22.2</ele><time>2012-07-27T20:41:53.0000000+00:00</time></trkpt><trkpt lat="63.84153748" lon="-21.52368736"><ele>22.2</ele><time>2012-07-27T20:41:58.0000000+00:00</time></trkpt><trkpt lat="63.84153748" lon="-21.52368736"><ele>22.2</ele><time>2012-07-27T20:42:03.0000000+00:00</time></trkpt><trkpt lat="63.84153748" lon="-21.52368736"><ele>22.2</ele><time>2012-07-27T20:42:08.0000000+00:00</time></trkpt><trkpt lat="63.84153748" lon="-21.52368736"><ele>22.2</ele><time>2012-07-27T20:42:13.0000000+00:00</time></trkpt><trkpt lat="63.84153748" lon="-21.52368736"><ele>22.2</ele><time>2012-07-27T20:42:18.0000000+00:00</time></trkpt><trkpt lat="63.84153748" lon="-21.52368736"><ele>22.2</ele><time>2012-07-27T20:42:23.0000000+00:00</time></trkpt><trkpt lat="63.84153748" lon="-21.52368736"><ele>22.2</ele><time>2012-07-27T20:42:28.0000000+00:00</time></trkpt><trkpt lat="63.84153748" lon="-21.52368736"><ele>22.1</ele><time>2012-07-27T20:42:33.0000000+00:00</time></trkpt><trkpt lat="63.84153748" lon="-21.52368546"><ele>22.1</ele><time>2012-07-27T20:42:38.0000000+00:00</time></trkpt><trkpt lat="63.84153748" lon="-21.52368546"><ele>22.1</ele><time>2012-07-27T20:42:43.0000000+00:00</time></trkpt><trkpt lat="63.84153748" lon="-21.52368546"><ele>22.1</ele><time>2012-07-27T20:42:48.0000000+00:00</time></trkpt><trkpt lat="63.84153748" lon="-21.52368546"><ele>22.1</ele><time>2012-07-27T20:42:53.0000000+00:00</time></trkpt><trkpt lat="63.84153748" lon="-21.52368546"><ele>22.1</ele><time>2012-07-27T20:42:58.0000000+00:00</time></trkpt><trkpt lat="63.84153748" lon="-21.52368546"><ele>22.1</ele><time>2012-07-27T20:43:03.0000000+00:00</time></trkpt><trkpt lat="63.84153748" lon="-21.52368546"><ele>22.1</ele><time>2012-07-27T20:43:08.0000000+00:00</time></trkpt><trkpt lat="63.84153748" lon="-21.52368355"><ele>22.0</ele><time>2012-07-27T20:43:13.0000000+00:00</time></trkpt><trkpt lat="63.84153748" lon="-21.52368355"><ele>22.0</ele><time>2012-07-27T20:43:18.0000000+00:00</time></trkpt><trkpt lat="63.84153748" lon="-21.52368355"><ele>22.0</ele><time>2012-07-27T20:43:23.0000000+00:00</time></trkpt><trkpt lat="63.84153748" lon="-21.52368355"><ele>22.0</ele><time>2012-07-27T20:43:28.0000000+00:00</time></trkpt><trkpt lat="63.84153748" lon="-21.52368355"><ele>22.0</ele><time>2012-07-27T20:43:33.0000000+00:00</time></trkpt><trkpt lat="63.84153748" lon="-21.52368355"><ele>22.0</ele><time>2012-07-27T20:43:38.0000000+00:00</time></trkpt><trkpt lat="63.84153748" lon="-21.52368355"><ele>22.0</ele><time>2012-07-27T20:43:43.0000000+00:00</time></trkpt><trkpt lat="63.84153748" lon="-21.52368164"><ele>22.0</ele><time>2012-07-27T20:43:48.0000000+00:00</time></trkpt><trkpt lat="63.84153748" lon="-21.52368164"><ele>22.0</ele><time>2012-07-27T20:43:53.0000000+00:00</time></trkpt><trkpt lat="63.84153748" lon="-21.52368164"><ele>21.9</ele><time>2012-07-27T20:43:58.0000000+00:00</time></trkpt><trkpt lat="63.84153748" lon="-21.52368164"><ele>21.9</ele><time>2012-07-27T20:44:03.0000000+00:00</time></trkpt><trkpt lat="63.84153748" lon="-21.52368164"><ele>21.9</ele><time>2012-07-27T20:44:08.0000000+00:00</time></trkpt><trkpt lat="63.84153748" lon="-21.52368164"><ele>21.9</ele><time>2012-07-27T20:44:13.0000000+00:00</time></trkpt><trkpt lat="63.84153748" lon="-21.52367973"><ele>21.9</ele><time>2012-07-27T20:44:18.0000000+00:00</time></trkpt><trkpt lat="63.84153748" lon="-21.52367973"><ele>21.9</ele><time>2012-07-27T20:44:23.0000000+00:00</time></trkpt><trkpt lat="63.84153748" lon="-21.52367973"><ele>21.9</ele><time>2012-07-27T20:44:28.0000000+00:00</time></trkpt><trkpt lat="63.84153748" lon="-21.52367973"><ele>21.9</ele><time>2012-07-27T20:44:33.0000000+00:00</time></trkpt><trkpt lat="63.84153748" lon="-21.52367973"><ele>21.9</ele><time>2012-07-27T20:44:38.0000000+00:00</time></trkpt><trkpt lat="63.84153748" lon="-21.52367973"><ele>21.9</ele><time>2012-07-27T20:44:43.0000000+00:00</time></trkpt><trkpt lat="63.84153748" lon="-21.52367973"><ele>21.9</ele><time>2012-07-27T20:44:48.0000000+00:00</time></trkpt><trkpt lat="63.84153748" lon="-21.52367973"><ele>21.8</ele><time>2012-07-27T20:44:53.0000000+00:00</time></trkpt><trkpt lat="63.84153748" lon="-21.52367783"><ele>21.8</ele><time>2012-07-27T20:44:58.0000000+00:00</time></trkpt><trkpt lat="63.84153748" lon="-21.52367783"><ele>21.8</ele><time>2012-07-27T20:45:03.0000000+00:00</time></trkpt><trkpt lat="63.84153748" lon="-21.52367783"><ele>21.8</ele><time>2012-07-27T20:45:08.0000000+00:00</time></trkpt><trkpt lat="63.84153748" lon="-21.52367783"><ele>21.8</ele><time>2012-07-27T20:45:13.0000000+00:00</time></trkpt><trkpt lat="63.84153748" lon="-21.52367783"><ele>21.8</ele><time>2012-07-27T20:45:18.0000000+00:00</time></trkpt><trkpt lat="63.84153748" lon="-21.52367783"><ele>21.8</ele><time>2012-07-27T20:45:23.0000000+00:00</time></trkpt><trkpt lat="63.84153748" lon="-21.52367783"><ele>21.8</ele><time>2012-07-27T20:45:28.0000000+00:00</time></trkpt><trkpt lat="63.84153748" lon="-21.52367783"><ele>21.8</ele><time>2012-07-27T20:45:33.0000000+00:00</time></trkpt><trkpt lat="63.84153748" lon="-21.52367592"><ele>21.8</ele><time>2012-07-27T20:45:38.0000000+00:00</time></trkpt><trkpt lat="63.84153748" lon="-21.52367592"><ele>21.8</ele><time>2012-07-27T20:45:43.0000000+00:00</time></trkpt><trkpt lat="63.84153748" lon="-21.52367592"><ele>21.8</ele><time>2012-07-27T20:45:48.0000000+00:00</time></trkpt><trkpt lat="63.84153748" lon="-21.52367592"><ele>21.7</ele><time>2012-07-27T20:45:53.0000000+00:00</time></trkpt><trkpt lat="63.84153748" lon="-21.52367592"><ele>21.7</ele><time>2012-07-27T20:45:58.0000000+00:00</time></trkpt><trkpt lat="63.84153748" lon="-21.52367592"><ele>21.7</ele><time>2012-07-27T20:46:03.0000000+00:00</time></trkpt><trkpt lat="63.84153748" lon="-21.52367592"><ele>21.7</ele><time>2012-07-27T20:46:08.0000000+00:00</time></trkpt><trkpt lat="63.84153748" lon="-21.52367592"><ele>21.7</ele><time>2012-07-27T20:46:13.0000000+00:00</time></trkpt><trkpt lat="63.84153748" lon="-21.52367592"><ele>21.7</ele><time>2012-07-27T20:46:18.0000000+00:00</time></trkpt><trkpt lat="63.84153748" lon="-21.52367401"><ele>21.7</ele><time>2012-07-27T20:46:23.0000000+00:00</time></trkpt><trkpt lat="63.84153748" lon="-21.52367401"><ele>21.7</ele><time>2012-07-27T20:46:28.0000000+00:00</time></trkpt><trkpt lat="63.84153748" lon="-21.52367401"><ele>21.7</ele><time>2012-07-27T20:46:33.0000000+00:00</time></trkpt><trkpt lat="63.84153748" lon="-21.52367401"><ele>21.7</ele><time>2012-07-27T20:46:38.0000000+00:00</time></trkpt><trkpt lat="63.84153748" lon="-21.52367401"><ele>21.7</ele><time>2012-07-27T20:46:43.0000000+00:00</time></trkpt><trkpt lat="63.84153748" lon="-21.52367401"><ele>21.6</ele><time>2012-07-27T20:46:48.0000000+00:00</time></trkpt><trkpt lat="63.84153748" lon="-21.52367401"><ele>21.6</ele><time>2012-07-27T20:46:53.0000000+00:00</time></trkpt><trkpt lat="63.84153748" lon="-21.5236721"><ele>21.6</ele><time>2012-07-27T20:46:58.0000000+00:00</time></trkpt><trkpt lat="63.84153748" lon="-21.5236721"><ele>21.6</ele><time>2012-07-27T20:47:03.0000000+00:00</time></trkpt><trkpt lat="63.84153748" lon="-21.5236721"><ele>21.6</ele><time>2012-07-27T20:47:08.0000000+00:00</time></trkpt><trkpt lat="63.84153748" lon="-21.5236721"><ele>21.6</ele><time>2012-07-27T20:47:13.0000000+00:00</time></trkpt><trkpt lat="63.84153748" lon="-21.5236721"><ele>21.6</ele><time>2012-07-27T20:47:18.0000000+00:00</time></trkpt><trkpt lat="63.84153748" lon="-21.5236721"><ele>21.6</ele><time>2012-07-27T20:47:23.0000000+00:00</time></trkpt><trkpt lat="63.84153748" lon="-21.5236721"><ele>21.6</ele><time>2012-07-27T20:47:28.0000000+00:00</time></trkpt><trkpt lat="63.84153748" lon="-21.5236702"><ele>21.6</ele><time>2012-07-27T20:47:33.0000000+00:00</time></trkpt><trkpt lat="63.84153748" lon="-21.5236702"><ele>21.6</ele><time>2012-07-27T20:47:38.0000000+00:00</time></trkpt><trkpt lat="63.84153748" lon="-21.5236702"><ele>21.6</ele><time>2012-07-27T20:47:43.0000000+00:00</time></trkpt><trkpt lat="63.84153748" lon="-21.5236702"><ele>21.6</ele><time>2012-07-27T20:47:48.0000000+00:00</time></trkpt><trkpt lat="63.84153748" lon="-21.5236702"><ele>21.6</ele><time>2012-07-27T20:47:53.0000000+00:00</time></trkpt><trkpt lat="63.84153748" lon="-21.5236702"><ele>21.6</ele><time>2012-07-27T20:47:58.0000000+00:00</time></trkpt><trkpt lat="63.84153748" lon="-21.52366829"><ele>21.6</ele><time>2012-07-27T20:48:03.0000000+00:00</time></trkpt><trkpt lat="63.84153748" lon="-21.52366829"><ele>21.6</ele><time>2012-07-27T20:48:08.0000000+00:00</time></trkpt><trkpt lat="63.84153748" lon="-21.52366829"><ele>21.5</ele><time>2012-07-27T20:48:13.0000000+00:00</time></trkpt><trkpt lat="63.84153748" lon="-21.52366829"><ele>21.5</ele><time>2012-07-27T20:48:18.0000000+00:00</time></trkpt><trkpt lat="63.84153748" lon="-21.52366829"><ele>21.5</ele><time>2012-07-27T20:48:23.0000000+00:00</time></trkpt><trkpt lat="63.84153748" lon="-21.52366829"><ele>21.5</ele><time>2012-07-27T20:48:28.0000000+00:00</time></trkpt><trkpt lat="63.84153748" lon="-21.52366638"><ele>21.5</ele><time>2012-07-27T20:48:33.0000000+00:00</time></trkpt><trkpt lat="63.84153748" lon="-21.52366638"><ele>21.5</ele><time>2012-07-27T20:48:38.0000000+00:00</time></trkpt><trkpt lat="63.84153748" lon="-21.52366638"><ele>21.5</ele><time>2012-07-27T20:48:43.0000000+00:00</time></trkpt><trkpt lat="63.84153748" lon="-21.52366638"><ele>21.5</ele><time>2012-07-27T20:48:48.0000000+00:00</time></trkpt><trkpt lat="63.84153748" lon="-21.52366638"><ele>21.5</ele><time>2012-07-27T20:48:53.0000000+00:00</time></trkpt><trkpt lat="63.84153748" lon="-21.52366638"><ele>21.5</ele><time>2012-07-27T20:48:58.0000000+00:00</time></trkpt><trkpt lat="63.84153748" lon="-21.52366447"><ele>21.4</ele><time>2012-07-27T20:49:03.0000000+00:00</time></trkpt><trkpt lat="63.84153748" lon="-21.52366447"><ele>21.4</ele><time>2012-07-27T20:49:08.0000000+00:00</time></trkpt><trkpt lat="63.84153748" lon="-21.52366447"><ele>21.4</ele><time>2012-07-27T20:49:13.0000000+00:00</time></trkpt><trkpt lat="63.84153748" lon="-21.52366447"><ele>21.4</ele><time>2012-07-27T20:49:18.0000000+00:00</time></trkpt><trkpt lat="63.84153748" lon="-21.52366447"><ele>21.4</ele><time>2012-07-27T20:49:23.0000000+00:00</time></trkpt><trkpt lat="63.84153748" lon="-21.52366447"><ele>21.4</ele><time>2012-07-27T20:49:28.0000000+00:00</time></trkpt><trkpt lat="63.84153748" lon="-21.52366257"><ele>21.4</ele><time>2012-07-27T20:49:33.0000000+00:00</time></trkpt><trkpt lat="63.84153748" lon="-21.52366257"><ele>21.4</ele><time>2012-07-27T20:49:38.0000000+00:00</time></trkpt><trkpt lat="63.84153748" lon="-21.52366257"><ele>21.4</ele><time>2012-07-27T20:49:43.0000000+00:00</time></trkpt><trkpt lat="63.84153748" lon="-21.52366447"><ele>21.5</ele><time>2012-07-27T20:49:48.0000000+00:00</time></trkpt><trkpt lat="63.8415184" lon="-21.5236969"><ele>20.4</ele><time>2012-07-27T20:49:53.0000000+00:00</time></trkpt><trkpt lat="63.84151459" lon="-21.52369309"><ele>19.8</ele><time>2012-07-27T20:49:58.0000000+00:00</time></trkpt><trkpt lat="63.84151459" lon="-21.52369499"><ele>19.3</ele><time>2012-07-27T20:50:03.0000000+00:00</time></trkpt><trkpt lat="63.84151077" lon="-21.52369499"><ele>18.8</ele><time>2012-07-27T20:50:08.0000000+00:00</time></trkpt><trkpt lat="63.84151077" lon="-21.52369499"><ele>18.3</ele><time>2012-07-27T20:50:13.0000000+00:00</time></trkpt><trkpt lat="63.84151077" lon="-21.5236969"><ele>17.8</ele><time>2012-07-27T20:50:18.0000000+00:00</time></trkpt><trkpt lat="63.84150696" lon="-21.5236969"><ele>17.2</ele><time>2012-07-27T20:50:23.0000000+00:00</time></trkpt><trkpt lat="63.84150696" lon="-21.5236969"><ele>16.8</ele><time>2012-07-27T20:50:28.0000000+00:00</time></trkpt><trkpt lat="63.84150696" lon="-21.5236969"><ele>16.6</ele><time>2012-07-27T20:50:33.0000000+00:00</time></trkpt><trkpt lat="63.84150696" lon="-21.52369881"><ele>16.7</ele><time>2012-07-27T20:50:38.0000000+00:00</time></trkpt><trkpt lat="63.84150696" lon="-21.52369881"><ele>16.7</ele><time>2012-07-27T20:50:43.0000000+00:00</time></trkpt><trkpt lat="63.84150696" lon="-21.52369881"><ele>16.7</ele><time>2012-07-27T20:50:48.0000000+00:00</time></trkpt><trkpt lat="63.84150696" lon="-21.52369881"><ele>16.7</ele><time>2012-07-27T20:50:53.0000000+00:00</time></trkpt><trkpt lat="63.84150696" lon="-21.52369881"><ele>16.7</ele><time>2012-07-27T20:50:58.0000000+00:00</time></trkpt><trkpt lat="63.84150696" lon="-21.52369881"><ele>16.7</ele><time>2012-07-27T20:51:03.0000000+00:00</time></trkpt><trkpt lat="63.84150696" lon="-21.52369881"><ele>16.7</ele><time>2012-07-27T20:51:08.0000000+00:00</time></trkpt><trkpt lat="63.84150696" lon="-21.52369881"><ele>16.7</ele><time>2012-07-27T20:51:13.0000000+00:00</time></trkpt><trkpt lat="63.84150696" lon="-21.52369881"><ele>16.7</ele><time>2012-07-27T20:51:18.0000000+00:00</time></trkpt><trkpt lat="63.84150696" lon="-21.5236969"><ele>16.7</ele><time>2012-07-27T20:51:23.0000000+00:00</time></trkpt><trkpt lat="63.84150696" lon="-21.5236969"><ele>16.7</ele><time>2012-07-27T20:51:28.0000000+00:00</time></trkpt><trkpt lat="63.84150696" lon="-21.5236969"><ele>16.7</ele><time>2012-07-27T20:51:33.0000000+00:00</time></trkpt><trkpt lat="63.84150696" lon="-21.5236969"><ele>16.7</ele><time>2012-07-27T20:51:38.0000000+00:00</time></trkpt><trkpt lat="63.84150696" lon="-21.5236969"><ele>16.7</ele><time>2012-07-27T20:51:43.0000000+00:00</time></trkpt><trkpt lat="63.84150696" lon="-21.5236969"><ele>16.7</ele><time>2012-07-27T20:51:48.0000000+00:00</time></trkpt><trkpt lat="63.84150696" lon="-21.5236969"><ele>16.7</ele><time>2012-07-27T20:51:53.0000000+00:00</time></trkpt><trkpt lat="63.84150696" lon="-21.5236969"><ele>16.7</ele><time>2012-07-27T20:51:58.0000000+00:00</time></trkpt><trkpt lat="63.84150696" lon="-21.5236969"><ele>16.7</ele><time>2012-07-27T20:52:03.0000000+00:00</time></trkpt><trkpt lat="63.84150696" lon="-21.5236969"><ele>16.7</ele><time>2012-07-27T20:52:08.0000000+00:00</time></trkpt><trkpt lat="63.84150696" lon="-21.52369499"><ele>16.7</ele><time>2012-07-27T20:52:13.0000000+00:00</time></trkpt><trkpt lat="63.84150696" lon="-21.5236969"><ele>16.7</ele><time>2012-07-27T20:52:18.0000000+00:00</time></trkpt><trkpt lat="63.84150696" lon="-21.52369499"><ele>16.7</ele><time>2012-07-27T20:52:23.0000000+00:00</time></trkpt><trkpt lat="63.84150696" lon="-21.52369499"><ele>16.7</ele><time>2012-07-27T20:52:28.0000000+00:00</time></trkpt><trkpt lat="63.84150696" lon="-21.52369499"><ele>16.7</ele><time>2012-07-27T20:52:33.0000000+00:00</time></trkpt><trkpt lat="63.84150696" lon="-21.52369499"><ele>16.7</ele><time>2012-07-27T20:52:38.0000000+00:00</time></trkpt><trkpt lat="63.84150696" lon="-21.52369499"><ele>16.7</ele><time>2012-07-27T20:52:43.0000000+00:00</time></trkpt><trkpt lat="63.84150696" lon="-21.52369499"><ele>16.7</ele><time>2012-07-27T20:52:48.0000000+00:00</time></trkpt><trkpt lat="63.84150696" lon="-21.52369499"><ele>16.7</ele><time>2012-07-27T20:52:53.0000000+00:00</time></trkpt><trkpt lat="63.84150696" lon="-21.52369499"><ele>16.7</ele><time>2012-07-27T20:52:58.0000000+00:00</time></trkpt><trkpt lat="63.84150696" lon="-21.52369499"><ele>16.6</ele><time>2012-07-27T20:53:03.0000000+00:00</time></trkpt><trkpt lat="63.84150696" lon="-21.52369499"><ele>16.6</ele><time>2012-07-27T20:53:08.0000000+00:00</time></trkpt><trkpt lat="63.84150696" lon="-21.52369499"><ele>16.6</ele><time>2012-07-27T20:53:13.0000000+00:00</time></trkpt><trkpt lat="63.84150696" lon="-21.52369499"><ele>16.7</ele><time>2012-07-27T20:53:18.0000000+00:00</time></trkpt><trkpt lat="63.84150696" lon="-21.52369309"><ele>16.7</ele><time>2012-07-27T20:53:23.0000000+00:00</time></trkpt><trkpt lat="63.84150696" lon="-21.52369309"><ele>16.7</ele><time>2012-07-27T20:53:28.0000000+00:00</time></trkpt><trkpt lat="63.84150696" lon="-21.52369309"><ele>16.7</ele><time>2012-07-27T20:53:33.0000000+00:00</time></trkpt><trkpt lat="63.84150696" lon="-21.52369118"><ele>16.7</ele><time>2012-07-27T20:53:38.0000000+00:00</time></trkpt><trkpt lat="63.84150696" lon="-21.52369118"><ele>16.6</ele><time>2012-07-27T20:53:43.0000000+00:00</time></trkpt><trkpt lat="63.84150696" lon="-21.52369118"><ele>16.6</ele><time>2012-07-27T20:53:48.0000000+00:00</time></trkpt><trkpt lat="63.84150696" lon="-21.52369118"><ele>16.6</ele><time>2012-07-27T20:53:53.0000000+00:00</time></trkpt><trkpt lat="63.84150696" lon="-21.52369118"><ele>16.6</ele><time>2012-07-27T20:53:58.0000000+00:00</time></trkpt><trkpt lat="63.84150696" lon="-21.52368927"><ele>16.5</ele><time>2012-07-27T20:54:03.0000000+00:00</time></trkpt><trkpt lat="63.84150696" lon="-21.52368927"><ele>16.5</ele><time>2012-07-27T20:54:08.0000000+00:00</time></trkpt><trkpt lat="63.84150696" lon="-21.52368927"><ele>16.6</ele><time>2012-07-27T20:54:13.0000000+00:00</time></trkpt><trkpt lat="63.84150696" lon="-21.52368927"><ele>16.6</ele><time>2012-07-27T20:54:18.0000000+00:00</time></trkpt><trkpt lat="63.84150696" lon="-21.52368927"><ele>16.6</ele><time>2012-07-27T20:54:23.0000000+00:00</time></trkpt><trkpt lat="63.84150696" lon="-21.52368927"><ele>16.6</ele><time>2012-07-27T20:54:28.0000000+00:00</time></trkpt><trkpt lat="63.84150314" lon="-21.52370644"><ele>16.6</ele><time>2012-07-27T20:54:33.0000000+00:00</time></trkpt><trkpt lat="63.84147644" lon="-21.52371979"><ele>17.6</ele><time>2012-07-27T20:54:38.0000000+00:00</time></trkpt><trkpt lat="63.84147263" lon="-21.52371407"><ele>17.7</ele><time>2012-07-27T20:54:43.0000000+00:00</time></trkpt><trkpt lat="63.84144592" lon="-21.52368736"><ele>17.9</ele><time>2012-07-27T20:54:48.0000000+00:00</time></trkpt><trkpt lat="63.84141922" lon="-21.52363205"><ele>18.7</ele><time>2012-07-27T20:54:53.0000000+00:00</time></trkpt><trkpt lat="63.84140396" lon="-21.52346611"><ele>17.7</ele><time>2012-07-27T20:54:58.0000000+00:00</time></trkpt><trkpt lat="63.84142304" lon="-21.52307892"><ele>17.0</ele><time>2012-07-27T20:55:03.0000000+00:00</time></trkpt><trkpt lat="63.84144974" lon="-21.52260017"><ele>16.5</ele><time>2012-07-27T20:55:08.0000000+00:00</time></trkpt><trkpt lat="63.84147263" lon="-21.52210426"><ele>16.1</ele><time>2012-07-27T20:55:13.0000000+00:00</time></trkpt><trkpt lat="63.84149933" lon="-21.5216713"><ele>15.8</ele><time>2012-07-27T20:55:18.0000000+00:00</time></trkpt><trkpt lat="63.84152222" lon="-21.521204"><ele>15.4</ele><time>2012-07-27T20:55:23.0000000+00:00</time></trkpt><trkpt lat="63.84155655" lon="-21.52067375"><ele>15.1</ele><time>2012-07-27T20:55:28.0000000+00:00</time></trkpt><trkpt lat="63.84159088" lon="-21.52015877"><ele>14.4</ele><time>2012-07-27T20:55:33.0000000+00:00</time></trkpt><trkpt lat="63.8416214" lon="-21.51974106"><ele>13.9</ele><time>2012-07-27T20:55:38.0000000+00:00</time></trkpt><trkpt lat="63.84165192" lon="-21.51943779"><ele>13.7</ele><time>2012-07-27T20:55:43.0000000+00:00</time></trkpt><trkpt lat="63.84167862" lon="-21.51909828"><ele>13.7</ele><time>2012-07-27T20:55:48.0000000+00:00</time></trkpt><trkpt lat="63.84169769" lon="-21.51864243"><ele>13.1</ele><time>2012-07-27T20:55:53.0000000+00:00</time></trkpt><trkpt lat="63.84173584" lon="-21.51810837"><ele>13.2</ele><time>2012-07-27T20:55:58.0000000+00:00</time></trkpt><trkpt lat="63.84178543" lon="-21.51747322"><ele>13.4</ele><time>2012-07-27T20:56:03.0000000+00:00</time></trkpt><trkpt lat="63.84181976" lon="-21.51694489"><ele>13.1</ele><time>2012-07-27T20:56:08.0000000+00:00</time></trkpt><trkpt lat="63.8418541" lon="-21.5164299"><ele>13.1</ele><time>2012-07-27T20:56:13.0000000+00:00</time></trkpt><trkpt lat="63.8419075" lon="-21.51588631"><ele>13.4</ele><time>2012-07-27T20:56:18.0000000+00:00</time></trkpt><trkpt lat="63.84194946" lon="-21.51536751"><ele>13.5</ele><time>2012-07-27T20:56:23.0000000+00:00</time></trkpt><trkpt lat="63.84195709" lon="-21.51530266"><ele>13.1</ele><time>2012-07-27T20:56:28.0000000+00:00</time></trkpt><trkpt lat="63.84195709" lon="-21.51530266"><ele>13.1</ele><time>2012-07-27T20:56:33.0000000+00:00</time></trkpt><trkpt lat="63.84195709" lon="-21.51530266"><ele>13.1</ele><time>2012-07-27T20:56:38.0000000+00:00</time></trkpt><trkpt lat="63.84195709" lon="-21.51530266"><ele>13.1</ele><time>2012-07-27T20:56:43.0000000+00:00</time></trkpt><trkpt lat="63.84195709" lon="-21.51530266"><ele>13.1</ele><time>2012-07-27T20:56:48.0000000+00:00</time></trkpt><trkpt lat="63.84195709" lon="-21.51530266"><ele>13.0</ele><time>2012-07-27T20:56:53.0000000+00:00</time></trkpt><trkpt lat="63.84195709" lon="-21.51530266"><ele>13.0</ele><time>2012-07-27T20:56:58.0000000+00:00</time></trkpt><trkpt lat="63.84195709" lon="-21.51530266"><ele>13.0</ele><time>2012-07-27T20:57:03.0000000+00:00</time></trkpt><trkpt lat="63.84195709" lon="-21.51530266"><ele>13.0</ele><time>2012-07-27T20:57:08.0000000+00:00</time></trkpt><trkpt lat="63.84195709" lon="-21.51530266"><ele>13.1</ele><time>2012-07-27T20:57:13.0000000+00:00</time></trkpt><trkpt lat="63.84195709" lon="-21.51530266"><ele>13.1</ele><time>2012-07-27T20:57:18.0000000+00:00</time></trkpt><trkpt lat="63.84195709" lon="-21.51530266"><ele>13.0</ele><time>2012-07-27T20:57:23.0000000+00:00</time></trkpt><trkpt lat="63.84195709" lon="-21.51530266"><ele>13.0</ele><time>2012-07-27T20:57:28.0000000+00:00</time></trkpt><trkpt lat="63.84195709" lon="-21.51530266"><ele>13.0</ele><time>2012-07-27T20:57:33.0000000+00:00</time></trkpt><trkpt lat="63.84195709" lon="-21.51530266"><ele>13.0</ele><time>2012-07-27T20:57:38.0000000+00:00</time></trkpt><trkpt lat="63.84195328" lon="-21.51530266"><ele>13.0</ele><time>2012-07-27T20:57:43.0000000+00:00</time></trkpt><trkpt lat="63.84195328" lon="-21.51530266"><ele>13.0</ele><time>2012-07-27T20:57:48.0000000+00:00</time></trkpt><trkpt lat="63.84195328" lon="-21.51530266"><ele>13.0</ele><time>2012-07-27T20:57:53.0000000+00:00</time></trkpt><trkpt lat="63.84195328" lon="-21.51530266"><ele>13.0</ele><time>2012-07-27T20:57:58.0000000+00:00</time></trkpt><trkpt lat="63.84195328" lon="-21.51530266"><ele>13.0</ele><time>2012-07-27T20:58:03.0000000+00:00</time></trkpt><trkpt lat="63.84195328" lon="-21.51530266"><ele>13.0</ele><time>2012-07-27T20:58:08.0000000+00:00</time></trkpt><trkpt lat="63.84195328" lon="-21.51530266"><ele>13.0</ele><time>2012-07-27T20:58:13.0000000+00:00</time></trkpt><trkpt lat="63.84195328" lon="-21.51530266"><ele>13.0</ele><time>2012-07-27T20:58:18.0000000+00:00</time></trkpt><trkpt lat="63.84195328" lon="-21.51530266"><ele>13.0</ele><time>2012-07-27T20:58:23.0000000+00:00</time></trkpt><trkpt lat="63.84195328" lon="-21.51530075"><ele>13.0</ele><time>2012-07-27T20:58:28.0000000+00:00</time></trkpt><trkpt lat="63.84195328" lon="-21.51530075"><ele>13.0</ele><time>2012-07-27T20:58:33.0000000+00:00</time></trkpt><trkpt lat="63.84195328" lon="-21.51530075"><ele>13.1</ele><time>2012-07-27T20:58:38.0000000+00:00</time></trkpt><trkpt lat="63.84195328" lon="-21.51530075"><ele>13.1</ele><time>2012-07-27T20:58:43.0000000+00:00</time></trkpt><trkpt lat="63.84195328" lon="-21.51530075"><ele>13.1</ele><time>2012-07-27T20:58:48.0000000+00:00</time></trkpt><trkpt lat="63.84195328" lon="-21.51530075"><ele>13.1</ele><time>2012-07-27T20:58:53.0000000+00:00</time></trkpt><trkpt lat="63.84195328" lon="-21.51530075"><ele>13.1</ele><time>2012-07-27T20:58:58.0000000+00:00</time></trkpt><trkpt lat="63.84195328" lon="-21.51530075"><ele>13.1</ele><time>2012-07-27T20:59:03.0000000+00:00</time></trkpt><trkpt lat="63.84195328" lon="-21.51530075"><ele>13.1</ele><time>2012-07-27T20:59:08.0000000+00:00</time></trkpt><trkpt lat="63.84195328" lon="-21.51530075"><ele>13.1</ele><time>2012-07-27T20:59:13.0000000+00:00</time></trkpt><trkpt lat="63.84195328" lon="-21.51530075"><ele>13.1</ele><time>2012-07-27T20:59:18.0000000+00:00</time></trkpt><trkpt lat="63.84195328" lon="-21.51530075"><ele>13.1</ele><time>2012-07-27T20:59:23.0000000+00:00</time></trkpt><trkpt lat="63.84195328" lon="-21.51530075"><ele>13.1</ele><time>2012-07-27T20:59:28.0000000+00:00</time></trkpt><trkpt lat="63.84195328" lon="-21.51530075"><ele>13.1</ele><time>2012-07-27T20:59:33.0000000+00:00</time></trkpt><trkpt lat="63.84195328" lon="-21.51530075"><ele>13.2</ele><time>2012-07-27T20:59:38.0000000+00:00</time></trkpt><trkpt lat="63.84195328" lon="-21.51530075"><ele>13.2</ele><time>2012-07-27T20:59:43.0000000+00:00</time></trkpt><trkpt lat="63.84195328" lon="-21.51530075"><ele>13.2</ele><time>2012-07-27T20:59:48.0000000+00:00</time></trkpt><trkpt lat="63.84195328" lon="-21.51530075"><ele>13.2</ele><time>2012-07-27T20:59:53.0000000+00:00</time></trkpt><trkpt lat="63.84195328" lon="-21.51530075"><ele>13.2</ele><time>2012-07-27T20:59:58.0000000+00:00</time></trkpt><trkpt lat="63.84195328" lon="-21.51530075"><ele>13.2</ele><time>2012-07-27T21:00:03.0000000+00:00</time></trkpt><trkpt lat="63.84195328" lon="-21.51530075"><ele>13.2</ele><time>2012-07-27T21:00:08.0000000+00:00</time></trkpt><trkpt lat="63.84195328" lon="-21.51530075"><ele>13.2</ele><time>2012-07-27T21:00:13.0000000+00:00</time></trkpt><trkpt lat="63.84195328" lon="-21.51530075"><ele>13.2</ele><time>2012-07-27T21:00:18.0000000+00:00</time></trkpt><trkpt lat="63.84195328" lon="-21.51530075"><ele>13.2</ele><time>2012-07-27T21:00:23.0000000+00:00</time></trkpt><trkpt lat="63.84195328" lon="-21.51530075"><ele>13.2</ele><time>2012-07-27T21:00:28.0000000+00:00</time></trkpt><trkpt lat="63.84195328" lon="-21.51530075"><ele>13.2</ele><time>2012-07-27T21:00:33.0000000+00:00</time></trkpt><trkpt lat="63.84195328" lon="-21.51530075"><ele>13.2</ele><time>2012-07-27T21:00:38.0000000+00:00</time></trkpt><trkpt lat="63.84195328" lon="-21.51530075"><ele>13.3</ele><time>2012-07-27T21:00:43.0000000+00:00</time></trkpt><trkpt lat="63.84195328" lon="-21.51530075"><ele>13.3</ele><time>2012-07-27T21:00:48.0000000+00:00</time></trkpt><trkpt lat="63.84195328" lon="-21.51530075"><ele>13.3</ele><time>2012-07-27T21:00:53.0000000+00:00</time></trkpt><trkpt lat="63.84195328" lon="-21.51530075"><ele>13.3</ele><time>2012-07-27T21:00:58.0000000+00:00</time></trkpt><trkpt lat="63.84195328" lon="-21.51530075"><ele>13.3</ele><time>2012-07-27T21:01:03.0000000+00:00</time></trkpt><trkpt lat="63.84195328" lon="-21.51530075"><ele>13.3</ele><time>2012-07-27T21:01:08.0000000+00:00</time></trkpt><trkpt lat="63.84195328" lon="-21.51530075"><ele>13.3</ele><time>2012-07-27T21:01:13.0000000+00:00</time></trkpt><trkpt lat="63.84195328" lon="-21.51530075"><ele>13.3</ele><time>2012-07-27T21:01:18.0000000+00:00</time></trkpt><trkpt lat="63.84195328" lon="-21.51530075"><ele>13.3</ele><time>2012-07-27T21:01:23.0000000+00:00</time></trkpt><trkpt lat="63.84195328" lon="-21.51530075"><ele>13.3</ele><time>2012-07-27T21:01:28.0000000+00:00</time></trkpt><trkpt lat="63.84195328" lon="-21.51530075"><ele>13.3</ele><time>2012-07-27T21:01:33.0000000+00:00</time></trkpt><trkpt lat="63.84195328" lon="-21.51530266"><ele>13.4</ele><time>2012-07-27T21:01:38.0000000+00:00</time></trkpt><trkpt lat="63.84195328" lon="-21.51530266"><ele>13.4</ele><time>2012-07-27T21:01:43.0000000+00:00</time></trkpt><trkpt lat="63.84195328" lon="-21.51530266"><ele>13.4</ele><time>2012-07-27T21:01:48.0000000+00:00</time></trkpt><trkpt lat="63.84195328" lon="-21.51530266"><ele>13.4</ele><time>2012-07-27T21:01:53.0000000+00:00</time></trkpt><trkpt lat="63.84195328" lon="-21.51530266"><ele>13.4</ele><time>2012-07-27T21:01:58.0000000+00:00</time></trkpt><trkpt lat="63.84195328" lon="-21.51530266"><ele>13.4</ele><time>2012-07-27T21:02:03.0000000+00:00</time></trkpt><trkpt lat="63.84195709" lon="-21.5152874"><ele>13.5</ele><time>2012-07-27T21:02:08.0000000+00:00</time></trkpt><trkpt lat="63.84200287" lon="-21.51543999"><ele>15.0</ele><time>2012-07-27T21:02:13.0000000+00:00</time></trkpt><trkpt lat="63.84198761" lon="-21.51587296"><ele>15.0</ele><time>2012-07-27T21:02:18.0000000+00:00</time></trkpt><trkpt lat="63.84194565" lon="-21.5163784"><ele>15.3</ele><time>2012-07-27T21:02:23.0000000+00:00</time></trkpt><trkpt lat="63.8419075" lon="-21.51688385"><ele>17.2</ele><time>2012-07-27T21:02:28.0000000+00:00</time></trkpt><trkpt lat="63.8418808" lon="-21.51736641"><ele>17.6</ele><time>2012-07-27T21:02:33.0000000+00:00</time></trkpt><trkpt lat="63.84185028" lon="-21.51782227"><ele>18.3</ele><time>2012-07-27T21:02:38.0000000+00:00</time></trkpt><trkpt lat="63.84181213" lon="-21.51826096"><ele>18.4</ele><time>2012-07-27T21:02:43.0000000+00:00</time></trkpt><trkpt lat="63.84178162" lon="-21.51869392"><ele>18.9</ele><time>2012-07-27T21:02:48.0000000+00:00</time></trkpt><trkpt lat="63.84175873" lon="-21.51912689"><ele>19.1</ele><time>2012-07-27T21:02:53.0000000+00:00</time></trkpt><trkpt lat="63.84172821" lon="-21.51955605"><ele>19.4</ele><time>2012-07-27T21:02:58.0000000+00:00</time></trkpt><trkpt lat="63.84170532" lon="-21.51997376"><ele>19.7</ele><time>2012-07-27T21:03:03.0000000+00:00</time></trkpt><trkpt lat="63.84167481" lon="-21.52038193"><ele>19.5</ele><time>2012-07-27T21:03:08.0000000+00:00</time></trkpt><trkpt lat="63.8416481" lon="-21.52078819"><ele>20.3</ele><time>2012-07-27T21:03:13.0000000+00:00</time></trkpt><trkpt lat="63.8416214" lon="-21.52119827"><ele>20.5</ele><time>2012-07-27T21:03:18.0000000+00:00</time></trkpt><trkpt lat="63.84160233" lon="-21.52158356"><ele>20.4</ele><time>2012-07-27T21:03:23.0000000+00:00</time></trkpt><trkpt lat="63.84157944" lon="-21.5219841"><ele>20.4</ele><time>2012-07-27T21:03:28.0000000+00:00</time></trkpt><trkpt lat="63.84156418" lon="-21.52235413"><ele>20.1</ele><time>2012-07-27T21:03:33.0000000+00:00</time></trkpt><trkpt lat="63.84154129" lon="-21.52271271"><ele>20.3</ele><time>2012-07-27T21:03:38.0000000+00:00</time></trkpt><trkpt lat="63.8415184" lon="-21.52305985"><ele>20.6</ele><time>2012-07-27T21:03:43.0000000+00:00</time></trkpt><trkpt lat="63.84149551" lon="-21.5234108"><ele>20.7</ele><time>2012-07-27T21:03:48.0000000+00:00</time></trkpt><trkpt lat="63.84148026" lon="-21.52375412"><ele>21.5</ele><time>2012-07-27T21:03:53.0000000+00:00</time></trkpt><trkpt lat="63.84145737" lon="-21.52410507"><ele>21.3</ele><time>2012-07-27T21:03:58.0000000+00:00</time></trkpt><trkpt lat="63.84144592" lon="-21.52444267"><ele>21.5</ele><time>2012-07-27T21:04:03.0000000+00:00</time></trkpt><trkpt lat="63.84142304" lon="-21.52480507"><ele>21.2</ele><time>2012-07-27T21:04:08.0000000+00:00</time></trkpt><trkpt lat="63.84140396" lon="-21.52515984"><ele>20.7</ele><time>2012-07-27T21:04:13.0000000+00:00</time></trkpt><trkpt lat="63.84139252" lon="-21.52551079"><ele>21.8</ele><time>2012-07-27T21:04:18.0000000+00:00</time></trkpt><trkpt lat="63.84137344" lon="-21.52587128"><ele>21.7</ele><time>2012-07-27T21:04:23.0000000+00:00</time></trkpt><trkpt lat="63.84136581" lon="-21.52624703"><ele>21.4</ele><time>2012-07-27T21:04:28.0000000+00:00</time></trkpt><trkpt lat="63.84134674" lon="-21.52659416"><ele>21.9</ele><time>2012-07-27T21:04:33.0000000+00:00</time></trkpt><trkpt lat="63.84133148" lon="-21.52692223"><ele>21.4</ele><time>2012-07-27T21:04:38.0000000+00:00</time></trkpt><trkpt lat="63.84132385" lon="-21.52727509"><ele>21.7</ele><time>2012-07-27T21:04:43.0000000+00:00</time></trkpt><trkpt lat="63.84131622" lon="-21.52760506"><ele>21.6</ele><time>2012-07-27T21:04:48.0000000+00:00</time></trkpt><trkpt lat="63.84130859" lon="-21.52792358"><ele>22.0</ele><time>2012-07-27T21:04:53.0000000+00:00</time></trkpt><trkpt lat="63.84128952" lon="-21.52827072"><ele>21.8</ele><time>2012-07-27T21:04:58.0000000+00:00</time></trkpt><trkpt lat="63.84127808" lon="-21.52857971"><ele>21.4</ele><time>2012-07-27T21:05:03.0000000+00:00</time></trkpt><trkpt lat="63.84126663" lon="-21.52890587"><ele>21.4</ele><time>2012-07-27T21:05:08.0000000+00:00</time></trkpt><trkpt lat="63.84125137" lon="-21.52923012"><ele>21.4</ele><time>2012-07-27T21:05:13.0000000+00:00</time></trkpt><trkpt lat="63.84123993" lon="-21.52957153"><ele>21.1</ele><time>2012-07-27T21:05:18.0000000+00:00</time></trkpt><trkpt lat="63.84122849" lon="-21.52989578"><ele>21.1</ele><time>2012-07-27T21:05:23.0000000+00:00</time></trkpt><trkpt lat="63.84121704" lon="-21.53022766"><ele>20.9</ele><time>2012-07-27T21:05:28.0000000+00:00</time></trkpt><trkpt lat="63.84120941" lon="-21.53053284"><ele>20.9</ele><time>2012-07-27T21:05:33.0000000+00:00</time></trkpt><trkpt lat="63.84120178" lon="-21.5308094"><ele>21.1</ele><time>2012-07-27T21:05:38.0000000+00:00</time></trkpt><trkpt lat="63.84119797" lon="-21.53108597"><ele>21.0</ele><time>2012-07-27T21:05:43.0000000+00:00</time></trkpt><trkpt lat="63.84119415" lon="-21.53137016"><ele>20.7</ele><time>2012-07-27T21:05:48.0000000+00:00</time></trkpt><trkpt lat="63.84118652" lon="-21.53165245"><ele>20.9</ele><time>2012-07-27T21:05:53.0000000+00:00</time></trkpt><trkpt lat="63.84117127" lon="-21.53196716"><ele>21.3</ele><time>2012-07-27T21:05:58.0000000+00:00</time></trkpt><trkpt lat="63.84117508" lon="-21.53226471"><ele>21.4</ele><time>2012-07-27T21:06:03.0000000+00:00</time></trkpt><trkpt lat="63.84117127" lon="-21.53256989"><ele>21.6</ele><time>2012-07-27T21:06:08.0000000+00:00</time></trkpt><trkpt lat="63.84116745" lon="-21.53288841"><ele>21.7</ele><time>2012-07-27T21:06:13.0000000+00:00</time></trkpt><trkpt lat="63.84115601" lon="-21.53319359"><ele>21.9</ele><time>2012-07-27T21:06:18.0000000+00:00</time></trkpt><trkpt lat="63.84115219" lon="-21.53351593"><ele>21.8</ele><time>2012-07-27T21:06:23.0000000+00:00</time></trkpt><trkpt lat="63.84115219" lon="-21.53378677"><ele>21.0</ele><time>2012-07-27T21:06:28.0000000+00:00</time></trkpt><trkpt lat="63.84114075" lon="-21.53409195"><ele>20.9</ele><time>2012-07-27T21:06:33.0000000+00:00</time></trkpt><trkpt lat="63.84113312" lon="-21.53439331"><ele>21.8</ele><time>2012-07-27T21:06:38.0000000+00:00</time></trkpt><trkpt lat="63.84113312" lon="-21.53467751"><ele>21.1</ele><time>2012-07-27T21:06:43.0000000+00:00</time></trkpt><trkpt lat="63.84112549" lon="-21.53497505"><ele>20.8</ele><time>2012-07-27T21:06:48.0000000+00:00</time></trkpt><trkpt lat="63.84111786" lon="-21.53530884"><ele>20.2</ele><time>2012-07-27T21:06:53.0000000+00:00</time></trkpt><trkpt lat="63.84111404" lon="-21.53562355"><ele>19.7</ele><time>2012-07-27T21:06:58.0000000+00:00</time></trkpt><trkpt lat="63.84111786" lon="-21.53593445"><ele>19.6</ele><time>2012-07-27T21:07:03.0000000+00:00</time></trkpt><trkpt lat="63.84111023" lon="-21.536232"><ele>19.3</ele><time>2012-07-27T21:07:08.0000000+00:00</time></trkpt><trkpt lat="63.84110642" lon="-21.53654099"><ele>19.0</ele><time>2012-07-27T21:07:13.0000000+00:00</time></trkpt><trkpt lat="63.84109879" lon="-21.53684807"><ele>18.3</ele><time>2012-07-27T21:07:18.0000000+00:00</time></trkpt><trkpt lat="63.84109879" lon="-21.53713799"><ele>18.2</ele><time>2012-07-27T21:07:23.0000000+00:00</time></trkpt><trkpt lat="63.84111023" lon="-21.53746223"><ele>17.8</ele><time>2012-07-27T21:07:28.0000000+00:00</time></trkpt><trkpt lat="63.84110642" lon="-21.53775787"><ele>17.4</ele><time>2012-07-27T21:07:33.0000000+00:00</time></trkpt><trkpt lat="63.8411026" lon="-21.53807068"><ele>17.1</ele><time>2012-07-27T21:07:38.0000000+00:00</time></trkpt><trkpt lat="63.84111023" lon="-21.53840065"><ele>16.9</ele><time>2012-07-27T21:07:43.0000000+00:00</time></trkpt><trkpt lat="63.84111786" lon="-21.53875351"><ele>16.8</ele><time>2012-07-27T21:07:48.0000000+00:00</time></trkpt><trkpt lat="63.84112167" lon="-21.53906822"><ele>16.5</ele><time>2012-07-27T21:07:53.0000000+00:00</time></trkpt><trkpt lat="63.84112167" lon="-21.53940964"><ele>16.3</ele><time>2012-07-27T21:07:58.0000000+00:00</time></trkpt><trkpt lat="63.84112549" lon="-21.53977013"><ele>16.3</ele><time>2012-07-27T21:08:03.0000000+00:00</time></trkpt><trkpt lat="63.84112549" lon="-21.54013443"><ele>15.7</ele><time>2012-07-27T21:08:08.0000000+00:00</time></trkpt><trkpt lat="63.8411293" lon="-21.54052353"><ele>15.5</ele><time>2012-07-27T21:08:13.0000000+00:00</time></trkpt><trkpt lat="63.84113693" lon="-21.5409317"><ele>16.5</ele><time>2012-07-27T21:08:18.0000000+00:00</time></trkpt><trkpt lat="63.84114075" lon="-21.54126167"><ele>16.3</ele><time>2012-07-27T21:08:23.0000000+00:00</time></trkpt><trkpt lat="63.84115601" lon="-21.5416584"><ele>15.8</ele><time>2012-07-27T21:08:28.0000000+00:00</time></trkpt><trkpt lat="63.84115601" lon="-21.54203796"><ele>15.7</ele><time>2012-07-27T21:08:33.0000000+00:00</time></trkpt><trkpt lat="63.84115601" lon="-21.54244041"><ele>15.4</ele><time>2012-07-27T21:08:38.0000000+00:00</time></trkpt><trkpt lat="63.84115982" lon="-21.54279518"><ele>14.2</ele><time>2012-07-27T21:08:43.0000000+00:00</time></trkpt><trkpt lat="63.84116745" lon="-21.5431881"><ele>14.1</ele><time>2012-07-27T21:08:48.0000000+00:00</time></trkpt><trkpt lat="63.84117508" lon="-21.54358482"><ele>14.1</ele><time>2012-07-27T21:08:53.0000000+00:00</time></trkpt><trkpt lat="63.84119034" lon="-21.54393578"><ele>13.8</ele><time>2012-07-27T21:08:58.0000000+00:00</time></trkpt><trkpt lat="63.84119034" lon="-21.54426384"><ele>13.6</ele><time>2012-07-27T21:09:03.0000000+00:00</time></trkpt><trkpt lat="63.84119797" lon="-21.5446434"><ele>13.3</ele><time>2012-07-27T21:09:08.0000000+00:00</time></trkpt><trkpt lat="63.84120178" lon="-21.54495812"><ele>13.2</ele><time>2012-07-27T21:09:13.0000000+00:00</time></trkpt><trkpt lat="63.84122086" lon="-21.54535866"><ele>13.5</ele><time>2012-07-27T21:09:18.0000000+00:00</time></trkpt><trkpt lat="63.84122849" lon="-21.54572296"><ele>13.9</ele><time>2012-07-27T21:09:23.0000000+00:00</time></trkpt><trkpt lat="63.84123993" lon="-21.54614067"><ele>13.9</ele><time>2012-07-27T21:09:28.0000000+00:00</time></trkpt><trkpt lat="63.84124756" lon="-21.54651451"><ele>13.0</ele><time>2012-07-27T21:09:33.0000000+00:00</time></trkpt><trkpt lat="63.84125519" lon="-21.54681587"><ele>13.2</ele><time>2012-07-27T21:09:38.0000000+00:00</time></trkpt><trkpt lat="63.84126282" lon="-21.54720497"><ele>13.3</ele><time>2012-07-27T21:09:43.0000000+00:00</time></trkpt><trkpt lat="63.84127808" lon="-21.54760361"><ele>13.4</ele><time>2012-07-27T21:09:48.0000000+00:00</time></trkpt><trkpt lat="63.84128571" lon="-21.54795075"><ele>14.7</ele><time>2012-07-27T21:09:53.0000000+00:00</time></trkpt><trkpt lat="63.84130478" lon="-21.54833031"><ele>15.1</ele><time>2012-07-27T21:09:58.0000000+00:00</time></trkpt><trkpt lat="63.84132004" lon="-21.54867935"><ele>15.5</ele><time>2012-07-27T21:10:03.0000000+00:00</time></trkpt><trkpt lat="63.84133148" lon="-21.5490284"><ele>17.1</ele><time>2012-07-27T21:10:08.0000000+00:00</time></trkpt><trkpt lat="63.84135056" lon="-21.54943276"><ele>19.1</ele><time>2012-07-27T21:10:13.0000000+00:00</time></trkpt><trkpt lat="63.841362" lon="-21.54977417"><ele>19.9</ele><time>2012-07-27T21:10:18.0000000+00:00</time></trkpt><trkpt lat="63.84136581" lon="-21.55015183"><ele>19.3</ele><time>2012-07-27T21:10:23.0000000+00:00</time></trkpt><trkpt lat="63.84137726" lon="-21.5504837"><ele>20.1</ele><time>2012-07-27T21:10:28.0000000+00:00</time></trkpt><trkpt lat="63.8413887" lon="-21.55084992"><ele>20.6</ele><time>2012-07-27T21:10:33.0000000+00:00</time></trkpt><trkpt lat="63.8413887" lon="-21.55122566"><ele>19.0</ele><time>2012-07-27T21:10:38.0000000+00:00</time></trkpt><trkpt lat="63.8413887" lon="-21.55160332"><ele>17.2</ele><time>2012-07-27T21:10:43.0000000+00:00</time></trkpt><trkpt lat="63.84140396" lon="-21.55189133"><ele>18.0</ele><time>2012-07-27T21:10:48.0000000+00:00</time></trkpt><trkpt lat="63.84140778" lon="-21.55217362"><ele>17.2</ele><time>2012-07-27T21:10:53.0000000+00:00</time></trkpt><trkpt lat="63.84141159" lon="-21.55247498"><ele>16.9</ele><time>2012-07-27T21:10:58.0000000+00:00</time></trkpt><trkpt lat="63.84141159" lon="-21.55273056"><ele>15.4</ele><time>2012-07-27T21:11:03.0000000+00:00</time></trkpt><trkpt lat="63.84140778" lon="-21.55291367"><ele>12.5</ele><time>2012-07-27T21:11:08.0000000+00:00</time></trkpt><trkpt lat="63.84140778" lon="-21.55310822"><ele>10.7</ele><time>2012-07-27T21:11:13.0000000+00:00</time></trkpt><trkpt lat="63.84140015" lon="-21.55340958"><ele>10.0</ele><time>2012-07-27T21:11:18.0000000+00:00</time></trkpt><trkpt lat="63.84140396" lon="-21.55377579"><ele>10.5</ele><time>2012-07-27T21:11:23.0000000+00:00</time></trkpt><trkpt lat="63.84141922" lon="-21.55410957"><ele>9.9</ele><time>2012-07-27T21:11:28.0000000+00:00</time></trkpt><trkpt lat="63.84142685" lon="-21.5545063"><ele>10.8</ele><time>2012-07-27T21:11:33.0000000+00:00</time></trkpt><trkpt lat="63.84143066" lon="-21.55493546"><ele>11.4</ele><time>2012-07-27T21:11:38.0000000+00:00</time></trkpt><trkpt lat="63.84142685" lon="-21.55533028"><ele>12.3</ele><time>2012-07-27T21:11:43.0000000+00:00</time></trkpt><trkpt lat="63.84143066" lon="-21.55574417"><ele>12.9</ele><time>2012-07-27T21:11:48.0000000+00:00</time></trkpt><trkpt lat="63.84143066" lon="-21.55606651"><ele>11.6</ele><time>2012-07-27T21:11:53.0000000+00:00</time></trkpt><trkpt lat="63.84142685" lon="-21.556427"><ele>10.8</ele><time>2012-07-27T21:11:58.0000000+00:00</time></trkpt><trkpt lat="63.84142685" lon="-21.55677605"><ele>11.0</ele><time>2012-07-27T21:12:03.0000000+00:00</time></trkpt><trkpt lat="63.84141541" lon="-21.55710983"><ele>10.4</ele><time>2012-07-27T21:12:08.0000000+00:00</time></trkpt><trkpt lat="63.84140396" lon="-21.55742073"><ele>5.2</ele><time>2012-07-27T21:12:13.0000000+00:00</time></trkpt><trkpt lat="63.84140396" lon="-21.55778885"><ele>5.9</ele><time>2012-07-27T21:12:18.0000000+00:00</time></trkpt><trkpt lat="63.84140778" lon="-21.5581131"><ele>5.8</ele><time>2012-07-27T21:12:23.0000000+00:00</time></trkpt><trkpt lat="63.84140396" lon="-21.55849457"><ele>5.0</ele><time>2012-07-27T21:12:28.0000000+00:00</time></trkpt><trkpt lat="63.84140015" lon="-21.55883408"><ele>3.9</ele><time>2012-07-27T21:12:33.0000000+00:00</time></trkpt><trkpt lat="63.84139633" lon="-21.55918884"><ele>4.5</ele><time>2012-07-27T21:12:38.0000000+00:00</time></trkpt><trkpt lat="63.8413887" lon="-21.55951691"><ele>4.3</ele><time>2012-07-27T21:12:43.0000000+00:00</time></trkpt><trkpt lat="63.8413887" lon="-21.55984306"><ele>4.5</ele><time>2012-07-27T21:12:48.0000000+00:00</time></trkpt><trkpt lat="63.84138107" lon="-21.56016922"><ele>3.9</ele><time>2012-07-27T21:12:53.0000000+00:00</time></trkpt><trkpt lat="63.84136581" lon="-21.56051636"><ele>3.4</ele><time>2012-07-27T21:12:58.0000000+00:00</time></trkpt><trkpt lat="63.84136963" lon="-21.56081581"><ele>8.1</ele><time>2012-07-27T21:13:03.0000000+00:00</time></trkpt><trkpt lat="63.841362" lon="-21.56112671"><ele>8.4</ele><time>2012-07-27T21:13:08.0000000+00:00</time></trkpt><trkpt lat="63.84135437" lon="-21.56147957"><ele>8.8</ele><time>2012-07-27T21:13:13.0000000+00:00</time></trkpt><trkpt lat="63.84134293" lon="-21.56181335"><ele>8.3</ele><time>2012-07-27T21:13:18.0000000+00:00</time></trkpt><trkpt lat="63.84133148" lon="-21.56216621"><ele>6.6</ele><time>2012-07-27T21:13:23.0000000+00:00</time></trkpt><trkpt lat="63.84132385" lon="-21.56250382"><ele>7.8</ele><time>2012-07-27T21:13:28.0000000+00:00</time></trkpt><trkpt lat="63.84131622" lon="-21.56284332"><ele>6.8</ele><time>2012-07-27T21:13:33.0000000+00:00</time></trkpt><trkpt lat="63.84130478" lon="-21.56322479"><ele>6.7</ele><time>2012-07-27T21:13:38.0000000+00:00</time></trkpt><trkpt lat="63.84128952" lon="-21.56353951"><ele>5.6</ele><time>2012-07-27T21:13:43.0000000+00:00</time></trkpt><trkpt lat="63.84127808" lon="-21.56388664"><ele>7.2</ele><time>2012-07-27T21:13:48.0000000+00:00</time></trkpt><trkpt lat="63.841259" lon="-21.56428528"><ele>6.9</ele><time>2012-07-27T21:13:53.0000000+00:00</time></trkpt><trkpt lat="63.84124756" lon="-21.56466675"><ele>6.5</ele><time>2012-07-27T21:13:58.0000000+00:00</time></trkpt><trkpt lat="63.8412323" lon="-21.56502152"><ele>6.1</ele><time>2012-07-27T21:14:03.0000000+00:00</time></trkpt><trkpt lat="63.84122086" lon="-21.56535149"><ele>6.7</ele><time>2012-07-27T21:14:08.0000000+00:00</time></trkpt><trkpt lat="63.84119797" lon="-21.56568909"><ele>5.7</ele><time>2012-07-27T21:14:13.0000000+00:00</time></trkpt><trkpt lat="63.84118271" lon="-21.56606102"><ele>6.0</ele><time>2012-07-27T21:14:18.0000000+00:00</time></trkpt><trkpt lat="63.84116745" lon="-21.56639862"><ele>4.8</ele><time>2012-07-27T21:14:23.0000000+00:00</time></trkpt><trkpt lat="63.84115219" lon="-21.56674767"><ele>3.9</ele><time>2012-07-27T21:14:28.0000000+00:00</time></trkpt><trkpt lat="63.84114075" lon="-21.56706619"><ele>4.0</ele><time>2012-07-27T21:14:33.0000000+00:00</time></trkpt><trkpt lat="63.84112549" lon="-21.56741142"><ele>6.1</ele><time>2012-07-27T21:14:38.0000000+00:00</time></trkpt><trkpt lat="63.84110642" lon="-21.56777573"><ele>6.6</ele><time>2012-07-27T21:14:43.0000000+00:00</time></trkpt><trkpt lat="63.84108734" lon="-21.56806564"><ele>5.7</ele><time>2012-07-27T21:14:48.0000000+00:00</time></trkpt><trkpt lat="63.84106827" lon="-21.56832123"><ele>4.5</ele><time>2012-07-27T21:14:53.0000000+00:00</time></trkpt><trkpt lat="63.84105301" lon="-21.56866646"><ele>3.6</ele><time>2012-07-27T21:14:58.0000000+00:00</time></trkpt><trkpt lat="63.84103775" lon="-21.56898308"><ele>4.6</ele><time>2012-07-27T21:15:03.0000000+00:00</time></trkpt><trkpt lat="63.84101868" lon="-21.56932068"><ele>4.2</ele><time>2012-07-27T21:15:08.0000000+00:00</time></trkpt><trkpt lat="63.84099579" lon="-21.56967163"><ele>3.7</ele><time>2012-07-27T21:15:13.0000000+00:00</time></trkpt><trkpt lat="63.84097672" lon="-21.57001114"><ele>3.5</ele><time>2012-07-27T21:15:18.0000000+00:00</time></trkpt><trkpt lat="63.84095383" lon="-21.57036018"><ele>3.1</ele><time>2012-07-27T21:15:23.0000000+00:00</time></trkpt><trkpt lat="63.84093094" lon="-21.57071495"><ele>4.0</ele><time>2012-07-27T21:15:28.0000000+00:00</time></trkpt><trkpt lat="63.84090424" lon="-21.57109833"><ele>4.3</ele><time>2012-07-27T21:15:33.0000000+00:00</time></trkpt><trkpt lat="63.84088135" lon="-21.57148552"><ele>3.9</ele><time>2012-07-27T21:15:38.0000000+00:00</time></trkpt><trkpt lat="63.84085465" lon="-21.57185173"><ele>2.7</ele><time>2012-07-27T21:15:43.0000000+00:00</time></trkpt><trkpt lat="63.84082794" lon="-21.57225418"><ele>2.8</ele><time>2012-07-27T21:15:48.0000000+00:00</time></trkpt><trkpt lat="63.84080124" lon="-21.57265091"><ele>2.2</ele><time>2012-07-27T21:15:53.0000000+00:00</time></trkpt><trkpt lat="63.84077835" lon="-21.57296944"><ele>3.0</ele><time>2012-07-27T21:15:58.0000000+00:00</time></trkpt><trkpt lat="63.84075546" lon="-21.57337189"><ele>5.7</ele><time>2012-07-27T21:16:03.0000000+00:00</time></trkpt><trkpt lat="63.84072495" lon="-21.5737381"><ele>5.9</ele><time>2012-07-27T21:16:08.0000000+00:00</time></trkpt><trkpt lat="63.84069061" lon="-21.57412529"><ele>4.8</ele><time>2012-07-27T21:16:13.0000000+00:00</time></trkpt><trkpt lat="63.8406601" lon="-21.57450676"><ele>3.3</ele><time>2012-07-27T21:16:18.0000000+00:00</time></trkpt><trkpt lat="63.84062576" lon="-21.57487869"><ele>2.3</ele><time>2012-07-27T21:16:23.0000000+00:00</time></trkpt><trkpt lat="63.84059143" lon="-21.57525063"><ele>1.8</ele><time>2012-07-27T21:16:28.0000000+00:00</time></trkpt><trkpt lat="63.84056091" lon="-21.575634"><ele>0.3</ele><time>2012-07-27T21:16:33.0000000+00:00</time></trkpt><trkpt lat="63.84051895" lon="-21.57600212"><ele>-1.1</ele><time>2012-07-27T21:16:38.0000000+00:00</time></trkpt><trkpt lat="63.84048843" lon="-21.57635307"><ele>-6.6</ele><time>2012-07-27T21:16:43.0000000+00:00</time></trkpt><trkpt lat="63.8404541" lon="-21.57671356"><ele>-7.0</ele><time>2012-07-27T21:16:48.0000000+00:00</time></trkpt><trkpt lat="63.84041977" lon="-21.57701874"><ele>-8.1</ele><time>2012-07-27T21:16:53.0000000+00:00</time></trkpt><trkpt lat="63.84039307" lon="-21.57737351"><ele>-8.0</ele><time>2012-07-27T21:16:58.0000000+00:00</time></trkpt><trkpt lat="63.84035873" lon="-21.57771492"><ele>-7.4</ele><time>2012-07-27T21:17:03.0000000+00:00</time></trkpt><trkpt lat="63.84033203" lon="-21.57808304"><ele>-6.5</ele><time>2012-07-27T21:17:08.0000000+00:00</time></trkpt><trkpt lat="63.84029007" lon="-21.57844162"><ele>-6.4</ele><time>2012-07-27T21:17:13.0000000+00:00</time></trkpt><trkpt lat="63.84025192" lon="-21.57881737"><ele>-6.4</ele><time>2012-07-27T21:17:18.0000000+00:00</time></trkpt><trkpt lat="63.84021759" lon="-21.57922363"><ele>-5.8</ele><time>2012-07-27T21:17:23.0000000+00:00</time></trkpt><trkpt lat="63.84017181" lon="-21.57965851"><ele>-3.8</ele><time>2012-07-27T21:17:28.0000000+00:00</time></trkpt><trkpt lat="63.84012985" lon="-21.58006287"><ele>-4.5</ele><time>2012-07-27T21:17:33.0000000+00:00</time></trkpt><trkpt lat="63.84008789" lon="-21.58048058"><ele>-5.1</ele><time>2012-07-27T21:17:38.0000000+00:00</time></trkpt><trkpt lat="63.8400383" lon="-21.58090591"><ele>-5.9</ele><time>2012-07-27T21:17:43.0000000+00:00</time></trkpt><trkpt lat="63.83999252" lon="-21.58132172"><ele>-5.8</ele><time>2012-07-27T21:17:48.0000000+00:00</time></trkpt><trkpt lat="63.83994293" lon="-21.58176613"><ele>-5.5</ele><time>2012-07-27T21:17:53.0000000+00:00</time></trkpt><trkpt lat="63.83989716" lon="-21.58219719"><ele>-5.3</ele><time>2012-07-27T21:17:58.0000000+00:00</time></trkpt><trkpt lat="63.83984375" lon="-21.58259964"><ele>-4.3</ele><time>2012-07-27T21:18:03.0000000+00:00</time></trkpt><trkpt lat="63.83979034" lon="-21.58304596"><ele>-4.2</ele><time>2012-07-27T21:18:08.0000000+00:00</time></trkpt><trkpt lat="63.83973312" lon="-21.58350563"><ele>-4.2</ele><time>2012-07-27T21:18:13.0000000+00:00</time></trkpt><trkpt lat="63.8396759" lon="-21.58395767"><ele>-4.5</ele><time>2012-07-27T21:18:18.0000000+00:00</time></trkpt><trkpt lat="63.83961868" lon="-21.58439827"><ele>-4.6</ele><time>2012-07-27T21:18:23.0000000+00:00</time></trkpt><trkpt lat="63.83955383" lon="-21.58488083"><ele>-4.4</ele><time>2012-07-27T21:18:28.0000000+00:00</time></trkpt><trkpt lat="63.8394928" lon="-21.58532143"><ele>-4.8</ele><time>2012-07-27T21:18:33.0000000+00:00</time></trkpt><trkpt lat="63.83943558" lon="-21.58577156"><ele>-3.7</ele><time>2012-07-27T21:18:38.0000000+00:00</time></trkpt><trkpt lat="63.83936691" lon="-21.58625603"><ele>-3.4</ele><time>2012-07-27T21:18:43.0000000+00:00</time></trkpt><trkpt lat="63.83930588" lon="-21.58668518"><ele>-5.0</ele><time>2012-07-27T21:18:48.0000000+00:00</time></trkpt><trkpt lat="63.83924103" lon="-21.58712387"><ele>-4.1</ele><time>2012-07-27T21:18:53.0000000+00:00</time></trkpt><trkpt lat="63.83917618" lon="-21.58756256"><ele>-3.5</ele><time>2012-07-27T21:18:58.0000000+00:00</time></trkpt><trkpt lat="63.83911896" lon="-21.58797836"><ele>-2.9</ele><time>2012-07-27T21:19:03.0000000+00:00</time></trkpt><trkpt lat="63.83904648" lon="-21.5884552"><ele>-2.5</ele><time>2012-07-27T21:19:08.0000000+00:00</time></trkpt><trkpt lat="63.838974" lon="-21.58889198"><ele>-3.9</ele><time>2012-07-27T21:19:13.0000000+00:00</time></trkpt><trkpt lat="63.83890533" lon="-21.58934212"><ele>-3.3</ele><time>2012-07-27T21:19:18.0000000+00:00</time></trkpt><trkpt lat="63.8388443" lon="-21.58973694"><ele>-4.8</ele><time>2012-07-27T21:19:23.0000000+00:00</time></trkpt><trkpt lat="63.83878326" lon="-21.59016037"><ele>-3.7</ele><time>2012-07-27T21:19:28.0000000+00:00</time></trkpt><trkpt lat="63.83872223" lon="-21.59050751"><ele>-3.4</ele><time>2012-07-27T21:19:33.0000000+00:00</time></trkpt><trkpt lat="63.83866501" lon="-21.59090996"><ele>-2.6</ele><time>2012-07-27T21:19:38.0000000+00:00</time></trkpt><trkpt lat="63.83860397" lon="-21.59127808"><ele>-1.5</ele><time>2012-07-27T21:19:43.0000000+00:00</time></trkpt><trkpt lat="63.83853912" lon="-21.59169006"><ele>-0.7</ele><time>2012-07-27T21:19:48.0000000+00:00</time></trkpt><trkpt lat="63.83847427" lon="-21.59210587"><ele>-1.8</ele><time>2012-07-27T21:19:53.0000000+00:00</time></trkpt><trkpt lat="63.83840179" lon="-21.59252358"><ele>-2.2</ele><time>2012-07-27T21:19:58.0000000+00:00</time></trkpt><trkpt lat="63.83831787" lon="-21.59295845"><ele>-1.7</ele><time>2012-07-27T21:20:03.0000000+00:00</time></trkpt><trkpt lat="63.83825302" lon="-21.59335327"><ele>-1.9</ele><time>2012-07-27T21:20:08.0000000+00:00</time></trkpt><trkpt lat="63.83817673" lon="-21.5938015"><ele>-1.5</ele><time>2012-07-27T21:20:13.0000000+00:00</time></trkpt><trkpt lat="63.83810043" lon="-21.5941906"><ele>-0.7</ele><time>2012-07-27T21:20:18.0000000+00:00</time></trkpt><trkpt lat="63.83802795" lon="-21.59461212"><ele>-0.2</ele><time>2012-07-27T21:20:23.0000000+00:00</time></trkpt><trkpt lat="63.83796692" lon="-21.59495544"><ele>0.1</ele><time>2012-07-27T21:20:28.0000000+00:00</time></trkpt><trkpt lat="63.83790207" lon="-21.59536934"><ele>2.7</ele><time>2012-07-27T21:20:33.0000000+00:00</time></trkpt><trkpt lat="63.83782578" lon="-21.59578896"><ele>3.2</ele><time>2012-07-27T21:20:38.0000000+00:00</time></trkpt><trkpt lat="63.83774948" lon="-21.59617996"><ele>3.4</ele><time>2012-07-27T21:20:43.0000000+00:00</time></trkpt><trkpt lat="63.83766937" lon="-21.59657478"><ele>3.3</ele><time>2012-07-27T21:20:48.0000000+00:00</time></trkpt><trkpt lat="63.83760071" lon="-21.59690285"><ele>3.4</ele><time>2012-07-27T21:20:53.0000000+00:00</time></trkpt><trkpt lat="63.83753204" lon="-21.59727097"><ele>2.6</ele><time>2012-07-27T21:20:58.0000000+00:00</time></trkpt><trkpt lat="63.83745956" lon="-21.59760475"><ele>1.0</ele><time>2012-07-27T21:21:03.0000000+00:00</time></trkpt><trkpt lat="63.83740616" lon="-21.59790039"><ele>1.5</ele><time>2012-07-27T21:21:08.0000000+00:00</time></trkpt><trkpt lat="63.83733749" lon="-21.59821892"><ele>1.6</ele><time>2012-07-27T21:21:13.0000000+00:00</time></trkpt><trkpt lat="63.83728027" lon="-21.59853554"><ele>2.5</ele><time>2012-07-27T21:21:18.0000000+00:00</time></trkpt><trkpt lat="63.83720779" lon="-21.5988884"><ele>2.0</ele><time>2012-07-27T21:21:23.0000000+00:00</time></trkpt><trkpt lat="63.83713532" lon="-21.59920311"><ele>3.3</ele><time>2012-07-27T21:21:28.0000000+00:00</time></trkpt><trkpt lat="63.83708572" lon="-21.59949493"><ele>2.3</ele><time>2012-07-27T21:21:33.0000000+00:00</time></trkpt><trkpt lat="63.83702087" lon="-21.59979248"><ele>1.9</ele><time>2012-07-27T21:21:38.0000000+00:00</time></trkpt><trkpt lat="63.8369484" lon="-21.60011482"><ele>1.2</ele><time>2012-07-27T21:21:43.0000000+00:00</time></trkpt><trkpt lat="63.83689117" lon="-21.6003933"><ele>0.6</ele><time>2012-07-27T21:21:48.0000000+00:00</time></trkpt><trkpt lat="63.83682632" lon="-21.60068131"><ele>1.6</ele><time>2012-07-27T21:21:53.0000000+00:00</time></trkpt><trkpt lat="63.83677673" lon="-21.60094833"><ele>2.7</ele><time>2012-07-27T21:21:58.0000000+00:00</time></trkpt><trkpt lat="63.8367157" lon="-21.60123062"><ele>1.8</ele><time>2012-07-27T21:22:03.0000000+00:00</time></trkpt><trkpt lat="63.83665466" lon="-21.60149384"><ele>1.6</ele><time>2012-07-27T21:22:08.0000000+00:00</time></trkpt><trkpt lat="63.836586" lon="-21.60177422"><ele>0.4</ele><time>2012-07-27T21:22:13.0000000+00:00</time></trkpt><trkpt lat="63.83652115" lon="-21.60206413"><ele>1.1</ele><time>2012-07-27T21:22:18.0000000+00:00</time></trkpt><trkpt lat="63.83645248" lon="-21.60237312"><ele>1.2</ele><time>2012-07-27T21:22:23.0000000+00:00</time></trkpt><trkpt lat="63.83638763" lon="-21.60266876"><ele>1.3</ele><time>2012-07-27T21:22:28.0000000+00:00</time></trkpt><trkpt lat="63.83633041" lon="-21.6029129"><ele>0.8</ele><time>2012-07-27T21:22:33.0000000+00:00</time></trkpt><trkpt lat="63.83626938" lon="-21.60316277"><ele>0.3</ele><time>2012-07-27T21:22:38.0000000+00:00</time></trkpt><trkpt lat="63.83618546" lon="-21.6035099"><ele>0.4</ele><time>2012-07-27T21:22:43.0000000+00:00</time></trkpt><trkpt lat="63.83610153" lon="-21.60386848"><ele>1.2</ele><time>2012-07-27T21:22:48.0000000+00:00</time></trkpt><trkpt lat="63.83601761" lon="-21.60420609"><ele>0.5</ele><time>2012-07-27T21:22:53.0000000+00:00</time></trkpt><trkpt lat="63.83594132" lon="-21.60453033"><ele>0.3</ele><time>2012-07-27T21:22:58.0000000+00:00</time></trkpt><trkpt lat="63.83585739" lon="-21.60487747"><ele>1.3</ele><time>2012-07-27T21:23:03.0000000+00:00</time></trkpt><trkpt lat="63.83576965" lon="-21.60520744"><ele>1.6</ele><time>2012-07-27T21:23:08.0000000+00:00</time></trkpt><trkpt lat="63.83568573" lon="-21.60555267"><ele>1.2</ele><time>2012-07-27T21:23:13.0000000+00:00</time></trkpt><trkpt lat="63.83560562" lon="-21.60586357"><ele>0.7</ele><time>2012-07-27T21:23:18.0000000+00:00</time></trkpt><trkpt lat="63.83552933" lon="-21.60620499"><ele>1.0</ele><time>2012-07-27T21:23:23.0000000+00:00</time></trkpt><trkpt lat="63.83544922" lon="-21.60655022"><ele>3.4</ele><time>2012-07-27T21:23:28.0000000+00:00</time></trkpt><trkpt lat="63.83536148" lon="-21.606884"><ele>2.9</ele><time>2012-07-27T21:23:33.0000000+00:00</time></trkpt><trkpt lat="63.83526993" lon="-21.60724831"><ele>3.7</ele><time>2012-07-27T21:23:38.0000000+00:00</time></trkpt><trkpt lat="63.83518219" lon="-21.60758019"><ele>4.0</ele><time>2012-07-27T21:23:43.0000000+00:00</time></trkpt><trkpt lat="63.83509445" lon="-21.60794449"><ele>4.6</ele><time>2012-07-27T21:23:48.0000000+00:00</time></trkpt><trkpt lat="63.8350029" lon="-21.60831261"><ele>4.0</ele><time>2012-07-27T21:23:53.0000000+00:00</time></trkpt><trkpt lat="63.83492661" lon="-21.60865021"><ele>4.0</ele><time>2012-07-27T21:23:58.0000000+00:00</time></trkpt><trkpt lat="63.83483505" lon="-21.60902023"><ele>4.2</ele><time>2012-07-27T21:24:03.0000000+00:00</time></trkpt><trkpt lat="63.8347435" lon="-21.60941315"><ele>4.6</ele><time>2012-07-27T21:24:08.0000000+00:00</time></trkpt><trkpt lat="63.83465576" lon="-21.60976601"><ele>3.8</ele><time>2012-07-27T21:24:13.0000000+00:00</time></trkpt><trkpt lat="63.83457184" lon="-21.61013222"><ele>3.0</ele><time>2012-07-27T21:24:18.0000000+00:00</time></trkpt><trkpt lat="63.83449173" lon="-21.61050415"><ele>4.6</ele><time>2012-07-27T21:24:23.0000000+00:00</time></trkpt><trkpt lat="63.83441162" lon="-21.61088562"><ele>6.1</ele><time>2012-07-27T21:24:28.0000000+00:00</time></trkpt><trkpt lat="63.83433533" lon="-21.61124802"><ele>8.0</ele><time>2012-07-27T21:24:33.0000000+00:00</time></trkpt><trkpt lat="63.83425522" lon="-21.61162758"><ele>10.2</ele><time>2012-07-27T21:24:38.0000000+00:00</time></trkpt><trkpt lat="63.83417511" lon="-21.61199379"><ele>8.0</ele><time>2012-07-27T21:24:43.0000000+00:00</time></trkpt><trkpt lat="63.83410645" lon="-21.61234283"><ele>8.4</ele><time>2012-07-27T21:24:48.0000000+00:00</time></trkpt><trkpt lat="63.83403397" lon="-21.61273003"><ele>8.6</ele><time>2012-07-27T21:24:53.0000000+00:00</time></trkpt><trkpt lat="63.8339653" lon="-21.61309815"><ele>6.6</ele><time>2012-07-27T21:24:58.0000000+00:00</time></trkpt><trkpt lat="63.83388138" lon="-21.61350441"><ele>7.0</ele><time>2012-07-27T21:25:03.0000000+00:00</time></trkpt><trkpt lat="63.83381271" lon="-21.61389351"><ele>6.8</ele><time>2012-07-27T21:25:08.0000000+00:00</time></trkpt><trkpt lat="63.83379746" lon="-21.61397934"><ele>6.9</ele><time>2012-07-27T21:26:05.0000000+00:00</time></trkpt><trkpt lat="63.83372116" lon="-21.61437607"><ele>8.3</ele><time>2012-07-27T21:26:10.0000000+00:00</time></trkpt><trkpt lat="63.83365631" lon="-21.61473846"><ele>7.2</ele><time>2012-07-27T21:26:15.0000000+00:00</time></trkpt><trkpt lat="63.83359528" lon="-21.61515999"><ele>7.7</ele><time>2012-07-27T21:26:20.0000000+00:00</time></trkpt><trkpt lat="63.83353043" lon="-21.6155777"><ele>7.6</ele><time>2012-07-27T21:26:25.0000000+00:00</time></trkpt><trkpt lat="63.83346176" lon="-21.6159935"><ele>8.6</ele><time>2012-07-27T21:26:30.0000000+00:00</time></trkpt><trkpt lat="63.83340454" lon="-21.61638832"><ele>8.7</ele><time>2012-07-27T21:26:35.0000000+00:00</time></trkpt><trkpt lat="63.83333588" lon="-21.61678886"><ele>8.2</ele><time>2012-07-27T21:26:40.0000000+00:00</time></trkpt><trkpt lat="63.83327484" lon="-21.61719132"><ele>8.6</ele><time>2012-07-27T21:26:45.0000000+00:00</time></trkpt><trkpt lat="63.83321381" lon="-21.61759758"><ele>8.7</ele><time>2012-07-27T21:26:50.0000000+00:00</time></trkpt><trkpt lat="63.8331604" lon="-21.6179924"><ele>9.8</ele><time>2012-07-27T21:26:55.0000000+00:00</time></trkpt><trkpt lat="63.83309555" lon="-21.61839294"><ele>8.6</ele><time>2012-07-27T21:27:00.0000000+00:00</time></trkpt><trkpt lat="63.83304215" lon="-21.61876679"><ele>8.6</ele><time>2012-07-27T21:27:05.0000000+00:00</time></trkpt><trkpt lat="63.83298874" lon="-21.6191349"><ele>8.4</ele><time>2012-07-27T21:27:10.0000000+00:00</time></trkpt><trkpt lat="63.83293533" lon="-21.61952019"><ele>7.4</ele><time>2012-07-27T21:27:15.0000000+00:00</time></trkpt><trkpt lat="63.83288193" lon="-21.61988831"><ele>8.6</ele><time>2012-07-27T21:27:20.0000000+00:00</time></trkpt><trkpt lat="63.83283234" lon="-21.62023163"><ele>8.6</ele><time>2012-07-27T21:27:25.0000000+00:00</time></trkpt><trkpt lat="63.83278656" lon="-21.62062645"><ele>11.4</ele><time>2012-07-27T21:27:30.0000000+00:00</time></trkpt><trkpt lat="63.8327446" lon="-21.62096596"><ele>14.3</ele><time>2012-07-27T21:27:35.0000000+00:00</time></trkpt><trkpt lat="63.83269501" lon="-21.62135506"><ele>14.7</ele><time>2012-07-27T21:27:40.0000000+00:00</time></trkpt><trkpt lat="63.83265305" lon="-21.62165451"><ele>13.5</ele><time>2012-07-27T21:27:45.0000000+00:00</time></trkpt><trkpt lat="63.83260727" lon="-21.62203217"><ele>12.1</ele><time>2012-07-27T21:27:50.0000000+00:00</time></trkpt><trkpt lat="63.83256531" lon="-21.62237549"><ele>10.6</ele><time>2012-07-27T21:27:55.0000000+00:00</time></trkpt><trkpt lat="63.83251953" lon="-21.62277603"><ele>11.0</ele><time>2012-07-27T21:28:00.0000000+00:00</time></trkpt><trkpt lat="63.83248138" lon="-21.62315559"><ele>10.6</ele><time>2012-07-27T21:28:05.0000000+00:00</time></trkpt><trkpt lat="63.83242798" lon="-21.62355232"><ele>10.7</ele><time>2012-07-27T21:28:10.0000000+00:00</time></trkpt><trkpt lat="63.83238983" lon="-21.62392426"><ele>11.4</ele><time>2012-07-27T21:28:15.0000000+00:00</time></trkpt><trkpt lat="63.83235169" lon="-21.62430763"><ele>10.5</ele><time>2012-07-27T21:28:20.0000000+00:00</time></trkpt><trkpt lat="63.83230972" lon="-21.62469482"><ele>9.9</ele><time>2012-07-27T21:28:25.0000000+00:00</time></trkpt><trkpt lat="63.83229065" lon="-21.62495232"><ele>9.8</ele><time>2012-07-27T21:28:30.0000000+00:00</time></trkpt><trkpt lat="63.83226395" lon="-21.62525559"><ele>9.9</ele><time>2012-07-27T21:28:35.0000000+00:00</time></trkpt><trkpt lat="63.83222961" lon="-21.62560082"><ele>8.1</ele><time>2012-07-27T21:28:40.0000000+00:00</time></trkpt><trkpt lat="63.8321991" lon="-21.62590599"><ele>8.3</ele><time>2012-07-27T21:28:45.0000000+00:00</time></trkpt><trkpt lat="63.83216858" lon="-21.62623978"><ele>8.4</ele><time>2012-07-27T21:28:50.0000000+00:00</time></trkpt><trkpt lat="63.83214188" lon="-21.6265564"><ele>7.9</ele><time>2012-07-27T21:28:55.0000000+00:00</time></trkpt><trkpt lat="63.83212662" lon="-21.6268177"><ele>8.9</ele><time>2012-07-27T21:29:00.0000000+00:00</time></trkpt><trkpt lat="63.8320961" lon="-21.62718201"><ele>8.3</ele><time>2012-07-27T21:29:05.0000000+00:00</time></trkpt><trkpt lat="63.83206558" lon="-21.62758255"><ele>9.0</ele><time>2012-07-27T21:29:10.0000000+00:00</time></trkpt><trkpt lat="63.83203888" lon="-21.62798882"><ele>9.8</ele><time>2012-07-27T21:29:15.0000000+00:00</time></trkpt><trkpt lat="63.83200455" lon="-21.62838554"><ele>10.4</ele><time>2012-07-27T21:29:20.0000000+00:00</time></trkpt><trkpt lat="63.83197403" lon="-21.62882996"><ele>12.7</ele><time>2012-07-27T21:29:25.0000000+00:00</time></trkpt><trkpt lat="63.83194733" lon="-21.62920761"><ele>12.7</ele><time>2012-07-27T21:29:30.0000000+00:00</time></trkpt><trkpt lat="63.83192062" lon="-21.62959099"><ele>12.7</ele><time>2012-07-27T21:29:35.0000000+00:00</time></trkpt><trkpt lat="63.83189774" lon="-21.63001442"><ele>12.3</ele><time>2012-07-27T21:29:40.0000000+00:00</time></trkpt><trkpt lat="63.83187485" lon="-21.63048935"><ele>12.8</ele><time>2012-07-27T21:29:45.0000000+00:00</time></trkpt><trkpt lat="63.83185959" lon="-21.63087654"><ele>14.3</ele><time>2012-07-27T21:29:50.0000000+00:00</time></trkpt><trkpt lat="63.8318367" lon="-21.6313076"><ele>14.6</ele><time>2012-07-27T21:29:55.0000000+00:00</time></trkpt><trkpt lat="63.83181381" lon="-21.63173485"><ele>13.2</ele><time>2012-07-27T21:30:00.0000000+00:00</time></trkpt><trkpt lat="63.83179855" lon="-21.63212204"><ele>14.5</ele><time>2012-07-27T21:30:05.0000000+00:00</time></trkpt><trkpt lat="63.83177948" lon="-21.63257599"><ele>14.1</ele><time>2012-07-27T21:30:10.0000000+00:00</time></trkpt><trkpt lat="63.83176422" lon="-21.63303757"><ele>14.0</ele><time>2012-07-27T21:30:15.0000000+00:00</time></trkpt><trkpt lat="63.83174515" lon="-21.63351059"><ele>14.0</ele><time>2012-07-27T21:30:20.0000000+00:00</time></trkpt><trkpt lat="63.8317337" lon="-21.633955"><ele>14.0</ele><time>2012-07-27T21:30:25.0000000+00:00</time></trkpt><trkpt lat="63.83172607" lon="-21.6343174"><ele>14.0</ele><time>2012-07-27T21:30:30.0000000+00:00</time></trkpt><trkpt lat="63.83171463" lon="-21.6347599"><ele>13.7</ele><time>2012-07-27T21:30:35.0000000+00:00</time></trkpt><trkpt lat="63.83170319" lon="-21.63523865"><ele>13.5</ele><time>2012-07-27T21:30:40.0000000+00:00</time></trkpt><trkpt lat="63.83169937" lon="-21.63565445"><ele>13.1</ele><time>2012-07-27T21:30:45.0000000+00:00</time></trkpt><trkpt lat="63.83169556" lon="-21.63611412"><ele>12.9</ele><time>2012-07-27T21:30:50.0000000+00:00</time></trkpt><trkpt lat="63.83169556" lon="-21.63649941"><ele>13.1</ele><time>2012-07-27T21:30:55.0000000+00:00</time></trkpt><trkpt lat="63.83169174" lon="-21.63691139"><ele>13.0</ele><time>2012-07-27T21:31:00.0000000+00:00</time></trkpt><trkpt lat="63.83168411" lon="-21.63736343"><ele>13.0</ele><time>2012-07-27T21:31:05.0000000+00:00</time></trkpt><trkpt lat="63.83168411" lon="-21.63782501"><ele>13.1</ele><time>2012-07-27T21:31:10.0000000+00:00</time></trkpt><trkpt lat="63.8316803" lon="-21.6382637"><ele>13.2</ele><time>2012-07-27T21:31:15.0000000+00:00</time></trkpt><trkpt lat="63.83168411" lon="-21.63869858"><ele>13.3</ele><time>2012-07-27T21:31:20.0000000+00:00</time></trkpt><trkpt lat="63.83168793" lon="-21.6391201"><ele>13.5</ele><time>2012-07-27T21:31:25.0000000+00:00</time></trkpt><trkpt lat="63.83169556" lon="-21.63955879"><ele>13.4</ele><time>2012-07-27T21:31:30.0000000+00:00</time></trkpt><trkpt lat="63.83169556" lon="-21.63996315"><ele>13.3</ele><time>2012-07-27T21:31:35.0000000+00:00</time></trkpt><trkpt lat="63.83171082" lon="-21.64039803"><ele>13.7</ele><time>2012-07-27T21:31:40.0000000+00:00</time></trkpt><trkpt lat="63.83171463" lon="-21.64077377"><ele>13.7</ele><time>2012-07-27T21:31:45.0000000+00:00</time></trkpt><trkpt lat="63.83172226" lon="-21.64116097"><ele>14.0</ele><time>2012-07-27T21:31:50.0000000+00:00</time></trkpt><trkpt lat="63.83172607" lon="-21.6415329"><ele>13.9</ele><time>2012-07-27T21:31:55.0000000+00:00</time></trkpt><trkpt lat="63.83174133" lon="-21.64188194"><ele>13.6</ele><time>2012-07-27T21:32:00.0000000+00:00</time></trkpt><trkpt lat="63.83174896" lon="-21.64229965"><ele>14.0</ele><time>2012-07-27T21:32:05.0000000+00:00</time></trkpt><trkpt lat="63.83176804" lon="-21.64269447"><ele>14.9</ele><time>2012-07-27T21:32:10.0000000+00:00</time></trkpt><trkpt lat="63.83177185" lon="-21.64297485"><ele>15.2</ele><time>2012-07-27T21:32:15.0000000+00:00</time></trkpt><trkpt lat="63.83179092" lon="-21.6433506"><ele>15.2</ele><time>2012-07-27T21:32:20.0000000+00:00</time></trkpt><trkpt lat="63.83181381" lon="-21.64374542"><ele>15.5</ele><time>2012-07-27T21:32:25.0000000+00:00</time></trkpt><trkpt lat="63.83182907" lon="-21.64415932"><ele>15.5</ele><time>2012-07-27T21:32:30.0000000+00:00</time></trkpt><trkpt lat="63.83185577" lon="-21.64459038"><ele>15.6</ele><time>2012-07-27T21:32:35.0000000+00:00</time></trkpt><trkpt lat="63.83187485" lon="-21.64497376"><ele>15.7</ele><time>2012-07-27T21:32:40.0000000+00:00</time></trkpt><trkpt lat="63.83189011" lon="-21.64528084"><ele>15.8</ele><time>2012-07-27T21:32:45.0000000+00:00</time></trkpt><trkpt lat="63.83191299" lon="-21.64567947"><ele>16.0</ele><time>2012-07-27T21:32:50.0000000+00:00</time></trkpt><trkpt lat="63.83193588" lon="-21.64612961"><ele>16.1</ele><time>2012-07-27T21:32:55.0000000+00:00</time></trkpt><trkpt lat="63.8319664" lon="-21.64652252"><ele>16.3</ele><time>2012-07-27T21:33:00.0000000+00:00</time></trkpt><trkpt lat="63.8319931" lon="-21.64697456"><ele>16.4</ele><time>2012-07-27T21:33:05.0000000+00:00</time></trkpt><trkpt lat="63.83201981" lon="-21.64742088"><ele>16.7</ele><time>2012-07-27T21:33:10.0000000+00:00</time></trkpt><trkpt lat="63.83205795" lon="-21.64780426"><ele>17.0</ele><time>2012-07-27T21:33:15.0000000+00:00</time></trkpt><trkpt lat="63.8320961" lon="-21.64825249"><ele>17.4</ele><time>2012-07-27T21:33:20.0000000+00:00</time></trkpt><trkpt lat="63.83213425" lon="-21.64873314"><ele>17.7</ele><time>2012-07-27T21:33:25.0000000+00:00</time></trkpt><trkpt lat="63.83216858" lon="-21.64914513"><ele>18.0</ele><time>2012-07-27T21:33:30.0000000+00:00</time></trkpt><trkpt lat="63.83220291" lon="-21.64954567"><ele>17.9</ele><time>2012-07-27T21:33:35.0000000+00:00</time></trkpt><trkpt lat="63.83223724" lon="-21.64998817"><ele>18.1</ele><time>2012-07-27T21:33:40.0000000+00:00</time></trkpt><trkpt lat="63.83227539" lon="-21.65037537"><ele>18.3</ele><time>2012-07-27T21:33:45.0000000+00:00</time></trkpt><trkpt lat="63.83231735" lon="-21.65079308"><ele>18.5</ele><time>2012-07-27T21:33:50.0000000+00:00</time></trkpt><trkpt lat="63.8323555" lon="-21.6512413"><ele>18.9</ele><time>2012-07-27T21:33:55.0000000+00:00</time></trkpt><trkpt lat="63.83240509" lon="-21.65161896"><ele>19.1</ele><time>2012-07-27T21:34:00.0000000+00:00</time></trkpt><trkpt lat="63.83244705" lon="-21.65204811"><ele>19.5</ele><time>2012-07-27T21:34:05.0000000+00:00</time></trkpt><trkpt lat="63.83249664" lon="-21.65244293"><ele>19.9</ele><time>2012-07-27T21:34:10.0000000+00:00</time></trkpt><trkpt lat="63.83253479" lon="-21.65281868"><ele>20.5</ele><time>2012-07-27T21:34:15.0000000+00:00</time></trkpt><trkpt lat="63.83258438" lon="-21.65325165"><ele>20.8</ele><time>2012-07-27T21:34:20.0000000+00:00</time></trkpt><trkpt lat="63.83263779" lon="-21.65370941"><ele>21.6</ele><time>2012-07-27T21:34:25.0000000+00:00</time></trkpt><trkpt lat="63.83267593" lon="-21.65409279"><ele>22.1</ele><time>2012-07-27T21:34:30.0000000+00:00</time></trkpt><trkpt lat="63.83272934" lon="-21.65446472"><ele>22.3</ele><time>2012-07-27T21:34:35.0000000+00:00</time></trkpt><trkpt lat="63.83279038" lon="-21.65488434"><ele>22.6</ele><time>2012-07-27T21:34:40.0000000+00:00</time></trkpt><trkpt lat="63.8328476" lon="-21.65530586"><ele>23.0</ele><time>2012-07-27T21:34:45.0000000+00:00</time></trkpt><trkpt lat="63.83290863" lon="-21.65576363"><ele>23.7</ele><time>2012-07-27T21:34:50.0000000+00:00</time></trkpt><trkpt lat="63.83296967" lon="-21.65622902"><ele>23.6</ele><time>2012-07-27T21:34:55.0000000+00:00</time></trkpt><trkpt lat="63.83302689" lon="-21.65660858"><ele>24.0</ele><time>2012-07-27T21:35:00.0000000+00:00</time></trkpt><trkpt lat="63.83308411" lon="-21.65700531"><ele>24.2</ele><time>2012-07-27T21:35:05.0000000+00:00</time></trkpt><trkpt lat="63.83314896" lon="-21.65744782"><ele>24.5</ele><time>2012-07-27T21:35:10.0000000+00:00</time></trkpt><trkpt lat="63.83320236" lon="-21.65786171"><ele>24.6</ele><time>2012-07-27T21:35:15.0000000+00:00</time></trkpt><trkpt lat="63.83326721" lon="-21.65823746"><ele>24.8</ele><time>2012-07-27T21:35:20.0000000+00:00</time></trkpt><trkpt lat="63.83333206" lon="-21.65864372"><ele>25.1</ele><time>2012-07-27T21:35:25.0000000+00:00</time></trkpt><trkpt lat="63.83339691" lon="-21.65904808"><ele>25.2</ele><time>2012-07-27T21:35:30.0000000+00:00</time></trkpt><trkpt lat="63.83346176" lon="-21.65942383"><ele>25.3</ele><time>2012-07-27T21:35:35.0000000+00:00</time></trkpt><trkpt lat="63.83350372" lon="-21.65968132"><ele>25.3</ele><time>2012-07-27T21:35:40.0000000+00:00</time></trkpt><trkpt lat="63.83356476" lon="-21.66003227"><ele>25.6</ele><time>2012-07-27T21:35:45.0000000+00:00</time></trkpt><trkpt lat="63.83362961" lon="-21.66041374"><ele>25.5</ele><time>2012-07-27T21:35:50.0000000+00:00</time></trkpt><trkpt lat="63.8336792" lon="-21.66072083"><ele>25.6</ele><time>2012-07-27T21:35:55.0000000+00:00</time></trkpt><trkpt lat="63.83374023" lon="-21.66104889"><ele>25.7</ele><time>2012-07-27T21:36:00.0000000+00:00</time></trkpt><trkpt lat="63.83381271" lon="-21.66143608"><ele>25.8</ele><time>2012-07-27T21:36:05.0000000+00:00</time></trkpt><trkpt lat="63.83387375" lon="-21.66173935"><ele>26.0</ele><time>2012-07-27T21:36:10.0000000+00:00</time></trkpt><trkpt lat="63.83394241" lon="-21.66210365"><ele>26.0</ele><time>2012-07-27T21:36:15.0000000+00:00</time></trkpt><trkpt lat="63.83402252" lon="-21.66252327"><ele>26.4</ele><time>2012-07-27T21:36:20.0000000+00:00</time></trkpt><trkpt lat="63.83411026" lon="-21.66291809"><ele>26.2</ele><time>2012-07-27T21:36:25.0000000+00:00</time></trkpt><trkpt lat="63.83419037" lon="-21.66331101"><ele>25.7</ele><time>2012-07-27T21:36:30.0000000+00:00</time></trkpt><trkpt lat="63.83426285" lon="-21.66367531"><ele>25.7</ele><time>2012-07-27T21:36:35.0000000+00:00</time></trkpt><trkpt lat="63.83432007" lon="-21.6639595"><ele>25.9</ele><time>2012-07-27T21:36:40.0000000+00:00</time></trkpt><trkpt lat="63.83439636" lon="-21.66430283"><ele>25.8</ele><time>2012-07-27T21:36:45.0000000+00:00</time></trkpt><trkpt lat="63.83445358" lon="-21.66460609"><ele>25.7</ele><time>2012-07-27T21:36:50.0000000+00:00</time></trkpt><trkpt lat="63.83453369" lon="-21.66493416"><ele>25.6</ele><time>2012-07-27T21:36:55.0000000+00:00</time></trkpt><trkpt lat="63.83458328" lon="-21.66515923"><ele>25.4</ele><time>2012-07-27T21:37:00.0000000+00:00</time></trkpt></trkseg><trkseg><trkpt lat="63.83077622" lon="-21.67786408"><ele>89.4</ele><time>2012-07-28T12:39:06.0000000+00:00</time></trkpt><trkpt lat="63.83081436" lon="-21.67807198"><ele>89.3</ele><time>2012-07-28T12:39:11.0000000+00:00</time></trkpt><trkpt lat="63.83085251" lon="-21.67829704"><ele>89.1</ele><time>2012-07-28T12:39:16.0000000+00:00</time></trkpt><trkpt lat="63.83086777" lon="-21.67854691"><ele>89.0</ele><time>2012-07-28T12:39:21.0000000+00:00</time></trkpt><trkpt lat="63.83091736" lon="-21.67874527"><ele>88.8</ele><time>2012-07-28T12:39:26.0000000+00:00</time></trkpt><trkpt lat="63.83076859" lon="-21.67898369"><ele>16.7</ele><time>2012-07-28T12:39:31.0000000+00:00</time></trkpt><trkpt lat="63.83082199" lon="-21.6792469"><ele>13.9</ele><time>2012-07-28T12:39:36.0000000+00:00</time></trkpt><trkpt lat="63.83086395" lon="-21.67947769"><ele>14.0</ele><time>2012-07-28T12:39:41.0000000+00:00</time></trkpt><trkpt lat="63.83089829" lon="-21.67972183"><ele>12.9</ele><time>2012-07-28T12:39:46.0000000+00:00</time></trkpt><trkpt lat="63.8309288" lon="-21.67991257"><ele>13.4</ele><time>2012-07-28T12:39:51.0000000+00:00</time></trkpt><trkpt lat="63.83095551" lon="-21.68008041"><ele>14.7</ele><time>2012-07-28T12:39:56.0000000+00:00</time></trkpt><trkpt lat="63.83097458" lon="-21.68021584"><ele>14.5</ele><time>2012-07-28T12:40:01.0000000+00:00</time></trkpt><trkpt lat="63.83100128" lon="-21.68042755"><ele>15.5</ele><time>2012-07-28T12:40:06.0000000+00:00</time></trkpt><trkpt lat="63.83104706" lon="-21.68068695"><ele>14.7</ele><time>2012-07-28T12:40:11.0000000+00:00</time></trkpt><trkpt lat="63.83108139" lon="-21.68093681"><ele>14.6</ele><time>2012-07-28T12:40:16.0000000+00:00</time></trkpt><trkpt lat="63.83111954" lon="-21.68119621"><ele>13.8</ele><time>2012-07-28T12:40:21.0000000+00:00</time></trkpt><trkpt lat="63.83115387" lon="-21.68143272"><ele>13.2</ele><time>2012-07-28T12:40:26.0000000+00:00</time></trkpt><trkpt lat="63.83119965" lon="-21.68165016"><ele>13.2</ele><time>2012-07-28T12:40:31.0000000+00:00</time></trkpt><trkpt lat="63.83123398" lon="-21.68190384"><ele>12.6</ele><time>2012-07-28T12:40:36.0000000+00:00</time></trkpt><trkpt lat="63.83126831" lon="-21.68214417"><ele>12.5</ele><time>2012-07-28T12:40:41.0000000+00:00</time></trkpt><trkpt lat="63.83129883" lon="-21.6824379"><ele>12.4</ele><time>2012-07-28T12:40:46.0000000+00:00</time></trkpt><trkpt lat="63.83134079" lon="-21.6827488"><ele>12.4</ele><time>2012-07-28T12:40:51.0000000+00:00</time></trkpt><trkpt lat="63.83138657" lon="-21.68301964"><ele>12.3</ele><time>2012-07-28T12:40:56.0000000+00:00</time></trkpt><trkpt lat="63.83143616" lon="-21.68331337"><ele>12.2</ele><time>2012-07-28T12:41:01.0000000+00:00</time></trkpt><trkpt lat="63.83147049" lon="-21.68362236"><ele>14.0</ele><time>2012-07-28T12:41:06.0000000+00:00</time></trkpt><trkpt lat="63.83150864" lon="-21.68393517"><ele>14.4</ele><time>2012-07-28T12:41:11.0000000+00:00</time></trkpt><trkpt lat="63.83155441" lon="-21.68423462"><ele>14.2</ele><time>2012-07-28T12:41:16.0000000+00:00</time></trkpt><trkpt lat="63.83160782" lon="-21.6845417"><ele>14.1</ele><time>2012-07-28T12:41:21.0000000+00:00</time></trkpt><trkpt lat="63.8316536" lon="-21.68485832"><ele>14.1</ele><time>2012-07-28T12:41:26.0000000+00:00</time></trkpt><trkpt lat="63.83169174" lon="-21.68513489"><ele>14.1</ele><time>2012-07-28T12:41:31.0000000+00:00</time></trkpt><trkpt lat="63.8317337" lon="-21.68539619"><ele>13.9</ele><time>2012-07-28T12:41:36.0000000+00:00</time></trkpt><trkpt lat="63.8317833" lon="-21.68569374"><ele>14.3</ele><time>2012-07-28T12:41:41.0000000+00:00</time></trkpt><trkpt lat="63.83182526" lon="-21.68597794"><ele>14.6</ele><time>2012-07-28T12:41:46.0000000+00:00</time></trkpt><trkpt lat="63.83187485" lon="-21.68629074"><ele>14.6</ele><time>2012-07-28T12:41:51.0000000+00:00</time></trkpt><trkpt lat="63.83191681" lon="-21.68658447"><ele>14.7</ele><time>2012-07-28T12:41:56.0000000+00:00</time></trkpt><trkpt lat="63.83194351" lon="-21.68681526"><ele>14.6</ele><time>2012-07-28T12:42:01.0000000+00:00</time></trkpt><trkpt lat="63.83197022" lon="-21.68701172"><ele>14.6</ele><time>2012-07-28T12:42:06.0000000+00:00</time></trkpt><trkpt lat="63.83200455" lon="-21.68722534"><ele>14.3</ele><time>2012-07-28T12:42:11.0000000+00:00</time></trkpt><trkpt lat="63.83203125" lon="-21.68742371"><ele>14.4</ele><time>2012-07-28T12:42:16.0000000+00:00</time></trkpt><trkpt lat="63.83205795" lon="-21.6876049"><ele>14.0</ele><time>2012-07-28T12:42:21.0000000+00:00</time></trkpt><trkpt lat="63.83208847" lon="-21.68780136"><ele>13.6</ele><time>2012-07-28T12:42:26.0000000+00:00</time></trkpt><trkpt lat="63.83210754" lon="-21.68800354"><ele>13.2</ele><time>2012-07-28T12:42:31.0000000+00:00</time></trkpt><trkpt lat="63.83213806" lon="-21.68820381"><ele>13.2</ele><time>2012-07-28T12:42:36.0000000+00:00</time></trkpt><trkpt lat="63.83217621" lon="-21.68844223"><ele>12.4</ele><time>2012-07-28T12:42:41.0000000+00:00</time></trkpt><trkpt lat="63.8322258" lon="-21.68878555"><ele>11.8</ele><time>2012-07-28T12:42:46.0000000+00:00</time></trkpt><trkpt lat="63.83229065" lon="-21.6891861"><ele>11.8</ele><time>2012-07-28T12:42:51.0000000+00:00</time></trkpt><trkpt lat="63.83234787" lon="-21.68959236"><ele>11.3</ele><time>2012-07-28T12:42:56.0000000+00:00</time></trkpt><trkpt lat="63.83241272" lon="-21.69002152"><ele>11.2</ele><time>2012-07-28T12:43:01.0000000+00:00</time></trkpt><trkpt lat="63.83247376" lon="-21.69039917"><ele>11.8</ele><time>2012-07-28T12:43:06.0000000+00:00</time></trkpt><trkpt lat="63.83251953" lon="-21.69075012"><ele>11.2</ele><time>2012-07-28T12:43:11.0000000+00:00</time></trkpt><trkpt lat="63.83257675" lon="-21.69112587"><ele>11.9</ele><time>2012-07-28T12:43:16.0000000+00:00</time></trkpt><trkpt lat="63.83262253" lon="-21.69146729"><ele>12.2</ele><time>2012-07-28T12:43:21.0000000+00:00</time></trkpt><trkpt lat="63.83266449" lon="-21.69175339"><ele>12.6</ele><time>2012-07-28T12:43:26.0000000+00:00</time></trkpt><trkpt lat="63.83270645" lon="-21.69203758"><ele>12.3</ele><time>2012-07-28T12:43:31.0000000+00:00</time></trkpt><trkpt lat="63.83275604" lon="-21.692379"><ele>12.1</ele><time>2012-07-28T12:43:36.0000000+00:00</time></trkpt><trkpt lat="63.83280945" lon="-21.69271851"><ele>12.4</ele><time>2012-07-28T12:43:41.0000000+00:00</time></trkpt><trkpt lat="63.8328476" lon="-21.69305039"><ele>12.4</ele><time>2012-07-28T12:43:46.0000000+00:00</time></trkpt><trkpt lat="63.83289337" lon="-21.69333839"><ele>12.3</ele><time>2012-07-28T12:43:51.0000000+00:00</time></trkpt><trkpt lat="63.83294678" lon="-21.69363403"><ele>11.9</ele><time>2012-07-28T12:43:56.0000000+00:00</time></trkpt><trkpt lat="63.83298874" lon="-21.69392204"><ele>12.3</ele><time>2012-07-28T12:44:01.0000000+00:00</time></trkpt><trkpt lat="63.83301926" lon="-21.69419098"><ele>12.7</ele><time>2012-07-28T12:44:06.0000000+00:00</time></trkpt><trkpt lat="63.83305359" lon="-21.69443512"><ele>12.8</ele><time>2012-07-28T12:44:11.0000000+00:00</time></trkpt><trkpt lat="63.83309555" lon="-21.694767"><ele>11.6</ele><time>2012-07-28T12:44:16.0000000+00:00</time></trkpt><trkpt lat="63.83314896" lon="-21.69515419"><ele>10.6</ele><time>2012-07-28T12:44:21.0000000+00:00</time></trkpt><trkpt lat="63.83319473" lon="-21.69549561"><ele>10.8</ele><time>2012-07-28T12:44:26.0000000+00:00</time></trkpt><trkpt lat="63.83324051" lon="-21.69579506"><ele>10.7</ele><time>2012-07-28T12:44:31.0000000+00:00</time></trkpt><trkpt lat="63.83329392" lon="-21.69610405"><ele>10.5</ele><time>2012-07-28T12:44:36.0000000+00:00</time></trkpt><trkpt lat="63.83334351" lon="-21.69641113"><ele>11.1</ele><time>2012-07-28T12:44:41.0000000+00:00</time></trkpt><trkpt lat="63.83338928" lon="-21.6966877"><ele>11.2</ele><time>2012-07-28T12:44:46.0000000+00:00</time></trkpt><trkpt lat="63.83343506" lon="-21.69697762"><ele>11.8</ele><time>2012-07-28T12:44:51.0000000+00:00</time></trkpt><trkpt lat="63.83348465" lon="-21.69729614"><ele>11.6</ele><time>2012-07-28T12:44:56.0000000+00:00</time></trkpt><trkpt lat="63.83353043" lon="-21.69761276"><ele>11.9</ele><time>2012-07-28T12:45:01.0000000+00:00</time></trkpt><trkpt lat="63.83358383" lon="-21.69792557"><ele>12.0</ele><time>2012-07-28T12:45:06.0000000+00:00</time></trkpt><trkpt lat="63.83363724" lon="-21.69822693"><ele>11.9</ele><time>2012-07-28T12:45:11.0000000+00:00</time></trkpt><trkpt lat="63.83368683" lon="-21.6985302"><ele>12.3</ele><time>2012-07-28T12:45:16.0000000+00:00</time></trkpt><trkpt lat="63.83374405" lon="-21.69882774"><ele>12.8</ele><time>2012-07-28T12:45:21.0000000+00:00</time></trkpt><trkpt lat="63.83382034" lon="-21.69912911"><ele>13.1</ele><time>2012-07-28T12:45:26.0000000+00:00</time></trkpt><trkpt lat="63.83388138" lon="-21.69947052"><ele>13.1</ele><time>2012-07-28T12:45:31.0000000+00:00</time></trkpt><trkpt lat="63.83396149" lon="-21.69988823"><ele>11.9</ele><time>2012-07-28T12:45:36.0000000+00:00</time></trkpt><trkpt lat="63.83404541" lon="-21.70030403"><ele>12.4</ele><time>2012-07-28T12:45:41.0000000+00:00</time></trkpt><trkpt lat="63.83414459" lon="-21.70070076"><ele>12.4</ele><time>2012-07-28T12:45:46.0000000+00:00</time></trkpt><trkpt lat="63.83425903" lon="-21.70107842"><ele>12.3</ele><time>2012-07-28T12:45:51.0000000+00:00</time></trkpt><trkpt lat="63.8343811" lon="-21.70144463"><ele>12.1</ele><time>2012-07-28T12:45:56.0000000+00:00</time></trkpt><trkpt lat="63.83448792" lon="-21.7017746"><ele>11.4</ele><time>2012-07-28T12:46:01.0000000+00:00</time></trkpt><trkpt lat="63.83458328" lon="-21.70207024"><ele>11.1</ele><time>2012-07-28T12:46:06.0000000+00:00</time></trkpt><trkpt lat="63.83467484" lon="-21.70235062"><ele>10.7</ele><time>2012-07-28T12:46:11.0000000+00:00</time></trkpt><trkpt lat="63.83475876" lon="-21.70264435"><ele>10.6</ele><time>2012-07-28T12:46:16.0000000+00:00</time></trkpt><trkpt lat="63.83483505" lon="-21.70291519"><ele>10.9</ele><time>2012-07-28T12:46:21.0000000+00:00</time></trkpt><trkpt lat="63.83492279" lon="-21.70319557"><ele>10.6</ele><time>2012-07-28T12:46:26.0000000+00:00</time></trkpt><trkpt lat="63.83501053" lon="-21.70348167"><ele>10.6</ele><time>2012-07-28T12:46:31.0000000+00:00</time></trkpt><trkpt lat="63.8351059" lon="-21.70378494"><ele>10.5</ele><time>2012-07-28T12:46:36.0000000+00:00</time></trkpt><trkpt lat="63.83520508" lon="-21.70410919"><ele>10.1</ele><time>2012-07-28T12:46:41.0000000+00:00</time></trkpt><trkpt lat="63.83530426" lon="-21.70439911"><ele>10.5</ele><time>2012-07-28T12:46:46.0000000+00:00</time></trkpt><trkpt lat="63.83539581" lon="-21.70464134"><ele>10.2</ele><time>2012-07-28T12:46:51.0000000+00:00</time></trkpt><trkpt lat="63.83547974" lon="-21.70484543"><ele>9.6</ele><time>2012-07-28T12:46:56.0000000+00:00</time></trkpt><trkpt lat="63.83557129" lon="-21.70503044"><ele>9.1</ele><time>2012-07-28T12:47:01.0000000+00:00</time></trkpt><trkpt lat="63.83565521" lon="-21.7051754"><ele>8.8</ele><time>2012-07-28T12:47:06.0000000+00:00</time></trkpt><trkpt lat="63.83568192" lon="-21.70528221"><ele>9.2</ele><time>2012-07-28T12:47:11.0000000+00:00</time></trkpt><trkpt lat="63.83567429" lon="-21.70528603"><ele>8.0</ele><time>2012-07-28T12:47:16.0000000+00:00</time></trkpt><trkpt lat="63.83567429" lon="-21.70529175"><ele>7.8</ele><time>2012-07-28T12:47:21.0000000+00:00</time></trkpt><trkpt lat="63.83568955" lon="-21.70528221"><ele>8.2</ele><time>2012-07-28T12:47:26.0000000+00:00</time></trkpt><trkpt lat="63.83568192" lon="-21.70525932"><ele>8.5</ele><time>2012-07-28T12:47:31.0000000+00:00</time></trkpt><trkpt lat="63.8356781" lon="-21.70523071"><ele>8.5</ele><time>2012-07-28T12:47:36.0000000+00:00</time></trkpt><trkpt lat="63.8356781" lon="-21.7052269"><ele>8.4</ele><time>2012-07-28T12:47:41.0000000+00:00</time></trkpt><trkpt lat="63.8356781" lon="-21.7052269"><ele>8.3</ele><time>2012-07-28T12:47:46.0000000+00:00</time></trkpt><trkpt lat="63.8356781" lon="-21.70522881"><ele>8.2</ele><time>2012-07-28T12:47:51.0000000+00:00</time></trkpt><trkpt lat="63.8356781" lon="-21.70522881"><ele>8.1</ele><time>2012-07-28T12:47:56.0000000+00:00</time></trkpt><trkpt lat="63.8356781" lon="-21.70522881"><ele>7.9</ele><time>2012-07-28T12:48:01.0000000+00:00</time></trkpt><trkpt lat="63.83568192" lon="-21.70522881"><ele>7.8</ele><time>2012-07-28T12:48:06.0000000+00:00</time></trkpt><trkpt lat="63.83568192" lon="-21.70522881"><ele>7.8</ele><time>2012-07-28T12:48:11.0000000+00:00</time></trkpt><trkpt lat="63.83568192" lon="-21.70523071"><ele>7.8</ele><time>2012-07-28T12:48:16.0000000+00:00</time></trkpt><trkpt lat="63.83568192" lon="-21.70523071"><ele>7.8</ele><time>2012-07-28T12:48:21.0000000+00:00</time></trkpt><trkpt lat="63.83568192" lon="-21.70523071"><ele>7.8</ele><time>2012-07-28T12:48:26.0000000+00:00</time></trkpt><trkpt lat="63.83568192" lon="-21.70523071"><ele>7.8</ele><time>2012-07-28T12:48:31.0000000+00:00</time></trkpt><trkpt lat="63.83568192" lon="-21.70523071"><ele>7.8</ele><time>2012-07-28T12:48:36.0000000+00:00</time></trkpt><trkpt lat="63.83568192" lon="-21.70523071"><ele>7.8</ele><time>2012-07-28T12:48:41.0000000+00:00</time></trkpt><trkpt lat="63.83568192" lon="-21.70523071"><ele>7.8</ele><time>2012-07-28T12:48:46.0000000+00:00</time></trkpt><trkpt lat="63.83568192" lon="-21.70523071"><ele>7.8</ele><time>2012-07-28T12:48:51.0000000+00:00</time></trkpt><trkpt lat="63.8356781" lon="-21.70523071"><ele>7.8</ele><time>2012-07-28T12:48:56.0000000+00:00</time></trkpt><trkpt lat="63.8356781" lon="-21.70523071"><ele>7.8</ele><time>2012-07-28T12:49:01.0000000+00:00</time></trkpt><trkpt lat="63.8356781" lon="-21.70523071"><ele>7.8</ele><time>2012-07-28T12:49:06.0000000+00:00</time></trkpt><trkpt lat="63.8356781" lon="-21.70523071"><ele>7.8</ele><time>2012-07-28T12:49:11.0000000+00:00</time></trkpt><trkpt lat="63.8356781" lon="-21.70523071"><ele>7.8</ele><time>2012-07-28T12:49:16.0000000+00:00</time></trkpt><trkpt lat="63.8356781" lon="-21.70523071"><ele>7.7</ele><time>2012-07-28T12:49:21.0000000+00:00</time></trkpt><trkpt lat="63.83568192" lon="-21.70523071"><ele>7.7</ele><time>2012-07-28T12:49:26.0000000+00:00</time></trkpt><trkpt lat="63.83568192" lon="-21.70523071"><ele>7.7</ele><time>2012-07-28T12:49:31.0000000+00:00</time></trkpt><trkpt lat="63.83568192" lon="-21.70523071"><ele>7.7</ele><time>2012-07-28T12:49:36.0000000+00:00</time></trkpt><trkpt lat="63.83568192" lon="-21.70523071"><ele>7.7</ele><time>2012-07-28T12:49:41.0000000+00:00</time></trkpt><trkpt lat="63.83568192" lon="-21.70523071"><ele>7.7</ele><time>2012-07-28T12:49:46.0000000+00:00</time></trkpt><trkpt lat="63.83568192" lon="-21.70523071"><ele>7.7</ele><time>2012-07-28T12:49:51.0000000+00:00</time></trkpt><trkpt lat="63.83568192" lon="-21.70523071"><ele>7.7</ele><time>2012-07-28T12:49:56.0000000+00:00</time></trkpt><trkpt lat="63.83568192" lon="-21.70522881"><ele>7.7</ele><time>2012-07-28T12:50:01.0000000+00:00</time></trkpt><trkpt lat="63.83568192" lon="-21.70522881"><ele>7.7</ele><time>2012-07-28T12:50:06.0000000+00:00</time></trkpt><trkpt lat="63.83568192" lon="-21.70522881"><ele>7.7</ele><time>2012-07-28T12:50:11.0000000+00:00</time></trkpt><trkpt lat="63.83568192" lon="-21.70522881"><ele>7.7</ele><time>2012-07-28T12:50:16.0000000+00:00</time></trkpt><trkpt lat="63.83568192" lon="-21.70523071"><ele>7.7</ele><time>2012-07-28T12:50:21.0000000+00:00</time></trkpt><trkpt lat="63.83568192" lon="-21.70523071"><ele>7.7</ele><time>2012-07-28T12:50:26.0000000+00:00</time></trkpt><trkpt lat="63.83568192" lon="-21.70523071"><ele>7.7</ele><time>2012-07-28T12:50:31.0000000+00:00</time></trkpt><trkpt lat="63.83568192" lon="-21.70523071"><ele>7.7</ele><time>2012-07-28T12:50:36.0000000+00:00</time></trkpt><trkpt lat="63.83568192" lon="-21.70523071"><ele>7.7</ele><time>2012-07-28T12:50:41.0000000+00:00</time></trkpt><trkpt lat="63.83568192" lon="-21.70523071"><ele>7.7</ele><time>2012-07-28T12:50:46.0000000+00:00</time></trkpt><trkpt lat="63.83568192" lon="-21.70523071"><ele>7.6</ele><time>2012-07-28T12:50:51.0000000+00:00</time></trkpt><trkpt lat="63.83568192" lon="-21.70523071"><ele>7.6</ele><time>2012-07-28T12:50:56.0000000+00:00</time></trkpt><trkpt lat="63.83568192" lon="-21.70523071"><ele>7.6</ele><time>2012-07-28T12:51:01.0000000+00:00</time></trkpt><trkpt lat="63.83568192" lon="-21.70523071"><ele>7.6</ele><time>2012-07-28T12:51:06.0000000+00:00</time></trkpt><trkpt lat="63.83568192" lon="-21.70523071"><ele>7.6</ele><time>2012-07-28T12:51:11.0000000+00:00</time></trkpt><trkpt lat="63.83568192" lon="-21.70523071"><ele>7.6</ele><time>2012-07-28T12:51:16.0000000+00:00</time></trkpt><trkpt lat="63.83568192" lon="-21.70523071"><ele>7.6</ele><time>2012-07-28T12:51:21.0000000+00:00</time></trkpt><trkpt lat="63.83568192" lon="-21.70523071"><ele>7.6</ele><time>2012-07-28T12:51:26.0000000+00:00</time></trkpt><trkpt lat="63.83568192" lon="-21.70523071"><ele>7.6</ele><time>2012-07-28T12:51:31.0000000+00:00</time></trkpt><trkpt lat="63.83568192" lon="-21.70523071"><ele>7.6</ele><time>2012-07-28T12:51:36.0000000+00:00</time></trkpt><trkpt lat="63.83568192" lon="-21.70523071"><ele>7.6</ele><time>2012-07-28T12:51:41.0000000+00:00</time></trkpt><trkpt lat="63.83568192" lon="-21.70523071"><ele>7.6</ele><time>2012-07-28T12:51:46.0000000+00:00</time></trkpt><trkpt lat="63.83568192" lon="-21.70523071"><ele>7.6</ele><time>2012-07-28T12:51:51.0000000+00:00</time></trkpt><trkpt lat="63.83568192" lon="-21.70522881"><ele>7.5</ele><time>2012-07-28T12:51:56.0000000+00:00</time></trkpt><trkpt lat="63.83568192" lon="-21.70522881"><ele>7.5</ele><time>2012-07-28T12:52:01.0000000+00:00</time></trkpt><trkpt lat="63.83568192" lon="-21.70522881"><ele>7.5</ele><time>2012-07-28T12:52:06.0000000+00:00</time></trkpt><trkpt lat="63.83568192" lon="-21.70522881"><ele>7.5</ele><time>2012-07-28T12:52:11.0000000+00:00</time></trkpt><trkpt lat="63.83568192" lon="-21.7052269"><ele>7.5</ele><time>2012-07-28T12:52:16.0000000+00:00</time></trkpt><trkpt lat="63.83568192" lon="-21.7052269"><ele>7.5</ele><time>2012-07-28T12:52:21.0000000+00:00</time></trkpt><trkpt lat="63.83568192" lon="-21.7052269"><ele>7.5</ele><time>2012-07-28T12:52:26.0000000+00:00</time></trkpt><trkpt lat="63.83568192" lon="-21.70522499"><ele>7.5</ele><time>2012-07-28T12:52:31.0000000+00:00</time></trkpt><trkpt lat="63.8356781" lon="-21.70522499"><ele>7.5</ele><time>2012-07-28T12:52:36.0000000+00:00</time></trkpt><trkpt lat="63.8356781" lon="-21.70522499"><ele>7.5</ele><time>2012-07-28T12:52:41.0000000+00:00</time></trkpt><trkpt lat="63.8356781" lon="-21.70522499"><ele>7.5</ele><time>2012-07-28T12:52:46.0000000+00:00</time></trkpt><trkpt lat="63.8356781" lon="-21.70522499"><ele>7.5</ele><time>2012-07-28T12:52:51.0000000+00:00</time></trkpt><trkpt lat="63.8356781" lon="-21.70522499"><ele>7.5</ele><time>2012-07-28T12:52:56.0000000+00:00</time></trkpt><trkpt lat="63.8356781" lon="-21.70522499"><ele>7.4</ele><time>2012-07-28T12:53:01.0000000+00:00</time></trkpt><trkpt lat="63.8356781" lon="-21.70522499"><ele>7.4</ele><time>2012-07-28T12:53:06.0000000+00:00</time></trkpt><trkpt lat="63.8356781" lon="-21.70522308"><ele>7.4</ele><time>2012-07-28T12:53:11.0000000+00:00</time></trkpt><trkpt lat="63.8356781" lon="-21.70522308"><ele>7.4</ele><time>2012-07-28T12:53:16.0000000+00:00</time></trkpt><trkpt lat="63.8356781" lon="-21.70522308"><ele>7.4</ele><time>2012-07-28T12:53:21.0000000+00:00</time></trkpt><trkpt lat="63.8356781" lon="-21.70522308"><ele>7.4</ele><time>2012-07-28T12:53:26.0000000+00:00</time></trkpt><trkpt lat="63.8356781" lon="-21.70522118"><ele>7.4</ele><time>2012-07-28T12:53:31.0000000+00:00</time></trkpt><trkpt lat="63.8356781" lon="-21.70522118"><ele>7.3</ele><time>2012-07-28T12:53:36.0000000+00:00</time></trkpt><trkpt lat="63.8356781" lon="-21.70522118"><ele>7.3</ele><time>2012-07-28T12:53:41.0000000+00:00</time></trkpt><trkpt lat="63.8356781" lon="-21.70521927"><ele>7.3</ele><time>2012-07-28T12:53:46.0000000+00:00</time></trkpt><trkpt lat="63.8356781" lon="-21.70521927"><ele>7.3</ele><time>2012-07-28T12:53:51.0000000+00:00</time></trkpt><trkpt lat="63.8356781" lon="-21.70521927"><ele>7.3</ele><time>2012-07-28T12:53:56.0000000+00:00</time></trkpt><trkpt lat="63.8356781" lon="-21.70521736"><ele>7.3</ele><time>2012-07-28T12:54:01.0000000+00:00</time></trkpt><trkpt lat="63.8356781" lon="-21.70521736"><ele>7.3</ele><time>2012-07-28T12:54:06.0000000+00:00</time></trkpt><trkpt lat="63.8356781" lon="-21.70521736"><ele>7.2</ele><time>2012-07-28T12:54:11.0000000+00:00</time></trkpt><trkpt lat="63.8356781" lon="-21.70521736"><ele>7.2</ele><time>2012-07-28T12:54:16.0000000+00:00</time></trkpt><trkpt lat="63.8356781" lon="-21.70521545"><ele>7.2</ele><time>2012-07-28T12:54:21.0000000+00:00</time></trkpt><trkpt lat="63.8356781" lon="-21.70521545"><ele>7.2</ele><time>2012-07-28T12:54:26.0000000+00:00</time></trkpt><trkpt lat="63.8356781" lon="-21.70521545"><ele>7.2</ele><time>2012-07-28T12:54:31.0000000+00:00</time></trkpt><trkpt lat="63.8356781" lon="-21.70521545"><ele>7.2</ele><time>2012-07-28T12:54:36.0000000+00:00</time></trkpt><trkpt lat="63.8356781" lon="-21.70521355"><ele>7.2</ele><time>2012-07-28T12:54:41.0000000+00:00</time></trkpt><trkpt lat="63.8356781" lon="-21.70521355"><ele>7.2</ele><time>2012-07-28T12:54:46.0000000+00:00</time></trkpt><trkpt lat="63.8356781" lon="-21.70521355"><ele>7.2</ele><time>2012-07-28T12:54:51.0000000+00:00</time></trkpt><trkpt lat="63.8356781" lon="-21.70521355"><ele>7.1</ele><time>2012-07-28T12:54:56.0000000+00:00</time></trkpt><trkpt lat="63.8356781" lon="-21.70521355"><ele>7.1</ele><time>2012-07-28T12:55:01.0000000+00:00</time></trkpt><trkpt lat="63.8356781" lon="-21.70521355"><ele>7.1</ele><time>2012-07-28T12:55:06.0000000+00:00</time></trkpt><trkpt lat="63.8356781" lon="-21.70521355"><ele>7.1</ele><time>2012-07-28T12:55:11.0000000+00:00</time></trkpt><trkpt lat="63.8356781" lon="-21.70521164"><ele>7.1</ele><time>2012-07-28T12:55:16.0000000+00:00</time></trkpt><trkpt lat="63.8356781" lon="-21.70521164"><ele>7.1</ele><time>2012-07-28T12:55:21.0000000+00:00</time></trkpt><trkpt lat="63.8356781" lon="-21.70521164"><ele>7.1</ele><time>2012-07-28T12:55:26.0000000+00:00</time></trkpt><trkpt lat="63.8356781" lon="-21.70521164"><ele>7.1</ele><time>2012-07-28T12:55:31.0000000+00:00</time></trkpt><trkpt lat="63.8356781" lon="-21.70521164"><ele>7.1</ele><time>2012-07-28T12:55:36.0000000+00:00</time></trkpt><trkpt lat="63.8356781" lon="-21.70521164"><ele>7.1</ele><time>2012-07-28T12:55:41.0000000+00:00</time></trkpt><trkpt lat="63.8356781" lon="-21.70521164"><ele>7.1</ele><time>2012-07-28T12:55:46.0000000+00:00</time></trkpt><trkpt lat="63.8356781" lon="-21.70521164"><ele>7.1</ele><time>2012-07-28T12:55:51.0000000+00:00</time></trkpt><trkpt lat="63.8356781" lon="-21.70521164"><ele>7.1</ele><time>2012-07-28T12:55:56.0000000+00:00</time></trkpt><trkpt lat="63.8356781" lon="-21.70521164"><ele>7.1</ele><time>2012-07-28T12:56:01.0000000+00:00</time></trkpt><trkpt lat="63.8356781" lon="-21.70521164"><ele>7.0</ele><time>2012-07-28T12:56:06.0000000+00:00</time></trkpt><trkpt lat="63.8356781" lon="-21.70520973"><ele>7.0</ele><time>2012-07-28T12:56:11.0000000+00:00</time></trkpt><trkpt lat="63.83567429" lon="-21.70520973"><ele>7.0</ele><time>2012-07-28T12:56:16.0000000+00:00</time></trkpt><trkpt lat="63.83567429" lon="-21.70520973"><ele>7.0</ele><time>2012-07-28T12:56:21.0000000+00:00</time></trkpt><trkpt lat="63.83567429" lon="-21.70520973"><ele>7.0</ele><time>2012-07-28T12:56:26.0000000+00:00</time></trkpt><trkpt lat="63.83567429" lon="-21.70520973"><ele>7.0</ele><time>2012-07-28T12:56:31.0000000+00:00</time></trkpt><trkpt lat="63.83567429" lon="-21.70520973"><ele>7.0</ele><time>2012-07-28T12:56:36.0000000+00:00</time></trkpt><trkpt lat="63.83567429" lon="-21.70520973"><ele>7.0</ele><time>2012-07-28T12:56:41.0000000+00:00</time></trkpt><trkpt lat="63.83567429" lon="-21.70520973"><ele>7.0</ele><time>2012-07-28T12:56:46.0000000+00:00</time></trkpt><trkpt lat="63.83567429" lon="-21.70520783"><ele>7.0</ele><time>2012-07-28T12:56:51.0000000+00:00</time></trkpt><trkpt lat="63.83567429" lon="-21.70520783"><ele>7.0</ele><time>2012-07-28T12:56:56.0000000+00:00</time></trkpt><trkpt lat="63.83567429" lon="-21.70520783"><ele>7.0</ele><time>2012-07-28T12:57:01.0000000+00:00</time></trkpt><trkpt lat="63.83567429" lon="-21.70520783"><ele>7.0</ele><time>2012-07-28T12:57:06.0000000+00:00</time></trkpt><trkpt lat="63.83567429" lon="-21.70520783"><ele>6.9</ele><time>2012-07-28T12:57:11.0000000+00:00</time></trkpt><trkpt lat="63.83567429" lon="-21.70520783"><ele>6.9</ele><time>2012-07-28T12:57:16.0000000+00:00</time></trkpt><trkpt lat="63.83567429" lon="-21.70520783"><ele>6.9</ele><time>2012-07-28T12:57:21.0000000+00:00</time></trkpt><trkpt lat="63.83567429" lon="-21.70520592"><ele>6.9</ele><time>2012-07-28T12:57:26.0000000+00:00</time></trkpt><trkpt lat="63.83567429" lon="-21.70520592"><ele>6.9</ele><time>2012-07-28T12:57:31.0000000+00:00</time></trkpt><trkpt lat="63.83567429" lon="-21.70520592"><ele>6.9</ele><time>2012-07-28T12:57:36.0000000+00:00</time></trkpt><trkpt lat="63.83567429" lon="-21.70520592"><ele>6.9</ele><time>2012-07-28T12:57:41.0000000+00:00</time></trkpt><trkpt lat="63.83567429" lon="-21.70520592"><ele>6.9</ele><time>2012-07-28T12:57:46.0000000+00:00</time></trkpt><trkpt lat="63.83567429" lon="-21.70520401"><ele>6.9</ele><time>2012-07-28T12:57:51.0000000+00:00</time></trkpt><trkpt lat="63.83567429" lon="-21.70520401"><ele>6.9</ele><time>2012-07-28T12:57:56.0000000+00:00</time></trkpt><trkpt lat="63.83567429" lon="-21.70520401"><ele>6.9</ele><time>2012-07-28T12:58:01.0000000+00:00</time></trkpt><trkpt lat="63.83567429" lon="-21.70520401"><ele>6.9</ele><time>2012-07-28T12:58:06.0000000+00:00</time></trkpt><trkpt lat="63.83567429" lon="-21.70520401"><ele>6.9</ele><time>2012-07-28T12:58:11.0000000+00:00</time></trkpt><trkpt lat="63.83567429" lon="-21.70520401"><ele>6.9</ele><time>2012-07-28T12:58:16.0000000+00:00</time></trkpt><trkpt lat="63.83567429" lon="-21.70520401"><ele>6.9</ele><time>2012-07-28T12:58:21.0000000+00:00</time></trkpt><trkpt lat="63.83567429" lon="-21.70520401"><ele>6.9</ele><time>2012-07-28T12:58:26.0000000+00:00</time></trkpt><trkpt lat="63.83567429" lon="-21.70520401"><ele>6.9</ele><time>2012-07-28T12:58:31.0000000+00:00</time></trkpt><trkpt lat="63.83567429" lon="-21.70520401"><ele>6.9</ele><time>2012-07-28T12:58:36.0000000+00:00</time></trkpt><trkpt lat="63.83567429" lon="-21.7052021"><ele>6.9</ele><time>2012-07-28T12:58:41.0000000+00:00</time></trkpt><trkpt lat="63.83567429" lon="-21.7052021"><ele>6.9</ele><time>2012-07-28T12:58:46.0000000+00:00</time></trkpt><trkpt lat="63.83567429" lon="-21.7052021"><ele>6.9</ele><time>2012-07-28T12:58:51.0000000+00:00</time></trkpt><trkpt lat="63.83567429" lon="-21.7052021"><ele>6.9</ele><time>2012-07-28T12:58:56.0000000+00:00</time></trkpt><trkpt lat="63.83567429" lon="-21.7052021"><ele>6.9</ele><time>2012-07-28T12:59:01.0000000+00:00</time></trkpt><trkpt lat="63.83567429" lon="-21.7052002"><ele>6.8</ele><time>2012-07-28T12:59:06.0000000+00:00</time></trkpt><trkpt lat="63.83567429" lon="-21.7052002"><ele>6.8</ele><time>2012-07-28T12:59:11.0000000+00:00</time></trkpt><trkpt lat="63.83567429" lon="-21.7052002"><ele>6.8</ele><time>2012-07-28T12:59:16.0000000+00:00</time></trkpt><trkpt lat="63.83567429" lon="-21.7052002"><ele>6.8</ele><time>2012-07-28T12:59:21.0000000+00:00</time></trkpt><trkpt lat="63.83567429" lon="-21.7052002"><ele>6.8</ele><time>2012-07-28T12:59:26.0000000+00:00</time></trkpt><trkpt lat="63.83567429" lon="-21.7052002"><ele>6.8</ele><time>2012-07-28T12:59:31.0000000+00:00</time></trkpt><trkpt lat="63.83567429" lon="-21.7052002"><ele>6.8</ele><time>2012-07-28T12:59:36.0000000+00:00</time></trkpt><trkpt lat="63.83567429" lon="-21.7052002"><ele>6.8</ele><time>2012-07-28T12:59:41.0000000+00:00</time></trkpt><trkpt lat="63.83567429" lon="-21.7052002"><ele>6.8</ele><time>2012-07-28T12:59:46.0000000+00:00</time></trkpt><trkpt lat="63.83567047" lon="-21.70519829"><ele>6.8</ele><time>2012-07-28T12:59:51.0000000+00:00</time></trkpt><trkpt lat="63.83567047" lon="-21.70519829"><ele>6.8</ele><time>2012-07-28T12:59:56.0000000+00:00</time></trkpt><trkpt lat="63.83567047" lon="-21.70519829"><ele>6.8</ele><time>2012-07-28T13:00:01.0000000+00:00</time></trkpt><trkpt lat="63.83567047" lon="-21.70519829"><ele>6.8</ele><time>2012-07-28T13:00:06.0000000+00:00</time></trkpt><trkpt lat="63.83567047" lon="-21.70519829"><ele>6.8</ele><time>2012-07-28T13:00:11.0000000+00:00</time></trkpt><trkpt lat="63.83567047" lon="-21.70519829"><ele>6.8</ele><time>2012-07-28T13:00:16.0000000+00:00</time></trkpt><trkpt lat="63.83567047" lon="-21.7052002"><ele>6.8</ele><time>2012-07-28T13:00:21.0000000+00:00</time></trkpt><trkpt lat="63.83567047" lon="-21.7052002"><ele>6.8</ele><time>2012-07-28T13:00:26.0000000+00:00</time></trkpt><trkpt lat="63.83567047" lon="-21.70519829"><ele>6.8</ele><time>2012-07-28T13:00:31.0000000+00:00</time></trkpt><trkpt lat="63.83567047" lon="-21.70519829"><ele>6.8</ele><time>2012-07-28T13:00:36.0000000+00:00</time></trkpt><trkpt lat="63.83567047" lon="-21.70519829"><ele>6.8</ele><time>2012-07-28T13:00:41.0000000+00:00</time></trkpt><trkpt lat="63.83567047" lon="-21.70519829"><ele>6.8</ele><time>2012-07-28T13:00:46.0000000+00:00</time></trkpt><trkpt lat="63.83567047" lon="-21.70519829"><ele>6.8</ele><time>2012-07-28T13:00:51.0000000+00:00</time></trkpt><trkpt lat="63.83567047" lon="-21.70519829"><ele>6.8</ele><time>2012-07-28T13:00:56.0000000+00:00</time></trkpt><trkpt lat="63.83565903" lon="-21.7052269"><ele>6.7</ele><time>2012-07-28T13:01:01.0000000+00:00</time></trkpt><trkpt lat="63.83559036" lon="-21.70541382"><ele>7.6</ele><time>2012-07-28T13:01:06.0000000+00:00</time></trkpt><trkpt lat="63.83553696" lon="-21.70556259"><ele>8.0</ele><time>2012-07-28T13:01:11.0000000+00:00</time></trkpt><trkpt lat="63.83550263" lon="-21.70567131"><ele>7.2</ele><time>2012-07-28T13:01:16.0000000+00:00</time></trkpt><trkpt lat="63.83545303" lon="-21.70586586"><ele>6.0</ele><time>2012-07-28T13:01:21.0000000+00:00</time></trkpt><trkpt lat="63.83543015" lon="-21.70599556"><ele>6.6</ele><time>2012-07-28T13:01:26.0000000+00:00</time></trkpt><trkpt lat="63.83543396" lon="-21.70599937"><ele>6.6</ele><time>2012-07-28T13:01:31.0000000+00:00</time></trkpt><trkpt lat="63.83543778" lon="-21.70599937"><ele>6.6</ele><time>2012-07-28T13:01:36.0000000+00:00</time></trkpt><trkpt lat="63.83543778" lon="-21.70599937"><ele>6.7</ele><time>2012-07-28T13:01:41.0000000+00:00</time></trkpt><trkpt lat="63.83543778" lon="-21.70599937"><ele>6.7</ele><time>2012-07-28T13:01:46.0000000+00:00</time></trkpt><trkpt lat="63.83543778" lon="-21.70599937"><ele>6.7</ele><time>2012-07-28T13:01:51.0000000+00:00</time></trkpt><trkpt lat="63.83543778" lon="-21.70599937"><ele>6.7</ele><time>2012-07-28T13:01:56.0000000+00:00</time></trkpt><trkpt lat="63.83543778" lon="-21.70599937"><ele>6.7</ele><time>2012-07-28T13:02:01.0000000+00:00</time></trkpt><trkpt lat="63.83543778" lon="-21.70599937"><ele>6.7</ele><time>2012-07-28T13:02:06.0000000+00:00</time></trkpt><trkpt lat="63.83543778" lon="-21.70599937"><ele>6.7</ele><time>2012-07-28T13:02:11.0000000+00:00</time></trkpt><trkpt lat="63.83543778" lon="-21.70600128"><ele>6.7</ele><time>2012-07-28T13:02:16.0000000+00:00</time></trkpt><trkpt lat="63.83544159" lon="-21.70600128"><ele>6.7</ele><time>2012-07-28T13:02:21.0000000+00:00</time></trkpt><trkpt lat="63.83544159" lon="-21.70600128"><ele>6.7</ele><time>2012-07-28T13:02:26.0000000+00:00</time></trkpt><trkpt lat="63.83544159" lon="-21.70600128"><ele>6.8</ele><time>2012-07-28T13:02:31.0000000+00:00</time></trkpt><trkpt lat="63.83544159" lon="-21.70600128"><ele>6.8</ele><time>2012-07-28T13:02:36.0000000+00:00</time></trkpt><trkpt lat="63.83544159" lon="-21.70600128"><ele>6.8</ele><time>2012-07-28T13:02:41.0000000+00:00</time></trkpt><trkpt lat="63.83544159" lon="-21.70600128"><ele>6.8</ele><time>2012-07-28T13:02:46.0000000+00:00</time></trkpt><trkpt lat="63.83544159" lon="-21.70600128"><ele>6.8</ele><time>2012-07-28T13:02:51.0000000+00:00</time></trkpt><trkpt lat="63.83544159" lon="-21.70600128"><ele>6.8</ele><time>2012-07-28T13:02:56.0000000+00:00</time></trkpt><trkpt lat="63.83544159" lon="-21.70600128"><ele>6.8</ele><time>2012-07-28T13:03:01.0000000+00:00</time></trkpt><trkpt lat="63.83544159" lon="-21.70600319"><ele>6.8</ele><time>2012-07-28T13:03:06.0000000+00:00</time></trkpt><trkpt lat="63.83544159" lon="-21.70600319"><ele>6.8</ele><time>2012-07-28T13:03:11.0000000+00:00</time></trkpt><trkpt lat="63.83544159" lon="-21.70600319"><ele>6.9</ele><time>2012-07-28T13:03:16.0000000+00:00</time></trkpt><trkpt lat="63.83544159" lon="-21.70600319"><ele>6.9</ele><time>2012-07-28T13:03:21.0000000+00:00</time></trkpt><trkpt lat="63.83544159" lon="-21.70600319"><ele>6.9</ele><time>2012-07-28T13:03:26.0000000+00:00</time></trkpt><trkpt lat="63.83544159" lon="-21.70600319"><ele>6.9</ele><time>2012-07-28T13:03:31.0000000+00:00</time></trkpt><trkpt lat="63.83544159" lon="-21.70600319"><ele>6.9</ele><time>2012-07-28T13:03:36.0000000+00:00</time></trkpt><trkpt lat="63.83544159" lon="-21.70600319"><ele>6.9</ele><time>2012-07-28T13:03:41.0000000+00:00</time></trkpt><trkpt lat="63.83544159" lon="-21.70600319"><ele>6.9</ele><time>2012-07-28T13:03:46.0000000+00:00</time></trkpt><trkpt lat="63.83544159" lon="-21.7060051"><ele>6.9</ele><time>2012-07-28T13:03:51.0000000+00:00</time></trkpt><trkpt lat="63.83543778" lon="-21.706007"><ele>7.0</ele><time>2012-07-28T13:03:56.0000000+00:00</time></trkpt><trkpt lat="63.83544159" lon="-21.70598412"><ele>6.7</ele><time>2012-07-28T13:04:01.0000000+00:00</time></trkpt><trkpt lat="63.83546448" lon="-21.70589256"><ele>6.5</ele><time>2012-07-28T13:04:06.0000000+00:00</time></trkpt><trkpt lat="63.83553314" lon="-21.70571327"><ele>6.5</ele><time>2012-07-28T13:04:11.0000000+00:00</time></trkpt><trkpt lat="63.83556366" lon="-21.70546913"><ele>6.4</ele><time>2012-07-28T13:04:16.0000000+00:00</time></trkpt><trkpt lat="63.83553696" lon="-21.70514107"><ele>6.0</ele><time>2012-07-28T13:04:21.0000000+00:00</time></trkpt><trkpt lat="63.83546448" lon="-21.70480919"><ele>5.3</ele><time>2012-07-28T13:04:26.0000000+00:00</time></trkpt><trkpt lat="63.83538055" lon="-21.70453835"><ele>4.9</ele><time>2012-07-28T13:04:31.0000000+00:00</time></trkpt><trkpt lat="63.83530045" lon="-21.70425987"><ele>5.4</ele><time>2012-07-28T13:04:36.0000000+00:00</time></trkpt><trkpt lat="63.83520889" lon="-21.70399475"><ele>5.0</ele><time>2012-07-28T13:04:41.0000000+00:00</time></trkpt><trkpt lat="63.83511734" lon="-21.70370674"><ele>4.8</ele><time>2012-07-28T13:04:46.0000000+00:00</time></trkpt><trkpt lat="63.83502197" lon="-21.70342255"><ele>4.5</ele><time>2012-07-28T13:04:51.0000000+00:00</time></trkpt><trkpt lat="63.83491898" lon="-21.70312309"><ele>1.8</ele><time>2012-07-28T13:04:56.0000000+00:00</time></trkpt><trkpt lat="63.83482742" lon="-21.70281982"><ele>2.0</ele><time>2012-07-28T13:05:01.0000000+00:00</time></trkpt><trkpt lat="63.83473969" lon="-21.70252228"><ele>2.2</ele><time>2012-07-28T13:05:06.0000000+00:00</time></trkpt><trkpt lat="63.83464432" lon="-21.70221329"><ele>3.0</ele><time>2012-07-28T13:05:11.0000000+00:00</time></trkpt><trkpt lat="63.83454514" lon="-21.70190048"><ele>4.4</ele><time>2012-07-28T13:05:16.0000000+00:00</time></trkpt><trkpt lat="63.83442688" lon="-21.70157814"><ele>2.8</ele><time>2012-07-28T13:05:21.0000000+00:00</time></trkpt><trkpt lat="63.8343277" lon="-21.70124245"><ele>3.8</ele><time>2012-07-28T13:05:26.0000000+00:00</time></trkpt><trkpt lat="63.83422089" lon="-21.70089722"><ele>3.7</ele><time>2012-07-28T13:05:31.0000000+00:00</time></trkpt><trkpt lat="63.83411789" lon="-21.70052147"><ele>4.6</ele><time>2012-07-28T13:05:36.0000000+00:00</time></trkpt><trkpt lat="63.83403397" lon="-21.70012665"><ele>5.0</ele><time>2012-07-28T13:05:41.0000000+00:00</time></trkpt><trkpt lat="63.8339653" lon="-21.69975472"><ele>5.5</ele><time>2012-07-28T13:05:46.0000000+00:00</time></trkpt><trkpt lat="63.83390045" lon="-21.69945908"><ele>4.9</ele><time>2012-07-28T13:05:51.0000000+00:00</time></trkpt><trkpt lat="63.83385086" lon="-21.6991787"><ele>4.9</ele><time>2012-07-28T13:05:56.0000000+00:00</time></trkpt><trkpt lat="63.83379746" lon="-21.69888115"><ele>4.6</ele><time>2012-07-28T13:06:01.0000000+00:00</time></trkpt><trkpt lat="63.83373261" lon="-21.6985302"><ele>4.3</ele><time>2012-07-28T13:06:06.0000000+00:00</time></trkpt><trkpt lat="63.83367539" lon="-21.69816399"><ele>7.5</ele><time>2012-07-28T13:06:11.0000000+00:00</time></trkpt><trkpt lat="63.83359146" lon="-21.69776154"><ele>6.9</ele><time>2012-07-28T13:06:16.0000000+00:00</time></trkpt><trkpt lat="63.8335228" lon="-21.69737625"><ele>5.7</ele><time>2012-07-28T13:06:21.0000000+00:00</time></trkpt><trkpt lat="63.83345795" lon="-21.69697189"><ele>5.6</ele><time>2012-07-28T13:06:26.0000000+00:00</time></trkpt><trkpt lat="63.83338547" lon="-21.69656372"><ele>5.2</ele><time>2012-07-28T13:06:31.0000000+00:00</time></trkpt><trkpt lat="63.8333168" lon="-21.69612694"><ele>3.4</ele><time>2012-07-28T13:06:36.0000000+00:00</time></trkpt><trkpt lat="63.83326721" lon="-21.69571304"><ele>4.2</ele><time>2012-07-28T13:06:41.0000000+00:00</time></trkpt><trkpt lat="63.83319473" lon="-21.69531441"><ele>4.5</ele><time>2012-07-28T13:06:46.0000000+00:00</time></trkpt><trkpt lat="63.83312607" lon="-21.69496346"><ele>4.5</ele><time>2012-07-28T13:06:51.0000000+00:00</time></trkpt><trkpt lat="63.83308792" lon="-21.69469833"><ele>3.5</ele><time>2012-07-28T13:06:56.0000000+00:00</time></trkpt><trkpt lat="63.8330574" lon="-21.69446945"><ele>5.0</ele><time>2012-07-28T13:07:01.0000000+00:00</time></trkpt><trkpt lat="63.83303833" lon="-21.69426155"><ele>6.4</ele><time>2012-07-28T13:07:06.0000000+00:00</time></trkpt><trkpt lat="63.83301926" lon="-21.69408417"><ele>7.0</ele><time>2012-07-28T13:07:11.0000000+00:00</time></trkpt><trkpt lat="63.83298492" lon="-21.69377327"><ele>6.9</ele><time>2012-07-28T13:07:16.0000000+00:00</time></trkpt><trkpt lat="63.83293533" lon="-21.69341469"><ele>7.3</ele><time>2012-07-28T13:07:21.0000000+00:00</time></trkpt><trkpt lat="63.83288574" lon="-21.69307518"><ele>7.6</ele><time>2012-07-28T13:07:26.0000000+00:00</time></trkpt><trkpt lat="63.83283234" lon="-21.69272041"><ele>7.7</ele><time>2012-07-28T13:07:31.0000000+00:00</time></trkpt><trkpt lat="63.8327713" lon="-21.69234085"><ele>5.6</ele><time>2012-07-28T13:07:36.0000000+00:00</time></trkpt><trkpt lat="63.8327179" lon="-21.69197083"><ele>7.9</ele><time>2012-07-28T13:07:41.0000000+00:00</time></trkpt><trkpt lat="63.83266068" lon="-21.69161415"><ele>7.2</ele><time>2012-07-28T13:07:46.0000000+00:00</time></trkpt><trkpt lat="63.83259964" lon="-21.69118881"><ele>7.4</ele><time>2012-07-28T13:07:51.0000000+00:00</time></trkpt><trkpt lat="63.83253098" lon="-21.69074822"><ele>7.2</ele><time>2012-07-28T13:07:56.0000000+00:00</time></trkpt><trkpt lat="63.83246613" lon="-21.69031334"><ele>8.4</ele><time>2012-07-28T13:08:01.0000000+00:00</time></trkpt><trkpt lat="63.83240128" lon="-21.68987274"><ele>7.2</ele><time>2012-07-28T13:08:06.0000000+00:00</time></trkpt><trkpt lat="63.83232498" lon="-21.68941879"><ele>8.8</ele><time>2012-07-28T13:08:11.0000000+00:00</time></trkpt><trkpt lat="63.83227921" lon="-21.68908119"><ele>7.9</ele><time>2012-07-28T13:08:16.0000000+00:00</time></trkpt><trkpt lat="63.83222961" lon="-21.6887455"><ele>6.7</ele><time>2012-07-28T13:08:21.0000000+00:00</time></trkpt><trkpt lat="63.8321991" lon="-21.68847466"><ele>6.8</ele><time>2012-07-28T13:08:26.0000000+00:00</time></trkpt><trkpt lat="63.83215714" lon="-21.68824959"><ele>7.6</ele><time>2012-07-28T13:08:31.0000000+00:00</time></trkpt><trkpt lat="63.83213043" lon="-21.68800736"><ele>8.8</ele><time>2012-07-28T13:08:36.0000000+00:00</time></trkpt><trkpt lat="63.83210754" lon="-21.68773651"><ele>9.6</ele><time>2012-07-28T13:08:41.0000000+00:00</time></trkpt><trkpt lat="63.83208466" lon="-21.68744659"><ele>8.1</ele><time>2012-07-28T13:08:46.0000000+00:00</time></trkpt><trkpt lat="63.83201981" lon="-21.68708801"><ele>7.0</ele><time>2012-07-28T13:08:51.0000000+00:00</time></trkpt><trkpt lat="63.83196259" lon="-21.6867466"><ele>6.3</ele><time>2012-07-28T13:08:56.0000000+00:00</time></trkpt><trkpt lat="63.83191299" lon="-21.68643951"><ele>4.9</ele><time>2012-07-28T13:09:01.0000000+00:00</time></trkpt><trkpt lat="63.83186722" lon="-21.68609238"><ele>4.9</ele><time>2012-07-28T13:09:06.0000000+00:00</time></trkpt><trkpt lat="63.83181" lon="-21.68567658"><ele>5.9</ele><time>2012-07-28T13:09:11.0000000+00:00</time></trkpt><trkpt lat="63.83175659" lon="-21.68528748"><ele>7.9</ele><time>2012-07-28T13:09:16.0000000+00:00</time></trkpt><trkpt lat="63.8316803" lon="-21.68485832"><ele>8.2</ele><time>2012-07-28T13:09:21.0000000+00:00</time></trkpt><trkpt lat="63.83162308" lon="-21.68446541"><ele>7.5</ele><time>2012-07-28T13:09:26.0000000+00:00</time></trkpt><trkpt lat="63.83155823" lon="-21.68402672"><ele>8.6</ele><time>2012-07-28T13:09:31.0000000+00:00</time></trkpt><trkpt lat="63.83150482" lon="-21.68356895"><ele>8.3</ele><time>2012-07-28T13:09:36.0000000+00:00</time></trkpt><trkpt lat="63.83141708" lon="-21.6830864"><ele>7.2</ele><time>2012-07-28T13:09:41.0000000+00:00</time></trkpt><trkpt lat="63.83135223" lon="-21.68259239"><ele>9.6</ele><time>2012-07-28T13:09:46.0000000+00:00</time></trkpt><trkpt lat="63.83128738" lon="-21.68216133"><ele>11.6</ele><time>2012-07-28T13:09:51.0000000+00:00</time></trkpt><trkpt lat="63.83122635" lon="-21.68176079"><ele>11.7</ele><time>2012-07-28T13:09:56.0000000+00:00</time></trkpt><trkpt lat="63.83116913" lon="-21.68139839"><ele>11.3</ele><time>2012-07-28T13:10:01.0000000+00:00</time></trkpt><trkpt lat="63.83111572" lon="-21.68108368"><ele>11.7</ele><time>2012-07-28T13:10:06.0000000+00:00</time></trkpt><trkpt lat="63.8310585" lon="-21.68071175"><ele>10.8</ele><time>2012-07-28T13:10:11.0000000+00:00</time></trkpt><trkpt lat="63.8310051" lon="-21.68036079"><ele>10.4</ele><time>2012-07-28T13:10:16.0000000+00:00</time></trkpt><trkpt lat="63.83096695" lon="-21.68001938"><ele>8.7</ele><time>2012-07-28T13:10:21.0000000+00:00</time></trkpt><trkpt lat="63.83089829" lon="-21.67956734"><ele>8.5</ele><time>2012-07-28T13:10:26.0000000+00:00</time></trkpt><trkpt lat="63.83082581" lon="-21.67907715"><ele>7.5</ele><time>2012-07-28T13:10:31.0000000+00:00</time></trkpt><trkpt lat="63.83076096" lon="-21.67858315"><ele>8.7</ele><time>2012-07-28T13:10:36.0000000+00:00</time></trkpt><trkpt lat="63.83069229" lon="-21.67811203"><ele>8.1</ele><time>2012-07-28T13:10:41.0000000+00:00</time></trkpt><trkpt lat="63.83061981" lon="-21.67764282"><ele>7.6</ele><time>2012-07-28T13:10:46.0000000+00:00</time></trkpt><trkpt lat="63.83055115" lon="-21.67728615"><ele>7.9</ele><time>2012-07-28T13:10:51.0000000+00:00</time></trkpt><trkpt lat="63.83050156" lon="-21.67687798"><ele>8.1</ele><time>2012-07-28T13:10:56.0000000+00:00</time></trkpt><trkpt lat="63.83043671" lon="-21.67645454"><ele>8.4</ele><time>2012-07-28T13:11:01.0000000+00:00</time></trkpt><trkpt lat="63.83050537" lon="-21.67610169"><ele>10.6</ele><time>2012-07-28T13:11:06.0000000+00:00</time></trkpt><trkpt lat="63.8306427" lon="-21.67593956"><ele>10.7</ele><time>2012-07-28T13:11:11.0000000+00:00</time></trkpt><trkpt lat="63.83073807" lon="-21.67586899"><ele>10.1</ele><time>2012-07-28T13:11:16.0000000+00:00</time></trkpt><trkpt lat="63.83084869" lon="-21.67575455"><ele>11.0</ele><time>2012-07-28T13:11:21.0000000+00:00</time></trkpt><trkpt lat="63.83096314" lon="-21.67563629"><ele>11.5</ele><time>2012-07-28T13:11:26.0000000+00:00</time></trkpt><trkpt lat="63.83108902" lon="-21.67554474"><ele>11.8</ele><time>2012-07-28T13:11:31.0000000+00:00</time></trkpt><trkpt lat="63.83123016" lon="-21.67541122"><ele>11.2</ele><time>2012-07-28T13:11:36.0000000+00:00</time></trkpt><trkpt lat="63.83137512" lon="-21.67525482"><ele>11.2</ele><time>2012-07-28T13:11:41.0000000+00:00</time></trkpt><trkpt lat="63.83150482" lon="-21.67512131"><ele>11.3</ele><time>2012-07-28T13:11:46.0000000+00:00</time></trkpt><trkpt lat="63.83161926" lon="-21.67502022"><ele>11.7</ele><time>2012-07-28T13:11:51.0000000+00:00</time></trkpt><trkpt lat="63.83175278" lon="-21.67492104"><ele>12.9</ele><time>2012-07-28T13:11:56.0000000+00:00</time></trkpt><trkpt lat="63.83186722" lon="-21.6748085"><ele>12.1</ele><time>2012-07-28T13:12:01.0000000+00:00</time></trkpt><trkpt lat="63.83199692" lon="-21.67468453"><ele>11.2</ele><time>2012-07-28T13:12:06.0000000+00:00</time></trkpt><trkpt lat="63.83211899" lon="-21.6746006"><ele>11.1</ele><time>2012-07-28T13:12:11.0000000+00:00</time></trkpt><trkpt lat="63.83226013" lon="-21.67453194"><ele>13.5</ele><time>2012-07-28T13:12:16.0000000+00:00</time></trkpt><trkpt lat="63.83234024" lon="-21.67444229"><ele>14.4</ele><time>2012-07-28T13:12:21.0000000+00:00</time></trkpt><trkpt lat="63.83242035" lon="-21.67439079"><ele>15.0</ele><time>2012-07-28T13:12:26.0000000+00:00</time></trkpt><trkpt lat="63.83250809" lon="-21.67434883"><ele>14.7</ele><time>2012-07-28T13:12:31.0000000+00:00</time></trkpt><trkpt lat="63.83261108" lon="-21.67429352"><ele>15.9</ele><time>2012-07-28T13:12:36.0000000+00:00</time></trkpt><trkpt lat="63.83273315" lon="-21.67420006"><ele>15.0</ele><time>2012-07-28T13:12:41.0000000+00:00</time></trkpt><trkpt lat="63.83286667" lon="-21.67407608"><ele>15.0</ele><time>2012-07-28T13:12:46.0000000+00:00</time></trkpt><trkpt lat="63.83300018" lon="-21.67398453"><ele>15.2</ele><time>2012-07-28T13:12:51.0000000+00:00</time></trkpt><trkpt lat="63.8331337" lon="-21.67389488"><ele>15.4</ele><time>2012-07-28T13:12:56.0000000+00:00</time></trkpt><trkpt lat="63.83327484" lon="-21.67379189"><ele>15.3</ele><time>2012-07-28T13:13:01.0000000+00:00</time></trkpt><trkpt lat="63.83340836" lon="-21.67368698"><ele>16.0</ele><time>2012-07-28T13:13:06.0000000+00:00</time></trkpt><trkpt lat="63.83353043" lon="-21.67357063"><ele>16.9</ele><time>2012-07-28T13:13:11.0000000+00:00</time></trkpt><trkpt lat="63.83363342" lon="-21.67350006"><ele>16.7</ele><time>2012-07-28T13:13:16.0000000+00:00</time></trkpt><trkpt lat="63.83375549" lon="-21.67341423"><ele>16.8</ele><time>2012-07-28T13:13:21.0000000+00:00</time></trkpt><trkpt lat="63.83385086" lon="-21.67333603"><ele>17.1</ele><time>2012-07-28T13:13:26.0000000+00:00</time></trkpt><trkpt lat="63.83394241" lon="-21.67325401"><ele>17.1</ele><time>2012-07-28T13:13:31.0000000+00:00</time></trkpt><trkpt lat="63.83403015" lon="-21.67317772"><ele>16.9</ele><time>2012-07-28T13:13:36.0000000+00:00</time></trkpt><trkpt lat="63.83411789" lon="-21.67311478"><ele>17.0</ele><time>2012-07-28T13:13:41.0000000+00:00</time></trkpt><trkpt lat="63.83421707" lon="-21.67301369"><ele>17.5</ele><time>2012-07-28T13:13:46.0000000+00:00</time></trkpt><trkpt lat="63.83430481" lon="-21.67294312"><ele>17.6</ele><time>2012-07-28T13:13:51.0000000+00:00</time></trkpt><trkpt lat="63.83438873" lon="-21.67285729"><ele>17.0</ele><time>2012-07-28T13:13:56.0000000+00:00</time></trkpt><trkpt lat="63.83447266" lon="-21.67279244"><ele>16.7</ele><time>2012-07-28T13:14:01.0000000+00:00</time></trkpt><trkpt lat="63.83456802" lon="-21.67272186"><ele>17.6</ele><time>2012-07-28T13:14:06.0000000+00:00</time></trkpt><trkpt lat="63.83469009" lon="-21.67264366"><ele>18.5</ele><time>2012-07-28T13:14:11.0000000+00:00</time></trkpt><trkpt lat="63.83480835" lon="-21.67257309"><ele>17.4</ele><time>2012-07-28T13:14:16.0000000+00:00</time></trkpt><trkpt lat="63.83492279" lon="-21.67248344"><ele>18.0</ele><time>2012-07-28T13:14:21.0000000+00:00</time></trkpt><trkpt lat="63.83504868" lon="-21.67238617"><ele>19.2</ele><time>2012-07-28T13:14:26.0000000+00:00</time></trkpt><trkpt lat="63.83517838" lon="-21.67222977"><ele>19.8</ele><time>2012-07-28T13:14:31.0000000+00:00</time></trkpt><trkpt lat="63.83531189" lon="-21.67209244"><ele>19.1</ele><time>2012-07-28T13:14:36.0000000+00:00</time></trkpt><trkpt lat="63.83543778" lon="-21.67198181"><ele>18.6</ele><time>2012-07-28T13:14:41.0000000+00:00</time></trkpt><trkpt lat="63.83555603" lon="-21.67183876"><ele>18.7</ele><time>2012-07-28T13:14:46.0000000+00:00</time></trkpt><trkpt lat="63.83560944" lon="-21.67176628"><ele>18.6</ele><time>2012-07-28T13:14:51.0000000+00:00</time></trkpt><trkpt lat="63.8356514" lon="-21.67175865"><ele>18.3</ele><time>2012-07-28T13:14:56.0000000+00:00</time></trkpt><trkpt lat="63.83569717" lon="-21.67170715"><ele>17.4</ele><time>2012-07-28T13:15:01.0000000+00:00</time></trkpt><trkpt lat="63.83574295" lon="-21.67160606"><ele>16.2</ele><time>2012-07-28T13:15:06.0000000+00:00</time></trkpt><trkpt lat="63.83579254" lon="-21.67157745"><ele>15.7</ele><time>2012-07-28T13:15:11.0000000+00:00</time></trkpt><trkpt lat="63.83585358" lon="-21.6715107"><ele>16.6</ele><time>2012-07-28T13:15:16.0000000+00:00</time></trkpt><trkpt lat="63.83584976" lon="-21.67131043"><ele>16.4</ele><time>2012-07-28T13:15:21.0000000+00:00</time></trkpt><trkpt lat="63.83582687" lon="-21.671175"><ele>17.4</ele><time>2012-07-28T13:15:26.0000000+00:00</time></trkpt><trkpt lat="63.8358345" lon="-21.67116737"><ele>18.2</ele><time>2012-07-28T13:15:31.0000000+00:00</time></trkpt><trkpt lat="63.83581162" lon="-21.67107964"><ele>18.2</ele><time>2012-07-28T13:15:36.0000000+00:00</time></trkpt><trkpt lat="63.83576584" lon="-21.67093658"><ele>18.0</ele><time>2012-07-28T13:15:41.0000000+00:00</time></trkpt><trkpt lat="63.83574677" lon="-21.6708374"><ele>18.2</ele><time>2012-07-28T13:15:46.0000000+00:00</time></trkpt><trkpt lat="63.83573532" lon="-21.6707325"><ele>19.4</ele><time>2012-07-28T13:15:51.0000000+00:00</time></trkpt><trkpt lat="63.83576202" lon="-21.67067719"><ele>19.0</ele><time>2012-07-28T13:15:56.0000000+00:00</time></trkpt><trkpt lat="63.83579254" lon="-21.67065048"><ele>19.1</ele><time>2012-07-28T13:16:01.0000000+00:00</time></trkpt><trkpt lat="63.83581162" lon="-21.67061997"><ele>18.8</ele><time>2012-07-28T13:16:06.0000000+00:00</time></trkpt><trkpt lat="63.83581162" lon="-21.67057037"><ele>18.8</ele><time>2012-07-28T13:16:11.0000000+00:00</time></trkpt><trkpt lat="63.83586884" lon="-21.67053986"><ele>18.5</ele><time>2012-07-28T13:16:16.0000000+00:00</time></trkpt><trkpt lat="63.83599854" lon="-21.67051697"><ele>18.0</ele><time>2012-07-28T13:16:21.0000000+00:00</time></trkpt><trkpt lat="63.83605957" lon="-21.67045403"><ele>18.5</ele><time>2012-07-28T13:16:26.0000000+00:00</time></trkpt><trkpt lat="63.83605576" lon="-21.67048645"><ele>18.8</ele><time>2012-07-28T13:16:31.0000000+00:00</time></trkpt><trkpt lat="63.83605576" lon="-21.67048645"><ele>18.8</ele><time>2012-07-28T13:16:36.0000000+00:00</time></trkpt><trkpt lat="63.83605957" lon="-21.67047882"><ele>18.6</ele><time>2012-07-28T13:16:41.0000000+00:00</time></trkpt><trkpt lat="63.83608627" lon="-21.6704483"><ele>18.9</ele><time>2012-07-28T13:16:46.0000000+00:00</time></trkpt><trkpt lat="63.83610153" lon="-21.67044067"><ele>19.1</ele><time>2012-07-28T13:16:51.0000000+00:00</time></trkpt><trkpt lat="63.8360939" lon="-21.67042923"><ele>19.0</ele><time>2012-07-28T13:16:56.0000000+00:00</time></trkpt><trkpt lat="63.8360939" lon="-21.67042923"><ele>19.0</ele><time>2012-07-28T13:17:01.0000000+00:00</time></trkpt><trkpt lat="63.83611298" lon="-21.67042542"><ele>19.2</ele><time>2012-07-28T13:17:06.0000000+00:00</time></trkpt><trkpt lat="63.83613968" lon="-21.67040825"><ele>18.8</ele><time>2012-07-28T13:17:11.0000000+00:00</time></trkpt><trkpt lat="63.83617783" lon="-21.6703949"><ele>18.4</ele><time>2012-07-28T13:17:16.0000000+00:00</time></trkpt><trkpt lat="63.83621216" lon="-21.67035294"><ele>18.6</ele><time>2012-07-28T13:17:21.0000000+00:00</time></trkpt><trkpt lat="63.83626556" lon="-21.67039108"><ele>18.5</ele><time>2012-07-28T13:17:26.0000000+00:00</time></trkpt><trkpt lat="63.83627319" lon="-21.6703701"><ele>16.4</ele><time>2012-07-28T13:17:31.0000000+00:00</time></trkpt><trkpt lat="63.83627319" lon="-21.6703701"><ele>16.2</ele><time>2012-07-28T13:17:36.0000000+00:00</time></trkpt><trkpt lat="63.83627319" lon="-21.6703701"><ele>16.2</ele><time>2012-07-28T13:17:41.0000000+00:00</time></trkpt><trkpt lat="63.83627319" lon="-21.6703701"><ele>16.2</ele><time>2012-07-28T13:17:46.0000000+00:00</time></trkpt><trkpt lat="63.83632278" lon="-21.67034912"><ele>16.5</ele><time>2012-07-28T13:17:51.0000000+00:00</time></trkpt><trkpt lat="63.83639908" lon="-21.6703682"><ele>16.6</ele><time>2012-07-28T13:17:56.0000000+00:00</time></trkpt><trkpt lat="63.83642197" lon="-21.67042732"><ele>17.0</ele><time>2012-07-28T13:18:01.0000000+00:00</time></trkpt><trkpt lat="63.83646393" lon="-21.67050552"><ele>17.8</ele><time>2012-07-28T13:18:06.0000000+00:00</time></trkpt><trkpt lat="63.83650589" lon="-21.67061615"><ele>17.7</ele><time>2012-07-28T13:18:11.0000000+00:00</time></trkpt><trkpt lat="63.83652115" lon="-21.67067909"><ele>18.3</ele><time>2012-07-28T13:18:16.0000000+00:00</time></trkpt><trkpt lat="63.83650589" lon="-21.67070389"><ele>16.7</ele><time>2012-07-28T13:18:21.0000000+00:00</time></trkpt><trkpt lat="63.83650971" lon="-21.67067719"><ele>16.8</ele><time>2012-07-28T13:18:26.0000000+00:00</time></trkpt><trkpt lat="63.83649063" lon="-21.67068672"><ele>17.0</ele><time>2012-07-28T13:18:31.0000000+00:00</time></trkpt><trkpt lat="63.83641815" lon="-21.67073822"><ele>15.5</ele><time>2012-07-28T13:18:36.0000000+00:00</time></trkpt><trkpt lat="63.83631897" lon="-21.67084885"><ele>15.0</ele><time>2012-07-28T13:18:41.0000000+00:00</time></trkpt><trkpt lat="63.83625031" lon="-21.67095947"><ele>13.6</ele><time>2012-07-28T13:18:46.0000000+00:00</time></trkpt><trkpt lat="63.83617401" lon="-21.67108917"><ele>13.2</ele><time>2012-07-28T13:18:51.0000000+00:00</time></trkpt><trkpt lat="63.83612442" lon="-21.67123795"><ele>12.2</ele><time>2012-07-28T13:18:56.0000000+00:00</time></trkpt><trkpt lat="63.83615494" lon="-21.67148018"><ele>14.1</ele><time>2012-07-28T13:19:01.0000000+00:00</time></trkpt><trkpt lat="63.83621216" lon="-21.67173576"><ele>15.9</ele><time>2012-07-28T13:19:06.0000000+00:00</time></trkpt><trkpt lat="63.83628845" lon="-21.67201233"><ele>17.1</ele><time>2012-07-28T13:19:11.0000000+00:00</time></trkpt><trkpt lat="63.83637238" lon="-21.67230034"><ele>18.2</ele><time>2012-07-28T13:19:16.0000000+00:00</time></trkpt><trkpt lat="63.83645248" lon="-21.67258072"><ele>18.6</ele><time>2012-07-28T13:19:21.0000000+00:00</time></trkpt><trkpt lat="63.83653641" lon="-21.67285156"><ele>18.7</ele><time>2012-07-28T13:19:26.0000000+00:00</time></trkpt><trkpt lat="63.83662033" lon="-21.6731205"><ele>18.9</ele><time>2012-07-28T13:19:31.0000000+00:00</time></trkpt><trkpt lat="63.83670425" lon="-21.67337227"><ele>19.6</ele><time>2012-07-28T13:19:36.0000000+00:00</time></trkpt><trkpt lat="63.83678818" lon="-21.67363167"><ele>19.7</ele><time>2012-07-28T13:19:41.0000000+00:00</time></trkpt><trkpt lat="63.83686829" lon="-21.67389679"><ele>19.8</ele><time>2012-07-28T13:19:46.0000000+00:00</time></trkpt><trkpt lat="63.83695602" lon="-21.67415619"><ele>20.2</ele><time>2012-07-28T13:19:51.0000000+00:00</time></trkpt><trkpt lat="63.83705521" lon="-21.67440224"><ele>19.7</ele><time>2012-07-28T13:19:56.0000000+00:00</time></trkpt><trkpt lat="63.83714294" lon="-21.67465782"><ele>19.3</ele><time>2012-07-28T13:20:01.0000000+00:00</time></trkpt><trkpt lat="63.83721924" lon="-21.67492294"><ele>19.1</ele><time>2012-07-28T13:20:06.0000000+00:00</time></trkpt><trkpt lat="63.83731461" lon="-21.67520523"><ele>19.7</ele><time>2012-07-28T13:20:11.0000000+00:00</time></trkpt><trkpt lat="63.83740616" lon="-21.67548561"><ele>19.2</ele><time>2012-07-28T13:20:16.0000000+00:00</time></trkpt><trkpt lat="63.83750534" lon="-21.67578316"><ele>19.6</ele><time>2012-07-28T13:20:21.0000000+00:00</time></trkpt><trkpt lat="63.83760452" lon="-21.67604828"><ele>19.3</ele><time>2012-07-28T13:20:26.0000000+00:00</time></trkpt><trkpt lat="63.83770371" lon="-21.67631912"><ele>19.1</ele><time>2012-07-28T13:20:31.0000000+00:00</time></trkpt><trkpt lat="63.83779907" lon="-21.67656326"><ele>18.2</ele><time>2012-07-28T13:20:36.0000000+00:00</time></trkpt><trkpt lat="63.83788681" lon="-21.67680931"><ele>18.1</ele><time>2012-07-28T13:20:41.0000000+00:00</time></trkpt><trkpt lat="63.83797836" lon="-21.67704582"><ele>18.3</ele><time>2012-07-28T13:20:46.0000000+00:00</time></trkpt><trkpt lat="63.83806992" lon="-21.67729187"><ele>18.1</ele><time>2012-07-28T13:20:51.0000000+00:00</time></trkpt><trkpt lat="63.83816147" lon="-21.67751885"><ele>18.2</ele><time>2012-07-28T13:20:56.0000000+00:00</time></trkpt><trkpt lat="63.83826065" lon="-21.67776108"><ele>18.4</ele><time>2012-07-28T13:21:01.0000000+00:00</time></trkpt><trkpt lat="63.83835983" lon="-21.67799568"><ele>18.7</ele><time>2012-07-28T13:21:06.0000000+00:00</time></trkpt><trkpt lat="63.83843231" lon="-21.67819595"><ele>18.2</ele><time>2012-07-28T13:21:11.0000000+00:00</time></trkpt><trkpt lat="63.83851242" lon="-21.67840004"><ele>18.4</ele><time>2012-07-28T13:21:16.0000000+00:00</time></trkpt><trkpt lat="63.83860779" lon="-21.67864227"><ele>18.9</ele><time>2012-07-28T13:21:21.0000000+00:00</time></trkpt><trkpt lat="63.83869934" lon="-21.67889404"><ele>19.5</ele><time>2012-07-28T13:21:26.0000000+00:00</time></trkpt><trkpt lat="63.83879471" lon="-21.67913628"><ele>19.1</ele><time>2012-07-28T13:21:31.0000000+00:00</time></trkpt><trkpt lat="63.83889389" lon="-21.6793747"><ele>19.0</ele><time>2012-07-28T13:21:36.0000000+00:00</time></trkpt><trkpt lat="63.83898926" lon="-21.67961884"><ele>18.8</ele><time>2012-07-28T13:21:41.0000000+00:00</time></trkpt><trkpt lat="63.83909988" lon="-21.67985153"><ele>19.0</ele><time>2012-07-28T13:21:46.0000000+00:00</time></trkpt><trkpt lat="63.83919907" lon="-21.6801033"><ele>18.7</ele><time>2012-07-28T13:21:51.0000000+00:00</time></trkpt><trkpt lat="63.83930588" lon="-21.68032837"><ele>18.9</ele><time>2012-07-28T13:21:56.0000000+00:00</time></trkpt><trkpt lat="63.8394165" lon="-21.68057442"><ele>18.7</ele><time>2012-07-28T13:22:01.0000000+00:00</time></trkpt><trkpt lat="63.83951187" lon="-21.6807785"><ele>18.7</ele><time>2012-07-28T13:22:06.0000000+00:00</time></trkpt><trkpt lat="63.83960342" lon="-21.68099213"><ele>18.6</ele><time>2012-07-28T13:22:11.0000000+00:00</time></trkpt><trkpt lat="63.83970261" lon="-21.6811924"><ele>18.5</ele><time>2012-07-28T13:22:16.0000000+00:00</time></trkpt><trkpt lat="63.83978653" lon="-21.68139267"><ele>18.6</ele><time>2012-07-28T13:22:21.0000000+00:00</time></trkpt><trkpt lat="63.83987808" lon="-21.68159103"><ele>18.0</ele><time>2012-07-28T13:22:26.0000000+00:00</time></trkpt><trkpt lat="63.83996964" lon="-21.68180847"><ele>18.0</ele><time>2012-07-28T13:22:31.0000000+00:00</time></trkpt><trkpt lat="63.84007263" lon="-21.68202591"><ele>17.7</ele><time>2012-07-28T13:22:36.0000000+00:00</time></trkpt><trkpt lat="63.840168" lon="-21.68223953"><ele>17.6</ele><time>2012-07-28T13:22:41.0000000+00:00</time></trkpt><trkpt lat="63.840271" lon="-21.68247795"><ele>17.9</ele><time>2012-07-28T13:22:46.0000000+00:00</time></trkpt><trkpt lat="63.84037018" lon="-21.68268013"><ele>18.1</ele><time>2012-07-28T13:22:51.0000000+00:00</time></trkpt><trkpt lat="63.84047318" lon="-21.68288612"><ele>18.3</ele><time>2012-07-28T13:22:56.0000000+00:00</time></trkpt><trkpt lat="63.84056091" lon="-21.68311501"><ele>18.3</ele><time>2012-07-28T13:23:01.0000000+00:00</time></trkpt><trkpt lat="63.84065247" lon="-21.68333626"><ele>18.5</ele><time>2012-07-28T13:23:06.0000000+00:00</time></trkpt><trkpt lat="63.84074783" lon="-21.68355942"><ele>18.6</ele><time>2012-07-28T13:23:11.0000000+00:00</time></trkpt><trkpt lat="63.84085083" lon="-21.68379593"><ele>18.9</ele><time>2012-07-28T13:23:16.0000000+00:00</time></trkpt><trkpt lat="63.84096527" lon="-21.68405151"><ele>19.5</ele><time>2012-07-28T13:23:21.0000000+00:00</time></trkpt><trkpt lat="63.84108353" lon="-21.68431854"><ele>19.3</ele><time>2012-07-28T13:23:26.0000000+00:00</time></trkpt><trkpt lat="63.8412056" lon="-21.68455887"><ele>19.6</ele><time>2012-07-28T13:23:31.0000000+00:00</time></trkpt><trkpt lat="63.84132767" lon="-21.6848259"><ele>19.4</ele><time>2012-07-28T13:23:36.0000000+00:00</time></trkpt><trkpt lat="63.84144592" lon="-21.68511391"><ele>20.0</ele><time>2012-07-28T13:23:41.0000000+00:00</time></trkpt><trkpt lat="63.84155273" lon="-21.68534851"><ele>19.8</ele><time>2012-07-28T13:23:46.0000000+00:00</time></trkpt><trkpt lat="63.84166336" lon="-21.68559265"><ele>19.1</ele><time>2012-07-28T13:23:51.0000000+00:00</time></trkpt><trkpt lat="63.84175873" lon="-21.68585587"><ele>19.6</ele><time>2012-07-28T13:23:56.0000000+00:00</time></trkpt><trkpt lat="63.84186935" lon="-21.68610001"><ele>19.1</ele><time>2012-07-28T13:24:01.0000000+00:00</time></trkpt><trkpt lat="63.84196854" lon="-21.68634987"><ele>18.1</ele><time>2012-07-28T13:24:06.0000000+00:00</time></trkpt><trkpt lat="63.84208298" lon="-21.68660736"><ele>17.8</ele><time>2012-07-28T13:24:11.0000000+00:00</time></trkpt><trkpt lat="63.84218216" lon="-21.68684959"><ele>17.2</ele><time>2012-07-28T13:24:16.0000000+00:00</time></trkpt><trkpt lat="63.84229279" lon="-21.68706322"><ele>17.2</ele><time>2012-07-28T13:24:21.0000000+00:00</time></trkpt><trkpt lat="63.84238434" lon="-21.68729973"><ele>16.7</ele><time>2012-07-28T13:24:26.0000000+00:00</time></trkpt><trkpt lat="63.84247971" lon="-21.6875248"><ele>16.7</ele><time>2012-07-28T13:24:31.0000000+00:00</time></trkpt><trkpt lat="63.8425827" lon="-21.68775559"><ele>16.0</ele><time>2012-07-28T13:24:36.0000000+00:00</time></trkpt><trkpt lat="63.84266281" lon="-21.68795776"><ele>15.3</ele><time>2012-07-28T13:24:41.0000000+00:00</time></trkpt><trkpt lat="63.84274292" lon="-21.68819428"><ele>15.1</ele><time>2012-07-28T13:24:46.0000000+00:00</time></trkpt><trkpt lat="63.84284592" lon="-21.68841553"><ele>15.5</ele><time>2012-07-28T13:24:51.0000000+00:00</time></trkpt><trkpt lat="63.8429451" lon="-21.68867111"><ele>15.4</ele><time>2012-07-28T13:24:56.0000000+00:00</time></trkpt><trkpt lat="63.8430481" lon="-21.68890953"><ele>14.2</ele><time>2012-07-28T13:25:01.0000000+00:00</time></trkpt><trkpt lat="63.84313583" lon="-21.68917465"><ele>13.8</ele><time>2012-07-28T13:25:06.0000000+00:00</time></trkpt><trkpt lat="63.8432312" lon="-21.68941879"><ele>13.2</ele><time>2012-07-28T13:25:11.0000000+00:00</time></trkpt><trkpt lat="63.84334183" lon="-21.68967819"><ele>13.2</ele><time>2012-07-28T13:25:16.0000000+00:00</time></trkpt><trkpt lat="63.84343338" lon="-21.68990326"><ele>13.6</ele><time>2012-07-28T13:25:21.0000000+00:00</time></trkpt><trkpt lat="63.84352112" lon="-21.69016075"><ele>13.4</ele><time>2012-07-28T13:25:26.0000000+00:00</time></trkpt><trkpt lat="63.8436203" lon="-21.69037056"><ele>14.2</ele><time>2012-07-28T13:25:31.0000000+00:00</time></trkpt><trkpt lat="63.84370804" lon="-21.69062042"><ele>13.5</ele><time>2012-07-28T13:25:36.0000000+00:00</time></trkpt><trkpt lat="63.84380341" lon="-21.69090271"><ele>13.3</ele><time>2012-07-28T13:25:41.0000000+00:00</time></trkpt><trkpt lat="63.84391403" lon="-21.69114304"><ele>14.7</ele><time>2012-07-28T13:25:46.0000000+00:00</time></trkpt><trkpt lat="63.84402084" lon="-21.69140434"><ele>15.6</ele><time>2012-07-28T13:25:51.0000000+00:00</time></trkpt><trkpt lat="63.84411621" lon="-21.69166374"><ele>14.7</ele><time>2012-07-28T13:25:56.0000000+00:00</time></trkpt><trkpt lat="63.84422302" lon="-21.69194412"><ele>15.1</ele><time>2012-07-28T13:26:01.0000000+00:00</time></trkpt><trkpt lat="63.84432983" lon="-21.69224739"><ele>16.4</ele><time>2012-07-28T13:26:06.0000000+00:00</time></trkpt><trkpt lat="63.84443283" lon="-21.69254303"><ele>15.1</ele><time>2012-07-28T13:26:11.0000000+00:00</time></trkpt><trkpt lat="63.8445282" lon="-21.69282341"><ele>13.8</ele><time>2012-07-28T13:26:16.0000000+00:00</time></trkpt><trkpt lat="63.84462738" lon="-21.69312096"><ele>13.4</ele><time>2012-07-28T13:26:21.0000000+00:00</time></trkpt><trkpt lat="63.84473419" lon="-21.6933918"><ele>12.9</ele><time>2012-07-28T13:26:26.0000000+00:00</time></trkpt><trkpt lat="63.84484863" lon="-21.69365501"><ele>12.0</ele><time>2012-07-28T13:26:31.0000000+00:00</time></trkpt><trkpt lat="63.84494019" lon="-21.69393539"><ele>11.8</ele><time>2012-07-28T13:26:36.0000000+00:00</time></trkpt><trkpt lat="63.84505844" lon="-21.69421196"><ele>10.6</ele><time>2012-07-28T13:26:41.0000000+00:00</time></trkpt><trkpt lat="63.84515762" lon="-21.69447899"><ele>11.5</ele><time>2012-07-28T13:26:46.0000000+00:00</time></trkpt><trkpt lat="63.84524918" lon="-21.69474411"><ele>11.5</ele><time>2012-07-28T13:26:51.0000000+00:00</time></trkpt><trkpt lat="63.84534836" lon="-21.69502068"><ele>10.2</ele><time>2012-07-28T13:26:56.0000000+00:00</time></trkpt><trkpt lat="63.84545136" lon="-21.69530678"><ele>9.8</ele><time>2012-07-28T13:27:01.0000000+00:00</time></trkpt><trkpt lat="63.84555054" lon="-21.69561005"><ele>10.4</ele><time>2012-07-28T13:27:06.0000000+00:00</time></trkpt><trkpt lat="63.84566879" lon="-21.69592667"><ele>10.8</ele><time>2012-07-28T13:27:11.0000000+00:00</time></trkpt><trkpt lat="63.84576416" lon="-21.6962204"><ele>8.3</ele><time>2012-07-28T13:27:16.0000000+00:00</time></trkpt><trkpt lat="63.84585571" lon="-21.69654083"><ele>6.0</ele><time>2012-07-28T13:27:21.0000000+00:00</time></trkpt><trkpt lat="63.84597397" lon="-21.69683838"><ele>4.1</ele><time>2012-07-28T13:27:26.0000000+00:00</time></trkpt><trkpt lat="63.84606552" lon="-21.69714928"><ele>3.0</ele><time>2012-07-28T13:27:31.0000000+00:00</time></trkpt><trkpt lat="63.84618759" lon="-21.69744873"><ele>3.8</ele><time>2012-07-28T13:27:36.0000000+00:00</time></trkpt><trkpt lat="63.84628296" lon="-21.69773102"><ele>2.6</ele><time>2012-07-28T13:27:41.0000000+00:00</time></trkpt><trkpt lat="63.84637833" lon="-21.69801903"><ele>1.6</ele><time>2012-07-28T13:27:46.0000000+00:00</time></trkpt><trkpt lat="63.84647751" lon="-21.69831657"><ele>1.8</ele><time>2012-07-28T13:27:51.0000000+00:00</time></trkpt><trkpt lat="63.84658432" lon="-21.69860458"><ele>4.1</ele><time>2012-07-28T13:27:56.0000000+00:00</time></trkpt><trkpt lat="63.84666443" lon="-21.69889832"><ele>5.2</ele><time>2012-07-28T13:28:01.0000000+00:00</time></trkpt><trkpt lat="63.84674454" lon="-21.69914818"><ele>4.7</ele><time>2012-07-28T13:28:06.0000000+00:00</time></trkpt><trkpt lat="63.84683228" lon="-21.6993866"><ele>3.6</ele><time>2012-07-28T13:28:11.0000000+00:00</time></trkpt><trkpt lat="63.8469162" lon="-21.69966698"><ele>3.7</ele><time>2012-07-28T13:28:16.0000000+00:00</time></trkpt><trkpt lat="63.84699249" lon="-21.6999321"><ele>4.0</ele><time>2012-07-28T13:28:21.0000000+00:00</time></trkpt><trkpt lat="63.84708023" lon="-21.70019531"><ele>3.1</ele><time>2012-07-28T13:28:26.0000000+00:00</time></trkpt><trkpt lat="63.84717941" lon="-21.70049095"><ele>4.2</ele><time>2012-07-28T13:28:31.0000000+00:00</time></trkpt><trkpt lat="63.84727097" lon="-21.70077324"><ele>3.2</ele><time>2012-07-28T13:28:36.0000000+00:00</time></trkpt><trkpt lat="63.84736633" lon="-21.70107079"><ele>3.1</ele><time>2012-07-28T13:28:41.0000000+00:00</time></trkpt><trkpt lat="63.8474617" lon="-21.70135117"><ele>2.2</ele><time>2012-07-28T13:28:46.0000000+00:00</time></trkpt><trkpt lat="63.84755325" lon="-21.70166588"><ele>3.2</ele><time>2012-07-28T13:28:51.0000000+00:00</time></trkpt><trkpt lat="63.84765244" lon="-21.70195389"><ele>2.6</ele><time>2012-07-28T13:28:56.0000000+00:00</time></trkpt><trkpt lat="63.84774399" lon="-21.70224381"><ele>2.5</ele><time>2012-07-28T13:29:01.0000000+00:00</time></trkpt><trkpt lat="63.84784317" lon="-21.70254326"><ele>3.0</ele><time>2012-07-28T13:29:06.0000000+00:00</time></trkpt><trkpt lat="63.84792709" lon="-21.70280838"><ele>3.3</ele><time>2012-07-28T13:29:11.0000000+00:00</time></trkpt><trkpt lat="63.84800339" lon="-21.70307732"><ele>3.4</ele><time>2012-07-28T13:29:16.0000000+00:00</time></trkpt><trkpt lat="63.8480835" lon="-21.70331383"><ele>2.8</ele><time>2012-07-28T13:29:21.0000000+00:00</time></trkpt><trkpt lat="63.84815979" lon="-21.7035656"><ele>3.0</ele><time>2012-07-28T13:29:26.0000000+00:00</time></trkpt><trkpt lat="63.8482399" lon="-21.70381737"><ele>3.3</ele><time>2012-07-28T13:29:31.0000000+00:00</time></trkpt><trkpt lat="63.84832382" lon="-21.70410347"><ele>3.1</ele><time>2012-07-28T13:29:36.0000000+00:00</time></trkpt><trkpt lat="63.84841538" lon="-21.70439529"><ele>3.2</ele><time>2012-07-28T13:29:41.0000000+00:00</time></trkpt><trkpt lat="63.84850693" lon="-21.7046814"><ele>3.2</ele><time>2012-07-28T13:29:46.0000000+00:00</time></trkpt><trkpt lat="63.84858322" lon="-21.70495033"><ele>4.1</ele><time>2012-07-28T13:29:51.0000000+00:00</time></trkpt><trkpt lat="63.84865952" lon="-21.70518494"><ele>3.8</ele><time>2012-07-28T13:29:56.0000000+00:00</time></trkpt><trkpt lat="63.84874725" lon="-21.70544434"><ele>3.6</ele><time>2012-07-28T13:30:01.0000000+00:00</time></trkpt><trkpt lat="63.84881592" lon="-21.70567703"><ele>4.3</ele><time>2012-07-28T13:30:06.0000000+00:00</time></trkpt><trkpt lat="63.8488884" lon="-21.70593262"><ele>4.1</ele><time>2012-07-28T13:30:11.0000000+00:00</time></trkpt><trkpt lat="63.84895706" lon="-21.70617294"><ele>4.4</ele><time>2012-07-28T13:30:16.0000000+00:00</time></trkpt><trkpt lat="63.84904099" lon="-21.70639992"><ele>4.1</ele><time>2012-07-28T13:30:21.0000000+00:00</time></trkpt><trkpt lat="63.84911346" lon="-21.70664406"><ele>4.3</ele><time>2012-07-28T13:30:26.0000000+00:00</time></trkpt><trkpt lat="63.84918213" lon="-21.70688057"><ele>4.5</ele><time>2012-07-28T13:30:31.0000000+00:00</time></trkpt><trkpt lat="63.84925842" lon="-21.70709992"><ele>4.7</ele><time>2012-07-28T13:30:36.0000000+00:00</time></trkpt><trkpt lat="63.84931564" lon="-21.70730019"><ele>4.6</ele><time>2012-07-28T13:30:41.0000000+00:00</time></trkpt><trkpt lat="63.84938431" lon="-21.70748901"><ele>5.5</ele><time>2012-07-28T13:30:46.0000000+00:00</time></trkpt><trkpt lat="63.84943771" lon="-21.70768166"><ele>5.8</ele><time>2012-07-28T13:30:51.0000000+00:00</time></trkpt><trkpt lat="63.84949493" lon="-21.70787621"><ele>5.5</ele><time>2012-07-28T13:30:56.0000000+00:00</time></trkpt><trkpt lat="63.84955216" lon="-21.70807266"><ele>6.1</ele><time>2012-07-28T13:31:01.0000000+00:00</time></trkpt><trkpt lat="63.84961319" lon="-21.7082386"><ele>6.1</ele><time>2012-07-28T13:31:06.0000000+00:00</time></trkpt><trkpt lat="63.84967423" lon="-21.70842171"><ele>6.4</ele><time>2012-07-28T13:31:11.0000000+00:00</time></trkpt><trkpt lat="63.84973145" lon="-21.70860481"><ele>6.8</ele><time>2012-07-28T13:31:16.0000000+00:00</time></trkpt><trkpt lat="63.84978104" lon="-21.70880508"><ele>6.4</ele><time>2012-07-28T13:31:21.0000000+00:00</time></trkpt><trkpt lat="63.84986496" lon="-21.70900917"><ele>6.5</ele><time>2012-07-28T13:31:26.0000000+00:00</time></trkpt><trkpt lat="63.849926" lon="-21.70923615"><ele>6.0</ele><time>2012-07-28T13:31:31.0000000+00:00</time></trkpt><trkpt lat="63.84999847" lon="-21.70947075"><ele>4.9</ele><time>2012-07-28T13:31:36.0000000+00:00</time></trkpt><trkpt lat="63.85007477" lon="-21.70971108"><ele>4.3</ele><time>2012-07-28T13:31:41.0000000+00:00</time></trkpt><trkpt lat="63.85015488" lon="-21.70994568"><ele>4.2</ele><time>2012-07-28T13:31:46.0000000+00:00</time></trkpt><trkpt lat="63.85024262" lon="-21.71016312"><ele>3.5</ele><time>2012-07-28T13:31:51.0000000+00:00</time></trkpt><trkpt lat="63.85032272" lon="-21.71039009"><ele>2.8</ele><time>2012-07-28T13:31:56.0000000+00:00</time></trkpt><trkpt lat="63.8503952" lon="-21.71061516"><ele>2.7</ele><time>2012-07-28T13:32:01.0000000+00:00</time></trkpt><trkpt lat="63.85047531" lon="-21.71083641"><ele>3.6</ele><time>2012-07-28T13:32:06.0000000+00:00</time></trkpt><trkpt lat="63.85055161" lon="-21.71106339"><ele>3.6</ele><time>2012-07-28T13:32:11.0000000+00:00</time></trkpt><trkpt lat="63.8506279" lon="-21.71127892"><ele>4.5</ele><time>2012-07-28T13:32:16.0000000+00:00</time></trkpt><trkpt lat="63.85070801" lon="-21.71151161"><ele>5.3</ele><time>2012-07-28T13:32:21.0000000+00:00</time></trkpt><trkpt lat="63.85078812" lon="-21.71173286"><ele>5.5</ele><time>2012-07-28T13:32:26.0000000+00:00</time></trkpt><trkpt lat="63.85087204" lon="-21.71197128"><ele>5.5</ele><time>2012-07-28T13:32:31.0000000+00:00</time></trkpt><trkpt lat="63.85096359" lon="-21.71219635"><ele>5.0</ele><time>2012-07-28T13:32:36.0000000+00:00</time></trkpt><trkpt lat="63.8510437" lon="-21.71242333"><ele>5.3</ele><time>2012-07-28T13:32:41.0000000+00:00</time></trkpt><trkpt lat="63.85112" lon="-21.71263695"><ele>5.0</ele><time>2012-07-28T13:32:46.0000000+00:00</time></trkpt><trkpt lat="63.85119629" lon="-21.71283722"><ele>4.7</ele><time>2012-07-28T13:32:51.0000000+00:00</time></trkpt><trkpt lat="63.85127258" lon="-21.71304512"><ele>4.7</ele><time>2012-07-28T13:32:56.0000000+00:00</time></trkpt><trkpt lat="63.85134888" lon="-21.71325874"><ele>5.1</ele><time>2012-07-28T13:33:01.0000000+00:00</time></trkpt><trkpt lat="63.85142899" lon="-21.71343803"><ele>5.3</ele><time>2012-07-28T13:33:06.0000000+00:00</time></trkpt><trkpt lat="63.85149765" lon="-21.71363831"><ele>5.9</ele><time>2012-07-28T13:33:11.0000000+00:00</time></trkpt><trkpt lat="63.85157776" lon="-21.71383286"><ele>5.8</ele><time>2012-07-28T13:33:16.0000000+00:00</time></trkpt><trkpt lat="63.85166168" lon="-21.71404266"><ele>5.8</ele><time>2012-07-28T13:33:21.0000000+00:00</time></trkpt><trkpt lat="63.85173416" lon="-21.71424675"><ele>5.5</ele><time>2012-07-28T13:33:26.0000000+00:00</time></trkpt><trkpt lat="63.8518219" lon="-21.71446419"><ele>5.4</ele><time>2012-07-28T13:33:31.0000000+00:00</time></trkpt><trkpt lat="63.85189819" lon="-21.71465302"><ele>5.0</ele><time>2012-07-28T13:33:36.0000000+00:00</time></trkpt><trkpt lat="63.85197067" lon="-21.71484757"><ele>5.6</ele><time>2012-07-28T13:33:41.0000000+00:00</time></trkpt><trkpt lat="63.85204697" lon="-21.71505928"><ele>6.1</ele><time>2012-07-28T13:33:46.0000000+00:00</time></trkpt><trkpt lat="63.85213471" lon="-21.71526337"><ele>5.9</ele><time>2012-07-28T13:33:51.0000000+00:00</time></trkpt><trkpt lat="63.85221863" lon="-21.71547699"><ele>5.9</ele><time>2012-07-28T13:33:56.0000000+00:00</time></trkpt><trkpt lat="63.852314" lon="-21.71570396"><ele>5.3</ele><time>2012-07-28T13:34:01.0000000+00:00</time></trkpt><trkpt lat="63.85240173" lon="-21.71593666"><ele>4.4</ele><time>2012-07-28T13:34:06.0000000+00:00</time></trkpt><trkpt lat="63.8524971" lon="-21.71613884"><ele>4.3</ele><time>2012-07-28T13:34:11.0000000+00:00</time></trkpt><trkpt lat="63.85259247" lon="-21.71635819"><ele>4.1</ele><time>2012-07-28T13:34:16.0000000+00:00</time></trkpt><trkpt lat="63.85268784" lon="-21.71659088"><ele>4.4</ele><time>2012-07-28T13:34:21.0000000+00:00</time></trkpt><trkpt lat="63.8527832" lon="-21.71682358"><ele>4.5</ele><time>2012-07-28T13:34:26.0000000+00:00</time></trkpt><trkpt lat="63.85287476" lon="-21.71706772"><ele>4.9</ele><time>2012-07-28T13:34:31.0000000+00:00</time></trkpt><trkpt lat="63.85297394" lon="-21.71730995"><ele>4.8</ele><time>2012-07-28T13:34:36.0000000+00:00</time></trkpt><trkpt lat="63.85307312" lon="-21.71754456"><ele>4.6</ele><time>2012-07-28T13:34:41.0000000+00:00</time></trkpt><trkpt lat="63.85317993" lon="-21.71777535"><ele>4.6</ele><time>2012-07-28T13:34:46.0000000+00:00</time></trkpt><trkpt lat="63.8532753" lon="-21.71798134"><ele>4.1</ele><time>2012-07-28T13:34:51.0000000+00:00</time></trkpt><trkpt lat="63.85337448" lon="-21.7182045"><ele>4.4</ele><time>2012-07-28T13:34:56.0000000+00:00</time></trkpt><trkpt lat="63.85347366" lon="-21.71841431"><ele>4.4</ele><time>2012-07-28T13:35:01.0000000+00:00</time></trkpt><trkpt lat="63.85357666" lon="-21.71862602"><ele>2.7</ele><time>2012-07-28T13:35:06.0000000+00:00</time></trkpt><trkpt lat="63.85366821" lon="-21.71885109"><ele>3.6</ele><time>2012-07-28T13:35:11.0000000+00:00</time></trkpt><trkpt lat="63.85375595" lon="-21.71905899"><ele>3.2</ele><time>2012-07-28T13:35:16.0000000+00:00</time></trkpt><trkpt lat="63.85385895" lon="-21.71925926"><ele>3.3</ele><time>2012-07-28T13:35:21.0000000+00:00</time></trkpt><trkpt lat="63.8539505" lon="-21.71947479"><ele>4.1</ele><time>2012-07-28T13:35:26.0000000+00:00</time></trkpt><trkpt lat="63.85404968" lon="-21.71969223"><ele>4.2</ele><time>2012-07-28T13:35:31.0000000+00:00</time></trkpt><trkpt lat="63.85415268" lon="-21.71990776"><ele>5.5</ele><time>2012-07-28T13:35:36.0000000+00:00</time></trkpt><trkpt lat="63.85424805" lon="-21.72008896"><ele>6.2</ele><time>2012-07-28T13:35:41.0000000+00:00</time></trkpt><trkpt lat="63.85433579" lon="-21.72026634"><ele>6.1</ele><time>2012-07-28T13:35:46.0000000+00:00</time></trkpt><trkpt lat="63.85441971" lon="-21.72042847"><ele>6.0</ele><time>2012-07-28T13:35:51.0000000+00:00</time></trkpt><trkpt lat="63.85444641" lon="-21.72049713"><ele>6.2</ele><time>2012-07-28T13:35:56.0000000+00:00</time></trkpt><trkpt lat="63.85448837" lon="-21.7205925"><ele>5.8</ele><time>2012-07-28T13:36:01.0000000+00:00</time></trkpt><trkpt lat="63.85454941" lon="-21.72072601"><ele>6.3</ele><time>2012-07-28T13:36:06.0000000+00:00</time></trkpt><trkpt lat="63.85462189" lon="-21.72084999"><ele>6.2</ele><time>2012-07-28T13:36:11.0000000+00:00</time></trkpt><trkpt lat="63.85470581" lon="-21.72104073"><ele>6.5</ele><time>2012-07-28T13:36:16.0000000+00:00</time></trkpt><trkpt lat="63.85480499" lon="-21.72123146"><ele>7.1</ele><time>2012-07-28T13:36:21.0000000+00:00</time></trkpt><trkpt lat="63.8549118" lon="-21.72144508"><ele>6.6</ele><time>2012-07-28T13:36:26.0000000+00:00</time></trkpt><trkpt lat="63.85501862" lon="-21.72166824"><ele>6.6</ele><time>2012-07-28T13:36:31.0000000+00:00</time></trkpt><trkpt lat="63.85512161" lon="-21.72185326"><ele>6.7</ele><time>2012-07-28T13:36:36.0000000+00:00</time></trkpt><trkpt lat="63.85520554" lon="-21.72201538"><ele>7.1</ele><time>2012-07-28T13:36:41.0000000+00:00</time></trkpt><trkpt lat="63.85530853" lon="-21.72221375"><ele>7.0</ele><time>2012-07-28T13:36:46.0000000+00:00</time></trkpt><trkpt lat="63.85538864" lon="-21.72237968"><ele>6.9</ele><time>2012-07-28T13:36:51.0000000+00:00</time></trkpt><trkpt lat="63.85549164" lon="-21.72256088"><ele>6.8</ele><time>2012-07-28T13:36:56.0000000+00:00</time></trkpt><trkpt lat="63.85559082" lon="-21.72275543"><ele>6.4</ele><time>2012-07-28T13:37:01.0000000+00:00</time></trkpt><trkpt lat="63.85569" lon="-21.72294998"><ele>7.4</ele><time>2012-07-28T13:37:06.0000000+00:00</time></trkpt><trkpt lat="63.85578156" lon="-21.7231369"><ele>7.5</ele><time>2012-07-28T13:37:11.0000000+00:00</time></trkpt><trkpt lat="63.85587311" lon="-21.72331238"><ele>7.2</ele><time>2012-07-28T13:37:16.0000000+00:00</time></trkpt><trkpt lat="63.85596085" lon="-21.72349358"><ele>7.2</ele><time>2012-07-28T13:37:21.0000000+00:00</time></trkpt><trkpt lat="63.85606003" lon="-21.7236805"><ele>7.2</ele><time>2012-07-28T13:37:26.0000000+00:00</time></trkpt><trkpt lat="63.85616303" lon="-21.72385407"><ele>7.0</ele><time>2012-07-28T13:37:31.0000000+00:00</time></trkpt><trkpt lat="63.85626984" lon="-21.72404099"><ele>7.4</ele><time>2012-07-28T13:37:36.0000000+00:00</time></trkpt><trkpt lat="63.85638046" lon="-21.72422791"><ele>7.4</ele><time>2012-07-28T13:37:41.0000000+00:00</time></trkpt><trkpt lat="63.85648346" lon="-21.72442627"><ele>7.3</ele><time>2012-07-28T13:37:46.0000000+00:00</time></trkpt><trkpt lat="63.85658264" lon="-21.7245903"><ele>7.8</ele><time>2012-07-28T13:37:51.0000000+00:00</time></trkpt><trkpt lat="63.85667038" lon="-21.72475243"><ele>8.1</ele><time>2012-07-28T13:37:56.0000000+00:00</time></trkpt><trkpt lat="63.85677719" lon="-21.72493362"><ele>7.6</ele><time>2012-07-28T13:38:01.0000000+00:00</time></trkpt><trkpt lat="63.85686493" lon="-21.72508431"><ele>7.2</ele><time>2012-07-28T13:38:06.0000000+00:00</time></trkpt><trkpt lat="63.8569603" lon="-21.72523499"><ele>6.5</ele><time>2012-07-28T13:38:11.0000000+00:00</time></trkpt><trkpt lat="63.85705566" lon="-21.7253952"><ele>6.4</ele><time>2012-07-28T13:38:16.0000000+00:00</time></trkpt><trkpt lat="63.85713959" lon="-21.72554207"><ele>6.4</ele><time>2012-07-28T13:38:21.0000000+00:00</time></trkpt><trkpt lat="63.85720444" lon="-21.72566223"><ele>6.0</ele><time>2012-07-28T13:38:26.0000000+00:00</time></trkpt><trkpt lat="63.85729218" lon="-21.72580147"><ele>5.8</ele><time>2012-07-28T13:38:31.0000000+00:00</time></trkpt><trkpt lat="63.85736466" lon="-21.7259388"><ele>5.3</ele><time>2012-07-28T13:38:36.0000000+00:00</time></trkpt><trkpt lat="63.85743713" lon="-21.72605324"><ele>5.4</ele><time>2012-07-28T13:38:41.0000000+00:00</time></trkpt><trkpt lat="63.85751724" lon="-21.7262001"><ele>5.6</ele><time>2012-07-28T13:38:46.0000000+00:00</time></trkpt><trkpt lat="63.85760117" lon="-21.72633171"><ele>5.5</ele><time>2012-07-28T13:38:51.0000000+00:00</time></trkpt><trkpt lat="63.8576889" lon="-21.72647095"><ele>5.7</ele><time>2012-07-28T13:38:56.0000000+00:00</time></trkpt><trkpt lat="63.85777664" lon="-21.72660828"><ele>5.3</ele><time>2012-07-28T13:39:01.0000000+00:00</time></trkpt><trkpt lat="63.85783386" lon="-21.72670937"><ele>5.2</ele><time>2012-07-28T13:39:06.0000000+00:00</time></trkpt><trkpt lat="63.85793686" lon="-21.72688675"><ele>4.9</ele><time>2012-07-28T13:39:11.0000000+00:00</time></trkpt><trkpt lat="63.85803604" lon="-21.7270546"><ele>4.3</ele><time>2012-07-28T13:39:16.0000000+00:00</time></trkpt><trkpt lat="63.85811615" lon="-21.72718239"><ele>3.9</ele><time>2012-07-28T13:39:21.0000000+00:00</time></trkpt><trkpt lat="63.85821915" lon="-21.72735024"><ele>4.8</ele><time>2012-07-28T13:39:26.0000000+00:00</time></trkpt><trkpt lat="63.85833359" lon="-21.72751427"><ele>4.5</ele><time>2012-07-28T13:39:31.0000000+00:00</time></trkpt><trkpt lat="63.85844803" lon="-21.72769356"><ele>4.4</ele><time>2012-07-28T13:39:36.0000000+00:00</time></trkpt><trkpt lat="63.85856247" lon="-21.72787666"><ele>4.4</ele><time>2012-07-28T13:39:41.0000000+00:00</time></trkpt><trkpt lat="63.85865021" lon="-21.72803116"><ele>4.3</ele><time>2012-07-28T13:39:46.0000000+00:00</time></trkpt><trkpt lat="63.85873413" lon="-21.72815704"><ele>3.4</ele><time>2012-07-28T13:39:51.0000000+00:00</time></trkpt><trkpt lat="63.85881805" lon="-21.72827148"><ele>3.3</ele><time>2012-07-28T13:39:56.0000000+00:00</time></trkpt><trkpt lat="63.85892105" lon="-21.72840691"><ele>3.3</ele><time>2012-07-28T13:40:01.0000000+00:00</time></trkpt><trkpt lat="63.8590126" lon="-21.7285347"><ele>1.9</ele><time>2012-07-28T13:40:06.0000000+00:00</time></trkpt><trkpt lat="63.85910797" lon="-21.72867775"><ele>1.5</ele><time>2012-07-28T13:40:11.0000000+00:00</time></trkpt><trkpt lat="63.85916901" lon="-21.7287674"><ele>2.6</ele><time>2012-07-28T13:40:16.0000000+00:00</time></trkpt><trkpt lat="63.85920715" lon="-21.72881317"><ele>2.7</ele><time>2012-07-28T13:40:21.0000000+00:00</time></trkpt><trkpt lat="63.85923767" lon="-21.72886086"><ele>2.6</ele><time>2012-07-28T13:40:26.0000000+00:00</time></trkpt><trkpt lat="63.85932922" lon="-21.729002"><ele>2.2</ele><time>2012-07-28T13:40:31.0000000+00:00</time></trkpt><trkpt lat="63.85942459" lon="-21.72916794"><ele>1.6</ele><time>2012-07-28T13:40:36.0000000+00:00</time></trkpt><trkpt lat="63.85952759" lon="-21.72932434"><ele>1.4</ele><time>2012-07-28T13:40:41.0000000+00:00</time></trkpt><trkpt lat="63.85960388" lon="-21.72946739"><ele>0.9</ele><time>2012-07-28T13:40:46.0000000+00:00</time></trkpt><trkpt lat="63.85969925" lon="-21.72959137"><ele>-0.3</ele><time>2012-07-28T13:40:51.0000000+00:00</time></trkpt><trkpt lat="63.85978317" lon="-21.72972298"><ele>0.1</ele><time>2012-07-28T13:40:56.0000000+00:00</time></trkpt><trkpt lat="63.85987854" lon="-21.72985458"><ele>0.3</ele><time>2012-07-28T13:41:01.0000000+00:00</time></trkpt><trkpt lat="63.85996246" lon="-21.72999954"><ele>1.2</ele><time>2012-07-28T13:41:06.0000000+00:00</time></trkpt><trkpt lat="63.86004639" lon="-21.73015213"><ele>0.1</ele><time>2012-07-28T13:41:11.0000000+00:00</time></trkpt><trkpt lat="63.86011505" lon="-21.73028565"><ele>0.2</ele><time>2012-07-28T13:41:16.0000000+00:00</time></trkpt><trkpt lat="63.86019135" lon="-21.73040962"><ele>1.1</ele><time>2012-07-28T13:41:21.0000000+00:00</time></trkpt><trkpt lat="63.86027145" lon="-21.73053551"><ele>0.8</ele><time>2012-07-28T13:41:26.0000000+00:00</time></trkpt><trkpt lat="63.86035538" lon="-21.73066902"><ele>1.2</ele><time>2012-07-28T13:41:31.0000000+00:00</time></trkpt><trkpt lat="63.8604393" lon="-21.73079109"><ele>2.0</ele><time>2012-07-28T13:41:36.0000000+00:00</time></trkpt><trkpt lat="63.86051559" lon="-21.73091507"><ele>1.7</ele><time>2012-07-28T13:41:41.0000000+00:00</time></trkpt><trkpt lat="63.86060715" lon="-21.73104858"><ele>2.7</ele><time>2012-07-28T13:41:46.0000000+00:00</time></trkpt><trkpt lat="63.86068726" lon="-21.73116493"><ele>2.9</ele><time>2012-07-28T13:41:51.0000000+00:00</time></trkpt><trkpt lat="63.86074448" lon="-21.73126793"><ele>3.0</ele><time>2012-07-28T13:41:56.0000000+00:00</time></trkpt><trkpt lat="63.86081314" lon="-21.73138619"><ele>2.4</ele><time>2012-07-28T13:42:01.0000000+00:00</time></trkpt><trkpt lat="63.86088944" lon="-21.73151207"><ele>1.7</ele><time>2012-07-28T13:42:06.0000000+00:00</time></trkpt><trkpt lat="63.86096954" lon="-21.73165512"><ele>2.3</ele><time>2012-07-28T13:42:11.0000000+00:00</time></trkpt><trkpt lat="63.86104584" lon="-21.73179817"><ele>2.4</ele><time>2012-07-28T13:42:16.0000000+00:00</time></trkpt><trkpt lat="63.8611145" lon="-21.73193741"><ele>3.7</ele><time>2012-07-28T13:42:21.0000000+00:00</time></trkpt><trkpt lat="63.8611908" lon="-21.7320652"><ele>3.6</ele><time>2012-07-28T13:42:26.0000000+00:00</time></trkpt><trkpt lat="63.86126709" lon="-21.73221016"><ele>4.2</ele><time>2012-07-28T13:42:31.0000000+00:00</time></trkpt><trkpt lat="63.86134338" lon="-21.73235893"><ele>3.9</ele><time>2012-07-28T13:42:36.0000000+00:00</time></trkpt><trkpt lat="63.86142349" lon="-21.73249435"><ele>3.3</ele><time>2012-07-28T13:42:41.0000000+00:00</time></trkpt><trkpt lat="63.86148453" lon="-21.73262405"><ele>3.6</ele><time>2012-07-28T13:42:46.0000000+00:00</time></trkpt><trkpt lat="63.86154938" lon="-21.73276901"><ele>3.8</ele><time>2012-07-28T13:42:51.0000000+00:00</time></trkpt><trkpt lat="63.86161804" lon="-21.73288155"><ele>3.1</ele><time>2012-07-28T13:42:56.0000000+00:00</time></trkpt><trkpt lat="63.86169815" lon="-21.73302841"><ele>3.5</ele><time>2012-07-28T13:43:01.0000000+00:00</time></trkpt><trkpt lat="63.86177063" lon="-21.73315048"><ele>3.0</ele><time>2012-07-28T13:43:06.0000000+00:00</time></trkpt><trkpt lat="63.86185074" lon="-21.73332214"><ele>3.0</ele><time>2012-07-28T13:43:11.0000000+00:00</time></trkpt><trkpt lat="63.86192703" lon="-21.73348808"><ele>2.7</ele><time>2012-07-28T13:43:16.0000000+00:00</time></trkpt><trkpt lat="63.86200714" lon="-21.73365021"><ele>3.1</ele><time>2012-07-28T13:43:21.0000000+00:00</time></trkpt><trkpt lat="63.86208344" lon="-21.73381424"><ele>3.2</ele><time>2012-07-28T13:43:26.0000000+00:00</time></trkpt><trkpt lat="63.86217117" lon="-21.73397255"><ele>2.9</ele><time>2012-07-28T13:43:31.0000000+00:00</time></trkpt><trkpt lat="63.86225128" lon="-21.73411942"><ele>2.2</ele><time>2012-07-28T13:43:36.0000000+00:00</time></trkpt><trkpt lat="63.86233139" lon="-21.73430824"><ele>2.4</ele><time>2012-07-28T13:43:41.0000000+00:00</time></trkpt><trkpt lat="63.86240768" lon="-21.73449898"><ele>3.1</ele><time>2012-07-28T13:43:46.0000000+00:00</time></trkpt><trkpt lat="63.86249161" lon="-21.73468018"><ele>3.5</ele><time>2012-07-28T13:43:51.0000000+00:00</time></trkpt><trkpt lat="63.86257172" lon="-21.73485756"><ele>3.3</ele><time>2012-07-28T13:43:56.0000000+00:00</time></trkpt><trkpt lat="63.86265945" lon="-21.7350502"><ele>4.0</ele><time>2012-07-28T13:44:01.0000000+00:00</time></trkpt><trkpt lat="63.86274719" lon="-21.73523903"><ele>4.2</ele><time>2012-07-28T13:44:06.0000000+00:00</time></trkpt><trkpt lat="63.86283493" lon="-21.73543167"><ele>4.3</ele><time>2012-07-28T13:44:11.0000000+00:00</time></trkpt><trkpt lat="63.86291885" lon="-21.73564529"><ele>4.2</ele><time>2012-07-28T13:44:16.0000000+00:00</time></trkpt><trkpt lat="63.86300659" lon="-21.73583603"><ele>3.9</ele><time>2012-07-28T13:44:21.0000000+00:00</time></trkpt><trkpt lat="63.8630867" lon="-21.73602104"><ele>4.0</ele><time>2012-07-28T13:44:26.0000000+00:00</time></trkpt><trkpt lat="63.86317444" lon="-21.7362175"><ele>4.0</ele><time>2012-07-28T13:44:31.0000000+00:00</time></trkpt><trkpt lat="63.86325073" lon="-21.73641777"><ele>3.9</ele><time>2012-07-28T13:44:36.0000000+00:00</time></trkpt><trkpt lat="63.86333847" lon="-21.73663902"><ele>4.1</ele><time>2012-07-28T13:44:41.0000000+00:00</time></trkpt><trkpt lat="63.86342239" lon="-21.73685837"><ele>4.9</ele><time>2012-07-28T13:44:46.0000000+00:00</time></trkpt><trkpt lat="63.86349869" lon="-21.73705101"><ele>4.9</ele><time>2012-07-28T13:44:51.0000000+00:00</time></trkpt><trkpt lat="63.86354828" lon="-21.73720169"><ele>6.2</ele><time>2012-07-28T13:44:56.0000000+00:00</time></trkpt><trkpt lat="63.86362076" lon="-21.73737335"><ele>5.5</ele><time>2012-07-28T13:45:01.0000000+00:00</time></trkpt><trkpt lat="63.86369324" lon="-21.73756981"><ele>6.0</ele><time>2012-07-28T13:45:06.0000000+00:00</time></trkpt><trkpt lat="63.86377335" lon="-21.73776817"><ele>5.9</ele><time>2012-07-28T13:45:11.0000000+00:00</time></trkpt><trkpt lat="63.86384583" lon="-21.73793793"><ele>4.8</ele><time>2012-07-28T13:45:16.0000000+00:00</time></trkpt><trkpt lat="63.8639183" lon="-21.73813629"><ele>4.3</ele><time>2012-07-28T13:45:21.0000000+00:00</time></trkpt><trkpt lat="63.86399078" lon="-21.73836327"><ele>4.5</ele><time>2012-07-28T13:45:26.0000000+00:00</time></trkpt><trkpt lat="63.86406326" lon="-21.73857117"><ele>4.9</ele><time>2012-07-28T13:45:31.0000000+00:00</time></trkpt><trkpt lat="63.86413574" lon="-21.73877907"><ele>4.5</ele><time>2012-07-28T13:45:36.0000000+00:00</time></trkpt><trkpt lat="63.86421585" lon="-21.73900604"><ele>4.8</ele><time>2012-07-28T13:45:41.0000000+00:00</time></trkpt><trkpt lat="63.8642807" lon="-21.73921204"><ele>4.6</ele><time>2012-07-28T13:45:46.0000000+00:00</time></trkpt><trkpt lat="63.864357" lon="-21.7394619"><ele>4.9</ele><time>2012-07-28T13:45:51.0000000+00:00</time></trkpt><trkpt lat="63.86442947" lon="-21.73966789"><ele>5.0</ele><time>2012-07-28T13:45:56.0000000+00:00</time></trkpt><trkpt lat="63.86449432" lon="-21.73989487"><ele>4.9</ele><time>2012-07-28T13:46:01.0000000+00:00</time></trkpt><trkpt lat="63.86455917" lon="-21.74011803"><ele>5.5</ele><time>2012-07-28T13:46:06.0000000+00:00</time></trkpt><trkpt lat="63.86461258" lon="-21.74031067"><ele>6.2</ele><time>2012-07-28T13:46:11.0000000+00:00</time></trkpt><trkpt lat="63.86467362" lon="-21.74045563"><ele>6.3</ele><time>2012-07-28T13:46:16.0000000+00:00</time></trkpt><trkpt lat="63.86473084" lon="-21.74064827"><ele>6.5</ele><time>2012-07-28T13:46:21.0000000+00:00</time></trkpt><trkpt lat="63.86478806" lon="-21.74083138"><ele>6.9</ele><time>2012-07-28T13:46:26.0000000+00:00</time></trkpt><trkpt lat="63.86485291" lon="-21.74101448"><ele>7.1</ele><time>2012-07-28T13:46:31.0000000+00:00</time></trkpt><trkpt lat="63.86491394" lon="-21.7412262"><ele>7.3</ele><time>2012-07-28T13:46:36.0000000+00:00</time></trkpt><trkpt lat="63.86497116" lon="-21.74143028"><ele>6.6</ele><time>2012-07-28T13:46:41.0000000+00:00</time></trkpt><trkpt lat="63.86502838" lon="-21.74164772"><ele>6.6</ele><time>2012-07-28T13:46:46.0000000+00:00</time></trkpt><trkpt lat="63.8650856" lon="-21.74183655"><ele>7.3</ele><time>2012-07-28T13:46:51.0000000+00:00</time></trkpt><trkpt lat="63.86514282" lon="-21.74205017"><ele>7.4</ele><time>2012-07-28T13:46:56.0000000+00:00</time></trkpt><trkpt lat="63.86521149" lon="-21.74226379"><ele>6.7</ele><time>2012-07-28T13:47:01.0000000+00:00</time></trkpt><trkpt lat="63.86527252" lon="-21.74248695"><ele>6.4</ele><time>2012-07-28T13:47:06.0000000+00:00</time></trkpt><trkpt lat="63.86532593" lon="-21.74271774"><ele>6.4</ele><time>2012-07-28T13:47:11.0000000+00:00</time></trkpt><trkpt lat="63.86538696" lon="-21.74292755"><ele>5.7</ele><time>2012-07-28T13:47:16.0000000+00:00</time></trkpt><trkpt lat="63.86544037" lon="-21.74313164"><ele>5.4</ele><time>2012-07-28T13:47:21.0000000+00:00</time></trkpt><trkpt lat="63.86549377" lon="-21.74333763"><ele>5.1</ele><time>2012-07-28T13:47:26.0000000+00:00</time></trkpt><trkpt lat="63.86553192" lon="-21.74350739"><ele>5.0</ele><time>2012-07-28T13:47:31.0000000+00:00</time></trkpt><trkpt lat="63.86558533" lon="-21.74370194"><ele>5.1</ele><time>2012-07-28T13:47:36.0000000+00:00</time></trkpt><trkpt lat="63.86564255" lon="-21.74389648"><ele>6.1</ele><time>2012-07-28T13:47:41.0000000+00:00</time></trkpt><trkpt lat="63.86569977" lon="-21.74412727"><ele>5.9</ele><time>2012-07-28T13:47:46.0000000+00:00</time></trkpt><trkpt lat="63.8657608" lon="-21.74438095"><ele>6.1</ele><time>2012-07-28T13:47:51.0000000+00:00</time></trkpt><trkpt lat="63.86579895" lon="-21.74453735"><ele>5.9</ele><time>2012-07-28T13:47:56.0000000+00:00</time></trkpt><trkpt lat="63.86584854" lon="-21.74473381"><ele>6.1</ele><time>2012-07-28T13:48:01.0000000+00:00</time></trkpt><trkpt lat="63.86590958" lon="-21.74496079"><ele>6.4</ele><time>2012-07-28T13:48:06.0000000+00:00</time></trkpt><trkpt lat="63.86595917" lon="-21.74518204"><ele>6.0</ele><time>2012-07-28T13:48:11.0000000+00:00</time></trkpt><trkpt lat="63.86601257" lon="-21.74541855"><ele>5.7</ele><time>2012-07-28T13:48:16.0000000+00:00</time></trkpt><trkpt lat="63.86607742" lon="-21.74564552"><ele>5.9</ele><time>2012-07-28T13:48:21.0000000+00:00</time></trkpt><trkpt lat="63.8661232" lon="-21.7458477"><ele>5.9</ele><time>2012-07-28T13:48:26.0000000+00:00</time></trkpt><trkpt lat="63.86618042" lon="-21.74608612"><ele>5.8</ele><time>2012-07-28T13:48:31.0000000+00:00</time></trkpt><trkpt lat="63.86623764" lon="-21.74627686"><ele>5.8</ele><time>2012-07-28T13:48:36.0000000+00:00</time></trkpt><trkpt lat="63.86628723" lon="-21.74649429"><ele>6.0</ele><time>2012-07-28T13:48:41.0000000+00:00</time></trkpt><trkpt lat="63.86633682" lon="-21.74674034"><ele>5.8</ele><time>2012-07-28T13:48:46.0000000+00:00</time></trkpt><trkpt lat="63.86639786" lon="-21.74698257"><ele>6.0</ele><time>2012-07-28T13:48:51.0000000+00:00</time></trkpt><trkpt lat="63.86645889" lon="-21.74724007"><ele>5.9</ele><time>2012-07-28T13:48:56.0000000+00:00</time></trkpt><trkpt lat="63.86651611" lon="-21.7475071"><ele>5.9</ele><time>2012-07-28T13:49:01.0000000+00:00</time></trkpt><trkpt lat="63.86657333" lon="-21.74777603"><ele>5.9</ele><time>2012-07-28T13:49:06.0000000+00:00</time></trkpt><trkpt lat="63.86662674" lon="-21.74804115"><ele>5.8</ele><time>2012-07-28T13:49:11.0000000+00:00</time></trkpt><trkpt lat="63.86668778" lon="-21.74830437"><ele>5.7</ele><time>2012-07-28T13:49:16.0000000+00:00</time></trkpt><trkpt lat="63.866745" lon="-21.74854851"><ele>6.0</ele><time>2012-07-28T13:49:21.0000000+00:00</time></trkpt><trkpt lat="63.86680603" lon="-21.74881172"><ele>6.2</ele><time>2012-07-28T13:49:26.0000000+00:00</time></trkpt><trkpt lat="63.86686707" lon="-21.74907303"><ele>6.2</ele><time>2012-07-28T13:49:31.0000000+00:00</time></trkpt><trkpt lat="63.86692429" lon="-21.7493515"><ele>6.2</ele><time>2012-07-28T13:49:36.0000000+00:00</time></trkpt><trkpt lat="63.86698914" lon="-21.74959564"><ele>6.2</ele><time>2012-07-28T13:49:41.0000000+00:00</time></trkpt><trkpt lat="63.86702728" lon="-21.74982834"><ele>5.9</ele><time>2012-07-28T13:49:46.0000000+00:00</time></trkpt><trkpt lat="63.86708832" lon="-21.750103"><ele>5.9</ele><time>2012-07-28T13:49:51.0000000+00:00</time></trkpt><trkpt lat="63.86715317" lon="-21.75037956"><ele>5.5</ele><time>2012-07-28T13:49:56.0000000+00:00</time></trkpt><trkpt lat="63.86721802" lon="-21.75068092"><ele>5.4</ele><time>2012-07-28T13:50:01.0000000+00:00</time></trkpt><trkpt lat="63.86727142" lon="-21.75092316"><ele>4.8</ele><time>2012-07-28T13:50:06.0000000+00:00</time></trkpt><trkpt lat="63.86734009" lon="-21.75121498"><ele>4.8</ele><time>2012-07-28T13:50:11.0000000+00:00</time></trkpt><trkpt lat="63.86740112" lon="-21.75149727"><ele>4.9</ele><time>2012-07-28T13:50:16.0000000+00:00</time></trkpt><trkpt lat="63.86746597" lon="-21.75179863"><ele>5.1</ele><time>2012-07-28T13:50:21.0000000+00:00</time></trkpt><trkpt lat="63.86751556" lon="-21.75205231"><ele>4.8</ele><time>2012-07-28T13:50:26.0000000+00:00</time></trkpt><trkpt lat="63.86756134" lon="-21.75233841"><ele>5.1</ele><time>2012-07-28T13:50:31.0000000+00:00</time></trkpt><trkpt lat="63.86761856" lon="-21.7526226"><ele>5.4</ele><time>2012-07-28T13:50:36.0000000+00:00</time></trkpt><trkpt lat="63.86766052" lon="-21.75284386"><ele>5.9</ele><time>2012-07-28T13:50:41.0000000+00:00</time></trkpt><trkpt lat="63.86771393" lon="-21.75308991"><ele>5.6</ele><time>2012-07-28T13:50:46.0000000+00:00</time></trkpt><trkpt lat="63.86774063" lon="-21.75325012"><ele>5.3</ele><time>2012-07-28T13:50:51.0000000+00:00</time></trkpt><trkpt lat="63.86776352" lon="-21.75343895"><ele>5.7</ele><time>2012-07-28T13:50:56.0000000+00:00</time></trkpt><trkpt lat="63.86780548" lon="-21.75362778"><ele>5.1</ele><time>2012-07-28T13:51:01.0000000+00:00</time></trkpt><trkpt lat="63.86782837" lon="-21.75384522"><ele>4.6</ele><time>2012-07-28T13:51:06.0000000+00:00</time></trkpt><trkpt lat="63.86787415" lon="-21.75408745"><ele>4.6</ele><time>2012-07-28T13:51:11.0000000+00:00</time></trkpt><trkpt lat="63.86793137" lon="-21.75432777"><ele>4.6</ele><time>2012-07-28T13:51:16.0000000+00:00</time></trkpt><trkpt lat="63.86797714" lon="-21.75454521"><ele>5.6</ele><time>2012-07-28T13:51:21.0000000+00:00</time></trkpt><trkpt lat="63.86803436" lon="-21.75477409"><ele>6.0</ele><time>2012-07-28T13:51:26.0000000+00:00</time></trkpt><trkpt lat="63.86807632" lon="-21.75502205"><ele>4.7</ele><time>2012-07-28T13:51:31.0000000+00:00</time></trkpt><trkpt lat="63.86811447" lon="-21.75525093"><ele>4.0</ele><time>2012-07-28T13:51:36.0000000+00:00</time></trkpt><trkpt lat="63.8681488" lon="-21.75549507"><ele>4.6</ele><time>2012-07-28T13:51:41.0000000+00:00</time></trkpt><trkpt lat="63.86819458" lon="-21.7556839"><ele>5.4</ele><time>2012-07-28T13:51:46.0000000+00:00</time></trkpt><trkpt lat="63.86822891" lon="-21.75590706"><ele>5.4</ele><time>2012-07-28T13:51:51.0000000+00:00</time></trkpt><trkpt lat="63.8682518" lon="-21.75609398"><ele>6.1</ele><time>2012-07-28T13:51:56.0000000+00:00</time></trkpt><trkpt lat="63.86828995" lon="-21.75633049"><ele>5.7</ele><time>2012-07-28T13:52:01.0000000+00:00</time></trkpt><trkpt lat="63.86833191" lon="-21.75655365"><ele>5.3</ele><time>2012-07-28T13:52:06.0000000+00:00</time></trkpt><trkpt lat="63.86836624" lon="-21.75682259"><ele>5.1</ele><time>2012-07-28T13:52:11.0000000+00:00</time></trkpt><trkpt lat="63.8684082" lon="-21.75702858"><ele>4.3</ele><time>2012-07-28T13:52:16.0000000+00:00</time></trkpt><trkpt lat="63.86843491" lon="-21.75723076"><ele>3.8</ele><time>2012-07-28T13:52:21.0000000+00:00</time></trkpt><trkpt lat="63.86846924" lon="-21.75743866"><ele>3.6</ele><time>2012-07-28T13:52:26.0000000+00:00</time></trkpt><trkpt lat="63.86849976" lon="-21.75758743"><ele>3.5</ele><time>2012-07-28T13:52:31.0000000+00:00</time></trkpt><trkpt lat="63.86852264" lon="-21.75772858"><ele>3.1</ele><time>2012-07-28T13:52:36.0000000+00:00</time></trkpt><trkpt lat="63.86854935" lon="-21.75793839"><ele>3.5</ele><time>2012-07-28T13:52:41.0000000+00:00</time></trkpt><trkpt lat="63.86859512" lon="-21.75816345"><ele>3.4</ele><time>2012-07-28T13:52:46.0000000+00:00</time></trkpt><trkpt lat="63.86862946" lon="-21.75841904"><ele>4.1</ele><time>2012-07-28T13:52:51.0000000+00:00</time></trkpt><trkpt lat="63.86867523" lon="-21.7586956"><ele>3.3</ele><time>2012-07-28T13:52:56.0000000+00:00</time></trkpt><trkpt lat="63.86871338" lon="-21.75892258"><ele>3.6</ele><time>2012-07-28T13:53:01.0000000+00:00</time></trkpt><trkpt lat="63.86874771" lon="-21.75912666"><ele>4.0</ele><time>2012-07-28T13:53:06.0000000+00:00</time></trkpt><trkpt lat="63.8687973" lon="-21.75938225"><ele>4.2</ele><time>2012-07-28T13:53:11.0000000+00:00</time></trkpt><trkpt lat="63.86882019" lon="-21.75958824"><ele>4.6</ele><time>2012-07-28T13:53:16.0000000+00:00</time></trkpt><trkpt lat="63.86886215" lon="-21.7598362"><ele>4.4</ele><time>2012-07-28T13:53:21.0000000+00:00</time></trkpt><trkpt lat="63.86891174" lon="-21.7601223"><ele>3.9</ele><time>2012-07-28T13:53:26.0000000+00:00</time></trkpt><trkpt lat="63.86895752" lon="-21.76036835"><ele>4.5</ele><time>2012-07-28T13:53:31.0000000+00:00</time></trkpt><trkpt lat="63.86898041" lon="-21.7606411"><ele>4.1</ele><time>2012-07-28T13:53:36.0000000+00:00</time></trkpt><trkpt lat="63.86901093" lon="-21.76088524"><ele>4.7</ele><time>2012-07-28T13:53:41.0000000+00:00</time></trkpt><trkpt lat="63.86904907" lon="-21.76117325"><ele>4.7</ele><time>2012-07-28T13:53:46.0000000+00:00</time></trkpt><trkpt lat="63.86909485" lon="-21.76144218"><ele>4.2</ele><time>2012-07-28T13:53:51.0000000+00:00</time></trkpt><trkpt lat="63.86912918" lon="-21.76163864"><ele>4.3</ele><time>2012-07-28T13:53:56.0000000+00:00</time></trkpt><trkpt lat="63.86918259" lon="-21.76192856"><ele>4.3</ele><time>2012-07-28T13:54:01.0000000+00:00</time></trkpt><trkpt lat="63.86922455" lon="-21.76222992"><ele>4.2</ele><time>2012-07-28T13:54:06.0000000+00:00</time></trkpt><trkpt lat="63.86924744" lon="-21.76254273"><ele>4.4</ele><time>2012-07-28T13:54:11.0000000+00:00</time></trkpt><trkpt lat="63.86927795" lon="-21.7627697"><ele>3.8</ele><time>2012-07-28T13:54:16.0000000+00:00</time></trkpt><trkpt lat="63.86932755" lon="-21.76306152"><ele>4.3</ele><time>2012-07-28T13:54:21.0000000+00:00</time></trkpt><trkpt lat="63.86936951" lon="-21.7633419"><ele>4.9</ele><time>2012-07-28T13:54:26.0000000+00:00</time></trkpt><trkpt lat="63.86940002" lon="-21.76358223"><ele>7.0</ele><time>2012-07-28T13:54:31.0000000+00:00</time></trkpt><trkpt lat="63.86942291" lon="-21.76382065"><ele>6.0</ele><time>2012-07-28T13:54:36.0000000+00:00</time></trkpt><trkpt lat="63.86944962" lon="-21.76403427"><ele>6.9</ele><time>2012-07-28T13:54:41.0000000+00:00</time></trkpt><trkpt lat="63.86948395" lon="-21.76429749"><ele>7.4</ele><time>2012-07-28T13:54:46.0000000+00:00</time></trkpt><trkpt lat="63.8695221" lon="-21.76446724"><ele>8.5</ele><time>2012-07-28T13:54:51.0000000+00:00</time></trkpt><trkpt lat="63.86955261" lon="-21.76469421"><ele>7.8</ele><time>2012-07-28T13:54:56.0000000+00:00</time></trkpt><trkpt lat="63.86958695" lon="-21.76490212"><ele>7.8</ele><time>2012-07-28T13:55:01.0000000+00:00</time></trkpt><trkpt lat="63.86962128" lon="-21.7651329"><ele>7.6</ele><time>2012-07-28T13:55:06.0000000+00:00</time></trkpt><trkpt lat="63.86964798" lon="-21.76539612"><ele>8.2</ele><time>2012-07-28T13:55:11.0000000+00:00</time></trkpt><trkpt lat="63.86968231" lon="-21.76566696"><ele>7.4</ele><time>2012-07-28T13:55:16.0000000+00:00</time></trkpt><trkpt lat="63.86972427" lon="-21.76597023"><ele>8.0</ele><time>2012-07-28T13:55:21.0000000+00:00</time></trkpt><trkpt lat="63.86975479" lon="-21.76629257"><ele>7.6</ele><time>2012-07-28T13:55:26.0000000+00:00</time></trkpt><trkpt lat="63.86978531" lon="-21.76657105"><ele>7.9</ele><time>2012-07-28T13:55:31.0000000+00:00</time></trkpt><trkpt lat="63.86981201" lon="-21.76683807"><ele>7.8</ele><time>2012-07-28T13:55:36.0000000+00:00</time></trkpt><trkpt lat="63.86984253" lon="-21.76706886"><ele>7.1</ele><time>2012-07-28T13:55:41.0000000+00:00</time></trkpt><trkpt lat="63.86987305" lon="-21.76733589"><ele>7.7</ele><time>2012-07-28T13:55:46.0000000+00:00</time></trkpt><trkpt lat="63.86990738" lon="-21.76761246"><ele>8.4</ele><time>2012-07-28T13:55:51.0000000+00:00</time></trkpt><trkpt lat="63.86993408" lon="-21.76788902"><ele>8.6</ele><time>2012-07-28T13:55:56.0000000+00:00</time></trkpt><trkpt lat="63.8699646" lon="-21.76817513"><ele>7.5</ele><time>2012-07-28T13:56:01.0000000+00:00</time></trkpt><trkpt lat="63.87000275" lon="-21.76848793"><ele>7.1</ele><time>2012-07-28T13:56:06.0000000+00:00</time></trkpt><trkpt lat="63.87003326" lon="-21.76878548"><ele>6.7</ele><time>2012-07-28T13:56:11.0000000+00:00</time></trkpt><trkpt lat="63.87005234" lon="-21.76902008"><ele>7.4</ele><time>2012-07-28T13:56:16.0000000+00:00</time></trkpt><trkpt lat="63.87008667" lon="-21.76929283"><ele>8.7</ele><time>2012-07-28T13:56:21.0000000+00:00</time></trkpt><trkpt lat="63.87011719" lon="-21.76958656"><ele>8.0</ele><time>2012-07-28T13:56:26.0000000+00:00</time></trkpt><trkpt lat="63.87014008" lon="-21.76983833"><ele>8.7</ele><time>2012-07-28T13:56:31.0000000+00:00</time></trkpt><trkpt lat="63.87018204" lon="-21.77009583"><ele>9.1</ele><time>2012-07-28T13:56:36.0000000+00:00</time></trkpt><trkpt lat="63.87020111" lon="-21.77031708"><ele>7.9</ele><time>2012-07-28T13:56:41.0000000+00:00</time></trkpt><trkpt lat="63.87021256" lon="-21.7705555"><ele>6.1</ele><time>2012-07-28T13:56:46.0000000+00:00</time></trkpt><trkpt lat="63.87025452" lon="-21.77082443"><ele>6.8</ele><time>2012-07-28T13:56:51.0000000+00:00</time></trkpt><trkpt lat="63.87026596" lon="-21.77106857"><ele>8.5</ele><time>2012-07-28T13:56:56.0000000+00:00</time></trkpt><trkpt lat="63.87029266" lon="-21.7713604"><ele>11.2</ele><time>2012-07-28T13:57:01.0000000+00:00</time></trkpt><trkpt lat="63.87034226" lon="-21.77166557"><ele>11.0</ele><time>2012-07-28T13:57:06.0000000+00:00</time></trkpt><trkpt lat="63.87036133" lon="-21.77192497"><ele>10.7</ele><time>2012-07-28T13:57:11.0000000+00:00</time></trkpt><trkpt lat="63.87037277" lon="-21.77221489"><ele>8.1</ele><time>2012-07-28T13:57:16.0000000+00:00</time></trkpt><trkpt lat="63.87040329" lon="-21.7725277"><ele>8.2</ele><time>2012-07-28T13:57:21.0000000+00:00</time></trkpt><trkpt lat="63.87043762" lon="-21.77285194"><ele>9.0</ele><time>2012-07-28T13:57:26.0000000+00:00</time></trkpt><trkpt lat="63.87046051" lon="-21.77308083"><ele>9.4</ele><time>2012-07-28T13:57:31.0000000+00:00</time></trkpt><trkpt lat="63.87048721" lon="-21.7733593"><ele>8.6</ele><time>2012-07-28T13:57:36.0000000+00:00</time></trkpt><trkpt lat="63.8704834" lon="-21.77355576"><ele>7.1</ele><time>2012-07-28T13:57:41.0000000+00:00</time></trkpt><trkpt lat="63.87049866" lon="-21.77378845"><ele>5.7</ele><time>2012-07-28T13:57:46.0000000+00:00</time></trkpt><trkpt lat="63.87052155" lon="-21.77405548"><ele>6.2</ele><time>2012-07-28T13:57:51.0000000+00:00</time></trkpt><trkpt lat="63.87054443" lon="-21.77433205"><ele>6.3</ele><time>2012-07-28T13:57:56.0000000+00:00</time></trkpt><trkpt lat="63.87057114" lon="-21.77456093"><ele>4.9</ele><time>2012-07-28T13:58:01.0000000+00:00</time></trkpt><trkpt lat="63.87059021" lon="-21.77475548"><ele>3.5</ele><time>2012-07-28T13:58:06.0000000+00:00</time></trkpt><trkpt lat="63.87061691" lon="-21.7750473"><ele>4.0</ele><time>2012-07-28T13:58:11.0000000+00:00</time></trkpt><trkpt lat="63.87063217" lon="-21.77533531"><ele>5.1</ele><time>2012-07-28T13:58:16.0000000+00:00</time></trkpt><trkpt lat="63.8706398" lon="-21.7756176"><ele>5.8</ele><time>2012-07-28T13:58:21.0000000+00:00</time></trkpt><trkpt lat="63.87065888" lon="-21.77592659"><ele>8.6</ele><time>2012-07-28T13:58:26.0000000+00:00</time></trkpt><trkpt lat="63.87069702" lon="-21.77623749"><ele>9.3</ele><time>2012-07-28T13:58:31.0000000+00:00</time></trkpt><trkpt lat="63.8707161" lon="-21.77653122"><ele>8.7</ele><time>2012-07-28T13:58:36.0000000+00:00</time></trkpt><trkpt lat="63.87073135" lon="-21.77674294"><ele>9.8</ele><time>2012-07-28T13:58:41.0000000+00:00</time></trkpt><trkpt lat="63.87075043" lon="-21.77685165"><ele>9.2</ele><time>2012-07-28T13:58:46.0000000+00:00</time></trkpt><trkpt lat="63.87076569" lon="-21.77706337"><ele>8.3</ele><time>2012-07-28T13:58:51.0000000+00:00</time></trkpt><trkpt lat="63.87078476" lon="-21.77736664"><ele>8.6</ele><time>2012-07-28T13:58:56.0000000+00:00</time></trkpt><trkpt lat="63.87078857" lon="-21.77766037"><ele>8.0</ele><time>2012-07-28T13:59:01.0000000+00:00</time></trkpt><trkpt lat="63.87081146" lon="-21.77789497"><ele>8.7</ele><time>2012-07-28T13:59:06.0000000+00:00</time></trkpt><trkpt lat="63.87083054" lon="-21.77800942"><ele>9.7</ele><time>2012-07-28T13:59:11.0000000+00:00</time></trkpt><trkpt lat="63.87083817" lon="-21.77830505"><ele>10.5</ele><time>2012-07-28T13:59:16.0000000+00:00</time></trkpt><trkpt lat="63.87084198" lon="-21.77857781"><ele>11.0</ele><time>2012-07-28T13:59:21.0000000+00:00</time></trkpt><trkpt lat="63.87085724" lon="-21.77881813"><ele>10.6</ele><time>2012-07-28T13:59:26.0000000+00:00</time></trkpt><trkpt lat="63.87084198" lon="-21.77900505"><ele>10.3</ele><time>2012-07-28T13:59:31.0000000+00:00</time></trkpt><trkpt lat="63.87083817" lon="-21.77917481"><ele>8.5</ele><time>2012-07-28T13:59:36.0000000+00:00</time></trkpt><trkpt lat="63.8708458" lon="-21.77926254"><ele>8.0</ele><time>2012-07-28T13:59:41.0000000+00:00</time></trkpt><trkpt lat="63.87088394" lon="-21.77930832"><ele>7.3</ele><time>2012-07-28T13:59:46.0000000+00:00</time></trkpt><trkpt lat="63.8708992" lon="-21.77931023"><ele>8.0</ele><time>2012-07-28T13:59:51.0000000+00:00</time></trkpt><trkpt lat="63.8708992" lon="-21.77931213"><ele>8.4</ele><time>2012-07-28T13:59:56.0000000+00:00</time></trkpt><trkpt lat="63.87091065" lon="-21.77938843"><ele>9.4</ele><time>2012-07-28T14:00:01.0000000+00:00</time></trkpt><trkpt lat="63.87091446" lon="-21.77940369"><ele>10.2</ele><time>2012-07-28T14:00:06.0000000+00:00</time></trkpt><trkpt lat="63.87091827" lon="-21.77940559"><ele>10.2</ele><time>2012-07-28T14:00:11.0000000+00:00</time></trkpt><trkpt lat="63.87091827" lon="-21.77940559"><ele>10.2</ele><time>2012-07-28T14:00:16.0000000+00:00</time></trkpt><trkpt lat="63.87091827" lon="-21.77940559"><ele>10.2</ele><time>2012-07-28T14:00:21.0000000+00:00</time></trkpt><trkpt lat="63.87091827" lon="-21.77940559"><ele>10.2</ele><time>2012-07-28T14:00:26.0000000+00:00</time></trkpt><trkpt lat="63.87091827" lon="-21.77940559"><ele>10.2</ele><time>2012-07-28T14:00:31.0000000+00:00</time></trkpt><trkpt lat="63.87091827" lon="-21.77940559"><ele>10.2</ele><time>2012-07-28T14:00:36.0000000+00:00</time></trkpt><trkpt lat="63.87091827" lon="-21.77940559"><ele>10.2</ele><time>2012-07-28T14:00:41.0000000+00:00</time></trkpt><trkpt lat="63.87091827" lon="-21.77940559"><ele>10.2</ele><time>2012-07-28T14:00:46.0000000+00:00</time></trkpt><trkpt lat="63.87091827" lon="-21.77940559"><ele>10.2</ele><time>2012-07-28T14:00:51.0000000+00:00</time></trkpt><trkpt lat="63.87091827" lon="-21.77940559"><ele>10.2</ele><time>2012-07-28T14:00:56.0000000+00:00</time></trkpt><trkpt lat="63.87091827" lon="-21.77940559"><ele>10.2</ele><time>2012-07-28T14:01:01.0000000+00:00</time></trkpt><trkpt lat="63.87091827" lon="-21.77940559"><ele>10.2</ele><time>2012-07-28T14:01:06.0000000+00:00</time></trkpt><trkpt lat="63.87091827" lon="-21.77940559"><ele>10.2</ele><time>2012-07-28T14:01:11.0000000+00:00</time></trkpt><trkpt lat="63.87091827" lon="-21.77940559"><ele>10.2</ele><time>2012-07-28T14:01:16.0000000+00:00</time></trkpt><trkpt lat="63.87091827" lon="-21.77940559"><ele>10.2</ele><time>2012-07-28T14:01:21.0000000+00:00</time></trkpt><trkpt lat="63.87091827" lon="-21.77940559"><ele>10.2</ele><time>2012-07-28T14:01:26.0000000+00:00</time></trkpt><trkpt lat="63.87091827" lon="-21.77940559"><ele>10.2</ele><time>2012-07-28T14:01:31.0000000+00:00</time></trkpt><trkpt lat="63.87091827" lon="-21.77940559"><ele>10.2</ele><time>2012-07-28T14:01:36.0000000+00:00</time></trkpt><trkpt lat="63.87091827" lon="-21.77940559"><ele>10.2</ele><time>2012-07-28T14:01:41.0000000+00:00</time></trkpt><trkpt lat="63.87091827" lon="-21.77940559"><ele>10.2</ele><time>2012-07-28T14:01:46.0000000+00:00</time></trkpt><trkpt lat="63.87091827" lon="-21.77940559"><ele>10.2</ele><time>2012-07-28T14:01:51.0000000+00:00</time></trkpt><trkpt lat="63.87091827" lon="-21.77940559"><ele>10.2</ele><time>2012-07-28T14:01:56.0000000+00:00</time></trkpt><trkpt lat="63.87091827" lon="-21.77940559"><ele>10.2</ele><time>2012-07-28T14:02:01.0000000+00:00</time></trkpt><trkpt lat="63.87091827" lon="-21.77940559"><ele>10.2</ele><time>2012-07-28T14:02:06.0000000+00:00</time></trkpt><trkpt lat="63.87091827" lon="-21.77940559"><ele>10.2</ele><time>2012-07-28T14:02:11.0000000+00:00</time></trkpt><trkpt lat="63.87091827" lon="-21.77940559"><ele>10.2</ele><time>2012-07-28T14:02:16.0000000+00:00</time></trkpt><trkpt lat="63.87091827" lon="-21.77940559"><ele>10.2</ele><time>2012-07-28T14:02:21.0000000+00:00</time></trkpt><trkpt lat="63.87091827" lon="-21.77940559"><ele>10.2</ele><time>2012-07-28T14:02:26.0000000+00:00</time></trkpt><trkpt lat="63.87091827" lon="-21.77940559"><ele>10.2</ele><time>2012-07-28T14:02:31.0000000+00:00</time></trkpt><trkpt lat="63.87091827" lon="-21.77940559"><ele>10.2</ele><time>2012-07-28T14:02:36.0000000+00:00</time></trkpt><trkpt lat="63.87091827" lon="-21.77940559"><ele>10.2</ele><time>2012-07-28T14:02:41.0000000+00:00</time></trkpt><trkpt lat="63.87091827" lon="-21.77940559"><ele>10.2</ele><time>2012-07-28T14:02:46.0000000+00:00</time></trkpt><trkpt lat="63.87091827" lon="-21.77940559"><ele>10.2</ele><time>2012-07-28T14:02:51.0000000+00:00</time></trkpt><trkpt lat="63.87091827" lon="-21.77940559"><ele>10.2</ele><time>2012-07-28T14:02:56.0000000+00:00</time></trkpt><trkpt lat="63.87091827" lon="-21.77940559"><ele>10.2</ele><time>2012-07-28T14:03:01.0000000+00:00</time></trkpt><trkpt lat="63.87091827" lon="-21.77940559"><ele>10.2</ele><time>2012-07-28T14:03:06.0000000+00:00</time></trkpt><trkpt lat="63.87091827" lon="-21.7794075"><ele>10.2</ele><time>2012-07-28T14:03:11.0000000+00:00</time></trkpt><trkpt lat="63.87091827" lon="-21.7794075"><ele>10.2</ele><time>2012-07-28T14:03:16.0000000+00:00</time></trkpt><trkpt lat="63.87091827" lon="-21.7794075"><ele>10.2</ele><time>2012-07-28T14:03:21.0000000+00:00</time></trkpt><trkpt lat="63.87091827" lon="-21.7794075"><ele>10.2</ele><time>2012-07-28T14:03:26.0000000+00:00</time></trkpt><trkpt lat="63.87091827" lon="-21.7794075"><ele>10.2</ele><time>2012-07-28T14:03:31.0000000+00:00</time></trkpt><trkpt lat="63.87091827" lon="-21.7794075"><ele>10.2</ele><time>2012-07-28T14:03:36.0000000+00:00</time></trkpt><trkpt lat="63.87091827" lon="-21.7794075"><ele>10.2</ele><time>2012-07-28T14:03:41.0000000+00:00</time></trkpt><trkpt lat="63.87091827" lon="-21.7794075"><ele>10.2</ele><time>2012-07-28T14:03:46.0000000+00:00</time></trkpt><trkpt lat="63.87091827" lon="-21.7794075"><ele>10.2</ele><time>2012-07-28T14:03:51.0000000+00:00</time></trkpt><trkpt lat="63.87091827" lon="-21.7794075"><ele>10.2</ele><time>2012-07-28T14:03:56.0000000+00:00</time></trkpt><trkpt lat="63.87091827" lon="-21.7794075"><ele>10.2</ele><time>2012-07-28T14:04:01.0000000+00:00</time></trkpt><trkpt lat="63.87092209" lon="-21.7794075"><ele>10.3</ele><time>2012-07-28T14:04:06.0000000+00:00</time></trkpt><trkpt lat="63.87092209" lon="-21.7794075"><ele>10.3</ele><time>2012-07-28T14:04:11.0000000+00:00</time></trkpt><trkpt lat="63.87092209" lon="-21.7794075"><ele>10.3</ele><time>2012-07-28T14:04:16.0000000+00:00</time></trkpt><trkpt lat="63.87092209" lon="-21.7794075"><ele>10.3</ele><time>2012-07-28T14:04:21.0000000+00:00</time></trkpt><trkpt lat="63.87092209" lon="-21.7794075"><ele>10.3</ele><time>2012-07-28T14:04:26.0000000+00:00</time></trkpt><trkpt lat="63.87092209" lon="-21.7794075"><ele>10.3</ele><time>2012-07-28T14:04:31.0000000+00:00</time></trkpt><trkpt lat="63.87092209" lon="-21.7794075"><ele>10.3</ele><time>2012-07-28T14:04:36.0000000+00:00</time></trkpt><trkpt lat="63.87092209" lon="-21.7794075"><ele>10.3</ele><time>2012-07-28T14:04:41.0000000+00:00</time></trkpt><trkpt lat="63.87092209" lon="-21.7794075"><ele>10.3</ele><time>2012-07-28T14:04:46.0000000+00:00</time></trkpt><trkpt lat="63.87092209" lon="-21.7794075"><ele>10.3</ele><time>2012-07-28T14:04:51.0000000+00:00</time></trkpt><trkpt lat="63.87092209" lon="-21.7794075"><ele>10.3</ele><time>2012-07-28T14:04:56.0000000+00:00</time></trkpt><trkpt lat="63.87092209" lon="-21.7794075"><ele>10.3</ele><time>2012-07-28T14:05:01.0000000+00:00</time></trkpt><trkpt lat="63.87092209" lon="-21.7794075"><ele>10.4</ele><time>2012-07-28T14:05:06.0000000+00:00</time></trkpt><trkpt lat="63.87092209" lon="-21.7794075"><ele>10.4</ele><time>2012-07-28T14:05:11.0000000+00:00</time></trkpt><trkpt lat="63.87092209" lon="-21.7794075"><ele>10.4</ele><time>2012-07-28T14:05:16.0000000+00:00</time></trkpt><trkpt lat="63.87092209" lon="-21.7794075"><ele>10.4</ele><time>2012-07-28T14:05:21.0000000+00:00</time></trkpt><trkpt lat="63.87092209" lon="-21.7794075"><ele>10.5</ele><time>2012-07-28T14:05:26.0000000+00:00</time></trkpt><trkpt lat="63.87092209" lon="-21.7794075"><ele>10.5</ele><time>2012-07-28T14:05:31.0000000+00:00</time></trkpt><trkpt lat="63.87092209" lon="-21.7794075"><ele>10.5</ele><time>2012-07-28T14:05:36.0000000+00:00</time></trkpt><trkpt lat="63.87092209" lon="-21.7794075"><ele>10.5</ele><time>2012-07-28T14:05:41.0000000+00:00</time></trkpt><trkpt lat="63.87092209" lon="-21.7794075"><ele>10.5</ele><time>2012-07-28T14:05:46.0000000+00:00</time></trkpt><trkpt lat="63.87092209" lon="-21.7794075"><ele>10.5</ele><time>2012-07-28T14:05:51.0000000+00:00</time></trkpt><trkpt lat="63.87092209" lon="-21.7794075"><ele>10.5</ele><time>2012-07-28T14:05:56.0000000+00:00</time></trkpt><trkpt lat="63.87092209" lon="-21.7794075"><ele>10.6</ele><time>2012-07-28T14:06:01.0000000+00:00</time></trkpt><trkpt lat="63.87092209" lon="-21.7794075"><ele>10.6</ele><time>2012-07-28T14:06:06.0000000+00:00</time></trkpt><trkpt lat="63.87092209" lon="-21.7794075"><ele>10.6</ele><time>2012-07-28T14:06:11.0000000+00:00</time></trkpt><trkpt lat="63.87092209" lon="-21.7794075"><ele>10.6</ele><time>2012-07-28T14:06:16.0000000+00:00</time></trkpt><trkpt lat="63.87092209" lon="-21.7794075"><ele>10.6</ele><time>2012-07-28T14:06:21.0000000+00:00</time></trkpt><trkpt lat="63.87092209" lon="-21.7794075"><ele>10.7</ele><time>2012-07-28T14:06:26.0000000+00:00</time></trkpt><trkpt lat="63.87092209" lon="-21.7794075"><ele>10.7</ele><time>2012-07-28T14:06:31.0000000+00:00</time></trkpt><trkpt lat="63.87092209" lon="-21.7794075"><ele>10.7</ele><time>2012-07-28T14:06:36.0000000+00:00</time></trkpt><trkpt lat="63.87092209" lon="-21.7794075"><ele>10.7</ele><time>2012-07-28T14:06:41.0000000+00:00</time></trkpt><trkpt lat="63.87092209" lon="-21.7794075"><ele>10.7</ele><time>2012-07-28T14:06:46.0000000+00:00</time></trkpt><trkpt lat="63.87092209" lon="-21.7794075"><ele>10.7</ele><time>2012-07-28T14:06:51.0000000+00:00</time></trkpt><trkpt lat="63.87092209" lon="-21.7794075"><ele>10.7</ele><time>2012-07-28T14:06:56.0000000+00:00</time></trkpt><trkpt lat="63.87092209" lon="-21.7794075"><ele>10.7</ele><time>2012-07-28T14:07:01.0000000+00:00</time></trkpt><trkpt lat="63.87092209" lon="-21.7794075"><ele>10.7</ele><time>2012-07-28T14:07:06.0000000+00:00</time></trkpt><trkpt lat="63.87092209" lon="-21.7794075"><ele>10.8</ele><time>2012-07-28T14:07:11.0000000+00:00</time></trkpt><trkpt lat="63.87092209" lon="-21.7794075"><ele>10.8</ele><time>2012-07-28T14:07:16.0000000+00:00</time></trkpt><trkpt lat="63.87092209" lon="-21.7794075"><ele>10.8</ele><time>2012-07-28T14:07:21.0000000+00:00</time></trkpt><trkpt lat="63.87092209" lon="-21.7794075"><ele>10.8</ele><time>2012-07-28T14:07:26.0000000+00:00</time></trkpt><trkpt lat="63.87092209" lon="-21.7794075"><ele>10.8</ele><time>2012-07-28T14:07:31.0000000+00:00</time></trkpt><trkpt lat="63.87092209" lon="-21.7794075"><ele>10.8</ele><time>2012-07-28T14:07:36.0000000+00:00</time></trkpt><trkpt lat="63.87092209" lon="-21.7794075"><ele>10.8</ele><time>2012-07-28T14:07:41.0000000+00:00</time></trkpt><trkpt lat="63.87092209" lon="-21.7794075"><ele>10.8</ele><time>2012-07-28T14:07:46.0000000+00:00</time></trkpt><trkpt lat="63.87092209" lon="-21.7794075"><ele>10.9</ele><time>2012-07-28T14:07:51.0000000+00:00</time></trkpt><trkpt lat="63.87092209" lon="-21.7794075"><ele>10.9</ele><time>2012-07-28T14:07:56.0000000+00:00</time></trkpt><trkpt lat="63.87092209" lon="-21.7794075"><ele>10.9</ele><time>2012-07-28T14:08:01.0000000+00:00</time></trkpt><trkpt lat="63.87092209" lon="-21.7794075"><ele>10.9</ele><time>2012-07-28T14:08:06.0000000+00:00</time></trkpt><trkpt lat="63.87092209" lon="-21.7794075"><ele>10.9</ele><time>2012-07-28T14:08:11.0000000+00:00</time></trkpt><trkpt lat="63.87092209" lon="-21.7794075"><ele>10.9</ele><time>2012-07-28T14:08:16.0000000+00:00</time></trkpt><trkpt lat="63.87092209" lon="-21.7794075"><ele>10.9</ele><time>2012-07-28T14:08:21.0000000+00:00</time></trkpt><trkpt lat="63.87092209" lon="-21.7794075"><ele>10.9</ele><time>2012-07-28T14:08:26.0000000+00:00</time></trkpt><trkpt lat="63.87092209" lon="-21.7794075"><ele>10.9</ele><time>2012-07-28T14:08:31.0000000+00:00</time></trkpt><trkpt lat="63.87092209" lon="-21.7794075"><ele>10.9</ele><time>2012-07-28T14:08:36.0000000+00:00</time></trkpt><trkpt lat="63.87092209" lon="-21.7794075"><ele>10.9</ele><time>2012-07-28T14:08:41.0000000+00:00</time></trkpt><trkpt lat="63.87092209" lon="-21.77940941"><ele>11.0</ele><time>2012-07-28T14:08:46.0000000+00:00</time></trkpt><trkpt lat="63.87092209" lon="-21.77940941"><ele>11.0</ele><time>2012-07-28T14:08:51.0000000+00:00</time></trkpt><trkpt lat="63.87092209" lon="-21.77940941"><ele>11.0</ele><time>2012-07-28T14:08:56.0000000+00:00</time></trkpt><trkpt lat="63.87092209" lon="-21.77940941"><ele>11.0</ele><time>2012-07-28T14:09:01.0000000+00:00</time></trkpt><trkpt lat="63.87092209" lon="-21.77940941"><ele>11.0</ele><time>2012-07-28T14:09:06.0000000+00:00</time></trkpt><trkpt lat="63.87092209" lon="-21.77940941"><ele>11.0</ele><time>2012-07-28T14:09:11.0000000+00:00</time></trkpt><trkpt lat="63.87092209" lon="-21.77940941"><ele>11.0</ele><time>2012-07-28T14:09:16.0000000+00:00</time></trkpt><trkpt lat="63.87092209" lon="-21.77940941"><ele>11.0</ele><time>2012-07-28T14:09:21.0000000+00:00</time></trkpt><trkpt lat="63.87092209" lon="-21.77940941"><ele>11.0</ele><time>2012-07-28T14:09:26.0000000+00:00</time></trkpt><trkpt lat="63.87092209" lon="-21.77940941"><ele>11.0</ele><time>2012-07-28T14:09:31.0000000+00:00</time></trkpt><trkpt lat="63.87092209" lon="-21.77940941"><ele>11.0</ele><time>2012-07-28T14:09:36.0000000+00:00</time></trkpt><trkpt lat="63.87091827" lon="-21.77940941"><ele>11.0</ele><time>2012-07-28T14:09:41.0000000+00:00</time></trkpt><trkpt lat="63.87091827" lon="-21.77940941"><ele>11.1</ele><time>2012-07-28T14:09:46.0000000+00:00</time></trkpt><trkpt lat="63.87091827" lon="-21.77940941"><ele>11.1</ele><time>2012-07-28T14:09:51.0000000+00:00</time></trkpt><trkpt lat="63.87091827" lon="-21.77940941"><ele>11.1</ele><time>2012-07-28T14:09:56.0000000+00:00</time></trkpt><trkpt lat="63.87091827" lon="-21.77940941"><ele>11.1</ele><time>2012-07-28T14:10:01.0000000+00:00</time></trkpt><trkpt lat="63.87091827" lon="-21.77940941"><ele>11.1</ele><time>2012-07-28T14:10:06.0000000+00:00</time></trkpt><trkpt lat="63.87091827" lon="-21.77940941"><ele>11.1</ele><time>2012-07-28T14:10:11.0000000+00:00</time></trkpt><trkpt lat="63.87091827" lon="-21.77940941"><ele>11.1</ele><time>2012-07-28T14:10:16.0000000+00:00</time></trkpt><trkpt lat="63.87091827" lon="-21.77941132"><ele>11.1</ele><time>2012-07-28T14:10:21.0000000+00:00</time></trkpt><trkpt lat="63.87091827" lon="-21.77941132"><ele>11.2</ele><time>2012-07-28T14:10:26.0000000+00:00</time></trkpt><trkpt lat="63.87091827" lon="-21.77941132"><ele>11.2</ele><time>2012-07-28T14:10:31.0000000+00:00</time></trkpt><trkpt lat="63.87091827" lon="-21.77940941"><ele>11.2</ele><time>2012-07-28T14:10:36.0000000+00:00</time></trkpt><trkpt lat="63.87091827" lon="-21.77940941"><ele>11.2</ele><time>2012-07-28T14:10:41.0000000+00:00</time></trkpt><trkpt lat="63.87091827" lon="-21.77941132"><ele>11.2</ele><time>2012-07-28T14:10:46.0000000+00:00</time></trkpt><trkpt lat="63.87091827" lon="-21.77941132"><ele>11.2</ele><time>2012-07-28T14:10:51.0000000+00:00</time></trkpt><trkpt lat="63.87091827" lon="-21.77940941"><ele>11.2</ele><time>2012-07-28T14:10:56.0000000+00:00</time></trkpt><trkpt lat="63.87091827" lon="-21.77941132"><ele>11.2</ele><time>2012-07-28T14:11:01.0000000+00:00</time></trkpt><trkpt lat="63.87091827" lon="-21.77941132"><ele>11.2</ele><time>2012-07-28T14:11:06.0000000+00:00</time></trkpt><trkpt lat="63.87091827" lon="-21.77941132"><ele>11.3</ele><time>2012-07-28T14:11:11.0000000+00:00</time></trkpt><trkpt lat="63.87091827" lon="-21.77941132"><ele>11.3</ele><time>2012-07-28T14:11:16.0000000+00:00</time></trkpt><trkpt lat="63.87091827" lon="-21.77941132"><ele>11.3</ele><time>2012-07-28T14:11:21.0000000+00:00</time></trkpt><trkpt lat="63.87091827" lon="-21.77941132"><ele>11.3</ele><time>2012-07-28T14:11:26.0000000+00:00</time></trkpt><trkpt lat="63.87091827" lon="-21.77941132"><ele>11.3</ele><time>2012-07-28T14:11:31.0000000+00:00</time></trkpt><trkpt lat="63.87091827" lon="-21.77941132"><ele>11.3</ele><time>2012-07-28T14:11:36.0000000+00:00</time></trkpt><trkpt lat="63.87091827" lon="-21.77941132"><ele>11.3</ele><time>2012-07-28T14:11:41.0000000+00:00</time></trkpt><trkpt lat="63.87091827" lon="-21.77941132"><ele>11.3</ele><time>2012-07-28T14:11:46.0000000+00:00</time></trkpt><trkpt lat="63.87091827" lon="-21.77941132"><ele>11.3</ele><time>2012-07-28T14:11:51.0000000+00:00</time></trkpt><trkpt lat="63.87091827" lon="-21.77941132"><ele>11.3</ele><time>2012-07-28T14:11:56.0000000+00:00</time></trkpt><trkpt lat="63.87091827" lon="-21.77941132"><ele>11.3</ele><time>2012-07-28T14:12:01.0000000+00:00</time></trkpt><trkpt lat="63.87091827" lon="-21.77941132"><ele>11.3</ele><time>2012-07-28T14:12:06.0000000+00:00</time></trkpt><trkpt lat="63.87091827" lon="-21.77941132"><ele>11.3</ele><time>2012-07-28T14:12:11.0000000+00:00</time></trkpt><trkpt lat="63.87091827" lon="-21.77941132"><ele>11.4</ele><time>2012-07-28T14:12:16.0000000+00:00</time></trkpt><trkpt lat="63.87091827" lon="-21.77941132"><ele>11.4</ele><time>2012-07-28T14:12:21.0000000+00:00</time></trkpt><trkpt lat="63.87091827" lon="-21.77941132"><ele>11.4</ele><time>2012-07-28T14:12:26.0000000+00:00</time></trkpt><trkpt lat="63.87091827" lon="-21.77941132"><ele>11.4</ele><time>2012-07-28T14:12:31.0000000+00:00</time></trkpt><trkpt lat="63.87091827" lon="-21.77941132"><ele>11.4</ele><time>2012-07-28T14:12:36.0000000+00:00</time></trkpt><trkpt lat="63.87091827" lon="-21.77941132"><ele>11.4</ele><time>2012-07-28T14:12:41.0000000+00:00</time></trkpt><trkpt lat="63.87091827" lon="-21.77941132"><ele>11.4</ele><time>2012-07-28T14:12:46.0000000+00:00</time></trkpt><trkpt lat="63.87091827" lon="-21.77941322"><ele>11.4</ele><time>2012-07-28T14:12:51.0000000+00:00</time></trkpt><trkpt lat="63.87091827" lon="-21.77941322"><ele>11.4</ele><time>2012-07-28T14:12:56.0000000+00:00</time></trkpt><trkpt lat="63.87091446" lon="-21.77941322"><ele>11.4</ele><time>2012-07-28T14:13:01.0000000+00:00</time></trkpt><trkpt lat="63.87091446" lon="-21.77941513"><ele>11.4</ele><time>2012-07-28T14:13:06.0000000+00:00</time></trkpt><trkpt lat="63.87090302" lon="-21.7794342"><ele>11.5</ele><time>2012-07-28T14:13:11.0000000+00:00</time></trkpt><trkpt lat="63.87088394" lon="-21.7794857"><ele>11.8</ele><time>2012-07-28T14:13:16.0000000+00:00</time></trkpt><trkpt lat="63.87088394" lon="-21.77950096"><ele>11.5</ele><time>2012-07-28T14:13:21.0000000+00:00</time></trkpt><trkpt lat="63.8708725" lon="-21.77959251"><ele>11.6</ele><time>2012-07-28T14:13:26.0000000+00:00</time></trkpt><trkpt lat="63.87085724" lon="-21.77986145"><ele>12.1</ele><time>2012-07-28T14:13:31.0000000+00:00</time></trkpt><trkpt lat="63.87084961" lon="-21.78019905"><ele>12.9</ele><time>2012-07-28T14:13:36.0000000+00:00</time></trkpt><trkpt lat="63.87083817" lon="-21.78053284"><ele>12.5</ele><time>2012-07-28T14:13:41.0000000+00:00</time></trkpt><trkpt lat="63.87083817" lon="-21.7808857"><ele>12.5</ele><time>2012-07-28T14:13:46.0000000+00:00</time></trkpt><trkpt lat="63.87082672" lon="-21.78126526"><ele>12.8</ele><time>2012-07-28T14:13:51.0000000+00:00</time></trkpt><trkpt lat="63.87081909" lon="-21.78163147"><ele>12.6</ele><time>2012-07-28T14:13:56.0000000+00:00</time></trkpt><trkpt lat="63.87080383" lon="-21.78198624"><ele>13.3</ele><time>2012-07-28T14:14:01.0000000+00:00</time></trkpt><trkpt lat="63.87078476" lon="-21.78234673"><ele>13.6</ele><time>2012-07-28T14:14:06.0000000+00:00</time></trkpt><trkpt lat="63.87075806" lon="-21.78270912"><ele>13.8</ele><time>2012-07-28T14:14:11.0000000+00:00</time></trkpt><trkpt lat="63.87073898" lon="-21.7830925"><ele>14.5</ele><time>2012-07-28T14:14:16.0000000+00:00</time></trkpt><trkpt lat="63.87070465" lon="-21.78347969"><ele>15.1</ele><time>2012-07-28T14:14:21.0000000+00:00</time></trkpt><trkpt lat="63.8706665" lon="-21.78386879"><ele>15.6</ele><time>2012-07-28T14:14:26.0000000+00:00</time></trkpt><trkpt lat="63.87063599" lon="-21.78425598"><ele>15.8</ele><time>2012-07-28T14:14:31.0000000+00:00</time></trkpt><trkpt lat="63.87060165" lon="-21.7846241"><ele>16.1</ele><time>2012-07-28T14:14:36.0000000+00:00</time></trkpt><trkpt lat="63.87055588" lon="-21.78500176"><ele>16.5</ele><time>2012-07-28T14:14:41.0000000+00:00</time></trkpt><trkpt lat="63.87052536" lon="-21.7853775"><ele>16.5</ele><time>2012-07-28T14:14:46.0000000+00:00</time></trkpt><trkpt lat="63.87047958" lon="-21.78576469"><ele>16.8</ele><time>2012-07-28T14:14:51.0000000+00:00</time></trkpt><trkpt lat="63.87043381" lon="-21.78618813"><ele>16.9</ele><time>2012-07-28T14:14:56.0000000+00:00</time></trkpt><trkpt lat="63.87038803" lon="-21.786623"><ele>16.9</ele><time>2012-07-28T14:15:01.0000000+00:00</time></trkpt><trkpt lat="63.87034607" lon="-21.78707123"><ele>16.2</ele><time>2012-07-28T14:15:06.0000000+00:00</time></trkpt><trkpt lat="63.87029266" lon="-21.78753853"><ele>16.1</ele><time>2012-07-28T14:15:11.0000000+00:00</time></trkpt><trkpt lat="63.87023544" lon="-21.788023"><ele>16.3</ele><time>2012-07-28T14:15:16.0000000+00:00</time></trkpt><trkpt lat="63.87017822" lon="-21.78855324"><ele>16.2</ele><time>2012-07-28T14:15:21.0000000+00:00</time></trkpt><trkpt lat="63.870121" lon="-21.78906822"><ele>15.8</ele><time>2012-07-28T14:15:26.0000000+00:00</time></trkpt><trkpt lat="63.87007523" lon="-21.7895813"><ele>15.6</ele><time>2012-07-28T14:15:31.0000000+00:00</time></trkpt><trkpt lat="63.87002182" lon="-21.79008865"><ele>15.8</ele><time>2012-07-28T14:15:36.0000000+00:00</time></trkpt><trkpt lat="63.86997223" lon="-21.79059219"><ele>16.1</ele><time>2012-07-28T14:15:41.0000000+00:00</time></trkpt><trkpt lat="63.86993408" lon="-21.7910099"><ele>16.2</ele><time>2012-07-28T14:15:46.0000000+00:00</time></trkpt><trkpt lat="63.86990356" lon="-21.79141045"><ele>16.3</ele><time>2012-07-28T14:15:51.0000000+00:00</time></trkpt><trkpt lat="63.86987305" lon="-21.79177284"><ele>16.2</ele><time>2012-07-28T14:15:56.0000000+00:00</time></trkpt><trkpt lat="63.8698616" lon="-21.79203224"><ele>16.0</ele><time>2012-07-28T14:16:01.0000000+00:00</time></trkpt><trkpt lat="63.86984634" lon="-21.79229736"><ele>16.2</ele><time>2012-07-28T14:16:06.0000000+00:00</time></trkpt><trkpt lat="63.86981964" lon="-21.79263878"><ele>16.3</ele><time>2012-07-28T14:16:11.0000000+00:00</time></trkpt><trkpt lat="63.86980057" lon="-21.79299927"><ele>16.3</ele><time>2012-07-28T14:16:16.0000000+00:00</time></trkpt><trkpt lat="63.86978912" lon="-21.79333878"><ele>16.0</ele><time>2012-07-28T14:16:21.0000000+00:00</time></trkpt><trkpt lat="63.86977387" lon="-21.79368019"><ele>16.3</ele><time>2012-07-28T14:16:26.0000000+00:00</time></trkpt><trkpt lat="63.86977005" lon="-21.79405022"><ele>16.4</ele><time>2012-07-28T14:16:31.0000000+00:00</time></trkpt><trkpt lat="63.86977387" lon="-21.79443932"><ele>16.0</ele><time>2012-07-28T14:16:36.0000000+00:00</time></trkpt><trkpt lat="63.86977387" lon="-21.79478836"><ele>15.5</ele><time>2012-07-28T14:16:41.0000000+00:00</time></trkpt><trkpt lat="63.86977005" lon="-21.79515076"><ele>15.8</ele><time>2012-07-28T14:16:46.0000000+00:00</time></trkpt><trkpt lat="63.86977387" lon="-21.79554558"><ele>15.5</ele><time>2012-07-28T14:16:51.0000000+00:00</time></trkpt><trkpt lat="63.86977387" lon="-21.79588318"><ele>15.8</ele><time>2012-07-28T14:16:56.0000000+00:00</time></trkpt><trkpt lat="63.86978531" lon="-21.79614639"><ele>16.2</ele><time>2012-07-28T14:17:01.0000000+00:00</time></trkpt><trkpt lat="63.86979294" lon="-21.7964077"><ele>16.4</ele><time>2012-07-28T14:17:06.0000000+00:00</time></trkpt><trkpt lat="63.8698082" lon="-21.79668808"><ele>16.1</ele><time>2012-07-28T14:17:11.0000000+00:00</time></trkpt><trkpt lat="63.86981964" lon="-21.7969799"><ele>15.9</ele><time>2012-07-28T14:17:16.0000000+00:00</time></trkpt><trkpt lat="63.86983872" lon="-21.79723167"><ele>14.9</ele><time>2012-07-28T14:17:21.0000000+00:00</time></trkpt><trkpt lat="63.86985397" lon="-21.7974968"><ele>15.0</ele><time>2012-07-28T14:17:26.0000000+00:00</time></trkpt><trkpt lat="63.86986923" lon="-21.79776764"><ele>15.9</ele><time>2012-07-28T14:17:31.0000000+00:00</time></trkpt><trkpt lat="63.86989212" lon="-21.7980423"><ele>16.7</ele><time>2012-07-28T14:17:36.0000000+00:00</time></trkpt><trkpt lat="63.86991501" lon="-21.79828644"><ele>16.3</ele><time>2012-07-28T14:17:41.0000000+00:00</time></trkpt><trkpt lat="63.86993408" lon="-21.79848671"><ele>16.1</ele><time>2012-07-28T14:17:46.0000000+00:00</time></trkpt><trkpt lat="63.86995697" lon="-21.79873467"><ele>16.6</ele><time>2012-07-28T14:17:51.0000000+00:00</time></trkpt><trkpt lat="63.86998367" lon="-21.79896545"><ele>16.8</ele><time>2012-07-28T14:17:56.0000000+00:00</time></trkpt><trkpt lat="63.87001038" lon="-21.79918671"><ele>16.9</ele><time>2012-07-28T14:18:01.0000000+00:00</time></trkpt><trkpt lat="63.87004089" lon="-21.79940605"><ele>16.8</ele><time>2012-07-28T14:18:06.0000000+00:00</time></trkpt><trkpt lat="63.87005997" lon="-21.79961968"><ele>16.5</ele><time>2012-07-28T14:18:11.0000000+00:00</time></trkpt><trkpt lat="63.87007904" lon="-21.79985046"><ele>16.8</ele><time>2012-07-28T14:18:16.0000000+00:00</time></trkpt><trkpt lat="63.87010574" lon="-21.8000927"><ele>17.0</ele><time>2012-07-28T14:18:21.0000000+00:00</time></trkpt><trkpt lat="63.87013245" lon="-21.800354"><ele>16.7</ele><time>2012-07-28T14:18:26.0000000+00:00</time></trkpt><trkpt lat="63.87015915" lon="-21.80056763"><ele>16.3</ele><time>2012-07-28T14:18:31.0000000+00:00</time></trkpt><trkpt lat="63.87018585" lon="-21.80080223"><ele>16.7</ele><time>2012-07-28T14:18:36.0000000+00:00</time></trkpt><trkpt lat="63.87022018" lon="-21.80101013"><ele>17.0</ele><time>2012-07-28T14:18:41.0000000+00:00</time></trkpt><trkpt lat="63.87024689" lon="-21.80123329"><ele>16.8</ele><time>2012-07-28T14:18:46.0000000+00:00</time></trkpt><trkpt lat="63.87027741" lon="-21.80147553"><ele>16.3</ele><time>2012-07-28T14:18:51.0000000+00:00</time></trkpt><trkpt lat="63.87030411" lon="-21.80173111"><ele>16.5</ele><time>2012-07-28T14:18:56.0000000+00:00</time></trkpt><trkpt lat="63.87033463" lon="-21.80199242"><ele>16.5</ele><time>2012-07-28T14:19:01.0000000+00:00</time></trkpt><trkpt lat="63.87036133" lon="-21.80230904"><ele>16.7</ele><time>2012-07-28T14:19:06.0000000+00:00</time></trkpt><trkpt lat="63.87039185" lon="-21.80261993"><ele>17.1</ele><time>2012-07-28T14:19:11.0000000+00:00</time></trkpt><trkpt lat="63.87041473" lon="-21.80289459"><ele>17.0</ele><time>2012-07-28T14:19:16.0000000+00:00</time></trkpt><trkpt lat="63.87043381" lon="-21.80325508"><ele>16.9</ele><time>2012-07-28T14:19:21.0000000+00:00</time></trkpt><trkpt lat="63.87044525" lon="-21.8035183"><ele>16.8</ele><time>2012-07-28T14:19:26.0000000+00:00</time></trkpt><trkpt lat="63.87046051" lon="-21.80383492"><ele>17.0</ele><time>2012-07-28T14:19:31.0000000+00:00</time></trkpt><trkpt lat="63.87048721" lon="-21.80419159"><ele>17.0</ele><time>2012-07-28T14:19:36.0000000+00:00</time></trkpt><trkpt lat="63.87049484" lon="-21.80455399"><ele>17.2</ele><time>2012-07-28T14:19:41.0000000+00:00</time></trkpt><trkpt lat="63.87050247" lon="-21.80501175"><ele>16.6</ele><time>2012-07-28T14:19:46.0000000+00:00</time></trkpt><trkpt lat="63.87050629" lon="-21.80549812"><ele>16.9</ele><time>2012-07-28T14:19:51.0000000+00:00</time></trkpt><trkpt lat="63.87050247" lon="-21.80601502"><ele>16.6</ele><time>2012-07-28T14:19:56.0000000+00:00</time></trkpt><trkpt lat="63.87049484" lon="-21.80644035"><ele>16.2</ele><time>2012-07-28T14:20:01.0000000+00:00</time></trkpt><trkpt lat="63.87048721" lon="-21.80679894"><ele>15.9</ele><time>2012-07-28T14:20:06.0000000+00:00</time></trkpt><trkpt lat="63.87047577" lon="-21.80715752"><ele>15.1</ele><time>2012-07-28T14:20:11.0000000+00:00</time></trkpt><trkpt lat="63.87046051" lon="-21.80759239"><ele>15.2</ele><time>2012-07-28T14:20:16.0000000+00:00</time></trkpt><trkpt lat="63.87044907" lon="-21.80807686"><ele>14.9</ele><time>2012-07-28T14:20:21.0000000+00:00</time></trkpt><trkpt lat="63.87042999" lon="-21.80858421"><ele>14.8</ele><time>2012-07-28T14:20:26.0000000+00:00</time></trkpt><trkpt lat="63.87042618" lon="-21.80907822"><ele>14.5</ele><time>2012-07-28T14:20:31.0000000+00:00</time></trkpt><trkpt lat="63.87040329" lon="-21.8095398"><ele>14.2</ele><time>2012-07-28T14:20:36.0000000+00:00</time></trkpt><trkpt lat="63.87038422" lon="-21.80997086"><ele>13.9</ele><time>2012-07-28T14:20:41.0000000+00:00</time></trkpt><trkpt lat="63.87037277" lon="-21.81032181"><ele>13.9</ele><time>2012-07-28T14:20:46.0000000+00:00</time></trkpt><trkpt lat="63.87037277" lon="-21.81063271"><ele>14.3</ele><time>2012-07-28T14:20:51.0000000+00:00</time></trkpt><trkpt lat="63.87036133" lon="-21.81099129"><ele>14.9</ele><time>2012-07-28T14:20:56.0000000+00:00</time></trkpt><trkpt lat="63.8703537" lon="-21.81132317"><ele>14.9</ele><time>2012-07-28T14:21:01.0000000+00:00</time></trkpt><trkpt lat="63.8703537" lon="-21.81158638"><ele>14.2</ele><time>2012-07-28T14:21:06.0000000+00:00</time></trkpt><trkpt lat="63.87034988" lon="-21.81185532"><ele>13.9</ele><time>2012-07-28T14:21:11.0000000+00:00</time></trkpt><trkpt lat="63.87034607" lon="-21.81214905"><ele>13.6</ele><time>2012-07-28T14:21:16.0000000+00:00</time></trkpt><trkpt lat="63.87034607" lon="-21.81241608"><ele>13.4</ele><time>2012-07-28T14:21:21.0000000+00:00</time></trkpt><trkpt lat="63.87033463" lon="-21.81269074"><ele>13.4</ele><time>2012-07-28T14:21:26.0000000+00:00</time></trkpt><trkpt lat="63.870327" lon="-21.81297302"><ele>13.3</ele><time>2012-07-28T14:21:31.0000000+00:00</time></trkpt><trkpt lat="63.87031937" lon="-21.81330681"><ele>13.2</ele><time>2012-07-28T14:21:36.0000000+00:00</time></trkpt><trkpt lat="63.87033081" lon="-21.81370354"><ele>12.6</ele><time>2012-07-28T14:21:41.0000000+00:00</time></trkpt><trkpt lat="63.870327" lon="-21.81420326"><ele>11.3</ele><time>2012-07-28T14:21:46.0000000+00:00</time></trkpt><trkpt lat="63.870327" lon="-21.81468964"><ele>10.6</ele><time>2012-07-28T14:21:51.0000000+00:00</time></trkpt><trkpt lat="63.87031555" lon="-21.8151226"><ele>10.4</ele><time>2012-07-28T14:21:56.0000000+00:00</time></trkpt><trkpt lat="63.87031937" lon="-21.81553841"><ele>10.7</ele><time>2012-07-28T14:22:01.0000000+00:00</time></trkpt><trkpt lat="63.870327" lon="-21.81594467"><ele>11.4</ele><time>2012-07-28T14:22:06.0000000+00:00</time></trkpt><trkpt lat="63.87032318" lon="-21.8163681"><ele>11.9</ele><time>2012-07-28T14:22:11.0000000+00:00</time></trkpt><trkpt lat="63.87032318" lon="-21.81681061"><ele>12.6</ele><time>2012-07-28T14:22:16.0000000+00:00</time></trkpt><trkpt lat="63.87034607" lon="-21.81724548"><ele>12.0</ele><time>2012-07-28T14:22:21.0000000+00:00</time></trkpt><trkpt lat="63.87034988" lon="-21.81766319"><ele>12.1</ele><time>2012-07-28T14:22:26.0000000+00:00</time></trkpt><trkpt lat="63.87036514" lon="-21.81809998"><ele>11.7</ele><time>2012-07-28T14:22:31.0000000+00:00</time></trkpt><trkpt lat="63.87037277" lon="-21.81852531"><ele>12.0</ele><time>2012-07-28T14:22:36.0000000+00:00</time></trkpt><trkpt lat="63.87036896" lon="-21.81894875"><ele>12.3</ele><time>2012-07-28T14:22:41.0000000+00:00</time></trkpt><trkpt lat="63.87038422" lon="-21.81933594"><ele>12.1</ele><time>2012-07-28T14:22:46.0000000+00:00</time></trkpt><trkpt lat="63.87038803" lon="-21.81965637"><ele>12.4</ele><time>2012-07-28T14:22:51.0000000+00:00</time></trkpt><trkpt lat="63.8704071" lon="-21.81999016"><ele>12.4</ele><time>2012-07-28T14:22:56.0000000+00:00</time></trkpt><trkpt lat="63.87041473" lon="-21.82035828"><ele>12.4</ele><time>2012-07-28T14:23:01.0000000+00:00</time></trkpt><trkpt lat="63.87042618" lon="-21.82071114"><ele>12.1</ele><time>2012-07-28T14:23:06.0000000+00:00</time></trkpt><trkpt lat="63.87044907" lon="-21.82103348"><ele>11.6</ele><time>2012-07-28T14:23:11.0000000+00:00</time></trkpt><trkpt lat="63.87045288" lon="-21.82125092"><ele>12.0</ele><time>2012-07-28T14:23:16.0000000+00:00</time></trkpt><trkpt lat="63.87046433" lon="-21.82143784"><ele>12.0</ele><time>2012-07-28T14:23:21.0000000+00:00</time></trkpt><trkpt lat="63.87047195" lon="-21.82164574"><ele>11.9</ele><time>2012-07-28T14:23:26.0000000+00:00</time></trkpt><trkpt lat="63.87048721" lon="-21.82185745"><ele>12.5</ele><time>2012-07-28T14:23:31.0000000+00:00</time></trkpt><trkpt lat="63.87049866" lon="-21.82206535"><ele>12.9</ele><time>2012-07-28T14:23:36.0000000+00:00</time></trkpt><trkpt lat="63.87050629" lon="-21.8222599"><ele>13.1</ele><time>2012-07-28T14:23:41.0000000+00:00</time></trkpt><trkpt lat="63.87051773" lon="-21.82249641"><ele>14.4</ele><time>2012-07-28T14:23:46.0000000+00:00</time></trkpt><trkpt lat="63.87052918" lon="-21.82278824"><ele>14.6</ele><time>2012-07-28T14:23:51.0000000+00:00</time></trkpt><trkpt lat="63.87054825" lon="-21.82309151"><ele>14.8</ele><time>2012-07-28T14:23:56.0000000+00:00</time></trkpt><trkpt lat="63.87056732" lon="-21.82345581"><ele>16.2</ele><time>2012-07-28T14:24:01.0000000+00:00</time></trkpt><trkpt lat="63.87057114" lon="-21.82379723"><ele>16.4</ele><time>2012-07-28T14:24:06.0000000+00:00</time></trkpt><trkpt lat="63.87057877" lon="-21.82408142"><ele>15.9</ele><time>2012-07-28T14:24:11.0000000+00:00</time></trkpt><trkpt lat="63.87057877" lon="-21.82435226"><ele>16.2</ele><time>2012-07-28T14:24:16.0000000+00:00</time></trkpt><trkpt lat="63.87058258" lon="-21.82460022"><ele>16.1</ele><time>2012-07-28T14:24:21.0000000+00:00</time></trkpt><trkpt lat="63.87059021" lon="-21.82483673"><ele>16.3</ele><time>2012-07-28T14:24:26.0000000+00:00</time></trkpt><trkpt lat="63.87059784" lon="-21.82509041"><ele>16.2</ele><time>2012-07-28T14:24:31.0000000+00:00</time></trkpt><trkpt lat="63.87060165" lon="-21.82536125"><ele>16.1</ele><time>2012-07-28T14:24:36.0000000+00:00</time></trkpt><trkpt lat="63.87060547" lon="-21.8256321"><ele>16.5</ele><time>2012-07-28T14:24:41.0000000+00:00</time></trkpt><trkpt lat="63.87060928" lon="-21.82588577"><ele>16.6</ele><time>2012-07-28T14:24:46.0000000+00:00</time></trkpt><trkpt lat="63.87061691" lon="-21.82615852"><ele>18.2</ele><time>2012-07-28T14:24:51.0000000+00:00</time></trkpt><trkpt lat="63.87061691" lon="-21.8263855"><ele>18.5</ele><time>2012-07-28T14:24:56.0000000+00:00</time></trkpt><trkpt lat="63.87062454" lon="-21.8265934"><ele>19.6</ele><time>2012-07-28T14:25:01.0000000+00:00</time></trkpt><trkpt lat="63.87063217" lon="-21.82682991"><ele>19.6</ele><time>2012-07-28T14:25:06.0000000+00:00</time></trkpt><trkpt lat="63.87062836" lon="-21.82708931"><ele>19.0</ele><time>2012-07-28T14:25:11.0000000+00:00</time></trkpt><trkpt lat="63.87062836" lon="-21.82734489"><ele>19.3</ele><time>2012-07-28T14:25:16.0000000+00:00</time></trkpt><trkpt lat="63.87063217" lon="-21.82759666"><ele>19.7</ele><time>2012-07-28T14:25:21.0000000+00:00</time></trkpt><trkpt lat="63.87063217" lon="-21.82785797"><ele>20.2</ele><time>2012-07-28T14:25:26.0000000+00:00</time></trkpt><trkpt lat="63.87062836" lon="-21.82814407"><ele>19.8</ele><time>2012-07-28T14:25:31.0000000+00:00</time></trkpt><trkpt lat="63.87062073" lon="-21.82847595"><ele>20.0</ele><time>2012-07-28T14:25:36.0000000+00:00</time></trkpt><trkpt lat="63.87062454" lon="-21.82883835"><ele>20.2</ele><time>2012-07-28T14:25:41.0000000+00:00</time></trkpt><trkpt lat="63.87062836" lon="-21.82914734"><ele>20.0</ele><time>2012-07-28T14:25:46.0000000+00:00</time></trkpt><trkpt lat="63.87062454" lon="-21.82942963"><ele>19.7</ele><time>2012-07-28T14:25:51.0000000+00:00</time></trkpt><trkpt lat="63.87062073" lon="-21.82969093"><ele>20.1</ele><time>2012-07-28T14:25:56.0000000+00:00</time></trkpt><trkpt lat="63.87062073" lon="-21.82997131"><ele>20.9</ele><time>2012-07-28T14:26:01.0000000+00:00</time></trkpt><trkpt lat="63.87061691" lon="-21.83028412"><ele>20.6</ele><time>2012-07-28T14:26:06.0000000+00:00</time></trkpt><trkpt lat="63.87061691" lon="-21.83053398"><ele>19.7</ele><time>2012-07-28T14:26:11.0000000+00:00</time></trkpt><trkpt lat="63.87062073" lon="-21.83078575"><ele>18.4</ele><time>2012-07-28T14:26:16.0000000+00:00</time></trkpt><trkpt lat="63.8706131" lon="-21.83102226"><ele>18.2</ele><time>2012-07-28T14:26:21.0000000+00:00</time></trkpt><trkpt lat="63.87061691" lon="-21.83125305"><ele>18.4</ele><time>2012-07-28T14:26:26.0000000+00:00</time></trkpt><trkpt lat="63.87061691" lon="-21.83153725"><ele>18.6</ele><time>2012-07-28T14:26:31.0000000+00:00</time></trkpt><trkpt lat="63.8706131" lon="-21.83182716"><ele>20.8</ele><time>2012-07-28T14:26:36.0000000+00:00</time></trkpt><trkpt lat="63.87060928" lon="-21.83218956"><ele>22.4</ele><time>2012-07-28T14:26:41.0000000+00:00</time></trkpt><trkpt lat="63.87059784" lon="-21.83258057"><ele>22.7</ele><time>2012-07-28T14:26:46.0000000+00:00</time></trkpt><trkpt lat="63.87060165" lon="-21.8329258"><ele>23.0</ele><time>2012-07-28T14:26:51.0000000+00:00</time></trkpt><trkpt lat="63.87059021" lon="-21.83330536"><ele>23.5</ele><time>2012-07-28T14:26:56.0000000+00:00</time></trkpt><trkpt lat="63.87059403" lon="-21.833704"><ele>24.7</ele><time>2012-07-28T14:27:01.0000000+00:00</time></trkpt><trkpt lat="63.87057114" lon="-21.83400536"><ele>23.3</ele><time>2012-07-28T14:27:06.0000000+00:00</time></trkpt><trkpt lat="63.87057877" lon="-21.83427239"><ele>23.3</ele><time>2012-07-28T14:27:11.0000000+00:00</time></trkpt><trkpt lat="63.87056351" lon="-21.83449936"><ele>20.6</ele><time>2012-07-28T14:27:16.0000000+00:00</time></trkpt><trkpt lat="63.87057495" lon="-21.83477211"><ele>21.8</ele><time>2012-07-28T14:27:21.0000000+00:00</time></trkpt><trkpt lat="63.87057114" lon="-21.83506393"><ele>23.2</ele><time>2012-07-28T14:27:26.0000000+00:00</time></trkpt><trkpt lat="63.87056351" lon="-21.8354454"><ele>23.8</ele><time>2012-07-28T14:27:31.0000000+00:00</time></trkpt><trkpt lat="63.87054825" lon="-21.83583641"><ele>25.7</ele><time>2012-07-28T14:27:36.0000000+00:00</time></trkpt><trkpt lat="63.8705368" lon="-21.83618164"><ele>25.1</ele><time>2012-07-28T14:27:41.0000000+00:00</time></trkpt><trkpt lat="63.87052536" lon="-21.8365593"><ele>25.5</ele><time>2012-07-28T14:27:46.0000000+00:00</time></trkpt><trkpt lat="63.8705101" lon="-21.83693886"><ele>24.9</ele><time>2012-07-28T14:27:51.0000000+00:00</time></trkpt><trkpt lat="63.87049866" lon="-21.83731842"><ele>24.8</ele><time>2012-07-28T14:27:56.0000000+00:00</time></trkpt><trkpt lat="63.87047958" lon="-21.83769989"><ele>23.2</ele><time>2012-07-28T14:28:01.0000000+00:00</time></trkpt><trkpt lat="63.87046433" lon="-21.83801079"><ele>23.6</ele><time>2012-07-28T14:28:06.0000000+00:00</time></trkpt><trkpt lat="63.87045288" lon="-21.83824539"><ele>22.3</ele><time>2012-07-28T14:28:11.0000000+00:00</time></trkpt><trkpt lat="63.87043381" lon="-21.83848381"><ele>21.1</ele><time>2012-07-28T14:28:16.0000000+00:00</time></trkpt><trkpt lat="63.87042236" lon="-21.83872795"><ele>20.6</ele><time>2012-07-28T14:28:21.0000000+00:00</time></trkpt><trkpt lat="63.87041092" lon="-21.83899689"><ele>20.1</ele><time>2012-07-28T14:28:26.0000000+00:00</time></trkpt><trkpt lat="63.87039948" lon="-21.83926582"><ele>19.1</ele><time>2012-07-28T14:28:31.0000000+00:00</time></trkpt><trkpt lat="63.87038803" lon="-21.83954811"><ele>17.9</ele><time>2012-07-28T14:28:36.0000000+00:00</time></trkpt><trkpt lat="63.87036896" lon="-21.8398304"><ele>18.0</ele><time>2012-07-28T14:28:41.0000000+00:00</time></trkpt><trkpt lat="63.8703537" lon="-21.84014702"><ele>17.9</ele><time>2012-07-28T14:28:46.0000000+00:00</time></trkpt><trkpt lat="63.87033463" lon="-21.84049034"><ele>17.2</ele><time>2012-07-28T14:28:51.0000000+00:00</time></trkpt><trkpt lat="63.87031555" lon="-21.84084511"><ele>17.3</ele><time>2012-07-28T14:28:56.0000000+00:00</time></trkpt><trkpt lat="63.87030029" lon="-21.84120369"><ele>17.4</ele><time>2012-07-28T14:29:01.0000000+00:00</time></trkpt><trkpt lat="63.87027359" lon="-21.84153938"><ele>17.6</ele><time>2012-07-28T14:29:06.0000000+00:00</time></trkpt><trkpt lat="63.87025452" lon="-21.84190178"><ele>16.5</ele><time>2012-07-28T14:29:11.0000000+00:00</time></trkpt><trkpt lat="63.87023544" lon="-21.84228706"><ele>16.9</ele><time>2012-07-28T14:29:16.0000000+00:00</time></trkpt><trkpt lat="63.87020874" lon="-21.84263229"><ele>16.7</ele><time>2012-07-28T14:29:21.0000000+00:00</time></trkpt><trkpt lat="63.87018204" lon="-21.84295654"><ele>16.1</ele><time>2012-07-28T14:29:26.0000000+00:00</time></trkpt><trkpt lat="63.87015915" lon="-21.84332275"><ele>16.0</ele><time>2012-07-28T14:29:31.0000000+00:00</time></trkpt><trkpt lat="63.87014008" lon="-21.84369087"><ele>15.8</ele><time>2012-07-28T14:29:36.0000000+00:00</time></trkpt><trkpt lat="63.87011337" lon="-21.84399605"><ele>14.0</ele><time>2012-07-28T14:29:41.0000000+00:00</time></trkpt><trkpt lat="63.87009811" lon="-21.84436035"><ele>16.9</ele><time>2012-07-28T14:29:46.0000000+00:00</time></trkpt><trkpt lat="63.87008667" lon="-21.84464455"><ele>16.1</ele><time>2012-07-28T14:29:51.0000000+00:00</time></trkpt><trkpt lat="63.8700676" lon="-21.84483719"><ele>16.0</ele><time>2012-07-28T14:29:56.0000000+00:00</time></trkpt><trkpt lat="63.87006378" lon="-21.84506798"><ele>18.4</ele><time>2012-07-28T14:30:01.0000000+00:00</time></trkpt><trkpt lat="63.87005234" lon="-21.84527016"><ele>19.0</ele><time>2012-07-28T14:30:06.0000000+00:00</time></trkpt><trkpt lat="63.87003326" lon="-21.8454628"><ele>19.2</ele><time>2012-07-28T14:30:11.0000000+00:00</time></trkpt><trkpt lat="63.87001801" lon="-21.84564591"><ele>18.9</ele><time>2012-07-28T14:30:16.0000000+00:00</time></trkpt><trkpt lat="63.87000275" lon="-21.8458786"><ele>18.8</ele><time>2012-07-28T14:30:21.0000000+00:00</time></trkpt><trkpt lat="63.86997986" lon="-21.84611702"><ele>19.0</ele><time>2012-07-28T14:30:26.0000000+00:00</time></trkpt><trkpt lat="63.86997604" lon="-21.84635735"><ele>20.3</ele><time>2012-07-28T14:30:31.0000000+00:00</time></trkpt><trkpt lat="63.86995316" lon="-21.84655571"><ele>20.2</ele><time>2012-07-28T14:30:36.0000000+00:00</time></trkpt><trkpt lat="63.86994553" lon="-21.84675407"><ele>20.4</ele><time>2012-07-28T14:30:41.0000000+00:00</time></trkpt><trkpt lat="63.86993408" lon="-21.84697342"><ele>20.6</ele><time>2012-07-28T14:30:46.0000000+00:00</time></trkpt><trkpt lat="63.86993408" lon="-21.84716988"><ele>21.5</ele><time>2012-07-28T14:30:51.0000000+00:00</time></trkpt><trkpt lat="63.86991501" lon="-21.84737778"><ele>21.1</ele><time>2012-07-28T14:30:56.0000000+00:00</time></trkpt><trkpt lat="63.86989594" lon="-21.84760666"><ele>19.7</ele><time>2012-07-28T14:31:01.0000000+00:00</time></trkpt><trkpt lat="63.86987305" lon="-21.84783936"><ele>19.7</ele><time>2012-07-28T14:31:06.0000000+00:00</time></trkpt><trkpt lat="63.86984634" lon="-21.84804726"><ele>18.6</ele><time>2012-07-28T14:31:11.0000000+00:00</time></trkpt><trkpt lat="63.8698349" lon="-21.84827042"><ele>19.2</ele><time>2012-07-28T14:31:16.0000000+00:00</time></trkpt><trkpt lat="63.8698082" lon="-21.84847832"><ele>20.5</ele><time>2012-07-28T14:31:21.0000000+00:00</time></trkpt><trkpt lat="63.86977768" lon="-21.84869385"><ele>20.8</ele><time>2012-07-28T14:31:26.0000000+00:00</time></trkpt><trkpt lat="63.86975479" lon="-21.84893227"><ele>20.8</ele><time>2012-07-28T14:31:31.0000000+00:00</time></trkpt><trkpt lat="63.8697319" lon="-21.84917069"><ele>20.5</ele><time>2012-07-28T14:31:36.0000000+00:00</time></trkpt><trkpt lat="63.86971664" lon="-21.84935951"><ele>21.3</ele><time>2012-07-28T14:31:41.0000000+00:00</time></trkpt><trkpt lat="63.86969757" lon="-21.84958077"><ele>21.3</ele><time>2012-07-28T14:31:46.0000000+00:00</time></trkpt><trkpt lat="63.86966705" lon="-21.84979248"><ele>20.7</ele><time>2012-07-28T14:31:51.0000000+00:00</time></trkpt><trkpt lat="63.86964798" lon="-21.85003853"><ele>22.1</ele><time>2012-07-28T14:31:56.0000000+00:00</time></trkpt><trkpt lat="63.86962891" lon="-21.85030174"><ele>21.0</ele><time>2012-07-28T14:32:01.0000000+00:00</time></trkpt><trkpt lat="63.86961365" lon="-21.85057259"><ele>20.5</ele><time>2012-07-28T14:32:06.0000000+00:00</time></trkpt><trkpt lat="63.8696022" lon="-21.85082436"><ele>21.4</ele><time>2012-07-28T14:32:11.0000000+00:00</time></trkpt><trkpt lat="63.8695755" lon="-21.85108376"><ele>21.3</ele><time>2012-07-28T14:32:16.0000000+00:00</time></trkpt><trkpt lat="63.8695488" lon="-21.85134125"><ele>21.5</ele><time>2012-07-28T14:32:21.0000000+00:00</time></trkpt><trkpt lat="63.8695221" lon="-21.85159111"><ele>22.3</ele><time>2012-07-28T14:32:26.0000000+00:00</time></trkpt><trkpt lat="63.86950684" lon="-21.85184097"><ele>21.9</ele><time>2012-07-28T14:32:31.0000000+00:00</time></trkpt><trkpt lat="63.86947632" lon="-21.85208702"><ele>22.1</ele><time>2012-07-28T14:32:36.0000000+00:00</time></trkpt><trkpt lat="63.8694458" lon="-21.85233879"><ele>21.0</ele><time>2012-07-28T14:32:41.0000000+00:00</time></trkpt><trkpt lat="63.86942673" lon="-21.85261917"><ele>21.7</ele><time>2012-07-28T14:32:46.0000000+00:00</time></trkpt><trkpt lat="63.8693924" lon="-21.85289955"><ele>22.1</ele><time>2012-07-28T14:32:51.0000000+00:00</time></trkpt><trkpt lat="63.86935806" lon="-21.8531704"><ele>21.6</ele><time>2012-07-28T14:32:56.0000000+00:00</time></trkpt><trkpt lat="63.86931992" lon="-21.85346603"><ele>22.5</ele><time>2012-07-28T14:33:01.0000000+00:00</time></trkpt><trkpt lat="63.86929321" lon="-21.85367012"><ele>22.1</ele><time>2012-07-28T14:33:06.0000000+00:00</time></trkpt><trkpt lat="63.86926651" lon="-21.85395241"><ele>22.8</ele><time>2012-07-28T14:33:11.0000000+00:00</time></trkpt><trkpt lat="63.86923599" lon="-21.8542366"><ele>23.0</ele><time>2012-07-28T14:33:16.0000000+00:00</time></trkpt><trkpt lat="63.86920548" lon="-21.85453606"><ele>23.5</ele><time>2012-07-28T14:33:21.0000000+00:00</time></trkpt><trkpt lat="63.86917114" lon="-21.85482025"><ele>23.7</ele><time>2012-07-28T14:33:26.0000000+00:00</time></trkpt><trkpt lat="63.86912918" lon="-21.85512734"><ele>24.2</ele><time>2012-07-28T14:33:31.0000000+00:00</time></trkpt><trkpt lat="63.86910248" lon="-21.85543823"><ele>24.2</ele><time>2012-07-28T14:33:36.0000000+00:00</time></trkpt><trkpt lat="63.86907578" lon="-21.85568047"><ele>24.4</ele><time>2012-07-28T14:33:41.0000000+00:00</time></trkpt><trkpt lat="63.86904526" lon="-21.85597801"><ele>24.5</ele><time>2012-07-28T14:33:46.0000000+00:00</time></trkpt><trkpt lat="63.86901093" lon="-21.85622597"><ele>25.0</ele><time>2012-07-28T14:33:51.0000000+00:00</time></trkpt><trkpt lat="63.86897278" lon="-21.85648727"><ele>26.2</ele><time>2012-07-28T14:33:56.0000000+00:00</time></trkpt><trkpt lat="63.86894989" lon="-21.8567276"><ele>26.0</ele><time>2012-07-28T14:34:01.0000000+00:00</time></trkpt><trkpt lat="63.86891174" lon="-21.85698319"><ele>26.7</ele><time>2012-07-28T14:34:06.0000000+00:00</time></trkpt><trkpt lat="63.86888504" lon="-21.85725784"><ele>26.6</ele><time>2012-07-28T14:34:11.0000000+00:00</time></trkpt><trkpt lat="63.86884689" lon="-21.85751343"><ele>26.8</ele><time>2012-07-28T14:34:16.0000000+00:00</time></trkpt><trkpt lat="63.86882019" lon="-21.85776138"><ele>26.6</ele><time>2012-07-28T14:34:21.0000000+00:00</time></trkpt><trkpt lat="63.86878204" lon="-21.85802078"><ele>26.7</ele><time>2012-07-28T14:34:26.0000000+00:00</time></trkpt><trkpt lat="63.86874771" lon="-21.85829735"><ele>27.3</ele><time>2012-07-28T14:34:31.0000000+00:00</time></trkpt><trkpt lat="63.86870956" lon="-21.85855866"><ele>27.2</ele><time>2012-07-28T14:34:36.0000000+00:00</time></trkpt><trkpt lat="63.86868668" lon="-21.85878754"><ele>27.3</ele><time>2012-07-28T14:34:41.0000000+00:00</time></trkpt><trkpt lat="63.86865616" lon="-21.85902214"><ele>27.1</ele><time>2012-07-28T14:34:46.0000000+00:00</time></trkpt><trkpt lat="63.8686142" lon="-21.85928917"><ele>27.4</ele><time>2012-07-28T14:34:51.0000000+00:00</time></trkpt><trkpt lat="63.86858368" lon="-21.8595047"><ele>27.6</ele><time>2012-07-28T14:34:56.0000000+00:00</time></trkpt><trkpt lat="63.86854935" lon="-21.85975647"><ele>28.5</ele><time>2012-07-28T14:35:01.0000000+00:00</time></trkpt><trkpt lat="63.86852646" lon="-21.85993958"><ele>28.6</ele><time>2012-07-28T14:35:06.0000000+00:00</time></trkpt><trkpt lat="63.86849213" lon="-21.86017609"><ele>28.4</ele><time>2012-07-28T14:35:11.0000000+00:00</time></trkpt><trkpt lat="63.86845779" lon="-21.8604126"><ele>29.4</ele><time>2012-07-28T14:35:16.0000000+00:00</time></trkpt><trkpt lat="63.86842346" lon="-21.86066246"><ele>29.8</ele><time>2012-07-28T14:35:21.0000000+00:00</time></trkpt><trkpt lat="63.86838913" lon="-21.86090469"><ele>29.9</ele><time>2012-07-28T14:35:26.0000000+00:00</time></trkpt><trkpt lat="63.86835098" lon="-21.86115456"><ele>30.6</ele><time>2012-07-28T14:35:31.0000000+00:00</time></trkpt><trkpt lat="63.86831665" lon="-21.86142921"><ele>30.5</ele><time>2012-07-28T14:35:36.0000000+00:00</time></trkpt><trkpt lat="63.86827469" lon="-21.86172867"><ele>30.7</ele><time>2012-07-28T14:35:41.0000000+00:00</time></trkpt><trkpt lat="63.86822891" lon="-21.8620491"><ele>30.6</ele><time>2012-07-28T14:35:46.0000000+00:00</time></trkpt><trkpt lat="63.86818695" lon="-21.86235046"><ele>31.1</ele><time>2012-07-28T14:35:51.0000000+00:00</time></trkpt><trkpt lat="63.86816788" lon="-21.86257172"><ele>30.7</ele><time>2012-07-28T14:35:56.0000000+00:00</time></trkpt><trkpt lat="63.86812973" lon="-21.86281204"><ele>32.3</ele><time>2012-07-28T14:36:01.0000000+00:00</time></trkpt><trkpt lat="63.86811066" lon="-21.8629837"><ele>31.1</ele><time>2012-07-28T14:36:06.0000000+00:00</time></trkpt><trkpt lat="63.86807251" lon="-21.8632164"><ele>30.5</ele><time>2012-07-28T14:36:11.0000000+00:00</time></trkpt><trkpt lat="63.86804581" lon="-21.86339951"><ele>30.5</ele><time>2012-07-28T14:36:16.0000000+00:00</time></trkpt><trkpt lat="63.86801529" lon="-21.86361694"><ele>30.6</ele><time>2012-07-28T14:36:21.0000000+00:00</time></trkpt><trkpt lat="63.86798477" lon="-21.86381531"><ele>30.4</ele><time>2012-07-28T14:36:26.0000000+00:00</time></trkpt><trkpt lat="63.86795425" lon="-21.86402702"><ele>30.4</ele><time>2012-07-28T14:36:31.0000000+00:00</time></trkpt><trkpt lat="63.86790848" lon="-21.8643322"><ele>29.3</ele><time>2012-07-28T14:36:36.0000000+00:00</time></trkpt><trkpt lat="63.86785889" lon="-21.86459732"><ele>30.3</ele><time>2012-07-28T14:36:41.0000000+00:00</time></trkpt><trkpt lat="63.86782455" lon="-21.86479569"><ele>31.1</ele><time>2012-07-28T14:36:46.0000000+00:00</time></trkpt><trkpt lat="63.86778259" lon="-21.86503983"><ele>32.2</ele><time>2012-07-28T14:36:51.0000000+00:00</time></trkpt><trkpt lat="63.86775208" lon="-21.86522484"><ele>32.7</ele><time>2012-07-28T14:36:56.0000000+00:00</time></trkpt><trkpt lat="63.86771774" lon="-21.86540794"><ele>32.5</ele><time>2012-07-28T14:37:01.0000000+00:00</time></trkpt><trkpt lat="63.86767578" lon="-21.86564064"><ele>32.7</ele><time>2012-07-28T14:37:06.0000000+00:00</time></trkpt><trkpt lat="63.86763001" lon="-21.86595535"><ele>32.8</ele><time>2012-07-28T14:37:11.0000000+00:00</time></trkpt><trkpt lat="63.86759186" lon="-21.86620903"><ele>33.2</ele><time>2012-07-28T14:37:16.0000000+00:00</time></trkpt><trkpt lat="63.86753464" lon="-21.866539"><ele>33.5</ele><time>2012-07-28T14:37:21.0000000+00:00</time></trkpt><trkpt lat="63.86747742" lon="-21.86689377"><ele>33.4</ele><time>2012-07-28T14:37:26.0000000+00:00</time></trkpt><trkpt lat="63.86742401" lon="-21.86717415"><ele>33.6</ele><time>2012-07-28T14:37:31.0000000+00:00</time></trkpt><trkpt lat="63.86737442" lon="-21.86747551"><ele>33.5</ele><time>2012-07-28T14:37:36.0000000+00:00</time></trkpt><trkpt lat="63.86731339" lon="-21.86781883"><ele>33.9</ele><time>2012-07-28T14:37:41.0000000+00:00</time></trkpt><trkpt lat="63.86725235" lon="-21.86813164"><ele>34.5</ele><time>2012-07-28T14:37:46.0000000+00:00</time></trkpt><trkpt lat="63.86719513" lon="-21.86848259"><ele>34.4</ele><time>2012-07-28T14:37:51.0000000+00:00</time></trkpt><trkpt lat="63.86714935" lon="-21.86873627"><ele>34.6</ele><time>2012-07-28T14:37:56.0000000+00:00</time></trkpt><trkpt lat="63.86709976" lon="-21.86904717"><ele>34.0</ele><time>2012-07-28T14:38:01.0000000+00:00</time></trkpt><trkpt lat="63.86703873" lon="-21.8693428"><ele>34.3</ele><time>2012-07-28T14:38:06.0000000+00:00</time></trkpt><trkpt lat="63.86698532" lon="-21.86958122"><ele>34.8</ele><time>2012-07-28T14:38:11.0000000+00:00</time></trkpt><trkpt lat="63.86692429" lon="-21.86988831"><ele>35.2</ele><time>2012-07-28T14:38:16.0000000+00:00</time></trkpt><trkpt lat="63.86686325" lon="-21.87022209"><ele>35.3</ele><time>2012-07-28T14:38:21.0000000+00:00</time></trkpt><trkpt lat="63.86682129" lon="-21.87047768"><ele>35.4</ele><time>2012-07-28T14:38:26.0000000+00:00</time></trkpt><trkpt lat="63.86676788" lon="-21.87075043"><ele>34.9</ele><time>2012-07-28T14:38:31.0000000+00:00</time></trkpt><trkpt lat="63.86670685" lon="-21.87102699"><ele>35.2</ele><time>2012-07-28T14:38:36.0000000+00:00</time></trkpt><trkpt lat="63.866642" lon="-21.87135696"><ele>35.7</ele><time>2012-07-28T14:38:41.0000000+00:00</time></trkpt><trkpt lat="63.86656952" lon="-21.87171555"><ele>36.0</ele><time>2012-07-28T14:38:46.0000000+00:00</time></trkpt><trkpt lat="63.86651611" lon="-21.87200356"><ele>35.9</ele><time>2012-07-28T14:38:51.0000000+00:00</time></trkpt><trkpt lat="63.86645889" lon="-21.87232018"><ele>35.9</ele><time>2012-07-28T14:38:56.0000000+00:00</time></trkpt><trkpt lat="63.86639786" lon="-21.87266541"><ele>35.7</ele><time>2012-07-28T14:39:01.0000000+00:00</time></trkpt><trkpt lat="63.86634064" lon="-21.87297249"><ele>34.9</ele><time>2012-07-28T14:39:06.0000000+00:00</time></trkpt><trkpt lat="63.86626816" lon="-21.87327957"><ele>33.5</ele><time>2012-07-28T14:39:11.0000000+00:00</time></trkpt><trkpt lat="63.86621857" lon="-21.87355614"><ele>34.1</ele><time>2012-07-28T14:39:16.0000000+00:00</time></trkpt><trkpt lat="63.86618424" lon="-21.8737812"><ele>37.3</ele><time>2012-07-28T14:39:21.0000000+00:00</time></trkpt><trkpt lat="63.8661232" lon="-21.87405777"><ele>37.2</ele><time>2012-07-28T14:39:26.0000000+00:00</time></trkpt><trkpt lat="63.86606598" lon="-21.87436104"><ele>37.2</ele><time>2012-07-28T14:39:31.0000000+00:00</time></trkpt><trkpt lat="63.86599731" lon="-21.87466621"><ele>37.3</ele><time>2012-07-28T14:39:36.0000000+00:00</time></trkpt><trkpt lat="63.86593628" lon="-21.87497711"><ele>37.6</ele><time>2012-07-28T14:39:41.0000000+00:00</time></trkpt><trkpt lat="63.86587524" lon="-21.8752842"><ele>38.0</ele><time>2012-07-28T14:39:46.0000000+00:00</time></trkpt><trkpt lat="63.86582565" lon="-21.87556839"><ele>37.4</ele><time>2012-07-28T14:39:51.0000000+00:00</time></trkpt><trkpt lat="63.8657608" lon="-21.87589836"><ele>37.7</ele><time>2012-07-28T14:39:56.0000000+00:00</time></trkpt><trkpt lat="63.8657074" lon="-21.87621307"><ele>38.1</ele><time>2012-07-28T14:40:01.0000000+00:00</time></trkpt><trkpt lat="63.86564255" lon="-21.87649345"><ele>38.3</ele><time>2012-07-28T14:40:06.0000000+00:00</time></trkpt><trkpt lat="63.86559296" lon="-21.87680817"><ele>39.0</ele><time>2012-07-28T14:40:11.0000000+00:00</time></trkpt><trkpt lat="63.86554718" lon="-21.87710571"><ele>39.9</ele><time>2012-07-28T14:40:16.0000000+00:00</time></trkpt><trkpt lat="63.86549377" lon="-21.87739372"><ele>39.4</ele><time>2012-07-28T14:40:21.0000000+00:00</time></trkpt><trkpt lat="63.86544037" lon="-21.87767792"><ele>39.1</ele><time>2012-07-28T14:40:26.0000000+00:00</time></trkpt><trkpt lat="63.86537552" lon="-21.87797546"><ele>40.5</ele><time>2012-07-28T14:40:31.0000000+00:00</time></trkpt><trkpt lat="63.86532593" lon="-21.87825966"><ele>40.7</ele><time>2012-07-28T14:40:36.0000000+00:00</time></trkpt><trkpt lat="63.86526871" lon="-21.87854195"><ele>40.8</ele><time>2012-07-28T14:40:41.0000000+00:00</time></trkpt><trkpt lat="63.86520767" lon="-21.87883186"><ele>41.5</ele><time>2012-07-28T14:40:46.0000000+00:00</time></trkpt><trkpt lat="63.86515427" lon="-21.87913704"><ele>42.0</ele><time>2012-07-28T14:40:51.0000000+00:00</time></trkpt><trkpt lat="63.86508942" lon="-21.87943077"><ele>42.5</ele><time>2012-07-28T14:40:56.0000000+00:00</time></trkpt><trkpt lat="63.86503601" lon="-21.87971497"><ele>42.5</ele><time>2012-07-28T14:41:01.0000000+00:00</time></trkpt><trkpt lat="63.86498261" lon="-21.88000679"><ele>42.3</ele><time>2012-07-28T14:41:06.0000000+00:00</time></trkpt><trkpt lat="63.8649292" lon="-21.88028908"><ele>42.1</ele><time>2012-07-28T14:41:11.0000000+00:00</time></trkpt><trkpt lat="63.86487579" lon="-21.88057709"><ele>42.0</ele><time>2012-07-28T14:41:16.0000000+00:00</time></trkpt><trkpt lat="63.86481857" lon="-21.88088036"><ele>42.0</ele><time>2012-07-28T14:41:21.0000000+00:00</time></trkpt><trkpt lat="63.86476135" lon="-21.88117027"><ele>42.0</ele><time>2012-07-28T14:41:26.0000000+00:00</time></trkpt><trkpt lat="63.8646965" lon="-21.88149834"><ele>42.1</ele><time>2012-07-28T14:41:31.0000000+00:00</time></trkpt><trkpt lat="63.8646431" lon="-21.88181877"><ele>42.4</ele><time>2012-07-28T14:41:36.0000000+00:00</time></trkpt><trkpt lat="63.86458206" lon="-21.88215256"><ele>42.4</ele><time>2012-07-28T14:41:41.0000000+00:00</time></trkpt><trkpt lat="63.86451721" lon="-21.88249207"><ele>42.6</ele><time>2012-07-28T14:41:46.0000000+00:00</time></trkpt><trkpt lat="63.86445999" lon="-21.8828373"><ele>42.6</ele><time>2012-07-28T14:41:51.0000000+00:00</time></trkpt><trkpt lat="63.86440277" lon="-21.88316917"><ele>43.0</ele><time>2012-07-28T14:41:56.0000000+00:00</time></trkpt><trkpt lat="63.86433792" lon="-21.88348961"><ele>43.8</ele><time>2012-07-28T14:42:01.0000000+00:00</time></trkpt><trkpt lat="63.86428452" lon="-21.88381958"><ele>44.1</ele><time>2012-07-28T14:42:06.0000000+00:00</time></trkpt><trkpt lat="63.86423111" lon="-21.88414002"><ele>44.1</ele><time>2012-07-28T14:42:11.0000000+00:00</time></trkpt><trkpt lat="63.8641777" lon="-21.88444901"><ele>44.5</ele><time>2012-07-28T14:42:16.0000000+00:00</time></trkpt><trkpt lat="63.86412048" lon="-21.88475037"><ele>44.4</ele><time>2012-07-28T14:42:21.0000000+00:00</time></trkpt><trkpt lat="63.86406708" lon="-21.88506126"><ele>45.0</ele><time>2012-07-28T14:42:26.0000000+00:00</time></trkpt><trkpt lat="63.86401749" lon="-21.88535881"><ele>45.6</ele><time>2012-07-28T14:42:31.0000000+00:00</time></trkpt><trkpt lat="63.86396027" lon="-21.88566971"><ele>46.1</ele><time>2012-07-28T14:42:36.0000000+00:00</time></trkpt><trkpt lat="63.86390305" lon="-21.88596344"><ele>46.4</ele><time>2012-07-28T14:42:41.0000000+00:00</time></trkpt><trkpt lat="63.86384583" lon="-21.88628006"><ele>46.1</ele><time>2012-07-28T14:42:46.0000000+00:00</time></trkpt><trkpt lat="63.86378861" lon="-21.88660431"><ele>46.4</ele><time>2012-07-28T14:42:51.0000000+00:00</time></trkpt><trkpt lat="63.8637352" lon="-21.88693237"><ele>46.6</ele><time>2012-07-28T14:42:56.0000000+00:00</time></trkpt><trkpt lat="63.86367416" lon="-21.88725662"><ele>47.2</ele><time>2012-07-28T14:43:01.0000000+00:00</time></trkpt><trkpt lat="63.86362457" lon="-21.88758469"><ele>47.3</ele><time>2012-07-28T14:43:06.0000000+00:00</time></trkpt><trkpt lat="63.86356354" lon="-21.88790894"><ele>47.6</ele><time>2012-07-28T14:43:11.0000000+00:00</time></trkpt><trkpt lat="63.86351013" lon="-21.88825035"><ele>48.1</ele><time>2012-07-28T14:43:16.0000000+00:00</time></trkpt><trkpt lat="63.86345673" lon="-21.88861275"><ele>48.6</ele><time>2012-07-28T14:43:21.0000000+00:00</time></trkpt><trkpt lat="63.86340714" lon="-21.88888931"><ele>48.6</ele><time>2012-07-28T14:43:26.0000000+00:00</time></trkpt><trkpt lat="63.86335754" lon="-21.88918304"><ele>48.7</ele><time>2012-07-28T14:43:31.0000000+00:00</time></trkpt><trkpt lat="63.86330414" lon="-21.88949966"><ele>49.2</ele><time>2012-07-28T14:43:36.0000000+00:00</time></trkpt><trkpt lat="63.86325073" lon="-21.88980866"><ele>49.8</ele><time>2012-07-28T14:43:41.0000000+00:00</time></trkpt><trkpt lat="63.86322784" lon="-21.88999176"><ele>49.7</ele><time>2012-07-28T14:43:46.0000000+00:00</time></trkpt><trkpt lat="63.86320114" lon="-21.89015007"><ele>49.8</ele><time>2012-07-28T14:43:51.0000000+00:00</time></trkpt><trkpt lat="63.86315155" lon="-21.89035797"><ele>50.3</ele><time>2012-07-28T14:43:56.0000000+00:00</time></trkpt><trkpt lat="63.8631134" lon="-21.89063644"><ele>51.0</ele><time>2012-07-28T14:44:01.0000000+00:00</time></trkpt><trkpt lat="63.86306763" lon="-21.89092064"><ele>51.5</ele><time>2012-07-28T14:44:06.0000000+00:00</time></trkpt><trkpt lat="63.86302567" lon="-21.89117813"><ele>52.9</ele><time>2012-07-28T14:44:11.0000000+00:00</time></trkpt><trkpt lat="63.86297226" lon="-21.89143753"><ele>54.1</ele><time>2012-07-28T14:44:16.0000000+00:00</time></trkpt><trkpt lat="63.86293411" lon="-21.89173126"><ele>54.5</ele><time>2012-07-28T14:44:21.0000000+00:00</time></trkpt><trkpt lat="63.86288452" lon="-21.89201546"><ele>54.7</ele><time>2012-07-28T14:44:26.0000000+00:00</time></trkpt><trkpt lat="63.86283875" lon="-21.89230919"><ele>55.2</ele><time>2012-07-28T14:44:31.0000000+00:00</time></trkpt><trkpt lat="63.86279678" lon="-21.89260674"><ele>55.2</ele><time>2012-07-28T14:44:36.0000000+00:00</time></trkpt><trkpt lat="63.86275101" lon="-21.89289093"><ele>55.4</ele><time>2012-07-28T14:44:41.0000000+00:00</time></trkpt><trkpt lat="63.86270142" lon="-21.8931694"><ele>55.4</ele><time>2012-07-28T14:44:46.0000000+00:00</time></trkpt><trkpt lat="63.86265183" lon="-21.89345932"><ele>55.0</ele><time>2012-07-28T14:44:51.0000000+00:00</time></trkpt><trkpt lat="63.86260223" lon="-21.89375305"><ele>55.5</ele><time>2012-07-28T14:44:56.0000000+00:00</time></trkpt><trkpt lat="63.86254883" lon="-21.89405823"><ele>56.4</ele><time>2012-07-28T14:45:01.0000000+00:00</time></trkpt><trkpt lat="63.86249924" lon="-21.89435768"><ele>56.6</ele><time>2012-07-28T14:45:06.0000000+00:00</time></trkpt><trkpt lat="63.86244965" lon="-21.89466476"><ele>56.8</ele><time>2012-07-28T14:45:11.0000000+00:00</time></trkpt><trkpt lat="63.86240006" lon="-21.89496422"><ele>57.0</ele><time>2012-07-28T14:45:16.0000000+00:00</time></trkpt><trkpt lat="63.86235046" lon="-21.8952713"><ele>57.1</ele><time>2012-07-28T14:45:21.0000000+00:00</time></trkpt><trkpt lat="63.8623085" lon="-21.89557838"><ele>57.3</ele><time>2012-07-28T14:45:26.0000000+00:00</time></trkpt><trkpt lat="63.86226273" lon="-21.89588356"><ele>57.5</ele><time>2012-07-28T14:45:31.0000000+00:00</time></trkpt><trkpt lat="63.86220932" lon="-21.89619637"><ele>58.0</ele><time>2012-07-28T14:45:36.0000000+00:00</time></trkpt><trkpt lat="63.86216354" lon="-21.89650726"><ele>58.2</ele><time>2012-07-28T14:45:41.0000000+00:00</time></trkpt><trkpt lat="63.86211014" lon="-21.89681244"><ele>58.5</ele><time>2012-07-28T14:45:46.0000000+00:00</time></trkpt><trkpt lat="63.86206436" lon="-21.8971405"><ele>59.0</ele><time>2012-07-28T14:45:51.0000000+00:00</time></trkpt><trkpt lat="63.86201859" lon="-21.89746094"><ele>59.3</ele><time>2012-07-28T14:45:56.0000000+00:00</time></trkpt><trkpt lat="63.86195755" lon="-21.89780045"><ele>60.1</ele><time>2012-07-28T14:46:01.0000000+00:00</time></trkpt><trkpt lat="63.86190414" lon="-21.89813995"><ele>60.2</ele><time>2012-07-28T14:46:06.0000000+00:00</time></trkpt><trkpt lat="63.86184692" lon="-21.89848518"><ele>60.4</ele><time>2012-07-28T14:46:11.0000000+00:00</time></trkpt><trkpt lat="63.8617897" lon="-21.89883995"><ele>60.8</ele><time>2012-07-28T14:46:16.0000000+00:00</time></trkpt><trkpt lat="63.86174393" lon="-21.89914322"><ele>60.6</ele><time>2012-07-28T14:46:21.0000000+00:00</time></trkpt><trkpt lat="63.86170197" lon="-21.89945221"><ele>60.1</ele><time>2012-07-28T14:46:26.0000000+00:00</time></trkpt><trkpt lat="63.86166382" lon="-21.89969254"><ele>61.2</ele><time>2012-07-28T14:46:31.0000000+00:00</time></trkpt><trkpt lat="63.86162949" lon="-21.89995956"><ele>61.1</ele><time>2012-07-28T14:46:36.0000000+00:00</time></trkpt><trkpt lat="63.86158371" lon="-21.90027046"><ele>61.2</ele><time>2012-07-28T14:46:41.0000000+00:00</time></trkpt><trkpt lat="63.86154175" lon="-21.90058899"><ele>61.6</ele><time>2012-07-28T14:46:46.0000000+00:00</time></trkpt><trkpt lat="63.86148834" lon="-21.90090752"><ele>61.3</ele><time>2012-07-28T14:46:51.0000000+00:00</time></trkpt><trkpt lat="63.86143494" lon="-21.90123367"><ele>61.6</ele><time>2012-07-28T14:46:56.0000000+00:00</time></trkpt><trkpt lat="63.86138916" lon="-21.90157318"><ele>61.6</ele><time>2012-07-28T14:47:01.0000000+00:00</time></trkpt><trkpt lat="63.86133575" lon="-21.9019165"><ele>62.3</ele><time>2012-07-28T14:47:06.0000000+00:00</time></trkpt><trkpt lat="63.86128235" lon="-21.90225411"><ele>63.0</ele><time>2012-07-28T14:47:11.0000000+00:00</time></trkpt><trkpt lat="63.86123276" lon="-21.90260124"><ele>62.6</ele><time>2012-07-28T14:47:16.0000000+00:00</time></trkpt><trkpt lat="63.86117935" lon="-21.90294075"><ele>62.8</ele><time>2012-07-28T14:47:21.0000000+00:00</time></trkpt><trkpt lat="63.86112595" lon="-21.90326691"><ele>62.6</ele><time>2012-07-28T14:47:26.0000000+00:00</time></trkpt><trkpt lat="63.86111069" lon="-21.90348244"><ele>62.6</ele><time>2012-07-28T14:47:31.0000000+00:00</time></trkpt><trkpt lat="63.86106873" lon="-21.90371895"><ele>63.0</ele><time>2012-07-28T14:47:36.0000000+00:00</time></trkpt><trkpt lat="63.86102676" lon="-21.90403366"><ele>62.9</ele><time>2012-07-28T14:47:41.0000000+00:00</time></trkpt><trkpt lat="63.86098099" lon="-21.90435791"><ele>63.1</ele><time>2012-07-28T14:47:46.0000000+00:00</time></trkpt><trkpt lat="63.8609314" lon="-21.90469933"><ele>63.6</ele><time>2012-07-28T14:47:51.0000000+00:00</time></trkpt><trkpt lat="63.86088562" lon="-21.90504837"><ele>63.6</ele><time>2012-07-28T14:47:56.0000000+00:00</time></trkpt><trkpt lat="63.86084366" lon="-21.90531158"><ele>64.0</ele><time>2012-07-28T14:48:01.0000000+00:00</time></trkpt><trkpt lat="63.8608017" lon="-21.90561485"><ele>64.2</ele><time>2012-07-28T14:48:06.0000000+00:00</time></trkpt><trkpt lat="63.86075211" lon="-21.90592957"><ele>64.0</ele><time>2012-07-28T14:48:11.0000000+00:00</time></trkpt><trkpt lat="63.8607254" lon="-21.90613556"><ele>63.9</ele><time>2012-07-28T14:48:16.0000000+00:00</time></trkpt><trkpt lat="63.86068344" lon="-21.90642738"><ele>64.3</ele><time>2012-07-28T14:48:21.0000000+00:00</time></trkpt><trkpt lat="63.86064529" lon="-21.90674019"><ele>64.3</ele><time>2012-07-28T14:48:26.0000000+00:00</time></trkpt><trkpt lat="63.86060715" lon="-21.90703011"><ele>64.1</ele><time>2012-07-28T14:48:31.0000000+00:00</time></trkpt><trkpt lat="63.86057663" lon="-21.90721321"><ele>63.9</ele><time>2012-07-28T14:48:36.0000000+00:00</time></trkpt><trkpt lat="63.8605423" lon="-21.90748215"><ele>64.1</ele><time>2012-07-28T14:48:41.0000000+00:00</time></trkpt><trkpt lat="63.86050034" lon="-21.90779495"><ele>64.3</ele><time>2012-07-28T14:48:46.0000000+00:00</time></trkpt><trkpt lat="63.86045837" lon="-21.90810204"><ele>64.1</ele><time>2012-07-28T14:48:51.0000000+00:00</time></trkpt><trkpt lat="63.86042404" lon="-21.90834618"><ele>64.8</ele><time>2012-07-28T14:48:56.0000000+00:00</time></trkpt><trkpt lat="63.86037827" lon="-21.90865898"><ele>65.4</ele><time>2012-07-28T14:49:01.0000000+00:00</time></trkpt><trkpt lat="63.8603363" lon="-21.9090004"><ele>65.5</ele><time>2012-07-28T14:49:06.0000000+00:00</time></trkpt><trkpt lat="63.86029053" lon="-21.90933609"><ele>65.3</ele><time>2012-07-28T14:49:11.0000000+00:00</time></trkpt><trkpt lat="63.86025238" lon="-21.90967369"><ele>65.3</ele><time>2012-07-28T14:49:16.0000000+00:00</time></trkpt><trkpt lat="63.8602066" lon="-21.91001892"><ele>65.8</ele><time>2012-07-28T14:49:21.0000000+00:00</time></trkpt><trkpt lat="63.86017227" lon="-21.91026115"><ele>66.3</ele><time>2012-07-28T14:49:26.0000000+00:00</time></trkpt><trkpt lat="63.86013031" lon="-21.91056252"><ele>67.9</ele><time>2012-07-28T14:49:31.0000000+00:00</time></trkpt><trkpt lat="63.86008835" lon="-21.91089439"><ele>70.0</ele><time>2012-07-28T14:49:36.0000000+00:00</time></trkpt><trkpt lat="63.86006928" lon="-21.91104126"><ele>70.9</ele><time>2012-07-28T14:49:41.0000000+00:00</time></trkpt><trkpt lat="63.86003876" lon="-21.91119576"><ele>72.3</ele><time>2012-07-28T14:49:46.0000000+00:00</time></trkpt><trkpt lat="63.85999298" lon="-21.91147232"><ele>73.1</ele><time>2012-07-28T14:49:51.0000000+00:00</time></trkpt><trkpt lat="63.85994721" lon="-21.91178322"><ele>73.7</ele><time>2012-07-28T14:49:56.0000000+00:00</time></trkpt><trkpt lat="63.85989761" lon="-21.91210175"><ele>73.8</ele><time>2012-07-28T14:50:01.0000000+00:00</time></trkpt><trkpt lat="63.8598671" lon="-21.91235542"><ele>73.6</ele><time>2012-07-28T14:50:06.0000000+00:00</time></trkpt><trkpt lat="63.85983658" lon="-21.91258049"><ele>73.5</ele><time>2012-07-28T14:50:11.0000000+00:00</time></trkpt><trkpt lat="63.85979462" lon="-21.91290093"><ele>74.5</ele><time>2012-07-28T14:50:16.0000000+00:00</time></trkpt><trkpt lat="63.85976028" lon="-21.91318131"><ele>74.8</ele><time>2012-07-28T14:50:21.0000000+00:00</time></trkpt><trkpt lat="63.85971451" lon="-21.91342545"><ele>75.8</ele><time>2012-07-28T14:50:26.0000000+00:00</time></trkpt><trkpt lat="63.85967255" lon="-21.91372109"><ele>76.6</ele><time>2012-07-28T14:50:31.0000000+00:00</time></trkpt><trkpt lat="63.85962677" lon="-21.91402435"><ele>77.5</ele><time>2012-07-28T14:50:36.0000000+00:00</time></trkpt><trkpt lat="63.85961151" lon="-21.91413498"><ele>77.4</ele><time>2012-07-28T14:50:41.0000000+00:00</time></trkpt><trkpt lat="63.85961151" lon="-21.91413117"><ele>77.1</ele><time>2012-07-28T14:50:46.0000000+00:00</time></trkpt><trkpt lat="63.85961151" lon="-21.91413117"><ele>77.1</ele><time>2012-07-28T14:50:51.0000000+00:00</time></trkpt><trkpt lat="63.8596077" lon="-21.91413307"><ele>77.0</ele><time>2012-07-28T14:50:56.0000000+00:00</time></trkpt><trkpt lat="63.85961151" lon="-21.91413117"><ele>76.9</ele><time>2012-07-28T14:51:01.0000000+00:00</time></trkpt><trkpt lat="63.85958099" lon="-21.91427231"><ele>77.0</ele><time>2012-07-28T14:51:06.0000000+00:00</time></trkpt><trkpt lat="63.8595314" lon="-21.91458321"><ele>77.3</ele><time>2012-07-28T14:51:11.0000000+00:00</time></trkpt><trkpt lat="63.85948181" lon="-21.91490746"><ele>77.2</ele><time>2012-07-28T14:51:16.0000000+00:00</time></trkpt><trkpt lat="63.85943222" lon="-21.91520309"><ele>76.7</ele><time>2012-07-28T14:51:21.0000000+00:00</time></trkpt><trkpt lat="63.85939407" lon="-21.91538429"><ele>75.9</ele><time>2012-07-28T14:51:26.0000000+00:00</time></trkpt><trkpt lat="63.85936356" lon="-21.91559219"><ele>75.4</ele><time>2012-07-28T14:51:31.0000000+00:00</time></trkpt><trkpt lat="63.85930252" lon="-21.91590691"><ele>75.3</ele><time>2012-07-28T14:51:36.0000000+00:00</time></trkpt><trkpt lat="63.85925674" lon="-21.91618919"><ele>76.4</ele><time>2012-07-28T14:51:41.0000000+00:00</time></trkpt><trkpt lat="63.85921097" lon="-21.91647148"><ele>76.1</ele><time>2012-07-28T14:51:46.0000000+00:00</time></trkpt><trkpt lat="63.85916519" lon="-21.91674614"><ele>76.9</ele><time>2012-07-28T14:51:51.0000000+00:00</time></trkpt><trkpt lat="63.8591156" lon="-21.91699028"><ele>74.2</ele><time>2012-07-28T14:51:56.0000000+00:00</time></trkpt><trkpt lat="63.85906982" lon="-21.91718102"><ele>73.6</ele><time>2012-07-28T14:52:01.0000000+00:00</time></trkpt><trkpt lat="63.85904312" lon="-21.91732025"><ele>73.5</ele><time>2012-07-28T14:52:06.0000000+00:00</time></trkpt><trkpt lat="63.85902786" lon="-21.91744614"><ele>74.0</ele><time>2012-07-28T14:52:11.0000000+00:00</time></trkpt><trkpt lat="63.85902405" lon="-21.91751099"><ele>74.0</ele><time>2012-07-28T14:52:16.0000000+00:00</time></trkpt><trkpt lat="63.85902023" lon="-21.91750717"><ele>74.0</ele><time>2012-07-28T14:52:21.0000000+00:00</time></trkpt><trkpt lat="63.85902405" lon="-21.91750908"><ele>73.9</ele><time>2012-07-28T14:52:26.0000000+00:00</time></trkpt><trkpt lat="63.85902023" lon="-21.91750908"><ele>73.8</ele><time>2012-07-28T14:52:31.0000000+00:00</time></trkpt><trkpt lat="63.85902023" lon="-21.91750717"><ele>73.8</ele><time>2012-07-28T14:52:36.0000000+00:00</time></trkpt><trkpt lat="63.85902023" lon="-21.91750717"><ele>73.6</ele><time>2012-07-28T14:52:41.0000000+00:00</time></trkpt><trkpt lat="63.85902405" lon="-21.91750908"><ele>73.6</ele><time>2012-07-28T14:52:46.0000000+00:00</time></trkpt><trkpt lat="63.85902405" lon="-21.91750717"><ele>73.6</ele><time>2012-07-28T14:52:51.0000000+00:00</time></trkpt><trkpt lat="63.85902405" lon="-21.91750717"><ele>73.6</ele><time>2012-07-28T14:52:56.0000000+00:00</time></trkpt><trkpt lat="63.85902405" lon="-21.91750717"><ele>73.6</ele><time>2012-07-28T14:53:01.0000000+00:00</time></trkpt><trkpt lat="63.85902405" lon="-21.91750717"><ele>73.6</ele><time>2012-07-28T14:53:06.0000000+00:00</time></trkpt><trkpt lat="63.85902405" lon="-21.91750717"><ele>73.6</ele><time>2012-07-28T14:53:11.0000000+00:00</time></trkpt><trkpt lat="63.85902405" lon="-21.91750717"><ele>73.6</ele><time>2012-07-28T14:53:16.0000000+00:00</time></trkpt><trkpt lat="63.85902405" lon="-21.91750717"><ele>73.6</ele><time>2012-07-28T14:53:21.0000000+00:00</time></trkpt><trkpt lat="63.85902405" lon="-21.91750717"><ele>73.6</ele><time>2012-07-28T14:53:26.0000000+00:00</time></trkpt><trkpt lat="63.85902405" lon="-21.91750717"><ele>73.6</ele><time>2012-07-28T14:53:31.0000000+00:00</time></trkpt><trkpt lat="63.85902405" lon="-21.91750717"><ele>73.6</ele><time>2012-07-28T14:53:36.0000000+00:00</time></trkpt><trkpt lat="63.85902405" lon="-21.91750717"><ele>73.6</ele><time>2012-07-28T14:53:41.0000000+00:00</time></trkpt><trkpt lat="63.85902405" lon="-21.91750717"><ele>73.6</ele><time>2012-07-28T14:53:46.0000000+00:00</time></trkpt><trkpt lat="63.85897064" lon="-21.91771889"><ele>73.4</ele><time>2012-07-28T14:53:51.0000000+00:00</time></trkpt><trkpt lat="63.85890961" lon="-21.91805649"><ele>71.9</ele><time>2012-07-28T14:53:56.0000000+00:00</time></trkpt><trkpt lat="63.85884094" lon="-21.91843224"><ele>70.6</ele><time>2012-07-28T14:54:01.0000000+00:00</time></trkpt><trkpt lat="63.85875702" lon="-21.91879463"><ele>69.3</ele><time>2012-07-28T14:54:06.0000000+00:00</time></trkpt><trkpt lat="63.85869598" lon="-21.91911888"><ele>72.9</ele><time>2012-07-28T14:54:11.0000000+00:00</time></trkpt><trkpt lat="63.85863495" lon="-21.91944313"><ele>72.9</ele><time>2012-07-28T14:54:16.0000000+00:00</time></trkpt><trkpt lat="63.85854721" lon="-21.91983986"><ele>68.8</ele><time>2012-07-28T14:54:21.0000000+00:00</time></trkpt><trkpt lat="63.85844803" lon="-21.92024422"><ele>65.9</ele><time>2012-07-28T14:54:26.0000000+00:00</time></trkpt><trkpt lat="63.85835648" lon="-21.92068291"><ele>67.2</ele><time>2012-07-28T14:54:31.0000000+00:00</time></trkpt><trkpt lat="63.85825348" lon="-21.92111969"><ele>65.3</ele><time>2012-07-28T14:54:36.0000000+00:00</time></trkpt><trkpt lat="63.85813522" lon="-21.92161751"><ele>66.0</ele><time>2012-07-28T14:54:41.0000000+00:00</time></trkpt><trkpt lat="63.85801315" lon="-21.92217636"><ele>65.4</ele><time>2012-07-28T14:54:46.0000000+00:00</time></trkpt><trkpt lat="63.85787201" lon="-21.92278099"><ele>64.5</ele><time>2012-07-28T14:54:51.0000000+00:00</time></trkpt><trkpt lat="63.85771942" lon="-21.9234314"><ele>67.1</ele><time>2012-07-28T14:54:56.0000000+00:00</time></trkpt><trkpt lat="63.85755539" lon="-21.92414284"><ele>70.7</ele><time>2012-07-28T14:55:01.0000000+00:00</time></trkpt><trkpt lat="63.85736847" lon="-21.92486382"><ele>69.7</ele><time>2012-07-28T14:55:06.0000000+00:00</time></trkpt><trkpt lat="63.85718155" lon="-21.92558479"><ele>66.8</ele><time>2012-07-28T14:55:11.0000000+00:00</time></trkpt><trkpt lat="63.85697937" lon="-21.92629814"><ele>65.7</ele><time>2012-07-28T14:55:16.0000000+00:00</time></trkpt><trkpt lat="63.85679245" lon="-21.92697907"><ele>64.3</ele><time>2012-07-28T14:55:21.0000000+00:00</time></trkpt><trkpt lat="63.85660172" lon="-21.92757607"><ele>59.8</ele><time>2012-07-28T14:55:26.0000000+00:00</time></trkpt><trkpt lat="63.85642242" lon="-21.9281559"><ele>57.2</ele><time>2012-07-28T14:55:31.0000000+00:00</time></trkpt><trkpt lat="63.85623169" lon="-21.92878151"><ele>55.9</ele><time>2012-07-28T14:55:36.0000000+00:00</time></trkpt><trkpt lat="63.85602951" lon="-21.92943955"><ele>53.5</ele><time>2012-07-28T14:55:41.0000000+00:00</time></trkpt><trkpt lat="63.85582733" lon="-21.93010902"><ele>50.8</ele><time>2012-07-28T14:55:46.0000000+00:00</time></trkpt><trkpt lat="63.85564804" lon="-21.93070412"><ele>50.1</ele><time>2012-07-28T14:55:51.0000000+00:00</time></trkpt><trkpt lat="63.85547257" lon="-21.93128014"><ele>48.3</ele><time>2012-07-28T14:55:56.0000000+00:00</time></trkpt><trkpt lat="63.85530853" lon="-21.93185616"><ele>46.7</ele><time>2012-07-28T14:56:01.0000000+00:00</time></trkpt><trkpt lat="63.85519028" lon="-21.9322834"><ele>46.0</ele><time>2012-07-28T14:56:06.0000000+00:00</time></trkpt><trkpt lat="63.85509872" lon="-21.93257904"><ele>46.2</ele><time>2012-07-28T14:56:11.0000000+00:00</time></trkpt><trkpt lat="63.85502243" lon="-21.93287277"><ele>46.7</ele><time>2012-07-28T14:56:16.0000000+00:00</time></trkpt><trkpt lat="63.85495377" lon="-21.93318939"><ele>45.4</ele><time>2012-07-28T14:56:21.0000000+00:00</time></trkpt><trkpt lat="63.85489273" lon="-21.93338394"><ele>46.8</ele><time>2012-07-28T14:56:26.0000000+00:00</time></trkpt><trkpt lat="63.8548584" lon="-21.93356895"><ele>46.3</ele><time>2012-07-28T14:56:31.0000000+00:00</time></trkpt><trkpt lat="63.85480881" lon="-21.93381119"><ele>46.8</ele><time>2012-07-28T14:56:36.0000000+00:00</time></trkpt><trkpt lat="63.85474777" lon="-21.9340725"><ele>47.2</ele><time>2012-07-28T14:56:41.0000000+00:00</time></trkpt><trkpt lat="63.85469055" lon="-21.93433952"><ele>47.8</ele><time>2012-07-28T14:56:46.0000000+00:00</time></trkpt><trkpt lat="63.85463715" lon="-21.93459702"><ele>48.6</ele><time>2012-07-28T14:56:51.0000000+00:00</time></trkpt><trkpt lat="63.85457993" lon="-21.93486977"><ele>49.1</ele><time>2012-07-28T14:56:56.0000000+00:00</time></trkpt><trkpt lat="63.85452271" lon="-21.9351368"><ele>49.7</ele><time>2012-07-28T14:57:01.0000000+00:00</time></trkpt><trkpt lat="63.85447693" lon="-21.93540573"><ele>50.4</ele><time>2012-07-28T14:57:06.0000000+00:00</time></trkpt><trkpt lat="63.85442352" lon="-21.93567848"><ele>51.2</ele><time>2012-07-28T14:57:11.0000000+00:00</time></trkpt><trkpt lat="63.85437393" lon="-21.93597603"><ele>51.9</ele><time>2012-07-28T14:57:16.0000000+00:00</time></trkpt><trkpt lat="63.85432434" lon="-21.93628502"><ele>52.1</ele><time>2012-07-28T14:57:21.0000000+00:00</time></trkpt><trkpt lat="63.85427475" lon="-21.93661118"><ele>52.5</ele><time>2012-07-28T14:57:26.0000000+00:00</time></trkpt><trkpt lat="63.85422516" lon="-21.93692589"><ele>52.7</ele><time>2012-07-28T14:57:31.0000000+00:00</time></trkpt><trkpt lat="63.85419464" lon="-21.93714905"><ele>52.8</ele><time>2012-07-28T14:57:36.0000000+00:00</time></trkpt><trkpt lat="63.85416031" lon="-21.93729401"><ele>53.0</ele><time>2012-07-28T14:57:41.0000000+00:00</time></trkpt><trkpt lat="63.85411835" lon="-21.93757629"><ele>53.5</ele><time>2012-07-28T14:57:46.0000000+00:00</time></trkpt><trkpt lat="63.85406876" lon="-21.93788338"><ele>54.2</ele><time>2012-07-28T14:57:51.0000000+00:00</time></trkpt><trkpt lat="63.85403061" lon="-21.9382019"><ele>54.7</ele><time>2012-07-28T14:57:56.0000000+00:00</time></trkpt><trkpt lat="63.85398865" lon="-21.93850708"><ele>55.3</ele><time>2012-07-28T14:58:01.0000000+00:00</time></trkpt><trkpt lat="63.85395432" lon="-21.93872261"><ele>55.7</ele><time>2012-07-28T14:58:06.0000000+00:00</time></trkpt><trkpt lat="63.85391998" lon="-21.9390049"><ele>56.4</ele><time>2012-07-28T14:58:11.0000000+00:00</time></trkpt><trkpt lat="63.85388565" lon="-21.93929863"><ele>57.1</ele><time>2012-07-28T14:58:16.0000000+00:00</time></trkpt><trkpt lat="63.85385132" lon="-21.93961716"><ele>57.6</ele><time>2012-07-28T14:58:21.0000000+00:00</time></trkpt><trkpt lat="63.85381317" lon="-21.9399395"><ele>58.3</ele><time>2012-07-28T14:58:26.0000000+00:00</time></trkpt><trkpt lat="63.85377502" lon="-21.94027138"><ele>59.2</ele><time>2012-07-28T14:58:31.0000000+00:00</time></trkpt><trkpt lat="63.85374069" lon="-21.94059753"><ele>59.8</ele><time>2012-07-28T14:58:36.0000000+00:00</time></trkpt><trkpt lat="63.85371399" lon="-21.94087029"><ele>60.6</ele><time>2012-07-28T14:58:41.0000000+00:00</time></trkpt><trkpt lat="63.85368729" lon="-21.94113541"><ele>61.2</ele><time>2012-07-28T14:58:46.0000000+00:00</time></trkpt><trkpt lat="63.85366821" lon="-21.94135094"><ele>61.7</ele><time>2012-07-28T14:58:51.0000000+00:00</time></trkpt><trkpt lat="63.85365295" lon="-21.9415741"><ele>62.3</ele><time>2012-07-28T14:58:56.0000000+00:00</time></trkpt><trkpt lat="63.85363388" lon="-21.94179153"><ele>62.8</ele><time>2012-07-28T14:59:01.0000000+00:00</time></trkpt><trkpt lat="63.85361862" lon="-21.94202805"><ele>63.3</ele><time>2012-07-28T14:59:06.0000000+00:00</time></trkpt><trkpt lat="63.85360336" lon="-21.94223976"><ele>63.8</ele><time>2012-07-28T14:59:11.0000000+00:00</time></trkpt><trkpt lat="63.85358429" lon="-21.94247627"><ele>64.4</ele><time>2012-07-28T14:59:16.0000000+00:00</time></trkpt><trkpt lat="63.85356903" lon="-21.94270706"><ele>65.2</ele><time>2012-07-28T14:59:21.0000000+00:00</time></trkpt><trkpt lat="63.85355377" lon="-21.94290924"><ele>65.6</ele><time>2012-07-28T14:59:26.0000000+00:00</time></trkpt><trkpt lat="63.85354233" lon="-21.94309235"><ele>66.2</ele><time>2012-07-28T14:59:31.0000000+00:00</time></trkpt><trkpt lat="63.85352707" lon="-21.94329262"><ele>66.6</ele><time>2012-07-28T14:59:36.0000000+00:00</time></trkpt><trkpt lat="63.85351944" lon="-21.94350243"><ele>67.1</ele><time>2012-07-28T14:59:41.0000000+00:00</time></trkpt><trkpt lat="63.853508" lon="-21.94371033"><ele>67.1</ele><time>2012-07-28T14:59:46.0000000+00:00</time></trkpt><trkpt lat="63.85349274" lon="-21.94393349"><ele>67.4</ele><time>2012-07-28T14:59:51.0000000+00:00</time></trkpt><trkpt lat="63.85348511" lon="-21.94415093"><ele>67.9</ele><time>2012-07-28T14:59:56.0000000+00:00</time></trkpt><trkpt lat="63.85346985" lon="-21.94436455"><ele>68.4</ele><time>2012-07-28T15:00:01.0000000+00:00</time></trkpt><trkpt lat="63.85346222" lon="-21.94457626"><ele>69.0</ele><time>2012-07-28T15:00:06.0000000+00:00</time></trkpt><trkpt lat="63.85345078" lon="-21.94479561"><ele>69.5</ele><time>2012-07-28T15:00:11.0000000+00:00</time></trkpt><trkpt lat="63.85343552" lon="-21.94502449"><ele>70.2</ele><time>2012-07-28T15:00:16.0000000+00:00</time></trkpt><trkpt lat="63.85342407" lon="-21.94524384"><ele>70.6</ele><time>2012-07-28T15:00:21.0000000+00:00</time></trkpt><trkpt lat="63.85341644" lon="-21.94545174"><ele>71.3</ele><time>2012-07-28T15:00:26.0000000+00:00</time></trkpt><trkpt lat="63.853405" lon="-21.9456749"><ele>71.6</ele><time>2012-07-28T15:00:31.0000000+00:00</time></trkpt><trkpt lat="63.85339737" lon="-21.94588661"><ele>72.3</ele><time>2012-07-28T15:00:36.0000000+00:00</time></trkpt><trkpt lat="63.85339356" lon="-21.94609833"><ele>72.8</ele><time>2012-07-28T15:00:41.0000000+00:00</time></trkpt><trkpt lat="63.85338974" lon="-21.94631195"><ele>73.2</ele><time>2012-07-28T15:00:46.0000000+00:00</time></trkpt><trkpt lat="63.85338974" lon="-21.94654656"><ele>73.7</ele><time>2012-07-28T15:00:51.0000000+00:00</time></trkpt><trkpt lat="63.85338593" lon="-21.94679833"><ele>74.2</ele><time>2012-07-28T15:00:56.0000000+00:00</time></trkpt><trkpt lat="63.85338593" lon="-21.94702911"><ele>74.5</ele><time>2012-07-28T15:01:01.0000000+00:00</time></trkpt><trkpt lat="63.8533783" lon="-21.94723892"><ele>74.6</ele><time>2012-07-28T15:01:06.0000000+00:00</time></trkpt><trkpt lat="63.8533783" lon="-21.94745827"><ele>74.7</ele><time>2012-07-28T15:01:11.0000000+00:00</time></trkpt><trkpt lat="63.8533783" lon="-21.9476738"><ele>74.9</ele><time>2012-07-28T15:01:16.0000000+00:00</time></trkpt><trkpt lat="63.85337448" lon="-21.94788361"><ele>74.7</ele><time>2012-07-28T15:01:21.0000000+00:00</time></trkpt><trkpt lat="63.85336685" lon="-21.94812775"><ele>74.4</ele><time>2012-07-28T15:01:26.0000000+00:00</time></trkpt><trkpt lat="63.85336685" lon="-21.94836807"><ele>74.5</ele><time>2012-07-28T15:01:31.0000000+00:00</time></trkpt><trkpt lat="63.85337067" lon="-21.94860077"><ele>74.4</ele><time>2012-07-28T15:01:36.0000000+00:00</time></trkpt><trkpt lat="63.85336685" lon="-21.94883728"><ele>75.3</ele><time>2012-07-28T15:01:41.0000000+00:00</time></trkpt><trkpt lat="63.85336304" lon="-21.94901085"><ele>75.8</ele><time>2012-07-28T15:01:46.0000000+00:00</time></trkpt><trkpt lat="63.85335541" lon="-21.94917679"><ele>75.3</ele><time>2012-07-28T15:01:51.0000000+00:00</time></trkpt><trkpt lat="63.85335159" lon="-21.94944954"><ele>75.6</ele><time>2012-07-28T15:01:56.0000000+00:00</time></trkpt><trkpt lat="63.85335159" lon="-21.94973183"><ele>76.2</ele><time>2012-07-28T15:02:01.0000000+00:00</time></trkpt><trkpt lat="63.85334778" lon="-21.95000839"><ele>76.8</ele><time>2012-07-28T15:02:06.0000000+00:00</time></trkpt><trkpt lat="63.85335541" lon="-21.95024872"><ele>77.7</ele><time>2012-07-28T15:02:11.0000000+00:00</time></trkpt><trkpt lat="63.85335159" lon="-21.95047188"><ele>79.3</ele><time>2012-07-28T15:02:16.0000000+00:00</time></trkpt><trkpt lat="63.85333252" lon="-21.95075798"><ele>78.2</ele><time>2012-07-28T15:02:21.0000000+00:00</time></trkpt><trkpt lat="63.85333252" lon="-21.95102501"><ele>77.5</ele><time>2012-07-28T15:02:26.0000000+00:00</time></trkpt><trkpt lat="63.85332489" lon="-21.95126724"><ele>76.3</ele><time>2012-07-28T15:02:31.0000000+00:00</time></trkpt><trkpt lat="63.85331345" lon="-21.9514885"><ele>77.0</ele><time>2012-07-28T15:02:36.0000000+00:00</time></trkpt><trkpt lat="63.85330582" lon="-21.95175362"><ele>79.0</ele><time>2012-07-28T15:02:41.0000000+00:00</time></trkpt><trkpt lat="63.85329819" lon="-21.95195961"><ele>79.1</ele><time>2012-07-28T15:02:46.0000000+00:00</time></trkpt><trkpt lat="63.85329056" lon="-21.95214844"><ele>79.9</ele><time>2012-07-28T15:02:51.0000000+00:00</time></trkpt><trkpt lat="63.85327911" lon="-21.95240974"><ele>80.9</ele><time>2012-07-28T15:02:56.0000000+00:00</time></trkpt><trkpt lat="63.8532753" lon="-21.95264244"><ele>83.3</ele><time>2012-07-28T15:03:01.0000000+00:00</time></trkpt><trkpt lat="63.85326767" lon="-21.95290184"><ele>84.2</ele><time>2012-07-28T15:03:06.0000000+00:00</time></trkpt><trkpt lat="63.85325623" lon="-21.95320702"><ele>83.2</ele><time>2012-07-28T15:03:11.0000000+00:00</time></trkpt><trkpt lat="63.85324478" lon="-21.95346642"><ele>83.0</ele><time>2012-07-28T15:03:16.0000000+00:00</time></trkpt><trkpt lat="63.85323715" lon="-21.95354652"><ele>83.2</ele><time>2012-07-28T15:03:21.0000000+00:00</time></trkpt><trkpt lat="63.85323715" lon="-21.95354462"><ele>83.1</ele><time>2012-07-28T15:03:26.0000000+00:00</time></trkpt><trkpt lat="63.85323715" lon="-21.95354271"><ele>83.1</ele><time>2012-07-28T15:03:31.0000000+00:00</time></trkpt><trkpt lat="63.85323715" lon="-21.95354271"><ele>83.0</ele><time>2012-07-28T15:03:36.0000000+00:00</time></trkpt><trkpt lat="63.85323715" lon="-21.95354271"><ele>83.0</ele><time>2012-07-28T15:03:41.0000000+00:00</time></trkpt><trkpt lat="63.85323715" lon="-21.95354271"><ele>83.0</ele><time>2012-07-28T15:03:46.0000000+00:00</time></trkpt><trkpt lat="63.85323715" lon="-21.95354271"><ele>82.9</ele><time>2012-07-28T15:03:51.0000000+00:00</time></trkpt><trkpt lat="63.85323715" lon="-21.9535408"><ele>82.9</ele><time>2012-07-28T15:03:56.0000000+00:00</time></trkpt><trkpt lat="63.85323334" lon="-21.95355606"><ele>82.9</ele><time>2012-07-28T15:04:01.0000000+00:00</time></trkpt><trkpt lat="63.85321808" lon="-21.95375443"><ele>83.5</ele><time>2012-07-28T15:04:06.0000000+00:00</time></trkpt><trkpt lat="63.85321045" lon="-21.95406532"><ele>83.6</ele><time>2012-07-28T15:04:11.0000000+00:00</time></trkpt><trkpt lat="63.85320282" lon="-21.95433807"><ele>83.9</ele><time>2012-07-28T15:04:16.0000000+00:00</time></trkpt><trkpt lat="63.85320282" lon="-21.95439529"><ele>84.0</ele><time>2012-07-28T15:04:21.0000000+00:00</time></trkpt><trkpt lat="63.85320664" lon="-21.95438385"><ele>83.9</ele><time>2012-07-28T15:04:26.0000000+00:00</time></trkpt><trkpt lat="63.85320664" lon="-21.95438385"><ele>84.0</ele><time>2012-07-28T15:04:31.0000000+00:00</time></trkpt><trkpt lat="63.85320664" lon="-21.95438194"><ele>84.0</ele><time>2012-07-28T15:04:36.0000000+00:00</time></trkpt><trkpt lat="63.85320664" lon="-21.95438194"><ele>84.0</ele><time>2012-07-28T15:04:41.0000000+00:00</time></trkpt><trkpt lat="63.85320664" lon="-21.95438194"><ele>83.9</ele><time>2012-07-28T15:04:46.0000000+00:00</time></trkpt><trkpt lat="63.85320664" lon="-21.95438194"><ele>83.9</ele><time>2012-07-28T15:04:51.0000000+00:00</time></trkpt><trkpt lat="63.85320664" lon="-21.95438194"><ele>83.9</ele><time>2012-07-28T15:04:56.0000000+00:00</time></trkpt><trkpt lat="63.85319901" lon="-21.95444489"><ele>83.6</ele><time>2012-07-28T15:05:01.0000000+00:00</time></trkpt><trkpt lat="63.85318375" lon="-21.95474243"><ele>83.2</ele><time>2012-07-28T15:05:06.0000000+00:00</time></trkpt><trkpt lat="63.85316467" lon="-21.95512009"><ele>83.1</ele><time>2012-07-28T15:05:11.0000000+00:00</time></trkpt><trkpt lat="63.8531456" lon="-21.95551109"><ele>83.1</ele><time>2012-07-28T15:05:16.0000000+00:00</time></trkpt><trkpt lat="63.8531189" lon="-21.95590019"><ele>83.3</ele><time>2012-07-28T15:05:21.0000000+00:00</time></trkpt><trkpt lat="63.85309219" lon="-21.95628738"><ele>83.3</ele><time>2012-07-28T15:05:26.0000000+00:00</time></trkpt><trkpt lat="63.85306931" lon="-21.95662308"><ele>83.1</ele><time>2012-07-28T15:05:31.0000000+00:00</time></trkpt><trkpt lat="63.85303116" lon="-21.95700264"><ele>82.5</ele><time>2012-07-28T15:05:36.0000000+00:00</time></trkpt><trkpt lat="63.85300827" lon="-21.95731545"><ele>82.4</ele><time>2012-07-28T15:05:41.0000000+00:00</time></trkpt><trkpt lat="63.8529892" lon="-21.95755577"><ele>82.6</ele><time>2012-07-28T15:05:46.0000000+00:00</time></trkpt><trkpt lat="63.85296631" lon="-21.95779991"><ele>82.2</ele><time>2012-07-28T15:05:51.0000000+00:00</time></trkpt><trkpt lat="63.85294724" lon="-21.95807457"><ele>82.6</ele><time>2012-07-28T15:05:56.0000000+00:00</time></trkpt><trkpt lat="63.85292053" lon="-21.95825577"><ele>82.1</ele><time>2012-07-28T15:06:01.0000000+00:00</time></trkpt><trkpt lat="63.85289383" lon="-21.95849228"><ele>81.5</ele><time>2012-07-28T15:06:06.0000000+00:00</time></trkpt><trkpt lat="63.85287857" lon="-21.9587822"><ele>81.6</ele><time>2012-07-28T15:06:11.0000000+00:00</time></trkpt><trkpt lat="63.85285187" lon="-21.959095"><ele>81.4</ele><time>2012-07-28T15:06:16.0000000+00:00</time></trkpt><trkpt lat="63.85281754" lon="-21.95941734"><ele>81.5</ele><time>2012-07-28T15:06:21.0000000+00:00</time></trkpt><trkpt lat="63.85277939" lon="-21.95973587"><ele>81.1</ele><time>2012-07-28T15:06:26.0000000+00:00</time></trkpt><trkpt lat="63.8527565" lon="-21.96002388"><ele>81.6</ele><time>2012-07-28T15:06:31.0000000+00:00</time></trkpt><trkpt lat="63.85272598" lon="-21.96037483"><ele>81.8</ele><time>2012-07-28T15:06:36.0000000+00:00</time></trkpt><trkpt lat="63.85268784" lon="-21.96071053"><ele>81.4</ele><time>2012-07-28T15:06:41.0000000+00:00</time></trkpt><trkpt lat="63.85264587" lon="-21.96106339"><ele>81.3</ele><time>2012-07-28T15:06:46.0000000+00:00</time></trkpt><trkpt lat="63.85260773" lon="-21.96137238"><ele>80.9</ele><time>2012-07-28T15:06:51.0000000+00:00</time></trkpt><trkpt lat="63.85257721" lon="-21.96164513"><ele>81.3</ele><time>2012-07-28T15:06:56.0000000+00:00</time></trkpt><trkpt lat="63.85253525" lon="-21.96198082"><ele>80.9</ele><time>2012-07-28T15:07:01.0000000+00:00</time></trkpt><trkpt lat="63.85250092" lon="-21.96222687"><ele>80.9</ele><time>2012-07-28T15:07:06.0000000+00:00</time></trkpt><trkpt lat="63.85245895" lon="-21.96251679"><ele>80.6</ele><time>2012-07-28T15:07:11.0000000+00:00</time></trkpt><trkpt lat="63.85242081" lon="-21.96280098"><ele>80.6</ele><time>2012-07-28T15:07:16.0000000+00:00</time></trkpt><trkpt lat="63.85238648" lon="-21.96307945"><ele>79.9</ele><time>2012-07-28T15:07:21.0000000+00:00</time></trkpt><trkpt lat="63.85233688" lon="-21.96339798"><ele>79.0</ele><time>2012-07-28T15:07:26.0000000+00:00</time></trkpt><trkpt lat="63.85230637" lon="-21.96369171"><ele>79.5</ele><time>2012-07-28T15:07:31.0000000+00:00</time></trkpt><trkpt lat="63.85226059" lon="-21.96403122"><ele>79.6</ele><time>2012-07-28T15:07:36.0000000+00:00</time></trkpt><trkpt lat="63.85220718" lon="-21.96437454"><ele>79.6</ele><time>2012-07-28T15:07:41.0000000+00:00</time></trkpt><trkpt lat="63.85216141" lon="-21.96471596"><ele>79.6</ele><time>2012-07-28T15:07:46.0000000+00:00</time></trkpt><trkpt lat="63.85210419" lon="-21.96509743"><ele>80.3</ele><time>2012-07-28T15:07:51.0000000+00:00</time></trkpt><trkpt lat="63.85205841" lon="-21.96539116"><ele>80.7</ele><time>2012-07-28T15:07:56.0000000+00:00</time></trkpt><trkpt lat="63.85202026" lon="-21.96569824"><ele>81.2</ele><time>2012-07-28T15:08:01.0000000+00:00</time></trkpt><trkpt lat="63.85197067" lon="-21.96604729"><ele>82.0</ele><time>2012-07-28T15:08:06.0000000+00:00</time></trkpt><trkpt lat="63.85192871" lon="-21.96632004"><ele>82.3</ele><time>2012-07-28T15:08:11.0000000+00:00</time></trkpt><trkpt lat="63.85189056" lon="-21.96660614"><ele>82.9</ele><time>2012-07-28T15:08:16.0000000+00:00</time></trkpt><trkpt lat="63.85185242" lon="-21.96688843"><ele>83.4</ele><time>2012-07-28T15:08:21.0000000+00:00</time></trkpt><trkpt lat="63.85181809" lon="-21.96718597"><ele>83.5</ele><time>2012-07-28T15:08:26.0000000+00:00</time></trkpt><trkpt lat="63.85177994" lon="-21.96748734"><ele>84.1</ele><time>2012-07-28T15:08:31.0000000+00:00</time></trkpt><trkpt lat="63.85173035" lon="-21.9678154"><ele>84.8</ele><time>2012-07-28T15:08:36.0000000+00:00</time></trkpt><trkpt lat="63.85170364" lon="-21.96806335"><ele>85.4</ele><time>2012-07-28T15:08:41.0000000+00:00</time></trkpt><trkpt lat="63.8516655" lon="-21.96837425"><ele>86.1</ele><time>2012-07-28T15:08:46.0000000+00:00</time></trkpt><trkpt lat="63.85163117" lon="-21.96869278"><ele>87.2</ele><time>2012-07-28T15:08:51.0000000+00:00</time></trkpt><trkpt lat="63.85159683" lon="-21.9689827"><ele>88.0</ele><time>2012-07-28T15:08:56.0000000+00:00</time></trkpt><trkpt lat="63.8515625" lon="-21.96930313"><ele>88.8</ele><time>2012-07-28T15:09:01.0000000+00:00</time></trkpt><trkpt lat="63.85152054" lon="-21.96963501"><ele>89.4</ele><time>2012-07-28T15:09:06.0000000+00:00</time></trkpt><trkpt lat="63.85148239" lon="-21.96995735"><ele>89.9</ele><time>2012-07-28T15:09:11.0000000+00:00</time></trkpt><trkpt lat="63.85145187" lon="-21.9702816"><ele>90.7</ele><time>2012-07-28T15:09:16.0000000+00:00</time></trkpt><trkpt lat="63.85141373" lon="-21.97058868"><ele>91.5</ele><time>2012-07-28T15:09:21.0000000+00:00</time></trkpt><trkpt lat="63.8513794" lon="-21.97086906"><ele>91.9</ele><time>2012-07-28T15:09:26.0000000+00:00</time></trkpt><trkpt lat="63.85134506" lon="-21.9711895"><ele>92.5</ele><time>2012-07-28T15:09:31.0000000+00:00</time></trkpt><trkpt lat="63.85130692" lon="-21.97152138"><ele>93.1</ele><time>2012-07-28T15:09:36.0000000+00:00</time></trkpt><trkpt lat="63.85126877" lon="-21.97184753"><ele>93.4</ele><time>2012-07-28T15:09:41.0000000+00:00</time></trkpt><trkpt lat="63.85123825" lon="-21.97215462"><ele>93.7</ele><time>2012-07-28T15:09:46.0000000+00:00</time></trkpt><trkpt lat="63.85120392" lon="-21.9724865"><ele>94.3</ele><time>2012-07-28T15:09:51.0000000+00:00</time></trkpt><trkpt lat="63.85116959" lon="-21.97284126"><ele>94.5</ele><time>2012-07-28T15:09:56.0000000+00:00</time></trkpt><trkpt lat="63.85113525" lon="-21.97317314"><ele>95.3</ele><time>2012-07-28T15:10:01.0000000+00:00</time></trkpt><trkpt lat="63.85110855" lon="-21.97348595"><ele>95.9</ele><time>2012-07-28T15:10:06.0000000+00:00</time></trkpt><trkpt lat="63.85108948" lon="-21.97368813"><ele>96.1</ele><time>2012-07-28T15:10:11.0000000+00:00</time></trkpt><trkpt lat="63.8510704" lon="-21.97392845"><ele>95.7</ele><time>2012-07-28T15:10:16.0000000+00:00</time></trkpt><trkpt lat="63.85103226" lon="-21.97425842"><ele>96.2</ele><time>2012-07-28T15:10:21.0000000+00:00</time></trkpt><trkpt lat="63.85100555" lon="-21.97455597"><ele>97.0</ele><time>2012-07-28T15:10:26.0000000+00:00</time></trkpt><trkpt lat="63.85097885" lon="-21.97487068"><ele>97.9</ele><time>2012-07-28T15:10:31.0000000+00:00</time></trkpt><trkpt lat="63.85095978" lon="-21.97509575"><ele>97.4</ele><time>2012-07-28T15:10:36.0000000+00:00</time></trkpt><trkpt lat="63.8509407" lon="-21.97532082"><ele>98.2</ele><time>2012-07-28T15:10:41.0000000+00:00</time></trkpt><trkpt lat="63.85091782" lon="-21.97562218"><ele>98.6</ele><time>2012-07-28T15:10:46.0000000+00:00</time></trkpt><trkpt lat="63.85089493" lon="-21.97594452"><ele>98.6</ele><time>2012-07-28T15:10:51.0000000+00:00</time></trkpt><trkpt lat="63.85086441" lon="-21.97630692"><ele>98.7</ele><time>2012-07-28T15:10:56.0000000+00:00</time></trkpt><trkpt lat="63.85083771" lon="-21.97669601"><ele>99.4</ele><time>2012-07-28T15:11:01.0000000+00:00</time></trkpt><trkpt lat="63.85081101" lon="-21.9770565"><ele>99.7</ele><time>2012-07-28T15:11:06.0000000+00:00</time></trkpt><trkpt lat="63.85079193" lon="-21.97728539"><ele>99.9</ele><time>2012-07-28T15:11:11.0000000+00:00</time></trkpt><trkpt lat="63.85077286" lon="-21.97758102"><ele>100.5</ele><time>2012-07-28T15:11:16.0000000+00:00</time></trkpt><trkpt lat="63.8507576" lon="-21.97781754"><ele>100.5</ele><time>2012-07-28T15:11:21.0000000+00:00</time></trkpt><trkpt lat="63.8507309" lon="-21.97812271"><ele>100.6</ele><time>2012-07-28T15:11:26.0000000+00:00</time></trkpt><trkpt lat="63.85070419" lon="-21.97844124"><ele>101.2</ele><time>2012-07-28T15:11:31.0000000+00:00</time></trkpt><trkpt lat="63.85068512" lon="-21.97875977"><ele>101.3</ele><time>2012-07-28T15:11:36.0000000+00:00</time></trkpt><trkpt lat="63.85066223" lon="-21.97896195"><ele>101.4</ele><time>2012-07-28T15:11:41.0000000+00:00</time></trkpt><trkpt lat="63.85064697" lon="-21.9792366"><ele>101.2</ele><time>2012-07-28T15:11:46.0000000+00:00</time></trkpt><trkpt lat="63.85063171" lon="-21.97961807"><ele>102.3</ele><time>2012-07-28T15:11:51.0000000+00:00</time></trkpt><trkpt lat="63.85061646" lon="-21.97997093"><ele>103.3</ele><time>2012-07-28T15:11:56.0000000+00:00</time></trkpt><trkpt lat="63.85059738" lon="-21.98024178"><ele>103.4</ele><time>2012-07-28T15:12:01.0000000+00:00</time></trkpt><trkpt lat="63.85057831" lon="-21.9805851"><ele>103.9</ele><time>2012-07-28T15:12:06.0000000+00:00</time></trkpt><trkpt lat="63.85055542" lon="-21.98097611"><ele>105.2</ele><time>2012-07-28T15:12:11.0000000+00:00</time></trkpt><trkpt lat="63.85054398" lon="-21.98129845"><ele>105.8</ele><time>2012-07-28T15:12:16.0000000+00:00</time></trkpt><trkpt lat="63.8505249" lon="-21.98163605"><ele>106.3</ele><time>2012-07-28T15:12:21.0000000+00:00</time></trkpt><trkpt lat="63.85050583" lon="-21.98199844"><ele>106.4</ele><time>2012-07-28T15:12:26.0000000+00:00</time></trkpt><trkpt lat="63.85049439" lon="-21.98229218"><ele>106.8</ele><time>2012-07-28T15:12:31.0000000+00:00</time></trkpt><trkpt lat="63.85048294" lon="-21.9826088"><ele>106.8</ele><time>2012-07-28T15:12:36.0000000+00:00</time></trkpt><trkpt lat="63.85046387" lon="-21.98295021"><ele>107.0</ele><time>2012-07-28T15:12:41.0000000+00:00</time></trkpt><trkpt lat="63.85044861" lon="-21.98331261"><ele>107.4</ele><time>2012-07-28T15:12:46.0000000+00:00</time></trkpt><trkpt lat="63.85044098" lon="-21.98368454"><ele>108.0</ele><time>2012-07-28T15:12:51.0000000+00:00</time></trkpt><trkpt lat="63.85042572" lon="-21.98407745"><ele>107.9</ele><time>2012-07-28T15:12:56.0000000+00:00</time></trkpt><trkpt lat="63.85041046" lon="-21.9844799"><ele>107.6</ele><time>2012-07-28T15:13:01.0000000+00:00</time></trkpt><trkpt lat="63.85039902" lon="-21.98489189"><ele>107.6</ele><time>2012-07-28T15:13:06.0000000+00:00</time></trkpt><trkpt lat="63.85037994" lon="-21.98528862"><ele>107.5</ele><time>2012-07-28T15:13:11.0000000+00:00</time></trkpt><trkpt lat="63.85036469" lon="-21.98570252"><ele>107.8</ele><time>2012-07-28T15:13:16.0000000+00:00</time></trkpt><trkpt lat="63.85035324" lon="-21.98603058"><ele>107.9</ele><time>2012-07-28T15:13:21.0000000+00:00</time></trkpt><trkpt lat="63.85035324" lon="-21.98633385"><ele>108.0</ele><time>2012-07-28T15:13:26.0000000+00:00</time></trkpt><trkpt lat="63.85034943" lon="-21.98671341"><ele>108.6</ele><time>2012-07-28T15:13:31.0000000+00:00</time></trkpt><trkpt lat="63.8503418" lon="-21.9871006"><ele>108.5</ele><time>2012-07-28T15:13:36.0000000+00:00</time></trkpt><trkpt lat="63.85033417" lon="-21.98739815"><ele>108.9</ele><time>2012-07-28T15:13:41.0000000+00:00</time></trkpt><trkpt lat="63.85033035" lon="-21.98774338"><ele>108.8</ele><time>2012-07-28T15:13:46.0000000+00:00</time></trkpt><trkpt lat="63.85032272" lon="-21.98806953"><ele>108.7</ele><time>2012-07-28T15:13:51.0000000+00:00</time></trkpt><trkpt lat="63.85032654" lon="-21.98830032"><ele>108.8</ele><time>2012-07-28T15:13:56.0000000+00:00</time></trkpt><trkpt lat="63.85031891" lon="-21.98856354"><ele>108.6</ele><time>2012-07-28T15:14:01.0000000+00:00</time></trkpt><trkpt lat="63.85031891" lon="-21.98884392"><ele>108.3</ele><time>2012-07-28T15:14:06.0000000+00:00</time></trkpt><trkpt lat="63.85031509" lon="-21.98912048"><ele>108.2</ele><time>2012-07-28T15:14:11.0000000+00:00</time></trkpt><trkpt lat="63.85031891" lon="-21.98941612"><ele>108.4</ele><time>2012-07-28T15:14:16.0000000+00:00</time></trkpt><trkpt lat="63.85031509" lon="-21.98970032"><ele>108.2</ele><time>2012-07-28T15:14:21.0000000+00:00</time></trkpt><trkpt lat="63.85031509" lon="-21.98999023"><ele>107.9</ele><time>2012-07-28T15:14:26.0000000+00:00</time></trkpt><trkpt lat="63.85031891" lon="-21.99031448"><ele>107.8</ele><time>2012-07-28T15:14:31.0000000+00:00</time></trkpt><trkpt lat="63.85031891" lon="-21.99066544"><ele>107.6</ele><time>2012-07-28T15:14:36.0000000+00:00</time></trkpt><trkpt lat="63.85032272" lon="-21.99103737"><ele>107.5</ele><time>2012-07-28T15:14:41.0000000+00:00</time></trkpt><trkpt lat="63.85031891" lon="-21.99141884"><ele>107.2</ele><time>2012-07-28T15:14:46.0000000+00:00</time></trkpt><trkpt lat="63.85032654" lon="-21.99177361"><ele>106.8</ele><time>2012-07-28T15:14:51.0000000+00:00</time></trkpt><trkpt lat="63.85032654" lon="-21.99199486"><ele>106.5</ele><time>2012-07-28T15:14:56.0000000+00:00</time></trkpt><trkpt lat="63.85033035" lon="-21.9922123"><ele>106.6</ele><time>2012-07-28T15:15:01.0000000+00:00</time></trkpt><trkpt lat="63.85033798" lon="-21.99254417"><ele>106.1</ele><time>2012-07-28T15:15:06.0000000+00:00</time></trkpt><trkpt lat="63.85033417" lon="-21.9928112"><ele>105.3</ele><time>2012-07-28T15:15:11.0000000+00:00</time></trkpt><trkpt lat="63.85034561" lon="-21.99304962"><ele>104.7</ele><time>2012-07-28T15:15:16.0000000+00:00</time></trkpt><trkpt lat="63.85034561" lon="-21.99341393"><ele>104.8</ele><time>2012-07-28T15:15:21.0000000+00:00</time></trkpt><trkpt lat="63.85035324" lon="-21.99378586"><ele>104.3</ele><time>2012-07-28T15:15:26.0000000+00:00</time></trkpt><trkpt lat="63.85036087" lon="-21.99410248"><ele>104.4</ele><time>2012-07-28T15:15:31.0000000+00:00</time></trkpt><trkpt lat="63.8503685" lon="-21.99438286"><ele>104.1</ele><time>2012-07-28T15:15:36.0000000+00:00</time></trkpt><trkpt lat="63.85037613" lon="-21.99470711"><ele>103.6</ele><time>2012-07-28T15:15:41.0000000+00:00</time></trkpt><trkpt lat="63.85038757" lon="-21.99510956"><ele>103.3</ele><time>2012-07-28T15:15:46.0000000+00:00</time></trkpt><trkpt lat="63.85039902" lon="-21.99544144"><ele>102.7</ele><time>2012-07-28T15:15:51.0000000+00:00</time></trkpt><trkpt lat="63.85040665" lon="-21.99585533"><ele>102.7</ele><time>2012-07-28T15:15:56.0000000+00:00</time></trkpt><trkpt lat="63.85042572" lon="-21.99620056"><ele>102.4</ele><time>2012-07-28T15:16:01.0000000+00:00</time></trkpt><trkpt lat="63.85043716" lon="-21.99660301"><ele>101.9</ele><time>2012-07-28T15:16:06.0000000+00:00</time></trkpt><trkpt lat="63.85045242" lon="-21.99697495"><ele>101.2</ele><time>2012-07-28T15:16:11.0000000+00:00</time></trkpt><trkpt lat="63.85046005" lon="-21.99740028"><ele>101.1</ele><time>2012-07-28T15:16:16.0000000+00:00</time></trkpt><trkpt lat="63.85047531" lon="-21.99777031"><ele>100.5</ele><time>2012-07-28T15:16:21.0000000+00:00</time></trkpt><trkpt lat="63.85049057" lon="-21.99819374"><ele>100.0</ele><time>2012-07-28T15:16:26.0000000+00:00</time></trkpt><trkpt lat="63.85050583" lon="-21.99861145"><ele>99.8</ele><time>2012-07-28T15:16:31.0000000+00:00</time></trkpt><trkpt lat="63.8505249" lon="-21.99905396"><ele>99.8</ele><time>2012-07-28T15:16:36.0000000+00:00</time></trkpt><trkpt lat="63.85054398" lon="-21.99948502"><ele>99.7</ele><time>2012-07-28T15:16:41.0000000+00:00</time></trkpt><trkpt lat="63.85055542" lon="-21.99984741"><ele>100.3</ele><time>2012-07-28T15:16:46.0000000+00:00</time></trkpt><trkpt lat="63.85056686" lon="-22.00027657"><ele>101.2</ele><time>2012-07-28T15:16:51.0000000+00:00</time></trkpt><trkpt lat="63.85058212" lon="-22.00063324"><ele>101.5</ele><time>2012-07-28T15:16:56.0000000+00:00</time></trkpt><trkpt lat="63.85059357" lon="-22.00103378"><ele>100.9</ele><time>2012-07-28T15:17:01.0000000+00:00</time></trkpt><trkpt lat="63.85060501" lon="-22.00143242"><ele>100.9</ele><time>2012-07-28T15:17:06.0000000+00:00</time></trkpt><trkpt lat="63.85060883" lon="-22.00181961"><ele>100.3</ele><time>2012-07-28T15:17:11.0000000+00:00</time></trkpt><trkpt lat="63.85061264" lon="-22.00226784"><ele>99.9</ele><time>2012-07-28T15:17:16.0000000+00:00</time></trkpt><trkpt lat="63.85061646" lon="-22.00262833"><ele>99.2</ele><time>2012-07-28T15:17:21.0000000+00:00</time></trkpt><trkpt lat="63.85062027" lon="-22.00302506"><ele>98.7</ele><time>2012-07-28T15:17:26.0000000+00:00</time></trkpt><trkpt lat="63.85061646" lon="-22.00344086"><ele>98.2</ele><time>2012-07-28T15:17:31.0000000+00:00</time></trkpt><trkpt lat="63.85062027" lon="-22.00380898"><ele>99.2</ele><time>2012-07-28T15:17:36.0000000+00:00</time></trkpt><trkpt lat="63.85061646" lon="-22.00426674"><ele>99.1</ele><time>2012-07-28T15:17:41.0000000+00:00</time></trkpt><trkpt lat="63.85061264" lon="-22.00467491"><ele>98.4</ele><time>2012-07-28T15:17:46.0000000+00:00</time></trkpt><trkpt lat="63.85061264" lon="-22.00502968"><ele>98.7</ele><time>2012-07-28T15:17:51.0000000+00:00</time></trkpt><trkpt lat="63.85060501" lon="-22.00547218"><ele>98.3</ele><time>2012-07-28T15:17:56.0000000+00:00</time></trkpt><trkpt lat="63.85060501" lon="-22.00583458"><ele>98.9</ele><time>2012-07-28T15:18:01.0000000+00:00</time></trkpt><trkpt lat="63.85060501" lon="-22.0062542"><ele>98.9</ele><time>2012-07-28T15:18:06.0000000+00:00</time></trkpt><trkpt lat="63.85059738" lon="-22.00671959"><ele>98.4</ele><time>2012-07-28T15:18:11.0000000+00:00</time></trkpt><trkpt lat="63.85059357" lon="-22.00716209"><ele>98.0</ele><time>2012-07-28T15:18:16.0000000+00:00</time></trkpt><trkpt lat="63.85059357" lon="-22.00749016"><ele>98.2</ele><time>2012-07-28T15:18:21.0000000+00:00</time></trkpt><trkpt lat="63.85057831" lon="-22.00777626"><ele>98.2</ele><time>2012-07-28T15:18:26.0000000+00:00</time></trkpt><trkpt lat="63.85056686" lon="-22.00816345"><ele>99.5</ele><time>2012-07-28T15:18:31.0000000+00:00</time></trkpt><trkpt lat="63.85055542" lon="-22.00859833"><ele>99.3</ele><time>2012-07-28T15:18:36.0000000+00:00</time></trkpt><trkpt lat="63.85054779" lon="-22.00902176"><ele>98.8</ele><time>2012-07-28T15:18:41.0000000+00:00</time></trkpt><trkpt lat="63.85054398" lon="-22.00934029"><ele>98.6</ele><time>2012-07-28T15:18:46.0000000+00:00</time></trkpt><trkpt lat="63.85054398" lon="-22.00959778"><ele>98.2</ele><time>2012-07-28T15:18:51.0000000+00:00</time></trkpt><trkpt lat="63.85053253" lon="-22.00991631"><ele>98.1</ele><time>2012-07-28T15:18:56.0000000+00:00</time></trkpt><trkpt lat="63.85052109" lon="-22.010355"><ele>97.9</ele><time>2012-07-28T15:19:01.0000000+00:00</time></trkpt><trkpt lat="63.85051346" lon="-22.01075745"><ele>97.9</ele><time>2012-07-28T15:19:06.0000000+00:00</time></trkpt><trkpt lat="63.85050583" lon="-22.01115418"><ele>97.2</ele><time>2012-07-28T15:19:11.0000000+00:00</time></trkpt><trkpt lat="63.85050201" lon="-22.01161766"><ele>96.8</ele><time>2012-07-28T15:19:16.0000000+00:00</time></trkpt><trkpt lat="63.85049439" lon="-22.01208878"><ele>96.2</ele><time>2012-07-28T15:19:21.0000000+00:00</time></trkpt><trkpt lat="63.85049057" lon="-22.01245117"><ele>97.0</ele><time>2012-07-28T15:19:26.0000000+00:00</time></trkpt><trkpt lat="63.85049439" lon="-22.01281929"><ele>96.7</ele><time>2012-07-28T15:19:31.0000000+00:00</time></trkpt><trkpt lat="63.85049439" lon="-22.01326561"><ele>96.0</ele><time>2012-07-28T15:19:36.0000000+00:00</time></trkpt><trkpt lat="63.85049439" lon="-22.0136261"><ele>96.1</ele><time>2012-07-28T15:19:41.0000000+00:00</time></trkpt><trkpt lat="63.8504982" lon="-22.01387215"><ele>96.2</ele><time>2012-07-28T15:19:46.0000000+00:00</time></trkpt><trkpt lat="63.8504982" lon="-22.01411057"><ele>96.2</ele><time>2012-07-28T15:19:51.0000000+00:00</time></trkpt><trkpt lat="63.85050201" lon="-22.01433182"><ele>96.3</ele><time>2012-07-28T15:19:56.0000000+00:00</time></trkpt><trkpt lat="63.8504982" lon="-22.014534"><ele>96.6</ele><time>2012-07-28T15:20:01.0000000+00:00</time></trkpt><trkpt lat="63.8504982" lon="-22.01482964"><ele>96.9</ele><time>2012-07-28T15:20:06.0000000+00:00</time></trkpt><trkpt lat="63.85051346" lon="-22.01508141"><ele>97.1</ele><time>2012-07-28T15:20:11.0000000+00:00</time></trkpt><trkpt lat="63.85053253" lon="-22.01524735"><ele>96.6</ele><time>2012-07-28T15:20:16.0000000+00:00</time></trkpt><trkpt lat="63.85058594" lon="-22.01532936"><ele>95.9</ele><time>2012-07-28T15:20:21.0000000+00:00</time></trkpt><trkpt lat="63.85058594" lon="-22.01533127"><ele>95.5</ele><time>2012-07-28T15:20:26.0000000+00:00</time></trkpt><trkpt lat="63.85058594" lon="-22.01533127"><ele>95.4</ele><time>2012-07-28T15:20:31.0000000+00:00</time></trkpt><trkpt lat="63.85058594" lon="-22.01533127"><ele>95.5</ele><time>2012-07-28T15:20:36.0000000+00:00</time></trkpt><trkpt lat="63.85058594" lon="-22.01533127"><ele>95.4</ele><time>2012-07-28T15:20:41.0000000+00:00</time></trkpt><trkpt lat="63.85058594" lon="-22.01533127"><ele>95.4</ele><time>2012-07-28T15:20:46.0000000+00:00</time></trkpt><trkpt lat="63.85058594" lon="-22.01532936"><ele>95.4</ele><time>2012-07-28T15:20:51.0000000+00:00</time></trkpt><trkpt lat="63.85058594" lon="-22.01532936"><ele>95.5</ele><time>2012-07-28T15:20:56.0000000+00:00</time></trkpt><trkpt lat="63.85058594" lon="-22.01532936"><ele>95.5</ele><time>2012-07-28T15:21:01.0000000+00:00</time></trkpt><trkpt lat="63.85058594" lon="-22.01533127"><ele>95.5</ele><time>2012-07-28T15:21:06.0000000+00:00</time></trkpt><trkpt lat="63.85058594" lon="-22.01533127"><ele>95.5</ele><time>2012-07-28T15:21:11.0000000+00:00</time></trkpt><trkpt lat="63.85058594" lon="-22.01532936"><ele>95.5</ele><time>2012-07-28T15:21:16.0000000+00:00</time></trkpt><trkpt lat="63.85058594" lon="-22.01533127"><ele>95.5</ele><time>2012-07-28T15:21:21.0000000+00:00</time></trkpt><trkpt lat="63.85058594" lon="-22.01532936"><ele>95.5</ele><time>2012-07-28T15:21:26.0000000+00:00</time></trkpt><trkpt lat="63.85058594" lon="-22.01532936"><ele>95.5</ele><time>2012-07-28T15:21:31.0000000+00:00</time></trkpt><trkpt lat="63.85059738" lon="-22.01533318"><ele>95.4</ele><time>2012-07-28T15:21:36.0000000+00:00</time></trkpt><trkpt lat="63.85062027" lon="-22.01533508"><ele>93.4</ele><time>2012-07-28T15:21:41.0000000+00:00</time></trkpt><trkpt lat="63.85064316" lon="-22.0153389"><ele>93.5</ele><time>2012-07-28T15:21:46.0000000+00:00</time></trkpt><trkpt lat="63.85064316" lon="-22.01533699"><ele>93.5</ele><time>2012-07-28T15:21:51.0000000+00:00</time></trkpt><trkpt lat="63.85064316" lon="-22.01533699"><ele>93.5</ele><time>2012-07-28T15:21:56.0000000+00:00</time></trkpt><trkpt lat="63.85064316" lon="-22.01533699"><ele>93.5</ele><time>2012-07-28T15:22:01.0000000+00:00</time></trkpt><trkpt lat="63.85064316" lon="-22.01533699"><ele>93.5</ele><time>2012-07-28T15:22:06.0000000+00:00</time></trkpt><trkpt lat="63.85064316" lon="-22.01533699"><ele>93.5</ele><time>2012-07-28T15:22:11.0000000+00:00</time></trkpt><trkpt lat="63.85064316" lon="-22.01533699"><ele>93.5</ele><time>2012-07-28T15:22:16.0000000+00:00</time></trkpt><trkpt lat="63.85064316" lon="-22.01533699"><ele>93.5</ele><time>2012-07-28T15:22:21.0000000+00:00</time></trkpt><trkpt lat="63.85064316" lon="-22.01533699"><ele>93.5</ele><time>2012-07-28T15:22:26.0000000+00:00</time></trkpt><trkpt lat="63.85064316" lon="-22.01533699"><ele>93.5</ele><time>2012-07-28T15:22:31.0000000+00:00</time></trkpt><trkpt lat="63.85064316" lon="-22.01533699"><ele>93.5</ele><time>2012-07-28T15:22:36.0000000+00:00</time></trkpt><trkpt lat="63.85064316" lon="-22.01533699"><ele>93.5</ele><time>2012-07-28T15:22:41.0000000+00:00</time></trkpt><trkpt lat="63.85064316" lon="-22.01533699"><ele>93.6</ele><time>2012-07-28T15:22:46.0000000+00:00</time></trkpt><trkpt lat="63.85064316" lon="-22.01533699"><ele>93.6</ele><time>2012-07-28T15:22:51.0000000+00:00</time></trkpt><trkpt lat="63.85064316" lon="-22.01533699"><ele>93.6</ele><time>2012-07-28T15:22:56.0000000+00:00</time></trkpt><trkpt lat="63.85064316" lon="-22.01533699"><ele>93.6</ele><time>2012-07-28T15:23:01.0000000+00:00</time></trkpt><trkpt lat="63.85064316" lon="-22.01533699"><ele>93.6</ele><time>2012-07-28T15:23:06.0000000+00:00</time></trkpt><trkpt lat="63.85064316" lon="-22.01533699"><ele>93.6</ele><time>2012-07-28T15:23:11.0000000+00:00</time></trkpt><trkpt lat="63.85064316" lon="-22.01533699"><ele>93.6</ele><time>2012-07-28T15:23:16.0000000+00:00</time></trkpt><trkpt lat="63.85064316" lon="-22.01533699"><ele>93.6</ele><time>2012-07-28T15:23:21.0000000+00:00</time></trkpt><trkpt lat="63.85069656" lon="-22.01534843"><ele>93.5</ele><time>2012-07-28T15:23:26.0000000+00:00</time></trkpt><trkpt lat="63.85081863" lon="-22.01532364"><ele>93.9</ele><time>2012-07-28T15:23:31.0000000+00:00</time></trkpt><trkpt lat="63.85096741" lon="-22.01534462"><ele>94.2</ele><time>2012-07-28T15:23:36.0000000+00:00</time></trkpt><trkpt lat="63.85112763" lon="-22.01534653"><ele>94.9</ele><time>2012-07-28T15:23:41.0000000+00:00</time></trkpt><trkpt lat="63.85126877" lon="-22.01538467"><ele>95.2</ele><time>2012-07-28T15:23:46.0000000+00:00</time></trkpt><trkpt lat="63.85137558" lon="-22.01545715"><ele>95.3</ele><time>2012-07-28T15:23:51.0000000+00:00</time></trkpt><trkpt lat="63.85150528" lon="-22.0155735"><ele>95.1</ele><time>2012-07-28T15:23:56.0000000+00:00</time></trkpt><trkpt lat="63.85163498" lon="-22.01570129"><ele>94.8</ele><time>2012-07-28T15:24:01.0000000+00:00</time></trkpt><trkpt lat="63.85175324" lon="-22.01585579"><ele>95.4</ele><time>2012-07-28T15:24:06.0000000+00:00</time></trkpt><trkpt lat="63.85186768" lon="-22.01606751"><ele>95.8</ele><time>2012-07-28T15:24:11.0000000+00:00</time></trkpt><trkpt lat="63.8519516" lon="-22.01623726"><ele>96.0</ele><time>2012-07-28T15:24:16.0000000+00:00</time></trkpt><trkpt lat="63.85203934" lon="-22.01641464"><ele>96.3</ele><time>2012-07-28T15:24:21.0000000+00:00</time></trkpt><trkpt lat="63.85211945" lon="-22.0165844"><ele>96.6</ele><time>2012-07-28T15:24:26.0000000+00:00</time></trkpt><trkpt lat="63.85219193" lon="-22.01674461"><ele>95.9</ele><time>2012-07-28T15:24:31.0000000+00:00</time></trkpt><trkpt lat="63.85226059" lon="-22.01690292"><ele>95.3</ele><time>2012-07-28T15:24:36.0000000+00:00</time></trkpt><trkpt lat="63.85232925" lon="-22.01706886"><ele>95.1</ele><time>2012-07-28T15:24:41.0000000+00:00</time></trkpt><trkpt lat="63.85240936" lon="-22.01722717"><ele>95.2</ele><time>2012-07-28T15:24:46.0000000+00:00</time></trkpt><trkpt lat="63.85247421" lon="-22.01733589"><ele>95.3</ele><time>2012-07-28T15:24:51.0000000+00:00</time></trkpt><trkpt lat="63.85254288" lon="-22.01743889"><ele>95.3</ele><time>2012-07-28T15:24:56.0000000+00:00</time></trkpt><trkpt lat="63.85260773" lon="-22.01755142"><ele>95.7</ele><time>2012-07-28T15:25:01.0000000+00:00</time></trkpt><trkpt lat="63.85268021" lon="-22.01765633"><ele>95.5</ele><time>2012-07-28T15:25:06.0000000+00:00</time></trkpt><trkpt lat="63.85274887" lon="-22.01773262"><ele>95.4</ele><time>2012-07-28T15:25:11.0000000+00:00</time></trkpt><trkpt lat="63.85282517" lon="-22.01781464"><ele>95.3</ele><time>2012-07-28T15:25:16.0000000+00:00</time></trkpt><trkpt lat="63.85290146" lon="-22.0179081"><ele>95.5</ele><time>2012-07-28T15:25:21.0000000+00:00</time></trkpt><trkpt lat="63.85298157" lon="-22.0179863"><ele>95.5</ele><time>2012-07-28T15:25:26.0000000+00:00</time></trkpt><trkpt lat="63.85302353" lon="-22.01806259"><ele>95.6</ele><time>2012-07-28T15:25:31.0000000+00:00</time></trkpt><trkpt lat="63.85309219" lon="-22.01811409"><ele>95.5</ele><time>2012-07-28T15:25:36.0000000+00:00</time></trkpt><trkpt lat="63.85316467" lon="-22.0181942"><ele>96.0</ele><time>2012-07-28T15:25:41.0000000+00:00</time></trkpt><trkpt lat="63.85323715" lon="-22.01826096"><ele>96.3</ele><time>2012-07-28T15:25:46.0000000+00:00</time></trkpt><trkpt lat="63.85330963" lon="-22.0183239"><ele>96.6</ele><time>2012-07-28T15:25:51.0000000+00:00</time></trkpt><trkpt lat="63.85339737" lon="-22.01839066"><ele>97.1</ele><time>2012-07-28T15:25:56.0000000+00:00</time></trkpt><trkpt lat="63.85348892" lon="-22.01846314"><ele>97.7</ele><time>2012-07-28T15:26:01.0000000+00:00</time></trkpt><trkpt lat="63.85355377" lon="-22.01857185"><ele>97.9</ele><time>2012-07-28T15:26:06.0000000+00:00</time></trkpt><trkpt lat="63.85356903" lon="-22.01874733"><ele>97.3</ele><time>2012-07-28T15:26:11.0000000+00:00</time></trkpt><trkpt lat="63.85360718" lon="-22.01893234"><ele>97.5</ele><time>2012-07-28T15:26:16.0000000+00:00</time></trkpt><trkpt lat="63.85364914" lon="-22.019104"><ele>98.5</ele><time>2012-07-28T15:26:21.0000000+00:00</time></trkpt><trkpt lat="63.85371399" lon="-22.01924896"><ele>99.4</ele><time>2012-07-28T15:26:26.0000000+00:00</time></trkpt><trkpt lat="63.85375595" lon="-22.01930428"><ele>99.3</ele><time>2012-07-28T15:26:31.0000000+00:00</time></trkpt><trkpt lat="63.85375214" lon="-22.01930618"><ele>99.7</ele><time>2012-07-28T15:26:36.0000000+00:00</time></trkpt><trkpt lat="63.85375214" lon="-22.01930618"><ele>99.7</ele><time>2012-07-28T15:26:41.0000000+00:00</time></trkpt><trkpt lat="63.85375214" lon="-22.01930618"><ele>99.7</ele><time>2012-07-28T15:26:46.0000000+00:00</time></trkpt><trkpt lat="63.85375214" lon="-22.01930618"><ele>99.7</ele><time>2012-07-28T15:26:51.0000000+00:00</time></trkpt><trkpt lat="63.85375214" lon="-22.01930428"><ele>99.7</ele><time>2012-07-28T15:26:56.0000000+00:00</time></trkpt><trkpt lat="63.85375214" lon="-22.01930428"><ele>99.7</ele><time>2012-07-28T15:27:01.0000000+00:00</time></trkpt><trkpt lat="63.85375214" lon="-22.01929283"><ele>100.5</ele><time>2012-07-28T15:27:06.0000000+00:00</time></trkpt><trkpt lat="63.85375214" lon="-22.01929283"><ele>100.6</ele><time>2012-07-28T15:27:11.0000000+00:00</time></trkpt><trkpt lat="63.85375214" lon="-22.01929283"><ele>100.6</ele><time>2012-07-28T15:27:16.0000000+00:00</time></trkpt><trkpt lat="63.85375214" lon="-22.01929283"><ele>100.6</ele><time>2012-07-28T15:27:21.0000000+00:00</time></trkpt><trkpt lat="63.85375214" lon="-22.01929283"><ele>100.5</ele><time>2012-07-28T15:27:26.0000000+00:00</time></trkpt><trkpt lat="63.85375214" lon="-22.01929283"><ele>100.6</ele><time>2012-07-28T15:27:31.0000000+00:00</time></trkpt><trkpt lat="63.85375214" lon="-22.01929283"><ele>100.6</ele><time>2012-07-28T15:27:36.0000000+00:00</time></trkpt><trkpt lat="63.85375214" lon="-22.01929283"><ele>100.6</ele><time>2012-07-28T15:27:41.0000000+00:00</time></trkpt><trkpt lat="63.85375214" lon="-22.01929092"><ele>100.6</ele><time>2012-07-28T15:27:46.0000000+00:00</time></trkpt><trkpt lat="63.85375214" lon="-22.01929092"><ele>100.6</ele><time>2012-07-28T15:27:51.0000000+00:00</time></trkpt><trkpt lat="63.85375214" lon="-22.01929092"><ele>100.6</ele><time>2012-07-28T15:27:56.0000000+00:00</time></trkpt><trkpt lat="63.85375214" lon="-22.01929092"><ele>100.6</ele><time>2012-07-28T15:28:01.0000000+00:00</time></trkpt><trkpt lat="63.85375214" lon="-22.01928902"><ele>100.5</ele><time>2012-07-28T15:28:06.0000000+00:00</time></trkpt><trkpt lat="63.85375214" lon="-22.01928902"><ele>100.5</ele><time>2012-07-28T15:28:11.0000000+00:00</time></trkpt><trkpt lat="63.85375214" lon="-22.01928902"><ele>100.5</ele><time>2012-07-28T15:28:16.0000000+00:00</time></trkpt><trkpt lat="63.85375214" lon="-22.01928902"><ele>100.5</ele><time>2012-07-28T15:28:21.0000000+00:00</time></trkpt><trkpt lat="63.85375214" lon="-22.01928902"><ele>100.5</ele><time>2012-07-28T15:28:26.0000000+00:00</time></trkpt><trkpt lat="63.85375214" lon="-22.01928902"><ele>100.6</ele><time>2012-07-28T15:28:31.0000000+00:00</time></trkpt><trkpt lat="63.85375214" lon="-22.01928902"><ele>100.6</ele><time>2012-07-28T15:28:36.0000000+00:00</time></trkpt><trkpt lat="63.85375214" lon="-22.01928902"><ele>100.5</ele><time>2012-07-28T15:28:41.0000000+00:00</time></trkpt><trkpt lat="63.85375214" lon="-22.01928902"><ele>100.5</ele><time>2012-07-28T15:28:46.0000000+00:00</time></trkpt><trkpt lat="63.85375214" lon="-22.01928711"><ele>100.5</ele><time>2012-07-28T15:28:51.0000000+00:00</time></trkpt><trkpt lat="63.85375214" lon="-22.01928711"><ele>100.5</ele><time>2012-07-28T15:28:56.0000000+00:00</time></trkpt><trkpt lat="63.85375214" lon="-22.01928711"><ele>100.5</ele><time>2012-07-28T15:29:01.0000000+00:00</time></trkpt><trkpt lat="63.85375214" lon="-22.01928711"><ele>100.5</ele><time>2012-07-28T15:29:06.0000000+00:00</time></trkpt><trkpt lat="63.85375214" lon="-22.01928711"><ele>100.6</ele><time>2012-07-28T15:29:11.0000000+00:00</time></trkpt><trkpt lat="63.85375214" lon="-22.01928711"><ele>100.6</ele><time>2012-07-28T15:29:16.0000000+00:00</time></trkpt><trkpt lat="63.85375214" lon="-22.0192852"><ele>100.6</ele><time>2012-07-28T15:29:21.0000000+00:00</time></trkpt><trkpt lat="63.85375214" lon="-22.0192852"><ele>100.5</ele><time>2012-07-28T15:29:26.0000000+00:00</time></trkpt><trkpt lat="63.85375214" lon="-22.0192852"><ele>100.5</ele><time>2012-07-28T15:29:31.0000000+00:00</time></trkpt><trkpt lat="63.85375214" lon="-22.0192852"><ele>100.5</ele><time>2012-07-28T15:29:36.0000000+00:00</time></trkpt><trkpt lat="63.85375214" lon="-22.0192852"><ele>100.5</ele><time>2012-07-28T15:29:41.0000000+00:00</time></trkpt><trkpt lat="63.85375214" lon="-22.0192852"><ele>100.5</ele><time>2012-07-28T15:29:46.0000000+00:00</time></trkpt><trkpt lat="63.85375214" lon="-22.0192833"><ele>100.6</ele><time>2012-07-28T15:29:51.0000000+00:00</time></trkpt><trkpt lat="63.85374832" lon="-22.0192833"><ele>100.5</ele><time>2012-07-28T15:29:56.0000000+00:00</time></trkpt><trkpt lat="63.85374832" lon="-22.0192833"><ele>100.5</ele><time>2012-07-28T15:30:01.0000000+00:00</time></trkpt><trkpt lat="63.85374832" lon="-22.0192833"><ele>100.5</ele><time>2012-07-28T15:30:06.0000000+00:00</time></trkpt><trkpt lat="63.85374832" lon="-22.0192833"><ele>100.5</ele><time>2012-07-28T15:30:11.0000000+00:00</time></trkpt><trkpt lat="63.85374832" lon="-22.0192833"><ele>100.5</ele><time>2012-07-28T15:30:16.0000000+00:00</time></trkpt><trkpt lat="63.85374832" lon="-22.01928139"><ele>100.5</ele><time>2012-07-28T15:30:21.0000000+00:00</time></trkpt><trkpt lat="63.85374832" lon="-22.01928139"><ele>100.5</ele><time>2012-07-28T15:30:26.0000000+00:00</time></trkpt><trkpt lat="63.85374832" lon="-22.01928139"><ele>100.5</ele><time>2012-07-28T15:30:31.0000000+00:00</time></trkpt><trkpt lat="63.85374832" lon="-22.01928139"><ele>100.5</ele><time>2012-07-28T15:30:36.0000000+00:00</time></trkpt><trkpt lat="63.85374832" lon="-22.01927948"><ele>100.5</ele><time>2012-07-28T15:30:41.0000000+00:00</time></trkpt><trkpt lat="63.85374832" lon="-22.01927948"><ele>100.5</ele><time>2012-07-28T15:30:46.0000000+00:00</time></trkpt><trkpt lat="63.85374832" lon="-22.01927948"><ele>100.5</ele><time>2012-07-28T15:30:51.0000000+00:00</time></trkpt><trkpt lat="63.85374832" lon="-22.01927757"><ele>100.5</ele><time>2012-07-28T15:30:56.0000000+00:00</time></trkpt><trkpt lat="63.85374832" lon="-22.01927757"><ele>100.4</ele><time>2012-07-28T15:31:01.0000000+00:00</time></trkpt><trkpt lat="63.85374832" lon="-22.01927757"><ele>100.4</ele><time>2012-07-28T15:31:06.0000000+00:00</time></trkpt><trkpt lat="63.85374832" lon="-22.01927757"><ele>100.4</ele><time>2012-07-28T15:31:11.0000000+00:00</time></trkpt><trkpt lat="63.85374832" lon="-22.01927567"><ele>100.4</ele><time>2012-07-28T15:31:16.0000000+00:00</time></trkpt><trkpt lat="63.85374832" lon="-22.01927567"><ele>100.4</ele><time>2012-07-28T15:31:21.0000000+00:00</time></trkpt><trkpt lat="63.85374832" lon="-22.01927567"><ele>100.5</ele><time>2012-07-28T15:31:26.0000000+00:00</time></trkpt><trkpt lat="63.85375977" lon="-22.01928902"><ele>100.6</ele><time>2012-07-28T15:31:31.0000000+00:00</time></trkpt><trkpt lat="63.8537941" lon="-22.01926422"><ele>100.9</ele><time>2012-07-28T15:31:36.0000000+00:00</time></trkpt><trkpt lat="63.85379791" lon="-22.01926994"><ele>102.0</ele><time>2012-07-28T15:31:41.0000000+00:00</time></trkpt><trkpt lat="63.85380173" lon="-22.01926994"><ele>102.7</ele><time>2012-07-28T15:31:46.0000000+00:00</time></trkpt><trkpt lat="63.85379791" lon="-22.01927185"><ele>102.9</ele><time>2012-07-28T15:31:51.0000000+00:00</time></trkpt><trkpt lat="63.8537941" lon="-22.01926804"><ele>103.0</ele><time>2012-07-28T15:31:56.0000000+00:00</time></trkpt><trkpt lat="63.85379028" lon="-22.01925659"><ele>103.0</ele><time>2012-07-28T15:32:01.0000000+00:00</time></trkpt><trkpt lat="63.85378265" lon="-22.01924706"><ele>103.0</ele><time>2012-07-28T15:32:06.0000000+00:00</time></trkpt><trkpt lat="63.85377502" lon="-22.01923943"><ele>103.0</ele><time>2012-07-28T15:32:11.0000000+00:00</time></trkpt><trkpt lat="63.85377121" lon="-22.01922607"><ele>103.0</ele><time>2012-07-28T15:32:16.0000000+00:00</time></trkpt><trkpt lat="63.8537674" lon="-22.01922035"><ele>103.0</ele><time>2012-07-28T15:32:21.0000000+00:00</time></trkpt><trkpt lat="63.85376358" lon="-22.01921845"><ele>103.0</ele><time>2012-07-28T15:32:26.0000000+00:00</time></trkpt><trkpt lat="63.85375977" lon="-22.01922035"><ele>103.0</ele><time>2012-07-28T15:32:31.0000000+00:00</time></trkpt><trkpt lat="63.85375214" lon="-22.01921463"><ele>103.0</ele><time>2012-07-28T15:32:36.0000000+00:00</time></trkpt><trkpt lat="63.85374451" lon="-22.01920509"><ele>103.1</ele><time>2012-07-28T15:32:41.0000000+00:00</time></trkpt><trkpt lat="63.85373306" lon="-22.01919937"><ele>103.1</ele><time>2012-07-28T15:32:46.0000000+00:00</time></trkpt><trkpt lat="63.85372925" lon="-22.01918984"><ele>103.1</ele><time>2012-07-28T15:32:51.0000000+00:00</time></trkpt><trkpt lat="63.85372162" lon="-22.01918793"><ele>103.1</ele><time>2012-07-28T15:32:56.0000000+00:00</time></trkpt><trkpt lat="63.85372543" lon="-22.01918984"><ele>103.1</ele><time>2012-07-28T15:33:01.0000000+00:00</time></trkpt><trkpt lat="63.85374069" lon="-22.01921272"><ele>103.1</ele><time>2012-07-28T15:33:06.0000000+00:00</time></trkpt><trkpt lat="63.85375977" lon="-22.01925278"><ele>102.7</ele><time>2012-07-28T15:33:11.0000000+00:00</time></trkpt><trkpt lat="63.8537674" lon="-22.01925468"><ele>102.7</ele><time>2012-07-28T15:33:16.0000000+00:00</time></trkpt><trkpt lat="63.85377502" lon="-22.01926231"><ele>102.6</ele><time>2012-07-28T15:33:21.0000000+00:00</time></trkpt><trkpt lat="63.8537941" lon="-22.01929092"><ele>102.3</ele><time>2012-07-28T15:33:26.0000000+00:00</time></trkpt><trkpt lat="63.85380173" lon="-22.0193367"><ele>102.0</ele><time>2012-07-28T15:33:31.0000000+00:00</time></trkpt><trkpt lat="63.85379791" lon="-22.01932716"><ele>101.8</ele><time>2012-07-28T15:33:36.0000000+00:00</time></trkpt><trkpt lat="63.85380173" lon="-22.01934052"><ele>101.8</ele><time>2012-07-28T15:33:41.0000000+00:00</time></trkpt><trkpt lat="63.85380554" lon="-22.01934242"><ele>101.8</ele><time>2012-07-28T15:33:46.0000000+00:00</time></trkpt><trkpt lat="63.85380936" lon="-22.01934052"><ele>101.7</ele><time>2012-07-28T15:33:51.0000000+00:00</time></trkpt><trkpt lat="63.85381699" lon="-22.01934052"><ele>101.6</ele><time>2012-07-28T15:33:56.0000000+00:00</time></trkpt><trkpt lat="63.8538208" lon="-22.01934242"><ele>101.5</ele><time>2012-07-28T15:34:01.0000000+00:00</time></trkpt><trkpt lat="63.85382462" lon="-22.01934052"><ele>101.5</ele><time>2012-07-28T15:34:06.0000000+00:00</time></trkpt><trkpt lat="63.8538208" lon="-22.01932907"><ele>101.4</ele><time>2012-07-28T15:34:11.0000000+00:00</time></trkpt><trkpt lat="63.85381317" lon="-22.01931953"><ele>101.4</ele><time>2012-07-28T15:34:16.0000000+00:00</time></trkpt><trkpt lat="63.85376358" lon="-22.01928902"><ele>102.2</ele><time>2012-07-28T15:34:21.0000000+00:00</time></trkpt><trkpt lat="63.85377121" lon="-22.01929092"><ele>102.3</ele><time>2012-07-28T15:34:26.0000000+00:00</time></trkpt><trkpt lat="63.85379028" lon="-22.01930618"><ele>102.4</ele><time>2012-07-28T15:34:31.0000000+00:00</time></trkpt><trkpt lat="63.85378265" lon="-22.01928711"><ele>102.4</ele><time>2012-07-28T15:34:36.0000000+00:00</time></trkpt><trkpt lat="63.85378265" lon="-22.01929092"><ele>102.4</ele><time>2012-07-28T15:34:41.0000000+00:00</time></trkpt><trkpt lat="63.85377502" lon="-22.01928711"><ele>102.4</ele><time>2012-07-28T15:34:46.0000000+00:00</time></trkpt><trkpt lat="63.85377502" lon="-22.0192852"><ele>102.4</ele><time>2012-07-28T15:34:51.0000000+00:00</time></trkpt><trkpt lat="63.85377121" lon="-22.01927757"><ele>102.4</ele><time>2012-07-28T15:34:56.0000000+00:00</time></trkpt><trkpt lat="63.85376358" lon="-22.01926994"><ele>102.4</ele><time>2012-07-28T15:35:01.0000000+00:00</time></trkpt><trkpt lat="63.85376358" lon="-22.01926804"><ele>102.4</ele><time>2012-07-28T15:35:06.0000000+00:00</time></trkpt><trkpt lat="63.85376358" lon="-22.01926422"><ele>102.4</ele><time>2012-07-28T15:35:11.0000000+00:00</time></trkpt><trkpt lat="63.8537674" lon="-22.01927185"><ele>102.4</ele><time>2012-07-28T15:35:16.0000000+00:00</time></trkpt><trkpt lat="63.85377502" lon="-22.01927757"><ele>102.4</ele><time>2012-07-28T15:35:21.0000000+00:00</time></trkpt><trkpt lat="63.85377884" lon="-22.01928139"><ele>102.4</ele><time>2012-07-28T15:35:26.0000000+00:00</time></trkpt><trkpt lat="63.85377884" lon="-22.0192833"><ele>102.4</ele><time>2012-07-28T15:35:31.0000000+00:00</time></trkpt><trkpt lat="63.85377884" lon="-22.01928711"><ele>102.4</ele><time>2012-07-28T15:35:36.0000000+00:00</time></trkpt><trkpt lat="63.85377502" lon="-22.01928902"><ele>102.4</ele><time>2012-07-28T15:35:41.0000000+00:00</time></trkpt><trkpt lat="63.85377502" lon="-22.01929665"><ele>102.4</ele><time>2012-07-28T15:35:46.0000000+00:00</time></trkpt><trkpt lat="63.85377121" lon="-22.01929855"><ele>102.4</ele><time>2012-07-28T15:35:51.0000000+00:00</time></trkpt><trkpt lat="63.85376358" lon="-22.01928711"><ele>102.4</ele><time>2012-07-28T15:35:56.0000000+00:00</time></trkpt><trkpt lat="63.85375595" lon="-22.01927948"><ele>102.4</ele><time>2012-07-28T15:36:01.0000000+00:00</time></trkpt><trkpt lat="63.85375214" lon="-22.0192833"><ele>102.4</ele><time>2012-07-28T15:36:06.0000000+00:00</time></trkpt><trkpt lat="63.85374832" lon="-22.01927757"><ele>102.4</ele><time>2012-07-28T15:36:11.0000000+00:00</time></trkpt><trkpt lat="63.85374451" lon="-22.01928139"><ele>102.4</ele><time>2012-07-28T15:36:16.0000000+00:00</time></trkpt><trkpt lat="63.85374069" lon="-22.01927376"><ele>102.4</ele><time>2012-07-28T15:36:21.0000000+00:00</time></trkpt><trkpt lat="63.85373688" lon="-22.01926994"><ele>102.4</ele><time>2012-07-28T15:36:26.0000000+00:00</time></trkpt><trkpt lat="63.85373306" lon="-22.01926613"><ele>102.4</ele><time>2012-07-28T15:36:31.0000000+00:00</time></trkpt><trkpt lat="63.85373306" lon="-22.01926613"><ele>102.4</ele><time>2012-07-28T15:36:36.0000000+00:00</time></trkpt><trkpt lat="63.85372925" lon="-22.01926041"><ele>102.4</ele><time>2012-07-28T15:36:41.0000000+00:00</time></trkpt><trkpt lat="63.85372543" lon="-22.01926231"><ele>102.4</ele><time>2012-07-28T15:36:46.0000000+00:00</time></trkpt><trkpt lat="63.85372162" lon="-22.01926422"><ele>102.4</ele><time>2012-07-28T15:36:51.0000000+00:00</time></trkpt><trkpt lat="63.85372543" lon="-22.01926994"><ele>102.4</ele><time>2012-07-28T15:36:56.0000000+00:00</time></trkpt><trkpt lat="63.85372543" lon="-22.01927757"><ele>102.4</ele><time>2012-07-28T15:37:01.0000000+00:00</time></trkpt><trkpt lat="63.85372543" lon="-22.01927948"><ele>102.5</ele><time>2012-07-28T15:37:06.0000000+00:00</time></trkpt><trkpt lat="63.85372543" lon="-22.01927376"><ele>102.5</ele><time>2012-07-28T15:37:11.0000000+00:00</time></trkpt><trkpt lat="63.85372925" lon="-22.01927567"><ele>102.4</ele><time>2012-07-28T15:37:16.0000000+00:00</time></trkpt><trkpt lat="63.85375214" lon="-22.01927376"><ele>102.2</ele><time>2012-07-28T15:37:21.0000000+00:00</time></trkpt><trkpt lat="63.85375595" lon="-22.01924896"><ele>102.0</ele><time>2012-07-28T15:37:26.0000000+00:00</time></trkpt><trkpt lat="63.85375977" lon="-22.01925278"><ele>102.0</ele><time>2012-07-28T15:37:31.0000000+00:00</time></trkpt><trkpt lat="63.8537674" lon="-22.01926613"><ele>101.9</ele><time>2012-07-28T15:37:36.0000000+00:00</time></trkpt><trkpt lat="63.8537674" lon="-22.01926994"><ele>101.9</ele><time>2012-07-28T15:37:41.0000000+00:00</time></trkpt><trkpt lat="63.8537674" lon="-22.01927376"><ele>101.9</ele><time>2012-07-28T15:37:46.0000000+00:00</time></trkpt><trkpt lat="63.85377121" lon="-22.01927567"><ele>101.9</ele><time>2012-07-28T15:37:51.0000000+00:00</time></trkpt><trkpt lat="63.8537674" lon="-22.01927376"><ele>101.9</ele><time>2012-07-28T15:37:56.0000000+00:00</time></trkpt><trkpt lat="63.85375977" lon="-22.01926231"><ele>101.9</ele><time>2012-07-28T15:38:01.0000000+00:00</time></trkpt><trkpt lat="63.85375595" lon="-22.0192585"><ele>101.9</ele><time>2012-07-28T15:38:06.0000000+00:00</time></trkpt><trkpt lat="63.85375214" lon="-22.01925278"><ele>101.9</ele><time>2012-07-28T15:38:11.0000000+00:00</time></trkpt><trkpt lat="63.85375214" lon="-22.01925087"><ele>101.9</ele><time>2012-07-28T15:38:16.0000000+00:00</time></trkpt><trkpt lat="63.85375214" lon="-22.01924515"><ele>101.9</ele><time>2012-07-28T15:38:21.0000000+00:00</time></trkpt><trkpt lat="63.85375595" lon="-22.01924515"><ele>101.9</ele><time>2012-07-28T15:38:26.0000000+00:00</time></trkpt><trkpt lat="63.85375595" lon="-22.01924515"><ele>101.9</ele><time>2012-07-28T15:38:31.0000000+00:00</time></trkpt><trkpt lat="63.85375595" lon="-22.01924896"><ele>101.9</ele><time>2012-07-28T15:38:36.0000000+00:00</time></trkpt><trkpt lat="63.85375214" lon="-22.01925278"><ele>101.9</ele><time>2012-07-28T15:38:41.0000000+00:00</time></trkpt><trkpt lat="63.85375214" lon="-22.0192585"><ele>101.9</ele><time>2012-07-28T15:38:46.0000000+00:00</time></trkpt><trkpt lat="63.85374451" lon="-22.01924896"><ele>101.9</ele><time>2012-07-28T15:38:51.0000000+00:00</time></trkpt><trkpt lat="63.85374069" lon="-22.01923943"><ele>101.9</ele><time>2012-07-28T15:38:56.0000000+00:00</time></trkpt><trkpt lat="63.85374451" lon="-22.01923561"><ele>101.9</ele><time>2012-07-28T15:39:01.0000000+00:00</time></trkpt><trkpt lat="63.85374832" lon="-22.01924133"><ele>101.9</ele><time>2012-07-28T15:39:06.0000000+00:00</time></trkpt><trkpt lat="63.85374832" lon="-22.0192337"><ele>101.9</ele><time>2012-07-28T15:39:11.0000000+00:00</time></trkpt><trkpt lat="63.85375214" lon="-22.0192337"><ele>101.9</ele><time>2012-07-28T15:39:16.0000000+00:00</time></trkpt><trkpt lat="63.85375595" lon="-22.0192337"><ele>101.8</ele><time>2012-07-28T15:39:21.0000000+00:00</time></trkpt><trkpt lat="63.85376358" lon="-22.01923561"><ele>101.8</ele><time>2012-07-28T15:39:26.0000000+00:00</time></trkpt><trkpt lat="63.85377121" lon="-22.01924515"><ele>101.7</ele><time>2012-07-28T15:39:31.0000000+00:00</time></trkpt><trkpt lat="63.85377121" lon="-22.01925278"><ele>101.7</ele><time>2012-07-28T15:39:36.0000000+00:00</time></trkpt><trkpt lat="63.85377121" lon="-22.01925278"><ele>101.7</ele><time>2012-07-28T15:39:41.0000000+00:00</time></trkpt><trkpt lat="63.8537674" lon="-22.01925468"><ele>101.6</ele><time>2012-07-28T15:39:46.0000000+00:00</time></trkpt><trkpt lat="63.85376358" lon="-22.01924896"><ele>101.6</ele><time>2012-07-28T15:39:51.0000000+00:00</time></trkpt><trkpt lat="63.85376358" lon="-22.01925087"><ele>101.5</ele><time>2012-07-28T15:39:56.0000000+00:00</time></trkpt><trkpt lat="63.85375977" lon="-22.01925087"><ele>101.5</ele><time>2012-07-28T15:40:01.0000000+00:00</time></trkpt><trkpt lat="63.85376358" lon="-22.0192585"><ele>101.4</ele><time>2012-07-28T15:40:06.0000000+00:00</time></trkpt><trkpt lat="63.85376358" lon="-22.01925659"><ele>101.4</ele><time>2012-07-28T15:40:11.0000000+00:00</time></trkpt><trkpt lat="63.85376358" lon="-22.01926422"><ele>101.4</ele><time>2012-07-28T15:40:16.0000000+00:00</time></trkpt><trkpt lat="63.8537674" lon="-22.01926804"><ele>101.3</ele><time>2012-07-28T15:40:21.0000000+00:00</time></trkpt><trkpt lat="63.85377121" lon="-22.01927567"><ele>101.3</ele><time>2012-07-28T15:40:26.0000000+00:00</time></trkpt><trkpt lat="63.85377121" lon="-22.01928139"><ele>101.3</ele><time>2012-07-28T15:40:31.0000000+00:00</time></trkpt><trkpt lat="63.8537674" lon="-22.0192833"><ele>101.2</ele><time>2012-07-28T15:40:36.0000000+00:00</time></trkpt><trkpt lat="63.85377121" lon="-22.01928711"><ele>101.2</ele><time>2012-07-28T15:40:41.0000000+00:00</time></trkpt><trkpt lat="63.85377502" lon="-22.01929283"><ele>101.2</ele><time>2012-07-28T15:40:46.0000000+00:00</time></trkpt><trkpt lat="63.85377502" lon="-22.01929283"><ele>101.2</ele><time>2012-07-28T15:40:51.0000000+00:00</time></trkpt><trkpt lat="63.85378265" lon="-22.01930046"><ele>101.2</ele><time>2012-07-28T15:40:56.0000000+00:00</time></trkpt><trkpt lat="63.85378265" lon="-22.01930618"><ele>101.1</ele><time>2012-07-28T15:41:01.0000000+00:00</time></trkpt><trkpt lat="63.85377884" lon="-22.01930237"><ele>101.1</ele><time>2012-07-28T15:41:06.0000000+00:00</time></trkpt><trkpt lat="63.85377121" lon="-22.01929665"><ele>101.1</ele><time>2012-07-28T15:41:11.0000000+00:00</time></trkpt><trkpt lat="63.85377121" lon="-22.01929474"><ele>101.0</ele><time>2012-07-28T15:41:16.0000000+00:00</time></trkpt><trkpt lat="63.8537674" lon="-22.01929283"><ele>101.0</ele><time>2012-07-28T15:41:21.0000000+00:00</time></trkpt><trkpt lat="63.8537674" lon="-22.01929283"><ele>101.0</ele><time>2012-07-28T15:41:26.0000000+00:00</time></trkpt><trkpt lat="63.8537674" lon="-22.01928902"><ele>101.0</ele><time>2012-07-28T15:41:31.0000000+00:00</time></trkpt><trkpt lat="63.85377121" lon="-22.0192852"><ele>100.9</ele><time>2012-07-28T15:41:36.0000000+00:00</time></trkpt><trkpt lat="63.85377121" lon="-22.0192852"><ele>100.9</ele><time>2012-07-28T15:41:41.0000000+00:00</time></trkpt><trkpt lat="63.85377121" lon="-22.01927567"><ele>101.0</ele><time>2012-07-28T15:41:46.0000000+00:00</time></trkpt><trkpt lat="63.85377502" lon="-22.01927567"><ele>101.1</ele><time>2012-07-28T15:41:51.0000000+00:00</time></trkpt><trkpt lat="63.85377884" lon="-22.01927567"><ele>101.1</ele><time>2012-07-28T15:41:56.0000000+00:00</time></trkpt><trkpt lat="63.85378265" lon="-22.01927757"><ele>101.2</ele><time>2012-07-28T15:42:01.0000000+00:00</time></trkpt><trkpt lat="63.85378647" lon="-22.01928139"><ele>101.2</ele><time>2012-07-28T15:42:06.0000000+00:00</time></trkpt><trkpt lat="63.85378647" lon="-22.0192833"><ele>101.3</ele><time>2012-07-28T15:42:11.0000000+00:00</time></trkpt><trkpt lat="63.85377884" lon="-22.01928139"><ele>101.4</ele><time>2012-07-28T15:42:16.0000000+00:00</time></trkpt><trkpt lat="63.85377502" lon="-22.01927567"><ele>101.4</ele><time>2012-07-28T15:42:21.0000000+00:00</time></trkpt><trkpt lat="63.85377121" lon="-22.01927185"><ele>101.4</ele><time>2012-07-28T15:42:26.0000000+00:00</time></trkpt><trkpt lat="63.85377121" lon="-22.01926613"><ele>101.4</ele><time>2012-07-28T15:42:31.0000000+00:00</time></trkpt><trkpt lat="63.8537674" lon="-22.01926041"><ele>101.4</ele><time>2012-07-28T15:42:36.0000000+00:00</time></trkpt><trkpt lat="63.8537674" lon="-22.01926231"><ele>101.4</ele><time>2012-07-28T15:42:41.0000000+00:00</time></trkpt><trkpt lat="63.85376358" lon="-22.01925659"><ele>101.4</ele><time>2012-07-28T15:42:46.0000000+00:00</time></trkpt><trkpt lat="63.8537674" lon="-22.01925278"><ele>101.4</ele><time>2012-07-28T15:42:51.0000000+00:00</time></trkpt><trkpt lat="63.8537674" lon="-22.01925659"><ele>101.4</ele><time>2012-07-28T15:42:56.0000000+00:00</time></trkpt><trkpt lat="63.85376358" lon="-22.01925468"><ele>101.4</ele><time>2012-07-28T15:43:01.0000000+00:00</time></trkpt><trkpt lat="63.85376358" lon="-22.01925278"><ele>101.4</ele><time>2012-07-28T15:43:06.0000000+00:00</time></trkpt><trkpt lat="63.85376358" lon="-22.01925278"><ele>101.4</ele><time>2012-07-28T15:43:11.0000000+00:00</time></trkpt><trkpt lat="63.85376358" lon="-22.01926231"><ele>101.4</ele><time>2012-07-28T15:43:16.0000000+00:00</time></trkpt><trkpt lat="63.85376358" lon="-22.0192585"><ele>101.3</ele><time>2012-07-28T15:43:21.0000000+00:00</time></trkpt><trkpt lat="63.85375977" lon="-22.01924706"><ele>101.2</ele><time>2012-07-28T15:43:26.0000000+00:00</time></trkpt><trkpt lat="63.85376358" lon="-22.01924706"><ele>101.2</ele><time>2012-07-28T15:43:31.0000000+00:00</time></trkpt><trkpt lat="63.85376358" lon="-22.01924324"><ele>101.1</ele><time>2012-07-28T15:43:36.0000000+00:00</time></trkpt><trkpt lat="63.85375977" lon="-22.01923752"><ele>101.1</ele><time>2012-07-28T15:43:41.0000000+00:00</time></trkpt><trkpt lat="63.85375595" lon="-22.01923752"><ele>101.1</ele><time>2012-07-28T15:43:46.0000000+00:00</time></trkpt><trkpt lat="63.85375214" lon="-22.01922989"><ele>101.1</ele><time>2012-07-28T15:43:51.0000000+00:00</time></trkpt><trkpt lat="63.85374832" lon="-22.01922607"><ele>101.1</ele><time>2012-07-28T15:43:56.0000000+00:00</time></trkpt><trkpt lat="63.85374451" lon="-22.01922226"><ele>101.0</ele><time>2012-07-28T15:44:01.0000000+00:00</time></trkpt><trkpt lat="63.85374832" lon="-22.01922798"><ele>101.0</ele><time>2012-07-28T15:44:06.0000000+00:00</time></trkpt><trkpt lat="63.85374832" lon="-22.01923561"><ele>101.0</ele><time>2012-07-28T15:44:11.0000000+00:00</time></trkpt><trkpt lat="63.85374451" lon="-22.01923752"><ele>101.0</ele><time>2012-07-28T15:44:16.0000000+00:00</time></trkpt><trkpt lat="63.85374451" lon="-22.01924515"><ele>101.0</ele><time>2012-07-28T15:44:21.0000000+00:00</time></trkpt><trkpt lat="63.85374451" lon="-22.01924515"><ele>101.0</ele><time>2012-07-28T15:44:26.0000000+00:00</time></trkpt><trkpt lat="63.85374069" lon="-22.01924324"><ele>101.0</ele><time>2012-07-28T15:44:31.0000000+00:00</time></trkpt><trkpt lat="63.85373688" lon="-22.01924706"><ele>101.0</ele><time>2012-07-28T15:44:36.0000000+00:00</time></trkpt><trkpt lat="63.85374069" lon="-22.01925087"><ele>101.0</ele><time>2012-07-28T15:44:41.0000000+00:00</time></trkpt><trkpt lat="63.85374069" lon="-22.01925278"><ele>101.0</ele><time>2012-07-28T15:44:46.0000000+00:00</time></trkpt><trkpt lat="63.85373688" lon="-22.01925468"><ele>101.0</ele><time>2012-07-28T15:44:51.0000000+00:00</time></trkpt><trkpt lat="63.85373688" lon="-22.01924706"><ele>101.0</ele><time>2012-07-28T15:44:56.0000000+00:00</time></trkpt><trkpt lat="63.85373688" lon="-22.01923943"><ele>101.0</ele><time>2012-07-28T15:45:01.0000000+00:00</time></trkpt><trkpt lat="63.85373306" lon="-22.0192318"><ele>101.0</ele><time>2012-07-28T15:45:06.0000000+00:00</time></trkpt><trkpt lat="63.85372543" lon="-22.01922226"><ele>101.0</ele><time>2012-07-28T15:45:11.0000000+00:00</time></trkpt><trkpt lat="63.85372543" lon="-22.01921463"><ele>101.0</ele><time>2012-07-28T15:45:16.0000000+00:00</time></trkpt><trkpt lat="63.85372925" lon="-22.01921845"><ele>100.9</ele><time>2012-07-28T15:45:21.0000000+00:00</time></trkpt><trkpt lat="63.85372925" lon="-22.01921845"><ele>100.9</ele><time>2012-07-28T15:45:26.0000000+00:00</time></trkpt><trkpt lat="63.85372543" lon="-22.01921845"><ele>100.8</ele><time>2012-07-28T15:45:31.0000000+00:00</time></trkpt><trkpt lat="63.85372543" lon="-22.01921272"><ele>100.8</ele><time>2012-07-28T15:45:36.0000000+00:00</time></trkpt><trkpt lat="63.85372162" lon="-22.019207"><ele>100.8</ele><time>2012-07-28T15:45:41.0000000+00:00</time></trkpt><trkpt lat="63.85372543" lon="-22.01921845"><ele>100.8</ele><time>2012-07-28T15:45:46.0000000+00:00</time></trkpt><trkpt lat="63.85372543" lon="-22.01922226"><ele>100.8</ele><time>2012-07-28T15:45:51.0000000+00:00</time></trkpt><trkpt lat="63.85372925" lon="-22.0192318"><ele>100.8</ele><time>2012-07-28T15:45:56.0000000+00:00</time></trkpt><trkpt lat="63.85372925" lon="-22.01922989"><ele>100.8</ele><time>2012-07-28T15:46:01.0000000+00:00</time></trkpt><trkpt lat="63.85373306" lon="-22.0192318"><ele>100.9</ele><time>2012-07-28T15:46:06.0000000+00:00</time></trkpt><trkpt lat="63.85373306" lon="-22.01923752"><ele>100.9</ele><time>2012-07-28T15:46:11.0000000+00:00</time></trkpt><trkpt lat="63.85373688" lon="-22.01924515"><ele>100.9</ele><time>2012-07-28T15:46:16.0000000+00:00</time></trkpt><trkpt lat="63.85373688" lon="-22.01924896"><ele>101.0</ele><time>2012-07-28T15:46:21.0000000+00:00</time></trkpt><trkpt lat="63.85374069" lon="-22.01926613"><ele>101.0</ele><time>2012-07-28T15:46:26.0000000+00:00</time></trkpt><trkpt lat="63.85374069" lon="-22.01926994"><ele>101.1</ele><time>2012-07-28T15:46:31.0000000+00:00</time></trkpt><trkpt lat="63.85374069" lon="-22.01926422"><ele>101.1</ele><time>2012-07-28T15:46:36.0000000+00:00</time></trkpt><trkpt lat="63.85374832" lon="-22.01927567"><ele>101.1</ele><time>2012-07-28T15:46:41.0000000+00:00</time></trkpt><trkpt lat="63.85374832" lon="-22.01926613"><ele>101.0</ele><time>2012-07-28T15:46:46.0000000+00:00</time></trkpt><trkpt lat="63.85374069" lon="-22.01925278"><ele>101.0</ele><time>2012-07-28T15:46:51.0000000+00:00</time></trkpt><trkpt lat="63.85374451" lon="-22.01925659"><ele>101.0</ele><time>2012-07-28T15:46:56.0000000+00:00</time></trkpt><trkpt lat="63.85374451" lon="-22.01925087"><ele>101.0</ele><time>2012-07-28T15:47:01.0000000+00:00</time></trkpt><trkpt lat="63.85374451" lon="-22.01925278"><ele>101.0</ele><time>2012-07-28T15:47:06.0000000+00:00</time></trkpt><trkpt lat="63.85374451" lon="-22.01924706"><ele>101.0</ele><time>2012-07-28T15:47:11.0000000+00:00</time></trkpt><trkpt lat="63.85374451" lon="-22.01924896"><ele>101.0</ele><time>2012-07-28T15:47:16.0000000+00:00</time></trkpt><trkpt lat="63.85374069" lon="-22.01924133"><ele>101.0</ele><time>2012-07-28T15:47:21.0000000+00:00</time></trkpt><trkpt lat="63.85374069" lon="-22.01924324"><ele>101.0</ele><time>2012-07-28T15:47:26.0000000+00:00</time></trkpt><trkpt lat="63.85374451" lon="-22.01924896"><ele>101.1</ele><time>2012-07-28T15:47:31.0000000+00:00</time></trkpt><trkpt lat="63.85375214" lon="-22.01925278"><ele>100.9</ele><time>2012-07-28T15:47:36.0000000+00:00</time></trkpt><trkpt lat="63.85375214" lon="-22.01924896"><ele>100.9</ele><time>2012-07-28T15:47:41.0000000+00:00</time></trkpt><trkpt lat="63.85374832" lon="-22.01924896"><ele>100.9</ele><time>2012-07-28T15:47:46.0000000+00:00</time></trkpt><trkpt lat="63.85374451" lon="-22.01924324"><ele>100.9</ele><time>2012-07-28T15:47:51.0000000+00:00</time></trkpt><trkpt lat="63.85374069" lon="-22.0192318"><ele>100.9</ele><time>2012-07-28T15:47:56.0000000+00:00</time></trkpt><trkpt lat="63.85374832" lon="-22.01923561"><ele>100.9</ele><time>2012-07-28T15:48:01.0000000+00:00</time></trkpt><trkpt lat="63.85374451" lon="-22.0192337"><ele>100.9</ele><time>2012-07-28T15:48:06.0000000+00:00</time></trkpt><trkpt lat="63.85374069" lon="-22.01922417"><ele>100.9</ele><time>2012-07-28T15:48:11.0000000+00:00</time></trkpt><trkpt lat="63.85374069" lon="-22.01921654"><ele>100.9</ele><time>2012-07-28T15:48:16.0000000+00:00</time></trkpt><trkpt lat="63.85374069" lon="-22.01921272"><ele>100.9</ele><time>2012-07-28T15:48:21.0000000+00:00</time></trkpt><trkpt lat="63.85374451" lon="-22.01920891"><ele>100.9</ele><time>2012-07-28T15:48:26.0000000+00:00</time></trkpt><trkpt lat="63.85374832" lon="-22.01921272"><ele>100.9</ele><time>2012-07-28T15:48:31.0000000+00:00</time></trkpt><trkpt lat="63.85374451" lon="-22.01920128"><ele>100.9</ele><time>2012-07-28T15:48:36.0000000+00:00</time></trkpt><trkpt lat="63.85374069" lon="-22.01920128"><ele>100.9</ele><time>2012-07-28T15:48:41.0000000+00:00</time></trkpt><trkpt lat="63.85374069" lon="-22.01919365"><ele>100.9</ele><time>2012-07-28T15:48:46.0000000+00:00</time></trkpt><trkpt lat="63.85374069" lon="-22.01919365"><ele>100.9</ele><time>2012-07-28T15:48:51.0000000+00:00</time></trkpt><trkpt lat="63.85374069" lon="-22.01919556"><ele>100.9</ele><time>2012-07-28T15:48:56.0000000+00:00</time></trkpt><trkpt lat="63.85374451" lon="-22.01919746"><ele>100.9</ele><time>2012-07-28T15:49:01.0000000+00:00</time></trkpt><trkpt lat="63.85374451" lon="-22.01918984"><ele>101.0</ele><time>2012-07-28T15:49:06.0000000+00:00</time></trkpt><trkpt lat="63.85374069" lon="-22.01917839"><ele>101.0</ele><time>2012-07-28T15:49:11.0000000+00:00</time></trkpt><trkpt lat="63.85374069" lon="-22.01917839"><ele>101.0</ele><time>2012-07-28T15:49:16.0000000+00:00</time></trkpt><trkpt lat="63.85374451" lon="-22.01918793"><ele>101.1</ele><time>2012-07-28T15:49:21.0000000+00:00</time></trkpt><trkpt lat="63.85374832" lon="-22.01920319"><ele>101.1</ele><time>2012-07-28T15:49:26.0000000+00:00</time></trkpt><trkpt lat="63.85375595" lon="-22.01921654"><ele>101.1</ele><time>2012-07-28T15:49:31.0000000+00:00</time></trkpt><trkpt lat="63.85375977" lon="-22.01922226"><ele>101.1</ele><time>2012-07-28T15:49:36.0000000+00:00</time></trkpt><trkpt lat="63.85375977" lon="-22.01922989"><ele>101.1</ele><time>2012-07-28T15:49:41.0000000+00:00</time></trkpt><trkpt lat="63.85376358" lon="-22.01923943"><ele>101.1</ele><time>2012-07-28T15:49:46.0000000+00:00</time></trkpt><trkpt lat="63.85376358" lon="-22.01924133"><ele>101.1</ele><time>2012-07-28T15:49:51.0000000+00:00</time></trkpt><trkpt lat="63.85376358" lon="-22.01924706"><ele>101.1</ele><time>2012-07-28T15:49:56.0000000+00:00</time></trkpt><trkpt lat="63.8537674" lon="-22.01925468"><ele>101.1</ele><time>2012-07-28T15:50:01.0000000+00:00</time></trkpt><trkpt lat="63.85377502" lon="-22.01926804"><ele>101.1</ele><time>2012-07-28T15:50:06.0000000+00:00</time></trkpt><trkpt lat="63.85377121" lon="-22.01927376"><ele>101.2</ele><time>2012-07-28T15:50:11.0000000+00:00</time></trkpt><trkpt lat="63.85377121" lon="-22.01927185"><ele>101.2</ele><time>2012-07-28T15:50:16.0000000+00:00</time></trkpt><trkpt lat="63.8537674" lon="-22.01926613"><ele>101.2</ele><time>2012-07-28T15:50:21.0000000+00:00</time></trkpt><trkpt lat="63.8537674" lon="-22.01926231"><ele>101.3</ele><time>2012-07-28T15:50:26.0000000+00:00</time></trkpt><trkpt lat="63.8537674" lon="-22.01926613"><ele>101.3</ele><time>2012-07-28T15:50:31.0000000+00:00</time></trkpt><trkpt lat="63.8537674" lon="-22.0192585"><ele>101.3</ele><time>2012-07-28T15:50:36.0000000+00:00</time></trkpt><trkpt lat="63.85376358" lon="-22.01925087"><ele>101.4</ele><time>2012-07-28T15:50:41.0000000+00:00</time></trkpt><trkpt lat="63.85375977" lon="-22.01924896"><ele>101.4</ele><time>2012-07-28T15:50:46.0000000+00:00</time></trkpt><trkpt lat="63.85376358" lon="-22.01926041"><ele>101.4</ele><time>2012-07-28T15:50:51.0000000+00:00</time></trkpt><trkpt lat="63.85376358" lon="-22.01926231"><ele>101.4</ele><time>2012-07-28T15:50:56.0000000+00:00</time></trkpt><trkpt lat="63.85376358" lon="-22.01926231"><ele>101.5</ele><time>2012-07-28T15:51:01.0000000+00:00</time></trkpt><trkpt lat="63.85376358" lon="-22.01926422"><ele>101.5</ele><time>2012-07-28T15:51:06.0000000+00:00</time></trkpt><trkpt lat="63.85375977" lon="-22.01926613"><ele>101.6</ele><time>2012-07-28T15:51:11.0000000+00:00</time></trkpt><trkpt lat="63.85375977" lon="-22.01926804"><ele>101.6</ele><time>2012-07-28T15:51:16.0000000+00:00</time></trkpt><trkpt lat="63.85376358" lon="-22.01926994"><ele>101.7</ele><time>2012-07-28T15:51:21.0000000+00:00</time></trkpt><trkpt lat="63.8537674" lon="-22.01927567"><ele>101.7</ele><time>2012-07-28T15:51:26.0000000+00:00</time></trkpt><trkpt lat="63.8537674" lon="-22.01928139"><ele>101.7</ele><time>2012-07-28T15:51:31.0000000+00:00</time></trkpt><trkpt lat="63.8537674" lon="-22.0192833"><ele>101.7</ele><time>2012-07-28T15:51:36.0000000+00:00</time></trkpt><trkpt lat="63.85377121" lon="-22.0192833"><ele>101.7</ele><time>2012-07-28T15:51:41.0000000+00:00</time></trkpt><trkpt lat="63.85377502" lon="-22.01928711"><ele>101.7</ele><time>2012-07-28T15:51:46.0000000+00:00</time></trkpt><trkpt lat="63.85377502" lon="-22.0192833"><ele>101.7</ele><time>2012-07-28T15:51:51.0000000+00:00</time></trkpt><trkpt lat="63.85377884" lon="-22.01926231"><ele>101.3</ele><time>2012-07-28T15:51:56.0000000+00:00</time></trkpt><trkpt lat="63.85377884" lon="-22.01925278"><ele>101.3</ele><time>2012-07-28T15:52:01.0000000+00:00</time></trkpt><trkpt lat="63.85378265" lon="-22.01926041"><ele>101.3</ele><time>2012-07-28T15:52:06.0000000+00:00</time></trkpt><trkpt lat="63.85379028" lon="-22.01926994"><ele>101.2</ele><time>2012-07-28T15:52:11.0000000+00:00</time></trkpt><trkpt lat="63.8537941" lon="-22.01926994"><ele>101.2</ele><time>2012-07-28T15:52:16.0000000+00:00</time></trkpt><trkpt lat="63.8537941" lon="-22.01926994"><ele>101.2</ele><time>2012-07-28T15:52:21.0000000+00:00</time></trkpt><trkpt lat="63.85379791" lon="-22.01927757"><ele>101.2</ele><time>2012-07-28T15:52:26.0000000+00:00</time></trkpt><trkpt lat="63.85380173" lon="-22.0192852"><ele>101.2</ele><time>2012-07-28T15:52:31.0000000+00:00</time></trkpt><trkpt lat="63.85380554" lon="-22.01928902"><ele>101.3</ele><time>2012-07-28T15:52:36.0000000+00:00</time></trkpt><trkpt lat="63.85380554" lon="-22.01928711"><ele>101.3</ele><time>2012-07-28T15:52:41.0000000+00:00</time></trkpt><trkpt lat="63.85380554" lon="-22.0192852"><ele>101.3</ele><time>2012-07-28T15:52:46.0000000+00:00</time></trkpt><trkpt lat="63.85380554" lon="-22.0192852"><ele>101.3</ele><time>2012-07-28T15:52:51.0000000+00:00</time></trkpt><trkpt lat="63.85380173" lon="-22.01928902"><ele>101.2</ele><time>2012-07-28T15:52:56.0000000+00:00</time></trkpt><trkpt lat="63.85379791" lon="-22.01928902"><ele>101.2</ele><time>2012-07-28T15:53:01.0000000+00:00</time></trkpt><trkpt lat="63.85379791" lon="-22.01929474"><ele>101.2</ele><time>2012-07-28T15:53:06.0000000+00:00</time></trkpt><trkpt lat="63.85379791" lon="-22.01929665"><ele>101.2</ele><time>2012-07-28T15:53:11.0000000+00:00</time></trkpt><trkpt lat="63.85379791" lon="-22.01929283"><ele>101.2</ele><time>2012-07-28T15:53:16.0000000+00:00</time></trkpt><trkpt lat="63.85380173" lon="-22.01930046"><ele>101.2</ele><time>2012-07-28T15:53:21.0000000+00:00</time></trkpt><trkpt lat="63.85380173" lon="-22.01930237"><ele>101.2</ele><time>2012-07-28T15:53:26.0000000+00:00</time></trkpt><trkpt lat="63.85380173" lon="-22.01930237"><ele>101.2</ele><time>2012-07-28T15:53:31.0000000+00:00</time></trkpt><trkpt lat="63.85380554" lon="-22.01930809"><ele>101.2</ele><time>2012-07-28T15:53:36.0000000+00:00</time></trkpt><trkpt lat="63.85380554" lon="-22.01931381"><ele>101.2</ele><time>2012-07-28T15:53:41.0000000+00:00</time></trkpt><trkpt lat="63.85380936" lon="-22.01931572"><ele>101.3</ele><time>2012-07-28T15:53:46.0000000+00:00</time></trkpt><trkpt lat="63.85381317" lon="-22.01931572"><ele>101.3</ele><time>2012-07-28T15:53:51.0000000+00:00</time></trkpt><trkpt lat="63.85381699" lon="-22.01931381"><ele>101.3</ele><time>2012-07-28T15:53:56.0000000+00:00</time></trkpt><trkpt lat="63.85381317" lon="-22.01931"><ele>101.3</ele><time>2012-07-28T15:54:01.0000000+00:00</time></trkpt><trkpt lat="63.85381699" lon="-22.01930428"><ele>101.4</ele><time>2012-07-28T15:54:06.0000000+00:00</time></trkpt><trkpt lat="63.85381317" lon="-22.01930428"><ele>101.4</ele><time>2012-07-28T15:54:11.0000000+00:00</time></trkpt><trkpt lat="63.85381317" lon="-22.01930618"><ele>101.4</ele><time>2012-07-28T15:54:16.0000000+00:00</time></trkpt><trkpt lat="63.85381699" lon="-22.01931191"><ele>101.4</ele><time>2012-07-28T15:54:21.0000000+00:00</time></trkpt><trkpt lat="63.85381317" lon="-22.01931"><ele>101.4</ele><time>2012-07-28T15:54:26.0000000+00:00</time></trkpt><trkpt lat="63.85380936" lon="-22.01930237"><ele>101.4</ele><time>2012-07-28T15:54:31.0000000+00:00</time></trkpt><trkpt lat="63.85381317" lon="-22.01930618"><ele>101.4</ele><time>2012-07-28T15:54:36.0000000+00:00</time></trkpt><trkpt lat="63.85381699" lon="-22.01930618"><ele>101.4</ele><time>2012-07-28T15:54:41.0000000+00:00</time></trkpt><trkpt lat="63.8538208" lon="-22.01930809"><ele>101.3</ele><time>2012-07-28T15:54:46.0000000+00:00</time></trkpt><trkpt lat="63.85382843" lon="-22.01931572"><ele>101.3</ele><time>2012-07-28T15:54:51.0000000+00:00</time></trkpt><trkpt lat="63.85382843" lon="-22.01931572"><ele>101.3</ele><time>2012-07-28T15:54:56.0000000+00:00</time></trkpt><trkpt lat="63.85382462" lon="-22.01931"><ele>101.3</ele><time>2012-07-28T15:55:01.0000000+00:00</time></trkpt><trkpt lat="63.85381699" lon="-22.01930237"><ele>101.3</ele><time>2012-07-28T15:55:06.0000000+00:00</time></trkpt><trkpt lat="63.85381699" lon="-22.01929665"><ele>101.3</ele><time>2012-07-28T15:55:11.0000000+00:00</time></trkpt><trkpt lat="63.85381317" lon="-22.0192852"><ele>101.4</ele><time>2012-07-28T15:55:16.0000000+00:00</time></trkpt><trkpt lat="63.85381317" lon="-22.0192852"><ele>101.4</ele><time>2012-07-28T15:55:21.0000000+00:00</time></trkpt><trkpt lat="63.85381317" lon="-22.01928902"><ele>101.5</ele><time>2012-07-28T15:55:26.0000000+00:00</time></trkpt><trkpt lat="63.85381699" lon="-22.01929474"><ele>101.5</ele><time>2012-07-28T15:55:31.0000000+00:00</time></trkpt><trkpt lat="63.85380936" lon="-22.01929855"><ele>101.6</ele><time>2012-07-28T15:55:36.0000000+00:00</time></trkpt><trkpt lat="63.85380936" lon="-22.01930428"><ele>101.6</ele><time>2012-07-28T15:55:41.0000000+00:00</time></trkpt><trkpt lat="63.85380554" lon="-22.01929665"><ele>101.6</ele><time>2012-07-28T15:55:46.0000000+00:00</time></trkpt><trkpt lat="63.85380173" lon="-22.01929283"><ele>101.6</ele><time>2012-07-28T15:55:51.0000000+00:00</time></trkpt><trkpt lat="63.85379791" lon="-22.01928902"><ele>101.7</ele><time>2012-07-28T15:55:56.0000000+00:00</time></trkpt><trkpt lat="63.8537941" lon="-22.01927757"><ele>101.7</ele><time>2012-07-28T15:56:01.0000000+00:00</time></trkpt><trkpt lat="63.85379028" lon="-22.01927757"><ele>101.8</ele><time>2012-07-28T15:56:06.0000000+00:00</time></trkpt><trkpt lat="63.8537941" lon="-22.01928902"><ele>101.8</ele><time>2012-07-28T15:56:11.0000000+00:00</time></trkpt><trkpt lat="63.8537941" lon="-22.01929283"><ele>101.8</ele><time>2012-07-28T15:56:16.0000000+00:00</time></trkpt><trkpt lat="63.85379791" lon="-22.01929855"><ele>101.8</ele><time>2012-07-28T15:56:21.0000000+00:00</time></trkpt><trkpt lat="63.85380173" lon="-22.01930809"><ele>101.8</ele><time>2012-07-28T15:56:26.0000000+00:00</time></trkpt><trkpt lat="63.85380554" lon="-22.01930809"><ele>101.8</ele><time>2012-07-28T15:56:31.0000000+00:00</time></trkpt><trkpt lat="63.85381317" lon="-22.01931763"><ele>101.8</ele><time>2012-07-28T15:56:36.0000000+00:00</time></trkpt><trkpt lat="63.85381699" lon="-22.01931953"><ele>101.8</ele><time>2012-07-28T15:56:41.0000000+00:00</time></trkpt><trkpt lat="63.8538208" lon="-22.01932907"><ele>101.8</ele><time>2012-07-28T15:56:46.0000000+00:00</time></trkpt><trkpt lat="63.85382462" lon="-22.0193367"><ele>101.9</ele><time>2012-07-28T15:56:51.0000000+00:00</time></trkpt><trkpt lat="63.8538208" lon="-22.01933098"><ele>101.9</ele><time>2012-07-28T15:56:56.0000000+00:00</time></trkpt><trkpt lat="63.85381699" lon="-22.01931572"><ele>101.9</ele><time>2012-07-28T15:57:01.0000000+00:00</time></trkpt><trkpt lat="63.85381699" lon="-22.01930618"><ele>101.9</ele><time>2012-07-28T15:57:06.0000000+00:00</time></trkpt><trkpt lat="63.85381317" lon="-22.01930428"><ele>102.0</ele><time>2012-07-28T15:57:11.0000000+00:00</time></trkpt><trkpt lat="63.85380936" lon="-22.01930237"><ele>102.0</ele><time>2012-07-28T15:57:16.0000000+00:00</time></trkpt><trkpt lat="63.85380936" lon="-22.01929855"><ele>102.0</ele><time>2012-07-28T15:57:21.0000000+00:00</time></trkpt><trkpt lat="63.85380554" lon="-22.01929283"><ele>102.0</ele><time>2012-07-28T15:57:26.0000000+00:00</time></trkpt><trkpt lat="63.85380173" lon="-22.01928139"><ele>102.0</ele><time>2012-07-28T15:57:31.0000000+00:00</time></trkpt><trkpt lat="63.8537941" lon="-22.01927376"><ele>102.0</ele><time>2012-07-28T15:57:36.0000000+00:00</time></trkpt><trkpt lat="63.8537941" lon="-22.01926994"><ele>102.0</ele><time>2012-07-28T15:57:41.0000000+00:00</time></trkpt><trkpt lat="63.8537941" lon="-22.01927757"><ele>102.1</ele><time>2012-07-28T15:57:46.0000000+00:00</time></trkpt><trkpt lat="63.8537941" lon="-22.01928139"><ele>102.1</ele><time>2012-07-28T15:57:51.0000000+00:00</time></trkpt><trkpt lat="63.8537941" lon="-22.0192833"><ele>102.1</ele><time>2012-07-28T15:57:56.0000000+00:00</time></trkpt><trkpt lat="63.85379028" lon="-22.01927948"><ele>102.1</ele><time>2012-07-28T15:58:01.0000000+00:00</time></trkpt><trkpt lat="63.85379028" lon="-22.01927185"><ele>102.0</ele><time>2012-07-28T15:58:06.0000000+00:00</time></trkpt><trkpt lat="63.85379028" lon="-22.01926422"><ele>102.0</ele><time>2012-07-28T15:58:11.0000000+00:00</time></trkpt><trkpt lat="63.85379028" lon="-22.01926422"><ele>102.1</ele><time>2012-07-28T15:58:16.0000000+00:00</time></trkpt><trkpt lat="63.85379028" lon="-22.01925659"><ele>102.1</ele><time>2012-07-28T15:58:21.0000000+00:00</time></trkpt><trkpt lat="63.85378647" lon="-22.01924896"><ele>102.1</ele><time>2012-07-28T15:58:26.0000000+00:00</time></trkpt><trkpt lat="63.85378647" lon="-22.01924133"><ele>102.1</ele><time>2012-07-28T15:58:31.0000000+00:00</time></trkpt><trkpt lat="63.85378647" lon="-22.01924515"><ele>102.1</ele><time>2012-07-28T15:58:36.0000000+00:00</time></trkpt><trkpt lat="63.85378265" lon="-22.01924324"><ele>102.1</ele><time>2012-07-28T15:58:41.0000000+00:00</time></trkpt><trkpt lat="63.85378265" lon="-22.01924133"><ele>102.1</ele><time>2012-07-28T15:58:46.0000000+00:00</time></trkpt><trkpt lat="63.85378265" lon="-22.01924515"><ele>102.0</ele><time>2012-07-28T15:58:51.0000000+00:00</time></trkpt><trkpt lat="63.85378265" lon="-22.01924706"><ele>102.0</ele><time>2012-07-28T15:58:56.0000000+00:00</time></trkpt><trkpt lat="63.85378265" lon="-22.01924896"><ele>102.0</ele><time>2012-07-28T15:59:01.0000000+00:00</time></trkpt><trkpt lat="63.85378265" lon="-22.01924896"><ele>102.0</ele><time>2012-07-28T15:59:06.0000000+00:00</time></trkpt><trkpt lat="63.85378265" lon="-22.01925087"><ele>102.0</ele><time>2012-07-28T15:59:11.0000000+00:00</time></trkpt><trkpt lat="63.85378265" lon="-22.01924706"><ele>101.9</ele><time>2012-07-28T15:59:16.0000000+00:00</time></trkpt><trkpt lat="63.85377884" lon="-22.01924133"><ele>101.9</ele><time>2012-07-28T15:59:21.0000000+00:00</time></trkpt><trkpt lat="63.85377121" lon="-22.01924133"><ele>102.0</ele><time>2012-07-28T15:59:26.0000000+00:00</time></trkpt><trkpt lat="63.85377121" lon="-22.01923561"><ele>102.0</ele><time>2012-07-28T15:59:31.0000000+00:00</time></trkpt><trkpt lat="63.8537674" lon="-22.01922989"><ele>102.0</ele><time>2012-07-28T15:59:36.0000000+00:00</time></trkpt><trkpt lat="63.8537674" lon="-22.01922607"><ele>102.0</ele><time>2012-07-28T15:59:41.0000000+00:00</time></trkpt><trkpt lat="63.8537674" lon="-22.0192337"><ele>102.0</ele><time>2012-07-28T15:59:46.0000000+00:00</time></trkpt><trkpt lat="63.85377121" lon="-22.01923943"><ele>102.0</ele><time>2012-07-28T15:59:51.0000000+00:00</time></trkpt><trkpt lat="63.8537674" lon="-22.01924324"><ele>102.0</ele><time>2012-07-28T15:59:56.0000000+00:00</time></trkpt><trkpt lat="63.8537674" lon="-22.01924133"><ele>102.0</ele><time>2012-07-28T16:00:01.0000000+00:00</time></trkpt><trkpt lat="63.85376358" lon="-22.01923943"><ele>102.0</ele><time>2012-07-28T16:00:06.0000000+00:00</time></trkpt><trkpt lat="63.8537674" lon="-22.01924324"><ele>102.1</ele><time>2012-07-28T16:00:11.0000000+00:00</time></trkpt><trkpt lat="63.8537674" lon="-22.0192337"><ele>102.2</ele><time>2012-07-28T16:00:16.0000000+00:00</time></trkpt><trkpt lat="63.8537674" lon="-22.01922989"><ele>102.2</ele><time>2012-07-28T16:00:21.0000000+00:00</time></trkpt><trkpt lat="63.8537674" lon="-22.01923561"><ele>102.2</ele><time>2012-07-28T16:00:26.0000000+00:00</time></trkpt><trkpt lat="63.85376358" lon="-22.01923561"><ele>102.1</ele><time>2012-07-28T16:00:31.0000000+00:00</time></trkpt><trkpt lat="63.85376358" lon="-22.01923943"><ele>102.1</ele><time>2012-07-28T16:00:36.0000000+00:00</time></trkpt><trkpt lat="63.85376358" lon="-22.01924324"><ele>102.1</ele><time>2012-07-28T16:00:41.0000000+00:00</time></trkpt><trkpt lat="63.85377121" lon="-22.01925087"><ele>102.1</ele><time>2012-07-28T16:00:46.0000000+00:00</time></trkpt><trkpt lat="63.85377502" lon="-22.01925659"><ele>102.0</ele><time>2012-07-28T16:00:51.0000000+00:00</time></trkpt><trkpt lat="63.85377502" lon="-22.01926231"><ele>102.0</ele><time>2012-07-28T16:00:56.0000000+00:00</time></trkpt><trkpt lat="63.85377884" lon="-22.0192585"><ele>102.0</ele><time>2012-07-28T16:01:01.0000000+00:00</time></trkpt><trkpt lat="63.85377884" lon="-22.01925278"><ele>102.0</ele><time>2012-07-28T16:01:06.0000000+00:00</time></trkpt><trkpt lat="63.85377502" lon="-22.01923752"><ele>102.0</ele><time>2012-07-28T16:01:11.0000000+00:00</time></trkpt><trkpt lat="63.85377502" lon="-22.01922417"><ele>102.0</ele><time>2012-07-28T16:01:16.0000000+00:00</time></trkpt><trkpt lat="63.85377502" lon="-22.01922607"><ele>102.0</ele><time>2012-07-28T16:01:21.0000000+00:00</time></trkpt><trkpt lat="63.85377502" lon="-22.01922226"><ele>102.0</ele><time>2012-07-28T16:01:26.0000000+00:00</time></trkpt><trkpt lat="63.85377502" lon="-22.01922226"><ele>102.0</ele><time>2012-07-28T16:01:31.0000000+00:00</time></trkpt><trkpt lat="63.85377502" lon="-22.01922989"><ele>101.9</ele><time>2012-07-28T16:01:36.0000000+00:00</time></trkpt><trkpt lat="63.85377121" lon="-22.01922798"><ele>101.9</ele><time>2012-07-28T16:01:41.0000000+00:00</time></trkpt><trkpt lat="63.8537674" lon="-22.01922607"><ele>101.9</ele><time>2012-07-28T16:01:46.0000000+00:00</time></trkpt><trkpt lat="63.8537674" lon="-22.01921845"><ele>101.9</ele><time>2012-07-28T16:01:51.0000000+00:00</time></trkpt><trkpt lat="63.85376358" lon="-22.01922035"><ele>101.9</ele><time>2012-07-28T16:01:56.0000000+00:00</time></trkpt><trkpt lat="63.85376358" lon="-22.01922417"><ele>101.9</ele><time>2012-07-28T16:02:01.0000000+00:00</time></trkpt><trkpt lat="63.85375977" lon="-22.01922035"><ele>102.0</ele><time>2012-07-28T16:02:06.0000000+00:00</time></trkpt><trkpt lat="63.85375595" lon="-22.01922035"><ele>102.0</ele><time>2012-07-28T16:02:11.0000000+00:00</time></trkpt><trkpt lat="63.85375595" lon="-22.01922226"><ele>102.0</ele><time>2012-07-28T16:02:16.0000000+00:00</time></trkpt><trkpt lat="63.85375595" lon="-22.01922607"><ele>102.0</ele><time>2012-07-28T16:02:21.0000000+00:00</time></trkpt><trkpt lat="63.85375595" lon="-22.01922989"><ele>102.1</ele><time>2012-07-28T16:02:26.0000000+00:00</time></trkpt><trkpt lat="63.85375214" lon="-22.01922989"><ele>102.1</ele><time>2012-07-28T16:02:31.0000000+00:00</time></trkpt><trkpt lat="63.85375595" lon="-22.01923752"><ele>102.0</ele><time>2012-07-28T16:02:36.0000000+00:00</time></trkpt><trkpt lat="63.85375977" lon="-22.01924515"><ele>102.0</ele><time>2012-07-28T16:02:41.0000000+00:00</time></trkpt><trkpt lat="63.85375977" lon="-22.01924706"><ele>102.0</ele><time>2012-07-28T16:02:46.0000000+00:00</time></trkpt><trkpt lat="63.85375977" lon="-22.01925278"><ele>102.0</ele><time>2012-07-28T16:02:51.0000000+00:00</time></trkpt><trkpt lat="63.85376358" lon="-22.01925087"><ele>102.0</ele><time>2012-07-28T16:02:56.0000000+00:00</time></trkpt><trkpt lat="63.85376358" lon="-22.01925278"><ele>101.9</ele><time>2012-07-28T16:03:01.0000000+00:00</time></trkpt><trkpt lat="63.85376358" lon="-22.01924896"><ele>101.8</ele><time>2012-07-28T16:03:06.0000000+00:00</time></trkpt><trkpt lat="63.85375977" lon="-22.01924706"><ele>101.8</ele><time>2012-07-28T16:03:11.0000000+00:00</time></trkpt><trkpt lat="63.85375977" lon="-22.01924706"><ele>101.8</ele><time>2012-07-28T16:03:16.0000000+00:00</time></trkpt><trkpt lat="63.85375977" lon="-22.01924324"><ele>101.8</ele><time>2012-07-28T16:03:21.0000000+00:00</time></trkpt><trkpt lat="63.85376358" lon="-22.01924133"><ele>101.7</ele><time>2012-07-28T16:03:26.0000000+00:00</time></trkpt><trkpt lat="63.85376358" lon="-22.01924706"><ele>101.7</ele><time>2012-07-28T16:03:31.0000000+00:00</time></trkpt><trkpt lat="63.85376358" lon="-22.01924324"><ele>101.7</ele><time>2012-07-28T16:03:36.0000000+00:00</time></trkpt><trkpt lat="63.8537674" lon="-22.01925659"><ele>101.7</ele><time>2012-07-28T16:03:41.0000000+00:00</time></trkpt><trkpt lat="63.8537674" lon="-22.01926041"><ele>101.7</ele><time>2012-07-28T16:03:46.0000000+00:00</time></trkpt><trkpt lat="63.85377121" lon="-22.01926231"><ele>101.6</ele><time>2012-07-28T16:03:51.0000000+00:00</time></trkpt><trkpt lat="63.85377121" lon="-22.01926231"><ele>101.6</ele><time>2012-07-28T16:03:56.0000000+00:00</time></trkpt><trkpt lat="63.85377121" lon="-22.01925659"><ele>101.5</ele><time>2012-07-28T16:04:01.0000000+00:00</time></trkpt><trkpt lat="63.85377121" lon="-22.01925087"><ele>101.5</ele><time>2012-07-28T16:04:06.0000000+00:00</time></trkpt><trkpt lat="63.85377121" lon="-22.01925087"><ele>101.5</ele><time>2012-07-28T16:04:11.0000000+00:00</time></trkpt><trkpt lat="63.85377121" lon="-22.01925468"><ele>101.5</ele><time>2012-07-28T16:04:16.0000000+00:00</time></trkpt><trkpt lat="63.8537674" lon="-22.01925087"><ele>101.5</ele><time>2012-07-28T16:04:21.0000000+00:00</time></trkpt><trkpt lat="63.85376358" lon="-22.01924133"><ele>101.5</ele><time>2012-07-28T16:04:26.0000000+00:00</time></trkpt><trkpt lat="63.85375977" lon="-22.0192337"><ele>101.5</ele><time>2012-07-28T16:04:31.0000000+00:00</time></trkpt><trkpt lat="63.85375977" lon="-22.01922798"><ele>101.5</ele><time>2012-07-28T16:04:36.0000000+00:00</time></trkpt><trkpt lat="63.85376358" lon="-22.01922417"><ele>101.5</ele><time>2012-07-28T16:04:41.0000000+00:00</time></trkpt><trkpt lat="63.85376358" lon="-22.01922035"><ele>101.5</ele><time>2012-07-28T16:04:46.0000000+00:00</time></trkpt><trkpt lat="63.85376358" lon="-22.01921845"><ele>101.5</ele><time>2012-07-28T16:04:51.0000000+00:00</time></trkpt><trkpt lat="63.85376358" lon="-22.01922607"><ele>101.5</ele><time>2012-07-28T16:04:56.0000000+00:00</time></trkpt><trkpt lat="63.8537674" lon="-22.0192318"><ele>101.4</ele><time>2012-07-28T16:05:01.0000000+00:00</time></trkpt><trkpt lat="63.8537674" lon="-22.0192337"><ele>101.4</ele><time>2012-07-28T16:05:06.0000000+00:00</time></trkpt><trkpt lat="63.8537674" lon="-22.0192337"><ele>101.4</ele><time>2012-07-28T16:05:11.0000000+00:00</time></trkpt><trkpt lat="63.8537674" lon="-22.0192337"><ele>101.4</ele><time>2012-07-28T16:05:16.0000000+00:00</time></trkpt><trkpt lat="63.8537674" lon="-22.0192337"><ele>101.3</ele><time>2012-07-28T16:05:21.0000000+00:00</time></trkpt><trkpt lat="63.8537674" lon="-22.01923561"><ele>101.3</ele><time>2012-07-28T16:05:26.0000000+00:00</time></trkpt><trkpt lat="63.8537674" lon="-22.01923561"><ele>101.3</ele><time>2012-07-28T16:05:31.0000000+00:00</time></trkpt><trkpt lat="63.8537674" lon="-22.01923561"><ele>101.2</ele><time>2012-07-28T16:05:36.0000000+00:00</time></trkpt><trkpt lat="63.8537674" lon="-22.01923561"><ele>101.1</ele><time>2012-07-28T16:05:41.0000000+00:00</time></trkpt><trkpt lat="63.8537674" lon="-22.01923561"><ele>101.1</ele><time>2012-07-28T16:05:46.0000000+00:00</time></trkpt><trkpt lat="63.8537674" lon="-22.01923752"><ele>101.1</ele><time>2012-07-28T16:05:51.0000000+00:00</time></trkpt><trkpt lat="63.8537674" lon="-22.01923752"><ele>101.1</ele><time>2012-07-28T16:05:56.0000000+00:00</time></trkpt><trkpt lat="63.8537674" lon="-22.01923752"><ele>101.1</ele><time>2012-07-28T16:06:01.0000000+00:00</time></trkpt><trkpt lat="63.8537674" lon="-22.01923752"><ele>101.1</ele><time>2012-07-28T16:06:06.0000000+00:00</time></trkpt><trkpt lat="63.8537674" lon="-22.01923752"><ele>101.1</ele><time>2012-07-28T16:06:11.0000000+00:00</time></trkpt><trkpt lat="63.8537674" lon="-22.01923752"><ele>101.1</ele><time>2012-07-28T16:06:16.0000000+00:00</time></trkpt><trkpt lat="63.8537674" lon="-22.01923752"><ele>101.0</ele><time>2012-07-28T16:06:21.0000000+00:00</time></trkpt><trkpt lat="63.8537674" lon="-22.01923752"><ele>101.0</ele><time>2012-07-28T16:06:26.0000000+00:00</time></trkpt><trkpt lat="63.8537674" lon="-22.01923752"><ele>101.0</ele><time>2012-07-28T16:06:31.0000000+00:00</time></trkpt><trkpt lat="63.8537674" lon="-22.01923752"><ele>101.0</ele><time>2012-07-28T16:06:36.0000000+00:00</time></trkpt><trkpt lat="63.8537674" lon="-22.01923752"><ele>100.9</ele><time>2012-07-28T16:06:41.0000000+00:00</time></trkpt><trkpt lat="63.8537674" lon="-22.01923943"><ele>100.9</ele><time>2012-07-28T16:06:46.0000000+00:00</time></trkpt><trkpt lat="63.8537674" lon="-22.01923943"><ele>100.9</ele><time>2012-07-28T16:06:51.0000000+00:00</time></trkpt><trkpt lat="63.8537674" lon="-22.01923943"><ele>100.8</ele><time>2012-07-28T16:06:56.0000000+00:00</time></trkpt><trkpt lat="63.8537674" lon="-22.01923943"><ele>100.8</ele><time>2012-07-28T16:07:01.0000000+00:00</time></trkpt><trkpt lat="63.8537674" lon="-22.01923943"><ele>100.8</ele><time>2012-07-28T16:07:06.0000000+00:00</time></trkpt><trkpt lat="63.8537674" lon="-22.01923943"><ele>100.8</ele><time>2012-07-28T16:07:11.0000000+00:00</time></trkpt><trkpt lat="63.85377121" lon="-22.01923943"><ele>100.7</ele><time>2012-07-28T16:07:16.0000000+00:00</time></trkpt><trkpt lat="63.85377121" lon="-22.01923943"><ele>100.7</ele><time>2012-07-28T16:07:21.0000000+00:00</time></trkpt><trkpt lat="63.85377121" lon="-22.01923943"><ele>100.7</ele><time>2012-07-28T16:07:26.0000000+00:00</time></trkpt><trkpt lat="63.85377121" lon="-22.01923943"><ele>100.6</ele><time>2012-07-28T16:07:31.0000000+00:00</time></trkpt><trkpt lat="63.85377121" lon="-22.01923943"><ele>100.6</ele><time>2012-07-28T16:07:36.0000000+00:00</time></trkpt><trkpt lat="63.85377121" lon="-22.01923943"><ele>100.6</ele><time>2012-07-28T16:07:41.0000000+00:00</time></trkpt><trkpt lat="63.85377121" lon="-22.01923943"><ele>100.5</ele><time>2012-07-28T16:07:46.0000000+00:00</time></trkpt><trkpt lat="63.85377121" lon="-22.01923943"><ele>100.5</ele><time>2012-07-28T16:07:51.0000000+00:00</time></trkpt><trkpt lat="63.85377121" lon="-22.01923943"><ele>100.5</ele><time>2012-07-28T16:07:56.0000000+00:00</time></trkpt><trkpt lat="63.85377121" lon="-22.01923943"><ele>100.4</ele><time>2012-07-28T16:08:01.0000000+00:00</time></trkpt><trkpt lat="63.85377121" lon="-22.01923943"><ele>100.4</ele><time>2012-07-28T16:08:06.0000000+00:00</time></trkpt><trkpt lat="63.85377121" lon="-22.01923943"><ele>100.4</ele><time>2012-07-28T16:08:11.0000000+00:00</time></trkpt><trkpt lat="63.85377121" lon="-22.01923943"><ele>100.4</ele><time>2012-07-28T16:08:16.0000000+00:00</time></trkpt><trkpt lat="63.85377121" lon="-22.01923943"><ele>100.4</ele><time>2012-07-28T16:08:21.0000000+00:00</time></trkpt><trkpt lat="63.85377121" lon="-22.01923943"><ele>100.3</ele><time>2012-07-28T16:08:26.0000000+00:00</time></trkpt><trkpt lat="63.85377121" lon="-22.01923943"><ele>100.3</ele><time>2012-07-28T16:08:31.0000000+00:00</time></trkpt><trkpt lat="63.85377121" lon="-22.01923943"><ele>100.3</ele><time>2012-07-28T16:08:36.0000000+00:00</time></trkpt><trkpt lat="63.85377121" lon="-22.01923943"><ele>100.2</ele><time>2012-07-28T16:08:41.0000000+00:00</time></trkpt><trkpt lat="63.85377121" lon="-22.01923943"><ele>100.2</ele><time>2012-07-28T16:08:46.0000000+00:00</time></trkpt><trkpt lat="63.85377121" lon="-22.01923943"><ele>100.2</ele><time>2012-07-28T16:08:51.0000000+00:00</time></trkpt><trkpt lat="63.85377121" lon="-22.01923943"><ele>100.2</ele><time>2012-07-28T16:08:56.0000000+00:00</time></trkpt><trkpt lat="63.85377121" lon="-22.01923943"><ele>100.2</ele><time>2012-07-28T16:09:01.0000000+00:00</time></trkpt><trkpt lat="63.85377121" lon="-22.01923943"><ele>100.1</ele><time>2012-07-28T16:09:06.0000000+00:00</time></trkpt><trkpt lat="63.85377121" lon="-22.01923943"><ele>100.1</ele><time>2012-07-28T16:09:11.0000000+00:00</time></trkpt><trkpt lat="63.85377121" lon="-22.01923943"><ele>100.0</ele><time>2012-07-28T16:09:16.0000000+00:00</time></trkpt><trkpt lat="63.85377502" lon="-22.01924133"><ele>100.0</ele><time>2012-07-28T16:09:21.0000000+00:00</time></trkpt><trkpt lat="63.85377502" lon="-22.01924133"><ele>100.0</ele><time>2012-07-28T16:09:26.0000000+00:00</time></trkpt><trkpt lat="63.85377502" lon="-22.01924133"><ele>100.0</ele><time>2012-07-28T16:09:31.0000000+00:00</time></trkpt><trkpt lat="63.85377502" lon="-22.01924133"><ele>99.9</ele><time>2012-07-28T16:09:36.0000000+00:00</time></trkpt><trkpt lat="63.85377502" lon="-22.01924133"><ele>99.9</ele><time>2012-07-28T16:09:41.0000000+00:00</time></trkpt><trkpt lat="63.85377502" lon="-22.01924133"><ele>99.9</ele><time>2012-07-28T16:09:46.0000000+00:00</time></trkpt><trkpt lat="63.85377502" lon="-22.01924133"><ele>99.9</ele><time>2012-07-28T16:09:51.0000000+00:00</time></trkpt><trkpt lat="63.85377502" lon="-22.01924133"><ele>99.8</ele><time>2012-07-28T16:09:56.0000000+00:00</time></trkpt><trkpt lat="63.85377502" lon="-22.01924133"><ele>99.8</ele><time>2012-07-28T16:10:01.0000000+00:00</time></trkpt><trkpt lat="63.85377502" lon="-22.01924133"><ele>99.8</ele><time>2012-07-28T16:10:06.0000000+00:00</time></trkpt><trkpt lat="63.85377502" lon="-22.01924133"><ele>99.7</ele><time>2012-07-28T16:10:11.0000000+00:00</time></trkpt><trkpt lat="63.85377502" lon="-22.01924133"><ele>99.7</ele><time>2012-07-28T16:10:16.0000000+00:00</time></trkpt><trkpt lat="63.85377502" lon="-22.01924133"><ele>99.7</ele><time>2012-07-28T16:10:21.0000000+00:00</time></trkpt><trkpt lat="63.85377502" lon="-22.01924133"><ele>99.7</ele><time>2012-07-28T16:10:26.0000000+00:00</time></trkpt><trkpt lat="63.85377502" lon="-22.01924133"><ele>99.6</ele><time>2012-07-28T16:10:31.0000000+00:00</time></trkpt><trkpt lat="63.85377502" lon="-22.01924133"><ele>99.6</ele><time>2012-07-28T16:10:36.0000000+00:00</time></trkpt><trkpt lat="63.85377502" lon="-22.01924133"><ele>99.6</ele><time>2012-07-28T16:10:41.0000000+00:00</time></trkpt><trkpt lat="63.85377502" lon="-22.01924133"><ele>99.6</ele><time>2012-07-28T16:10:46.0000000+00:00</time></trkpt><trkpt lat="63.85377502" lon="-22.01924133"><ele>99.6</ele><time>2012-07-28T16:10:51.0000000+00:00</time></trkpt><trkpt lat="63.85377502" lon="-22.01924133"><ele>99.5</ele><time>2012-07-28T16:10:56.0000000+00:00</time></trkpt><trkpt lat="63.85377502" lon="-22.01924133"><ele>99.5</ele><time>2012-07-28T16:11:01.0000000+00:00</time></trkpt><trkpt lat="63.85377502" lon="-22.01924133"><ele>99.5</ele><time>2012-07-28T16:11:06.0000000+00:00</time></trkpt><trkpt lat="63.85377502" lon="-22.01924133"><ele>99.5</ele><time>2012-07-28T16:11:11.0000000+00:00</time></trkpt><trkpt lat="63.85377502" lon="-22.01924133"><ele>99.5</ele><time>2012-07-28T16:11:16.0000000+00:00</time></trkpt><trkpt lat="63.85377502" lon="-22.01924133"><ele>99.4</ele><time>2012-07-28T16:11:21.0000000+00:00</time></trkpt><trkpt lat="63.85377502" lon="-22.01924133"><ele>99.4</ele><time>2012-07-28T16:11:26.0000000+00:00</time></trkpt><trkpt lat="63.85377502" lon="-22.01924133"><ele>99.4</ele><time>2012-07-28T16:11:31.0000000+00:00</time></trkpt><trkpt lat="63.85377884" lon="-22.01924133"><ele>99.4</ele><time>2012-07-28T16:11:36.0000000+00:00</time></trkpt><trkpt lat="63.85377884" lon="-22.01924133"><ele>99.4</ele><time>2012-07-28T16:11:41.0000000+00:00</time></trkpt><trkpt lat="63.85377884" lon="-22.01924133"><ele>99.3</ele><time>2012-07-28T16:11:46.0000000+00:00</time></trkpt><trkpt lat="63.85377884" lon="-22.01924133"><ele>99.3</ele><time>2012-07-28T16:11:51.0000000+00:00</time></trkpt><trkpt lat="63.85377884" lon="-22.01924133"><ele>99.3</ele><time>2012-07-28T16:11:56.0000000+00:00</time></trkpt><trkpt lat="63.85377884" lon="-22.01924133"><ele>99.3</ele><time>2012-07-28T16:12:01.0000000+00:00</time></trkpt><trkpt lat="63.85377884" lon="-22.01924133"><ele>99.2</ele><time>2012-07-28T16:12:06.0000000+00:00</time></trkpt><trkpt lat="63.85377884" lon="-22.01924133"><ele>99.2</ele><time>2012-07-28T16:12:11.0000000+00:00</time></trkpt><trkpt lat="63.85377884" lon="-22.01924324"><ele>99.2</ele><time>2012-07-28T16:12:16.0000000+00:00</time></trkpt><trkpt lat="63.85377884" lon="-22.01924324"><ele>99.2</ele><time>2012-07-28T16:12:21.0000000+00:00</time></trkpt><trkpt lat="63.85377884" lon="-22.01924324"><ele>99.1</ele><time>2012-07-28T16:12:26.0000000+00:00</time></trkpt><trkpt lat="63.85377884" lon="-22.01924324"><ele>99.1</ele><time>2012-07-28T16:12:31.0000000+00:00</time></trkpt><trkpt lat="63.85377884" lon="-22.01924324"><ele>99.1</ele><time>2012-07-28T16:12:36.0000000+00:00</time></trkpt><trkpt lat="63.85377884" lon="-22.01924324"><ele>99.1</ele><time>2012-07-28T16:12:41.0000000+00:00</time></trkpt><trkpt lat="63.85377884" lon="-22.01924324"><ele>99.1</ele><time>2012-07-28T16:12:46.0000000+00:00</time></trkpt><trkpt lat="63.85377884" lon="-22.01924324"><ele>99.0</ele><time>2012-07-28T16:12:51.0000000+00:00</time></trkpt><trkpt lat="63.85377884" lon="-22.01924324"><ele>99.0</ele><time>2012-07-28T16:12:56.0000000+00:00</time></trkpt><trkpt lat="63.85377884" lon="-22.01924324"><ele>99.0</ele><time>2012-07-28T16:13:01.0000000+00:00</time></trkpt><trkpt lat="63.85377884" lon="-22.01924324"><ele>99.0</ele><time>2012-07-28T16:13:06.0000000+00:00</time></trkpt><trkpt lat="63.85377884" lon="-22.01924324"><ele>99.0</ele><time>2012-07-28T16:13:11.0000000+00:00</time></trkpt><trkpt lat="63.85377884" lon="-22.01924324"><ele>98.9</ele><time>2012-07-28T16:13:16.0000000+00:00</time></trkpt><trkpt lat="63.85377884" lon="-22.01924324"><ele>98.9</ele><time>2012-07-28T16:13:21.0000000+00:00</time></trkpt><trkpt lat="63.85377884" lon="-22.01924324"><ele>98.9</ele><time>2012-07-28T16:13:26.0000000+00:00</time></trkpt><trkpt lat="63.85377884" lon="-22.01924324"><ele>98.9</ele><time>2012-07-28T16:13:31.0000000+00:00</time></trkpt><trkpt lat="63.85377884" lon="-22.01924324"><ele>98.9</ele><time>2012-07-28T16:13:36.0000000+00:00</time></trkpt><trkpt lat="63.85377884" lon="-22.01924324"><ele>98.8</ele><time>2012-07-28T16:13:41.0000000+00:00</time></trkpt><trkpt lat="63.85377884" lon="-22.01924324"><ele>98.8</ele><time>2012-07-28T16:13:46.0000000+00:00</time></trkpt><trkpt lat="63.85377884" lon="-22.01924324"><ele>98.8</ele><time>2012-07-28T16:13:51.0000000+00:00</time></trkpt><trkpt lat="63.85377884" lon="-22.01924324"><ele>98.8</ele><time>2012-07-28T16:13:56.0000000+00:00</time></trkpt><trkpt lat="63.85377884" lon="-22.01924324"><ele>98.8</ele><time>2012-07-28T16:14:01.0000000+00:00</time></trkpt><trkpt lat="63.85377884" lon="-22.01924324"><ele>98.7</ele><time>2012-07-28T16:14:06.0000000+00:00</time></trkpt><trkpt lat="63.85377884" lon="-22.01924324"><ele>98.7</ele><time>2012-07-28T16:14:11.0000000+00:00</time></trkpt><trkpt lat="63.85377884" lon="-22.01924324"><ele>98.7</ele><time>2012-07-28T16:14:16.0000000+00:00</time></trkpt><trkpt lat="63.85377884" lon="-22.01924324"><ele>98.6</ele><time>2012-07-28T16:14:21.0000000+00:00</time></trkpt><trkpt lat="63.85377884" lon="-22.01924324"><ele>98.6</ele><time>2012-07-28T16:14:26.0000000+00:00</time></trkpt><trkpt lat="63.85377884" lon="-22.01924324"><ele>98.6</ele><time>2012-07-28T16:14:31.0000000+00:00</time></trkpt><trkpt lat="63.85377884" lon="-22.01924324"><ele>98.6</ele><time>2012-07-28T16:14:36.0000000+00:00</time></trkpt><trkpt lat="63.85377884" lon="-22.01924324"><ele>98.5</ele><time>2012-07-28T16:14:41.0000000+00:00</time></trkpt><trkpt lat="63.85377884" lon="-22.01924324"><ele>98.5</ele><time>2012-07-28T16:14:46.0000000+00:00</time></trkpt><trkpt lat="63.85377884" lon="-22.01924324"><ele>98.5</ele><time>2012-07-28T16:14:51.0000000+00:00</time></trkpt><trkpt lat="63.85377884" lon="-22.01924324"><ele>98.5</ele><time>2012-07-28T16:14:56.0000000+00:00</time></trkpt><trkpt lat="63.85377884" lon="-22.01924324"><ele>98.5</ele><time>2012-07-28T16:15:01.0000000+00:00</time></trkpt><trkpt lat="63.85377884" lon="-22.01924324"><ele>98.4</ele><time>2012-07-28T16:15:06.0000000+00:00</time></trkpt><trkpt lat="63.85377884" lon="-22.01924324"><ele>98.4</ele><time>2012-07-28T16:15:11.0000000+00:00</time></trkpt><trkpt lat="63.85378265" lon="-22.01924324"><ele>98.4</ele><time>2012-07-28T16:15:16.0000000+00:00</time></trkpt><trkpt lat="63.85378265" lon="-22.01924324"><ele>98.3</ele><time>2012-07-28T16:15:21.0000000+00:00</time></trkpt><trkpt lat="63.85378265" lon="-22.01924324"><ele>98.3</ele><time>2012-07-28T16:15:26.0000000+00:00</time></trkpt><trkpt lat="63.85378265" lon="-22.01924324"><ele>98.3</ele><time>2012-07-28T16:15:31.0000000+00:00</time></trkpt><trkpt lat="63.85378265" lon="-22.01924324"><ele>98.3</ele><time>2012-07-28T16:15:36.0000000+00:00</time></trkpt><trkpt lat="63.85378265" lon="-22.01924324"><ele>98.2</ele><time>2012-07-28T16:15:41.0000000+00:00</time></trkpt><trkpt lat="63.85378265" lon="-22.01924324"><ele>98.2</ele><time>2012-07-28T16:15:46.0000000+00:00</time></trkpt><trkpt lat="63.85378265" lon="-22.01924324"><ele>98.2</ele><time>2012-07-28T16:15:51.0000000+00:00</time></trkpt><trkpt lat="63.85378265" lon="-22.01924324"><ele>98.2</ele><time>2012-07-28T16:15:56.0000000+00:00</time></trkpt><trkpt lat="63.85378265" lon="-22.01924324"><ele>98.2</ele><time>2012-07-28T16:16:01.0000000+00:00</time></trkpt><trkpt lat="63.85378265" lon="-22.01924324"><ele>98.1</ele><time>2012-07-28T16:16:06.0000000+00:00</time></trkpt><trkpt lat="63.85378265" lon="-22.01924324"><ele>98.1</ele><time>2012-07-28T16:16:11.0000000+00:00</time></trkpt><trkpt lat="63.85378265" lon="-22.01924324"><ele>98.1</ele><time>2012-07-28T16:16:16.0000000+00:00</time></trkpt><trkpt lat="63.85378265" lon="-22.01924324"><ele>98.1</ele><time>2012-07-28T16:16:21.0000000+00:00</time></trkpt><trkpt lat="63.85378265" lon="-22.01924324"><ele>98.1</ele><time>2012-07-28T16:16:26.0000000+00:00</time></trkpt><trkpt lat="63.85378265" lon="-22.01924324"><ele>98.0</ele><time>2012-07-28T16:16:31.0000000+00:00</time></trkpt><trkpt lat="63.85378265" lon="-22.01924515"><ele>98.0</ele><time>2012-07-28T16:16:36.0000000+00:00</time></trkpt><trkpt lat="63.85378265" lon="-22.01924515"><ele>98.0</ele><time>2012-07-28T16:16:41.0000000+00:00</time></trkpt><trkpt lat="63.85378265" lon="-22.01924515"><ele>97.9</ele><time>2012-07-28T16:16:46.0000000+00:00</time></trkpt><trkpt lat="63.85378265" lon="-22.01924515"><ele>97.9</ele><time>2012-07-28T16:16:51.0000000+00:00</time></trkpt><trkpt lat="63.85378265" lon="-22.01924515"><ele>97.9</ele><time>2012-07-28T16:16:56.0000000+00:00</time></trkpt><trkpt lat="63.85378265" lon="-22.01924515"><ele>97.9</ele><time>2012-07-28T16:17:01.0000000+00:00</time></trkpt><trkpt lat="63.85378265" lon="-22.01924324"><ele>97.9</ele><time>2012-07-28T16:17:06.0000000+00:00</time></trkpt><trkpt lat="63.85378265" lon="-22.01924324"><ele>97.9</ele><time>2012-07-28T16:17:11.0000000+00:00</time></trkpt><trkpt lat="63.85378265" lon="-22.01924515"><ele>97.9</ele><time>2012-07-28T16:17:16.0000000+00:00</time></trkpt><trkpt lat="63.85378265" lon="-22.01924324"><ele>97.9</ele><time>2012-07-28T16:17:21.0000000+00:00</time></trkpt><trkpt lat="63.85378265" lon="-22.01924515"><ele>97.8</ele><time>2012-07-28T16:17:26.0000000+00:00</time></trkpt><trkpt lat="63.85378265" lon="-22.01924515"><ele>97.8</ele><time>2012-07-28T16:17:31.0000000+00:00</time></trkpt><trkpt lat="63.85378265" lon="-22.01924515"><ele>97.8</ele><time>2012-07-28T16:17:36.0000000+00:00</time></trkpt><trkpt lat="63.85378265" lon="-22.01924515"><ele>97.8</ele><time>2012-07-28T16:17:41.0000000+00:00</time></trkpt><trkpt lat="63.85378265" lon="-22.01924515"><ele>97.8</ele><time>2012-07-28T16:17:46.0000000+00:00</time></trkpt><trkpt lat="63.85378265" lon="-22.01924324"><ele>97.8</ele><time>2012-07-28T16:17:51.0000000+00:00</time></trkpt><trkpt lat="63.85378265" lon="-22.01924324"><ele>97.8</ele><time>2012-07-28T16:17:56.0000000+00:00</time></trkpt><trkpt lat="63.85378265" lon="-22.01924515"><ele>97.8</ele><time>2012-07-28T16:18:01.0000000+00:00</time></trkpt><trkpt lat="63.85378265" lon="-22.01924515"><ele>97.8</ele><time>2012-07-28T16:18:06.0000000+00:00</time></trkpt><trkpt lat="63.85378265" lon="-22.01924515"><ele>97.8</ele><time>2012-07-28T16:18:11.0000000+00:00</time></trkpt><trkpt lat="63.85378265" lon="-22.01924515"><ele>97.7</ele><time>2012-07-28T16:18:16.0000000+00:00</time></trkpt><trkpt lat="63.85378265" lon="-22.01924515"><ele>97.7</ele><time>2012-07-28T16:18:21.0000000+00:00</time></trkpt><trkpt lat="63.85378265" lon="-22.01924515"><ele>97.7</ele><time>2012-07-28T16:18:26.0000000+00:00</time></trkpt><trkpt lat="63.85378265" lon="-22.01924706"><ele>97.7</ele><time>2012-07-28T16:18:31.0000000+00:00</time></trkpt><trkpt lat="63.85378265" lon="-22.01924706"><ele>97.7</ele><time>2012-07-28T16:18:36.0000000+00:00</time></trkpt><trkpt lat="63.85378265" lon="-22.01924706"><ele>97.6</ele><time>2012-07-28T16:18:41.0000000+00:00</time></trkpt><trkpt lat="63.85378265" lon="-22.01924706"><ele>97.6</ele><time>2012-07-28T16:18:46.0000000+00:00</time></trkpt><trkpt lat="63.85378265" lon="-22.01924706"><ele>97.6</ele><time>2012-07-28T16:18:51.0000000+00:00</time></trkpt><trkpt lat="63.85378265" lon="-22.01924706"><ele>97.6</ele><time>2012-07-28T16:18:56.0000000+00:00</time></trkpt><trkpt lat="63.85378265" lon="-22.01924706"><ele>97.6</ele><time>2012-07-28T16:19:01.0000000+00:00</time></trkpt><trkpt lat="63.85378265" lon="-22.01924706"><ele>97.6</ele><time>2012-07-28T16:19:06.0000000+00:00</time></trkpt><trkpt lat="63.85378265" lon="-22.01924706"><ele>97.6</ele><time>2012-07-28T16:19:11.0000000+00:00</time></trkpt><trkpt lat="63.85378265" lon="-22.01924896"><ele>97.6</ele><time>2012-07-28T16:19:16.0000000+00:00</time></trkpt><trkpt lat="63.85378265" lon="-22.01924896"><ele>97.6</ele><time>2012-07-28T16:19:21.0000000+00:00</time></trkpt><trkpt lat="63.85378265" lon="-22.01924896"><ele>97.6</ele><time>2012-07-28T16:19:26.0000000+00:00</time></trkpt><trkpt lat="63.85378265" lon="-22.01924896"><ele>97.6</ele><time>2012-07-28T16:19:31.0000000+00:00</time></trkpt><trkpt lat="63.85378265" lon="-22.01924896"><ele>97.6</ele><time>2012-07-28T16:19:36.0000000+00:00</time></trkpt><trkpt lat="63.85378265" lon="-22.01924896"><ele>97.6</ele><time>2012-07-28T16:19:41.0000000+00:00</time></trkpt><trkpt lat="63.85378265" lon="-22.01925087"><ele>97.6</ele><time>2012-07-28T16:19:46.0000000+00:00</time></trkpt><trkpt lat="63.85378265" lon="-22.01925087"><ele>97.6</ele><time>2012-07-28T16:19:51.0000000+00:00</time></trkpt><trkpt lat="63.85378265" lon="-22.01925087"><ele>97.6</ele><time>2012-07-28T16:19:56.0000000+00:00</time></trkpt><trkpt lat="63.85378265" lon="-22.01925087"><ele>97.6</ele><time>2012-07-28T16:20:01.0000000+00:00</time></trkpt><trkpt lat="63.85378265" lon="-22.01925087"><ele>97.5</ele><time>2012-07-28T16:20:06.0000000+00:00</time></trkpt><trkpt lat="63.85378265" lon="-22.01925087"><ele>97.5</ele><time>2012-07-28T16:20:11.0000000+00:00</time></trkpt><trkpt lat="63.85378265" lon="-22.01925087"><ele>97.5</ele><time>2012-07-28T16:20:16.0000000+00:00</time></trkpt><trkpt lat="63.85378265" lon="-22.01925087"><ele>97.5</ele><time>2012-07-28T16:20:21.0000000+00:00</time></trkpt><trkpt lat="63.85378265" lon="-22.01925659"><ele>97.3</ele><time>2012-07-28T16:20:26.0000000+00:00</time></trkpt><trkpt lat="63.85378265" lon="-22.01927376"><ele>96.4</ele><time>2012-07-28T16:20:31.0000000+00:00</time></trkpt><trkpt lat="63.85378647" lon="-22.01927185"><ele>96.0</ele><time>2012-07-28T16:20:36.0000000+00:00</time></trkpt><trkpt lat="63.85378265" lon="-22.0192585"><ele>95.9</ele><time>2012-07-28T16:20:41.0000000+00:00</time></trkpt><trkpt lat="63.85378265" lon="-22.01925659"><ele>95.8</ele><time>2012-07-28T16:20:46.0000000+00:00</time></trkpt><trkpt lat="63.85378647" lon="-22.01926231"><ele>95.8</ele><time>2012-07-28T16:20:51.0000000+00:00</time></trkpt><trkpt lat="63.85378647" lon="-22.01926231"><ele>95.8</ele><time>2012-07-28T16:20:56.0000000+00:00</time></trkpt><trkpt lat="63.85378647" lon="-22.01926231"><ele>95.8</ele><time>2012-07-28T16:21:01.0000000+00:00</time></trkpt><trkpt lat="63.85378647" lon="-22.01926231"><ele>95.8</ele><time>2012-07-28T16:21:06.0000000+00:00</time></trkpt><trkpt lat="63.85378647" lon="-22.01926422"><ele>95.7</ele><time>2012-07-28T16:21:11.0000000+00:00</time></trkpt><trkpt lat="63.85378647" lon="-22.01926422"><ele>95.7</ele><time>2012-07-28T16:21:16.0000000+00:00</time></trkpt><trkpt lat="63.85378647" lon="-22.01926613"><ele>95.7</ele><time>2012-07-28T16:21:21.0000000+00:00</time></trkpt><trkpt lat="63.85378647" lon="-22.01926613"><ele>95.7</ele><time>2012-07-28T16:21:26.0000000+00:00</time></trkpt><trkpt lat="63.85378647" lon="-22.01926613"><ele>95.6</ele><time>2012-07-28T16:21:31.0000000+00:00</time></trkpt><trkpt lat="63.85378647" lon="-22.01926613"><ele>95.6</ele><time>2012-07-28T16:21:36.0000000+00:00</time></trkpt><trkpt lat="63.85378647" lon="-22.01926613"><ele>95.6</ele><time>2012-07-28T16:21:41.0000000+00:00</time></trkpt><trkpt lat="63.85378647" lon="-22.01926613"><ele>95.6</ele><time>2012-07-28T16:21:46.0000000+00:00</time></trkpt><trkpt lat="63.85378647" lon="-22.01926613"><ele>95.6</ele><time>2012-07-28T16:21:51.0000000+00:00</time></trkpt><trkpt lat="63.85378647" lon="-22.01926804"><ele>95.6</ele><time>2012-07-28T16:21:56.0000000+00:00</time></trkpt><trkpt lat="63.85378647" lon="-22.01926804"><ele>95.6</ele><time>2012-07-28T16:22:01.0000000+00:00</time></trkpt><trkpt lat="63.85378647" lon="-22.01926804"><ele>95.6</ele><time>2012-07-28T16:22:06.0000000+00:00</time></trkpt><trkpt lat="63.85378647" lon="-22.01926804"><ele>95.6</ele><time>2012-07-28T16:22:11.0000000+00:00</time></trkpt><trkpt lat="63.85378647" lon="-22.01926994"><ele>95.6</ele><time>2012-07-28T16:22:16.0000000+00:00</time></trkpt><trkpt lat="63.85378647" lon="-22.01926994"><ele>95.5</ele><time>2012-07-28T16:22:21.0000000+00:00</time></trkpt><trkpt lat="63.85378647" lon="-22.01926994"><ele>95.5</ele><time>2012-07-28T16:22:26.0000000+00:00</time></trkpt><trkpt lat="63.85378647" lon="-22.01926994"><ele>95.5</ele><time>2012-07-28T16:22:31.0000000+00:00</time></trkpt><trkpt lat="63.85378647" lon="-22.01926994"><ele>95.5</ele><time>2012-07-28T16:22:36.0000000+00:00</time></trkpt><trkpt lat="63.85378647" lon="-22.01926994"><ele>95.5</ele><time>2012-07-28T16:22:41.0000000+00:00</time></trkpt><trkpt lat="63.85378647" lon="-22.01926994"><ele>95.5</ele><time>2012-07-28T16:22:46.0000000+00:00</time></trkpt><trkpt lat="63.85378647" lon="-22.01926994"><ele>95.5</ele><time>2012-07-28T16:22:51.0000000+00:00</time></trkpt><trkpt lat="63.85378647" lon="-22.01926994"><ele>95.4</ele><time>2012-07-28T16:22:56.0000000+00:00</time></trkpt><trkpt lat="63.85378647" lon="-22.01927185"><ele>95.5</ele><time>2012-07-28T16:23:01.0000000+00:00</time></trkpt><trkpt lat="63.85378647" lon="-22.01927185"><ele>95.4</ele><time>2012-07-28T16:23:06.0000000+00:00</time></trkpt><trkpt lat="63.85378647" lon="-22.01927185"><ele>95.4</ele><time>2012-07-28T16:23:11.0000000+00:00</time></trkpt><trkpt lat="63.85378647" lon="-22.01927185"><ele>95.4</ele><time>2012-07-28T16:23:16.0000000+00:00</time></trkpt><trkpt lat="63.85378647" lon="-22.01927376"><ele>95.4</ele><time>2012-07-28T16:23:21.0000000+00:00</time></trkpt><trkpt lat="63.85378647" lon="-22.01927376"><ele>95.4</ele><time>2012-07-28T16:23:26.0000000+00:00</time></trkpt><trkpt lat="63.85378647" lon="-22.01927376"><ele>95.4</ele><time>2012-07-28T16:23:31.0000000+00:00</time></trkpt><trkpt lat="63.85378647" lon="-22.01927376"><ele>95.4</ele><time>2012-07-28T16:23:36.0000000+00:00</time></trkpt><trkpt lat="63.85378647" lon="-22.01927567"><ele>95.4</ele><time>2012-07-28T16:23:41.0000000+00:00</time></trkpt><trkpt lat="63.85379028" lon="-22.01927567"><ele>95.4</ele><time>2012-07-28T16:23:46.0000000+00:00</time></trkpt><trkpt lat="63.85379028" lon="-22.01927567"><ele>95.4</ele><time>2012-07-28T16:23:51.0000000+00:00</time></trkpt><trkpt lat="63.85379028" lon="-22.01927757"><ele>95.4</ele><time>2012-07-28T16:23:56.0000000+00:00</time></trkpt><trkpt lat="63.85379028" lon="-22.01927757"><ele>95.4</ele><time>2012-07-28T16:24:01.0000000+00:00</time></trkpt><trkpt lat="63.85379028" lon="-22.01927757"><ele>95.3</ele><time>2012-07-28T16:24:06.0000000+00:00</time></trkpt><trkpt lat="63.85379028" lon="-22.01927757"><ele>95.3</ele><time>2012-07-28T16:24:11.0000000+00:00</time></trkpt><trkpt lat="63.85379028" lon="-22.01927757"><ele>95.3</ele><time>2012-07-28T16:24:16.0000000+00:00</time></trkpt><trkpt lat="63.85379028" lon="-22.01927757"><ele>95.3</ele><time>2012-07-28T16:24:21.0000000+00:00</time></trkpt><trkpt lat="63.85379028" lon="-22.01927757"><ele>95.3</ele><time>2012-07-28T16:24:26.0000000+00:00</time></trkpt><trkpt lat="63.85379028" lon="-22.01927757"><ele>95.3</ele><time>2012-07-28T16:24:31.0000000+00:00</time></trkpt><trkpt lat="63.85379028" lon="-22.01927948"><ele>95.3</ele><time>2012-07-28T16:24:36.0000000+00:00</time></trkpt><trkpt lat="63.85379028" lon="-22.01927948"><ele>95.3</ele><time>2012-07-28T16:24:41.0000000+00:00</time></trkpt><trkpt lat="63.85379028" lon="-22.01927948"><ele>95.3</ele><time>2012-07-28T16:24:46.0000000+00:00</time></trkpt><trkpt lat="63.85379791" lon="-22.01926994"><ele>95.4</ele><time>2012-07-28T16:24:51.0000000+00:00</time></trkpt><trkpt lat="63.85381699" lon="-22.01925278"><ele>94.9</ele><time>2012-07-28T16:24:56.0000000+00:00</time></trkpt><trkpt lat="63.8538208" lon="-22.0192585"><ele>94.7</ele><time>2012-07-28T16:25:01.0000000+00:00</time></trkpt><trkpt lat="63.85381699" lon="-22.01925468"><ele>94.7</ele><time>2012-07-28T16:25:06.0000000+00:00</time></trkpt><trkpt lat="63.85381699" lon="-22.01925468"><ele>94.7</ele><time>2012-07-28T16:25:11.0000000+00:00</time></trkpt><trkpt lat="63.85381699" lon="-22.01925468"><ele>94.7</ele><time>2012-07-28T16:25:16.0000000+00:00</time></trkpt><trkpt lat="63.85381699" lon="-22.01925468"><ele>94.6</ele><time>2012-07-28T16:25:21.0000000+00:00</time></trkpt><trkpt lat="63.85381699" lon="-22.01925468"><ele>94.6</ele><time>2012-07-28T16:25:26.0000000+00:00</time></trkpt><trkpt lat="63.85382462" lon="-22.01917076"><ele>94.4</ele><time>2012-07-28T16:25:31.0000000+00:00</time></trkpt><trkpt lat="63.85385513" lon="-22.01894188"><ele>93.9</ele><time>2012-07-28T16:25:36.0000000+00:00</time></trkpt><trkpt lat="63.85386276" lon="-22.01881981"><ele>92.9</ele><time>2012-07-28T16:25:41.0000000+00:00</time></trkpt><trkpt lat="63.85387039" lon="-22.01880646"><ele>92.7</ele><time>2012-07-28T16:25:46.0000000+00:00</time></trkpt><trkpt lat="63.85386658" lon="-22.01880455"><ele>92.7</ele><time>2012-07-28T16:25:51.0000000+00:00</time></trkpt><trkpt lat="63.85386658" lon="-22.01880264"><ele>92.7</ele><time>2012-07-28T16:25:56.0000000+00:00</time></trkpt><trkpt lat="63.85387421" lon="-22.01877403"><ele>92.4</ele><time>2012-07-28T16:26:01.0000000+00:00</time></trkpt><trkpt lat="63.85387421" lon="-22.01877213"><ele>92.7</ele><time>2012-07-28T16:26:06.0000000+00:00</time></trkpt><trkpt lat="63.85387421" lon="-22.0187645"><ele>92.5</ele><time>2012-07-28T16:26:11.0000000+00:00</time></trkpt><trkpt lat="63.85387421" lon="-22.0187645"><ele>92.5</ele><time>2012-07-28T16:26:16.0000000+00:00</time></trkpt><trkpt lat="63.85387421" lon="-22.01876831"><ele>92.6</ele><time>2012-07-28T16:26:21.0000000+00:00</time></trkpt><trkpt lat="63.85387421" lon="-22.01876831"><ele>92.6</ele><time>2012-07-28T16:26:26.0000000+00:00</time></trkpt><trkpt lat="63.85387421" lon="-22.01876831"><ele>92.6</ele><time>2012-07-28T16:26:31.0000000+00:00</time></trkpt><trkpt lat="63.85387421" lon="-22.01876831"><ele>92.6</ele><time>2012-07-28T16:26:36.0000000+00:00</time></trkpt><trkpt lat="63.85387421" lon="-22.01876831"><ele>92.6</ele><time>2012-07-28T16:26:41.0000000+00:00</time></trkpt><trkpt lat="63.85387421" lon="-22.01876831"><ele>92.6</ele><time>2012-07-28T16:26:46.0000000+00:00</time></trkpt><trkpt lat="63.85387421" lon="-22.01876831"><ele>92.6</ele><time>2012-07-28T16:26:51.0000000+00:00</time></trkpt><trkpt lat="63.85387421" lon="-22.01876831"><ele>92.5</ele><time>2012-07-28T16:26:56.0000000+00:00</time></trkpt><trkpt lat="63.85387421" lon="-22.01876831"><ele>92.5</ele><time>2012-07-28T16:27:01.0000000+00:00</time></trkpt><trkpt lat="63.85387421" lon="-22.01876831"><ele>92.5</ele><time>2012-07-28T16:27:06.0000000+00:00</time></trkpt><trkpt lat="63.85387421" lon="-22.01876831"><ele>92.5</ele><time>2012-07-28T16:27:11.0000000+00:00</time></trkpt><trkpt lat="63.85387421" lon="-22.01876831"><ele>92.5</ele><time>2012-07-28T16:27:16.0000000+00:00</time></trkpt><trkpt lat="63.85387421" lon="-22.01876831"><ele>92.5</ele><time>2012-07-28T16:27:21.0000000+00:00</time></trkpt><trkpt lat="63.85387421" lon="-22.01876831"><ele>92.5</ele><time>2012-07-28T16:27:26.0000000+00:00</time></trkpt><trkpt lat="63.85387421" lon="-22.01876831"><ele>92.5</ele><time>2012-07-28T16:27:31.0000000+00:00</time></trkpt><trkpt lat="63.85387421" lon="-22.01877022"><ele>92.5</ele><time>2012-07-28T16:27:36.0000000+00:00</time></trkpt><trkpt lat="63.85387421" lon="-22.01876831"><ele>92.5</ele><time>2012-07-28T16:27:41.0000000+00:00</time></trkpt><trkpt lat="63.85396957" lon="-22.01877213"><ele>93.1</ele><time>2012-07-28T16:27:46.0000000+00:00</time></trkpt><trkpt lat="63.8540802" lon="-22.01879311"><ele>93.3</ele><time>2012-07-28T16:27:51.0000000+00:00</time></trkpt><trkpt lat="63.85420227" lon="-22.01881027"><ele>93.4</ele><time>2012-07-28T16:27:56.0000000+00:00</time></trkpt><trkpt lat="63.85431671" lon="-22.01881218"><ele>93.2</ele><time>2012-07-28T16:28:01.0000000+00:00</time></trkpt><trkpt lat="63.85442352" lon="-22.01881027"><ele>92.7</ele><time>2012-07-28T16:28:06.0000000+00:00</time></trkpt><trkpt lat="63.85452271" lon="-22.01879501"><ele>91.6</ele><time>2012-07-28T16:28:11.0000000+00:00</time></trkpt><trkpt lat="63.85464096" lon="-22.01878166"><ele>92.1</ele><time>2012-07-28T16:28:16.0000000+00:00</time></trkpt><trkpt lat="63.85476303" lon="-22.01875496"><ele>92.5</ele><time>2012-07-28T16:28:21.0000000+00:00</time></trkpt><trkpt lat="63.85488892" lon="-22.018713"><ele>93.9</ele><time>2012-07-28T16:28:26.0000000+00:00</time></trkpt><trkpt lat="63.8550148" lon="-22.01866341"><ele>94.6</ele><time>2012-07-28T16:28:31.0000000+00:00</time></trkpt><trkpt lat="63.85512543" lon="-22.01860046"><ele>95.2</ele><time>2012-07-28T16:28:36.0000000+00:00</time></trkpt><trkpt lat="63.85525131" lon="-22.01852417"><ele>95.2</ele><time>2012-07-28T16:28:41.0000000+00:00</time></trkpt><trkpt lat="63.85538101" lon="-22.01846123"><ele>95.4</ele><time>2012-07-28T16:28:46.0000000+00:00</time></trkpt><trkpt lat="63.85551834" lon="-22.01836014"><ele>95.9</ele><time>2012-07-28T16:28:51.0000000+00:00</time></trkpt><trkpt lat="63.85564041" lon="-22.01825714"><ele>96.6</ele><time>2012-07-28T16:28:56.0000000+00:00</time></trkpt><trkpt lat="63.85573959" lon="-22.01817131"><ele>95.7</ele><time>2012-07-28T16:29:01.0000000+00:00</time></trkpt><trkpt lat="63.85585785" lon="-22.01807976"><ele>96.3</ele><time>2012-07-28T16:29:06.0000000+00:00</time></trkpt><trkpt lat="63.85597992" lon="-22.01797676"><ele>95.4</ele><time>2012-07-28T16:29:11.0000000+00:00</time></trkpt><trkpt lat="63.85610199" lon="-22.01787186"><ele>94.2</ele><time>2012-07-28T16:29:16.0000000+00:00</time></trkpt><trkpt lat="63.85621643" lon="-22.01778793"><ele>93.6</ele><time>2012-07-28T16:29:21.0000000+00:00</time></trkpt><trkpt lat="63.85633087" lon="-22.0177536"><ele>92.9</ele><time>2012-07-28T16:29:26.0000000+00:00</time></trkpt><trkpt lat="63.85643387" lon="-22.01771355"><ele>92.3</ele><time>2012-07-28T16:29:31.0000000+00:00</time></trkpt><trkpt lat="63.85653305" lon="-22.01770592"><ele>91.5</ele><time>2012-07-28T16:29:36.0000000+00:00</time></trkpt><trkpt lat="63.85663605" lon="-22.01765251"><ele>90.3</ele><time>2012-07-28T16:29:41.0000000+00:00</time></trkpt><trkpt lat="63.85675812" lon="-22.01765251"><ele>90.2</ele><time>2012-07-28T16:29:46.0000000+00:00</time></trkpt><trkpt lat="63.8568573" lon="-22.01767349"><ele>90.4</ele><time>2012-07-28T16:29:51.0000000+00:00</time></trkpt><trkpt lat="63.85698319" lon="-22.01765823"><ele>89.0</ele><time>2012-07-28T16:29:56.0000000+00:00</time></trkpt><trkpt lat="63.85709" lon="-22.01766205"><ele>87.6</ele><time>2012-07-28T16:30:01.0000000+00:00</time></trkpt><trkpt lat="63.85718918" lon="-22.01766205"><ele>87.8</ele><time>2012-07-28T16:30:06.0000000+00:00</time></trkpt><trkpt lat="63.85728836" lon="-22.01769447"><ele>88.4</ele><time>2012-07-28T16:30:11.0000000+00:00</time></trkpt><trkpt lat="63.85739136" lon="-22.01773834"><ele>88.1</ele><time>2012-07-28T16:30:16.0000000+00:00</time></trkpt><trkpt lat="63.85748673" lon="-22.01776314"><ele>87.0</ele><time>2012-07-28T16:30:21.0000000+00:00</time></trkpt><trkpt lat="63.85757446" lon="-22.01779366"><ele>86.6</ele><time>2012-07-28T16:30:26.0000000+00:00</time></trkpt><trkpt lat="63.85766602" lon="-22.01785469"><ele>89.2</ele><time>2012-07-28T16:30:31.0000000+00:00</time></trkpt><trkpt lat="63.85774994" lon="-22.01791"><ele>91.0</ele><time>2012-07-28T16:30:36.0000000+00:00</time></trkpt><trkpt lat="63.85782623" lon="-22.01793289"><ele>90.9</ele><time>2012-07-28T16:30:41.0000000+00:00</time></trkpt><trkpt lat="63.85791016" lon="-22.01800346"><ele>90.4</ele><time>2012-07-28T16:30:46.0000000+00:00</time></trkpt><trkpt lat="63.85798264" lon="-22.01808739"><ele>91.4</ele><time>2012-07-28T16:30:51.0000000+00:00</time></trkpt><trkpt lat="63.85806274" lon="-22.01814652"><ele>93.0</ele><time>2012-07-28T16:30:56.0000000+00:00</time></trkpt><trkpt lat="63.85813141" lon="-22.01823235"><ele>96.5</ele><time>2012-07-28T16:31:01.0000000+00:00</time></trkpt><trkpt lat="63.85820389" lon="-22.01830673"><ele>97.2</ele><time>2012-07-28T16:31:06.0000000+00:00</time></trkpt><trkpt lat="63.858284" lon="-22.01838112"><ele>97.2</ele><time>2012-07-28T16:31:11.0000000+00:00</time></trkpt><trkpt lat="63.85834122" lon="-22.01846695"><ele>97.0</ele><time>2012-07-28T16:31:16.0000000+00:00</time></trkpt><trkpt lat="63.85840607" lon="-22.01852417"><ele>96.3</ele><time>2012-07-28T16:31:21.0000000+00:00</time></trkpt><trkpt lat="63.85848999" lon="-22.01860046"><ele>93.9</ele><time>2012-07-28T16:31:26.0000000+00:00</time></trkpt><trkpt lat="63.85855484" lon="-22.01867485"><ele>93.1</ele><time>2012-07-28T16:31:31.0000000+00:00</time></trkpt><trkpt lat="63.85861588" lon="-22.0187645"><ele>93.4</ele><time>2012-07-28T16:31:36.0000000+00:00</time></trkpt><trkpt lat="63.85868835" lon="-22.01887512"><ele>93.3</ele><time>2012-07-28T16:31:41.0000000+00:00</time></trkpt><trkpt lat="63.8587532" lon="-22.01896095"><ele>93.7</ele><time>2012-07-28T16:31:46.0000000+00:00</time></trkpt><trkpt lat="63.85882568" lon="-22.01911736"><ele>93.7</ele><time>2012-07-28T16:31:51.0000000+00:00</time></trkpt><trkpt lat="63.85887909" lon="-22.0192318"><ele>93.8</ele><time>2012-07-28T16:31:56.0000000+00:00</time></trkpt><trkpt lat="63.85895157" lon="-22.01935005"><ele>94.7</ele><time>2012-07-28T16:32:01.0000000+00:00</time></trkpt><trkpt lat="63.8590126" lon="-22.01946831"><ele>95.0</ele><time>2012-07-28T16:32:06.0000000+00:00</time></trkpt><trkpt lat="63.85906982" lon="-22.01958847"><ele>94.9</ele><time>2012-07-28T16:32:11.0000000+00:00</time></trkpt><trkpt lat="63.85913086" lon="-22.01973724"><ele>94.6</ele><time>2012-07-28T16:32:16.0000000+00:00</time></trkpt><trkpt lat="63.8591919" lon="-22.01987648"><ele>94.5</ele><time>2012-07-28T16:32:21.0000000+00:00</time></trkpt><trkpt lat="63.85926437" lon="-22.02005768"><ele>94.5</ele><time>2012-07-28T16:32:26.0000000+00:00</time></trkpt><trkpt lat="63.85933685" lon="-22.02026558"><ele>94.7</ele><time>2012-07-28T16:32:31.0000000+00:00</time></trkpt><trkpt lat="63.8594017" lon="-22.02048302"><ele>95.2</ele><time>2012-07-28T16:32:36.0000000+00:00</time></trkpt><trkpt lat="63.85948563" lon="-22.02076912"><ele>96.2</ele><time>2012-07-28T16:32:41.0000000+00:00</time></trkpt><trkpt lat="63.85956192" lon="-22.02101708"><ele>95.9</ele><time>2012-07-28T16:32:46.0000000+00:00</time></trkpt><trkpt lat="63.8596344" lon="-22.02126312"><ele>97.1</ele><time>2012-07-28T16:32:51.0000000+00:00</time></trkpt><trkpt lat="63.85972214" lon="-22.02145767"><ele>97.5</ele><time>2012-07-28T16:32:56.0000000+00:00</time></trkpt><trkpt lat="63.85978317" lon="-22.02163887"><ele>98.6</ele><time>2012-07-28T16:33:01.0000000+00:00</time></trkpt><trkpt lat="63.85985184" lon="-22.02184105"><ele>99.1</ele><time>2012-07-28T16:33:06.0000000+00:00</time></trkpt><trkpt lat="63.85992432" lon="-22.02204132"><ele>99.7</ele><time>2012-07-28T16:33:11.0000000+00:00</time></trkpt><trkpt lat="63.85998535" lon="-22.02223396"><ele>99.8</ele><time>2012-07-28T16:33:16.0000000+00:00</time></trkpt><trkpt lat="63.86006165" lon="-22.0224247"><ele>99.7</ele><time>2012-07-28T16:33:21.0000000+00:00</time></trkpt><trkpt lat="63.86013031" lon="-22.02264214"><ele>100.4</ele><time>2012-07-28T16:33:26.0000000+00:00</time></trkpt><trkpt lat="63.86019135" lon="-22.02284241"><ele>100.5</ele><time>2012-07-28T16:33:31.0000000+00:00</time></trkpt><trkpt lat="63.86026001" lon="-22.0230484"><ele>100.4</ele><time>2012-07-28T16:33:36.0000000+00:00</time></trkpt><trkpt lat="63.86034012" lon="-22.02327538"><ele>101.2</ele><time>2012-07-28T16:33:41.0000000+00:00</time></trkpt><trkpt lat="63.8604126" lon="-22.02352715"><ele>103.9</ele><time>2012-07-28T16:33:46.0000000+00:00</time></trkpt><trkpt lat="63.86047363" lon="-22.02372932"><ele>104.6</ele><time>2012-07-28T16:33:51.0000000+00:00</time></trkpt><trkpt lat="63.86051178" lon="-22.02386093"><ele>104.6</ele><time>2012-07-28T16:33:56.0000000+00:00</time></trkpt><trkpt lat="63.86056519" lon="-22.02400017"><ele>104.2</ele><time>2012-07-28T16:34:01.0000000+00:00</time></trkpt><trkpt lat="63.86062622" lon="-22.02415848"><ele>103.9</ele><time>2012-07-28T16:34:06.0000000+00:00</time></trkpt><trkpt lat="63.86069107" lon="-22.02434349"><ele>103.5</ele><time>2012-07-28T16:34:11.0000000+00:00</time></trkpt><trkpt lat="63.86076355" lon="-22.02457428"><ele>103.1</ele><time>2012-07-28T16:34:16.0000000+00:00</time></trkpt><trkpt lat="63.86085129" lon="-22.02480316"><ele>102.4</ele><time>2012-07-28T16:34:21.0000000+00:00</time></trkpt><trkpt lat="63.86091995" lon="-22.02503586"><ele>101.3</ele><time>2012-07-28T16:34:26.0000000+00:00</time></trkpt><trkpt lat="63.86099625" lon="-22.02529907"><ele>101.7</ele><time>2012-07-28T16:34:31.0000000+00:00</time></trkpt><trkpt lat="63.86107636" lon="-22.0255661"><ele>101.8</ele><time>2012-07-28T16:34:36.0000000+00:00</time></trkpt><trkpt lat="63.86114883" lon="-22.02580071"><ele>101.6</ele><time>2012-07-28T16:34:41.0000000+00:00</time></trkpt><trkpt lat="63.86122894" lon="-22.02603149"><ele>102.1</ele><time>2012-07-28T16:34:46.0000000+00:00</time></trkpt><trkpt lat="63.86129379" lon="-22.02625275"><ele>103.4</ele><time>2012-07-28T16:34:51.0000000+00:00</time></trkpt><trkpt lat="63.8613739" lon="-22.0265007"><ele>103.6</ele><time>2012-07-28T16:34:56.0000000+00:00</time></trkpt><trkpt lat="63.86145783" lon="-22.02676201"><ele>103.7</ele><time>2012-07-28T16:35:01.0000000+00:00</time></trkpt><trkpt lat="63.86154938" lon="-22.02701187"><ele>103.7</ele><time>2012-07-28T16:35:06.0000000+00:00</time></trkpt><trkpt lat="63.86163712" lon="-22.02729225"><ele>105.4</ele><time>2012-07-28T16:35:11.0000000+00:00</time></trkpt><trkpt lat="63.86171722" lon="-22.02756691"><ele>105.9</ele><time>2012-07-28T16:35:16.0000000+00:00</time></trkpt><trkpt lat="63.86180115" lon="-22.02778816"><ele>105.2</ele><time>2012-07-28T16:35:21.0000000+00:00</time></trkpt><trkpt lat="63.86188507" lon="-22.02802849"><ele>105.1</ele><time>2012-07-28T16:35:26.0000000+00:00</time></trkpt><trkpt lat="63.86196518" lon="-22.02827072"><ele>105.2</ele><time>2012-07-28T16:35:31.0000000+00:00</time></trkpt><trkpt lat="63.8620491" lon="-22.02853203"><ele>104.9</ele><time>2012-07-28T16:35:36.0000000+00:00</time></trkpt><trkpt lat="63.86212921" lon="-22.02879715"><ele>105.3</ele><time>2012-07-28T16:35:41.0000000+00:00</time></trkpt><trkpt lat="63.86220932" lon="-22.02907372"><ele>105.7</ele><time>2012-07-28T16:35:46.0000000+00:00</time></trkpt><trkpt lat="63.86229324" lon="-22.02935219"><ele>105.3</ele><time>2012-07-28T16:35:51.0000000+00:00</time></trkpt><trkpt lat="63.86238861" lon="-22.02960968"><ele>104.9</ele><time>2012-07-28T16:35:56.0000000+00:00</time></trkpt><trkpt lat="63.86247253" lon="-22.0298748"><ele>104.3</ele><time>2012-07-28T16:36:01.0000000+00:00</time></trkpt><trkpt lat="63.86256409" lon="-22.03013039"><ele>103.6</ele><time>2012-07-28T16:36:06.0000000+00:00</time></trkpt><trkpt lat="63.86265945" lon="-22.03038597"><ele>102.7</ele><time>2012-07-28T16:36:11.0000000+00:00</time></trkpt><trkpt lat="63.86273956" lon="-22.03061104"><ele>101.4</ele><time>2012-07-28T16:36:16.0000000+00:00</time></trkpt><trkpt lat="63.86281967" lon="-22.03085899"><ele>102.1</ele><time>2012-07-28T16:36:21.0000000+00:00</time></trkpt><trkpt lat="63.86289978" lon="-22.03111076"><ele>102.3</ele><time>2012-07-28T16:36:26.0000000+00:00</time></trkpt><trkpt lat="63.86299896" lon="-22.03135872"><ele>100.9</ele><time>2012-07-28T16:36:31.0000000+00:00</time></trkpt><trkpt lat="63.8630867" lon="-22.03164291"><ele>99.5</ele><time>2012-07-28T16:36:36.0000000+00:00</time></trkpt><trkpt lat="63.86317825" lon="-22.03189278"><ele>99.3</ele><time>2012-07-28T16:36:41.0000000+00:00</time></trkpt><trkpt lat="63.86326599" lon="-22.03214645"><ele>99.4</ele><time>2012-07-28T16:36:46.0000000+00:00</time></trkpt><trkpt lat="63.8633461" lon="-22.0324173"><ele>99.6</ele><time>2012-07-28T16:36:51.0000000+00:00</time></trkpt><trkpt lat="63.86343384" lon="-22.0326786"><ele>99.4</ele><time>2012-07-28T16:36:56.0000000+00:00</time></trkpt><trkpt lat="63.86349487" lon="-22.03292656"><ele>99.6</ele><time>2012-07-28T16:37:01.0000000+00:00</time></trkpt><trkpt lat="63.86357498" lon="-22.03315735"><ele>99.2</ele><time>2012-07-28T16:37:06.0000000+00:00</time></trkpt><trkpt lat="63.86365128" lon="-22.0333519"><ele>97.6</ele><time>2012-07-28T16:37:11.0000000+00:00</time></trkpt><trkpt lat="63.86372757" lon="-22.03357697"><ele>98.2</ele><time>2012-07-28T16:37:16.0000000+00:00</time></trkpt><trkpt lat="63.86378098" lon="-22.03382111"><ele>99.1</ele><time>2012-07-28T16:37:21.0000000+00:00</time></trkpt><trkpt lat="63.86384964" lon="-22.03405762"><ele>99.5</ele><time>2012-07-28T16:37:26.0000000+00:00</time></trkpt><trkpt lat="63.86391068" lon="-22.03429413"><ele>100.4</ele><time>2012-07-28T16:37:31.0000000+00:00</time></trkpt><trkpt lat="63.86399078" lon="-22.03453255"><ele>100.7</ele><time>2012-07-28T16:37:36.0000000+00:00</time></trkpt><trkpt lat="63.86407471" lon="-22.03476334"><ele>100.7</ele><time>2012-07-28T16:37:41.0000000+00:00</time></trkpt><trkpt lat="63.86415482" lon="-22.03498077"><ele>99.0</ele><time>2012-07-28T16:37:46.0000000+00:00</time></trkpt><trkpt lat="63.8642273" lon="-22.03520203"><ele>98.0</ele><time>2012-07-28T16:37:51.0000000+00:00</time></trkpt><trkpt lat="63.8643074" lon="-22.03543854"><ele>97.7</ele><time>2012-07-28T16:37:56.0000000+00:00</time></trkpt><trkpt lat="63.8643837" lon="-22.03567505"><ele>99.3</ele><time>2012-07-28T16:38:01.0000000+00:00</time></trkpt><trkpt lat="63.86445999" lon="-22.03589821"><ele>100.0</ele><time>2012-07-28T16:38:06.0000000+00:00</time></trkpt><trkpt lat="63.86453247" lon="-22.03611565"><ele>99.4</ele><time>2012-07-28T16:38:11.0000000+00:00</time></trkpt><trkpt lat="63.86462021" lon="-22.03635597"><ele>99.7</ele><time>2012-07-28T16:38:16.0000000+00:00</time></trkpt><trkpt lat="63.86470032" lon="-22.03660011"><ele>100.0</ele><time>2012-07-28T16:38:21.0000000+00:00</time></trkpt><trkpt lat="63.8647728" lon="-22.03683662"><ele>100.1</ele><time>2012-07-28T16:38:26.0000000+00:00</time></trkpt><trkpt lat="63.86486054" lon="-22.03706169"><ele>99.8</ele><time>2012-07-28T16:38:31.0000000+00:00</time></trkpt><trkpt lat="63.86493683" lon="-22.03734398"><ele>101.8</ele><time>2012-07-28T16:38:36.0000000+00:00</time></trkpt><trkpt lat="63.86502838" lon="-22.03757286"><ele>101.8</ele><time>2012-07-28T16:38:41.0000000+00:00</time></trkpt><trkpt lat="63.86510849" lon="-22.037817"><ele>102.1</ele><time>2012-07-28T16:38:46.0000000+00:00</time></trkpt><trkpt lat="63.86518478" lon="-22.03805542"><ele>103.4</ele><time>2012-07-28T16:38:51.0000000+00:00</time></trkpt><trkpt lat="63.86526871" lon="-22.03826332"><ele>103.3</ele><time>2012-07-28T16:38:56.0000000+00:00</time></trkpt><trkpt lat="63.86534119" lon="-22.03848839"><ele>106.5</ele><time>2012-07-28T16:39:01.0000000+00:00</time></trkpt><trkpt lat="63.86540222" lon="-22.03870773"><ele>106.9</ele><time>2012-07-28T16:39:06.0000000+00:00</time></trkpt><trkpt lat="63.86548233" lon="-22.03891945"><ele>106.7</ele><time>2012-07-28T16:39:11.0000000+00:00</time></trkpt><trkpt lat="63.86555862" lon="-22.03916931"><ele>106.9</ele><time>2012-07-28T16:39:16.0000000+00:00</time></trkpt><trkpt lat="63.86564636" lon="-22.03943062"><ele>106.9</ele><time>2012-07-28T16:39:21.0000000+00:00</time></trkpt><trkpt lat="63.86572266" lon="-22.03966141"><ele>106.5</ele><time>2012-07-28T16:39:26.0000000+00:00</time></trkpt><trkpt lat="63.86581039" lon="-22.03991699"><ele>106.6</ele><time>2012-07-28T16:39:31.0000000+00:00</time></trkpt><trkpt lat="63.86589432" lon="-22.04017067"><ele>106.9</ele><time>2012-07-28T16:39:36.0000000+00:00</time></trkpt><trkpt lat="63.86597443" lon="-22.04041672"><ele>107.5</ele><time>2012-07-28T16:39:41.0000000+00:00</time></trkpt><trkpt lat="63.86605072" lon="-22.0406704"><ele>107.8</ele><time>2012-07-28T16:39:46.0000000+00:00</time></trkpt><trkpt lat="63.86611939" lon="-22.04091263"><ele>107.9</ele><time>2012-07-28T16:39:51.0000000+00:00</time></trkpt><trkpt lat="63.86618805" lon="-22.0411396"><ele>107.7</ele><time>2012-07-28T16:39:56.0000000+00:00</time></trkpt><trkpt lat="63.86627579" lon="-22.041399"><ele>107.6</ele><time>2012-07-28T16:40:01.0000000+00:00</time></trkpt><trkpt lat="63.86637497" lon="-22.04167366"><ele>107.7</ele><time>2012-07-28T16:40:06.0000000+00:00</time></trkpt><trkpt lat="63.86646652" lon="-22.04195023"><ele>107.8</ele><time>2012-07-28T16:40:11.0000000+00:00</time></trkpt><trkpt lat="63.86655426" lon="-22.04221153"><ele>107.9</ele><time>2012-07-28T16:40:16.0000000+00:00</time></trkpt><trkpt lat="63.866642" lon="-22.04247856"><ele>108.1</ele><time>2012-07-28T16:40:21.0000000+00:00</time></trkpt><trkpt lat="63.86672974" lon="-22.04273224"><ele>108.1</ele><time>2012-07-28T16:40:26.0000000+00:00</time></trkpt><trkpt lat="63.86682129" lon="-22.04300118"><ele>108.5</ele><time>2012-07-28T16:40:31.0000000+00:00</time></trkpt><trkpt lat="63.86690903" lon="-22.04326248"><ele>108.7</ele><time>2012-07-28T16:40:36.0000000+00:00</time></trkpt><trkpt lat="63.86699295" lon="-22.04350472"><ele>109.2</ele><time>2012-07-28T16:40:41.0000000+00:00</time></trkpt><trkpt lat="63.86707306" lon="-22.04372788"><ele>110.0</ele><time>2012-07-28T16:40:46.0000000+00:00</time></trkpt><trkpt lat="63.86713791" lon="-22.04394531"><ele>109.6</ele><time>2012-07-28T16:40:51.0000000+00:00</time></trkpt><trkpt lat="63.86721039" lon="-22.04415321"><ele>110.2</ele><time>2012-07-28T16:40:56.0000000+00:00</time></trkpt><trkpt lat="63.86727905" lon="-22.04437447"><ele>110.9</ele><time>2012-07-28T16:41:01.0000000+00:00</time></trkpt><trkpt lat="63.86732101" lon="-22.04454041"><ele>111.2</ele><time>2012-07-28T16:41:06.0000000+00:00</time></trkpt><trkpt lat="63.86739349" lon="-22.04470825"><ele>111.7</ele><time>2012-07-28T16:41:11.0000000+00:00</time></trkpt><trkpt lat="63.86745453" lon="-22.04487419"><ele>111.9</ele><time>2012-07-28T16:41:16.0000000+00:00</time></trkpt><trkpt lat="63.86751556" lon="-22.04504585"><ele>112.9</ele><time>2012-07-28T16:41:21.0000000+00:00</time></trkpt><trkpt lat="63.86757278" lon="-22.04521942"><ele>112.8</ele><time>2012-07-28T16:41:26.0000000+00:00</time></trkpt><trkpt lat="63.86762619" lon="-22.04540634"><ele>113.0</ele><time>2012-07-28T16:41:31.0000000+00:00</time></trkpt><trkpt lat="63.86769104" lon="-22.04558182"><ele>113.7</ele><time>2012-07-28T16:41:36.0000000+00:00</time></trkpt><trkpt lat="63.86775971" lon="-22.04575157"><ele>114.0</ele><time>2012-07-28T16:41:41.0000000+00:00</time></trkpt><trkpt lat="63.8678093" lon="-22.04590607"><ele>114.7</ele><time>2012-07-28T16:41:46.0000000+00:00</time></trkpt><trkpt lat="63.86786652" lon="-22.0460453"><ele>115.4</ele><time>2012-07-28T16:41:51.0000000+00:00</time></trkpt><trkpt lat="63.86791611" lon="-22.04621315"><ele>115.6</ele><time>2012-07-28T16:41:56.0000000+00:00</time></trkpt><trkpt lat="63.86798096" lon="-22.04636002"><ele>116.3</ele><time>2012-07-28T16:42:01.0000000+00:00</time></trkpt><trkpt lat="63.86803818" lon="-22.04648781"><ele>117.0</ele><time>2012-07-28T16:42:06.0000000+00:00</time></trkpt><trkpt lat="63.86810303" lon="-22.0466423"><ele>117.0</ele><time>2012-07-28T16:42:11.0000000+00:00</time></trkpt><trkpt lat="63.86816025" lon="-22.04675865"><ele>117.4</ele><time>2012-07-28T16:42:16.0000000+00:00</time></trkpt><trkpt lat="63.86822128" lon="-22.04691696"><ele>118.1</ele><time>2012-07-28T16:42:21.0000000+00:00</time></trkpt><trkpt lat="63.8682785" lon="-22.04703713"><ele>118.6</ele><time>2012-07-28T16:42:26.0000000+00:00</time></trkpt><trkpt lat="63.86832428" lon="-22.04713059"><ele>119.0</ele><time>2012-07-28T16:42:31.0000000+00:00</time></trkpt><trkpt lat="63.86839294" lon="-22.04724884"><ele>119.2</ele><time>2012-07-28T16:42:36.0000000+00:00</time></trkpt><trkpt lat="63.86846161" lon="-22.047369"><ele>119.5</ele><time>2012-07-28T16:42:41.0000000+00:00</time></trkpt><trkpt lat="63.86853409" lon="-22.04751396"><ele>119.9</ele><time>2012-07-28T16:42:46.0000000+00:00</time></trkpt><trkpt lat="63.86861038" lon="-22.04763413"><ele>120.2</ele><time>2012-07-28T16:42:51.0000000+00:00</time></trkpt><trkpt lat="63.86869049" lon="-22.04774857"><ele>120.7</ele><time>2012-07-28T16:42:56.0000000+00:00</time></trkpt><trkpt lat="63.86876297" lon="-22.0478611"><ele>121.0</ele><time>2012-07-28T16:43:01.0000000+00:00</time></trkpt><trkpt lat="63.86883545" lon="-22.04798317"><ele>121.8</ele><time>2012-07-28T16:43:06.0000000+00:00</time></trkpt><trkpt lat="63.86891937" lon="-22.04811096"><ele>122.5</ele><time>2012-07-28T16:43:11.0000000+00:00</time></trkpt><trkpt lat="63.86901474" lon="-22.04823303"><ele>123.1</ele><time>2012-07-28T16:43:16.0000000+00:00</time></trkpt><trkpt lat="63.86909866" lon="-22.04834175"><ele>123.4</ele><time>2012-07-28T16:43:21.0000000+00:00</time></trkpt><trkpt lat="63.86918259" lon="-22.04842567"><ele>123.6</ele><time>2012-07-28T16:43:26.0000000+00:00</time></trkpt><trkpt lat="63.86927033" lon="-22.04852104"><ele>123.8</ele><time>2012-07-28T16:43:31.0000000+00:00</time></trkpt><trkpt lat="63.86935806" lon="-22.0486145"><ele>124.3</ele><time>2012-07-28T16:43:36.0000000+00:00</time></trkpt><trkpt lat="63.86944962" lon="-22.04870415"><ele>124.4</ele><time>2012-07-28T16:43:41.0000000+00:00</time></trkpt><trkpt lat="63.86951065" lon="-22.04878998"><ele>125.3</ele><time>2012-07-28T16:43:46.0000000+00:00</time></trkpt><trkpt lat="63.86960602" lon="-22.04885483"><ele>126.0</ele><time>2012-07-28T16:43:51.0000000+00:00</time></trkpt><trkpt lat="63.8697052" lon="-22.0489502"><ele>125.6</ele><time>2012-07-28T16:43:56.0000000+00:00</time></trkpt><trkpt lat="63.86981964" lon="-22.04905319"><ele>125.0</ele><time>2012-07-28T16:44:01.0000000+00:00</time></trkpt><trkpt lat="63.86992645" lon="-22.04913139"><ele>125.7</ele><time>2012-07-28T16:44:06.0000000+00:00</time></trkpt><trkpt lat="63.87003326" lon="-22.04921913"><ele>126.0</ele><time>2012-07-28T16:44:11.0000000+00:00</time></trkpt><trkpt lat="63.87014771" lon="-22.04929924"><ele>127.3</ele><time>2012-07-28T16:44:16.0000000+00:00</time></trkpt><trkpt lat="63.87027359" lon="-22.04937553"><ele>127.8</ele><time>2012-07-28T16:44:21.0000000+00:00</time></trkpt><trkpt lat="63.87040329" lon="-22.04944038"><ele>127.2</ele><time>2012-07-28T16:44:26.0000000+00:00</time></trkpt><trkpt lat="63.8705368" lon="-22.04954338"><ele>127.8</ele><time>2012-07-28T16:44:31.0000000+00:00</time></trkpt><trkpt lat="63.87068558" lon="-22.04963112"><ele>128.4</ele><time>2012-07-28T16:44:36.0000000+00:00</time></trkpt><trkpt lat="63.87083817" lon="-22.04971314"><ele>127.9</ele><time>2012-07-28T16:44:41.0000000+00:00</time></trkpt><trkpt lat="63.87098312" lon="-22.04981804"><ele>127.3</ele><time>2012-07-28T16:44:46.0000000+00:00</time></trkpt><trkpt lat="63.87113953" lon="-22.04991913"><ele>129.4</ele><time>2012-07-28T16:44:51.0000000+00:00</time></trkpt><trkpt lat="63.8712883" lon="-22.05003166"><ele>129.9</ele><time>2012-07-28T16:44:56.0000000+00:00</time></trkpt><trkpt lat="63.87142181" lon="-22.0501194"><ele>130.1</ele><time>2012-07-28T16:45:01.0000000+00:00</time></trkpt><trkpt lat="63.87155151" lon="-22.05021286"><ele>128.9</ele><time>2012-07-28T16:45:06.0000000+00:00</time></trkpt><trkpt lat="63.87168503" lon="-22.05030632"><ele>128.6</ele><time>2012-07-28T16:45:11.0000000+00:00</time></trkpt><trkpt lat="63.87181091" lon="-22.0504055"><ele>129.4</ele><time>2012-07-28T16:45:16.0000000+00:00</time></trkpt><trkpt lat="63.87194824" lon="-22.05051231"><ele>128.6</ele><time>2012-07-28T16:45:21.0000000+00:00</time></trkpt><trkpt lat="63.87208557" lon="-22.05061722"><ele>128.4</ele><time>2012-07-28T16:45:26.0000000+00:00</time></trkpt><trkpt lat="63.87221146" lon="-22.05071068"><ele>127.9</ele><time>2012-07-28T16:45:31.0000000+00:00</time></trkpt><trkpt lat="63.87234116" lon="-22.05080032"><ele>127.9</ele><time>2012-07-28T16:45:36.0000000+00:00</time></trkpt><trkpt lat="63.87245941" lon="-22.05090714"><ele>129.2</ele><time>2012-07-28T16:45:41.0000000+00:00</time></trkpt><trkpt lat="63.87257385" lon="-22.05097389"><ele>128.7</ele><time>2012-07-28T16:45:46.0000000+00:00</time></trkpt><trkpt lat="63.87268448" lon="-22.05109215"><ele>128.7</ele><time>2012-07-28T16:45:51.0000000+00:00</time></trkpt><trkpt lat="63.87280273" lon="-22.05115891"><ele>128.7</ele><time>2012-07-28T16:45:56.0000000+00:00</time></trkpt><trkpt lat="63.87292099" lon="-22.05125046"><ele>127.1</ele><time>2012-07-28T16:46:01.0000000+00:00</time></trkpt><trkpt lat="63.87303162" lon="-22.05132675"><ele>129.8</ele><time>2012-07-28T16:46:06.0000000+00:00</time></trkpt><trkpt lat="63.87313843" lon="-22.05140495"><ele>128.3</ele><time>2012-07-28T16:46:11.0000000+00:00</time></trkpt><trkpt lat="63.8732605" lon="-22.05149841"><ele>127.2</ele><time>2012-07-28T16:46:16.0000000+00:00</time></trkpt><trkpt lat="63.87338257" lon="-22.05161858"><ele>128.6</ele><time>2012-07-28T16:46:21.0000000+00:00</time></trkpt><trkpt lat="63.87348938" lon="-22.05172157"><ele>127.9</ele><time>2012-07-28T16:46:26.0000000+00:00</time></trkpt><trkpt lat="63.87359619" lon="-22.05179977"><ele>128.1</ele><time>2012-07-28T16:46:31.0000000+00:00</time></trkpt><trkpt lat="63.873703" lon="-22.05188942"><ele>128.6</ele><time>2012-07-28T16:46:36.0000000+00:00</time></trkpt><trkpt lat="63.87379837" lon="-22.05196953"><ele>129.4</ele><time>2012-07-28T16:46:41.0000000+00:00</time></trkpt><trkpt lat="63.87388229" lon="-22.05205727"><ele>130.5</ele><time>2012-07-28T16:46:46.0000000+00:00</time></trkpt><trkpt lat="63.87397385" lon="-22.05212021"><ele>131.2</ele><time>2012-07-28T16:46:51.0000000+00:00</time></trkpt><trkpt lat="63.87409973" lon="-22.05224228"><ele>132.8</ele><time>2012-07-28T16:46:56.0000000+00:00</time></trkpt><trkpt lat="63.87419891" lon="-22.0523262"><ele>134.1</ele><time>2012-07-28T16:47:01.0000000+00:00</time></trkpt><trkpt lat="63.8742981" lon="-22.05237007"><ele>133.4</ele><time>2012-07-28T16:47:06.0000000+00:00</time></trkpt><trkpt lat="63.87438583" lon="-22.05244255"><ele>133.2</ele><time>2012-07-28T16:47:11.0000000+00:00</time></trkpt><trkpt lat="63.87448502" lon="-22.05248642"><ele>132.7</ele><time>2012-07-28T16:47:16.0000000+00:00</time></trkpt><trkpt lat="63.87458038" lon="-22.05255127"><ele>131.9</ele><time>2012-07-28T16:47:21.0000000+00:00</time></trkpt><trkpt lat="63.87467957" lon="-22.05262566"><ele>130.9</ele><time>2012-07-28T16:47:26.0000000+00:00</time></trkpt><trkpt lat="63.87479019" lon="-22.05270386"><ele>132.2</ele><time>2012-07-28T16:47:31.0000000+00:00</time></trkpt><trkpt lat="63.87489319" lon="-22.0527916"><ele>134.2</ele><time>2012-07-28T16:47:36.0000000+00:00</time></trkpt><trkpt lat="63.87498474" lon="-22.0528965"><ele>135.8</ele><time>2012-07-28T16:47:41.0000000+00:00</time></trkpt><trkpt lat="63.87508011" lon="-22.05296707"><ele>135.0</ele><time>2012-07-28T16:47:46.0000000+00:00</time></trkpt><trkpt lat="63.87516785" lon="-22.05303192"><ele>136.1</ele><time>2012-07-28T16:47:51.0000000+00:00</time></trkpt><trkpt lat="63.87527847" lon="-22.05313873"><ele>136.7</ele><time>2012-07-28T16:47:56.0000000+00:00</time></trkpt><trkpt lat="63.87537766" lon="-22.05321503"><ele>135.0</ele><time>2012-07-28T16:48:01.0000000+00:00</time></trkpt><trkpt lat="63.87547684" lon="-22.05330086"><ele>134.2</ele><time>2012-07-28T16:48:06.0000000+00:00</time></trkpt><trkpt lat="63.87558365" lon="-22.05336571"><ele>134.9</ele><time>2012-07-28T16:48:11.0000000+00:00</time></trkpt><trkpt lat="63.87566757" lon="-22.05343437"><ele>133.1</ele><time>2012-07-28T16:48:16.0000000+00:00</time></trkpt><trkpt lat="63.87575913" lon="-22.05349731"><ele>134.1</ele><time>2012-07-28T16:48:21.0000000+00:00</time></trkpt><trkpt lat="63.87585449" lon="-22.05355072"><ele>134.1</ele><time>2012-07-28T16:48:26.0000000+00:00</time></trkpt><trkpt lat="63.8759613" lon="-22.05363464"><ele>133.7</ele><time>2012-07-28T16:48:31.0000000+00:00</time></trkpt><trkpt lat="63.8760643" lon="-22.05370522"><ele>134.7</ele><time>2012-07-28T16:48:36.0000000+00:00</time></trkpt><trkpt lat="63.87616348" lon="-22.05380631"><ele>135.3</ele><time>2012-07-28T16:48:41.0000000+00:00</time></trkpt><trkpt lat="63.87626267" lon="-22.05388451"><ele>135.3</ele><time>2012-07-28T16:48:46.0000000+00:00</time></trkpt><trkpt lat="63.87635422" lon="-22.05394936"><ele>136.0</ele><time>2012-07-28T16:48:51.0000000+00:00</time></trkpt><trkpt lat="63.87644577" lon="-22.05401993"><ele>136.3</ele><time>2012-07-28T16:48:56.0000000+00:00</time></trkpt><trkpt lat="63.87652588" lon="-22.05407333"><ele>136.0</ele><time>2012-07-28T16:49:01.0000000+00:00</time></trkpt><trkpt lat="63.87659073" lon="-22.05412483"><ele>135.9</ele><time>2012-07-28T16:49:06.0000000+00:00</time></trkpt><trkpt lat="63.87665939" lon="-22.05418587"><ele>136.2</ele><time>2012-07-28T16:49:11.0000000+00:00</time></trkpt><trkpt lat="63.8767128" lon="-22.05421066"><ele>137.1</ele><time>2012-07-28T16:49:16.0000000+00:00</time></trkpt><trkpt lat="63.87676621" lon="-22.05428124"><ele>136.0</ele><time>2012-07-28T16:49:21.0000000+00:00</time></trkpt><trkpt lat="63.87683487" lon="-22.05435371"><ele>136.2</ele><time>2012-07-28T16:49:26.0000000+00:00</time></trkpt><trkpt lat="63.87690353" lon="-22.05441093"><ele>136.6</ele><time>2012-07-28T16:49:31.0000000+00:00</time></trkpt><trkpt lat="63.8769722" lon="-22.05442619"><ele>137.8</ele><time>2012-07-28T16:49:36.0000000+00:00</time></trkpt><trkpt lat="63.87703705" lon="-22.05445862"><ele>138.6</ele><time>2012-07-28T16:49:41.0000000+00:00</time></trkpt><trkpt lat="63.8771019" lon="-22.05451584"><ele>140.2</ele><time>2012-07-28T16:49:46.0000000+00:00</time></trkpt><trkpt lat="63.87717056" lon="-22.05457115"><ele>141.0</ele><time>2012-07-28T16:49:51.0000000+00:00</time></trkpt><trkpt lat="63.8772316" lon="-22.05461884"><ele>141.5</ele><time>2012-07-28T16:49:56.0000000+00:00</time></trkpt><trkpt lat="63.87730026" lon="-22.05467606"><ele>141.9</ele><time>2012-07-28T16:50:01.0000000+00:00</time></trkpt><trkpt lat="63.87735367" lon="-22.05475426"><ele>142.0</ele><time>2012-07-28T16:50:06.0000000+00:00</time></trkpt><trkpt lat="63.87742996" lon="-22.05480957"><ele>142.7</ele><time>2012-07-28T16:50:11.0000000+00:00</time></trkpt><trkpt lat="63.87750244" lon="-22.05483818"><ele>143.8</ele><time>2012-07-28T16:50:16.0000000+00:00</time></trkpt><trkpt lat="63.87757874" lon="-22.0548954"><ele>145.0</ele><time>2012-07-28T16:50:21.0000000+00:00</time></trkpt><trkpt lat="63.8776474" lon="-22.05492592"><ele>145.2</ele><time>2012-07-28T16:50:26.0000000+00:00</time></trkpt><trkpt lat="63.87771225" lon="-22.05498886"><ele>145.9</ele><time>2012-07-28T16:50:31.0000000+00:00</time></trkpt><trkpt lat="63.87778473" lon="-22.05504036"><ele>146.4</ele><time>2012-07-28T16:50:36.0000000+00:00</time></trkpt><trkpt lat="63.87784958" lon="-22.05509949"><ele>147.4</ele><time>2012-07-28T16:50:41.0000000+00:00</time></trkpt><trkpt lat="63.87792969" lon="-22.05514717"><ele>148.1</ele><time>2012-07-28T16:50:46.0000000+00:00</time></trkpt><trkpt lat="63.87800598" lon="-22.05519104"><ele>147.7</ele><time>2012-07-28T16:50:51.0000000+00:00</time></trkpt><trkpt lat="63.87807465" lon="-22.05526543"><ele>147.8</ele><time>2012-07-28T16:50:56.0000000+00:00</time></trkpt><trkpt lat="63.87815476" lon="-22.05533981"><ele>147.4</ele><time>2012-07-28T16:51:01.0000000+00:00</time></trkpt><trkpt lat="63.87823105" lon="-22.05539894"><ele>146.5</ele><time>2012-07-28T16:51:06.0000000+00:00</time></trkpt><trkpt lat="63.87829971" lon="-22.05543137"><ele>147.0</ele><time>2012-07-28T16:51:11.0000000+00:00</time></trkpt><trkpt lat="63.87838745" lon="-22.05547333"><ele>147.5</ele><time>2012-07-28T16:51:16.0000000+00:00</time></trkpt><trkpt lat="63.87846375" lon="-22.05555344"><ele>146.3</ele><time>2012-07-28T16:51:21.0000000+00:00</time></trkpt><trkpt lat="63.87855148" lon="-22.05565071"><ele>146.4</ele><time>2012-07-28T16:51:26.0000000+00:00</time></trkpt><trkpt lat="63.87863159" lon="-22.05572891"><ele>146.8</ele><time>2012-07-28T16:51:31.0000000+00:00</time></trkpt><trkpt lat="63.8787117" lon="-22.0558033"><ele>146.3</ele><time>2012-07-28T16:51:36.0000000+00:00</time></trkpt><trkpt lat="63.87878799" lon="-22.05589104"><ele>146.1</ele><time>2012-07-28T16:51:41.0000000+00:00</time></trkpt><trkpt lat="63.87888336" lon="-22.05595398"><ele>145.3</ele><time>2012-07-28T16:51:46.0000000+00:00</time></trkpt><trkpt lat="63.87897492" lon="-22.05603027"><ele>145.0</ele><time>2012-07-28T16:51:51.0000000+00:00</time></trkpt><trkpt lat="63.87907028" lon="-22.05609322"><ele>145.9</ele><time>2012-07-28T16:51:56.0000000+00:00</time></trkpt><trkpt lat="63.87915421" lon="-22.05616379"><ele>145.0</ele><time>2012-07-28T16:52:01.0000000+00:00</time></trkpt><trkpt lat="63.87926102" lon="-22.05624008"><ele>145.9</ele><time>2012-07-28T16:52:06.0000000+00:00</time></trkpt><trkpt lat="63.87934876" lon="-22.05630112"><ele>148.1</ele><time>2012-07-28T16:52:11.0000000+00:00</time></trkpt><trkpt lat="63.87944412" lon="-22.05637741"><ele>148.0</ele><time>2012-07-28T16:52:16.0000000+00:00</time></trkpt><trkpt lat="63.87953568" lon="-22.0564518"><ele>147.4</ele><time>2012-07-28T16:52:21.0000000+00:00</time></trkpt><trkpt lat="63.87962341" lon="-22.05653572"><ele>145.5</ele><time>2012-07-28T16:52:26.0000000+00:00</time></trkpt><trkpt lat="63.87971497" lon="-22.05662155"><ele>145.8</ele><time>2012-07-28T16:52:31.0000000+00:00</time></trkpt><trkpt lat="63.87981033" lon="-22.05666351"><ele>146.8</ele><time>2012-07-28T16:52:36.0000000+00:00</time></trkpt><trkpt lat="63.87990952" lon="-22.05673218"><ele>147.3</ele><time>2012-07-28T16:52:41.0000000+00:00</time></trkpt><trkpt lat="63.88003159" lon="-22.05680466"><ele>148.6</ele><time>2012-07-28T16:52:46.0000000+00:00</time></trkpt><trkpt lat="63.88013458" lon="-22.05691338"><ele>146.4</ele><time>2012-07-28T16:52:51.0000000+00:00</time></trkpt><trkpt lat="63.88024521" lon="-22.05701256"><ele>146.0</ele><time>2012-07-28T16:52:56.0000000+00:00</time></trkpt><trkpt lat="63.88035965" lon="-22.05708504"><ele>145.8</ele><time>2012-07-28T16:53:01.0000000+00:00</time></trkpt><trkpt lat="63.88047028" lon="-22.05713463"><ele>147.2</ele><time>2012-07-28T16:53:06.0000000+00:00</time></trkpt><trkpt lat="63.8805809" lon="-22.05718613"><ele>146.6</ele><time>2012-07-28T16:53:11.0000000+00:00</time></trkpt><trkpt lat="63.88067627" lon="-22.0572567"><ele>147.1</ele><time>2012-07-28T16:53:16.0000000+00:00</time></trkpt><trkpt lat="63.88080216" lon="-22.05729866"><ele>148.5</ele><time>2012-07-28T16:53:21.0000000+00:00</time></trkpt><trkpt lat="63.8809166" lon="-22.0573597"><ele>149.1</ele><time>2012-07-28T16:53:26.0000000+00:00</time></trkpt><trkpt lat="63.88102341" lon="-22.05740929"><ele>149.2</ele><time>2012-07-28T16:53:31.0000000+00:00</time></trkpt><trkpt lat="63.88112259" lon="-22.05747223"><ele>150.2</ele><time>2012-07-28T16:53:36.0000000+00:00</time></trkpt><trkpt lat="63.88121414" lon="-22.05749512"><ele>151.2</ele><time>2012-07-28T16:53:41.0000000+00:00</time></trkpt><trkpt lat="63.88131714" lon="-22.05752564"><ele>151.7</ele><time>2012-07-28T16:53:46.0000000+00:00</time></trkpt><trkpt lat="63.88141632" lon="-22.05757713"><ele>151.5</ele><time>2012-07-28T16:53:51.0000000+00:00</time></trkpt><trkpt lat="63.88151169" lon="-22.05761528"><ele>151.4</ele><time>2012-07-28T16:53:56.0000000+00:00</time></trkpt><trkpt lat="63.88160324" lon="-22.05765915"><ele>152.9</ele><time>2012-07-28T16:54:01.0000000+00:00</time></trkpt><trkpt lat="63.88169098" lon="-22.05770302"><ele>153.9</ele><time>2012-07-28T16:54:06.0000000+00:00</time></trkpt><trkpt lat="63.88178253" lon="-22.05773354"><ele>154.5</ele><time>2012-07-28T16:54:11.0000000+00:00</time></trkpt><trkpt lat="63.88187408" lon="-22.05776405"><ele>154.6</ele><time>2012-07-28T16:54:16.0000000+00:00</time></trkpt><trkpt lat="63.88196945" lon="-22.05780983"><ele>153.9</ele><time>2012-07-28T16:54:21.0000000+00:00</time></trkpt><trkpt lat="63.88205719" lon="-22.05784988"><ele>154.5</ele><time>2012-07-28T16:54:26.0000000+00:00</time></trkpt><trkpt lat="63.88215637" lon="-22.05788994"><ele>155.9</ele><time>2012-07-28T16:54:31.0000000+00:00</time></trkpt><trkpt lat="63.88224793" lon="-22.05792427"><ele>156.3</ele><time>2012-07-28T16:54:36.0000000+00:00</time></trkpt><trkpt lat="63.88232803" lon="-22.05796623"><ele>156.2</ele><time>2012-07-28T16:54:41.0000000+00:00</time></trkpt><trkpt lat="63.88243485" lon="-22.05800438"><ele>156.9</ele><time>2012-07-28T16:54:46.0000000+00:00</time></trkpt><trkpt lat="63.88253784" lon="-22.05804634"><ele>157.0</ele><time>2012-07-28T16:54:51.0000000+00:00</time></trkpt><trkpt lat="63.88264084" lon="-22.0580864"><ele>157.3</ele><time>2012-07-28T16:54:56.0000000+00:00</time></trkpt><trkpt lat="63.88273621" lon="-22.0581398"><ele>158.0</ele><time>2012-07-28T16:55:01.0000000+00:00</time></trkpt><trkpt lat="63.88283157" lon="-22.05818939"><ele>158.5</ele><time>2012-07-28T16:55:06.0000000+00:00</time></trkpt><trkpt lat="63.88293457" lon="-22.05820465"><ele>158.9</ele><time>2012-07-28T16:55:11.0000000+00:00</time></trkpt><trkpt lat="63.88303375" lon="-22.05823898"><ele>158.9</ele><time>2012-07-28T16:55:16.0000000+00:00</time></trkpt><trkpt lat="63.88312912" lon="-22.05827332"><ele>158.7</ele><time>2012-07-28T16:55:21.0000000+00:00</time></trkpt><trkpt lat="63.88323212" lon="-22.058321"><ele>158.8</ele><time>2012-07-28T16:55:26.0000000+00:00</time></trkpt><trkpt lat="63.88333893" lon="-22.05837631"><ele>159.2</ele><time>2012-07-28T16:55:31.0000000+00:00</time></trkpt><trkpt lat="63.88344955" lon="-22.05842209"><ele>159.3</ele><time>2012-07-28T16:55:36.0000000+00:00</time></trkpt><trkpt lat="63.88355255" lon="-22.05845642"><ele>159.5</ele><time>2012-07-28T16:55:41.0000000+00:00</time></trkpt><trkpt lat="63.88367462" lon="-22.05852318"><ele>159.7</ele><time>2012-07-28T16:55:46.0000000+00:00</time></trkpt><trkpt lat="63.88376999" lon="-22.05857468"><ele>159.3</ele><time>2012-07-28T16:55:51.0000000+00:00</time></trkpt><trkpt lat="63.88388062" lon="-22.05861664"><ele>159.9</ele><time>2012-07-28T16:55:56.0000000+00:00</time></trkpt><trkpt lat="63.88398361" lon="-22.05864143"><ele>160.1</ele><time>2012-07-28T16:56:01.0000000+00:00</time></trkpt><trkpt lat="63.88409042" lon="-22.05868721"><ele>159.7</ele><time>2012-07-28T16:56:06.0000000+00:00</time></trkpt><trkpt lat="63.88418961" lon="-22.05873489"><ele>159.0</ele><time>2012-07-28T16:56:11.0000000+00:00</time></trkpt><trkpt lat="63.8842926" lon="-22.05880356"><ele>159.7</ele><time>2012-07-28T16:56:16.0000000+00:00</time></trkpt><trkpt lat="63.8843956" lon="-22.05885506"><ele>159.7</ele><time>2012-07-28T16:56:21.0000000+00:00</time></trkpt><trkpt lat="63.88449097" lon="-22.05888176"><ele>159.2</ele><time>2012-07-28T16:56:26.0000000+00:00</time></trkpt><trkpt lat="63.88460159" lon="-22.05892181"><ele>159.3</ele><time>2012-07-28T16:56:31.0000000+00:00</time></trkpt><trkpt lat="63.88470459" lon="-22.05896378"><ele>159.1</ele><time>2012-07-28T16:56:36.0000000+00:00</time></trkpt><trkpt lat="63.88481903" lon="-22.05899239"><ele>159.8</ele><time>2012-07-28T16:56:41.0000000+00:00</time></trkpt><trkpt lat="63.88492966" lon="-22.05900955"><ele>160.3</ele><time>2012-07-28T16:56:46.0000000+00:00</time></trkpt><trkpt lat="63.88503647" lon="-22.05903053"><ele>159.8</ele><time>2012-07-28T16:56:51.0000000+00:00</time></trkpt><trkpt lat="63.88515854" lon="-22.05905342"><ele>160.3</ele><time>2012-07-28T16:56:56.0000000+00:00</time></trkpt><trkpt lat="63.88527679" lon="-22.05906105"><ele>160.6</ele><time>2012-07-28T16:57:01.0000000+00:00</time></trkpt><trkpt lat="63.88538742" lon="-22.05907059"><ele>160.9</ele><time>2012-07-28T16:57:06.0000000+00:00</time></trkpt><trkpt lat="63.88549423" lon="-22.05908585"><ele>161.0</ele><time>2012-07-28T16:57:11.0000000+00:00</time></trkpt><trkpt lat="63.88561249" lon="-22.05910873"><ele>161.4</ele><time>2012-07-28T16:57:16.0000000+00:00</time></trkpt><trkpt lat="63.88573837" lon="-22.05910492"><ele>161.9</ele><time>2012-07-28T16:57:21.0000000+00:00</time></trkpt><trkpt lat="63.885849" lon="-22.05910492"><ele>162.0</ele><time>2012-07-28T16:57:26.0000000+00:00</time></trkpt><trkpt lat="63.88595963" lon="-22.05910873"><ele>162.9</ele><time>2012-07-28T16:57:31.0000000+00:00</time></trkpt><trkpt lat="63.88605499" lon="-22.05908966"><ele>162.8</ele><time>2012-07-28T16:57:36.0000000+00:00</time></trkpt><trkpt lat="63.88615799" lon="-22.05908203"><ele>163.0</ele><time>2012-07-28T16:57:41.0000000+00:00</time></trkpt><trkpt lat="63.8862648" lon="-22.05905724"><ele>163.4</ele><time>2012-07-28T16:57:46.0000000+00:00</time></trkpt><trkpt lat="63.88637543" lon="-22.05904388"><ele>164.1</ele><time>2012-07-28T16:57:51.0000000+00:00</time></trkpt><trkpt lat="63.88648224" lon="-22.05901337"><ele>163.7</ele><time>2012-07-28T16:57:56.0000000+00:00</time></trkpt><trkpt lat="63.88658142" lon="-22.05899811"><ele>162.8</ele><time>2012-07-28T16:58:01.0000000+00:00</time></trkpt><trkpt lat="63.88668823" lon="-22.05898285"><ele>162.9</ele><time>2012-07-28T16:58:06.0000000+00:00</time></trkpt><trkpt lat="63.88679504" lon="-22.0589428"><ele>163.4</ele><time>2012-07-28T16:58:11.0000000+00:00</time></trkpt><trkpt lat="63.88689804" lon="-22.05887985"><ele>163.9</ele><time>2012-07-28T16:58:16.0000000+00:00</time></trkpt><trkpt lat="63.88700867" lon="-22.05883217"><ele>164.3</ele><time>2012-07-28T16:58:21.0000000+00:00</time></trkpt><trkpt lat="63.88712311" lon="-22.05878258"><ele>165.1</ele><time>2012-07-28T16:58:26.0000000+00:00</time></trkpt><trkpt lat="63.88724136" lon="-22.0587368"><ele>165.9</ele><time>2012-07-28T16:58:31.0000000+00:00</time></trkpt><trkpt lat="63.88734818" lon="-22.05867195"><ele>166.3</ele><time>2012-07-28T16:58:36.0000000+00:00</time></trkpt><trkpt lat="63.88747406" lon="-22.05858612"><ele>165.4</ele><time>2012-07-28T16:58:41.0000000+00:00</time></trkpt><trkpt lat="63.88761139" lon="-22.05851936"><ele>165.9</ele><time>2012-07-28T16:58:46.0000000+00:00</time></trkpt><trkpt lat="63.88774872" lon="-22.05843163"><ele>166.5</ele><time>2012-07-28T16:58:51.0000000+00:00</time></trkpt><trkpt lat="63.88788986" lon="-22.05835533"><ele>170.1</ele><time>2012-07-28T16:58:56.0000000+00:00</time></trkpt><trkpt lat="63.88803864" lon="-22.05824661"><ele>169.3</ele><time>2012-07-28T16:59:01.0000000+00:00</time></trkpt><trkpt lat="63.88820648" lon="-22.05811501"><ele>169.5</ele><time>2012-07-28T16:59:06.0000000+00:00</time></trkpt><trkpt lat="63.88838577" lon="-22.05793762"><ele>168.6</ele><time>2012-07-28T16:59:11.0000000+00:00</time></trkpt><trkpt lat="63.88854981" lon="-22.05780983"><ele>167.2</ele><time>2012-07-28T16:59:16.0000000+00:00</time></trkpt><trkpt lat="63.88872528" lon="-22.05763245"><ele>166.3</ele><time>2012-07-28T16:59:21.0000000+00:00</time></trkpt><trkpt lat="63.88892746" lon="-22.05742264"><ele>164.6</ele><time>2012-07-28T16:59:26.0000000+00:00</time></trkpt><trkpt lat="63.88915253" lon="-22.05720139"><ele>164.2</ele><time>2012-07-28T16:59:31.0000000+00:00</time></trkpt><trkpt lat="63.88936615" lon="-22.05700493"><ele>164.5</ele><time>2012-07-28T16:59:36.0000000+00:00</time></trkpt><trkpt lat="63.88954926" lon="-22.05679512"><ele>162.8</ele><time>2012-07-28T16:59:41.0000000+00:00</time></trkpt><trkpt lat="63.88973999" lon="-22.0565815"><ele>159.9</ele><time>2012-07-28T16:59:46.0000000+00:00</time></trkpt><trkpt lat="63.88990402" lon="-22.05638123"><ele>156.1</ele><time>2012-07-28T16:59:51.0000000+00:00</time></trkpt><trkpt lat="63.89009857" lon="-22.05620003"><ele>157.3</ele><time>2012-07-28T16:59:56.0000000+00:00</time></trkpt><trkpt lat="63.89028931" lon="-22.0560112"><ele>157.4</ele><time>2012-07-28T17:00:01.0000000+00:00</time></trkpt><trkpt lat="63.89048004" lon="-22.05584145"><ele>157.6</ele><time>2012-07-28T17:00:06.0000000+00:00</time></trkpt><trkpt lat="63.8906517" lon="-22.0556736"><ele>158.2</ele><time>2012-07-28T17:00:11.0000000+00:00</time></trkpt><trkpt lat="63.89083099" lon="-22.0555191"><ele>159.2</ele><time>2012-07-28T17:00:16.0000000+00:00</time></trkpt><trkpt lat="63.89104843" lon="-22.05528259"><ele>159.7</ele><time>2012-07-28T17:00:21.0000000+00:00</time></trkpt><trkpt lat="63.89120483" lon="-22.05509567"><ele>158.1</ele><time>2012-07-28T17:00:26.0000000+00:00</time></trkpt><trkpt lat="63.89133072" lon="-22.05496788"><ele>157.6</ele><time>2012-07-28T17:00:31.0000000+00:00</time></trkpt><trkpt lat="63.89144516" lon="-22.05481911"><ele>155.5</ele><time>2012-07-28T17:00:36.0000000+00:00</time></trkpt><trkpt lat="63.89156723" lon="-22.05470276"><ele>151.2</ele><time>2012-07-28T17:00:41.0000000+00:00</time></trkpt><trkpt lat="63.89172745" lon="-22.05456734"><ele>151.9</ele><time>2012-07-28T17:00:46.0000000+00:00</time></trkpt><trkpt lat="63.89188004" lon="-22.05441666"><ele>151.3</ele><time>2012-07-28T17:00:51.0000000+00:00</time></trkpt><trkpt lat="63.89202881" lon="-22.05429268"><ele>153.3</ele><time>2012-07-28T17:00:56.0000000+00:00</time></trkpt><trkpt lat="63.89216232" lon="-22.05415535"><ele>154.8</ele><time>2012-07-28T17:01:01.0000000+00:00</time></trkpt><trkpt lat="63.8923111" lon="-22.05401993"><ele>155.4</ele><time>2012-07-28T17:01:06.0000000+00:00</time></trkpt><trkpt lat="63.89245987" lon="-22.05387306"><ele>155.8</ele><time>2012-07-28T17:01:11.0000000+00:00</time></trkpt><trkpt lat="63.89260101" lon="-22.05373383"><ele>156.2</ele><time>2012-07-28T17:01:16.0000000+00:00</time></trkpt><trkpt lat="63.89274597" lon="-22.05360794"><ele>155.7</ele><time>2012-07-28T17:01:21.0000000+00:00</time></trkpt><trkpt lat="63.89289475" lon="-22.05349159"><ele>155.8</ele><time>2012-07-28T17:01:26.0000000+00:00</time></trkpt><trkpt lat="63.89304352" lon="-22.05336189"><ele>157.4</ele><time>2012-07-28T17:01:31.0000000+00:00</time></trkpt><trkpt lat="63.89319992" lon="-22.05324364"><ele>156.7</ele><time>2012-07-28T17:01:36.0000000+00:00</time></trkpt><trkpt lat="63.89331818" lon="-22.05313683"><ele>156.4</ele><time>2012-07-28T17:01:41.0000000+00:00</time></trkpt><trkpt lat="63.89347076" lon="-22.0530014"><ele>159.8</ele><time>2012-07-28T17:01:46.0000000+00:00</time></trkpt><trkpt lat="63.89360428" lon="-22.05287552"><ele>160.0</ele><time>2012-07-28T17:01:51.0000000+00:00</time></trkpt><trkpt lat="63.89375305" lon="-22.05273056"><ele>160.2</ele><time>2012-07-28T17:01:56.0000000+00:00</time></trkpt><trkpt lat="63.89389038" lon="-22.05255699"><ele>160.8</ele><time>2012-07-28T17:02:01.0000000+00:00</time></trkpt><trkpt lat="63.89401245" lon="-22.05239677"><ele>160.1</ele><time>2012-07-28T17:02:06.0000000+00:00</time></trkpt><trkpt lat="63.89411163" lon="-22.0522213"><ele>159.8</ele><time>2012-07-28T17:02:11.0000000+00:00</time></trkpt><trkpt lat="63.89416122" lon="-22.05212021"><ele>157.3</ele><time>2012-07-28T17:02:16.0000000+00:00</time></trkpt><trkpt lat="63.89419556" lon="-22.05201149"><ele>158.1</ele><time>2012-07-28T17:02:21.0000000+00:00</time></trkpt><trkpt lat="63.8941803" lon="-22.05198288"><ele>159.2</ele><time>2012-07-28T17:02:26.0000000+00:00</time></trkpt><trkpt lat="63.89417648" lon="-22.05196762"><ele>159.7</ele><time>2012-07-28T17:02:31.0000000+00:00</time></trkpt><trkpt lat="63.8941803" lon="-22.05196953"><ele>160.0</ele><time>2012-07-28T17:02:36.0000000+00:00</time></trkpt><trkpt lat="63.8941803" lon="-22.05196953"><ele>160.2</ele><time>2012-07-28T17:02:41.0000000+00:00</time></trkpt><trkpt lat="63.89418411" lon="-22.05196953"><ele>160.3</ele><time>2012-07-28T17:02:46.0000000+00:00</time></trkpt><trkpt lat="63.8941803" lon="-22.05196953"><ele>160.4</ele><time>2012-07-28T17:02:51.0000000+00:00</time></trkpt><trkpt lat="63.8941803" lon="-22.05196953"><ele>160.4</ele><time>2012-07-28T17:02:56.0000000+00:00</time></trkpt><trkpt lat="63.8941803" lon="-22.05197144"><ele>160.4</ele><time>2012-07-28T17:03:01.0000000+00:00</time></trkpt><trkpt lat="63.8941803" lon="-22.05197144"><ele>160.5</ele><time>2012-07-28T17:03:06.0000000+00:00</time></trkpt><trkpt lat="63.8941803" lon="-22.05197144"><ele>160.5</ele><time>2012-07-28T17:03:11.0000000+00:00</time></trkpt><trkpt lat="63.89418411" lon="-22.05195236"><ele>160.4</ele><time>2012-07-28T17:03:16.0000000+00:00</time></trkpt><trkpt lat="63.89418411" lon="-22.05195427"><ele>160.4</ele><time>2012-07-28T17:03:21.0000000+00:00</time></trkpt><trkpt lat="63.89418411" lon="-22.05195618"><ele>160.4</ele><time>2012-07-28T17:03:26.0000000+00:00</time></trkpt><trkpt lat="63.89418411" lon="-22.05195618"><ele>160.4</ele><time>2012-07-28T17:03:31.0000000+00:00</time></trkpt><trkpt lat="63.89418411" lon="-22.05195808"><ele>160.4</ele><time>2012-07-28T17:03:36.0000000+00:00</time></trkpt><trkpt lat="63.89418411" lon="-22.05196762"><ele>160.4</ele><time>2012-07-28T17:03:41.0000000+00:00</time></trkpt><trkpt lat="63.8941803" lon="-22.05196953"><ele>160.3</ele><time>2012-07-28T17:03:46.0000000+00:00</time></trkpt><trkpt lat="63.8941803" lon="-22.05196953"><ele>160.4</ele><time>2012-07-28T17:03:51.0000000+00:00</time></trkpt><trkpt lat="63.89418411" lon="-22.05196953"><ele>160.4</ele><time>2012-07-28T17:03:56.0000000+00:00</time></trkpt><trkpt lat="63.89418411" lon="-22.05196953"><ele>160.4</ele><time>2012-07-28T17:04:01.0000000+00:00</time></trkpt><trkpt lat="63.89418411" lon="-22.05196762"><ele>160.4</ele><time>2012-07-28T17:04:06.0000000+00:00</time></trkpt><trkpt lat="63.89418411" lon="-22.05196762"><ele>160.4</ele><time>2012-07-28T17:04:11.0000000+00:00</time></trkpt><trkpt lat="63.89418411" lon="-22.05196762"><ele>160.4</ele><time>2012-07-28T17:04:16.0000000+00:00</time></trkpt><trkpt lat="63.89418411" lon="-22.05196762"><ele>160.4</ele><time>2012-07-28T17:04:21.0000000+00:00</time></trkpt><trkpt lat="63.89418411" lon="-22.05196762"><ele>160.3</ele><time>2012-07-28T17:04:26.0000000+00:00</time></trkpt><trkpt lat="63.89418411" lon="-22.05196762"><ele>160.4</ele><time>2012-07-28T17:04:31.0000000+00:00</time></trkpt><trkpt lat="63.89418411" lon="-22.05196762"><ele>160.4</ele><time>2012-07-28T17:04:36.0000000+00:00</time></trkpt><trkpt lat="63.89418411" lon="-22.05196762"><ele>160.3</ele><time>2012-07-28T17:04:41.0000000+00:00</time></trkpt><trkpt lat="63.89418411" lon="-22.05196762"><ele>160.3</ele><time>2012-07-28T17:04:46.0000000+00:00</time></trkpt><trkpt lat="63.89418411" lon="-22.05196762"><ele>160.3</ele><time>2012-07-28T17:04:51.0000000+00:00</time></trkpt><trkpt lat="63.89418411" lon="-22.05196762"><ele>160.4</ele><time>2012-07-28T17:04:56.0000000+00:00</time></trkpt><trkpt lat="63.89418411" lon="-22.05196571"><ele>160.4</ele><time>2012-07-28T17:05:01.0000000+00:00</time></trkpt><trkpt lat="63.89418411" lon="-22.05196571"><ele>160.4</ele><time>2012-07-28T17:05:06.0000000+00:00</time></trkpt><trkpt lat="63.89418411" lon="-22.05196571"><ele>160.4</ele><time>2012-07-28T17:05:11.0000000+00:00</time></trkpt><trkpt lat="63.89418411" lon="-22.05196571"><ele>160.4</ele><time>2012-07-28T17:05:16.0000000+00:00</time></trkpt><trkpt lat="63.89418411" lon="-22.05196571"><ele>160.4</ele><time>2012-07-28T17:05:21.0000000+00:00</time></trkpt><trkpt lat="63.89418411" lon="-22.05196571"><ele>160.4</ele><time>2012-07-28T17:05:26.0000000+00:00</time></trkpt><trkpt lat="63.89418411" lon="-22.05196571"><ele>160.4</ele><time>2012-07-28T17:05:31.0000000+00:00</time></trkpt><trkpt lat="63.89418411" lon="-22.05196571"><ele>160.4</ele><time>2012-07-28T17:05:36.0000000+00:00</time></trkpt><trkpt lat="63.89418411" lon="-22.05196571"><ele>160.4</ele><time>2012-07-28T17:05:41.0000000+00:00</time></trkpt><trkpt lat="63.89418411" lon="-22.05196571"><ele>160.4</ele><time>2012-07-28T17:05:46.0000000+00:00</time></trkpt><trkpt lat="63.89418411" lon="-22.05196571"><ele>160.4</ele><time>2012-07-28T17:05:51.0000000+00:00</time></trkpt><trkpt lat="63.89418411" lon="-22.05196571"><ele>160.4</ele><time>2012-07-28T17:05:56.0000000+00:00</time></trkpt><trkpt lat="63.89418411" lon="-22.05196571"><ele>160.4</ele><time>2012-07-28T17:06:01.0000000+00:00</time></trkpt><trkpt lat="63.89418411" lon="-22.05196571"><ele>160.4</ele><time>2012-07-28T17:06:06.0000000+00:00</time></trkpt><trkpt lat="63.89418411" lon="-22.05196571"><ele>160.3</ele><time>2012-07-28T17:06:11.0000000+00:00</time></trkpt><trkpt lat="63.89418411" lon="-22.05196571"><ele>160.3</ele><time>2012-07-28T17:06:16.0000000+00:00</time></trkpt><trkpt lat="63.89418411" lon="-22.05196571"><ele>160.3</ele><time>2012-07-28T17:06:21.0000000+00:00</time></trkpt><trkpt lat="63.89418411" lon="-22.05196571"><ele>160.3</ele><time>2012-07-28T17:06:26.0000000+00:00</time></trkpt><trkpt lat="63.89418411" lon="-22.05196571"><ele>160.3</ele><time>2012-07-28T17:06:31.0000000+00:00</time></trkpt><trkpt lat="63.89418411" lon="-22.05196571"><ele>160.2</ele><time>2012-07-28T17:06:36.0000000+00:00</time></trkpt><trkpt lat="63.89418411" lon="-22.05196571"><ele>160.2</ele><time>2012-07-28T17:06:41.0000000+00:00</time></trkpt><trkpt lat="63.89418411" lon="-22.05196571"><ele>160.2</ele><time>2012-07-28T17:06:46.0000000+00:00</time></trkpt><trkpt lat="63.89418411" lon="-22.05196571"><ele>160.2</ele><time>2012-07-28T17:06:51.0000000+00:00</time></trkpt><trkpt lat="63.89418411" lon="-22.05196571"><ele>160.2</ele><time>2012-07-28T17:06:56.0000000+00:00</time></trkpt><trkpt lat="63.89418411" lon="-22.05196571"><ele>160.1</ele><time>2012-07-28T17:07:01.0000000+00:00</time></trkpt><trkpt lat="63.89418411" lon="-22.05196571"><ele>160.1</ele><time>2012-07-28T17:07:06.0000000+00:00</time></trkpt><trkpt lat="63.89418411" lon="-22.05196571"><ele>160.1</ele><time>2012-07-28T17:07:11.0000000+00:00</time></trkpt><trkpt lat="63.89418411" lon="-22.05196571"><ele>160.1</ele><time>2012-07-28T17:07:16.0000000+00:00</time></trkpt><trkpt lat="63.89418411" lon="-22.05196571"><ele>160.1</ele><time>2012-07-28T17:07:21.0000000+00:00</time></trkpt><trkpt lat="63.89418411" lon="-22.05196571"><ele>160.1</ele><time>2012-07-28T17:07:26.0000000+00:00</time></trkpt><trkpt lat="63.89418411" lon="-22.05196571"><ele>160.1</ele><time>2012-07-28T17:07:31.0000000+00:00</time></trkpt><trkpt lat="63.89418411" lon="-22.05196571"><ele>160.1</ele><time>2012-07-28T17:07:36.0000000+00:00</time></trkpt><trkpt lat="63.89418793" lon="-22.05197716"><ele>160.0</ele><time>2012-07-28T17:07:41.0000000+00:00</time></trkpt><trkpt lat="63.89420319" lon="-22.05202484"><ele>160.1</ele><time>2012-07-28T17:07:46.0000000+00:00</time></trkpt><trkpt lat="63.8942337" lon="-22.05202293"><ele>160.1</ele><time>2012-07-28T17:07:51.0000000+00:00</time></trkpt><trkpt lat="63.89437485" lon="-22.05181313"><ele>160.7</ele><time>2012-07-28T17:07:56.0000000+00:00</time></trkpt><trkpt lat="63.89452744" lon="-22.05156517"><ele>161.6</ele><time>2012-07-28T17:08:01.0000000+00:00</time></trkpt><trkpt lat="63.89467621" lon="-22.05129242"><ele>162.3</ele><time>2012-07-28T17:08:06.0000000+00:00</time></trkpt><trkpt lat="63.89481735" lon="-22.05105209"><ele>162.4</ele><time>2012-07-28T17:08:11.0000000+00:00</time></trkpt><trkpt lat="63.89497376" lon="-22.05080414"><ele>162.5</ele><time>2012-07-28T17:08:16.0000000+00:00</time></trkpt><trkpt lat="63.89513397" lon="-22.0510273"><ele>162.7</ele><time>2012-07-28T17:08:21.0000000+00:00</time></trkpt><trkpt lat="63.89523315" lon="-22.05132294"><ele>163.0</ele><time>2012-07-28T17:08:26.0000000+00:00</time></trkpt><trkpt lat="63.8953476" lon="-22.0515976"><ele>163.9</ele><time>2012-07-28T17:08:31.0000000+00:00</time></trkpt><trkpt lat="63.89548492" lon="-22.05184555"><ele>165.2</ele><time>2012-07-28T17:08:36.0000000+00:00</time></trkpt><trkpt lat="63.89561844" lon="-22.05195808"><ele>165.4</ele><time>2012-07-28T17:08:41.0000000+00:00</time></trkpt><trkpt lat="63.8957634" lon="-22.05210114"><ele>165.7</ele><time>2012-07-28T17:08:46.0000000+00:00</time></trkpt><trkpt lat="63.89582443" lon="-22.05220223"><ele>166.2</ele><time>2012-07-28T17:08:51.0000000+00:00</time></trkpt><trkpt lat="63.89586639" lon="-22.05227089"><ele>166.5</ele><time>2012-07-28T17:08:56.0000000+00:00</time></trkpt><trkpt lat="63.89586639" lon="-22.05227089"><ele>166.7</ele><time>2012-07-28T17:09:01.0000000+00:00</time></trkpt><trkpt lat="63.89588547" lon="-22.05228615"><ele>166.8</ele><time>2012-07-28T17:09:06.0000000+00:00</time></trkpt><trkpt lat="63.8958931" lon="-22.05228806"><ele>166.9</ele><time>2012-07-28T17:09:11.0000000+00:00</time></trkpt><trkpt lat="63.8958931" lon="-22.05229569"><ele>167.0</ele><time>2012-07-28T17:09:16.0000000+00:00</time></trkpt><trkpt lat="63.8958931" lon="-22.05229759"><ele>167.0</ele><time>2012-07-28T17:09:21.0000000+00:00</time></trkpt><trkpt lat="63.8958931" lon="-22.05229759"><ele>167.0</ele><time>2012-07-28T17:09:26.0000000+00:00</time></trkpt><trkpt lat="63.8958931" lon="-22.05229759"><ele>167.0</ele><time>2012-07-28T17:09:31.0000000+00:00</time></trkpt><trkpt lat="63.8958931" lon="-22.05229759"><ele>167.0</ele><time>2012-07-28T17:09:36.0000000+00:00</time></trkpt><trkpt lat="63.8958931" lon="-22.05229759"><ele>167.0</ele><time>2012-07-28T17:09:41.0000000+00:00</time></trkpt><trkpt lat="63.8958931" lon="-22.05229759"><ele>167.0</ele><time>2012-07-28T17:09:46.0000000+00:00</time></trkpt><trkpt lat="63.8958931" lon="-22.05229759"><ele>167.0</ele><time>2012-07-28T17:09:51.0000000+00:00</time></trkpt><trkpt lat="63.8958931" lon="-22.05229759"><ele>167.0</ele><time>2012-07-28T17:09:56.0000000+00:00</time></trkpt><trkpt lat="63.8958931" lon="-22.05229759"><ele>167.0</ele><time>2012-07-28T17:10:01.0000000+00:00</time></trkpt><trkpt lat="63.89589691" lon="-22.05229759"><ele>167.0</ele><time>2012-07-28T17:10:06.0000000+00:00</time></trkpt><trkpt lat="63.89589691" lon="-22.05229759"><ele>167.0</ele><time>2012-07-28T17:10:11.0000000+00:00</time></trkpt><trkpt lat="63.89589691" lon="-22.05229759"><ele>167.0</ele><time>2012-07-28T17:10:16.0000000+00:00</time></trkpt><trkpt lat="63.89589691" lon="-22.05229759"><ele>167.0</ele><time>2012-07-28T17:10:21.0000000+00:00</time></trkpt><trkpt lat="63.89589691" lon="-22.05229759"><ele>167.0</ele><time>2012-07-28T17:10:26.0000000+00:00</time></trkpt><trkpt lat="63.89589691" lon="-22.0522995"><ele>167.0</ele><time>2012-07-28T17:10:31.0000000+00:00</time></trkpt><trkpt lat="63.89589691" lon="-22.0522995"><ele>167.0</ele><time>2012-07-28T17:10:36.0000000+00:00</time></trkpt><trkpt lat="63.89589691" lon="-22.05229759"><ele>167.0</ele><time>2012-07-28T17:10:41.0000000+00:00</time></trkpt><trkpt lat="63.89589691" lon="-22.05229759"><ele>167.0</ele><time>2012-07-28T17:10:46.0000000+00:00</time></trkpt><trkpt lat="63.89589691" lon="-22.05229759"><ele>167.0</ele><time>2012-07-28T17:10:51.0000000+00:00</time></trkpt><trkpt lat="63.89589691" lon="-22.05229759"><ele>167.0</ele><time>2012-07-28T17:10:56.0000000+00:00</time></trkpt><trkpt lat="63.89589691" lon="-22.0522995"><ele>167.1</ele><time>2012-07-28T17:11:01.0000000+00:00</time></trkpt><trkpt lat="63.89589691" lon="-22.0522995"><ele>167.1</ele><time>2012-07-28T17:11:06.0000000+00:00</time></trkpt><trkpt lat="63.89589691" lon="-22.0522995"><ele>167.1</ele><time>2012-07-28T17:11:11.0000000+00:00</time></trkpt><trkpt lat="63.89589691" lon="-22.0522995"><ele>167.1</ele><time>2012-07-28T17:11:16.0000000+00:00</time></trkpt><trkpt lat="63.89589691" lon="-22.0522995"><ele>167.1</ele><time>2012-07-28T17:11:21.0000000+00:00</time></trkpt><trkpt lat="63.89589691" lon="-22.0522995"><ele>167.1</ele><time>2012-07-28T17:11:26.0000000+00:00</time></trkpt><trkpt lat="63.89589691" lon="-22.05230141"><ele>167.1</ele><time>2012-07-28T17:11:31.0000000+00:00</time></trkpt><trkpt lat="63.89589691" lon="-22.05230141"><ele>167.1</ele><time>2012-07-28T17:11:36.0000000+00:00</time></trkpt><trkpt lat="63.89589691" lon="-22.05230141"><ele>167.1</ele><time>2012-07-28T17:11:41.0000000+00:00</time></trkpt><trkpt lat="63.89589691" lon="-22.05230141"><ele>167.1</ele><time>2012-07-28T17:11:46.0000000+00:00</time></trkpt><trkpt lat="63.89589691" lon="-22.05230141"><ele>167.1</ele><time>2012-07-28T17:11:51.0000000+00:00</time></trkpt><trkpt lat="63.89589691" lon="-22.05230141"><ele>167.1</ele><time>2012-07-28T17:11:56.0000000+00:00</time></trkpt><trkpt lat="63.89589691" lon="-22.05230141"><ele>167.1</ele><time>2012-07-28T17:12:01.0000000+00:00</time></trkpt><trkpt lat="63.89589691" lon="-22.05230141"><ele>167.1</ele><time>2012-07-28T17:12:06.0000000+00:00</time></trkpt><trkpt lat="63.89589691" lon="-22.0522995"><ele>167.1</ele><time>2012-07-28T17:12:11.0000000+00:00</time></trkpt><trkpt lat="63.89589691" lon="-22.0522995"><ele>167.1</ele><time>2012-07-28T17:12:16.0000000+00:00</time></trkpt><trkpt lat="63.89589691" lon="-22.0522995"><ele>167.0</ele><time>2012-07-28T17:12:21.0000000+00:00</time></trkpt><trkpt lat="63.89589691" lon="-22.0522995"><ele>167.0</ele><time>2012-07-28T17:12:26.0000000+00:00</time></trkpt><trkpt lat="63.89589691" lon="-22.0522995"><ele>167.0</ele><time>2012-07-28T17:12:31.0000000+00:00</time></trkpt><trkpt lat="63.89589691" lon="-22.0522995"><ele>167.0</ele><time>2012-07-28T17:12:36.0000000+00:00</time></trkpt><trkpt lat="63.89589691" lon="-22.0522995"><ele>167.0</ele><time>2012-07-28T17:12:41.0000000+00:00</time></trkpt><trkpt lat="63.89590073" lon="-22.0522995"><ele>167.0</ele><time>2012-07-28T17:12:46.0000000+00:00</time></trkpt><trkpt lat="63.89590073" lon="-22.0522995"><ele>167.0</ele><time>2012-07-28T17:12:51.0000000+00:00</time></trkpt><trkpt lat="63.89590073" lon="-22.0522995"><ele>167.1</ele><time>2012-07-28T17:12:56.0000000+00:00</time></trkpt><trkpt lat="63.89590073" lon="-22.0522995"><ele>167.1</ele><time>2012-07-28T17:13:01.0000000+00:00</time></trkpt><trkpt lat="63.89590073" lon="-22.0522995"><ele>167.1</ele><time>2012-07-28T17:13:06.0000000+00:00</time></trkpt><trkpt lat="63.89590073" lon="-22.0522995"><ele>167.1</ele><time>2012-07-28T17:13:11.0000000+00:00</time></trkpt><trkpt lat="63.89590073" lon="-22.0522995"><ele>167.1</ele><time>2012-07-28T17:13:16.0000000+00:00</time></trkpt><trkpt lat="63.89590073" lon="-22.0522995"><ele>167.1</ele><time>2012-07-28T17:13:21.0000000+00:00</time></trkpt><trkpt lat="63.89590073" lon="-22.0522995"><ele>167.1</ele><time>2012-07-28T17:13:26.0000000+00:00</time></trkpt><trkpt lat="63.89590073" lon="-22.0522995"><ele>167.1</ele><time>2012-07-28T17:13:31.0000000+00:00</time></trkpt><trkpt lat="63.89590073" lon="-22.0522995"><ele>167.2</ele><time>2012-07-28T17:13:36.0000000+00:00</time></trkpt><trkpt lat="63.89590073" lon="-22.0522995"><ele>167.2</ele><time>2012-07-28T17:13:41.0000000+00:00</time></trkpt><trkpt lat="63.89590073" lon="-22.05229759"><ele>167.2</ele><time>2012-07-28T17:13:46.0000000+00:00</time></trkpt><trkpt lat="63.89590073" lon="-22.05229759"><ele>167.2</ele><time>2012-07-28T17:13:51.0000000+00:00</time></trkpt><trkpt lat="63.89590073" lon="-22.05229759"><ele>167.2</ele><time>2012-07-28T17:13:56.0000000+00:00</time></trkpt><trkpt lat="63.89590073" lon="-22.05229759"><ele>167.2</ele><time>2012-07-28T17:14:01.0000000+00:00</time></trkpt><trkpt lat="63.89590073" lon="-22.05229759"><ele>167.2</ele><time>2012-07-28T17:14:06.0000000+00:00</time></trkpt><trkpt lat="63.89590073" lon="-22.05229759"><ele>167.2</ele><time>2012-07-28T17:14:11.0000000+00:00</time></trkpt><trkpt lat="63.89590073" lon="-22.05229759"><ele>167.2</ele><time>2012-07-28T17:14:16.0000000+00:00</time></trkpt><trkpt lat="63.89590073" lon="-22.05229759"><ele>167.2</ele><time>2012-07-28T17:14:21.0000000+00:00</time></trkpt><trkpt lat="63.89590073" lon="-22.05229759"><ele>167.2</ele><time>2012-07-28T17:14:26.0000000+00:00</time></trkpt><trkpt lat="63.89590454" lon="-22.0522995"><ele>167.2</ele><time>2012-07-28T17:14:31.0000000+00:00</time></trkpt><trkpt lat="63.89590454" lon="-22.05229759"><ele>167.2</ele><time>2012-07-28T17:14:36.0000000+00:00</time></trkpt><trkpt lat="63.89590454" lon="-22.05229759"><ele>167.3</ele><time>2012-07-28T17:14:41.0000000+00:00</time></trkpt><trkpt lat="63.89590454" lon="-22.05229759"><ele>167.3</ele><time>2012-07-28T17:14:46.0000000+00:00</time></trkpt><trkpt lat="63.89590454" lon="-22.05229759"><ele>167.3</ele><time>2012-07-28T17:14:51.0000000+00:00</time></trkpt><trkpt lat="63.89590454" lon="-22.0522995"><ele>167.3</ele><time>2012-07-28T17:14:56.0000000+00:00</time></trkpt><trkpt lat="63.89590454" lon="-22.0522995"><ele>167.3</ele><time>2012-07-28T17:15:01.0000000+00:00</time></trkpt><trkpt lat="63.89590454" lon="-22.0522995"><ele>167.3</ele><time>2012-07-28T17:15:06.0000000+00:00</time></trkpt><trkpt lat="63.89590454" lon="-22.05229759"><ele>167.3</ele><time>2012-07-28T17:15:11.0000000+00:00</time></trkpt><trkpt lat="63.89590454" lon="-22.05229759"><ele>167.4</ele><time>2012-07-28T17:15:16.0000000+00:00</time></trkpt><trkpt lat="63.89590454" lon="-22.0522995"><ele>167.4</ele><time>2012-07-28T17:15:21.0000000+00:00</time></trkpt><trkpt lat="63.89590454" lon="-22.0522995"><ele>167.4</ele><time>2012-07-28T17:15:26.0000000+00:00</time></trkpt><trkpt lat="63.89590454" lon="-22.0522995"><ele>167.4</ele><time>2012-07-28T17:15:31.0000000+00:00</time></trkpt><trkpt lat="63.89590454" lon="-22.0522995"><ele>167.4</ele><time>2012-07-28T17:15:36.0000000+00:00</time></trkpt><trkpt lat="63.89590454" lon="-22.0522995"><ele>167.4</ele><time>2012-07-28T17:15:41.0000000+00:00</time></trkpt><trkpt lat="63.89590454" lon="-22.0522995"><ele>167.4</ele><time>2012-07-28T17:15:46.0000000+00:00</time></trkpt><trkpt lat="63.89590454" lon="-22.0522995"><ele>167.4</ele><time>2012-07-28T17:15:51.0000000+00:00</time></trkpt><trkpt lat="63.89590836" lon="-22.05229759"><ele>167.4</ele><time>2012-07-28T17:15:56.0000000+00:00</time></trkpt><trkpt lat="63.89590836" lon="-22.05229759"><ele>167.4</ele><time>2012-07-28T17:16:01.0000000+00:00</time></trkpt><trkpt lat="63.89590836" lon="-22.05229759"><ele>167.5</ele><time>2012-07-28T17:16:06.0000000+00:00</time></trkpt><trkpt lat="63.89590836" lon="-22.05229759"><ele>167.5</ele><time>2012-07-28T17:16:11.0000000+00:00</time></trkpt><trkpt lat="63.89590836" lon="-22.05229759"><ele>167.5</ele><time>2012-07-28T17:16:16.0000000+00:00</time></trkpt><trkpt lat="63.89590836" lon="-22.05229759"><ele>167.5</ele><time>2012-07-28T17:16:21.0000000+00:00</time></trkpt><trkpt lat="63.89590836" lon="-22.05229759"><ele>167.5</ele><time>2012-07-28T17:16:26.0000000+00:00</time></trkpt><trkpt lat="63.89590836" lon="-22.05229759"><ele>167.6</ele><time>2012-07-28T17:16:31.0000000+00:00</time></trkpt><trkpt lat="63.89590836" lon="-22.05229759"><ele>167.6</ele><time>2012-07-28T17:16:36.0000000+00:00</time></trkpt><trkpt lat="63.89590836" lon="-22.05229759"><ele>167.6</ele><time>2012-07-28T17:16:41.0000000+00:00</time></trkpt><trkpt lat="63.89590836" lon="-22.05229569"><ele>167.6</ele><time>2012-07-28T17:16:46.0000000+00:00</time></trkpt><trkpt lat="63.89590836" lon="-22.05229569"><ele>167.6</ele><time>2012-07-28T17:16:51.0000000+00:00</time></trkpt><trkpt lat="63.89590836" lon="-22.05229569"><ele>167.6</ele><time>2012-07-28T17:16:56.0000000+00:00</time></trkpt><trkpt lat="63.89590836" lon="-22.05229569"><ele>167.6</ele><time>2012-07-28T17:17:01.0000000+00:00</time></trkpt><trkpt lat="63.89590836" lon="-22.05229378"><ele>167.6</ele><time>2012-07-28T17:17:06.0000000+00:00</time></trkpt><trkpt lat="63.89590836" lon="-22.05229378"><ele>167.6</ele><time>2012-07-28T17:17:11.0000000+00:00</time></trkpt><trkpt lat="63.89590836" lon="-22.05229378"><ele>167.7</ele><time>2012-07-28T17:17:16.0000000+00:00</time></trkpt><trkpt lat="63.89591217" lon="-22.05229569"><ele>167.7</ele><time>2012-07-28T17:17:21.0000000+00:00</time></trkpt><trkpt lat="63.89591217" lon="-22.05229569"><ele>167.7</ele><time>2012-07-28T17:17:26.0000000+00:00</time></trkpt><trkpt lat="63.89591217" lon="-22.05229569"><ele>167.7</ele><time>2012-07-28T17:17:31.0000000+00:00</time></trkpt><trkpt lat="63.89591217" lon="-22.05229378"><ele>167.7</ele><time>2012-07-28T17:17:36.0000000+00:00</time></trkpt><trkpt lat="63.89591217" lon="-22.05229378"><ele>167.7</ele><time>2012-07-28T17:17:41.0000000+00:00</time></trkpt><trkpt lat="63.89591217" lon="-22.05229378"><ele>167.7</ele><time>2012-07-28T17:17:46.0000000+00:00</time></trkpt><trkpt lat="63.89591217" lon="-22.05229378"><ele>167.7</ele><time>2012-07-28T17:17:51.0000000+00:00</time></trkpt><trkpt lat="63.89591217" lon="-22.05229378"><ele>167.7</ele><time>2012-07-28T17:17:56.0000000+00:00</time></trkpt><trkpt lat="63.89591217" lon="-22.05229378"><ele>167.7</ele><time>2012-07-28T17:18:01.0000000+00:00</time></trkpt><trkpt lat="63.89591217" lon="-22.05229378"><ele>167.7</ele><time>2012-07-28T17:18:06.0000000+00:00</time></trkpt><trkpt lat="63.89591217" lon="-22.05229378"><ele>167.7</ele><time>2012-07-28T17:18:11.0000000+00:00</time></trkpt><trkpt lat="63.89591599" lon="-22.05229378"><ele>167.7</ele><time>2012-07-28T17:18:16.0000000+00:00</time></trkpt><trkpt lat="63.89591599" lon="-22.05229378"><ele>167.7</ele><time>2012-07-28T17:18:21.0000000+00:00</time></trkpt><trkpt lat="63.89591599" lon="-22.05229378"><ele>167.7</ele><time>2012-07-28T17:18:26.0000000+00:00</time></trkpt><trkpt lat="63.89591599" lon="-22.05229378"><ele>167.7</ele><time>2012-07-28T17:18:31.0000000+00:00</time></trkpt><trkpt lat="63.89591599" lon="-22.05229378"><ele>167.8</ele><time>2012-07-28T17:18:36.0000000+00:00</time></trkpt><trkpt lat="63.89591599" lon="-22.05229378"><ele>167.8</ele><time>2012-07-28T17:18:41.0000000+00:00</time></trkpt><trkpt lat="63.89591599" lon="-22.05229378"><ele>167.8</ele><time>2012-07-28T17:18:46.0000000+00:00</time></trkpt><trkpt lat="63.89591599" lon="-22.05229378"><ele>167.9</ele><time>2012-07-28T17:18:51.0000000+00:00</time></trkpt><trkpt lat="63.89591599" lon="-22.05229378"><ele>167.9</ele><time>2012-07-28T17:18:56.0000000+00:00</time></trkpt><trkpt lat="63.89591599" lon="-22.05229187"><ele>168.0</ele><time>2012-07-28T17:19:01.0000000+00:00</time></trkpt><trkpt lat="63.89591599" lon="-22.05229187"><ele>168.0</ele><time>2012-07-28T17:19:06.0000000+00:00</time></trkpt><trkpt lat="63.89591599" lon="-22.05229187"><ele>168.0</ele><time>2012-07-28T17:19:11.0000000+00:00</time></trkpt><trkpt lat="63.89591599" lon="-22.05229187"><ele>168.1</ele><time>2012-07-28T17:19:16.0000000+00:00</time></trkpt><trkpt lat="63.89591599" lon="-22.05229187"><ele>168.1</ele><time>2012-07-28T17:19:21.0000000+00:00</time></trkpt><trkpt lat="63.8959198" lon="-22.05229187"><ele>168.2</ele><time>2012-07-28T17:19:26.0000000+00:00</time></trkpt><trkpt lat="63.8959198" lon="-22.05229187"><ele>168.2</ele><time>2012-07-28T17:19:31.0000000+00:00</time></trkpt><trkpt lat="63.8959198" lon="-22.05229187"><ele>168.3</ele><time>2012-07-28T17:19:36.0000000+00:00</time></trkpt><trkpt lat="63.8959198" lon="-22.05229187"><ele>168.3</ele><time>2012-07-28T17:19:41.0000000+00:00</time></trkpt><trkpt lat="63.8959198" lon="-22.05229187"><ele>168.3</ele><time>2012-07-28T17:19:46.0000000+00:00</time></trkpt><trkpt lat="63.8959198" lon="-22.05229187"><ele>168.4</ele><time>2012-07-28T17:19:51.0000000+00:00</time></trkpt><trkpt lat="63.8959198" lon="-22.05228996"><ele>168.4</ele><time>2012-07-28T17:19:56.0000000+00:00</time></trkpt><trkpt lat="63.8959198" lon="-22.05228996"><ele>168.4</ele><time>2012-07-28T17:20:01.0000000+00:00</time></trkpt><trkpt lat="63.8959198" lon="-22.05228996"><ele>168.4</ele><time>2012-07-28T17:20:06.0000000+00:00</time></trkpt><trkpt lat="63.8959198" lon="-22.05228996"><ele>168.4</ele><time>2012-07-28T17:20:11.0000000+00:00</time></trkpt><trkpt lat="63.8959198" lon="-22.05228996"><ele>168.4</ele><time>2012-07-28T17:20:16.0000000+00:00</time></trkpt><trkpt lat="63.8959198" lon="-22.05228996"><ele>168.4</ele><time>2012-07-28T17:20:21.0000000+00:00</time></trkpt><trkpt lat="63.8959198" lon="-22.05228996"><ele>168.4</ele><time>2012-07-28T17:20:26.0000000+00:00</time></trkpt><trkpt lat="63.8959198" lon="-22.05228996"><ele>168.5</ele><time>2012-07-28T17:20:31.0000000+00:00</time></trkpt><trkpt lat="63.8959198" lon="-22.05228806"><ele>168.5</ele><time>2012-07-28T17:20:36.0000000+00:00</time></trkpt><trkpt lat="63.8959198" lon="-22.05228615"><ele>168.5</ele><time>2012-07-28T17:20:41.0000000+00:00</time></trkpt><trkpt lat="63.8959198" lon="-22.05228615"><ele>168.5</ele><time>2012-07-28T17:20:46.0000000+00:00</time></trkpt><trkpt lat="63.8959198" lon="-22.05228615"><ele>168.5</ele><time>2012-07-28T17:20:51.0000000+00:00</time></trkpt><trkpt lat="63.89592362" lon="-22.05228615"><ele>168.5</ele><time>2012-07-28T17:20:56.0000000+00:00</time></trkpt><trkpt lat="63.89592362" lon="-22.05228424"><ele>168.6</ele><time>2012-07-28T17:21:01.0000000+00:00</time></trkpt><trkpt lat="63.89592362" lon="-22.05228424"><ele>168.7</ele><time>2012-07-28T17:21:06.0000000+00:00</time></trkpt><trkpt lat="63.89592362" lon="-22.05228424"><ele>168.8</ele><time>2012-07-28T17:21:11.0000000+00:00</time></trkpt><trkpt lat="63.89592362" lon="-22.05228424"><ele>168.9</ele><time>2012-07-28T17:21:16.0000000+00:00</time></trkpt><trkpt lat="63.89592362" lon="-22.05228424"><ele>168.9</ele><time>2012-07-28T17:21:21.0000000+00:00</time></trkpt><trkpt lat="63.89592362" lon="-22.05228615"><ele>169.0</ele><time>2012-07-28T17:21:26.0000000+00:00</time></trkpt><trkpt lat="63.89592362" lon="-22.05228615"><ele>169.2</ele><time>2012-07-28T17:21:31.0000000+00:00</time></trkpt><trkpt lat="63.89592362" lon="-22.05228615"><ele>169.3</ele><time>2012-07-28T17:21:36.0000000+00:00</time></trkpt><trkpt lat="63.89592743" lon="-22.05228806"><ele>169.5</ele><time>2012-07-28T17:21:41.0000000+00:00</time></trkpt><trkpt lat="63.89592743" lon="-22.05228806"><ele>169.6</ele><time>2012-07-28T17:21:46.0000000+00:00</time></trkpt><trkpt lat="63.89592743" lon="-22.05228806"><ele>169.6</ele><time>2012-07-28T17:21:51.0000000+00:00</time></trkpt><trkpt lat="63.89592743" lon="-22.05228806"><ele>169.7</ele><time>2012-07-28T17:21:56.0000000+00:00</time></trkpt><trkpt lat="63.89592743" lon="-22.05228996"><ele>169.7</ele><time>2012-07-28T17:22:01.0000000+00:00</time></trkpt><trkpt lat="63.89592743" lon="-22.05228996"><ele>169.7</ele><time>2012-07-28T17:22:06.0000000+00:00</time></trkpt><trkpt lat="63.89592743" lon="-22.05228996"><ele>169.8</ele><time>2012-07-28T17:22:11.0000000+00:00</time></trkpt><trkpt lat="63.89592743" lon="-22.05228806"><ele>169.8</ele><time>2012-07-28T17:22:16.0000000+00:00</time></trkpt><trkpt lat="63.89592743" lon="-22.05228806"><ele>169.9</ele><time>2012-07-28T17:22:21.0000000+00:00</time></trkpt><trkpt lat="63.89593124" lon="-22.05228806"><ele>170.0</ele><time>2012-07-28T17:22:26.0000000+00:00</time></trkpt><trkpt lat="63.89593124" lon="-22.05228806"><ele>170.1</ele><time>2012-07-28T17:22:31.0000000+00:00</time></trkpt><trkpt lat="63.89593124" lon="-22.05228615"><ele>170.3</ele><time>2012-07-28T17:22:36.0000000+00:00</time></trkpt><trkpt lat="63.89593124" lon="-22.05228615"><ele>170.4</ele><time>2012-07-28T17:22:41.0000000+00:00</time></trkpt><trkpt lat="63.89593506" lon="-22.05228615"><ele>170.6</ele><time>2012-07-28T17:22:46.0000000+00:00</time></trkpt><trkpt lat="63.89593506" lon="-22.05228615"><ele>170.8</ele><time>2012-07-28T17:22:51.0000000+00:00</time></trkpt><trkpt lat="63.89593506" lon="-22.05228615"><ele>170.9</ele><time>2012-07-28T17:22:56.0000000+00:00</time></trkpt><trkpt lat="63.89593506" lon="-22.05228233"><ele>171.0</ele><time>2012-07-28T17:23:01.0000000+00:00</time></trkpt><trkpt lat="63.89593506" lon="-22.05228233"><ele>171.1</ele><time>2012-07-28T17:23:06.0000000+00:00</time></trkpt><trkpt lat="63.89593506" lon="-22.05228233"><ele>171.2</ele><time>2012-07-28T17:23:11.0000000+00:00</time></trkpt><trkpt lat="63.89593887" lon="-22.05228233"><ele>171.4</ele><time>2012-07-28T17:23:16.0000000+00:00</time></trkpt><trkpt lat="63.89593887" lon="-22.05228043"><ele>171.7</ele><time>2012-07-28T17:23:21.0000000+00:00</time></trkpt><trkpt lat="63.89593887" lon="-22.05227852"><ele>172.0</ele><time>2012-07-28T17:23:26.0000000+00:00</time></trkpt><trkpt lat="63.89594269" lon="-22.05227661"><ele>172.3</ele><time>2012-07-28T17:23:31.0000000+00:00</time></trkpt><trkpt lat="63.89594269" lon="-22.05227661"><ele>172.4</ele><time>2012-07-28T17:23:36.0000000+00:00</time></trkpt><trkpt lat="63.89594269" lon="-22.05227661"><ele>172.5</ele><time>2012-07-28T17:23:41.0000000+00:00</time></trkpt><trkpt lat="63.89594269" lon="-22.0522747"><ele>172.8</ele><time>2012-07-28T17:23:46.0000000+00:00</time></trkpt><trkpt lat="63.8959465" lon="-22.0522728"><ele>173.1</ele><time>2012-07-28T17:23:51.0000000+00:00</time></trkpt><trkpt lat="63.89595032" lon="-22.05226898"><ele>173.4</ele><time>2012-07-28T17:23:56.0000000+00:00</time></trkpt><trkpt lat="63.89595032" lon="-22.05226708"><ele>173.7</ele><time>2012-07-28T17:24:01.0000000+00:00</time></trkpt><trkpt lat="63.89595032" lon="-22.05226517"><ele>174.0</ele><time>2012-07-28T17:24:06.0000000+00:00</time></trkpt><trkpt lat="63.89595413" lon="-22.05226517"><ele>174.3</ele><time>2012-07-28T17:24:11.0000000+00:00</time></trkpt><trkpt lat="63.89595413" lon="-22.05226326"><ele>174.6</ele><time>2012-07-28T17:24:16.0000000+00:00</time></trkpt><trkpt lat="63.89595795" lon="-22.05226135"><ele>175.1</ele><time>2012-07-28T17:24:21.0000000+00:00</time></trkpt><trkpt lat="63.89596176" lon="-22.05225945"><ele>175.6</ele><time>2012-07-28T17:24:26.0000000+00:00</time></trkpt><trkpt lat="63.89596558" lon="-22.05225754"><ele>176.3</ele><time>2012-07-28T17:24:31.0000000+00:00</time></trkpt><trkpt lat="63.89596558" lon="-22.05225754"><ele>177.0</ele><time>2012-07-28T17:24:36.0000000+00:00</time></trkpt><trkpt lat="63.89596939" lon="-22.05226326"><ele>177.7</ele><time>2012-07-28T17:24:41.0000000+00:00</time></trkpt><trkpt lat="63.89596939" lon="-22.05226517"><ele>178.3</ele><time>2012-07-28T17:24:46.0000000+00:00</time></trkpt><trkpt lat="63.89596939" lon="-22.05226708"><ele>178.6</ele><time>2012-07-28T17:24:51.0000000+00:00</time></trkpt><trkpt lat="63.89597321" lon="-22.05226708"><ele>178.8</ele><time>2012-07-28T17:24:56.0000000+00:00</time></trkpt><trkpt lat="63.89597321" lon="-22.05226708"><ele>178.8</ele><time>2012-07-28T17:25:01.0000000+00:00</time></trkpt><trkpt lat="63.89597321" lon="-22.05226898"><ele>178.8</ele><time>2012-07-28T17:25:06.0000000+00:00</time></trkpt><trkpt lat="63.89597321" lon="-22.05226898"><ele>178.8</ele><time>2012-07-28T17:25:11.0000000+00:00</time></trkpt><trkpt lat="63.89597321" lon="-22.05227089"><ele>178.9</ele><time>2012-07-28T17:25:16.0000000+00:00</time></trkpt><trkpt lat="63.89597321" lon="-22.05227089"><ele>178.9</ele><time>2012-07-28T17:25:21.0000000+00:00</time></trkpt><trkpt lat="63.89597321" lon="-22.05227089"><ele>178.9</ele><time>2012-07-28T17:25:26.0000000+00:00</time></trkpt><trkpt lat="63.89597321" lon="-22.05227089"><ele>178.9</ele><time>2012-07-28T17:25:31.0000000+00:00</time></trkpt><trkpt lat="63.89597321" lon="-22.05227089"><ele>178.9</ele><time>2012-07-28T17:25:36.0000000+00:00</time></trkpt><trkpt lat="63.89597321" lon="-22.05227089"><ele>179.0</ele><time>2012-07-28T17:25:41.0000000+00:00</time></trkpt><trkpt lat="63.89597321" lon="-22.05227089"><ele>179.0</ele><time>2012-07-28T17:25:46.0000000+00:00</time></trkpt><trkpt lat="63.89597321" lon="-22.05227089"><ele>179.0</ele><time>2012-07-28T17:25:51.0000000+00:00</time></trkpt><trkpt lat="63.89597321" lon="-22.0522728"><ele>179.0</ele><time>2012-07-28T17:25:56.0000000+00:00</time></trkpt><trkpt lat="63.89597321" lon="-22.0522728"><ele>179.1</ele><time>2012-07-28T17:26:01.0000000+00:00</time></trkpt><trkpt lat="63.89597321" lon="-22.0522728"><ele>179.1</ele><time>2012-07-28T17:26:06.0000000+00:00</time></trkpt><trkpt lat="63.89597321" lon="-22.0522728"><ele>179.1</ele><time>2012-07-28T17:26:11.0000000+00:00</time></trkpt><trkpt lat="63.89597321" lon="-22.0522728"><ele>179.2</ele><time>2012-07-28T17:26:16.0000000+00:00</time></trkpt><trkpt lat="63.89597321" lon="-22.0522747"><ele>179.2</ele><time>2012-07-28T17:26:21.0000000+00:00</time></trkpt><trkpt lat="63.89597321" lon="-22.0522747"><ele>179.2</ele><time>2012-07-28T17:26:26.0000000+00:00</time></trkpt><trkpt lat="63.89597321" lon="-22.0522747"><ele>179.2</ele><time>2012-07-28T17:26:31.0000000+00:00</time></trkpt><trkpt lat="63.89597321" lon="-22.05227661"><ele>179.2</ele><time>2012-07-28T17:26:36.0000000+00:00</time></trkpt><trkpt lat="63.89597321" lon="-22.05227661"><ele>179.3</ele><time>2012-07-28T17:26:41.0000000+00:00</time></trkpt><trkpt lat="63.89597321" lon="-22.05227661"><ele>179.3</ele><time>2012-07-28T17:26:46.0000000+00:00</time></trkpt><trkpt lat="63.89597321" lon="-22.05227661"><ele>179.3</ele><time>2012-07-28T17:26:51.0000000+00:00</time></trkpt><trkpt lat="63.89597321" lon="-22.05227661"><ele>179.3</ele><time>2012-07-28T17:26:56.0000000+00:00</time></trkpt><trkpt lat="63.89597321" lon="-22.05227661"><ele>179.3</ele><time>2012-07-28T17:27:01.0000000+00:00</time></trkpt><trkpt lat="63.89597321" lon="-22.05227661"><ele>179.3</ele><time>2012-07-28T17:27:06.0000000+00:00</time></trkpt><trkpt lat="63.89597321" lon="-22.05227661"><ele>179.3</ele><time>2012-07-28T17:27:11.0000000+00:00</time></trkpt><trkpt lat="63.89597321" lon="-22.05227661"><ele>179.3</ele><time>2012-07-28T17:27:16.0000000+00:00</time></trkpt><trkpt lat="63.89597321" lon="-22.05227661"><ele>179.3</ele><time>2012-07-28T17:27:21.0000000+00:00</time></trkpt><trkpt lat="63.89597321" lon="-22.05227661"><ele>179.3</ele><time>2012-07-28T17:27:26.0000000+00:00</time></trkpt><trkpt lat="63.89597321" lon="-22.05227852"><ele>179.3</ele><time>2012-07-28T17:27:31.0000000+00:00</time></trkpt><trkpt lat="63.89597321" lon="-22.05227852"><ele>179.3</ele><time>2012-07-28T17:27:36.0000000+00:00</time></trkpt><trkpt lat="63.89597321" lon="-22.05228043"><ele>179.3</ele><time>2012-07-28T17:27:41.0000000+00:00</time></trkpt><trkpt lat="63.89597321" lon="-22.05228043"><ele>179.4</ele><time>2012-07-28T17:27:46.0000000+00:00</time></trkpt><trkpt lat="63.89597321" lon="-22.05228043"><ele>179.4</ele><time>2012-07-28T17:27:51.0000000+00:00</time></trkpt><trkpt lat="63.89597321" lon="-22.05228233"><ele>179.4</ele><time>2012-07-28T17:27:56.0000000+00:00</time></trkpt><trkpt lat="63.89597321" lon="-22.05228233"><ele>179.4</ele><time>2012-07-28T17:28:01.0000000+00:00</time></trkpt><trkpt lat="63.89597321" lon="-22.05228233"><ele>179.3</ele><time>2012-07-28T17:28:06.0000000+00:00</time></trkpt><trkpt lat="63.89597321" lon="-22.05228233"><ele>179.4</ele><time>2012-07-28T17:28:11.0000000+00:00</time></trkpt><trkpt lat="63.89597321" lon="-22.05228233"><ele>179.4</ele><time>2012-07-28T17:28:16.0000000+00:00</time></trkpt><trkpt lat="63.89597321" lon="-22.05228233"><ele>179.4</ele><time>2012-07-28T17:28:21.0000000+00:00</time></trkpt><trkpt lat="63.89597321" lon="-22.05228233"><ele>179.4</ele><time>2012-07-28T17:28:26.0000000+00:00</time></trkpt><trkpt lat="63.89597321" lon="-22.05228233"><ele>179.4</ele><time>2012-07-28T17:28:31.0000000+00:00</time></trkpt><trkpt lat="63.89597321" lon="-22.05228233"><ele>179.4</ele><time>2012-07-28T17:28:36.0000000+00:00</time></trkpt><trkpt lat="63.89597321" lon="-22.05228233"><ele>179.4</ele><time>2012-07-28T17:28:41.0000000+00:00</time></trkpt><trkpt lat="63.89596939" lon="-22.05228233"><ele>179.5</ele><time>2012-07-28T17:28:46.0000000+00:00</time></trkpt><trkpt lat="63.89596939" lon="-22.05228424"><ele>179.5</ele><time>2012-07-28T17:28:51.0000000+00:00</time></trkpt><trkpt lat="63.89596939" lon="-22.05228424"><ele>179.5</ele><time>2012-07-28T17:28:56.0000000+00:00</time></trkpt><trkpt lat="63.89597321" lon="-22.05228424"><ele>179.6</ele><time>2012-07-28T17:29:01.0000000+00:00</time></trkpt><trkpt lat="63.89597321" lon="-22.05228424"><ele>179.6</ele><time>2012-07-28T17:29:06.0000000+00:00</time></trkpt><trkpt lat="63.89597321" lon="-22.05228424"><ele>179.6</ele><time>2012-07-28T17:29:11.0000000+00:00</time></trkpt><trkpt lat="63.89597321" lon="-22.05228424"><ele>179.6</ele><time>2012-07-28T17:29:16.0000000+00:00</time></trkpt><trkpt lat="63.89597321" lon="-22.05228615"><ele>179.6</ele><time>2012-07-28T17:29:21.0000000+00:00</time></trkpt><trkpt lat="63.89597321" lon="-22.05228615"><ele>179.7</ele><time>2012-07-28T17:29:26.0000000+00:00</time></trkpt><trkpt lat="63.89596939" lon="-22.05228615"><ele>179.7</ele><time>2012-07-28T17:29:31.0000000+00:00</time></trkpt><trkpt lat="63.89596939" lon="-22.05228615"><ele>179.7</ele><time>2012-07-28T17:29:36.0000000+00:00</time></trkpt><trkpt lat="63.89596939" lon="-22.05228615"><ele>179.6</ele><time>2012-07-28T17:29:41.0000000+00:00</time></trkpt><trkpt lat="63.89596939" lon="-22.05228615"><ele>179.6</ele><time>2012-07-28T17:29:46.0000000+00:00</time></trkpt><trkpt lat="63.89596939" lon="-22.05228615"><ele>179.6</ele><time>2012-07-28T17:29:51.0000000+00:00</time></trkpt><trkpt lat="63.89596939" lon="-22.05228424"><ele>179.6</ele><time>2012-07-28T17:29:56.0000000+00:00</time></trkpt><trkpt lat="63.89596939" lon="-22.05228615"><ele>179.6</ele><time>2012-07-28T17:30:01.0000000+00:00</time></trkpt><trkpt lat="63.89596939" lon="-22.05228615"><ele>179.6</ele><time>2012-07-28T17:30:06.0000000+00:00</time></trkpt><trkpt lat="63.89596939" lon="-22.05228615"><ele>179.7</ele><time>2012-07-28T17:30:11.0000000+00:00</time></trkpt><trkpt lat="63.89596939" lon="-22.05228615"><ele>179.7</ele><time>2012-07-28T17:30:16.0000000+00:00</time></trkpt><trkpt lat="63.89596939" lon="-22.05228615"><ele>179.7</ele><time>2012-07-28T17:30:21.0000000+00:00</time></trkpt><trkpt lat="63.89596939" lon="-22.05228615"><ele>179.7</ele><time>2012-07-28T17:30:26.0000000+00:00</time></trkpt><trkpt lat="63.89596939" lon="-22.05228806"><ele>179.7</ele><time>2012-07-28T17:30:31.0000000+00:00</time></trkpt><trkpt lat="63.89596939" lon="-22.05228806"><ele>179.7</ele><time>2012-07-28T17:30:36.0000000+00:00</time></trkpt><trkpt lat="63.89596939" lon="-22.05228806"><ele>179.7</ele><time>2012-07-28T17:30:41.0000000+00:00</time></trkpt><trkpt lat="63.89596939" lon="-22.05228615"><ele>179.7</ele><time>2012-07-28T17:30:46.0000000+00:00</time></trkpt><trkpt lat="63.89596939" lon="-22.05228615"><ele>179.7</ele><time>2012-07-28T17:30:51.0000000+00:00</time></trkpt><trkpt lat="63.89596939" lon="-22.05228615"><ele>179.7</ele><time>2012-07-28T17:30:56.0000000+00:00</time></trkpt><trkpt lat="63.89596939" lon="-22.05228615"><ele>179.7</ele><time>2012-07-28T17:31:01.0000000+00:00</time></trkpt><trkpt lat="63.89596939" lon="-22.05228615"><ele>179.7</ele><time>2012-07-28T17:31:06.0000000+00:00</time></trkpt><trkpt lat="63.89596939" lon="-22.05228615"><ele>179.7</ele><time>2012-07-28T17:31:11.0000000+00:00</time></trkpt><trkpt lat="63.89596939" lon="-22.05228615"><ele>179.6</ele><time>2012-07-28T17:31:16.0000000+00:00</time></trkpt><trkpt lat="63.89596939" lon="-22.05228615"><ele>179.6</ele><time>2012-07-28T17:31:21.0000000+00:00</time></trkpt><trkpt lat="63.89596939" lon="-22.05228615"><ele>179.6</ele><time>2012-07-28T17:31:26.0000000+00:00</time></trkpt><trkpt lat="63.89596939" lon="-22.05228615"><ele>179.6</ele><time>2012-07-28T17:31:31.0000000+00:00</time></trkpt><trkpt lat="63.89596939" lon="-22.05228615"><ele>179.6</ele><time>2012-07-28T17:31:36.0000000+00:00</time></trkpt><trkpt lat="63.89596939" lon="-22.05228615"><ele>179.6</ele><time>2012-07-28T17:31:41.0000000+00:00</time></trkpt><trkpt lat="63.89596939" lon="-22.05228615"><ele>179.6</ele><time>2012-07-28T17:31:46.0000000+00:00</time></trkpt><trkpt lat="63.89596939" lon="-22.05228615"><ele>179.5</ele><time>2012-07-28T17:31:51.0000000+00:00</time></trkpt><trkpt lat="63.89596939" lon="-22.05228615"><ele>179.6</ele><time>2012-07-28T17:31:56.0000000+00:00</time></trkpt><trkpt lat="63.89596939" lon="-22.05228615"><ele>179.6</ele><time>2012-07-28T17:32:01.0000000+00:00</time></trkpt><trkpt lat="63.89596939" lon="-22.05228615"><ele>179.6</ele><time>2012-07-28T17:32:06.0000000+00:00</time></trkpt><trkpt lat="63.89596939" lon="-22.05228615"><ele>179.6</ele><time>2012-07-28T17:32:11.0000000+00:00</time></trkpt><trkpt lat="63.89596939" lon="-22.05228806"><ele>179.6</ele><time>2012-07-28T17:32:16.0000000+00:00</time></trkpt><trkpt lat="63.89596939" lon="-22.05228806"><ele>179.6</ele><time>2012-07-28T17:32:21.0000000+00:00</time></trkpt><trkpt lat="63.89596939" lon="-22.05228806"><ele>179.5</ele><time>2012-07-28T17:32:26.0000000+00:00</time></trkpt><trkpt lat="63.89596939" lon="-22.05228806"><ele>179.5</ele><time>2012-07-28T17:32:31.0000000+00:00</time></trkpt><trkpt lat="63.89596939" lon="-22.05228615"><ele>179.5</ele><time>2012-07-28T17:32:36.0000000+00:00</time></trkpt><trkpt lat="63.89596939" lon="-22.05228615"><ele>179.5</ele><time>2012-07-28T17:32:41.0000000+00:00</time></trkpt><trkpt lat="63.89596939" lon="-22.05228615"><ele>179.5</ele><time>2012-07-28T17:32:46.0000000+00:00</time></trkpt><trkpt lat="63.89596939" lon="-22.05228424"><ele>179.5</ele><time>2012-07-28T17:32:51.0000000+00:00</time></trkpt><trkpt lat="63.89596939" lon="-22.05228424"><ele>179.4</ele><time>2012-07-28T17:32:56.0000000+00:00</time></trkpt><trkpt lat="63.89596939" lon="-22.05228424"><ele>179.4</ele><time>2012-07-28T17:33:01.0000000+00:00</time></trkpt><trkpt lat="63.89596939" lon="-22.05228615"><ele>179.5</ele><time>2012-07-28T17:33:06.0000000+00:00</time></trkpt><trkpt lat="63.89596939" lon="-22.05228615"><ele>179.5</ele><time>2012-07-28T17:33:11.0000000+00:00</time></trkpt><trkpt lat="63.89596939" lon="-22.05228615"><ele>179.5</ele><time>2012-07-28T17:33:16.0000000+00:00</time></trkpt><trkpt lat="63.89596939" lon="-22.05228615"><ele>179.5</ele><time>2012-07-28T17:33:21.0000000+00:00</time></trkpt><trkpt lat="63.89596939" lon="-22.05228615"><ele>179.5</ele><time>2012-07-28T17:33:26.0000000+00:00</time></trkpt><trkpt lat="63.89596939" lon="-22.05228806"><ele>179.5</ele><time>2012-07-28T17:33:31.0000000+00:00</time></trkpt><trkpt lat="63.89596939" lon="-22.05228806"><ele>179.5</ele><time>2012-07-28T17:33:36.0000000+00:00</time></trkpt><trkpt lat="63.89596939" lon="-22.05228996"><ele>179.5</ele><time>2012-07-28T17:33:41.0000000+00:00</time></trkpt><trkpt lat="63.89596939" lon="-22.05228996"><ele>179.5</ele><time>2012-07-28T17:33:46.0000000+00:00</time></trkpt><trkpt lat="63.89596939" lon="-22.05228996"><ele>179.5</ele><time>2012-07-28T17:33:51.0000000+00:00</time></trkpt><trkpt lat="63.89596939" lon="-22.05228996"><ele>179.5</ele><time>2012-07-28T17:33:56.0000000+00:00</time></trkpt><trkpt lat="63.89596939" lon="-22.05228996"><ele>179.5</ele><time>2012-07-28T17:34:01.0000000+00:00</time></trkpt><trkpt lat="63.89596939" lon="-22.05228996"><ele>179.5</ele><time>2012-07-28T17:34:06.0000000+00:00</time></trkpt><trkpt lat="63.89596939" lon="-22.05228806"><ele>179.4</ele><time>2012-07-28T17:34:11.0000000+00:00</time></trkpt><trkpt lat="63.89596939" lon="-22.05228806"><ele>179.4</ele><time>2012-07-28T17:34:16.0000000+00:00</time></trkpt><trkpt lat="63.89596939" lon="-22.05228996"><ele>179.4</ele><time>2012-07-28T17:34:21.0000000+00:00</time></trkpt><trkpt lat="63.89596939" lon="-22.05228996"><ele>179.4</ele><time>2012-07-28T17:34:26.0000000+00:00</time></trkpt><trkpt lat="63.89596939" lon="-22.05228996"><ele>179.3</ele><time>2012-07-28T17:34:31.0000000+00:00</time></trkpt><trkpt lat="63.89596939" lon="-22.05228996"><ele>179.3</ele><time>2012-07-28T17:34:36.0000000+00:00</time></trkpt><trkpt lat="63.89596939" lon="-22.05228996"><ele>179.3</ele><time>2012-07-28T17:34:41.0000000+00:00</time></trkpt><trkpt lat="63.89596939" lon="-22.05228996"><ele>179.3</ele><time>2012-07-28T17:34:46.0000000+00:00</time></trkpt><trkpt lat="63.89596939" lon="-22.05228996"><ele>179.3</ele><time>2012-07-28T17:34:51.0000000+00:00</time></trkpt><trkpt lat="63.89596939" lon="-22.05228996"><ele>179.3</ele><time>2012-07-28T17:34:56.0000000+00:00</time></trkpt><trkpt lat="63.89596939" lon="-22.05228996"><ele>179.3</ele><time>2012-07-28T17:35:01.0000000+00:00</time></trkpt><trkpt lat="63.89596939" lon="-22.05228996"><ele>179.2</ele><time>2012-07-28T17:35:06.0000000+00:00</time></trkpt><trkpt lat="63.89596939" lon="-22.05228996"><ele>179.2</ele><time>2012-07-28T17:35:11.0000000+00:00</time></trkpt><trkpt lat="63.89596939" lon="-22.05228996"><ele>179.1</ele><time>2012-07-28T17:35:16.0000000+00:00</time></trkpt><trkpt lat="63.89596939" lon="-22.05228806"><ele>179.1</ele><time>2012-07-28T17:35:21.0000000+00:00</time></trkpt><trkpt lat="63.89596939" lon="-22.05228806"><ele>179.1</ele><time>2012-07-28T17:35:26.0000000+00:00</time></trkpt><trkpt lat="63.89596939" lon="-22.05228806"><ele>179.0</ele><time>2012-07-28T17:35:31.0000000+00:00</time></trkpt><trkpt lat="63.89596558" lon="-22.05228806"><ele>179.0</ele><time>2012-07-28T17:35:36.0000000+00:00</time></trkpt><trkpt lat="63.89596558" lon="-22.05228806"><ele>179.0</ele><time>2012-07-28T17:35:41.0000000+00:00</time></trkpt><trkpt lat="63.89596558" lon="-22.05228806"><ele>179.0</ele><time>2012-07-28T17:35:46.0000000+00:00</time></trkpt><trkpt lat="63.89596558" lon="-22.05228806"><ele>179.0</ele><time>2012-07-28T17:35:51.0000000+00:00</time></trkpt><trkpt lat="63.89596558" lon="-22.05228806"><ele>179.0</ele><time>2012-07-28T17:35:56.0000000+00:00</time></trkpt><trkpt lat="63.89596558" lon="-22.05228806"><ele>179.0</ele><time>2012-07-28T17:36:01.0000000+00:00</time></trkpt><trkpt lat="63.89596558" lon="-22.05228996"><ele>179.0</ele><time>2012-07-28T17:36:06.0000000+00:00</time></trkpt><trkpt lat="63.89596558" lon="-22.05228996"><ele>179.0</ele><time>2012-07-28T17:36:11.0000000+00:00</time></trkpt><trkpt lat="63.89596558" lon="-22.05228996"><ele>179.0</ele><time>2012-07-28T17:36:16.0000000+00:00</time></trkpt><trkpt lat="63.89596558" lon="-22.05228996"><ele>179.0</ele><time>2012-07-28T17:36:21.0000000+00:00</time></trkpt><trkpt lat="63.89596558" lon="-22.05228996"><ele>179.0</ele><time>2012-07-28T17:36:26.0000000+00:00</time></trkpt><trkpt lat="63.89596558" lon="-22.05228996"><ele>179.0</ele><time>2012-07-28T17:36:31.0000000+00:00</time></trkpt><trkpt lat="63.89596558" lon="-22.05228996"><ele>178.9</ele><time>2012-07-28T17:36:36.0000000+00:00</time></trkpt><trkpt lat="63.89596558" lon="-22.05228806"><ele>178.9</ele><time>2012-07-28T17:36:41.0000000+00:00</time></trkpt><trkpt lat="63.89596558" lon="-22.05228806"><ele>178.9</ele><time>2012-07-28T17:36:46.0000000+00:00</time></trkpt><trkpt lat="63.89596176" lon="-22.05228806"><ele>178.8</ele><time>2012-07-28T17:36:51.0000000+00:00</time></trkpt><trkpt lat="63.89596176" lon="-22.05228806"><ele>178.8</ele><time>2012-07-28T17:36:56.0000000+00:00</time></trkpt><trkpt lat="63.89596176" lon="-22.05228806"><ele>178.8</ele><time>2012-07-28T17:37:01.0000000+00:00</time></trkpt><trkpt lat="63.89596176" lon="-22.05228806"><ele>178.8</ele><time>2012-07-28T17:37:06.0000000+00:00</time></trkpt><trkpt lat="63.89596176" lon="-22.05228806"><ele>178.8</ele><time>2012-07-28T17:37:11.0000000+00:00</time></trkpt><trkpt lat="63.89596176" lon="-22.05228806"><ele>178.8</ele><time>2012-07-28T17:37:16.0000000+00:00</time></trkpt><trkpt lat="63.89596176" lon="-22.05228806"><ele>178.7</ele><time>2012-07-28T17:37:21.0000000+00:00</time></trkpt><trkpt lat="63.89596176" lon="-22.05228806"><ele>178.7</ele><time>2012-07-28T17:37:26.0000000+00:00</time></trkpt><trkpt lat="63.89596176" lon="-22.05228806"><ele>178.7</ele><time>2012-07-28T17:37:31.0000000+00:00</time></trkpt><trkpt lat="63.89596176" lon="-22.05228806"><ele>178.7</ele><time>2012-07-28T17:37:36.0000000+00:00</time></trkpt><trkpt lat="63.89596176" lon="-22.05228806"><ele>178.7</ele><time>2012-07-28T17:37:41.0000000+00:00</time></trkpt><trkpt lat="63.89596176" lon="-22.05228806"><ele>178.7</ele><time>2012-07-28T17:37:46.0000000+00:00</time></trkpt><trkpt lat="63.89596176" lon="-22.05229187"><ele>179.0</ele><time>2012-07-28T17:37:51.0000000+00:00</time></trkpt><trkpt lat="63.89596176" lon="-22.0522995"><ele>179.8</ele><time>2012-07-28T17:37:56.0000000+00:00</time></trkpt><trkpt lat="63.89595795" lon="-22.05229569"><ele>180.3</ele><time>2012-07-28T17:38:01.0000000+00:00</time></trkpt><trkpt lat="63.89594269" lon="-22.05231667"><ele>179.8</ele><time>2012-07-28T17:38:06.0000000+00:00</time></trkpt><trkpt lat="63.8959198" lon="-22.05232048"><ele>179.5</ele><time>2012-07-28T17:38:11.0000000+00:00</time></trkpt><trkpt lat="63.89590454" lon="-22.0522995"><ele>178.7</ele><time>2012-07-28T17:38:16.0000000+00:00</time></trkpt><trkpt lat="63.89590454" lon="-22.05230331"><ele>178.8</ele><time>2012-07-28T17:38:21.0000000+00:00</time></trkpt><trkpt lat="63.89590073" lon="-22.05231476"><ele>178.5</ele><time>2012-07-28T17:38:26.0000000+00:00</time></trkpt><trkpt lat="63.89589691" lon="-22.05233383"><ele>178.0</ele><time>2012-07-28T17:38:31.0000000+00:00</time></trkpt><trkpt lat="63.89589691" lon="-22.05233192"><ele>177.1</ele><time>2012-07-28T17:38:36.0000000+00:00</time></trkpt><trkpt lat="63.89589691" lon="-22.05233192"><ele>177.0</ele><time>2012-07-28T17:38:41.0000000+00:00</time></trkpt><trkpt lat="63.89589691" lon="-22.05233192"><ele>177.0</ele><time>2012-07-28T17:38:46.0000000+00:00</time></trkpt><trkpt lat="63.89589691" lon="-22.05233192"><ele>177.0</ele><time>2012-07-28T17:38:51.0000000+00:00</time></trkpt><trkpt lat="63.89589691" lon="-22.05233192"><ele>177.0</ele><time>2012-07-28T17:38:56.0000000+00:00</time></trkpt><trkpt lat="63.89589691" lon="-22.05233192"><ele>177.0</ele><time>2012-07-28T17:39:01.0000000+00:00</time></trkpt><trkpt lat="63.89589691" lon="-22.05233192"><ele>176.9</ele><time>2012-07-28T17:39:06.0000000+00:00</time></trkpt><trkpt lat="63.89589691" lon="-22.05233192"><ele>176.9</ele><time>2012-07-28T17:39:11.0000000+00:00</time></trkpt><trkpt lat="63.89589691" lon="-22.05233192"><ele>176.9</ele><time>2012-07-28T17:39:16.0000000+00:00</time></trkpt><trkpt lat="63.89589691" lon="-22.05233192"><ele>176.9</ele><time>2012-07-28T17:39:21.0000000+00:00</time></trkpt><trkpt lat="63.89589691" lon="-22.05233192"><ele>176.9</ele><time>2012-07-28T17:39:26.0000000+00:00</time></trkpt><trkpt lat="63.89589691" lon="-22.05233192"><ele>176.9</ele><time>2012-07-28T17:39:31.0000000+00:00</time></trkpt><trkpt lat="63.89589691" lon="-22.05233192"><ele>176.9</ele><time>2012-07-28T17:39:36.0000000+00:00</time></trkpt><trkpt lat="63.89589691" lon="-22.05233192"><ele>176.9</ele><time>2012-07-28T17:39:41.0000000+00:00</time></trkpt><trkpt lat="63.89589691" lon="-22.05233192"><ele>176.9</ele><time>2012-07-28T17:39:46.0000000+00:00</time></trkpt><trkpt lat="63.89589691" lon="-22.05233192"><ele>176.9</ele><time>2012-07-28T17:39:51.0000000+00:00</time></trkpt><trkpt lat="63.89589691" lon="-22.05233192"><ele>176.9</ele><time>2012-07-28T17:39:56.0000000+00:00</time></trkpt><trkpt lat="63.89589691" lon="-22.05233383"><ele>176.9</ele><time>2012-07-28T17:40:01.0000000+00:00</time></trkpt><trkpt lat="63.89589691" lon="-22.05233383"><ele>176.9</ele><time>2012-07-28T17:40:06.0000000+00:00</time></trkpt><trkpt lat="63.89589691" lon="-22.05233383"><ele>176.9</ele><time>2012-07-28T17:40:11.0000000+00:00</time></trkpt><trkpt lat="63.89589691" lon="-22.05233383"><ele>176.8</ele><time>2012-07-28T17:40:16.0000000+00:00</time></trkpt><trkpt lat="63.89589691" lon="-22.05233383"><ele>176.8</ele><time>2012-07-28T17:40:21.0000000+00:00</time></trkpt><trkpt lat="63.89589691" lon="-22.05233192"><ele>176.8</ele><time>2012-07-28T17:40:26.0000000+00:00</time></trkpt><trkpt lat="63.89589691" lon="-22.05233192"><ele>176.8</ele><time>2012-07-28T17:40:31.0000000+00:00</time></trkpt><trkpt lat="63.89589691" lon="-22.05233192"><ele>176.8</ele><time>2012-07-28T17:40:36.0000000+00:00</time></trkpt><trkpt lat="63.89589691" lon="-22.05233192"><ele>176.8</ele><time>2012-07-28T17:40:41.0000000+00:00</time></trkpt><trkpt lat="63.89589691" lon="-22.05233192"><ele>176.8</ele><time>2012-07-28T17:40:46.0000000+00:00</time></trkpt><trkpt lat="63.89589691" lon="-22.05233192"><ele>176.8</ele><time>2012-07-28T17:40:51.0000000+00:00</time></trkpt><trkpt lat="63.89590073" lon="-22.05231667"><ele>176.5</ele><time>2012-07-28T17:40:56.0000000+00:00</time></trkpt><trkpt lat="63.89590073" lon="-22.05230522"><ele>175.7</ele><time>2012-07-28T17:41:01.0000000+00:00</time></trkpt><trkpt lat="63.89589691" lon="-22.0522995"><ele>175.1</ele><time>2012-07-28T17:41:06.0000000+00:00</time></trkpt><trkpt lat="63.89590454" lon="-22.05230904"><ele>174.5</ele><time>2012-07-28T17:41:11.0000000+00:00</time></trkpt><trkpt lat="63.89591217" lon="-22.05230331"><ele>175.4</ele><time>2012-07-28T17:41:16.0000000+00:00</time></trkpt><trkpt lat="63.89590454" lon="-22.05232048"><ele>175.8</ele><time>2012-07-28T17:41:21.0000000+00:00</time></trkpt><trkpt lat="63.89590073" lon="-22.0523243"><ele>175.9</ele><time>2012-07-28T17:41:26.0000000+00:00</time></trkpt><trkpt lat="63.89588928" lon="-22.05230713"><ele>176.0</ele><time>2012-07-28T17:41:31.0000000+00:00</time></trkpt><trkpt lat="63.89587784" lon="-22.05232048"><ele>176.8</ele><time>2012-07-28T17:41:36.0000000+00:00</time></trkpt><trkpt lat="63.89587784" lon="-22.05232239"><ele>176.8</ele><time>2012-07-28T17:41:41.0000000+00:00</time></trkpt><trkpt lat="63.89587784" lon="-22.05232048"><ele>176.8</ele><time>2012-07-28T17:41:46.0000000+00:00</time></trkpt><trkpt lat="63.89587784" lon="-22.05232048"><ele>176.8</ele><time>2012-07-28T17:41:51.0000000+00:00</time></trkpt><trkpt lat="63.89587784" lon="-22.05232048"><ele>176.8</ele><time>2012-07-28T17:41:56.0000000+00:00</time></trkpt><trkpt lat="63.89587784" lon="-22.05231857"><ele>176.7</ele><time>2012-07-28T17:42:01.0000000+00:00</time></trkpt><trkpt lat="63.89587784" lon="-22.05231857"><ele>176.7</ele><time>2012-07-28T17:42:06.0000000+00:00</time></trkpt><trkpt lat="63.89588547" lon="-22.05229378"><ele>175.0</ele><time>2012-07-28T17:42:11.0000000+00:00</time></trkpt><trkpt lat="63.89588928" lon="-22.05230141"><ele>174.2</ele><time>2012-07-28T17:42:16.0000000+00:00</time></trkpt><trkpt lat="63.8958931" lon="-22.05229759"><ele>173.4</ele><time>2012-07-28T17:42:21.0000000+00:00</time></trkpt><trkpt lat="63.89589691" lon="-22.05225563"><ele>173.2</ele><time>2012-07-28T17:42:26.0000000+00:00</time></trkpt><trkpt lat="63.89590073" lon="-22.05224419"><ele>172.7</ele><time>2012-07-28T17:42:31.0000000+00:00</time></trkpt><trkpt lat="63.89589691" lon="-22.05224991"><ele>172.1</ele><time>2012-07-28T17:42:36.0000000+00:00</time></trkpt><trkpt lat="63.89590454" lon="-22.05221748"><ele>169.3</ele><time>2012-07-28T17:42:41.0000000+00:00</time></trkpt><trkpt lat="63.89588547" lon="-22.05222321"><ele>168.9</ele><time>2012-07-28T17:42:46.0000000+00:00</time></trkpt><trkpt lat="63.89577866" lon="-22.0520649"><ele>168.1</ele><time>2012-07-28T17:42:51.0000000+00:00</time></trkpt><trkpt lat="63.895607" lon="-22.05190086"><ele>164.9</ele><time>2012-07-28T17:42:56.0000000+00:00</time></trkpt><trkpt lat="63.89538193" lon="-22.05164337"><ele>162.7</ele><time>2012-07-28T17:43:01.0000000+00:00</time></trkpt><trkpt lat="63.8951416" lon="-22.05117798"><ele>161.4</ele><time>2012-07-28T17:43:06.0000000+00:00</time></trkpt><trkpt lat="63.89500046" lon="-22.05087662"><ele>160.1</ele><time>2012-07-28T17:43:11.0000000+00:00</time></trkpt><trkpt lat="63.89499664" lon="-22.05056763"><ele>158.4</ele><time>2012-07-28T17:43:16.0000000+00:00</time></trkpt><trkpt lat="63.89514542" lon="-22.05018616"><ele>157.6</ele><time>2012-07-28T17:43:21.0000000+00:00</time></trkpt><trkpt lat="63.89530945" lon="-22.04981422"><ele>157.6</ele><time>2012-07-28T17:43:26.0000000+00:00</time></trkpt><trkpt lat="63.89548492" lon="-22.0493927"><ele>158.7</ele><time>2012-07-28T17:43:31.0000000+00:00</time></trkpt><trkpt lat="63.89565659" lon="-22.04899788"><ele>156.6</ele><time>2012-07-28T17:43:36.0000000+00:00</time></trkpt><trkpt lat="63.89582825" lon="-22.04858398"><ele>156.2</ele><time>2012-07-28T17:43:41.0000000+00:00</time></trkpt><trkpt lat="63.89599991" lon="-22.04819679"><ele>156.7</ele><time>2012-07-28T17:43:46.0000000+00:00</time></trkpt><trkpt lat="63.89618301" lon="-22.0478363"><ele>158.2</ele><time>2012-07-28T17:43:51.0000000+00:00</time></trkpt><trkpt lat="63.89635086" lon="-22.04748535"><ele>158.5</ele><time>2012-07-28T17:43:56.0000000+00:00</time></trkpt><trkpt lat="63.89653778" lon="-22.04713631"><ele>157.7</ele><time>2012-07-28T17:44:01.0000000+00:00</time></trkpt><trkpt lat="63.89672852" lon="-22.04677582"><ele>157.5</ele><time>2012-07-28T17:44:06.0000000+00:00</time></trkpt><trkpt lat="63.8969307" lon="-22.04639626"><ele>157.2</ele><time>2012-07-28T17:44:11.0000000+00:00</time></trkpt><trkpt lat="63.89713287" lon="-22.04600906"><ele>156.1</ele><time>2012-07-28T17:44:16.0000000+00:00</time></trkpt><trkpt lat="63.89731979" lon="-22.04564858"><ele>155.5</ele><time>2012-07-28T17:44:21.0000000+00:00</time></trkpt><trkpt lat="63.89748383" lon="-22.04538155"><ele>154.9</ele><time>2012-07-28T17:44:26.0000000+00:00</time></trkpt><trkpt lat="63.89766312" lon="-22.04514694"><ele>155.2</ele><time>2012-07-28T17:44:31.0000000+00:00</time></trkpt><trkpt lat="63.89783478" lon="-22.0448494"><ele>154.9</ele><time>2012-07-28T17:44:36.0000000+00:00</time></trkpt><trkpt lat="63.897995" lon="-22.04458046"><ele>154.9</ele><time>2012-07-28T17:44:41.0000000+00:00</time></trkpt><trkpt lat="63.89814377" lon="-22.0443573"><ele>154.3</ele><time>2012-07-28T17:44:46.0000000+00:00</time></trkpt><trkpt lat="63.89829254" lon="-22.04416657"><ele>155.0</ele><time>2012-07-28T17:44:51.0000000+00:00</time></trkpt><trkpt lat="63.8984375" lon="-22.04400826"><ele>156.9</ele><time>2012-07-28T17:44:56.0000000+00:00</time></trkpt><trkpt lat="63.89858246" lon="-22.0438652"><ele>156.6</ele><time>2012-07-28T17:45:01.0000000+00:00</time></trkpt><trkpt lat="63.89874649" lon="-22.04370499"><ele>158.5</ele><time>2012-07-28T17:45:06.0000000+00:00</time></trkpt><trkpt lat="63.89890671" lon="-22.04355812"><ele>157.4</ele><time>2012-07-28T17:45:11.0000000+00:00</time></trkpt><trkpt lat="63.899086" lon="-22.043396"><ele>157.2</ele><time>2012-07-28T17:45:16.0000000+00:00</time></trkpt><trkpt lat="63.89928055" lon="-22.04322815"><ele>157.4</ele><time>2012-07-28T17:45:21.0000000+00:00</time></trkpt><trkpt lat="63.89946365" lon="-22.0431118"><ele>157.3</ele><time>2012-07-28T17:45:26.0000000+00:00</time></trkpt><trkpt lat="63.89963913" lon="-22.04302597"><ele>157.1</ele><time>2012-07-28T17:45:31.0000000+00:00</time></trkpt><trkpt lat="63.89980316" lon="-22.04288292"><ele>154.4</ele><time>2012-07-28T17:45:36.0000000+00:00</time></trkpt><trkpt lat="63.89996338" lon="-22.04278183"><ele>153.0</ele><time>2012-07-28T17:45:41.0000000+00:00</time></trkpt><trkpt lat="63.90012741" lon="-22.04266548"><ele>151.4</ele><time>2012-07-28T17:45:46.0000000+00:00</time></trkpt><trkpt lat="63.90030289" lon="-22.04252434"><ele>151.4</ele><time>2012-07-28T17:45:51.0000000+00:00</time></trkpt><trkpt lat="63.90047073" lon="-22.04240036"><ele>150.6</ele><time>2012-07-28T17:45:56.0000000+00:00</time></trkpt><trkpt lat="63.90060425" lon="-22.04223061"><ele>151.1</ele><time>2012-07-28T17:46:01.0000000+00:00</time></trkpt><trkpt lat="63.90076447" lon="-22.04209328"><ele>152.9</ele><time>2012-07-28T17:46:06.0000000+00:00</time></trkpt><trkpt lat="63.90090179" lon="-22.04199791"><ele>151.2</ele><time>2012-07-28T17:46:11.0000000+00:00</time></trkpt><trkpt lat="63.9010582" lon="-22.0418911"><ele>150.9</ele><time>2012-07-28T17:46:16.0000000+00:00</time></trkpt><trkpt lat="63.90120697" lon="-22.04178047"><ele>150.0</ele><time>2012-07-28T17:46:21.0000000+00:00</time></trkpt><trkpt lat="63.90135574" lon="-22.04165649"><ele>148.4</ele><time>2012-07-28T17:46:26.0000000+00:00</time></trkpt><trkpt lat="63.90149689" lon="-22.04154396"><ele>147.5</ele><time>2012-07-28T17:46:31.0000000+00:00</time></trkpt><trkpt lat="63.90163422" lon="-22.04144478"><ele>148.1</ele><time>2012-07-28T17:46:36.0000000+00:00</time></trkpt><trkpt lat="63.90177536" lon="-22.04132462"><ele>147.0</ele><time>2012-07-28T17:46:41.0000000+00:00</time></trkpt><trkpt lat="63.90190506" lon="-22.04123306"><ele>146.3</ele><time>2012-07-28T17:46:46.0000000+00:00</time></trkpt><trkpt lat="63.90200806" lon="-22.04116631"><ele>147.8</ele><time>2012-07-28T17:46:51.0000000+00:00</time></trkpt><trkpt lat="63.90213013" lon="-22.04108048"><ele>149.3</ele><time>2012-07-28T17:46:56.0000000+00:00</time></trkpt><trkpt lat="63.90227127" lon="-22.04099083"><ele>147.5</ele><time>2012-07-28T17:47:01.0000000+00:00</time></trkpt><trkpt lat="63.9024086" lon="-22.04089546"><ele>146.2</ele><time>2012-07-28T17:47:06.0000000+00:00</time></trkpt><trkpt lat="63.902565" lon="-22.0407505"><ele>147.7</ele><time>2012-07-28T17:47:11.0000000+00:00</time></trkpt><trkpt lat="63.90272903" lon="-22.04062653"><ele>148.4</ele><time>2012-07-28T17:47:16.0000000+00:00</time></trkpt><trkpt lat="63.9029007" lon="-22.04049492"><ele>148.0</ele><time>2012-07-28T17:47:21.0000000+00:00</time></trkpt><trkpt lat="63.90307999" lon="-22.04036713"><ele>146.1</ele><time>2012-07-28T17:47:26.0000000+00:00</time></trkpt><trkpt lat="63.90326309" lon="-22.04022789"><ele>146.2</ele><time>2012-07-28T17:47:31.0000000+00:00</time></trkpt><trkpt lat="63.90344238" lon="-22.04008293"><ele>146.4</ele><time>2012-07-28T17:47:36.0000000+00:00</time></trkpt><trkpt lat="63.90360642" lon="-22.03993797"><ele>145.4</ele><time>2012-07-28T17:47:41.0000000+00:00</time></trkpt><trkpt lat="63.90376282" lon="-22.03981972"><ele>145.1</ele><time>2012-07-28T17:47:46.0000000+00:00</time></trkpt><trkpt lat="63.90390015" lon="-22.03969955"><ele>146.1</ele><time>2012-07-28T17:47:51.0000000+00:00</time></trkpt><trkpt lat="63.90404511" lon="-22.03959465"><ele>148.7</ele><time>2012-07-28T17:47:56.0000000+00:00</time></trkpt><trkpt lat="63.90418243" lon="-22.03950119"><ele>150.0</ele><time>2012-07-28T17:48:01.0000000+00:00</time></trkpt><trkpt lat="63.90434265" lon="-22.03938294"><ele>150.7</ele><time>2012-07-28T17:48:06.0000000+00:00</time></trkpt><trkpt lat="63.90449524" lon="-22.03925705"><ele>148.9</ele><time>2012-07-28T17:48:11.0000000+00:00</time></trkpt><trkpt lat="63.9046402" lon="-22.03916359"><ele>149.8</ele><time>2012-07-28T17:48:16.0000000+00:00</time></trkpt><trkpt lat="63.9047699" lon="-22.03905106"><ele>148.6</ele><time>2012-07-28T17:48:21.0000000+00:00</time></trkpt><trkpt lat="63.90488434" lon="-22.03894424"><ele>148.1</ele><time>2012-07-28T17:48:26.0000000+00:00</time></trkpt><trkpt lat="63.90503311" lon="-22.0388298"><ele>150.2</ele><time>2012-07-28T17:48:31.0000000+00:00</time></trkpt><trkpt lat="63.90520477" lon="-22.03870392"><ele>150.2</ele><time>2012-07-28T17:48:36.0000000+00:00</time></trkpt><trkpt lat="63.90535736" lon="-22.03858376"><ele>148.4</ele><time>2012-07-28T17:48:41.0000000+00:00</time></trkpt><trkpt lat="63.90554047" lon="-22.0384407"><ele>148.7</ele><time>2012-07-28T17:48:46.0000000+00:00</time></trkpt><trkpt lat="63.90571213" lon="-22.03830147"><ele>147.2</ele><time>2012-07-28T17:48:51.0000000+00:00</time></trkpt><trkpt lat="63.90589142" lon="-22.03817368"><ele>145.5</ele><time>2012-07-28T17:48:56.0000000+00:00</time></trkpt><trkpt lat="63.90605164" lon="-22.03804398"><ele>145.3</ele><time>2012-07-28T17:49:01.0000000+00:00</time></trkpt><trkpt lat="63.90618897" lon="-22.03793144"><ele>147.9</ele><time>2012-07-28T17:49:06.0000000+00:00</time></trkpt><trkpt lat="63.90629196" lon="-22.03785896"><ele>147.2</ele><time>2012-07-28T17:49:11.0000000+00:00</time></trkpt><trkpt lat="63.90639877" lon="-22.03777695"><ele>145.1</ele><time>2012-07-28T17:49:16.0000000+00:00</time></trkpt><trkpt lat="63.9065094" lon="-22.03770065"><ele>145.5</ele><time>2012-07-28T17:49:21.0000000+00:00</time></trkpt><trkpt lat="63.9066391" lon="-22.03759956"><ele>145.6</ele><time>2012-07-28T17:49:26.0000000+00:00</time></trkpt><trkpt lat="63.9067688" lon="-22.0375042"><ele>145.6</ele><time>2012-07-28T17:49:31.0000000+00:00</time></trkpt><trkpt lat="63.90691757" lon="-22.03741264"><ele>145.3</ele><time>2012-07-28T17:49:36.0000000+00:00</time></trkpt><trkpt lat="63.90705872" lon="-22.03731155"><ele>144.5</ele><time>2012-07-28T17:49:41.0000000+00:00</time></trkpt><trkpt lat="63.90719986" lon="-22.03719139"><ele>144.5</ele><time>2012-07-28T17:49:46.0000000+00:00</time></trkpt><trkpt lat="63.90734863" lon="-22.03708267"><ele>144.4</ele><time>2012-07-28T17:49:51.0000000+00:00</time></trkpt><trkpt lat="63.90750504" lon="-22.03697014"><ele>144.5</ele><time>2012-07-28T17:49:56.0000000+00:00</time></trkpt><trkpt lat="63.90766144" lon="-22.03684807"><ele>145.1</ele><time>2012-07-28T17:50:01.0000000+00:00</time></trkpt><trkpt lat="63.90781784" lon="-22.03673744"><ele>144.9</ele><time>2012-07-28T17:50:06.0000000+00:00</time></trkpt><trkpt lat="63.90796661" lon="-22.03663063"><ele>144.2</ele><time>2012-07-28T17:50:11.0000000+00:00</time></trkpt><trkpt lat="63.90811157" lon="-22.03650665"><ele>144.0</ele><time>2012-07-28T17:50:16.0000000+00:00</time></trkpt><trkpt lat="63.90825272" lon="-22.03640366"><ele>144.4</ele><time>2012-07-28T17:50:21.0000000+00:00</time></trkpt><trkpt lat="63.90839386" lon="-22.03629112"><ele>144.5</ele><time>2012-07-28T17:50:26.0000000+00:00</time></trkpt><trkpt lat="63.90854645" lon="-22.0361557"><ele>144.9</ele><time>2012-07-28T17:50:31.0000000+00:00</time></trkpt><trkpt lat="63.90869522" lon="-22.03602791"><ele>145.5</ele><time>2012-07-28T17:50:36.0000000+00:00</time></trkpt><trkpt lat="63.90884781" lon="-22.035923"><ele>146.1</ele><time>2012-07-28T17:50:41.0000000+00:00</time></trkpt><trkpt lat="63.90896606" lon="-22.03586197"><ele>145.7</ele><time>2012-07-28T17:50:46.0000000+00:00</time></trkpt><trkpt lat="63.90908051" lon="-22.03576279"><ele>145.2</ele><time>2012-07-28T17:50:51.0000000+00:00</time></trkpt><trkpt lat="63.90921402" lon="-22.03567123"><ele>145.3</ele><time>2012-07-28T17:50:56.0000000+00:00</time></trkpt><trkpt lat="63.90934372" lon="-22.0355587"><ele>147.0</ele><time>2012-07-28T17:51:01.0000000+00:00</time></trkpt><trkpt lat="63.90945816" lon="-22.03545952"><ele>148.9</ele><time>2012-07-28T17:51:06.0000000+00:00</time></trkpt><trkpt lat="63.9095726" lon="-22.03539848"><ele>150.3</ele><time>2012-07-28T17:51:11.0000000+00:00</time></trkpt><trkpt lat="63.90969467" lon="-22.03531265"><ele>150.8</ele><time>2012-07-28T17:51:16.0000000+00:00</time></trkpt><trkpt lat="63.90979767" lon="-22.0351696"><ele>149.5</ele><time>2012-07-28T17:51:21.0000000+00:00</time></trkpt><trkpt lat="63.90991592" lon="-22.03508377"><ele>148.3</ele><time>2012-07-28T17:51:26.0000000+00:00</time></trkpt><trkpt lat="63.91003037" lon="-22.03498268"><ele>149.2</ele><time>2012-07-28T17:51:31.0000000+00:00</time></trkpt><trkpt lat="63.91014862" lon="-22.03485489"><ele>148.8</ele><time>2012-07-28T17:51:36.0000000+00:00</time></trkpt><trkpt lat="63.91028214" lon="-22.03469849"><ele>149.3</ele><time>2012-07-28T17:51:41.0000000+00:00</time></trkpt><trkpt lat="63.91041565" lon="-22.03454971"><ele>148.4</ele><time>2012-07-28T17:51:46.0000000+00:00</time></trkpt><trkpt lat="63.91054916" lon="-22.03438759"><ele>148.7</ele><time>2012-07-28T17:51:51.0000000+00:00</time></trkpt><trkpt lat="63.91067123" lon="-22.03421021"><ele>148.7</ele><time>2012-07-28T17:51:56.0000000+00:00</time></trkpt><trkpt lat="63.91075897" lon="-22.03407478"><ele>149.1</ele><time>2012-07-28T17:52:01.0000000+00:00</time></trkpt><trkpt lat="63.91085815" lon="-22.03396797"><ele>148.8</ele><time>2012-07-28T17:52:06.0000000+00:00</time></trkpt><trkpt lat="63.91095734" lon="-22.03381538"><ele>148.0</ele><time>2012-07-28T17:52:11.0000000+00:00</time></trkpt><trkpt lat="63.91107178" lon="-22.03362656"><ele>147.9</ele><time>2012-07-28T17:52:16.0000000+00:00</time></trkpt><trkpt lat="63.91119385" lon="-22.03341675"><ele>148.1</ele><time>2012-07-28T17:52:21.0000000+00:00</time></trkpt><trkpt lat="63.91130829" lon="-22.03322029"><ele>148.7</ele><time>2012-07-28T17:52:26.0000000+00:00</time></trkpt><trkpt lat="63.91141129" lon="-22.03301048"><ele>148.6</ele><time>2012-07-28T17:52:31.0000000+00:00</time></trkpt><trkpt lat="63.91152573" lon="-22.03278542"><ele>149.7</ele><time>2012-07-28T17:52:36.0000000+00:00</time></trkpt><trkpt lat="63.91163254" lon="-22.03261757"><ele>150.3</ele><time>2012-07-28T17:52:41.0000000+00:00</time></trkpt><trkpt lat="63.91173935" lon="-22.03242493"><ele>149.0</ele><time>2012-07-28T17:52:46.0000000+00:00</time></trkpt><trkpt lat="63.91186142" lon="-22.03217888"><ele>148.5</ele><time>2012-07-28T17:52:51.0000000+00:00</time></trkpt><trkpt lat="63.91196442" lon="-22.03198624"><ele>148.6</ele><time>2012-07-28T17:52:56.0000000+00:00</time></trkpt><trkpt lat="63.91204834" lon="-22.03181648"><ele>149.3</ele><time>2012-07-28T17:53:01.0000000+00:00</time></trkpt><trkpt lat="63.91214371" lon="-22.03162193"><ele>149.6</ele><time>2012-07-28T17:53:06.0000000+00:00</time></trkpt><trkpt lat="63.9121933" lon="-22.03151512"><ele>148.8</ele><time>2012-07-28T17:53:11.0000000+00:00</time></trkpt><trkpt lat="63.91225433" lon="-22.03141594"><ele>148.0</ele><time>2012-07-28T17:53:16.0000000+00:00</time></trkpt><trkpt lat="63.91234207" lon="-22.0311985"><ele>147.8</ele><time>2012-07-28T17:53:21.0000000+00:00</time></trkpt><trkpt lat="63.91245651" lon="-22.03100586"><ele>149.7</ele><time>2012-07-28T17:53:26.0000000+00:00</time></trkpt><trkpt lat="63.91253662" lon="-22.03088188"><ele>150.1</ele><time>2012-07-28T17:53:31.0000000+00:00</time></trkpt><trkpt lat="63.91263199" lon="-22.03077316"><ele>150.1</ele><time>2012-07-28T17:53:36.0000000+00:00</time></trkpt><trkpt lat="63.91271591" lon="-22.03065109"><ele>149.7</ele><time>2012-07-28T17:53:41.0000000+00:00</time></trkpt><trkpt lat="63.91278458" lon="-22.0305481"><ele>149.6</ele><time>2012-07-28T17:53:46.0000000+00:00</time></trkpt><trkpt lat="63.91286087" lon="-22.03041649"><ele>148.8</ele><time>2012-07-28T17:53:51.0000000+00:00</time></trkpt><trkpt lat="63.91292954" lon="-22.03030777"><ele>148.9</ele><time>2012-07-28T17:53:56.0000000+00:00</time></trkpt><trkpt lat="63.91295624" lon="-22.03025055"><ele>149.0</ele><time>2012-07-28T17:54:01.0000000+00:00</time></trkpt><trkpt lat="63.91297531" lon="-22.03021431"><ele>148.8</ele><time>2012-07-28T17:54:06.0000000+00:00</time></trkpt><trkpt lat="63.91307831" lon="-22.02999878"><ele>147.8</ele><time>2012-07-28T17:54:11.0000000+00:00</time></trkpt><trkpt lat="63.9132309" lon="-22.02971077"><ele>145.2</ele><time>2012-07-28T17:54:16.0000000+00:00</time></trkpt><trkpt lat="63.91339493" lon="-22.02934647"><ele>143.4</ele><time>2012-07-28T17:54:21.0000000+00:00</time></trkpt><trkpt lat="63.91356278" lon="-22.02899742"><ele>142.4</ele><time>2012-07-28T17:54:26.0000000+00:00</time></trkpt><trkpt lat="63.91368485" lon="-22.02873612"><ele>140.8</ele><time>2012-07-28T17:54:31.0000000+00:00</time></trkpt><trkpt lat="63.91381073" lon="-22.02843094"><ele>139.4</ele><time>2012-07-28T17:54:36.0000000+00:00</time></trkpt><trkpt lat="63.9139061" lon="-22.02820778"><ele>138.3</ele><time>2012-07-28T17:54:41.0000000+00:00</time></trkpt><trkpt lat="63.91402054" lon="-22.02793694"><ele>140.1</ele><time>2012-07-28T17:54:46.0000000+00:00</time></trkpt><trkpt lat="63.91413117" lon="-22.02767754"><ele>139.9</ele><time>2012-07-28T17:54:51.0000000+00:00</time></trkpt><trkpt lat="63.91424942" lon="-22.0274334"><ele>139.1</ele><time>2012-07-28T17:54:56.0000000+00:00</time></trkpt><trkpt lat="63.91436005" lon="-22.02716446"><ele>138.8</ele><time>2012-07-28T17:55:01.0000000+00:00</time></trkpt><trkpt lat="63.91448593" lon="-22.02688789"><ele>137.7</ele><time>2012-07-28T17:55:06.0000000+00:00</time></trkpt><trkpt lat="63.914608" lon="-22.02660179"><ele>137.6</ele><time>2012-07-28T17:55:11.0000000+00:00</time></trkpt><trkpt lat="63.914711" lon="-22.02633286"><ele>135.2</ele><time>2012-07-28T17:55:16.0000000+00:00</time></trkpt><trkpt lat="63.91482163" lon="-22.02607155"><ele>136.3</ele><time>2012-07-28T17:55:21.0000000+00:00</time></trkpt><trkpt lat="63.9149437" lon="-22.02581215"><ele>137.9</ele><time>2012-07-28T17:55:26.0000000+00:00</time></trkpt><trkpt lat="63.91504669" lon="-22.0255394"><ele>139.2</ele><time>2012-07-28T17:55:31.0000000+00:00</time></trkpt><trkpt lat="63.91516876" lon="-22.02527809"><ele>141.6</ele><time>2012-07-28T17:55:36.0000000+00:00</time></trkpt><trkpt lat="63.91529083" lon="-22.0249939"><ele>144.6</ele><time>2012-07-28T17:55:41.0000000+00:00</time></trkpt><trkpt lat="63.91540909" lon="-22.0247097"><ele>140.9</ele><time>2012-07-28T17:55:46.0000000+00:00</time></trkpt><trkpt lat="63.91550064" lon="-22.02449226"><ele>139.6</ele><time>2012-07-28T17:55:51.0000000+00:00</time></trkpt><trkpt lat="63.91557694" lon="-22.02429771"><ele>140.1</ele><time>2012-07-28T17:55:56.0000000+00:00</time></trkpt><trkpt lat="63.91567612" lon="-22.0240612"><ele>140.6</ele><time>2012-07-28T17:56:01.0000000+00:00</time></trkpt><trkpt lat="63.9157486" lon="-22.02388382"><ele>142.2</ele><time>2012-07-28T17:56:06.0000000+00:00</time></trkpt><trkpt lat="63.91582489" lon="-22.02371788"><ele>142.4</ele><time>2012-07-28T17:56:11.0000000+00:00</time></trkpt><trkpt lat="63.915905" lon="-22.02349281"><ele>142.1</ele><time>2012-07-28T17:56:16.0000000+00:00</time></trkpt><trkpt lat="63.91599274" lon="-22.02328873"><ele>142.4</ele><time>2012-07-28T17:56:21.0000000+00:00</time></trkpt><trkpt lat="63.91608429" lon="-22.0230751"><ele>142.9</ele><time>2012-07-28T17:56:26.0000000+00:00</time></trkpt><trkpt lat="63.91619492" lon="-22.02283096"><ele>143.3</ele><time>2012-07-28T17:56:31.0000000+00:00</time></trkpt><trkpt lat="63.91629791" lon="-22.02258301"><ele>141.0</ele><time>2012-07-28T17:56:36.0000000+00:00</time></trkpt><trkpt lat="63.91640472" lon="-22.02233505"><ele>138.5</ele><time>2012-07-28T17:56:41.0000000+00:00</time></trkpt><trkpt lat="63.91651154" lon="-22.02210045"><ele>137.3</ele><time>2012-07-28T17:56:46.0000000+00:00</time></trkpt><trkpt lat="63.9166069" lon="-22.0218792"><ele>136.8</ele><time>2012-07-28T17:56:51.0000000+00:00</time></trkpt><trkpt lat="63.91666031" lon="-22.02175713"><ele>136.5</ele><time>2012-07-28T17:56:56.0000000+00:00</time></trkpt><trkpt lat="63.91674805" lon="-22.02154732"><ele>137.9</ele><time>2012-07-28T17:57:01.0000000+00:00</time></trkpt><trkpt lat="63.91686249" lon="-22.02128983"><ele>138.2</ele><time>2012-07-28T17:57:06.0000000+00:00</time></trkpt><trkpt lat="63.91697693" lon="-22.02103806"><ele>138.5</ele><time>2012-07-28T17:57:11.0000000+00:00</time></trkpt><trkpt lat="63.91708374" lon="-22.02076149"><ele>138.4</ele><time>2012-07-28T17:57:16.0000000+00:00</time></trkpt><trkpt lat="63.91719437" lon="-22.02049446"><ele>137.5</ele><time>2012-07-28T17:57:21.0000000+00:00</time></trkpt><trkpt lat="63.91729736" lon="-22.0202713"><ele>134.6</ele><time>2012-07-28T17:57:26.0000000+00:00</time></trkpt><trkpt lat="63.91740799" lon="-22.02000618"><ele>136.7</ele><time>2012-07-28T17:57:31.0000000+00:00</time></trkpt><trkpt lat="63.91750717" lon="-22.01977921"><ele>137.7</ele><time>2012-07-28T17:57:36.0000000+00:00</time></trkpt><trkpt lat="63.91757202" lon="-22.01961327"><ele>139.9</ele><time>2012-07-28T17:57:41.0000000+00:00</time></trkpt><trkpt lat="63.91765976" lon="-22.01941681"><ele>139.4</ele><time>2012-07-28T17:57:46.0000000+00:00</time></trkpt><trkpt lat="63.91775894" lon="-22.01917267"><ele>140.7</ele><time>2012-07-28T17:57:51.0000000+00:00</time></trkpt><trkpt lat="63.91785049" lon="-22.01894569"><ele>141.1</ele><time>2012-07-28T17:57:56.0000000+00:00</time></trkpt><trkpt lat="63.91793442" lon="-22.01873207"><ele>141.6</ele><time>2012-07-28T17:58:01.0000000+00:00</time></trkpt><trkpt lat="63.91800308" lon="-22.01858139"><ele>143.4</ele><time>2012-07-28T17:58:06.0000000+00:00</time></trkpt><trkpt lat="63.9180603" lon="-22.01841736"><ele>146.5</ele><time>2012-07-28T17:58:11.0000000+00:00</time></trkpt><trkpt lat="63.91812134" lon="-22.01828194"><ele>148.1</ele><time>2012-07-28T17:58:16.0000000+00:00</time></trkpt><trkpt lat="63.91817093" lon="-22.01815224"><ele>148.7</ele><time>2012-07-28T17:58:21.0000000+00:00</time></trkpt><trkpt lat="63.91824341" lon="-22.01802254"><ele>149.9</ele><time>2012-07-28T17:58:26.0000000+00:00</time></trkpt><trkpt lat="63.91830063" lon="-22.01789665"><ele>149.8</ele><time>2012-07-28T17:58:31.0000000+00:00</time></trkpt><trkpt lat="63.91836548" lon="-22.01776695"><ele>151.0</ele><time>2012-07-28T17:58:36.0000000+00:00</time></trkpt><trkpt lat="63.91841126" lon="-22.01763344"><ele>150.7</ele><time>2012-07-28T17:58:41.0000000+00:00</time></trkpt><trkpt lat="63.91845703" lon="-22.01751328"><ele>150.2</ele><time>2012-07-28T17:58:46.0000000+00:00</time></trkpt><trkpt lat="63.91849899" lon="-22.01740074"><ele>150.5</ele><time>2012-07-28T17:58:51.0000000+00:00</time></trkpt><trkpt lat="63.91854858" lon="-22.01726341"><ele>150.5</ele><time>2012-07-28T17:58:56.0000000+00:00</time></trkpt><trkpt lat="63.91860962" lon="-22.0171032"><ele>152.6</ele><time>2012-07-28T17:59:01.0000000+00:00</time></trkpt><trkpt lat="63.91865921" lon="-22.0169735"><ele>153.5</ele><time>2012-07-28T17:59:06.0000000+00:00</time></trkpt><trkpt lat="63.91872406" lon="-22.01683998"><ele>153.4</ele><time>2012-07-28T17:59:11.0000000+00:00</time></trkpt><trkpt lat="63.91876984" lon="-22.0167141"><ele>154.4</ele><time>2012-07-28T17:59:16.0000000+00:00</time></trkpt><trkpt lat="63.9188385" lon="-22.01657295"><ele>155.6</ele><time>2012-07-28T17:59:21.0000000+00:00</time></trkpt><trkpt lat="63.91889572" lon="-22.01641464"><ele>157.2</ele><time>2012-07-28T17:59:26.0000000+00:00</time></trkpt><trkpt lat="63.91896439" lon="-22.01627541"><ele>157.0</ele><time>2012-07-28T17:59:31.0000000+00:00</time></trkpt><trkpt lat="63.91902542" lon="-22.01614189"><ele>158.3</ele><time>2012-07-28T17:59:36.0000000+00:00</time></trkpt><trkpt lat="63.91907501" lon="-22.01603699"><ele>159.3</ele><time>2012-07-28T17:59:41.0000000+00:00</time></trkpt><trkpt lat="63.9191246" lon="-22.01592445"><ele>160.1</ele><time>2012-07-28T17:59:46.0000000+00:00</time></trkpt><trkpt lat="63.91917419" lon="-22.01581192"><ele>160.8</ele><time>2012-07-28T17:59:51.0000000+00:00</time></trkpt><trkpt lat="63.91923523" lon="-22.01568604"><ele>161.7</ele><time>2012-07-28T17:59:56.0000000+00:00</time></trkpt><trkpt lat="63.91927719" lon="-22.01554871"><ele>162.3</ele><time>2012-07-28T18:00:01.0000000+00:00</time></trkpt><trkpt lat="63.91933441" lon="-22.01541519"><ele>163.0</ele><time>2012-07-28T18:00:06.0000000+00:00</time></trkpt><trkpt lat="63.91941071" lon="-22.01526451"><ele>163.0</ele><time>2012-07-28T18:00:11.0000000+00:00</time></trkpt><trkpt lat="63.91950226" lon="-22.01506043"><ele>161.8</ele><time>2012-07-28T18:00:16.0000000+00:00</time></trkpt><trkpt lat="63.91960526" lon="-22.01482582"><ele>159.6</ele><time>2012-07-28T18:00:21.0000000+00:00</time></trkpt><trkpt lat="63.91970825" lon="-22.0146122"><ele>156.3</ele><time>2012-07-28T18:00:26.0000000+00:00</time></trkpt><trkpt lat="63.91979599" lon="-22.01439285"><ele>155.3</ele><time>2012-07-28T18:00:31.0000000+00:00</time></trkpt><trkpt lat="63.91987991" lon="-22.01418304"><ele>155.7</ele><time>2012-07-28T18:00:36.0000000+00:00</time></trkpt><trkpt lat="63.91994476" lon="-22.01401901"><ele>155.0</ele><time>2012-07-28T18:00:41.0000000+00:00</time></trkpt><trkpt lat="63.92000961" lon="-22.01384544"><ele>152.9</ele><time>2012-07-28T18:00:46.0000000+00:00</time></trkpt><trkpt lat="63.92008591" lon="-22.01365662"><ele>151.8</ele><time>2012-07-28T18:00:51.0000000+00:00</time></trkpt><trkpt lat="63.92018127" lon="-22.01339531"><ele>149.1</ele><time>2012-07-28T18:00:56.0000000+00:00</time></trkpt><trkpt lat="63.92030335" lon="-22.01309586"><ele>147.8</ele><time>2012-07-28T18:01:01.0000000+00:00</time></trkpt><trkpt lat="63.92038345" lon="-22.01286697"><ele>148.3</ele><time>2012-07-28T18:01:06.0000000+00:00</time></trkpt><trkpt lat="63.92038345" lon="-22.0128727"><ele>148.1</ele><time>2012-07-28T18:01:11.0000000+00:00</time></trkpt><trkpt lat="63.92038345" lon="-22.0128727"><ele>148.2</ele><time>2012-07-28T18:01:16.0000000+00:00</time></trkpt><trkpt lat="63.92038345" lon="-22.0128727"><ele>148.2</ele><time>2012-07-28T18:01:21.0000000+00:00</time></trkpt><trkpt lat="63.92038345" lon="-22.01287079"><ele>148.3</ele><time>2012-07-28T18:01:26.0000000+00:00</time></trkpt><trkpt lat="63.92038345" lon="-22.0128727"><ele>148.3</ele><time>2012-07-28T18:01:31.0000000+00:00</time></trkpt><trkpt lat="63.92038345" lon="-22.0128727"><ele>148.3</ele><time>2012-07-28T18:01:36.0000000+00:00</time></trkpt><trkpt lat="63.92038345" lon="-22.0128727"><ele>148.3</ele><time>2012-07-28T18:01:41.0000000+00:00</time></trkpt><trkpt lat="63.92038345" lon="-22.0128746"><ele>148.4</ele><time>2012-07-28T18:01:46.0000000+00:00</time></trkpt><trkpt lat="63.92038345" lon="-22.0128746"><ele>148.4</ele><time>2012-07-28T18:01:51.0000000+00:00</time></trkpt><trkpt lat="63.92038345" lon="-22.0128746"><ele>148.4</ele><time>2012-07-28T18:01:56.0000000+00:00</time></trkpt><trkpt lat="63.92038345" lon="-22.0128746"><ele>148.3</ele><time>2012-07-28T18:02:01.0000000+00:00</time></trkpt><trkpt lat="63.92038345" lon="-22.0128746"><ele>148.4</ele><time>2012-07-28T18:02:06.0000000+00:00</time></trkpt><trkpt lat="63.92038345" lon="-22.01287651"><ele>148.3</ele><time>2012-07-28T18:02:11.0000000+00:00</time></trkpt><trkpt lat="63.92038345" lon="-22.01287651"><ele>148.3</ele><time>2012-07-28T18:02:16.0000000+00:00</time></trkpt><trkpt lat="63.92040253" lon="-22.01285172"><ele>148.2</ele><time>2012-07-28T18:02:21.0000000+00:00</time></trkpt><trkpt lat="63.92050552" lon="-22.01261711"><ele>147.8</ele><time>2012-07-28T18:02:26.0000000+00:00</time></trkpt><trkpt lat="63.92066193" lon="-22.01228905"><ele>145.5</ele><time>2012-07-28T18:02:31.0000000+00:00</time></trkpt><trkpt lat="63.92084503" lon="-22.0119381"><ele>144.1</ele><time>2012-07-28T18:02:36.0000000+00:00</time></trkpt><trkpt lat="63.92102432" lon="-22.01153374"><ele>142.5</ele><time>2012-07-28T18:02:41.0000000+00:00</time></trkpt><trkpt lat="63.92115402" lon="-22.01125908"><ele>143.1</ele><time>2012-07-28T18:02:46.0000000+00:00</time></trkpt><trkpt lat="63.92124558" lon="-22.01104164"><ele>142.7</ele><time>2012-07-28T18:02:51.0000000+00:00</time></trkpt><trkpt lat="63.92135239" lon="-22.01082611"><ele>144.0</ele><time>2012-07-28T18:02:56.0000000+00:00</time></trkpt><trkpt lat="63.92146301" lon="-22.01058769"><ele>143.8</ele><time>2012-07-28T18:03:01.0000000+00:00</time></trkpt><trkpt lat="63.92156601" lon="-22.01037407"><ele>144.2</ele><time>2012-07-28T18:03:06.0000000+00:00</time></trkpt><trkpt lat="63.92167282" lon="-22.01014328"><ele>144.1</ele><time>2012-07-28T18:03:11.0000000+00:00</time></trkpt><trkpt lat="63.92178726" lon="-22.00991631"><ele>142.6</ele><time>2012-07-28T18:03:16.0000000+00:00</time></trkpt><trkpt lat="63.92189026" lon="-22.00970459"><ele>142.3</ele><time>2012-07-28T18:03:21.0000000+00:00</time></trkpt><trkpt lat="63.92200089" lon="-22.00948906"><ele>141.6</ele><time>2012-07-28T18:03:26.0000000+00:00</time></trkpt><trkpt lat="63.92211914" lon="-22.00926781"><ele>139.8</ele><time>2012-07-28T18:03:31.0000000+00:00</time></trkpt><trkpt lat="63.92224121" lon="-22.00903702"><ele>140.6</ele><time>2012-07-28T18:03:36.0000000+00:00</time></trkpt><trkpt lat="63.92233658" lon="-22.00884247"><ele>142.5</ele><time>2012-07-28T18:03:41.0000000+00:00</time></trkpt><trkpt lat="63.92243195" lon="-22.00867271"><ele>141.3</ele><time>2012-07-28T18:03:46.0000000+00:00</time></trkpt><trkpt lat="63.92251968" lon="-22.00850487"><ele>140.0</ele><time>2012-07-28T18:03:51.0000000+00:00</time></trkpt><trkpt lat="63.92262268" lon="-22.00831604"><ele>139.5</ele><time>2012-07-28T18:03:56.0000000+00:00</time></trkpt><trkpt lat="63.92272568" lon="-22.00810242"><ele>139.2</ele><time>2012-07-28T18:04:01.0000000+00:00</time></trkpt><trkpt lat="63.92283249" lon="-22.00790978"><ele>139.1</ele><time>2012-07-28T18:04:06.0000000+00:00</time></trkpt><trkpt lat="63.92294693" lon="-22.0077095"><ele>139.8</ele><time>2012-07-28T18:04:11.0000000+00:00</time></trkpt><trkpt lat="63.9230423" lon="-22.00751114"><ele>138.1</ele><time>2012-07-28T18:04:16.0000000+00:00</time></trkpt><trkpt lat="63.92313385" lon="-22.00733566"><ele>139.2</ele><time>2012-07-28T18:04:21.0000000+00:00</time></trkpt><trkpt lat="63.92322159" lon="-22.00718308"><ele>139.9</ele><time>2012-07-28T18:04:26.0000000+00:00</time></trkpt><trkpt lat="63.92327881" lon="-22.00709343"><ele>140.8</ele><time>2012-07-28T18:04:31.0000000+00:00</time></trkpt><trkpt lat="63.92334747" lon="-22.00699806"><ele>139.4</ele><time>2012-07-28T18:04:36.0000000+00:00</time></trkpt><trkpt lat="63.92341995" lon="-22.00688934"><ele>140.8</ele><time>2012-07-28T18:04:41.0000000+00:00</time></trkpt><trkpt lat="63.9234848" lon="-22.006773"><ele>142.4</ele><time>2012-07-28T18:04:46.0000000+00:00</time></trkpt><trkpt lat="63.92354965" lon="-22.00667763"><ele>144.5</ele><time>2012-07-28T18:04:51.0000000+00:00</time></trkpt><trkpt lat="63.92361832" lon="-22.00656128"><ele>146.9</ele><time>2012-07-28T18:04:56.0000000+00:00</time></trkpt><trkpt lat="63.92367935" lon="-22.00645828"><ele>147.9</ele><time>2012-07-28T18:05:01.0000000+00:00</time></trkpt><trkpt lat="63.92373276" lon="-22.00636482"><ele>148.6</ele><time>2012-07-28T18:05:06.0000000+00:00</time></trkpt><trkpt lat="63.92378998" lon="-22.00620461"><ele>150.1</ele><time>2012-07-28T18:05:11.0000000+00:00</time></trkpt><trkpt lat="63.92384338" lon="-22.00605965"><ele>150.8</ele><time>2012-07-28T18:05:16.0000000+00:00</time></trkpt><trkpt lat="63.92388535" lon="-22.00594711"><ele>151.6</ele><time>2012-07-28T18:05:21.0000000+00:00</time></trkpt><trkpt lat="63.92393875" lon="-22.00584984"><ele>151.5</ele><time>2012-07-28T18:05:26.0000000+00:00</time></trkpt><trkpt lat="63.92401505" lon="-22.00574112"><ele>152.2</ele><time>2012-07-28T18:05:31.0000000+00:00</time></trkpt><trkpt lat="63.9240799" lon="-22.0056572"><ele>153.7</ele><time>2012-07-28T18:05:36.0000000+00:00</time></trkpt><trkpt lat="63.92407608" lon="-22.00568199"><ele>153.0</ele><time>2012-07-28T18:05:41.0000000+00:00</time></trkpt><trkpt lat="63.92407608" lon="-22.00568199"><ele>153.2</ele><time>2012-07-28T18:05:46.0000000+00:00</time></trkpt><trkpt lat="63.92407608" lon="-22.00568199"><ele>153.3</ele><time>2012-07-28T18:05:51.0000000+00:00</time></trkpt><trkpt lat="63.92407608" lon="-22.00568008"><ele>153.3</ele><time>2012-07-28T18:05:56.0000000+00:00</time></trkpt><trkpt lat="63.92407608" lon="-22.00568008"><ele>153.3</ele><time>2012-07-28T18:06:01.0000000+00:00</time></trkpt><trkpt lat="63.92407608" lon="-22.00567818"><ele>153.3</ele><time>2012-07-28T18:06:06.0000000+00:00</time></trkpt><trkpt lat="63.92407608" lon="-22.00567818"><ele>153.3</ele><time>2012-07-28T18:06:11.0000000+00:00</time></trkpt><trkpt lat="63.92407608" lon="-22.00567627"><ele>153.3</ele><time>2012-07-28T18:06:16.0000000+00:00</time></trkpt><trkpt lat="63.92409897" lon="-22.0056591"><ele>152.9</ele><time>2012-07-28T18:06:21.0000000+00:00</time></trkpt><trkpt lat="63.92418289" lon="-22.00549507"><ele>152.7</ele><time>2012-07-28T18:06:26.0000000+00:00</time></trkpt><trkpt lat="63.9242897" lon="-22.00528717"><ele>153.6</ele><time>2012-07-28T18:06:31.0000000+00:00</time></trkpt><trkpt lat="63.92439652" lon="-22.00511551"><ele>153.0</ele><time>2012-07-28T18:06:36.0000000+00:00</time></trkpt><trkpt lat="63.9244957" lon="-22.00489616"><ele>153.5</ele><time>2012-07-28T18:06:41.0000000+00:00</time></trkpt><trkpt lat="63.92458344" lon="-22.00471878"><ele>152.3</ele><time>2012-07-28T18:06:46.0000000+00:00</time></trkpt><trkpt lat="63.92465591" lon="-22.00455093"><ele>152.8</ele><time>2012-07-28T18:06:51.0000000+00:00</time></trkpt><trkpt lat="63.92472458" lon="-22.00440216"><ele>151.8</ele><time>2012-07-28T18:06:56.0000000+00:00</time></trkpt><trkpt lat="63.92480087" lon="-22.00423813"><ele>153.8</ele><time>2012-07-28T18:07:01.0000000+00:00</time></trkpt><trkpt lat="63.92486572" lon="-22.00408363"><ele>156.3</ele><time>2012-07-28T18:07:06.0000000+00:00</time></trkpt><trkpt lat="63.92494202" lon="-22.00392532"><ele>158.0</ele><time>2012-07-28T18:07:11.0000000+00:00</time></trkpt><trkpt lat="63.9250145" lon="-22.00379753"><ele>159.3</ele><time>2012-07-28T18:07:16.0000000+00:00</time></trkpt><trkpt lat="63.92508316" lon="-22.00366402"><ele>159.4</ele><time>2012-07-28T18:07:21.0000000+00:00</time></trkpt><trkpt lat="63.92516708" lon="-22.00351906"><ele>157.3</ele><time>2012-07-28T18:07:26.0000000+00:00</time></trkpt><trkpt lat="63.92529297" lon="-22.00329781"><ele>154.7</ele><time>2012-07-28T18:07:31.0000000+00:00</time></trkpt><trkpt lat="63.92539215" lon="-22.00311852"><ele>153.4</ele><time>2012-07-28T18:07:36.0000000+00:00</time></trkpt><trkpt lat="63.9254837" lon="-22.00294304"><ele>152.5</ele><time>2012-07-28T18:07:41.0000000+00:00</time></trkpt><trkpt lat="63.92556" lon="-22.00276566"><ele>152.5</ele><time>2012-07-28T18:07:46.0000000+00:00</time></trkpt><trkpt lat="63.92564011" lon="-22.00253868"><ele>152.2</ele><time>2012-07-28T18:07:51.0000000+00:00</time></trkpt><trkpt lat="63.92571259" lon="-22.00230217"><ele>152.6</ele><time>2012-07-28T18:07:56.0000000+00:00</time></trkpt><trkpt lat="63.92577362" lon="-22.00212097"><ele>153.7</ele><time>2012-07-28T18:08:01.0000000+00:00</time></trkpt><trkpt lat="63.92583084" lon="-22.00193405"><ele>155.3</ele><time>2012-07-28T18:08:06.0000000+00:00</time></trkpt><trkpt lat="63.92589188" lon="-22.00174904"><ele>156.0</ele><time>2012-07-28T18:08:11.0000000+00:00</time></trkpt><trkpt lat="63.92593384" lon="-22.00152206"><ele>155.7</ele><time>2012-07-28T18:08:16.0000000+00:00</time></trkpt><trkpt lat="63.92596054" lon="-22.00137329"><ele>155.7</ele><time>2012-07-28T18:08:21.0000000+00:00</time></trkpt><trkpt lat="63.92597961" lon="-22.00122643"><ele>154.9</ele><time>2012-07-28T18:08:26.0000000+00:00</time></trkpt><trkpt lat="63.92601776" lon="-22.00107575"><ele>155.7</ele><time>2012-07-28T18:08:31.0000000+00:00</time></trkpt><trkpt lat="63.92603302" lon="-22.00090408"><ele>156.1</ele><time>2012-07-28T18:08:36.0000000+00:00</time></trkpt><trkpt lat="63.92604065" lon="-22.00073814"><ele>156.2</ele><time>2012-07-28T18:08:41.0000000+00:00</time></trkpt><trkpt lat="63.92605591" lon="-22.00055695"><ele>157.2</ele><time>2012-07-28T18:08:46.0000000+00:00</time></trkpt><trkpt lat="63.92606735" lon="-22.00035858"><ele>158.3</ele><time>2012-07-28T18:08:51.0000000+00:00</time></trkpt><trkpt lat="63.92604828" lon="-22.00019264"><ele>159.0</ele><time>2012-07-28T18:08:56.0000000+00:00</time></trkpt><trkpt lat="63.92604065" lon="-22.00001144"><ele>160.1</ele><time>2012-07-28T18:09:01.0000000+00:00</time></trkpt><trkpt lat="63.92604065" lon="-21.9998169"><ele>162.9</ele><time>2012-07-28T18:09:06.0000000+00:00</time></trkpt><trkpt lat="63.92604446" lon="-21.99964523"><ele>164.6</ele><time>2012-07-28T18:09:11.0000000+00:00</time></trkpt><trkpt lat="63.92604828" lon="-21.99949455"><ele>166.4</ele><time>2012-07-28T18:09:16.0000000+00:00</time></trkpt><trkpt lat="63.92604828" lon="-21.99932289"><ele>167.7</ele><time>2012-07-28T18:09:21.0000000+00:00</time></trkpt><trkpt lat="63.92604065" lon="-21.99913406"><ele>167.8</ele><time>2012-07-28T18:09:26.0000000+00:00</time></trkpt><trkpt lat="63.92602921" lon="-21.9989109"><ele>168.6</ele><time>2012-07-28T18:09:31.0000000+00:00</time></trkpt><trkpt lat="63.92601395" lon="-21.99865913"><ele>167.6</ele><time>2012-07-28T18:09:36.0000000+00:00</time></trkpt><trkpt lat="63.92599487" lon="-21.99845505"><ele>166.1</ele><time>2012-07-28T18:09:41.0000000+00:00</time></trkpt><trkpt lat="63.92599487" lon="-21.99824715"><ele>168.2</ele><time>2012-07-28T18:09:46.0000000+00:00</time></trkpt><trkpt lat="63.92600632" lon="-21.99803543"><ele>168.9</ele><time>2012-07-28T18:09:51.0000000+00:00</time></trkpt><trkpt lat="63.92600632" lon="-21.99781609"><ele>169.2</ele><time>2012-07-28T18:09:56.0000000+00:00</time></trkpt><trkpt lat="63.92601395" lon="-21.99765396"><ele>169.0</ele><time>2012-07-28T18:10:01.0000000+00:00</time></trkpt><trkpt lat="63.92603302" lon="-21.99752426"><ele>169.1</ele><time>2012-07-28T18:10:06.0000000+00:00</time></trkpt><trkpt lat="63.92603302" lon="-21.99752617"><ele>169.3</ele><time>2012-07-28T18:10:11.0000000+00:00</time></trkpt><trkpt lat="63.92603302" lon="-21.99752426"><ele>169.5</ele><time>2012-07-28T18:10:16.0000000+00:00</time></trkpt><trkpt lat="63.92603302" lon="-21.99752426"><ele>169.6</ele><time>2012-07-28T18:10:21.0000000+00:00</time></trkpt><trkpt lat="63.92603302" lon="-21.99752426"><ele>169.7</ele><time>2012-07-28T18:10:26.0000000+00:00</time></trkpt><trkpt lat="63.92603302" lon="-21.99752426"><ele>169.6</ele><time>2012-07-28T18:10:31.0000000+00:00</time></trkpt><trkpt lat="63.92603302" lon="-21.99751663"><ele>169.7</ele><time>2012-07-28T18:10:36.0000000+00:00</time></trkpt><trkpt lat="63.92603302" lon="-21.99748039"><ele>169.7</ele><time>2012-07-28T18:10:41.0000000+00:00</time></trkpt><trkpt lat="63.92603302" lon="-21.99748039"><ele>169.8</ele><time>2012-07-28T18:10:46.0000000+00:00</time></trkpt><trkpt lat="63.92603302" lon="-21.99747849"><ele>169.9</ele><time>2012-07-28T18:10:51.0000000+00:00</time></trkpt><trkpt lat="63.92603684" lon="-21.99747849"><ele>170.0</ele><time>2012-07-28T18:10:56.0000000+00:00</time></trkpt><trkpt lat="63.92603684" lon="-21.99747849"><ele>170.0</ele><time>2012-07-28T18:11:01.0000000+00:00</time></trkpt><trkpt lat="63.92603684" lon="-21.99747849"><ele>170.0</ele><time>2012-07-28T18:11:06.0000000+00:00</time></trkpt><trkpt lat="63.92603684" lon="-21.99747849"><ele>170.0</ele><time>2012-07-28T18:11:11.0000000+00:00</time></trkpt><trkpt lat="63.92603684" lon="-21.99747849"><ele>170.0</ele><time>2012-07-28T18:11:16.0000000+00:00</time></trkpt><trkpt lat="63.92603684" lon="-21.99747658"><ele>170.0</ele><time>2012-07-28T18:11:21.0000000+00:00</time></trkpt><trkpt lat="63.92619705" lon="-21.99720764"><ele>166.9</ele><time>2012-07-28T18:11:26.0000000+00:00</time></trkpt><trkpt lat="63.92641449" lon="-21.9968586"><ele>162.4</ele><time>2012-07-28T18:11:31.0000000+00:00</time></trkpt><trkpt lat="63.92673111" lon="-21.99648666"><ele>158.8</ele><time>2012-07-28T18:11:36.0000000+00:00</time></trkpt><trkpt lat="63.92702103" lon="-21.99633598"><ele>157.9</ele><time>2012-07-28T18:11:41.0000000+00:00</time></trkpt><trkpt lat="63.92720413" lon="-21.99631119"><ele>157.9</ele><time>2012-07-28T18:11:46.0000000+00:00</time></trkpt><trkpt lat="63.92729569" lon="-21.99632454"><ele>158.6</ele><time>2012-07-28T18:11:51.0000000+00:00</time></trkpt><trkpt lat="63.92738342" lon="-21.99637413"><ele>158.3</ele><time>2012-07-28T18:11:56.0000000+00:00</time></trkpt><trkpt lat="63.92747879" lon="-21.99639511"><ele>159.1</ele><time>2012-07-28T18:12:01.0000000+00:00</time></trkpt><trkpt lat="63.92757416" lon="-21.99640274"><ele>159.5</ele><time>2012-07-28T18:12:06.0000000+00:00</time></trkpt><trkpt lat="63.9276619" lon="-21.99643898"><ele>158.9</ele><time>2012-07-28T18:12:11.0000000+00:00</time></trkpt><trkpt lat="63.92774963" lon="-21.99643707"><ele>159.6</ele><time>2012-07-28T18:12:16.0000000+00:00</time></trkpt><trkpt lat="63.92784119" lon="-21.99644661"><ele>159.9</ele><time>2012-07-28T18:12:21.0000000+00:00</time></trkpt><trkpt lat="63.92792893" lon="-21.99646187"><ele>159.4</ele><time>2012-07-28T18:12:26.0000000+00:00</time></trkpt><trkpt lat="63.92801285" lon="-21.99648857"><ele>158.7</ele><time>2012-07-28T18:12:31.0000000+00:00</time></trkpt><trkpt lat="63.92809296" lon="-21.99650383"><ele>159.7</ele><time>2012-07-28T18:12:36.0000000+00:00</time></trkpt><trkpt lat="63.92816544" lon="-21.99654388"><ele>160.1</ele><time>2012-07-28T18:12:41.0000000+00:00</time></trkpt><trkpt lat="63.92824554" lon="-21.9965992"><ele>161.5</ele><time>2012-07-28T18:12:46.0000000+00:00</time></trkpt><trkpt lat="63.92833328" lon="-21.99666977"><ele>161.3</ele><time>2012-07-28T18:12:51.0000000+00:00</time></trkpt><trkpt lat="63.92842865" lon="-21.9967556"><ele>161.2</ele><time>2012-07-28T18:12:56.0000000+00:00</time></trkpt><trkpt lat="63.92855072" lon="-21.9968338"><ele>161.6</ele><time>2012-07-28T18:13:01.0000000+00:00</time></trkpt><trkpt lat="63.92868042" lon="-21.99687767"><ele>161.6</ele><time>2012-07-28T18:13:06.0000000+00:00</time></trkpt><trkpt lat="63.92880631" lon="-21.99689293"><ele>161.4</ele><time>2012-07-28T18:13:11.0000000+00:00</time></trkpt><trkpt lat="63.92890549" lon="-21.99683571"><ele>160.5</ele><time>2012-07-28T18:13:16.0000000+00:00</time></trkpt><trkpt lat="63.92897415" lon="-21.9967823"><ele>160.4</ele><time>2012-07-28T18:13:21.0000000+00:00</time></trkpt><trkpt lat="63.92903137" lon="-21.99667549"><ele>160.3</ele><time>2012-07-28T18:13:26.0000000+00:00</time></trkpt><trkpt lat="63.92908096" lon="-21.99655342"><ele>160.6</ele><time>2012-07-28T18:13:31.0000000+00:00</time></trkpt><trkpt lat="63.92913055" lon="-21.99644852"><ele>161.1</ele><time>2012-07-28T18:13:36.0000000+00:00</time></trkpt><trkpt lat="63.92918396" lon="-21.99632072"><ele>162.4</ele><time>2012-07-28T18:13:41.0000000+00:00</time></trkpt><trkpt lat="63.92923737" lon="-21.99622536"><ele>162.9</ele><time>2012-07-28T18:13:46.0000000+00:00</time></trkpt><trkpt lat="63.92929459" lon="-21.99611855"><ele>163.4</ele><time>2012-07-28T18:13:51.0000000+00:00</time></trkpt><trkpt lat="63.92935562" lon="-21.99596977"><ele>166.9</ele><time>2012-07-28T18:13:56.0000000+00:00</time></trkpt><trkpt lat="63.92941284" lon="-21.99582672"><ele>169.2</ele><time>2012-07-28T18:14:01.0000000+00:00</time></trkpt><trkpt lat="63.92948151" lon="-21.99568176"><ele>171.0</ele><time>2012-07-28T18:14:06.0000000+00:00</time></trkpt><trkpt lat="63.9295578" lon="-21.99556351"><ele>169.9</ele><time>2012-07-28T18:14:11.0000000+00:00</time></trkpt><trkpt lat="63.92964172" lon="-21.99541092"><ele>172.7</ele><time>2012-07-28T18:14:16.0000000+00:00</time></trkpt><trkpt lat="63.92971802" lon="-21.99525833"><ele>173.0</ele><time>2012-07-28T18:14:21.0000000+00:00</time></trkpt><trkpt lat="63.92978287" lon="-21.99510574"><ele>172.8</ele><time>2012-07-28T18:14:26.0000000+00:00</time></trkpt><trkpt lat="63.92985535" lon="-21.99493027"><ele>173.1</ele><time>2012-07-28T18:14:31.0000000+00:00</time></trkpt><trkpt lat="63.92992783" lon="-21.99480057"><ele>173.6</ele><time>2012-07-28T18:14:36.0000000+00:00</time></trkpt><trkpt lat="63.92997742" lon="-21.99464607"><ele>173.6</ele><time>2012-07-28T18:14:41.0000000+00:00</time></trkpt><trkpt lat="63.92998886" lon="-21.99462509"><ele>173.6</ele><time>2012-07-28T18:14:46.0000000+00:00</time></trkpt><trkpt lat="63.92998886" lon="-21.994627"><ele>173.6</ele><time>2012-07-28T18:14:51.0000000+00:00</time></trkpt><trkpt lat="63.92998886" lon="-21.994627"><ele>173.7</ele><time>2012-07-28T18:14:56.0000000+00:00</time></trkpt><trkpt lat="63.92998886" lon="-21.994627"><ele>173.7</ele><time>2012-07-28T18:15:01.0000000+00:00</time></trkpt><trkpt lat="63.92998886" lon="-21.994627"><ele>173.7</ele><time>2012-07-28T18:15:06.0000000+00:00</time></trkpt><trkpt lat="63.92998886" lon="-21.994627"><ele>173.7</ele><time>2012-07-28T18:15:11.0000000+00:00</time></trkpt><trkpt lat="63.92998886" lon="-21.994627"><ele>173.7</ele><time>2012-07-28T18:15:16.0000000+00:00</time></trkpt><trkpt lat="63.92998886" lon="-21.994627"><ele>173.8</ele><time>2012-07-28T18:15:21.0000000+00:00</time></trkpt><trkpt lat="63.92998886" lon="-21.994627"><ele>173.8</ele><time>2012-07-28T18:15:26.0000000+00:00</time></trkpt><trkpt lat="63.92999649" lon="-21.99462128"><ele>173.8</ele><time>2012-07-28T18:15:31.0000000+00:00</time></trkpt><trkpt lat="63.92999649" lon="-21.99462128"><ele>173.8</ele><time>2012-07-28T18:15:36.0000000+00:00</time></trkpt><trkpt lat="63.9300766" lon="-21.99466515"><ele>173.4</ele><time>2012-07-28T18:15:41.0000000+00:00</time></trkpt><trkpt lat="63.93021393" lon="-21.9947052"><ele>172.8</ele><time>2012-07-28T18:15:46.0000000+00:00</time></trkpt><trkpt lat="63.93037415" lon="-21.99482536"><ele>172.2</ele><time>2012-07-28T18:15:51.0000000+00:00</time></trkpt><trkpt lat="63.93054199" lon="-21.9949913"><ele>171.6</ele><time>2012-07-28T18:15:56.0000000+00:00</time></trkpt><trkpt lat="63.93071365" lon="-21.99515724"><ele>170.9</ele><time>2012-07-28T18:16:01.0000000+00:00</time></trkpt><trkpt lat="63.93087006" lon="-21.99534416"><ele>170.5</ele><time>2012-07-28T18:16:06.0000000+00:00</time></trkpt><trkpt lat="63.9310379" lon="-21.99550629"><ele>169.3</ele><time>2012-07-28T18:16:11.0000000+00:00</time></trkpt><trkpt lat="63.93122101" lon="-21.99564743"><ele>167.9</ele><time>2012-07-28T18:16:16.0000000+00:00</time></trkpt><trkpt lat="63.93143463" lon="-21.99570465"><ele>165.2</ele><time>2012-07-28T18:16:21.0000000+00:00</time></trkpt><trkpt lat="63.93165588" lon="-21.99560356"><ele>163.7</ele><time>2012-07-28T18:16:26.0000000+00:00</time></trkpt><trkpt lat="63.93188477" lon="-21.99536514"><ele>161.9</ele><time>2012-07-28T18:16:31.0000000+00:00</time></trkpt><trkpt lat="63.93210602" lon="-21.99495316"><ele>159.6</ele><time>2012-07-28T18:16:36.0000000+00:00</time></trkpt><trkpt lat="63.93228531" lon="-21.99454117"><ele>156.4</ele><time>2012-07-28T18:16:41.0000000+00:00</time></trkpt><trkpt lat="63.93255234" lon="-21.99435806"><ele>154.2</ele><time>2012-07-28T18:16:46.0000000+00:00</time></trkpt><trkpt lat="63.93284607" lon="-21.99457359"><ele>152.0</ele><time>2012-07-28T18:16:51.0000000+00:00</time></trkpt><trkpt lat="63.93314743" lon="-21.99479675"><ele>148.8</ele><time>2012-07-28T18:16:56.0000000+00:00</time></trkpt><trkpt lat="63.93342972" lon="-21.99464607"><ele>146.1</ele><time>2012-07-28T18:17:01.0000000+00:00</time></trkpt><trkpt lat="63.93357849" lon="-21.99440956"><ele>146.2</ele><time>2012-07-28T18:17:06.0000000+00:00</time></trkpt><trkpt lat="63.93366623" lon="-21.99421501"><ele>147.9</ele><time>2012-07-28T18:17:11.0000000+00:00</time></trkpt><trkpt lat="63.93373489" lon="-21.9940033"><ele>148.4</ele><time>2012-07-28T18:17:16.0000000+00:00</time></trkpt><trkpt lat="63.93380737" lon="-21.99381447"><ele>148.3</ele><time>2012-07-28T18:17:21.0000000+00:00</time></trkpt><trkpt lat="63.93388367" lon="-21.99362564"><ele>149.4</ele><time>2012-07-28T18:17:26.0000000+00:00</time></trkpt><trkpt lat="63.93396759" lon="-21.99342156"><ele>148.6</ele><time>2012-07-28T18:17:31.0000000+00:00</time></trkpt><trkpt lat="63.93406296" lon="-21.99321175"><ele>149.3</ele><time>2012-07-28T18:17:36.0000000+00:00</time></trkpt><trkpt lat="63.93416214" lon="-21.99301338"><ele>149.5</ele><time>2012-07-28T18:17:41.0000000+00:00</time></trkpt><trkpt lat="63.93425369" lon="-21.99285507"><ele>149.4</ele><time>2012-07-28T18:17:46.0000000+00:00</time></trkpt><trkpt lat="63.93434906" lon="-21.99269295"><ele>149.2</ele><time>2012-07-28T18:17:51.0000000+00:00</time></trkpt><trkpt lat="63.93445969" lon="-21.99253655"><ele>148.7</ele><time>2012-07-28T18:17:56.0000000+00:00</time></trkpt><trkpt lat="63.9345665" lon="-21.99239349"><ele>149.1</ele><time>2012-07-28T18:18:01.0000000+00:00</time></trkpt><trkpt lat="63.93466568" lon="-21.99224281"><ele>149.4</ele><time>2012-07-28T18:18:06.0000000+00:00</time></trkpt><trkpt lat="63.93476486" lon="-21.99213409"><ele>150.8</ele><time>2012-07-28T18:18:11.0000000+00:00</time></trkpt><trkpt lat="63.93486023" lon="-21.99199104"><ele>151.1</ele><time>2012-07-28T18:18:16.0000000+00:00</time></trkpt><trkpt lat="63.93496704" lon="-21.99185371"><ele>151.6</ele><time>2012-07-28T18:18:21.0000000+00:00</time></trkpt><trkpt lat="63.93506622" lon="-21.99172783"><ele>152.7</ele><time>2012-07-28T18:18:26.0000000+00:00</time></trkpt><trkpt lat="63.93517685" lon="-21.9915657"><ele>152.6</ele><time>2012-07-28T18:18:31.0000000+00:00</time></trkpt><trkpt lat="63.93529129" lon="-21.99138451"><ele>151.7</ele><time>2012-07-28T18:18:36.0000000+00:00</time></trkpt><trkpt lat="63.93540573" lon="-21.99119949"><ele>152.8</ele><time>2012-07-28T18:18:41.0000000+00:00</time></trkpt><trkpt lat="63.93548203" lon="-21.99107361"><ele>149.8</ele><time>2012-07-28T18:18:46.0000000+00:00</time></trkpt><trkpt lat="63.93556976" lon="-21.99095726"><ele>149.6</ele><time>2012-07-28T18:18:51.0000000+00:00</time></trkpt><trkpt lat="63.93567276" lon="-21.99082565"><ele>151.3</ele><time>2012-07-28T18:18:56.0000000+00:00</time></trkpt><trkpt lat="63.93578339" lon="-21.99069595"><ele>153.8</ele><time>2012-07-28T18:19:01.0000000+00:00</time></trkpt><trkpt lat="63.93589401" lon="-21.99058914"><ele>154.0</ele><time>2012-07-28T18:19:06.0000000+00:00</time></trkpt><trkpt lat="63.93597794" lon="-21.99051285"><ele>154.7</ele><time>2012-07-28T18:19:11.0000000+00:00</time></trkpt><trkpt lat="63.93603516" lon="-21.99046516"><ele>155.2</ele><time>2012-07-28T18:19:16.0000000+00:00</time></trkpt><trkpt lat="63.93613815" lon="-21.99038506"><ele>153.5</ele><time>2012-07-28T18:19:21.0000000+00:00</time></trkpt><trkpt lat="63.93625259" lon="-21.99028587"><ele>152.3</ele><time>2012-07-28T18:19:26.0000000+00:00</time></trkpt><trkpt lat="63.93635559" lon="-21.99018669"><ele>151.5</ele><time>2012-07-28T18:19:31.0000000+00:00</time></trkpt><trkpt lat="63.9364624" lon="-21.99011231"><ele>151.3</ele><time>2012-07-28T18:19:36.0000000+00:00</time></trkpt><trkpt lat="63.9365654" lon="-21.99000359"><ele>151.5</ele><time>2012-07-28T18:19:41.0000000+00:00</time></trkpt><trkpt lat="63.93665314" lon="-21.98989487"><ele>151.1</ele><time>2012-07-28T18:19:46.0000000+00:00</time></trkpt><trkpt lat="63.93672562" lon="-21.98983002"><ele>151.7</ele><time>2012-07-28T18:19:51.0000000+00:00</time></trkpt><trkpt lat="63.93680191" lon="-21.98975372"><ele>153.9</ele><time>2012-07-28T18:19:56.0000000+00:00</time></trkpt><trkpt lat="63.93687058" lon="-21.98968124"><ele>154.0</ele><time>2012-07-28T18:20:01.0000000+00:00</time></trkpt><trkpt lat="63.93693543" lon="-21.98962212"><ele>156.4</ele><time>2012-07-28T18:20:06.0000000+00:00</time></trkpt><trkpt lat="63.9370079" lon="-21.98954964"><ele>156.9</ele><time>2012-07-28T18:20:11.0000000+00:00</time></trkpt><trkpt lat="63.93707657" lon="-21.98946953"><ele>157.6</ele><time>2012-07-28T18:20:16.0000000+00:00</time></trkpt><trkpt lat="63.93714905" lon="-21.98939896"><ele>158.5</ele><time>2012-07-28T18:20:21.0000000+00:00</time></trkpt><trkpt lat="63.93722534" lon="-21.98933792"><ele>159.1</ele><time>2012-07-28T18:20:26.0000000+00:00</time></trkpt><trkpt lat="63.93731308" lon="-21.98924828"><ele>159.5</ele><time>2012-07-28T18:20:31.0000000+00:00</time></trkpt><trkpt lat="63.93740463" lon="-21.98915482"><ele>159.9</ele><time>2012-07-28T18:20:36.0000000+00:00</time></trkpt><trkpt lat="63.93749237" lon="-21.989048"><ele>160.2</ele><time>2012-07-28T18:20:41.0000000+00:00</time></trkpt><trkpt lat="63.93756867" lon="-21.9889431"><ele>161.1</ele><time>2012-07-28T18:20:46.0000000+00:00</time></trkpt><trkpt lat="63.93764114" lon="-21.98883438"><ele>161.7</ele><time>2012-07-28T18:20:51.0000000+00:00</time></trkpt><trkpt lat="63.93770981" lon="-21.98875046"><ele>162.9</ele><time>2012-07-28T18:20:56.0000000+00:00</time></trkpt><trkpt lat="63.93770981" lon="-21.98873711"><ele>164.0</ele><time>2012-07-28T18:21:01.0000000+00:00</time></trkpt><trkpt lat="63.93771744" lon="-21.9887352"><ele>164.1</ele><time>2012-07-28T18:21:06.0000000+00:00</time></trkpt><trkpt lat="63.93770981" lon="-21.98873329"><ele>164.2</ele><time>2012-07-28T18:21:11.0000000+00:00</time></trkpt><trkpt lat="63.93772888" lon="-21.98872376"><ele>164.2</ele><time>2012-07-28T18:21:16.0000000+00:00</time></trkpt><trkpt lat="63.93775559" lon="-21.98870659"><ele>164.5</ele><time>2012-07-28T18:21:21.0000000+00:00</time></trkpt><trkpt lat="63.93779373" lon="-21.98866463"><ele>164.6</ele><time>2012-07-28T18:21:26.0000000+00:00</time></trkpt><trkpt lat="63.93783188" lon="-21.9886303"><ele>165.4</ele><time>2012-07-28T18:21:31.0000000+00:00</time></trkpt><trkpt lat="63.93785858" lon="-21.98859024"><ele>165.8</ele><time>2012-07-28T18:21:36.0000000+00:00</time></trkpt><trkpt lat="63.93788528" lon="-21.98853684"><ele>166.6</ele><time>2012-07-28T18:21:41.0000000+00:00</time></trkpt><trkpt lat="63.93791962" lon="-21.98846626"><ele>168.3</ele><time>2012-07-28T18:21:46.0000000+00:00</time></trkpt><trkpt lat="63.93795395" lon="-21.98841667"><ele>169.8</ele><time>2012-07-28T18:21:51.0000000+00:00</time></trkpt><trkpt lat="63.93798828" lon="-21.98836136"><ele>170.7</ele><time>2012-07-28T18:21:56.0000000+00:00</time></trkpt><trkpt lat="63.9380188" lon="-21.98829079"><ele>171.8</ele><time>2012-07-28T18:22:01.0000000+00:00</time></trkpt><trkpt lat="63.93806076" lon="-21.98821068"><ele>172.5</ele><time>2012-07-28T18:22:06.0000000+00:00</time></trkpt><trkpt lat="63.93808746" lon="-21.98814392"><ele>172.9</ele><time>2012-07-28T18:22:11.0000000+00:00</time></trkpt><trkpt lat="63.93811798" lon="-21.98810577"><ele>173.3</ele><time>2012-07-28T18:22:16.0000000+00:00</time></trkpt><trkpt lat="63.93815613" lon="-21.98803139"><ele>173.9</ele><time>2012-07-28T18:22:21.0000000+00:00</time></trkpt><trkpt lat="63.93819809" lon="-21.98796654"><ele>174.3</ele><time>2012-07-28T18:22:26.0000000+00:00</time></trkpt><trkpt lat="63.93823624" lon="-21.98788452"><ele>175.0</ele><time>2012-07-28T18:22:31.0000000+00:00</time></trkpt><trkpt lat="63.93826294" lon="-21.98781586"><ele>175.7</ele><time>2012-07-28T18:22:36.0000000+00:00</time></trkpt><trkpt lat="63.93829727" lon="-21.98775673"><ele>176.5</ele><time>2012-07-28T18:22:41.0000000+00:00</time></trkpt><trkpt lat="63.93833542" lon="-21.98766708"><ele>177.4</ele><time>2012-07-28T18:22:46.0000000+00:00</time></trkpt><trkpt lat="63.93835068" lon="-21.98757172"><ele>178.2</ele><time>2012-07-28T18:22:51.0000000+00:00</time></trkpt><trkpt lat="63.93838882" lon="-21.98749161"><ele>178.4</ele><time>2012-07-28T18:22:56.0000000+00:00</time></trkpt><trkpt lat="63.9384079" lon="-21.98738098"><ele>179.0</ele><time>2012-07-28T18:23:01.0000000+00:00</time></trkpt><trkpt lat="63.93842697" lon="-21.98728371"><ele>179.5</ele><time>2012-07-28T18:23:06.0000000+00:00</time></trkpt><trkpt lat="63.93844223" lon="-21.98719406"><ele>180.2</ele><time>2012-07-28T18:23:11.0000000+00:00</time></trkpt><trkpt lat="63.93845749" lon="-21.98709106"><ele>180.6</ele><time>2012-07-28T18:23:16.0000000+00:00</time></trkpt><trkpt lat="63.93848038" lon="-21.98701096"><ele>180.5</ele><time>2012-07-28T18:23:21.0000000+00:00</time></trkpt><trkpt lat="63.93849564" lon="-21.98692131"><ele>181.8</ele><time>2012-07-28T18:23:26.0000000+00:00</time></trkpt><trkpt lat="63.93849182" lon="-21.98680115"><ele>181.9</ele><time>2012-07-28T18:23:31.0000000+00:00</time></trkpt><trkpt lat="63.93849182" lon="-21.98670578"><ele>181.2</ele><time>2012-07-28T18:23:36.0000000+00:00</time></trkpt><trkpt lat="63.93849945" lon="-21.98668671"><ele>179.8</ele><time>2012-07-28T18:23:41.0000000+00:00</time></trkpt><trkpt lat="63.93849945" lon="-21.98668861"><ele>180.0</ele><time>2012-07-28T18:23:46.0000000+00:00</time></trkpt><trkpt lat="63.93849945" lon="-21.98669243"><ele>179.8</ele><time>2012-07-28T18:23:51.0000000+00:00</time></trkpt><trkpt lat="63.93849945" lon="-21.98669243"><ele>179.8</ele><time>2012-07-28T18:23:56.0000000+00:00</time></trkpt><trkpt lat="63.93849945" lon="-21.98669243"><ele>179.8</ele><time>2012-07-28T18:24:01.0000000+00:00</time></trkpt><trkpt lat="63.93850327" lon="-21.98667526"><ele>179.9</ele><time>2012-07-28T18:24:06.0000000+00:00</time></trkpt><trkpt lat="63.9385109" lon="-21.98656654"><ele>179.7</ele><time>2012-07-28T18:24:11.0000000+00:00</time></trkpt><trkpt lat="63.93851471" lon="-21.98644447"><ele>179.6</ele><time>2012-07-28T18:24:16.0000000+00:00</time></trkpt><trkpt lat="63.93852997" lon="-21.98632813"><ele>179.2</ele><time>2012-07-28T18:24:21.0000000+00:00</time></trkpt><trkpt lat="63.93854141" lon="-21.98622131"><ele>179.7</ele><time>2012-07-28T18:24:26.0000000+00:00</time></trkpt><trkpt lat="63.93855286" lon="-21.98614883"><ele>179.6</ele><time>2012-07-28T18:24:31.0000000+00:00</time></trkpt><trkpt lat="63.9385643" lon="-21.98614883"><ele>179.8</ele><time>2012-07-28T18:24:36.0000000+00:00</time></trkpt><trkpt lat="63.93857193" lon="-21.98615646"><ele>179.8</ele><time>2012-07-28T18:24:41.0000000+00:00</time></trkpt><trkpt lat="63.93857575" lon="-21.98615837"><ele>179.9</ele><time>2012-07-28T18:24:46.0000000+00:00</time></trkpt><trkpt lat="63.93857956" lon="-21.98615837"><ele>180.0</ele><time>2012-07-28T18:24:51.0000000+00:00</time></trkpt><trkpt lat="63.93858337" lon="-21.98616409"><ele>180.1</ele><time>2012-07-28T18:24:56.0000000+00:00</time></trkpt><trkpt lat="63.938591" lon="-21.98616982"><ele>180.1</ele><time>2012-07-28T18:25:01.0000000+00:00</time></trkpt><trkpt lat="63.93859863" lon="-21.98617363"><ele>180.2</ele><time>2012-07-28T18:25:06.0000000+00:00</time></trkpt><trkpt lat="63.93860626" lon="-21.98617744"><ele>180.1</ele><time>2012-07-28T18:25:11.0000000+00:00</time></trkpt><trkpt lat="63.938591" lon="-21.98614883"><ele>179.9</ele><time>2012-07-28T18:25:16.0000000+00:00</time></trkpt><trkpt lat="63.93861771" lon="-21.98601151"><ele>180.0</ele><time>2012-07-28T18:25:21.0000000+00:00</time></trkpt><trkpt lat="63.93867874" lon="-21.98570442"><ele>178.2</ele><time>2012-07-28T18:25:26.0000000+00:00</time></trkpt><trkpt lat="63.93881226" lon="-21.98543549"><ele>175.3</ele><time>2012-07-28T18:25:31.0000000+00:00</time></trkpt><trkpt lat="63.93902206" lon="-21.98522186"><ele>172.3</ele><time>2012-07-28T18:25:36.0000000+00:00</time></trkpt><trkpt lat="63.93929291" lon="-21.98501587"><ele>168.1</ele><time>2012-07-28T18:25:41.0000000+00:00</time></trkpt><trkpt lat="63.93959045" lon="-21.9847908"><ele>163.2</ele><time>2012-07-28T18:25:46.0000000+00:00</time></trkpt><trkpt lat="63.93984985" lon="-21.98454094"><ele>159.5</ele><time>2012-07-28T18:25:51.0000000+00:00</time></trkpt><trkpt lat="63.9401741" lon="-21.98414421"><ele>155.1</ele><time>2012-07-28T18:25:56.0000000+00:00</time></trkpt><trkpt lat="63.94055176" lon="-21.98365212"><ele>152.5</ele><time>2012-07-28T18:26:01.0000000+00:00</time></trkpt><trkpt lat="63.94094086" lon="-21.98314476"><ele>149.8</ele><time>2012-07-28T18:26:06.0000000+00:00</time></trkpt><trkpt lat="63.94135284" lon="-21.9826088"><ele>147.4</ele><time>2012-07-28T18:26:11.0000000+00:00</time></trkpt><trkpt lat="63.9417038" lon="-21.98201561"><ele>146.9</ele><time>2012-07-28T18:26:16.0000000+00:00</time></trkpt><trkpt lat="63.94192505" lon="-21.98144341"><ele>147.5</ele><time>2012-07-28T18:26:21.0000000+00:00</time></trkpt><trkpt lat="63.94207382" lon="-21.98095512"><ele>147.3</ele><time>2012-07-28T18:26:26.0000000+00:00</time></trkpt><trkpt lat="63.94219589" lon="-21.98061752"><ele>145.7</ele><time>2012-07-28T18:26:31.0000000+00:00</time></trkpt><trkpt lat="63.94233704" lon="-21.98041344"><ele>147.2</ele><time>2012-07-28T18:26:36.0000000+00:00</time></trkpt><trkpt lat="63.94251251" lon="-21.98025513"><ele>146.8</ele><time>2012-07-28T18:26:41.0000000+00:00</time></trkpt><trkpt lat="63.94269562" lon="-21.98008919"><ele>146.5</ele><time>2012-07-28T18:26:46.0000000+00:00</time></trkpt><trkpt lat="63.94285965" lon="-21.97991371"><ele>145.3</ele><time>2012-07-28T18:26:51.0000000+00:00</time></trkpt><trkpt lat="63.94299316" lon="-21.97974777"><ele>146.1</ele><time>2012-07-28T18:26:56.0000000+00:00</time></trkpt><trkpt lat="63.94311905" lon="-21.97952652"><ele>146.2</ele><time>2012-07-28T18:27:01.0000000+00:00</time></trkpt><trkpt lat="63.94323349" lon="-21.97928047"><ele>146.5</ele><time>2012-07-28T18:27:06.0000000+00:00</time></trkpt><trkpt lat="63.94334793" lon="-21.97902679"><ele>146.6</ele><time>2012-07-28T18:27:11.0000000+00:00</time></trkpt><trkpt lat="63.94348526" lon="-21.97874641"><ele>146.8</ele><time>2012-07-28T18:27:16.0000000+00:00</time></trkpt><trkpt lat="63.9436264" lon="-21.97842789"><ele>146.7</ele><time>2012-07-28T18:27:21.0000000+00:00</time></trkpt><trkpt lat="63.94377518" lon="-21.97806931"><ele>146.4</ele><time>2012-07-28T18:27:26.0000000+00:00</time></trkpt><trkpt lat="63.9438858" lon="-21.97774506"><ele>145.5</ele><time>2012-07-28T18:27:31.0000000+00:00</time></trkpt><trkpt lat="63.94398117" lon="-21.97741318"><ele>145.2</ele><time>2012-07-28T18:27:36.0000000+00:00</time></trkpt><trkpt lat="63.94408798" lon="-21.97703743"><ele>144.5</ele><time>2012-07-28T18:27:41.0000000+00:00</time></trkpt><trkpt lat="63.94418716" lon="-21.97667503"><ele>143.7</ele><time>2012-07-28T18:27:46.0000000+00:00</time></trkpt><trkpt lat="63.94428253" lon="-21.9763298"><ele>145.7</ele><time>2012-07-28T18:27:51.0000000+00:00</time></trkpt><trkpt lat="63.94440079" lon="-21.97605133"><ele>148.9</ele><time>2012-07-28T18:27:56.0000000+00:00</time></trkpt><trkpt lat="63.94451523" lon="-21.97579193"><ele>148.6</ele><time>2012-07-28T18:28:01.0000000+00:00</time></trkpt><trkpt lat="63.94462204" lon="-21.97553635"><ele>149.5</ele><time>2012-07-28T18:28:06.0000000+00:00</time></trkpt><trkpt lat="63.94474793" lon="-21.97518158"><ele>150.7</ele><time>2012-07-28T18:28:11.0000000+00:00</time></trkpt><trkpt lat="63.94487381" lon="-21.97483063"><ele>150.4</ele><time>2012-07-28T18:28:16.0000000+00:00</time></trkpt><trkpt lat="63.94498444" lon="-21.9745388"><ele>147.1</ele><time>2012-07-28T18:28:21.0000000+00:00</time></trkpt><trkpt lat="63.94508362" lon="-21.97423363"><ele>146.3</ele><time>2012-07-28T18:28:26.0000000+00:00</time></trkpt><trkpt lat="63.94520569" lon="-21.97392464"><ele>145.6</ele><time>2012-07-28T18:28:31.0000000+00:00</time></trkpt><trkpt lat="63.9453392" lon="-21.97365952"><ele>146.3</ele><time>2012-07-28T18:28:36.0000000+00:00</time></trkpt><trkpt lat="63.94546127" lon="-21.97337723"><ele>146.3</ele><time>2012-07-28T18:28:41.0000000+00:00</time></trkpt><trkpt lat="63.9455986" lon="-21.97309113"><ele>145.7</ele><time>2012-07-28T18:28:46.0000000+00:00</time></trkpt><trkpt lat="63.94570541" lon="-21.9728241"><ele>145.9</ele><time>2012-07-28T18:28:51.0000000+00:00</time></trkpt><trkpt lat="63.9458046" lon="-21.97252274"><ele>145.2</ele><time>2012-07-28T18:28:56.0000000+00:00</time></trkpt><trkpt lat="63.94589615" lon="-21.9721756"><ele>146.4</ele><time>2012-07-28T18:29:01.0000000+00:00</time></trkpt><trkpt lat="63.94596863" lon="-21.97180367"><ele>146.4</ele><time>2012-07-28T18:29:06.0000000+00:00</time></trkpt><trkpt lat="63.94604492" lon="-21.97141838"><ele>146.3</ele><time>2012-07-28T18:29:11.0000000+00:00</time></trkpt><trkpt lat="63.94610977" lon="-21.97099876"><ele>144.4</ele><time>2012-07-28T18:29:16.0000000+00:00</time></trkpt><trkpt lat="63.94615173" lon="-21.97056198"><ele>146.1</ele><time>2012-07-28T18:29:21.0000000+00:00</time></trkpt><trkpt lat="63.9461937" lon="-21.97017288"><ele>145.1</ele><time>2012-07-28T18:29:26.0000000+00:00</time></trkpt><trkpt lat="63.94622421" lon="-21.96981239"><ele>144.0</ele><time>2012-07-28T18:29:31.0000000+00:00</time></trkpt><trkpt lat="63.94626617" lon="-21.96942902"><ele>142.5</ele><time>2012-07-28T18:29:36.0000000+00:00</time></trkpt><trkpt lat="63.94629669" lon="-21.96902657"><ele>142.9</ele><time>2012-07-28T18:29:41.0000000+00:00</time></trkpt><trkpt lat="63.94633865" lon="-21.96859169"><ele>143.2</ele><time>2012-07-28T18:29:46.0000000+00:00</time></trkpt><trkpt lat="63.94639206" lon="-21.96814346"><ele>144.7</ele><time>2012-07-28T18:29:51.0000000+00:00</time></trkpt><trkpt lat="63.94643784" lon="-21.96770096"><ele>142.4</ele><time>2012-07-28T18:29:56.0000000+00:00</time></trkpt><trkpt lat="63.94647598" lon="-21.96728897"><ele>143.8</ele><time>2012-07-28T18:30:01.0000000+00:00</time></trkpt><trkpt lat="63.94651413" lon="-21.96688271"><ele>144.0</ele><time>2012-07-28T18:30:06.0000000+00:00</time></trkpt><trkpt lat="63.94655609" lon="-21.96647453"><ele>143.5</ele><time>2012-07-28T18:30:11.0000000+00:00</time></trkpt><trkpt lat="63.94659042" lon="-21.96609497"><ele>142.3</ele><time>2012-07-28T18:30:16.0000000+00:00</time></trkpt><trkpt lat="63.94662857" lon="-21.96568108"><ele>142.0</ele><time>2012-07-28T18:30:21.0000000+00:00</time></trkpt><trkpt lat="63.9466629" lon="-21.96524429"><ele>141.8</ele><time>2012-07-28T18:30:26.0000000+00:00</time></trkpt><trkpt lat="63.94670868" lon="-21.96480751"><ele>140.6</ele><time>2012-07-28T18:30:31.0000000+00:00</time></trkpt><trkpt lat="63.94674683" lon="-21.96434021"><ele>140.3</ele><time>2012-07-28T18:30:36.0000000+00:00</time></trkpt><trkpt lat="63.94680786" lon="-21.96391296"><ele>141.1</ele><time>2012-07-28T18:30:41.0000000+00:00</time></trkpt><trkpt lat="63.9469223" lon="-21.96344757"><ele>140.2</ele><time>2012-07-28T18:30:46.0000000+00:00</time></trkpt><trkpt lat="63.94707108" lon="-21.96307373"><ele>141.6</ele><time>2012-07-28T18:30:51.0000000+00:00</time></trkpt><trkpt lat="63.94721985" lon="-21.96281433"><ele>143.2</ele><time>2012-07-28T18:30:56.0000000+00:00</time></trkpt><trkpt lat="63.94738388" lon="-21.96257782"><ele>145.8</ele><time>2012-07-28T18:31:01.0000000+00:00</time></trkpt><trkpt lat="63.94754028" lon="-21.96237755"><ele>147.9</ele><time>2012-07-28T18:31:06.0000000+00:00</time></trkpt><trkpt lat="63.94765854" lon="-21.96221733"><ele>148.4</ele><time>2012-07-28T18:31:11.0000000+00:00</time></trkpt><trkpt lat="63.94777679" lon="-21.96207047"><ele>149.2</ele><time>2012-07-28T18:31:16.0000000+00:00</time></trkpt><trkpt lat="63.94790268" lon="-21.9619236"><ele>150.0</ele><time>2012-07-28T18:31:21.0000000+00:00</time></trkpt><trkpt lat="63.94802094" lon="-21.9617672"><ele>150.5</ele><time>2012-07-28T18:31:26.0000000+00:00</time></trkpt><trkpt lat="63.94812393" lon="-21.9616375"><ele>150.2</ele><time>2012-07-28T18:31:31.0000000+00:00</time></trkpt><trkpt lat="63.94823456" lon="-21.96149826"><ele>150.2</ele><time>2012-07-28T18:31:36.0000000+00:00</time></trkpt><trkpt lat="63.94836426" lon="-21.96133995"><ele>150.3</ele><time>2012-07-28T18:31:41.0000000+00:00</time></trkpt><trkpt lat="63.94849777" lon="-21.96116447"><ele>150.3</ele><time>2012-07-28T18:31:46.0000000+00:00</time></trkpt><trkpt lat="63.94859695" lon="-21.96101761"><ele>150.5</ele><time>2012-07-28T18:31:51.0000000+00:00</time></trkpt><trkpt lat="63.94870377" lon="-21.96088028"><ele>150.8</ele><time>2012-07-28T18:31:56.0000000+00:00</time></trkpt><trkpt lat="63.94881058" lon="-21.96074486"><ele>151.1</ele><time>2012-07-28T18:32:01.0000000+00:00</time></trkpt><trkpt lat="63.94891739" lon="-21.9605999"><ele>150.8</ele><time>2012-07-28T18:32:06.0000000+00:00</time></trkpt><trkpt lat="63.94902039" lon="-21.96049118"><ele>151.0</ele><time>2012-07-28T18:32:11.0000000+00:00</time></trkpt><trkpt lat="63.9491272" lon="-21.96035767"><ele>151.3</ele><time>2012-07-28T18:32:16.0000000+00:00</time></trkpt><trkpt lat="63.94923019" lon="-21.96022987"><ele>151.9</ele><time>2012-07-28T18:32:21.0000000+00:00</time></trkpt><trkpt lat="63.94932556" lon="-21.96009827"><ele>151.9</ele><time>2012-07-28T18:32:26.0000000+00:00</time></trkpt><trkpt lat="63.94942474" lon="-21.95997047"><ele>151.7</ele><time>2012-07-28T18:32:31.0000000+00:00</time></trkpt><trkpt lat="63.94952774" lon="-21.95985031"><ele>151.8</ele><time>2012-07-28T18:32:36.0000000+00:00</time></trkpt><trkpt lat="63.94959641" lon="-21.95974541"><ele>152.2</ele><time>2012-07-28T18:32:41.0000000+00:00</time></trkpt><trkpt lat="63.94969177" lon="-21.95962143"><ele>152.3</ele><time>2012-07-28T18:32:46.0000000+00:00</time></trkpt><trkpt lat="63.94981384" lon="-21.95947456"><ele>152.5</ele><time>2012-07-28T18:32:51.0000000+00:00</time></trkpt><trkpt lat="63.94994736" lon="-21.95929909"><ele>152.4</ele><time>2012-07-28T18:32:56.0000000+00:00</time></trkpt><trkpt lat="63.95008087" lon="-21.9591465"><ele>152.3</ele><time>2012-07-28T18:33:01.0000000+00:00</time></trkpt><trkpt lat="63.95019913" lon="-21.95898628"><ele>152.2</ele><time>2012-07-28T18:33:06.0000000+00:00</time></trkpt><trkpt lat="63.95031357" lon="-21.9588356"><ele>152.3</ele><time>2012-07-28T18:33:11.0000000+00:00</time></trkpt><trkpt lat="63.9504509" lon="-21.95865822"><ele>152.5</ele><time>2012-07-28T18:33:16.0000000+00:00</time></trkpt><trkpt lat="63.95059586" lon="-21.95846367"><ele>152.0</ele><time>2012-07-28T18:33:21.0000000+00:00</time></trkpt><trkpt lat="63.95074463" lon="-21.95829201"><ele>152.4</ele><time>2012-07-28T18:33:26.0000000+00:00</time></trkpt><trkpt lat="63.95089722" lon="-21.95808029"><ele>152.8</ele><time>2012-07-28T18:33:31.0000000+00:00</time></trkpt><trkpt lat="63.95103836" lon="-21.95790863"><ele>153.7</ele><time>2012-07-28T18:33:36.0000000+00:00</time></trkpt><trkpt lat="63.95114899" lon="-21.95776558"><ele>153.9</ele><time>2012-07-28T18:33:41.0000000+00:00</time></trkpt><trkpt lat="63.95125198" lon="-21.95762825"><ele>154.4</ele><time>2012-07-28T18:33:46.0000000+00:00</time></trkpt><trkpt lat="63.95133591" lon="-21.95751762"><ele>154.5</ele><time>2012-07-28T18:33:51.0000000+00:00</time></trkpt><trkpt lat="63.9514122" lon="-21.95742035"><ele>154.6</ele><time>2012-07-28T18:33:56.0000000+00:00</time></trkpt><trkpt lat="63.95150375" lon="-21.95729446"><ele>154.6</ele><time>2012-07-28T18:34:01.0000000+00:00</time></trkpt><trkpt lat="63.95157623" lon="-21.95719147"><ele>154.8</ele><time>2012-07-28T18:34:06.0000000+00:00</time></trkpt><trkpt lat="63.95166779" lon="-21.95707703"><ele>155.0</ele><time>2012-07-28T18:34:11.0000000+00:00</time></trkpt><trkpt lat="63.95175552" lon="-21.95696068"><ele>155.6</ele><time>2012-07-28T18:34:16.0000000+00:00</time></trkpt><trkpt lat="63.95185471" lon="-21.95684815"><ele>155.7</ele><time>2012-07-28T18:34:21.0000000+00:00</time></trkpt><trkpt lat="63.95195007" lon="-21.95670891"><ele>156.1</ele><time>2012-07-28T18:34:26.0000000+00:00</time></trkpt><trkpt lat="63.95205307" lon="-21.95655823"><ele>156.4</ele><time>2012-07-28T18:34:31.0000000+00:00</time></trkpt><trkpt lat="63.95213699" lon="-21.95646477"><ele>156.5</ele><time>2012-07-28T18:34:36.0000000+00:00</time></trkpt><trkpt lat="63.95220184" lon="-21.95634842"><ele>158.0</ele><time>2012-07-28T18:34:41.0000000+00:00</time></trkpt><trkpt lat="63.95228577" lon="-21.95623779"><ele>158.1</ele><time>2012-07-28T18:34:46.0000000+00:00</time></trkpt><trkpt lat="63.95238495" lon="-21.95613098"><ele>158.2</ele><time>2012-07-28T18:34:51.0000000+00:00</time></trkpt><trkpt lat="63.95248795" lon="-21.9560051"><ele>158.3</ele><time>2012-07-28T18:34:56.0000000+00:00</time></trkpt><trkpt lat="63.95257187" lon="-21.9558773"><ele>158.6</ele><time>2012-07-28T18:35:01.0000000+00:00</time></trkpt><trkpt lat="63.95265579" lon="-21.95576859"><ele>158.7</ele><time>2012-07-28T18:35:06.0000000+00:00</time></trkpt><trkpt lat="63.95275879" lon="-21.95567322"><ele>158.9</ele><time>2012-07-28T18:35:11.0000000+00:00</time></trkpt><trkpt lat="63.95284271" lon="-21.9555378"><ele>157.2</ele><time>2012-07-28T18:35:16.0000000+00:00</time></trkpt><trkpt lat="63.9529419" lon="-21.95542145"><ele>157.8</ele><time>2012-07-28T18:35:21.0000000+00:00</time></trkpt><trkpt lat="63.95304108" lon="-21.95528221"><ele>158.1</ele><time>2012-07-28T18:35:26.0000000+00:00</time></trkpt><trkpt lat="63.95314407" lon="-21.9551754"><ele>158.0</ele><time>2012-07-28T18:35:31.0000000+00:00</time></trkpt><trkpt lat="63.95322037" lon="-21.95507813"><ele>157.2</ele><time>2012-07-28T18:35:36.0000000+00:00</time></trkpt><trkpt lat="63.95330811" lon="-21.95494461"><ele>157.7</ele><time>2012-07-28T18:35:41.0000000+00:00</time></trkpt><trkpt lat="63.95341492" lon="-21.95481873"><ele>158.3</ele><time>2012-07-28T18:35:46.0000000+00:00</time></trkpt><trkpt lat="63.95352554" lon="-21.95468712"><ele>158.4</ele><time>2012-07-28T18:35:51.0000000+00:00</time></trkpt><trkpt lat="63.95365524" lon="-21.95454216"><ele>158.2</ele><time>2012-07-28T18:35:56.0000000+00:00</time></trkpt><trkpt lat="63.95377731" lon="-21.95440102"><ele>158.0</ele><time>2012-07-28T18:36:01.0000000+00:00</time></trkpt><trkpt lat="63.95389938" lon="-21.95426559"><ele>158.2</ele><time>2012-07-28T18:36:06.0000000+00:00</time></trkpt><trkpt lat="63.9540062" lon="-21.95415115"><ele>157.8</ele><time>2012-07-28T18:36:11.0000000+00:00</time></trkpt><trkpt lat="63.95412445" lon="-21.95404434"><ele>157.0</ele><time>2012-07-28T18:36:16.0000000+00:00</time></trkpt><trkpt lat="63.95423889" lon="-21.95393181"><ele>157.2</ele><time>2012-07-28T18:36:21.0000000+00:00</time></trkpt><trkpt lat="63.95432663" lon="-21.95385361"><ele>156.0</ele><time>2012-07-28T18:36:26.0000000+00:00</time></trkpt><trkpt lat="63.95446014" lon="-21.9537468"><ele>155.7</ele><time>2012-07-28T18:36:31.0000000+00:00</time></trkpt><trkpt lat="63.95461655" lon="-21.95362663"><ele>155.6</ele><time>2012-07-28T18:36:36.0000000+00:00</time></trkpt><trkpt lat="63.95478821" lon="-21.95349503"><ele>155.8</ele><time>2012-07-28T18:36:41.0000000+00:00</time></trkpt><trkpt lat="63.9549675" lon="-21.95333672"><ele>156.4</ele><time>2012-07-28T18:36:46.0000000+00:00</time></trkpt><trkpt lat="63.95510483" lon="-21.95322609"><ele>156.8</ele><time>2012-07-28T18:36:51.0000000+00:00</time></trkpt><trkpt lat="63.95519257" lon="-21.9531517"><ele>156.9</ele><time>2012-07-28T18:36:56.0000000+00:00</time></trkpt><trkpt lat="63.95526886" lon="-21.95309067"><ele>156.3</ele><time>2012-07-28T18:37:01.0000000+00:00</time></trkpt><trkpt lat="63.95537186" lon="-21.95301819"><ele>156.3</ele><time>2012-07-28T18:37:06.0000000+00:00</time></trkpt><trkpt lat="63.95547867" lon="-21.95291328"><ele>156.6</ele><time>2012-07-28T18:37:11.0000000+00:00</time></trkpt><trkpt lat="63.95562744" lon="-21.95279694"><ele>156.7</ele><time>2012-07-28T18:37:16.0000000+00:00</time></trkpt><trkpt lat="63.95579147" lon="-21.95267105"><ele>157.1</ele><time>2012-07-28T18:37:21.0000000+00:00</time></trkpt><trkpt lat="63.95591736" lon="-21.95258522"><ele>157.2</ele><time>2012-07-28T18:37:26.0000000+00:00</time></trkpt><trkpt lat="63.95600891" lon="-21.95248413"><ele>157.3</ele><time>2012-07-28T18:37:31.0000000+00:00</time></trkpt><trkpt lat="63.9561348" lon="-21.95238113"><ele>157.5</ele><time>2012-07-28T18:37:36.0000000+00:00</time></trkpt><trkpt lat="63.95628738" lon="-21.95225906"><ele>157.3</ele><time>2012-07-28T18:37:41.0000000+00:00</time></trkpt><trkpt lat="63.95646286" lon="-21.95210838"><ele>157.0</ele><time>2012-07-28T18:37:46.0000000+00:00</time></trkpt><trkpt lat="63.95664978" lon="-21.95194054"><ele>157.1</ele><time>2012-07-28T18:37:51.0000000+00:00</time></trkpt><trkpt lat="63.95681381" lon="-21.95179939"><ele>157.7</ele><time>2012-07-28T18:37:56.0000000+00:00</time></trkpt><trkpt lat="63.95692825" lon="-21.95170784"><ele>157.7</ele><time>2012-07-28T18:38:01.0000000+00:00</time></trkpt><trkpt lat="63.95704651" lon="-21.95161629"><ele>157.7</ele><time>2012-07-28T18:38:06.0000000+00:00</time></trkpt><trkpt lat="63.95718002" lon="-21.95148468"><ele>158.1</ele><time>2012-07-28T18:38:11.0000000+00:00</time></trkpt><trkpt lat="63.95733643" lon="-21.95132446"><ele>158.2</ele><time>2012-07-28T18:38:16.0000000+00:00</time></trkpt><trkpt lat="63.95750427" lon="-21.95113373"><ele>158.6</ele><time>2012-07-28T18:38:21.0000000+00:00</time></trkpt><trkpt lat="63.95765686" lon="-21.95095062"><ele>158.9</ele><time>2012-07-28T18:38:26.0000000+00:00</time></trkpt><trkpt lat="63.95778275" lon="-21.95079041"><ele>159.1</ele><time>2012-07-28T18:38:31.0000000+00:00</time></trkpt><trkpt lat="63.95792389" lon="-21.95058441"><ele>159.5</ele><time>2012-07-28T18:38:36.0000000+00:00</time></trkpt><trkpt lat="63.95803833" lon="-21.95038796"><ele>159.6</ele><time>2012-07-28T18:38:41.0000000+00:00</time></trkpt><trkpt lat="63.95815659" lon="-21.95018387"><ele>159.8</ele><time>2012-07-28T18:38:46.0000000+00:00</time></trkpt><trkpt lat="63.95822525" lon="-21.95000458"><ele>158.7</ele><time>2012-07-28T18:38:51.0000000+00:00</time></trkpt><trkpt lat="63.95829392" lon="-21.94989204"><ele>159.9</ele><time>2012-07-28T18:38:56.0000000+00:00</time></trkpt><trkpt lat="63.95839691" lon="-21.94970131"><ele>160.2</ele><time>2012-07-28T18:39:01.0000000+00:00</time></trkpt><trkpt lat="63.95851898" lon="-21.94947815"><ele>160.8</ele><time>2012-07-28T18:39:06.0000000+00:00</time></trkpt><trkpt lat="63.95863724" lon="-21.94923019"><ele>160.5</ele><time>2012-07-28T18:39:11.0000000+00:00</time></trkpt><trkpt lat="63.95877075" lon="-21.94899178"><ele>161.4</ele><time>2012-07-28T18:39:16.0000000+00:00</time></trkpt><trkpt lat="63.95890045" lon="-21.94872665"><ele>161.1</ele><time>2012-07-28T18:39:21.0000000+00:00</time></trkpt><trkpt lat="63.95899582" lon="-21.94850731"><ele>161.9</ele><time>2012-07-28T18:39:26.0000000+00:00</time></trkpt><trkpt lat="63.95911026" lon="-21.94823265"><ele>162.4</ele><time>2012-07-28T18:39:31.0000000+00:00</time></trkpt><trkpt lat="63.95920944" lon="-21.94801903"><ele>162.9</ele><time>2012-07-28T18:39:36.0000000+00:00</time></trkpt><trkpt lat="63.95928955" lon="-21.9478035"><ele>163.7</ele><time>2012-07-28T18:39:41.0000000+00:00</time></trkpt><trkpt lat="63.95936966" lon="-21.94753075"><ele>164.6</ele><time>2012-07-28T18:39:46.0000000+00:00</time></trkpt><trkpt lat="63.95942688" lon="-21.94729233"><ele>164.9</ele><time>2012-07-28T18:39:51.0000000+00:00</time></trkpt><trkpt lat="63.95948029" lon="-21.94706535"><ele>166.0</ele><time>2012-07-28T18:39:56.0000000+00:00</time></trkpt><trkpt lat="63.95951843" lon="-21.94686699"><ele>160.1</ele><time>2012-07-28T18:40:01.0000000+00:00</time></trkpt><trkpt lat="63.95955277" lon="-21.94667435"><ele>161.0</ele><time>2012-07-28T18:40:06.0000000+00:00</time></trkpt><trkpt lat="63.95958328" lon="-21.94648171"><ele>162.2</ele><time>2012-07-28T18:40:11.0000000+00:00</time></trkpt><trkpt lat="63.9595871" lon="-21.94630051"><ele>163.0</ele><time>2012-07-28T18:40:16.0000000+00:00</time></trkpt><trkpt lat="63.95959091" lon="-21.94611549"><ele>164.0</ele><time>2012-07-28T18:40:21.0000000+00:00</time></trkpt><trkpt lat="63.95961762" lon="-21.94593239"><ele>165.1</ele><time>2012-07-28T18:40:26.0000000+00:00</time></trkpt><trkpt lat="63.95963287" lon="-21.94576073"><ele>165.6</ele><time>2012-07-28T18:40:31.0000000+00:00</time></trkpt><trkpt lat="63.95965195" lon="-21.94564056"><ele>166.6</ele><time>2012-07-28T18:40:36.0000000+00:00</time></trkpt><trkpt lat="63.95966721" lon="-21.94547272"><ele>167.1</ele><time>2012-07-28T18:40:41.0000000+00:00</time></trkpt><trkpt lat="63.95968628" lon="-21.94531632"><ele>168.0</ele><time>2012-07-28T18:40:46.0000000+00:00</time></trkpt><trkpt lat="63.95970535" lon="-21.9451046"><ele>167.9</ele><time>2012-07-28T18:40:51.0000000+00:00</time></trkpt><trkpt lat="63.95973206" lon="-21.94490051"><ele>167.9</ele><time>2012-07-28T18:40:56.0000000+00:00</time></trkpt><trkpt lat="63.95978165" lon="-21.94464874"><ele>166.9</ele><time>2012-07-28T18:41:01.0000000+00:00</time></trkpt><trkpt lat="63.95981598" lon="-21.94440842"><ele>165.6</ele><time>2012-07-28T18:41:06.0000000+00:00</time></trkpt><trkpt lat="63.95986557" lon="-21.94414711"><ele>166.1</ele><time>2012-07-28T18:41:11.0000000+00:00</time></trkpt><trkpt lat="63.95991516" lon="-21.94395447"><ele>165.7</ele><time>2012-07-28T18:41:16.0000000+00:00</time></trkpt><trkpt lat="63.95993424" lon="-21.94382668"><ele>166.5</ele><time>2012-07-28T18:41:21.0000000+00:00</time></trkpt><trkpt lat="63.95997238" lon="-21.943676"><ele>166.6</ele><time>2012-07-28T18:41:26.0000000+00:00</time></trkpt><trkpt lat="63.96004105" lon="-21.94351769"><ele>167.0</ele><time>2012-07-28T18:41:31.0000000+00:00</time></trkpt><trkpt lat="63.96010208" lon="-21.94333458"><ele>166.4</ele><time>2012-07-28T18:41:36.0000000+00:00</time></trkpt><trkpt lat="63.96017456" lon="-21.9431591"><ele>167.0</ele><time>2012-07-28T18:41:41.0000000+00:00</time></trkpt><trkpt lat="63.96022034" lon="-21.94300652"><ele>164.0</ele><time>2012-07-28T18:41:46.0000000+00:00</time></trkpt><trkpt lat="63.9602623" lon="-21.94287682"><ele>165.1</ele><time>2012-07-28T18:41:51.0000000+00:00</time></trkpt><trkpt lat="63.96034241" lon="-21.94267464"><ele>163.7</ele><time>2012-07-28T18:41:56.0000000+00:00</time></trkpt><trkpt lat="63.96042252" lon="-21.94248772"><ele>163.0</ele><time>2012-07-28T18:42:01.0000000+00:00</time></trkpt><trkpt lat="63.96050263" lon="-21.94232178"><ele>165.1</ele><time>2012-07-28T18:42:06.0000000+00:00</time></trkpt><trkpt lat="63.96058273" lon="-21.94213677"><ele>163.7</ele><time>2012-07-28T18:42:11.0000000+00:00</time></trkpt><trkpt lat="63.96064377" lon="-21.94198227"><ele>162.5</ele><time>2012-07-28T18:42:16.0000000+00:00</time></trkpt><trkpt lat="63.96073532" lon="-21.94172478"><ele>160.3</ele><time>2012-07-28T18:42:21.0000000+00:00</time></trkpt><trkpt lat="63.9608345" lon="-21.94150734"><ele>159.2</ele><time>2012-07-28T18:42:26.0000000+00:00</time></trkpt><trkpt lat="63.96092224" lon="-21.94131661"><ele>160.3</ele><time>2012-07-28T18:42:31.0000000+00:00</time></trkpt><trkpt lat="63.96101379" lon="-21.9411068"><ele>158.8</ele><time>2012-07-28T18:42:36.0000000+00:00</time></trkpt><trkpt lat="63.96112442" lon="-21.94087029"><ele>160.1</ele><time>2012-07-28T18:42:41.0000000+00:00</time></trkpt><trkpt lat="63.96125031" lon="-21.94060707"><ele>160.8</ele><time>2012-07-28T18:42:46.0000000+00:00</time></trkpt><trkpt lat="63.96139145" lon="-21.9403553"><ele>163.0</ele><time>2012-07-28T18:42:51.0000000+00:00</time></trkpt><trkpt lat="63.96153259" lon="-21.94011688"><ele>163.8</ele><time>2012-07-28T18:42:56.0000000+00:00</time></trkpt><trkpt lat="63.96164703" lon="-21.93993378"><ele>164.0</ele><time>2012-07-28T18:43:01.0000000+00:00</time></trkpt><trkpt lat="63.9617424" lon="-21.9398098"><ele>165.4</ele><time>2012-07-28T18:43:06.0000000+00:00</time></trkpt><trkpt lat="63.96188736" lon="-21.93969917"><ele>165.1</ele><time>2012-07-28T18:43:11.0000000+00:00</time></trkpt><trkpt lat="63.96204376" lon="-21.93958664"><ele>165.6</ele><time>2012-07-28T18:43:16.0000000+00:00</time></trkpt><trkpt lat="63.96221161" lon="-21.93948174"><ele>163.0</ele><time>2012-07-28T18:43:21.0000000+00:00</time></trkpt><trkpt lat="63.96239853" lon="-21.93944931"><ele>162.4</ele><time>2012-07-28T18:43:26.0000000+00:00</time></trkpt><trkpt lat="63.96258545" lon="-21.93947411"><ele>162.6</ele><time>2012-07-28T18:43:31.0000000+00:00</time></trkpt><trkpt lat="63.96278381" lon="-21.93959618"><ele>163.4</ele><time>2012-07-28T18:43:36.0000000+00:00</time></trkpt><trkpt lat="63.96295166" lon="-21.93974114"><ele>161.4</ele><time>2012-07-28T18:43:41.0000000+00:00</time></trkpt><trkpt lat="63.96310043" lon="-21.9399147"><ele>160.3</ele><time>2012-07-28T18:43:46.0000000+00:00</time></trkpt><trkpt lat="63.96323395" lon="-21.94007301"><ele>159.7</ele><time>2012-07-28T18:43:51.0000000+00:00</time></trkpt><trkpt lat="63.96331787" lon="-21.94020271"><ele>159.5</ele><time>2012-07-28T18:43:56.0000000+00:00</time></trkpt><trkpt lat="63.96340179" lon="-21.94033623"><ele>159.7</ele><time>2012-07-28T18:44:01.0000000+00:00</time></trkpt><trkpt lat="63.96349335" lon="-21.94046211"><ele>159.8</ele><time>2012-07-28T18:44:06.0000000+00:00</time></trkpt><trkpt lat="63.96361542" lon="-21.94057083"><ele>159.3</ele><time>2012-07-28T18:44:11.0000000+00:00</time></trkpt><trkpt lat="63.96375656" lon="-21.94082451"><ele>159.2</ele><time>2012-07-28T18:44:16.0000000+00:00</time></trkpt><trkpt lat="63.96391678" lon="-21.9411583"><ele>159.2</ele><time>2012-07-28T18:44:21.0000000+00:00</time></trkpt><trkpt lat="63.96405792" lon="-21.94143868"><ele>159.2</ele><time>2012-07-28T18:44:26.0000000+00:00</time></trkpt><trkpt lat="63.96416473" lon="-21.94164658"><ele>159.5</ele><time>2012-07-28T18:44:31.0000000+00:00</time></trkpt><trkpt lat="63.96424103" lon="-21.9418335"><ele>160.7</ele><time>2012-07-28T18:44:36.0000000+00:00</time></trkpt><trkpt lat="63.96430969" lon="-21.94198036"><ele>160.8</ele><time>2012-07-28T18:44:41.0000000+00:00</time></trkpt><trkpt lat="63.96438599" lon="-21.94211388"><ele>161.4</ele><time>2012-07-28T18:44:46.0000000+00:00</time></trkpt><trkpt lat="63.96446228" lon="-21.94227219"><ele>162.7</ele><time>2012-07-28T18:44:51.0000000+00:00</time></trkpt><trkpt lat="63.96455002" lon="-21.94242477"><ele>163.6</ele><time>2012-07-28T18:44:56.0000000+00:00</time></trkpt><trkpt lat="63.96461868" lon="-21.94256592"><ele>163.8</ele><time>2012-07-28T18:45:01.0000000+00:00</time></trkpt><trkpt lat="63.96468353" lon="-21.94272232"><ele>163.6</ele><time>2012-07-28T18:45:06.0000000+00:00</time></trkpt><trkpt lat="63.96474075" lon="-21.942873"><ele>164.1</ele><time>2012-07-28T18:45:11.0000000+00:00</time></trkpt><trkpt lat="63.96482086" lon="-21.94301224"><ele>164.0</ele><time>2012-07-28T18:45:16.0000000+00:00</time></trkpt><trkpt lat="63.96492767" lon="-21.94319153"><ele>163.8</ele><time>2012-07-28T18:45:21.0000000+00:00</time></trkpt><trkpt lat="63.96505356" lon="-21.94343948"><ele>163.1</ele><time>2012-07-28T18:45:26.0000000+00:00</time></trkpt><trkpt lat="63.96517563" lon="-21.94368362"><ele>163.1</ele><time>2012-07-28T18:45:31.0000000+00:00</time></trkpt><trkpt lat="63.96528626" lon="-21.9439106"><ele>163.6</ele><time>2012-07-28T18:45:36.0000000+00:00</time></trkpt><trkpt lat="63.96535111" lon="-21.944067"><ele>164.2</ele><time>2012-07-28T18:45:41.0000000+00:00</time></trkpt><trkpt lat="63.96539688" lon="-21.94416237"><ele>164.8</ele><time>2012-07-28T18:45:46.0000000+00:00</time></trkpt><trkpt lat="63.96545029" lon="-21.94425201"><ele>165.6</ele><time>2012-07-28T18:45:51.0000000+00:00</time></trkpt><trkpt lat="63.96550369" lon="-21.94434166"><ele>165.6</ele><time>2012-07-28T18:45:56.0000000+00:00</time></trkpt><trkpt lat="63.96554565" lon="-21.94443893"><ele>165.4</ele><time>2012-07-28T18:46:01.0000000+00:00</time></trkpt><trkpt lat="63.96559906" lon="-21.94449997"><ele>166.3</ele><time>2012-07-28T18:46:06.0000000+00:00</time></trkpt><trkpt lat="63.96564484" lon="-21.94457054"><ele>166.5</ele><time>2012-07-28T18:46:11.0000000+00:00</time></trkpt><trkpt lat="63.96570206" lon="-21.94464302"><ele>166.9</ele><time>2012-07-28T18:46:16.0000000+00:00</time></trkpt><trkpt lat="63.96575165" lon="-21.9447155"><ele>166.7</ele><time>2012-07-28T18:46:21.0000000+00:00</time></trkpt><trkpt lat="63.9657898" lon="-21.9447937"><ele>166.9</ele><time>2012-07-28T18:46:26.0000000+00:00</time></trkpt><trkpt lat="63.96582031" lon="-21.94485664"><ele>166.8</ele><time>2012-07-28T18:46:31.0000000+00:00</time></trkpt><trkpt lat="63.96585465" lon="-21.94490433"><ele>167.0</ele><time>2012-07-28T18:46:36.0000000+00:00</time></trkpt><trkpt lat="63.96589661" lon="-21.94496918"><ele>168.1</ele><time>2012-07-28T18:46:41.0000000+00:00</time></trkpt><trkpt lat="63.96595001" lon="-21.94502258"><ele>170.5</ele><time>2012-07-28T18:46:46.0000000+00:00</time></trkpt><trkpt lat="63.96599197" lon="-21.94509697"><ele>172.3</ele><time>2012-07-28T18:46:51.0000000+00:00</time></trkpt><trkpt lat="63.96604538" lon="-21.94514465"><ele>173.4</ele><time>2012-07-28T18:46:56.0000000+00:00</time></trkpt><trkpt lat="63.96609497" lon="-21.94521141"><ele>174.3</ele><time>2012-07-28T18:47:01.0000000+00:00</time></trkpt><trkpt lat="63.96615601" lon="-21.9452877"><ele>175.3</ele><time>2012-07-28T18:47:06.0000000+00:00</time></trkpt><trkpt lat="63.9662056" lon="-21.94535446"><ele>176.3</ele><time>2012-07-28T18:47:11.0000000+00:00</time></trkpt><trkpt lat="63.96626663" lon="-21.94542503"><ele>177.1</ele><time>2012-07-28T18:47:16.0000000+00:00</time></trkpt><trkpt lat="63.96633148" lon="-21.94547653"><ele>178.1</ele><time>2012-07-28T18:47:21.0000000+00:00</time></trkpt><trkpt lat="63.96639633" lon="-21.94556999"><ele>179.1</ele><time>2012-07-28T18:47:26.0000000+00:00</time></trkpt><trkpt lat="63.96647263" lon="-21.94565964"><ele>180.1</ele><time>2012-07-28T18:47:31.0000000+00:00</time></trkpt><trkpt lat="63.96654511" lon="-21.94575691"><ele>180.3</ele><time>2012-07-28T18:47:36.0000000+00:00</time></trkpt><trkpt lat="63.96660996" lon="-21.94586372"><ele>180.2</ele><time>2012-07-28T18:47:41.0000000+00:00</time></trkpt><trkpt lat="63.96664429" lon="-21.94594383"><ele>180.3</ele><time>2012-07-28T18:47:46.0000000+00:00</time></trkpt><trkpt lat="63.96668243" lon="-21.94597626"><ele>180.1</ele><time>2012-07-28T18:47:51.0000000+00:00</time></trkpt><trkpt lat="63.96672821" lon="-21.94603348"><ele>179.8</ele><time>2012-07-28T18:47:56.0000000+00:00</time></trkpt><trkpt lat="63.9668045" lon="-21.94613838"><ele>179.4</ele><time>2012-07-28T18:48:01.0000000+00:00</time></trkpt><trkpt lat="63.96686935" lon="-21.94618416"><ele>178.5</ele><time>2012-07-28T18:48:06.0000000+00:00</time></trkpt><trkpt lat="63.96687698" lon="-21.94618416"><ele>178.0</ele><time>2012-07-28T18:48:11.0000000+00:00</time></trkpt><trkpt lat="63.96687698" lon="-21.94618416"><ele>178.0</ele><time>2012-07-28T18:48:16.0000000+00:00</time></trkpt><trkpt lat="63.96687317" lon="-21.94618607"><ele>177.9</ele><time>2012-07-28T18:48:21.0000000+00:00</time></trkpt><trkpt lat="63.96687698" lon="-21.94618416"><ele>177.9</ele><time>2012-07-28T18:48:26.0000000+00:00</time></trkpt><trkpt lat="63.96687317" lon="-21.94618416"><ele>177.9</ele><time>2012-07-28T18:48:31.0000000+00:00</time></trkpt><trkpt lat="63.96687317" lon="-21.94618416"><ele>177.9</ele><time>2012-07-28T18:48:36.0000000+00:00</time></trkpt><trkpt lat="63.96687317" lon="-21.94618416"><ele>177.9</ele><time>2012-07-28T18:48:41.0000000+00:00</time></trkpt><trkpt lat="63.96687317" lon="-21.94618416"><ele>177.9</ele><time>2012-07-28T18:48:46.0000000+00:00</time></trkpt><trkpt lat="63.96689606" lon="-21.94626045"><ele>177.9</ele><time>2012-07-28T18:48:51.0000000+00:00</time></trkpt><trkpt lat="63.9669838" lon="-21.94639778"><ele>177.0</ele><time>2012-07-28T18:48:56.0000000+00:00</time></trkpt><trkpt lat="63.9671669" lon="-21.94660568"><ele>174.5</ele><time>2012-07-28T18:49:01.0000000+00:00</time></trkpt><trkpt lat="63.96744156" lon="-21.94690704"><ele>171.4</ele><time>2012-07-28T18:49:06.0000000+00:00</time></trkpt><trkpt lat="63.96775436" lon="-21.94737625"><ele>166.2</ele><time>2012-07-28T18:49:11.0000000+00:00</time></trkpt><trkpt lat="63.96809387" lon="-21.94814682"><ele>158.6</ele><time>2012-07-28T18:49:16.0000000+00:00</time></trkpt><trkpt lat="63.96848679" lon="-21.94892311"><ele>152.6</ele><time>2012-07-28T18:49:21.0000000+00:00</time></trkpt><trkpt lat="63.96888351" lon="-21.94947815"><ele>149.2</ele><time>2012-07-28T18:49:26.0000000+00:00</time></trkpt><trkpt lat="63.96931839" lon="-21.95002747"><ele>141.0</ele><time>2012-07-28T18:49:31.0000000+00:00</time></trkpt><trkpt lat="63.96986008" lon="-21.95067024"><ele>131.5</ele><time>2012-07-28T18:49:36.0000000+00:00</time></trkpt><trkpt lat="63.97039795" lon="-21.9512043"><ele>127.3</ele><time>2012-07-28T18:49:41.0000000+00:00</time></trkpt><trkpt lat="63.97082901" lon="-21.95145416"><ele>127.5</ele><time>2012-07-28T18:49:46.0000000+00:00</time></trkpt><trkpt lat="63.97113419" lon="-21.95160103"><ele>128.0</ele><time>2012-07-28T18:49:51.0000000+00:00</time></trkpt><trkpt lat="63.97135162" lon="-21.95171166"><ele>128.0</ele><time>2012-07-28T18:49:56.0000000+00:00</time></trkpt><trkpt lat="63.97151184" lon="-21.95177078"><ele>127.8</ele><time>2012-07-28T18:50:01.0000000+00:00</time></trkpt><trkpt lat="63.97160721" lon="-21.95183373"><ele>127.2</ele><time>2012-07-28T18:50:06.0000000+00:00</time></trkpt><trkpt lat="63.97172546" lon="-21.9518795"><ele>127.4</ele><time>2012-07-28T18:50:11.0000000+00:00</time></trkpt><trkpt lat="63.97186661" lon="-21.95194054"><ele>128.5</ele><time>2012-07-28T18:50:16.0000000+00:00</time></trkpt><trkpt lat="63.97200012" lon="-21.95199776"><ele>129.8</ele><time>2012-07-28T18:50:21.0000000+00:00</time></trkpt><trkpt lat="63.97209168" lon="-21.9520607"><ele>130.8</ele><time>2012-07-28T18:50:26.0000000+00:00</time></trkpt><trkpt lat="63.97214127" lon="-21.95214653"><ele>130.8</ele><time>2012-07-28T18:50:31.0000000+00:00</time></trkpt><trkpt lat="63.97220993" lon="-21.95230103"><ele>130.8</ele><time>2012-07-28T18:50:36.0000000+00:00</time></trkpt><trkpt lat="63.97229385" lon="-21.95233345"><ele>131.1</ele><time>2012-07-28T18:50:41.0000000+00:00</time></trkpt><trkpt lat="63.97241592" lon="-21.95231247"><ele>131.4</ele><time>2012-07-28T18:50:46.0000000+00:00</time></trkpt><trkpt lat="63.97253037" lon="-21.95238304"><ele>131.6</ele><time>2012-07-28T18:50:51.0000000+00:00</time></trkpt><trkpt lat="63.97264481" lon="-21.9524498"><ele>131.3</ele><time>2012-07-28T18:50:56.0000000+00:00</time></trkpt><trkpt lat="63.97277069" lon="-21.95248985"><ele>131.8</ele><time>2012-07-28T18:51:01.0000000+00:00</time></trkpt><trkpt lat="63.97290421" lon="-21.95255661"><ele>131.5</ele><time>2012-07-28T18:51:06.0000000+00:00</time></trkpt><trkpt lat="63.97303772" lon="-21.95265007"><ele>131.7</ele><time>2012-07-28T18:51:11.0000000+00:00</time></trkpt><trkpt lat="63.97315216" lon="-21.95272636"><ele>131.7</ele><time>2012-07-28T18:51:16.0000000+00:00</time></trkpt><trkpt lat="63.97328568" lon="-21.95277214"><ele>131.2</ele><time>2012-07-28T18:51:21.0000000+00:00</time></trkpt><trkpt lat="63.97341156" lon="-21.95282364"><ele>131.0</ele><time>2012-07-28T18:51:26.0000000+00:00</time></trkpt><trkpt lat="63.97352982" lon="-21.95288467"><ele>131.0</ele><time>2012-07-28T18:51:31.0000000+00:00</time></trkpt><trkpt lat="63.97364426" lon="-21.9529438"><ele>130.7</ele><time>2012-07-28T18:51:36.0000000+00:00</time></trkpt><trkpt lat="63.97377777" lon="-21.95299149"><ele>130.1</ele><time>2012-07-28T18:51:41.0000000+00:00</time></trkpt><trkpt lat="63.97395325" lon="-21.95301628"><ele>129.1</ele><time>2012-07-28T18:51:46.0000000+00:00</time></trkpt><trkpt lat="63.9742012" lon="-21.95300293"><ele>127.3</ele><time>2012-07-28T18:51:51.0000000+00:00</time></trkpt><trkpt lat="63.97452927" lon="-21.95292854"><ele>125.9</ele><time>2012-07-28T18:51:56.0000000+00:00</time></trkpt><trkpt lat="63.97486496" lon="-21.95281792"><ele>126.3</ele><time>2012-07-28T18:52:01.0000000+00:00</time></trkpt><trkpt lat="63.97512436" lon="-21.95272446"><ele>127.9</ele><time>2012-07-28T18:52:06.0000000+00:00</time></trkpt><trkpt lat="63.97529602" lon="-21.95265007"><ele>128.9</ele><time>2012-07-28T18:52:11.0000000+00:00</time></trkpt><trkpt lat="63.97546768" lon="-21.95258522"><ele>129.6</ele><time>2012-07-28T18:52:16.0000000+00:00</time></trkpt><trkpt lat="63.97564697" lon="-21.95251846"><ele>130.0</ele><time>2012-07-28T18:52:21.0000000+00:00</time></trkpt><trkpt lat="63.97580338" lon="-21.95248795"><ele>130.3</ele><time>2012-07-28T18:52:26.0000000+00:00</time></trkpt><trkpt lat="63.97592545" lon="-21.9524498"><ele>129.9</ele><time>2012-07-28T18:52:31.0000000+00:00</time></trkpt><trkpt lat="63.97606659" lon="-21.9523983"><ele>129.8</ele><time>2012-07-28T18:52:36.0000000+00:00</time></trkpt><trkpt lat="63.97622681" lon="-21.95234299"><ele>129.3</ele><time>2012-07-28T18:52:41.0000000+00:00</time></trkpt><trkpt lat="63.97637177" lon="-21.9522934"><ele>129.0</ele><time>2012-07-28T18:52:46.0000000+00:00</time></trkpt><trkpt lat="63.97652435" lon="-21.95222855"><ele>128.6</ele><time>2012-07-28T18:52:51.0000000+00:00</time></trkpt><trkpt lat="63.97669601" lon="-21.95217514"><ele>128.0</ele><time>2012-07-28T18:52:56.0000000+00:00</time></trkpt><trkpt lat="63.97689438" lon="-21.9521122"><ele>127.4</ele><time>2012-07-28T18:53:01.0000000+00:00</time></trkpt><trkpt lat="63.97712326" lon="-21.95205116"><ele>126.0</ele><time>2012-07-28T18:53:06.0000000+00:00</time></trkpt><trkpt lat="63.97737503" lon="-21.95194626"><ele>125.3</ele><time>2012-07-28T18:53:11.0000000+00:00</time></trkpt><trkpt lat="63.97760773" lon="-21.95186806"><ele>125.0</ele><time>2012-07-28T18:53:16.0000000+00:00</time></trkpt><trkpt lat="63.97783279" lon="-21.95178986"><ele>124.1</ele><time>2012-07-28T18:53:21.0000000+00:00</time></trkpt><trkpt lat="63.97805405" lon="-21.95167923"><ele>123.4</ele><time>2012-07-28T18:53:26.0000000+00:00</time></trkpt><trkpt lat="63.97828293" lon="-21.95161438"><ele>123.6</ele><time>2012-07-28T18:53:31.0000000+00:00</time></trkpt><trkpt lat="63.9785347" lon="-21.95150757"><ele>122.2</ele><time>2012-07-28T18:53:36.0000000+00:00</time></trkpt><trkpt lat="63.97880554" lon="-21.95142746"><ele>120.3</ele><time>2012-07-28T18:53:41.0000000+00:00</time></trkpt><trkpt lat="63.97909546" lon="-21.95131302"><ele>118.5</ele><time>2012-07-28T18:53:46.0000000+00:00</time></trkpt><trkpt lat="63.97940826" lon="-21.95122528"><ele>117.3</ele><time>2012-07-28T18:53:51.0000000+00:00</time></trkpt><trkpt lat="63.97972107" lon="-21.95113945"><ele>117.4</ele><time>2012-07-28T18:53:56.0000000+00:00</time></trkpt><trkpt lat="63.98001099" lon="-21.95105362"><ele>117.8</ele><time>2012-07-28T18:54:01.0000000+00:00</time></trkpt><trkpt lat="63.98027039" lon="-21.95097733"><ele>117.9</ele><time>2012-07-28T18:54:06.0000000+00:00</time></trkpt><trkpt lat="63.98051453" lon="-21.95091248"><ele>117.3</ele><time>2012-07-28T18:54:11.0000000+00:00</time></trkpt><trkpt lat="63.98075867" lon="-21.95080948"><ele>116.3</ele><time>2012-07-28T18:54:16.0000000+00:00</time></trkpt><trkpt lat="63.98104858" lon="-21.95072174"><ele>115.1</ele><time>2012-07-28T18:54:21.0000000+00:00</time></trkpt><trkpt lat="63.98136139" lon="-21.95060158"><ele>113.3</ele><time>2012-07-28T18:54:26.0000000+00:00</time></trkpt><trkpt lat="63.98168182" lon="-21.9505024"><ele>111.8</ele><time>2012-07-28T18:54:31.0000000+00:00</time></trkpt><trkpt lat="63.98196411" lon="-21.95042229"><ele>111.8</ele><time>2012-07-28T18:54:36.0000000+00:00</time></trkpt><trkpt lat="63.98221588" lon="-21.95032311"><ele>112.1</ele><time>2012-07-28T18:54:41.0000000+00:00</time></trkpt><trkpt lat="63.98247528" lon="-21.95023155"><ele>112.0</ele><time>2012-07-28T18:54:46.0000000+00:00</time></trkpt><trkpt lat="63.98273087" lon="-21.95015144"><ele>111.4</ele><time>2012-07-28T18:54:51.0000000+00:00</time></trkpt><trkpt lat="63.98298645" lon="-21.95006561"><ele>110.3</ele><time>2012-07-28T18:54:56.0000000+00:00</time></trkpt><trkpt lat="63.98327255" lon="-21.94997788"><ele>109.9</ele><time>2012-07-28T18:55:01.0000000+00:00</time></trkpt><trkpt lat="63.98355866" lon="-21.94988442"><ele>109.2</ele><time>2012-07-28T18:55:06.0000000+00:00</time></trkpt><trkpt lat="63.98383331" lon="-21.94978905"><ele>108.4</ele><time>2012-07-28T18:55:11.0000000+00:00</time></trkpt><trkpt lat="63.98408508" lon="-21.94970894"><ele>107.6</ele><time>2012-07-28T18:55:16.0000000+00:00</time></trkpt><trkpt lat="63.98432922" lon="-21.94963074"><ele>107.0</ele><time>2012-07-28T18:55:21.0000000+00:00</time></trkpt><trkpt lat="63.98460388" lon="-21.94953919"><ele>106.5</ele><time>2012-07-28T18:55:26.0000000+00:00</time></trkpt><trkpt lat="63.98489761" lon="-21.94945145"><ele>106.2</ele><time>2012-07-28T18:55:31.0000000+00:00</time></trkpt><trkpt lat="63.98519898" lon="-21.94935417"><ele>105.4</ele><time>2012-07-28T18:55:36.0000000+00:00</time></trkpt><trkpt lat="63.98549271" lon="-21.94924736"><ele>105.0</ele><time>2012-07-28T18:55:41.0000000+00:00</time></trkpt><trkpt lat="63.98574829" lon="-21.94915772"><ele>104.2</ele><time>2012-07-28T18:55:46.0000000+00:00</time></trkpt><trkpt lat="63.98601532" lon="-21.94908714"><ele>104.0</ele><time>2012-07-28T18:55:51.0000000+00:00</time></trkpt><trkpt lat="63.98628235" lon="-21.94899178"><ele>104.0</ele><time>2012-07-28T18:55:56.0000000+00:00</time></trkpt><trkpt lat="63.98656464" lon="-21.94889069"><ele>104.1</ele><time>2012-07-28T18:56:01.0000000+00:00</time></trkpt><trkpt lat="63.98681641" lon="-21.94880486"><ele>104.0</ele><time>2012-07-28T18:56:06.0000000+00:00</time></trkpt><trkpt lat="63.98703766" lon="-21.94873238"><ele>104.1</ele><time>2012-07-28T18:56:11.0000000+00:00</time></trkpt><trkpt lat="63.98727799" lon="-21.9486599"><ele>104.3</ele><time>2012-07-28T18:56:16.0000000+00:00</time></trkpt><trkpt lat="63.98754501" lon="-21.94858742"><ele>104.4</ele><time>2012-07-28T18:56:21.0000000+00:00</time></trkpt><trkpt lat="63.98780823" lon="-21.94849587"><ele>104.3</ele><time>2012-07-28T18:56:26.0000000+00:00</time></trkpt><trkpt lat="63.9880867" lon="-21.94840431"><ele>104.5</ele><time>2012-07-28T18:56:31.0000000+00:00</time></trkpt><trkpt lat="63.98835373" lon="-21.94831848"><ele>104.2</ele><time>2012-07-28T18:56:36.0000000+00:00</time></trkpt><trkpt lat="63.98859024" lon="-21.94823265"><ele>103.4</ele><time>2012-07-28T18:56:41.0000000+00:00</time></trkpt><trkpt lat="63.98882675" lon="-21.94814873"><ele>103.2</ele><time>2012-07-28T18:56:46.0000000+00:00</time></trkpt><trkpt lat="63.98903656" lon="-21.94807625"><ele>102.9</ele><time>2012-07-28T18:56:51.0000000+00:00</time></trkpt><trkpt lat="63.98926163" lon="-21.94801521"><ele>104.2</ele><time>2012-07-28T18:56:56.0000000+00:00</time></trkpt><trkpt lat="63.98945618" lon="-21.94796181"><ele>104.2</ele><time>2012-07-28T18:57:01.0000000+00:00</time></trkpt><trkpt lat="63.9896431" lon="-21.94790649"><ele>104.3</ele><time>2012-07-28T18:57:06.0000000+00:00</time></trkpt><trkpt lat="63.98985672" lon="-21.94784737"><ele>103.9</ele><time>2012-07-28T18:57:11.0000000+00:00</time></trkpt><trkpt lat="63.9900589" lon="-21.94779396"><ele>104.2</ele><time>2012-07-28T18:57:16.0000000+00:00</time></trkpt><trkpt lat="63.99025345" lon="-21.94773483"><ele>104.0</ele><time>2012-07-28T18:57:21.0000000+00:00</time></trkpt><trkpt lat="63.99045563" lon="-21.9476738"><ele>104.1</ele><time>2012-07-28T18:57:26.0000000+00:00</time></trkpt><trkpt lat="63.99065399" lon="-21.94759941"><ele>104.0</ele><time>2012-07-28T18:57:31.0000000+00:00</time></trkpt><trkpt lat="63.99084854" lon="-21.94755554"><ele>103.7</ele><time>2012-07-28T18:57:36.0000000+00:00</time></trkpt><trkpt lat="63.99104691" lon="-21.94749451"><ele>103.4</ele><time>2012-07-28T18:57:41.0000000+00:00</time></trkpt><trkpt lat="63.99125671" lon="-21.94739533"><ele>103.5</ele><time>2012-07-28T18:57:46.0000000+00:00</time></trkpt><trkpt lat="63.99148941" lon="-21.94731903"><ele>102.1</ele><time>2012-07-28T18:57:51.0000000+00:00</time></trkpt><trkpt lat="63.99175644" lon="-21.94722748"><ele>101.3</ele><time>2012-07-28T18:57:56.0000000+00:00</time></trkpt><trkpt lat="63.99203491" lon="-21.94715691"><ele>100.7</ele><time>2012-07-28T18:58:01.0000000+00:00</time></trkpt><trkpt lat="63.99230576" lon="-21.947052"><ele>100.6</ele><time>2012-07-28T18:58:06.0000000+00:00</time></trkpt><trkpt lat="63.99256134" lon="-21.94697571"><ele>100.2</ele><time>2012-07-28T18:58:11.0000000+00:00</time></trkpt><trkpt lat="63.99280548" lon="-21.94690132"><ele>99.7</ele><time>2012-07-28T18:58:16.0000000+00:00</time></trkpt><trkpt lat="63.99303818" lon="-21.94680786"><ele>99.4</ele><time>2012-07-28T18:58:21.0000000+00:00</time></trkpt><trkpt lat="63.99328613" lon="-21.94672775"><ele>99.0</ele><time>2012-07-28T18:58:26.0000000+00:00</time></trkpt><trkpt lat="63.99353409" lon="-21.94665718"><ele>98.4</ele><time>2012-07-28T18:58:31.0000000+00:00</time></trkpt><trkpt lat="63.99380112" lon="-21.94655991"><ele>97.7</ele><time>2012-07-28T18:58:36.0000000+00:00</time></trkpt><trkpt lat="63.99409103" lon="-21.94645882"><ele>96.2</ele><time>2012-07-28T18:58:41.0000000+00:00</time></trkpt><trkpt lat="63.99440384" lon="-21.94634819"><ele>95.1</ele><time>2012-07-28T18:58:46.0000000+00:00</time></trkpt><trkpt lat="63.99472046" lon="-21.94625282"><ele>93.7</ele><time>2012-07-28T18:58:51.0000000+00:00</time></trkpt><trkpt lat="63.99505997" lon="-21.94614792"><ele>93.2</ele><time>2012-07-28T18:58:56.0000000+00:00</time></trkpt><trkpt lat="63.99539185" lon="-21.9460125"><ele>92.6</ele><time>2012-07-28T18:59:01.0000000+00:00</time></trkpt><trkpt lat="63.99567413" lon="-21.94592667"><ele>94.0</ele><time>2012-07-28T18:59:06.0000000+00:00</time></trkpt><trkpt lat="63.99589539" lon="-21.94587135"><ele>94.8</ele><time>2012-07-28T18:59:11.0000000+00:00</time></trkpt><trkpt lat="63.99608612" lon="-21.94580841"><ele>94.9</ele><time>2012-07-28T18:59:16.0000000+00:00</time></trkpt><trkpt lat="63.99627686" lon="-21.94574928"><ele>95.3</ele><time>2012-07-28T18:59:21.0000000+00:00</time></trkpt><trkpt lat="63.99645996" lon="-21.9456768"><ele>95.2</ele><time>2012-07-28T18:59:26.0000000+00:00</time></trkpt><trkpt lat="63.99663925" lon="-21.94562721"><ele>95.7</ele><time>2012-07-28T18:59:31.0000000+00:00</time></trkpt><trkpt lat="63.99684525" lon="-21.94556236"><ele>94.9</ele><time>2012-07-28T18:59:36.0000000+00:00</time></trkpt><trkpt lat="63.99705887" lon="-21.94552422"><ele>95.7</ele><time>2012-07-28T18:59:41.0000000+00:00</time></trkpt><trkpt lat="63.99729157" lon="-21.94545364"><ele>96.1</ele><time>2012-07-28T18:59:46.0000000+00:00</time></trkpt><trkpt lat="63.99753952" lon="-21.94536972"><ele>95.5</ele><time>2012-07-28T18:59:51.0000000+00:00</time></trkpt><trkpt lat="63.99778748" lon="-21.94527054"><ele>95.0</ele><time>2012-07-28T18:59:56.0000000+00:00</time></trkpt><trkpt lat="63.99802399" lon="-21.94517136"><ele>94.4</ele><time>2012-07-28T19:00:01.0000000+00:00</time></trkpt><trkpt lat="63.99828339" lon="-21.94506645"><ele>92.8</ele><time>2012-07-28T19:00:06.0000000+00:00</time></trkpt><trkpt lat="63.99856567" lon="-21.94497681"><ele>92.8</ele><time>2012-07-28T19:00:11.0000000+00:00</time></trkpt><trkpt lat="63.99885559" lon="-21.94491196"><ele>93.1</ele><time>2012-07-28T19:00:16.0000000+00:00</time></trkpt><trkpt lat="63.99914932" lon="-21.94481659"><ele>92.6</ele><time>2012-07-28T19:00:21.0000000+00:00</time></trkpt><trkpt lat="63.99945831" lon="-21.94471932"><ele>92.9</ele><time>2012-07-28T19:00:26.0000000+00:00</time></trkpt><trkpt lat="63.99974442" lon="-21.94463348"><ele>93.9</ele><time>2012-07-28T19:00:31.0000000+00:00</time></trkpt><trkpt lat="64.00002289" lon="-21.94452477"><ele>93.9</ele><time>2012-07-28T19:00:36.0000000+00:00</time></trkpt><trkpt lat="64.00027466" lon="-21.94444275"><ele>95.7</ele><time>2012-07-28T19:00:41.0000000+00:00</time></trkpt><trkpt lat="64.00051117" lon="-21.94436646"><ele>95.6</ele><time>2012-07-28T19:00:46.0000000+00:00</time></trkpt><trkpt lat="64.00075531" lon="-21.94430924"><ele>94.9</ele><time>2012-07-28T19:00:51.0000000+00:00</time></trkpt><trkpt lat="64.00101471" lon="-21.94421196"><ele>94.3</ele><time>2012-07-28T19:00:56.0000000+00:00</time></trkpt><trkpt lat="64.00124359" lon="-21.94412041"><ele>93.8</ele><time>2012-07-28T19:01:01.0000000+00:00</time></trkpt><trkpt lat="64.00148773" lon="-21.94404602"><ele>93.5</ele><time>2012-07-28T19:01:06.0000000+00:00</time></trkpt><trkpt lat="64.00172424" lon="-21.94396782"><ele>93.1</ele><time>2012-07-28T19:01:11.0000000+00:00</time></trkpt><trkpt lat="64.00196075" lon="-21.94388199"><ele>92.8</ele><time>2012-07-28T19:01:16.0000000+00:00</time></trkpt><trkpt lat="64.00221252" lon="-21.94381142"><ele>92.8</ele><time>2012-07-28T19:01:21.0000000+00:00</time></trkpt><trkpt lat="64.00244904" lon="-21.94373703"><ele>93.9</ele><time>2012-07-28T19:01:26.0000000+00:00</time></trkpt><trkpt lat="64.00268555" lon="-21.94366264"><ele>94.2</ele><time>2012-07-28T19:01:31.0000000+00:00</time></trkpt><trkpt lat="64.00292969" lon="-21.94357872"><ele>93.5</ele><time>2012-07-28T19:01:36.0000000+00:00</time></trkpt><trkpt lat="64.00317383" lon="-21.94351196"><ele>94.0</ele><time>2012-07-28T19:01:41.0000000+00:00</time></trkpt><trkpt lat="64.00343323" lon="-21.94343567"><ele>93.5</ele><time>2012-07-28T19:01:46.0000000+00:00</time></trkpt><trkpt lat="64.00370789" lon="-21.94333839"><ele>91.3</ele><time>2012-07-28T19:01:51.0000000+00:00</time></trkpt><trkpt lat="64.00400543" lon="-21.94325256"><ele>91.5</ele><time>2012-07-28T19:01:56.0000000+00:00</time></trkpt><trkpt lat="64.00428772" lon="-21.9431572"><ele>91.4</ele><time>2012-07-28T19:02:01.0000000+00:00</time></trkpt><trkpt lat="64.00456238" lon="-21.94305801"><ele>91.5</ele><time>2012-07-28T19:02:06.0000000+00:00</time></trkpt><trkpt lat="64.00485992" lon="-21.94295692"><ele>91.4</ele><time>2012-07-28T19:02:11.0000000+00:00</time></trkpt><trkpt lat="64.0051651" lon="-21.94286537"><ele>91.3</ele><time>2012-07-28T19:02:16.0000000+00:00</time></trkpt><trkpt lat="64.00546265" lon="-21.94277"><ele>91.1</ele><time>2012-07-28T19:02:21.0000000+00:00</time></trkpt><trkpt lat="64.00572968" lon="-21.94268608"><ele>91.4</ele><time>2012-07-28T19:02:26.0000000+00:00</time></trkpt><trkpt lat="64.00597382" lon="-21.94258118"><ele>89.7</ele><time>2012-07-28T19:02:31.0000000+00:00</time></trkpt><trkpt lat="64.00621033" lon="-21.94250298"><ele>89.7</ele><time>2012-07-28T19:02:36.0000000+00:00</time></trkpt><trkpt lat="64.00644684" lon="-21.94242477"><ele>88.5</ele><time>2012-07-28T19:02:41.0000000+00:00</time></trkpt><trkpt lat="64.00668335" lon="-21.9423542"><ele>88.2</ele><time>2012-07-28T19:02:46.0000000+00:00</time></trkpt><trkpt lat="64.00696564" lon="-21.94225311"><ele>87.0</ele><time>2012-07-28T19:02:51.0000000+00:00</time></trkpt><trkpt lat="64.00728607" lon="-21.94213486"><ele>85.2</ele><time>2012-07-28T19:02:56.0000000+00:00</time></trkpt><trkpt lat="64.0076294" lon="-21.94202042"><ele>84.5</ele><time>2012-07-28T19:03:01.0000000+00:00</time></trkpt><trkpt lat="64.00800324" lon="-21.94189644"><ele>83.7</ele><time>2012-07-28T19:03:06.0000000+00:00</time></trkpt><trkpt lat="64.00837708" lon="-21.94176483"><ele>83.5</ele><time>2012-07-28T19:03:11.0000000+00:00</time></trkpt><trkpt lat="64.00872803" lon="-21.94165039"><ele>84.1</ele><time>2012-07-28T19:03:16.0000000+00:00</time></trkpt><trkpt lat="64.00905609" lon="-21.94158363"><ele>85.2</ele><time>2012-07-28T19:03:21.0000000+00:00</time></trkpt><trkpt lat="64.00933075" lon="-21.94159126"><ele>85.9</ele><time>2012-07-28T19:03:26.0000000+00:00</time></trkpt><trkpt lat="64.00960541" lon="-21.94162941"><ele>86.2</ele><time>2012-07-28T19:03:31.0000000+00:00</time></trkpt><trkpt lat="64.00986481" lon="-21.94169617"><ele>85.9</ele><time>2012-07-28T19:03:36.0000000+00:00</time></trkpt><trkpt lat="64.01009369" lon="-21.94178772"><ele>85.7</ele><time>2012-07-28T19:03:41.0000000+00:00</time></trkpt><trkpt lat="64.01033783" lon="-21.94192696"><ele>85.9</ele><time>2012-07-28T19:03:46.0000000+00:00</time></trkpt><trkpt lat="64.01060486" lon="-21.94211769"><ele>85.3</ele><time>2012-07-28T19:03:51.0000000+00:00</time></trkpt><trkpt lat="64.01086426" lon="-21.9423523"><ele>84.7</ele><time>2012-07-28T19:03:56.0000000+00:00</time></trkpt><trkpt lat="64.01112366" lon="-21.94265175"><ele>83.7</ele><time>2012-07-28T19:04:01.0000000+00:00</time></trkpt><trkpt lat="64.01138306" lon="-21.94301033"><ele>82.7</ele><time>2012-07-28T19:04:06.0000000+00:00</time></trkpt><trkpt lat="64.01166534" lon="-21.94338989"><ele>82.1</ele><time>2012-07-28T19:04:11.0000000+00:00</time></trkpt><trkpt lat="64.01197815" lon="-21.94379807"><ele>79.8</ele><time>2012-07-28T19:04:16.0000000+00:00</time></trkpt><trkpt lat="64.01230621" lon="-21.94422913"><ele>78.3</ele><time>2012-07-28T19:04:21.0000000+00:00</time></trkpt><trkpt lat="64.01264954" lon="-21.94467735"><ele>77.5</ele><time>2012-07-28T19:04:26.0000000+00:00</time></trkpt><trkpt lat="64.01300049" lon="-21.94514275"><ele>77.2</ele><time>2012-07-28T19:04:31.0000000+00:00</time></trkpt><trkpt lat="64.01332855" lon="-21.94557762"><ele>77.7</ele><time>2012-07-28T19:04:36.0000000+00:00</time></trkpt><trkpt lat="64.01363373" lon="-21.94597435"><ele>76.8</ele><time>2012-07-28T19:04:41.0000000+00:00</time></trkpt><trkpt lat="64.0139389" lon="-21.94636536"><ele>75.6</ele><time>2012-07-28T19:04:46.0000000+00:00</time></trkpt><trkpt lat="64.01423645" lon="-21.94674873"><ele>74.8</ele><time>2012-07-28T19:04:51.0000000+00:00</time></trkpt><trkpt lat="64.01454163" lon="-21.94716072"><ele>74.4</ele><time>2012-07-28T19:04:56.0000000+00:00</time></trkpt><trkpt lat="64.0148468" lon="-21.94754219"><ele>73.4</ele><time>2012-07-28T19:05:01.0000000+00:00</time></trkpt><trkpt lat="64.01514435" lon="-21.94793892"><ele>72.3</ele><time>2012-07-28T19:05:06.0000000+00:00</time></trkpt><trkpt lat="64.01543427" lon="-21.94832039"><ele>71.7</ele><time>2012-07-28T19:05:11.0000000+00:00</time></trkpt><trkpt lat="64.01570129" lon="-21.94867134"><ele>71.4</ele><time>2012-07-28T19:05:16.0000000+00:00</time></trkpt><trkpt lat="64.01596832" lon="-21.94902992"><ele>71.4</ele><time>2012-07-28T19:05:21.0000000+00:00</time></trkpt><trkpt lat="64.01622772" lon="-21.94935226"><ele>71.2</ele><time>2012-07-28T19:05:26.0000000+00:00</time></trkpt><trkpt lat="64.01646423" lon="-21.94964981"><ele>70.9</ele><time>2012-07-28T19:05:31.0000000+00:00</time></trkpt><trkpt lat="64.01667023" lon="-21.94993973"><ele>70.8</ele><time>2012-07-28T19:05:36.0000000+00:00</time></trkpt><trkpt lat="64.01686096" lon="-21.95020294"><ele>73.0</ele><time>2012-07-28T19:05:41.0000000+00:00</time></trkpt><trkpt lat="64.01704407" lon="-21.95044518"><ele>73.6</ele><time>2012-07-28T19:05:46.0000000+00:00</time></trkpt><trkpt lat="64.01722717" lon="-21.95068932"><ele>73.2</ele><time>2012-07-28T19:05:51.0000000+00:00</time></trkpt><trkpt lat="64.01737976" lon="-21.95089912"><ele>72.5</ele><time>2012-07-28T19:05:56.0000000+00:00</time></trkpt><trkpt lat="64.0175705" lon="-21.95113373"><ele>72.5</ele><time>2012-07-28T19:06:01.0000000+00:00</time></trkpt><trkpt lat="64.01777649" lon="-21.9513855"><ele>72.4</ele><time>2012-07-28T19:06:06.0000000+00:00</time></trkpt><trkpt lat="64.01797485" lon="-21.9516449"><ele>71.3</ele><time>2012-07-28T19:06:11.0000000+00:00</time></trkpt><trkpt lat="64.01816559" lon="-21.95189858"><ele>70.8</ele><time>2012-07-28T19:06:16.0000000+00:00</time></trkpt><trkpt lat="64.01837158" lon="-21.95216942"><ele>69.9</ele><time>2012-07-28T19:06:21.0000000+00:00</time></trkpt><trkpt lat="64.01858521" lon="-21.9524498"><ele>69.5</ele><time>2012-07-28T19:06:26.0000000+00:00</time></trkpt><trkpt lat="64.01880646" lon="-21.95275688"><ele>68.9</ele><time>2012-07-28T19:06:31.0000000+00:00</time></trkpt><trkpt lat="64.01902771" lon="-21.95304298"><ele>68.7</ele><time>2012-07-28T19:06:36.0000000+00:00</time></trkpt><trkpt lat="64.0192337" lon="-21.9533062"><ele>67.2</ele><time>2012-07-28T19:06:41.0000000+00:00</time></trkpt><trkpt lat="64.01942444" lon="-21.95356369"><ele>67.2</ele><time>2012-07-28T19:06:46.0000000+00:00</time></trkpt><trkpt lat="64.01961517" lon="-21.95379639"><ele>66.6</ele><time>2012-07-28T19:06:51.0000000+00:00</time></trkpt><trkpt lat="64.01979065" lon="-21.95402527"><ele>66.1</ele><time>2012-07-28T19:06:56.0000000+00:00</time></trkpt><trkpt lat="64.01997376" lon="-21.95426559"><ele>65.9</ele><time>2012-07-28T19:07:01.0000000+00:00</time></trkpt><trkpt lat="64.02017212" lon="-21.95450211"><ele>65.8</ele><time>2012-07-28T19:07:06.0000000+00:00</time></trkpt><trkpt lat="64.02038574" lon="-21.95478058"><ele>65.2</ele><time>2012-07-28T19:07:11.0000000+00:00</time></trkpt><trkpt lat="64.02063751" lon="-21.95511246"><ele>64.2</ele><time>2012-07-28T19:07:16.0000000+00:00</time></trkpt><trkpt lat="64.02090454" lon="-21.9554615"><ele>63.4</ele><time>2012-07-28T19:07:21.0000000+00:00</time></trkpt><trkpt lat="64.02117157" lon="-21.95580101"><ele>63.2</ele><time>2012-07-28T19:07:26.0000000+00:00</time></trkpt><trkpt lat="64.02139282" lon="-21.95611382"><ele>62.8</ele><time>2012-07-28T19:07:31.0000000+00:00</time></trkpt><trkpt lat="64.0216217" lon="-21.95638847"><ele>63.0</ele><time>2012-07-28T19:07:36.0000000+00:00</time></trkpt><trkpt lat="64.0218277" lon="-21.95667458"><ele>62.5</ele><time>2012-07-28T19:07:41.0000000+00:00</time></trkpt><trkpt lat="64.02202606" lon="-21.95692825"><ele>62.0</ele><time>2012-07-28T19:07:46.0000000+00:00</time></trkpt><trkpt lat="64.02223969" lon="-21.95721436"><ele>61.8</ele><time>2012-07-28T19:07:51.0000000+00:00</time></trkpt><trkpt lat="64.02245331" lon="-21.95749283"><ele>61.8</ele><time>2012-07-28T19:07:56.0000000+00:00</time></trkpt><trkpt lat="64.02265167" lon="-21.95774651"><ele>62.3</ele><time>2012-07-28T19:08:01.0000000+00:00</time></trkpt><trkpt lat="64.02285004" lon="-21.95800972"><ele>62.8</ele><time>2012-07-28T19:08:06.0000000+00:00</time></trkpt><trkpt lat="64.02303314" lon="-21.95824814"><ele>62.6</ele><time>2012-07-28T19:08:11.0000000+00:00</time></trkpt><trkpt lat="64.02321625" lon="-21.95848274"><ele>62.7</ele><time>2012-07-28T19:08:16.0000000+00:00</time></trkpt><trkpt lat="64.02339935" lon="-21.95872688"><ele>62.6</ele><time>2012-07-28T19:08:21.0000000+00:00</time></trkpt><trkpt lat="64.02358246" lon="-21.95897675"><ele>61.6</ele><time>2012-07-28T19:08:26.0000000+00:00</time></trkpt><trkpt lat="64.02380371" lon="-21.95927048"><ele>60.9</ele><time>2012-07-28T19:08:31.0000000+00:00</time></trkpt><trkpt lat="64.02407074" lon="-21.95961571"><ele>59.1</ele><time>2012-07-28T19:08:36.0000000+00:00</time></trkpt><trkpt lat="64.02437592" lon="-21.96001434"><ele>57.3</ele><time>2012-07-28T19:08:41.0000000+00:00</time></trkpt><trkpt lat="64.02470398" lon="-21.96046257"><ele>56.2</ele><time>2012-07-28T19:08:46.0000000+00:00</time></trkpt><trkpt lat="64.02503204" lon="-21.96088219"><ele>56.0</ele><time>2012-07-28T19:08:51.0000000+00:00</time></trkpt><trkpt lat="64.02532196" lon="-21.96125221"><ele>56.6</ele><time>2012-07-28T19:08:56.0000000+00:00</time></trkpt><trkpt lat="64.02559662" lon="-21.96158218"><ele>56.9</ele><time>2012-07-28T19:09:01.0000000+00:00</time></trkpt><trkpt lat="64.02584076" lon="-21.96190643"><ele>56.5</ele><time>2012-07-28T19:09:06.0000000+00:00</time></trkpt><trkpt lat="64.02603912" lon="-21.96217156"><ele>56.0</ele><time>2012-07-28T19:09:11.0000000+00:00</time></trkpt><trkpt lat="64.02622986" lon="-21.9624157"><ele>56.5</ele><time>2012-07-28T19:09:16.0000000+00:00</time></trkpt><trkpt lat="64.02638245" lon="-21.96263504"><ele>56.7</ele><time>2012-07-28T19:09:21.0000000+00:00</time></trkpt><trkpt lat="64.02651215" lon="-21.96281815"><ele>57.1</ele><time>2012-07-28T19:09:26.0000000+00:00</time></trkpt><trkpt lat="64.02667999" lon="-21.96303368"><ele>57.1</ele><time>2012-07-28T19:09:31.0000000+00:00</time></trkpt><trkpt lat="64.02684784" lon="-21.96325493"><ele>56.2</ele><time>2012-07-28T19:09:36.0000000+00:00</time></trkpt><trkpt lat="64.02702332" lon="-21.96347809"><ele>55.7</ele><time>2012-07-28T19:09:41.0000000+00:00</time></trkpt><trkpt lat="64.02719116" lon="-21.96370125"><ele>55.3</ele><time>2012-07-28T19:09:46.0000000+00:00</time></trkpt><trkpt lat="64.02736664" lon="-21.96393585"><ele>55.1</ele><time>2012-07-28T19:09:51.0000000+00:00</time></trkpt><trkpt lat="64.02754974" lon="-21.96416664"><ele>54.9</ele><time>2012-07-28T19:09:56.0000000+00:00</time></trkpt><trkpt lat="64.02774811" lon="-21.96442604"><ele>54.6</ele><time>2012-07-28T19:10:01.0000000+00:00</time></trkpt><trkpt lat="64.0279541" lon="-21.96469879"><ele>54.0</ele><time>2012-07-28T19:10:06.0000000+00:00</time></trkpt><trkpt lat="64.02816773" lon="-21.96499252"><ele>53.1</ele><time>2012-07-28T19:10:11.0000000+00:00</time></trkpt><trkpt lat="64.02840424" lon="-21.965271"><ele>51.8</ele><time>2012-07-28T19:10:16.0000000+00:00</time></trkpt><trkpt lat="64.02864075" lon="-21.96555901"><ele>51.3</ele><time>2012-07-28T19:10:21.0000000+00:00</time></trkpt><trkpt lat="64.02886963" lon="-21.96586609"><ele>50.7</ele><time>2012-07-28T19:10:26.0000000+00:00</time></trkpt><trkpt lat="64.02909851" lon="-21.96615028"><ele>50.3</ele><time>2012-07-28T19:10:31.0000000+00:00</time></trkpt><trkpt lat="64.0293045" lon="-21.96642685"><ele>50.0</ele><time>2012-07-28T19:10:36.0000000+00:00</time></trkpt><trkpt lat="64.02949524" lon="-21.96669769"><ele>50.2</ele><time>2012-07-28T19:10:41.0000000+00:00</time></trkpt><trkpt lat="64.02970123" lon="-21.96696091"><ele>49.3</ele><time>2012-07-28T19:10:46.0000000+00:00</time></trkpt><trkpt lat="64.0298996" lon="-21.96721458"><ele>49.8</ele><time>2012-07-28T19:10:51.0000000+00:00</time></trkpt><trkpt lat="64.03009033" lon="-21.96745873"><ele>48.9</ele><time>2012-07-28T19:10:56.0000000+00:00</time></trkpt><trkpt lat="64.03031158" lon="-21.96776581"><ele>48.5</ele><time>2012-07-28T19:11:01.0000000+00:00</time></trkpt><trkpt lat="64.03052521" lon="-21.96805573"><ele>48.2</ele><time>2012-07-28T19:11:06.0000000+00:00</time></trkpt><trkpt lat="64.03074646" lon="-21.96833801"><ele>48.9</ele><time>2012-07-28T19:11:11.0000000+00:00</time></trkpt><trkpt lat="64.03098297" lon="-21.96864891"><ele>48.9</ele><time>2012-07-28T19:11:16.0000000+00:00</time></trkpt><trkpt lat="64.03121948" lon="-21.9689579"><ele>49.4</ele><time>2012-07-28T19:11:21.0000000+00:00</time></trkpt><trkpt lat="64.03147125" lon="-21.96927643"><ele>49.2</ele><time>2012-07-28T19:11:26.0000000+00:00</time></trkpt><trkpt lat="64.03172302" lon="-21.96961594"><ele>48.2</ele><time>2012-07-28T19:11:31.0000000+00:00</time></trkpt><trkpt lat="64.03196716" lon="-21.969944"><ele>47.5</ele><time>2012-07-28T19:11:36.0000000+00:00</time></trkpt><trkpt lat="64.03220367" lon="-21.97024918"><ele>46.4</ele><time>2012-07-28T19:11:41.0000000+00:00</time></trkpt><trkpt lat="64.0324707" lon="-21.97058106"><ele>46.0</ele><time>2012-07-28T19:11:46.0000000+00:00</time></trkpt><trkpt lat="64.0327301" lon="-21.97093773"><ele>46.0</ele><time>2012-07-28T19:11:51.0000000+00:00</time></trkpt><trkpt lat="64.03301239" lon="-21.97127724"><ele>46.1</ele><time>2012-07-28T19:11:56.0000000+00:00</time></trkpt><trkpt lat="64.03326416" lon="-21.97162819"><ele>46.4</ele><time>2012-07-28T19:12:01.0000000+00:00</time></trkpt><trkpt lat="64.03352356" lon="-21.97195816"><ele>46.6</ele><time>2012-07-28T19:12:06.0000000+00:00</time></trkpt><trkpt lat="64.03375244" lon="-21.97224808"><ele>46.1</ele><time>2012-07-28T19:12:11.0000000+00:00</time></trkpt><trkpt lat="64.03393555" lon="-21.9724884"><ele>45.0</ele><time>2012-07-28T19:12:16.0000000+00:00</time></trkpt><trkpt lat="64.03413391" lon="-21.97274208"><ele>44.1</ele><time>2012-07-28T19:12:21.0000000+00:00</time></trkpt><trkpt lat="64.03433991" lon="-21.97302246"><ele>44.2</ele><time>2012-07-28T19:12:26.0000000+00:00</time></trkpt><trkpt lat="64.03456879" lon="-21.9732914"><ele>44.5</ele><time>2012-07-28T19:12:31.0000000+00:00</time></trkpt><trkpt lat="64.03479004" lon="-21.9736042"><ele>44.0</ele><time>2012-07-28T19:12:36.0000000+00:00</time></trkpt><trkpt lat="64.03502655" lon="-21.97390556"><ele>42.9</ele><time>2012-07-28T19:12:41.0000000+00:00</time></trkpt><trkpt lat="64.03522492" lon="-21.97415543"><ele>41.7</ele><time>2012-07-28T19:12:46.0000000+00:00</time></trkpt><trkpt lat="64.03538513" lon="-21.9743824"><ele>41.3</ele><time>2012-07-28T19:12:51.0000000+00:00</time></trkpt><trkpt lat="64.03553009" lon="-21.97455978"><ele>39.6</ele><time>2012-07-28T19:12:56.0000000+00:00</time></trkpt><trkpt lat="64.03569794" lon="-21.97479057"><ele>39.3</ele><time>2012-07-28T19:13:01.0000000+00:00</time></trkpt><trkpt lat="64.03585815" lon="-21.97506523"><ele>39.5</ele><time>2012-07-28T19:13:06.0000000+00:00</time></trkpt><trkpt lat="64.03603363" lon="-21.97535324"><ele>39.7</ele><time>2012-07-28T19:13:11.0000000+00:00</time></trkpt><trkpt lat="64.03620148" lon="-21.97566605"><ele>39.8</ele><time>2012-07-28T19:13:16.0000000+00:00</time></trkpt><trkpt lat="64.03636169" lon="-21.97600937"><ele>39.8</ele><time>2012-07-28T19:13:21.0000000+00:00</time></trkpt><trkpt lat="64.03652954" lon="-21.97632027"><ele>38.9</ele><time>2012-07-28T19:13:26.0000000+00:00</time></trkpt><trkpt lat="64.03666687" lon="-21.97660637"><ele>38.6</ele><time>2012-07-28T19:13:31.0000000+00:00</time></trkpt><trkpt lat="64.03681183" lon="-21.97688484"><ele>38.1</ele><time>2012-07-28T19:13:36.0000000+00:00</time></trkpt><trkpt lat="64.03696442" lon="-21.97723961"><ele>37.7</ele><time>2012-07-28T19:13:41.0000000+00:00</time></trkpt><trkpt lat="64.03710938" lon="-21.97759628"><ele>37.8</ele><time>2012-07-28T19:13:46.0000000+00:00</time></trkpt><trkpt lat="64.03723908" lon="-21.97793388"><ele>37.6</ele><time>2012-07-28T19:13:51.0000000+00:00</time></trkpt><trkpt lat="64.0373764" lon="-21.97829819"><ele>37.5</ele><time>2012-07-28T19:13:56.0000000+00:00</time></trkpt><trkpt lat="64.03751373" lon="-21.97867966"><ele>37.3</ele><time>2012-07-28T19:14:01.0000000+00:00</time></trkpt><trkpt lat="64.0376358" lon="-21.97901726"><ele>37.1</ele><time>2012-07-28T19:14:06.0000000+00:00</time></trkpt><trkpt lat="64.03773499" lon="-21.97934341"><ele>36.8</ele><time>2012-07-28T19:14:11.0000000+00:00</time></trkpt><trkpt lat="64.0378418" lon="-21.97966957"><ele>36.7</ele><time>2012-07-28T19:14:16.0000000+00:00</time></trkpt><trkpt lat="64.03793335" lon="-21.97998047"><ele>36.6</ele><time>2012-07-28T19:14:21.0000000+00:00</time></trkpt><trkpt lat="64.03803253" lon="-21.98024941"><ele>35.1</ele><time>2012-07-28T19:14:26.0000000+00:00</time></trkpt><trkpt lat="64.03813934" lon="-21.98059654"><ele>36.2</ele><time>2012-07-28T19:14:31.0000000+00:00</time></trkpt><trkpt lat="64.03829193" lon="-21.98098564"><ele>35.4</ele><time>2012-07-28T19:14:36.0000000+00:00</time></trkpt><trkpt lat="64.03845978" lon="-21.98142052"><ele>34.8</ele><time>2012-07-28T19:14:41.0000000+00:00</time></trkpt><trkpt lat="64.03863525" lon="-21.98185349"><ele>34.3</ele><time>2012-07-28T19:14:46.0000000+00:00</time></trkpt><trkpt lat="64.03881836" lon="-21.98225021"><ele>33.7</ele><time>2012-07-28T19:14:51.0000000+00:00</time></trkpt><trkpt lat="64.03899384" lon="-21.98263359"><ele>33.3</ele><time>2012-07-28T19:14:56.0000000+00:00</time></trkpt><trkpt lat="64.03914642" lon="-21.98293877"><ele>33.0</ele><time>2012-07-28T19:15:01.0000000+00:00</time></trkpt><trkpt lat="64.03931427" lon="-21.98323822"><ele>32.7</ele><time>2012-07-28T19:15:06.0000000+00:00</time></trkpt><trkpt lat="64.03948975" lon="-21.98355675"><ele>32.1</ele><time>2012-07-28T19:15:11.0000000+00:00</time></trkpt><trkpt lat="64.03963471" lon="-21.98384094"><ele>32.8</ele><time>2012-07-28T19:15:16.0000000+00:00</time></trkpt><trkpt lat="64.03977966" lon="-21.98409271"><ele>33.0</ele><time>2012-07-28T19:15:21.0000000+00:00</time></trkpt><trkpt lat="64.03996277" lon="-21.984375"><ele>32.4</ele><time>2012-07-28T19:15:26.0000000+00:00</time></trkpt><trkpt lat="64.04016876" lon="-21.98467255"><ele>31.2</ele><time>2012-07-28T19:15:31.0000000+00:00</time></trkpt><trkpt lat="64.04039002" lon="-21.98498154"><ele>31.1</ele><time>2012-07-28T19:15:36.0000000+00:00</time></trkpt><trkpt lat="64.04062653" lon="-21.98528862"><ele>30.7</ele><time>2012-07-28T19:15:41.0000000+00:00</time></trkpt><trkpt lat="64.04086304" lon="-21.98556519"><ele>30.1</ele><time>2012-07-28T19:15:46.0000000+00:00</time></trkpt><trkpt lat="64.04108429" lon="-21.98580933"><ele>29.1</ele><time>2012-07-28T19:15:51.0000000+00:00</time></trkpt><trkpt lat="64.04131317" lon="-21.98605156"><ele>28.8</ele><time>2012-07-28T19:15:56.0000000+00:00</time></trkpt><trkpt lat="64.04154968" lon="-21.98627091"><ele>28.8</ele><time>2012-07-28T19:16:01.0000000+00:00</time></trkpt><trkpt lat="64.04178619" lon="-21.98646736"><ele>29.5</ele><time>2012-07-28T19:16:06.0000000+00:00</time></trkpt><trkpt lat="64.04203033" lon="-21.98666191"><ele>29.5</ele><time>2012-07-28T19:16:11.0000000+00:00</time></trkpt><trkpt lat="64.04226685" lon="-21.98686028"><ele>28.8</ele><time>2012-07-28T19:16:16.0000000+00:00</time></trkpt><trkpt lat="64.0424881" lon="-21.98698616"><ele>28.8</ele><time>2012-07-28T19:16:21.0000000+00:00</time></trkpt><trkpt lat="64.04269409" lon="-21.98710251"><ele>28.1</ele><time>2012-07-28T19:16:26.0000000+00:00</time></trkpt><trkpt lat="64.04290772" lon="-21.98719788"><ele>27.5</ele><time>2012-07-28T19:16:31.0000000+00:00</time></trkpt><trkpt lat="64.0431366" lon="-21.98729706"><ele>27.4</ele><time>2012-07-28T19:16:36.0000000+00:00</time></trkpt><trkpt lat="64.04336548" lon="-21.98739052"><ele>26.5</ele><time>2012-07-28T19:16:41.0000000+00:00</time></trkpt><trkpt lat="64.04359436" lon="-21.98746681"><ele>25.7</ele><time>2012-07-28T19:16:46.0000000+00:00</time></trkpt><trkpt lat="64.04380035" lon="-21.98754311"><ele>25.8</ele><time>2012-07-28T19:16:51.0000000+00:00</time></trkpt><trkpt lat="64.04399109" lon="-21.98759842"><ele>25.2</ele><time>2012-07-28T19:16:56.0000000+00:00</time></trkpt><trkpt lat="64.04415894" lon="-21.98766518"><ele>25.4</ele><time>2012-07-28T19:17:01.0000000+00:00</time></trkpt><trkpt lat="64.04432678" lon="-21.98773384"><ele>25.1</ele><time>2012-07-28T19:17:06.0000000+00:00</time></trkpt><trkpt lat="64.04451752" lon="-21.98781586"><ele>24.9</ele><time>2012-07-28T19:17:11.0000000+00:00</time></trkpt><trkpt lat="64.04473114" lon="-21.98791122"><ele>24.8</ele><time>2012-07-28T19:17:16.0000000+00:00</time></trkpt><trkpt lat="64.0449295" lon="-21.98803711"><ele>24.8</ele><time>2012-07-28T19:17:21.0000000+00:00</time></trkpt><trkpt lat="64.0451355" lon="-21.98815155"><ele>24.0</ele><time>2012-07-28T19:17:26.0000000+00:00</time></trkpt><trkpt lat="64.0453186" lon="-21.98828125"><ele>24.5</ele><time>2012-07-28T19:17:31.0000000+00:00</time></trkpt><trkpt lat="64.04547882" lon="-21.98840523"><ele>24.6</ele><time>2012-07-28T19:17:36.0000000+00:00</time></trkpt><trkpt lat="64.04563904" lon="-21.98851585"><ele>24.2</ele><time>2012-07-28T19:17:41.0000000+00:00</time></trkpt><trkpt lat="64.04579926" lon="-21.98861504"><ele>24.6</ele><time>2012-07-28T19:17:46.0000000+00:00</time></trkpt><trkpt lat="64.04592133" lon="-21.98843384"><ele>25.6</ele><time>2012-07-28T19:17:51.0000000+00:00</time></trkpt><trkpt lat="64.04605866" lon="-21.98836136"><ele>25.1</ele><time>2012-07-28T19:17:56.0000000+00:00</time></trkpt><trkpt lat="64.04619598" lon="-21.98853874"><ele>24.2</ele><time>2012-07-28T19:18:01.0000000+00:00</time></trkpt><trkpt lat="64.04631805" lon="-21.9887867"><ele>23.1</ele><time>2012-07-28T19:18:06.0000000+00:00</time></trkpt><trkpt lat="64.04646301" lon="-21.98899269"><ele>22.6</ele><time>2012-07-28T19:18:11.0000000+00:00</time></trkpt><trkpt lat="64.0466156" lon="-21.98920822"><ele>21.8</ele><time>2012-07-28T19:18:16.0000000+00:00</time></trkpt><trkpt lat="64.04679871" lon="-21.98943901"><ele>20.5</ele><time>2012-07-28T19:18:21.0000000+00:00</time></trkpt><trkpt lat="64.04699707" lon="-21.98964119"><ele>19.7</ele><time>2012-07-28T19:18:26.0000000+00:00</time></trkpt><trkpt lat="64.04717255" lon="-21.98984528"><ele>19.8</ele><time>2012-07-28T19:18:31.0000000+00:00</time></trkpt><trkpt lat="64.04736328" lon="-21.99008369"><ele>18.5</ele><time>2012-07-28T19:18:36.0000000+00:00</time></trkpt><trkpt lat="64.04753876" lon="-21.99026489"><ele>17.2</ele><time>2012-07-28T19:18:41.0000000+00:00</time></trkpt><trkpt lat="64.04769135" lon="-21.99041939"><ele>18.0</ele><time>2012-07-28T19:18:46.0000000+00:00</time></trkpt><trkpt lat="64.04786682" lon="-21.99061394"><ele>17.3</ele><time>2012-07-28T19:18:51.0000000+00:00</time></trkpt><trkpt lat="64.04807282" lon="-21.99081802"><ele>16.4</ele><time>2012-07-28T19:18:56.0000000+00:00</time></trkpt><trkpt lat="64.04829407" lon="-21.99104881"><ele>17.5</ele><time>2012-07-28T19:19:01.0000000+00:00</time></trkpt><trkpt lat="64.04850006" lon="-21.9912281"><ele>17.5</ele><time>2012-07-28T19:19:06.0000000+00:00</time></trkpt><trkpt lat="64.04868317" lon="-21.99136353"><ele>17.3</ele><time>2012-07-28T19:19:11.0000000+00:00</time></trkpt><trkpt lat="64.04884338" lon="-21.99145699"><ele>17.3</ele><time>2012-07-28T19:19:16.0000000+00:00</time></trkpt><trkpt lat="64.04898834" lon="-21.99155235"><ele>17.4</ele><time>2012-07-28T19:19:21.0000000+00:00</time></trkpt><trkpt lat="64.04912567" lon="-21.991642"><ele>16.9</ele><time>2012-07-28T19:19:26.0000000+00:00</time></trkpt><trkpt lat="64.04924011" lon="-21.99172211"><ele>17.1</ele><time>2012-07-28T19:19:31.0000000+00:00</time></trkpt><trkpt lat="64.04934692" lon="-21.99179077"><ele>17.6</ele><time>2012-07-28T19:19:36.0000000+00:00</time></trkpt><trkpt lat="64.04943848" lon="-21.99185371"><ele>16.6</ele><time>2012-07-28T19:19:41.0000000+00:00</time></trkpt><trkpt lat="64.04953003" lon="-21.99188995"><ele>17.2</ele><time>2012-07-28T19:19:46.0000000+00:00</time></trkpt><trkpt lat="64.04962158" lon="-21.99196243"><ele>17.2</ele><time>2012-07-28T19:19:51.0000000+00:00</time></trkpt><trkpt lat="64.04974365" lon="-21.99204254"><ele>17.3</ele><time>2012-07-28T19:19:56.0000000+00:00</time></trkpt><trkpt lat="64.04988098" lon="-21.99215126"><ele>16.7</ele><time>2012-07-28T19:20:01.0000000+00:00</time></trkpt><trkpt lat="64.0500412" lon="-21.99231529"><ele>16.5</ele><time>2012-07-28T19:20:06.0000000+00:00</time></trkpt><trkpt lat="64.05023193" lon="-21.99256897"><ele>16.9</ele><time>2012-07-28T19:20:11.0000000+00:00</time></trkpt><trkpt lat="64.05038452" lon="-21.992836"><ele>17.5</ele><time>2012-07-28T19:20:16.0000000+00:00</time></trkpt><trkpt lat="64.05046082" lon="-21.99302864"><ele>18.4</ele><time>2012-07-28T19:20:21.0000000+00:00</time></trkpt><trkpt lat="64.05053711" lon="-21.99321365"><ele>18.8</ele><time>2012-07-28T19:20:26.0000000+00:00</time></trkpt><trkpt lat="64.05059815" lon="-21.9934597"><ele>19.7</ele><time>2012-07-28T19:20:31.0000000+00:00</time></trkpt><trkpt lat="64.05066681" lon="-21.99377441"><ele>20.4</ele><time>2012-07-28T19:20:36.0000000+00:00</time></trkpt><trkpt lat="64.05071259" lon="-21.99404717"><ele>20.5</ele><time>2012-07-28T19:20:41.0000000+00:00</time></trkpt><trkpt lat="64.05075073" lon="-21.9943161"><ele>20.4</ele><time>2012-07-28T19:20:46.0000000+00:00</time></trkpt><trkpt lat="64.05078125" lon="-21.99458122"><ele>20.2</ele><time>2012-07-28T19:20:51.0000000+00:00</time></trkpt><trkpt lat="64.05079651" lon="-21.99490356"><ele>19.9</ele><time>2012-07-28T19:20:56.0000000+00:00</time></trkpt><trkpt lat="64.05080414" lon="-21.99519539"><ele>19.2</ele><time>2012-07-28T19:21:01.0000000+00:00</time></trkpt><trkpt lat="64.05078888" lon="-21.99544716"><ele>19.3</ele><time>2012-07-28T19:21:06.0000000+00:00</time></trkpt><trkpt lat="64.05077362" lon="-21.9956646"><ele>19.7</ele><time>2012-07-28T19:21:11.0000000+00:00</time></trkpt><trkpt lat="64.05072784" lon="-21.99601936"><ele>20.2</ele><time>2012-07-28T19:21:16.0000000+00:00</time></trkpt><trkpt lat="64.05067444" lon="-21.9963665"><ele>20.6</ele><time>2012-07-28T19:21:21.0000000+00:00</time></trkpt><trkpt lat="64.05060577" lon="-21.99675369"><ele>20.2</ele><time>2012-07-28T19:21:26.0000000+00:00</time></trkpt><trkpt lat="64.05054474" lon="-21.99709511"><ele>20.5</ele><time>2012-07-28T19:21:31.0000000+00:00</time></trkpt><trkpt lat="64.05047607" lon="-21.99744797"><ele>20.7</ele><time>2012-07-28T19:21:36.0000000+00:00</time></trkpt><trkpt lat="64.05040741" lon="-21.99783135"><ele>21.0</ele><time>2012-07-28T19:21:41.0000000+00:00</time></trkpt><trkpt lat="64.05034638" lon="-21.99815178"><ele>21.2</ele><time>2012-07-28T19:21:46.0000000+00:00</time></trkpt><trkpt lat="64.05027008" lon="-21.99855232"><ele>21.5</ele><time>2012-07-28T19:21:51.0000000+00:00</time></trkpt><trkpt lat="64.05019379" lon="-21.99896622"><ele>21.4</ele><time>2012-07-28T19:21:56.0000000+00:00</time></trkpt><trkpt lat="64.05013275" lon="-21.99933243"><ele>21.6</ele><time>2012-07-28T19:22:01.0000000+00:00</time></trkpt><trkpt lat="64.05007172" lon="-21.99968529"><ele>21.5</ele><time>2012-07-28T19:22:06.0000000+00:00</time></trkpt><trkpt lat="64.04999542" lon="-22.00007248"><ele>21.8</ele><time>2012-07-28T19:22:11.0000000+00:00</time></trkpt><trkpt lat="64.04991913" lon="-22.00047112"><ele>22.2</ele><time>2012-07-28T19:22:16.0000000+00:00</time></trkpt><trkpt lat="64.0499115" lon="-22.00086975"><ele>21.6</ele><time>2012-07-28T19:22:21.0000000+00:00</time></trkpt><trkpt lat="64.04992676" lon="-22.00120735"><ele>21.2</ele><time>2012-07-28T19:22:26.0000000+00:00</time></trkpt><trkpt lat="64.04999542" lon="-22.00148773"><ele>21.1</ele><time>2012-07-28T19:22:31.0000000+00:00</time></trkpt><trkpt lat="64.0500946" lon="-22.00162125"><ele>21.6</ele><time>2012-07-28T19:22:36.0000000+00:00</time></trkpt><trkpt lat="64.0502243" lon="-22.00169373"><ele>21.1</ele><time>2012-07-28T19:22:41.0000000+00:00</time></trkpt><trkpt lat="64.05029297" lon="-22.00166893"><ele>20.8</ele><time>2012-07-28T19:22:46.0000000+00:00</time></trkpt><trkpt lat="64.05028534" lon="-22.00167084"><ele>20.8</ele><time>2012-07-28T19:22:51.0000000+00:00</time></trkpt><trkpt lat="64.05028534" lon="-22.00166893"><ele>20.8</ele><time>2012-07-28T19:22:56.0000000+00:00</time></trkpt><trkpt lat="64.05028534" lon="-22.00166702"><ele>20.8</ele><time>2012-07-28T19:23:01.0000000+00:00</time></trkpt><trkpt lat="64.05028534" lon="-22.00166893"><ele>20.8</ele><time>2012-07-28T19:23:06.0000000+00:00</time></trkpt><trkpt lat="64.05028534" lon="-22.00166702"><ele>20.6</ele><time>2012-07-28T19:23:11.0000000+00:00</time></trkpt><trkpt lat="64.05029297" lon="-22.00165749"><ele>20.6</ele><time>2012-07-28T19:23:16.0000000+00:00</time></trkpt><trkpt lat="64.05037689" lon="-22.00148773"><ele>20.3</ele><time>2012-07-28T19:23:21.0000000+00:00</time></trkpt><trkpt lat="64.05045319" lon="-22.00109673"><ele>19.8</ele><time>2012-07-28T19:23:26.0000000+00:00</time></trkpt><trkpt lat="64.05052948" lon="-22.00066376"><ele>19.8</ele><time>2012-07-28T19:23:31.0000000+00:00</time></trkpt><trkpt lat="64.05059815" lon="-22.00020409"><ele>19.7</ele><time>2012-07-28T19:23:36.0000000+00:00</time></trkpt><trkpt lat="64.05068207" lon="-21.99971581"><ele>19.5</ele><time>2012-07-28T19:23:41.0000000+00:00</time></trkpt><trkpt lat="64.05075073" lon="-21.99928284"><ele>20.0</ele><time>2012-07-28T19:23:46.0000000+00:00</time></trkpt><trkpt lat="64.05081177" lon="-21.99894524"><ele>19.8</ele><time>2012-07-28T19:23:51.0000000+00:00</time></trkpt><trkpt lat="64.05085754" lon="-21.99866676"><ele>19.5</ele><time>2012-07-28T19:23:56.0000000+00:00</time></trkpt><trkpt lat="64.05089569" lon="-21.99839973"><ele>18.0</ele><time>2012-07-28T19:24:01.0000000+00:00</time></trkpt><trkpt lat="64.0509491" lon="-21.99812508"><ele>18.9</ele><time>2012-07-28T19:24:06.0000000+00:00</time></trkpt><trkpt lat="64.05099487" lon="-21.9978447"><ele>19.4</ele><time>2012-07-28T19:24:11.0000000+00:00</time></trkpt><trkpt lat="64.05102539" lon="-21.99757576"><ele>19.0</ele><time>2012-07-28T19:24:16.0000000+00:00</time></trkpt><trkpt lat="64.05107117" lon="-21.99733353"><ele>19.0</ele><time>2012-07-28T19:24:21.0000000+00:00</time></trkpt><trkpt lat="64.05110931" lon="-21.99707031"><ele>19.1</ele><time>2012-07-28T19:24:26.0000000+00:00</time></trkpt><trkpt lat="64.05114746" lon="-21.9968338"><ele>19.3</ele><time>2012-07-28T19:24:31.0000000+00:00</time></trkpt><trkpt lat="64.05119324" lon="-21.99654198"><ele>19.4</ele><time>2012-07-28T19:24:36.0000000+00:00</time></trkpt><trkpt lat="64.05123901" lon="-21.99625206"><ele>19.3</ele><time>2012-07-28T19:24:41.0000000+00:00</time></trkpt><trkpt lat="64.05128479" lon="-21.9959507"><ele>19.2</ele><time>2012-07-28T19:24:46.0000000+00:00</time></trkpt><trkpt lat="64.05133057" lon="-21.99567032"><ele>19.0</ele><time>2012-07-28T19:24:51.0000000+00:00</time></trkpt><trkpt lat="64.05136871" lon="-21.99537849"><ele>18.7</ele><time>2012-07-28T19:24:56.0000000+00:00</time></trkpt><trkpt lat="64.05140686" lon="-21.99508667"><ele>19.0</ele><time>2012-07-28T19:25:01.0000000+00:00</time></trkpt><trkpt lat="64.05144501" lon="-21.99483872"><ele>19.2</ele><time>2012-07-28T19:25:06.0000000+00:00</time></trkpt><trkpt lat="64.05148315" lon="-21.9945755"><ele>19.3</ele><time>2012-07-28T19:25:11.0000000+00:00</time></trkpt><trkpt lat="64.05152893" lon="-21.99430847"><ele>19.1</ele><time>2012-07-28T19:25:16.0000000+00:00</time></trkpt><trkpt lat="64.05157471" lon="-21.99403"><ele>19.1</ele><time>2012-07-28T19:25:21.0000000+00:00</time></trkpt><trkpt lat="64.05161285" lon="-21.99376488"><ele>19.2</ele><time>2012-07-28T19:25:26.0000000+00:00</time></trkpt><trkpt lat="64.051651" lon="-21.99346733"><ele>19.4</ele><time>2012-07-28T19:25:31.0000000+00:00</time></trkpt><trkpt lat="64.05170441" lon="-21.99315834"><ele>19.0</ele><time>2012-07-28T19:25:36.0000000+00:00</time></trkpt><trkpt lat="64.05175018" lon="-21.99284363"><ele>19.4</ele><time>2012-07-28T19:25:41.0000000+00:00</time></trkpt><trkpt lat="64.05180359" lon="-21.99251747"><ele>19.6</ele><time>2012-07-28T19:25:46.0000000+00:00</time></trkpt><trkpt lat="64.051857" lon="-21.99217987"><ele>21.5</ele><time>2012-07-28T19:25:51.0000000+00:00</time></trkpt><trkpt lat="64.0519104" lon="-21.9918251"><ele>21.6</ele><time>2012-07-28T19:25:56.0000000+00:00</time></trkpt><trkpt lat="64.05196381" lon="-21.99145126"><ele>21.0</ele><time>2012-07-28T19:26:01.0000000+00:00</time></trkpt><trkpt lat="64.05201721" lon="-21.99111557"><ele>21.4</ele><time>2012-07-28T19:26:06.0000000+00:00</time></trkpt><trkpt lat="64.05207062" lon="-21.9907856"><ele>21.5</ele><time>2012-07-28T19:26:11.0000000+00:00</time></trkpt><trkpt lat="64.05212402" lon="-21.99045754"><ele>23.1</ele><time>2012-07-28T19:26:16.0000000+00:00</time></trkpt><trkpt lat="64.0521698" lon="-21.99011421"><ele>23.0</ele><time>2012-07-28T19:26:21.0000000+00:00</time></trkpt><trkpt lat="64.05222321" lon="-21.98976135"><ele>22.2</ele><time>2012-07-28T19:26:26.0000000+00:00</time></trkpt><trkpt lat="64.05227661" lon="-21.98940277"><ele>21.5</ele><time>2012-07-28T19:26:31.0000000+00:00</time></trkpt><trkpt lat="64.05233002" lon="-21.98905182"><ele>21.7</ele><time>2012-07-28T19:26:36.0000000+00:00</time></trkpt><trkpt lat="64.05237579" lon="-21.98873711"><ele>22.3</ele><time>2012-07-28T19:26:41.0000000+00:00</time></trkpt><trkpt lat="64.05242157" lon="-21.98842049"><ele>22.0</ele><time>2012-07-28T19:26:46.0000000+00:00</time></trkpt><trkpt lat="64.05246735" lon="-21.98808861"><ele>21.3</ele><time>2012-07-28T19:26:51.0000000+00:00</time></trkpt><trkpt lat="64.05250549" lon="-21.98776245"><ele>21.3</ele><time>2012-07-28T19:26:56.0000000+00:00</time></trkpt><trkpt lat="64.0525589" lon="-21.98744011"><ele>21.4</ele><time>2012-07-28T19:27:01.0000000+00:00</time></trkpt><trkpt lat="64.05261993" lon="-21.98714447"><ele>23.6</ele><time>2012-07-28T19:27:06.0000000+00:00</time></trkpt><trkpt lat="64.05265808" lon="-21.98685265"><ele>24.7</ele><time>2012-07-28T19:27:11.0000000+00:00</time></trkpt><trkpt lat="64.05270386" lon="-21.98656273"><ele>24.8</ele><time>2012-07-28T19:27:16.0000000+00:00</time></trkpt><trkpt lat="64.052742" lon="-21.98626137"><ele>24.4</ele><time>2012-07-28T19:27:21.0000000+00:00</time></trkpt><trkpt lat="64.05278015" lon="-21.98599815"><ele>23.8</ele><time>2012-07-28T19:27:26.0000000+00:00</time></trkpt><trkpt lat="64.0528183" lon="-21.98571968"><ele>23.8</ele><time>2012-07-28T19:27:31.0000000+00:00</time></trkpt><trkpt lat="64.05286408" lon="-21.98544502"><ele>24.0</ele><time>2012-07-28T19:27:36.0000000+00:00</time></trkpt><trkpt lat="64.05290222" lon="-21.98519707"><ele>23.9</ele><time>2012-07-28T19:27:41.0000000+00:00</time></trkpt><trkpt lat="64.05293274" lon="-21.98495293"><ele>24.2</ele><time>2012-07-28T19:27:46.0000000+00:00</time></trkpt><trkpt lat="64.05297089" lon="-21.98469734"><ele>23.8</ele><time>2012-07-28T19:27:51.0000000+00:00</time></trkpt><trkpt lat="64.05300903" lon="-21.9844265"><ele>23.5</ele><time>2012-07-28T19:27:56.0000000+00:00</time></trkpt><trkpt lat="64.05303955" lon="-21.98418236"><ele>24.0</ele><time>2012-07-28T19:28:01.0000000+00:00</time></trkpt><trkpt lat="64.0530777" lon="-21.98397064"><ele>24.5</ele><time>2012-07-28T19:28:06.0000000+00:00</time></trkpt><trkpt lat="64.05311585" lon="-21.9837513"><ele>24.3</ele><time>2012-07-28T19:28:11.0000000+00:00</time></trkpt><trkpt lat="64.05314636" lon="-21.98356628"><ele>25.2</ele><time>2012-07-28T19:28:16.0000000+00:00</time></trkpt><trkpt lat="64.05316925" lon="-21.98337936"><ele>26.6</ele><time>2012-07-28T19:28:21.0000000+00:00</time></trkpt><trkpt lat="64.0532074" lon="-21.98318481"><ele>26.3</ele><time>2012-07-28T19:28:26.0000000+00:00</time></trkpt><trkpt lat="64.05323029" lon="-21.98299408"><ele>27.1</ele><time>2012-07-28T19:28:31.0000000+00:00</time></trkpt><trkpt lat="64.05324554" lon="-21.98279762"><ele>29.1</ele><time>2012-07-28T19:28:36.0000000+00:00</time></trkpt><trkpt lat="64.05327606" lon="-21.98258781"><ele>28.7</ele><time>2012-07-28T19:28:41.0000000+00:00</time></trkpt><trkpt lat="64.05330658" lon="-21.98241425"><ele>30.9</ele><time>2012-07-28T19:28:46.0000000+00:00</time></trkpt><trkpt lat="64.05334473" lon="-21.98221207"><ele>31.1</ele><time>2012-07-28T19:28:51.0000000+00:00</time></trkpt><trkpt lat="64.05337524" lon="-21.98202324"><ele>31.8</ele><time>2012-07-28T19:28:56.0000000+00:00</time></trkpt><trkpt lat="64.05340576" lon="-21.9818325"><ele>32.6</ele><time>2012-07-28T19:29:01.0000000+00:00</time></trkpt><trkpt lat="64.05343628" lon="-21.9816227"><ele>33.6</ele><time>2012-07-28T19:29:06.0000000+00:00</time></trkpt><trkpt lat="64.0534668" lon="-21.98140717"><ele>32.4</ele><time>2012-07-28T19:29:11.0000000+00:00</time></trkpt><trkpt lat="64.05349731" lon="-21.98119354"><ele>30.1</ele><time>2012-07-28T19:29:16.0000000+00:00</time></trkpt><trkpt lat="64.05354309" lon="-21.98097038"><ele>30.7</ele><time>2012-07-28T19:29:21.0000000+00:00</time></trkpt><trkpt lat="64.05358124" lon="-21.9807415"><ele>31.4</ele><time>2012-07-28T19:29:26.0000000+00:00</time></trkpt><trkpt lat="64.05361939" lon="-21.98049545"><ele>32.5</ele><time>2012-07-28T19:29:31.0000000+00:00</time></trkpt><trkpt lat="64.05365753" lon="-21.9802742"><ele>33.0</ele><time>2012-07-28T19:29:36.0000000+00:00</time></trkpt><trkpt lat="64.05368805" lon="-21.98003388"><ele>35.6</ele><time>2012-07-28T19:29:41.0000000+00:00</time></trkpt><trkpt lat="64.0537262" lon="-21.97981644"><ele>35.9</ele><time>2012-07-28T19:29:46.0000000+00:00</time></trkpt><trkpt lat="64.05374908" lon="-21.97959518"><ele>35.4</ele><time>2012-07-28T19:29:51.0000000+00:00</time></trkpt><trkpt lat="64.05378723" lon="-21.97935677"><ele>35.1</ele><time>2012-07-28T19:29:56.0000000+00:00</time></trkpt><trkpt lat="64.05382538" lon="-21.97910309"><ele>34.3</ele><time>2012-07-28T19:30:01.0000000+00:00</time></trkpt><trkpt lat="64.05387116" lon="-21.9788456"><ele>34.8</ele><time>2012-07-28T19:30:06.0000000+00:00</time></trkpt><trkpt lat="64.05390167" lon="-21.97859001"><ele>34.8</ele><time>2012-07-28T19:30:11.0000000+00:00</time></trkpt><trkpt lat="64.05395508" lon="-21.97827339"><ele>34.6</ele><time>2012-07-28T19:30:16.0000000+00:00</time></trkpt><trkpt lat="64.05397034" lon="-21.97806168"><ele>35.6</ele><time>2012-07-28T19:30:21.0000000+00:00</time></trkpt><trkpt lat="64.05397034" lon="-21.97805405"><ele>36.9</ele><time>2012-07-28T19:30:26.0000000+00:00</time></trkpt><trkpt lat="64.05397034" lon="-21.97805405"><ele>36.8</ele><time>2012-07-28T19:30:31.0000000+00:00</time></trkpt><trkpt lat="64.05397034" lon="-21.97805595"><ele>36.8</ele><time>2012-07-28T19:30:36.0000000+00:00</time></trkpt><trkpt lat="64.05397034" lon="-21.97805023"><ele>36.8</ele><time>2012-07-28T19:30:41.0000000+00:00</time></trkpt><trkpt lat="64.05397034" lon="-21.97805214"><ele>36.8</ele><time>2012-07-28T19:30:46.0000000+00:00</time></trkpt><trkpt lat="64.05397034" lon="-21.97805405"><ele>36.5</ele><time>2012-07-28T19:30:51.0000000+00:00</time></trkpt><trkpt lat="64.05397034" lon="-21.97805405"><ele>35.9</ele><time>2012-07-28T19:30:56.0000000+00:00</time></trkpt><trkpt lat="64.05397034" lon="-21.97805405"><ele>35.8</ele><time>2012-07-28T19:31:01.0000000+00:00</time></trkpt><trkpt lat="64.05396271" lon="-21.97805214"><ele>34.8</ele><time>2012-07-28T19:31:06.0000000+00:00</time></trkpt><trkpt lat="64.05392456" lon="-21.97801971"><ele>33.7</ele><time>2012-07-28T19:31:11.0000000+00:00</time></trkpt><trkpt lat="64.05387116" lon="-21.97797775"><ele>33.2</ele><time>2012-07-28T19:31:16.0000000+00:00</time></trkpt><trkpt lat="64.05384064" lon="-21.97797203"><ele>33.1</ele><time>2012-07-28T19:31:21.0000000+00:00</time></trkpt><trkpt lat="64.05378723" lon="-21.97793579"><ele>34.0</ele><time>2012-07-28T19:31:26.0000000+00:00</time></trkpt><trkpt lat="64.05374146" lon="-21.97787666"><ele>35.7</ele><time>2012-07-28T19:31:31.0000000+00:00</time></trkpt><trkpt lat="64.05368805" lon="-21.97783089"><ele>36.2</ele><time>2012-07-28T19:31:36.0000000+00:00</time></trkpt><trkpt lat="64.05363464" lon="-21.97775841"><ele>35.0</ele><time>2012-07-28T19:31:41.0000000+00:00</time></trkpt><trkpt lat="64.05360413" lon="-21.9776516"><ele>34.1</ele><time>2012-07-28T19:31:46.0000000+00:00</time></trkpt><trkpt lat="64.05358124" lon="-21.97755241"><ele>33.6</ele><time>2012-07-28T19:31:51.0000000+00:00</time></trkpt><trkpt lat="64.05355835" lon="-21.9774971"><ele>32.3</ele><time>2012-07-28T19:31:56.0000000+00:00</time></trkpt><trkpt lat="64.05348969" lon="-21.97749329"><ele>31.3</ele><time>2012-07-28T19:32:01.0000000+00:00</time></trkpt><trkpt lat="64.05345154" lon="-21.9775238"><ele>32.3</ele><time>2012-07-28T19:32:06.0000000+00:00</time></trkpt><trkpt lat="64.05343628" lon="-21.9775486"><ele>31.2</ele><time>2012-07-28T19:32:11.0000000+00:00</time></trkpt><trkpt lat="64.05339813" lon="-21.97772217"><ele>31.8</ele><time>2012-07-28T19:32:16.0000000+00:00</time></trkpt><trkpt lat="64.05331421" lon="-21.97806931"><ele>32.7</ele><time>2012-07-28T19:32:21.0000000+00:00</time></trkpt><trkpt lat="64.05318451" lon="-21.97827911"><ele>33.7</ele><time>2012-07-28T19:32:26.0000000+00:00</time></trkpt><trkpt lat="64.05306244" lon="-21.97843361"><ele>34.7</ele><time>2012-07-28T19:32:31.0000000+00:00</time></trkpt><trkpt lat="64.052948" lon="-21.97857666"><ele>36.2</ele><time>2012-07-28T19:32:36.0000000+00:00</time></trkpt><trkpt lat="64.05286408" lon="-21.97885895"><ele>35.3</ele><time>2012-07-28T19:32:41.0000000+00:00</time></trkpt><trkpt lat="64.05278015" lon="-21.97913551"><ele>35.3</ele><time>2012-07-28T19:32:46.0000000+00:00</time></trkpt><trkpt lat="64.05268097" lon="-21.97937393"><ele>34.0</ele><time>2012-07-28T19:32:51.0000000+00:00</time></trkpt><trkpt lat="64.05259705" lon="-21.97962189"><ele>33.6</ele><time>2012-07-28T19:32:56.0000000+00:00</time></trkpt><trkpt lat="64.05252075" lon="-21.97982597"><ele>33.0</ele><time>2012-07-28T19:33:01.0000000+00:00</time></trkpt><trkpt lat="64.05249023" lon="-21.97986603"><ele>35.3</ele><time>2012-07-28T19:33:06.0000000+00:00</time></trkpt><trkpt lat="64.05249786" lon="-21.9798851"><ele>36.0</ele><time>2012-07-28T19:33:11.0000000+00:00</time></trkpt><trkpt lat="64.05249786" lon="-21.97976494"><ele>36.4</ele><time>2012-07-28T19:33:16.0000000+00:00</time></trkpt><trkpt lat="64.05249786" lon="-21.97972298"><ele>36.8</ele><time>2012-07-28T19:33:21.0000000+00:00</time></trkpt><trkpt lat="64.05252075" lon="-21.97966766"><ele>33.7</ele><time>2012-07-28T19:33:26.0000000+00:00</time></trkpt><trkpt lat="64.0525589" lon="-21.97958565"><ele>30.9</ele><time>2012-07-28T19:33:31.0000000+00:00</time></trkpt><trkpt lat="64.05255127" lon="-21.97951317"><ele>26.8</ele><time>2012-07-28T19:33:36.0000000+00:00</time></trkpt><trkpt lat="64.05254364" lon="-21.9794941"><ele>25.9</ele><time>2012-07-28T19:33:41.0000000+00:00</time></trkpt><trkpt lat="64.05253601" lon="-21.979496"><ele>25.4</ele><time>2012-07-28T19:33:46.0000000+00:00</time></trkpt><trkpt lat="64.05253601" lon="-21.979496"><ele>25.3</ele><time>2012-07-28T19:33:51.0000000+00:00</time></trkpt><trkpt lat="64.05254364" lon="-21.979496"><ele>25.2</ele><time>2012-07-28T19:33:56.0000000+00:00</time></trkpt><trkpt lat="64.05254364" lon="-21.979496"><ele>25.2</ele><time>2012-07-28T19:34:01.0000000+00:00</time></trkpt><trkpt lat="64.05254364" lon="-21.97949791"><ele>25.2</ele><time>2012-07-28T19:34:06.0000000+00:00</time></trkpt><trkpt lat="64.05254364" lon="-21.97949791"><ele>25.2</ele><time>2012-07-28T19:34:11.0000000+00:00</time></trkpt><trkpt lat="64.05254364" lon="-21.97949791"><ele>25.2</ele><time>2012-07-28T19:34:16.0000000+00:00</time></trkpt><trkpt lat="64.05254364" lon="-21.97949791"><ele>25.2</ele><time>2012-07-28T19:34:21.0000000+00:00</time></trkpt><trkpt lat="64.05254364" lon="-21.979496"><ele>25.3</ele><time>2012-07-28T19:34:26.0000000+00:00</time></trkpt><trkpt lat="64.05254364" lon="-21.979496"><ele>25.3</ele><time>2012-07-28T19:34:31.0000000+00:00</time></trkpt><trkpt lat="64.05254364" lon="-21.97949791"><ele>25.3</ele><time>2012-07-28T19:34:36.0000000+00:00</time></trkpt><trkpt lat="64.05254364" lon="-21.97949791"><ele>25.3</ele><time>2012-07-28T19:34:41.0000000+00:00</time></trkpt><trkpt lat="64.05254364" lon="-21.97949791"><ele>25.3</ele><time>2012-07-28T19:34:46.0000000+00:00</time></trkpt><trkpt lat="64.05254364" lon="-21.97949791"><ele>25.3</ele><time>2012-07-28T19:34:51.0000000+00:00</time></trkpt><trkpt lat="64.05254364" lon="-21.97949791"><ele>25.4</ele><time>2012-07-28T19:34:56.0000000+00:00</time></trkpt><trkpt lat="64.05253601" lon="-21.97948456"><ele>25.3</ele><time>2012-07-28T19:35:01.0000000+00:00</time></trkpt><trkpt lat="64.0525589" lon="-21.97948647"><ele>26.0</ele><time>2012-07-28T19:35:06.0000000+00:00</time></trkpt><trkpt lat="64.0525589" lon="-21.97948456"><ele>26.2</ele><time>2012-07-28T19:35:11.0000000+00:00</time></trkpt><trkpt lat="64.0525589" lon="-21.97948837"><ele>26.6</ele><time>2012-07-28T19:35:16.0000000+00:00</time></trkpt><trkpt lat="64.05256653" lon="-21.97949219"><ele>27.1</ele><time>2012-07-28T19:35:21.0000000+00:00</time></trkpt><trkpt lat="64.05257416" lon="-21.97949982"><ele>27.7</ele><time>2012-07-28T19:35:26.0000000+00:00</time></trkpt><trkpt lat="64.05258179" lon="-21.97950745"><ele>28.5</ele><time>2012-07-28T19:35:31.0000000+00:00</time></trkpt><trkpt lat="64.05259705" lon="-21.97951698"><ele>29.3</ele><time>2012-07-28T19:35:36.0000000+00:00</time></trkpt><trkpt lat="64.05260468" lon="-21.97952652"><ele>30.0</ele><time>2012-07-28T19:35:41.0000000+00:00</time></trkpt><trkpt lat="64.05264282" lon="-21.97955704"><ele>31.7</ele><time>2012-07-28T19:35:46.0000000+00:00</time></trkpt><trkpt lat="64.05266571" lon="-21.9795742"><ele>32.9</ele><time>2012-07-28T19:35:51.0000000+00:00</time></trkpt><trkpt lat="64.05269623" lon="-21.97959518"><ele>34.7</ele><time>2012-07-28T19:35:56.0000000+00:00</time></trkpt><trkpt lat="64.05272675" lon="-21.97961617"><ele>36.3</ele><time>2012-07-28T19:36:01.0000000+00:00</time></trkpt><trkpt lat="64.052742" lon="-21.97963333"><ele>38.0</ele><time>2012-07-28T19:36:06.0000000+00:00</time></trkpt><trkpt lat="64.05274963" lon="-21.97964668"><ele>38.8</ele><time>2012-07-28T19:36:11.0000000+00:00</time></trkpt><trkpt lat="64.052742" lon="-21.97964287"><ele>38.3</ele><time>2012-07-28T19:36:16.0000000+00:00</time></trkpt><trkpt lat="64.05274963" lon="-21.9796505"><ele>38.8</ele><time>2012-07-28T19:36:21.0000000+00:00</time></trkpt><trkpt lat="64.05274963" lon="-21.97965241"><ele>39.2</ele><time>2012-07-28T19:36:26.0000000+00:00</time></trkpt><trkpt lat="64.05274963" lon="-21.97965241"><ele>39.5</ele><time>2012-07-28T19:36:31.0000000+00:00</time></trkpt><trkpt lat="64.05275726" lon="-21.97965431"><ele>39.9</ele><time>2012-07-28T19:36:36.0000000+00:00</time></trkpt><trkpt lat="64.05276489" lon="-21.97965813"><ele>40.3</ele><time>2012-07-28T19:36:41.0000000+00:00</time></trkpt><trkpt lat="64.05276489" lon="-21.97966194"><ele>40.7</ele><time>2012-07-28T19:36:46.0000000+00:00</time></trkpt><trkpt lat="64.05277252" lon="-21.97966766"><ele>41.1</ele><time>2012-07-28T19:36:51.0000000+00:00</time></trkpt><trkpt lat="64.05278015" lon="-21.97967339"><ele>41.5</ele><time>2012-07-28T19:36:56.0000000+00:00</time></trkpt><trkpt lat="64.05278015" lon="-21.97967911"><ele>41.8</ele><time>2012-07-28T19:37:01.0000000+00:00</time></trkpt><trkpt lat="64.05278015" lon="-21.97968102"><ele>42.0</ele><time>2012-07-28T19:37:06.0000000+00:00</time></trkpt><trkpt lat="64.05278015" lon="-21.97968102"><ele>42.2</ele><time>2012-07-28T19:37:11.0000000+00:00</time></trkpt><trkpt lat="64.05278015" lon="-21.97968292"><ele>42.2</ele><time>2012-07-28T19:37:16.0000000+00:00</time></trkpt><trkpt lat="64.05278015" lon="-21.97968292"><ele>42.2</ele><time>2012-07-28T19:37:21.0000000+00:00</time></trkpt><trkpt lat="64.05278778" lon="-21.97968483"><ele>42.2</ele><time>2012-07-28T19:37:26.0000000+00:00</time></trkpt><trkpt lat="64.05278778" lon="-21.97968483"><ele>42.2</ele><time>2012-07-28T19:37:31.0000000+00:00</time></trkpt><trkpt lat="64.05278015" lon="-21.97968292"><ele>42.2</ele><time>2012-07-28T19:37:36.0000000+00:00</time></trkpt><trkpt lat="64.05278015" lon="-21.97968102"><ele>42.0</ele><time>2012-07-28T19:37:41.0000000+00:00</time></trkpt><trkpt lat="64.05278015" lon="-21.97968102"><ele>41.8</ele><time>2012-07-28T19:37:46.0000000+00:00</time></trkpt><trkpt lat="64.05278015" lon="-21.97968102"><ele>41.6</ele><time>2012-07-28T19:37:51.0000000+00:00</time></trkpt><trkpt lat="64.05278015" lon="-21.97968102"><ele>41.5</ele><time>2012-07-28T19:37:56.0000000+00:00</time></trkpt><trkpt lat="64.05278015" lon="-21.97968102"><ele>41.3</ele><time>2012-07-28T19:38:01.0000000+00:00</time></trkpt><trkpt lat="64.05278015" lon="-21.97967911"><ele>41.1</ele><time>2012-07-28T19:38:06.0000000+00:00</time></trkpt><trkpt lat="64.05277252" lon="-21.9796772"><ele>40.9</ele><time>2012-07-28T19:38:11.0000000+00:00</time></trkpt><trkpt lat="64.05277252" lon="-21.97967529"><ele>40.6</ele><time>2012-07-28T19:38:16.0000000+00:00</time></trkpt><trkpt lat="64.05277252" lon="-21.97967529"><ele>40.5</ele><time>2012-07-28T19:38:21.0000000+00:00</time></trkpt><trkpt lat="64.05277252" lon="-21.97967339"><ele>40.3</ele><time>2012-07-28T19:38:26.0000000+00:00</time></trkpt><trkpt lat="64.05277252" lon="-21.97967529"><ele>40.2</ele><time>2012-07-28T19:38:31.0000000+00:00</time></trkpt><trkpt lat="64.05277252" lon="-21.97967529"><ele>40.2</ele><time>2012-07-28T19:38:36.0000000+00:00</time></trkpt><trkpt lat="64.05276489" lon="-21.9796772"><ele>40.2</ele><time>2012-07-28T19:38:41.0000000+00:00</time></trkpt><trkpt lat="64.05276489" lon="-21.97967529"><ele>40.2</ele><time>2012-07-28T19:38:46.0000000+00:00</time></trkpt><trkpt lat="64.05276489" lon="-21.9796772"><ele>40.2</ele><time>2012-07-28T19:38:51.0000000+00:00</time></trkpt><trkpt lat="64.05276489" lon="-21.9796772"><ele>40.2</ele><time>2012-07-28T19:38:56.0000000+00:00</time></trkpt><trkpt lat="64.05276489" lon="-21.9796772"><ele>40.1</ele><time>2012-07-28T19:39:01.0000000+00:00</time></trkpt><trkpt lat="64.05276489" lon="-21.9796772"><ele>39.9</ele><time>2012-07-28T19:39:06.0000000+00:00</time></trkpt><trkpt lat="64.05276489" lon="-21.9796772"><ele>39.8</ele><time>2012-07-28T19:39:11.0000000+00:00</time></trkpt><trkpt lat="64.05276489" lon="-21.97967529"><ele>39.7</ele><time>2012-07-28T19:39:16.0000000+00:00</time></trkpt><trkpt lat="64.05276489" lon="-21.97967529"><ele>39.6</ele><time>2012-07-28T19:39:21.0000000+00:00</time></trkpt><trkpt lat="64.05275726" lon="-21.97967529"><ele>39.5</ele><time>2012-07-28T19:39:26.0000000+00:00</time></trkpt><trkpt lat="64.05275726" lon="-21.97967339"><ele>39.5</ele><time>2012-07-28T19:39:31.0000000+00:00</time></trkpt><trkpt lat="64.05275726" lon="-21.97967148"><ele>39.5</ele><time>2012-07-28T19:39:36.0000000+00:00</time></trkpt><trkpt lat="64.05275726" lon="-21.97967148"><ele>39.5</ele><time>2012-07-28T19:39:41.0000000+00:00</time></trkpt><trkpt lat="64.05275726" lon="-21.97967148"><ele>39.6</ele><time>2012-07-28T19:39:46.0000000+00:00</time></trkpt><trkpt lat="64.05275726" lon="-21.97967148"><ele>39.6</ele><time>2012-07-28T19:39:51.0000000+00:00</time></trkpt><trkpt lat="64.05275726" lon="-21.97967148"><ele>39.6</ele><time>2012-07-28T19:39:56.0000000+00:00</time></trkpt><trkpt lat="64.05275726" lon="-21.97967339"><ele>39.7</ele><time>2012-07-28T19:40:01.0000000+00:00</time></trkpt><trkpt lat="64.05275726" lon="-21.97967339"><ele>39.8</ele><time>2012-07-28T19:40:06.0000000+00:00</time></trkpt><trkpt lat="64.05275726" lon="-21.97967339"><ele>39.9</ele><time>2012-07-28T19:40:11.0000000+00:00</time></trkpt><trkpt lat="64.05275726" lon="-21.97967529"><ele>39.9</ele><time>2012-07-28T19:40:16.0000000+00:00</time></trkpt><trkpt lat="64.05275726" lon="-21.9796772"><ele>39.9</ele><time>2012-07-28T19:40:21.0000000+00:00</time></trkpt><trkpt lat="64.05275726" lon="-21.9796772"><ele>39.9</ele><time>2012-07-28T19:40:26.0000000+00:00</time></trkpt><trkpt lat="64.05275726" lon="-21.97967529"><ele>39.9</ele><time>2012-07-28T19:40:31.0000000+00:00</time></trkpt><trkpt lat="64.05275726" lon="-21.97967529"><ele>39.9</ele><time>2012-07-28T19:40:36.0000000+00:00</time></trkpt><trkpt lat="64.05275726" lon="-21.97967339"><ele>39.8</ele><time>2012-07-28T19:40:41.0000000+00:00</time></trkpt><trkpt lat="64.05275726" lon="-21.97967529"><ele>39.6</ele><time>2012-07-28T19:40:46.0000000+00:00</time></trkpt><trkpt lat="64.05275726" lon="-21.9796772"><ele>39.5</ele><time>2012-07-28T19:40:51.0000000+00:00</time></trkpt><trkpt lat="64.05275726" lon="-21.9796772"><ele>39.3</ele><time>2012-07-28T19:40:56.0000000+00:00</time></trkpt><trkpt lat="64.05275726" lon="-21.9796772"><ele>39.2</ele><time>2012-07-28T19:41:01.0000000+00:00</time></trkpt><trkpt lat="64.05275726" lon="-21.9796772"><ele>39.0</ele><time>2012-07-28T19:41:06.0000000+00:00</time></trkpt><trkpt lat="64.05275726" lon="-21.97967911"><ele>38.8</ele><time>2012-07-28T19:41:11.0000000+00:00</time></trkpt><trkpt lat="64.05275726" lon="-21.97968102"><ele>38.7</ele><time>2012-07-28T19:41:16.0000000+00:00</time></trkpt><trkpt lat="64.05275726" lon="-21.97968102"><ele>38.6</ele><time>2012-07-28T19:41:21.0000000+00:00</time></trkpt><trkpt lat="64.05275726" lon="-21.97968102"><ele>38.5</ele><time>2012-07-28T19:41:26.0000000+00:00</time></trkpt><trkpt lat="64.05275726" lon="-21.97968292"><ele>38.5</ele><time>2012-07-28T19:41:31.0000000+00:00</time></trkpt><trkpt lat="64.05275726" lon="-21.97968483"><ele>38.5</ele><time>2012-07-28T19:41:36.0000000+00:00</time></trkpt><trkpt lat="64.05275726" lon="-21.97968674"><ele>38.5</ele><time>2012-07-28T19:41:41.0000000+00:00</time></trkpt><trkpt lat="64.05274963" lon="-21.97968674"><ele>38.4</ele><time>2012-07-28T19:41:46.0000000+00:00</time></trkpt><trkpt lat="64.052742" lon="-21.97967911"><ele>38.3</ele><time>2012-07-28T19:41:51.0000000+00:00</time></trkpt><trkpt lat="64.05273438" lon="-21.97967148"><ele>38.1</ele><time>2012-07-28T19:41:56.0000000+00:00</time></trkpt><trkpt lat="64.05272675" lon="-21.97966003"><ele>37.9</ele><time>2012-07-28T19:42:01.0000000+00:00</time></trkpt><trkpt lat="64.05270386" lon="-21.97964668"><ele>37.7</ele><time>2012-07-28T19:42:06.0000000+00:00</time></trkpt><trkpt lat="64.0526886" lon="-21.97964668"><ele>37.5</ele><time>2012-07-28T19:42:11.0000000+00:00</time></trkpt><trkpt lat="64.05268097" lon="-21.97966003"><ele>37.2</ele><time>2012-07-28T19:42:16.0000000+00:00</time></trkpt><trkpt lat="64.05268097" lon="-21.97968864"><ele>36.8</ele><time>2012-07-28T19:42:21.0000000+00:00</time></trkpt><trkpt lat="64.05268097" lon="-21.97970963"><ele>36.1</ele><time>2012-07-28T19:42:26.0000000+00:00</time></trkpt><trkpt lat="64.05267334" lon="-21.97971726"><ele>35.6</ele><time>2012-07-28T19:42:31.0000000+00:00</time></trkpt><trkpt lat="64.05265808" lon="-21.9797039"><ele>35.2</ele><time>2012-07-28T19:42:36.0000000+00:00</time></trkpt><trkpt lat="64.05264282" lon="-21.97970772"><ele>34.5</ele><time>2012-07-28T19:42:41.0000000+00:00</time></trkpt><trkpt lat="64.05261993" lon="-21.97969627"><ele>33.9</ele><time>2012-07-28T19:42:46.0000000+00:00</time></trkpt><trkpt lat="64.05263519" lon="-21.97971726"><ele>33.3</ele><time>2012-07-28T19:42:51.0000000+00:00</time></trkpt><trkpt lat="64.05263519" lon="-21.9797287"><ele>32.8</ele><time>2012-07-28T19:42:56.0000000+00:00</time></trkpt><trkpt lat="64.05262756" lon="-21.97972488"><ele>32.3</ele><time>2012-07-28T19:43:01.0000000+00:00</time></trkpt><trkpt lat="64.05262756" lon="-21.9797287"><ele>31.9</ele><time>2012-07-28T19:43:06.0000000+00:00</time></trkpt><trkpt lat="64.05262756" lon="-21.97973442"><ele>31.4</ele><time>2012-07-28T19:43:11.0000000+00:00</time></trkpt><trkpt lat="64.05262756" lon="-21.97973633"><ele>31.0</ele><time>2012-07-28T19:43:16.0000000+00:00</time></trkpt><trkpt lat="64.05262756" lon="-21.97974014"><ele>30.6</ele><time>2012-07-28T19:43:21.0000000+00:00</time></trkpt><trkpt lat="64.05262756" lon="-21.97974396"><ele>30.2</ele><time>2012-07-28T19:43:26.0000000+00:00</time></trkpt><trkpt lat="64.05262756" lon="-21.97974777"><ele>29.8</ele><time>2012-07-28T19:43:31.0000000+00:00</time></trkpt><trkpt lat="64.05262756" lon="-21.97975159"><ele>29.4</ele><time>2012-07-28T19:43:36.0000000+00:00</time></trkpt><trkpt lat="64.05263519" lon="-21.97975731"><ele>29.1</ele><time>2012-07-28T19:43:41.0000000+00:00</time></trkpt><trkpt lat="64.05263519" lon="-21.97976303"><ele>28.7</ele><time>2012-07-28T19:43:46.0000000+00:00</time></trkpt><trkpt lat="64.05263519" lon="-21.97976685"><ele>28.4</ele><time>2012-07-28T19:43:51.0000000+00:00</time></trkpt><trkpt lat="64.05263519" lon="-21.97977066"><ele>28.1</ele><time>2012-07-28T19:43:56.0000000+00:00</time></trkpt><trkpt lat="64.05263519" lon="-21.97977257"><ele>27.8</ele><time>2012-07-28T19:44:01.0000000+00:00</time></trkpt><trkpt lat="64.05263519" lon="-21.97977638"><ele>27.5</ele><time>2012-07-28T19:44:06.0000000+00:00</time></trkpt><trkpt lat="64.05263519" lon="-21.9797802"><ele>27.3</ele><time>2012-07-28T19:44:11.0000000+00:00</time></trkpt><trkpt lat="64.05264282" lon="-21.97978592"><ele>27.0</ele><time>2012-07-28T19:44:16.0000000+00:00</time></trkpt><trkpt lat="64.05264282" lon="-21.97978592"><ele>27.0</ele><time>2012-07-28T19:44:21.0000000+00:00</time></trkpt><trkpt lat="64.05264282" lon="-21.97978592"><ele>27.1</ele><time>2012-07-28T19:44:26.0000000+00:00</time></trkpt><trkpt lat="64.05264282" lon="-21.97978401"><ele>27.1</ele><time>2012-07-28T19:44:31.0000000+00:00</time></trkpt><trkpt lat="64.05263519" lon="-21.9797821"><ele>27.1</ele><time>2012-07-28T19:44:36.0000000+00:00</time></trkpt><trkpt lat="64.05263519" lon="-21.97977829"><ele>27.2</ele><time>2012-07-28T19:44:41.0000000+00:00</time></trkpt><trkpt lat="64.05263519" lon="-21.97977829"><ele>27.3</ele><time>2012-07-28T19:44:46.0000000+00:00</time></trkpt><trkpt lat="64.05263519" lon="-21.97977829"><ele>27.4</ele><time>2012-07-28T19:44:51.0000000+00:00</time></trkpt><trkpt lat="64.05263519" lon="-21.97977829"><ele>27.5</ele><time>2012-07-28T19:44:56.0000000+00:00</time></trkpt><trkpt lat="64.05263519" lon="-21.97977829"><ele>27.6</ele><time>2012-07-28T19:45:01.0000000+00:00</time></trkpt><trkpt lat="64.05264282" lon="-21.97977638"><ele>27.7</ele><time>2012-07-28T19:45:06.0000000+00:00</time></trkpt><trkpt lat="64.05264282" lon="-21.97977638"><ele>27.9</ele><time>2012-07-28T19:45:11.0000000+00:00</time></trkpt><trkpt lat="64.05264282" lon="-21.97977448"><ele>28.1</ele><time>2012-07-28T19:45:16.0000000+00:00</time></trkpt><trkpt lat="64.05264282" lon="-21.97977257"><ele>28.3</ele><time>2012-07-28T19:45:21.0000000+00:00</time></trkpt><trkpt lat="64.05264282" lon="-21.97977257"><ele>28.6</ele><time>2012-07-28T19:45:26.0000000+00:00</time></trkpt><trkpt lat="64.05264282" lon="-21.97977257"><ele>28.8</ele><time>2012-07-28T19:45:31.0000000+00:00</time></trkpt><trkpt lat="64.05264282" lon="-21.97977257"><ele>29.2</ele><time>2012-07-28T19:45:36.0000000+00:00</time></trkpt><trkpt lat="64.05264282" lon="-21.97977448"><ele>29.5</ele><time>2012-07-28T19:45:41.0000000+00:00</time></trkpt><trkpt lat="64.05264282" lon="-21.97977066"><ele>29.9</ele><time>2012-07-28T19:45:46.0000000+00:00</time></trkpt><trkpt lat="64.05264282" lon="-21.97976494"><ele>30.3</ele><time>2012-07-28T19:45:51.0000000+00:00</time></trkpt><trkpt lat="64.05264282" lon="-21.97975922"><ele>30.7</ele><time>2012-07-28T19:45:56.0000000+00:00</time></trkpt><trkpt lat="64.05263519" lon="-21.97975159"><ele>31.1</ele><time>2012-07-28T19:46:01.0000000+00:00</time></trkpt><trkpt lat="64.05263519" lon="-21.97974396"><ele>31.5</ele><time>2012-07-28T19:46:06.0000000+00:00</time></trkpt><trkpt lat="64.05263519" lon="-21.97973824"><ele>31.9</ele><time>2012-07-28T19:46:11.0000000+00:00</time></trkpt><trkpt lat="64.05263519" lon="-21.97973442"><ele>32.3</ele><time>2012-07-28T19:46:16.0000000+00:00</time></trkpt><trkpt lat="64.05263519" lon="-21.97973442"><ele>32.7</ele><time>2012-07-28T19:46:21.0000000+00:00</time></trkpt><trkpt lat="64.05263519" lon="-21.97973633"><ele>33.1</ele><time>2012-07-28T19:46:26.0000000+00:00</time></trkpt><trkpt lat="64.05263519" lon="-21.97973633"><ele>33.6</ele><time>2012-07-28T19:46:31.0000000+00:00</time></trkpt><trkpt lat="64.05263519" lon="-21.97973442"><ele>34.1</ele><time>2012-07-28T19:46:36.0000000+00:00</time></trkpt><trkpt lat="64.05263519" lon="-21.97973061"><ele>34.7</ele><time>2012-07-28T19:46:41.0000000+00:00</time></trkpt><trkpt lat="64.05262756" lon="-21.97972488"><ele>35.3</ele><time>2012-07-28T19:46:46.0000000+00:00</time></trkpt><trkpt lat="64.05262756" lon="-21.97971726"><ele>35.9</ele><time>2012-07-28T19:46:51.0000000+00:00</time></trkpt><trkpt lat="64.05261993" lon="-21.97971726"><ele>36.5</ele><time>2012-07-28T19:46:56.0000000+00:00</time></trkpt><trkpt lat="64.05261993" lon="-21.97971726"><ele>37.2</ele><time>2012-07-28T19:47:01.0000000+00:00</time></trkpt><trkpt lat="64.05261993" lon="-21.97971726"><ele>37.8</ele><time>2012-07-28T19:47:06.0000000+00:00</time></trkpt><trkpt lat="64.05261231" lon="-21.97971344"><ele>38.4</ele><time>2012-07-28T19:47:11.0000000+00:00</time></trkpt><trkpt lat="64.05261231" lon="-21.9797039"><ele>38.9</ele><time>2012-07-28T19:47:16.0000000+00:00</time></trkpt><trkpt lat="64.05261231" lon="-21.97969437"><ele>39.3</ele><time>2012-07-28T19:47:21.0000000+00:00</time></trkpt><trkpt lat="64.05261231" lon="-21.97969246"><ele>39.7</ele><time>2012-07-28T19:47:26.0000000+00:00</time></trkpt><trkpt lat="64.05261231" lon="-21.97969055"><ele>40.0</ele><time>2012-07-28T19:47:31.0000000+00:00</time></trkpt><trkpt lat="64.05261231" lon="-21.97969246"><ele>40.0</ele><time>2012-07-28T19:47:36.0000000+00:00</time></trkpt><trkpt lat="64.05261231" lon="-21.97969437"><ele>40.0</ele><time>2012-07-28T19:47:41.0000000+00:00</time></trkpt><trkpt lat="64.05261231" lon="-21.97969627"><ele>40.0</ele><time>2012-07-28T19:47:46.0000000+00:00</time></trkpt><trkpt lat="64.05261231" lon="-21.97969437"><ele>40.0</ele><time>2012-07-28T19:47:51.0000000+00:00</time></trkpt><trkpt lat="64.05261231" lon="-21.97969437"><ele>40.0</ele><time>2012-07-28T19:47:56.0000000+00:00</time></trkpt><trkpt lat="64.05261231" lon="-21.97969437"><ele>40.0</ele><time>2012-07-28T19:48:01.0000000+00:00</time></trkpt><trkpt lat="64.05261231" lon="-21.97969246"><ele>40.0</ele><time>2012-07-28T19:48:06.0000000+00:00</time></trkpt><trkpt lat="64.05261231" lon="-21.97969246"><ele>40.0</ele><time>2012-07-28T19:48:11.0000000+00:00</time></trkpt><trkpt lat="64.05261231" lon="-21.97969055"><ele>39.9</ele><time>2012-07-28T19:48:16.0000000+00:00</time></trkpt><trkpt lat="64.05261231" lon="-21.97969055"><ele>39.9</ele><time>2012-07-28T19:48:21.0000000+00:00</time></trkpt><trkpt lat="64.05261231" lon="-21.97969055"><ele>39.9</ele><time>2012-07-28T19:48:26.0000000+00:00</time></trkpt><trkpt lat="64.05261231" lon="-21.97968864"><ele>39.9</ele><time>2012-07-28T19:48:31.0000000+00:00</time></trkpt><trkpt lat="64.05261231" lon="-21.97968674"><ele>39.8</ele><time>2012-07-28T19:48:36.0000000+00:00</time></trkpt><trkpt lat="64.05261231" lon="-21.97968864"><ele>39.8</ele><time>2012-07-28T19:48:41.0000000+00:00</time></trkpt><trkpt lat="64.05261231" lon="-21.97969437"><ele>39.8</ele><time>2012-07-28T19:48:46.0000000+00:00</time></trkpt><trkpt lat="64.05261993" lon="-21.97969818"><ele>39.7</ele><time>2012-07-28T19:48:51.0000000+00:00</time></trkpt><trkpt lat="64.05261993" lon="-21.97970009"><ele>39.6</ele><time>2012-07-28T19:48:56.0000000+00:00</time></trkpt><trkpt lat="64.05261993" lon="-21.97969818"><ele>39.5</ele><time>2012-07-28T19:49:01.0000000+00:00</time></trkpt><trkpt lat="64.05261231" lon="-21.97969055"><ele>39.4</ele><time>2012-07-28T19:49:06.0000000+00:00</time></trkpt><trkpt lat="64.05261231" lon="-21.97968674"><ele>39.2</ele><time>2012-07-28T19:49:11.0000000+00:00</time></trkpt><trkpt lat="64.05261231" lon="-21.97968674"><ele>39.1</ele><time>2012-07-28T19:49:16.0000000+00:00</time></trkpt><trkpt lat="64.05261231" lon="-21.97968483"><ele>38.9</ele><time>2012-07-28T19:49:21.0000000+00:00</time></trkpt><trkpt lat="64.05261231" lon="-21.97968292"><ele>38.8</ele><time>2012-07-28T19:49:26.0000000+00:00</time></trkpt><trkpt lat="64.05260468" lon="-21.9796772"><ele>38.6</ele><time>2012-07-28T19:49:31.0000000+00:00</time></trkpt><trkpt lat="64.05260468" lon="-21.97967148"><ele>38.4</ele><time>2012-07-28T19:49:36.0000000+00:00</time></trkpt><trkpt lat="64.05260468" lon="-21.97967148"><ele>38.2</ele><time>2012-07-28T19:49:41.0000000+00:00</time></trkpt><trkpt lat="64.05260468" lon="-21.97967148"><ele>38.0</ele><time>2012-07-28T19:49:46.0000000+00:00</time></trkpt><trkpt lat="64.05260468" lon="-21.97966957"><ele>37.9</ele><time>2012-07-28T19:49:51.0000000+00:00</time></trkpt><trkpt lat="64.05260468" lon="-21.97966576"><ele>37.7</ele><time>2012-07-28T19:49:56.0000000+00:00</time></trkpt><trkpt lat="64.05259705" lon="-21.97965813"><ele>37.4</ele><time>2012-07-28T19:50:01.0000000+00:00</time></trkpt><trkpt lat="64.05258942" lon="-21.97964287"><ele>37.2</ele><time>2012-07-28T19:50:06.0000000+00:00</time></trkpt><trkpt lat="64.05257416" lon="-21.97960281"><ele>36.7</ele><time>2012-07-28T19:50:11.0000000+00:00</time></trkpt><trkpt lat="64.05255127" lon="-21.97953606"><ele>35.5</ele><time>2012-07-28T19:50:16.0000000+00:00</time></trkpt><trkpt lat="64.05251312" lon="-21.97945404"><ele>33.8</ele><time>2012-07-28T19:50:21.0000000+00:00</time></trkpt><trkpt lat="64.05249023" lon="-21.97939491"><ele>32.5</ele><time>2012-07-28T19:50:26.0000000+00:00</time></trkpt><trkpt lat="64.05246735" lon="-21.97934723"><ele>31.5</ele><time>2012-07-28T19:50:31.0000000+00:00</time></trkpt><trkpt lat="64.05245972" lon="-21.97933197"><ele>30.6</ele><time>2012-07-28T19:50:36.0000000+00:00</time></trkpt><trkpt lat="64.05246735" lon="-21.9793644"><ele>29.9</ele><time>2012-07-28T19:50:41.0000000+00:00</time></trkpt><trkpt lat="64.05246735" lon="-21.97936058"><ele>29.6</ele><time>2012-07-28T19:50:46.0000000+00:00</time></trkpt><trkpt lat="64.05246735" lon="-21.97935295"><ele>29.3</ele><time>2012-07-28T19:50:51.0000000+00:00</time></trkpt><trkpt lat="64.05246735" lon="-21.97935486"><ele>29.0</ele><time>2012-07-28T19:50:56.0000000+00:00</time></trkpt><trkpt lat="64.05246735" lon="-21.9793644"><ele>28.8</ele><time>2012-07-28T19:51:01.0000000+00:00</time></trkpt><trkpt lat="64.05251312" lon="-21.97948456"><ele>27.9</ele><time>2012-07-28T19:51:06.0000000+00:00</time></trkpt><trkpt lat="64.05254364" lon="-21.97956467"><ele>27.0</ele><time>2012-07-28T19:51:11.0000000+00:00</time></trkpt><trkpt lat="64.05257416" lon="-21.97964668"><ele>26.3</ele><time>2012-07-28T19:51:16.0000000+00:00</time></trkpt><trkpt lat="64.05261231" lon="-21.97974205"><ele>25.8</ele><time>2012-07-28T19:51:21.0000000+00:00</time></trkpt><trkpt lat="64.05259705" lon="-21.97972298"><ele>24.4</ele><time>2012-07-28T19:51:26.0000000+00:00</time></trkpt><trkpt lat="64.0525589" lon="-21.97963524"><ele>22.3</ele><time>2012-07-28T19:51:31.0000000+00:00</time></trkpt><trkpt lat="64.0525589" lon="-21.97964287"><ele>22.0</ele><time>2012-07-28T19:51:36.0000000+00:00</time></trkpt><trkpt lat="64.0525589" lon="-21.97964859"><ele>21.7</ele><time>2012-07-28T19:51:41.0000000+00:00</time></trkpt><trkpt lat="64.05256653" lon="-21.97965813"><ele>21.5</ele><time>2012-07-28T19:51:46.0000000+00:00</time></trkpt><trkpt lat="64.05256653" lon="-21.97965813"><ele>21.2</ele><time>2012-07-28T19:51:51.0000000+00:00</time></trkpt><trkpt lat="64.05256653" lon="-21.97966194"><ele>20.9</ele><time>2012-07-28T19:51:56.0000000+00:00</time></trkpt><trkpt lat="64.05256653" lon="-21.97966385"><ele>20.7</ele><time>2012-07-28T19:52:01.0000000+00:00</time></trkpt><trkpt lat="64.05256653" lon="-21.97966194"><ele>20.4</ele><time>2012-07-28T19:52:06.0000000+00:00</time></trkpt><trkpt lat="64.0525589" lon="-21.97966003"><ele>20.2</ele><time>2012-07-28T19:52:11.0000000+00:00</time></trkpt><trkpt lat="64.0525589" lon="-21.97966385"><ele>19.9</ele><time>2012-07-28T19:52:16.0000000+00:00</time></trkpt><trkpt lat="64.05256653" lon="-21.97966957"><ele>19.6</ele><time>2012-07-28T19:52:21.0000000+00:00</time></trkpt><trkpt lat="64.05256653" lon="-21.97967339"><ele>19.3</ele><time>2012-07-28T19:52:26.0000000+00:00</time></trkpt><trkpt lat="64.05256653" lon="-21.97967529"><ele>19.0</ele><time>2012-07-28T19:52:31.0000000+00:00</time></trkpt><trkpt lat="64.05256653" lon="-21.97968102"><ele>18.7</ele><time>2012-07-28T19:52:36.0000000+00:00</time></trkpt><trkpt lat="64.05256653" lon="-21.97968483"><ele>18.4</ele><time>2012-07-28T19:52:41.0000000+00:00</time></trkpt><trkpt lat="64.05256653" lon="-21.97968674"><ele>18.1</ele><time>2012-07-28T19:52:46.0000000+00:00</time></trkpt><trkpt lat="64.05256653" lon="-21.97968864"><ele>17.7</ele><time>2012-07-28T19:52:51.0000000+00:00</time></trkpt><trkpt lat="64.05256653" lon="-21.97969246"><ele>17.4</ele><time>2012-07-28T19:52:56.0000000+00:00</time></trkpt><trkpt lat="64.05256653" lon="-21.97969437"><ele>17.0</ele><time>2012-07-28T19:53:01.0000000+00:00</time></trkpt><trkpt lat="64.05256653" lon="-21.97969627"><ele>16.6</ele><time>2012-07-28T19:53:06.0000000+00:00</time></trkpt><trkpt lat="64.05256653" lon="-21.97969818"><ele>16.2</ele><time>2012-07-28T19:53:11.0000000+00:00</time></trkpt><trkpt lat="64.05256653" lon="-21.979702"><ele>15.7</ele><time>2012-07-28T19:53:16.0000000+00:00</time></trkpt><trkpt lat="64.05256653" lon="-21.97970581"><ele>15.3</ele><time>2012-07-28T19:53:21.0000000+00:00</time></trkpt><trkpt lat="64.05256653" lon="-21.97970963"><ele>14.8</ele><time>2012-07-28T19:53:26.0000000+00:00</time></trkpt><trkpt lat="64.05256653" lon="-21.97971153"><ele>14.3</ele><time>2012-07-28T19:53:31.0000000+00:00</time></trkpt><trkpt lat="64.05256653" lon="-21.97971153"><ele>13.9</ele><time>2012-07-28T19:53:36.0000000+00:00</time></trkpt><trkpt lat="64.05256653" lon="-21.97971344"><ele>13.6</ele><time>2012-07-28T19:53:41.0000000+00:00</time></trkpt><trkpt lat="64.05256653" lon="-21.97971344"><ele>13.5</ele><time>2012-07-28T19:53:46.0000000+00:00</time></trkpt><trkpt lat="64.05256653" lon="-21.97971153"><ele>13.5</ele><time>2012-07-28T19:53:51.0000000+00:00</time></trkpt><trkpt lat="64.05256653" lon="-21.97971153"><ele>13.6</ele><time>2012-07-28T19:53:56.0000000+00:00</time></trkpt><trkpt lat="64.05256653" lon="-21.97971153"><ele>13.6</ele><time>2012-07-28T19:54:01.0000000+00:00</time></trkpt><trkpt lat="64.05256653" lon="-21.97971153"><ele>13.6</ele><time>2012-07-28T19:54:06.0000000+00:00</time></trkpt><trkpt lat="64.05256653" lon="-21.97971153"><ele>13.7</ele><time>2012-07-28T19:54:11.0000000+00:00</time></trkpt><trkpt lat="64.05256653" lon="-21.97971153"><ele>13.7</ele><time>2012-07-28T19:54:16.0000000+00:00</time></trkpt><trkpt lat="64.05256653" lon="-21.97971153"><ele>13.7</ele><time>2012-07-28T19:54:21.0000000+00:00</time></trkpt><trkpt lat="64.05256653" lon="-21.97971153"><ele>13.8</ele><time>2012-07-28T19:54:26.0000000+00:00</time></trkpt><trkpt lat="64.05256653" lon="-21.97971153"><ele>13.8</ele><time>2012-07-28T19:54:31.0000000+00:00</time></trkpt><trkpt lat="64.05256653" lon="-21.97971153"><ele>13.8</ele><time>2012-07-28T19:54:36.0000000+00:00</time></trkpt><trkpt lat="64.05256653" lon="-21.97971153"><ele>13.8</ele><time>2012-07-28T19:54:41.0000000+00:00</time></trkpt><trkpt lat="64.05256653" lon="-21.97970963"><ele>13.9</ele><time>2012-07-28T19:54:46.0000000+00:00</time></trkpt><trkpt lat="64.05256653" lon="-21.97971153"><ele>14.0</ele><time>2012-07-28T19:54:51.0000000+00:00</time></trkpt><trkpt lat="64.05256653" lon="-21.97971344"><ele>14.1</ele><time>2012-07-28T19:54:56.0000000+00:00</time></trkpt><trkpt lat="64.05256653" lon="-21.97971344"><ele>14.3</ele><time>2012-07-28T19:55:01.0000000+00:00</time></trkpt><trkpt lat="64.05256653" lon="-21.97971344"><ele>14.5</ele><time>2012-07-28T19:55:06.0000000+00:00</time></trkpt><trkpt lat="64.05256653" lon="-21.97970963"><ele>14.7</ele><time>2012-07-28T19:55:11.0000000+00:00</time></trkpt><trkpt lat="64.05256653" lon="-21.97970963"><ele>14.7</ele><time>2012-07-28T19:55:16.0000000+00:00</time></trkpt><trkpt lat="64.05256653" lon="-21.97970963"><ele>14.7</ele><time>2012-07-28T19:55:21.0000000+00:00</time></trkpt><trkpt lat="64.05256653" lon="-21.97970963"><ele>14.8</ele><time>2012-07-28T19:55:26.0000000+00:00</time></trkpt><trkpt lat="64.05256653" lon="-21.97970963"><ele>14.8</ele><time>2012-07-28T19:55:31.0000000+00:00</time></trkpt><trkpt lat="64.05256653" lon="-21.97970963"><ele>14.8</ele><time>2012-07-28T19:55:36.0000000+00:00</time></trkpt><trkpt lat="64.05256653" lon="-21.97970963"><ele>14.9</ele><time>2012-07-28T19:55:41.0000000+00:00</time></trkpt><trkpt lat="64.05256653" lon="-21.97970963"><ele>14.9</ele><time>2012-07-28T19:55:46.0000000+00:00</time></trkpt><trkpt lat="64.05256653" lon="-21.97970963"><ele>15.0</ele><time>2012-07-28T19:55:51.0000000+00:00</time></trkpt><trkpt lat="64.05256653" lon="-21.97970963"><ele>15.1</ele><time>2012-07-28T19:55:56.0000000+00:00</time></trkpt><trkpt lat="64.05256653" lon="-21.97970963"><ele>15.1</ele><time>2012-07-28T19:56:01.0000000+00:00</time></trkpt><trkpt lat="64.05256653" lon="-21.97970963"><ele>15.1</ele><time>2012-07-28T19:56:06.0000000+00:00</time></trkpt><trkpt lat="64.05256653" lon="-21.97970963"><ele>15.2</ele><time>2012-07-28T19:56:11.0000000+00:00</time></trkpt><trkpt lat="64.05256653" lon="-21.97970963"><ele>15.2</ele><time>2012-07-28T19:56:16.0000000+00:00</time></trkpt><trkpt lat="64.05256653" lon="-21.97970963"><ele>15.2</ele><time>2012-07-28T19:56:21.0000000+00:00</time></trkpt><trkpt lat="64.05256653" lon="-21.97970963"><ele>15.2</ele><time>2012-07-28T19:56:26.0000000+00:00</time></trkpt><trkpt lat="64.05256653" lon="-21.97970963"><ele>15.3</ele><time>2012-07-28T19:56:31.0000000+00:00</time></trkpt><trkpt lat="64.05256653" lon="-21.97970963"><ele>15.3</ele><time>2012-07-28T19:56:36.0000000+00:00</time></trkpt><trkpt lat="64.05256653" lon="-21.97970963"><ele>15.3</ele><time>2012-07-28T19:56:41.0000000+00:00</time></trkpt><trkpt lat="64.05256653" lon="-21.97970963"><ele>15.3</ele><time>2012-07-28T19:56:46.0000000+00:00</time></trkpt><trkpt lat="64.05256653" lon="-21.97970963"><ele>15.3</ele><time>2012-07-28T19:56:51.0000000+00:00</time></trkpt><trkpt lat="64.05256653" lon="-21.97970963"><ele>15.3</ele><time>2012-07-28T19:56:56.0000000+00:00</time></trkpt><trkpt lat="64.05256653" lon="-21.97970963"><ele>15.4</ele><time>2012-07-28T19:57:01.0000000+00:00</time></trkpt><trkpt lat="64.05256653" lon="-21.97970963"><ele>15.4</ele><time>2012-07-28T19:57:06.0000000+00:00</time></trkpt><trkpt lat="64.05257416" lon="-21.97970963"><ele>15.4</ele><time>2012-07-28T19:57:11.0000000+00:00</time></trkpt><trkpt lat="64.05257416" lon="-21.97970963"><ele>15.4</ele><time>2012-07-28T19:57:16.0000000+00:00</time></trkpt><trkpt lat="64.05257416" lon="-21.97970772"><ele>15.4</ele><time>2012-07-28T19:57:21.0000000+00:00</time></trkpt><trkpt lat="64.05257416" lon="-21.97970772"><ele>15.4</ele><time>2012-07-28T19:57:26.0000000+00:00</time></trkpt><trkpt lat="64.05257416" lon="-21.97970772"><ele>15.4</ele><time>2012-07-28T19:57:31.0000000+00:00</time></trkpt><trkpt lat="64.05257416" lon="-21.97970772"><ele>15.4</ele><time>2012-07-28T19:57:36.0000000+00:00</time></trkpt><trkpt lat="64.05257416" lon="-21.97970772"><ele>15.5</ele><time>2012-07-28T19:57:41.0000000+00:00</time></trkpt><trkpt lat="64.05257416" lon="-21.97970772"><ele>15.5</ele><time>2012-07-28T19:57:46.0000000+00:00</time></trkpt><trkpt lat="64.05257416" lon="-21.97970772"><ele>15.5</ele><time>2012-07-28T19:57:51.0000000+00:00</time></trkpt><trkpt lat="64.05257416" lon="-21.97970581"><ele>15.5</ele><time>2012-07-28T19:57:56.0000000+00:00</time></trkpt><trkpt lat="64.05257416" lon="-21.97970581"><ele>15.5</ele><time>2012-07-28T19:58:01.0000000+00:00</time></trkpt><trkpt lat="64.05257416" lon="-21.97970581"><ele>15.5</ele><time>2012-07-28T19:58:06.0000000+00:00</time></trkpt><trkpt lat="64.05257416" lon="-21.97970581"><ele>15.5</ele><time>2012-07-28T19:58:11.0000000+00:00</time></trkpt><trkpt lat="64.05257416" lon="-21.97970581"><ele>15.6</ele><time>2012-07-28T19:58:16.0000000+00:00</time></trkpt><trkpt lat="64.05257416" lon="-21.97970581"><ele>15.6</ele><time>2012-07-28T19:58:21.0000000+00:00</time></trkpt><trkpt lat="64.05257416" lon="-21.97970581"><ele>15.6</ele><time>2012-07-28T19:58:26.0000000+00:00</time></trkpt><trkpt lat="64.05257416" lon="-21.97970581"><ele>15.7</ele><time>2012-07-28T19:58:31.0000000+00:00</time></trkpt><trkpt lat="64.05257416" lon="-21.9797039"><ele>15.7</ele><time>2012-07-28T19:58:36.0000000+00:00</time></trkpt><trkpt lat="64.05257416" lon="-21.9797039"><ele>15.6</ele><time>2012-07-28T19:58:41.0000000+00:00</time></trkpt><trkpt lat="64.05257416" lon="-21.979702"><ele>15.5</ele><time>2012-07-28T19:58:46.0000000+00:00</time></trkpt><trkpt lat="64.05257416" lon="-21.979702"><ele>15.5</ele><time>2012-07-28T19:58:51.0000000+00:00</time></trkpt><trkpt lat="64.05256653" lon="-21.97970009"><ele>15.4</ele><time>2012-07-28T19:58:56.0000000+00:00</time></trkpt><trkpt lat="64.05256653" lon="-21.97970009"><ele>15.3</ele><time>2012-07-28T19:59:01.0000000+00:00</time></trkpt><trkpt lat="64.05256653" lon="-21.97970009"><ele>15.3</ele><time>2012-07-28T19:59:06.0000000+00:00</time></trkpt><trkpt lat="64.05256653" lon="-21.97969627"><ele>15.3</ele><time>2012-07-28T19:59:11.0000000+00:00</time></trkpt><trkpt lat="64.05256653" lon="-21.97969437"><ele>15.3</ele><time>2012-07-28T19:59:16.0000000+00:00</time></trkpt><trkpt lat="64.05256653" lon="-21.97969246"><ele>15.4</ele><time>2012-07-28T19:59:21.0000000+00:00</time></trkpt><trkpt lat="64.05256653" lon="-21.97968864"><ele>15.5</ele><time>2012-07-28T19:59:26.0000000+00:00</time></trkpt><trkpt lat="64.05256653" lon="-21.97968864"><ele>15.6</ele><time>2012-07-28T19:59:31.0000000+00:00</time></trkpt><trkpt lat="64.05256653" lon="-21.97968674"><ele>15.7</ele><time>2012-07-28T19:59:36.0000000+00:00</time></trkpt><trkpt lat="64.05256653" lon="-21.97968674"><ele>16.0</ele><time>2012-07-28T19:59:41.0000000+00:00</time></trkpt><trkpt lat="64.05256653" lon="-21.97968483"><ele>16.3</ele><time>2012-07-28T19:59:46.0000000+00:00</time></trkpt><trkpt lat="64.05256653" lon="-21.97968292"><ele>16.6</ele><time>2012-07-28T19:59:51.0000000+00:00</time></trkpt><trkpt lat="64.05256653" lon="-21.97968102"><ele>16.9</ele><time>2012-07-28T19:59:56.0000000+00:00</time></trkpt><trkpt lat="64.05256653" lon="-21.9796772"><ele>17.3</ele><time>2012-07-28T20:00:01.0000000+00:00</time></trkpt><trkpt lat="64.05256653" lon="-21.97967339"><ele>17.8</ele><time>2012-07-28T20:00:06.0000000+00:00</time></trkpt><trkpt lat="64.05256653" lon="-21.97966957"><ele>18.4</ele><time>2012-07-28T20:00:11.0000000+00:00</time></trkpt><trkpt lat="64.05256653" lon="-21.97966576"><ele>19.0</ele><time>2012-07-28T20:00:16.0000000+00:00</time></trkpt><trkpt lat="64.05256653" lon="-21.97966194"><ele>19.7</ele><time>2012-07-28T20:00:21.0000000+00:00</time></trkpt><trkpt lat="64.05256653" lon="-21.97966194"><ele>20.4</ele><time>2012-07-28T20:00:26.0000000+00:00</time></trkpt><trkpt lat="64.05256653" lon="-21.97965813"><ele>21.1</ele><time>2012-07-28T20:00:31.0000000+00:00</time></trkpt><trkpt lat="64.05257416" lon="-21.97965431"><ele>21.9</ele><time>2012-07-28T20:00:36.0000000+00:00</time></trkpt><trkpt lat="64.05257416" lon="-21.97965241"><ele>22.7</ele><time>2012-07-28T20:00:41.0000000+00:00</time></trkpt><trkpt lat="64.05257416" lon="-21.97964859"><ele>23.5</ele><time>2012-07-28T20:00:46.0000000+00:00</time></trkpt><trkpt lat="64.05257416" lon="-21.97964287"><ele>24.3</ele><time>2012-07-28T20:00:51.0000000+00:00</time></trkpt><trkpt lat="64.05257416" lon="-21.97963715"><ele>25.1</ele><time>2012-07-28T20:00:56.0000000+00:00</time></trkpt><trkpt lat="64.05256653" lon="-21.97962952"><ele>25.9</ele><time>2012-07-28T20:01:01.0000000+00:00</time></trkpt><trkpt lat="64.05256653" lon="-21.97962189"><ele>26.8</ele><time>2012-07-28T20:01:06.0000000+00:00</time></trkpt><trkpt lat="64.05257416" lon="-21.97961998"><ele>27.8</ele><time>2012-07-28T20:01:11.0000000+00:00</time></trkpt><trkpt lat="64.05257416" lon="-21.97961235"><ele>28.9</ele><time>2012-07-28T20:01:16.0000000+00:00</time></trkpt><trkpt lat="64.05257416" lon="-21.97960854"><ele>30.1</ele><time>2012-07-28T20:01:21.0000000+00:00</time></trkpt><trkpt lat="64.05257416" lon="-21.97960663"><ele>31.5</ele><time>2012-07-28T20:01:26.0000000+00:00</time></trkpt><trkpt lat="64.05257416" lon="-21.97960281"><ele>33.2</ele><time>2012-07-28T20:01:31.0000000+00:00</time></trkpt><trkpt lat="64.05258179" lon="-21.979599"><ele>35.1</ele><time>2012-07-28T20:01:36.0000000+00:00</time></trkpt><trkpt lat="64.05258942" lon="-21.97960663"><ele>37.3</ele><time>2012-07-28T20:01:41.0000000+00:00</time></trkpt><trkpt lat="64.05259705" lon="-21.9796257"><ele>39.7</ele><time>2012-07-28T20:01:46.0000000+00:00</time></trkpt><trkpt lat="64.05261231" lon="-21.97964096"><ele>42.1</ele><time>2012-07-28T20:01:51.0000000+00:00</time></trkpt><trkpt lat="64.05261993" lon="-21.97965622"><ele>44.5</ele><time>2012-07-28T20:01:56.0000000+00:00</time></trkpt><trkpt lat="64.05261993" lon="-21.97964668"><ele>46.7</ele><time>2012-07-28T20:02:01.0000000+00:00</time></trkpt><trkpt lat="64.05263519" lon="-21.9797039"><ele>43.3</ele><time>2012-07-28T20:02:06.0000000+00:00</time></trkpt><trkpt lat="64.05264282" lon="-21.97971344"><ele>42.0</ele><time>2012-07-28T20:02:11.0000000+00:00</time></trkpt><trkpt lat="64.05264282" lon="-21.97970009"><ele>42.9</ele><time>2012-07-28T20:02:16.0000000+00:00</time></trkpt><trkpt lat="64.05263519" lon="-21.97969246"><ele>43.7</ele><time>2012-07-28T20:02:21.0000000+00:00</time></trkpt><trkpt lat="64.05263519" lon="-21.97968483"><ele>44.2</ele><time>2012-07-28T20:02:26.0000000+00:00</time></trkpt><trkpt lat="64.05263519" lon="-21.97967148"><ele>44.6</ele><time>2012-07-28T20:02:31.0000000+00:00</time></trkpt><trkpt lat="64.05263519" lon="-21.97966385"><ele>44.8</ele><time>2012-07-28T20:02:36.0000000+00:00</time></trkpt><trkpt lat="64.05263519" lon="-21.97966194"><ele>44.9</ele><time>2012-07-28T20:02:41.0000000+00:00</time></trkpt><trkpt lat="64.05262756" lon="-21.97966194"><ele>44.9</ele><time>2012-07-28T20:02:46.0000000+00:00</time></trkpt><trkpt lat="64.05262756" lon="-21.97966194"><ele>44.8</ele><time>2012-07-28T20:02:51.0000000+00:00</time></trkpt><trkpt lat="64.05263519" lon="-21.97966385"><ele>44.7</ele><time>2012-07-28T20:02:56.0000000+00:00</time></trkpt><trkpt lat="64.05263519" lon="-21.97966576"><ele>44.5</ele><time>2012-07-28T20:03:01.0000000+00:00</time></trkpt><trkpt lat="64.05263519" lon="-21.97966766"><ele>44.3</ele><time>2012-07-28T20:03:06.0000000+00:00</time></trkpt><trkpt lat="64.05263519" lon="-21.97967339"><ele>44.1</ele><time>2012-07-28T20:03:11.0000000+00:00</time></trkpt><trkpt lat="64.05263519" lon="-21.97967529"><ele>43.9</ele><time>2012-07-28T20:03:16.0000000+00:00</time></trkpt><trkpt lat="64.05263519" lon="-21.97968864"><ele>44.1</ele><time>2012-07-28T20:03:21.0000000+00:00</time></trkpt><trkpt lat="64.0526886" lon="-21.97963905"><ele>41.5</ele><time>2012-07-28T20:03:26.0000000+00:00</time></trkpt><trkpt lat="64.05276489" lon="-21.97938538"><ele>38.2</ele><time>2012-07-28T20:03:31.0000000+00:00</time></trkpt><trkpt lat="64.05283356" lon="-21.97908402"><ele>38.4</ele><time>2012-07-28T20:03:36.0000000+00:00</time></trkpt><trkpt lat="64.05290222" lon="-21.9787941"><ele>38.6</ele><time>2012-07-28T20:03:41.0000000+00:00</time></trkpt><trkpt lat="64.0530014" lon="-21.97838783"><ele>38.2</ele><time>2012-07-28T20:03:46.0000000+00:00</time></trkpt><trkpt lat="64.0530777" lon="-21.97801971"><ele>37.2</ele><time>2012-07-28T20:03:51.0000000+00:00</time></trkpt><trkpt lat="64.05313873" lon="-21.97766686"><ele>37.1</ele><time>2012-07-28T20:03:56.0000000+00:00</time></trkpt><trkpt lat="64.0532074" lon="-21.97724342"><ele>37.7</ele><time>2012-07-28T20:04:01.0000000+00:00</time></trkpt><trkpt lat="64.05321503" lon="-21.9768486"><ele>35.8</ele><time>2012-07-28T20:04:06.0000000+00:00</time></trkpt><trkpt lat="64.05321503" lon="-21.9764576"><ele>28.4</ele><time>2012-07-28T20:04:11.0000000+00:00</time></trkpt><trkpt lat="64.05324554" lon="-21.97612763"><ele>25.4</ele><time>2012-07-28T20:04:16.0000000+00:00</time></trkpt><trkpt lat="64.05331421" lon="-21.97587013"><ele>24.7</ele><time>2012-07-28T20:04:21.0000000+00:00</time></trkpt><trkpt lat="64.05338287" lon="-21.97560692"><ele>27.0</ele><time>2012-07-28T20:04:26.0000000+00:00</time></trkpt><trkpt lat="64.05344391" lon="-21.97524262"><ele>26.5</ele><time>2012-07-28T20:04:31.0000000+00:00</time></trkpt><trkpt lat="64.05349731" lon="-21.97492409"><ele>26.2</ele><time>2012-07-28T20:04:36.0000000+00:00</time></trkpt><trkpt lat="64.05355072" lon="-21.97458458"><ele>26.3</ele><time>2012-07-28T20:04:41.0000000+00:00</time></trkpt><trkpt lat="64.0535965" lon="-21.9742775"><ele>26.1</ele><time>2012-07-28T20:04:46.0000000+00:00</time></trkpt><trkpt lat="64.05365753" lon="-21.97397232"><ele>25.6</ele><time>2012-07-28T20:04:51.0000000+00:00</time></trkpt><trkpt lat="64.05370331" lon="-21.9736824"><ele>25.4</ele><time>2012-07-28T20:04:56.0000000+00:00</time></trkpt><trkpt lat="64.05375671" lon="-21.97338867"><ele>26.1</ele><time>2012-07-28T20:05:01.0000000+00:00</time></trkpt><trkpt lat="64.05381012" lon="-21.97306061"><ele>26.9</ele><time>2012-07-28T20:05:06.0000000+00:00</time></trkpt><trkpt lat="64.05386353" lon="-21.97273254"><ele>26.7</ele><time>2012-07-28T20:05:11.0000000+00:00</time></trkpt><trkpt lat="64.05390167" lon="-21.97244835"><ele>26.8</ele><time>2012-07-28T20:05:16.0000000+00:00</time></trkpt><trkpt lat="64.05394745" lon="-21.97217941"><ele>26.8</ele><time>2012-07-28T20:05:21.0000000+00:00</time></trkpt><trkpt lat="64.0539856" lon="-21.97192192"><ele>26.8</ele><time>2012-07-28T20:05:26.0000000+00:00</time></trkpt><trkpt lat="64.05402374" lon="-21.9716816"><ele>27.2</ele><time>2012-07-28T20:05:31.0000000+00:00</time></trkpt><trkpt lat="64.05405426" lon="-21.9714489"><ele>26.8</ele><time>2012-07-28T20:05:36.0000000+00:00</time></trkpt><trkpt lat="64.05409241" lon="-21.97114754"><ele>26.0</ele><time>2012-07-28T20:05:41.0000000+00:00</time></trkpt><trkpt lat="64.05413818" lon="-21.97081757"><ele>25.4</ele><time>2012-07-28T20:05:46.0000000+00:00</time></trkpt><trkpt lat="64.05416107" lon="-21.97049522"><ele>22.5</ele><time>2012-07-28T20:05:51.0000000+00:00</time></trkpt><trkpt lat="64.05406189" lon="-21.97023583"><ele>20.2</ele><time>2012-07-28T20:05:56.0000000+00:00</time></trkpt><trkpt lat="64.05387878" lon="-21.97007942"><ele>22.0</ele><time>2012-07-28T20:06:01.0000000+00:00</time></trkpt><trkpt lat="64.05371857" lon="-21.97003746"><ele>21.5</ele><time>2012-07-28T20:06:06.0000000+00:00</time></trkpt><trkpt lat="64.05358124" lon="-21.97010422"><ele>21.5</ele><time>2012-07-28T20:06:11.0000000+00:00</time></trkpt><trkpt lat="64.05344391" lon="-21.9700222"><ele>22.3</ele><time>2012-07-28T20:06:16.0000000+00:00</time></trkpt><trkpt lat="64.05345917" lon="-21.9696846"><ele>25.1</ele><time>2012-07-28T20:06:21.0000000+00:00</time></trkpt><trkpt lat="64.05352783" lon="-21.96941757"><ele>24.9</ele><time>2012-07-28T20:06:26.0000000+00:00</time></trkpt><trkpt lat="64.0535965" lon="-21.96921921"><ele>24.2</ele><time>2012-07-28T20:06:31.0000000+00:00</time></trkpt><trkpt lat="64.05367279" lon="-21.96894646"><ele>24.9</ele><time>2012-07-28T20:06:36.0000000+00:00</time></trkpt><trkpt lat="64.05374908" lon="-21.96856499"><ele>24.9</ele><time>2012-07-28T20:06:41.0000000+00:00</time></trkpt><trkpt lat="64.05384064" lon="-21.96820831"><ele>25.5</ele><time>2012-07-28T20:06:46.0000000+00:00</time></trkpt><trkpt lat="64.05393219" lon="-21.96788406"><ele>25.6</ele><time>2012-07-28T20:06:51.0000000+00:00</time></trkpt><trkpt lat="64.05404663" lon="-21.96761704"><ele>25.7</ele><time>2012-07-28T20:06:56.0000000+00:00</time></trkpt><trkpt lat="64.05419159" lon="-21.96736908"><ele>26.3</ele><time>2012-07-28T20:07:01.0000000+00:00</time></trkpt><trkpt lat="64.05429077" lon="-21.96718979"><ele>27.3</ele><time>2012-07-28T20:07:06.0000000+00:00</time></trkpt><trkpt lat="64.05436707" lon="-21.96695137"><ele>27.8</ele><time>2012-07-28T20:07:11.0000000+00:00</time></trkpt><trkpt lat="64.0543747" lon="-21.9666481"><ele>28.8</ele><time>2012-07-28T20:07:16.0000000+00:00</time></trkpt><trkpt lat="64.05430603" lon="-21.96637917"><ele>29.8</ele><time>2012-07-28T20:07:21.0000000+00:00</time></trkpt><trkpt lat="64.05421448" lon="-21.96606064"><ele>27.1</ele><time>2012-07-28T20:07:26.0000000+00:00</time></trkpt><trkpt lat="64.054245" lon="-21.96577263"><ele>29.6</ele><time>2012-07-28T20:07:31.0000000+00:00</time></trkpt><trkpt lat="64.05427551" lon="-21.96543312"><ele>29.7</ele><time>2012-07-28T20:07:36.0000000+00:00</time></trkpt><trkpt lat="64.05432129" lon="-21.96515846"><ele>29.6</ele><time>2012-07-28T20:07:41.0000000+00:00</time></trkpt><trkpt lat="64.05435944" lon="-21.96487236"><ele>29.9</ele><time>2012-07-28T20:07:46.0000000+00:00</time></trkpt><trkpt lat="64.05438995" lon="-21.96463203"><ele>31.5</ele><time>2012-07-28T20:07:51.0000000+00:00</time></trkpt><trkpt lat="64.05443573" lon="-21.9643898"><ele>31.8</ele><time>2012-07-28T20:07:56.0000000+00:00</time></trkpt><trkpt lat="64.05448151" lon="-21.96418381"><ele>32.7</ele><time>2012-07-28T20:08:01.0000000+00:00</time></trkpt><trkpt lat="64.05452728" lon="-21.96398926"><ele>32.8</ele><time>2012-07-28T20:08:06.0000000+00:00</time></trkpt><trkpt lat="64.05458832" lon="-21.96382141"><ele>34.8</ele><time>2012-07-28T20:08:11.0000000+00:00</time></trkpt><trkpt lat="64.05464172" lon="-21.96369171"><ele>35.6</ele><time>2012-07-28T20:08:16.0000000+00:00</time></trkpt><trkpt lat="64.05471039" lon="-21.96361351"><ele>36.7</ele><time>2012-07-28T20:08:21.0000000+00:00</time></trkpt><trkpt lat="64.05476379" lon="-21.96351814"><ele>36.5</ele><time>2012-07-28T20:08:26.0000000+00:00</time></trkpt><trkpt lat="64.05480957" lon="-21.96343803"><ele>37.3</ele><time>2012-07-28T20:08:31.0000000+00:00</time></trkpt><trkpt lat="64.05487824" lon="-21.96337509"><ele>38.2</ele><time>2012-07-28T20:08:36.0000000+00:00</time></trkpt><trkpt lat="64.0549469" lon="-21.96329498"><ele>39.2</ele><time>2012-07-28T20:08:41.0000000+00:00</time></trkpt><trkpt lat="64.05500794" lon="-21.96321869"><ele>40.6</ele><time>2012-07-28T20:08:46.0000000+00:00</time></trkpt><trkpt lat="64.05506897" lon="-21.96318436"><ele>41.9</ele><time>2012-07-28T20:08:51.0000000+00:00</time></trkpt><trkpt lat="64.05512238" lon="-21.96311951"><ele>43.2</ele><time>2012-07-28T20:08:56.0000000+00:00</time></trkpt><trkpt lat="64.05518341" lon="-21.96307755"><ele>44.6</ele><time>2012-07-28T20:09:01.0000000+00:00</time></trkpt><trkpt lat="64.05524445" lon="-21.9630146"><ele>44.9</ele><time>2012-07-28T20:09:06.0000000+00:00</time></trkpt><trkpt lat="64.05529785" lon="-21.96295929"><ele>45.6</ele><time>2012-07-28T20:09:11.0000000+00:00</time></trkpt><trkpt lat="64.055336" lon="-21.96294212"><ele>46.7</ele><time>2012-07-28T20:09:16.0000000+00:00</time></trkpt><trkpt lat="64.05540466" lon="-21.96283913"><ele>47.0</ele><time>2012-07-28T20:09:21.0000000+00:00</time></trkpt><trkpt lat="64.05548096" lon="-21.96276474"><ele>47.3</ele><time>2012-07-28T20:09:26.0000000+00:00</time></trkpt><trkpt lat="64.05555725" lon="-21.96266937"><ele>48.8</ele><time>2012-07-28T20:09:31.0000000+00:00</time></trkpt><trkpt lat="64.05563355" lon="-21.96256828"><ele>49.4</ele><time>2012-07-28T20:09:36.0000000+00:00</time></trkpt><trkpt lat="64.05569458" lon="-21.96248627"><ele>49.3</ele><time>2012-07-28T20:09:41.0000000+00:00</time></trkpt><trkpt lat="64.05575562" lon="-21.96240234"><ele>49.2</ele><time>2012-07-28T20:09:46.0000000+00:00</time></trkpt><trkpt lat="64.05580139" lon="-21.96230125"><ele>47.5</ele><time>2012-07-28T20:09:51.0000000+00:00</time></trkpt><trkpt lat="64.05584717" lon="-21.96219254"><ele>46.8</ele><time>2012-07-28T20:09:56.0000000+00:00</time></trkpt><trkpt lat="64.05589294" lon="-21.96206856"><ele>45.9</ele><time>2012-07-28T20:10:01.0000000+00:00</time></trkpt><trkpt lat="64.05593109" lon="-21.96192932"><ele>46.1</ele><time>2012-07-28T20:10:06.0000000+00:00</time></trkpt><trkpt lat="64.05596924" lon="-21.96179771"><ele>46.2</ele><time>2012-07-28T20:10:11.0000000+00:00</time></trkpt><trkpt lat="64.05600739" lon="-21.96167183"><ele>47.1</ele><time>2012-07-28T20:10:16.0000000+00:00</time></trkpt><trkpt lat="64.0560379" lon="-21.96151543"><ele>47.7</ele><time>2012-07-28T20:10:21.0000000+00:00</time></trkpt><trkpt lat="64.05607605" lon="-21.96136475"><ele>47.5</ele><time>2012-07-28T20:10:26.0000000+00:00</time></trkpt><trkpt lat="64.05610657" lon="-21.96120453"><ele>48.1</ele><time>2012-07-28T20:10:31.0000000+00:00</time></trkpt><trkpt lat="64.05613709" lon="-21.96103668"><ele>48.5</ele><time>2012-07-28T20:10:36.0000000+00:00</time></trkpt><trkpt lat="64.05615997" lon="-21.96086311"><ele>48.5</ele><time>2012-07-28T20:10:41.0000000+00:00</time></trkpt><trkpt lat="64.05617523" lon="-21.9607048"><ele>49.1</ele><time>2012-07-28T20:10:46.0000000+00:00</time></trkpt><trkpt lat="64.05620575" lon="-21.96055603"><ele>48.9</ele><time>2012-07-28T20:10:51.0000000+00:00</time></trkpt><trkpt lat="64.05622864" lon="-21.96041107"><ele>50.0</ele><time>2012-07-28T20:10:56.0000000+00:00</time></trkpt><trkpt lat="64.05625916" lon="-21.96023369"><ele>51.0</ele><time>2012-07-28T20:11:01.0000000+00:00</time></trkpt><trkpt lat="64.0562973" lon="-21.96006775"><ele>51.4</ele><time>2012-07-28T20:11:06.0000000+00:00</time></trkpt><trkpt lat="64.05632782" lon="-21.95990181"><ele>51.0</ele><time>2012-07-28T20:11:11.0000000+00:00</time></trkpt><trkpt lat="64.05635071" lon="-21.95974541"><ele>51.5</ele><time>2012-07-28T20:11:16.0000000+00:00</time></trkpt><trkpt lat="64.0563736" lon="-21.95956421"><ele>51.9</ele><time>2012-07-28T20:11:21.0000000+00:00</time></trkpt><trkpt lat="64.05640411" lon="-21.95938301"><ele>52.2</ele><time>2012-07-28T20:11:26.0000000+00:00</time></trkpt><trkpt lat="64.056427" lon="-21.95919418"><ele>51.6</ele><time>2012-07-28T20:11:31.0000000+00:00</time></trkpt><trkpt lat="64.05644989" lon="-21.95899773"><ele>52.3</ele><time>2012-07-28T20:11:36.0000000+00:00</time></trkpt><trkpt lat="64.05647278" lon="-21.95883179"><ele>52.6</ele><time>2012-07-28T20:11:41.0000000+00:00</time></trkpt><trkpt lat="64.05649567" lon="-21.95866966"><ele>52.8</ele><time>2012-07-28T20:11:46.0000000+00:00</time></trkpt><trkpt lat="64.05651093" lon="-21.95847702"><ele>53.5</ele><time>2012-07-28T20:11:51.0000000+00:00</time></trkpt><trkpt lat="64.05653381" lon="-21.95828819"><ele>54.2</ele><time>2012-07-28T20:11:56.0000000+00:00</time></trkpt><trkpt lat="64.05656433" lon="-21.9581089"><ele>54.5</ele><time>2012-07-28T20:12:01.0000000+00:00</time></trkpt><trkpt lat="64.05659485" lon="-21.95792961"><ele>54.9</ele><time>2012-07-28T20:12:06.0000000+00:00</time></trkpt><trkpt lat="64.05662537" lon="-21.95776558"><ele>55.4</ele><time>2012-07-28T20:12:11.0000000+00:00</time></trkpt><trkpt lat="64.05664825" lon="-21.95758057"><ele>56.1</ele><time>2012-07-28T20:12:16.0000000+00:00</time></trkpt><trkpt lat="64.05667877" lon="-21.95739174"><ele>57.0</ele><time>2012-07-28T20:12:21.0000000+00:00</time></trkpt><trkpt lat="64.05670929" lon="-21.9571991"><ele>56.7</ele><time>2012-07-28T20:12:26.0000000+00:00</time></trkpt><trkpt lat="64.05673981" lon="-21.95703697"><ele>56.3</ele><time>2012-07-28T20:12:31.0000000+00:00</time></trkpt><trkpt lat="64.05677033" lon="-21.95687676"><ele>56.7</ele><time>2012-07-28T20:12:36.0000000+00:00</time></trkpt><trkpt lat="64.05680847" lon="-21.95672226"><ele>57.5</ele><time>2012-07-28T20:12:41.0000000+00:00</time></trkpt><trkpt lat="64.05684662" lon="-21.95652199"><ele>58.0</ele><time>2012-07-28T20:12:46.0000000+00:00</time></trkpt><trkpt lat="64.05687714" lon="-21.95631981"><ele>58.0</ele><time>2012-07-28T20:12:51.0000000+00:00</time></trkpt><trkpt lat="64.05690765" lon="-21.95612907"><ele>58.8</ele><time>2012-07-28T20:12:56.0000000+00:00</time></trkpt><trkpt lat="64.05693817" lon="-21.95592499"><ele>59.0</ele><time>2012-07-28T20:13:01.0000000+00:00</time></trkpt><trkpt lat="64.05696869" lon="-21.95572853"><ele>58.9</ele><time>2012-07-28T20:13:06.0000000+00:00</time></trkpt><trkpt lat="64.05699921" lon="-21.955513"><ele>58.5</ele><time>2012-07-28T20:13:11.0000000+00:00</time></trkpt><trkpt lat="64.05703735" lon="-21.95529938"><ele>59.1</ele><time>2012-07-28T20:13:16.0000000+00:00</time></trkpt><trkpt lat="64.05705261" lon="-21.95508385"><ele>60.1</ele><time>2012-07-28T20:13:21.0000000+00:00</time></trkpt><trkpt lat="64.0570755" lon="-21.95487022"><ele>61.0</ele><time>2012-07-28T20:13:26.0000000+00:00</time></trkpt><trkpt lat="64.05709076" lon="-21.95463371"><ele>62.2</ele><time>2012-07-28T20:13:31.0000000+00:00</time></trkpt><trkpt lat="64.05710602" lon="-21.954422"><ele>62.5</ele><time>2012-07-28T20:13:36.0000000+00:00</time></trkpt><trkpt lat="64.05710602" lon="-21.95418739"><ele>63.4</ele><time>2012-07-28T20:13:41.0000000+00:00</time></trkpt><trkpt lat="64.05709839" lon="-21.9539566"><ele>64.1</ele><time>2012-07-28T20:13:46.0000000+00:00</time></trkpt><trkpt lat="64.05706787" lon="-21.95374489"><ele>64.1</ele><time>2012-07-28T20:13:51.0000000+00:00</time></trkpt><trkpt lat="64.05706024" lon="-21.95350838"><ele>63.6</ele><time>2012-07-28T20:13:56.0000000+00:00</time></trkpt><trkpt lat="64.05704498" lon="-21.9532795"><ele>65.5</ele><time>2012-07-28T20:14:01.0000000+00:00</time></trkpt><trkpt lat="64.05702972" lon="-21.95302963"><ele>65.9</ele><time>2012-07-28T20:14:06.0000000+00:00</time></trkpt><trkpt lat="64.05704498" lon="-21.95275307"><ele>65.9</ele><time>2012-07-28T20:14:11.0000000+00:00</time></trkpt><trkpt lat="64.05708313" lon="-21.95251083"><ele>65.7</ele><time>2012-07-28T20:14:16.0000000+00:00</time></trkpt><trkpt lat="64.05711365" lon="-21.95229721"><ele>66.0</ele><time>2012-07-28T20:14:21.0000000+00:00</time></trkpt><trkpt lat="64.05713654" lon="-21.95215797"><ele>66.2</ele><time>2012-07-28T20:14:26.0000000+00:00</time></trkpt><trkpt lat="64.05714417" lon="-21.95211792"><ele>65.6</ele><time>2012-07-28T20:14:31.0000000+00:00</time></trkpt><trkpt lat="64.05714417" lon="-21.95211792"><ele>65.6</ele><time>2012-07-28T20:14:36.0000000+00:00</time></trkpt><trkpt lat="64.05714417" lon="-21.95211983"><ele>65.6</ele><time>2012-07-28T20:14:41.0000000+00:00</time></trkpt><trkpt lat="64.05715179" lon="-21.95205879"><ele>65.3</ele><time>2012-07-28T20:14:46.0000000+00:00</time></trkpt><trkpt lat="64.05718994" lon="-21.95188904"><ele>65.7</ele><time>2012-07-28T20:14:51.0000000+00:00</time></trkpt><trkpt lat="64.05724335" lon="-21.95166397"><ele>66.3</ele><time>2012-07-28T20:14:56.0000000+00:00</time></trkpt><trkpt lat="64.05731964" lon="-21.95141411"><ele>66.9</ele><time>2012-07-28T20:15:01.0000000+00:00</time></trkpt><trkpt lat="64.05738068" lon="-21.95121193"><ele>67.7</ele><time>2012-07-28T20:15:06.0000000+00:00</time></trkpt><trkpt lat="64.05744934" lon="-21.95099258"><ele>67.9</ele><time>2012-07-28T20:15:11.0000000+00:00</time></trkpt><trkpt lat="64.05751801" lon="-21.95079041"><ele>68.3</ele><time>2012-07-28T20:15:16.0000000+00:00</time></trkpt><trkpt lat="64.05757904" lon="-21.95056343"><ele>68.7</ele><time>2012-07-28T20:15:21.0000000+00:00</time></trkpt><trkpt lat="64.05764008" lon="-21.95035172"><ele>68.1</ele><time>2012-07-28T20:15:26.0000000+00:00</time></trkpt><trkpt lat="64.05769348" lon="-21.95013046"><ele>66.5</ele><time>2012-07-28T20:15:31.0000000+00:00</time></trkpt><trkpt lat="64.05774689" lon="-21.94995117"><ele>67.0</ele><time>2012-07-28T20:15:36.0000000+00:00</time></trkpt><trkpt lat="64.05778503" lon="-21.9497757"><ele>68.2</ele><time>2012-07-28T20:15:41.0000000+00:00</time></trkpt><trkpt lat="64.05781555" lon="-21.94957733"><ele>68.8</ele><time>2012-07-28T20:15:46.0000000+00:00</time></trkpt><trkpt lat="64.0578537" lon="-21.94937325"><ele>70.0</ele><time>2012-07-28T20:15:51.0000000+00:00</time></trkpt><trkpt lat="64.05789948" lon="-21.94914818"><ele>72.5</ele><time>2012-07-28T20:15:56.0000000+00:00</time></trkpt><trkpt lat="64.05792236" lon="-21.94893265"><ele>73.0</ele><time>2012-07-28T20:16:01.0000000+00:00</time></trkpt><trkpt lat="64.05794525" lon="-21.94870949"><ele>74.1</ele><time>2012-07-28T20:16:06.0000000+00:00</time></trkpt><trkpt lat="64.05794525" lon="-21.94848251"><ele>75.4</ele><time>2012-07-28T20:16:11.0000000+00:00</time></trkpt><trkpt lat="64.05791473" lon="-21.94825172"><ele>76.8</ele><time>2012-07-28T20:16:16.0000000+00:00</time></trkpt><trkpt lat="64.0579071" lon="-21.94803047"><ele>76.5</ele><time>2012-07-28T20:16:21.0000000+00:00</time></trkpt><trkpt lat="64.0579834" lon="-21.94787598"><ele>77.7</ele><time>2012-07-28T20:16:26.0000000+00:00</time></trkpt><trkpt lat="64.05807495" lon="-21.94776154"><ele>77.9</ele><time>2012-07-28T20:16:31.0000000+00:00</time></trkpt><trkpt lat="64.05819702" lon="-21.94766998"><ele>78.2</ele><time>2012-07-28T20:16:36.0000000+00:00</time></trkpt><trkpt lat="64.05830383" lon="-21.94751549"><ele>78.3</ele><time>2012-07-28T20:16:41.0000000+00:00</time></trkpt><trkpt lat="64.05839539" lon="-21.94723129"><ele>77.8</ele><time>2012-07-28T20:16:46.0000000+00:00</time></trkpt><trkpt lat="64.05847931" lon="-21.94684982"><ele>76.3</ele><time>2012-07-28T20:16:51.0000000+00:00</time></trkpt><trkpt lat="64.05854797" lon="-21.94636536"><ele>74.9</ele><time>2012-07-28T20:16:56.0000000+00:00</time></trkpt><trkpt lat="64.05860901" lon="-21.94574356"><ele>74.3</ele><time>2012-07-28T20:17:01.0000000+00:00</time></trkpt><trkpt lat="64.05869293" lon="-21.94497299"><ele>73.6</ele><time>2012-07-28T20:17:06.0000000+00:00</time></trkpt><trkpt lat="64.05878449" lon="-21.944067"><ele>72.3</ele><time>2012-07-28T20:17:11.0000000+00:00</time></trkpt><trkpt lat="64.05887604" lon="-21.94311333"><ele>69.5</ele><time>2012-07-28T20:17:16.0000000+00:00</time></trkpt><trkpt lat="64.05896759" lon="-21.94207764"><ele>66.4</ele><time>2012-07-28T20:17:21.0000000+00:00</time></trkpt><trkpt lat="64.05896759" lon="-21.94093704"><ele>63.2</ele><time>2012-07-28T20:17:26.0000000+00:00</time></trkpt><trkpt lat="64.05891419" lon="-21.93980217"><ele>60.4</ele><time>2012-07-28T20:17:31.0000000+00:00</time></trkpt><trkpt lat="64.05908203" lon="-21.93897438"><ele>59.2</ele><time>2012-07-28T20:17:36.0000000+00:00</time></trkpt><trkpt lat="64.05931854" lon="-21.93849945"><ele>58.2</ele><time>2012-07-28T20:17:41.0000000+00:00</time></trkpt><trkpt lat="64.05956268" lon="-21.93869019"><ele>58.7</ele><time>2012-07-28T20:17:46.0000000+00:00</time></trkpt><trkpt lat="64.05960083" lon="-21.93876076"><ele>57.7</ele><time>2012-07-28T20:17:51.0000000+00:00</time></trkpt><trkpt lat="64.05960083" lon="-21.93876267"><ele>57.7</ele><time>2012-07-28T20:17:56.0000000+00:00</time></trkpt><trkpt lat="64.05960846" lon="-21.93877029"><ele>57.6</ele><time>2012-07-28T20:18:01.0000000+00:00</time></trkpt><trkpt lat="64.05966187" lon="-21.93888474"><ele>57.3</ele><time>2012-07-28T20:18:06.0000000+00:00</time></trkpt><trkpt lat="64.05965424" lon="-21.93901825"><ele>58.5</ele><time>2012-07-28T20:18:11.0000000+00:00</time></trkpt><trkpt lat="64.05950928" lon="-21.93909645"><ele>59.4</ele><time>2012-07-28T20:18:16.0000000+00:00</time></trkpt><trkpt lat="64.0594101" lon="-21.93939781"><ele>59.5</ele><time>2012-07-28T20:18:21.0000000+00:00</time></trkpt><trkpt lat="64.05941773" lon="-21.93984795"><ele>58.1</ele><time>2012-07-28T20:18:26.0000000+00:00</time></trkpt><trkpt lat="64.05947113" lon="-21.94035721"><ele>56.7</ele><time>2012-07-28T20:18:31.0000000+00:00</time></trkpt><trkpt lat="64.0597229" lon="-21.94068146"><ele>55.4</ele><time>2012-07-28T20:18:36.0000000+00:00</time></trkpt><trkpt lat="64.06001282" lon="-21.94037247"><ele>54.2</ele><time>2012-07-28T20:18:41.0000000+00:00</time></trkpt><trkpt lat="64.06031799" lon="-21.93988419"><ele>52.8</ele><time>2012-07-28T20:18:46.0000000+00:00</time></trkpt><trkpt lat="64.06065369" lon="-21.93943977"><ele>50.3</ele><time>2012-07-28T20:18:51.0000000+00:00</time></trkpt><trkpt lat="64.0610199" lon="-21.93902969"><ele>48.9</ele><time>2012-07-28T20:18:56.0000000+00:00</time></trkpt><trkpt lat="64.06143189" lon="-21.93876457"><ele>47.6</ele><time>2012-07-28T20:19:01.0000000+00:00</time></trkpt><trkpt lat="64.06182861" lon="-21.93866348"><ele>45.3</ele><time>2012-07-28T20:19:06.0000000+00:00</time></trkpt><trkpt lat="64.0622406" lon="-21.93854523"><ele>43.6</ele><time>2012-07-28T20:19:11.0000000+00:00</time></trkpt><trkpt lat="64.06267548" lon="-21.93840027"><ele>41.3</ele><time>2012-07-28T20:19:16.0000000+00:00</time></trkpt><trkpt lat="64.06314087" lon="-21.93824577"><ele>39.7</ele><time>2012-07-28T20:19:21.0000000+00:00</time></trkpt><trkpt lat="64.06362915" lon="-21.93807602"><ele>37.5</ele><time>2012-07-28T20:19:26.0000000+00:00</time></trkpt><trkpt lat="64.06409454" lon="-21.93791962"><ele>35.8</ele><time>2012-07-28T20:19:31.0000000+00:00</time></trkpt><trkpt lat="64.06452179" lon="-21.93780708"><ele>33.7</ele><time>2012-07-28T20:19:36.0000000+00:00</time></trkpt><trkpt lat="64.06494904" lon="-21.93768311"><ele>31.7</ele><time>2012-07-28T20:19:41.0000000+00:00</time></trkpt><trkpt lat="64.06536102" lon="-21.93758392"><ele>30.4</ele><time>2012-07-28T20:19:46.0000000+00:00</time></trkpt><trkpt lat="64.06572723" lon="-21.93747902"><ele>29.8</ele><time>2012-07-28T20:19:51.0000000+00:00</time></trkpt><trkpt lat="64.06604767" lon="-21.93742371"><ele>29.7</ele><time>2012-07-28T20:19:56.0000000+00:00</time></trkpt><trkpt lat="64.06635284" lon="-21.93742943"><ele>29.1</ele><time>2012-07-28T20:20:01.0000000+00:00</time></trkpt><trkpt lat="64.06660461" lon="-21.93746948"><ele>28.2</ele><time>2012-07-28T20:20:06.0000000+00:00</time></trkpt><trkpt lat="64.06682587" lon="-21.93745995"><ele>28.0</ele><time>2012-07-28T20:20:11.0000000+00:00</time></trkpt><trkpt lat="64.06700897" lon="-21.93728447"><ele>27.6</ele><time>2012-07-28T20:20:16.0000000+00:00</time></trkpt><trkpt lat="64.0672226" lon="-21.93721581"><ele>27.6</ele><time>2012-07-28T20:20:21.0000000+00:00</time></trkpt><trkpt lat="64.06742859" lon="-21.93751717"><ele>27.9</ele><time>2012-07-28T20:20:26.0000000+00:00</time></trkpt><trkpt lat="64.06764984" lon="-21.93769264"><ele>27.4</ele><time>2012-07-28T20:20:31.0000000+00:00</time></trkpt><trkpt lat="64.06787109" lon="-21.93774605"><ele>27.8</ele><time>2012-07-28T20:20:36.0000000+00:00</time></trkpt><trkpt lat="64.06808472" lon="-21.93781853"><ele>28.3</ele><time>2012-07-28T20:20:41.0000000+00:00</time></trkpt><trkpt lat="64.06829834" lon="-21.93787193"><ele>28.5</ele><time>2012-07-28T20:20:46.0000000+00:00</time></trkpt><trkpt lat="64.06850433" lon="-21.9379406"><ele>29.5</ele><time>2012-07-28T20:20:51.0000000+00:00</time></trkpt><trkpt lat="64.06871033" lon="-21.93799591"><ele>29.6</ele><time>2012-07-28T20:20:56.0000000+00:00</time></trkpt><trkpt lat="64.06892395" lon="-21.93806267"><ele>29.6</ele><time>2012-07-28T20:21:01.0000000+00:00</time></trkpt><trkpt lat="64.06912231" lon="-21.9381218"><ele>29.4</ele><time>2012-07-28T20:21:06.0000000+00:00</time></trkpt><trkpt lat="64.06934357" lon="-21.93818283"><ele>29.1</ele><time>2012-07-28T20:21:11.0000000+00:00</time></trkpt><trkpt lat="64.06956482" lon="-21.93824005"><ele>29.3</ele><time>2012-07-28T20:21:16.0000000+00:00</time></trkpt><trkpt lat="64.06977844" lon="-21.93831825"><ele>29.7</ele><time>2012-07-28T20:21:21.0000000+00:00</time></trkpt><trkpt lat="64.06999207" lon="-21.93838501"><ele>29.7</ele><time>2012-07-28T20:21:26.0000000+00:00</time></trkpt><trkpt lat="64.07020569" lon="-21.93845177"><ele>29.8</ele><time>2012-07-28T20:21:31.0000000+00:00</time></trkpt><trkpt lat="64.07041931" lon="-21.93851852"><ele>30.0</ele><time>2012-07-28T20:21:36.0000000+00:00</time></trkpt><trkpt lat="64.07061005" lon="-21.93858147"><ele>29.8</ele><time>2012-07-28T20:21:41.0000000+00:00</time></trkpt><trkpt lat="64.07080841" lon="-21.93864059"><ele>29.0</ele><time>2012-07-28T20:21:46.0000000+00:00</time></trkpt><trkpt lat="64.07099915" lon="-21.93869782"><ele>28.7</ele><time>2012-07-28T20:21:51.0000000+00:00</time></trkpt><trkpt lat="64.07118988" lon="-21.93874931"><ele>28.5</ele><time>2012-07-28T20:21:56.0000000+00:00</time></trkpt><trkpt lat="64.07138825" lon="-21.93880272"><ele>29.0</ele><time>2012-07-28T20:22:01.0000000+00:00</time></trkpt><trkpt lat="64.07158661" lon="-21.93886375"><ele>29.5</ele><time>2012-07-28T20:22:06.0000000+00:00</time></trkpt><trkpt lat="64.07177734" lon="-21.93893051"><ele>29.5</ele><time>2012-07-28T20:22:11.0000000+00:00</time></trkpt><trkpt lat="64.07196808" lon="-21.93896866"><ele>29.6</ele><time>2012-07-28T20:22:16.0000000+00:00</time></trkpt><trkpt lat="64.07215881" lon="-21.93903351"><ele>29.3</ele><time>2012-07-28T20:22:21.0000000+00:00</time></trkpt><trkpt lat="64.07234192" lon="-21.93908691"><ele>29.4</ele><time>2012-07-28T20:22:26.0000000+00:00</time></trkpt><trkpt lat="64.07253265" lon="-21.93912697"><ele>29.2</ele><time>2012-07-28T20:22:31.0000000+00:00</time></trkpt><trkpt lat="64.07272339" lon="-21.9391613"><ele>28.8</ele><time>2012-07-28T20:22:36.0000000+00:00</time></trkpt><trkpt lat="64.07291412" lon="-21.93921089"><ele>29.1</ele><time>2012-07-28T20:22:41.0000000+00:00</time></trkpt><trkpt lat="64.0730896" lon="-21.93926048"><ele>29.6</ele><time>2012-07-28T20:22:46.0000000+00:00</time></trkpt><trkpt lat="64.07324982" lon="-21.93931389"><ele>29.8</ele><time>2012-07-28T20:22:51.0000000+00:00</time></trkpt><trkpt lat="64.07342529" lon="-21.93938446"><ele>30.0</ele><time>2012-07-28T20:22:56.0000000+00:00</time></trkpt><trkpt lat="64.07359314" lon="-21.93944931"><ele>30.5</ele><time>2012-07-28T20:23:01.0000000+00:00</time></trkpt><trkpt lat="64.07372284" lon="-21.93949509"><ele>30.6</ele><time>2012-07-28T20:23:06.0000000+00:00</time></trkpt><trkpt lat="64.07375336" lon="-21.93952942"><ele>31.0</ele><time>2012-07-28T20:23:11.0000000+00:00</time></trkpt><trkpt lat="64.07375336" lon="-21.93952179"><ele>31.1</ele><time>2012-07-28T20:23:16.0000000+00:00</time></trkpt><trkpt lat="64.07375336" lon="-21.93952179"><ele>31.1</ele><time>2012-07-28T20:23:21.0000000+00:00</time></trkpt><trkpt lat="64.07375336" lon="-21.93952179"><ele>31.0</ele><time>2012-07-28T20:23:26.0000000+00:00</time></trkpt><trkpt lat="64.07375336" lon="-21.93952179"><ele>30.9</ele><time>2012-07-28T20:23:31.0000000+00:00</time></trkpt><trkpt lat="64.07378388" lon="-21.93953705"><ele>31.0</ele><time>2012-07-28T20:23:36.0000000+00:00</time></trkpt><trkpt lat="64.07389832" lon="-21.93958855"><ele>30.9</ele><time>2012-07-28T20:23:41.0000000+00:00</time></trkpt><trkpt lat="64.0740509" lon="-21.93962288"><ele>31.1</ele><time>2012-07-28T20:23:46.0000000+00:00</time></trkpt><trkpt lat="64.07422638" lon="-21.93966675"><ele>31.4</ele><time>2012-07-28T20:23:51.0000000+00:00</time></trkpt><trkpt lat="64.07442474" lon="-21.93972778"><ele>31.5</ele><time>2012-07-28T20:23:56.0000000+00:00</time></trkpt><trkpt lat="64.07460785" lon="-21.93979454"><ele>31.8</ele><time>2012-07-28T20:24:01.0000000+00:00</time></trkpt><trkpt lat="64.07479096" lon="-21.93987083"><ele>32.1</ele><time>2012-07-28T20:24:06.0000000+00:00</time></trkpt><trkpt lat="64.07499695" lon="-21.93993378"><ele>32.2</ele><time>2012-07-28T20:24:11.0000000+00:00</time></trkpt><trkpt lat="64.07520294" lon="-21.93999291"><ele>32.3</ele><time>2012-07-28T20:24:16.0000000+00:00</time></trkpt><trkpt lat="64.07540131" lon="-21.94003105"><ele>32.4</ele><time>2012-07-28T20:24:21.0000000+00:00</time></trkpt><trkpt lat="64.0756073" lon="-21.94007683"><ele>32.5</ele><time>2012-07-28T20:24:26.0000000+00:00</time></trkpt><trkpt lat="64.07579041" lon="-21.94012451"><ele>33.6</ele><time>2012-07-28T20:24:31.0000000+00:00</time></trkpt><trkpt lat="64.07597351" lon="-21.94008446"><ele>34.7</ele><time>2012-07-28T20:24:36.0000000+00:00</time></trkpt><trkpt lat="64.0761261" lon="-21.93992043"><ele>35.7</ele><time>2012-07-28T20:24:41.0000000+00:00</time></trkpt><trkpt lat="64.07627106" lon="-21.93997192"><ele>36.3</ele><time>2012-07-28T20:24:46.0000000+00:00</time></trkpt><trkpt lat="64.07637787" lon="-21.9402256"><ele>36.0</ele><time>2012-07-28T20:24:51.0000000+00:00</time></trkpt><trkpt lat="64.07653809" lon="-21.9404335"><ele>35.4</ele><time>2012-07-28T20:24:56.0000000+00:00</time></trkpt><trkpt lat="64.07674408" lon="-21.94051361"><ele>34.8</ele><time>2012-07-28T20:25:01.0000000+00:00</time></trkpt><trkpt lat="64.07695007" lon="-21.94055367"><ele>35.1</ele><time>2012-07-28T20:25:06.0000000+00:00</time></trkpt><trkpt lat="64.07712555" lon="-21.94057465"><ele>35.6</ele><time>2012-07-28T20:25:11.0000000+00:00</time></trkpt><trkpt lat="64.07731628" lon="-21.94062996"><ele>35.8</ele><time>2012-07-28T20:25:16.0000000+00:00</time></trkpt><trkpt lat="64.07751465" lon="-21.94069481"><ele>36.1</ele><time>2012-07-28T20:25:21.0000000+00:00</time></trkpt><trkpt lat="64.07772064" lon="-21.94076538"><ele>36.5</ele><time>2012-07-28T20:25:26.0000000+00:00</time></trkpt><trkpt lat="64.07791901" lon="-21.94083405"><ele>37.1</ele><time>2012-07-28T20:25:31.0000000+00:00</time></trkpt><trkpt lat="64.07808685" lon="-21.94088745"><ele>37.3</ele><time>2012-07-28T20:25:36.0000000+00:00</time></trkpt><trkpt lat="64.07820129" lon="-21.94092369"><ele>37.9</ele><time>2012-07-28T20:25:41.0000000+00:00</time></trkpt><trkpt lat="64.07828522" lon="-21.94091988"><ele>37.8</ele><time>2012-07-28T20:25:46.0000000+00:00</time></trkpt><trkpt lat="64.07836151" lon="-21.94094849"><ele>37.6</ele><time>2012-07-28T20:25:51.0000000+00:00</time></trkpt><trkpt lat="64.07841492" lon="-21.94097328"><ele>37.8</ele><time>2012-07-28T20:25:56.0000000+00:00</time></trkpt><trkpt lat="64.0785141" lon="-21.94098663"><ele>37.2</ele><time>2012-07-28T20:26:01.0000000+00:00</time></trkpt><trkpt lat="64.07866669" lon="-21.94102478"><ele>36.8</ele><time>2012-07-28T20:26:06.0000000+00:00</time></trkpt><trkpt lat="64.07884979" lon="-21.94109726"><ele>37.1</ele><time>2012-07-28T20:26:11.0000000+00:00</time></trkpt><trkpt lat="64.07902527" lon="-21.94116592"><ele>36.5</ele><time>2012-07-28T20:26:16.0000000+00:00</time></trkpt><trkpt lat="64.07923126" lon="-21.94123459"><ele>36.7</ele><time>2012-07-28T20:26:21.0000000+00:00</time></trkpt><trkpt lat="64.07943726" lon="-21.94127274"><ele>36.5</ele><time>2012-07-28T20:26:26.0000000+00:00</time></trkpt><trkpt lat="64.07963562" lon="-21.94134331"><ele>35.8</ele><time>2012-07-28T20:26:31.0000000+00:00</time></trkpt><trkpt lat="64.07985687" lon="-21.94142532"><ele>35.9</ele><time>2012-07-28T20:26:36.0000000+00:00</time></trkpt><trkpt lat="64.08007813" lon="-21.94149971"><ele>36.0</ele><time>2012-07-28T20:26:41.0000000+00:00</time></trkpt><trkpt lat="64.08029938" lon="-21.9415741"><ele>35.7</ele><time>2012-07-28T20:26:46.0000000+00:00</time></trkpt><trkpt lat="64.08052826" lon="-21.94166565"><ele>35.6</ele><time>2012-07-28T20:26:51.0000000+00:00</time></trkpt><trkpt lat="64.08074188" lon="-21.94175911"><ele>35.7</ele><time>2012-07-28T20:26:56.0000000+00:00</time></trkpt><trkpt lat="64.08094025" lon="-21.94184876"><ele>36.2</ele><time>2012-07-28T20:27:01.0000000+00:00</time></trkpt><trkpt lat="64.08115387" lon="-21.94193268"><ele>36.0</ele><time>2012-07-28T20:27:06.0000000+00:00</time></trkpt><trkpt lat="64.08137512" lon="-21.94198799"><ele>36.3</ele><time>2012-07-28T20:27:11.0000000+00:00</time></trkpt><trkpt lat="64.08158875" lon="-21.9420414"><ele>36.2</ele><time>2012-07-28T20:27:16.0000000+00:00</time></trkpt><trkpt lat="64.08179474" lon="-21.94208336"><ele>36.5</ele><time>2012-07-28T20:27:21.0000000+00:00</time></trkpt><trkpt lat="64.08200836" lon="-21.9421196"><ele>36.3</ele><time>2012-07-28T20:27:26.0000000+00:00</time></trkpt><trkpt lat="64.08221436" lon="-21.94218254"><ele>37.1</ele><time>2012-07-28T20:27:31.0000000+00:00</time></trkpt><trkpt lat="64.08240509" lon="-21.94224548"><ele>37.4</ele><time>2012-07-28T20:27:36.0000000+00:00</time></trkpt><trkpt lat="64.08255768" lon="-21.94229507"><ele>38.2</ele><time>2012-07-28T20:27:41.0000000+00:00</time></trkpt><trkpt lat="64.08274078" lon="-21.94222832"><ele>39.2</ele><time>2012-07-28T20:27:46.0000000+00:00</time></trkpt><trkpt lat="64.0828476" lon="-21.9425602"><ele>37.2</ele><time>2012-07-28T20:27:51.0000000+00:00</time></trkpt><trkpt lat="64.08305359" lon="-21.94262695"><ele>35.7</ele><time>2012-07-28T20:27:56.0000000+00:00</time></trkpt><trkpt lat="64.08326721" lon="-21.94280434"><ele>33.8</ele><time>2012-07-28T20:28:01.0000000+00:00</time></trkpt><trkpt lat="64.08351135" lon="-21.94311905"><ele>29.7</ele><time>2012-07-28T20:28:06.0000000+00:00</time></trkpt><trkpt lat="64.08371735" lon="-21.94339371"><ele>27.0</ele><time>2012-07-28T20:28:11.0000000+00:00</time></trkpt><trkpt lat="64.0838089" lon="-21.94344139"><ele>27.7</ele><time>2012-07-28T20:28:16.0000000+00:00</time></trkpt><trkpt lat="64.08381653" lon="-21.94342995"><ele>28.4</ele><time>2012-07-28T20:28:21.0000000+00:00</time></trkpt><trkpt lat="64.08381653" lon="-21.94342804"><ele>28.5</ele><time>2012-07-28T20:28:26.0000000+00:00</time></trkpt><trkpt lat="64.08381653" lon="-21.94342613"><ele>28.8</ele><time>2012-07-28T20:28:31.0000000+00:00</time></trkpt><trkpt lat="64.08381653" lon="-21.94342232"><ele>29.0</ele><time>2012-07-28T20:28:36.0000000+00:00</time></trkpt><trkpt lat="64.08381653" lon="-21.9434185"><ele>29.3</ele><time>2012-07-28T20:28:41.0000000+00:00</time></trkpt><trkpt lat="64.08381653" lon="-21.9434185"><ele>29.4</ele><time>2012-07-28T20:28:46.0000000+00:00</time></trkpt><trkpt lat="64.08381653" lon="-21.94342041"><ele>29.5</ele><time>2012-07-28T20:28:51.0000000+00:00</time></trkpt><trkpt lat="64.08381653" lon="-21.9434185"><ele>29.6</ele><time>2012-07-28T20:28:56.0000000+00:00</time></trkpt><trkpt lat="64.08381653" lon="-21.9434185"><ele>29.6</ele><time>2012-07-28T20:29:01.0000000+00:00</time></trkpt><trkpt lat="64.08381653" lon="-21.9434166"><ele>29.6</ele><time>2012-07-28T20:29:06.0000000+00:00</time></trkpt><trkpt lat="64.08381653" lon="-21.9434166"><ele>29.6</ele><time>2012-07-28T20:29:11.0000000+00:00</time></trkpt><trkpt lat="64.08382416" lon="-21.9434166"><ele>29.7</ele><time>2012-07-28T20:29:16.0000000+00:00</time></trkpt><trkpt lat="64.0839386" lon="-21.94332886"><ele>31.5</ele><time>2012-07-28T20:29:21.0000000+00:00</time></trkpt><trkpt lat="64.08408356" lon="-21.94314194"><ele>31.6</ele><time>2012-07-28T20:29:26.0000000+00:00</time></trkpt><trkpt lat="64.08418274" lon="-21.94289398"><ele>33.0</ele><time>2012-07-28T20:29:31.0000000+00:00</time></trkpt><trkpt lat="64.08425903" lon="-21.94264031"><ele>35.8</ele><time>2012-07-28T20:29:36.0000000+00:00</time></trkpt><trkpt lat="64.08434296" lon="-21.94243431"><ele>35.7</ele><time>2012-07-28T20:29:41.0000000+00:00</time></trkpt><trkpt lat="64.08442688" lon="-21.94223213"><ele>36.8</ele><time>2012-07-28T20:29:46.0000000+00:00</time></trkpt><trkpt lat="64.08450317" lon="-21.94203186"><ele>36.3</ele><time>2012-07-28T20:29:51.0000000+00:00</time></trkpt><trkpt lat="64.08457947" lon="-21.94182015"><ele>35.1</ele><time>2012-07-28T20:29:56.0000000+00:00</time></trkpt><trkpt lat="64.08464813" lon="-21.94161987"><ele>33.8</ele><time>2012-07-28T20:30:01.0000000+00:00</time></trkpt><trkpt lat="64.0847168" lon="-21.94140625"><ele>33.4</ele><time>2012-07-28T20:30:06.0000000+00:00</time></trkpt><trkpt lat="64.08480072" lon="-21.94120216"><ele>31.0</ele><time>2012-07-28T20:30:11.0000000+00:00</time></trkpt><trkpt lat="64.08488464" lon="-21.94097138"><ele>31.9</ele><time>2012-07-28T20:30:16.0000000+00:00</time></trkpt><trkpt lat="64.08496094" lon="-21.94074631"><ele>31.6</ele><time>2012-07-28T20:30:21.0000000+00:00</time></trkpt><trkpt lat="64.08503723" lon="-21.94053078"><ele>31.4</ele><time>2012-07-28T20:30:26.0000000+00:00</time></trkpt><trkpt lat="64.0851059" lon="-21.94031715"><ele>28.8</ele><time>2012-07-28T20:30:31.0000000+00:00</time></trkpt><trkpt lat="64.08518219" lon="-21.94010925"><ele>29.3</ele><time>2012-07-28T20:30:36.0000000+00:00</time></trkpt><trkpt lat="64.08526611" lon="-21.93992233"><ele>28.5</ele><time>2012-07-28T20:30:41.0000000+00:00</time></trkpt><trkpt lat="64.08535004" lon="-21.93973541"><ele>27.5</ele><time>2012-07-28T20:30:46.0000000+00:00</time></trkpt><trkpt lat="64.08545685" lon="-21.93951035"><ele>29.0</ele><time>2012-07-28T20:30:51.0000000+00:00</time></trkpt><trkpt lat="64.08557129" lon="-21.93930626"><ele>28.6</ele><time>2012-07-28T20:30:56.0000000+00:00</time></trkpt><trkpt lat="64.08568573" lon="-21.93909264"><ele>28.4</ele><time>2012-07-28T20:31:01.0000000+00:00</time></trkpt><trkpt lat="64.08579254" lon="-21.93887711"><ele>29.3</ele><time>2012-07-28T20:31:06.0000000+00:00</time></trkpt><trkpt lat="64.08591461" lon="-21.93864441"><ele>31.5</ele><time>2012-07-28T20:31:11.0000000+00:00</time></trkpt><trkpt lat="64.08604431" lon="-21.93844223"><ele>32.7</ele><time>2012-07-28T20:31:16.0000000+00:00</time></trkpt><trkpt lat="64.08617401" lon="-21.93820953"><ele>33.3</ele><time>2012-07-28T20:31:21.0000000+00:00</time></trkpt><trkpt lat="64.08629608" lon="-21.93802071"><ele>35.5</ele><time>2012-07-28T20:31:26.0000000+00:00</time></trkpt><trkpt lat="64.08642578" lon="-21.93785667"><ele>36.8</ele><time>2012-07-28T20:31:31.0000000+00:00</time></trkpt><trkpt lat="64.08657837" lon="-21.93762207"><ele>34.4</ele><time>2012-07-28T20:31:36.0000000+00:00</time></trkpt><trkpt lat="64.08673859" lon="-21.93737412"><ele>32.4</ele><time>2012-07-28T20:31:41.0000000+00:00</time></trkpt><trkpt lat="64.08692169" lon="-21.93706894"><ele>31.8</ele><time>2012-07-28T20:31:46.0000000+00:00</time></trkpt><trkpt lat="64.08709717" lon="-21.93677712"><ele>30.2</ele><time>2012-07-28T20:31:51.0000000+00:00</time></trkpt><trkpt lat="64.08730316" lon="-21.9364872"><ele>29.6</ele><time>2012-07-28T20:31:56.0000000+00:00</time></trkpt><trkpt lat="64.08753204" lon="-21.93610001"><ele>29.5</ele><time>2012-07-28T20:32:01.0000000+00:00</time></trkpt><trkpt lat="64.0878067" lon="-21.93566322"><ele>29.1</ele><time>2012-07-28T20:32:06.0000000+00:00</time></trkpt><trkpt lat="64.08811951" lon="-21.93512154"><ele>27.2</ele><time>2012-07-28T20:32:11.0000000+00:00</time></trkpt><trkpt lat="64.08834839" lon="-21.93469238"><ele>26.0</ele><time>2012-07-28T20:32:16.0000000+00:00</time></trkpt><trkpt lat="64.0884552" lon="-21.93447495"><ele>25.6</ele><time>2012-07-28T20:32:21.0000000+00:00</time></trkpt><trkpt lat="64.08859253" lon="-21.93416596"><ele>25.2</ele><time>2012-07-28T20:32:26.0000000+00:00</time></trkpt><trkpt lat="64.08878326" lon="-21.93375778"><ele>26.6</ele><time>2012-07-28T20:32:31.0000000+00:00</time></trkpt><trkpt lat="64.08898926" lon="-21.93329811"><ele>27.0</ele><time>2012-07-28T20:32:36.0000000+00:00</time></trkpt><trkpt lat="64.08919525" lon="-21.93280029"><ele>27.0</ele><time>2012-07-28T20:32:41.0000000+00:00</time></trkpt><trkpt lat="64.08939362" lon="-21.93232536"><ele>26.8</ele><time>2012-07-28T20:32:46.0000000+00:00</time></trkpt><trkpt lat="64.08956909" lon="-21.93186569"><ele>27.0</ele><time>2012-07-28T20:32:51.0000000+00:00</time></trkpt><trkpt lat="64.08972931" lon="-21.93141556"><ele>25.8</ele><time>2012-07-28T20:32:56.0000000+00:00</time></trkpt><trkpt lat="64.08989716" lon="-21.93100357"><ele>26.5</ele><time>2012-07-28T20:33:01.0000000+00:00</time></trkpt><trkpt lat="64.09004211" lon="-21.93059731"><ele>28.3</ele><time>2012-07-28T20:33:06.0000000+00:00</time></trkpt><trkpt lat="64.09016419" lon="-21.93019676"><ele>28.6</ele><time>2012-07-28T20:33:11.0000000+00:00</time></trkpt><trkpt lat="64.09029388" lon="-21.92982674"><ele>28.8</ele><time>2012-07-28T20:33:16.0000000+00:00</time></trkpt><trkpt lat="64.09041596" lon="-21.92945862"><ele>29.4</ele><time>2012-07-28T20:33:21.0000000+00:00</time></trkpt><trkpt lat="64.09054565" lon="-21.92912102"><ele>29.2</ele><time>2012-07-28T20:33:26.0000000+00:00</time></trkpt><trkpt lat="64.09066773" lon="-21.92876053"><ele>28.5</ele><time>2012-07-28T20:33:31.0000000+00:00</time></trkpt><trkpt lat="64.09078217" lon="-21.92839241"><ele>27.5</ele><time>2012-07-28T20:33:36.0000000+00:00</time></trkpt><trkpt lat="64.09092712" lon="-21.92803383"><ele>26.4</ele><time>2012-07-28T20:33:41.0000000+00:00</time></trkpt><trkpt lat="64.09107971" lon="-21.92763138"><ele>25.3</ele><time>2012-07-28T20:33:46.0000000+00:00</time></trkpt><trkpt lat="64.09128571" lon="-21.92722511"><ele>24.4</ele><time>2012-07-28T20:33:51.0000000+00:00</time></trkpt><trkpt lat="64.09151459" lon="-21.92679024"><ele>23.7</ele><time>2012-07-28T20:33:56.0000000+00:00</time></trkpt><trkpt lat="64.09179688" lon="-21.92635155"><ele>20.0</ele><time>2012-07-28T20:34:01.0000000+00:00</time></trkpt><trkpt lat="64.09208679" lon="-21.92596245"><ele>17.4</ele><time>2012-07-28T20:34:06.0000000+00:00</time></trkpt><trkpt lat="64.09240723" lon="-21.92562103"><ele>18.1</ele><time>2012-07-28T20:34:11.0000000+00:00</time></trkpt><trkpt lat="64.09272766" lon="-21.92525482"><ele>18.0</ele><time>2012-07-28T20:34:16.0000000+00:00</time></trkpt><trkpt lat="64.09307098" lon="-21.9248848"><ele>18.4</ele><time>2012-07-28T20:34:21.0000000+00:00</time></trkpt><trkpt lat="64.09342194" lon="-21.92449188"><ele>18.3</ele><time>2012-07-28T20:34:26.0000000+00:00</time></trkpt><trkpt lat="64.09375763" lon="-21.92414475"><ele>17.6</ele><time>2012-07-28T20:34:31.0000000+00:00</time></trkpt><trkpt lat="64.09408569" lon="-21.92376137"><ele>17.0</ele><time>2012-07-28T20:34:36.0000000+00:00</time></trkpt><trkpt lat="64.09442902" lon="-21.92338944"><ele>15.6</ele><time>2012-07-28T20:34:41.0000000+00:00</time></trkpt><trkpt lat="64.09479523" lon="-21.92300415"><ele>16.6</ele><time>2012-07-28T20:34:46.0000000+00:00</time></trkpt><trkpt lat="64.09516144" lon="-21.92261314"><ele>14.3</ele><time>2012-07-28T20:34:51.0000000+00:00</time></trkpt><trkpt lat="64.09551239" lon="-21.92225266"><ele>13.9</ele><time>2012-07-28T20:34:56.0000000+00:00</time></trkpt><trkpt lat="64.09583283" lon="-21.92188072"><ele>12.6</ele><time>2012-07-28T20:35:01.0000000+00:00</time></trkpt><trkpt lat="64.09612274" lon="-21.92153549"><ele>12.3</ele><time>2012-07-28T20:35:06.0000000+00:00</time></trkpt><trkpt lat="64.0963974" lon="-21.92125511"><ele>12.7</ele><time>2012-07-28T20:35:11.0000000+00:00</time></trkpt><trkpt lat="64.09664154" lon="-21.92098045"><ele>12.4</ele><time>2012-07-28T20:35:16.0000000+00:00</time></trkpt><trkpt lat="64.09687042" lon="-21.92070198"><ele>12.7</ele><time>2012-07-28T20:35:21.0000000+00:00</time></trkpt><trkpt lat="64.09710693" lon="-21.92041779"><ele>13.3</ele><time>2012-07-28T20:35:26.0000000+00:00</time></trkpt><trkpt lat="64.09734345" lon="-21.92009735"><ele>14.1</ele><time>2012-07-28T20:35:31.0000000+00:00</time></trkpt><trkpt lat="64.09757233" lon="-21.91979599"><ele>14.5</ele><time>2012-07-28T20:35:36.0000000+00:00</time></trkpt><trkpt lat="64.0978241" lon="-21.91944504"><ele>14.9</ele><time>2012-07-28T20:35:41.0000000+00:00</time></trkpt><trkpt lat="64.09803009" lon="-21.91909981"><ele>15.5</ele><time>2012-07-28T20:35:46.0000000+00:00</time></trkpt><trkpt lat="64.09822846" lon="-21.91874504"><ele>16.2</ele><time>2012-07-28T20:35:51.0000000+00:00</time></trkpt><trkpt lat="64.09835815" lon="-21.91846848"><ele>17.8</ele><time>2012-07-28T20:35:56.0000000+00:00</time></trkpt><trkpt lat="64.09848023" lon="-21.9182148"><ele>18.1</ele><time>2012-07-28T20:36:01.0000000+00:00</time></trkpt><trkpt lat="64.09858704" lon="-21.91799736"><ele>18.5</ele><time>2012-07-28T20:36:06.0000000+00:00</time></trkpt><trkpt lat="64.09867096" lon="-21.91781426"><ele>19.5</ele><time>2012-07-28T20:36:11.0000000+00:00</time></trkpt><trkpt lat="64.09876251" lon="-21.91763496"><ele>19.9</ele><time>2012-07-28T20:36:16.0000000+00:00</time></trkpt><trkpt lat="64.09884644" lon="-21.91744995"><ele>19.5</ele><time>2012-07-28T20:36:21.0000000+00:00</time></trkpt><trkpt lat="64.09893036" lon="-21.91727448"><ele>19.3</ele><time>2012-07-28T20:36:26.0000000+00:00</time></trkpt><trkpt lat="64.09900665" lon="-21.91708374"><ele>19.2</ele><time>2012-07-28T20:36:31.0000000+00:00</time></trkpt><trkpt lat="64.09909058" lon="-21.91690064"><ele>19.1</ele><time>2012-07-28T20:36:36.0000000+00:00</time></trkpt><trkpt lat="64.0991745" lon="-21.91672707"><ele>19.7</ele><time>2012-07-28T20:36:41.0000000+00:00</time></trkpt><trkpt lat="64.09924316" lon="-21.91653442"><ele>20.1</ele><time>2012-07-28T20:36:46.0000000+00:00</time></trkpt><trkpt lat="64.09933472" lon="-21.91635513"><ele>21.0</ele><time>2012-07-28T20:36:51.0000000+00:00</time></trkpt><trkpt lat="64.09941864" lon="-21.91614533"><ele>21.3</ele><time>2012-07-28T20:36:56.0000000+00:00</time></trkpt><trkpt lat="64.09947968" lon="-21.91588974"><ele>19.2</ele><time>2012-07-28T20:37:01.0000000+00:00</time></trkpt><trkpt lat="64.09953308" lon="-21.91561127"><ele>17.1</ele><time>2012-07-28T20:37:06.0000000+00:00</time></trkpt><trkpt lat="64.09962463" lon="-21.91538811"><ele>18.1</ele><time>2012-07-28T20:37:11.0000000+00:00</time></trkpt><trkpt lat="64.09970856" lon="-21.91515732"><ele>18.5</ele><time>2012-07-28T20:37:16.0000000+00:00</time></trkpt><trkpt lat="64.09980011" lon="-21.91491318"><ele>18.1</ele><time>2012-07-28T20:37:21.0000000+00:00</time></trkpt><trkpt lat="64.09988403" lon="-21.91463089"><ele>17.7</ele><time>2012-07-28T20:37:26.0000000+00:00</time></trkpt><trkpt lat="64.09997559" lon="-21.9142952"><ele>17.0</ele><time>2012-07-28T20:37:31.0000000+00:00</time></trkpt><trkpt lat="64.10010529" lon="-21.91400528"><ele>17.8</ele><time>2012-07-28T20:37:36.0000000+00:00</time></trkpt><trkpt lat="64.10019684" lon="-21.91366768"><ele>17.9</ele><time>2012-07-28T20:37:41.0000000+00:00</time></trkpt><trkpt lat="64.10029602" lon="-21.91334724"><ele>19.9</ele><time>2012-07-28T20:37:46.0000000+00:00</time></trkpt><trkpt lat="64.10038757" lon="-21.91303444"><ele>20.7</ele><time>2012-07-28T20:37:51.0000000+00:00</time></trkpt><trkpt lat="64.10048676" lon="-21.91271401"><ele>22.7</ele><time>2012-07-28T20:37:56.0000000+00:00</time></trkpt><trkpt lat="64.10058594" lon="-21.91236496"><ele>23.2</ele><time>2012-07-28T20:38:01.0000000+00:00</time></trkpt><trkpt lat="64.10069275" lon="-21.9119854"><ele>23.1</ele><time>2012-07-28T20:38:06.0000000+00:00</time></trkpt><trkpt lat="64.10079956" lon="-21.91155815"><ele>23.0</ele><time>2012-07-28T20:38:11.0000000+00:00</time></trkpt><trkpt lat="64.10092163" lon="-21.91109848"><ele>21.8</ele><time>2012-07-28T20:38:16.0000000+00:00</time></trkpt><trkpt lat="64.10106659" lon="-21.9105835"><ele>21.6</ele><time>2012-07-28T20:38:21.0000000+00:00</time></trkpt><trkpt lat="64.10121918" lon="-21.90992355"><ele>19.7</ele><time>2012-07-28T20:38:26.0000000+00:00</time></trkpt><trkpt lat="64.10138702" lon="-21.9091816"><ele>17.9</ele><time>2012-07-28T20:38:31.0000000+00:00</time></trkpt><trkpt lat="64.10159302" lon="-21.9084053"><ele>16.6</ele><time>2012-07-28T20:38:36.0000000+00:00</time></trkpt><trkpt lat="64.1018219" lon="-21.90758514"><ele>14.6</ele><time>2012-07-28T20:38:41.0000000+00:00</time></trkpt><trkpt lat="64.10206604" lon="-21.90677452"><ele>13.3</ele><time>2012-07-28T20:38:46.0000000+00:00</time></trkpt><trkpt lat="64.1023407" lon="-21.90603447"><ele>11.3</ele><time>2012-07-28T20:38:51.0000000+00:00</time></trkpt><trkpt lat="64.10264587" lon="-21.90542221"><ele>11.2</ele><time>2012-07-28T20:38:56.0000000+00:00</time></trkpt><trkpt lat="64.10295105" lon="-21.90491676"><ele>9.9</ele><time>2012-07-28T20:39:01.0000000+00:00</time></trkpt><trkpt lat="64.10326386" lon="-21.90449143"><ele>8.8</ele><time>2012-07-28T20:39:06.0000000+00:00</time></trkpt><trkpt lat="64.10357666" lon="-21.90414619"><ele>8.4</ele><time>2012-07-28T20:39:11.0000000+00:00</time></trkpt><trkpt lat="64.10388947" lon="-21.90384674"><ele>7.7</ele><time>2012-07-28T20:39:16.0000000+00:00</time></trkpt><trkpt lat="64.10417938" lon="-21.90366554"><ele>8.6</ele><time>2012-07-28T20:39:21.0000000+00:00</time></trkpt><trkpt lat="64.10445404" lon="-21.90355492"><ele>9.1</ele><time>2012-07-28T20:39:26.0000000+00:00</time></trkpt><trkpt lat="64.10469818" lon="-21.90348434"><ele>9.4</ele><time>2012-07-28T20:39:31.0000000+00:00</time></trkpt><trkpt lat="64.10491943" lon="-21.90344811"><ele>10.2</ele><time>2012-07-28T20:39:36.0000000+00:00</time></trkpt><trkpt lat="64.10512543" lon="-21.90344811"><ele>10.7</ele><time>2012-07-28T20:39:41.0000000+00:00</time></trkpt><trkpt lat="64.10530853" lon="-21.90346527"><ele>11.3</ele><time>2012-07-28T20:39:46.0000000+00:00</time></trkpt><trkpt lat="64.10549164" lon="-21.9034977"><ele>12.4</ele><time>2012-07-28T20:39:51.0000000+00:00</time></trkpt><trkpt lat="64.10562897" lon="-21.90353012"><ele>12.8</ele><time>2012-07-28T20:39:56.0000000+00:00</time></trkpt><trkpt lat="64.10574341" lon="-21.90356636"><ele>13.8</ele><time>2012-07-28T20:40:01.0000000+00:00</time></trkpt><trkpt lat="64.10584259" lon="-21.9036293"><ele>13.8</ele><time>2012-07-28T20:40:06.0000000+00:00</time></trkpt><trkpt lat="64.10594177" lon="-21.90366173"><ele>14.1</ele><time>2012-07-28T20:40:11.0000000+00:00</time></trkpt><trkpt lat="64.1060257" lon="-21.90371704"><ele>14.0</ele><time>2012-07-28T20:40:16.0000000+00:00</time></trkpt><trkpt lat="64.10609436" lon="-21.90377426"><ele>14.6</ele><time>2012-07-28T20:40:21.0000000+00:00</time></trkpt><trkpt lat="64.10617828" lon="-21.90382767"><ele>15.1</ele><time>2012-07-28T20:40:26.0000000+00:00</time></trkpt><trkpt lat="64.10623932" lon="-21.90390587"><ele>16.0</ele><time>2012-07-28T20:40:31.0000000+00:00</time></trkpt><trkpt lat="64.10630798" lon="-21.90399742"><ele>16.4</ele><time>2012-07-28T20:40:36.0000000+00:00</time></trkpt><trkpt lat="64.10638428" lon="-21.90411568"><ele>18.1</ele><time>2012-07-28T20:40:41.0000000+00:00</time></trkpt><trkpt lat="64.1064682" lon="-21.90416527"><ele>18.3</ele><time>2012-07-28T20:40:46.0000000+00:00</time></trkpt><trkpt lat="64.10657501" lon="-21.90425491"><ele>18.9</ele><time>2012-07-28T20:40:51.0000000+00:00</time></trkpt><trkpt lat="64.10665131" lon="-21.90432549"><ele>19.9</ele><time>2012-07-28T20:40:56.0000000+00:00</time></trkpt><trkpt lat="64.10674286" lon="-21.904459"><ele>20.1</ele><time>2012-07-28T20:41:01.0000000+00:00</time></trkpt><trkpt lat="64.10684204" lon="-21.90460968"><ele>20.6</ele><time>2012-07-28T20:41:06.0000000+00:00</time></trkpt><trkpt lat="64.10692596" lon="-21.90472794"><ele>21.3</ele><time>2012-07-28T20:41:11.0000000+00:00</time></trkpt><trkpt lat="64.10701752" lon="-21.90483284"><ele>21.8</ele><time>2012-07-28T20:41:16.0000000+00:00</time></trkpt><trkpt lat="64.10712433" lon="-21.90493774"><ele>22.1</ele><time>2012-07-28T20:41:21.0000000+00:00</time></trkpt><trkpt lat="64.10723114" lon="-21.90504265"><ele>22.6</ele><time>2012-07-28T20:41:26.0000000+00:00</time></trkpt><trkpt lat="64.10733795" lon="-21.90514374"><ele>23.0</ele><time>2012-07-28T20:41:31.0000000+00:00</time></trkpt><trkpt lat="64.10743713" lon="-21.90524101"><ele>23.9</ele><time>2012-07-28T20:41:36.0000000+00:00</time></trkpt><trkpt lat="64.10752869" lon="-21.90533638"><ele>25.3</ele><time>2012-07-28T20:41:41.0000000+00:00</time></trkpt><trkpt lat="64.10762787" lon="-21.90543175"><ele>25.3</ele><time>2012-07-28T20:41:46.0000000+00:00</time></trkpt><trkpt lat="64.10771942" lon="-21.90553474"><ele>26.8</ele><time>2012-07-28T20:41:51.0000000+00:00</time></trkpt><trkpt lat="64.10780335" lon="-21.90563774"><ele>27.4</ele><time>2012-07-28T20:41:56.0000000+00:00</time></trkpt><trkpt lat="64.10790253" lon="-21.90572739"><ele>26.6</ele><time>2012-07-28T20:42:01.0000000+00:00</time></trkpt><trkpt lat="64.10800171" lon="-21.90582848"><ele>26.8</ele><time>2012-07-28T20:42:06.0000000+00:00</time></trkpt><trkpt lat="64.10809326" lon="-21.90592766"><ele>27.7</ele><time>2012-07-28T20:42:11.0000000+00:00</time></trkpt><trkpt lat="64.10819244" lon="-21.90601158"><ele>27.3</ele><time>2012-07-28T20:42:16.0000000+00:00</time></trkpt><trkpt lat="64.10829163" lon="-21.90611649"><ele>28.2</ele><time>2012-07-28T20:42:21.0000000+00:00</time></trkpt><trkpt lat="64.10839844" lon="-21.9062252"><ele>29.1</ele><time>2012-07-28T20:42:26.0000000+00:00</time></trkpt><trkpt lat="64.10850525" lon="-21.90633965"><ele>30.4</ele><time>2012-07-28T20:42:31.0000000+00:00</time></trkpt><trkpt lat="64.10861206" lon="-21.90644646"><ele>31.5</ele><time>2012-07-28T20:42:36.0000000+00:00</time></trkpt><trkpt lat="64.10873413" lon="-21.90653038"><ele>32.7</ele><time>2012-07-28T20:42:41.0000000+00:00</time></trkpt><trkpt lat="64.1088562" lon="-21.90663719"><ele>33.6</ele><time>2012-07-28T20:42:46.0000000+00:00</time></trkpt><trkpt lat="64.10897827" lon="-21.90676498"><ele>34.4</ele><time>2012-07-28T20:42:51.0000000+00:00</time></trkpt><trkpt lat="64.1091156" lon="-21.90690041"><ele>34.8</ele><time>2012-07-28T20:42:56.0000000+00:00</time></trkpt><trkpt lat="64.1092453" lon="-21.9070282"><ele>35.0</ele><time>2012-07-28T20:43:01.0000000+00:00</time></trkpt><trkpt lat="64.10936737" lon="-21.90713501"><ele>36.3</ele><time>2012-07-28T20:43:06.0000000+00:00</time></trkpt><trkpt lat="64.1095047" lon="-21.90727043"><ele>36.8</ele><time>2012-07-28T20:43:11.0000000+00:00</time></trkpt><trkpt lat="64.10964966" lon="-21.90739441"><ele>37.3</ele><time>2012-07-28T20:43:16.0000000+00:00</time></trkpt><trkpt lat="64.10978699" lon="-21.90747261"><ele>37.7</ele><time>2012-07-28T20:43:21.0000000+00:00</time></trkpt><trkpt lat="64.10992432" lon="-21.9075489"><ele>38.6</ele><time>2012-07-28T20:43:26.0000000+00:00</time></trkpt><trkpt lat="64.11006165" lon="-21.90763283"><ele>40.8</ele><time>2012-07-28T20:43:31.0000000+00:00</time></trkpt><trkpt lat="64.11019898" lon="-21.90768623"><ele>41.1</ele><time>2012-07-28T20:43:36.0000000+00:00</time></trkpt><trkpt lat="64.11035156" lon="-21.90771675"><ele>40.8</ele><time>2012-07-28T20:43:41.0000000+00:00</time></trkpt><trkpt lat="64.11048889" lon="-21.90776062"><ele>40.3</ele><time>2012-07-28T20:43:46.0000000+00:00</time></trkpt><trkpt lat="64.110672" lon="-21.90775871"><ele>40.7</ele><time>2012-07-28T20:43:51.0000000+00:00</time></trkpt><trkpt lat="64.11083221" lon="-21.9077549"><ele>40.5</ele><time>2012-07-28T20:43:56.0000000+00:00</time></trkpt><trkpt lat="64.11090851" lon="-21.90771294"><ele>38.7</ele><time>2012-07-28T20:44:01.0000000+00:00</time></trkpt><trkpt lat="64.1109848" lon="-21.90760613"><ele>36.2</ele><time>2012-07-28T20:44:06.0000000+00:00</time></trkpt><trkpt lat="64.11116791" lon="-21.907341"><ele>33.8</ele><time>2012-07-28T20:44:11.0000000+00:00</time></trkpt><trkpt lat="64.11205292" lon="-21.90677834"><ele>-14.8</ele><time>2012-07-28T20:44:34.0000000+00:00</time></trkpt><trkpt lat="64.11225128" lon="-21.90684128"><ele>20.0</ele><time>2012-07-28T20:44:39.0000000+00:00</time></trkpt><trkpt lat="64.11244202" lon="-21.9065609"><ele>19.7</ele><time>2012-07-28T20:44:44.0000000+00:00</time></trkpt><trkpt lat="64.11264801" lon="-21.90622711"><ele>22.1</ele><time>2012-07-28T20:44:49.0000000+00:00</time></trkpt><trkpt lat="64.11287689" lon="-21.90587997"><ele>25.4</ele><time>2012-07-28T20:44:54.0000000+00:00</time></trkpt><trkpt lat="64.11307526" lon="-21.90541649"><ele>29.3</ele><time>2012-07-28T20:44:59.0000000+00:00</time></trkpt><trkpt lat="64.11328125" lon="-21.90491486"><ele>32.3</ele><time>2012-07-28T20:45:04.0000000+00:00</time></trkpt><trkpt lat="64.11348724" lon="-21.90430832"><ele>33.1</ele><time>2012-07-28T20:45:09.0000000+00:00</time></trkpt><trkpt lat="64.1137085" lon="-21.90362549"><ele>31.7</ele><time>2012-07-28T20:45:14.0000000+00:00</time></trkpt><trkpt lat="64.11396027" lon="-21.90286446"><ele>30.5</ele><time>2012-07-28T20:45:19.0000000+00:00</time></trkpt><trkpt lat="64.11421204" lon="-21.90206718"><ele>29.4</ele><time>2012-07-28T20:45:24.0000000+00:00</time></trkpt><trkpt lat="64.11447907" lon="-21.90125275"><ele>27.2</ele><time>2012-07-28T20:45:29.0000000+00:00</time></trkpt><trkpt lat="64.11475372" lon="-21.90045929"><ele>24.1</ele><time>2012-07-28T20:45:34.0000000+00:00</time></trkpt><trkpt lat="64.11508942" lon="-21.89974785"><ele>20.3</ele><time>2012-07-28T20:45:39.0000000+00:00</time></trkpt><trkpt lat="64.11547852" lon="-21.8991127"><ele>16.6</ele><time>2012-07-28T20:45:44.0000000+00:00</time></trkpt><trkpt lat="64.11591339" lon="-21.89858246"><ele>14.3</ele><time>2012-07-28T20:45:49.0000000+00:00</time></trkpt><trkpt lat="64.11634827" lon="-21.89822197"><ele>12.8</ele><time>2012-07-28T20:45:54.0000000+00:00</time></trkpt><trkpt lat="64.11676788" lon="-21.89800453"><ele>12.8</ele><time>2012-07-28T20:45:59.0000000+00:00</time></trkpt><trkpt lat="64.11713409" lon="-21.89795494"><ele>12.1</ele><time>2012-07-28T20:46:04.0000000+00:00</time></trkpt><trkpt lat="64.11747742" lon="-21.89797592"><ele>12.1</ele><time>2012-07-28T20:46:09.0000000+00:00</time></trkpt><trkpt lat="64.11782074" lon="-21.89801407"><ele>12.5</ele><time>2012-07-28T20:46:14.0000000+00:00</time></trkpt><trkpt lat="64.1181488" lon="-21.89806938"><ele>14.7</ele><time>2012-07-28T20:46:19.0000000+00:00</time></trkpt><trkpt lat="64.11843109" lon="-21.89813042"><ele>15.9</ele><time>2012-07-28T20:46:24.0000000+00:00</time></trkpt><trkpt lat="64.11869049" lon="-21.89813232"><ele>17.1</ele><time>2012-07-28T20:46:29.0000000+00:00</time></trkpt><trkpt lat="64.11895752" lon="-21.89817619"><ele>17.9</ele><time>2012-07-28T20:46:34.0000000+00:00</time></trkpt><trkpt lat="64.11921692" lon="-21.89822388"><ele>18.8</ele><time>2012-07-28T20:46:39.0000000+00:00</time></trkpt><trkpt lat="64.11948395" lon="-21.89826775"><ele>19.6</ele><time>2012-07-28T20:46:44.0000000+00:00</time></trkpt><trkpt lat="64.11971283" lon="-21.89830017"><ele>19.1</ele><time>2012-07-28T20:46:49.0000000+00:00</time></trkpt><trkpt lat="64.11993408" lon="-21.89835167"><ele>18.9</ele><time>2012-07-28T20:46:54.0000000+00:00</time></trkpt><trkpt lat="64.12014008" lon="-21.898386"><ele>18.4</ele><time>2012-07-28T20:46:59.0000000+00:00</time></trkpt><trkpt lat="64.12032318" lon="-21.89841461"><ele>18.0</ele><time>2012-07-28T20:47:04.0000000+00:00</time></trkpt><trkpt lat="64.12049866" lon="-21.89843941"><ele>18.0</ele><time>2012-07-28T20:47:09.0000000+00:00</time></trkpt><trkpt lat="64.12065125" lon="-21.89847946"><ele>18.0</ele><time>2012-07-28T20:47:14.0000000+00:00</time></trkpt><trkpt lat="64.1207962" lon="-21.89850617"><ele>18.3</ele><time>2012-07-28T20:47:19.0000000+00:00</time></trkpt><trkpt lat="64.12093353" lon="-21.89855385"><ele>20.4</ele><time>2012-07-28T20:47:24.0000000+00:00</time></trkpt><trkpt lat="64.12106323" lon="-21.89856911"><ele>21.0</ele><time>2012-07-28T20:47:29.0000000+00:00</time></trkpt><trkpt lat="64.1211853" lon="-21.89858627"><ele>22.4</ele><time>2012-07-28T20:47:34.0000000+00:00</time></trkpt><trkpt lat="64.12130737" lon="-21.89858437"><ele>23.2</ele><time>2012-07-28T20:47:39.0000000+00:00</time></trkpt><trkpt lat="64.12142181" lon="-21.89861488"><ele>23.8</ele><time>2012-07-28T20:47:44.0000000+00:00</time></trkpt><trkpt lat="64.12153626" lon="-21.89864922"><ele>24.6</ele><time>2012-07-28T20:47:49.0000000+00:00</time></trkpt><trkpt lat="64.12164307" lon="-21.89867401"><ele>25.9</ele><time>2012-07-28T20:47:54.0000000+00:00</time></trkpt><trkpt lat="64.12175751" lon="-21.8986969"><ele>26.7</ele><time>2012-07-28T20:47:59.0000000+00:00</time></trkpt><trkpt lat="64.12187195" lon="-21.89871407"><ele>27.2</ele><time>2012-07-28T20:48:04.0000000+00:00</time></trkpt><trkpt lat="64.12197876" lon="-21.89872742"><ele>28.0</ele><time>2012-07-28T20:48:09.0000000+00:00</time></trkpt><trkpt lat="64.12210846" lon="-21.89873886"><ele>28.7</ele><time>2012-07-28T20:48:14.0000000+00:00</time></trkpt><trkpt lat="64.12220001" lon="-21.89877701"><ele>28.8</ele><time>2012-07-28T20:48:19.0000000+00:00</time></trkpt><trkpt lat="64.12228394" lon="-21.89880371"><ele>28.9</ele><time>2012-07-28T20:48:24.0000000+00:00</time></trkpt><trkpt lat="64.12236786" lon="-21.8988266"><ele>30.0</ele><time>2012-07-28T20:48:29.0000000+00:00</time></trkpt><trkpt lat="64.12245941" lon="-21.89883041"><ele>30.4</ele><time>2012-07-28T20:48:34.0000000+00:00</time></trkpt><trkpt lat="64.12255859" lon="-21.89884949"><ele>30.8</ele><time>2012-07-28T20:48:39.0000000+00:00</time></trkpt><trkpt lat="64.12264252" lon="-21.89886093"><ele>31.5</ele><time>2012-07-28T20:48:44.0000000+00:00</time></trkpt><trkpt lat="64.12273407" lon="-21.89888001"><ele>31.9</ele><time>2012-07-28T20:48:49.0000000+00:00</time></trkpt><trkpt lat="64.12282562" lon="-21.89890289"><ele>32.2</ele><time>2012-07-28T20:48:54.0000000+00:00</time></trkpt><trkpt lat="64.12291718" lon="-21.89892769"><ele>32.5</ele><time>2012-07-28T20:48:59.0000000+00:00</time></trkpt><trkpt lat="64.12300873" lon="-21.89893341"><ele>31.9</ele><time>2012-07-28T20:49:04.0000000+00:00</time></trkpt><trkpt lat="64.12310028" lon="-21.89895248"><ele>32.1</ele><time>2012-07-28T20:49:09.0000000+00:00</time></trkpt><trkpt lat="64.12319183" lon="-21.89895439"><ele>33.0</ele><time>2012-07-28T20:49:14.0000000+00:00</time></trkpt><trkpt lat="64.12328339" lon="-21.89896393"><ele>33.1</ele><time>2012-07-28T20:49:19.0000000+00:00</time></trkpt><trkpt lat="64.12337494" lon="-21.898983"><ele>34.7</ele><time>2012-07-28T20:49:24.0000000+00:00</time></trkpt><trkpt lat="64.12346649" lon="-21.89900398"><ele>34.6</ele><time>2012-07-28T20:49:29.0000000+00:00</time></trkpt><trkpt lat="64.12354279" lon="-21.89901543"><ele>35.7</ele><time>2012-07-28T20:49:34.0000000+00:00</time></trkpt><trkpt lat="64.12364197" lon="-21.89903069"><ele>36.0</ele><time>2012-07-28T20:49:39.0000000+00:00</time></trkpt><trkpt lat="64.12373352" lon="-21.89905548"><ele>36.3</ele><time>2012-07-28T20:49:44.0000000+00:00</time></trkpt><trkpt lat="64.1238327" lon="-21.8990612"><ele>37.2</ele><time>2012-07-28T20:49:49.0000000+00:00</time></trkpt><trkpt lat="64.12392426" lon="-21.89908028"><ele>37.8</ele><time>2012-07-28T20:49:54.0000000+00:00</time></trkpt><trkpt lat="64.12400818" lon="-21.89909363"><ele>37.6</ele><time>2012-07-28T20:49:59.0000000+00:00</time></trkpt><trkpt lat="64.12409973" lon="-21.89910698"><ele>37.5</ele><time>2012-07-28T20:50:04.0000000+00:00</time></trkpt><trkpt lat="64.12419128" lon="-21.89912415"><ele>37.9</ele><time>2012-07-28T20:50:09.0000000+00:00</time></trkpt><trkpt lat="64.12426758" lon="-21.89914894"><ele>38.3</ele><time>2012-07-28T20:50:14.0000000+00:00</time></trkpt><trkpt lat="64.12436676" lon="-21.89915466"><ele>38.5</ele><time>2012-07-28T20:50:19.0000000+00:00</time></trkpt><trkpt lat="64.12445831" lon="-21.89916802"><ele>38.9</ele><time>2012-07-28T20:50:24.0000000+00:00</time></trkpt><trkpt lat="64.1245575" lon="-21.89917755"><ele>39.0</ele><time>2012-07-28T20:50:29.0000000+00:00</time></trkpt><trkpt lat="64.12464905" lon="-21.89920807"><ele>38.9</ele><time>2012-07-28T20:50:34.0000000+00:00</time></trkpt><trkpt lat="64.12474823" lon="-21.89920998"><ele>39.7</ele><time>2012-07-28T20:50:39.0000000+00:00</time></trkpt><trkpt lat="64.12483978" lon="-21.89923286"><ele>40.0</ele><time>2012-07-28T20:50:44.0000000+00:00</time></trkpt><trkpt lat="64.12493134" lon="-21.89924622"><ele>40.8</ele><time>2012-07-28T20:50:49.0000000+00:00</time></trkpt><trkpt lat="64.12502289" lon="-21.89926148"><ele>41.0</ele><time>2012-07-28T20:50:54.0000000+00:00</time></trkpt><trkpt lat="64.12511444" lon="-21.89926529"><ele>42.0</ele><time>2012-07-28T20:50:59.0000000+00:00</time></trkpt><trkpt lat="64.12522125" lon="-21.89929581"><ele>42.4</ele><time>2012-07-28T20:51:04.0000000+00:00</time></trkpt><trkpt lat="64.12534332" lon="-21.89933205"><ele>42.9</ele><time>2012-07-28T20:51:09.0000000+00:00</time></trkpt><trkpt lat="64.12547302" lon="-21.89936447"><ele>43.6</ele><time>2012-07-28T20:51:14.0000000+00:00</time></trkpt><trkpt lat="64.12559509" lon="-21.8993721"><ele>44.1</ele><time>2012-07-28T20:51:19.0000000+00:00</time></trkpt><trkpt lat="64.12570953" lon="-21.8993988"><ele>44.5</ele><time>2012-07-28T20:51:24.0000000+00:00</time></trkpt><trkpt lat="64.12580872" lon="-21.89944077"><ele>45.5</ele><time>2012-07-28T20:51:29.0000000+00:00</time></trkpt><trkpt lat="64.12591553" lon="-21.89946175"><ele>46.3</ele><time>2012-07-28T20:51:34.0000000+00:00</time></trkpt><trkpt lat="64.12601471" lon="-21.89949226"><ele>47.8</ele><time>2012-07-28T20:51:39.0000000+00:00</time></trkpt><trkpt lat="64.12612915" lon="-21.89947701"><ele>45.6</ele><time>2012-07-28T20:51:44.0000000+00:00</time></trkpt><trkpt lat="64.12624359" lon="-21.89948082"><ele>46.1</ele><time>2012-07-28T20:51:49.0000000+00:00</time></trkpt><trkpt lat="64.12636566" lon="-21.8995018"><ele>47.6</ele><time>2012-07-28T20:51:54.0000000+00:00</time></trkpt><trkpt lat="64.12649536" lon="-21.8995285"><ele>47.4</ele><time>2012-07-28T20:51:59.0000000+00:00</time></trkpt><trkpt lat="64.12664795" lon="-21.89957428"><ele>47.6</ele><time>2012-07-28T20:52:04.0000000+00:00</time></trkpt><trkpt lat="64.12679291" lon="-21.89961243"><ele>46.9</ele><time>2012-07-28T20:52:09.0000000+00:00</time></trkpt><trkpt lat="64.1269455" lon="-21.89963341"><ele>47.3</ele><time>2012-07-28T20:52:14.0000000+00:00</time></trkpt><trkpt lat="64.12712097" lon="-21.89966393"><ele>48.0</ele><time>2012-07-28T20:52:19.0000000+00:00</time></trkpt><trkpt lat="64.12729645" lon="-21.89970017"><ele>47.8</ele><time>2012-07-28T20:52:24.0000000+00:00</time></trkpt><trkpt lat="64.12747955" lon="-21.89971161"><ele>48.3</ele><time>2012-07-28T20:52:29.0000000+00:00</time></trkpt><trkpt lat="64.12765503" lon="-21.89974213"><ele>48.7</ele><time>2012-07-28T20:52:34.0000000+00:00</time></trkpt><trkpt lat="64.12783051" lon="-21.89977837"><ele>49.1</ele><time>2012-07-28T20:52:39.0000000+00:00</time></trkpt><trkpt lat="64.12802887" lon="-21.8998127"><ele>49.3</ele><time>2012-07-28T20:52:44.0000000+00:00</time></trkpt><trkpt lat="64.12818909" lon="-21.89982033"><ele>49.2</ele><time>2012-07-28T20:52:49.0000000+00:00</time></trkpt><trkpt lat="64.12835693" lon="-21.89981461"><ele>48.4</ele><time>2012-07-28T20:52:54.0000000+00:00</time></trkpt><trkpt lat="64.12850189" lon="-21.89984894"><ele>47.6</ele><time>2012-07-28T20:52:59.0000000+00:00</time></trkpt><trkpt lat="64.1286087" lon="-21.89982414"><ele>47.2</ele><time>2012-07-28T20:53:04.0000000+00:00</time></trkpt><trkpt lat="64.12861633" lon="-21.89982605"><ele>47.1</ele><time>2012-07-28T20:53:09.0000000+00:00</time></trkpt><trkpt lat="64.12861633" lon="-21.89982605"><ele>47.0</ele><time>2012-07-28T20:53:14.0000000+00:00</time></trkpt><trkpt lat="64.12861633" lon="-21.89982605"><ele>47.0</ele><time>2012-07-28T20:53:19.0000000+00:00</time></trkpt><trkpt lat="64.12861633" lon="-21.89982605"><ele>46.9</ele><time>2012-07-28T20:53:24.0000000+00:00</time></trkpt><trkpt lat="64.12861633" lon="-21.89982605"><ele>47.0</ele><time>2012-07-28T20:53:29.0000000+00:00</time></trkpt><trkpt lat="64.12861633" lon="-21.89982605"><ele>47.0</ele><time>2012-07-28T20:53:34.0000000+00:00</time></trkpt><trkpt lat="64.12861633" lon="-21.89982605"><ele>47.3</ele><time>2012-07-28T20:53:39.0000000+00:00</time></trkpt><trkpt lat="64.12869263" lon="-21.89991188"><ele>46.9</ele><time>2012-07-28T20:53:44.0000000+00:00</time></trkpt><trkpt lat="64.1288681" lon="-21.89993858"><ele>46.8</ele><time>2012-07-28T20:53:49.0000000+00:00</time></trkpt><trkpt lat="64.12904358" lon="-21.89992905"><ele>46.9</ele><time>2012-07-28T20:53:54.0000000+00:00</time></trkpt><trkpt lat="64.12908936" lon="-21.89992333"><ele>47.0</ele><time>2012-07-28T20:53:59.0000000+00:00</time></trkpt><trkpt lat="64.12908936" lon="-21.89991951"><ele>46.7</ele><time>2012-07-28T20:54:04.0000000+00:00</time></trkpt><trkpt lat="64.12908173" lon="-21.89990997"><ele>48.1</ele><time>2012-07-28T20:54:09.0000000+00:00</time></trkpt><trkpt lat="64.12908936" lon="-21.89989662"><ele>47.2</ele><time>2012-07-28T20:54:14.0000000+00:00</time></trkpt><trkpt lat="64.12908936" lon="-21.89988899"><ele>46.1</ele><time>2012-07-28T20:54:19.0000000+00:00</time></trkpt><trkpt lat="64.12908936" lon="-21.89989853"><ele>46.3</ele><time>2012-07-28T20:54:24.0000000+00:00</time></trkpt><trkpt lat="64.12909699" lon="-21.89990997"><ele>46.7</ele><time>2012-07-28T20:54:29.0000000+00:00</time></trkpt><trkpt lat="64.1292572" lon="-21.89993095"><ele>48.0</ele><time>2012-07-28T20:54:34.0000000+00:00</time></trkpt><trkpt lat="64.12949371" lon="-21.89992714"><ele>48.1</ele><time>2012-07-28T20:54:39.0000000+00:00</time></trkpt><trkpt lat="64.12974548" lon="-21.89991188"><ele>48.0</ele><time>2012-07-28T20:54:44.0000000+00:00</time></trkpt><trkpt lat="64.13001251" lon="-21.89984131"><ele>48.7</ele><time>2012-07-28T20:54:49.0000000+00:00</time></trkpt><trkpt lat="64.1302948" lon="-21.89978409"><ele>48.8</ele><time>2012-07-28T20:54:54.0000000+00:00</time></trkpt><trkpt lat="64.13057709" lon="-21.89966202"><ele>47.3</ele><time>2012-07-28T20:54:59.0000000+00:00</time></trkpt><trkpt lat="64.13087463" lon="-21.89952087"><ele>46.0</ele><time>2012-07-28T20:55:04.0000000+00:00</time></trkpt><trkpt lat="64.13116455" lon="-21.89935684"><ele>44.2</ele><time>2012-07-28T20:55:09.0000000+00:00</time></trkpt><trkpt lat="64.1314621" lon="-21.89915657"><ele>43.9</ele><time>2012-07-28T20:55:14.0000000+00:00</time></trkpt><trkpt lat="64.1317749" lon="-21.89894676"><ele>42.3</ele><time>2012-07-28T20:55:19.0000000+00:00</time></trkpt><trkpt lat="64.13207245" lon="-21.89870262"><ele>41.4</ele><time>2012-07-28T20:55:24.0000000+00:00</time></trkpt><trkpt lat="64.13234711" lon="-21.89847565"><ele>40.8</ele><time>2012-07-28T20:55:29.0000000+00:00</time></trkpt><trkpt lat="64.13257599" lon="-21.89828301"><ele>40.5</ele><time>2012-07-28T20:55:34.0000000+00:00</time></trkpt><trkpt lat="64.13275147" lon="-21.89812088"><ele>40.9</ele><time>2012-07-28T20:55:39.0000000+00:00</time></trkpt><trkpt lat="64.13284302" lon="-21.89804077"><ele>41.3</ele><time>2012-07-28T20:55:44.0000000+00:00</time></trkpt><trkpt lat="64.13286591" lon="-21.89801979"><ele>41.8</ele><time>2012-07-28T20:55:49.0000000+00:00</time></trkpt><trkpt lat="64.13285828" lon="-21.89805031"><ele>41.1</ele><time>2012-07-28T20:55:54.0000000+00:00</time></trkpt><trkpt lat="64.13285065" lon="-21.89803696"><ele>40.7</ele><time>2012-07-28T20:55:59.0000000+00:00</time></trkpt><trkpt lat="64.13289642" lon="-21.89800644"><ele>40.7</ele><time>2012-07-28T20:56:04.0000000+00:00</time></trkpt><trkpt lat="64.13303375" lon="-21.89787865"><ele>40.4</ele><time>2012-07-28T20:56:09.0000000+00:00</time></trkpt><trkpt lat="64.13323975" lon="-21.89770508"><ele>40.6</ele><time>2012-07-28T20:56:14.0000000+00:00</time></trkpt><trkpt lat="64.13347626" lon="-21.89751244"><ele>40.7</ele><time>2012-07-28T20:56:19.0000000+00:00</time></trkpt><trkpt lat="64.13368988" lon="-21.8973484"><ele>40.5</ele><time>2012-07-28T20:56:24.0000000+00:00</time></trkpt><trkpt lat="64.13392639" lon="-21.89716911"><ele>40.5</ele><time>2012-07-28T20:56:29.0000000+00:00</time></trkpt><trkpt lat="64.13415527" lon="-21.89700127"><ele>41.5</ele><time>2012-07-28T20:56:34.0000000+00:00</time></trkpt><trkpt lat="64.13436127" lon="-21.89683723"><ele>41.9</ele><time>2012-07-28T20:56:39.0000000+00:00</time></trkpt><trkpt lat="64.13459778" lon="-21.89666939"><ele>42.1</ele><time>2012-07-28T20:56:44.0000000+00:00</time></trkpt><trkpt lat="64.13479614" lon="-21.896492"><ele>43.2</ele><time>2012-07-28T20:56:49.0000000+00:00</time></trkpt><trkpt lat="64.13504028" lon="-21.89630318"><ele>42.6</ele><time>2012-07-28T20:56:54.0000000+00:00</time></trkpt><trkpt lat="64.13528442" lon="-21.89611435"><ele>42.7</ele><time>2012-07-28T20:56:59.0000000+00:00</time></trkpt><trkpt lat="64.13549042" lon="-21.89594269"><ele>42.7</ele><time>2012-07-28T20:57:04.0000000+00:00</time></trkpt><trkpt lat="64.13570404" lon="-21.89577103"><ele>42.9</ele><time>2012-07-28T20:57:09.0000000+00:00</time></trkpt><trkpt lat="64.13591766" lon="-21.89559555"><ele>42.7</ele><time>2012-07-28T20:57:14.0000000+00:00</time></trkpt><trkpt lat="64.13613892" lon="-21.89543533"><ele>42.1</ele><time>2012-07-28T20:57:19.0000000+00:00</time></trkpt><trkpt lat="64.13637543" lon="-21.89523125"><ele>41.8</ele><time>2012-07-28T20:57:24.0000000+00:00</time></trkpt><trkpt lat="64.13663483" lon="-21.89501953"><ele>40.5</ele><time>2012-07-28T20:57:29.0000000+00:00</time></trkpt><trkpt lat="64.13690186" lon="-21.89476395"><ele>39.9</ele><time>2012-07-28T20:57:34.0000000+00:00</time></trkpt><trkpt lat="64.13718414" lon="-21.89453125"><ele>38.8</ele><time>2012-07-28T20:57:39.0000000+00:00</time></trkpt><trkpt lat="64.1374588" lon="-21.8942852"><ele>37.8</ele><time>2012-07-28T20:57:44.0000000+00:00</time></trkpt><trkpt lat="64.13771057" lon="-21.89401627"><ele>36.6</ele><time>2012-07-28T20:57:49.0000000+00:00</time></trkpt><trkpt lat="64.13794708" lon="-21.89380646"><ele>35.5</ele><time>2012-07-28T20:57:54.0000000+00:00</time></trkpt><trkpt lat="64.13805389" lon="-21.89346314"><ele>34.4</ele><time>2012-07-28T20:57:59.0000000+00:00</time></trkpt><trkpt lat="64.13801575" lon="-21.8929615"><ele>33.9</ele><time>2012-07-28T20:58:04.0000000+00:00</time></trkpt><trkpt lat="64.13790894" lon="-21.89243126"><ele>35.2</ele><time>2012-07-28T20:58:09.0000000+00:00</time></trkpt><trkpt lat="64.13783264" lon="-21.8918705"><ele>25.1</ele><time>2012-07-28T20:58:14.0000000+00:00</time></trkpt><trkpt lat="64.13774109" lon="-21.89137077"><ele>21.3</ele><time>2012-07-28T20:58:19.0000000+00:00</time></trkpt><trkpt lat="64.13767242" lon="-21.89088821"><ele>22.2</ele><time>2012-07-28T20:58:24.0000000+00:00</time></trkpt><trkpt lat="64.13759613" lon="-21.89043617"><ele>25.4</ele><time>2012-07-28T20:58:29.0000000+00:00</time></trkpt><trkpt lat="64.13756561" lon="-21.89014244"><ele>29.6</ele><time>2012-07-28T20:58:34.0000000+00:00</time></trkpt><trkpt lat="64.13754273" lon="-21.89000893"><ele>31.6</ele><time>2012-07-28T20:58:39.0000000+00:00</time></trkpt><trkpt lat="64.13754273" lon="-21.89000511"><ele>31.5</ele><time>2012-07-28T20:58:44.0000000+00:00</time></trkpt><trkpt lat="64.1375351" lon="-21.89002037"><ele>31.8</ele><time>2012-07-28T20:58:49.0000000+00:00</time></trkpt><trkpt lat="64.1375351" lon="-21.89003182"><ele>32.1</ele><time>2012-07-28T20:58:54.0000000+00:00</time></trkpt><trkpt lat="64.1375351" lon="-21.89004135"><ele>31.8</ele><time>2012-07-28T20:58:59.0000000+00:00</time></trkpt><trkpt lat="64.1375351" lon="-21.89003944"><ele>31.8</ele><time>2012-07-28T20:59:04.0000000+00:00</time></trkpt><trkpt lat="64.13752747" lon="-21.88990784"><ele>33.3</ele><time>2012-07-28T20:59:09.0000000+00:00</time></trkpt><trkpt lat="64.13748169" lon="-21.88949204"><ele>35.0</ele><time>2012-07-28T20:59:14.0000000+00:00</time></trkpt><trkpt lat="64.13754273" lon="-21.88913918"><ele>34.1</ele><time>2012-07-28T20:59:19.0000000+00:00</time></trkpt><trkpt lat="64.13764954" lon="-21.88886643"><ele>36.8</ele><time>2012-07-28T20:59:24.0000000+00:00</time></trkpt><trkpt lat="64.13777924" lon="-21.8885994"><ele>41.1</ele><time>2012-07-28T20:59:29.0000000+00:00</time></trkpt><trkpt lat="64.13787842" lon="-21.88838577"><ele>42.6</ele><time>2012-07-28T20:59:34.0000000+00:00</time></trkpt><trkpt lat="64.1379776" lon="-21.88814926"><ele>47.8</ele><time>2012-07-28T20:59:39.0000000+00:00</time></trkpt><trkpt lat="64.13809967" lon="-21.88789558"><ele>48.0</ele><time>2012-07-28T20:59:44.0000000+00:00</time></trkpt><trkpt lat="64.13819885" lon="-21.88766289"><ele>50.8</ele><time>2012-07-28T20:59:49.0000000+00:00</time></trkpt><trkpt lat="64.13827515" lon="-21.88747788"><ele>50.8</ele><time>2012-07-28T20:59:54.0000000+00:00</time></trkpt><trkpt lat="64.1383667" lon="-21.88724518"><ele>45.8</ele><time>2012-07-28T20:59:59.0000000+00:00</time></trkpt><trkpt lat="64.13845825" lon="-21.88700867"><ele>44.8</ele><time>2012-07-28T21:00:04.0000000+00:00</time></trkpt><trkpt lat="64.13854218" lon="-21.88670731"><ele>51.4</ele><time>2012-07-28T21:00:09.0000000+00:00</time></trkpt><trkpt lat="64.13860321" lon="-21.88632011"><ele>50.7</ele><time>2012-07-28T21:00:14.0000000+00:00</time></trkpt><trkpt lat="64.1386261" lon="-21.8860817"><ele>47.6</ele><time>2012-07-28T21:00:19.0000000+00:00</time></trkpt><trkpt lat="64.13865662" lon="-21.88585472"><ele>50.1</ele><time>2012-07-28T21:00:24.0000000+00:00</time></trkpt><trkpt lat="64.13868713" lon="-21.88562584"><ele>51.0</ele><time>2012-07-28T21:00:29.0000000+00:00</time></trkpt><trkpt lat="64.13876343" lon="-21.88545418"><ele>53.3</ele><time>2012-07-28T21:00:34.0000000+00:00</time></trkpt><trkpt lat="64.13880158" lon="-21.88528252"><ele>57.9</ele><time>2012-07-28T21:00:39.0000000+00:00</time></trkpt><trkpt lat="64.13882446" lon="-21.88503265"><ele>59.4</ele><time>2012-07-28T21:00:44.0000000+00:00</time></trkpt><trkpt lat="64.13880158" lon="-21.88470268"><ele>61.7</ele><time>2012-07-28T21:00:49.0000000+00:00</time></trkpt><trkpt lat="64.13879395" lon="-21.88440323"><ele>61.8</ele><time>2012-07-28T21:00:54.0000000+00:00</time></trkpt><trkpt lat="64.13878632" lon="-21.88417244"><ele>63.5</ele><time>2012-07-28T21:00:59.0000000+00:00</time></trkpt><trkpt lat="64.13879395" lon="-21.88394928"><ele>64.2</ele><time>2012-07-28T21:01:04.0000000+00:00</time></trkpt><trkpt lat="64.1387558" lon="-21.88368607"><ele>65.6</ele><time>2012-07-28T21:01:09.0000000+00:00</time></trkpt><trkpt lat="64.13874054" lon="-21.88348579"><ele>66.2</ele><time>2012-07-28T21:01:14.0000000+00:00</time></trkpt><trkpt lat="64.13868713" lon="-21.88323402"><ele>66.5</ele><time>2012-07-28T21:01:19.0000000+00:00</time></trkpt><trkpt lat="64.13864136" lon="-21.88294601"><ele>67.8</ele><time>2012-07-28T21:01:24.0000000+00:00</time></trkpt><trkpt lat="64.13856506" lon="-21.88265038"><ele>70.5</ele><time>2012-07-28T21:01:29.0000000+00:00</time></trkpt><trkpt lat="64.13848114" lon="-21.88241005"><ele>74.5</ele><time>2012-07-28T21:01:34.0000000+00:00</time></trkpt><trkpt lat="64.13839722" lon="-21.88212967"><ele>77.2</ele><time>2012-07-28T21:01:39.0000000+00:00</time></trkpt><trkpt lat="64.13825989" lon="-21.88186836"><ele>79.1</ele><time>2012-07-28T21:01:44.0000000+00:00</time></trkpt><trkpt lat="64.13815308" lon="-21.88166618"><ele>80.7</ele><time>2012-07-28T21:01:49.0000000+00:00</time></trkpt><trkpt lat="64.13806152" lon="-21.8814888"><ele>79.7</ele><time>2012-07-28T21:01:54.0000000+00:00</time></trkpt><trkpt lat="64.13796997" lon="-21.88138008"><ele>77.4</ele><time>2012-07-28T21:01:59.0000000+00:00</time></trkpt><trkpt lat="64.13791657" lon="-21.88131714"><ele>76.9</ele><time>2012-07-28T21:02:04.0000000+00:00</time></trkpt><trkpt lat="64.13790894" lon="-21.88130379"><ele>76.4</ele><time>2012-07-28T21:02:09.0000000+00:00</time></trkpt><trkpt lat="64.13790131" lon="-21.88130379"><ele>76.2</ele><time>2012-07-28T21:02:14.0000000+00:00</time></trkpt><trkpt lat="64.13790131" lon="-21.88130188"><ele>76.3</ele><time>2012-07-28T21:02:19.0000000+00:00</time></trkpt><trkpt lat="64.13790131" lon="-21.88130188"><ele>76.3</ele><time>2012-07-28T21:02:24.0000000+00:00</time></trkpt><trkpt lat="64.13790131" lon="-21.88130188"><ele>76.3</ele><time>2012-07-28T21:02:29.0000000+00:00</time></trkpt><trkpt lat="64.13790131" lon="-21.88130188"><ele>76.3</ele><time>2012-07-28T21:02:34.0000000+00:00</time></trkpt><trkpt lat="64.13790131" lon="-21.88130188"><ele>76.3</ele><time>2012-07-28T21:02:39.0000000+00:00</time></trkpt><trkpt lat="64.13790131" lon="-21.88130188"><ele>76.3</ele><time>2012-07-28T21:02:44.0000000+00:00</time></trkpt><trkpt lat="64.13789368" lon="-21.88129425"><ele>76.0</ele><time>2012-07-28T21:02:49.0000000+00:00</time></trkpt><trkpt lat="64.13789368" lon="-21.88129425"><ele>76.1</ele><time>2012-07-28T21:02:54.0000000+00:00</time></trkpt><trkpt lat="64.13789368" lon="-21.88129234"><ele>76.2</ele><time>2012-07-28T21:02:59.0000000+00:00</time></trkpt><trkpt lat="64.13785553" lon="-21.88127899"><ele>73.4</ele><time>2012-07-28T21:03:04.0000000+00:00</time></trkpt><trkpt lat="64.13785553" lon="-21.8812809"><ele>72.9</ele><time>2012-07-28T21:03:09.0000000+00:00</time></trkpt><trkpt lat="64.13785553" lon="-21.8812809"><ele>72.9</ele><time>2012-07-28T21:03:14.0000000+00:00</time></trkpt><trkpt lat="64.13785553" lon="-21.8812809"><ele>72.9</ele><time>2012-07-28T21:03:19.0000000+00:00</time></trkpt><trkpt lat="64.13781738" lon="-21.88117409"><ele>71.5</ele><time>2012-07-28T21:03:24.0000000+00:00</time></trkpt><trkpt lat="64.13780212" lon="-21.88074493"><ele>67.8</ele><time>2012-07-28T21:03:29.0000000+00:00</time></trkpt><trkpt lat="64.13792419" lon="-21.88034248"><ele>64.7</ele><time>2012-07-28T21:03:34.0000000+00:00</time></trkpt><trkpt lat="64.13813019" lon="-21.87982559"><ele>61.7</ele><time>2012-07-28T21:03:39.0000000+00:00</time></trkpt><trkpt lat="64.13832092" lon="-21.87941551"><ele>58.7</ele><time>2012-07-28T21:03:44.0000000+00:00</time></trkpt><trkpt lat="64.13843536" lon="-21.87908745"><ele>54.7</ele><time>2012-07-28T21:03:49.0000000+00:00</time></trkpt><trkpt lat="64.13851929" lon="-21.87889862"><ele>53.6</ele><time>2012-07-28T21:03:54.0000000+00:00</time></trkpt><trkpt lat="64.13856506" lon="-21.87877083"><ele>56.2</ele><time>2012-07-28T21:03:59.0000000+00:00</time></trkpt><trkpt lat="64.13856506" lon="-21.87875366"><ele>56.1</ele><time>2012-07-28T21:04:04.0000000+00:00</time></trkpt><trkpt lat="64.13856506" lon="-21.87875557"><ele>55.9</ele><time>2012-07-28T21:04:09.0000000+00:00</time></trkpt><trkpt lat="64.13856506" lon="-21.87875176"><ele>55.7</ele><time>2012-07-28T21:04:14.0000000+00:00</time></trkpt><trkpt lat="64.13856506" lon="-21.87875176"><ele>55.5</ele><time>2012-07-28T21:04:19.0000000+00:00</time></trkpt><trkpt lat="64.13856506" lon="-21.87875176"><ele>55.5</ele><time>2012-07-28T21:04:24.0000000+00:00</time></trkpt><trkpt lat="64.13864136" lon="-21.87857819"><ele>56.5</ele><time>2012-07-28T21:04:29.0000000+00:00</time></trkpt><trkpt lat="64.13878632" lon="-21.878582"><ele>51.9</ele><time>2012-07-28T21:04:34.0000000+00:00</time></trkpt><trkpt lat="64.13889313" lon="-21.87879944"><ele>47.2</ele><time>2012-07-28T21:04:39.0000000+00:00</time></trkpt><trkpt lat="64.1390152" lon="-21.8791275"><ele>41.0</ele><time>2012-07-28T21:04:44.0000000+00:00</time></trkpt><trkpt lat="64.13912964" lon="-21.87940598"><ele>38.1</ele><time>2012-07-28T21:04:49.0000000+00:00</time></trkpt><trkpt lat="64.13922882" lon="-21.87973785"><ele>35.3</ele><time>2012-07-28T21:04:54.0000000+00:00</time></trkpt><trkpt lat="64.13935852" lon="-21.88014793"><ele>34.1</ele><time>2012-07-28T21:04:59.0000000+00:00</time></trkpt><trkpt lat="64.13949585" lon="-21.88055992"><ele>32.3</ele><time>2012-07-28T21:05:04.0000000+00:00</time></trkpt><trkpt lat="64.13963318" lon="-21.88094711"><ele>31.0</ele><time>2012-07-28T21:05:09.0000000+00:00</time></trkpt><trkpt lat="64.13975525" lon="-21.88141632"><ele>29.7</ele><time>2012-07-28T21:05:14.0000000+00:00</time></trkpt><trkpt lat="64.13988495" lon="-21.88187981"><ele>29.8</ele><time>2012-07-28T21:05:19.0000000+00:00</time></trkpt><trkpt lat="64.13999939" lon="-21.88231278"><ele>29.6</ele><time>2012-07-28T21:05:24.0000000+00:00</time></trkpt><trkpt lat="64.14009094" lon="-21.88270569"><ele>29.4</ele><time>2012-07-28T21:05:29.0000000+00:00</time></trkpt><trkpt lat="64.14016724" lon="-21.88313484"><ele>29.2</ele><time>2012-07-28T21:05:34.0000000+00:00</time></trkpt><trkpt lat="64.1403122" lon="-21.88339043"><ele>28.2</ele><time>2012-07-28T21:05:39.0000000+00:00</time></trkpt><trkpt lat="64.14050293" lon="-21.88342857"><ele>28.5</ele><time>2012-07-28T21:05:44.0000000+00:00</time></trkpt><trkpt lat="64.14068604" lon="-21.88337135"><ele>28.2</ele><time>2012-07-28T21:05:49.0000000+00:00</time></trkpt><trkpt lat="64.14090729" lon="-21.88331032"><ele>27.1</ele><time>2012-07-28T21:05:54.0000000+00:00</time></trkpt><trkpt lat="64.14112091" lon="-21.88323784"><ele>25.3</ele><time>2012-07-28T21:05:59.0000000+00:00</time></trkpt><trkpt lat="64.14131928" lon="-21.88319206"><ele>23.8</ele><time>2012-07-28T21:06:04.0000000+00:00</time></trkpt><trkpt lat="64.1414566" lon="-21.88310623"><ele>23.1</ele><time>2012-07-28T21:06:09.0000000+00:00</time></trkpt><trkpt lat="64.14157105" lon="-21.8829155"><ele>22.4</ele><time>2012-07-28T21:06:14.0000000+00:00</time></trkpt><trkpt lat="64.141716" lon="-21.88298416"><ele>22.0</ele><time>2012-07-28T21:06:19.0000000+00:00</time></trkpt><trkpt lat="64.14188385" lon="-21.88303566"><ele>22.0</ele><time>2012-07-28T21:06:24.0000000+00:00</time></trkpt><trkpt lat="64.14202118" lon="-21.88303757"><ele>22.0</ele><time>2012-07-28T21:06:29.0000000+00:00</time></trkpt><trkpt lat="64.14219666" lon="-21.88305664"><ele>21.2</ele><time>2012-07-28T21:06:34.0000000+00:00</time></trkpt><trkpt lat="64.14239502" lon="-21.88308716"><ele>20.4</ele><time>2012-07-28T21:06:39.0000000+00:00</time></trkpt><trkpt lat="64.14263916" lon="-21.88306236"><ele>19.3</ele><time>2012-07-28T21:06:44.0000000+00:00</time></trkpt><trkpt lat="64.14289856" lon="-21.88300705"><ele>18.1</ele><time>2012-07-28T21:06:49.0000000+00:00</time></trkpt><trkpt lat="64.14311981" lon="-21.88296318"><ele>17.0</ele><time>2012-07-28T21:06:54.0000000+00:00</time></trkpt><trkpt lat="64.14337158" lon="-21.88287544"><ele>15.4</ele><time>2012-07-28T21:06:59.0000000+00:00</time></trkpt><trkpt lat="64.14364624" lon="-21.88281632"><ele>14.3</ele><time>2012-07-28T21:07:04.0000000+00:00</time></trkpt><trkpt lat="64.14393616" lon="-21.88275147"><ele>13.3</ele><time>2012-07-28T21:07:09.0000000+00:00</time></trkpt><trkpt lat="64.14421845" lon="-21.88267899"><ele>12.5</ele><time>2012-07-28T21:07:14.0000000+00:00</time></trkpt><trkpt lat="64.1444931" lon="-21.88260269"><ele>11.6</ele><time>2012-07-28T21:07:19.0000000+00:00</time></trkpt><trkpt lat="64.14476776" lon="-21.8824997"><ele>11.0</ele><time>2012-07-28T21:07:24.0000000+00:00</time></trkpt><trkpt lat="64.14504242" lon="-21.88241577"><ele>11.0</ele><time>2012-07-28T21:07:29.0000000+00:00</time></trkpt><trkpt lat="64.14530182" lon="-21.88233757"><ele>10.6</ele><time>2012-07-28T21:07:34.0000000+00:00</time></trkpt><trkpt lat="64.14552307" lon="-21.88230705"><ele>8.9</ele><time>2012-07-28T21:07:39.0000000+00:00</time></trkpt><trkpt lat="64.14574432" lon="-21.88223648"><ele>9.9</ele><time>2012-07-28T21:07:44.0000000+00:00</time></trkpt><trkpt lat="64.14595795" lon="-21.88216591"><ele>9.2</ele><time>2012-07-28T21:07:49.0000000+00:00</time></trkpt><trkpt lat="64.14617157" lon="-21.88209534"><ele>8.5</ele><time>2012-07-28T21:07:54.0000000+00:00</time></trkpt><trkpt lat="64.14636993" lon="-21.88195992"><ele>8.4</ele><time>2012-07-28T21:07:59.0000000+00:00</time></trkpt><trkpt lat="64.14653778" lon="-21.88186073"><ele>8.9</ele><time>2012-07-28T21:08:04.0000000+00:00</time></trkpt><trkpt lat="64.14657593" lon="-21.88183022"><ele>9.3</ele><time>2012-07-28T21:08:09.0000000+00:00</time></trkpt><trkpt lat="64.14657593" lon="-21.88182259"><ele>9.6</ele><time>2012-07-28T21:08:14.0000000+00:00</time></trkpt><trkpt lat="64.14657593" lon="-21.88182068"><ele>9.9</ele><time>2012-07-28T21:08:19.0000000+00:00</time></trkpt><trkpt lat="64.14657593" lon="-21.88182259"><ele>10.0</ele><time>2012-07-28T21:08:24.0000000+00:00</time></trkpt><trkpt lat="64.14657593" lon="-21.88182449"><ele>10.0</ele><time>2012-07-28T21:08:29.0000000+00:00</time></trkpt><trkpt lat="64.1466217" lon="-21.88182068"><ele>9.8</ele><time>2012-07-28T21:08:34.0000000+00:00</time></trkpt><trkpt lat="64.14668274" lon="-21.8815403"><ele>9.8</ele><time>2012-07-28T21:08:39.0000000+00:00</time></trkpt><trkpt lat="64.14670563" lon="-21.88111115"><ele>9.9</ele><time>2012-07-28T21:08:44.0000000+00:00</time></trkpt><trkpt lat="64.14672852" lon="-21.88071442"><ele>10.4</ele><time>2012-07-28T21:08:49.0000000+00:00</time></trkpt><trkpt lat="64.14673615" lon="-21.88034248"><ele>11.5</ele><time>2012-07-28T21:08:54.0000000+00:00</time></trkpt><trkpt lat="64.14672852" lon="-21.88001251"><ele>13.7</ele><time>2012-07-28T21:08:59.0000000+00:00</time></trkpt><trkpt lat="64.14673615" lon="-21.879673"><ele>13.8</ele><time>2012-07-28T21:09:04.0000000+00:00</time></trkpt><trkpt lat="64.14674377" lon="-21.8793602"><ele>14.4</ele><time>2012-07-28T21:09:09.0000000+00:00</time></trkpt><trkpt lat="64.1467514" lon="-21.87902069"><ele>14.3</ele><time>2012-07-28T21:09:14.0000000+00:00</time></trkpt><trkpt lat="64.14675903" lon="-21.87866211"><ele>14.6</ele><time>2012-07-28T21:09:19.0000000+00:00</time></trkpt><trkpt lat="64.14675903" lon="-21.87830925"><ele>15.3</ele><time>2012-07-28T21:09:24.0000000+00:00</time></trkpt><trkpt lat="64.14672089" lon="-21.87802887"><ele>16.4</ele><time>2012-07-28T21:09:29.0000000+00:00</time></trkpt><trkpt lat="64.14672089" lon="-21.87779236"><ele>13.4</ele><time>2012-07-28T21:09:34.0000000+00:00</time></trkpt><trkpt lat="64.14673615" lon="-21.8774395"><ele>13.7</ele><time>2012-07-28T21:09:39.0000000+00:00</time></trkpt><trkpt lat="64.14674377" lon="-21.87708283"><ele>13.3</ele><time>2012-07-28T21:09:44.0000000+00:00</time></trkpt><trkpt lat="64.14674377" lon="-21.8766613"><ele>13.4</ele><time>2012-07-28T21:09:49.0000000+00:00</time></trkpt><trkpt lat="64.14674377" lon="-21.87624741"><ele>13.1</ele><time>2012-07-28T21:09:54.0000000+00:00</time></trkpt><trkpt lat="64.1467514" lon="-21.87596703"><ele>15.7</ele><time>2012-07-28T21:09:59.0000000+00:00</time></trkpt><trkpt lat="64.14664459" lon="-21.87595749"><ele>17.5</ele><time>2012-07-28T21:10:04.0000000+00:00</time></trkpt><trkpt lat="64.14647675" lon="-21.87590408"><ele>18.1</ele><time>2012-07-28T21:10:09.0000000+00:00</time></trkpt><trkpt lat="64.14631653" lon="-21.87584877"><ele>20.7</ele><time>2012-07-28T21:10:14.0000000+00:00</time></trkpt><trkpt lat="64.14619446" lon="-21.87584114"><ele>23.2</ele><time>2012-07-28T21:10:19.0000000+00:00</time></trkpt><trkpt lat="64.14616394" lon="-21.87590027"><ele>24.2</ele><time>2012-07-28T21:10:24.0000000+00:00</time></trkpt><trkpt lat="64.14616394" lon="-21.87589836"><ele>24.9</ele><time>2012-07-28T21:10:29.0000000+00:00</time></trkpt><trkpt lat="64.14616394" lon="-21.87589455"><ele>25.1</ele><time>2012-07-28T21:10:34.0000000+00:00</time></trkpt><trkpt lat="64.14616394" lon="-21.87589264"><ele>25.1</ele><time>2012-07-28T21:10:39.0000000+00:00</time></trkpt><trkpt lat="64.14615631" lon="-21.87589836"><ele>25.0</ele><time>2012-07-28T21:10:44.0000000+00:00</time></trkpt><trkpt lat="64.14615631" lon="-21.87589073"><ele>25.0</ele><time>2012-07-28T21:10:49.0000000+00:00</time></trkpt><trkpt lat="64.14615631" lon="-21.87589073"><ele>25.0</ele><time>2012-07-28T21:10:54.0000000+00:00</time></trkpt><trkpt lat="64.14614105" lon="-21.87599373"><ele>23.1</ele><time>2012-07-28T21:10:59.0000000+00:00</time></trkpt><trkpt lat="64.14614868" lon="-21.87622261"><ele>20.1</ele><time>2012-07-28T21:11:04.0000000+00:00</time></trkpt><trkpt lat="64.14614868" lon="-21.87644577"><ele>19.4</ele><time>2012-07-28T21:11:09.0000000+00:00</time></trkpt><trkpt lat="64.14615631" lon="-21.8765316"><ele>17.2</ele><time>2012-07-28T21:11:14.0000000+00:00</time></trkpt><trkpt lat="64.14614868" lon="-21.87653542"><ele>16.3</ele><time>2012-07-28T21:11:19.0000000+00:00</time></trkpt><trkpt lat="64.14614105" lon="-21.87660599"><ele>14.7</ele><time>2012-07-28T21:11:24.0000000+00:00</time></trkpt><trkpt lat="64.14614105" lon="-21.87664032"><ele>15.0</ele><time>2012-07-28T21:11:29.0000000+00:00</time></trkpt><trkpt lat="64.14614868" lon="-21.87664795"><ele>15.2</ele><time>2012-07-28T21:11:34.0000000+00:00</time></trkpt><trkpt lat="64.14614105" lon="-21.87662888"><ele>15.3</ele><time>2012-07-28T21:11:39.0000000+00:00</time></trkpt><trkpt lat="64.14614105" lon="-21.87663078"><ele>15.5</ele><time>2012-07-28T21:11:44.0000000+00:00</time></trkpt><trkpt lat="64.14614105" lon="-21.87663269"><ele>15.5</ele><time>2012-07-28T21:11:49.0000000+00:00</time></trkpt><trkpt lat="64.14614105" lon="-21.87663269"><ele>15.5</ele><time>2012-07-28T21:11:54.0000000+00:00</time></trkpt><trkpt lat="64.14614105" lon="-21.87663269"><ele>15.5</ele><time>2012-07-28T21:11:59.0000000+00:00</time></trkpt><trkpt lat="64.14614105" lon="-21.87663269"><ele>15.5</ele><time>2012-07-28T21:12:04.0000000+00:00</time></trkpt><trkpt lat="64.14614105" lon="-21.87663269"><ele>15.5</ele><time>2012-07-28T21:12:09.0000000+00:00</time></trkpt><trkpt lat="64.14614105" lon="-21.87663269"><ele>15.5</ele><time>2012-07-28T21:12:14.0000000+00:00</time></trkpt><trkpt lat="64.14614105" lon="-21.87663269"><ele>15.5</ele><time>2012-07-28T21:12:19.0000000+00:00</time></trkpt><trkpt lat="64.14614105" lon="-21.87663269"><ele>15.5</ele><time>2012-07-28T21:12:24.0000000+00:00</time></trkpt><trkpt lat="64.14614105" lon="-21.87663269"><ele>15.5</ele><time>2012-07-28T21:12:29.0000000+00:00</time></trkpt><trkpt lat="64.14614105" lon="-21.87663269"><ele>15.5</ele><time>2012-07-28T21:12:34.0000000+00:00</time></trkpt><trkpt lat="64.14614105" lon="-21.87661552"><ele>15.6</ele><time>2012-07-28T21:12:39.0000000+00:00</time></trkpt><trkpt lat="64.14615631" lon="-21.87631226"><ele>16.2</ele><time>2012-07-28T21:12:44.0000000+00:00</time></trkpt><trkpt lat="64.14615631" lon="-21.87602615"><ele>16.2</ele><time>2012-07-28T21:12:49.0000000+00:00</time></trkpt><trkpt lat="64.14614105" lon="-21.87571716"><ele>16.2</ele><time>2012-07-28T21:12:54.0000000+00:00</time></trkpt><trkpt lat="64.14615631" lon="-21.87539482"><ele>15.7</ele><time>2012-07-28T21:12:59.0000000+00:00</time></trkpt><trkpt lat="64.14617157" lon="-21.87520409"><ele>16.6</ele><time>2012-07-28T21:13:04.0000000+00:00</time></trkpt><trkpt lat="64.14605713" lon="-21.87516213"><ele>18.8</ele><time>2012-07-28T21:13:09.0000000+00:00</time></trkpt><trkpt lat="64.14596558" lon="-21.87500572"><ele>20.3</ele><time>2012-07-28T21:13:14.0000000+00:00</time></trkpt><trkpt lat="64.14586639" lon="-21.87485504"><ele>24.9</ele><time>2012-07-28T21:13:19.0000000+00:00</time></trkpt><trkpt lat="64.14572144" lon="-21.87475205"><ele>28.1</ele><time>2012-07-28T21:13:24.0000000+00:00</time></trkpt><trkpt lat="64.14557648" lon="-21.87469482"><ele>28.6</ele><time>2012-07-28T21:13:29.0000000+00:00</time></trkpt><trkpt lat="64.14542389" lon="-21.87469673"><ele>25.2</ele><time>2012-07-28T21:13:34.0000000+00:00</time></trkpt><trkpt lat="64.14524841" lon="-21.87469292"><ele>23.3</ele><time>2012-07-28T21:13:39.0000000+00:00</time></trkpt><trkpt lat="64.14518738" lon="-21.87469864"><ele>23.4</ele><time>2012-07-28T21:13:44.0000000+00:00</time></trkpt><trkpt lat="64.14518738" lon="-21.87470627"><ele>23.8</ele><time>2012-07-28T21:13:49.0000000+00:00</time></trkpt><trkpt lat="64.14516449" lon="-21.87470627"><ele>23.7</ele><time>2012-07-28T21:13:54.0000000+00:00</time></trkpt><trkpt lat="64.14504242" lon="-21.87471962"><ele>22.7</ele><time>2012-07-28T21:13:59.0000000+00:00</time></trkpt><trkpt lat="64.14491272" lon="-21.87471008"><ele>21.8</ele><time>2012-07-28T21:14:04.0000000+00:00</time></trkpt><trkpt lat="64.14479065" lon="-21.87468338"><ele>21.5</ele><time>2012-07-28T21:14:09.0000000+00:00</time></trkpt><trkpt lat="64.14467621" lon="-21.87464333"><ele>22.2</ele><time>2012-07-28T21:14:14.0000000+00:00</time></trkpt><trkpt lat="64.1445694" lon="-21.87454414"><ele>25.0</ele><time>2012-07-28T21:14:19.0000000+00:00</time></trkpt><trkpt lat="64.14450836" lon="-21.87439537"><ele>26.4</ele><time>2012-07-28T21:14:24.0000000+00:00</time></trkpt><trkpt lat="64.14447784" lon="-21.87431335"><ele>28.7</ele><time>2012-07-28T21:14:29.0000000+00:00</time></trkpt><trkpt lat="64.1444397" lon="-21.87427712"><ele>30.0</ele><time>2012-07-28T21:14:34.0000000+00:00</time></trkpt><trkpt lat="64.14443207" lon="-21.87427712"><ele>29.4</ele><time>2012-07-28T21:14:39.0000000+00:00</time></trkpt><trkpt lat="64.14443207" lon="-21.87427712"><ele>29.5</ele><time>2012-07-28T21:14:44.0000000+00:00</time></trkpt><trkpt lat="64.14443207" lon="-21.87427712"><ele>29.5</ele><time>2012-07-28T21:14:49.0000000+00:00</time></trkpt><trkpt lat="64.14443207" lon="-21.87427712"><ele>29.5</ele><time>2012-07-28T21:14:54.0000000+00:00</time></trkpt><trkpt lat="64.14443207" lon="-21.87427712"><ele>29.4</ele><time>2012-07-28T21:14:59.0000000+00:00</time></trkpt><trkpt lat="64.14446259" lon="-21.87430763"><ele>28.7</ele><time>2012-07-28T21:15:04.0000000+00:00</time></trkpt><trkpt lat="64.14454651" lon="-21.87433052"><ele>27.5</ele><time>2012-07-28T21:15:09.0000000+00:00</time></trkpt><trkpt lat="64.1445694" lon="-21.87430573"><ele>26.8</ele><time>2012-07-28T21:15:14.0000000+00:00</time></trkpt><trkpt lat="64.1445694" lon="-21.87431908"><ele>26.1</ele><time>2012-07-28T21:15:19.0000000+00:00</time></trkpt><trkpt lat="64.1445694" lon="-21.87431908"><ele>26.1</ele><time>2012-07-28T21:15:24.0000000+00:00</time></trkpt><trkpt lat="64.1445694" lon="-21.87431717"><ele>26.2</ele><time>2012-07-28T21:15:29.0000000+00:00</time></trkpt><trkpt lat="64.1445694" lon="-21.87431717"><ele>26.2</ele><time>2012-07-28T21:15:34.0000000+00:00</time></trkpt><trkpt lat="64.1445694" lon="-21.87431717"><ele>26.2</ele><time>2012-07-28T21:15:39.0000000+00:00</time></trkpt><trkpt lat="64.1445694" lon="-21.87431717"><ele>26.2</ele><time>2012-07-28T21:15:44.0000000+00:00</time></trkpt><trkpt lat="64.1445694" lon="-21.87431717"><ele>26.2</ele><time>2012-07-28T21:15:49.0000000+00:00</time></trkpt><trkpt lat="64.14460754" lon="-21.87429047"><ele>25.1</ele><time>2012-07-28T21:15:54.0000000+00:00</time></trkpt><trkpt lat="64.14463043" lon="-21.87426376"><ele>23.7</ele><time>2012-07-28T21:15:59.0000000+00:00</time></trkpt><trkpt lat="64.14466095" lon="-21.87419319"><ele>23.4</ele><time>2012-07-28T21:16:04.0000000+00:00</time></trkpt><trkpt lat="64.1446991" lon="-21.8741169"><ele>23.3</ele><time>2012-07-28T21:16:09.0000000+00:00</time></trkpt><trkpt lat="64.14470673" lon="-21.87410164"><ele>22.9</ele><time>2012-07-28T21:16:14.0000000+00:00</time></trkpt><trkpt lat="64.14471436" lon="-21.87411118"><ele>22.3</ele><time>2012-07-28T21:16:19.0000000+00:00</time></trkpt><trkpt lat="64.14470673" lon="-21.87409782"><ele>22.6</ele><time>2012-07-28T21:16:24.0000000+00:00</time></trkpt><trkpt lat="64.1446991" lon="-21.87409592"><ele>22.7</ele><time>2012-07-28T21:16:29.0000000+00:00</time></trkpt><trkpt lat="64.1446991" lon="-21.87410164"><ele>22.7</ele><time>2012-07-28T21:16:34.0000000+00:00</time></trkpt><trkpt lat="64.1446991" lon="-21.87410355"><ele>22.7</ele><time>2012-07-28T21:16:39.0000000+00:00</time></trkpt><trkpt lat="64.1446991" lon="-21.87409592"><ele>22.7</ele><time>2012-07-28T21:16:44.0000000+00:00</time></trkpt><trkpt lat="64.1446991" lon="-21.8740921"><ele>22.7</ele><time>2012-07-28T21:16:49.0000000+00:00</time></trkpt><trkpt lat="64.1446991" lon="-21.8740921"><ele>22.7</ele><time>2012-07-28T21:16:54.0000000+00:00</time></trkpt><trkpt lat="64.1446991" lon="-21.8740921"><ele>22.7</ele><time>2012-07-28T21:16:59.0000000+00:00</time></trkpt><trkpt lat="64.1446991" lon="-21.8740902"><ele>22.7</ele><time>2012-07-28T21:17:04.0000000+00:00</time></trkpt><trkpt lat="64.1446991" lon="-21.8740902"><ele>22.7</ele><time>2012-07-28T21:17:09.0000000+00:00</time></trkpt><trkpt lat="64.1446991" lon="-21.8740902"><ele>22.7</ele><time>2012-07-28T21:17:14.0000000+00:00</time></trkpt><trkpt lat="64.1446991" lon="-21.8740902"><ele>22.7</ele><time>2012-07-28T21:17:19.0000000+00:00</time></trkpt><trkpt lat="64.1446991" lon="-21.8740902"><ele>22.7</ele><time>2012-07-28T21:17:24.0000000+00:00</time></trkpt><trkpt lat="64.1446991" lon="-21.8740902"><ele>22.7</ele><time>2012-07-28T21:17:29.0000000+00:00</time></trkpt><trkpt lat="64.14470673" lon="-21.8740902"><ele>22.7</ele><time>2012-07-28T21:17:34.0000000+00:00</time></trkpt><trkpt lat="64.14470673" lon="-21.8740902"><ele>22.7</ele><time>2012-07-28T21:17:39.0000000+00:00</time></trkpt><trkpt lat="64.14470673" lon="-21.87408829"><ele>22.7</ele><time>2012-07-28T21:17:44.0000000+00:00</time></trkpt><trkpt lat="64.14470673" lon="-21.87408829"><ele>22.7</ele><time>2012-07-28T21:17:49.0000000+00:00</time></trkpt><trkpt lat="64.14470673" lon="-21.87408829"><ele>22.7</ele><time>2012-07-28T21:17:54.0000000+00:00</time></trkpt><trkpt lat="64.14470673" lon="-21.87408829"><ele>22.7</ele><time>2012-07-28T21:17:59.0000000+00:00</time></trkpt><trkpt lat="64.14470673" lon="-21.87408638"><ele>22.6</ele><time>2012-07-28T21:18:04.0000000+00:00</time></trkpt><trkpt lat="64.14470673" lon="-21.87408638"><ele>22.6</ele><time>2012-07-28T21:18:09.0000000+00:00</time></trkpt><trkpt lat="64.14470673" lon="-21.87408638"><ele>22.6</ele><time>2012-07-28T21:18:14.0000000+00:00</time></trkpt><trkpt lat="64.14470673" lon="-21.87408638"><ele>22.6</ele><time>2012-07-28T21:18:19.0000000+00:00</time></trkpt><trkpt lat="64.14470673" lon="-21.87408638"><ele>22.6</ele><time>2012-07-28T21:18:24.0000000+00:00</time></trkpt><trkpt lat="64.14470673" lon="-21.87408638"><ele>22.5</ele><time>2012-07-28T21:18:29.0000000+00:00</time></trkpt><trkpt lat="64.14470673" lon="-21.87408638"><ele>22.5</ele><time>2012-07-28T21:18:34.0000000+00:00</time></trkpt><trkpt lat="64.14470673" lon="-21.87408638"><ele>22.5</ele><time>2012-07-28T21:18:39.0000000+00:00</time></trkpt><trkpt lat="64.14470673" lon="-21.87408638"><ele>22.5</ele><time>2012-07-28T21:18:44.0000000+00:00</time></trkpt><trkpt lat="64.14470673" lon="-21.87408638"><ele>22.4</ele><time>2012-07-28T21:18:49.0000000+00:00</time></trkpt><trkpt lat="64.14470673" lon="-21.87408638"><ele>22.4</ele><time>2012-07-28T21:18:54.0000000+00:00</time></trkpt><trkpt lat="64.14471436" lon="-21.87407494"><ele>22.6</ele><time>2012-07-28T21:18:59.0000000+00:00</time></trkpt><trkpt lat="64.1447525" lon="-21.87405205"><ele>23.8</ele><time>2012-07-28T21:19:04.0000000+00:00</time></trkpt><trkpt lat="64.14479828" lon="-21.87411118"><ele>24.4</ele><time>2012-07-28T21:19:09.0000000+00:00</time></trkpt><trkpt lat="64.14487457" lon="-21.87420464"><ele>24.0</ele><time>2012-07-28T21:19:14.0000000+00:00</time></trkpt><trkpt lat="64.14498138" lon="-21.87425423"><ele>22.0</ele><time>2012-07-28T21:19:19.0000000+00:00</time></trkpt><trkpt lat="64.14505768" lon="-21.87433243"><ele>19.5</ele><time>2012-07-28T21:19:24.0000000+00:00</time></trkpt><trkpt lat="64.1451416" lon="-21.87443352"><ele>18.5</ele><time>2012-07-28T21:19:29.0000000+00:00</time></trkpt><trkpt lat="64.14524078" lon="-21.87459183"><ele>17.1</ele><time>2012-07-28T21:19:34.0000000+00:00</time></trkpt><trkpt lat="64.14536285" lon="-21.8746872"><ele>17.5</ele><time>2012-07-28T21:19:39.0000000+00:00</time></trkpt><trkpt lat="64.14548492" lon="-21.87475205"><ele>17.3</ele><time>2012-07-28T21:19:44.0000000+00:00</time></trkpt><trkpt lat="64.14563751" lon="-21.87475777"><ele>16.3</ele><time>2012-07-28T21:19:49.0000000+00:00</time></trkpt><trkpt lat="64.14577484" lon="-21.87480736"><ele>16.6</ele><time>2012-07-28T21:19:54.0000000+00:00</time></trkpt><trkpt lat="64.14588928" lon="-21.87489319"><ele>16.1</ele><time>2012-07-28T21:19:59.0000000+00:00</time></trkpt><trkpt lat="64.14595032" lon="-21.87506104"><ele>15.1</ele><time>2012-07-28T21:20:04.0000000+00:00</time></trkpt><trkpt lat="64.14595032" lon="-21.87505913"><ele>14.3</ele><time>2012-07-28T21:20:09.0000000+00:00</time></trkpt><trkpt lat="64.14595032" lon="-21.87506104"><ele>14.3</ele><time>2012-07-28T21:20:14.0000000+00:00</time></trkpt><trkpt lat="64.14595032" lon="-21.87506104"><ele>14.2</ele><time>2012-07-28T21:20:19.0000000+00:00</time></trkpt><trkpt lat="64.14595032" lon="-21.87508202"><ele>14.3</ele><time>2012-07-28T21:20:24.0000000+00:00</time></trkpt><trkpt lat="64.14598846" lon="-21.87515831"><ele>14.6</ele><time>2012-07-28T21:20:29.0000000+00:00</time></trkpt><trkpt lat="64.14609528" lon="-21.87516975"><ele>14.1</ele><time>2012-07-28T21:20:34.0000000+00:00</time></trkpt><trkpt lat="64.14612579" lon="-21.8748703"><ele>14.3</ele><time>2012-07-28T21:20:39.0000000+00:00</time></trkpt><trkpt lat="64.14614868" lon="-21.87465668"><ele>13.8</ele><time>2012-07-28T21:20:44.0000000+00:00</time></trkpt><trkpt lat="64.14615631" lon="-21.8745842"><ele>14.4</ele><time>2012-07-28T21:20:49.0000000+00:00</time></trkpt><trkpt lat="64.14615631" lon="-21.87457466"><ele>14.0</ele><time>2012-07-28T21:20:54.0000000+00:00</time></trkpt><trkpt lat="64.14615631" lon="-21.87453079"><ele>13.8</ele><time>2012-07-28T21:20:59.0000000+00:00</time></trkpt><trkpt lat="64.14614868" lon="-21.87446594"><ele>14.6</ele><time>2012-07-28T21:21:04.0000000+00:00</time></trkpt><trkpt lat="64.14614868" lon="-21.87446594"><ele>14.9</ele><time>2012-07-28T21:21:09.0000000+00:00</time></trkpt><trkpt lat="64.14614868" lon="-21.87447166"><ele>14.9</ele><time>2012-07-28T21:21:14.0000000+00:00</time></trkpt><trkpt lat="64.14614105" lon="-21.8744812"><ele>14.8</ele><time>2012-07-28T21:21:19.0000000+00:00</time></trkpt><trkpt lat="64.14614105" lon="-21.87448502"><ele>14.8</ele><time>2012-07-28T21:21:24.0000000+00:00</time></trkpt><trkpt lat="64.14614868" lon="-21.8744812"><ele>14.8</ele><time>2012-07-28T21:21:29.0000000+00:00</time></trkpt><trkpt lat="64.14614868" lon="-21.87447739"><ele>14.9</ele><time>2012-07-28T21:21:34.0000000+00:00</time></trkpt><trkpt lat="64.14614105" lon="-21.8744545"><ele>14.9</ele><time>2012-07-28T21:21:39.0000000+00:00</time></trkpt><trkpt lat="64.14613342" lon="-21.87445259"><ele>15.0</ele><time>2012-07-28T21:21:44.0000000+00:00</time></trkpt><trkpt lat="64.14613342" lon="-21.87445259"><ele>14.9</ele><time>2012-07-28T21:21:49.0000000+00:00</time></trkpt><trkpt lat="64.14611816" lon="-21.87444687"><ele>14.8</ele><time>2012-07-28T21:21:54.0000000+00:00</time></trkpt><trkpt lat="64.14600372" lon="-21.87446976"><ele>15.8</ele><time>2012-07-28T21:21:59.0000000+00:00</time></trkpt><trkpt lat="64.14595795" lon="-21.87460327"><ele>16.1</ele><time>2012-07-28T21:22:04.0000000+00:00</time></trkpt><trkpt lat="64.14592743" lon="-21.87476158"><ele>15.2</ele><time>2012-07-28T21:22:09.0000000+00:00</time></trkpt><trkpt lat="64.14585114" lon="-21.87486649"><ele>15.0</ele><time>2012-07-28T21:22:14.0000000+00:00</time></trkpt><trkpt lat="64.14581299" lon="-21.87487602"><ele>15.3</ele><time>2012-07-28T21:22:19.0000000+00:00</time></trkpt><trkpt lat="64.14582062" lon="-21.87486267"><ele>15.6</ele><time>2012-07-28T21:22:24.0000000+00:00</time></trkpt><trkpt lat="64.14579773" lon="-21.87488556"><ele>15.5</ele><time>2012-07-28T21:22:29.0000000+00:00</time></trkpt><trkpt lat="64.14579773" lon="-21.87488556"><ele>15.5</ele><time>2012-07-28T21:22:34.0000000+00:00</time></trkpt><trkpt lat="64.14577484" lon="-21.8748951"><ele>15.2</ele><time>2012-07-28T21:22:39.0000000+00:00</time></trkpt><trkpt lat="64.14576721" lon="-21.87490845"><ele>15.2</ele><time>2012-07-28T21:22:44.0000000+00:00</time></trkpt><trkpt lat="64.14571381" lon="-21.87501717"><ele>15.6</ele><time>2012-07-28T21:22:49.0000000+00:00</time></trkpt><trkpt lat="64.1456604" lon="-21.87503243"><ele>15.4</ele><time>2012-07-28T21:22:54.0000000+00:00</time></trkpt><trkpt lat="64.14564514" lon="-21.87503433"><ele>15.5</ele><time>2012-07-28T21:22:59.0000000+00:00</time></trkpt><trkpt lat="64.14563751" lon="-21.87507439"><ele>15.2</ele><time>2012-07-28T21:23:04.0000000+00:00</time></trkpt><trkpt lat="64.14562988" lon="-21.87507439"><ele>15.2</ele><time>2012-07-28T21:23:09.0000000+00:00</time></trkpt><trkpt lat="64.14562988" lon="-21.87510109"><ele>15.0</ele><time>2012-07-28T21:23:14.0000000+00:00</time></trkpt><trkpt lat="64.14562225" lon="-21.87511635"><ele>14.8</ele><time>2012-07-28T21:23:19.0000000+00:00</time></trkpt><trkpt lat="64.14562225" lon="-21.87512589"><ele>14.8</ele><time>2012-07-28T21:23:24.0000000+00:00</time></trkpt><trkpt lat="64.14561462" lon="-21.87513161"><ele>14.4</ele><time>2012-07-28T21:23:29.0000000+00:00</time></trkpt><trkpt lat="64.14561462" lon="-21.87514114"><ele>14.0</ele><time>2012-07-28T21:23:34.0000000+00:00</time></trkpt><trkpt lat="64.14561462" lon="-21.87513733"><ele>13.8</ele><time>2012-07-28T21:23:39.0000000+00:00</time></trkpt><trkpt lat="64.14561462" lon="-21.87514305"><ele>13.8</ele><time>2012-07-28T21:23:44.0000000+00:00</time></trkpt><trkpt lat="64.14562225" lon="-21.87514877"><ele>13.9</ele><time>2012-07-28T21:23:49.0000000+00:00</time></trkpt><trkpt lat="64.14562225" lon="-21.8751545"><ele>13.9</ele><time>2012-07-28T21:23:54.0000000+00:00</time></trkpt><trkpt lat="64.14562225" lon="-21.87515831"><ele>13.9</ele><time>2012-07-28T21:23:59.0000000+00:00</time></trkpt><trkpt lat="64.14562225" lon="-21.87516022"><ele>14.0</ele><time>2012-07-28T21:24:04.0000000+00:00</time></trkpt><trkpt lat="64.14562225" lon="-21.87516213"><ele>14.0</ele><time>2012-07-28T21:24:09.0000000+00:00</time></trkpt><trkpt lat="64.14561462" lon="-21.87516975"><ele>14.1</ele><time>2012-07-28T21:24:14.0000000+00:00</time></trkpt><trkpt lat="64.14561462" lon="-21.87517357"><ele>14.2</ele><time>2012-07-28T21:24:19.0000000+00:00</time></trkpt><trkpt lat="64.145607" lon="-21.87518692"><ele>14.2</ele><time>2012-07-28T21:24:24.0000000+00:00</time></trkpt><trkpt lat="64.14561462" lon="-21.87519264"><ele>14.3</ele><time>2012-07-28T21:24:29.0000000+00:00</time></trkpt><trkpt lat="64.14561462" lon="-21.87519455"><ele>14.4</ele><time>2012-07-28T21:24:34.0000000+00:00</time></trkpt><trkpt lat="64.14562225" lon="-21.87518501"><ele>14.2</ele><time>2012-07-28T21:24:39.0000000+00:00</time></trkpt><trkpt lat="64.14562225" lon="-21.87518501"><ele>13.6</ele><time>2012-07-28T21:24:44.0000000+00:00</time></trkpt><trkpt lat="64.14562225" lon="-21.87519455"><ele>13.7</ele><time>2012-07-28T21:24:49.0000000+00:00</time></trkpt><trkpt lat="64.14562225" lon="-21.87520027"><ele>13.8</ele><time>2012-07-28T21:24:54.0000000+00:00</time></trkpt><trkpt lat="64.14562225" lon="-21.87520218"><ele>13.9</ele><time>2012-07-28T21:24:59.0000000+00:00</time></trkpt><trkpt lat="64.14562225" lon="-21.87520027"><ele>14.0</ele><time>2012-07-28T21:25:04.0000000+00:00</time></trkpt><trkpt lat="64.14562225" lon="-21.87520599"><ele>14.1</ele><time>2012-07-28T21:25:09.0000000+00:00</time></trkpt><trkpt lat="64.14562225" lon="-21.87521553"><ele>14.3</ele><time>2012-07-28T21:25:14.0000000+00:00</time></trkpt><trkpt lat="64.14561462" lon="-21.87522697"><ele>14.4</ele><time>2012-07-28T21:25:19.0000000+00:00</time></trkpt><trkpt lat="64.145607" lon="-21.87523651"><ele>14.6</ele><time>2012-07-28T21:25:24.0000000+00:00</time></trkpt><trkpt lat="64.145607" lon="-21.8752327"><ele>14.8</ele><time>2012-07-28T21:25:29.0000000+00:00</time></trkpt><trkpt lat="64.145607" lon="-21.87522888"><ele>15.0</ele><time>2012-07-28T21:25:34.0000000+00:00</time></trkpt><trkpt lat="64.145607" lon="-21.8752346"><ele>15.2</ele><time>2012-07-28T21:25:39.0000000+00:00</time></trkpt><trkpt lat="64.145607" lon="-21.87524033"><ele>15.3</ele><time>2012-07-28T21:25:44.0000000+00:00</time></trkpt><trkpt lat="64.145607" lon="-21.87524796"><ele>15.4</ele><time>2012-07-28T21:25:49.0000000+00:00</time></trkpt><trkpt lat="64.14562988" lon="-21.87520599"><ele>15.3</ele><time>2012-07-28T21:25:54.0000000+00:00</time></trkpt><trkpt lat="64.14562225" lon="-21.87520027"><ele>15.4</ele><time>2012-07-28T21:25:59.0000000+00:00</time></trkpt><trkpt lat="64.14562225" lon="-21.87520409"><ele>15.5</ele><time>2012-07-28T21:26:04.0000000+00:00</time></trkpt><trkpt lat="64.14561462" lon="-21.87521172"><ele>15.7</ele><time>2012-07-28T21:26:09.0000000+00:00</time></trkpt><trkpt lat="64.14561462" lon="-21.87521362"><ele>15.7</ele><time>2012-07-28T21:26:14.0000000+00:00</time></trkpt><trkpt lat="64.14561462" lon="-21.87520981"><ele>15.8</ele><time>2012-07-28T21:26:19.0000000+00:00</time></trkpt><trkpt lat="64.14561462" lon="-21.8752079"><ele>15.9</ele><time>2012-07-28T21:26:24.0000000+00:00</time></trkpt><trkpt lat="64.14561462" lon="-21.87521362"><ele>16.0</ele><time>2012-07-28T21:26:29.0000000+00:00</time></trkpt><trkpt lat="64.14561462" lon="-21.8752079"><ele>16.1</ele><time>2012-07-28T21:26:34.0000000+00:00</time></trkpt><trkpt lat="64.14561462" lon="-21.8752079"><ele>16.3</ele><time>2012-07-28T21:26:39.0000000+00:00</time></trkpt><trkpt lat="64.14561462" lon="-21.87521362"><ele>16.4</ele><time>2012-07-28T21:26:44.0000000+00:00</time></trkpt><trkpt lat="64.14561462" lon="-21.87521553"><ele>16.5</ele><time>2012-07-28T21:26:49.0000000+00:00</time></trkpt><trkpt lat="64.14562225" lon="-21.87522125"><ele>16.6</ele><time>2012-07-28T21:26:54.0000000+00:00</time></trkpt><trkpt lat="64.14562225" lon="-21.87522125"><ele>16.7</ele><time>2012-07-28T21:26:59.0000000+00:00</time></trkpt><trkpt lat="64.14561462" lon="-21.87522125"><ele>16.8</ele><time>2012-07-28T21:27:04.0000000+00:00</time></trkpt><trkpt lat="64.14562225" lon="-21.87521744"><ele>17.0</ele><time>2012-07-28T21:27:09.0000000+00:00</time></trkpt><trkpt lat="64.14562225" lon="-21.87521935"><ele>17.0</ele><time>2012-07-28T21:27:14.0000000+00:00</time></trkpt><trkpt lat="64.14562225" lon="-21.87522316"><ele>17.0</ele><time>2012-07-28T21:27:19.0000000+00:00</time></trkpt><trkpt lat="64.14562225" lon="-21.87521935"><ele>17.1</ele><time>2012-07-28T21:27:24.0000000+00:00</time></trkpt><trkpt lat="64.14562225" lon="-21.87522125"><ele>17.1</ele><time>2012-07-28T21:27:29.0000000+00:00</time></trkpt><trkpt lat="64.14562225" lon="-21.87521935"><ele>17.2</ele><time>2012-07-28T21:27:34.0000000+00:00</time></trkpt><trkpt lat="64.14562225" lon="-21.87521744"><ele>17.2</ele><time>2012-07-28T21:27:39.0000000+00:00</time></trkpt><trkpt lat="64.14562225" lon="-21.87522316"><ele>17.2</ele><time>2012-07-28T21:27:44.0000000+00:00</time></trkpt><trkpt lat="64.14562225" lon="-21.87522888"><ele>17.2</ele><time>2012-07-28T21:27:49.0000000+00:00</time></trkpt><trkpt lat="64.14562225" lon="-21.87523079"><ele>17.2</ele><time>2012-07-28T21:27:54.0000000+00:00</time></trkpt><trkpt lat="64.14561462" lon="-21.87523842"><ele>17.2</ele><time>2012-07-28T21:27:59.0000000+00:00</time></trkpt><trkpt lat="64.14561462" lon="-21.87524033"><ele>17.2</ele><time>2012-07-28T21:28:04.0000000+00:00</time></trkpt><trkpt lat="64.14561462" lon="-21.87524223"><ele>17.3</ele><time>2012-07-28T21:28:09.0000000+00:00</time></trkpt><trkpt lat="64.14561462" lon="-21.8752346"><ele>17.3</ele><time>2012-07-28T21:28:14.0000000+00:00</time></trkpt><trkpt lat="64.14561462" lon="-21.8752327"><ele>17.4</ele><time>2012-07-28T21:28:19.0000000+00:00</time></trkpt><trkpt lat="64.14561462" lon="-21.87523079"><ele>17.3</ele><time>2012-07-28T21:28:24.0000000+00:00</time></trkpt><trkpt lat="64.145607" lon="-21.87522125"><ele>17.3</ele><time>2012-07-28T21:28:29.0000000+00:00</time></trkpt><trkpt lat="64.145607" lon="-21.87521172"><ele>17.3</ele><time>2012-07-28T21:28:34.0000000+00:00</time></trkpt><trkpt lat="64.145607" lon="-21.87521172"><ele>17.4</ele><time>2012-07-28T21:28:39.0000000+00:00</time></trkpt><trkpt lat="64.145607" lon="-21.87521744"><ele>17.5</ele><time>2012-07-28T21:28:44.0000000+00:00</time></trkpt><trkpt lat="64.14559937" lon="-21.87523079"><ele>17.5</ele><time>2012-07-28T21:28:49.0000000+00:00</time></trkpt><trkpt lat="64.14559937" lon="-21.87522697"><ele>17.6</ele><time>2012-07-28T21:28:54.0000000+00:00</time></trkpt><trkpt lat="64.145607" lon="-21.87521172"><ele>17.7</ele><time>2012-07-28T21:28:59.0000000+00:00</time></trkpt><trkpt lat="64.14561462" lon="-21.87521362"><ele>17.7</ele><time>2012-07-28T21:29:04.0000000+00:00</time></trkpt><trkpt lat="64.14562225" lon="-21.87522125"><ele>17.7</ele><time>2012-07-28T21:29:09.0000000+00:00</time></trkpt><trkpt lat="64.14562988" lon="-21.87520409"><ele>17.7</ele><time>2012-07-28T21:29:14.0000000+00:00</time></trkpt><trkpt lat="64.14562988" lon="-21.87519836"><ele>17.7</ele><time>2012-07-28T21:29:19.0000000+00:00</time></trkpt><trkpt lat="64.14562988" lon="-21.87519836"><ele>17.7</ele><time>2012-07-28T21:29:24.0000000+00:00</time></trkpt><trkpt lat="64.14562988" lon="-21.87519836"><ele>17.7</ele><time>2012-07-28T21:29:29.0000000+00:00</time></trkpt><trkpt lat="64.14562225" lon="-21.87519646"><ele>17.8</ele><time>2012-07-28T21:29:34.0000000+00:00</time></trkpt><trkpt lat="64.14562988" lon="-21.87519646"><ele>17.9</ele><time>2012-07-28T21:29:39.0000000+00:00</time></trkpt><trkpt lat="64.14563751" lon="-21.87519264"><ele>18.0</ele><time>2012-07-28T21:29:44.0000000+00:00</time></trkpt><trkpt lat="64.1456604" lon="-21.87517738"><ele>17.6</ele><time>2012-07-28T21:29:49.0000000+00:00</time></trkpt><trkpt lat="64.14566803" lon="-21.8751545"><ele>17.3</ele><time>2012-07-28T21:29:54.0000000+00:00</time></trkpt><trkpt lat="64.14566803" lon="-21.87515068"><ele>17.4</ele><time>2012-07-28T21:29:59.0000000+00:00</time></trkpt><trkpt lat="64.14567566" lon="-21.87515068"><ele>17.4</ele><time>2012-07-28T21:30:04.0000000+00:00</time></trkpt><trkpt lat="64.14568329" lon="-21.87515068"><ele>17.5</ele><time>2012-07-28T21:30:09.0000000+00:00</time></trkpt><trkpt lat="64.14568329" lon="-21.87514687"><ele>17.4</ele><time>2012-07-28T21:30:14.0000000+00:00</time></trkpt><trkpt lat="64.14567566" lon="-21.87513924"><ele>17.2</ele><time>2012-07-28T21:30:19.0000000+00:00</time></trkpt><trkpt lat="64.14566803" lon="-21.87513924"><ele>16.9</ele><time>2012-07-28T21:30:24.0000000+00:00</time></trkpt><trkpt lat="64.14566803" lon="-21.87513924"><ele>16.4</ele><time>2012-07-28T21:30:29.0000000+00:00</time></trkpt><trkpt lat="64.14566803" lon="-21.87514496"><ele>15.9</ele><time>2012-07-28T21:30:34.0000000+00:00</time></trkpt><trkpt lat="64.14566803" lon="-21.87514687"><ele>15.5</ele><time>2012-07-28T21:30:39.0000000+00:00</time></trkpt><trkpt lat="64.1456604" lon="-21.87515259"><ele>15.1</ele><time>2012-07-28T21:30:44.0000000+00:00</time></trkpt><trkpt lat="64.1456604" lon="-21.87516022"><ele>14.6</ele><time>2012-07-28T21:30:49.0000000+00:00</time></trkpt><trkpt lat="64.1456604" lon="-21.87517166"><ele>14.2</ele><time>2012-07-28T21:30:54.0000000+00:00</time></trkpt><trkpt lat="64.1456604" lon="-21.8751812"><ele>13.6</ele><time>2012-07-28T21:30:59.0000000+00:00</time></trkpt><trkpt lat="64.1456604" lon="-21.87518311"><ele>13.1</ele><time>2012-07-28T21:31:04.0000000+00:00</time></trkpt><trkpt lat="64.14566803" lon="-21.8751812"><ele>12.5</ele><time>2012-07-28T21:31:09.0000000+00:00</time></trkpt><trkpt lat="64.14566803" lon="-21.87517738"><ele>11.8</ele><time>2012-07-28T21:31:14.0000000+00:00</time></trkpt><trkpt lat="64.14567566" lon="-21.87517166"><ele>11.0</ele><time>2012-07-28T21:31:19.0000000+00:00</time></trkpt><trkpt lat="64.14568329" lon="-21.87516403"><ele>10.2</ele><time>2012-07-28T21:31:24.0000000+00:00</time></trkpt><trkpt lat="64.14568329" lon="-21.87515831"><ele>9.4</ele><time>2012-07-28T21:31:29.0000000+00:00</time></trkpt><trkpt lat="64.14568329" lon="-21.87516022"><ele>8.6</ele><time>2012-07-28T21:31:34.0000000+00:00</time></trkpt><trkpt lat="64.14567566" lon="-21.87516403"><ele>8.2</ele><time>2012-07-28T21:31:39.0000000+00:00</time></trkpt><trkpt lat="64.14567566" lon="-21.87516403"><ele>8.2</ele><time>2012-07-28T21:31:44.0000000+00:00</time></trkpt><trkpt lat="64.14567566" lon="-21.87516403"><ele>8.2</ele><time>2012-07-28T21:31:49.0000000+00:00</time></trkpt><trkpt lat="64.14567566" lon="-21.87516403"><ele>8.2</ele><time>2012-07-28T21:31:54.0000000+00:00</time></trkpt><trkpt lat="64.14567566" lon="-21.87516403"><ele>8.2</ele><time>2012-07-28T21:31:59.0000000+00:00</time></trkpt><trkpt lat="64.14567566" lon="-21.87516403"><ele>8.2</ele><time>2012-07-28T21:32:04.0000000+00:00</time></trkpt><trkpt lat="64.14567566" lon="-21.87516403"><ele>8.2</ele><time>2012-07-28T21:32:09.0000000+00:00</time></trkpt><trkpt lat="64.14567566" lon="-21.87516403"><ele>8.2</ele><time>2012-07-28T21:32:14.0000000+00:00</time></trkpt><trkpt lat="64.14567566" lon="-21.87516403"><ele>8.2</ele><time>2012-07-28T21:32:19.0000000+00:00</time></trkpt><trkpt lat="64.14567566" lon="-21.87516213"><ele>8.2</ele><time>2012-07-28T21:32:24.0000000+00:00</time></trkpt><trkpt lat="64.14567566" lon="-21.87516213"><ele>8.2</ele><time>2012-07-28T21:32:29.0000000+00:00</time></trkpt><trkpt lat="64.14567566" lon="-21.87516213"><ele>8.1</ele><time>2012-07-28T21:32:34.0000000+00:00</time></trkpt><trkpt lat="64.14567566" lon="-21.87516213"><ele>8.1</ele><time>2012-07-28T21:32:39.0000000+00:00</time></trkpt><trkpt lat="64.14567566" lon="-21.87516213"><ele>8.1</ele><time>2012-07-28T21:32:44.0000000+00:00</time></trkpt><trkpt lat="64.14567566" lon="-21.87516213"><ele>8.1</ele><time>2012-07-28T21:32:49.0000000+00:00</time></trkpt><trkpt lat="64.14567566" lon="-21.87516213"><ele>8.2</ele><time>2012-07-28T21:32:54.0000000+00:00</time></trkpt><trkpt lat="64.14567566" lon="-21.87516213"><ele>8.2</ele><time>2012-07-28T21:32:59.0000000+00:00</time></trkpt><trkpt lat="64.14567566" lon="-21.87516213"><ele>8.2</ele><time>2012-07-28T21:33:04.0000000+00:00</time></trkpt><trkpt lat="64.14567566" lon="-21.87516213"><ele>8.2</ele><time>2012-07-28T21:33:09.0000000+00:00</time></trkpt><trkpt lat="64.14567566" lon="-21.87516213"><ele>8.3</ele><time>2012-07-28T21:33:14.0000000+00:00</time></trkpt><trkpt lat="64.14567566" lon="-21.87516213"><ele>8.3</ele><time>2012-07-28T21:33:19.0000000+00:00</time></trkpt><trkpt lat="64.14567566" lon="-21.87516022"><ele>8.3</ele><time>2012-07-28T21:33:24.0000000+00:00</time></trkpt><trkpt lat="64.14567566" lon="-21.87516022"><ele>8.4</ele><time>2012-07-28T21:33:29.0000000+00:00</time></trkpt><trkpt lat="64.14567566" lon="-21.87516022"><ele>8.4</ele><time>2012-07-28T21:33:34.0000000+00:00</time></trkpt><trkpt lat="64.14567566" lon="-21.87516022"><ele>8.4</ele><time>2012-07-28T21:33:39.0000000+00:00</time></trkpt><trkpt lat="64.14567566" lon="-21.87516022"><ele>8.4</ele><time>2012-07-28T21:33:44.0000000+00:00</time></trkpt><trkpt lat="64.14567566" lon="-21.87516022"><ele>8.4</ele><time>2012-07-28T21:33:49.0000000+00:00</time></trkpt><trkpt lat="64.14567566" lon="-21.87516022"><ele>8.5</ele><time>2012-07-28T21:33:54.0000000+00:00</time></trkpt><trkpt lat="64.14567566" lon="-21.87516213"><ele>8.5</ele><time>2012-07-28T21:33:59.0000000+00:00</time></trkpt><trkpt lat="64.14567566" lon="-21.87516213"><ele>8.5</ele><time>2012-07-28T21:34:04.0000000+00:00</time></trkpt><trkpt lat="64.14567566" lon="-21.87516403"><ele>8.5</ele><time>2012-07-28T21:34:09.0000000+00:00</time></trkpt><trkpt lat="64.14567566" lon="-21.87516403"><ele>8.5</ele><time>2012-07-28T21:34:14.0000000+00:00</time></trkpt><trkpt lat="64.14567566" lon="-21.87516403"><ele>8.5</ele><time>2012-07-28T21:34:19.0000000+00:00</time></trkpt><trkpt lat="64.14567566" lon="-21.87516403"><ele>8.5</ele><time>2012-07-28T21:34:24.0000000+00:00</time></trkpt><trkpt lat="64.14567566" lon="-21.87516403"><ele>8.6</ele><time>2012-07-28T21:34:29.0000000+00:00</time></trkpt><trkpt lat="64.14566803" lon="-21.87516594"><ele>8.5</ele><time>2012-07-28T21:34:34.0000000+00:00</time></trkpt><trkpt lat="64.14566803" lon="-21.87516594"><ele>8.5</ele><time>2012-07-28T21:34:39.0000000+00:00</time></trkpt><trkpt lat="64.14566803" lon="-21.87516594"><ele>8.5</ele><time>2012-07-28T21:34:44.0000000+00:00</time></trkpt><trkpt lat="64.14566803" lon="-21.87516785"><ele>8.6</ele><time>2012-07-28T21:34:49.0000000+00:00</time></trkpt><trkpt lat="64.14566803" lon="-21.87516785"><ele>8.6</ele><time>2012-07-28T21:34:54.0000000+00:00</time></trkpt><trkpt lat="64.14566803" lon="-21.87516785"><ele>8.6</ele><time>2012-07-28T21:34:59.0000000+00:00</time></trkpt><trkpt lat="64.14566803" lon="-21.87516785"><ele>8.6</ele><time>2012-07-28T21:35:04.0000000+00:00</time></trkpt><trkpt lat="64.14566803" lon="-21.87516785"><ele>8.6</ele><time>2012-07-28T21:35:09.0000000+00:00</time></trkpt><trkpt lat="64.14566803" lon="-21.87516785"><ele>8.6</ele><time>2012-07-28T21:35:14.0000000+00:00</time></trkpt><trkpt lat="64.14566803" lon="-21.87516785"><ele>8.6</ele><time>2012-07-28T21:35:19.0000000+00:00</time></trkpt><trkpt lat="64.14566803" lon="-21.87516785"><ele>8.6</ele><time>2012-07-28T21:35:24.0000000+00:00</time></trkpt><trkpt lat="64.14566803" lon="-21.87516785"><ele>8.6</ele><time>2012-07-28T21:35:29.0000000+00:00</time></trkpt><trkpt lat="64.14566803" lon="-21.87516785"><ele>8.6</ele><time>2012-07-28T21:35:34.0000000+00:00</time></trkpt><trkpt lat="64.14566803" lon="-21.87516785"><ele>8.6</ele><time>2012-07-28T21:35:39.0000000+00:00</time></trkpt><trkpt lat="64.14566803" lon="-21.87516785"><ele>8.7</ele><time>2012-07-28T21:35:44.0000000+00:00</time></trkpt><trkpt lat="64.14566803" lon="-21.87516785"><ele>8.7</ele><time>2012-07-28T21:35:49.0000000+00:00</time></trkpt><trkpt lat="64.14566803" lon="-21.87516975"><ele>8.7</ele><time>2012-07-28T21:35:54.0000000+00:00</time></trkpt><trkpt lat="64.14566803" lon="-21.87516975"><ele>8.7</ele><time>2012-07-28T21:35:59.0000000+00:00</time></trkpt><trkpt lat="64.14566803" lon="-21.87516975"><ele>8.7</ele><time>2012-07-28T21:36:04.0000000+00:00</time></trkpt><trkpt lat="64.14566803" lon="-21.87516975"><ele>8.7</ele><time>2012-07-28T21:36:09.0000000+00:00</time></trkpt><trkpt lat="64.14566803" lon="-21.87516975"><ele>8.7</ele><time>2012-07-28T21:36:14.0000000+00:00</time></trkpt><trkpt lat="64.14566803" lon="-21.87516785"><ele>8.7</ele><time>2012-07-28T21:36:19.0000000+00:00</time></trkpt><trkpt lat="64.14566803" lon="-21.87516975"><ele>8.7</ele><time>2012-07-28T21:36:24.0000000+00:00</time></trkpt><trkpt lat="64.14566803" lon="-21.87516975"><ele>8.8</ele><time>2012-07-28T21:36:29.0000000+00:00</time></trkpt><trkpt lat="64.14566803" lon="-21.87516975"><ele>8.8</ele><time>2012-07-28T21:36:34.0000000+00:00</time></trkpt><trkpt lat="64.14566803" lon="-21.87516975"><ele>8.8</ele><time>2012-07-28T21:36:39.0000000+00:00</time></trkpt><trkpt lat="64.14566803" lon="-21.87516975"><ele>8.8</ele><time>2012-07-28T21:36:44.0000000+00:00</time></trkpt><trkpt lat="64.14566803" lon="-21.87516975"><ele>8.8</ele><time>2012-07-28T21:36:49.0000000+00:00</time></trkpt><trkpt lat="64.14566803" lon="-21.87516975"><ele>8.9</ele><time>2012-07-28T21:36:54.0000000+00:00</time></trkpt><trkpt lat="64.14566803" lon="-21.87516975"><ele>8.9</ele><time>2012-07-28T21:36:59.0000000+00:00</time></trkpt><trkpt lat="64.14566803" lon="-21.87516785"><ele>8.9</ele><time>2012-07-28T21:37:04.0000000+00:00</time></trkpt><trkpt lat="64.14566803" lon="-21.87516785"><ele>8.9</ele><time>2012-07-28T21:37:09.0000000+00:00</time></trkpt><trkpt lat="64.14566803" lon="-21.87516785"><ele>8.9</ele><time>2012-07-28T21:37:14.0000000+00:00</time></trkpt><trkpt lat="64.14566803" lon="-21.87516785"><ele>8.9</ele><time>2012-07-28T21:37:19.0000000+00:00</time></trkpt><trkpt lat="64.14566803" lon="-21.87516785"><ele>9.0</ele><time>2012-07-28T21:37:24.0000000+00:00</time></trkpt><trkpt lat="64.14566803" lon="-21.87516594"><ele>9.0</ele><time>2012-07-28T21:37:29.0000000+00:00</time></trkpt><trkpt lat="64.14566803" lon="-21.87516594"><ele>9.0</ele><time>2012-07-28T21:37:34.0000000+00:00</time></trkpt><trkpt lat="64.14566803" lon="-21.87516594"><ele>9.0</ele><time>2012-07-28T21:37:39.0000000+00:00</time></trkpt><trkpt lat="64.14566803" lon="-21.87516594"><ele>9.0</ele><time>2012-07-28T21:37:44.0000000+00:00</time></trkpt><trkpt lat="64.14566803" lon="-21.87516594"><ele>9.0</ele><time>2012-07-28T21:37:49.0000000+00:00</time></trkpt><trkpt lat="64.14566803" lon="-21.87516594"><ele>9.1</ele><time>2012-07-28T21:37:54.0000000+00:00</time></trkpt><trkpt lat="64.14566803" lon="-21.87516594"><ele>9.1</ele><time>2012-07-28T21:37:59.0000000+00:00</time></trkpt><trkpt lat="64.14566803" lon="-21.87516594"><ele>9.1</ele><time>2012-07-28T21:38:04.0000000+00:00</time></trkpt><trkpt lat="64.14566803" lon="-21.87516594"><ele>9.1</ele><time>2012-07-28T21:38:09.0000000+00:00</time></trkpt><trkpt lat="64.14566803" lon="-21.87516594"><ele>9.2</ele><time>2012-07-28T21:38:14.0000000+00:00</time></trkpt><trkpt lat="64.14566803" lon="-21.87516594"><ele>9.2</ele><time>2012-07-28T21:38:19.0000000+00:00</time></trkpt><trkpt lat="64.14566803" lon="-21.87516403"><ele>9.2</ele><time>2012-07-28T21:38:24.0000000+00:00</time></trkpt><trkpt lat="64.14566803" lon="-21.87516403"><ele>9.2</ele><time>2012-07-28T21:38:29.0000000+00:00</time></trkpt><trkpt lat="64.14566803" lon="-21.87516403"><ele>9.2</ele><time>2012-07-28T21:38:34.0000000+00:00</time></trkpt><trkpt lat="64.14566803" lon="-21.87516403"><ele>9.2</ele><time>2012-07-28T21:38:39.0000000+00:00</time></trkpt><trkpt lat="64.14566803" lon="-21.87516403"><ele>9.3</ele><time>2012-07-28T21:38:44.0000000+00:00</time></trkpt><trkpt lat="64.14566803" lon="-21.87516403"><ele>9.3</ele><time>2012-07-28T21:38:49.0000000+00:00</time></trkpt><trkpt lat="64.14566803" lon="-21.87516594"><ele>9.4</ele><time>2012-07-28T21:38:54.0000000+00:00</time></trkpt><trkpt lat="64.14566803" lon="-21.87516594"><ele>9.4</ele><time>2012-07-28T21:38:59.0000000+00:00</time></trkpt><trkpt lat="64.14566803" lon="-21.87516594"><ele>9.4</ele><time>2012-07-28T21:39:04.0000000+00:00</time></trkpt><trkpt lat="64.14566803" lon="-21.87516594"><ele>9.4</ele><time>2012-07-28T21:39:09.0000000+00:00</time></trkpt><trkpt lat="64.14566803" lon="-21.87516785"><ele>9.4</ele><time>2012-07-28T21:39:14.0000000+00:00</time></trkpt><trkpt lat="64.14566803" lon="-21.87516785"><ele>9.5</ele><time>2012-07-28T21:39:19.0000000+00:00</time></trkpt><trkpt lat="64.14566803" lon="-21.87516785"><ele>9.5</ele><time>2012-07-28T21:39:24.0000000+00:00</time></trkpt><trkpt lat="64.14566803" lon="-21.87516785"><ele>9.5</ele><time>2012-07-28T21:39:29.0000000+00:00</time></trkpt><trkpt lat="64.14566803" lon="-21.87516785"><ele>9.5</ele><time>2012-07-28T21:39:34.0000000+00:00</time></trkpt><trkpt lat="64.14566803" lon="-21.87516785"><ele>9.5</ele><time>2012-07-28T21:39:39.0000000+00:00</time></trkpt><trkpt lat="64.14566803" lon="-21.87516975"><ele>9.5</ele><time>2012-07-28T21:39:44.0000000+00:00</time></trkpt><trkpt lat="64.14566803" lon="-21.87516975"><ele>9.6</ele><time>2012-07-28T21:39:49.0000000+00:00</time></trkpt><trkpt lat="64.14566803" lon="-21.87516975"><ele>9.6</ele><time>2012-07-28T21:39:54.0000000+00:00</time></trkpt><trkpt lat="64.14566803" lon="-21.87516975"><ele>9.6</ele><time>2012-07-28T21:39:59.0000000+00:00</time></trkpt><trkpt lat="64.14566803" lon="-21.87516975"><ele>9.5</ele><time>2012-07-28T21:40:04.0000000+00:00</time></trkpt><trkpt lat="64.14566803" lon="-21.87516975"><ele>9.6</ele><time>2012-07-28T21:40:09.0000000+00:00</time></trkpt><trkpt lat="64.14566803" lon="-21.87517166"><ele>9.6</ele><time>2012-07-28T21:40:14.0000000+00:00</time></trkpt><trkpt lat="64.14566803" lon="-21.87517166"><ele>9.6</ele><time>2012-07-28T21:40:19.0000000+00:00</time></trkpt><trkpt lat="64.14566803" lon="-21.87517166"><ele>9.6</ele><time>2012-07-28T21:40:24.0000000+00:00</time></trkpt><trkpt lat="64.14566803" lon="-21.87517166"><ele>9.6</ele><time>2012-07-28T21:40:29.0000000+00:00</time></trkpt><trkpt lat="64.14566803" lon="-21.87517166"><ele>9.6</ele><time>2012-07-28T21:40:34.0000000+00:00</time></trkpt><trkpt lat="64.14566803" lon="-21.87516975"><ele>9.6</ele><time>2012-07-28T21:40:39.0000000+00:00</time></trkpt><trkpt lat="64.14566803" lon="-21.87516975"><ele>9.6</ele><time>2012-07-28T21:40:44.0000000+00:00</time></trkpt><trkpt lat="64.14566803" lon="-21.87516975"><ele>9.6</ele><time>2012-07-28T21:40:49.0000000+00:00</time></trkpt><trkpt lat="64.14566803" lon="-21.87516975"><ele>9.6</ele><time>2012-07-28T21:40:54.0000000+00:00</time></trkpt><trkpt lat="64.14566803" lon="-21.87516975"><ele>9.6</ele><time>2012-07-28T21:40:59.0000000+00:00</time></trkpt><trkpt lat="64.14566803" lon="-21.87516975"><ele>9.7</ele><time>2012-07-28T21:41:04.0000000+00:00</time></trkpt><trkpt lat="64.14566803" lon="-21.87516975"><ele>9.7</ele><time>2012-07-28T21:41:09.0000000+00:00</time></trkpt><trkpt lat="64.14566803" lon="-21.87516975"><ele>9.7</ele><time>2012-07-28T21:41:14.0000000+00:00</time></trkpt><trkpt lat="64.14566803" lon="-21.87516975"><ele>9.7</ele><time>2012-07-28T21:41:19.0000000+00:00</time></trkpt><trkpt lat="64.14566803" lon="-21.87516975"><ele>9.7</ele><time>2012-07-28T21:41:24.0000000+00:00</time></trkpt><trkpt lat="64.14566803" lon="-21.87516975"><ele>9.7</ele><time>2012-07-28T21:41:29.0000000+00:00</time></trkpt><trkpt lat="64.14566803" lon="-21.87516975"><ele>9.7</ele><time>2012-07-28T21:41:34.0000000+00:00</time></trkpt><trkpt lat="64.14566803" lon="-21.87516975"><ele>9.7</ele><time>2012-07-28T21:41:39.0000000+00:00</time></trkpt><trkpt lat="64.14566803" lon="-21.87516975"><ele>9.8</ele><time>2012-07-28T21:41:44.0000000+00:00</time></trkpt><trkpt lat="64.14566803" lon="-21.87516975"><ele>9.8</ele><time>2012-07-28T21:41:49.0000000+00:00</time></trkpt><trkpt lat="64.14566803" lon="-21.87516975"><ele>9.8</ele><time>2012-07-28T21:41:54.0000000+00:00</time></trkpt><trkpt lat="64.14566803" lon="-21.87516975"><ele>9.9</ele><time>2012-07-28T21:41:59.0000000+00:00</time></trkpt><trkpt lat="64.14566803" lon="-21.87516975"><ele>9.9</ele><time>2012-07-28T21:42:04.0000000+00:00</time></trkpt><trkpt lat="64.14566803" lon="-21.87516975"><ele>10.0</ele><time>2012-07-28T21:42:09.0000000+00:00</time></trkpt><trkpt lat="64.14566803" lon="-21.87516975"><ele>10.0</ele><time>2012-07-28T21:42:14.0000000+00:00</time></trkpt><trkpt lat="64.14566803" lon="-21.87517166"><ele>10.0</ele><time>2012-07-28T21:42:19.0000000+00:00</time></trkpt><trkpt lat="64.14566803" lon="-21.87516975"><ele>10.0</ele><time>2012-07-28T21:42:24.0000000+00:00</time></trkpt><trkpt lat="64.14566803" lon="-21.87516975"><ele>10.0</ele><time>2012-07-28T21:42:29.0000000+00:00</time></trkpt><trkpt lat="64.14566803" lon="-21.87516975"><ele>10.0</ele><time>2012-07-28T21:42:34.0000000+00:00</time></trkpt><trkpt lat="64.14589691" lon="-21.87529182"><ele>3.8</ele><time>2012-07-28T22:35:28.0000000+00:00</time></trkpt><trkpt lat="64.14594269" lon="-21.87534523"><ele>2.8</ele><time>2012-07-28T22:35:33.0000000+00:00</time></trkpt><trkpt lat="64.14592743" lon="-21.87537575"><ele>1.1</ele><time>2012-07-28T22:35:38.0000000+00:00</time></trkpt><trkpt lat="64.14594269" lon="-21.8754158"><ele>8.5</ele><time>2012-07-28T22:35:43.0000000+00:00</time></trkpt><trkpt lat="64.1460495" lon="-21.87546349"><ele>14.9</ele><time>2012-07-28T22:35:49.0000000+00:00</time></trkpt><trkpt lat="64.14614105" lon="-21.87557983"><ele>13.3</ele><time>2012-07-28T22:35:54.0000000+00:00</time></trkpt><trkpt lat="64.14625549" lon="-21.87562561"><ele>13.2</ele><time>2012-07-28T22:35:59.0000000+00:00</time></trkpt><trkpt lat="64.14637756" lon="-21.87569428"><ele>13.0</ele><time>2012-07-28T22:36:04.0000000+00:00</time></trkpt><trkpt lat="64.14644623" lon="-21.87589073"><ele>12.3</ele><time>2012-07-28T22:36:09.0000000+00:00</time></trkpt><trkpt lat="64.14651489" lon="-21.87597847"><ele>11.1</ele><time>2012-07-28T22:36:14.0000000+00:00</time></trkpt><trkpt lat="64.1466217" lon="-21.87601471"><ele>9.3</ele><time>2012-07-28T22:36:19.0000000+00:00</time></trkpt><trkpt lat="64.14668274" lon="-21.87598419"><ele>9.8</ele><time>2012-07-28T22:36:24.0000000+00:00</time></trkpt><trkpt lat="64.14669037" lon="-21.87597466"><ele>10.0</ele><time>2012-07-28T22:36:29.0000000+00:00</time></trkpt><trkpt lat="64.14669037" lon="-21.87597466"><ele>10.0</ele><time>2012-07-28T22:36:34.0000000+00:00</time></trkpt><trkpt lat="64.146698" lon="-21.87597466"><ele>10.0</ele><time>2012-07-28T22:36:39.0000000+00:00</time></trkpt><trkpt lat="64.14674377" lon="-21.87596321"><ele>10.2</ele><time>2012-07-28T22:36:44.0000000+00:00</time></trkpt><trkpt lat="64.14676666" lon="-21.87619019"><ele>10.2</ele><time>2012-07-28T22:36:49.0000000+00:00</time></trkpt><trkpt lat="64.14677429" lon="-21.87649536"><ele>9.4</ele><time>2012-07-28T22:36:54.0000000+00:00</time></trkpt><trkpt lat="64.14676666" lon="-21.87678528"><ele>9.2</ele><time>2012-07-28T22:36:59.0000000+00:00</time></trkpt><trkpt lat="64.14677429" lon="-21.87712288"><ele>8.4</ele><time>2012-07-28T22:37:04.0000000+00:00</time></trkpt><trkpt lat="64.14677429" lon="-21.87748146"><ele>8.3</ele><time>2012-07-28T22:37:09.0000000+00:00</time></trkpt><trkpt lat="64.14676666" lon="-21.8778286"><ele>8.1</ele><time>2012-07-28T22:37:14.0000000+00:00</time></trkpt><trkpt lat="64.14676666" lon="-21.87817001"><ele>7.8</ele><time>2012-07-28T22:37:19.0000000+00:00</time></trkpt><trkpt lat="64.14675903" lon="-21.87849426"><ele>8.0</ele><time>2012-07-28T22:37:24.0000000+00:00</time></trkpt><trkpt lat="64.1467514" lon="-21.87883568"><ele>7.3</ele><time>2012-07-28T22:37:29.0000000+00:00</time></trkpt><trkpt lat="64.14674377" lon="-21.87916184"><ele>6.9</ele><time>2012-07-28T22:37:34.0000000+00:00</time></trkpt><trkpt lat="64.14675903" lon="-21.87949562"><ele>6.7</ele><time>2012-07-28T22:37:39.0000000+00:00</time></trkpt><trkpt lat="64.14677429" lon="-21.87980461"><ele>6.5</ele><time>2012-07-28T22:37:44.0000000+00:00</time></trkpt><trkpt lat="64.14676666" lon="-21.88018799"><ele>5.9</ele><time>2012-07-28T22:37:49.0000000+00:00</time></trkpt><trkpt lat="64.14678192" lon="-21.88063622"><ele>5.3</ele><time>2012-07-28T22:37:54.0000000+00:00</time></trkpt><trkpt lat="64.14678192" lon="-21.88112068"><ele>5.4</ele><time>2012-07-28T22:37:59.0000000+00:00</time></trkpt><trkpt lat="64.14675903" lon="-21.88152313"><ele>5.4</ele><time>2012-07-28T22:38:04.0000000+00:00</time></trkpt><trkpt lat="64.1467514" lon="-21.88187027"><ele>6.4</ele><time>2012-07-28T22:38:09.0000000+00:00</time></trkpt><trkpt lat="64.14673615" lon="-21.88223839"><ele>6.1</ele><time>2012-07-28T22:38:14.0000000+00:00</time></trkpt><trkpt lat="64.14672852" lon="-21.88264656"><ele>6.9</ele><time>2012-07-28T22:38:19.0000000+00:00</time></trkpt><trkpt lat="64.14670563" lon="-21.88308907"><ele>6.4</ele><time>2012-07-28T22:38:24.0000000+00:00</time></trkpt><trkpt lat="64.14668274" lon="-21.88346291"><ele>7.3</ele><time>2012-07-28T22:38:29.0000000+00:00</time></trkpt><trkpt lat="64.14668274" lon="-21.88382721"><ele>7.5</ele><time>2012-07-28T22:38:34.0000000+00:00</time></trkpt><trkpt lat="64.14667511" lon="-21.88419342"><ele>8.7</ele><time>2012-07-28T22:38:39.0000000+00:00</time></trkpt><trkpt lat="64.14665985" lon="-21.88463783"><ele>8.9</ele><time>2012-07-28T22:38:44.0000000+00:00</time></trkpt><trkpt lat="64.14665985" lon="-21.88502693"><ele>9.0</ele><time>2012-07-28T22:38:49.0000000+00:00</time></trkpt><trkpt lat="64.14665222" lon="-21.88547325"><ele>9.8</ele><time>2012-07-28T22:38:54.0000000+00:00</time></trkpt><trkpt lat="64.14664459" lon="-21.88592339"><ele>10.0</ele><time>2012-07-28T22:38:59.0000000+00:00</time></trkpt><trkpt lat="64.14664459" lon="-21.88632202"><ele>9.7</ele><time>2012-07-28T22:39:04.0000000+00:00</time></trkpt><trkpt lat="64.14663696" lon="-21.88684464"><ele>10.0</ele><time>2012-07-28T22:39:09.0000000+00:00</time></trkpt><trkpt lat="64.14663696" lon="-21.8873806"><ele>10.0</ele><time>2012-07-28T22:39:14.0000000+00:00</time></trkpt><trkpt lat="64.1466217" lon="-21.88793755"><ele>9.9</ele><time>2012-07-28T22:39:19.0000000+00:00</time></trkpt><trkpt lat="64.14661408" lon="-21.88845444"><ele>8.9</ele><time>2012-07-28T22:39:24.0000000+00:00</time></trkpt><trkpt lat="64.14660645" lon="-21.88896942"><ele>8.9</ele><time>2012-07-28T22:39:29.0000000+00:00</time></trkpt><trkpt lat="64.14658356" lon="-21.88949966"><ele>8.5</ele><time>2012-07-28T22:39:34.0000000+00:00</time></trkpt><trkpt lat="64.14654541" lon="-21.89002228"><ele>8.3</ele><time>2012-07-28T22:39:39.0000000+00:00</time></trkpt><trkpt lat="64.14653015" lon="-21.89064789"><ele>6.7</ele><time>2012-07-28T22:39:44.0000000+00:00</time></trkpt><trkpt lat="64.14650726" lon="-21.89130783"><ele>5.8</ele><time>2012-07-28T22:39:49.0000000+00:00</time></trkpt><trkpt lat="64.14646149" lon="-21.8918705"><ele>5.0</ele><time>2012-07-28T22:39:54.0000000+00:00</time></trkpt><trkpt lat="64.14644623" lon="-21.89222908"><ele>4.6</ele><time>2012-07-28T22:39:59.0000000+00:00</time></trkpt><trkpt lat="64.14644623" lon="-21.89235878"><ele>5.1</ele><time>2012-07-28T22:40:04.0000000+00:00</time></trkpt><trkpt lat="64.14644623" lon="-21.89236069"><ele>5.9</ele><time>2012-07-28T22:40:09.0000000+00:00</time></trkpt><trkpt lat="64.14644623" lon="-21.89236069"><ele>6.0</ele><time>2012-07-28T22:40:14.0000000+00:00</time></trkpt><trkpt lat="64.14644623" lon="-21.89235306"><ele>6.0</ele><time>2012-07-28T22:40:19.0000000+00:00</time></trkpt><trkpt lat="64.1464386" lon="-21.8923378"><ele>6.1</ele><time>2012-07-28T22:40:24.0000000+00:00</time></trkpt><trkpt lat="64.14644623" lon="-21.89233398"><ele>6.1</ele><time>2012-07-28T22:40:29.0000000+00:00</time></trkpt><trkpt lat="64.1464386" lon="-21.89233589"><ele>6.1</ele><time>2012-07-28T22:40:34.0000000+00:00</time></trkpt><trkpt lat="64.1464386" lon="-21.89233398"><ele>6.0</ele><time>2012-07-28T22:40:39.0000000+00:00</time></trkpt><trkpt lat="64.1464386" lon="-21.89234543"><ele>5.9</ele><time>2012-07-28T22:40:44.0000000+00:00</time></trkpt><trkpt lat="64.1464386" lon="-21.89234161"><ele>5.9</ele><time>2012-07-28T22:40:49.0000000+00:00</time></trkpt><trkpt lat="64.14643097" lon="-21.89235497"><ele>5.8</ele><time>2012-07-28T22:40:54.0000000+00:00</time></trkpt><trkpt lat="64.14643097" lon="-21.89235497"><ele>5.7</ele><time>2012-07-28T22:40:59.0000000+00:00</time></trkpt><trkpt lat="64.14643097" lon="-21.89235497"><ele>5.7</ele><time>2012-07-28T22:41:04.0000000+00:00</time></trkpt><trkpt lat="64.14643097" lon="-21.89235497"><ele>5.7</ele><time>2012-07-28T22:41:09.0000000+00:00</time></trkpt><trkpt lat="64.14643097" lon="-21.89234734"><ele>5.8</ele><time>2012-07-28T22:41:14.0000000+00:00</time></trkpt><trkpt lat="64.1464386" lon="-21.89234161"><ele>5.7</ele><time>2012-07-28T22:41:19.0000000+00:00</time></trkpt><trkpt lat="64.1464386" lon="-21.89234161"><ele>5.7</ele><time>2012-07-28T22:41:24.0000000+00:00</time></trkpt><trkpt lat="64.1464386" lon="-21.89234161"><ele>5.7</ele><time>2012-07-28T22:41:29.0000000+00:00</time></trkpt><trkpt lat="64.1464386" lon="-21.89234161"><ele>5.7</ele><time>2012-07-28T22:41:34.0000000+00:00</time></trkpt><trkpt lat="64.14643097" lon="-21.89233971"><ele>5.7</ele><time>2012-07-28T22:41:39.0000000+00:00</time></trkpt><trkpt lat="64.1464386" lon="-21.89234161"><ele>5.7</ele><time>2012-07-28T22:41:44.0000000+00:00</time></trkpt><trkpt lat="64.14644623" lon="-21.89248657"><ele>6.0</ele><time>2012-07-28T22:41:49.0000000+00:00</time></trkpt><trkpt lat="64.14647675" lon="-21.89262962"><ele>7.3</ele><time>2012-07-28T22:41:54.0000000+00:00</time></trkpt><trkpt lat="64.146492" lon="-21.89267349"><ele>7.9</ele><time>2012-07-28T22:41:59.0000000+00:00</time></trkpt><trkpt lat="64.14647675" lon="-21.89272499"><ele>7.9</ele><time>2012-07-28T22:42:04.0000000+00:00</time></trkpt><trkpt lat="64.14647675" lon="-21.89279175"><ele>9.3</ele><time>2012-07-28T22:42:09.0000000+00:00</time></trkpt><trkpt lat="64.14642334" lon="-21.89315605"><ele>9.1</ele><time>2012-07-28T22:42:14.0000000+00:00</time></trkpt><trkpt lat="64.14639282" lon="-21.89333725"><ele>9.7</ele><time>2012-07-28T22:42:19.0000000+00:00</time></trkpt><trkpt lat="64.14638519" lon="-21.89343453"><ele>10.8</ele><time>2012-07-28T22:42:24.0000000+00:00</time></trkpt><trkpt lat="64.14633942" lon="-21.89379692"><ele>11.4</ele><time>2012-07-28T22:42:29.0000000+00:00</time></trkpt><trkpt lat="64.14630127" lon="-21.8941555"><ele>13.6</ele><time>2012-07-28T22:42:34.0000000+00:00</time></trkpt><trkpt lat="64.14627838" lon="-21.89443207"><ele>15.8</ele><time>2012-07-28T22:42:39.0000000+00:00</time></trkpt><trkpt lat="64.14626312" lon="-21.89489937"><ele>17.5</ele><time>2012-07-28T22:42:44.0000000+00:00</time></trkpt><trkpt lat="64.14626312" lon="-21.89523125"><ele>15.8</ele><time>2012-07-28T22:42:49.0000000+00:00</time></trkpt><trkpt lat="64.14619446" lon="-21.89552307"><ele>17.0</ele><time>2012-07-28T22:42:54.0000000+00:00</time></trkpt><trkpt lat="64.14612579" lon="-21.89578819"><ele>15.4</ele><time>2012-07-28T22:42:59.0000000+00:00</time></trkpt><trkpt lat="64.14609528" lon="-21.89627457"><ele>22.5</ele><time>2012-07-28T22:43:04.0000000+00:00</time></trkpt><trkpt lat="64.14604187" lon="-21.8967247"><ele>23.1</ele><time>2012-07-28T22:43:09.0000000+00:00</time></trkpt><trkpt lat="64.14604187" lon="-21.89714432"><ele>19.0</ele><time>2012-07-28T22:43:14.0000000+00:00</time></trkpt><trkpt lat="64.14599609" lon="-21.89755058"><ele>14.9</ele><time>2012-07-28T22:43:19.0000000+00:00</time></trkpt><trkpt lat="64.14596558" lon="-21.89788818"><ele>13.8</ele><time>2012-07-28T22:43:24.0000000+00:00</time></trkpt><trkpt lat="64.14594269" lon="-21.8982563"><ele>14.5</ele><time>2012-07-28T22:43:29.0000000+00:00</time></trkpt><trkpt lat="64.14594269" lon="-21.89860344"><ele>10.5</ele><time>2012-07-28T22:43:34.0000000+00:00</time></trkpt><trkpt lat="64.14589691" lon="-21.89893723"><ele>11.0</ele><time>2012-07-28T22:43:39.0000000+00:00</time></trkpt><trkpt lat="64.14586639" lon="-21.89929009"><ele>9.4</ele><time>2012-07-28T22:43:44.0000000+00:00</time></trkpt><trkpt lat="64.14585114" lon="-21.89982605"><ele>17.7</ele><time>2012-07-28T22:43:49.0000000+00:00</time></trkpt><trkpt lat="64.14581299" lon="-21.90003204"><ele>13.3</ele><time>2012-07-28T22:43:54.0000000+00:00</time></trkpt><trkpt lat="64.14569855" lon="-21.90027428"><ele>7.5</ele><time>2012-07-28T22:43:59.0000000+00:00</time></trkpt><trkpt lat="64.14566803" lon="-21.90073395"><ele>15.2</ele><time>2012-07-28T22:44:04.0000000+00:00</time></trkpt><trkpt lat="64.14573669" lon="-21.90119362"><ele>17.7</ele><time>2012-07-28T22:44:09.0000000+00:00</time></trkpt><trkpt lat="64.14571381" lon="-21.90161705"><ele>17.1</ele><time>2012-07-28T22:44:14.0000000+00:00</time></trkpt><trkpt lat="64.14564514" lon="-21.90208435"><ele>16.7</ele><time>2012-07-28T22:44:19.0000000+00:00</time></trkpt><trkpt lat="64.14563751" lon="-21.90257072"><ele>14.7</ele><time>2012-07-28T22:44:24.0000000+00:00</time></trkpt><trkpt lat="64.14559174" lon="-21.90309143"><ele>13.1</ele><time>2012-07-28T22:44:29.0000000+00:00</time></trkpt><trkpt lat="64.14556122" lon="-21.90360642"><ele>15.7</ele><time>2012-07-28T22:44:34.0000000+00:00</time></trkpt><trkpt lat="64.14559937" lon="-21.90417099"><ele>16.0</ele><time>2012-07-28T22:44:39.0000000+00:00</time></trkpt><trkpt lat="64.14558411" lon="-21.90470505"><ele>15.1</ele><time>2012-07-28T22:44:44.0000000+00:00</time></trkpt><trkpt lat="64.14554596" lon="-21.90528488"><ele>12.7</ele><time>2012-07-28T22:44:49.0000000+00:00</time></trkpt><trkpt lat="64.14553833" lon="-21.90575218"><ele>15.4</ele><time>2012-07-28T22:44:54.0000000+00:00</time></trkpt><trkpt lat="64.14556122" lon="-21.9060936"><ele>16.4</ele><time>2012-07-28T22:44:59.0000000+00:00</time></trkpt><trkpt lat="64.14557648" lon="-21.90652275"><ele>17.2</ele><time>2012-07-28T22:45:04.0000000+00:00</time></trkpt><trkpt lat="64.1455307" lon="-21.90686989"><ele>17.7</ele><time>2012-07-28T22:45:09.0000000+00:00</time></trkpt><trkpt lat="64.14554596" lon="-21.90717697"><ele>19.9</ele><time>2012-07-28T22:45:14.0000000+00:00</time></trkpt><trkpt lat="64.14549255" lon="-21.90750122"><ele>20.6</ele><time>2012-07-28T22:45:19.0000000+00:00</time></trkpt><trkpt lat="64.14549255" lon="-21.90795898"><ele>21.5</ele><time>2012-07-28T22:45:24.0000000+00:00</time></trkpt><trkpt lat="64.14546967" lon="-21.90856552"><ele>19.5</ele><time>2012-07-28T22:45:29.0000000+00:00</time></trkpt><trkpt lat="64.14543915" lon="-21.90921021"><ele>21.6</ele><time>2012-07-28T22:45:34.0000000+00:00</time></trkpt><trkpt lat="64.14540863" lon="-21.90962601"><ele>23.1</ele><time>2012-07-28T22:45:39.0000000+00:00</time></trkpt><trkpt lat="64.14540863" lon="-21.90994835"><ele>25.5</ele><time>2012-07-28T22:45:44.0000000+00:00</time></trkpt><trkpt lat="64.14537811" lon="-21.91025543"><ele>27.8</ele><time>2012-07-28T22:45:49.0000000+00:00</time></trkpt><trkpt lat="64.14530182" lon="-21.91081238"><ele>30.5</ele><time>2012-07-28T22:45:54.0000000+00:00</time></trkpt><trkpt lat="64.14526367" lon="-21.91144562"><ele>32.9</ele><time>2012-07-28T22:45:59.0000000+00:00</time></trkpt><trkpt lat="64.14524078" lon="-21.91215706"><ele>35.8</ele><time>2012-07-28T22:46:04.0000000+00:00</time></trkpt><trkpt lat="64.14507294" lon="-21.91299439"><ele>40.1</ele><time>2012-07-28T22:46:09.0000000+00:00</time></trkpt><trkpt lat="64.1450119" lon="-21.91356468"><ele>48.3</ele><time>2012-07-28T22:46:14.0000000+00:00</time></trkpt><trkpt lat="64.14490509" lon="-21.91380692"><ele>52.4</ele><time>2012-07-28T22:46:19.0000000+00:00</time></trkpt><trkpt lat="64.14476776" lon="-21.9138298"><ele>55.1</ele><time>2012-07-28T22:46:24.0000000+00:00</time></trkpt><trkpt lat="64.14476776" lon="-21.91382408"><ele>57.4</ele><time>2012-07-28T22:46:29.0000000+00:00</time></trkpt><trkpt lat="64.14479828" lon="-21.91379547"><ele>58.6</ele><time>2012-07-28T22:46:34.0000000+00:00</time></trkpt><trkpt lat="64.14481354" lon="-21.91377068"><ele>63.8</ele><time>2012-07-28T22:46:39.0000000+00:00</time></trkpt><trkpt lat="64.14496613" lon="-21.91383553"><ele>72.8</ele><time>2012-07-28T22:46:44.0000000+00:00</time></trkpt><trkpt lat="64.14513397" lon="-21.91376305"><ele>80.9</ele><time>2012-07-28T22:46:49.0000000+00:00</time></trkpt><trkpt lat="64.14549255" lon="-21.91399384"><ele>102.8</ele><time>2012-07-28T22:46:54.0000000+00:00</time></trkpt><trkpt lat="64.14558411" lon="-21.91397095"><ele>101.6</ele><time>2012-07-28T22:46:59.0000000+00:00</time></trkpt><trkpt lat="64.14559937" lon="-21.91401863"><ele>100.9</ele><time>2012-07-28T22:47:04.0000000+00:00</time></trkpt><trkpt lat="64.14562988" lon="-21.91405296"><ele>101.1</ele><time>2012-07-28T22:47:09.0000000+00:00</time></trkpt><trkpt lat="64.14577484" lon="-21.91432953"><ele>95.3</ele><time>2012-07-28T22:47:14.0000000+00:00</time></trkpt><trkpt lat="64.14587402" lon="-21.91480255"><ele>87.8</ele><time>2012-07-28T22:47:19.0000000+00:00</time></trkpt><trkpt lat="64.14591217" lon="-21.91524696"><ele>81.6</ele><time>2012-07-28T22:47:24.0000000+00:00</time></trkpt><trkpt lat="64.14590454" lon="-21.91567612"><ele>70.9</ele><time>2012-07-28T22:47:29.0000000+00:00</time></trkpt><trkpt lat="64.14594269" lon="-21.91625023"><ele>62.7</ele><time>2012-07-28T22:47:34.0000000+00:00</time></trkpt><trkpt lat="64.14598084" lon="-21.91674805"><ele>57.2</ele><time>2012-07-28T22:47:39.0000000+00:00</time></trkpt><trkpt lat="64.14603424" lon="-21.91733933"><ele>50.7</ele><time>2012-07-28T22:47:44.0000000+00:00</time></trkpt><trkpt lat="64.14612579" lon="-21.91791344"><ele>42.0</ele><time>2012-07-28T22:47:49.0000000+00:00</time></trkpt><trkpt lat="64.14620972" lon="-21.91844559"><ele>35.8</ele><time>2012-07-28T22:47:54.0000000+00:00</time></trkpt><trkpt lat="64.1463089" lon="-21.91894722"><ele>32.6</ele><time>2012-07-28T22:47:59.0000000+00:00</time></trkpt><trkpt lat="64.14643097" lon="-21.91950989"><ele>28.8</ele><time>2012-07-28T22:48:04.0000000+00:00</time></trkpt><trkpt lat="64.1465683" lon="-21.91999245"><ele>25.7</ele><time>2012-07-28T22:48:09.0000000+00:00</time></trkpt><trkpt lat="64.146698" lon="-21.92040253"><ele>25.0</ele><time>2012-07-28T22:48:14.0000000+00:00</time></trkpt><trkpt lat="64.14672852" lon="-21.92066383"><ele>22.6</ele><time>2012-07-28T22:48:19.0000000+00:00</time></trkpt><trkpt lat="64.14673615" lon="-21.92078781"><ele>21.5</ele><time>2012-07-28T22:48:24.0000000+00:00</time></trkpt><trkpt lat="64.14674377" lon="-21.92097855"><ele>21.4</ele><time>2012-07-28T22:48:29.0000000+00:00</time></trkpt><trkpt lat="64.14669037" lon="-21.92106438"><ele>20.9</ele><time>2012-07-28T22:48:34.0000000+00:00</time></trkpt><trkpt lat="64.14669037" lon="-21.92107391"><ele>20.3</ele><time>2012-07-28T22:48:39.0000000+00:00</time></trkpt><trkpt lat="64.14669037" lon="-21.92107391"><ele>20.2</ele><time>2012-07-28T22:48:44.0000000+00:00</time></trkpt><trkpt lat="64.14669037" lon="-21.92107201"><ele>20.3</ele><time>2012-07-28T22:48:49.0000000+00:00</time></trkpt><trkpt lat="64.14669037" lon="-21.92107201"><ele>20.4</ele><time>2012-07-28T22:48:54.0000000+00:00</time></trkpt><trkpt lat="64.14669037" lon="-21.92107201"><ele>20.3</ele><time>2012-07-28T22:48:59.0000000+00:00</time></trkpt><trkpt lat="64.14669037" lon="-21.92107201"><ele>20.2</ele><time>2012-07-28T22:49:04.0000000+00:00</time></trkpt><trkpt lat="64.14669037" lon="-21.92107201"><ele>20.1</ele><time>2012-07-28T22:49:09.0000000+00:00</time></trkpt><trkpt lat="64.14669037" lon="-21.92107201"><ele>20.1</ele><time>2012-07-28T22:49:14.0000000+00:00</time></trkpt><trkpt lat="64.14669037" lon="-21.9210701"><ele>20.1</ele><time>2012-07-28T22:49:19.0000000+00:00</time></trkpt><trkpt lat="64.146698" lon="-21.92125511"><ele>21.1</ele><time>2012-07-28T22:49:24.0000000+00:00</time></trkpt><trkpt lat="64.14665222" lon="-21.92161751"><ele>20.3</ele><time>2012-07-28T22:49:29.0000000+00:00</time></trkpt><trkpt lat="64.1465683" lon="-21.92201805"><ele>18.6</ele><time>2012-07-28T22:49:34.0000000+00:00</time></trkpt><trkpt lat="64.14665985" lon="-21.92240715"><ele>18.0</ele><time>2012-07-28T22:49:39.0000000+00:00</time></trkpt><trkpt lat="64.14672852" lon="-21.92269135"><ele>17.0</ele><time>2012-07-28T22:49:44.0000000+00:00</time></trkpt><trkpt lat="64.14679718" lon="-21.92290306"><ele>17.0</ele><time>2012-07-28T22:49:49.0000000+00:00</time></trkpt><trkpt lat="64.146698" lon="-21.92301178"><ele>17.7</ele><time>2012-07-28T22:49:54.0000000+00:00</time></trkpt><trkpt lat="64.14650726" lon="-21.92328644"><ele>24.1</ele><time>2012-07-28T22:49:59.0000000+00:00</time></trkpt><trkpt lat="64.14640808" lon="-21.92344666"><ele>27.5</ele><time>2012-07-28T22:50:04.0000000+00:00</time></trkpt><trkpt lat="64.14630127" lon="-21.92344666"><ele>28.6</ele><time>2012-07-28T22:50:09.0000000+00:00</time></trkpt><trkpt lat="64.14628601" lon="-21.92338562"><ele>33.7</ele><time>2012-07-28T22:50:14.0000000+00:00</time></trkpt><trkpt lat="64.14623261" lon="-21.92331314"><ele>35.8</ele><time>2012-07-28T22:50:19.0000000+00:00</time></trkpt><trkpt lat="64.14621735" lon="-21.92319489"><ele>40.1</ele><time>2012-07-28T22:50:24.0000000+00:00</time></trkpt><trkpt lat="64.14608002" lon="-21.92328453"><ele>44.8</ele><time>2012-07-28T22:50:29.0000000+00:00</time></trkpt><trkpt lat="64.14600372" lon="-21.92338181"><ele>50.0</ele><time>2012-07-28T22:50:34.0000000+00:00</time></trkpt><trkpt lat="64.14595795" lon="-21.92369652"><ele>48.0</ele><time>2012-07-28T22:50:39.0000000+00:00</time></trkpt><trkpt lat="64.1459198" lon="-21.92378426"><ele>48.1</ele><time>2012-07-28T22:50:44.0000000+00:00</time></trkpt><trkpt lat="64.14588928" lon="-21.92374802"><ele>48.5</ele><time>2012-07-28T22:50:49.0000000+00:00</time></trkpt><trkpt lat="64.14588928" lon="-21.92374992"><ele>48.7</ele><time>2012-07-28T22:50:54.0000000+00:00</time></trkpt><trkpt lat="64.14588165" lon="-21.92375565"><ele>48.8</ele><time>2012-07-28T22:50:59.0000000+00:00</time></trkpt><trkpt lat="64.14584351" lon="-21.92378235"><ele>47.4</ele><time>2012-07-28T22:51:04.0000000+00:00</time></trkpt><trkpt lat="64.14575195" lon="-21.92381287"><ele>44.1</ele><time>2012-07-28T22:51:09.0000000+00:00</time></trkpt><trkpt lat="64.14570618" lon="-21.9238472"><ele>44.2</ele><time>2012-07-28T22:51:14.0000000+00:00</time></trkpt><trkpt lat="64.14571381" lon="-21.9239006"><ele>44.6</ele><time>2012-07-28T22:51:19.0000000+00:00</time></trkpt><trkpt lat="64.14571381" lon="-21.92391205"><ele>44.7</ele><time>2012-07-28T22:51:24.0000000+00:00</time></trkpt><trkpt lat="64.14571381" lon="-21.92391777"><ele>44.8</ele><time>2012-07-28T22:51:29.0000000+00:00</time></trkpt><trkpt lat="64.14570618" lon="-21.92390442"><ele>44.8</ele><time>2012-07-28T22:51:34.0000000+00:00</time></trkpt><trkpt lat="64.14572144" lon="-21.92403793"><ele>45.0</ele><time>2012-07-28T22:51:39.0000000+00:00</time></trkpt><trkpt lat="64.14572144" lon="-21.92404366"><ele>45.1</ele><time>2012-07-28T22:51:44.0000000+00:00</time></trkpt><trkpt lat="64.14571381" lon="-21.92405701"><ele>45.1</ele><time>2012-07-28T22:51:49.0000000+00:00</time></trkpt><trkpt lat="64.14569092" lon="-21.92409134"><ele>44.6</ele><time>2012-07-28T22:51:54.0000000+00:00</time></trkpt><trkpt lat="64.1456604" lon="-21.92416763"><ele>44.5</ele><time>2012-07-28T22:51:59.0000000+00:00</time></trkpt><trkpt lat="64.14565277" lon="-21.9242096"><ele>43.8</ele><time>2012-07-28T22:52:04.0000000+00:00</time></trkpt><trkpt lat="64.14565277" lon="-21.92423058"><ele>42.7</ele><time>2012-07-28T22:52:09.0000000+00:00</time></trkpt><trkpt lat="64.14564514" lon="-21.92423439"><ele>42.2</ele><time>2012-07-28T22:52:14.0000000+00:00</time></trkpt><trkpt lat="64.14564514" lon="-21.92424011"><ele>41.6</ele><time>2012-07-28T22:52:19.0000000+00:00</time></trkpt><trkpt lat="64.14563751" lon="-21.92424774"><ele>41.0</ele><time>2012-07-28T22:52:24.0000000+00:00</time></trkpt><trkpt lat="64.14563751" lon="-21.92425728"><ele>40.2</ele><time>2012-07-28T22:52:29.0000000+00:00</time></trkpt><trkpt lat="64.14562988" lon="-21.92426872"><ele>39.2</ele><time>2012-07-28T22:52:34.0000000+00:00</time></trkpt><trkpt lat="64.14562225" lon="-21.92427635"><ele>38.0</ele><time>2012-07-28T22:52:39.0000000+00:00</time></trkpt><trkpt lat="64.145607" lon="-21.92428017"><ele>36.7</ele><time>2012-07-28T22:52:44.0000000+00:00</time></trkpt><trkpt lat="64.14559937" lon="-21.92434502"><ele>36.0</ele><time>2012-07-28T22:52:49.0000000+00:00</time></trkpt><trkpt lat="64.14559937" lon="-21.92465019"><ele>36.6</ele><time>2012-07-28T22:52:54.0000000+00:00</time></trkpt><trkpt lat="64.14565277" lon="-21.92490006"><ele>41.2</ele><time>2012-07-28T22:52:59.0000000+00:00</time></trkpt><trkpt lat="64.14574432" lon="-21.92502213"><ele>52.0</ele><time>2012-07-28T22:53:04.0000000+00:00</time></trkpt><trkpt lat="64.14578247" lon="-21.9253273"><ele>57.0</ele><time>2012-07-28T22:53:09.0000000+00:00</time></trkpt><trkpt lat="64.14582825" lon="-21.92564392"><ele>61.4</ele><time>2012-07-28T22:53:14.0000000+00:00</time></trkpt><trkpt lat="64.14586639" lon="-21.92592049"><ele>66.0</ele><time>2012-07-28T22:53:19.0000000+00:00</time></trkpt><trkpt lat="64.1459198" lon="-21.92612839"><ele>72.3</ele><time>2012-07-28T22:53:24.0000000+00:00</time></trkpt><trkpt lat="64.14601135" lon="-21.92634773"><ele>77.4</ele><time>2012-07-28T22:53:29.0000000+00:00</time></trkpt><trkpt lat="64.14608765" lon="-21.92669296"><ele>81.9</ele><time>2012-07-28T22:53:34.0000000+00:00</time></trkpt><trkpt lat="64.14619446" lon="-21.92694664"><ele>87.9</ele><time>2012-07-28T22:53:39.0000000+00:00</time></trkpt><trkpt lat="64.14622498" lon="-21.92723656"><ele>94.9</ele><time>2012-07-28T22:53:44.0000000+00:00</time></trkpt><trkpt lat="64.14624023" lon="-21.92755508"><ele>101.9</ele><time>2012-07-28T22:53:49.0000000+00:00</time></trkpt><trkpt lat="64.14624786" lon="-21.92782402"><ele>104.3</ele><time>2012-07-28T22:53:54.0000000+00:00</time></trkpt><trkpt lat="64.14624786" lon="-21.9280014"><ele>101.0</ele><time>2012-07-28T22:53:59.0000000+00:00</time></trkpt><trkpt lat="64.14629364" lon="-21.92815018"><ele>101.3</ele><time>2012-07-28T22:54:04.0000000+00:00</time></trkpt><trkpt lat="64.14631653" lon="-21.92852593"><ele>96.0</ele><time>2012-07-28T22:54:09.0000000+00:00</time></trkpt><trkpt lat="64.14636231" lon="-21.92868614"><ele>94.4</ele><time>2012-07-28T22:54:14.0000000+00:00</time></trkpt><trkpt lat="64.14637756" lon="-21.92873192"><ele>96.3</ele><time>2012-07-28T22:54:19.0000000+00:00</time></trkpt><trkpt lat="64.14637756" lon="-21.9287262"><ele>97.3</ele><time>2012-07-28T22:54:24.0000000+00:00</time></trkpt><trkpt lat="64.14637756" lon="-21.92871857"><ele>97.7</ele><time>2012-07-28T22:54:29.0000000+00:00</time></trkpt><trkpt lat="64.14638519" lon="-21.92871285"><ele>97.8</ele><time>2012-07-28T22:54:34.0000000+00:00</time></trkpt><trkpt lat="64.14638519" lon="-21.92870903"><ele>97.8</ele><time>2012-07-28T22:54:39.0000000+00:00</time></trkpt><trkpt lat="64.14638519" lon="-21.92871094"><ele>97.6</ele><time>2012-07-28T22:54:44.0000000+00:00</time></trkpt><trkpt lat="64.14638519" lon="-21.92871666"><ele>97.5</ele><time>2012-07-28T22:54:49.0000000+00:00</time></trkpt><trkpt lat="64.14639282" lon="-21.92871857"><ele>97.2</ele><time>2012-07-28T22:54:54.0000000+00:00</time></trkpt><trkpt lat="64.14639282" lon="-21.92872238"><ele>97.1</ele><time>2012-07-28T22:54:59.0000000+00:00</time></trkpt><trkpt lat="64.14639282" lon="-21.92872238"><ele>96.7</ele><time>2012-07-28T22:55:04.0000000+00:00</time></trkpt><trkpt lat="64.14639282" lon="-21.9287281"><ele>95.8</ele><time>2012-07-28T22:55:09.0000000+00:00</time></trkpt><trkpt lat="64.14635468" lon="-21.92881012"><ele>94.0</ele><time>2012-07-28T22:55:14.0000000+00:00</time></trkpt><trkpt lat="64.14633179" lon="-21.92886734"><ele>89.9</ele><time>2012-07-28T22:55:19.0000000+00:00</time></trkpt><trkpt lat="64.14635468" lon="-21.92884445"><ele>88.1</ele><time>2012-07-28T22:55:24.0000000+00:00</time></trkpt><trkpt lat="64.14636231" lon="-21.92885017"><ele>88.0</ele><time>2012-07-28T22:55:29.0000000+00:00</time></trkpt><trkpt lat="64.14636231" lon="-21.92885208"><ele>87.9</ele><time>2012-07-28T22:55:34.0000000+00:00</time></trkpt><trkpt lat="64.14639282" lon="-21.92889786"><ele>88.0</ele><time>2012-07-28T22:55:39.0000000+00:00</time></trkpt><trkpt lat="64.14638519" lon="-21.92899895"><ele>87.3</ele><time>2012-07-28T22:55:44.0000000+00:00</time></trkpt><trkpt lat="64.14640045" lon="-21.92917824"><ele>86.5</ele><time>2012-07-28T22:55:49.0000000+00:00</time></trkpt><trkpt lat="64.14641571" lon="-21.92922211"><ele>87.9</ele><time>2012-07-28T22:55:54.0000000+00:00</time></trkpt><trkpt lat="64.14641571" lon="-21.9292202"><ele>89.2</ele><time>2012-07-28T22:55:59.0000000+00:00</time></trkpt><trkpt lat="64.14642334" lon="-21.92922401"><ele>90.4</ele><time>2012-07-28T22:56:04.0000000+00:00</time></trkpt><trkpt lat="64.14641571" lon="-21.92922974"><ele>91.6</ele><time>2012-07-28T22:56:09.0000000+00:00</time></trkpt><trkpt lat="64.14641571" lon="-21.92922783"><ele>92.1</ele><time>2012-07-28T22:56:14.0000000+00:00</time></trkpt><trkpt lat="64.14641571" lon="-21.92923355"><ele>92.3</ele><time>2012-07-28T22:56:19.0000000+00:00</time></trkpt><trkpt lat="64.14641571" lon="-21.92923737"><ele>92.5</ele><time>2012-07-28T22:56:24.0000000+00:00</time></trkpt><trkpt lat="64.14642334" lon="-21.92923737"><ele>92.7</ele><time>2012-07-28T22:56:29.0000000+00:00</time></trkpt><trkpt lat="64.14641571" lon="-21.929245"><ele>93.1</ele><time>2012-07-28T22:56:34.0000000+00:00</time></trkpt><trkpt lat="64.14640045" lon="-21.929245"><ele>93.2</ele><time>2012-07-28T22:56:39.0000000+00:00</time></trkpt><trkpt lat="64.14640808" lon="-21.929245"><ele>93.0</ele><time>2012-07-28T22:56:44.0000000+00:00</time></trkpt><trkpt lat="64.14640808" lon="-21.92924309"><ele>93.2</ele><time>2012-07-28T22:56:49.0000000+00:00</time></trkpt><trkpt lat="64.14641571" lon="-21.92926216"><ele>93.3</ele><time>2012-07-28T22:56:54.0000000+00:00</time></trkpt><trkpt lat="64.14641571" lon="-21.92932129"><ele>93.1</ele><time>2012-07-28T22:56:59.0000000+00:00</time></trkpt><trkpt lat="64.14641571" lon="-21.92938995"><ele>93.0</ele><time>2012-07-28T22:57:04.0000000+00:00</time></trkpt><trkpt lat="64.14640045" lon="-21.92951202"><ele>92.5</ele><time>2012-07-28T22:57:09.0000000+00:00</time></trkpt><trkpt lat="64.14644623" lon="-21.92965508"><ele>92.0</ele><time>2012-07-28T22:57:14.0000000+00:00</time></trkpt><trkpt lat="64.14646149" lon="-21.92974281"><ele>91.7</ele><time>2012-07-28T22:57:19.0000000+00:00</time></trkpt><trkpt lat="64.14646912" lon="-21.92980003"><ele>91.4</ele><time>2012-07-28T22:57:24.0000000+00:00</time></trkpt><trkpt lat="64.14646149" lon="-21.92972183"><ele>91.6</ele><time>2012-07-28T22:57:29.0000000+00:00</time></trkpt><trkpt lat="64.14640808" lon="-21.92975807"><ele>91.6</ele><time>2012-07-28T22:57:34.0000000+00:00</time></trkpt><trkpt lat="64.14640045" lon="-21.92974663"><ele>91.7</ele><time>2012-07-28T22:57:39.0000000+00:00</time></trkpt><trkpt lat="64.14639282" lon="-21.929739"><ele>91.7</ele><time>2012-07-28T22:57:44.0000000+00:00</time></trkpt><trkpt lat="64.14639282" lon="-21.92972183"><ele>92.0</ele><time>2012-07-28T22:57:49.0000000+00:00</time></trkpt><trkpt lat="64.14639282" lon="-21.92971039"><ele>92.2</ele><time>2012-07-28T22:57:54.0000000+00:00</time></trkpt><trkpt lat="64.14638519" lon="-21.92970848"><ele>92.4</ele><time>2012-07-28T22:57:59.0000000+00:00</time></trkpt><trkpt lat="64.14639282" lon="-21.9297123"><ele>92.7</ele><time>2012-07-28T22:58:04.0000000+00:00</time></trkpt><trkpt lat="64.14637756" lon="-21.92976761"><ele>93.8</ele><time>2012-07-28T22:58:09.0000000+00:00</time></trkpt><trkpt lat="64.14635468" lon="-21.92982483"><ele>94.5</ele><time>2012-07-28T22:58:14.0000000+00:00</time></trkpt><trkpt lat="64.14633179" lon="-21.92986679"><ele>96.0</ele><time>2012-07-28T22:58:19.0000000+00:00</time></trkpt><trkpt lat="64.14633942" lon="-21.92989349"><ele>95.1</ele><time>2012-07-28T22:58:24.0000000+00:00</time></trkpt><trkpt lat="64.14635468" lon="-21.9298687"><ele>94.9</ele><time>2012-07-28T22:58:29.0000000+00:00</time></trkpt><trkpt lat="64.14635468" lon="-21.92985153"><ele>95.3</ele><time>2012-07-28T22:58:34.0000000+00:00</time></trkpt><trkpt lat="64.14636231" lon="-21.92985725"><ele>96.1</ele><time>2012-07-28T22:58:39.0000000+00:00</time></trkpt><trkpt lat="64.14636993" lon="-21.92986488"><ele>96.8</ele><time>2012-07-28T22:58:44.0000000+00:00</time></trkpt><trkpt lat="64.14637756" lon="-21.92987061"><ele>97.3</ele><time>2012-07-28T22:58:49.0000000+00:00</time></trkpt><trkpt lat="64.14638519" lon="-21.92986298"><ele>97.8</ele><time>2012-07-28T22:58:54.0000000+00:00</time></trkpt><trkpt lat="64.14638519" lon="-21.92984963"><ele>98.1</ele><time>2012-07-28T22:58:59.0000000+00:00</time></trkpt><trkpt lat="64.14637756" lon="-21.929842"><ele>98.4</ele><time>2012-07-28T22:59:04.0000000+00:00</time></trkpt><trkpt lat="64.14638519" lon="-21.92984009"><ele>98.7</ele><time>2012-07-28T22:59:09.0000000+00:00</time></trkpt><trkpt lat="64.14639282" lon="-21.92983818"><ele>98.8</ele><time>2012-07-28T22:59:14.0000000+00:00</time></trkpt><trkpt lat="64.14640045" lon="-21.92983437"><ele>99.0</ele><time>2012-07-28T22:59:19.0000000+00:00</time></trkpt><trkpt lat="64.14640045" lon="-21.92983246"><ele>99.1</ele><time>2012-07-28T22:59:24.0000000+00:00</time></trkpt><trkpt lat="64.14641571" lon="-21.92981911"><ele>99.2</ele><time>2012-07-28T22:59:29.0000000+00:00</time></trkpt><trkpt lat="64.14641571" lon="-21.92979813"><ele>99.3</ele><time>2012-07-28T22:59:34.0000000+00:00</time></trkpt><trkpt lat="64.14642334" lon="-21.92977905"><ele>99.3</ele><time>2012-07-28T22:59:39.0000000+00:00</time></trkpt><trkpt lat="64.14642334" lon="-21.92976379"><ele>99.3</ele><time>2012-07-28T22:59:44.0000000+00:00</time></trkpt><trkpt lat="64.14642334" lon="-21.92974472"><ele>99.2</ele><time>2012-07-28T22:59:49.0000000+00:00</time></trkpt><trkpt lat="64.14642334" lon="-21.92974091"><ele>99.0</ele><time>2012-07-28T22:59:54.0000000+00:00</time></trkpt><trkpt lat="64.14641571" lon="-21.92974854"><ele>98.8</ele><time>2012-07-28T22:59:59.0000000+00:00</time></trkpt><trkpt lat="64.14640808" lon="-21.9297924"><ele>98.1</ele><time>2012-07-28T23:00:04.0000000+00:00</time></trkpt><trkpt lat="64.14643097" lon="-21.92980385"><ele>96.7</ele><time>2012-07-28T23:00:09.0000000+00:00</time></trkpt><trkpt lat="64.14642334" lon="-21.92977524"><ele>96.0</ele><time>2012-07-28T23:00:14.0000000+00:00</time></trkpt><trkpt lat="64.14640045" lon="-21.92974854"><ele>94.9</ele><time>2012-07-28T23:00:19.0000000+00:00</time></trkpt><trkpt lat="64.14636993" lon="-21.92972755"><ele>93.6</ele><time>2012-07-28T23:00:24.0000000+00:00</time></trkpt><trkpt lat="64.14633942" lon="-21.9297905"><ele>91.7</ele><time>2012-07-28T23:00:29.0000000+00:00</time></trkpt><trkpt lat="64.14629364" lon="-21.92978287"><ele>90.0</ele><time>2012-07-28T23:00:34.0000000+00:00</time></trkpt><trkpt lat="64.14628601" lon="-21.92976761"><ele>88.5</ele><time>2012-07-28T23:00:39.0000000+00:00</time></trkpt><trkpt lat="64.14627838" lon="-21.92976379"><ele>87.8</ele><time>2012-07-28T23:00:44.0000000+00:00</time></trkpt><trkpt lat="64.14627838" lon="-21.92976379"><ele>87.4</ele><time>2012-07-28T23:00:49.0000000+00:00</time></trkpt><trkpt lat="64.14627075" lon="-21.9297657"><ele>87.0</ele><time>2012-07-28T23:00:54.0000000+00:00</time></trkpt><trkpt lat="64.14626312" lon="-21.92977333"><ele>86.8</ele><time>2012-07-28T23:00:59.0000000+00:00</time></trkpt><trkpt lat="64.14625549" lon="-21.92977333"><ele>86.4</ele><time>2012-07-28T23:01:04.0000000+00:00</time></trkpt><trkpt lat="64.14622498" lon="-21.92975235"><ele>85.9</ele><time>2012-07-28T23:01:09.0000000+00:00</time></trkpt><trkpt lat="64.14621735" lon="-21.92975044"><ele>85.7</ele><time>2012-07-28T23:01:14.0000000+00:00</time></trkpt><trkpt lat="64.14617157" lon="-21.92973137"><ele>85.1</ele><time>2012-07-28T23:01:19.0000000+00:00</time></trkpt><trkpt lat="64.14614868" lon="-21.92973137"><ele>84.4</ele><time>2012-07-28T23:01:24.0000000+00:00</time></trkpt><trkpt lat="64.14614868" lon="-21.929739"><ele>84.2</ele><time>2012-07-28T23:01:29.0000000+00:00</time></trkpt><trkpt lat="64.14614105" lon="-21.92974091"><ele>84.0</ele><time>2012-07-28T23:01:34.0000000+00:00</time></trkpt><trkpt lat="64.14614105" lon="-21.92973709"><ele>83.7</ele><time>2012-07-28T23:01:39.0000000+00:00</time></trkpt><trkpt lat="64.14614868" lon="-21.92972183"><ele>83.4</ele><time>2012-07-28T23:01:44.0000000+00:00</time></trkpt><trkpt lat="64.14615631" lon="-21.92965508"><ele>81.2</ele><time>2012-07-28T23:01:49.0000000+00:00</time></trkpt><trkpt lat="64.14617157" lon="-21.92962265"><ele>80.7</ele><time>2012-07-28T23:01:54.0000000+00:00</time></trkpt><trkpt lat="64.14617157" lon="-21.92961121"><ele>80.3</ele><time>2012-07-28T23:01:59.0000000+00:00</time></trkpt><trkpt lat="64.14617157" lon="-21.92961311"><ele>79.7</ele><time>2012-07-28T23:02:04.0000000+00:00</time></trkpt><trkpt lat="64.14615631" lon="-21.92969513"><ele>78.1</ele><time>2012-07-28T23:02:09.0000000+00:00</time></trkpt><trkpt lat="64.14614868" lon="-21.92976761"><ele>75.5</ele><time>2012-07-28T23:02:14.0000000+00:00</time></trkpt><trkpt lat="64.14614868" lon="-21.92979431"><ele>74.8</ele><time>2012-07-28T23:02:19.0000000+00:00</time></trkpt><trkpt lat="64.14614868" lon="-21.92979813"><ele>74.1</ele><time>2012-07-28T23:02:24.0000000+00:00</time></trkpt><trkpt lat="64.14614868" lon="-21.92977715"><ele>73.3</ele><time>2012-07-28T23:02:29.0000000+00:00</time></trkpt><trkpt lat="64.14614105" lon="-21.92976189"><ele>72.5</ele><time>2012-07-28T23:02:34.0000000+00:00</time></trkpt><trkpt lat="64.14614105" lon="-21.92975998"><ele>71.9</ele><time>2012-07-28T23:02:39.0000000+00:00</time></trkpt><trkpt lat="64.14614105" lon="-21.92977524"><ele>71.2</ele><time>2012-07-28T23:02:44.0000000+00:00</time></trkpt><trkpt lat="64.14614105" lon="-21.92979431"><ele>70.2</ele><time>2012-07-28T23:02:49.0000000+00:00</time></trkpt><trkpt lat="64.14614105" lon="-21.92979622"><ele>67.7</ele><time>2012-07-28T23:02:54.0000000+00:00</time></trkpt><trkpt lat="64.14614868" lon="-21.92972565"><ele>64.2</ele><time>2012-07-28T23:02:59.0000000+00:00</time></trkpt><trkpt lat="64.14616394" lon="-21.92971039"><ele>63.1</ele><time>2012-07-28T23:03:04.0000000+00:00</time></trkpt><trkpt lat="64.1461792" lon="-21.92970276"><ele>62.0</ele><time>2012-07-28T23:03:09.0000000+00:00</time></trkpt><trkpt lat="64.14618683" lon="-21.92970276"><ele>61.3</ele><time>2012-07-28T23:03:14.0000000+00:00</time></trkpt><trkpt lat="64.14619446" lon="-21.9297123"><ele>60.5</ele><time>2012-07-28T23:03:19.0000000+00:00</time></trkpt><trkpt lat="64.14619446" lon="-21.92972565"><ele>59.6</ele><time>2012-07-28T23:03:24.0000000+00:00</time></trkpt><trkpt lat="64.14620209" lon="-21.92973709"><ele>58.7</ele><time>2012-07-28T23:03:29.0000000+00:00</time></trkpt><trkpt lat="64.14620972" lon="-21.92972755"><ele>57.8</ele><time>2012-07-28T23:03:34.0000000+00:00</time></trkpt><trkpt lat="64.14622498" lon="-21.92971993"><ele>57.2</ele><time>2012-07-28T23:03:39.0000000+00:00</time></trkpt><trkpt lat="64.14628601" lon="-21.93070793"><ele>56.1</ele><time>2012-07-28T23:03:59.0000000+00:00</time></trkpt><trkpt lat="64.14627075" lon="-21.93070602"><ele>56.6</ele><time>2012-07-28T23:04:04.0000000+00:00</time></trkpt><trkpt lat="64.14626312" lon="-21.93070221"><ele>56.6</ele><time>2012-07-28T23:04:09.0000000+00:00</time></trkpt><trkpt lat="64.14627075" lon="-21.93069267"><ele>56.6</ele><time>2012-07-28T23:04:14.0000000+00:00</time></trkpt><trkpt lat="64.14629364" lon="-21.93071747"><ele>58.2</ele><time>2012-07-28T23:04:19.0000000+00:00</time></trkpt><trkpt lat="64.14630127" lon="-21.93057823"><ele>53.6</ele><time>2012-07-28T23:04:24.0000000+00:00</time></trkpt><trkpt lat="64.14626312" lon="-21.93049431"><ele>47.4</ele><time>2012-07-28T23:04:29.0000000+00:00</time></trkpt><trkpt lat="64.14627075" lon="-21.93050003"><ele>47.5</ele><time>2012-07-28T23:04:34.0000000+00:00</time></trkpt><trkpt lat="64.14641571" lon="-21.93052864"><ele>41.9</ele><time>2012-07-28T23:04:39.0000000+00:00</time></trkpt><trkpt lat="64.14649963" lon="-21.930439"><ele>43.9</ele><time>2012-07-28T23:04:44.0000000+00:00</time></trkpt><trkpt lat="64.14654541" lon="-21.93045425"><ele>44.4</ele><time>2012-07-28T23:04:49.0000000+00:00</time></trkpt><trkpt lat="64.1465683" lon="-21.93055534"><ele>44.0</ele><time>2012-07-28T23:04:54.0000000+00:00</time></trkpt><trkpt lat="64.14658356" lon="-21.93062401"><ele>44.4</ele><time>2012-07-28T23:04:59.0000000+00:00</time></trkpt><trkpt lat="64.14659119" lon="-21.93065071"><ele>44.8</ele><time>2012-07-28T23:05:04.0000000+00:00</time></trkpt><trkpt lat="64.14659119" lon="-21.93066406"><ele>44.7</ele><time>2012-07-28T23:05:09.0000000+00:00</time></trkpt><trkpt lat="64.14659119" lon="-21.93067932"><ele>44.6</ele><time>2012-07-28T23:05:14.0000000+00:00</time></trkpt><trkpt lat="64.1465683" lon="-21.93074417"><ele>45.1</ele><time>2012-07-28T23:05:19.0000000+00:00</time></trkpt><trkpt lat="64.14650726" lon="-21.93085671"><ele>48.6</ele><time>2012-07-28T23:05:24.0000000+00:00</time></trkpt><trkpt lat="64.14649963" lon="-21.93076134"><ele>53.5</ele><time>2012-07-28T23:05:29.0000000+00:00</time></trkpt><trkpt lat="64.14653015" lon="-21.93072319"><ele>55.8</ele><time>2012-07-28T23:05:34.0000000+00:00</time></trkpt><trkpt lat="64.14654541" lon="-21.93070412"><ele>57.5</ele><time>2012-07-28T23:05:39.0000000+00:00</time></trkpt><trkpt lat="64.14654541" lon="-21.93071365"><ele>57.9</ele><time>2012-07-28T23:05:44.0000000+00:00</time></trkpt><trkpt lat="64.14655304" lon="-21.93072319"><ele>58.3</ele><time>2012-07-28T23:05:49.0000000+00:00</time></trkpt><trkpt lat="64.14655304" lon="-21.93073082"><ele>58.7</ele><time>2012-07-28T23:05:54.0000000+00:00</time></trkpt><trkpt lat="64.14655304" lon="-21.93073273"><ele>59.0</ele><time>2012-07-28T23:05:59.0000000+00:00</time></trkpt><trkpt lat="64.14654541" lon="-21.93073463"><ele>59.4</ele><time>2012-07-28T23:06:04.0000000+00:00</time></trkpt><trkpt lat="64.14654541" lon="-21.93073273"><ele>59.6</ele><time>2012-07-28T23:06:09.0000000+00:00</time></trkpt><trkpt lat="64.14654541" lon="-21.93072701"><ele>59.9</ele><time>2012-07-28T23:06:14.0000000+00:00</time></trkpt><trkpt lat="64.14653778" lon="-21.9307251"><ele>60.0</ele><time>2012-07-28T23:06:19.0000000+00:00</time></trkpt><trkpt lat="64.14653778" lon="-21.93071938"><ele>60.1</ele><time>2012-07-28T23:06:24.0000000+00:00</time></trkpt><trkpt lat="64.14653778" lon="-21.93070984"><ele>60.1</ele><time>2012-07-28T23:06:29.0000000+00:00</time></trkpt><trkpt lat="64.14653015" lon="-21.93071175"><ele>59.4</ele><time>2012-07-28T23:06:34.0000000+00:00</time></trkpt><trkpt lat="64.14649963" lon="-21.93071175"><ele>58.1</ele><time>2012-07-28T23:06:39.0000000+00:00</time></trkpt><trkpt lat="64.14647675" lon="-21.93069649"><ele>56.6</ele><time>2012-07-28T23:06:44.0000000+00:00</time></trkpt><trkpt lat="64.14645386" lon="-21.93072128"><ele>56.0</ele><time>2012-07-28T23:06:49.0000000+00:00</time></trkpt><trkpt lat="64.14643097" lon="-21.93078423"><ele>55.1</ele><time>2012-07-28T23:06:54.0000000+00:00</time></trkpt><trkpt lat="64.14641571" lon="-21.93080139"><ele>54.5</ele><time>2012-07-28T23:06:59.0000000+00:00</time></trkpt><trkpt lat="64.14640808" lon="-21.93078804"><ele>53.9</ele><time>2012-07-28T23:07:04.0000000+00:00</time></trkpt><trkpt lat="64.14639282" lon="-21.93077469"><ele>53.3</ele><time>2012-07-28T23:07:09.0000000+00:00</time></trkpt><trkpt lat="64.14598084" lon="-21.9311657"><ele>58.4</ele><time>2012-07-28T23:12:41.0000000+00:00</time></trkpt><trkpt lat="64.14587402" lon="-21.93073654"><ele>58.0</ele><time>2012-07-28T23:12:46.0000000+00:00</time></trkpt><trkpt lat="64.14593506" lon="-21.93049431"><ele>57.8</ele><time>2012-07-28T23:12:51.0000000+00:00</time></trkpt><trkpt lat="64.14595795" lon="-21.93034935"><ele>57.7</ele><time>2012-07-28T23:12:56.0000000+00:00</time></trkpt><trkpt lat="64.14595032" lon="-21.9301014"><ele>57.6</ele><time>2012-07-28T23:13:01.0000000+00:00</time></trkpt><trkpt lat="64.14594269" lon="-21.92988777"><ele>57.6</ele><time>2012-07-28T23:13:06.0000000+00:00</time></trkpt><trkpt lat="64.14600372" lon="-21.92973518"><ele>57.6</ele><time>2012-07-28T23:13:11.0000000+00:00</time></trkpt><trkpt lat="64.1460495" lon="-21.92961121"><ele>57.5</ele><time>2012-07-28T23:13:16.0000000+00:00</time></trkpt><trkpt lat="64.14608765" lon="-21.92959595"><ele>57.5</ele><time>2012-07-28T23:13:21.0000000+00:00</time></trkpt><trkpt lat="64.14619446" lon="-21.9295063"><ele>57.4</ele><time>2012-07-28T23:13:26.0000000+00:00</time></trkpt><trkpt lat="64.14630127" lon="-21.92954254"><ele>57.4</ele><time>2012-07-28T23:13:31.0000000+00:00</time></trkpt><trkpt lat="64.14624023" lon="-21.92956734"><ele>57.4</ele><time>2012-07-28T23:13:36.0000000+00:00</time></trkpt><trkpt lat="64.14617157" lon="-21.92960548"><ele>56.9</ele><time>2012-07-28T23:13:41.0000000+00:00</time></trkpt><trkpt lat="64.14620972" lon="-21.9295044"><ele>56.9</ele><time>2012-07-28T23:13:46.0000000+00:00</time></trkpt><trkpt lat="64.14619446" lon="-21.92953301"><ele>56.8</ele><time>2012-07-28T23:13:51.0000000+00:00</time></trkpt><trkpt lat="64.14616394" lon="-21.92961884"><ele>56.8</ele><time>2012-07-28T23:13:56.0000000+00:00</time></trkpt><trkpt lat="64.14618683" lon="-21.92971611"><ele>56.7</ele><time>2012-07-28T23:14:01.0000000+00:00</time></trkpt><trkpt lat="64.14621735" lon="-21.92972374"><ele>56.7</ele><time>2012-07-28T23:14:06.0000000+00:00</time></trkpt><trkpt lat="64.14622498" lon="-21.92978478"><ele>56.6</ele><time>2012-07-28T23:14:11.0000000+00:00</time></trkpt><trkpt lat="64.14622498" lon="-21.92987251"><ele>56.5</ele><time>2012-07-28T23:14:16.0000000+00:00</time></trkpt><trkpt lat="64.14628601" lon="-21.92985916"><ele>56.4</ele><time>2012-07-28T23:14:21.0000000+00:00</time></trkpt><trkpt lat="64.14624023" lon="-21.92994309"><ele>56.1</ele><time>2012-07-28T23:14:26.0000000+00:00</time></trkpt><trkpt lat="64.14612579" lon="-21.93011284"><ele>56.0</ele><time>2012-07-28T23:14:31.0000000+00:00</time></trkpt><trkpt lat="64.14613342" lon="-21.93037987"><ele>55.6</ele><time>2012-07-28T23:14:36.0000000+00:00</time></trkpt><trkpt lat="64.14599609" lon="-21.92971611"><ele>51.2</ele><time>2012-07-28T23:16:00.0000000+00:00</time></trkpt><trkpt lat="64.14611816" lon="-21.92974663"><ele>48.0</ele><time>2012-07-28T23:16:05.0000000+00:00</time></trkpt><trkpt lat="64.14619446" lon="-21.92990112"><ele>44.4</ele><time>2012-07-28T23:16:10.0000000+00:00</time></trkpt><trkpt lat="64.14616394" lon="-21.93004799"><ele>42.8</ele><time>2012-07-28T23:16:15.0000000+00:00</time></trkpt><trkpt lat="64.14622498" lon="-21.93012428"><ele>41.9</ele><time>2012-07-28T23:16:20.0000000+00:00</time></trkpt><trkpt lat="64.14628601" lon="-21.93009758"><ele>42.0</ele><time>2012-07-28T23:16:25.0000000+00:00</time></trkpt><trkpt lat="64.14633942" lon="-21.93001556"><ele>42.3</ele><time>2012-07-28T23:16:30.0000000+00:00</time></trkpt><trkpt lat="64.14633942" lon="-21.93001938"><ele>40.7</ele><time>2012-07-28T23:16:35.0000000+00:00</time></trkpt><trkpt lat="64.14630127" lon="-21.9301281"><ele>38.6</ele><time>2012-07-28T23:16:40.0000000+00:00</time></trkpt><trkpt lat="64.14633179" lon="-21.93010712"><ele>37.0</ele><time>2012-07-28T23:16:45.0000000+00:00</time></trkpt><trkpt lat="64.14629364" lon="-21.93009758"><ele>34.9</ele><time>2012-07-28T23:16:50.0000000+00:00</time></trkpt><trkpt lat="64.14630127" lon="-21.93011856"><ele>32.9</ele><time>2012-07-28T23:16:55.0000000+00:00</time></trkpt><trkpt lat="64.1463089" lon="-21.93027878"><ele>31.3</ele><time>2012-07-28T23:17:00.0000000+00:00</time></trkpt><trkpt lat="64.14631653" lon="-21.93042183"><ele>29.2</ele><time>2012-07-28T23:17:05.0000000+00:00</time></trkpt><trkpt lat="64.14639282" lon="-21.93046761"><ele>27.8</ele><time>2012-07-28T23:17:10.0000000+00:00</time></trkpt><trkpt lat="64.14636231" lon="-21.93042183"><ele>26.0</ele><time>2012-07-28T23:17:15.0000000+00:00</time></trkpt><trkpt lat="64.14635468" lon="-21.93024254"><ele>23.2</ele><time>2012-07-28T23:17:20.0000000+00:00</time></trkpt><trkpt lat="64.14640045" lon="-21.93021774"><ele>17.6</ele><time>2012-07-28T23:17:25.0000000+00:00</time></trkpt><trkpt lat="64.14640045" lon="-21.93021584"><ele>11.1</ele><time>2012-07-28T23:17:30.0000000+00:00</time></trkpt><trkpt lat="64.1464386" lon="-21.93026352"><ele>5.1</ele><time>2012-07-28T23:17:35.0000000+00:00</time></trkpt><trkpt lat="64.14647675" lon="-21.93043137"><ele>-0.4</ele><time>2012-07-28T23:17:40.0000000+00:00</time></trkpt><trkpt lat="64.14647675" lon="-21.93055344"><ele>-6.0</ele><time>2012-07-28T23:17:45.0000000+00:00</time></trkpt><trkpt lat="64.14653015" lon="-21.93062973"><ele>-10.7</ele><time>2012-07-28T23:17:50.0000000+00:00</time></trkpt><trkpt lat="64.14665222" lon="-21.93070984"><ele>-16.0</ele><time>2012-07-28T23:17:55.0000000+00:00</time></trkpt><trkpt lat="64.14667511" lon="-21.93081093"><ele>-22.0</ele><time>2012-07-28T23:18:00.0000000+00:00</time></trkpt><trkpt lat="64.14670563" lon="-21.93084335"><ele>-25.3</ele><time>2012-07-28T23:18:05.0000000+00:00</time></trkpt><trkpt lat="64.14674377" lon="-21.9307518"><ele>-23.8</ele><time>2012-07-28T23:18:10.0000000+00:00</time></trkpt><trkpt lat="64.14680481" lon="-21.93059921"><ele>-13.1</ele><time>2012-07-28T23:18:15.0000000+00:00</time></trkpt><trkpt lat="64.14678955" lon="-21.93043327"><ele>-4.9</ele><time>2012-07-28T23:18:20.0000000+00:00</time></trkpt><trkpt lat="64.14674377" lon="-21.93036652"><ele>4.1</ele><time>2012-07-28T23:18:25.0000000+00:00</time></trkpt><trkpt lat="64.14672089" lon="-21.93030167"><ele>7.2</ele><time>2012-07-28T23:18:30.0000000+00:00</time></trkpt><trkpt lat="64.14665985" lon="-21.93030357"><ele>9.1</ele><time>2012-07-28T23:18:35.0000000+00:00</time></trkpt><trkpt lat="64.14657593" lon="-21.93031502"><ele>10.9</ele><time>2012-07-28T23:18:40.0000000+00:00</time></trkpt><trkpt lat="64.14648438" lon="-21.93042946"><ele>11.4</ele><time>2012-07-28T23:18:45.0000000+00:00</time></trkpt><trkpt lat="64.14632416" lon="-21.93040276"><ele>15.5</ele><time>2012-07-28T23:18:50.0000000+00:00</time></trkpt><trkpt lat="64.14614868" lon="-21.93034363"><ele>20.9</ele><time>2012-07-28T23:18:55.0000000+00:00</time></trkpt><trkpt lat="64.14612579" lon="-21.93031502"><ele>22.6</ele><time>2012-07-28T23:19:00.0000000+00:00</time></trkpt><trkpt lat="64.14616394" lon="-21.93034363"><ele>23.6</ele><time>2012-07-28T23:19:05.0000000+00:00</time></trkpt><trkpt lat="64.14620972" lon="-21.93030167"><ele>24.1</ele><time>2012-07-28T23:19:10.0000000+00:00</time></trkpt><trkpt lat="64.14624786" lon="-21.93029976"><ele>23.7</ele><time>2012-07-28T23:19:15.0000000+00:00</time></trkpt><trkpt lat="64.14627075" lon="-21.93030167"><ele>23.2</ele><time>2012-07-28T23:19:20.0000000+00:00</time></trkpt><trkpt lat="64.14628601" lon="-21.93035507"><ele>22.8</ele><time>2012-07-28T23:19:25.0000000+00:00</time></trkpt><trkpt lat="64.1463089" lon="-21.93035317"><ele>21.9</ele><time>2012-07-28T23:19:30.0000000+00:00</time></trkpt><trkpt lat="64.14630127" lon="-21.93042946"><ele>21.0</ele><time>2012-07-28T23:19:35.0000000+00:00</time></trkpt><trkpt lat="64.1463089" lon="-21.93045616"><ele>19.8</ele><time>2012-07-28T23:19:40.0000000+00:00</time></trkpt><trkpt lat="64.14627838" lon="-21.93056297"><ele>18.7</ele><time>2012-07-28T23:19:45.0000000+00:00</time></trkpt><trkpt lat="64.14628601" lon="-21.93060494"><ele>17.6</ele><time>2012-07-28T23:19:50.0000000+00:00</time></trkpt><trkpt lat="64.14631653" lon="-21.93056679"><ele>15.9</ele><time>2012-07-28T23:19:55.0000000+00:00</time></trkpt><trkpt lat="64.14627075" lon="-21.93062401"><ele>14.2</ele><time>2012-07-28T23:20:00.0000000+00:00</time></trkpt><trkpt lat="64.14615631" lon="-21.9307766"><ele>12.5</ele><time>2012-07-28T23:20:05.0000000+00:00</time></trkpt><trkpt lat="64.14619446" lon="-21.93078041"><ele>10.8</ele><time>2012-07-28T23:20:10.0000000+00:00</time></trkpt><trkpt lat="64.14620209" lon="-21.93081665"><ele>9.1</ele><time>2012-07-28T23:20:15.0000000+00:00</time></trkpt><trkpt lat="64.14623261" lon="-21.93079758"><ele>7.1</ele><time>2012-07-28T23:20:20.0000000+00:00</time></trkpt><trkpt lat="64.14624023" lon="-21.93078804"><ele>5.1</ele><time>2012-07-28T23:20:25.0000000+00:00</time></trkpt><trkpt lat="64.1463089" lon="-21.93070793"><ele>2.5</ele><time>2012-07-28T23:20:30.0000000+00:00</time></trkpt><trkpt lat="64.14643097" lon="-21.93057251"><ele>0.3</ele><time>2012-07-28T23:20:35.0000000+00:00</time></trkpt><trkpt lat="64.14651489" lon="-21.93066597"><ele>-2.1</ele><time>2012-07-28T23:20:40.0000000+00:00</time></trkpt><trkpt lat="64.14658356" lon="-21.93070412"><ele>-4.8</ele><time>2012-07-28T23:20:45.0000000+00:00</time></trkpt><trkpt lat="64.14665985" lon="-21.93070412"><ele>-8.0</ele><time>2012-07-28T23:20:50.0000000+00:00</time></trkpt><trkpt lat="64.14667511" lon="-21.93070602"><ele>-11.8</ele><time>2012-07-28T23:20:55.0000000+00:00</time></trkpt><trkpt lat="64.14678955" lon="-21.93067551"><ele>-15.8</ele><time>2012-07-28T23:21:00.0000000+00:00</time></trkpt><trkpt lat="64.14678192" lon="-21.93075562"><ele>-19.1</ele><time>2012-07-28T23:21:05.0000000+00:00</time></trkpt><trkpt lat="64.14681244" lon="-21.93069458"><ele>-21.5</ele><time>2012-07-28T23:21:10.0000000+00:00</time></trkpt><trkpt lat="64.14678955" lon="-21.93072128"><ele>-23.6</ele><time>2012-07-28T23:21:15.0000000+00:00</time></trkpt><trkpt lat="64.14677429" lon="-21.93086052"><ele>-25.2</ele><time>2012-07-28T23:21:20.0000000+00:00</time></trkpt><trkpt lat="64.14678192" lon="-21.93088532"><ele>-26.9</ele><time>2012-07-28T23:21:25.0000000+00:00</time></trkpt><trkpt lat="64.1467514" lon="-21.93081284"><ele>-28.5</ele><time>2012-07-28T23:21:30.0000000+00:00</time></trkpt><trkpt lat="64.14679718" lon="-21.93082428"><ele>-29.5</ele><time>2012-07-28T23:21:35.0000000+00:00</time></trkpt><trkpt lat="64.14682007" lon="-21.93084145"><ele>-30.5</ele><time>2012-07-28T23:21:40.0000000+00:00</time></trkpt><trkpt lat="64.1468811" lon="-21.93083572"><ele>-31.1</ele><time>2012-07-28T23:21:45.0000000+00:00</time></trkpt><trkpt lat="64.14688873" lon="-21.93089294"><ele>-31.8</ele><time>2012-07-28T23:21:50.0000000+00:00</time></trkpt><trkpt lat="64.14689636" lon="-21.93084717"><ele>-32.5</ele><time>2012-07-28T23:21:55.0000000+00:00</time></trkpt><trkpt lat="64.14692688" lon="-21.93080521"><ele>-32.8</ele><time>2012-07-28T23:22:00.0000000+00:00</time></trkpt><trkpt lat="64.14690399" lon="-21.93085098"><ele>-33.1</ele><time>2012-07-28T23:22:05.0000000+00:00</time></trkpt><trkpt lat="64.14688873" lon="-21.93080139"><ele>-33.3</ele><time>2012-07-28T23:22:10.0000000+00:00</time></trkpt><trkpt lat="64.14688873" lon="-21.9307785"><ele>-33.9</ele><time>2012-07-28T23:22:15.0000000+00:00</time></trkpt><trkpt lat="64.14691925" lon="-21.93068123"><ele>-34.1</ele><time>2012-07-28T23:22:20.0000000+00:00</time></trkpt><trkpt lat="64.14691925" lon="-21.93065834"><ele>-34.3</ele><time>2012-07-28T23:22:25.0000000+00:00</time></trkpt><trkpt lat="64.14691925" lon="-21.93062592"><ele>-35.0</ele><time>2012-07-28T23:22:30.0000000+00:00</time></trkpt><trkpt lat="64.1468811" lon="-21.93064117"><ele>-34.7</ele><time>2012-07-28T23:22:35.0000000+00:00</time></trkpt><trkpt lat="64.14685059" lon="-21.93070984"><ele>-34.4</ele><time>2012-07-28T23:22:40.0000000+00:00</time></trkpt><trkpt lat="64.14679718" lon="-21.93082428"><ele>-34.0</ele><time>2012-07-28T23:22:45.0000000+00:00</time></trkpt><trkpt lat="64.14678955" lon="-21.93088913"><ele>-33.2</ele><time>2012-07-28T23:22:50.0000000+00:00</time></trkpt><trkpt lat="64.14644623" lon="-21.93098259"><ele>-31.5</ele><time>2012-07-28T23:22:55.0000000+00:00</time></trkpt><trkpt lat="64.14624023" lon="-21.93092728"><ele>-31.4</ele><time>2012-07-28T23:23:00.0000000+00:00</time></trkpt><trkpt lat="64.14616394" lon="-21.93088722"><ele>-31.4</ele><time>2012-07-28T23:23:05.0000000+00:00</time></trkpt><trkpt lat="64.1460495" lon="-21.93096161"><ele>-29.9</ele><time>2012-07-28T23:23:10.0000000+00:00</time></trkpt><trkpt lat="64.14598084" lon="-21.93107796"><ele>-28.1</ele><time>2012-07-28T23:23:15.0000000+00:00</time></trkpt><trkpt lat="64.14598846" lon="-21.93098068"><ele>-26.0</ele><time>2012-07-28T23:23:20.0000000+00:00</time></trkpt><trkpt lat="64.14595795" lon="-21.93103027"><ele>-24.2</ele><time>2012-07-28T23:23:25.0000000+00:00</time></trkpt><trkpt lat="64.14603424" lon="-21.9308815"><ele>-21.3</ele><time>2012-07-28T23:23:30.0000000+00:00</time></trkpt><trkpt lat="64.14606476" lon="-21.93077469"><ele>-18.6</ele><time>2012-07-28T23:23:35.0000000+00:00</time></trkpt><trkpt lat="64.14608002" lon="-21.93067932"><ele>-17.8</ele><time>2012-07-28T23:23:40.0000000+00:00</time></trkpt><trkpt lat="64.14610291" lon="-21.93059349"><ele>-16.1</ele><time>2012-07-28T23:23:45.0000000+00:00</time></trkpt><trkpt lat="64.14608765" lon="-21.93060494"><ele>-15.4</ele><time>2012-07-28T23:23:50.0000000+00:00</time></trkpt><trkpt lat="64.14616394" lon="-21.93031693"><ele>-13.4</ele><time>2012-07-28T23:23:55.0000000+00:00</time></trkpt><trkpt lat="64.14612579" lon="-21.93051338"><ele>-11.9</ele><time>2012-07-28T23:24:00.0000000+00:00</time></trkpt><trkpt lat="64.14609528" lon="-21.93064117"><ele>-9.3</ele><time>2012-07-28T23:24:05.0000000+00:00</time></trkpt><trkpt lat="64.14611054" lon="-21.93058205"><ele>-7.3</ele><time>2012-07-28T23:24:10.0000000+00:00</time></trkpt><trkpt lat="64.14611816" lon="-21.93058205"><ele>-4.9</ele><time>2012-07-28T23:24:15.0000000+00:00</time></trkpt><trkpt lat="64.14614868" lon="-21.9304142"><ele>-1.0</ele><time>2012-07-28T23:24:20.0000000+00:00</time></trkpt><trkpt lat="64.14615631" lon="-21.93028069"><ele>1.6</ele><time>2012-07-28T23:24:25.0000000+00:00</time></trkpt><trkpt lat="64.14616394" lon="-21.93016052"><ele>2.4</ele><time>2012-07-28T23:24:30.0000000+00:00</time></trkpt><trkpt lat="64.14615631" lon="-21.93011665"><ele>3.8</ele><time>2012-07-28T23:24:35.0000000+00:00</time></trkpt><trkpt lat="64.14613342" lon="-21.93013382"><ele>5.6</ele><time>2012-07-28T23:24:40.0000000+00:00</time></trkpt><trkpt lat="64.14613342" lon="-21.93005753"><ele>6.9</ele><time>2012-07-28T23:24:45.0000000+00:00</time></trkpt><trkpt lat="64.14617157" lon="-21.92993546"><ele>8.8</ele><time>2012-07-28T23:24:50.0000000+00:00</time></trkpt><trkpt lat="64.14615631" lon="-21.92991638"><ele>11.1</ele><time>2012-07-28T23:24:55.0000000+00:00</time></trkpt><trkpt lat="64.14615631" lon="-21.9299736"><ele>13.5</ele><time>2012-07-28T23:25:00.0000000+00:00</time></trkpt><trkpt lat="64.14614868" lon="-21.92997551"><ele>14.8</ele><time>2012-07-28T23:25:05.0000000+00:00</time></trkpt><trkpt lat="64.14613342" lon="-21.93001556"><ele>15.9</ele><time>2012-07-28T23:25:10.0000000+00:00</time></trkpt><trkpt lat="64.14616394" lon="-21.92986679"><ele>18.1</ele><time>2012-07-28T23:25:15.0000000+00:00</time></trkpt><trkpt lat="64.14613342" lon="-21.92996788"><ele>20.3</ele><time>2012-07-28T23:25:20.0000000+00:00</time></trkpt><trkpt lat="64.14611816" lon="-21.93004417"><ele>22.2</ele><time>2012-07-28T23:25:25.0000000+00:00</time></trkpt><trkpt lat="64.14611054" lon="-21.93008995"><ele>22.7</ele><time>2012-07-28T23:25:30.0000000+00:00</time></trkpt><trkpt lat="64.14608002" lon="-21.93020058"><ele>24.6</ele><time>2012-07-28T23:25:35.0000000+00:00</time></trkpt><trkpt lat="64.14612579" lon="-21.93009567"><ele>26.5</ele><time>2012-07-28T23:25:40.0000000+00:00</time></trkpt><trkpt lat="64.14614868" lon="-21.93002892"><ele>27.8</ele><time>2012-07-28T23:25:45.0000000+00:00</time></trkpt><trkpt lat="64.14615631" lon="-21.92994118"><ele>29.4</ele><time>2012-07-28T23:25:50.0000000+00:00</time></trkpt><trkpt lat="64.1461792" lon="-21.92987824"><ele>30.7</ele><time>2012-07-28T23:25:55.0000000+00:00</time></trkpt><trkpt lat="64.14622498" lon="-21.92974281"><ele>32.4</ele><time>2012-07-28T23:26:00.0000000+00:00</time></trkpt><trkpt lat="64.14624023" lon="-21.92976761"><ele>35.1</ele><time>2012-07-28T23:26:05.0000000+00:00</time></trkpt><trkpt lat="64.14625549" lon="-21.92972565"><ele>37.7</ele><time>2012-07-28T23:26:10.0000000+00:00</time></trkpt><trkpt lat="64.14625549" lon="-21.92973328"><ele>39.6</ele><time>2012-07-28T23:26:15.0000000+00:00</time></trkpt><trkpt lat="64.14624786" lon="-21.92970657"><ele>40.6</ele><time>2012-07-28T23:26:20.0000000+00:00</time></trkpt><trkpt lat="64.14622498" lon="-21.92970467"><ele>42.4</ele><time>2012-07-28T23:26:25.0000000+00:00</time></trkpt><trkpt lat="64.14620209" lon="-21.92966461"><ele>44.4</ele><time>2012-07-28T23:26:30.0000000+00:00</time></trkpt><trkpt lat="64.14620209" lon="-21.92963982"><ele>45.7</ele><time>2012-07-28T23:26:35.0000000+00:00</time></trkpt><trkpt lat="64.14619446" lon="-21.92967224"><ele>46.1</ele><time>2012-07-28T23:26:40.0000000+00:00</time></trkpt><trkpt lat="64.14615631" lon="-21.92984772"><ele>46.7</ele><time>2012-07-28T23:26:45.0000000+00:00</time></trkpt><trkpt lat="64.14614105" lon="-21.9298687"><ele>47.6</ele><time>2012-07-28T23:26:50.0000000+00:00</time></trkpt><trkpt lat="64.14617157" lon="-21.92984963"><ele>47.3</ele><time>2012-07-28T23:26:55.0000000+00:00</time></trkpt><trkpt lat="64.14619446" lon="-21.92987251"><ele>46.2</ele><time>2012-07-28T23:27:00.0000000+00:00</time></trkpt><trkpt lat="64.14625549" lon="-21.92979813"><ele>45.0</ele><time>2012-07-28T23:27:05.0000000+00:00</time></trkpt><trkpt lat="64.14627075" lon="-21.92977142"><ele>43.2</ele><time>2012-07-28T23:27:10.0000000+00:00</time></trkpt><trkpt lat="64.14623261" lon="-21.92991829"><ele>41.9</ele><time>2012-07-28T23:27:15.0000000+00:00</time></trkpt><trkpt lat="64.14623261" lon="-21.92993355"><ele>41.6</ele><time>2012-07-28T23:27:20.0000000+00:00</time></trkpt><trkpt lat="64.14624023" lon="-21.92992401"><ele>39.7</ele><time>2012-07-28T23:27:25.0000000+00:00</time></trkpt><trkpt lat="64.14624786" lon="-21.92990303"><ele>37.3</ele><time>2012-07-28T23:27:30.0000000+00:00</time></trkpt><trkpt lat="64.14624023" lon="-21.92995834"><ele>35.5</ele><time>2012-07-28T23:27:35.0000000+00:00</time></trkpt><trkpt lat="64.14624786" lon="-21.92999268"><ele>34.3</ele><time>2012-07-28T23:27:40.0000000+00:00</time></trkpt><trkpt lat="64.14624023" lon="-21.92998314"><ele>32.7</ele><time>2012-07-28T23:27:45.0000000+00:00</time></trkpt><trkpt lat="64.14620972" lon="-21.93010902"><ele>31.3</ele><time>2012-07-28T23:27:50.0000000+00:00</time></trkpt><trkpt lat="64.1461792" lon="-21.93019104"><ele>30.6</ele><time>2012-07-28T23:27:55.0000000+00:00</time></trkpt><trkpt lat="64.14618683" lon="-21.93019104"><ele>29.7</ele><time>2012-07-28T23:28:00.0000000+00:00</time></trkpt><trkpt lat="64.14616394" lon="-21.93027115"><ele>28.6</ele><time>2012-07-28T23:28:05.0000000+00:00</time></trkpt><trkpt lat="64.14616394" lon="-21.93023872"><ele>26.9</ele><time>2012-07-28T23:28:10.0000000+00:00</time></trkpt><trkpt lat="64.14614868" lon="-21.93027306"><ele>25.6</ele><time>2012-07-28T23:28:15.0000000+00:00</time></trkpt><trkpt lat="64.14614868" lon="-21.93025589"><ele>25.4</ele><time>2012-07-28T23:28:20.0000000+00:00</time></trkpt><trkpt lat="64.14612579" lon="-21.93023109"><ele>25.5</ele><time>2012-07-28T23:28:25.0000000+00:00</time></trkpt><trkpt lat="64.14611054" lon="-21.93027878"><ele>25.5</ele><time>2012-07-28T23:28:30.0000000+00:00</time></trkpt><trkpt lat="64.14614105" lon="-21.93025589"><ele>25.2</ele><time>2012-07-28T23:28:35.0000000+00:00</time></trkpt><trkpt lat="64.14620209" lon="-21.9301548"><ele>24.2</ele><time>2012-07-28T23:28:40.0000000+00:00</time></trkpt><trkpt lat="64.14620972" lon="-21.93021202"><ele>23.5</ele><time>2012-07-28T23:28:45.0000000+00:00</time></trkpt><trkpt lat="64.14627838" lon="-21.93012428"><ele>23.4</ele><time>2012-07-28T23:28:50.0000000+00:00</time></trkpt><trkpt lat="64.14625549" lon="-21.93009758"><ele>22.8</ele><time>2012-07-28T23:28:55.0000000+00:00</time></trkpt><trkpt lat="64.14627075" lon="-21.93002701"><ele>22.1</ele><time>2012-07-28T23:29:00.0000000+00:00</time></trkpt><trkpt lat="64.14630127" lon="-21.92998314"><ele>21.4</ele><time>2012-07-28T23:29:05.0000000+00:00</time></trkpt><trkpt lat="64.1463089" lon="-21.93007469"><ele>20.5</ele><time>2012-07-28T23:29:10.0000000+00:00</time></trkpt><trkpt lat="64.14627838" lon="-21.93005562"><ele>20.2</ele><time>2012-07-28T23:29:15.0000000+00:00</time></trkpt><trkpt lat="64.14628601" lon="-21.92998695"><ele>20.5</ele><time>2012-07-28T23:29:20.0000000+00:00</time></trkpt><trkpt lat="64.14629364" lon="-21.92996979"><ele>20.9</ele><time>2012-07-28T23:29:25.0000000+00:00</time></trkpt><trkpt lat="64.14630127" lon="-21.93003655"><ele>21.8</ele><time>2012-07-28T23:29:30.0000000+00:00</time></trkpt><trkpt lat="64.14632416" lon="-21.93003655"><ele>23.1</ele><time>2012-07-28T23:29:35.0000000+00:00</time></trkpt><trkpt lat="64.14633179" lon="-21.92986107"><ele>25.5</ele><time>2012-07-28T23:29:40.0000000+00:00</time></trkpt><trkpt lat="64.14632416" lon="-21.92976952"><ele>28.3</ele><time>2012-07-28T23:29:45.0000000+00:00</time></trkpt><trkpt lat="64.14632416" lon="-21.92966652"><ele>30.4</ele><time>2012-07-28T23:29:50.0000000+00:00</time></trkpt><trkpt lat="64.14624786" lon="-21.92980385"><ele>33.0</ele><time>2012-07-28T23:29:55.0000000+00:00</time></trkpt><trkpt lat="64.14626312" lon="-21.92981339"><ele>34.0</ele><time>2012-07-28T23:30:00.0000000+00:00</time></trkpt><trkpt lat="64.14623261" lon="-21.92984581"><ele>34.9</ele><time>2012-07-28T23:30:05.0000000+00:00</time></trkpt><trkpt lat="64.14625549" lon="-21.92983818"><ele>35.2</ele><time>2012-07-28T23:30:10.0000000+00:00</time></trkpt><trkpt lat="64.14625549" lon="-21.92996025"><ele>35.5</ele><time>2012-07-28T23:30:15.0000000+00:00</time></trkpt><trkpt lat="64.14627075" lon="-21.93010712"><ele>34.3</ele><time>2012-07-28T23:30:20.0000000+00:00</time></trkpt><trkpt lat="64.14629364" lon="-21.93010521"><ele>32.6</ele><time>2012-07-28T23:30:25.0000000+00:00</time></trkpt><trkpt lat="64.14629364" lon="-21.9302063"><ele>31.1</ele><time>2012-07-28T23:30:30.0000000+00:00</time></trkpt><trkpt lat="64.1463089" lon="-21.93024826"><ele>29.8</ele><time>2012-07-28T23:30:35.0000000+00:00</time></trkpt><trkpt lat="64.14627075" lon="-21.93033981"><ele>27.4</ele><time>2012-07-28T23:30:40.0000000+00:00</time></trkpt><trkpt lat="64.14628601" lon="-21.93029594"><ele>25.7</ele><time>2012-07-28T23:30:45.0000000+00:00</time></trkpt><trkpt lat="64.14629364" lon="-21.93030548"><ele>23.9</ele><time>2012-07-28T23:30:50.0000000+00:00</time></trkpt><trkpt lat="64.14627838" lon="-21.93035317"><ele>22.3</ele><time>2012-07-28T23:30:55.0000000+00:00</time></trkpt><trkpt lat="64.14625549" lon="-21.93034172"><ele>20.0</ele><time>2012-07-28T23:31:00.0000000+00:00</time></trkpt><trkpt lat="64.14630127" lon="-21.93027306"><ele>18.7</ele><time>2012-07-28T23:31:05.0000000+00:00</time></trkpt><trkpt lat="64.14634705" lon="-21.93026352"><ele>17.6</ele><time>2012-07-28T23:31:10.0000000+00:00</time></trkpt></trkseg></trk></gpx>